<?xml version="1.0" encoding="UTF-8" standalone="no" ?>
<gpx xmlns="http://www.topografix.com/GPX/1/1" xmlns:xsi="http://www.w3.org/2001/XMLSchema-instance" xsi:schemaLocation="http://www.topografix.com/GPX/1/1 http://www.topografix.com/GPX/1/1/gpx.xsd" version="1.1" creator="VisuGPX - https://www.visugpx.com">
  <metadata>
    <name>Aumessas - lac des Pises</name>
    <desc><![CDATA[Parcours plutôt bien ombragé, à part vers le lac et sur la crête au retour.
Fait avec 32°C annoncés à Aumessas, il faisait chaud l'après-midi mais c'était supportable.

#ombre #asptt-jeudi #enregistré]]></desc>
  </metadata>
  <trk>
    <name><![CDATA[Trace 1779951782000]]></name>
    <trkseg>
      <trkpt lat="43.99075" lon="3.50398">
        <ele>500</ele>
        <time>2026-05-28T07:03:02.000Z</time>
      </trkpt>
      <trkpt lat="43.99076" lon="3.50397">
        <ele>500.2</ele>
        <time>2026-05-28T07:03:03.000Z</time>
      </trkpt>
      <trkpt lat="43.99076" lon="3.50396">
        <ele>500</ele>
        <time>2026-05-28T07:03:04.000Z</time>
      </trkpt>
      <trkpt lat="43.99077" lon="3.50395">
        <ele>499.7</ele>
        <time>2026-05-28T07:03:05.000Z</time>
      </trkpt>
      <trkpt lat="43.99078" lon="3.50394">
        <ele>499.3</ele>
        <time>2026-05-28T07:03:06.000Z</time>
      </trkpt>
      <trkpt lat="43.99081" lon="3.50391">
        <ele>500.3</ele>
        <time>2026-05-28T07:03:07.000Z</time>
      </trkpt>
      <trkpt lat="43.99083" lon="3.5039">
        <ele>500.9</ele>
        <time>2026-05-28T07:03:08.000Z</time>
      </trkpt>
      <trkpt lat="43.99085" lon="3.50389">
        <ele>500.6</ele>
        <time>2026-05-28T07:03:09.000Z</time>
      </trkpt>
      <trkpt lat="43.99086" lon="3.50387">
        <ele>500.4</ele>
        <time>2026-05-28T07:03:10.000Z</time>
      </trkpt>
      <trkpt lat="43.99086" lon="3.50386">
        <ele>500.8</ele>
        <time>2026-05-28T07:03:11.000Z</time>
      </trkpt>
      <trkpt lat="43.99087" lon="3.50385">
        <ele>501.5</ele>
        <time>2026-05-28T07:03:12.000Z</time>
      </trkpt>
      <trkpt lat="43.99087" lon="3.50383">
        <ele>502.2</ele>
        <time>2026-05-28T07:03:13.000Z</time>
      </trkpt>
      <trkpt lat="43.99089" lon="3.50382">
        <ele>501.8</ele>
        <time>2026-05-28T07:03:14.000Z</time>
      </trkpt>
      <trkpt lat="43.9909" lon="3.50381">
        <ele>501.6</ele>
        <time>2026-05-28T07:03:15.000Z</time>
      </trkpt>
      <trkpt lat="43.99091" lon="3.5038">
        <ele>501.9</ele>
        <time>2026-05-28T07:03:16.000Z</time>
      </trkpt>
      <trkpt lat="43.99093" lon="3.50377">
        <ele>502.6</ele>
        <time>2026-05-28T07:03:18.000Z</time>
      </trkpt>
      <trkpt lat="43.99094" lon="3.50375">
        <ele>503.2</ele>
        <time>2026-05-28T07:03:19.000Z</time>
      </trkpt>
      <trkpt lat="43.99096" lon="3.50374">
        <ele>503</ele>
        <time>2026-05-28T07:03:20.000Z</time>
      </trkpt>
      <trkpt lat="43.99098" lon="3.50374">
        <ele>502.9</ele>
        <time>2026-05-28T07:03:21.000Z</time>
      </trkpt>
      <trkpt lat="43.99099" lon="3.50374">
        <ele>503.5</ele>
        <time>2026-05-28T07:03:22.000Z</time>
      </trkpt>
      <trkpt lat="43.991" lon="3.50374">
        <ele>504.2</ele>
        <time>2026-05-28T07:03:23.000Z</time>
      </trkpt>
      <trkpt lat="43.99101" lon="3.50374">
        <ele>504.8</ele>
        <time>2026-05-28T07:03:24.000Z</time>
      </trkpt>
      <trkpt lat="43.99102" lon="3.50374">
        <ele>505.2</ele>
        <time>2026-05-28T07:03:25.000Z</time>
      </trkpt>
      <trkpt lat="43.99103" lon="3.50373">
        <ele>505.1</ele>
        <time>2026-05-28T07:03:26.000Z</time>
      </trkpt>
      <trkpt lat="43.99104" lon="3.50372">
        <ele>504.1</ele>
        <time>2026-05-28T07:03:27.000Z</time>
      </trkpt>
      <trkpt lat="43.99104" lon="3.50371">
        <ele>503.2</ele>
        <time>2026-05-28T07:03:28.000Z</time>
      </trkpt>
      <trkpt lat="43.99105" lon="3.50369">
        <ele>502.9</ele>
        <time>2026-05-28T07:03:29.000Z</time>
      </trkpt>
      <trkpt lat="43.99105" lon="3.50368">
        <ele>502.6</ele>
        <time>2026-05-28T07:03:30.000Z</time>
      </trkpt>
      <trkpt lat="43.99105" lon="3.50368">
        <ele>502</ele>
        <time>2026-05-28T07:03:31.000Z</time>
      </trkpt>
      <trkpt lat="43.99105" lon="3.50366">
        <ele>501.2</ele>
        <time>2026-05-28T07:03:32.000Z</time>
      </trkpt>
      <trkpt lat="43.99104" lon="3.50366">
        <ele>500.6</ele>
        <time>2026-05-28T07:03:33.000Z</time>
      </trkpt>
      <trkpt lat="43.99104" lon="3.50366">
        <ele>499.7</ele>
        <time>2026-05-28T07:03:34.000Z</time>
      </trkpt>
      <trkpt lat="43.99105" lon="3.50366">
        <ele>499.3</ele>
        <time>2026-05-28T07:03:35.000Z</time>
      </trkpt>
      <trkpt lat="43.99106" lon="3.50366">
        <ele>498.9</ele>
        <time>2026-05-28T07:03:36.000Z</time>
      </trkpt>
      <trkpt lat="43.99107" lon="3.50366">
        <ele>498.8</ele>
        <time>2026-05-28T07:03:37.000Z</time>
      </trkpt>
      <trkpt lat="43.99107" lon="3.50366">
        <ele>499.2</ele>
        <time>2026-05-28T07:03:38.000Z</time>
      </trkpt>
      <trkpt lat="43.99109" lon="3.50367">
        <ele>498.9</ele>
        <time>2026-05-28T07:03:39.000Z</time>
      </trkpt>
      <trkpt lat="43.9911" lon="3.50367">
        <ele>498.9</ele>
        <time>2026-05-28T07:03:40.000Z</time>
      </trkpt>
      <trkpt lat="43.99111" lon="3.50367">
        <ele>498.9</ele>
        <time>2026-05-28T07:03:41.000Z</time>
      </trkpt>
      <trkpt lat="43.99111" lon="3.50367">
        <ele>499</ele>
        <time>2026-05-28T07:03:42.000Z</time>
      </trkpt>
      <trkpt lat="43.99112" lon="3.50368">
        <ele>499.1</ele>
        <time>2026-05-28T07:03:43.000Z</time>
      </trkpt>
      <trkpt lat="43.99113" lon="3.50368">
        <ele>499.2</ele>
        <time>2026-05-28T07:03:44.000Z</time>
      </trkpt>
      <trkpt lat="43.99114" lon="3.50367">
        <ele>499.4</ele>
        <time>2026-05-28T07:03:45.000Z</time>
      </trkpt>
      <trkpt lat="43.99116" lon="3.50367">
        <ele>499.6</ele>
        <time>2026-05-28T07:03:46.000Z</time>
      </trkpt>
      <trkpt lat="43.99117" lon="3.50367">
        <ele>499.9</ele>
        <time>2026-05-28T07:03:47.000Z</time>
      </trkpt>
      <trkpt lat="43.99118" lon="3.50367">
        <ele>499.9</ele>
        <time>2026-05-28T07:03:48.000Z</time>
      </trkpt>
      <trkpt lat="43.99119" lon="3.50367">
        <ele>500</ele>
        <time>2026-05-28T07:03:49.000Z</time>
      </trkpt>
      <trkpt lat="43.9912" lon="3.50366">
        <ele>500.1</ele>
        <time>2026-05-28T07:03:50.000Z</time>
      </trkpt>
      <trkpt lat="43.99121" lon="3.50364">
        <ele>500.4</ele>
        <time>2026-05-28T07:03:51.000Z</time>
      </trkpt>
      <trkpt lat="43.99123" lon="3.50364">
        <ele>500.5</ele>
        <time>2026-05-28T07:03:52.000Z</time>
      </trkpt>
      <trkpt lat="43.99124" lon="3.50364">
        <ele>500.7</ele>
        <time>2026-05-28T07:03:53.000Z</time>
      </trkpt>
      <trkpt lat="43.99126" lon="3.50364">
        <ele>500.9</ele>
        <time>2026-05-28T07:03:54.000Z</time>
      </trkpt>
      <trkpt lat="43.99127" lon="3.50364">
        <ele>500.7</ele>
        <time>2026-05-28T07:03:55.000Z</time>
      </trkpt>
      <trkpt lat="43.99128" lon="3.50365">
        <ele>500.5</ele>
        <time>2026-05-28T07:03:56.000Z</time>
      </trkpt>
      <trkpt lat="43.99129" lon="3.50365">
        <ele>500.4</ele>
        <time>2026-05-28T07:03:57.000Z</time>
      </trkpt>
      <trkpt lat="43.9913" lon="3.50366">
        <ele>499.8</ele>
        <time>2026-05-28T07:03:58.000Z</time>
      </trkpt>
      <trkpt lat="43.9913" lon="3.50365">
        <ele>499.4</ele>
        <time>2026-05-28T07:03:59.000Z</time>
      </trkpt>
      <trkpt lat="43.99131" lon="3.50365">
        <ele>499.5</ele>
        <time>2026-05-28T07:04:00.000Z</time>
      </trkpt>
      <trkpt lat="43.99132" lon="3.50363">
        <ele>499.5</ele>
        <time>2026-05-28T07:04:01.000Z</time>
      </trkpt>
      <trkpt lat="43.99133" lon="3.50362">
        <ele>499.7</ele>
        <time>2026-05-28T07:04:02.000Z</time>
      </trkpt>
      <trkpt lat="43.99133" lon="3.50361">
        <ele>499.9</ele>
        <time>2026-05-28T07:04:03.000Z</time>
      </trkpt>
      <trkpt lat="43.99134" lon="3.50361">
        <ele>499.8</ele>
        <time>2026-05-28T07:04:04.000Z</time>
      </trkpt>
      <trkpt lat="43.99135" lon="3.5036">
        <ele>499.8</ele>
        <time>2026-05-28T07:04:05.000Z</time>
      </trkpt>
      <trkpt lat="43.99136" lon="3.50361">
        <ele>500</ele>
        <time>2026-05-28T07:04:06.000Z</time>
      </trkpt>
      <trkpt lat="43.99138" lon="3.5036">
        <ele>500</ele>
        <time>2026-05-28T07:04:07.000Z</time>
      </trkpt>
      <trkpt lat="43.99138" lon="3.5036">
        <ele>500.3</ele>
        <time>2026-05-28T07:04:08.000Z</time>
      </trkpt>
      <trkpt lat="43.9914" lon="3.5036">
        <ele>500.2</ele>
        <time>2026-05-28T07:04:09.000Z</time>
      </trkpt>
      <trkpt lat="43.99142" lon="3.5036">
        <ele>500.3</ele>
        <time>2026-05-28T07:04:10.000Z</time>
      </trkpt>
      <trkpt lat="43.99143" lon="3.5036">
        <ele>500.6</ele>
        <time>2026-05-28T07:04:11.000Z</time>
      </trkpt>
      <trkpt lat="43.99143" lon="3.5036">
        <ele>500.7</ele>
        <time>2026-05-28T07:04:12.000Z</time>
      </trkpt>
      <trkpt lat="43.99145" lon="3.5036">
        <ele>501.2</ele>
        <time>2026-05-28T07:04:13.000Z</time>
      </trkpt>
      <trkpt lat="43.99146" lon="3.5036">
        <ele>501.5</ele>
        <time>2026-05-28T07:04:14.000Z</time>
      </trkpt>
      <trkpt lat="43.99147" lon="3.5036">
        <ele>501.7</ele>
        <time>2026-05-28T07:04:15.000Z</time>
      </trkpt>
      <trkpt lat="43.99148" lon="3.5036">
        <ele>501.2</ele>
        <time>2026-05-28T07:04:16.000Z</time>
      </trkpt>
      <trkpt lat="43.9915" lon="3.5036">
        <ele>501.7</ele>
        <time>2026-05-28T07:04:17.000Z</time>
      </trkpt>
      <trkpt lat="43.99151" lon="3.5036">
        <ele>502.3</ele>
        <time>2026-05-28T07:04:18.000Z</time>
      </trkpt>
      <trkpt lat="43.99152" lon="3.5036">
        <ele>503.1</ele>
        <time>2026-05-28T07:04:19.000Z</time>
      </trkpt>
      <trkpt lat="43.99153" lon="3.50361">
        <ele>503.6</ele>
        <time>2026-05-28T07:04:20.000Z</time>
      </trkpt>
      <trkpt lat="43.99154" lon="3.50361">
        <ele>503.8</ele>
        <time>2026-05-28T07:04:21.000Z</time>
      </trkpt>
      <trkpt lat="43.99155" lon="3.50362">
        <ele>503.6</ele>
        <time>2026-05-28T07:04:22.000Z</time>
      </trkpt>
      <trkpt lat="43.99155" lon="3.50362">
        <ele>503.5</ele>
        <time>2026-05-28T07:04:23.000Z</time>
      </trkpt>
      <trkpt lat="43.99155" lon="3.50362">
        <ele>503.4</ele>
        <time>2026-05-28T07:04:24.000Z</time>
      </trkpt>
      <trkpt lat="43.99156" lon="3.50363">
        <ele>503.5</ele>
        <time>2026-05-28T07:04:25.000Z</time>
      </trkpt>
      <trkpt lat="43.99156" lon="3.50363">
        <ele>503.3</ele>
        <time>2026-05-28T07:04:26.000Z</time>
      </trkpt>
      <trkpt lat="43.99157" lon="3.50364">
        <ele>503.4</ele>
        <time>2026-05-28T07:04:27.000Z</time>
      </trkpt>
      <trkpt lat="43.99158" lon="3.50364">
        <ele>503.3</ele>
        <time>2026-05-28T07:04:28.000Z</time>
      </trkpt>
      <trkpt lat="43.99159" lon="3.50365">
        <ele>503.6</ele>
        <time>2026-05-28T07:04:29.000Z</time>
      </trkpt>
      <trkpt lat="43.9916" lon="3.50365">
        <ele>503.9</ele>
        <time>2026-05-28T07:04:30.000Z</time>
      </trkpt>
      <trkpt lat="43.99162" lon="3.50366">
        <ele>504.4</ele>
        <time>2026-05-28T07:04:31.000Z</time>
      </trkpt>
      <trkpt lat="43.99163" lon="3.50366">
        <ele>505.3</ele>
        <time>2026-05-28T07:04:32.000Z</time>
      </trkpt>
      <trkpt lat="43.99165" lon="3.50366">
        <ele>505.6</ele>
        <time>2026-05-28T07:04:33.000Z</time>
      </trkpt>
      <trkpt lat="43.99166" lon="3.50367">
        <ele>505.6</ele>
        <time>2026-05-28T07:04:34.000Z</time>
      </trkpt>
      <trkpt lat="43.99167" lon="3.50367">
        <ele>505.8</ele>
        <time>2026-05-28T07:04:35.000Z</time>
      </trkpt>
      <trkpt lat="43.99168" lon="3.50368">
        <ele>506.3</ele>
        <time>2026-05-28T07:04:36.000Z</time>
      </trkpt>
      <trkpt lat="43.9917" lon="3.50368">
        <ele>506.4</ele>
        <time>2026-05-28T07:04:37.000Z</time>
      </trkpt>
      <trkpt lat="43.99171" lon="3.50369">
        <ele>506.6</ele>
        <time>2026-05-28T07:04:38.000Z</time>
      </trkpt>
      <trkpt lat="43.99172" lon="3.50368">
        <ele>506.6</ele>
        <time>2026-05-28T07:04:39.000Z</time>
      </trkpt>
      <trkpt lat="43.99173" lon="3.50368">
        <ele>506.4</ele>
        <time>2026-05-28T07:04:40.000Z</time>
      </trkpt>
      <trkpt lat="43.99175" lon="3.50368">
        <ele>506.2</ele>
        <time>2026-05-28T07:04:41.000Z</time>
      </trkpt>
      <trkpt lat="43.99176" lon="3.50367">
        <ele>506.2</ele>
        <time>2026-05-28T07:04:42.000Z</time>
      </trkpt>
      <trkpt lat="43.99177" lon="3.50367">
        <ele>506.3</ele>
        <time>2026-05-28T07:04:43.000Z</time>
      </trkpt>
      <trkpt lat="43.99177" lon="3.50366">
        <ele>505.9</ele>
        <time>2026-05-28T07:04:44.000Z</time>
      </trkpt>
      <trkpt lat="43.99178" lon="3.50366">
        <ele>505.7</ele>
        <time>2026-05-28T07:04:45.000Z</time>
      </trkpt>
      <trkpt lat="43.99179" lon="3.50366">
        <ele>506.1</ele>
        <time>2026-05-28T07:04:46.000Z</time>
      </trkpt>
      <trkpt lat="43.99181" lon="3.50365">
        <ele>506.5</ele>
        <time>2026-05-28T07:04:47.000Z</time>
      </trkpt>
      <trkpt lat="43.99181" lon="3.50364">
        <ele>505.8</ele>
        <time>2026-05-28T07:04:48.000Z</time>
      </trkpt>
      <trkpt lat="43.99182" lon="3.50363">
        <ele>505.9</ele>
        <time>2026-05-28T07:04:49.000Z</time>
      </trkpt>
      <trkpt lat="43.99182" lon="3.50362">
        <ele>506</ele>
        <time>2026-05-28T07:04:50.000Z</time>
      </trkpt>
      <trkpt lat="43.99183" lon="3.50361">
        <ele>506.1</ele>
        <time>2026-05-28T07:04:51.000Z</time>
      </trkpt>
      <trkpt lat="43.99183" lon="3.5036">
        <ele>506.3</ele>
        <time>2026-05-28T07:04:52.000Z</time>
      </trkpt>
      <trkpt lat="43.99184" lon="3.5036">
        <ele>506.4</ele>
        <time>2026-05-28T07:04:53.000Z</time>
      </trkpt>
      <trkpt lat="43.99185" lon="3.50359">
        <ele>507.1</ele>
        <time>2026-05-28T07:04:54.000Z</time>
      </trkpt>
      <trkpt lat="43.99186" lon="3.50359">
        <ele>507.6</ele>
        <time>2026-05-28T07:04:55.000Z</time>
      </trkpt>
      <trkpt lat="43.99187" lon="3.50359">
        <ele>507.9</ele>
        <time>2026-05-28T07:04:56.000Z</time>
      </trkpt>
      <trkpt lat="43.99188" lon="3.50358">
        <ele>508.3</ele>
        <time>2026-05-28T07:04:57.000Z</time>
      </trkpt>
      <trkpt lat="43.99189" lon="3.50358">
        <ele>508</ele>
        <time>2026-05-28T07:04:58.000Z</time>
      </trkpt>
      <trkpt lat="43.9919" lon="3.50357">
        <ele>507.7</ele>
        <time>2026-05-28T07:04:59.000Z</time>
      </trkpt>
      <trkpt lat="43.99191" lon="3.50356">
        <ele>507.5</ele>
        <time>2026-05-28T07:05:00.000Z</time>
      </trkpt>
      <trkpt lat="43.99192" lon="3.50355">
        <ele>507</ele>
        <time>2026-05-28T07:05:01.000Z</time>
      </trkpt>
      <trkpt lat="43.99193" lon="3.50354">
        <ele>506.1</ele>
        <time>2026-05-28T07:05:02.000Z</time>
      </trkpt>
      <trkpt lat="43.99194" lon="3.50353">
        <ele>505.7</ele>
        <time>2026-05-28T07:05:03.000Z</time>
      </trkpt>
      <trkpt lat="43.99196" lon="3.50352">
        <ele>505.1</ele>
        <time>2026-05-28T07:05:04.000Z</time>
      </trkpt>
      <trkpt lat="43.99197" lon="3.50352">
        <ele>504.5</ele>
        <time>2026-05-28T07:05:05.000Z</time>
      </trkpt>
      <trkpt lat="43.99199" lon="3.50352">
        <ele>504.5</ele>
        <time>2026-05-28T07:05:06.000Z</time>
      </trkpt>
      <trkpt lat="43.992" lon="3.50352">
        <ele>504.6</ele>
        <time>2026-05-28T07:05:07.000Z</time>
      </trkpt>
      <trkpt lat="43.99201" lon="3.50351">
        <ele>504.9</ele>
        <time>2026-05-28T07:05:08.000Z</time>
      </trkpt>
      <trkpt lat="43.99203" lon="3.50351">
        <ele>505.3</ele>
        <time>2026-05-28T07:05:09.000Z</time>
      </trkpt>
      <trkpt lat="43.99203" lon="3.5035">
        <ele>505.4</ele>
        <time>2026-05-28T07:05:10.000Z</time>
      </trkpt>
      <trkpt lat="43.99204" lon="3.5035">
        <ele>505.6</ele>
        <time>2026-05-28T07:05:11.000Z</time>
      </trkpt>
      <trkpt lat="43.99205" lon="3.50349">
        <ele>505.6</ele>
        <time>2026-05-28T07:05:12.000Z</time>
      </trkpt>
      <trkpt lat="43.99206" lon="3.50349">
        <ele>505.7</ele>
        <time>2026-05-28T07:05:13.000Z</time>
      </trkpt>
      <trkpt lat="43.99208" lon="3.50348">
        <ele>505.6</ele>
        <time>2026-05-28T07:05:14.000Z</time>
      </trkpt>
      <trkpt lat="43.99209" lon="3.50348">
        <ele>506.1</ele>
        <time>2026-05-28T07:05:15.000Z</time>
      </trkpt>
      <trkpt lat="43.9921" lon="3.50347">
        <ele>506.4</ele>
        <time>2026-05-28T07:05:16.000Z</time>
      </trkpt>
      <trkpt lat="43.99211" lon="3.50347">
        <ele>506.5</ele>
        <time>2026-05-28T07:05:17.000Z</time>
      </trkpt>
      <trkpt lat="43.99211" lon="3.50347">
        <ele>506.7</ele>
        <time>2026-05-28T07:05:18.000Z</time>
      </trkpt>
      <trkpt lat="43.99212" lon="3.50347">
        <ele>506.8</ele>
        <time>2026-05-28T07:05:19.000Z</time>
      </trkpt>
      <trkpt lat="43.99213" lon="3.50346">
        <ele>507</ele>
        <time>2026-05-28T07:05:20.000Z</time>
      </trkpt>
      <trkpt lat="43.99215" lon="3.50346">
        <ele>507.2</ele>
        <time>2026-05-28T07:05:21.000Z</time>
      </trkpt>
      <trkpt lat="43.99216" lon="3.50346">
        <ele>507.7</ele>
        <time>2026-05-28T07:05:22.000Z</time>
      </trkpt>
      <trkpt lat="43.99217" lon="3.50345">
        <ele>508.3</ele>
        <time>2026-05-28T07:05:23.000Z</time>
      </trkpt>
      <trkpt lat="43.99218" lon="3.50345">
        <ele>508.6</ele>
        <time>2026-05-28T07:05:24.000Z</time>
      </trkpt>
      <trkpt lat="43.99219" lon="3.50344">
        <ele>509.2</ele>
        <time>2026-05-28T07:05:25.000Z</time>
      </trkpt>
      <trkpt lat="43.99221" lon="3.50344">
        <ele>509.2</ele>
        <time>2026-05-28T07:05:26.000Z</time>
      </trkpt>
      <trkpt lat="43.99221" lon="3.50343">
        <ele>509.1</ele>
        <time>2026-05-28T07:05:27.000Z</time>
      </trkpt>
      <trkpt lat="43.99222" lon="3.50342">
        <ele>509.3</ele>
        <time>2026-05-28T07:05:28.000Z</time>
      </trkpt>
      <trkpt lat="43.99223" lon="3.50341">
        <ele>509.8</ele>
        <time>2026-05-28T07:05:29.000Z</time>
      </trkpt>
      <trkpt lat="43.99224" lon="3.5034">
        <ele>509.9</ele>
        <time>2026-05-28T07:05:30.000Z</time>
      </trkpt>
      <trkpt lat="43.99225" lon="3.50339">
        <ele>509.8</ele>
        <time>2026-05-28T07:05:31.000Z</time>
      </trkpt>
      <trkpt lat="43.99226" lon="3.50338">
        <ele>509.8</ele>
        <time>2026-05-28T07:05:32.000Z</time>
      </trkpt>
      <trkpt lat="43.99227" lon="3.50336">
        <ele>509.5</ele>
        <time>2026-05-28T07:05:33.000Z</time>
      </trkpt>
      <trkpt lat="43.99228" lon="3.50335">
        <ele>509.3</ele>
        <time>2026-05-28T07:05:34.000Z</time>
      </trkpt>
      <trkpt lat="43.99229" lon="3.50333">
        <ele>509.2</ele>
        <time>2026-05-28T07:05:35.000Z</time>
      </trkpt>
      <trkpt lat="43.9923" lon="3.50331">
        <ele>509</ele>
        <time>2026-05-28T07:05:36.000Z</time>
      </trkpt>
      <trkpt lat="43.99231" lon="3.50329">
        <ele>508.9</ele>
        <time>2026-05-28T07:05:37.000Z</time>
      </trkpt>
      <trkpt lat="43.99232" lon="3.50328">
        <ele>508.9</ele>
        <time>2026-05-28T07:05:38.000Z</time>
      </trkpt>
      <trkpt lat="43.99233" lon="3.50327">
        <ele>509.1</ele>
        <time>2026-05-28T07:05:39.000Z</time>
      </trkpt>
      <trkpt lat="43.99234" lon="3.50327">
        <ele>509.1</ele>
        <time>2026-05-28T07:05:40.000Z</time>
      </trkpt>
      <trkpt lat="43.99234" lon="3.50326">
        <ele>509.4</ele>
        <time>2026-05-28T07:05:41.000Z</time>
      </trkpt>
      <trkpt lat="43.99235" lon="3.50326">
        <ele>509.8</ele>
        <time>2026-05-28T07:05:42.000Z</time>
      </trkpt>
      <trkpt lat="43.99236" lon="3.50325">
        <ele>509.5</ele>
        <time>2026-05-28T07:05:43.000Z</time>
      </trkpt>
      <trkpt lat="43.99236" lon="3.50323">
        <ele>509.6</ele>
        <time>2026-05-28T07:05:44.000Z</time>
      </trkpt>
      <trkpt lat="43.99238" lon="3.50322">
        <ele>509.9</ele>
        <time>2026-05-28T07:05:45.000Z</time>
      </trkpt>
      <trkpt lat="43.99239" lon="3.50321">
        <ele>510.2</ele>
        <time>2026-05-28T07:05:46.000Z</time>
      </trkpt>
      <trkpt lat="43.99241" lon="3.5032">
        <ele>510.5</ele>
        <time>2026-05-28T07:05:47.000Z</time>
      </trkpt>
      <trkpt lat="43.99242" lon="3.50319">
        <ele>510.6</ele>
        <time>2026-05-28T07:05:48.000Z</time>
      </trkpt>
      <trkpt lat="43.99243" lon="3.50318">
        <ele>511</ele>
        <time>2026-05-28T07:05:49.000Z</time>
      </trkpt>
      <trkpt lat="43.99243" lon="3.50316">
        <ele>511.1</ele>
        <time>2026-05-28T07:05:50.000Z</time>
      </trkpt>
      <trkpt lat="43.99244" lon="3.50314">
        <ele>510.5</ele>
        <time>2026-05-28T07:05:51.000Z</time>
      </trkpt>
      <trkpt lat="43.99245" lon="3.50312">
        <ele>509.9</ele>
        <time>2026-05-28T07:05:52.000Z</time>
      </trkpt>
      <trkpt lat="43.99245" lon="3.50311">
        <ele>509.6</ele>
        <time>2026-05-28T07:05:53.000Z</time>
      </trkpt>
      <trkpt lat="43.99246" lon="3.50309">
        <ele>509.2</ele>
        <time>2026-05-28T07:05:54.000Z</time>
      </trkpt>
      <trkpt lat="43.99247" lon="3.50309">
        <ele>508.1</ele>
        <time>2026-05-28T07:05:55.000Z</time>
      </trkpt>
      <trkpt lat="43.99247" lon="3.50307">
        <ele>507.5</ele>
        <time>2026-05-28T07:05:56.000Z</time>
      </trkpt>
      <trkpt lat="43.99248" lon="3.50306">
        <ele>507.3</ele>
        <time>2026-05-28T07:05:57.000Z</time>
      </trkpt>
      <trkpt lat="43.99248" lon="3.50304">
        <ele>507</ele>
        <time>2026-05-28T07:05:58.000Z</time>
      </trkpt>
      <trkpt lat="43.99249" lon="3.50303">
        <ele>507</ele>
        <time>2026-05-28T07:05:59.000Z</time>
      </trkpt>
      <trkpt lat="43.9925" lon="3.50302">
        <ele>506.8</ele>
        <time>2026-05-28T07:06:00.000Z</time>
      </trkpt>
      <trkpt lat="43.99251" lon="3.50302">
        <ele>507</ele>
        <time>2026-05-28T07:06:01.000Z</time>
      </trkpt>
      <trkpt lat="43.99252" lon="3.50301">
        <ele>507.6</ele>
        <time>2026-05-28T07:06:02.000Z</time>
      </trkpt>
      <trkpt lat="43.99253" lon="3.503">
        <ele>507.9</ele>
        <time>2026-05-28T07:06:03.000Z</time>
      </trkpt>
      <trkpt lat="43.99254" lon="3.503">
        <ele>508.2</ele>
        <time>2026-05-28T07:06:04.000Z</time>
      </trkpt>
      <trkpt lat="43.99254" lon="3.50299">
        <ele>508.2</ele>
        <time>2026-05-28T07:06:05.000Z</time>
      </trkpt>
      <trkpt lat="43.99255" lon="3.50297">
        <ele>508.3</ele>
        <time>2026-05-28T07:06:06.000Z</time>
      </trkpt>
      <trkpt lat="43.99256" lon="3.50296">
        <ele>508.1</ele>
        <time>2026-05-28T07:06:07.000Z</time>
      </trkpt>
      <trkpt lat="43.99258" lon="3.50295">
        <ele>507.4</ele>
        <time>2026-05-28T07:06:08.000Z</time>
      </trkpt>
      <trkpt lat="43.99259" lon="3.50294">
        <ele>507.8</ele>
        <time>2026-05-28T07:06:09.000Z</time>
      </trkpt>
      <trkpt lat="43.9926" lon="3.50294">
        <ele>508.2</ele>
        <time>2026-05-28T07:06:10.000Z</time>
      </trkpt>
      <trkpt lat="43.99261" lon="3.50293">
        <ele>508.4</ele>
        <time>2026-05-28T07:06:11.000Z</time>
      </trkpt>
      <trkpt lat="43.99262" lon="3.50292">
        <ele>508.6</ele>
        <time>2026-05-28T07:06:12.000Z</time>
      </trkpt>
      <trkpt lat="43.99263" lon="3.5029">
        <ele>508.8</ele>
        <time>2026-05-28T07:06:13.000Z</time>
      </trkpt>
      <trkpt lat="43.99264" lon="3.50288">
        <ele>508.7</ele>
        <time>2026-05-28T07:06:14.000Z</time>
      </trkpt>
      <trkpt lat="43.99265" lon="3.50286">
        <ele>508.9</ele>
        <time>2026-05-28T07:06:15.000Z</time>
      </trkpt>
      <trkpt lat="43.99266" lon="3.50286">
        <ele>509.2</ele>
        <time>2026-05-28T07:06:16.000Z</time>
      </trkpt>
      <trkpt lat="43.99266" lon="3.50285">
        <ele>509.5</ele>
        <time>2026-05-28T07:06:17.000Z</time>
      </trkpt>
      <trkpt lat="43.99267" lon="3.50286">
        <ele>509.4</ele>
        <time>2026-05-28T07:06:18.000Z</time>
      </trkpt>
      <trkpt lat="43.99268" lon="3.50286">
        <ele>509.1</ele>
        <time>2026-05-28T07:06:19.000Z</time>
      </trkpt>
      <trkpt lat="43.99269" lon="3.50287">
        <ele>509.2</ele>
        <time>2026-05-28T07:06:20.000Z</time>
      </trkpt>
      <trkpt lat="43.9927" lon="3.50287">
        <ele>508.7</ele>
        <time>2026-05-28T07:06:21.000Z</time>
      </trkpt>
      <trkpt lat="43.99271" lon="3.50288">
        <ele>508.8</ele>
        <time>2026-05-28T07:06:22.000Z</time>
      </trkpt>
      <trkpt lat="43.99273" lon="3.50287">
        <ele>508.6</ele>
        <time>2026-05-28T07:06:23.000Z</time>
      </trkpt>
      <trkpt lat="43.99274" lon="3.50288">
        <ele>508</ele>
        <time>2026-05-28T07:06:24.000Z</time>
      </trkpt>
      <trkpt lat="43.99275" lon="3.50287">
        <ele>507.3</ele>
        <time>2026-05-28T07:06:25.000Z</time>
      </trkpt>
      <trkpt lat="43.99275" lon="3.50286">
        <ele>507.2</ele>
        <time>2026-05-28T07:06:26.000Z</time>
      </trkpt>
      <trkpt lat="43.99275" lon="3.50284">
        <ele>507</ele>
        <time>2026-05-28T07:06:27.000Z</time>
      </trkpt>
      <trkpt lat="43.99276" lon="3.50283">
        <ele>506.6</ele>
        <time>2026-05-28T07:06:28.000Z</time>
      </trkpt>
      <trkpt lat="43.99277" lon="3.50282">
        <ele>506.1</ele>
        <time>2026-05-28T07:06:29.000Z</time>
      </trkpt>
      <trkpt lat="43.99277" lon="3.50281">
        <ele>506.1</ele>
        <time>2026-05-28T07:06:30.000Z</time>
      </trkpt>
      <trkpt lat="43.99277" lon="3.50279">
        <ele>506.5</ele>
        <time>2026-05-28T07:06:31.000Z</time>
      </trkpt>
      <trkpt lat="43.99277" lon="3.50278">
        <ele>505.9</ele>
        <time>2026-05-28T07:06:32.000Z</time>
      </trkpt>
      <trkpt lat="43.99277" lon="3.50278">
        <ele>505.1</ele>
        <time>2026-05-28T07:06:33.000Z</time>
      </trkpt>
      <trkpt lat="43.99276" lon="3.50278">
        <ele>505</ele>
        <time>2026-05-28T07:06:34.000Z</time>
      </trkpt>
      <trkpt lat="43.99276" lon="3.50278">
        <ele>505.1</ele>
        <time>2026-05-28T07:06:35.000Z</time>
      </trkpt>
      <trkpt lat="43.99276" lon="3.50278">
        <ele>505.5</ele>
        <time>2026-05-28T07:06:36.000Z</time>
      </trkpt>
      <trkpt lat="43.99276" lon="3.50278">
        <ele>505.8</ele>
        <time>2026-05-28T07:06:37.000Z</time>
      </trkpt>
      <trkpt lat="43.99276" lon="3.50278">
        <ele>505.8</ele>
        <time>2026-05-28T07:06:38.000Z</time>
      </trkpt>
      <trkpt lat="43.99276" lon="3.50278">
        <ele>505.7</ele>
        <time>2026-05-28T07:06:39.000Z</time>
      </trkpt>
      <trkpt lat="43.99276" lon="3.50278">
        <ele>505.5</ele>
        <time>2026-05-28T07:06:40.000Z</time>
      </trkpt>
      <trkpt lat="43.99275" lon="3.50278">
        <ele>506.3</ele>
        <time>2026-05-28T07:06:41.000Z</time>
      </trkpt>
      <trkpt lat="43.99275" lon="3.50277">
        <ele>506.1</ele>
        <time>2026-05-28T07:06:42.000Z</time>
      </trkpt>
      <trkpt lat="43.99275" lon="3.50277">
        <ele>506.8</ele>
        <time>2026-05-28T07:06:43.000Z</time>
      </trkpt>
      <trkpt lat="43.99274" lon="3.50277">
        <ele>507.2</ele>
        <time>2026-05-28T07:06:44.000Z</time>
      </trkpt>
      <trkpt lat="43.99273" lon="3.50276">
        <ele>507.8</ele>
        <time>2026-05-28T07:06:45.000Z</time>
      </trkpt>
      <trkpt lat="43.99272" lon="3.50275">
        <ele>507.7</ele>
        <time>2026-05-28T07:06:46.000Z</time>
      </trkpt>
      <trkpt lat="43.99272" lon="3.50274">
        <ele>507.9</ele>
        <time>2026-05-28T07:06:47.000Z</time>
      </trkpt>
      <trkpt lat="43.99272" lon="3.50274">
        <ele>507.9</ele>
        <time>2026-05-28T07:06:48.000Z</time>
      </trkpt>
      <trkpt lat="43.99272" lon="3.50275">
        <ele>507.9</ele>
        <time>2026-05-28T07:06:49.000Z</time>
      </trkpt>
      <trkpt lat="43.99272" lon="3.50276">
        <ele>508</ele>
        <time>2026-05-28T07:06:50.000Z</time>
      </trkpt>
      <trkpt lat="43.99272" lon="3.50276">
        <ele>507.9</ele>
        <time>2026-05-28T07:06:51.000Z</time>
      </trkpt>
      <trkpt lat="43.99272" lon="3.50276">
        <ele>508.2</ele>
        <time>2026-05-28T07:06:52.000Z</time>
      </trkpt>
      <trkpt lat="43.99273" lon="3.50275">
        <ele>509.1</ele>
        <time>2026-05-28T07:06:53.000Z</time>
      </trkpt>
      <trkpt lat="43.99273" lon="3.50275">
        <ele>509.1</ele>
        <time>2026-05-28T07:06:54.000Z</time>
      </trkpt>
      <trkpt lat="43.99273" lon="3.50276">
        <ele>509.2</ele>
        <time>2026-05-28T07:06:55.000Z</time>
      </trkpt>
      <trkpt lat="43.99273" lon="3.50276">
        <ele>508.9</ele>
        <time>2026-05-28T07:06:56.000Z</time>
      </trkpt>
      <trkpt lat="43.99273" lon="3.50276">
        <ele>508.9</ele>
        <time>2026-05-28T07:06:57.000Z</time>
      </trkpt>
      <trkpt lat="43.99273" lon="3.50276">
        <ele>509.2</ele>
        <time>2026-05-28T07:06:58.000Z</time>
      </trkpt>
      <trkpt lat="43.99273" lon="3.50276">
        <ele>509.5</ele>
        <time>2026-05-28T07:06:59.000Z</time>
      </trkpt>
      <trkpt lat="43.99273" lon="3.50277">
        <ele>509.6</ele>
        <time>2026-05-28T07:07:00.000Z</time>
      </trkpt>
      <trkpt lat="43.99273" lon="3.50277">
        <ele>509.4</ele>
        <time>2026-05-28T07:07:01.000Z</time>
      </trkpt>
      <trkpt lat="43.99274" lon="3.50277">
        <ele>509.7</ele>
        <time>2026-05-28T07:07:02.000Z</time>
      </trkpt>
      <trkpt lat="43.99274" lon="3.50278">
        <ele>509.6</ele>
        <time>2026-05-28T07:07:03.000Z</time>
      </trkpt>
      <trkpt lat="43.99273" lon="3.50278">
        <ele>510.3</ele>
        <time>2026-05-28T07:07:04.000Z</time>
      </trkpt>
      <trkpt lat="43.99273" lon="3.50278">
        <ele>510.5</ele>
        <time>2026-05-28T07:07:05.000Z</time>
      </trkpt>
      <trkpt lat="43.99273" lon="3.50278">
        <ele>510.2</ele>
        <time>2026-05-28T07:07:06.000Z</time>
      </trkpt>
      <trkpt lat="43.99273" lon="3.50278">
        <ele>510.1</ele>
        <time>2026-05-28T07:07:07.000Z</time>
      </trkpt>
      <trkpt lat="43.99273" lon="3.50278">
        <ele>509.9</ele>
        <time>2026-05-28T07:07:08.000Z</time>
      </trkpt>
      <trkpt lat="43.99273" lon="3.50278">
        <ele>509.9</ele>
        <time>2026-05-28T07:07:09.000Z</time>
      </trkpt>
      <trkpt lat="43.99273" lon="3.50278">
        <ele>509.9</ele>
        <time>2026-05-28T07:07:10.000Z</time>
      </trkpt>
      <trkpt lat="43.99273" lon="3.50278">
        <ele>509.9</ele>
        <time>2026-05-28T07:07:11.000Z</time>
      </trkpt>
      <trkpt lat="43.99273" lon="3.50278">
        <ele>509.9</ele>
        <time>2026-05-28T07:07:12.000Z</time>
      </trkpt>
      <trkpt lat="43.99273" lon="3.50278">
        <ele>509.8</ele>
        <time>2026-05-28T07:07:13.000Z</time>
      </trkpt>
      <trkpt lat="43.99273" lon="3.50278">
        <ele>509.9</ele>
        <time>2026-05-28T07:07:14.000Z</time>
      </trkpt>
      <trkpt lat="43.99273" lon="3.50278">
        <ele>510</ele>
        <time>2026-05-28T07:07:15.000Z</time>
      </trkpt>
      <trkpt lat="43.99273" lon="3.50278">
        <ele>509.9</ele>
        <time>2026-05-28T07:07:16.000Z</time>
      </trkpt>
      <trkpt lat="43.99273" lon="3.50278">
        <ele>510</ele>
        <time>2026-05-28T07:07:17.000Z</time>
      </trkpt>
      <trkpt lat="43.99273" lon="3.50278">
        <ele>510.1</ele>
        <time>2026-05-28T07:07:18.000Z</time>
      </trkpt>
      <trkpt lat="43.99273" lon="3.50278">
        <ele>510.2</ele>
        <time>2026-05-28T07:07:19.000Z</time>
      </trkpt>
      <trkpt lat="43.99273" lon="3.50278">
        <ele>509.8</ele>
        <time>2026-05-28T07:07:20.000Z</time>
      </trkpt>
      <trkpt lat="43.99273" lon="3.50278">
        <ele>509.8</ele>
        <time>2026-05-28T07:07:21.000Z</time>
      </trkpt>
      <trkpt lat="43.99273" lon="3.50278">
        <ele>510.1</ele>
        <time>2026-05-28T07:07:22.000Z</time>
      </trkpt>
      <trkpt lat="43.99273" lon="3.50278">
        <ele>510.1</ele>
        <time>2026-05-28T07:07:23.000Z</time>
      </trkpt>
      <trkpt lat="43.99274" lon="3.50278">
        <ele>510.1</ele>
        <time>2026-05-28T07:07:24.000Z</time>
      </trkpt>
      <trkpt lat="43.99274" lon="3.50279">
        <ele>510.1</ele>
        <time>2026-05-28T07:07:25.000Z</time>
      </trkpt>
      <trkpt lat="43.99275" lon="3.5028">
        <ele>510.2</ele>
        <time>2026-05-28T07:07:26.000Z</time>
      </trkpt>
      <trkpt lat="43.99276" lon="3.50279">
        <ele>510.3</ele>
        <time>2026-05-28T07:07:27.000Z</time>
      </trkpt>
      <trkpt lat="43.99278" lon="3.5028">
        <ele>510.7</ele>
        <time>2026-05-28T07:07:28.000Z</time>
      </trkpt>
      <trkpt lat="43.99279" lon="3.5028">
        <ele>509.4</ele>
        <time>2026-05-28T07:07:29.000Z</time>
      </trkpt>
      <trkpt lat="43.9928" lon="3.5028">
        <ele>508</ele>
        <time>2026-05-28T07:07:30.000Z</time>
      </trkpt>
      <trkpt lat="43.99283" lon="3.50285">
        <ele>509.2</ele>
        <time>2026-05-28T07:07:32.000Z</time>
      </trkpt>
      <trkpt lat="43.99285" lon="3.50287">
        <ele>508.8</ele>
        <time>2026-05-28T07:07:33.000Z</time>
      </trkpt>
      <trkpt lat="43.99286" lon="3.50288">
        <ele>509</ele>
        <time>2026-05-28T07:07:34.000Z</time>
      </trkpt>
      <trkpt lat="43.99287" lon="3.50288">
        <ele>509.4</ele>
        <time>2026-05-28T07:07:35.000Z</time>
      </trkpt>
      <trkpt lat="43.99289" lon="3.50289">
        <ele>509.5</ele>
        <time>2026-05-28T07:07:36.000Z</time>
      </trkpt>
      <trkpt lat="43.9929" lon="3.50288">
        <ele>509.9</ele>
        <time>2026-05-28T07:07:37.000Z</time>
      </trkpt>
      <trkpt lat="43.99292" lon="3.50289">
        <ele>510.2</ele>
        <time>2026-05-28T07:07:38.000Z</time>
      </trkpt>
      <trkpt lat="43.99292" lon="3.50289">
        <ele>510.8</ele>
        <time>2026-05-28T07:07:39.000Z</time>
      </trkpt>
      <trkpt lat="43.99294" lon="3.50289">
        <ele>511.4</ele>
        <time>2026-05-28T07:07:40.000Z</time>
      </trkpt>
      <trkpt lat="43.99295" lon="3.5029">
        <ele>511.7</ele>
        <time>2026-05-28T07:07:41.000Z</time>
      </trkpt>
      <trkpt lat="43.99296" lon="3.5029">
        <ele>511.9</ele>
        <time>2026-05-28T07:07:42.000Z</time>
      </trkpt>
      <trkpt lat="43.99297" lon="3.5029">
        <ele>511.9</ele>
        <time>2026-05-28T07:07:43.000Z</time>
      </trkpt>
      <trkpt lat="43.99299" lon="3.50289">
        <ele>511.8</ele>
        <time>2026-05-28T07:07:44.000Z</time>
      </trkpt>
      <trkpt lat="43.99301" lon="3.50289">
        <ele>512.3</ele>
        <time>2026-05-28T07:07:45.000Z</time>
      </trkpt>
      <trkpt lat="43.99302" lon="3.50289">
        <ele>512.8</ele>
        <time>2026-05-28T07:07:46.000Z</time>
      </trkpt>
      <trkpt lat="43.99303" lon="3.50288">
        <ele>512.6</ele>
        <time>2026-05-28T07:07:47.000Z</time>
      </trkpt>
      <trkpt lat="43.99303" lon="3.50287">
        <ele>512.3</ele>
        <time>2026-05-28T07:07:48.000Z</time>
      </trkpt>
      <trkpt lat="43.99304" lon="3.50285">
        <ele>512.2</ele>
        <time>2026-05-28T07:07:49.000Z</time>
      </trkpt>
      <trkpt lat="43.99305" lon="3.50284">
        <ele>512.4</ele>
        <time>2026-05-28T07:07:50.000Z</time>
      </trkpt>
      <trkpt lat="43.99306" lon="3.50283">
        <ele>512.4</ele>
        <time>2026-05-28T07:07:51.000Z</time>
      </trkpt>
      <trkpt lat="43.99307" lon="3.50283">
        <ele>512.4</ele>
        <time>2026-05-28T07:07:52.000Z</time>
      </trkpt>
      <trkpt lat="43.99308" lon="3.50283">
        <ele>512.2</ele>
        <time>2026-05-28T07:07:53.000Z</time>
      </trkpt>
      <trkpt lat="43.99309" lon="3.50282">
        <ele>512.2</ele>
        <time>2026-05-28T07:07:54.000Z</time>
      </trkpt>
      <trkpt lat="43.9931" lon="3.5028">
        <ele>512</ele>
        <time>2026-05-28T07:07:55.000Z</time>
      </trkpt>
      <trkpt lat="43.99311" lon="3.50278">
        <ele>512</ele>
        <time>2026-05-28T07:07:56.000Z</time>
      </trkpt>
      <trkpt lat="43.99312" lon="3.50277">
        <ele>512</ele>
        <time>2026-05-28T07:07:57.000Z</time>
      </trkpt>
      <trkpt lat="43.99313" lon="3.50275">
        <ele>511.8</ele>
        <time>2026-05-28T07:07:58.000Z</time>
      </trkpt>
      <trkpt lat="43.99314" lon="3.50273">
        <ele>511.7</ele>
        <time>2026-05-28T07:07:59.000Z</time>
      </trkpt>
      <trkpt lat="43.99315" lon="3.50272">
        <ele>511.6</ele>
        <time>2026-05-28T07:08:00.000Z</time>
      </trkpt>
      <trkpt lat="43.99316" lon="3.5027">
        <ele>511.3</ele>
        <time>2026-05-28T07:08:01.000Z</time>
      </trkpt>
      <trkpt lat="43.99316" lon="3.50268">
        <ele>510.9</ele>
        <time>2026-05-28T07:08:02.000Z</time>
      </trkpt>
      <trkpt lat="43.99317" lon="3.50268">
        <ele>510.9</ele>
        <time>2026-05-28T07:08:03.000Z</time>
      </trkpt>
      <trkpt lat="43.99317" lon="3.50267">
        <ele>511.2</ele>
        <time>2026-05-28T07:08:04.000Z</time>
      </trkpt>
      <trkpt lat="43.99317" lon="3.50267">
        <ele>511.1</ele>
        <time>2026-05-28T07:08:05.000Z</time>
      </trkpt>
      <trkpt lat="43.99317" lon="3.50265">
        <ele>510.9</ele>
        <time>2026-05-28T07:08:06.000Z</time>
      </trkpt>
      <trkpt lat="43.99318" lon="3.50263">
        <ele>510.7</ele>
        <time>2026-05-28T07:08:07.000Z</time>
      </trkpt>
      <trkpt lat="43.99319" lon="3.50261">
        <ele>510.9</ele>
        <time>2026-05-28T07:08:08.000Z</time>
      </trkpt>
      <trkpt lat="43.99319" lon="3.5026">
        <ele>510.9</ele>
        <time>2026-05-28T07:08:09.000Z</time>
      </trkpt>
      <trkpt lat="43.99319" lon="3.50258">
        <ele>510.8</ele>
        <time>2026-05-28T07:08:10.000Z</time>
      </trkpt>
      <trkpt lat="43.99319" lon="3.50256">
        <ele>510.9</ele>
        <time>2026-05-28T07:08:11.000Z</time>
      </trkpt>
      <trkpt lat="43.99318" lon="3.50255">
        <ele>511.2</ele>
        <time>2026-05-28T07:08:12.000Z</time>
      </trkpt>
      <trkpt lat="43.99319" lon="3.50254">
        <ele>511.4</ele>
        <time>2026-05-28T07:08:13.000Z</time>
      </trkpt>
      <trkpt lat="43.99319" lon="3.50253">
        <ele>511.4</ele>
        <time>2026-05-28T07:08:14.000Z</time>
      </trkpt>
      <trkpt lat="43.9932" lon="3.50252">
        <ele>511.7</ele>
        <time>2026-05-28T07:08:15.000Z</time>
      </trkpt>
      <trkpt lat="43.99321" lon="3.50251">
        <ele>511.9</ele>
        <time>2026-05-28T07:08:16.000Z</time>
      </trkpt>
      <trkpt lat="43.99321" lon="3.5025">
        <ele>512</ele>
        <time>2026-05-28T07:08:17.000Z</time>
      </trkpt>
      <trkpt lat="43.99322" lon="3.5025">
        <ele>512</ele>
        <time>2026-05-28T07:08:18.000Z</time>
      </trkpt>
      <trkpt lat="43.99323" lon="3.5025">
        <ele>512.3</ele>
        <time>2026-05-28T07:08:19.000Z</time>
      </trkpt>
      <trkpt lat="43.99324" lon="3.50249">
        <ele>512.4</ele>
        <time>2026-05-28T07:08:20.000Z</time>
      </trkpt>
      <trkpt lat="43.99324" lon="3.50249">
        <ele>512.2</ele>
        <time>2026-05-28T07:08:21.000Z</time>
      </trkpt>
      <trkpt lat="43.99325" lon="3.50247">
        <ele>511.7</ele>
        <time>2026-05-28T07:08:22.000Z</time>
      </trkpt>
      <trkpt lat="43.99326" lon="3.50245">
        <ele>512.5</ele>
        <time>2026-05-28T07:08:23.000Z</time>
      </trkpt>
      <trkpt lat="43.99327" lon="3.50244">
        <ele>513.2</ele>
        <time>2026-05-28T07:08:24.000Z</time>
      </trkpt>
      <trkpt lat="43.99327" lon="3.50243">
        <ele>513.9</ele>
        <time>2026-05-28T07:08:25.000Z</time>
      </trkpt>
      <trkpt lat="43.99328" lon="3.50242">
        <ele>514.2</ele>
        <time>2026-05-28T07:08:26.000Z</time>
      </trkpt>
      <trkpt lat="43.99328" lon="3.50239">
        <ele>514.7</ele>
        <time>2026-05-28T07:08:27.000Z</time>
      </trkpt>
      <trkpt lat="43.99328" lon="3.50237">
        <ele>514.6</ele>
        <time>2026-05-28T07:08:28.000Z</time>
      </trkpt>
      <trkpt lat="43.99329" lon="3.50235">
        <ele>514.8</ele>
        <time>2026-05-28T07:08:29.000Z</time>
      </trkpt>
      <trkpt lat="43.99329" lon="3.50233">
        <ele>514.5</ele>
        <time>2026-05-28T07:08:30.000Z</time>
      </trkpt>
      <trkpt lat="43.99329" lon="3.50233">
        <ele>514.3</ele>
        <time>2026-05-28T07:08:31.000Z</time>
      </trkpt>
      <trkpt lat="43.9933" lon="3.50232">
        <ele>514.2</ele>
        <time>2026-05-28T07:08:32.000Z</time>
      </trkpt>
      <trkpt lat="43.9933" lon="3.50232">
        <ele>514.1</ele>
        <time>2026-05-28T07:08:33.000Z</time>
      </trkpt>
      <trkpt lat="43.99329" lon="3.50232">
        <ele>513.9</ele>
        <time>2026-05-28T07:08:34.000Z</time>
      </trkpt>
      <trkpt lat="43.99329" lon="3.50232">
        <ele>512.8</ele>
        <time>2026-05-28T07:08:35.000Z</time>
      </trkpt>
      <trkpt lat="43.9933" lon="3.50232">
        <ele>512.9</ele>
        <time>2026-05-28T07:08:36.000Z</time>
      </trkpt>
      <trkpt lat="43.9933" lon="3.50231">
        <ele>512.6</ele>
        <time>2026-05-28T07:08:37.000Z</time>
      </trkpt>
      <trkpt lat="43.9933" lon="3.50231">
        <ele>512.8</ele>
        <time>2026-05-28T07:08:38.000Z</time>
      </trkpt>
      <trkpt lat="43.99331" lon="3.50231">
        <ele>512.9</ele>
        <time>2026-05-28T07:08:39.000Z</time>
      </trkpt>
      <trkpt lat="43.99331" lon="3.50231">
        <ele>512.9</ele>
        <time>2026-05-28T07:08:40.000Z</time>
      </trkpt>
      <trkpt lat="43.99332" lon="3.5023">
        <ele>512.7</ele>
        <time>2026-05-28T07:08:41.000Z</time>
      </trkpt>
      <trkpt lat="43.99334" lon="3.5023">
        <ele>513</ele>
        <time>2026-05-28T07:08:42.000Z</time>
      </trkpt>
      <trkpt lat="43.99335" lon="3.5023">
        <ele>512.9</ele>
        <time>2026-05-28T07:08:43.000Z</time>
      </trkpt>
      <trkpt lat="43.99336" lon="3.5023">
        <ele>512.7</ele>
        <time>2026-05-28T07:08:44.000Z</time>
      </trkpt>
      <trkpt lat="43.99337" lon="3.5023">
        <ele>512.9</ele>
        <time>2026-05-28T07:08:45.000Z</time>
      </trkpt>
      <trkpt lat="43.99338" lon="3.50231">
        <ele>513.5</ele>
        <time>2026-05-28T07:08:46.000Z</time>
      </trkpt>
      <trkpt lat="43.99338" lon="3.50232">
        <ele>513.7</ele>
        <time>2026-05-28T07:08:47.000Z</time>
      </trkpt>
      <trkpt lat="43.99339" lon="3.50232">
        <ele>513.8</ele>
        <time>2026-05-28T07:08:48.000Z</time>
      </trkpt>
      <trkpt lat="43.9934" lon="3.50232">
        <ele>514</ele>
        <time>2026-05-28T07:08:49.000Z</time>
      </trkpt>
      <trkpt lat="43.99341" lon="3.50232">
        <ele>515</ele>
        <time>2026-05-28T07:08:50.000Z</time>
      </trkpt>
      <trkpt lat="43.99342" lon="3.50232">
        <ele>515.7</ele>
        <time>2026-05-28T07:08:51.000Z</time>
      </trkpt>
      <trkpt lat="43.99344" lon="3.50232">
        <ele>515.8</ele>
        <time>2026-05-28T07:08:52.000Z</time>
      </trkpt>
      <trkpt lat="43.99345" lon="3.50231">
        <ele>516</ele>
        <time>2026-05-28T07:08:53.000Z</time>
      </trkpt>
      <trkpt lat="43.99346" lon="3.50231">
        <ele>515.9</ele>
        <time>2026-05-28T07:08:54.000Z</time>
      </trkpt>
      <trkpt lat="43.99346" lon="3.50231">
        <ele>515.9</ele>
        <time>2026-05-28T07:08:55.000Z</time>
      </trkpt>
      <trkpt lat="43.99347" lon="3.50231">
        <ele>515.8</ele>
        <time>2026-05-28T07:08:56.000Z</time>
      </trkpt>
      <trkpt lat="43.99348" lon="3.50231">
        <ele>515.7</ele>
        <time>2026-05-28T07:08:57.000Z</time>
      </trkpt>
      <trkpt lat="43.99349" lon="3.50231">
        <ele>516</ele>
        <time>2026-05-28T07:08:58.000Z</time>
      </trkpt>
      <trkpt lat="43.99351" lon="3.50231">
        <ele>516</ele>
        <time>2026-05-28T07:08:59.000Z</time>
      </trkpt>
      <trkpt lat="43.99351" lon="3.50231">
        <ele>515.8</ele>
        <time>2026-05-28T07:09:00.000Z</time>
      </trkpt>
      <trkpt lat="43.99352" lon="3.50232">
        <ele>515.9</ele>
        <time>2026-05-28T07:09:01.000Z</time>
      </trkpt>
      <trkpt lat="43.99352" lon="3.50232">
        <ele>516.1</ele>
        <time>2026-05-28T07:09:02.000Z</time>
      </trkpt>
      <trkpt lat="43.99353" lon="3.50231">
        <ele>516.1</ele>
        <time>2026-05-28T07:09:03.000Z</time>
      </trkpt>
      <trkpt lat="43.99354" lon="3.5023">
        <ele>515.9</ele>
        <time>2026-05-28T07:09:04.000Z</time>
      </trkpt>
      <trkpt lat="43.99355" lon="3.50229">
        <ele>515.8</ele>
        <time>2026-05-28T07:09:05.000Z</time>
      </trkpt>
      <trkpt lat="43.99356" lon="3.50229">
        <ele>515.8</ele>
        <time>2026-05-28T07:09:06.000Z</time>
      </trkpt>
      <trkpt lat="43.99356" lon="3.50228">
        <ele>515.8</ele>
        <time>2026-05-28T07:09:07.000Z</time>
      </trkpt>
      <trkpt lat="43.99357" lon="3.50228">
        <ele>515.7</ele>
        <time>2026-05-28T07:09:08.000Z</time>
      </trkpt>
      <trkpt lat="43.99358" lon="3.50227">
        <ele>516.2</ele>
        <time>2026-05-28T07:09:09.000Z</time>
      </trkpt>
      <trkpt lat="43.99359" lon="3.50226">
        <ele>516.1</ele>
        <time>2026-05-28T07:09:10.000Z</time>
      </trkpt>
      <trkpt lat="43.9936" lon="3.50226">
        <ele>516.2</ele>
        <time>2026-05-28T07:09:11.000Z</time>
      </trkpt>
      <trkpt lat="43.99361" lon="3.50225">
        <ele>516</ele>
        <time>2026-05-28T07:09:12.000Z</time>
      </trkpt>
      <trkpt lat="43.99362" lon="3.50224">
        <ele>516.3</ele>
        <time>2026-05-28T07:09:13.000Z</time>
      </trkpt>
      <trkpt lat="43.99363" lon="3.50222">
        <ele>516.4</ele>
        <time>2026-05-28T07:09:14.000Z</time>
      </trkpt>
      <trkpt lat="43.99363" lon="3.50221">
        <ele>516.5</ele>
        <time>2026-05-28T07:09:15.000Z</time>
      </trkpt>
      <trkpt lat="43.99364" lon="3.5022">
        <ele>516.3</ele>
        <time>2026-05-28T07:09:16.000Z</time>
      </trkpt>
      <trkpt lat="43.99364" lon="3.50219">
        <ele>516.5</ele>
        <time>2026-05-28T07:09:17.000Z</time>
      </trkpt>
      <trkpt lat="43.99364" lon="3.50218">
        <ele>516.8</ele>
        <time>2026-05-28T07:09:18.000Z</time>
      </trkpt>
      <trkpt lat="43.99365" lon="3.50217">
        <ele>517</ele>
        <time>2026-05-28T07:09:19.000Z</time>
      </trkpt>
      <trkpt lat="43.99366" lon="3.50216">
        <ele>517.1</ele>
        <time>2026-05-28T07:09:20.000Z</time>
      </trkpt>
      <trkpt lat="43.99366" lon="3.50215">
        <ele>517.4</ele>
        <time>2026-05-28T07:09:21.000Z</time>
      </trkpt>
      <trkpt lat="43.99367" lon="3.50214">
        <ele>517.6</ele>
        <time>2026-05-28T07:09:22.000Z</time>
      </trkpt>
      <trkpt lat="43.99367" lon="3.50212">
        <ele>517.8</ele>
        <time>2026-05-28T07:09:23.000Z</time>
      </trkpt>
      <trkpt lat="43.99368" lon="3.50211">
        <ele>517.9</ele>
        <time>2026-05-28T07:09:24.000Z</time>
      </trkpt>
      <trkpt lat="43.99368" lon="3.5021">
        <ele>518.3</ele>
        <time>2026-05-28T07:09:25.000Z</time>
      </trkpt>
      <trkpt lat="43.99369" lon="3.50209">
        <ele>518.6</ele>
        <time>2026-05-28T07:09:26.000Z</time>
      </trkpt>
      <trkpt lat="43.99369" lon="3.50207">
        <ele>518.8</ele>
        <time>2026-05-28T07:09:27.000Z</time>
      </trkpt>
      <trkpt lat="43.99369" lon="3.50206">
        <ele>519.1</ele>
        <time>2026-05-28T07:09:28.000Z</time>
      </trkpt>
      <trkpt lat="43.9937" lon="3.50204">
        <ele>519.3</ele>
        <time>2026-05-28T07:09:29.000Z</time>
      </trkpt>
      <trkpt lat="43.99371" lon="3.50203">
        <ele>519.5</ele>
        <time>2026-05-28T07:09:30.000Z</time>
      </trkpt>
      <trkpt lat="43.99372" lon="3.50203">
        <ele>519.6</ele>
        <time>2026-05-28T07:09:31.000Z</time>
      </trkpt>
      <trkpt lat="43.99372" lon="3.50203">
        <ele>519.6</ele>
        <time>2026-05-28T07:09:32.000Z</time>
      </trkpt>
      <trkpt lat="43.99373" lon="3.50203">
        <ele>519.8</ele>
        <time>2026-05-28T07:09:33.000Z</time>
      </trkpt>
      <trkpt lat="43.99374" lon="3.50202">
        <ele>520</ele>
        <time>2026-05-28T07:09:34.000Z</time>
      </trkpt>
      <trkpt lat="43.99374" lon="3.50203">
        <ele>519.7</ele>
        <time>2026-05-28T07:09:35.000Z</time>
      </trkpt>
      <trkpt lat="43.99375" lon="3.50203">
        <ele>519.3</ele>
        <time>2026-05-28T07:09:36.000Z</time>
      </trkpt>
      <trkpt lat="43.99376" lon="3.50204">
        <ele>519.1</ele>
        <time>2026-05-28T07:09:37.000Z</time>
      </trkpt>
      <trkpt lat="43.99378" lon="3.50204">
        <ele>518.8</ele>
        <time>2026-05-28T07:09:38.000Z</time>
      </trkpt>
      <trkpt lat="43.99379" lon="3.50204">
        <ele>518.9</ele>
        <time>2026-05-28T07:09:39.000Z</time>
      </trkpt>
      <trkpt lat="43.99381" lon="3.50203">
        <ele>518.9</ele>
        <time>2026-05-28T07:09:40.000Z</time>
      </trkpt>
      <trkpt lat="43.99382" lon="3.50203">
        <ele>518.7</ele>
        <time>2026-05-28T07:09:41.000Z</time>
      </trkpt>
      <trkpt lat="43.99382" lon="3.50203">
        <ele>518.8</ele>
        <time>2026-05-28T07:09:42.000Z</time>
      </trkpt>
      <trkpt lat="43.99383" lon="3.50203">
        <ele>518.7</ele>
        <time>2026-05-28T07:09:43.000Z</time>
      </trkpt>
      <trkpt lat="43.99384" lon="3.50203">
        <ele>518.7</ele>
        <time>2026-05-28T07:09:44.000Z</time>
      </trkpt>
      <trkpt lat="43.99384" lon="3.50204">
        <ele>518.8</ele>
        <time>2026-05-28T07:09:45.000Z</time>
      </trkpt>
      <trkpt lat="43.99385" lon="3.50204">
        <ele>518.7</ele>
        <time>2026-05-28T07:09:46.000Z</time>
      </trkpt>
      <trkpt lat="43.99386" lon="3.50203">
        <ele>518.5</ele>
        <time>2026-05-28T07:09:47.000Z</time>
      </trkpt>
      <trkpt lat="43.99387" lon="3.50204">
        <ele>518.3</ele>
        <time>2026-05-28T07:09:48.000Z</time>
      </trkpt>
      <trkpt lat="43.99388" lon="3.50206">
        <ele>518.3</ele>
        <time>2026-05-28T07:09:49.000Z</time>
      </trkpt>
      <trkpt lat="43.99388" lon="3.50207">
        <ele>518.5</ele>
        <time>2026-05-28T07:09:50.000Z</time>
      </trkpt>
      <trkpt lat="43.99389" lon="3.50207">
        <ele>518.8</ele>
        <time>2026-05-28T07:09:51.000Z</time>
      </trkpt>
      <trkpt lat="43.99391" lon="3.50208">
        <ele>518.8</ele>
        <time>2026-05-28T07:09:52.000Z</time>
      </trkpt>
      <trkpt lat="43.99392" lon="3.50209">
        <ele>519</ele>
        <time>2026-05-28T07:09:53.000Z</time>
      </trkpt>
      <trkpt lat="43.99393" lon="3.50208">
        <ele>518.9</ele>
        <time>2026-05-28T07:09:54.000Z</time>
      </trkpt>
      <trkpt lat="43.99393" lon="3.50208">
        <ele>519.2</ele>
        <time>2026-05-28T07:09:55.000Z</time>
      </trkpt>
      <trkpt lat="43.99393" lon="3.50207">
        <ele>519.6</ele>
        <time>2026-05-28T07:09:56.000Z</time>
      </trkpt>
      <trkpt lat="43.99393" lon="3.50206">
        <ele>519.6</ele>
        <time>2026-05-28T07:09:57.000Z</time>
      </trkpt>
      <trkpt lat="43.99394" lon="3.50206">
        <ele>519.8</ele>
        <time>2026-05-28T07:09:58.000Z</time>
      </trkpt>
      <trkpt lat="43.99395" lon="3.50205">
        <ele>520.2</ele>
        <time>2026-05-28T07:10:00.000Z</time>
      </trkpt>
      <trkpt lat="43.99396" lon="3.50205">
        <ele>520.2</ele>
        <time>2026-05-28T07:10:01.000Z</time>
      </trkpt>
      <trkpt lat="43.99397" lon="3.50204">
        <ele>520.2</ele>
        <time>2026-05-28T07:10:02.000Z</time>
      </trkpt>
      <trkpt lat="43.99397" lon="3.50203">
        <ele>520.1</ele>
        <time>2026-05-28T07:10:03.000Z</time>
      </trkpt>
      <trkpt lat="43.99398" lon="3.50201">
        <ele>519.9</ele>
        <time>2026-05-28T07:10:04.000Z</time>
      </trkpt>
      <trkpt lat="43.99398" lon="3.50199">
        <ele>519.7</ele>
        <time>2026-05-28T07:10:05.000Z</time>
      </trkpt>
      <trkpt lat="43.99398" lon="3.50198">
        <ele>519.5</ele>
        <time>2026-05-28T07:10:06.000Z</time>
      </trkpt>
      <trkpt lat="43.99397" lon="3.50197">
        <ele>518.8</ele>
        <time>2026-05-28T07:10:07.000Z</time>
      </trkpt>
      <trkpt lat="43.99397" lon="3.50196">
        <ele>518.4</ele>
        <time>2026-05-28T07:10:08.000Z</time>
      </trkpt>
      <trkpt lat="43.99397" lon="3.50195">
        <ele>518.5</ele>
        <time>2026-05-28T07:10:09.000Z</time>
      </trkpt>
      <trkpt lat="43.99397" lon="3.50194">
        <ele>518.2</ele>
        <time>2026-05-28T07:10:10.000Z</time>
      </trkpt>
      <trkpt lat="43.99397" lon="3.50192">
        <ele>518.5</ele>
        <time>2026-05-28T07:10:11.000Z</time>
      </trkpt>
      <trkpt lat="43.99396" lon="3.50191">
        <ele>518.7</ele>
        <time>2026-05-28T07:10:12.000Z</time>
      </trkpt>
      <trkpt lat="43.99397" lon="3.5019">
        <ele>518.5</ele>
        <time>2026-05-28T07:10:13.000Z</time>
      </trkpt>
      <trkpt lat="43.99397" lon="3.50189">
        <ele>518.6</ele>
        <time>2026-05-28T07:10:14.000Z</time>
      </trkpt>
      <trkpt lat="43.99397" lon="3.50187">
        <ele>519</ele>
        <time>2026-05-28T07:10:15.000Z</time>
      </trkpt>
      <trkpt lat="43.99396" lon="3.50186">
        <ele>519.3</ele>
        <time>2026-05-28T07:10:16.000Z</time>
      </trkpt>
      <trkpt lat="43.99395" lon="3.50184">
        <ele>519.7</ele>
        <time>2026-05-28T07:10:17.000Z</time>
      </trkpt>
      <trkpt lat="43.99395" lon="3.50182">
        <ele>520.3</ele>
        <time>2026-05-28T07:10:18.000Z</time>
      </trkpt>
      <trkpt lat="43.99394" lon="3.50181">
        <ele>520</ele>
        <time>2026-05-28T07:10:19.000Z</time>
      </trkpt>
      <trkpt lat="43.99395" lon="3.50179">
        <ele>519.9</ele>
        <time>2026-05-28T07:10:20.000Z</time>
      </trkpt>
      <trkpt lat="43.99395" lon="3.50177">
        <ele>520.3</ele>
        <time>2026-05-28T07:10:21.000Z</time>
      </trkpt>
      <trkpt lat="43.99394" lon="3.50176">
        <ele>520.4</ele>
        <time>2026-05-28T07:10:22.000Z</time>
      </trkpt>
      <trkpt lat="43.99395" lon="3.50175">
        <ele>520.2</ele>
        <time>2026-05-28T07:10:23.000Z</time>
      </trkpt>
      <trkpt lat="43.99394" lon="3.50173">
        <ele>520.5</ele>
        <time>2026-05-28T07:10:24.000Z</time>
      </trkpt>
      <trkpt lat="43.99395" lon="3.5017">
        <ele>520.2</ele>
        <time>2026-05-28T07:10:25.000Z</time>
      </trkpt>
      <trkpt lat="43.99395" lon="3.50167">
        <ele>519.9</ele>
        <time>2026-05-28T07:10:26.000Z</time>
      </trkpt>
      <trkpt lat="43.99394" lon="3.50166">
        <ele>519.5</ele>
        <time>2026-05-28T07:10:27.000Z</time>
      </trkpt>
      <trkpt lat="43.99394" lon="3.50165">
        <ele>519.7</ele>
        <time>2026-05-28T07:10:28.000Z</time>
      </trkpt>
      <trkpt lat="43.99394" lon="3.50164">
        <ele>519.8</ele>
        <time>2026-05-28T07:10:29.000Z</time>
      </trkpt>
      <trkpt lat="43.99394" lon="3.50163">
        <ele>519.7</ele>
        <time>2026-05-28T07:10:30.000Z</time>
      </trkpt>
      <trkpt lat="43.99394" lon="3.50161">
        <ele>519.6</ele>
        <time>2026-05-28T07:10:31.000Z</time>
      </trkpt>
      <trkpt lat="43.99393" lon="3.5016">
        <ele>519.6</ele>
        <time>2026-05-28T07:10:32.000Z</time>
      </trkpt>
      <trkpt lat="43.99392" lon="3.50159">
        <ele>519.6</ele>
        <time>2026-05-28T07:10:33.000Z</time>
      </trkpt>
      <trkpt lat="43.99391" lon="3.50157">
        <ele>519.6</ele>
        <time>2026-05-28T07:10:34.000Z</time>
      </trkpt>
      <trkpt lat="43.99391" lon="3.50156">
        <ele>519.7</ele>
        <time>2026-05-28T07:10:35.000Z</time>
      </trkpt>
      <trkpt lat="43.9939" lon="3.50155">
        <ele>519.5</ele>
        <time>2026-05-28T07:10:36.000Z</time>
      </trkpt>
      <trkpt lat="43.9939" lon="3.50154">
        <ele>519.5</ele>
        <time>2026-05-28T07:10:37.000Z</time>
      </trkpt>
      <trkpt lat="43.99392" lon="3.50155">
        <ele>519.7</ele>
        <time>2026-05-28T07:10:38.000Z</time>
      </trkpt>
      <trkpt lat="43.99392" lon="3.50154">
        <ele>519.7</ele>
        <time>2026-05-28T07:10:39.000Z</time>
      </trkpt>
      <trkpt lat="43.99392" lon="3.50155">
        <ele>519.5</ele>
        <time>2026-05-28T07:10:40.000Z</time>
      </trkpt>
      <trkpt lat="43.99394" lon="3.50155">
        <ele>519.4</ele>
        <time>2026-05-28T07:10:41.000Z</time>
      </trkpt>
      <trkpt lat="43.99396" lon="3.50155">
        <ele>519.9</ele>
        <time>2026-05-28T07:10:42.000Z</time>
      </trkpt>
      <trkpt lat="43.99397" lon="3.50155">
        <ele>520.4</ele>
        <time>2026-05-28T07:10:43.000Z</time>
      </trkpt>
      <trkpt lat="43.99399" lon="3.50154">
        <ele>520.9</ele>
        <time>2026-05-28T07:10:44.000Z</time>
      </trkpt>
      <trkpt lat="43.994" lon="3.50154">
        <ele>521</ele>
        <time>2026-05-28T07:10:45.000Z</time>
      </trkpt>
      <trkpt lat="43.99402" lon="3.50153">
        <ele>521.1</ele>
        <time>2026-05-28T07:10:46.000Z</time>
      </trkpt>
      <trkpt lat="43.99403" lon="3.50153">
        <ele>521.4</ele>
        <time>2026-05-28T07:10:47.000Z</time>
      </trkpt>
      <trkpt lat="43.99404" lon="3.50153">
        <ele>521.3</ele>
        <time>2026-05-28T07:10:48.000Z</time>
      </trkpt>
      <trkpt lat="43.99406" lon="3.50153">
        <ele>521.3</ele>
        <time>2026-05-28T07:10:49.000Z</time>
      </trkpt>
      <trkpt lat="43.99407" lon="3.50153">
        <ele>521.4</ele>
        <time>2026-05-28T07:10:50.000Z</time>
      </trkpt>
      <trkpt lat="43.99409" lon="3.50152">
        <ele>521.3</ele>
        <time>2026-05-28T07:10:51.000Z</time>
      </trkpt>
      <trkpt lat="43.9941" lon="3.50152">
        <ele>521.3</ele>
        <time>2026-05-28T07:10:52.000Z</time>
      </trkpt>
      <trkpt lat="43.99412" lon="3.50152">
        <ele>521</ele>
        <time>2026-05-28T07:10:53.000Z</time>
      </trkpt>
      <trkpt lat="43.99413" lon="3.50152">
        <ele>520.9</ele>
        <time>2026-05-28T07:10:54.000Z</time>
      </trkpt>
      <trkpt lat="43.99413" lon="3.50151">
        <ele>521</ele>
        <time>2026-05-28T07:10:55.000Z</time>
      </trkpt>
      <trkpt lat="43.99414" lon="3.50151">
        <ele>521.2</ele>
        <time>2026-05-28T07:10:56.000Z</time>
      </trkpt>
      <trkpt lat="43.99415" lon="3.5015">
        <ele>521.1</ele>
        <time>2026-05-28T07:10:57.000Z</time>
      </trkpt>
      <trkpt lat="43.99416" lon="3.50148">
        <ele>521.1</ele>
        <time>2026-05-28T07:10:58.000Z</time>
      </trkpt>
      <trkpt lat="43.99417" lon="3.50147">
        <ele>521</ele>
        <time>2026-05-28T07:10:59.000Z</time>
      </trkpt>
      <trkpt lat="43.99418" lon="3.50147">
        <ele>520.8</ele>
        <time>2026-05-28T07:11:00.000Z</time>
      </trkpt>
      <trkpt lat="43.99419" lon="3.50147">
        <ele>520.7</ele>
        <time>2026-05-28T07:11:01.000Z</time>
      </trkpt>
      <trkpt lat="43.9942" lon="3.50147">
        <ele>520.9</ele>
        <time>2026-05-28T07:11:02.000Z</time>
      </trkpt>
      <trkpt lat="43.99421" lon="3.50148">
        <ele>520.8</ele>
        <time>2026-05-28T07:11:03.000Z</time>
      </trkpt>
      <trkpt lat="43.99422" lon="3.50148">
        <ele>520.9</ele>
        <time>2026-05-28T07:11:04.000Z</time>
      </trkpt>
      <trkpt lat="43.99423" lon="3.50148">
        <ele>521.2</ele>
        <time>2026-05-28T07:11:05.000Z</time>
      </trkpt>
      <trkpt lat="43.99424" lon="3.50148">
        <ele>521.7</ele>
        <time>2026-05-28T07:11:06.000Z</time>
      </trkpt>
      <trkpt lat="43.99425" lon="3.50147">
        <ele>522</ele>
        <time>2026-05-28T07:11:07.000Z</time>
      </trkpt>
      <trkpt lat="43.99426" lon="3.50147">
        <ele>521.4</ele>
        <time>2026-05-28T07:11:08.000Z</time>
      </trkpt>
      <trkpt lat="43.99427" lon="3.50147">
        <ele>521.4</ele>
        <time>2026-05-28T07:11:09.000Z</time>
      </trkpt>
      <trkpt lat="43.99428" lon="3.50146">
        <ele>521.8</ele>
        <time>2026-05-28T07:11:10.000Z</time>
      </trkpt>
      <trkpt lat="43.99429" lon="3.50146">
        <ele>522.3</ele>
        <time>2026-05-28T07:11:11.000Z</time>
      </trkpt>
      <trkpt lat="43.99431" lon="3.50146">
        <ele>522.8</ele>
        <time>2026-05-28T07:11:12.000Z</time>
      </trkpt>
      <trkpt lat="43.99432" lon="3.50146">
        <ele>523.1</ele>
        <time>2026-05-28T07:11:13.000Z</time>
      </trkpt>
      <trkpt lat="43.99432" lon="3.50146">
        <ele>523.1</ele>
        <time>2026-05-28T07:11:14.000Z</time>
      </trkpt>
      <trkpt lat="43.99433" lon="3.50146">
        <ele>523</ele>
        <time>2026-05-28T07:11:15.000Z</time>
      </trkpt>
      <trkpt lat="43.99434" lon="3.50146">
        <ele>523.2</ele>
        <time>2026-05-28T07:11:16.000Z</time>
      </trkpt>
      <trkpt lat="43.99435" lon="3.50145">
        <ele>523.3</ele>
        <time>2026-05-28T07:11:17.000Z</time>
      </trkpt>
      <trkpt lat="43.99435" lon="3.50145">
        <ele>523.3</ele>
        <time>2026-05-28T07:11:18.000Z</time>
      </trkpt>
      <trkpt lat="43.99437" lon="3.50144">
        <ele>523</ele>
        <time>2026-05-28T07:11:19.000Z</time>
      </trkpt>
      <trkpt lat="43.99438" lon="3.50144">
        <ele>523</ele>
        <time>2026-05-28T07:11:20.000Z</time>
      </trkpt>
      <trkpt lat="43.99439" lon="3.50144">
        <ele>523</ele>
        <time>2026-05-28T07:11:21.000Z</time>
      </trkpt>
      <trkpt lat="43.99439" lon="3.50143">
        <ele>523.2</ele>
        <time>2026-05-28T07:11:22.000Z</time>
      </trkpt>
      <trkpt lat="43.99439" lon="3.50142">
        <ele>523.4</ele>
        <time>2026-05-28T07:11:23.000Z</time>
      </trkpt>
      <trkpt lat="43.99439" lon="3.50142">
        <ele>523.5</ele>
        <time>2026-05-28T07:11:24.000Z</time>
      </trkpt>
      <trkpt lat="43.9944" lon="3.50141">
        <ele>523.5</ele>
        <time>2026-05-28T07:11:25.000Z</time>
      </trkpt>
      <trkpt lat="43.99441" lon="3.5014">
        <ele>523.2</ele>
        <time>2026-05-28T07:11:26.000Z</time>
      </trkpt>
      <trkpt lat="43.99442" lon="3.5014">
        <ele>522.9</ele>
        <time>2026-05-28T07:11:27.000Z</time>
      </trkpt>
      <trkpt lat="43.99443" lon="3.50139">
        <ele>522.7</ele>
        <time>2026-05-28T07:11:28.000Z</time>
      </trkpt>
      <trkpt lat="43.99444" lon="3.50138">
        <ele>522.7</ele>
        <time>2026-05-28T07:11:29.000Z</time>
      </trkpt>
      <trkpt lat="43.99446" lon="3.50137">
        <ele>522.7</ele>
        <time>2026-05-28T07:11:30.000Z</time>
      </trkpt>
      <trkpt lat="43.99447" lon="3.50137">
        <ele>522.6</ele>
        <time>2026-05-28T07:11:31.000Z</time>
      </trkpt>
      <trkpt lat="43.99449" lon="3.50135">
        <ele>522.8</ele>
        <time>2026-05-28T07:11:32.000Z</time>
      </trkpt>
      <trkpt lat="43.99449" lon="3.50134">
        <ele>523</ele>
        <time>2026-05-28T07:11:33.000Z</time>
      </trkpt>
      <trkpt lat="43.99451" lon="3.50133">
        <ele>522.8</ele>
        <time>2026-05-28T07:11:35.000Z</time>
      </trkpt>
      <trkpt lat="43.99452" lon="3.50132">
        <ele>522.9</ele>
        <time>2026-05-28T07:11:36.000Z</time>
      </trkpt>
      <trkpt lat="43.99452" lon="3.50131">
        <ele>522.8</ele>
        <time>2026-05-28T07:11:37.000Z</time>
      </trkpt>
      <trkpt lat="43.99453" lon="3.5013">
        <ele>523.1</ele>
        <time>2026-05-28T07:11:38.000Z</time>
      </trkpt>
      <trkpt lat="43.99453" lon="3.50129">
        <ele>523</ele>
        <time>2026-05-28T07:11:39.000Z</time>
      </trkpt>
      <trkpt lat="43.99454" lon="3.50128">
        <ele>523.2</ele>
        <time>2026-05-28T07:11:40.000Z</time>
      </trkpt>
      <trkpt lat="43.99455" lon="3.50127">
        <ele>523</ele>
        <time>2026-05-28T07:11:41.000Z</time>
      </trkpt>
      <trkpt lat="43.99456" lon="3.50126">
        <ele>523.2</ele>
        <time>2026-05-28T07:11:42.000Z</time>
      </trkpt>
      <trkpt lat="43.99457" lon="3.50124">
        <ele>523.3</ele>
        <time>2026-05-28T07:11:44.000Z</time>
      </trkpt>
      <trkpt lat="43.99458" lon="3.50124">
        <ele>523.3</ele>
        <time>2026-05-28T07:11:45.000Z</time>
      </trkpt>
      <trkpt lat="43.99459" lon="3.50124">
        <ele>523.3</ele>
        <time>2026-05-28T07:11:46.000Z</time>
      </trkpt>
      <trkpt lat="43.9946" lon="3.50124">
        <ele>523.3</ele>
        <time>2026-05-28T07:11:47.000Z</time>
      </trkpt>
      <trkpt lat="43.9946" lon="3.50123">
        <ele>523</ele>
        <time>2026-05-28T07:11:48.000Z</time>
      </trkpt>
      <trkpt lat="43.9946" lon="3.50123">
        <ele>522.7</ele>
        <time>2026-05-28T07:11:49.000Z</time>
      </trkpt>
      <trkpt lat="43.99461" lon="3.50123">
        <ele>522.9</ele>
        <time>2026-05-28T07:11:50.000Z</time>
      </trkpt>
      <trkpt lat="43.99462" lon="3.50124">
        <ele>523.1</ele>
        <time>2026-05-28T07:11:51.000Z</time>
      </trkpt>
      <trkpt lat="43.99462" lon="3.50124">
        <ele>522.9</ele>
        <time>2026-05-28T07:11:52.000Z</time>
      </trkpt>
      <trkpt lat="43.99463" lon="3.50124">
        <ele>522.7</ele>
        <time>2026-05-28T07:11:53.000Z</time>
      </trkpt>
      <trkpt lat="43.99463" lon="3.50124">
        <ele>522.5</ele>
        <time>2026-05-28T07:11:54.000Z</time>
      </trkpt>
      <trkpt lat="43.99464" lon="3.50125">
        <ele>522.6</ele>
        <time>2026-05-28T07:11:55.000Z</time>
      </trkpt>
      <trkpt lat="43.99465" lon="3.50124">
        <ele>522.4</ele>
        <time>2026-05-28T07:11:56.000Z</time>
      </trkpt>
      <trkpt lat="43.99467" lon="3.50124">
        <ele>522.3</ele>
        <time>2026-05-28T07:11:57.000Z</time>
      </trkpt>
      <trkpt lat="43.99468" lon="3.50124">
        <ele>523.4</ele>
        <time>2026-05-28T07:11:59.000Z</time>
      </trkpt>
      <trkpt lat="43.99469" lon="3.50123">
        <ele>523.1</ele>
        <time>2026-05-28T07:12:00.000Z</time>
      </trkpt>
      <trkpt lat="43.99471" lon="3.50122">
        <ele>523.2</ele>
        <time>2026-05-28T07:12:01.000Z</time>
      </trkpt>
      <trkpt lat="43.99472" lon="3.50121">
        <ele>523.4</ele>
        <time>2026-05-28T07:12:02.000Z</time>
      </trkpt>
      <trkpt lat="43.99473" lon="3.5012">
        <ele>523.2</ele>
        <time>2026-05-28T07:12:03.000Z</time>
      </trkpt>
      <trkpt lat="43.99474" lon="3.50119">
        <ele>523.1</ele>
        <time>2026-05-28T07:12:04.000Z</time>
      </trkpt>
      <trkpt lat="43.99476" lon="3.50118">
        <ele>523.3</ele>
        <time>2026-05-28T07:12:05.000Z</time>
      </trkpt>
      <trkpt lat="43.99478" lon="3.50118">
        <ele>523.6</ele>
        <time>2026-05-28T07:12:06.000Z</time>
      </trkpt>
      <trkpt lat="43.99479" lon="3.50117">
        <ele>523.8</ele>
        <time>2026-05-28T07:12:07.000Z</time>
      </trkpt>
      <trkpt lat="43.99481" lon="3.50117">
        <ele>524</ele>
        <time>2026-05-28T07:12:08.000Z</time>
      </trkpt>
      <trkpt lat="43.99482" lon="3.50116">
        <ele>524.6</ele>
        <time>2026-05-28T07:12:10.000Z</time>
      </trkpt>
      <trkpt lat="43.99483" lon="3.50115">
        <ele>524.7</ele>
        <time>2026-05-28T07:12:11.000Z</time>
      </trkpt>
      <trkpt lat="43.99484" lon="3.50115">
        <ele>525.1</ele>
        <time>2026-05-28T07:12:12.000Z</time>
      </trkpt>
      <trkpt lat="43.99485" lon="3.50115">
        <ele>525.4</ele>
        <time>2026-05-28T07:12:13.000Z</time>
      </trkpt>
      <trkpt lat="43.99486" lon="3.50115">
        <ele>525.1</ele>
        <time>2026-05-28T07:12:14.000Z</time>
      </trkpt>
      <trkpt lat="43.99486" lon="3.50115">
        <ele>525.4</ele>
        <time>2026-05-28T07:12:15.000Z</time>
      </trkpt>
      <trkpt lat="43.99486" lon="3.50114">
        <ele>526</ele>
        <time>2026-05-28T07:12:16.000Z</time>
      </trkpt>
      <trkpt lat="43.99487" lon="3.50113">
        <ele>526.3</ele>
        <time>2026-05-28T07:12:17.000Z</time>
      </trkpt>
      <trkpt lat="43.99487" lon="3.50112">
        <ele>526.6</ele>
        <time>2026-05-28T07:12:18.000Z</time>
      </trkpt>
      <trkpt lat="43.99487" lon="3.5011">
        <ele>527.1</ele>
        <time>2026-05-28T07:12:19.000Z</time>
      </trkpt>
      <trkpt lat="43.99487" lon="3.50109">
        <ele>527.2</ele>
        <time>2026-05-28T07:12:20.000Z</time>
      </trkpt>
      <trkpt lat="43.99487" lon="3.50108">
        <ele>527</ele>
        <time>2026-05-28T07:12:21.000Z</time>
      </trkpt>
      <trkpt lat="43.99488" lon="3.50107">
        <ele>526.8</ele>
        <time>2026-05-28T07:12:22.000Z</time>
      </trkpt>
      <trkpt lat="43.99489" lon="3.50106">
        <ele>526.8</ele>
        <time>2026-05-28T07:12:23.000Z</time>
      </trkpt>
      <trkpt lat="43.99489" lon="3.50105">
        <ele>526.7</ele>
        <time>2026-05-28T07:12:24.000Z</time>
      </trkpt>
      <trkpt lat="43.9949" lon="3.50103">
        <ele>526.8</ele>
        <time>2026-05-28T07:12:25.000Z</time>
      </trkpt>
      <trkpt lat="43.9949" lon="3.50102">
        <ele>527.1</ele>
        <time>2026-05-28T07:12:26.000Z</time>
      </trkpt>
      <trkpt lat="43.9949" lon="3.50102">
        <ele>527.6</ele>
        <time>2026-05-28T07:12:27.000Z</time>
      </trkpt>
      <trkpt lat="43.9949" lon="3.50101">
        <ele>527.2</ele>
        <time>2026-05-28T07:12:28.000Z</time>
      </trkpt>
      <trkpt lat="43.9949" lon="3.50099">
        <ele>527.5</ele>
        <time>2026-05-28T07:12:30.000Z</time>
      </trkpt>
      <trkpt lat="43.99491" lon="3.50098">
        <ele>527.8</ele>
        <time>2026-05-28T07:12:31.000Z</time>
      </trkpt>
      <trkpt lat="43.99492" lon="3.50097">
        <ele>528.1</ele>
        <time>2026-05-28T07:12:32.000Z</time>
      </trkpt>
      <trkpt lat="43.99493" lon="3.50096">
        <ele>528.1</ele>
        <time>2026-05-28T07:12:33.000Z</time>
      </trkpt>
      <trkpt lat="43.99494" lon="3.50095">
        <ele>528.2</ele>
        <time>2026-05-28T07:12:34.000Z</time>
      </trkpt>
      <trkpt lat="43.99495" lon="3.50094">
        <ele>528.4</ele>
        <time>2026-05-28T07:12:35.000Z</time>
      </trkpt>
      <trkpt lat="43.99496" lon="3.50093">
        <ele>528.7</ele>
        <time>2026-05-28T07:12:36.000Z</time>
      </trkpt>
      <trkpt lat="43.99496" lon="3.50093">
        <ele>528.9</ele>
        <time>2026-05-28T07:12:37.000Z</time>
      </trkpt>
      <trkpt lat="43.99497" lon="3.50093">
        <ele>529</ele>
        <time>2026-05-28T07:12:38.000Z</time>
      </trkpt>
      <trkpt lat="43.99499" lon="3.50094">
        <ele>527.7</ele>
        <time>2026-05-28T07:12:39.000Z</time>
      </trkpt>
      <trkpt lat="43.99499" lon="3.50095">
        <ele>527.8</ele>
        <time>2026-05-28T07:12:40.000Z</time>
      </trkpt>
      <trkpt lat="43.99501" lon="3.50096">
        <ele>527.8</ele>
        <time>2026-05-28T07:12:41.000Z</time>
      </trkpt>
      <trkpt lat="43.99503" lon="3.50095">
        <ele>527.9</ele>
        <time>2026-05-28T07:12:42.000Z</time>
      </trkpt>
      <trkpt lat="43.99505" lon="3.50095">
        <ele>528.1</ele>
        <time>2026-05-28T07:12:43.000Z</time>
      </trkpt>
      <trkpt lat="43.99506" lon="3.50095">
        <ele>528.5</ele>
        <time>2026-05-28T07:12:44.000Z</time>
      </trkpt>
      <trkpt lat="43.99507" lon="3.50095">
        <ele>528.9</ele>
        <time>2026-05-28T07:12:45.000Z</time>
      </trkpt>
      <trkpt lat="43.99507" lon="3.50096">
        <ele>529.7</ele>
        <time>2026-05-28T07:12:46.000Z</time>
      </trkpt>
      <trkpt lat="43.99508" lon="3.50096">
        <ele>530.4</ele>
        <time>2026-05-28T07:12:47.000Z</time>
      </trkpt>
      <trkpt lat="43.99508" lon="3.50096">
        <ele>530.5</ele>
        <time>2026-05-28T07:12:48.000Z</time>
      </trkpt>
      <trkpt lat="43.99509" lon="3.50096">
        <ele>530.7</ele>
        <time>2026-05-28T07:12:49.000Z</time>
      </trkpt>
      <trkpt lat="43.9951" lon="3.50097">
        <ele>531.3</ele>
        <time>2026-05-28T07:12:50.000Z</time>
      </trkpt>
      <trkpt lat="43.99511" lon="3.50097">
        <ele>531.7</ele>
        <time>2026-05-28T07:12:51.000Z</time>
      </trkpt>
      <trkpt lat="43.99511" lon="3.50097">
        <ele>532.4</ele>
        <time>2026-05-28T07:12:52.000Z</time>
      </trkpt>
      <trkpt lat="43.99512" lon="3.50098">
        <ele>532.2</ele>
        <time>2026-05-28T07:12:53.000Z</time>
      </trkpt>
      <trkpt lat="43.99513" lon="3.50099">
        <ele>532.1</ele>
        <time>2026-05-28T07:12:54.000Z</time>
      </trkpt>
      <trkpt lat="43.99514" lon="3.50099">
        <ele>532</ele>
        <time>2026-05-28T07:12:55.000Z</time>
      </trkpt>
      <trkpt lat="43.99514" lon="3.50098">
        <ele>532.3</ele>
        <time>2026-05-28T07:12:56.000Z</time>
      </trkpt>
      <trkpt lat="43.99516" lon="3.50098">
        <ele>532.2</ele>
        <time>2026-05-28T07:12:57.000Z</time>
      </trkpt>
      <trkpt lat="43.99517" lon="3.50098">
        <ele>532</ele>
        <time>2026-05-28T07:12:58.000Z</time>
      </trkpt>
      <trkpt lat="43.99518" lon="3.50098">
        <ele>531.9</ele>
        <time>2026-05-28T07:12:59.000Z</time>
      </trkpt>
      <trkpt lat="43.99519" lon="3.50098">
        <ele>532.1</ele>
        <time>2026-05-28T07:13:00.000Z</time>
      </trkpt>
      <trkpt lat="43.99519" lon="3.50098">
        <ele>532.3</ele>
        <time>2026-05-28T07:13:01.000Z</time>
      </trkpt>
      <trkpt lat="43.9952" lon="3.50097">
        <ele>532.7</ele>
        <time>2026-05-28T07:13:02.000Z</time>
      </trkpt>
      <trkpt lat="43.9952" lon="3.50098">
        <ele>532.7</ele>
        <time>2026-05-28T07:13:03.000Z</time>
      </trkpt>
      <trkpt lat="43.99521" lon="3.50099">
        <ele>532.5</ele>
        <time>2026-05-28T07:13:04.000Z</time>
      </trkpt>
      <trkpt lat="43.99522" lon="3.50099">
        <ele>532.8</ele>
        <time>2026-05-28T07:13:05.000Z</time>
      </trkpt>
      <trkpt lat="43.99522" lon="3.501">
        <ele>532.9</ele>
        <time>2026-05-28T07:13:06.000Z</time>
      </trkpt>
      <trkpt lat="43.99523" lon="3.501">
        <ele>532.8</ele>
        <time>2026-05-28T07:13:07.000Z</time>
      </trkpt>
      <trkpt lat="43.99524" lon="3.501">
        <ele>532.9</ele>
        <time>2026-05-28T07:13:08.000Z</time>
      </trkpt>
      <trkpt lat="43.99525" lon="3.501">
        <ele>532.8</ele>
        <time>2026-05-28T07:13:09.000Z</time>
      </trkpt>
      <trkpt lat="43.99526" lon="3.50099">
        <ele>532.9</ele>
        <time>2026-05-28T07:13:10.000Z</time>
      </trkpt>
      <trkpt lat="43.99527" lon="3.50099">
        <ele>532.9</ele>
        <time>2026-05-28T07:13:11.000Z</time>
      </trkpt>
      <trkpt lat="43.99527" lon="3.50099">
        <ele>532.9</ele>
        <time>2026-05-28T07:13:12.000Z</time>
      </trkpt>
      <trkpt lat="43.99528" lon="3.50099">
        <ele>532.8</ele>
        <time>2026-05-28T07:13:13.000Z</time>
      </trkpt>
      <trkpt lat="43.99529" lon="3.50099">
        <ele>532.9</ele>
        <time>2026-05-28T07:13:14.000Z</time>
      </trkpt>
      <trkpt lat="43.9953" lon="3.50099">
        <ele>533.4</ele>
        <time>2026-05-28T07:13:15.000Z</time>
      </trkpt>
      <trkpt lat="43.99531" lon="3.50098">
        <ele>534</ele>
        <time>2026-05-28T07:13:16.000Z</time>
      </trkpt>
      <trkpt lat="43.99531" lon="3.50098">
        <ele>534</ele>
        <time>2026-05-28T07:13:17.000Z</time>
      </trkpt>
      <trkpt lat="43.99532" lon="3.50098">
        <ele>534.1</ele>
        <time>2026-05-28T07:13:18.000Z</time>
      </trkpt>
      <trkpt lat="43.99532" lon="3.50098">
        <ele>534.3</ele>
        <time>2026-05-28T07:13:19.000Z</time>
      </trkpt>
      <trkpt lat="43.99534" lon="3.50098">
        <ele>534.5</ele>
        <time>2026-05-28T07:13:20.000Z</time>
      </trkpt>
      <trkpt lat="43.99535" lon="3.50099">
        <ele>534.6</ele>
        <time>2026-05-28T07:13:21.000Z</time>
      </trkpt>
      <trkpt lat="43.99536" lon="3.50099">
        <ele>534.4</ele>
        <time>2026-05-28T07:13:22.000Z</time>
      </trkpt>
      <trkpt lat="43.99538" lon="3.50099">
        <ele>534.1</ele>
        <time>2026-05-28T07:13:23.999Z</time>
      </trkpt>
      <trkpt lat="43.99538" lon="3.50099">
        <ele>534.3</ele>
        <time>2026-05-28T07:13:24.999Z</time>
      </trkpt>
      <trkpt lat="43.9954" lon="3.501">
        <ele>534.4</ele>
        <time>2026-05-28T07:13:25.999Z</time>
      </trkpt>
      <trkpt lat="43.9954" lon="3.501">
        <ele>534.5</ele>
        <time>2026-05-28T07:13:26.999Z</time>
      </trkpt>
      <trkpt lat="43.99542" lon="3.50101">
        <ele>534.6</ele>
        <time>2026-05-28T07:13:27.999Z</time>
      </trkpt>
      <trkpt lat="43.99542" lon="3.50101">
        <ele>534.8</ele>
        <time>2026-05-28T07:13:28.999Z</time>
      </trkpt>
      <trkpt lat="43.99543" lon="3.50101">
        <ele>534.9</ele>
        <time>2026-05-28T07:13:29.999Z</time>
      </trkpt>
      <trkpt lat="43.99544" lon="3.50101">
        <ele>535.2</ele>
        <time>2026-05-28T07:13:30.999Z</time>
      </trkpt>
      <trkpt lat="43.99545" lon="3.50102">
        <ele>535.6</ele>
        <time>2026-05-28T07:13:31.999Z</time>
      </trkpt>
      <trkpt lat="43.99546" lon="3.50101">
        <ele>535.6</ele>
        <time>2026-05-28T07:13:32.999Z</time>
      </trkpt>
      <trkpt lat="43.99547" lon="3.50101">
        <ele>535.4</ele>
        <time>2026-05-28T07:13:33.999Z</time>
      </trkpt>
      <trkpt lat="43.99549" lon="3.501">
        <ele>535.6</ele>
        <time>2026-05-28T07:13:35.999Z</time>
      </trkpt>
      <trkpt lat="43.9955" lon="3.50099">
        <ele>535.7</ele>
        <time>2026-05-28T07:13:36.999Z</time>
      </trkpt>
      <trkpt lat="43.99551" lon="3.50099">
        <ele>535.5</ele>
        <time>2026-05-28T07:13:37.999Z</time>
      </trkpt>
      <trkpt lat="43.99551" lon="3.50099">
        <ele>535.6</ele>
        <time>2026-05-28T07:13:38.999Z</time>
      </trkpt>
      <trkpt lat="43.99552" lon="3.50099">
        <ele>535.6</ele>
        <time>2026-05-28T07:13:39.999Z</time>
      </trkpt>
      <trkpt lat="43.99553" lon="3.50098">
        <ele>535.4</ele>
        <time>2026-05-28T07:13:40.999Z</time>
      </trkpt>
      <trkpt lat="43.99554" lon="3.50098">
        <ele>535</ele>
        <time>2026-05-28T07:13:41.999Z</time>
      </trkpt>
      <trkpt lat="43.99556" lon="3.50097">
        <ele>534.9</ele>
        <time>2026-05-28T07:13:42.999Z</time>
      </trkpt>
      <trkpt lat="43.99558" lon="3.50097">
        <ele>534.9</ele>
        <time>2026-05-28T07:13:43.999Z</time>
      </trkpt>
      <trkpt lat="43.99559" lon="3.50098">
        <ele>535</ele>
        <time>2026-05-28T07:13:44.999Z</time>
      </trkpt>
      <trkpt lat="43.9956" lon="3.50099">
        <ele>535.1</ele>
        <time>2026-05-28T07:13:45.999Z</time>
      </trkpt>
      <trkpt lat="43.99561" lon="3.50099">
        <ele>534.9</ele>
        <time>2026-05-28T07:13:46.999Z</time>
      </trkpt>
      <trkpt lat="43.99562" lon="3.50099">
        <ele>534.6</ele>
        <time>2026-05-28T07:13:47.999Z</time>
      </trkpt>
      <trkpt lat="43.99564" lon="3.50098">
        <ele>534.3</ele>
        <time>2026-05-28T07:13:48.999Z</time>
      </trkpt>
      <trkpt lat="43.99565" lon="3.50099">
        <ele>534.2</ele>
        <time>2026-05-28T07:13:49.999Z</time>
      </trkpt>
      <trkpt lat="43.99566" lon="3.50099">
        <ele>534.1</ele>
        <time>2026-05-28T07:13:50.999Z</time>
      </trkpt>
      <trkpt lat="43.99567" lon="3.50099">
        <ele>534.2</ele>
        <time>2026-05-28T07:13:51.999Z</time>
      </trkpt>
      <trkpt lat="43.99568" lon="3.50098">
        <ele>534</ele>
        <time>2026-05-28T07:13:52.999Z</time>
      </trkpt>
      <trkpt lat="43.9957" lon="3.50098">
        <ele>533.9</ele>
        <time>2026-05-28T07:13:53.999Z</time>
      </trkpt>
      <trkpt lat="43.99571" lon="3.50098">
        <ele>533.6</ele>
        <time>2026-05-28T07:13:54.999Z</time>
      </trkpt>
      <trkpt lat="43.99573" lon="3.50098">
        <ele>533.7</ele>
        <time>2026-05-28T07:13:55.999Z</time>
      </trkpt>
      <trkpt lat="43.99574" lon="3.50097">
        <ele>533.8</ele>
        <time>2026-05-28T07:13:56.999Z</time>
      </trkpt>
      <trkpt lat="43.99576" lon="3.50097">
        <ele>534.5</ele>
        <time>2026-05-28T07:13:58.999Z</time>
      </trkpt>
      <trkpt lat="43.99578" lon="3.50097">
        <ele>534.7</ele>
        <time>2026-05-28T07:13:59.999Z</time>
      </trkpt>
      <trkpt lat="43.99579" lon="3.50097">
        <ele>535</ele>
        <time>2026-05-28T07:14:00.999Z</time>
      </trkpt>
      <trkpt lat="43.9958" lon="3.50097">
        <ele>534.8</ele>
        <time>2026-05-28T07:14:01.999Z</time>
      </trkpt>
      <trkpt lat="43.9958" lon="3.50098">
        <ele>534.6</ele>
        <time>2026-05-28T07:14:02.999Z</time>
      </trkpt>
      <trkpt lat="43.99582" lon="3.50097">
        <ele>534.9</ele>
        <time>2026-05-28T07:14:03.999Z</time>
      </trkpt>
      <trkpt lat="43.99583" lon="3.50097">
        <ele>535.2</ele>
        <time>2026-05-28T07:14:04.999Z</time>
      </trkpt>
      <trkpt lat="43.99584" lon="3.50097">
        <ele>535.5</ele>
        <time>2026-05-28T07:14:05.999Z</time>
      </trkpt>
      <trkpt lat="43.99585" lon="3.50097">
        <ele>535.3</ele>
        <time>2026-05-28T07:14:06.999Z</time>
      </trkpt>
      <trkpt lat="43.99586" lon="3.50098">
        <ele>535.1</ele>
        <time>2026-05-28T07:14:07.999Z</time>
      </trkpt>
      <trkpt lat="43.99587" lon="3.50098">
        <ele>535.3</ele>
        <time>2026-05-28T07:14:08.999Z</time>
      </trkpt>
      <trkpt lat="43.99589" lon="3.50098">
        <ele>535.2</ele>
        <time>2026-05-28T07:14:09.999Z</time>
      </trkpt>
      <trkpt lat="43.99589" lon="3.50098">
        <ele>535.2</ele>
        <time>2026-05-28T07:14:10.999Z</time>
      </trkpt>
      <trkpt lat="43.9959" lon="3.50097">
        <ele>535</ele>
        <time>2026-05-28T07:14:11.999Z</time>
      </trkpt>
      <trkpt lat="43.99591" lon="3.50097">
        <ele>534.7</ele>
        <time>2026-05-28T07:14:12.999Z</time>
      </trkpt>
      <trkpt lat="43.99592" lon="3.50097">
        <ele>534.6</ele>
        <time>2026-05-28T07:14:13.999Z</time>
      </trkpt>
      <trkpt lat="43.99593" lon="3.50097">
        <ele>534.4</ele>
        <time>2026-05-28T07:14:14.999Z</time>
      </trkpt>
      <trkpt lat="43.99593" lon="3.50098">
        <ele>534.2</ele>
        <time>2026-05-28T07:14:15.999Z</time>
      </trkpt>
      <trkpt lat="43.99593" lon="3.50097">
        <ele>534.1</ele>
        <time>2026-05-28T07:14:16.999Z</time>
      </trkpt>
      <trkpt lat="43.99593" lon="3.50097">
        <ele>534.2</ele>
        <time>2026-05-28T07:14:17.999Z</time>
      </trkpt>
      <trkpt lat="43.99594" lon="3.50096">
        <ele>535.5</ele>
        <time>2026-05-28T07:14:18.999Z</time>
      </trkpt>
      <trkpt lat="43.99593" lon="3.50096">
        <ele>535.7</ele>
        <time>2026-05-28T07:14:19.999Z</time>
      </trkpt>
      <trkpt lat="43.99593" lon="3.50096">
        <ele>535.8</ele>
        <time>2026-05-28T07:14:20.999Z</time>
      </trkpt>
      <trkpt lat="43.99594" lon="3.50095">
        <ele>535.7</ele>
        <time>2026-05-28T07:14:21.999Z</time>
      </trkpt>
      <trkpt lat="43.99594" lon="3.50095">
        <ele>535.6</ele>
        <time>2026-05-28T07:14:22.999Z</time>
      </trkpt>
      <trkpt lat="43.99594" lon="3.50095">
        <ele>535.4</ele>
        <time>2026-05-28T07:14:23.999Z</time>
      </trkpt>
      <trkpt lat="43.99594" lon="3.50096">
        <ele>535.2</ele>
        <time>2026-05-28T07:14:24.999Z</time>
      </trkpt>
      <trkpt lat="43.99595" lon="3.50096">
        <ele>535.2</ele>
        <time>2026-05-28T07:14:25.999Z</time>
      </trkpt>
      <trkpt lat="43.99596" lon="3.50096">
        <ele>535</ele>
        <time>2026-05-28T07:14:26.999Z</time>
      </trkpt>
      <trkpt lat="43.99596" lon="3.50096">
        <ele>535.1</ele>
        <time>2026-05-28T07:14:27.999Z</time>
      </trkpt>
      <trkpt lat="43.99596" lon="3.50096">
        <ele>535.4</ele>
        <time>2026-05-28T07:14:28.999Z</time>
      </trkpt>
      <trkpt lat="43.99596" lon="3.50096">
        <ele>535.6</ele>
        <time>2026-05-28T07:14:29.999Z</time>
      </trkpt>
      <trkpt lat="43.99597" lon="3.50095">
        <ele>536</ele>
        <time>2026-05-28T07:14:30.999Z</time>
      </trkpt>
      <trkpt lat="43.99599" lon="3.50094">
        <ele>536.1</ele>
        <time>2026-05-28T07:14:31.999Z</time>
      </trkpt>
      <trkpt lat="43.996" lon="3.50094">
        <ele>536.8</ele>
        <time>2026-05-28T07:14:32.999Z</time>
      </trkpt>
      <trkpt lat="43.99602" lon="3.50093">
        <ele>537.4</ele>
        <time>2026-05-28T07:14:33.999Z</time>
      </trkpt>
      <trkpt lat="43.99603" lon="3.50092">
        <ele>537.7</ele>
        <time>2026-05-28T07:14:34.999Z</time>
      </trkpt>
      <trkpt lat="43.99603" lon="3.50092">
        <ele>538</ele>
        <time>2026-05-28T07:14:35.999Z</time>
      </trkpt>
      <trkpt lat="43.99606" lon="3.50092">
        <ele>537.9</ele>
        <time>2026-05-28T07:14:36.999Z</time>
      </trkpt>
      <trkpt lat="43.99607" lon="3.5009">
        <ele>537.9</ele>
        <time>2026-05-28T07:14:37.999Z</time>
      </trkpt>
      <trkpt lat="43.99608" lon="3.5009">
        <ele>537.9</ele>
        <time>2026-05-28T07:14:38.999Z</time>
      </trkpt>
      <trkpt lat="43.99608" lon="3.5009">
        <ele>537.9</ele>
        <time>2026-05-28T07:14:39.999Z</time>
      </trkpt>
      <trkpt lat="43.99608" lon="3.5009">
        <ele>538.2</ele>
        <time>2026-05-28T07:14:40.999Z</time>
      </trkpt>
      <trkpt lat="43.99608" lon="3.5009">
        <ele>538.4</ele>
        <time>2026-05-28T07:14:42.999Z</time>
      </trkpt>
      <trkpt lat="43.99609" lon="3.5009">
        <ele>538.5</ele>
        <time>2026-05-28T07:14:43.999Z</time>
      </trkpt>
      <trkpt lat="43.9961" lon="3.5009">
        <ele>538.6</ele>
        <time>2026-05-28T07:14:44.999Z</time>
      </trkpt>
      <trkpt lat="43.99611" lon="3.5009">
        <ele>538.4</ele>
        <time>2026-05-28T07:14:45.999Z</time>
      </trkpt>
      <trkpt lat="43.99612" lon="3.5009">
        <ele>538.7</ele>
        <time>2026-05-28T07:14:46.999Z</time>
      </trkpt>
      <trkpt lat="43.99612" lon="3.50091">
        <ele>538.9</ele>
        <time>2026-05-28T07:14:47.999Z</time>
      </trkpt>
      <trkpt lat="43.99612" lon="3.50091">
        <ele>539.1</ele>
        <time>2026-05-28T07:14:48.999Z</time>
      </trkpt>
      <trkpt lat="43.99612" lon="3.50091">
        <ele>539.1</ele>
        <time>2026-05-28T07:14:49.999Z</time>
      </trkpt>
      <trkpt lat="43.99612" lon="3.50091">
        <ele>539.2</ele>
        <time>2026-05-28T07:14:50.999Z</time>
      </trkpt>
      <trkpt lat="43.99612" lon="3.50091">
        <ele>539.3</ele>
        <time>2026-05-28T07:14:51.999Z</time>
      </trkpt>
      <trkpt lat="43.99612" lon="3.50091">
        <ele>539.1</ele>
        <time>2026-05-28T07:14:52.999Z</time>
      </trkpt>
      <trkpt lat="43.99612" lon="3.50091">
        <ele>538.8</ele>
        <time>2026-05-28T07:14:53.999Z</time>
      </trkpt>
      <trkpt lat="43.99612" lon="3.50091">
        <ele>538.7</ele>
        <time>2026-05-28T07:14:54.999Z</time>
      </trkpt>
      <trkpt lat="43.99612" lon="3.50091">
        <ele>538.8</ele>
        <time>2026-05-28T07:14:55.999Z</time>
      </trkpt>
      <trkpt lat="43.99612" lon="3.50091">
        <ele>538.8</ele>
        <time>2026-05-28T07:14:56.999Z</time>
      </trkpt>
      <trkpt lat="43.99612" lon="3.5009">
        <ele>538.6</ele>
        <time>2026-05-28T07:14:57.999Z</time>
      </trkpt>
      <trkpt lat="43.99612" lon="3.5009">
        <ele>538.8</ele>
        <time>2026-05-28T07:14:58.999Z</time>
      </trkpt>
      <trkpt lat="43.99611" lon="3.50089">
        <ele>538.9</ele>
        <time>2026-05-28T07:14:59.999Z</time>
      </trkpt>
      <trkpt lat="43.99611" lon="3.50089">
        <ele>539</ele>
        <time>2026-05-28T07:15:00.999Z</time>
      </trkpt>
      <trkpt lat="43.99611" lon="3.50089">
        <ele>539</ele>
        <time>2026-05-28T07:15:01.999Z</time>
      </trkpt>
      <trkpt lat="43.9961" lon="3.5009">
        <ele>539.2</ele>
        <time>2026-05-28T07:15:02.999Z</time>
      </trkpt>
      <trkpt lat="43.99609" lon="3.5009">
        <ele>539.1</ele>
        <time>2026-05-28T07:15:03.999Z</time>
      </trkpt>
      <trkpt lat="43.99607" lon="3.50091">
        <ele>539.4</ele>
        <time>2026-05-28T07:15:04.999Z</time>
      </trkpt>
      <trkpt lat="43.99606" lon="3.50092">
        <ele>539.9</ele>
        <time>2026-05-28T07:15:05.999Z</time>
      </trkpt>
      <trkpt lat="43.99606" lon="3.50093">
        <ele>540.2</ele>
        <time>2026-05-28T07:15:06.999Z</time>
      </trkpt>
      <trkpt lat="43.99605" lon="3.50093">
        <ele>540.5</ele>
        <time>2026-05-28T07:15:07.999Z</time>
      </trkpt>
      <trkpt lat="43.99605" lon="3.50093">
        <ele>540.7</ele>
        <time>2026-05-28T07:15:08.999Z</time>
      </trkpt>
      <trkpt lat="43.99604" lon="3.50093">
        <ele>541.1</ele>
        <time>2026-05-28T07:15:09.999Z</time>
      </trkpt>
      <trkpt lat="43.99605" lon="3.50095">
        <ele>541.1</ele>
        <time>2026-05-28T07:15:10.999Z</time>
      </trkpt>
      <trkpt lat="43.99605" lon="3.50095">
        <ele>541.3</ele>
        <time>2026-05-28T07:15:11.999Z</time>
      </trkpt>
      <trkpt lat="43.99604" lon="3.50095">
        <ele>541.5</ele>
        <time>2026-05-28T07:15:12.999Z</time>
      </trkpt>
      <trkpt lat="43.99604" lon="3.50095">
        <ele>541.4</ele>
        <time>2026-05-28T07:15:13.999Z</time>
      </trkpt>
      <trkpt lat="43.99603" lon="3.50095">
        <ele>541.4</ele>
        <time>2026-05-28T07:15:14.999Z</time>
      </trkpt>
      <trkpt lat="43.99603" lon="3.50096">
        <ele>541.3</ele>
        <time>2026-05-28T07:15:15.999Z</time>
      </trkpt>
      <trkpt lat="43.99603" lon="3.50096">
        <ele>541.6</ele>
        <time>2026-05-28T07:15:16.999Z</time>
      </trkpt>
      <trkpt lat="43.99603" lon="3.50096">
        <ele>541.8</ele>
        <time>2026-05-28T07:15:17.999Z</time>
      </trkpt>
      <trkpt lat="43.99603" lon="3.50097">
        <ele>541.9</ele>
        <time>2026-05-28T07:15:18.999Z</time>
      </trkpt>
      <trkpt lat="43.99602" lon="3.50097">
        <ele>542.4</ele>
        <time>2026-05-28T07:15:19.999Z</time>
      </trkpt>
      <trkpt lat="43.99601" lon="3.50096">
        <ele>542.4</ele>
        <time>2026-05-28T07:15:20.999Z</time>
      </trkpt>
      <trkpt lat="43.99601" lon="3.50097">
        <ele>542.3</ele>
        <time>2026-05-28T07:15:21.999Z</time>
      </trkpt>
      <trkpt lat="43.99601" lon="3.50098">
        <ele>542.1</ele>
        <time>2026-05-28T07:15:22.999Z</time>
      </trkpt>
      <trkpt lat="43.99601" lon="3.50099">
        <ele>541.8</ele>
        <time>2026-05-28T07:15:23.999Z</time>
      </trkpt>
      <trkpt lat="43.99601" lon="3.50101">
        <ele>541.7</ele>
        <time>2026-05-28T07:15:24.999Z</time>
      </trkpt>
      <trkpt lat="43.99602" lon="3.50103">
        <ele>541.6</ele>
        <time>2026-05-28T07:15:25.999Z</time>
      </trkpt>
      <trkpt lat="43.99601" lon="3.50104">
        <ele>541.6</ele>
        <time>2026-05-28T07:15:26.999Z</time>
      </trkpt>
      <trkpt lat="43.99602" lon="3.50105">
        <ele>541.6</ele>
        <time>2026-05-28T07:15:27.999Z</time>
      </trkpt>
      <trkpt lat="43.99602" lon="3.50105">
        <ele>541.8</ele>
        <time>2026-05-28T07:15:28.999Z</time>
      </trkpt>
      <trkpt lat="43.99602" lon="3.50105">
        <ele>541.8</ele>
        <time>2026-05-28T07:15:29.999Z</time>
      </trkpt>
      <trkpt lat="43.99601" lon="3.50105">
        <ele>541.7</ele>
        <time>2026-05-28T07:15:30.999Z</time>
      </trkpt>
      <trkpt lat="43.99602" lon="3.50106">
        <ele>541.8</ele>
        <time>2026-05-28T07:15:31.999Z</time>
      </trkpt>
      <trkpt lat="43.99603" lon="3.50105">
        <ele>541.9</ele>
        <time>2026-05-28T07:15:32.999Z</time>
      </trkpt>
      <trkpt lat="43.99603" lon="3.50105">
        <ele>542</ele>
        <time>2026-05-28T07:15:33.999Z</time>
      </trkpt>
      <trkpt lat="43.99604" lon="3.50106">
        <ele>542</ele>
        <time>2026-05-28T07:15:34.999Z</time>
      </trkpt>
      <trkpt lat="43.99605" lon="3.50106">
        <ele>542.2</ele>
        <time>2026-05-28T07:15:35.999Z</time>
      </trkpt>
      <trkpt lat="43.99607" lon="3.50107">
        <ele>542.4</ele>
        <time>2026-05-28T07:15:37.999Z</time>
      </trkpt>
      <trkpt lat="43.99606" lon="3.50107">
        <ele>542.6</ele>
        <time>2026-05-28T07:15:38.999Z</time>
      </trkpt>
      <trkpt lat="43.99606" lon="3.50107">
        <ele>542.3</ele>
        <time>2026-05-28T07:15:39.999Z</time>
      </trkpt>
      <trkpt lat="43.99606" lon="3.50107">
        <ele>542.6</ele>
        <time>2026-05-28T07:15:40.999Z</time>
      </trkpt>
      <trkpt lat="43.99606" lon="3.50107">
        <ele>542.7</ele>
        <time>2026-05-28T07:15:41.999Z</time>
      </trkpt>
      <trkpt lat="43.99606" lon="3.50107">
        <ele>542.8</ele>
        <time>2026-05-28T07:15:42.999Z</time>
      </trkpt>
      <trkpt lat="43.99606" lon="3.50107">
        <ele>543</ele>
        <time>2026-05-28T07:15:43.999Z</time>
      </trkpt>
      <trkpt lat="43.99606" lon="3.50107">
        <ele>543.1</ele>
        <time>2026-05-28T07:15:44.999Z</time>
      </trkpt>
      <trkpt lat="43.99607" lon="3.50107">
        <ele>543</ele>
        <time>2026-05-28T07:15:45.999Z</time>
      </trkpt>
      <trkpt lat="43.99607" lon="3.50107">
        <ele>543</ele>
        <time>2026-05-28T07:15:46.999Z</time>
      </trkpt>
      <trkpt lat="43.99607" lon="3.50107">
        <ele>543.1</ele>
        <time>2026-05-28T07:15:47.999Z</time>
      </trkpt>
      <trkpt lat="43.99606" lon="3.50107">
        <ele>543.3</ele>
        <time>2026-05-28T07:15:48.999Z</time>
      </trkpt>
      <trkpt lat="43.99606" lon="3.50107">
        <ele>543.2</ele>
        <time>2026-05-28T07:15:49.999Z</time>
      </trkpt>
      <trkpt lat="43.99606" lon="3.50107">
        <ele>543.1</ele>
        <time>2026-05-28T07:15:50.999Z</time>
      </trkpt>
      <trkpt lat="43.99606" lon="3.50107">
        <ele>543.1</ele>
        <time>2026-05-28T07:15:51.999Z</time>
      </trkpt>
      <trkpt lat="43.99606" lon="3.50107">
        <ele>542.7</ele>
        <time>2026-05-28T07:15:52.999Z</time>
      </trkpt>
      <trkpt lat="43.99606" lon="3.50107">
        <ele>542.7</ele>
        <time>2026-05-28T07:15:53.999Z</time>
      </trkpt>
      <trkpt lat="43.99606" lon="3.50107">
        <ele>542.6</ele>
        <time>2026-05-28T07:15:54.999Z</time>
      </trkpt>
      <trkpt lat="43.99606" lon="3.50107">
        <ele>542.5</ele>
        <time>2026-05-28T07:15:55.999Z</time>
      </trkpt>
      <trkpt lat="43.99606" lon="3.50107">
        <ele>542.7</ele>
        <time>2026-05-28T07:15:56.999Z</time>
      </trkpt>
      <trkpt lat="43.99606" lon="3.50108">
        <ele>542.7</ele>
        <time>2026-05-28T07:15:57.999Z</time>
      </trkpt>
      <trkpt lat="43.99606" lon="3.50108">
        <ele>542.5</ele>
        <time>2026-05-28T07:15:58.999Z</time>
      </trkpt>
      <trkpt lat="43.99606" lon="3.50108">
        <ele>542.4</ele>
        <time>2026-05-28T07:15:59.999Z</time>
      </trkpt>
      <trkpt lat="43.99606" lon="3.50108">
        <ele>542.2</ele>
        <time>2026-05-28T07:16:00.999Z</time>
      </trkpt>
      <trkpt lat="43.99606" lon="3.50108">
        <ele>542.1</ele>
        <time>2026-05-28T07:16:01.999Z</time>
      </trkpt>
      <trkpt lat="43.99606" lon="3.50108">
        <ele>542.2</ele>
        <time>2026-05-28T07:16:02.999Z</time>
      </trkpt>
      <trkpt lat="43.99606" lon="3.50108">
        <ele>542.1</ele>
        <time>2026-05-28T07:16:03.999Z</time>
      </trkpt>
      <trkpt lat="43.99606" lon="3.50107">
        <ele>542.1</ele>
        <time>2026-05-28T07:16:04.999Z</time>
      </trkpt>
      <trkpt lat="43.99606" lon="3.50107">
        <ele>542</ele>
        <time>2026-05-28T07:16:05.999Z</time>
      </trkpt>
      <trkpt lat="43.99606" lon="3.50108">
        <ele>542</ele>
        <time>2026-05-28T07:16:06.999Z</time>
      </trkpt>
      <trkpt lat="43.99606" lon="3.50108">
        <ele>542.2</ele>
        <time>2026-05-28T07:16:07.999Z</time>
      </trkpt>
      <trkpt lat="43.99606" lon="3.50108">
        <ele>542.2</ele>
        <time>2026-05-28T07:16:08.999Z</time>
      </trkpt>
      <trkpt lat="43.99606" lon="3.50108">
        <ele>542.1</ele>
        <time>2026-05-28T07:16:09.999Z</time>
      </trkpt>
      <trkpt lat="43.99606" lon="3.50108">
        <ele>541.7</ele>
        <time>2026-05-28T07:16:10.999Z</time>
      </trkpt>
      <trkpt lat="43.99606" lon="3.50108">
        <ele>541.2</ele>
        <time>2026-05-28T07:16:11.999Z</time>
      </trkpt>
      <trkpt lat="43.99606" lon="3.50108">
        <ele>541.2</ele>
        <time>2026-05-28T07:16:12.999Z</time>
      </trkpt>
      <trkpt lat="43.99606" lon="3.50108">
        <ele>541.2</ele>
        <time>2026-05-28T07:16:14.999Z</time>
      </trkpt>
      <trkpt lat="43.99606" lon="3.50108">
        <ele>541.1</ele>
        <time>2026-05-28T07:16:15.999Z</time>
      </trkpt>
      <trkpt lat="43.99606" lon="3.50108">
        <ele>541.1</ele>
        <time>2026-05-28T07:16:16.999Z</time>
      </trkpt>
      <trkpt lat="43.99606" lon="3.50108">
        <ele>541.1</ele>
        <time>2026-05-28T07:16:17.999Z</time>
      </trkpt>
      <trkpt lat="43.99606" lon="3.50108">
        <ele>541.1</ele>
        <time>2026-05-28T07:16:18.999Z</time>
      </trkpt>
      <trkpt lat="43.99606" lon="3.50108">
        <ele>541.2</ele>
        <time>2026-05-28T07:16:19.999Z</time>
      </trkpt>
      <trkpt lat="43.99606" lon="3.50108">
        <ele>541.4</ele>
        <time>2026-05-28T07:16:20.999Z</time>
      </trkpt>
      <trkpt lat="43.99606" lon="3.50108">
        <ele>541.5</ele>
        <time>2026-05-28T07:16:21.999Z</time>
      </trkpt>
      <trkpt lat="43.99606" lon="3.50108">
        <ele>541.6</ele>
        <time>2026-05-28T07:16:22.999Z</time>
      </trkpt>
      <trkpt lat="43.99606" lon="3.50108">
        <ele>541.5</ele>
        <time>2026-05-28T07:16:23.999Z</time>
      </trkpt>
      <trkpt lat="43.99606" lon="3.50108">
        <ele>541.5</ele>
        <time>2026-05-28T07:16:24.999Z</time>
      </trkpt>
      <trkpt lat="43.99606" lon="3.50108">
        <ele>541.7</ele>
        <time>2026-05-28T07:16:26.999Z</time>
      </trkpt>
      <trkpt lat="43.99606" lon="3.50108">
        <ele>541.6</ele>
        <time>2026-05-28T07:16:27.999Z</time>
      </trkpt>
      <trkpt lat="43.99606" lon="3.50108">
        <ele>541.6</ele>
        <time>2026-05-28T07:16:28.999Z</time>
      </trkpt>
      <trkpt lat="43.99606" lon="3.50108">
        <ele>541.7</ele>
        <time>2026-05-28T07:16:29.999Z</time>
      </trkpt>
      <trkpt lat="43.99605" lon="3.50109">
        <ele>541.6</ele>
        <time>2026-05-28T07:16:30.999Z</time>
      </trkpt>
      <trkpt lat="43.99605" lon="3.50109">
        <ele>541.5</ele>
        <time>2026-05-28T07:16:31.999Z</time>
      </trkpt>
      <trkpt lat="43.99604" lon="3.5011">
        <ele>541.6</ele>
        <time>2026-05-28T07:16:32.999Z</time>
      </trkpt>
      <trkpt lat="43.99604" lon="3.50109">
        <ele>541.7</ele>
        <time>2026-05-28T07:16:33.999Z</time>
      </trkpt>
      <trkpt lat="43.99604" lon="3.50109">
        <ele>541.7</ele>
        <time>2026-05-28T07:16:34.999Z</time>
      </trkpt>
      <trkpt lat="43.99604" lon="3.50109">
        <ele>541.8</ele>
        <time>2026-05-28T07:16:35.999Z</time>
      </trkpt>
      <trkpt lat="43.99604" lon="3.50109">
        <ele>541.9</ele>
        <time>2026-05-28T07:16:36.999Z</time>
      </trkpt>
      <trkpt lat="43.99604" lon="3.5011">
        <ele>541.9</ele>
        <time>2026-05-28T07:16:37.999Z</time>
      </trkpt>
      <trkpt lat="43.99604" lon="3.5011">
        <ele>541.8</ele>
        <time>2026-05-28T07:16:38.999Z</time>
      </trkpt>
      <trkpt lat="43.99604" lon="3.5011">
        <ele>541.8</ele>
        <time>2026-05-28T07:16:39.999Z</time>
      </trkpt>
      <trkpt lat="43.99604" lon="3.5011">
        <ele>542</ele>
        <time>2026-05-28T07:16:40.999Z</time>
      </trkpt>
      <trkpt lat="43.99604" lon="3.5011">
        <ele>542.2</ele>
        <time>2026-05-28T07:16:41.999Z</time>
      </trkpt>
      <trkpt lat="43.99604" lon="3.5011">
        <ele>542.2</ele>
        <time>2026-05-28T07:16:42.999Z</time>
      </trkpt>
      <trkpt lat="43.99604" lon="3.5011">
        <ele>542.2</ele>
        <time>2026-05-28T07:16:43.999Z</time>
      </trkpt>
      <trkpt lat="43.99605" lon="3.5011">
        <ele>542.3</ele>
        <time>2026-05-28T07:16:44.999Z</time>
      </trkpt>
      <trkpt lat="43.99605" lon="3.5011">
        <ele>542.5</ele>
        <time>2026-05-28T07:16:45.999Z</time>
      </trkpt>
      <trkpt lat="43.99606" lon="3.50111">
        <ele>542.7</ele>
        <time>2026-05-28T07:16:46.999Z</time>
      </trkpt>
      <trkpt lat="43.99607" lon="3.50111">
        <ele>542.6</ele>
        <time>2026-05-28T07:16:47.999Z</time>
      </trkpt>
      <trkpt lat="43.99609" lon="3.50111">
        <ele>542.7</ele>
        <time>2026-05-28T07:16:48.999Z</time>
      </trkpt>
      <trkpt lat="43.99609" lon="3.50112">
        <ele>542.6</ele>
        <time>2026-05-28T07:16:49.999Z</time>
      </trkpt>
      <trkpt lat="43.9961" lon="3.50113">
        <ele>542.7</ele>
        <time>2026-05-28T07:16:50.999Z</time>
      </trkpt>
      <trkpt lat="43.99611" lon="3.50114">
        <ele>542.8</ele>
        <time>2026-05-28T07:16:51.999Z</time>
      </trkpt>
      <trkpt lat="43.99613" lon="3.50115">
        <ele>542.7</ele>
        <time>2026-05-28T07:16:52.999Z</time>
      </trkpt>
      <trkpt lat="43.99614" lon="3.50116">
        <ele>542.6</ele>
        <time>2026-05-28T07:16:53.999Z</time>
      </trkpt>
      <trkpt lat="43.99615" lon="3.50116">
        <ele>542.6</ele>
        <time>2026-05-28T07:16:54.999Z</time>
      </trkpt>
      <trkpt lat="43.99617" lon="3.50117">
        <ele>542.7</ele>
        <time>2026-05-28T07:16:55.999Z</time>
      </trkpt>
      <trkpt lat="43.99618" lon="3.50117">
        <ele>542.9</ele>
        <time>2026-05-28T07:16:56.999Z</time>
      </trkpt>
      <trkpt lat="43.9962" lon="3.50117">
        <ele>542.8</ele>
        <time>2026-05-28T07:16:57.999Z</time>
      </trkpt>
      <trkpt lat="43.99621" lon="3.50117">
        <ele>542.9</ele>
        <time>2026-05-28T07:16:58.999Z</time>
      </trkpt>
      <trkpt lat="43.99621" lon="3.50117">
        <ele>542.8</ele>
        <time>2026-05-28T07:16:59.999Z</time>
      </trkpt>
      <trkpt lat="43.99622" lon="3.50118">
        <ele>542.7</ele>
        <time>2026-05-28T07:17:00.999Z</time>
      </trkpt>
      <trkpt lat="43.99623" lon="3.50118">
        <ele>542.7</ele>
        <time>2026-05-28T07:17:01.999Z</time>
      </trkpt>
      <trkpt lat="43.99624" lon="3.50118">
        <ele>542.9</ele>
        <time>2026-05-28T07:17:02.999Z</time>
      </trkpt>
      <trkpt lat="43.99625" lon="3.50119">
        <ele>543.2</ele>
        <time>2026-05-28T07:17:03.999Z</time>
      </trkpt>
      <trkpt lat="43.99626" lon="3.5012">
        <ele>543.3</ele>
        <time>2026-05-28T07:17:04.999Z</time>
      </trkpt>
      <trkpt lat="43.99628" lon="3.50121">
        <ele>543.6</ele>
        <time>2026-05-28T07:17:05.999Z</time>
      </trkpt>
      <trkpt lat="43.9963" lon="3.50122">
        <ele>544.4</ele>
        <time>2026-05-28T07:17:06.999Z</time>
      </trkpt>
      <trkpt lat="43.9963" lon="3.50122">
        <ele>544.7</ele>
        <time>2026-05-28T07:17:07.999Z</time>
      </trkpt>
      <trkpt lat="43.99631" lon="3.50123">
        <ele>544.5</ele>
        <time>2026-05-28T07:17:08.999Z</time>
      </trkpt>
      <trkpt lat="43.99632" lon="3.50122">
        <ele>544.8</ele>
        <time>2026-05-28T07:17:09.999Z</time>
      </trkpt>
      <trkpt lat="43.99634" lon="3.50123">
        <ele>545.1</ele>
        <time>2026-05-28T07:17:11.999Z</time>
      </trkpt>
      <trkpt lat="43.99635" lon="3.50124">
        <ele>545.3</ele>
        <time>2026-05-28T07:17:12.999Z</time>
      </trkpt>
      <trkpt lat="43.99636" lon="3.50125">
        <ele>545.3</ele>
        <time>2026-05-28T07:17:13.999Z</time>
      </trkpt>
      <trkpt lat="43.99637" lon="3.50126">
        <ele>545.2</ele>
        <time>2026-05-28T07:17:14.999Z</time>
      </trkpt>
      <trkpt lat="43.99637" lon="3.50126">
        <ele>544.5</ele>
        <time>2026-05-28T07:17:15.999Z</time>
      </trkpt>
      <trkpt lat="43.99637" lon="3.50126">
        <ele>545.2</ele>
        <time>2026-05-28T07:17:16.999Z</time>
      </trkpt>
      <trkpt lat="43.99637" lon="3.50126">
        <ele>545.3</ele>
        <time>2026-05-28T07:17:17.999Z</time>
      </trkpt>
      <trkpt lat="43.99638" lon="3.50127">
        <ele>545.3</ele>
        <time>2026-05-28T07:17:18.999Z</time>
      </trkpt>
      <trkpt lat="43.99638" lon="3.50127">
        <ele>545.3</ele>
        <time>2026-05-28T07:17:19.999Z</time>
      </trkpt>
      <trkpt lat="43.99639" lon="3.50127">
        <ele>545.3</ele>
        <time>2026-05-28T07:17:20.999Z</time>
      </trkpt>
      <trkpt lat="43.99639" lon="3.50128">
        <ele>545.4</ele>
        <time>2026-05-28T07:17:21.999Z</time>
      </trkpt>
      <trkpt lat="43.9964" lon="3.50128">
        <ele>545.4</ele>
        <time>2026-05-28T07:17:22.999Z</time>
      </trkpt>
      <trkpt lat="43.99642" lon="3.50129">
        <ele>545.3</ele>
        <time>2026-05-28T07:17:23.999Z</time>
      </trkpt>
      <trkpt lat="43.99644" lon="3.5013">
        <ele>545.3</ele>
        <time>2026-05-28T07:17:24.999Z</time>
      </trkpt>
      <trkpt lat="43.99645" lon="3.50131">
        <ele>545.5</ele>
        <time>2026-05-28T07:17:25.999Z</time>
      </trkpt>
      <trkpt lat="43.99647" lon="3.50133">
        <ele>545.6</ele>
        <time>2026-05-28T07:17:26.999Z</time>
      </trkpt>
      <trkpt lat="43.99648" lon="3.50134">
        <ele>545.6</ele>
        <time>2026-05-28T07:17:27.999Z</time>
      </trkpt>
      <trkpt lat="43.99649" lon="3.50135">
        <ele>545.6</ele>
        <time>2026-05-28T07:17:28.999Z</time>
      </trkpt>
      <trkpt lat="43.9965" lon="3.50136">
        <ele>545.6</ele>
        <time>2026-05-28T07:17:29.999Z</time>
      </trkpt>
      <trkpt lat="43.9965" lon="3.50136">
        <ele>545.7</ele>
        <time>2026-05-28T07:17:30.999Z</time>
      </trkpt>
      <trkpt lat="43.99651" lon="3.50137">
        <ele>545.8</ele>
        <time>2026-05-28T07:17:31.999Z</time>
      </trkpt>
      <trkpt lat="43.99652" lon="3.50137">
        <ele>545.9</ele>
        <time>2026-05-28T07:17:32.999Z</time>
      </trkpt>
      <trkpt lat="43.99654" lon="3.50138">
        <ele>547.3</ele>
        <time>2026-05-28T07:17:33.999Z</time>
      </trkpt>
      <trkpt lat="43.99656" lon="3.5014">
        <ele>547.4</ele>
        <time>2026-05-28T07:17:35.999Z</time>
      </trkpt>
      <trkpt lat="43.99657" lon="3.5014">
        <ele>548</ele>
        <time>2026-05-28T07:17:36.999Z</time>
      </trkpt>
      <trkpt lat="43.99657" lon="3.5014">
        <ele>548.2</ele>
        <time>2026-05-28T07:17:37.999Z</time>
      </trkpt>
      <trkpt lat="43.99658" lon="3.50141">
        <ele>548.2</ele>
        <time>2026-05-28T07:17:38.999Z</time>
      </trkpt>
      <trkpt lat="43.99659" lon="3.50142">
        <ele>548.2</ele>
        <time>2026-05-28T07:17:39.999Z</time>
      </trkpt>
      <trkpt lat="43.9966" lon="3.50143">
        <ele>548.4</ele>
        <time>2026-05-28T07:17:40.999Z</time>
      </trkpt>
      <trkpt lat="43.99661" lon="3.50143">
        <ele>548.4</ele>
        <time>2026-05-28T07:17:41.999Z</time>
      </trkpt>
      <trkpt lat="43.99661" lon="3.50144">
        <ele>548.1</ele>
        <time>2026-05-28T07:17:42.999Z</time>
      </trkpt>
      <trkpt lat="43.99662" lon="3.50145">
        <ele>548</ele>
        <time>2026-05-28T07:17:43.999Z</time>
      </trkpt>
      <trkpt lat="43.99662" lon="3.50146">
        <ele>548.3</ele>
        <time>2026-05-28T07:17:44.999Z</time>
      </trkpt>
      <trkpt lat="43.99663" lon="3.50146">
        <ele>548.1</ele>
        <time>2026-05-28T07:17:45.999Z</time>
      </trkpt>
      <trkpt lat="43.99663" lon="3.50146">
        <ele>548</ele>
        <time>2026-05-28T07:17:46.999Z</time>
      </trkpt>
      <trkpt lat="43.99663" lon="3.50146">
        <ele>548.4</ele>
        <time>2026-05-28T07:17:47.999Z</time>
      </trkpt>
      <trkpt lat="43.99665" lon="3.50148">
        <ele>548.4</ele>
        <time>2026-05-28T07:17:48.999Z</time>
      </trkpt>
      <trkpt lat="43.99666" lon="3.50148">
        <ele>548.7</ele>
        <time>2026-05-28T07:17:49.999Z</time>
      </trkpt>
      <trkpt lat="43.99667" lon="3.50148">
        <ele>549.1</ele>
        <time>2026-05-28T07:17:50.999Z</time>
      </trkpt>
      <trkpt lat="43.99667" lon="3.50148">
        <ele>549.7</ele>
        <time>2026-05-28T07:17:51.999Z</time>
      </trkpt>
      <trkpt lat="43.99668" lon="3.50148">
        <ele>550</ele>
        <time>2026-05-28T07:17:52.999Z</time>
      </trkpt>
      <trkpt lat="43.99669" lon="3.50148">
        <ele>550.6</ele>
        <time>2026-05-28T07:17:53.999Z</time>
      </trkpt>
      <trkpt lat="43.99671" lon="3.50148">
        <ele>550.9</ele>
        <time>2026-05-28T07:17:54.999Z</time>
      </trkpt>
      <trkpt lat="43.99672" lon="3.50148">
        <ele>551</ele>
        <time>2026-05-28T07:17:55.999Z</time>
      </trkpt>
      <trkpt lat="43.99674" lon="3.50147">
        <ele>550.8</ele>
        <time>2026-05-28T07:17:56.999Z</time>
      </trkpt>
      <trkpt lat="43.99675" lon="3.50146">
        <ele>551.1</ele>
        <time>2026-05-28T07:17:57.999Z</time>
      </trkpt>
      <trkpt lat="43.99677" lon="3.50146">
        <ele>551.3</ele>
        <time>2026-05-28T07:17:58.999Z</time>
      </trkpt>
      <trkpt lat="43.99679" lon="3.50147">
        <ele>551.3</ele>
        <time>2026-05-28T07:17:59.999Z</time>
      </trkpt>
      <trkpt lat="43.9968" lon="3.50148">
        <ele>551.5</ele>
        <time>2026-05-28T07:18:00.999Z</time>
      </trkpt>
      <trkpt lat="43.99682" lon="3.50148">
        <ele>552.1</ele>
        <time>2026-05-28T07:18:01.999Z</time>
      </trkpt>
      <trkpt lat="43.99683" lon="3.50147">
        <ele>552.8</ele>
        <time>2026-05-28T07:18:02.999Z</time>
      </trkpt>
      <trkpt lat="43.99684" lon="3.50146">
        <ele>553</ele>
        <time>2026-05-28T07:18:03.999Z</time>
      </trkpt>
      <trkpt lat="43.99685" lon="3.50145">
        <ele>552.7</ele>
        <time>2026-05-28T07:18:04.999Z</time>
      </trkpt>
      <trkpt lat="43.99687" lon="3.50145">
        <ele>553</ele>
        <time>2026-05-28T07:18:05.999Z</time>
      </trkpt>
      <trkpt lat="43.99687" lon="3.50144">
        <ele>553.1</ele>
        <time>2026-05-28T07:18:06.999Z</time>
      </trkpt>
      <trkpt lat="43.99688" lon="3.50144">
        <ele>553.6</ele>
        <time>2026-05-28T07:18:07.999Z</time>
      </trkpt>
      <trkpt lat="43.99689" lon="3.50143">
        <ele>554.2</ele>
        <time>2026-05-28T07:18:08.999Z</time>
      </trkpt>
      <trkpt lat="43.9969" lon="3.50143">
        <ele>554.4</ele>
        <time>2026-05-28T07:18:09.999Z</time>
      </trkpt>
      <trkpt lat="43.99692" lon="3.50144">
        <ele>554.8</ele>
        <time>2026-05-28T07:18:10.999Z</time>
      </trkpt>
      <trkpt lat="43.99693" lon="3.50144">
        <ele>555.4</ele>
        <time>2026-05-28T07:18:11.999Z</time>
      </trkpt>
      <trkpt lat="43.99695" lon="3.50145">
        <ele>555.7</ele>
        <time>2026-05-28T07:18:12.999Z</time>
      </trkpt>
      <trkpt lat="43.99696" lon="3.50146">
        <ele>556.1</ele>
        <time>2026-05-28T07:18:13.999Z</time>
      </trkpt>
      <trkpt lat="43.99697" lon="3.50148">
        <ele>555.8</ele>
        <time>2026-05-28T07:18:14.999Z</time>
      </trkpt>
      <trkpt lat="43.99698" lon="3.50149">
        <ele>556.3</ele>
        <time>2026-05-28T07:18:15.999Z</time>
      </trkpt>
      <trkpt lat="43.99699" lon="3.50149">
        <ele>556.6</ele>
        <time>2026-05-28T07:18:16.999Z</time>
      </trkpt>
      <trkpt lat="43.99701" lon="3.5015">
        <ele>556.6</ele>
        <time>2026-05-28T07:18:17.999Z</time>
      </trkpt>
      <trkpt lat="43.99701" lon="3.50149">
        <ele>556.5</ele>
        <time>2026-05-28T07:18:18.999Z</time>
      </trkpt>
      <trkpt lat="43.99702" lon="3.50149">
        <ele>556.5</ele>
        <time>2026-05-28T07:18:19.999Z</time>
      </trkpt>
      <trkpt lat="43.99703" lon="3.50149">
        <ele>556.3</ele>
        <time>2026-05-28T07:18:20.999Z</time>
      </trkpt>
      <trkpt lat="43.99704" lon="3.50148">
        <ele>556.1</ele>
        <time>2026-05-28T07:18:21.999Z</time>
      </trkpt>
      <trkpt lat="43.99706" lon="3.50147">
        <ele>555.8</ele>
        <time>2026-05-28T07:18:22.999Z</time>
      </trkpt>
      <trkpt lat="43.99707" lon="3.50147">
        <ele>556.1</ele>
        <time>2026-05-28T07:18:23.999Z</time>
      </trkpt>
      <trkpt lat="43.99708" lon="3.50146">
        <ele>556</ele>
        <time>2026-05-28T07:18:24.999Z</time>
      </trkpt>
      <trkpt lat="43.99709" lon="3.50145">
        <ele>555.5</ele>
        <time>2026-05-28T07:18:25.999Z</time>
      </trkpt>
      <trkpt lat="43.9971" lon="3.50144">
        <ele>556</ele>
        <time>2026-05-28T07:18:26.999Z</time>
      </trkpt>
      <trkpt lat="43.99711" lon="3.50143">
        <ele>556.5</ele>
        <time>2026-05-28T07:18:27.999Z</time>
      </trkpt>
      <trkpt lat="43.99712" lon="3.50144">
        <ele>557.3</ele>
        <time>2026-05-28T07:18:28.999Z</time>
      </trkpt>
      <trkpt lat="43.99712" lon="3.50144">
        <ele>557.7</ele>
        <time>2026-05-28T07:18:29.999Z</time>
      </trkpt>
      <trkpt lat="43.99713" lon="3.50144">
        <ele>557.5</ele>
        <time>2026-05-28T07:18:30.999Z</time>
      </trkpt>
      <trkpt lat="43.99715" lon="3.50144">
        <ele>557.3</ele>
        <time>2026-05-28T07:18:31.999Z</time>
      </trkpt>
      <trkpt lat="43.99715" lon="3.50144">
        <ele>557.3</ele>
        <time>2026-05-28T07:18:32.999Z</time>
      </trkpt>
      <trkpt lat="43.99716" lon="3.50143">
        <ele>556.6</ele>
        <time>2026-05-28T07:18:33.999Z</time>
      </trkpt>
      <trkpt lat="43.99717" lon="3.50143">
        <ele>556.7</ele>
        <time>2026-05-28T07:18:35.999Z</time>
      </trkpt>
      <trkpt lat="43.99718" lon="3.50143">
        <ele>557.1</ele>
        <time>2026-05-28T07:18:36.999Z</time>
      </trkpt>
      <trkpt lat="43.99719" lon="3.50144">
        <ele>557.3</ele>
        <time>2026-05-28T07:18:37.999Z</time>
      </trkpt>
      <trkpt lat="43.99719" lon="3.50144">
        <ele>557.7</ele>
        <time>2026-05-28T07:18:38.999Z</time>
      </trkpt>
      <trkpt lat="43.9972" lon="3.50143">
        <ele>558.1</ele>
        <time>2026-05-28T07:18:39.999Z</time>
      </trkpt>
      <trkpt lat="43.9972" lon="3.50143">
        <ele>558.9</ele>
        <time>2026-05-28T07:18:40.999Z</time>
      </trkpt>
      <trkpt lat="43.99721" lon="3.50142">
        <ele>559.9</ele>
        <time>2026-05-28T07:18:42.999Z</time>
      </trkpt>
      <trkpt lat="43.99722" lon="3.50142">
        <ele>560.1</ele>
        <time>2026-05-28T07:18:43.999Z</time>
      </trkpt>
      <trkpt lat="43.99723" lon="3.50141">
        <ele>560.2</ele>
        <time>2026-05-28T07:18:44.999Z</time>
      </trkpt>
      <trkpt lat="43.99723" lon="3.5014">
        <ele>559.9</ele>
        <time>2026-05-28T07:18:45.999Z</time>
      </trkpt>
      <trkpt lat="43.99724" lon="3.50139">
        <ele>559.7</ele>
        <time>2026-05-28T07:18:46.999Z</time>
      </trkpt>
      <trkpt lat="43.99725" lon="3.50137">
        <ele>559.6</ele>
        <time>2026-05-28T07:18:47.999Z</time>
      </trkpt>
      <trkpt lat="43.99726" lon="3.50136">
        <ele>559.5</ele>
        <time>2026-05-28T07:18:48.999Z</time>
      </trkpt>
      <trkpt lat="43.99727" lon="3.50136">
        <ele>559.6</ele>
        <time>2026-05-28T07:18:49.999Z</time>
      </trkpt>
      <trkpt lat="43.99727" lon="3.50135">
        <ele>559.9</ele>
        <time>2026-05-28T07:18:50.999Z</time>
      </trkpt>
      <trkpt lat="43.99729" lon="3.50134">
        <ele>560.5</ele>
        <time>2026-05-28T07:18:51.999Z</time>
      </trkpt>
      <trkpt lat="43.99731" lon="3.50134">
        <ele>560.9</ele>
        <time>2026-05-28T07:18:52.999Z</time>
      </trkpt>
      <trkpt lat="43.99732" lon="3.50134">
        <ele>560.3</ele>
        <time>2026-05-28T07:18:53.999Z</time>
      </trkpt>
      <trkpt lat="43.99733" lon="3.50133">
        <ele>561.2</ele>
        <time>2026-05-28T07:18:54.999Z</time>
      </trkpt>
      <trkpt lat="43.99733" lon="3.50132">
        <ele>561.8</ele>
        <time>2026-05-28T07:18:55.999Z</time>
      </trkpt>
      <trkpt lat="43.99734" lon="3.50131">
        <ele>562.4</ele>
        <time>2026-05-28T07:18:56.999Z</time>
      </trkpt>
      <trkpt lat="43.99736" lon="3.5013">
        <ele>562.6</ele>
        <time>2026-05-28T07:18:57.999Z</time>
      </trkpt>
      <trkpt lat="43.99737" lon="3.5013">
        <ele>562.9</ele>
        <time>2026-05-28T07:18:58.999Z</time>
      </trkpt>
      <trkpt lat="43.99738" lon="3.50129">
        <ele>562.9</ele>
        <time>2026-05-28T07:18:59.999Z</time>
      </trkpt>
      <trkpt lat="43.99739" lon="3.50129">
        <ele>562.9</ele>
        <time>2026-05-28T07:19:00.999Z</time>
      </trkpt>
      <trkpt lat="43.9974" lon="3.50128">
        <ele>562.9</ele>
        <time>2026-05-28T07:19:01.999Z</time>
      </trkpt>
      <trkpt lat="43.9974" lon="3.50129">
        <ele>562.4</ele>
        <time>2026-05-28T07:19:02.999Z</time>
      </trkpt>
      <trkpt lat="43.99741" lon="3.50128">
        <ele>562.6</ele>
        <time>2026-05-28T07:19:03.999Z</time>
      </trkpt>
      <trkpt lat="43.99742" lon="3.50128">
        <ele>562.9</ele>
        <time>2026-05-28T07:19:04.999Z</time>
      </trkpt>
      <trkpt lat="43.99743" lon="3.50128">
        <ele>563.2</ele>
        <time>2026-05-28T07:19:05.999Z</time>
      </trkpt>
      <trkpt lat="43.99744" lon="3.50127">
        <ele>563.7</ele>
        <time>2026-05-28T07:19:06.999Z</time>
      </trkpt>
      <trkpt lat="43.99744" lon="3.50126">
        <ele>563.8</ele>
        <time>2026-05-28T07:19:07.999Z</time>
      </trkpt>
      <trkpt lat="43.99744" lon="3.50125">
        <ele>564.2</ele>
        <time>2026-05-28T07:19:08.999Z</time>
      </trkpt>
      <trkpt lat="43.99744" lon="3.50123">
        <ele>564.5</ele>
        <time>2026-05-28T07:19:09.999Z</time>
      </trkpt>
      <trkpt lat="43.99745" lon="3.50122">
        <ele>565.5</ele>
        <time>2026-05-28T07:19:10.999Z</time>
      </trkpt>
      <trkpt lat="43.99746" lon="3.50123">
        <ele>566.3</ele>
        <time>2026-05-28T07:19:11.999Z</time>
      </trkpt>
      <trkpt lat="43.99747" lon="3.50123">
        <ele>566.5</ele>
        <time>2026-05-28T07:19:12.999Z</time>
      </trkpt>
      <trkpt lat="43.99747" lon="3.50124">
        <ele>567</ele>
        <time>2026-05-28T07:19:13.999Z</time>
      </trkpt>
      <trkpt lat="43.99748" lon="3.50126">
        <ele>566.8</ele>
        <time>2026-05-28T07:19:14.999Z</time>
      </trkpt>
      <trkpt lat="43.99748" lon="3.50126">
        <ele>566.6</ele>
        <time>2026-05-28T07:19:15.999Z</time>
      </trkpt>
      <trkpt lat="43.99749" lon="3.50126">
        <ele>566.4</ele>
        <time>2026-05-28T07:19:16.999Z</time>
      </trkpt>
      <trkpt lat="43.99749" lon="3.50125">
        <ele>566.8</ele>
        <time>2026-05-28T07:19:17.999Z</time>
      </trkpt>
      <trkpt lat="43.9975" lon="3.50125">
        <ele>566.7</ele>
        <time>2026-05-28T07:19:18.999Z</time>
      </trkpt>
      <trkpt lat="43.9975" lon="3.50126">
        <ele>566.7</ele>
        <time>2026-05-28T07:19:19.999Z</time>
      </trkpt>
      <trkpt lat="43.99751" lon="3.50127">
        <ele>566.7</ele>
        <time>2026-05-28T07:19:20.999Z</time>
      </trkpt>
      <trkpt lat="43.99752" lon="3.50128">
        <ele>566.3</ele>
        <time>2026-05-28T07:19:21.999Z</time>
      </trkpt>
      <trkpt lat="43.99753" lon="3.50129">
        <ele>565.8</ele>
        <time>2026-05-28T07:19:22.999Z</time>
      </trkpt>
      <trkpt lat="43.99754" lon="3.50129">
        <ele>565.6</ele>
        <time>2026-05-28T07:19:23.999Z</time>
      </trkpt>
      <trkpt lat="43.99756" lon="3.50129">
        <ele>565.3</ele>
        <time>2026-05-28T07:19:25.999Z</time>
      </trkpt>
      <trkpt lat="43.99757" lon="3.50128">
        <ele>565.5</ele>
        <time>2026-05-28T07:19:26.999Z</time>
      </trkpt>
      <trkpt lat="43.99758" lon="3.50129">
        <ele>565.8</ele>
        <time>2026-05-28T07:19:27.999Z</time>
      </trkpt>
      <trkpt lat="43.99759" lon="3.50129">
        <ele>565.8</ele>
        <time>2026-05-28T07:19:28.999Z</time>
      </trkpt>
      <trkpt lat="43.9976" lon="3.50131">
        <ele>566</ele>
        <time>2026-05-28T07:19:29.999Z</time>
      </trkpt>
      <trkpt lat="43.99759" lon="3.50131">
        <ele>566.2</ele>
        <time>2026-05-28T07:19:30.999Z</time>
      </trkpt>
      <trkpt lat="43.9976" lon="3.50132">
        <ele>566.2</ele>
        <time>2026-05-28T07:19:31.999Z</time>
      </trkpt>
      <trkpt lat="43.99759" lon="3.50131">
        <ele>566.5</ele>
        <time>2026-05-28T07:19:32.999Z</time>
      </trkpt>
      <trkpt lat="43.99758" lon="3.50132">
        <ele>566.3</ele>
        <time>2026-05-28T07:19:33.999Z</time>
      </trkpt>
      <trkpt lat="43.99759" lon="3.50132">
        <ele>566.1</ele>
        <time>2026-05-28T07:19:34.999Z</time>
      </trkpt>
      <trkpt lat="43.9976" lon="3.50133">
        <ele>566</ele>
        <time>2026-05-28T07:19:35.999Z</time>
      </trkpt>
      <trkpt lat="43.9976" lon="3.50133">
        <ele>566.6</ele>
        <time>2026-05-28T07:19:36.999Z</time>
      </trkpt>
      <trkpt lat="43.9976" lon="3.50133">
        <ele>566.7</ele>
        <time>2026-05-28T07:19:37.999Z</time>
      </trkpt>
      <trkpt lat="43.9976" lon="3.50133">
        <ele>566.5</ele>
        <time>2026-05-28T07:19:38.999Z</time>
      </trkpt>
      <trkpt lat="43.99761" lon="3.50134">
        <ele>566.4</ele>
        <time>2026-05-28T07:19:39.999Z</time>
      </trkpt>
      <trkpt lat="43.99763" lon="3.50133">
        <ele>565.9</ele>
        <time>2026-05-28T07:19:40.999Z</time>
      </trkpt>
      <trkpt lat="43.99763" lon="3.50133">
        <ele>565.8</ele>
        <time>2026-05-28T07:19:41.999Z</time>
      </trkpt>
      <trkpt lat="43.99763" lon="3.50132">
        <ele>565.8</ele>
        <time>2026-05-28T07:19:42.999Z</time>
      </trkpt>
      <trkpt lat="43.99763" lon="3.50132">
        <ele>565.8</ele>
        <time>2026-05-28T07:19:43.999Z</time>
      </trkpt>
      <trkpt lat="43.99764" lon="3.50132">
        <ele>566</ele>
        <time>2026-05-28T07:19:44.999Z</time>
      </trkpt>
      <trkpt lat="43.99764" lon="3.50132">
        <ele>566.1</ele>
        <time>2026-05-28T07:19:45.999Z</time>
      </trkpt>
      <trkpt lat="43.99764" lon="3.50132">
        <ele>566.1</ele>
        <time>2026-05-28T07:19:46.999Z</time>
      </trkpt>
      <trkpt lat="43.99764" lon="3.50131">
        <ele>565.5</ele>
        <time>2026-05-28T07:19:47.999Z</time>
      </trkpt>
      <trkpt lat="43.99765" lon="3.50131">
        <ele>565</ele>
        <time>2026-05-28T07:19:48.999Z</time>
      </trkpt>
      <trkpt lat="43.99766" lon="3.5013">
        <ele>564.9</ele>
        <time>2026-05-28T07:19:50.999Z</time>
      </trkpt>
      <trkpt lat="43.99767" lon="3.5013">
        <ele>564.9</ele>
        <time>2026-05-28T07:19:51.999Z</time>
      </trkpt>
      <trkpt lat="43.99768" lon="3.50129">
        <ele>564.8</ele>
        <time>2026-05-28T07:19:52.999Z</time>
      </trkpt>
      <trkpt lat="43.99768" lon="3.50129">
        <ele>565.9</ele>
        <time>2026-05-28T07:19:53.999Z</time>
      </trkpt>
      <trkpt lat="43.99768" lon="3.50129">
        <ele>565.7</ele>
        <time>2026-05-28T07:19:54.999Z</time>
      </trkpt>
      <trkpt lat="43.99769" lon="3.50129">
        <ele>565.6</ele>
        <time>2026-05-28T07:19:55.999Z</time>
      </trkpt>
      <trkpt lat="43.9977" lon="3.50128">
        <ele>565.8</ele>
        <time>2026-05-28T07:19:56.999Z</time>
      </trkpt>
      <trkpt lat="43.99772" lon="3.50127">
        <ele>565.8</ele>
        <time>2026-05-28T07:19:57.999Z</time>
      </trkpt>
      <trkpt lat="43.99774" lon="3.50127">
        <ele>565.6</ele>
        <time>2026-05-28T07:19:58.999Z</time>
      </trkpt>
      <trkpt lat="43.99775" lon="3.50126">
        <ele>565.5</ele>
        <time>2026-05-28T07:19:59.999Z</time>
      </trkpt>
      <trkpt lat="43.99776" lon="3.50126">
        <ele>565.2</ele>
        <time>2026-05-28T07:20:00.999Z</time>
      </trkpt>
      <trkpt lat="43.99778" lon="3.50126">
        <ele>564.5</ele>
        <time>2026-05-28T07:20:01.999Z</time>
      </trkpt>
      <trkpt lat="43.9978" lon="3.50127">
        <ele>564.3</ele>
        <time>2026-05-28T07:20:02.999Z</time>
      </trkpt>
      <trkpt lat="43.99782" lon="3.50127">
        <ele>563.8</ele>
        <time>2026-05-28T07:20:03.999Z</time>
      </trkpt>
      <trkpt lat="43.99784" lon="3.50127">
        <ele>563.5</ele>
        <time>2026-05-28T07:20:04.999Z</time>
      </trkpt>
      <trkpt lat="43.99785" lon="3.50127">
        <ele>563.1</ele>
        <time>2026-05-28T07:20:05.999Z</time>
      </trkpt>
      <trkpt lat="43.99786" lon="3.50127">
        <ele>562.8</ele>
        <time>2026-05-28T07:20:06.999Z</time>
      </trkpt>
      <trkpt lat="43.99788" lon="3.50127">
        <ele>561.2</ele>
        <time>2026-05-28T07:20:08.999Z</time>
      </trkpt>
      <trkpt lat="43.99789" lon="3.50127">
        <ele>560.9</ele>
        <time>2026-05-28T07:20:09.999Z</time>
      </trkpt>
      <trkpt lat="43.9979" lon="3.50127">
        <ele>560.6</ele>
        <time>2026-05-28T07:20:10.999Z</time>
      </trkpt>
      <trkpt lat="43.99791" lon="3.50127">
        <ele>560.2</ele>
        <time>2026-05-28T07:20:11.999Z</time>
      </trkpt>
      <trkpt lat="43.99791" lon="3.50126">
        <ele>560.3</ele>
        <time>2026-05-28T07:20:12.999Z</time>
      </trkpt>
      <trkpt lat="43.99792" lon="3.50126">
        <ele>560.1</ele>
        <time>2026-05-28T07:20:13.999Z</time>
      </trkpt>
      <trkpt lat="43.99793" lon="3.50126">
        <ele>559.6</ele>
        <time>2026-05-28T07:20:14.999Z</time>
      </trkpt>
      <trkpt lat="43.99795" lon="3.50125">
        <ele>558.9</ele>
        <time>2026-05-28T07:20:15.999Z</time>
      </trkpt>
      <trkpt lat="43.99796" lon="3.50125">
        <ele>558.7</ele>
        <time>2026-05-28T07:20:16.999Z</time>
      </trkpt>
      <trkpt lat="43.99797" lon="3.50124">
        <ele>558.5</ele>
        <time>2026-05-28T07:20:17.999Z</time>
      </trkpt>
      <trkpt lat="43.99798" lon="3.50123">
        <ele>558</ele>
        <time>2026-05-28T07:20:18.999Z</time>
      </trkpt>
      <trkpt lat="43.99799" lon="3.50123">
        <ele>557.7</ele>
        <time>2026-05-28T07:20:19.999Z</time>
      </trkpt>
      <trkpt lat="43.998" lon="3.50122">
        <ele>557.8</ele>
        <time>2026-05-28T07:20:20.999Z</time>
      </trkpt>
      <trkpt lat="43.998" lon="3.50121">
        <ele>557.9</ele>
        <time>2026-05-28T07:20:21.999Z</time>
      </trkpt>
      <trkpt lat="43.99801" lon="3.5012">
        <ele>557.6</ele>
        <time>2026-05-28T07:20:23.999Z</time>
      </trkpt>
      <trkpt lat="43.99802" lon="3.50119">
        <ele>557.5</ele>
        <time>2026-05-28T07:20:24.999Z</time>
      </trkpt>
      <trkpt lat="43.99803" lon="3.50118">
        <ele>557.1</ele>
        <time>2026-05-28T07:20:25.999Z</time>
      </trkpt>
      <trkpt lat="43.99803" lon="3.50117">
        <ele>557.1</ele>
        <time>2026-05-28T07:20:26.999Z</time>
      </trkpt>
      <trkpt lat="43.99804" lon="3.50116">
        <ele>557.3</ele>
        <time>2026-05-28T07:20:27.999Z</time>
      </trkpt>
      <trkpt lat="43.99805" lon="3.50117">
        <ele>557.5</ele>
        <time>2026-05-28T07:20:28.999Z</time>
      </trkpt>
      <trkpt lat="43.99806" lon="3.50118">
        <ele>557.8</ele>
        <time>2026-05-28T07:20:29.999Z</time>
      </trkpt>
      <trkpt lat="43.99807" lon="3.50118">
        <ele>557.6</ele>
        <time>2026-05-28T07:20:30.999Z</time>
      </trkpt>
      <trkpt lat="43.99808" lon="3.50116">
        <ele>557.3</ele>
        <time>2026-05-28T07:20:31.999Z</time>
      </trkpt>
      <trkpt lat="43.99809" lon="3.50115">
        <ele>557.1</ele>
        <time>2026-05-28T07:20:32.999Z</time>
      </trkpt>
      <trkpt lat="43.99809" lon="3.50114">
        <ele>557.8</ele>
        <time>2026-05-28T07:20:33.999Z</time>
      </trkpt>
      <trkpt lat="43.9981" lon="3.50113">
        <ele>557.7</ele>
        <time>2026-05-28T07:20:34.999Z</time>
      </trkpt>
      <trkpt lat="43.9981" lon="3.50112">
        <ele>557.7</ele>
        <time>2026-05-28T07:20:35.999Z</time>
      </trkpt>
      <trkpt lat="43.99811" lon="3.50112">
        <ele>557.3</ele>
        <time>2026-05-28T07:20:36.999Z</time>
      </trkpt>
      <trkpt lat="43.99811" lon="3.50111">
        <ele>557.7</ele>
        <time>2026-05-28T07:20:37.999Z</time>
      </trkpt>
      <trkpt lat="43.99811" lon="3.50111">
        <ele>557.9</ele>
        <time>2026-05-28T07:20:39.999Z</time>
      </trkpt>
      <trkpt lat="43.99811" lon="3.50111">
        <ele>557.8</ele>
        <time>2026-05-28T07:20:40.999Z</time>
      </trkpt>
      <trkpt lat="43.99812" lon="3.50111">
        <ele>557.4</ele>
        <time>2026-05-28T07:20:41.999Z</time>
      </trkpt>
      <trkpt lat="43.99812" lon="3.50111">
        <ele>557.5</ele>
        <time>2026-05-28T07:20:42.999Z</time>
      </trkpt>
      <trkpt lat="43.99812" lon="3.50111">
        <ele>557.6</ele>
        <time>2026-05-28T07:20:43.999Z</time>
      </trkpt>
      <trkpt lat="43.99812" lon="3.50111">
        <ele>557.6</ele>
        <time>2026-05-28T07:20:44.999Z</time>
      </trkpt>
      <trkpt lat="43.99812" lon="3.50111">
        <ele>557.7</ele>
        <time>2026-05-28T07:20:45.999Z</time>
      </trkpt>
      <trkpt lat="43.99813" lon="3.5011">
        <ele>557.4</ele>
        <time>2026-05-28T07:20:46.999Z</time>
      </trkpt>
      <trkpt lat="43.99813" lon="3.50109">
        <ele>557.1</ele>
        <time>2026-05-28T07:20:47.999Z</time>
      </trkpt>
      <trkpt lat="43.99814" lon="3.50108">
        <ele>556.8</ele>
        <time>2026-05-28T07:20:48.999Z</time>
      </trkpt>
      <trkpt lat="43.99814" lon="3.50108">
        <ele>556.4</ele>
        <time>2026-05-28T07:20:49.999Z</time>
      </trkpt>
      <trkpt lat="43.99814" lon="3.50107">
        <ele>556.3</ele>
        <time>2026-05-28T07:20:50.999Z</time>
      </trkpt>
      <trkpt lat="43.99815" lon="3.50105">
        <ele>556.3</ele>
        <time>2026-05-28T07:20:51.999Z</time>
      </trkpt>
      <trkpt lat="43.99816" lon="3.50104">
        <ele>556.3</ele>
        <time>2026-05-28T07:20:52.999Z</time>
      </trkpt>
      <trkpt lat="43.99816" lon="3.50104">
        <ele>556.6</ele>
        <time>2026-05-28T07:20:53.999Z</time>
      </trkpt>
      <trkpt lat="43.99817" lon="3.50104">
        <ele>556.7</ele>
        <time>2026-05-28T07:20:54.999Z</time>
      </trkpt>
      <trkpt lat="43.99817" lon="3.50103">
        <ele>556.9</ele>
        <time>2026-05-28T07:20:55.999Z</time>
      </trkpt>
      <trkpt lat="43.99819" lon="3.50102">
        <ele>557</ele>
        <time>2026-05-28T07:20:56.999Z</time>
      </trkpt>
      <trkpt lat="43.9982" lon="3.50102">
        <ele>557.3</ele>
        <time>2026-05-28T07:20:57.999Z</time>
      </trkpt>
      <trkpt lat="43.9982" lon="3.50102">
        <ele>557.6</ele>
        <time>2026-05-28T07:20:58.999Z</time>
      </trkpt>
      <trkpt lat="43.9982" lon="3.50102">
        <ele>557.5</ele>
        <time>2026-05-28T07:20:59.999Z</time>
      </trkpt>
      <trkpt lat="43.9982" lon="3.50102">
        <ele>557.4</ele>
        <time>2026-05-28T07:21:00.999Z</time>
      </trkpt>
      <trkpt lat="43.99821" lon="3.50102">
        <ele>557.6</ele>
        <time>2026-05-28T07:21:01.999Z</time>
      </trkpt>
      <trkpt lat="43.99821" lon="3.50102">
        <ele>557.4</ele>
        <time>2026-05-28T07:21:02.999Z</time>
      </trkpt>
      <trkpt lat="43.99821" lon="3.50102">
        <ele>557.3</ele>
        <time>2026-05-28T07:21:03.999Z</time>
      </trkpt>
      <trkpt lat="43.99822" lon="3.50101">
        <ele>557.2</ele>
        <time>2026-05-28T07:21:04.999Z</time>
      </trkpt>
      <trkpt lat="43.99823" lon="3.50101">
        <ele>557.4</ele>
        <time>2026-05-28T07:21:05.999Z</time>
      </trkpt>
      <trkpt lat="43.99824" lon="3.501">
        <ele>557.5</ele>
        <time>2026-05-28T07:21:06.999Z</time>
      </trkpt>
      <trkpt lat="43.99826" lon="3.50099">
        <ele>557.3</ele>
        <time>2026-05-28T07:21:07.999Z</time>
      </trkpt>
      <trkpt lat="43.99827" lon="3.50097">
        <ele>557.5</ele>
        <time>2026-05-28T07:21:09.999Z</time>
      </trkpt>
      <trkpt lat="43.99827" lon="3.50096">
        <ele>557.3</ele>
        <time>2026-05-28T07:21:10.999Z</time>
      </trkpt>
      <trkpt lat="43.99828" lon="3.50097">
        <ele>557.1</ele>
        <time>2026-05-28T07:21:11.999Z</time>
      </trkpt>
      <trkpt lat="43.99829" lon="3.50096">
        <ele>557.1</ele>
        <time>2026-05-28T07:21:12.999Z</time>
      </trkpt>
      <trkpt lat="43.9983" lon="3.50096">
        <ele>557.4</ele>
        <time>2026-05-28T07:21:13.999Z</time>
      </trkpt>
      <trkpt lat="43.9983" lon="3.50094">
        <ele>557.9</ele>
        <time>2026-05-28T07:21:14.999Z</time>
      </trkpt>
      <trkpt lat="43.99831" lon="3.50093">
        <ele>558.1</ele>
        <time>2026-05-28T07:21:15.999Z</time>
      </trkpt>
      <trkpt lat="43.99831" lon="3.50092">
        <ele>558.5</ele>
        <time>2026-05-28T07:21:16.999Z</time>
      </trkpt>
      <trkpt lat="43.99832" lon="3.50091">
        <ele>558.6</ele>
        <time>2026-05-28T07:21:17.999Z</time>
      </trkpt>
      <trkpt lat="43.99832" lon="3.50091">
        <ele>558.8</ele>
        <time>2026-05-28T07:21:18.999Z</time>
      </trkpt>
      <trkpt lat="43.99831" lon="3.5009">
        <ele>558.9</ele>
        <time>2026-05-28T07:21:19.999Z</time>
      </trkpt>
      <trkpt lat="43.99832" lon="3.50088">
        <ele>558.7</ele>
        <time>2026-05-28T07:21:20.999Z</time>
      </trkpt>
      <trkpt lat="43.99833" lon="3.50087">
        <ele>558.4</ele>
        <time>2026-05-28T07:21:21.999Z</time>
      </trkpt>
      <trkpt lat="43.99833" lon="3.50085">
        <ele>558.5</ele>
        <time>2026-05-28T07:21:22.999Z</time>
      </trkpt>
      <trkpt lat="43.99834" lon="3.50084">
        <ele>558.6</ele>
        <time>2026-05-28T07:21:23.999Z</time>
      </trkpt>
      <trkpt lat="43.99835" lon="3.50082">
        <ele>558.9</ele>
        <time>2026-05-28T07:21:24.999Z</time>
      </trkpt>
      <trkpt lat="43.99834" lon="3.50081">
        <ele>559.3</ele>
        <time>2026-05-28T07:21:25.999Z</time>
      </trkpt>
      <trkpt lat="43.99835" lon="3.5008">
        <ele>559.4</ele>
        <time>2026-05-28T07:21:26.999Z</time>
      </trkpt>
      <trkpt lat="43.99834" lon="3.50077">
        <ele>560.4</ele>
        <time>2026-05-28T07:21:28.999Z</time>
      </trkpt>
      <trkpt lat="43.99833" lon="3.50077">
        <ele>560.5</ele>
        <time>2026-05-28T07:21:29.999Z</time>
      </trkpt>
      <trkpt lat="43.99833" lon="3.50075">
        <ele>560.7</ele>
        <time>2026-05-28T07:21:30.999Z</time>
      </trkpt>
      <trkpt lat="43.99833" lon="3.50074">
        <ele>561.1</ele>
        <time>2026-05-28T07:21:31.999Z</time>
      </trkpt>
      <trkpt lat="43.99832" lon="3.50072">
        <ele>561.6</ele>
        <time>2026-05-28T07:21:32.999Z</time>
      </trkpt>
      <trkpt lat="43.99832" lon="3.50071">
        <ele>562</ele>
        <time>2026-05-28T07:21:33.999Z</time>
      </trkpt>
      <trkpt lat="43.99832" lon="3.50071">
        <ele>562.2</ele>
        <time>2026-05-28T07:21:34.999Z</time>
      </trkpt>
      <trkpt lat="43.99833" lon="3.5007">
        <ele>562.1</ele>
        <time>2026-05-28T07:21:35.999Z</time>
      </trkpt>
      <trkpt lat="43.99833" lon="3.5007">
        <ele>562.7</ele>
        <time>2026-05-28T07:21:36.999Z</time>
      </trkpt>
      <trkpt lat="43.99833" lon="3.50069">
        <ele>563</ele>
        <time>2026-05-28T07:21:37.999Z</time>
      </trkpt>
      <trkpt lat="43.99832" lon="3.50068">
        <ele>563.7</ele>
        <time>2026-05-28T07:21:38.999Z</time>
      </trkpt>
      <trkpt lat="43.99833" lon="3.50067">
        <ele>564.3</ele>
        <time>2026-05-28T07:21:39.999Z</time>
      </trkpt>
      <trkpt lat="43.99833" lon="3.50066">
        <ele>564.8</ele>
        <time>2026-05-28T07:21:40.999Z</time>
      </trkpt>
      <trkpt lat="43.99833" lon="3.50066">
        <ele>565.3</ele>
        <time>2026-05-28T07:21:41.999Z</time>
      </trkpt>
      <trkpt lat="43.99834" lon="3.50065">
        <ele>565.4</ele>
        <time>2026-05-28T07:21:42.999Z</time>
      </trkpt>
      <trkpt lat="43.99835" lon="3.50064">
        <ele>565.2</ele>
        <time>2026-05-28T07:21:43.999Z</time>
      </trkpt>
      <trkpt lat="43.99834" lon="3.50062">
        <ele>565.1</ele>
        <time>2026-05-28T07:21:44.999Z</time>
      </trkpt>
      <trkpt lat="43.99834" lon="3.5006">
        <ele>565.3</ele>
        <time>2026-05-28T07:21:45.999Z</time>
      </trkpt>
      <trkpt lat="43.99834" lon="3.50059">
        <ele>565.1</ele>
        <time>2026-05-28T07:21:46.999Z</time>
      </trkpt>
      <trkpt lat="43.99835" lon="3.50058">
        <ele>564.8</ele>
        <time>2026-05-28T07:21:47.999Z</time>
      </trkpt>
      <trkpt lat="43.99836" lon="3.50058">
        <ele>564.4</ele>
        <time>2026-05-28T07:21:48.999Z</time>
      </trkpt>
      <trkpt lat="43.99837" lon="3.50057">
        <ele>564.4</ele>
        <time>2026-05-28T07:21:49.999Z</time>
      </trkpt>
      <trkpt lat="43.99837" lon="3.50056">
        <ele>564.3</ele>
        <time>2026-05-28T07:21:50.999Z</time>
      </trkpt>
      <trkpt lat="43.99838" lon="3.50055">
        <ele>564.1</ele>
        <time>2026-05-28T07:21:51.999Z</time>
      </trkpt>
      <trkpt lat="43.99838" lon="3.50054">
        <ele>563.8</ele>
        <time>2026-05-28T07:21:52.999Z</time>
      </trkpt>
      <trkpt lat="43.99839" lon="3.50053">
        <ele>564</ele>
        <time>2026-05-28T07:21:53.999Z</time>
      </trkpt>
      <trkpt lat="43.9984" lon="3.50052">
        <ele>563.9</ele>
        <time>2026-05-28T07:21:54.999Z</time>
      </trkpt>
      <trkpt lat="43.9984" lon="3.50051">
        <ele>564.4</ele>
        <time>2026-05-28T07:21:56.999Z</time>
      </trkpt>
      <trkpt lat="43.99841" lon="3.50052">
        <ele>564.2</ele>
        <time>2026-05-28T07:21:57.999Z</time>
      </trkpt>
      <trkpt lat="43.99842" lon="3.50052">
        <ele>564.1</ele>
        <time>2026-05-28T07:21:58.999Z</time>
      </trkpt>
      <trkpt lat="43.99842" lon="3.50051">
        <ele>564.8</ele>
        <time>2026-05-28T07:21:59.999Z</time>
      </trkpt>
      <trkpt lat="43.99843" lon="3.50051">
        <ele>564.9</ele>
        <time>2026-05-28T07:22:00.999Z</time>
      </trkpt>
      <trkpt lat="43.99844" lon="3.50052">
        <ele>564.9</ele>
        <time>2026-05-28T07:22:01.999Z</time>
      </trkpt>
      <trkpt lat="43.99844" lon="3.50052">
        <ele>564.7</ele>
        <time>2026-05-28T07:22:02.999Z</time>
      </trkpt>
      <trkpt lat="43.99844" lon="3.50052">
        <ele>564.7</ele>
        <time>2026-05-28T07:22:03.999Z</time>
      </trkpt>
      <trkpt lat="43.99844" lon="3.50052">
        <ele>564.8</ele>
        <time>2026-05-28T07:22:04.999Z</time>
      </trkpt>
      <trkpt lat="43.99845" lon="3.50051">
        <ele>565</ele>
        <time>2026-05-28T07:22:05.999Z</time>
      </trkpt>
      <trkpt lat="43.99845" lon="3.5005">
        <ele>565.6</ele>
        <time>2026-05-28T07:22:06.999Z</time>
      </trkpt>
      <trkpt lat="43.99846" lon="3.5005">
        <ele>566</ele>
        <time>2026-05-28T07:22:07.999Z</time>
      </trkpt>
      <trkpt lat="43.99847" lon="3.5005">
        <ele>566.2</ele>
        <time>2026-05-28T07:22:08.999Z</time>
      </trkpt>
      <trkpt lat="43.99847" lon="3.50051">
        <ele>566.4</ele>
        <time>2026-05-28T07:22:09.999Z</time>
      </trkpt>
      <trkpt lat="43.99847" lon="3.50051">
        <ele>566.6</ele>
        <time>2026-05-28T07:22:10.999Z</time>
      </trkpt>
      <trkpt lat="43.99847" lon="3.5005">
        <ele>567.2</ele>
        <time>2026-05-28T07:22:11.999Z</time>
      </trkpt>
      <trkpt lat="43.99848" lon="3.5005">
        <ele>567.3</ele>
        <time>2026-05-28T07:22:12.999Z</time>
      </trkpt>
      <trkpt lat="43.99848" lon="3.5005">
        <ele>567.5</ele>
        <time>2026-05-28T07:22:13.999Z</time>
      </trkpt>
      <trkpt lat="43.99849" lon="3.5005">
        <ele>567.6</ele>
        <time>2026-05-28T07:22:14.999Z</time>
      </trkpt>
      <trkpt lat="43.99849" lon="3.50051">
        <ele>567.8</ele>
        <time>2026-05-28T07:22:15.999Z</time>
      </trkpt>
      <trkpt lat="43.9985" lon="3.50052">
        <ele>567.9</ele>
        <time>2026-05-28T07:22:16.999Z</time>
      </trkpt>
      <trkpt lat="43.9985" lon="3.50053">
        <ele>567.8</ele>
        <time>2026-05-28T07:22:17.999Z</time>
      </trkpt>
      <trkpt lat="43.99851" lon="3.50053">
        <ele>567.8</ele>
        <time>2026-05-28T07:22:18.999Z</time>
      </trkpt>
      <trkpt lat="43.99851" lon="3.50053">
        <ele>568</ele>
        <time>2026-05-28T07:22:19.999Z</time>
      </trkpt>
      <trkpt lat="43.99852" lon="3.50054">
        <ele>568.4</ele>
        <time>2026-05-28T07:22:20.999Z</time>
      </trkpt>
      <trkpt lat="43.99852" lon="3.50054">
        <ele>568.7</ele>
        <time>2026-05-28T07:22:21.999Z</time>
      </trkpt>
      <trkpt lat="43.99852" lon="3.50054">
        <ele>568.8</ele>
        <time>2026-05-28T07:22:22.999Z</time>
      </trkpt>
      <trkpt lat="43.99852" lon="3.50054">
        <ele>568.9</ele>
        <time>2026-05-28T07:22:23.999Z</time>
      </trkpt>
      <trkpt lat="43.99852" lon="3.50054">
        <ele>569.2</ele>
        <time>2026-05-28T07:22:24.999Z</time>
      </trkpt>
      <trkpt lat="43.99852" lon="3.50054">
        <ele>569.3</ele>
        <time>2026-05-28T07:22:25.999Z</time>
      </trkpt>
      <trkpt lat="43.99853" lon="3.50055">
        <ele>569.4</ele>
        <time>2026-05-28T07:22:26.999Z</time>
      </trkpt>
      <trkpt lat="43.99853" lon="3.50056">
        <ele>569.4</ele>
        <time>2026-05-28T07:22:27.999Z</time>
      </trkpt>
      <trkpt lat="43.99854" lon="3.50057">
        <ele>569.5</ele>
        <time>2026-05-28T07:22:28.999Z</time>
      </trkpt>
      <trkpt lat="43.99854" lon="3.50058">
        <ele>570.1</ele>
        <time>2026-05-28T07:22:29.999Z</time>
      </trkpt>
      <trkpt lat="43.99854" lon="3.50058">
        <ele>570.6</ele>
        <time>2026-05-28T07:22:30.999Z</time>
      </trkpt>
      <trkpt lat="43.99854" lon="3.50058">
        <ele>570.9</ele>
        <time>2026-05-28T07:22:31.999Z</time>
      </trkpt>
      <trkpt lat="43.99855" lon="3.50059">
        <ele>571.4</ele>
        <time>2026-05-28T07:22:32.999Z</time>
      </trkpt>
      <trkpt lat="43.99855" lon="3.50059">
        <ele>571.7</ele>
        <time>2026-05-28T07:22:33.999Z</time>
      </trkpt>
      <trkpt lat="43.99856" lon="3.5006">
        <ele>571.8</ele>
        <time>2026-05-28T07:22:34.999Z</time>
      </trkpt>
      <trkpt lat="43.99856" lon="3.5006">
        <ele>572.3</ele>
        <time>2026-05-28T07:22:35.999Z</time>
      </trkpt>
      <trkpt lat="43.99856" lon="3.5006">
        <ele>572.4</ele>
        <time>2026-05-28T07:22:36.999Z</time>
      </trkpt>
      <trkpt lat="43.99856" lon="3.5006">
        <ele>572.2</ele>
        <time>2026-05-28T07:22:37.999Z</time>
      </trkpt>
      <trkpt lat="43.99856" lon="3.50061">
        <ele>572.2</ele>
        <time>2026-05-28T07:22:38.999Z</time>
      </trkpt>
      <trkpt lat="43.99856" lon="3.50062">
        <ele>572.3</ele>
        <time>2026-05-28T07:22:39.999Z</time>
      </trkpt>
      <trkpt lat="43.99857" lon="3.50062">
        <ele>572.3</ele>
        <time>2026-05-28T07:22:40.999Z</time>
      </trkpt>
      <trkpt lat="43.99857" lon="3.50063">
        <ele>572.3</ele>
        <time>2026-05-28T07:22:41.999Z</time>
      </trkpt>
      <trkpt lat="43.99858" lon="3.50063">
        <ele>572.4</ele>
        <time>2026-05-28T07:22:42.999Z</time>
      </trkpt>
      <trkpt lat="43.99859" lon="3.50063">
        <ele>572.4</ele>
        <time>2026-05-28T07:22:43.999Z</time>
      </trkpt>
      <trkpt lat="43.9986" lon="3.50064">
        <ele>572.2</ele>
        <time>2026-05-28T07:22:44.999Z</time>
      </trkpt>
      <trkpt lat="43.99861" lon="3.50064">
        <ele>572</ele>
        <time>2026-05-28T07:22:45.999Z</time>
      </trkpt>
      <trkpt lat="43.99861" lon="3.50065">
        <ele>572.2</ele>
        <time>2026-05-28T07:22:46.999Z</time>
      </trkpt>
      <trkpt lat="43.99861" lon="3.50066">
        <ele>572.5</ele>
        <time>2026-05-28T07:22:47.999Z</time>
      </trkpt>
      <trkpt lat="43.99862" lon="3.50067">
        <ele>573.1</ele>
        <time>2026-05-28T07:22:48.999Z</time>
      </trkpt>
      <trkpt lat="43.99861" lon="3.50067">
        <ele>573.3</ele>
        <time>2026-05-28T07:22:49.999Z</time>
      </trkpt>
      <trkpt lat="43.99861" lon="3.50067">
        <ele>573.4</ele>
        <time>2026-05-28T07:22:50.999Z</time>
      </trkpt>
      <trkpt lat="43.9986" lon="3.50068">
        <ele>573.9</ele>
        <time>2026-05-28T07:22:51.999Z</time>
      </trkpt>
      <trkpt lat="43.9986" lon="3.50067">
        <ele>574</ele>
        <time>2026-05-28T07:22:52.999Z</time>
      </trkpt>
      <trkpt lat="43.9986" lon="3.50067">
        <ele>574.2</ele>
        <time>2026-05-28T07:22:53.999Z</time>
      </trkpt>
      <trkpt lat="43.99859" lon="3.50068">
        <ele>574.6</ele>
        <time>2026-05-28T07:22:54.999Z</time>
      </trkpt>
      <trkpt lat="43.99859" lon="3.50068">
        <ele>574.9</ele>
        <time>2026-05-28T07:22:55.999Z</time>
      </trkpt>
      <trkpt lat="43.99859" lon="3.50068">
        <ele>575.3</ele>
        <time>2026-05-28T07:22:56.999Z</time>
      </trkpt>
      <trkpt lat="43.99859" lon="3.50068">
        <ele>575.7</ele>
        <time>2026-05-28T07:22:57.999Z</time>
      </trkpt>
      <trkpt lat="43.99859" lon="3.50068">
        <ele>575.9</ele>
        <time>2026-05-28T07:22:58.999Z</time>
      </trkpt>
      <trkpt lat="43.99859" lon="3.50068">
        <ele>576.4</ele>
        <time>2026-05-28T07:22:59.999Z</time>
      </trkpt>
      <trkpt lat="43.99859" lon="3.50068">
        <ele>576.6</ele>
        <time>2026-05-28T07:23:00.999Z</time>
      </trkpt>
      <trkpt lat="43.99859" lon="3.50069">
        <ele>576.8</ele>
        <time>2026-05-28T07:23:01.999Z</time>
      </trkpt>
      <trkpt lat="43.99859" lon="3.5007">
        <ele>576.8</ele>
        <time>2026-05-28T07:23:02.999Z</time>
      </trkpt>
      <trkpt lat="43.9986" lon="3.5007">
        <ele>576.8</ele>
        <time>2026-05-28T07:23:03.999Z</time>
      </trkpt>
      <trkpt lat="43.9986" lon="3.5007">
        <ele>577</ele>
        <time>2026-05-28T07:23:04.999Z</time>
      </trkpt>
      <trkpt lat="43.99861" lon="3.50071">
        <ele>576.9</ele>
        <time>2026-05-28T07:23:05.999Z</time>
      </trkpt>
      <trkpt lat="43.99861" lon="3.50072">
        <ele>576.9</ele>
        <time>2026-05-28T07:23:06.999Z</time>
      </trkpt>
      <trkpt lat="43.99862" lon="3.50072">
        <ele>577.1</ele>
        <time>2026-05-28T07:23:08.999Z</time>
      </trkpt>
      <trkpt lat="43.99862" lon="3.50072">
        <ele>577.3</ele>
        <time>2026-05-28T07:23:09.999Z</time>
      </trkpt>
      <trkpt lat="43.99862" lon="3.50072">
        <ele>577.4</ele>
        <time>2026-05-28T07:23:10.999Z</time>
      </trkpt>
      <trkpt lat="43.99862" lon="3.50072">
        <ele>577.5</ele>
        <time>2026-05-28T07:23:11.999Z</time>
      </trkpt>
      <trkpt lat="43.99862" lon="3.50072">
        <ele>577.5</ele>
        <time>2026-05-28T07:23:12.999Z</time>
      </trkpt>
      <trkpt lat="43.99862" lon="3.50072">
        <ele>577.6</ele>
        <time>2026-05-28T07:23:13.999Z</time>
      </trkpt>
      <trkpt lat="43.99862" lon="3.50072">
        <ele>577.8</ele>
        <time>2026-05-28T07:23:14.999Z</time>
      </trkpt>
      <trkpt lat="43.99862" lon="3.50071">
        <ele>577.9</ele>
        <time>2026-05-28T07:23:15.999Z</time>
      </trkpt>
      <trkpt lat="43.99863" lon="3.5007">
        <ele>578.3</ele>
        <time>2026-05-28T07:23:16.999Z</time>
      </trkpt>
      <trkpt lat="43.99863" lon="3.5007">
        <ele>578.6</ele>
        <time>2026-05-28T07:23:17.999Z</time>
      </trkpt>
      <trkpt lat="43.99863" lon="3.5007">
        <ele>578.8</ele>
        <time>2026-05-28T07:23:18.999Z</time>
      </trkpt>
      <trkpt lat="43.99863" lon="3.50069">
        <ele>579</ele>
        <time>2026-05-28T07:23:19.999Z</time>
      </trkpt>
      <trkpt lat="43.99864" lon="3.50069">
        <ele>579.4</ele>
        <time>2026-05-28T07:23:20.999Z</time>
      </trkpt>
      <trkpt lat="43.99864" lon="3.50068">
        <ele>579.6</ele>
        <time>2026-05-28T07:23:21.999Z</time>
      </trkpt>
      <trkpt lat="43.99864" lon="3.50067">
        <ele>579.6</ele>
        <time>2026-05-28T07:23:22.999Z</time>
      </trkpt>
      <trkpt lat="43.99864" lon="3.50066">
        <ele>579.9</ele>
        <time>2026-05-28T07:23:23.999Z</time>
      </trkpt>
      <trkpt lat="43.99864" lon="3.50066">
        <ele>580.1</ele>
        <time>2026-05-28T07:23:24.999Z</time>
      </trkpt>
      <trkpt lat="43.99864" lon="3.50066">
        <ele>580</ele>
        <time>2026-05-28T07:23:25.999Z</time>
      </trkpt>
      <trkpt lat="43.99864" lon="3.50066">
        <ele>579.9</ele>
        <time>2026-05-28T07:23:26.999Z</time>
      </trkpt>
      <trkpt lat="43.99864" lon="3.50066">
        <ele>579.7</ele>
        <time>2026-05-28T07:23:27.999Z</time>
      </trkpt>
      <trkpt lat="43.99864" lon="3.50066">
        <ele>579.5</ele>
        <time>2026-05-28T07:23:28.999Z</time>
      </trkpt>
      <trkpt lat="43.99864" lon="3.50066">
        <ele>579.4</ele>
        <time>2026-05-28T07:23:29.999Z</time>
      </trkpt>
      <trkpt lat="43.99865" lon="3.50066">
        <ele>579.2</ele>
        <time>2026-05-28T07:23:30.999Z</time>
      </trkpt>
      <trkpt lat="43.99865" lon="3.50066">
        <ele>579.1</ele>
        <time>2026-05-28T07:23:31.999Z</time>
      </trkpt>
      <trkpt lat="43.99865" lon="3.50066">
        <ele>579.1</ele>
        <time>2026-05-28T07:23:32.999Z</time>
      </trkpt>
      <trkpt lat="43.99865" lon="3.50067">
        <ele>579.1</ele>
        <time>2026-05-28T07:23:33.999Z</time>
      </trkpt>
      <trkpt lat="43.99865" lon="3.50067">
        <ele>579.2</ele>
        <time>2026-05-28T07:23:34.999Z</time>
      </trkpt>
      <trkpt lat="43.99866" lon="3.50067">
        <ele>579.2</ele>
        <time>2026-05-28T07:23:35.999Z</time>
      </trkpt>
      <trkpt lat="43.99866" lon="3.50067">
        <ele>579.2</ele>
        <time>2026-05-28T07:23:36.999Z</time>
      </trkpt>
      <trkpt lat="43.99868" lon="3.50066">
        <ele>578.9</ele>
        <time>2026-05-28T07:23:37.999Z</time>
      </trkpt>
      <trkpt lat="43.99868" lon="3.50065">
        <ele>578.9</ele>
        <time>2026-05-28T07:23:38.999Z</time>
      </trkpt>
      <trkpt lat="43.99868" lon="3.50064">
        <ele>578.8</ele>
        <time>2026-05-28T07:23:39.999Z</time>
      </trkpt>
      <trkpt lat="43.99869" lon="3.50063">
        <ele>578.9</ele>
        <time>2026-05-28T07:23:40.999Z</time>
      </trkpt>
      <trkpt lat="43.99869" lon="3.50061">
        <ele>579</ele>
        <time>2026-05-28T07:23:41.999Z</time>
      </trkpt>
      <trkpt lat="43.9987" lon="3.50059">
        <ele>579</ele>
        <time>2026-05-28T07:23:42.999Z</time>
      </trkpt>
      <trkpt lat="43.99872" lon="3.50058">
        <ele>579.1</ele>
        <time>2026-05-28T07:23:44.999Z</time>
      </trkpt>
      <trkpt lat="43.99872" lon="3.50058">
        <ele>579</ele>
        <time>2026-05-28T07:23:45.999Z</time>
      </trkpt>
      <trkpt lat="43.99873" lon="3.50058">
        <ele>579.2</ele>
        <time>2026-05-28T07:23:46.999Z</time>
      </trkpt>
      <trkpt lat="43.99874" lon="3.50056">
        <ele>579.4</ele>
        <time>2026-05-28T07:23:47.999Z</time>
      </trkpt>
      <trkpt lat="43.99874" lon="3.50056">
        <ele>579.4</ele>
        <time>2026-05-28T07:23:48.999Z</time>
      </trkpt>
      <trkpt lat="43.99874" lon="3.50056">
        <ele>579.3</ele>
        <time>2026-05-28T07:23:49.999Z</time>
      </trkpt>
      <trkpt lat="43.99874" lon="3.50056">
        <ele>579.2</ele>
        <time>2026-05-28T07:23:50.999Z</time>
      </trkpt>
      <trkpt lat="43.99875" lon="3.50056">
        <ele>579.1</ele>
        <time>2026-05-28T07:23:51.999Z</time>
      </trkpt>
      <trkpt lat="43.99876" lon="3.50056">
        <ele>579.1</ele>
        <time>2026-05-28T07:23:52.999Z</time>
      </trkpt>
      <trkpt lat="43.99876" lon="3.50057">
        <ele>579.1</ele>
        <time>2026-05-28T07:23:53.999Z</time>
      </trkpt>
      <trkpt lat="43.99877" lon="3.50057">
        <ele>579.2</ele>
        <time>2026-05-28T07:23:54.999Z</time>
      </trkpt>
      <trkpt lat="43.99877" lon="3.50056">
        <ele>579.2</ele>
        <time>2026-05-28T07:23:55.999Z</time>
      </trkpt>
      <trkpt lat="43.99877" lon="3.50055">
        <ele>579.4</ele>
        <time>2026-05-28T07:23:56.999Z</time>
      </trkpt>
      <trkpt lat="43.99877" lon="3.50055">
        <ele>579.6</ele>
        <time>2026-05-28T07:23:57.999Z</time>
      </trkpt>
      <trkpt lat="43.99877" lon="3.50055">
        <ele>579.8</ele>
        <time>2026-05-28T07:23:58.999Z</time>
      </trkpt>
      <trkpt lat="43.99877" lon="3.50055">
        <ele>580.2</ele>
        <time>2026-05-28T07:23:59.999Z</time>
      </trkpt>
      <trkpt lat="43.99877" lon="3.50055">
        <ele>580.5</ele>
        <time>2026-05-28T07:24:00.999Z</time>
      </trkpt>
      <trkpt lat="43.99877" lon="3.50055">
        <ele>580.9</ele>
        <time>2026-05-28T07:24:01.999Z</time>
      </trkpt>
      <trkpt lat="43.99877" lon="3.50055">
        <ele>581.1</ele>
        <time>2026-05-28T07:24:02.999Z</time>
      </trkpt>
      <trkpt lat="43.99878" lon="3.50055">
        <ele>581</ele>
        <time>2026-05-28T07:24:03.999Z</time>
      </trkpt>
      <trkpt lat="43.99878" lon="3.50054">
        <ele>581.6</ele>
        <time>2026-05-28T07:24:04.999Z</time>
      </trkpt>
      <trkpt lat="43.99879" lon="3.50054">
        <ele>581.8</ele>
        <time>2026-05-28T07:24:05.999Z</time>
      </trkpt>
      <trkpt lat="43.9988" lon="3.50054">
        <ele>582.1</ele>
        <time>2026-05-28T07:24:06.999Z</time>
      </trkpt>
      <trkpt lat="43.99881" lon="3.50052">
        <ele>582.5</ele>
        <time>2026-05-28T07:24:07.999Z</time>
      </trkpt>
      <trkpt lat="43.99882" lon="3.50052">
        <ele>582.5</ele>
        <time>2026-05-28T07:24:08.999Z</time>
      </trkpt>
      <trkpt lat="43.99882" lon="3.50052">
        <ele>582.4</ele>
        <time>2026-05-28T07:24:09.999Z</time>
      </trkpt>
      <trkpt lat="43.99882" lon="3.50052">
        <ele>582.6</ele>
        <time>2026-05-28T07:24:10.999Z</time>
      </trkpt>
      <trkpt lat="43.99882" lon="3.50052">
        <ele>582.6</ele>
        <time>2026-05-28T07:24:11.999Z</time>
      </trkpt>
      <trkpt lat="43.99883" lon="3.50053">
        <ele>582.6</ele>
        <time>2026-05-28T07:24:12.999Z</time>
      </trkpt>
      <trkpt lat="43.99883" lon="3.50051">
        <ele>582.9</ele>
        <time>2026-05-28T07:24:13.999Z</time>
      </trkpt>
      <trkpt lat="43.99884" lon="3.50051">
        <ele>583.2</ele>
        <time>2026-05-28T07:24:14.999Z</time>
      </trkpt>
      <trkpt lat="43.99884" lon="3.50051">
        <ele>583.4</ele>
        <time>2026-05-28T07:24:15.999Z</time>
      </trkpt>
      <trkpt lat="43.99884" lon="3.50051">
        <ele>583.6</ele>
        <time>2026-05-28T07:24:16.999Z</time>
      </trkpt>
      <trkpt lat="43.99885" lon="3.50051">
        <ele>583.8</ele>
        <time>2026-05-28T07:24:17.999Z</time>
      </trkpt>
      <trkpt lat="43.99886" lon="3.50051">
        <ele>584</ele>
        <time>2026-05-28T07:24:18.999Z</time>
      </trkpt>
      <trkpt lat="43.99886" lon="3.5005">
        <ele>584.3</ele>
        <time>2026-05-28T07:24:19.999Z</time>
      </trkpt>
      <trkpt lat="43.99886" lon="3.5005">
        <ele>583.9</ele>
        <time>2026-05-28T07:24:20.999Z</time>
      </trkpt>
      <trkpt lat="43.99886" lon="3.5005">
        <ele>583.7</ele>
        <time>2026-05-28T07:24:21.999Z</time>
      </trkpt>
      <trkpt lat="43.99886" lon="3.5005">
        <ele>583.3</ele>
        <time>2026-05-28T07:24:22.999Z</time>
      </trkpt>
      <trkpt lat="43.99886" lon="3.5005">
        <ele>582.8</ele>
        <time>2026-05-28T07:24:23.999Z</time>
      </trkpt>
      <trkpt lat="43.99887" lon="3.5005">
        <ele>582.7</ele>
        <time>2026-05-28T07:24:24.999Z</time>
      </trkpt>
      <trkpt lat="43.99887" lon="3.5005">
        <ele>582.7</ele>
        <time>2026-05-28T07:24:25.999Z</time>
      </trkpt>
      <trkpt lat="43.99887" lon="3.5005">
        <ele>582.2</ele>
        <time>2026-05-28T07:24:26.999Z</time>
      </trkpt>
      <trkpt lat="43.99887" lon="3.5005">
        <ele>581.9</ele>
        <time>2026-05-28T07:24:27.999Z</time>
      </trkpt>
      <trkpt lat="43.99887" lon="3.5005">
        <ele>581.5</ele>
        <time>2026-05-28T07:24:28.999Z</time>
      </trkpt>
      <trkpt lat="43.99887" lon="3.50051">
        <ele>581.4</ele>
        <time>2026-05-28T07:24:29.999Z</time>
      </trkpt>
      <trkpt lat="43.99887" lon="3.50051">
        <ele>581.3</ele>
        <time>2026-05-28T07:24:30.999Z</time>
      </trkpt>
      <trkpt lat="43.99887" lon="3.50051">
        <ele>581</ele>
        <time>2026-05-28T07:24:31.999Z</time>
      </trkpt>
      <trkpt lat="43.99888" lon="3.50051">
        <ele>580.7</ele>
        <time>2026-05-28T07:24:32.999Z</time>
      </trkpt>
      <trkpt lat="43.99888" lon="3.50052">
        <ele>580.2</ele>
        <time>2026-05-28T07:24:33.999Z</time>
      </trkpt>
      <trkpt lat="43.99888" lon="3.50052">
        <ele>580</ele>
        <time>2026-05-28T07:24:34.999Z</time>
      </trkpt>
      <trkpt lat="43.99888" lon="3.50052">
        <ele>579.8</ele>
        <time>2026-05-28T07:24:35.999Z</time>
      </trkpt>
      <trkpt lat="43.99888" lon="3.50052">
        <ele>579.5</ele>
        <time>2026-05-28T07:24:36.999Z</time>
      </trkpt>
      <trkpt lat="43.99889" lon="3.50053">
        <ele>579.4</ele>
        <time>2026-05-28T07:24:37.999Z</time>
      </trkpt>
      <trkpt lat="43.99889" lon="3.50053">
        <ele>579.6</ele>
        <time>2026-05-28T07:24:38.999Z</time>
      </trkpt>
      <trkpt lat="43.99889" lon="3.50053">
        <ele>579.9</ele>
        <time>2026-05-28T07:24:39.999Z</time>
      </trkpt>
      <trkpt lat="43.99889" lon="3.50053">
        <ele>580</ele>
        <time>2026-05-28T07:24:40.999Z</time>
      </trkpt>
      <trkpt lat="43.99889" lon="3.50053">
        <ele>580.2</ele>
        <time>2026-05-28T07:24:41.999Z</time>
      </trkpt>
      <trkpt lat="43.99889" lon="3.50052">
        <ele>580.3</ele>
        <time>2026-05-28T07:24:42.999Z</time>
      </trkpt>
      <trkpt lat="43.99889" lon="3.50052">
        <ele>580.5</ele>
        <time>2026-05-28T07:24:43.999Z</time>
      </trkpt>
      <trkpt lat="43.99889" lon="3.50052">
        <ele>580.8</ele>
        <time>2026-05-28T07:24:44.999Z</time>
      </trkpt>
      <trkpt lat="43.99889" lon="3.50052">
        <ele>581.8</ele>
        <time>2026-05-28T07:24:45.999Z</time>
      </trkpt>
      <trkpt lat="43.99889" lon="3.50052">
        <ele>583</ele>
        <time>2026-05-28T07:24:46.999Z</time>
      </trkpt>
      <trkpt lat="43.99889" lon="3.50052">
        <ele>583.7</ele>
        <time>2026-05-28T07:24:47.999Z</time>
      </trkpt>
      <trkpt lat="43.9989" lon="3.50052">
        <ele>583.8</ele>
        <time>2026-05-28T07:24:48.999Z</time>
      </trkpt>
      <trkpt lat="43.9989" lon="3.50052">
        <ele>583.7</ele>
        <time>2026-05-28T07:24:49.999Z</time>
      </trkpt>
      <trkpt lat="43.9989" lon="3.50051">
        <ele>583.6</ele>
        <time>2026-05-28T07:24:50.999Z</time>
      </trkpt>
      <trkpt lat="43.99891" lon="3.50049">
        <ele>583.5</ele>
        <time>2026-05-28T07:24:51.999Z</time>
      </trkpt>
      <trkpt lat="43.99892" lon="3.50048">
        <ele>583.6</ele>
        <time>2026-05-28T07:24:52.999Z</time>
      </trkpt>
      <trkpt lat="43.99892" lon="3.50048">
        <ele>583.9</ele>
        <time>2026-05-28T07:24:53.999Z</time>
      </trkpt>
      <trkpt lat="43.99893" lon="3.50048">
        <ele>583.8</ele>
        <time>2026-05-28T07:24:54.999Z</time>
      </trkpt>
      <trkpt lat="43.99893" lon="3.50049">
        <ele>583.6</ele>
        <time>2026-05-28T07:24:55.999Z</time>
      </trkpt>
      <trkpt lat="43.99893" lon="3.50049">
        <ele>583.5</ele>
        <time>2026-05-28T07:24:56.999Z</time>
      </trkpt>
      <trkpt lat="43.99893" lon="3.50049">
        <ele>582.8</ele>
        <time>2026-05-28T07:24:57.999Z</time>
      </trkpt>
      <trkpt lat="43.99893" lon="3.50049">
        <ele>582.6</ele>
        <time>2026-05-28T07:24:58.999Z</time>
      </trkpt>
      <trkpt lat="43.99893" lon="3.50049">
        <ele>582.5</ele>
        <time>2026-05-28T07:24:59.999Z</time>
      </trkpt>
      <trkpt lat="43.99893" lon="3.50049">
        <ele>582.4</ele>
        <time>2026-05-28T07:25:00.999Z</time>
      </trkpt>
      <trkpt lat="43.99893" lon="3.50049">
        <ele>582.3</ele>
        <time>2026-05-28T07:25:01.999Z</time>
      </trkpt>
      <trkpt lat="43.99894" lon="3.50049">
        <ele>582.1</ele>
        <time>2026-05-28T07:25:02.999Z</time>
      </trkpt>
      <trkpt lat="43.99894" lon="3.50049">
        <ele>582.1</ele>
        <time>2026-05-28T07:25:03.999Z</time>
      </trkpt>
      <trkpt lat="43.99894" lon="3.50049">
        <ele>582.1</ele>
        <time>2026-05-28T07:25:04.999Z</time>
      </trkpt>
      <trkpt lat="43.99894" lon="3.50048">
        <ele>582.2</ele>
        <time>2026-05-28T07:25:05.999Z</time>
      </trkpt>
      <trkpt lat="43.99894" lon="3.50048">
        <ele>582.4</ele>
        <time>2026-05-28T07:25:06.999Z</time>
      </trkpt>
      <trkpt lat="43.99894" lon="3.50048">
        <ele>582.5</ele>
        <time>2026-05-28T07:25:07.999Z</time>
      </trkpt>
      <trkpt lat="43.99894" lon="3.50048">
        <ele>582.6</ele>
        <time>2026-05-28T07:25:08.999Z</time>
      </trkpt>
      <trkpt lat="43.99894" lon="3.50048">
        <ele>582.7</ele>
        <time>2026-05-28T07:25:09.999Z</time>
      </trkpt>
      <trkpt lat="43.99895" lon="3.50048">
        <ele>582.8</ele>
        <time>2026-05-28T07:25:10.999Z</time>
      </trkpt>
      <trkpt lat="43.99895" lon="3.50048">
        <ele>583</ele>
        <time>2026-05-28T07:25:11.999Z</time>
      </trkpt>
      <trkpt lat="43.99895" lon="3.50048">
        <ele>583.4</ele>
        <time>2026-05-28T07:25:12.999Z</time>
      </trkpt>
      <trkpt lat="43.99895" lon="3.50047">
        <ele>583.9</ele>
        <time>2026-05-28T07:25:13.999Z</time>
      </trkpt>
      <trkpt lat="43.99895" lon="3.50047">
        <ele>584.6</ele>
        <time>2026-05-28T07:25:14.999Z</time>
      </trkpt>
      <trkpt lat="43.99897" lon="3.50051">
        <ele>585.5</ele>
        <time>2026-05-28T07:25:15.999Z</time>
      </trkpt>
      <trkpt lat="43.99896" lon="3.50051">
        <ele>586</ele>
        <time>2026-05-28T07:25:16.999Z</time>
      </trkpt>
      <trkpt lat="43.99896" lon="3.50052">
        <ele>586.6</ele>
        <time>2026-05-28T07:25:17.999Z</time>
      </trkpt>
      <trkpt lat="43.99896" lon="3.50053">
        <ele>587.4</ele>
        <time>2026-05-28T07:25:18.999Z</time>
      </trkpt>
      <trkpt lat="43.99895" lon="3.50053">
        <ele>587.6</ele>
        <time>2026-05-28T07:25:19.999Z</time>
      </trkpt>
      <trkpt lat="43.99895" lon="3.50051">
        <ele>587.2</ele>
        <time>2026-05-28T07:25:20.999Z</time>
      </trkpt>
      <trkpt lat="43.99894" lon="3.50051">
        <ele>587.1</ele>
        <time>2026-05-28T07:25:21.999Z</time>
      </trkpt>
      <trkpt lat="43.99894" lon="3.5005">
        <ele>587</ele>
        <time>2026-05-28T07:25:22.999Z</time>
      </trkpt>
      <trkpt lat="43.99894" lon="3.50051">
        <ele>586.8</ele>
        <time>2026-05-28T07:25:23.999Z</time>
      </trkpt>
      <trkpt lat="43.99894" lon="3.5005">
        <ele>586.7</ele>
        <time>2026-05-28T07:25:24.999Z</time>
      </trkpt>
      <trkpt lat="43.99894" lon="3.5005">
        <ele>585.4</ele>
        <time>2026-05-28T07:25:25.999Z</time>
      </trkpt>
      <trkpt lat="43.99894" lon="3.5005">
        <ele>585.3</ele>
        <time>2026-05-28T07:25:26.999Z</time>
      </trkpt>
      <trkpt lat="43.99894" lon="3.50049">
        <ele>585.2</ele>
        <time>2026-05-28T07:25:27.999Z</time>
      </trkpt>
      <trkpt lat="43.99894" lon="3.50048">
        <ele>585.4</ele>
        <time>2026-05-28T07:25:28.999Z</time>
      </trkpt>
      <trkpt lat="43.99894" lon="3.50048">
        <ele>585.3</ele>
        <time>2026-05-28T07:25:29.999Z</time>
      </trkpt>
      <trkpt lat="43.99894" lon="3.50048">
        <ele>585.4</ele>
        <time>2026-05-28T07:25:30.999Z</time>
      </trkpt>
      <trkpt lat="43.99894" lon="3.50045">
        <ele>587</ele>
        <time>2026-05-28T07:25:31.999Z</time>
      </trkpt>
      <trkpt lat="43.99894" lon="3.50044">
        <ele>587.5</ele>
        <time>2026-05-28T07:25:32.999Z</time>
      </trkpt>
      <trkpt lat="43.99893" lon="3.50043">
        <ele>588.7</ele>
        <time>2026-05-28T07:25:33.999Z</time>
      </trkpt>
      <trkpt lat="43.99894" lon="3.50042">
        <ele>589.8</ele>
        <time>2026-05-28T07:25:34.999Z</time>
      </trkpt>
      <trkpt lat="43.99894" lon="3.50042">
        <ele>590.1</ele>
        <time>2026-05-28T07:25:35.999Z</time>
      </trkpt>
      <trkpt lat="43.99895" lon="3.50045">
        <ele>588.6</ele>
        <time>2026-05-28T07:25:36.999Z</time>
      </trkpt>
      <trkpt lat="43.99896" lon="3.50047">
        <ele>588.2</ele>
        <time>2026-05-28T07:25:37.999Z</time>
      </trkpt>
      <trkpt lat="43.99897" lon="3.50048">
        <ele>588</ele>
        <time>2026-05-28T07:25:38.999Z</time>
      </trkpt>
      <trkpt lat="43.99897" lon="3.50048">
        <ele>588</ele>
        <time>2026-05-28T07:25:39.999Z</time>
      </trkpt>
      <trkpt lat="43.99897" lon="3.50049">
        <ele>588.1</ele>
        <time>2026-05-28T07:25:40.999Z</time>
      </trkpt>
      <trkpt lat="43.99897" lon="3.5005">
        <ele>587.9</ele>
        <time>2026-05-28T07:25:41.999Z</time>
      </trkpt>
      <trkpt lat="43.99897" lon="3.5005">
        <ele>587.8</ele>
        <time>2026-05-28T07:25:42.999Z</time>
      </trkpt>
      <trkpt lat="43.99897" lon="3.5005">
        <ele>584.8</ele>
        <time>2026-05-28T07:25:43.999Z</time>
      </trkpt>
      <trkpt lat="43.99897" lon="3.5005">
        <ele>585.4</ele>
        <time>2026-05-28T07:25:44.999Z</time>
      </trkpt>
      <trkpt lat="43.99896" lon="3.5005">
        <ele>586.2</ele>
        <time>2026-05-28T07:25:45.999Z</time>
      </trkpt>
      <trkpt lat="43.99896" lon="3.50049">
        <ele>586.9</ele>
        <time>2026-05-28T07:25:46.999Z</time>
      </trkpt>
      <trkpt lat="43.99896" lon="3.50049">
        <ele>586.9</ele>
        <time>2026-05-28T07:25:47.999Z</time>
      </trkpt>
      <trkpt lat="43.99896" lon="3.50049">
        <ele>586.9</ele>
        <time>2026-05-28T07:25:48.999Z</time>
      </trkpt>
      <trkpt lat="43.99896" lon="3.50049">
        <ele>586.8</ele>
        <time>2026-05-28T07:25:49.999Z</time>
      </trkpt>
      <trkpt lat="43.99896" lon="3.5005">
        <ele>586.7</ele>
        <time>2026-05-28T07:25:50.999Z</time>
      </trkpt>
      <trkpt lat="43.99895" lon="3.50049">
        <ele>587</ele>
        <time>2026-05-28T07:25:51.999Z</time>
      </trkpt>
      <trkpt lat="43.99895" lon="3.50049">
        <ele>587.1</ele>
        <time>2026-05-28T07:25:52.999Z</time>
      </trkpt>
      <trkpt lat="43.99895" lon="3.50048">
        <ele>587</ele>
        <time>2026-05-28T07:25:53.999Z</time>
      </trkpt>
      <trkpt lat="43.99895" lon="3.50048">
        <ele>586.9</ele>
        <time>2026-05-28T07:25:54.999Z</time>
      </trkpt>
      <trkpt lat="43.99895" lon="3.50048">
        <ele>587.1</ele>
        <time>2026-05-28T07:25:55.999Z</time>
      </trkpt>
      <trkpt lat="43.99895" lon="3.50048">
        <ele>587.3</ele>
        <time>2026-05-28T07:25:56.999Z</time>
      </trkpt>
      <trkpt lat="43.99895" lon="3.50048">
        <ele>587.3</ele>
        <time>2026-05-28T07:25:57.999Z</time>
      </trkpt>
      <trkpt lat="43.99894" lon="3.50049">
        <ele>587.3</ele>
        <time>2026-05-28T07:25:58.999Z</time>
      </trkpt>
      <trkpt lat="43.99895" lon="3.50049">
        <ele>587.8</ele>
        <time>2026-05-28T07:25:59.999Z</time>
      </trkpt>
      <trkpt lat="43.99895" lon="3.50048">
        <ele>588.3</ele>
        <time>2026-05-28T07:26:00.999Z</time>
      </trkpt>
      <trkpt lat="43.99895" lon="3.50048">
        <ele>588.7</ele>
        <time>2026-05-28T07:26:01.999Z</time>
      </trkpt>
      <trkpt lat="43.99895" lon="3.50048">
        <ele>589</ele>
        <time>2026-05-28T07:26:02.999Z</time>
      </trkpt>
      <trkpt lat="43.99895" lon="3.50048">
        <ele>589.2</ele>
        <time>2026-05-28T07:26:03.999Z</time>
      </trkpt>
      <trkpt lat="43.99895" lon="3.50048">
        <ele>589.5</ele>
        <time>2026-05-28T07:26:04.999Z</time>
      </trkpt>
      <trkpt lat="43.99895" lon="3.50048">
        <ele>589.6</ele>
        <time>2026-05-28T07:26:05.999Z</time>
      </trkpt>
      <trkpt lat="43.99895" lon="3.50048">
        <ele>589.7</ele>
        <time>2026-05-28T07:26:06.999Z</time>
      </trkpt>
      <trkpt lat="43.99894" lon="3.50048">
        <ele>589.7</ele>
        <time>2026-05-28T07:26:07.999Z</time>
      </trkpt>
      <trkpt lat="43.99893" lon="3.50048">
        <ele>589.7</ele>
        <time>2026-05-28T07:26:08.999Z</time>
      </trkpt>
      <trkpt lat="43.99892" lon="3.50048">
        <ele>589.8</ele>
        <time>2026-05-28T07:26:09.999Z</time>
      </trkpt>
      <trkpt lat="43.99891" lon="3.50048">
        <ele>589.9</ele>
        <time>2026-05-28T07:26:10.999Z</time>
      </trkpt>
      <trkpt lat="43.99891" lon="3.50048">
        <ele>590.4</ele>
        <time>2026-05-28T07:26:11.999Z</time>
      </trkpt>
      <trkpt lat="43.99891" lon="3.50048">
        <ele>590.5</ele>
        <time>2026-05-28T07:26:12.999Z</time>
      </trkpt>
      <trkpt lat="43.99891" lon="3.50048">
        <ele>590.1</ele>
        <time>2026-05-28T07:26:13.999Z</time>
      </trkpt>
      <trkpt lat="43.99891" lon="3.50048">
        <ele>590</ele>
        <time>2026-05-28T07:26:14.999Z</time>
      </trkpt>
      <trkpt lat="43.99891" lon="3.50048">
        <ele>590.1</ele>
        <time>2026-05-28T07:26:15.999Z</time>
      </trkpt>
      <trkpt lat="43.99891" lon="3.50048">
        <ele>590.2</ele>
        <time>2026-05-28T07:26:17.000Z</time>
      </trkpt>
      <trkpt lat="43.99891" lon="3.50048">
        <ele>590.1</ele>
        <time>2026-05-28T07:26:18.000Z</time>
      </trkpt>
      <trkpt lat="43.99891" lon="3.50049">
        <ele>590.2</ele>
        <time>2026-05-28T07:26:19.000Z</time>
      </trkpt>
      <trkpt lat="43.99891" lon="3.50049">
        <ele>590</ele>
        <time>2026-05-28T07:26:20.000Z</time>
      </trkpt>
      <trkpt lat="43.99892" lon="3.50049">
        <ele>590</ele>
        <time>2026-05-28T07:26:21.000Z</time>
      </trkpt>
      <trkpt lat="43.99893" lon="3.50049">
        <ele>590</ele>
        <time>2026-05-28T07:26:22.000Z</time>
      </trkpt>
      <trkpt lat="43.99893" lon="3.50049">
        <ele>589.9</ele>
        <time>2026-05-28T07:26:23.000Z</time>
      </trkpt>
      <trkpt lat="43.99895" lon="3.50049">
        <ele>590.3</ele>
        <time>2026-05-28T07:26:24.000Z</time>
      </trkpt>
      <trkpt lat="43.99895" lon="3.50047">
        <ele>590.1</ele>
        <time>2026-05-28T07:26:25.000Z</time>
      </trkpt>
      <trkpt lat="43.99895" lon="3.50046">
        <ele>590.2</ele>
        <time>2026-05-28T07:26:26.000Z</time>
      </trkpt>
      <trkpt lat="43.99896" lon="3.50045">
        <ele>590.3</ele>
        <time>2026-05-28T07:26:27.000Z</time>
      </trkpt>
      <trkpt lat="43.99896" lon="3.50045">
        <ele>590.2</ele>
        <time>2026-05-28T07:26:28.000Z</time>
      </trkpt>
      <trkpt lat="43.99896" lon="3.50045">
        <ele>589.7</ele>
        <time>2026-05-28T07:26:29.000Z</time>
      </trkpt>
      <trkpt lat="43.99896" lon="3.50045">
        <ele>589.5</ele>
        <time>2026-05-28T07:26:30.000Z</time>
      </trkpt>
      <trkpt lat="43.99896" lon="3.50045">
        <ele>589.3</ele>
        <time>2026-05-28T07:26:31.000Z</time>
      </trkpt>
      <trkpt lat="43.99896" lon="3.50045">
        <ele>589</ele>
        <time>2026-05-28T07:26:32.000Z</time>
      </trkpt>
      <trkpt lat="43.99896" lon="3.50045">
        <ele>588.9</ele>
        <time>2026-05-28T07:26:33.000Z</time>
      </trkpt>
      <trkpt lat="43.99896" lon="3.50046">
        <ele>589</ele>
        <time>2026-05-28T07:26:34.000Z</time>
      </trkpt>
      <trkpt lat="43.99896" lon="3.50046">
        <ele>589.1</ele>
        <time>2026-05-28T07:26:35.000Z</time>
      </trkpt>
      <trkpt lat="43.99896" lon="3.50046">
        <ele>589.1</ele>
        <time>2026-05-28T07:26:36.000Z</time>
      </trkpt>
      <trkpt lat="43.99896" lon="3.50046">
        <ele>589.2</ele>
        <time>2026-05-28T07:26:37.000Z</time>
      </trkpt>
      <trkpt lat="43.99897" lon="3.50046">
        <ele>589.1</ele>
        <time>2026-05-28T07:26:38.000Z</time>
      </trkpt>
      <trkpt lat="43.99897" lon="3.50046">
        <ele>589.1</ele>
        <time>2026-05-28T07:26:39.000Z</time>
      </trkpt>
      <trkpt lat="43.99897" lon="3.50046">
        <ele>588.9</ele>
        <time>2026-05-28T07:26:40.000Z</time>
      </trkpt>
      <trkpt lat="43.99897" lon="3.50046">
        <ele>589</ele>
        <time>2026-05-28T07:26:41.000Z</time>
      </trkpt>
      <trkpt lat="43.99897" lon="3.50046">
        <ele>588.8</ele>
        <time>2026-05-28T07:26:42.000Z</time>
      </trkpt>
      <trkpt lat="43.99897" lon="3.50046">
        <ele>588.5</ele>
        <time>2026-05-28T07:26:43.000Z</time>
      </trkpt>
      <trkpt lat="43.99897" lon="3.50046">
        <ele>588.3</ele>
        <time>2026-05-28T07:26:44.000Z</time>
      </trkpt>
      <trkpt lat="43.99897" lon="3.50047">
        <ele>588.2</ele>
        <time>2026-05-28T07:26:45.000Z</time>
      </trkpt>
      <trkpt lat="43.99897" lon="3.50047">
        <ele>588.2</ele>
        <time>2026-05-28T07:26:46.000Z</time>
      </trkpt>
      <trkpt lat="43.99897" lon="3.50047">
        <ele>588.4</ele>
        <time>2026-05-28T07:26:47.000Z</time>
      </trkpt>
      <trkpt lat="43.99897" lon="3.50047">
        <ele>588.5</ele>
        <time>2026-05-28T07:26:48.000Z</time>
      </trkpt>
      <trkpt lat="43.99897" lon="3.50047">
        <ele>588.6</ele>
        <time>2026-05-28T07:26:49.000Z</time>
      </trkpt>
      <trkpt lat="43.99897" lon="3.50046">
        <ele>588.9</ele>
        <time>2026-05-28T07:26:50.000Z</time>
      </trkpt>
      <trkpt lat="43.99897" lon="3.50045">
        <ele>589.6</ele>
        <time>2026-05-28T07:26:51.000Z</time>
      </trkpt>
      <trkpt lat="43.99897" lon="3.50042">
        <ele>589.4</ele>
        <time>2026-05-28T07:26:52.000Z</time>
      </trkpt>
      <trkpt lat="43.99898" lon="3.50041">
        <ele>589.4</ele>
        <time>2026-05-28T07:26:53.000Z</time>
      </trkpt>
      <trkpt lat="43.99899" lon="3.50041">
        <ele>589.5</ele>
        <time>2026-05-28T07:26:54.000Z</time>
      </trkpt>
      <trkpt lat="43.99899" lon="3.50041">
        <ele>589.4</ele>
        <time>2026-05-28T07:26:55.000Z</time>
      </trkpt>
      <trkpt lat="43.999" lon="3.5004">
        <ele>589.4</ele>
        <time>2026-05-28T07:26:56.000Z</time>
      </trkpt>
      <trkpt lat="43.999" lon="3.5004">
        <ele>589.4</ele>
        <time>2026-05-28T07:26:57.000Z</time>
      </trkpt>
      <trkpt lat="43.999" lon="3.5004">
        <ele>589.2</ele>
        <time>2026-05-28T07:26:58.000Z</time>
      </trkpt>
      <trkpt lat="43.999" lon="3.50041">
        <ele>589.1</ele>
        <time>2026-05-28T07:26:59.000Z</time>
      </trkpt>
      <trkpt lat="43.99901" lon="3.50041">
        <ele>589.4</ele>
        <time>2026-05-28T07:27:00.000Z</time>
      </trkpt>
      <trkpt lat="43.99901" lon="3.50041">
        <ele>589.7</ele>
        <time>2026-05-28T07:27:01.000Z</time>
      </trkpt>
      <trkpt lat="43.99901" lon="3.50041">
        <ele>589.9</ele>
        <time>2026-05-28T07:27:02.000Z</time>
      </trkpt>
      <trkpt lat="43.99901" lon="3.50041">
        <ele>590.3</ele>
        <time>2026-05-28T07:27:03.000Z</time>
      </trkpt>
      <trkpt lat="43.99901" lon="3.50041">
        <ele>590.5</ele>
        <time>2026-05-28T07:27:04.000Z</time>
      </trkpt>
      <trkpt lat="43.99901" lon="3.50042">
        <ele>590.7</ele>
        <time>2026-05-28T07:27:05.000Z</time>
      </trkpt>
      <trkpt lat="43.99901" lon="3.50042">
        <ele>591</ele>
        <time>2026-05-28T07:27:06.000Z</time>
      </trkpt>
      <trkpt lat="43.99901" lon="3.50042">
        <ele>591.1</ele>
        <time>2026-05-28T07:27:07.000Z</time>
      </trkpt>
      <trkpt lat="43.99901" lon="3.50042">
        <ele>591.4</ele>
        <time>2026-05-28T07:27:08.000Z</time>
      </trkpt>
      <trkpt lat="43.99902" lon="3.50042">
        <ele>591.5</ele>
        <time>2026-05-28T07:27:09.000Z</time>
      </trkpt>
      <trkpt lat="43.99902" lon="3.50042">
        <ele>591.9</ele>
        <time>2026-05-28T07:27:10.000Z</time>
      </trkpt>
      <trkpt lat="43.99902" lon="3.50042">
        <ele>592.1</ele>
        <time>2026-05-28T07:27:11.000Z</time>
      </trkpt>
      <trkpt lat="43.99902" lon="3.50042">
        <ele>592.3</ele>
        <time>2026-05-28T07:27:12.000Z</time>
      </trkpt>
      <trkpt lat="43.99903" lon="3.50043">
        <ele>592.5</ele>
        <time>2026-05-28T07:27:13.000Z</time>
      </trkpt>
      <trkpt lat="43.99903" lon="3.50043">
        <ele>592.6</ele>
        <time>2026-05-28T07:27:14.000Z</time>
      </trkpt>
      <trkpt lat="43.99903" lon="3.50043">
        <ele>592.6</ele>
        <time>2026-05-28T07:27:15.000Z</time>
      </trkpt>
      <trkpt lat="43.99903" lon="3.50043">
        <ele>592.7</ele>
        <time>2026-05-28T07:27:16.000Z</time>
      </trkpt>
      <trkpt lat="43.99903" lon="3.50043">
        <ele>592.8</ele>
        <time>2026-05-28T07:27:17.000Z</time>
      </trkpt>
      <trkpt lat="43.99903" lon="3.50043">
        <ele>593</ele>
        <time>2026-05-28T07:27:18.000Z</time>
      </trkpt>
      <trkpt lat="43.99903" lon="3.50044">
        <ele>593.2</ele>
        <time>2026-05-28T07:27:19.000Z</time>
      </trkpt>
      <trkpt lat="43.99903" lon="3.50045">
        <ele>593.4</ele>
        <time>2026-05-28T07:27:20.000Z</time>
      </trkpt>
      <trkpt lat="43.99903" lon="3.50045">
        <ele>593.9</ele>
        <time>2026-05-28T07:27:21.000Z</time>
      </trkpt>
      <trkpt lat="43.99903" lon="3.50045">
        <ele>594.3</ele>
        <time>2026-05-28T07:27:22.000Z</time>
      </trkpt>
      <trkpt lat="43.99903" lon="3.50045">
        <ele>594.4</ele>
        <time>2026-05-28T07:27:23.000Z</time>
      </trkpt>
      <trkpt lat="43.99903" lon="3.50045">
        <ele>594.6</ele>
        <time>2026-05-28T07:27:24.000Z</time>
      </trkpt>
      <trkpt lat="43.99903" lon="3.50045">
        <ele>594.5</ele>
        <time>2026-05-28T07:27:25.000Z</time>
      </trkpt>
      <trkpt lat="43.99903" lon="3.50044">
        <ele>594.4</ele>
        <time>2026-05-28T07:27:26.000Z</time>
      </trkpt>
      <trkpt lat="43.99903" lon="3.50043">
        <ele>594</ele>
        <time>2026-05-28T07:27:27.000Z</time>
      </trkpt>
      <trkpt lat="43.99905" lon="3.5004">
        <ele>594.7</ele>
        <time>2026-05-28T07:27:29.000Z</time>
      </trkpt>
      <trkpt lat="43.99905" lon="3.50038">
        <ele>594.6</ele>
        <time>2026-05-28T07:27:30.000Z</time>
      </trkpt>
      <trkpt lat="43.99906" lon="3.50036">
        <ele>594.6</ele>
        <time>2026-05-28T07:27:31.000Z</time>
      </trkpt>
      <trkpt lat="43.99906" lon="3.50034">
        <ele>595</ele>
        <time>2026-05-28T07:27:32.000Z</time>
      </trkpt>
      <trkpt lat="43.99905" lon="3.50033">
        <ele>594.9</ele>
        <time>2026-05-28T07:27:33.000Z</time>
      </trkpt>
      <trkpt lat="43.99905" lon="3.50032">
        <ele>594.9</ele>
        <time>2026-05-28T07:27:34.000Z</time>
      </trkpt>
      <trkpt lat="43.99905" lon="3.5003">
        <ele>595</ele>
        <time>2026-05-28T07:27:35.000Z</time>
      </trkpt>
      <trkpt lat="43.99905" lon="3.5003">
        <ele>594.7</ele>
        <time>2026-05-28T07:27:36.000Z</time>
      </trkpt>
      <trkpt lat="43.99905" lon="3.50029">
        <ele>593.7</ele>
        <time>2026-05-28T07:27:37.000Z</time>
      </trkpt>
      <trkpt lat="43.99905" lon="3.50029">
        <ele>593.7</ele>
        <time>2026-05-28T07:27:38.000Z</time>
      </trkpt>
      <trkpt lat="43.99905" lon="3.50029">
        <ele>593.9</ele>
        <time>2026-05-28T07:27:39.000Z</time>
      </trkpt>
      <trkpt lat="43.99905" lon="3.50028">
        <ele>593.9</ele>
        <time>2026-05-28T07:27:40.000Z</time>
      </trkpt>
      <trkpt lat="43.99905" lon="3.50026">
        <ele>593.8</ele>
        <time>2026-05-28T07:27:41.000Z</time>
      </trkpt>
      <trkpt lat="43.99906" lon="3.50025">
        <ele>593.7</ele>
        <time>2026-05-28T07:27:42.000Z</time>
      </trkpt>
      <trkpt lat="43.99907" lon="3.50024">
        <ele>593.5</ele>
        <time>2026-05-28T07:27:43.000Z</time>
      </trkpt>
      <trkpt lat="43.99907" lon="3.50023">
        <ele>593.7</ele>
        <time>2026-05-28T07:27:44.000Z</time>
      </trkpt>
      <trkpt lat="43.99907" lon="3.50021">
        <ele>594.1</ele>
        <time>2026-05-28T07:27:45.000Z</time>
      </trkpt>
      <trkpt lat="43.99907" lon="3.5002">
        <ele>594.3</ele>
        <time>2026-05-28T07:27:46.000Z</time>
      </trkpt>
      <trkpt lat="43.99907" lon="3.5002">
        <ele>594</ele>
        <time>2026-05-28T07:27:47.000Z</time>
      </trkpt>
      <trkpt lat="43.99907" lon="3.50018">
        <ele>593.8</ele>
        <time>2026-05-28T07:27:48.000Z</time>
      </trkpt>
      <trkpt lat="43.99907" lon="3.50017">
        <ele>593.6</ele>
        <time>2026-05-28T07:27:49.000Z</time>
      </trkpt>
      <trkpt lat="43.99906" lon="3.50015">
        <ele>593.3</ele>
        <time>2026-05-28T07:27:50.000Z</time>
      </trkpt>
      <trkpt lat="43.99906" lon="3.50014">
        <ele>592.9</ele>
        <time>2026-05-28T07:27:51.000Z</time>
      </trkpt>
      <trkpt lat="43.99906" lon="3.50012">
        <ele>592.7</ele>
        <time>2026-05-28T07:27:52.000Z</time>
      </trkpt>
      <trkpt lat="43.99905" lon="3.50011">
        <ele>592.6</ele>
        <time>2026-05-28T07:27:53.000Z</time>
      </trkpt>
      <trkpt lat="43.99905" lon="3.50009">
        <ele>592.9</ele>
        <time>2026-05-28T07:27:54.000Z</time>
      </trkpt>
      <trkpt lat="43.99904" lon="3.50008">
        <ele>592.8</ele>
        <time>2026-05-28T07:27:55.000Z</time>
      </trkpt>
      <trkpt lat="43.99904" lon="3.50008">
        <ele>592.9</ele>
        <time>2026-05-28T07:27:56.000Z</time>
      </trkpt>
      <trkpt lat="43.99903" lon="3.50007">
        <ele>592.8</ele>
        <time>2026-05-28T07:27:57.000Z</time>
      </trkpt>
      <trkpt lat="43.99904" lon="3.50006">
        <ele>592.6</ele>
        <time>2026-05-28T07:27:58.000Z</time>
      </trkpt>
      <trkpt lat="43.99904" lon="3.50006">
        <ele>592.3</ele>
        <time>2026-05-28T07:27:59.000Z</time>
      </trkpt>
      <trkpt lat="43.99905" lon="3.50006">
        <ele>591.9</ele>
        <time>2026-05-28T07:28:00.000Z</time>
      </trkpt>
      <trkpt lat="43.99906" lon="3.50007">
        <ele>591.1</ele>
        <time>2026-05-28T07:28:01.000Z</time>
      </trkpt>
      <trkpt lat="43.99906" lon="3.50006">
        <ele>593.2</ele>
        <time>2026-05-28T07:28:02.000Z</time>
      </trkpt>
      <trkpt lat="43.99908" lon="3.50006">
        <ele>592.7</ele>
        <time>2026-05-28T07:28:03.000Z</time>
      </trkpt>
      <trkpt lat="43.99909" lon="3.50006">
        <ele>592.5</ele>
        <time>2026-05-28T07:28:04.000Z</time>
      </trkpt>
      <trkpt lat="43.9991" lon="3.50005">
        <ele>592.5</ele>
        <time>2026-05-28T07:28:05.000Z</time>
      </trkpt>
      <trkpt lat="43.9991" lon="3.50003">
        <ele>592.7</ele>
        <time>2026-05-28T07:28:06.000Z</time>
      </trkpt>
      <trkpt lat="43.99911" lon="3.50002">
        <ele>593.2</ele>
        <time>2026-05-28T07:28:07.000Z</time>
      </trkpt>
      <trkpt lat="43.99912" lon="3.50001">
        <ele>593.5</ele>
        <time>2026-05-28T07:28:09.000Z</time>
      </trkpt>
      <trkpt lat="43.99911" lon="3.50001">
        <ele>593.7</ele>
        <time>2026-05-28T07:28:10.000Z</time>
      </trkpt>
      <trkpt lat="43.99911" lon="3.49999">
        <ele>593.8</ele>
        <time>2026-05-28T07:28:11.000Z</time>
      </trkpt>
      <trkpt lat="43.99911" lon="3.49998">
        <ele>594.3</ele>
        <time>2026-05-28T07:28:12.000Z</time>
      </trkpt>
      <trkpt lat="43.99911" lon="3.49998">
        <ele>594.5</ele>
        <time>2026-05-28T07:28:13.000Z</time>
      </trkpt>
      <trkpt lat="43.99911" lon="3.49998">
        <ele>594.7</ele>
        <time>2026-05-28T07:28:14.000Z</time>
      </trkpt>
      <trkpt lat="43.99911" lon="3.49998">
        <ele>594.7</ele>
        <time>2026-05-28T07:28:15.000Z</time>
      </trkpt>
      <trkpt lat="43.99912" lon="3.49997">
        <ele>594.6</ele>
        <time>2026-05-28T07:28:17.000Z</time>
      </trkpt>
      <trkpt lat="43.99913" lon="3.49997">
        <ele>594.4</ele>
        <time>2026-05-28T07:28:18.000Z</time>
      </trkpt>
      <trkpt lat="43.99914" lon="3.49996">
        <ele>594.5</ele>
        <time>2026-05-28T07:28:19.000Z</time>
      </trkpt>
      <trkpt lat="43.99917" lon="3.49995">
        <ele>594.9</ele>
        <time>2026-05-28T07:28:20.000Z</time>
      </trkpt>
      <trkpt lat="43.99917" lon="3.49995">
        <ele>596</ele>
        <time>2026-05-28T07:28:21.000Z</time>
      </trkpt>
      <trkpt lat="43.99918" lon="3.49995">
        <ele>596.6</ele>
        <time>2026-05-28T07:28:22.000Z</time>
      </trkpt>
      <trkpt lat="43.99919" lon="3.49996">
        <ele>596.8</ele>
        <time>2026-05-28T07:28:23.000Z</time>
      </trkpt>
      <trkpt lat="43.9992" lon="3.49997">
        <ele>597.2</ele>
        <time>2026-05-28T07:28:24.000Z</time>
      </trkpt>
      <trkpt lat="43.9992" lon="3.49999">
        <ele>597.5</ele>
        <time>2026-05-28T07:28:25.000Z</time>
      </trkpt>
      <trkpt lat="43.99922" lon="3.49999">
        <ele>597.5</ele>
        <time>2026-05-28T07:28:26.000Z</time>
      </trkpt>
      <trkpt lat="43.99922" lon="3.49999">
        <ele>597.7</ele>
        <time>2026-05-28T07:28:27.000Z</time>
      </trkpt>
      <trkpt lat="43.99923" lon="3.49999">
        <ele>597.7</ele>
        <time>2026-05-28T07:28:28.000Z</time>
      </trkpt>
      <trkpt lat="43.99923" lon="3.5">
        <ele>597.5</ele>
        <time>2026-05-28T07:28:29.000Z</time>
      </trkpt>
      <trkpt lat="43.99924" lon="3.5">
        <ele>597.2</ele>
        <time>2026-05-28T07:28:30.000Z</time>
      </trkpt>
      <trkpt lat="43.99924" lon="3.5">
        <ele>597.6</ele>
        <time>2026-05-28T07:28:31.000Z</time>
      </trkpt>
      <trkpt lat="43.99926" lon="3.49998">
        <ele>597.5</ele>
        <time>2026-05-28T07:28:33.000Z</time>
      </trkpt>
      <trkpt lat="43.99927" lon="3.49999">
        <ele>597.2</ele>
        <time>2026-05-28T07:28:34.000Z</time>
      </trkpt>
      <trkpt lat="43.99927" lon="3.49998">
        <ele>596.7</ele>
        <time>2026-05-28T07:28:35.000Z</time>
      </trkpt>
      <trkpt lat="43.99927" lon="3.49998">
        <ele>596.9</ele>
        <time>2026-05-28T07:28:36.000Z</time>
      </trkpt>
      <trkpt lat="43.99926" lon="3.49998">
        <ele>597.1</ele>
        <time>2026-05-28T07:28:37.000Z</time>
      </trkpt>
      <trkpt lat="43.99926" lon="3.49998">
        <ele>597.6</ele>
        <time>2026-05-28T07:28:38.000Z</time>
      </trkpt>
      <trkpt lat="43.99926" lon="3.49998">
        <ele>597.5</ele>
        <time>2026-05-28T07:28:39.000Z</time>
      </trkpt>
      <trkpt lat="43.99926" lon="3.49998">
        <ele>598.5</ele>
        <time>2026-05-28T07:28:40.000Z</time>
      </trkpt>
      <trkpt lat="43.99926" lon="3.49998">
        <ele>598.7</ele>
        <time>2026-05-28T07:28:41.000Z</time>
      </trkpt>
      <trkpt lat="43.99926" lon="3.49998">
        <ele>599</ele>
        <time>2026-05-28T07:28:42.000Z</time>
      </trkpt>
      <trkpt lat="43.99926" lon="3.49997">
        <ele>599.5</ele>
        <time>2026-05-28T07:28:43.000Z</time>
      </trkpt>
      <trkpt lat="43.99927" lon="3.49995">
        <ele>599.8</ele>
        <time>2026-05-28T07:28:44.000Z</time>
      </trkpt>
      <trkpt lat="43.99929" lon="3.49994">
        <ele>600.1</ele>
        <time>2026-05-28T07:28:45.000Z</time>
      </trkpt>
      <trkpt lat="43.99929" lon="3.49993">
        <ele>600</ele>
        <time>2026-05-28T07:28:46.000Z</time>
      </trkpt>
      <trkpt lat="43.9993" lon="3.49992">
        <ele>599.8</ele>
        <time>2026-05-28T07:28:47.000Z</time>
      </trkpt>
      <trkpt lat="43.99931" lon="3.49992">
        <ele>599.9</ele>
        <time>2026-05-28T07:28:48.000Z</time>
      </trkpt>
      <trkpt lat="43.99931" lon="3.49992">
        <ele>599.8</ele>
        <time>2026-05-28T07:28:49.000Z</time>
      </trkpt>
      <trkpt lat="43.99931" lon="3.49992">
        <ele>600.5</ele>
        <time>2026-05-28T07:28:50.000Z</time>
      </trkpt>
      <trkpt lat="43.99931" lon="3.49992">
        <ele>601</ele>
        <time>2026-05-28T07:28:51.000Z</time>
      </trkpt>
      <trkpt lat="43.99931" lon="3.49992">
        <ele>601.4</ele>
        <time>2026-05-28T07:28:52.000Z</time>
      </trkpt>
      <trkpt lat="43.99932" lon="3.49993">
        <ele>601.4</ele>
        <time>2026-05-28T07:28:53.000Z</time>
      </trkpt>
      <trkpt lat="43.99932" lon="3.49993">
        <ele>601.6</ele>
        <time>2026-05-28T07:28:54.000Z</time>
      </trkpt>
      <trkpt lat="43.99933" lon="3.49994">
        <ele>601.8</ele>
        <time>2026-05-28T07:28:55.000Z</time>
      </trkpt>
      <trkpt lat="43.99933" lon="3.49994">
        <ele>601.8</ele>
        <time>2026-05-28T07:28:57.000Z</time>
      </trkpt>
      <trkpt lat="43.99933" lon="3.49994">
        <ele>601.6</ele>
        <time>2026-05-28T07:28:58.000Z</time>
      </trkpt>
      <trkpt lat="43.99933" lon="3.49995">
        <ele>601.7</ele>
        <time>2026-05-28T07:28:59.000Z</time>
      </trkpt>
      <trkpt lat="43.99934" lon="3.49996">
        <ele>601.6</ele>
        <time>2026-05-28T07:29:00.000Z</time>
      </trkpt>
      <trkpt lat="43.99934" lon="3.49996">
        <ele>601.5</ele>
        <time>2026-05-28T07:29:01.000Z</time>
      </trkpt>
      <trkpt lat="43.99934" lon="3.49996">
        <ele>601.4</ele>
        <time>2026-05-28T07:29:02.000Z</time>
      </trkpt>
      <trkpt lat="43.99934" lon="3.49996">
        <ele>601.3</ele>
        <time>2026-05-28T07:29:03.000Z</time>
      </trkpt>
      <trkpt lat="43.99934" lon="3.49996">
        <ele>601.4</ele>
        <time>2026-05-28T07:29:04.000Z</time>
      </trkpt>
      <trkpt lat="43.99934" lon="3.49996">
        <ele>601.6</ele>
        <time>2026-05-28T07:29:05.000Z</time>
      </trkpt>
      <trkpt lat="43.99935" lon="3.49997">
        <ele>601.7</ele>
        <time>2026-05-28T07:29:06.000Z</time>
      </trkpt>
      <trkpt lat="43.99935" lon="3.49997">
        <ele>601.8</ele>
        <time>2026-05-28T07:29:07.000Z</time>
      </trkpt>
      <trkpt lat="43.99935" lon="3.49997">
        <ele>602</ele>
        <time>2026-05-28T07:29:08.000Z</time>
      </trkpt>
      <trkpt lat="43.99935" lon="3.49997">
        <ele>602.3</ele>
        <time>2026-05-28T07:29:09.000Z</time>
      </trkpt>
      <trkpt lat="43.99935" lon="3.49997">
        <ele>602.6</ele>
        <time>2026-05-28T07:29:10.000Z</time>
      </trkpt>
      <trkpt lat="43.99935" lon="3.49997">
        <ele>602.9</ele>
        <time>2026-05-28T07:29:11.000Z</time>
      </trkpt>
      <trkpt lat="43.99935" lon="3.49997">
        <ele>602.9</ele>
        <time>2026-05-28T07:29:12.000Z</time>
      </trkpt>
      <trkpt lat="43.99935" lon="3.49997">
        <ele>603</ele>
        <time>2026-05-28T07:29:13.000Z</time>
      </trkpt>
      <trkpt lat="43.99935" lon="3.49997">
        <ele>602.8</ele>
        <time>2026-05-28T07:29:14.000Z</time>
      </trkpt>
      <trkpt lat="43.99935" lon="3.49997">
        <ele>602.9</ele>
        <time>2026-05-28T07:29:15.000Z</time>
      </trkpt>
      <trkpt lat="43.99935" lon="3.49997">
        <ele>603</ele>
        <time>2026-05-28T07:29:16.000Z</time>
      </trkpt>
      <trkpt lat="43.99935" lon="3.49997">
        <ele>603.1</ele>
        <time>2026-05-28T07:29:17.000Z</time>
      </trkpt>
      <trkpt lat="43.99935" lon="3.49997">
        <ele>603</ele>
        <time>2026-05-28T07:29:18.000Z</time>
      </trkpt>
      <trkpt lat="43.99935" lon="3.49997">
        <ele>603.2</ele>
        <time>2026-05-28T07:29:19.000Z</time>
      </trkpt>
      <trkpt lat="43.99936" lon="3.49997">
        <ele>603.3</ele>
        <time>2026-05-28T07:29:20.000Z</time>
      </trkpt>
      <trkpt lat="43.99936" lon="3.49997">
        <ele>603.6</ele>
        <time>2026-05-28T07:29:21.000Z</time>
      </trkpt>
      <trkpt lat="43.99936" lon="3.49997">
        <ele>603.8</ele>
        <time>2026-05-28T07:29:22.000Z</time>
      </trkpt>
      <trkpt lat="43.99936" lon="3.49997">
        <ele>604</ele>
        <time>2026-05-28T07:29:23.000Z</time>
      </trkpt>
      <trkpt lat="43.99936" lon="3.49997">
        <ele>604.3</ele>
        <time>2026-05-28T07:29:24.000Z</time>
      </trkpt>
      <trkpt lat="43.99936" lon="3.49997">
        <ele>604.6</ele>
        <time>2026-05-28T07:29:25.000Z</time>
      </trkpt>
      <trkpt lat="43.99935" lon="3.49997">
        <ele>604.9</ele>
        <time>2026-05-28T07:29:26.000Z</time>
      </trkpt>
      <trkpt lat="43.99936" lon="3.49997">
        <ele>605</ele>
        <time>2026-05-28T07:29:27.000Z</time>
      </trkpt>
      <trkpt lat="43.99936" lon="3.49997">
        <ele>604.8</ele>
        <time>2026-05-28T07:29:28.000Z</time>
      </trkpt>
      <trkpt lat="43.99936" lon="3.49996">
        <ele>604.8</ele>
        <time>2026-05-28T07:29:29.000Z</time>
      </trkpt>
      <trkpt lat="43.99936" lon="3.49996">
        <ele>604.7</ele>
        <time>2026-05-28T07:29:30.000Z</time>
      </trkpt>
      <trkpt lat="43.99936" lon="3.49996">
        <ele>604.6</ele>
        <time>2026-05-28T07:29:31.000Z</time>
      </trkpt>
      <trkpt lat="43.99936" lon="3.49996">
        <ele>604.3</ele>
        <time>2026-05-28T07:29:32.000Z</time>
      </trkpt>
      <trkpt lat="43.99936" lon="3.49996">
        <ele>604.1</ele>
        <time>2026-05-28T07:29:33.000Z</time>
      </trkpt>
      <trkpt lat="43.99936" lon="3.49996">
        <ele>604.3</ele>
        <time>2026-05-28T07:29:34.000Z</time>
      </trkpt>
      <trkpt lat="43.99936" lon="3.49996">
        <ele>604.4</ele>
        <time>2026-05-28T07:29:35.000Z</time>
      </trkpt>
      <trkpt lat="43.99936" lon="3.49996">
        <ele>604.6</ele>
        <time>2026-05-28T07:29:36.000Z</time>
      </trkpt>
      <trkpt lat="43.99936" lon="3.49996">
        <ele>604.7</ele>
        <time>2026-05-28T07:29:37.000Z</time>
      </trkpt>
      <trkpt lat="43.99936" lon="3.49995">
        <ele>604.8</ele>
        <time>2026-05-28T07:29:38.000Z</time>
      </trkpt>
      <trkpt lat="43.99936" lon="3.49995">
        <ele>605</ele>
        <time>2026-05-28T07:29:39.000Z</time>
      </trkpt>
      <trkpt lat="43.99936" lon="3.49995">
        <ele>605.3</ele>
        <time>2026-05-28T07:29:40.000Z</time>
      </trkpt>
      <trkpt lat="43.99937" lon="3.49995">
        <ele>605.4</ele>
        <time>2026-05-28T07:29:41.000Z</time>
      </trkpt>
      <trkpt lat="43.99937" lon="3.49996">
        <ele>605.7</ele>
        <time>2026-05-28T07:29:42.000Z</time>
      </trkpt>
      <trkpt lat="43.99937" lon="3.49995">
        <ele>606</ele>
        <time>2026-05-28T07:29:43.000Z</time>
      </trkpt>
      <trkpt lat="43.99937" lon="3.49995">
        <ele>606.4</ele>
        <time>2026-05-28T07:29:44.000Z</time>
      </trkpt>
      <trkpt lat="43.99937" lon="3.49995">
        <ele>606.4</ele>
        <time>2026-05-28T07:29:45.000Z</time>
      </trkpt>
      <trkpt lat="43.99938" lon="3.49994">
        <ele>606.3</ele>
        <time>2026-05-28T07:29:46.000Z</time>
      </trkpt>
      <trkpt lat="43.99939" lon="3.49994">
        <ele>606.2</ele>
        <time>2026-05-28T07:29:47.000Z</time>
      </trkpt>
      <trkpt lat="43.9994" lon="3.49994">
        <ele>606</ele>
        <time>2026-05-28T07:29:48.000Z</time>
      </trkpt>
      <trkpt lat="43.99941" lon="3.49993">
        <ele>606.2</ele>
        <time>2026-05-28T07:29:49.000Z</time>
      </trkpt>
      <trkpt lat="43.99941" lon="3.49993">
        <ele>606.4</ele>
        <time>2026-05-28T07:29:50.000Z</time>
      </trkpt>
      <trkpt lat="43.99942" lon="3.49993">
        <ele>606.2</ele>
        <time>2026-05-28T07:29:51.000Z</time>
      </trkpt>
      <trkpt lat="43.99943" lon="3.49993">
        <ele>606.5</ele>
        <time>2026-05-28T07:29:52.000Z</time>
      </trkpt>
      <trkpt lat="43.99944" lon="3.49993">
        <ele>606.5</ele>
        <time>2026-05-28T07:29:53.000Z</time>
      </trkpt>
      <trkpt lat="43.99944" lon="3.49993">
        <ele>606.7</ele>
        <time>2026-05-28T07:29:54.000Z</time>
      </trkpt>
      <trkpt lat="43.99945" lon="3.49993">
        <ele>607.4</ele>
        <time>2026-05-28T07:29:55.000Z</time>
      </trkpt>
      <trkpt lat="43.99945" lon="3.49993">
        <ele>607.6</ele>
        <time>2026-05-28T07:29:56.000Z</time>
      </trkpt>
      <trkpt lat="43.99945" lon="3.49993">
        <ele>607.5</ele>
        <time>2026-05-28T07:29:57.000Z</time>
      </trkpt>
      <trkpt lat="43.99945" lon="3.49993">
        <ele>607.5</ele>
        <time>2026-05-28T07:29:59.000Z</time>
      </trkpt>
      <trkpt lat="43.99945" lon="3.49993">
        <ele>607.8</ele>
        <time>2026-05-28T07:30:00.000Z</time>
      </trkpt>
      <trkpt lat="43.99945" lon="3.49993">
        <ele>607.9</ele>
        <time>2026-05-28T07:30:01.000Z</time>
      </trkpt>
      <trkpt lat="43.99945" lon="3.49992">
        <ele>608</ele>
        <time>2026-05-28T07:30:02.000Z</time>
      </trkpt>
      <trkpt lat="43.99946" lon="3.49992">
        <ele>608.1</ele>
        <time>2026-05-28T07:30:03.000Z</time>
      </trkpt>
      <trkpt lat="43.99946" lon="3.49992">
        <ele>608.1</ele>
        <time>2026-05-28T07:30:04.000Z</time>
      </trkpt>
      <trkpt lat="43.99946" lon="3.49991">
        <ele>608.2</ele>
        <time>2026-05-28T07:30:05.000Z</time>
      </trkpt>
      <trkpt lat="43.99947" lon="3.49991">
        <ele>608</ele>
        <time>2026-05-28T07:30:06.000Z</time>
      </trkpt>
      <trkpt lat="43.99948" lon="3.4999">
        <ele>607.9</ele>
        <time>2026-05-28T07:30:07.000Z</time>
      </trkpt>
      <trkpt lat="43.99948" lon="3.4999">
        <ele>608</ele>
        <time>2026-05-28T07:30:08.000Z</time>
      </trkpt>
      <trkpt lat="43.99948" lon="3.49989">
        <ele>608.1</ele>
        <time>2026-05-28T07:30:09.000Z</time>
      </trkpt>
      <trkpt lat="43.99948" lon="3.49989">
        <ele>608.3</ele>
        <time>2026-05-28T07:30:10.000Z</time>
      </trkpt>
      <trkpt lat="43.99949" lon="3.49988">
        <ele>608.2</ele>
        <time>2026-05-28T07:30:11.000Z</time>
      </trkpt>
      <trkpt lat="43.99949" lon="3.49988">
        <ele>608.4</ele>
        <time>2026-05-28T07:30:12.000Z</time>
      </trkpt>
      <trkpt lat="43.99949" lon="3.49988">
        <ele>608.6</ele>
        <time>2026-05-28T07:30:13.000Z</time>
      </trkpt>
      <trkpt lat="43.99949" lon="3.49988">
        <ele>608.9</ele>
        <time>2026-05-28T07:30:14.000Z</time>
      </trkpt>
      <trkpt lat="43.99949" lon="3.49988">
        <ele>609.3</ele>
        <time>2026-05-28T07:30:15.000Z</time>
      </trkpt>
      <trkpt lat="43.99949" lon="3.49988">
        <ele>609.6</ele>
        <time>2026-05-28T07:30:16.000Z</time>
      </trkpt>
      <trkpt lat="43.99949" lon="3.49988">
        <ele>609.7</ele>
        <time>2026-05-28T07:30:17.000Z</time>
      </trkpt>
      <trkpt lat="43.99949" lon="3.49988">
        <ele>609.9</ele>
        <time>2026-05-28T07:30:18.000Z</time>
      </trkpt>
      <trkpt lat="43.99949" lon="3.49989">
        <ele>609.9</ele>
        <time>2026-05-28T07:30:19.000Z</time>
      </trkpt>
      <trkpt lat="43.9995" lon="3.49988">
        <ele>610</ele>
        <time>2026-05-28T07:30:20.000Z</time>
      </trkpt>
      <trkpt lat="43.99951" lon="3.49988">
        <ele>610.2</ele>
        <time>2026-05-28T07:30:21.000Z</time>
      </trkpt>
      <trkpt lat="43.99952" lon="3.49988">
        <ele>610.2</ele>
        <time>2026-05-28T07:30:22.000Z</time>
      </trkpt>
      <trkpt lat="43.99952" lon="3.49988">
        <ele>610.4</ele>
        <time>2026-05-28T07:30:23.000Z</time>
      </trkpt>
      <trkpt lat="43.99953" lon="3.49988">
        <ele>610.4</ele>
        <time>2026-05-28T07:30:24.000Z</time>
      </trkpt>
      <trkpt lat="43.99953" lon="3.49988">
        <ele>610.6</ele>
        <time>2026-05-28T07:30:25.000Z</time>
      </trkpt>
      <trkpt lat="43.99953" lon="3.49988">
        <ele>610.9</ele>
        <time>2026-05-28T07:30:26.000Z</time>
      </trkpt>
      <trkpt lat="43.99953" lon="3.49987">
        <ele>611.1</ele>
        <time>2026-05-28T07:30:27.000Z</time>
      </trkpt>
      <trkpt lat="43.99954" lon="3.49987">
        <ele>611.2</ele>
        <time>2026-05-28T07:30:28.000Z</time>
      </trkpt>
      <trkpt lat="43.99954" lon="3.49987">
        <ele>611.3</ele>
        <time>2026-05-28T07:30:29.000Z</time>
      </trkpt>
      <trkpt lat="43.99954" lon="3.49987">
        <ele>611.4</ele>
        <time>2026-05-28T07:30:30.000Z</time>
      </trkpt>
      <trkpt lat="43.99955" lon="3.49987">
        <ele>611.4</ele>
        <time>2026-05-28T07:30:31.000Z</time>
      </trkpt>
      <trkpt lat="43.99955" lon="3.49987">
        <ele>611.7</ele>
        <time>2026-05-28T07:30:32.000Z</time>
      </trkpt>
      <trkpt lat="43.99955" lon="3.49987">
        <ele>612.2</ele>
        <time>2026-05-28T07:30:33.000Z</time>
      </trkpt>
      <trkpt lat="43.99956" lon="3.49987">
        <ele>612.3</ele>
        <time>2026-05-28T07:30:34.000Z</time>
      </trkpt>
      <trkpt lat="43.99957" lon="3.49988">
        <ele>612.3</ele>
        <time>2026-05-28T07:30:35.000Z</time>
      </trkpt>
      <trkpt lat="43.99957" lon="3.49987">
        <ele>612.5</ele>
        <time>2026-05-28T07:30:36.000Z</time>
      </trkpt>
      <trkpt lat="43.99957" lon="3.49987">
        <ele>612.5</ele>
        <time>2026-05-28T07:30:37.000Z</time>
      </trkpt>
      <trkpt lat="43.99957" lon="3.49987">
        <ele>612.6</ele>
        <time>2026-05-28T07:30:38.000Z</time>
      </trkpt>
      <trkpt lat="43.99958" lon="3.49987">
        <ele>613.1</ele>
        <time>2026-05-28T07:30:39.000Z</time>
      </trkpt>
      <trkpt lat="43.99958" lon="3.49987">
        <ele>613.6</ele>
        <time>2026-05-28T07:30:40.000Z</time>
      </trkpt>
      <trkpt lat="43.99958" lon="3.49987">
        <ele>613.8</ele>
        <time>2026-05-28T07:30:41.000Z</time>
      </trkpt>
      <trkpt lat="43.99958" lon="3.49987">
        <ele>613.8</ele>
        <time>2026-05-28T07:30:42.000Z</time>
      </trkpt>
      <trkpt lat="43.99958" lon="3.49987">
        <ele>613.9</ele>
        <time>2026-05-28T07:30:43.000Z</time>
      </trkpt>
      <trkpt lat="43.99958" lon="3.49987">
        <ele>613.9</ele>
        <time>2026-05-28T07:30:44.000Z</time>
      </trkpt>
      <trkpt lat="43.99958" lon="3.49987">
        <ele>614</ele>
        <time>2026-05-28T07:30:45.000Z</time>
      </trkpt>
      <trkpt lat="43.99958" lon="3.49986">
        <ele>614.1</ele>
        <time>2026-05-28T07:30:46.000Z</time>
      </trkpt>
      <trkpt lat="43.99958" lon="3.49986">
        <ele>614.3</ele>
        <time>2026-05-28T07:30:47.000Z</time>
      </trkpt>
      <trkpt lat="43.99958" lon="3.49986">
        <ele>614.4</ele>
        <time>2026-05-28T07:30:48.000Z</time>
      </trkpt>
      <trkpt lat="43.99958" lon="3.49985">
        <ele>614.5</ele>
        <time>2026-05-28T07:30:49.000Z</time>
      </trkpt>
      <trkpt lat="43.99959" lon="3.49986">
        <ele>614.3</ele>
        <time>2026-05-28T07:30:50.000Z</time>
      </trkpt>
      <trkpt lat="43.99959" lon="3.49986">
        <ele>614.4</ele>
        <time>2026-05-28T07:30:51.000Z</time>
      </trkpt>
      <trkpt lat="43.99959" lon="3.49986">
        <ele>614.6</ele>
        <time>2026-05-28T07:30:53.000Z</time>
      </trkpt>
      <trkpt lat="43.99959" lon="3.49986">
        <ele>614.5</ele>
        <time>2026-05-28T07:30:54.000Z</time>
      </trkpt>
      <trkpt lat="43.9996" lon="3.49986">
        <ele>614.5</ele>
        <time>2026-05-28T07:30:55.000Z</time>
      </trkpt>
      <trkpt lat="43.9996" lon="3.49986">
        <ele>614.6</ele>
        <time>2026-05-28T07:30:56.000Z</time>
      </trkpt>
      <trkpt lat="43.9996" lon="3.49986">
        <ele>614.8</ele>
        <time>2026-05-28T07:30:57.000Z</time>
      </trkpt>
      <trkpt lat="43.9996" lon="3.49986">
        <ele>614.8</ele>
        <time>2026-05-28T07:30:58.000Z</time>
      </trkpt>
      <trkpt lat="43.9996" lon="3.49986">
        <ele>614.9</ele>
        <time>2026-05-28T07:30:59.000Z</time>
      </trkpt>
      <trkpt lat="43.9996" lon="3.49986">
        <ele>615.1</ele>
        <time>2026-05-28T07:31:00.000Z</time>
      </trkpt>
      <trkpt lat="43.9996" lon="3.49985">
        <ele>615.1</ele>
        <time>2026-05-28T07:31:01.000Z</time>
      </trkpt>
      <trkpt lat="43.99961" lon="3.49985">
        <ele>615</ele>
        <time>2026-05-28T07:31:02.000Z</time>
      </trkpt>
      <trkpt lat="43.99962" lon="3.49985">
        <ele>615.1</ele>
        <time>2026-05-28T07:31:03.000Z</time>
      </trkpt>
      <trkpt lat="43.99962" lon="3.49984">
        <ele>615.1</ele>
        <time>2026-05-28T07:31:04.000Z</time>
      </trkpt>
      <trkpt lat="43.99962" lon="3.49984">
        <ele>615.2</ele>
        <time>2026-05-28T07:31:05.000Z</time>
      </trkpt>
      <trkpt lat="43.99962" lon="3.49983">
        <ele>615.2</ele>
        <time>2026-05-28T07:31:06.000Z</time>
      </trkpt>
      <trkpt lat="43.99962" lon="3.49983">
        <ele>615.2</ele>
        <time>2026-05-28T07:31:07.000Z</time>
      </trkpt>
      <trkpt lat="43.99963" lon="3.49982">
        <ele>615.3</ele>
        <time>2026-05-28T07:31:08.000Z</time>
      </trkpt>
      <trkpt lat="43.99963" lon="3.49982">
        <ele>615.3</ele>
        <time>2026-05-28T07:31:09.000Z</time>
      </trkpt>
      <trkpt lat="43.99963" lon="3.49981">
        <ele>615.4</ele>
        <time>2026-05-28T07:31:10.000Z</time>
      </trkpt>
      <trkpt lat="43.99963" lon="3.4998">
        <ele>615.3</ele>
        <time>2026-05-28T07:31:11.000Z</time>
      </trkpt>
      <trkpt lat="43.99964" lon="3.49979">
        <ele>615.4</ele>
        <time>2026-05-28T07:31:12.000Z</time>
      </trkpt>
      <trkpt lat="43.99964" lon="3.49979">
        <ele>615.2</ele>
        <time>2026-05-28T07:31:13.000Z</time>
      </trkpt>
      <trkpt lat="43.99964" lon="3.49979">
        <ele>615.4</ele>
        <time>2026-05-28T07:31:14.000Z</time>
      </trkpt>
      <trkpt lat="43.99964" lon="3.49979">
        <ele>615.3</ele>
        <time>2026-05-28T07:31:15.000Z</time>
      </trkpt>
      <trkpt lat="43.99964" lon="3.49979">
        <ele>615.5</ele>
        <time>2026-05-28T07:31:16.000Z</time>
      </trkpt>
      <trkpt lat="43.99965" lon="3.49979">
        <ele>615.5</ele>
        <time>2026-05-28T07:31:17.000Z</time>
      </trkpt>
      <trkpt lat="43.99966" lon="3.49979">
        <ele>615.7</ele>
        <time>2026-05-28T07:31:18.000Z</time>
      </trkpt>
      <trkpt lat="43.99967" lon="3.49979">
        <ele>615.9</ele>
        <time>2026-05-28T07:31:19.000Z</time>
      </trkpt>
      <trkpt lat="43.99967" lon="3.49979">
        <ele>616.3</ele>
        <time>2026-05-28T07:31:20.000Z</time>
      </trkpt>
      <trkpt lat="43.99967" lon="3.49979">
        <ele>616.4</ele>
        <time>2026-05-28T07:31:21.000Z</time>
      </trkpt>
      <trkpt lat="43.99967" lon="3.49979">
        <ele>616.5</ele>
        <time>2026-05-28T07:31:22.000Z</time>
      </trkpt>
      <trkpt lat="43.99968" lon="3.49979">
        <ele>616.6</ele>
        <time>2026-05-28T07:31:23.000Z</time>
      </trkpt>
      <trkpt lat="43.99968" lon="3.49979">
        <ele>616.4</ele>
        <time>2026-05-28T07:31:24.000Z</time>
      </trkpt>
      <trkpt lat="43.99968" lon="3.49979">
        <ele>616.5</ele>
        <time>2026-05-28T07:31:25.000Z</time>
      </trkpt>
      <trkpt lat="43.99968" lon="3.4998">
        <ele>616.6</ele>
        <time>2026-05-28T07:31:26.000Z</time>
      </trkpt>
      <trkpt lat="43.99969" lon="3.4998">
        <ele>616.6</ele>
        <time>2026-05-28T07:31:27.000Z</time>
      </trkpt>
      <trkpt lat="43.99969" lon="3.49981">
        <ele>616.8</ele>
        <time>2026-05-28T07:31:28.000Z</time>
      </trkpt>
      <trkpt lat="43.9997" lon="3.49981">
        <ele>617</ele>
        <time>2026-05-28T07:31:29.000Z</time>
      </trkpt>
      <trkpt lat="43.9997" lon="3.49981">
        <ele>617.1</ele>
        <time>2026-05-28T07:31:30.000Z</time>
      </trkpt>
      <trkpt lat="43.9997" lon="3.49982">
        <ele>617.1</ele>
        <time>2026-05-28T07:31:31.000Z</time>
      </trkpt>
      <trkpt lat="43.9997" lon="3.49981">
        <ele>616.8</ele>
        <time>2026-05-28T07:31:32.000Z</time>
      </trkpt>
      <trkpt lat="43.9997" lon="3.49981">
        <ele>616.9</ele>
        <time>2026-05-28T07:31:33.000Z</time>
      </trkpt>
      <trkpt lat="43.9997" lon="3.49981">
        <ele>616.8</ele>
        <time>2026-05-28T07:31:34.000Z</time>
      </trkpt>
      <trkpt lat="43.9997" lon="3.49981">
        <ele>616.4</ele>
        <time>2026-05-28T07:31:35.000Z</time>
      </trkpt>
      <trkpt lat="43.99971" lon="3.49981">
        <ele>616.4</ele>
        <time>2026-05-28T07:31:36.000Z</time>
      </trkpt>
      <trkpt lat="43.99971" lon="3.49981">
        <ele>616.3</ele>
        <time>2026-05-28T07:31:37.000Z</time>
      </trkpt>
      <trkpt lat="43.99972" lon="3.4998">
        <ele>616.2</ele>
        <time>2026-05-28T07:31:38.000Z</time>
      </trkpt>
      <trkpt lat="43.99972" lon="3.4998">
        <ele>616.4</ele>
        <time>2026-05-28T07:31:39.000Z</time>
      </trkpt>
      <trkpt lat="43.99973" lon="3.4998">
        <ele>616.3</ele>
        <time>2026-05-28T07:31:40.000Z</time>
      </trkpt>
      <trkpt lat="43.99973" lon="3.4998">
        <ele>616.2</ele>
        <time>2026-05-28T07:31:41.000Z</time>
      </trkpt>
      <trkpt lat="43.99973" lon="3.4998">
        <ele>616.3</ele>
        <time>2026-05-28T07:31:42.000Z</time>
      </trkpt>
      <trkpt lat="43.99973" lon="3.4998">
        <ele>616.3</ele>
        <time>2026-05-28T07:31:43.000Z</time>
      </trkpt>
      <trkpt lat="43.99973" lon="3.4998">
        <ele>616.2</ele>
        <time>2026-05-28T07:31:44.000Z</time>
      </trkpt>
      <trkpt lat="43.99973" lon="3.4998">
        <ele>616.2</ele>
        <time>2026-05-28T07:31:45.000Z</time>
      </trkpt>
      <trkpt lat="43.99973" lon="3.4998">
        <ele>616.2</ele>
        <time>2026-05-28T07:31:46.000Z</time>
      </trkpt>
      <trkpt lat="43.99973" lon="3.4998">
        <ele>616.1</ele>
        <time>2026-05-28T07:31:47.000Z</time>
      </trkpt>
      <trkpt lat="43.99973" lon="3.49979">
        <ele>616.1</ele>
        <time>2026-05-28T07:31:48.000Z</time>
      </trkpt>
      <trkpt lat="43.99973" lon="3.49979">
        <ele>616.1</ele>
        <time>2026-05-28T07:31:49.000Z</time>
      </trkpt>
      <trkpt lat="43.99973" lon="3.49979">
        <ele>616.1</ele>
        <time>2026-05-28T07:31:50.000Z</time>
      </trkpt>
      <trkpt lat="43.99973" lon="3.49979">
        <ele>616.1</ele>
        <time>2026-05-28T07:31:51.000Z</time>
      </trkpt>
      <trkpt lat="43.99973" lon="3.49979">
        <ele>616.1</ele>
        <time>2026-05-28T07:31:52.000Z</time>
      </trkpt>
      <trkpt lat="43.99973" lon="3.49979">
        <ele>616.2</ele>
        <time>2026-05-28T07:31:53.000Z</time>
      </trkpt>
      <trkpt lat="43.99973" lon="3.49979">
        <ele>616.2</ele>
        <time>2026-05-28T07:31:54.000Z</time>
      </trkpt>
      <trkpt lat="43.99973" lon="3.49979">
        <ele>616.3</ele>
        <time>2026-05-28T07:31:55.000Z</time>
      </trkpt>
      <trkpt lat="43.99974" lon="3.49979">
        <ele>616.4</ele>
        <time>2026-05-28T07:31:56.000Z</time>
      </trkpt>
      <trkpt lat="43.99974" lon="3.49979">
        <ele>616.6</ele>
        <time>2026-05-28T07:31:57.000Z</time>
      </trkpt>
      <trkpt lat="43.99974" lon="3.49979">
        <ele>616.8</ele>
        <time>2026-05-28T07:31:58.000Z</time>
      </trkpt>
      <trkpt lat="43.99974" lon="3.4998">
        <ele>616.8</ele>
        <time>2026-05-28T07:31:59.000Z</time>
      </trkpt>
      <trkpt lat="43.99974" lon="3.4998">
        <ele>616.8</ele>
        <time>2026-05-28T07:32:00.000Z</time>
      </trkpt>
      <trkpt lat="43.99975" lon="3.49979">
        <ele>616.6</ele>
        <time>2026-05-28T07:32:01.000Z</time>
      </trkpt>
      <trkpt lat="43.99977" lon="3.49978">
        <ele>616.3</ele>
        <time>2026-05-28T07:32:02.000Z</time>
      </trkpt>
      <trkpt lat="43.99978" lon="3.49978">
        <ele>616.1</ele>
        <time>2026-05-28T07:32:03.000Z</time>
      </trkpt>
      <trkpt lat="43.99978" lon="3.49978">
        <ele>616.1</ele>
        <time>2026-05-28T07:32:04.000Z</time>
      </trkpt>
      <trkpt lat="43.99978" lon="3.49978">
        <ele>616.3</ele>
        <time>2026-05-28T07:32:05.000Z</time>
      </trkpt>
      <trkpt lat="43.99978" lon="3.49978">
        <ele>616.5</ele>
        <time>2026-05-28T07:32:06.000Z</time>
      </trkpt>
      <trkpt lat="43.99978" lon="3.49978">
        <ele>616.5</ele>
        <time>2026-05-28T07:32:07.000Z</time>
      </trkpt>
      <trkpt lat="43.99978" lon="3.49978">
        <ele>616.4</ele>
        <time>2026-05-28T07:32:08.000Z</time>
      </trkpt>
      <trkpt lat="43.99979" lon="3.49978">
        <ele>616.4</ele>
        <time>2026-05-28T07:32:09.000Z</time>
      </trkpt>
      <trkpt lat="43.9998" lon="3.49977">
        <ele>616.5</ele>
        <time>2026-05-28T07:32:10.000Z</time>
      </trkpt>
      <trkpt lat="43.99981" lon="3.49977">
        <ele>616.4</ele>
        <time>2026-05-28T07:32:11.000Z</time>
      </trkpt>
      <trkpt lat="43.99982" lon="3.49976">
        <ele>616.3</ele>
        <time>2026-05-28T07:32:12.000Z</time>
      </trkpt>
      <trkpt lat="43.99983" lon="3.49976">
        <ele>616.1</ele>
        <time>2026-05-28T07:32:13.000Z</time>
      </trkpt>
      <trkpt lat="43.99983" lon="3.49976">
        <ele>616.1</ele>
        <time>2026-05-28T07:32:14.000Z</time>
      </trkpt>
      <trkpt lat="43.99984" lon="3.49976">
        <ele>616.2</ele>
        <time>2026-05-28T07:32:15.000Z</time>
      </trkpt>
      <trkpt lat="43.99984" lon="3.49976">
        <ele>616.3</ele>
        <time>2026-05-28T07:32:16.000Z</time>
      </trkpt>
      <trkpt lat="43.99985" lon="3.49974">
        <ele>616.4</ele>
        <time>2026-05-28T07:32:17.000Z</time>
      </trkpt>
      <trkpt lat="43.99986" lon="3.49973">
        <ele>616.5</ele>
        <time>2026-05-28T07:32:18.000Z</time>
      </trkpt>
      <trkpt lat="43.99987" lon="3.49972">
        <ele>616.9</ele>
        <time>2026-05-28T07:32:19.000Z</time>
      </trkpt>
      <trkpt lat="43.99988" lon="3.49971">
        <ele>617.4</ele>
        <time>2026-05-28T07:32:20.000Z</time>
      </trkpt>
      <trkpt lat="43.99988" lon="3.49971">
        <ele>617.6</ele>
        <time>2026-05-28T07:32:21.000Z</time>
      </trkpt>
      <trkpt lat="43.99989" lon="3.49971">
        <ele>617.8</ele>
        <time>2026-05-28T07:32:22.000Z</time>
      </trkpt>
      <trkpt lat="43.99989" lon="3.4997">
        <ele>618</ele>
        <time>2026-05-28T07:32:23.000Z</time>
      </trkpt>
      <trkpt lat="43.9999" lon="3.49969">
        <ele>618</ele>
        <time>2026-05-28T07:32:24.000Z</time>
      </trkpt>
      <trkpt lat="43.99991" lon="3.49969">
        <ele>617.7</ele>
        <time>2026-05-28T07:32:25.000Z</time>
      </trkpt>
      <trkpt lat="43.99991" lon="3.49969">
        <ele>617.8</ele>
        <time>2026-05-28T07:32:26.000Z</time>
      </trkpt>
      <trkpt lat="43.99992" lon="3.49969">
        <ele>618</ele>
        <time>2026-05-28T07:32:27.000Z</time>
      </trkpt>
      <trkpt lat="43.99992" lon="3.49969">
        <ele>618.3</ele>
        <time>2026-05-28T07:32:28.000Z</time>
      </trkpt>
      <trkpt lat="43.99993" lon="3.49968">
        <ele>618.4</ele>
        <time>2026-05-28T07:32:29.000Z</time>
      </trkpt>
      <trkpt lat="43.99994" lon="3.49968">
        <ele>618.7</ele>
        <time>2026-05-28T07:32:30.000Z</time>
      </trkpt>
      <trkpt lat="43.99995" lon="3.49967">
        <ele>618.9</ele>
        <time>2026-05-28T07:32:31.000Z</time>
      </trkpt>
      <trkpt lat="43.99995" lon="3.49967">
        <ele>618.9</ele>
        <time>2026-05-28T07:32:32.000Z</time>
      </trkpt>
      <trkpt lat="43.99996" lon="3.49967">
        <ele>619.4</ele>
        <time>2026-05-28T07:32:33.000Z</time>
      </trkpt>
      <trkpt lat="43.99997" lon="3.49967">
        <ele>619.7</ele>
        <time>2026-05-28T07:32:34.000Z</time>
      </trkpt>
      <trkpt lat="43.99997" lon="3.49967">
        <ele>620</ele>
        <time>2026-05-28T07:32:35.000Z</time>
      </trkpt>
      <trkpt lat="43.99997" lon="3.49967">
        <ele>620</ele>
        <time>2026-05-28T07:32:36.000Z</time>
      </trkpt>
      <trkpt lat="43.99997" lon="3.49966">
        <ele>620.1</ele>
        <time>2026-05-28T07:32:37.000Z</time>
      </trkpt>
      <trkpt lat="43.99998" lon="3.49966">
        <ele>619.9</ele>
        <time>2026-05-28T07:32:38.000Z</time>
      </trkpt>
      <trkpt lat="43.99998" lon="3.49965">
        <ele>620</ele>
        <time>2026-05-28T07:32:39.000Z</time>
      </trkpt>
      <trkpt lat="43.99999" lon="3.49965">
        <ele>619.9</ele>
        <time>2026-05-28T07:32:40.000Z</time>
      </trkpt>
      <trkpt lat="43.99999" lon="3.49965">
        <ele>619.7</ele>
        <time>2026-05-28T07:32:41.000Z</time>
      </trkpt>
      <trkpt lat="43.99999" lon="3.49965">
        <ele>619.7</ele>
        <time>2026-05-28T07:32:42.000Z</time>
      </trkpt>
      <trkpt lat="43.99999" lon="3.49965">
        <ele>619.9</ele>
        <time>2026-05-28T07:32:43.000Z</time>
      </trkpt>
      <trkpt lat="43.99999" lon="3.49965">
        <ele>620.3</ele>
        <time>2026-05-28T07:32:44.000Z</time>
      </trkpt>
      <trkpt lat="44" lon="3.49965">
        <ele>620.3</ele>
        <time>2026-05-28T07:32:45.000Z</time>
      </trkpt>
      <trkpt lat="44.00001" lon="3.49964">
        <ele>620.2</ele>
        <time>2026-05-28T07:32:46.000Z</time>
      </trkpt>
      <trkpt lat="44.00002" lon="3.49964">
        <ele>620.2</ele>
        <time>2026-05-28T07:32:47.000Z</time>
      </trkpt>
      <trkpt lat="44.00002" lon="3.49964">
        <ele>620.2</ele>
        <time>2026-05-28T07:32:48.000Z</time>
      </trkpt>
      <trkpt lat="44.00002" lon="3.49964">
        <ele>620.3</ele>
        <time>2026-05-28T07:32:49.000Z</time>
      </trkpt>
      <trkpt lat="44.00002" lon="3.49964">
        <ele>620.6</ele>
        <time>2026-05-28T07:32:50.000Z</time>
      </trkpt>
      <trkpt lat="44.00003" lon="3.49964">
        <ele>620.8</ele>
        <time>2026-05-28T07:32:51.000Z</time>
      </trkpt>
      <trkpt lat="44.00003" lon="3.49964">
        <ele>621.1</ele>
        <time>2026-05-28T07:32:52.000Z</time>
      </trkpt>
      <trkpt lat="44.00003" lon="3.49964">
        <ele>621.2</ele>
        <time>2026-05-28T07:32:53.000Z</time>
      </trkpt>
      <trkpt lat="44.00003" lon="3.49964">
        <ele>621.3</ele>
        <time>2026-05-28T07:32:54.000Z</time>
      </trkpt>
      <trkpt lat="44.00004" lon="3.49964">
        <ele>621.3</ele>
        <time>2026-05-28T07:32:55.000Z</time>
      </trkpt>
      <trkpt lat="44.00005" lon="3.49963">
        <ele>621.6</ele>
        <time>2026-05-28T07:32:56.000Z</time>
      </trkpt>
      <trkpt lat="44.00006" lon="3.49963">
        <ele>621.5</ele>
        <time>2026-05-28T07:32:57.000Z</time>
      </trkpt>
      <trkpt lat="44.00007" lon="3.49963">
        <ele>621.5</ele>
        <time>2026-05-28T07:32:58.000Z</time>
      </trkpt>
      <trkpt lat="44.00008" lon="3.49963">
        <ele>621.5</ele>
        <time>2026-05-28T07:32:59.000Z</time>
      </trkpt>
      <trkpt lat="44.00009" lon="3.49963">
        <ele>621.7</ele>
        <time>2026-05-28T07:33:00.000Z</time>
      </trkpt>
      <trkpt lat="44.0001" lon="3.49962">
        <ele>621.8</ele>
        <time>2026-05-28T07:33:01.000Z</time>
      </trkpt>
      <trkpt lat="44.00011" lon="3.49962">
        <ele>621.9</ele>
        <time>2026-05-28T07:33:02.000Z</time>
      </trkpt>
      <trkpt lat="44.00011" lon="3.49962">
        <ele>622.1</ele>
        <time>2026-05-28T07:33:03.000Z</time>
      </trkpt>
      <trkpt lat="44.00012" lon="3.49962">
        <ele>622.3</ele>
        <time>2026-05-28T07:33:05.000Z</time>
      </trkpt>
      <trkpt lat="44.00013" lon="3.49962">
        <ele>622.4</ele>
        <time>2026-05-28T07:33:06.000Z</time>
      </trkpt>
      <trkpt lat="44.00013" lon="3.49962">
        <ele>622.6</ele>
        <time>2026-05-28T07:33:07.000Z</time>
      </trkpt>
      <trkpt lat="44.00013" lon="3.49962">
        <ele>622.7</ele>
        <time>2026-05-28T07:33:08.000Z</time>
      </trkpt>
      <trkpt lat="44.00013" lon="3.49962">
        <ele>623</ele>
        <time>2026-05-28T07:33:09.000Z</time>
      </trkpt>
      <trkpt lat="44.00013" lon="3.49962">
        <ele>623.1</ele>
        <time>2026-05-28T07:33:10.000Z</time>
      </trkpt>
      <trkpt lat="44.00013" lon="3.49962">
        <ele>623.1</ele>
        <time>2026-05-28T07:33:11.000Z</time>
      </trkpt>
      <trkpt lat="44.00013" lon="3.49962">
        <ele>623</ele>
        <time>2026-05-28T07:33:12.000Z</time>
      </trkpt>
      <trkpt lat="44.00013" lon="3.49962">
        <ele>623</ele>
        <time>2026-05-28T07:33:13.000Z</time>
      </trkpt>
      <trkpt lat="44.00013" lon="3.49962">
        <ele>623.1</ele>
        <time>2026-05-28T07:33:14.000Z</time>
      </trkpt>
      <trkpt lat="44.00013" lon="3.49962">
        <ele>623.3</ele>
        <time>2026-05-28T07:33:15.000Z</time>
      </trkpt>
      <trkpt lat="44.00013" lon="3.49962">
        <ele>623.6</ele>
        <time>2026-05-28T07:33:16.000Z</time>
      </trkpt>
      <trkpt lat="44.00013" lon="3.49962">
        <ele>623.7</ele>
        <time>2026-05-28T07:33:17.000Z</time>
      </trkpt>
      <trkpt lat="44.00013" lon="3.49962">
        <ele>623.5</ele>
        <time>2026-05-28T07:33:18.000Z</time>
      </trkpt>
      <trkpt lat="44.00013" lon="3.49962">
        <ele>623.8</ele>
        <time>2026-05-28T07:33:19.000Z</time>
      </trkpt>
      <trkpt lat="44.00014" lon="3.49962">
        <ele>623.9</ele>
        <time>2026-05-28T07:33:20.000Z</time>
      </trkpt>
      <trkpt lat="44.00014" lon="3.49961">
        <ele>624</ele>
        <time>2026-05-28T07:33:21.000Z</time>
      </trkpt>
      <trkpt lat="44.00015" lon="3.49961">
        <ele>624.1</ele>
        <time>2026-05-28T07:33:22.000Z</time>
      </trkpt>
      <trkpt lat="44.00015" lon="3.4996">
        <ele>624.2</ele>
        <time>2026-05-28T07:33:23.000Z</time>
      </trkpt>
      <trkpt lat="44.00017" lon="3.4996">
        <ele>624.4</ele>
        <time>2026-05-28T07:33:24.000Z</time>
      </trkpt>
      <trkpt lat="44.00018" lon="3.49959">
        <ele>624.5</ele>
        <time>2026-05-28T07:33:25.000Z</time>
      </trkpt>
      <trkpt lat="44.0002" lon="3.49958">
        <ele>624.6</ele>
        <time>2026-05-28T07:33:27.000Z</time>
      </trkpt>
      <trkpt lat="44.00021" lon="3.49957">
        <ele>624.6</ele>
        <time>2026-05-28T07:33:28.000Z</time>
      </trkpt>
      <trkpt lat="44.00022" lon="3.49956">
        <ele>624.6</ele>
        <time>2026-05-28T07:33:29.000Z</time>
      </trkpt>
      <trkpt lat="44.00023" lon="3.49956">
        <ele>624.5</ele>
        <time>2026-05-28T07:33:30.000Z</time>
      </trkpt>
      <trkpt lat="44.00024" lon="3.49955">
        <ele>624.6</ele>
        <time>2026-05-28T07:33:31.000Z</time>
      </trkpt>
      <trkpt lat="44.00024" lon="3.49955">
        <ele>624.8</ele>
        <time>2026-05-28T07:33:32.000Z</time>
      </trkpt>
      <trkpt lat="44.00025" lon="3.49954">
        <ele>624.9</ele>
        <time>2026-05-28T07:33:33.000Z</time>
      </trkpt>
      <trkpt lat="44.00026" lon="3.49953">
        <ele>625</ele>
        <time>2026-05-28T07:33:34.000Z</time>
      </trkpt>
      <trkpt lat="44.00026" lon="3.49953">
        <ele>625</ele>
        <time>2026-05-28T07:33:35.000Z</time>
      </trkpt>
      <trkpt lat="44.00027" lon="3.49952">
        <ele>625.1</ele>
        <time>2026-05-28T07:33:36.000Z</time>
      </trkpt>
      <trkpt lat="44.00027" lon="3.49952">
        <ele>625.2</ele>
        <time>2026-05-28T07:33:37.000Z</time>
      </trkpt>
      <trkpt lat="44.00027" lon="3.49952">
        <ele>625.1</ele>
        <time>2026-05-28T07:33:38.000Z</time>
      </trkpt>
      <trkpt lat="44.00028" lon="3.49952">
        <ele>625.1</ele>
        <time>2026-05-28T07:33:39.000Z</time>
      </trkpt>
      <trkpt lat="44.00029" lon="3.49952">
        <ele>625</ele>
        <time>2026-05-28T07:33:40.000Z</time>
      </trkpt>
      <trkpt lat="44.0003" lon="3.49951">
        <ele>625.2</ele>
        <time>2026-05-28T07:33:41.000Z</time>
      </trkpt>
      <trkpt lat="44.0003" lon="3.49951">
        <ele>625.3</ele>
        <time>2026-05-28T07:33:42.000Z</time>
      </trkpt>
      <trkpt lat="44.00031" lon="3.4995">
        <ele>625.5</ele>
        <time>2026-05-28T07:33:43.000Z</time>
      </trkpt>
      <trkpt lat="44.00031" lon="3.4995">
        <ele>625.6</ele>
        <time>2026-05-28T07:33:44.000Z</time>
      </trkpt>
      <trkpt lat="44.00032" lon="3.49949">
        <ele>625.5</ele>
        <time>2026-05-28T07:33:45.000Z</time>
      </trkpt>
      <trkpt lat="44.00033" lon="3.49949">
        <ele>625.6</ele>
        <time>2026-05-28T07:33:46.000Z</time>
      </trkpt>
      <trkpt lat="44.00033" lon="3.49948">
        <ele>625.7</ele>
        <time>2026-05-28T07:33:47.000Z</time>
      </trkpt>
      <trkpt lat="44.00033" lon="3.49948">
        <ele>625.3</ele>
        <time>2026-05-28T07:33:48.000Z</time>
      </trkpt>
      <trkpt lat="44.00034" lon="3.49947">
        <ele>625.4</ele>
        <time>2026-05-28T07:33:49.000Z</time>
      </trkpt>
      <trkpt lat="44.00034" lon="3.49947">
        <ele>625.7</ele>
        <time>2026-05-28T07:33:50.000Z</time>
      </trkpt>
      <trkpt lat="44.00035" lon="3.49946">
        <ele>625.8</ele>
        <time>2026-05-28T07:33:51.000Z</time>
      </trkpt>
      <trkpt lat="44.00035" lon="3.49945">
        <ele>625.7</ele>
        <time>2026-05-28T07:33:52.000Z</time>
      </trkpt>
      <trkpt lat="44.00035" lon="3.49944">
        <ele>625.8</ele>
        <time>2026-05-28T07:33:53.000Z</time>
      </trkpt>
      <trkpt lat="44.00035" lon="3.49944">
        <ele>625.7</ele>
        <time>2026-05-28T07:33:54.000Z</time>
      </trkpt>
      <trkpt lat="44.00036" lon="3.49944">
        <ele>625.8</ele>
        <time>2026-05-28T07:33:55.000Z</time>
      </trkpt>
      <trkpt lat="44.00036" lon="3.49943">
        <ele>625.8</ele>
        <time>2026-05-28T07:33:56.000Z</time>
      </trkpt>
      <trkpt lat="44.00037" lon="3.49943">
        <ele>625.8</ele>
        <time>2026-05-28T07:33:57.000Z</time>
      </trkpt>
      <trkpt lat="44.00038" lon="3.49942">
        <ele>626</ele>
        <time>2026-05-28T07:33:59.000Z</time>
      </trkpt>
      <trkpt lat="44.00039" lon="3.49941">
        <ele>626.2</ele>
        <time>2026-05-28T07:34:00.000Z</time>
      </trkpt>
      <trkpt lat="44.00039" lon="3.4994">
        <ele>626.3</ele>
        <time>2026-05-28T07:34:01.000Z</time>
      </trkpt>
      <trkpt lat="44.00039" lon="3.49939">
        <ele>626.5</ele>
        <time>2026-05-28T07:34:02.000Z</time>
      </trkpt>
      <trkpt lat="44.0004" lon="3.49939">
        <ele>626.5</ele>
        <time>2026-05-28T07:34:03.000Z</time>
      </trkpt>
      <trkpt lat="44.0004" lon="3.49938">
        <ele>626.7</ele>
        <time>2026-05-28T07:34:04.000Z</time>
      </trkpt>
      <trkpt lat="44.0004" lon="3.49938">
        <ele>626.8</ele>
        <time>2026-05-28T07:34:05.000Z</time>
      </trkpt>
      <trkpt lat="44.0004" lon="3.49938">
        <ele>626.9</ele>
        <time>2026-05-28T07:34:06.000Z</time>
      </trkpt>
      <trkpt lat="44.0004" lon="3.49938">
        <ele>626.9</ele>
        <time>2026-05-28T07:34:07.000Z</time>
      </trkpt>
      <trkpt lat="44.00041" lon="3.49938">
        <ele>626.9</ele>
        <time>2026-05-28T07:34:08.000Z</time>
      </trkpt>
      <trkpt lat="44.00041" lon="3.49937">
        <ele>626.7</ele>
        <time>2026-05-28T07:34:09.000Z</time>
      </trkpt>
      <trkpt lat="44.00041" lon="3.49937">
        <ele>627</ele>
        <time>2026-05-28T07:34:10.000Z</time>
      </trkpt>
      <trkpt lat="44.00041" lon="3.49937">
        <ele>627.2</ele>
        <time>2026-05-28T07:34:12.000Z</time>
      </trkpt>
      <trkpt lat="44.00041" lon="3.49937">
        <ele>627.2</ele>
        <time>2026-05-28T07:34:13.000Z</time>
      </trkpt>
      <trkpt lat="44.00041" lon="3.49937">
        <ele>627.3</ele>
        <time>2026-05-28T07:34:14.000Z</time>
      </trkpt>
      <trkpt lat="44.00041" lon="3.49936">
        <ele>627.3</ele>
        <time>2026-05-28T07:34:15.000Z</time>
      </trkpt>
      <trkpt lat="44.00042" lon="3.49935">
        <ele>627.3</ele>
        <time>2026-05-28T07:34:16.000Z</time>
      </trkpt>
      <trkpt lat="44.00042" lon="3.49935">
        <ele>627.5</ele>
        <time>2026-05-28T07:34:17.000Z</time>
      </trkpt>
      <trkpt lat="44.00042" lon="3.49935">
        <ele>627.5</ele>
        <time>2026-05-28T07:34:18.000Z</time>
      </trkpt>
      <trkpt lat="44.00042" lon="3.49935">
        <ele>627.6</ele>
        <time>2026-05-28T07:34:19.000Z</time>
      </trkpt>
      <trkpt lat="44.00042" lon="3.49935">
        <ele>627.6</ele>
        <time>2026-05-28T07:34:20.000Z</time>
      </trkpt>
      <trkpt lat="44.00042" lon="3.49935">
        <ele>627.5</ele>
        <time>2026-05-28T07:34:21.000Z</time>
      </trkpt>
      <trkpt lat="44.00042" lon="3.49935">
        <ele>627.4</ele>
        <time>2026-05-28T07:34:22.000Z</time>
      </trkpt>
      <trkpt lat="44.00042" lon="3.49934">
        <ele>627.3</ele>
        <time>2026-05-28T07:34:23.000Z</time>
      </trkpt>
      <trkpt lat="44.00042" lon="3.49933">
        <ele>627.2</ele>
        <time>2026-05-28T07:34:24.000Z</time>
      </trkpt>
      <trkpt lat="44.00043" lon="3.49932">
        <ele>627</ele>
        <time>2026-05-28T07:34:25.000Z</time>
      </trkpt>
      <trkpt lat="44.00043" lon="3.4993">
        <ele>626.8</ele>
        <time>2026-05-28T07:34:26.000Z</time>
      </trkpt>
      <trkpt lat="44.00044" lon="3.49929">
        <ele>626.6</ele>
        <time>2026-05-28T07:34:27.000Z</time>
      </trkpt>
      <trkpt lat="44.00044" lon="3.49928">
        <ele>626.5</ele>
        <time>2026-05-28T07:34:28.000Z</time>
      </trkpt>
      <trkpt lat="44.00045" lon="3.49926">
        <ele>626.7</ele>
        <time>2026-05-28T07:34:29.000Z</time>
      </trkpt>
      <trkpt lat="44.00045" lon="3.49924">
        <ele>626.8</ele>
        <time>2026-05-28T07:34:30.000Z</time>
      </trkpt>
      <trkpt lat="44.00046" lon="3.49923">
        <ele>626.8</ele>
        <time>2026-05-28T07:34:31.000Z</time>
      </trkpt>
      <trkpt lat="44.00047" lon="3.49923">
        <ele>627</ele>
        <time>2026-05-28T07:34:32.000Z</time>
      </trkpt>
      <trkpt lat="44.00048" lon="3.49922">
        <ele>627.3</ele>
        <time>2026-05-28T07:34:34.000Z</time>
      </trkpt>
      <trkpt lat="44.00048" lon="3.49921">
        <ele>627.2</ele>
        <time>2026-05-28T07:34:35.000Z</time>
      </trkpt>
      <trkpt lat="44.00048" lon="3.49921">
        <ele>627.2</ele>
        <time>2026-05-28T07:34:36.000Z</time>
      </trkpt>
      <trkpt lat="44.00048" lon="3.49921">
        <ele>627.1</ele>
        <time>2026-05-28T07:34:37.000Z</time>
      </trkpt>
      <trkpt lat="44.00048" lon="3.49921">
        <ele>627.1</ele>
        <time>2026-05-28T07:34:38.000Z</time>
      </trkpt>
      <trkpt lat="44.00048" lon="3.49921">
        <ele>626.8</ele>
        <time>2026-05-28T07:34:39.000Z</time>
      </trkpt>
      <trkpt lat="44.00048" lon="3.49921">
        <ele>627.1</ele>
        <time>2026-05-28T07:34:40.000Z</time>
      </trkpt>
      <trkpt lat="44.00049" lon="3.4992">
        <ele>627.5</ele>
        <time>2026-05-28T07:34:41.000Z</time>
      </trkpt>
      <trkpt lat="44.00049" lon="3.49919">
        <ele>627.7</ele>
        <time>2026-05-28T07:34:42.000Z</time>
      </trkpt>
      <trkpt lat="44.00049" lon="3.49918">
        <ele>627.7</ele>
        <time>2026-05-28T07:34:43.000Z</time>
      </trkpt>
      <trkpt lat="44.0005" lon="3.49918">
        <ele>627.9</ele>
        <time>2026-05-28T07:34:44.000Z</time>
      </trkpt>
      <trkpt lat="44.0005" lon="3.49918">
        <ele>627.9</ele>
        <time>2026-05-28T07:34:45.000Z</time>
      </trkpt>
      <trkpt lat="44.0005" lon="3.49918">
        <ele>627.9</ele>
        <time>2026-05-28T07:34:47.000Z</time>
      </trkpt>
      <trkpt lat="44.0005" lon="3.49918">
        <ele>628</ele>
        <time>2026-05-28T07:34:48.000Z</time>
      </trkpt>
      <trkpt lat="44.00049" lon="3.49917">
        <ele>628</ele>
        <time>2026-05-28T07:34:49.000Z</time>
      </trkpt>
      <trkpt lat="44.00049" lon="3.49916">
        <ele>627.9</ele>
        <time>2026-05-28T07:34:50.000Z</time>
      </trkpt>
      <trkpt lat="44.00049" lon="3.49916">
        <ele>628</ele>
        <time>2026-05-28T07:34:51.000Z</time>
      </trkpt>
      <trkpt lat="44.00049" lon="3.49916">
        <ele>627.9</ele>
        <time>2026-05-28T07:34:52.000Z</time>
      </trkpt>
      <trkpt lat="44.00049" lon="3.49914">
        <ele>628</ele>
        <time>2026-05-28T07:34:53.000Z</time>
      </trkpt>
      <trkpt lat="44.00049" lon="3.49913">
        <ele>628.1</ele>
        <time>2026-05-28T07:34:54.000Z</time>
      </trkpt>
      <trkpt lat="44.00049" lon="3.49913">
        <ele>628.1</ele>
        <time>2026-05-28T07:34:55.000Z</time>
      </trkpt>
      <trkpt lat="44.00049" lon="3.49912">
        <ele>628.3</ele>
        <time>2026-05-28T07:34:56.000Z</time>
      </trkpt>
      <trkpt lat="44.00049" lon="3.49912">
        <ele>628.3</ele>
        <time>2026-05-28T07:34:57.000Z</time>
      </trkpt>
      <trkpt lat="44.0005" lon="3.49912">
        <ele>628.2</ele>
        <time>2026-05-28T07:34:58.000Z</time>
      </trkpt>
      <trkpt lat="44.0005" lon="3.49912">
        <ele>628.2</ele>
        <time>2026-05-28T07:34:59.000Z</time>
      </trkpt>
      <trkpt lat="44.00051" lon="3.49912">
        <ele>628.2</ele>
        <time>2026-05-28T07:35:00.000Z</time>
      </trkpt>
      <trkpt lat="44.00051" lon="3.49912">
        <ele>628.3</ele>
        <time>2026-05-28T07:35:01.000Z</time>
      </trkpt>
      <trkpt lat="44.00051" lon="3.49911">
        <ele>628.4</ele>
        <time>2026-05-28T07:35:02.000Z</time>
      </trkpt>
      <trkpt lat="44.00051" lon="3.49911">
        <ele>628.3</ele>
        <time>2026-05-28T07:35:03.000Z</time>
      </trkpt>
      <trkpt lat="44.00051" lon="3.49911">
        <ele>628.4</ele>
        <time>2026-05-28T07:35:04.000Z</time>
      </trkpt>
      <trkpt lat="44.00051" lon="3.49911">
        <ele>628.4</ele>
        <time>2026-05-28T07:35:05.000Z</time>
      </trkpt>
      <trkpt lat="44.00051" lon="3.49911">
        <ele>628.6</ele>
        <time>2026-05-28T07:35:06.000Z</time>
      </trkpt>
      <trkpt lat="44.00051" lon="3.49911">
        <ele>628.7</ele>
        <time>2026-05-28T07:35:07.000Z</time>
      </trkpt>
      <trkpt lat="44.00052" lon="3.49911">
        <ele>628.8</ele>
        <time>2026-05-28T07:35:08.000Z</time>
      </trkpt>
      <trkpt lat="44.00053" lon="3.49909">
        <ele>629.2</ele>
        <time>2026-05-28T07:35:10.000Z</time>
      </trkpt>
      <trkpt lat="44.00054" lon="3.49908">
        <ele>629.4</ele>
        <time>2026-05-28T07:35:11.000Z</time>
      </trkpt>
      <trkpt lat="44.00054" lon="3.49907">
        <ele>629.4</ele>
        <time>2026-05-28T07:35:12.000Z</time>
      </trkpt>
      <trkpt lat="44.00054" lon="3.49906">
        <ele>629.4</ele>
        <time>2026-05-28T07:35:13.000Z</time>
      </trkpt>
      <trkpt lat="44.00054" lon="3.49905">
        <ele>629.4</ele>
        <time>2026-05-28T07:35:14.000Z</time>
      </trkpt>
      <trkpt lat="44.00055" lon="3.49905">
        <ele>629.6</ele>
        <time>2026-05-28T07:35:15.000Z</time>
      </trkpt>
      <trkpt lat="44.00056" lon="3.49905">
        <ele>629.8</ele>
        <time>2026-05-28T07:35:16.000Z</time>
      </trkpt>
      <trkpt lat="44.00055" lon="3.49904">
        <ele>629.9</ele>
        <time>2026-05-28T07:35:17.000Z</time>
      </trkpt>
      <trkpt lat="44.00056" lon="3.49903">
        <ele>629.9</ele>
        <time>2026-05-28T07:35:18.000Z</time>
      </trkpt>
      <trkpt lat="44.00056" lon="3.49903">
        <ele>628.7</ele>
        <time>2026-05-28T07:35:19.000Z</time>
      </trkpt>
      <trkpt lat="44.00056" lon="3.49903">
        <ele>629.2</ele>
        <time>2026-05-28T07:35:20.000Z</time>
      </trkpt>
      <trkpt lat="44.00056" lon="3.49903">
        <ele>629.6</ele>
        <time>2026-05-28T07:35:21.000Z</time>
      </trkpt>
      <trkpt lat="44.00056" lon="3.49903">
        <ele>629.9</ele>
        <time>2026-05-28T07:35:22.000Z</time>
      </trkpt>
      <trkpt lat="44.00056" lon="3.49903">
        <ele>629.9</ele>
        <time>2026-05-28T07:35:23.000Z</time>
      </trkpt>
      <trkpt lat="44.00056" lon="3.49904">
        <ele>630</ele>
        <time>2026-05-28T07:35:24.000Z</time>
      </trkpt>
      <trkpt lat="44.00056" lon="3.49904">
        <ele>630.1</ele>
        <time>2026-05-28T07:35:25.000Z</time>
      </trkpt>
      <trkpt lat="44.00056" lon="3.49904">
        <ele>630.2</ele>
        <time>2026-05-28T07:35:26.000Z</time>
      </trkpt>
      <trkpt lat="44.00056" lon="3.49904">
        <ele>630.1</ele>
        <time>2026-05-28T07:35:27.000Z</time>
      </trkpt>
      <trkpt lat="44.00057" lon="3.49904">
        <ele>630.2</ele>
        <time>2026-05-28T07:35:28.000Z</time>
      </trkpt>
      <trkpt lat="44.00058" lon="3.49904">
        <ele>630.6</ele>
        <time>2026-05-28T07:35:29.000Z</time>
      </trkpt>
      <trkpt lat="44.00058" lon="3.49905">
        <ele>631</ele>
        <time>2026-05-28T07:35:30.000Z</time>
      </trkpt>
      <trkpt lat="44.00058" lon="3.49904">
        <ele>631.5</ele>
        <time>2026-05-28T07:35:31.000Z</time>
      </trkpt>
      <trkpt lat="44.00058" lon="3.49904">
        <ele>631.9</ele>
        <time>2026-05-28T07:35:32.000Z</time>
      </trkpt>
      <trkpt lat="44.00058" lon="3.49904">
        <ele>632.1</ele>
        <time>2026-05-28T07:35:33.000Z</time>
      </trkpt>
      <trkpt lat="44.00058" lon="3.49904">
        <ele>632.3</ele>
        <time>2026-05-28T07:35:34.000Z</time>
      </trkpt>
      <trkpt lat="44.00058" lon="3.49904">
        <ele>632.4</ele>
        <time>2026-05-28T07:35:35.000Z</time>
      </trkpt>
      <trkpt lat="44.00057" lon="3.49903">
        <ele>632.8</ele>
        <time>2026-05-28T07:35:36.000Z</time>
      </trkpt>
      <trkpt lat="44.00058" lon="3.49903">
        <ele>633.2</ele>
        <time>2026-05-28T07:35:37.000Z</time>
      </trkpt>
      <trkpt lat="44.00058" lon="3.49903">
        <ele>633.3</ele>
        <time>2026-05-28T07:35:38.000Z</time>
      </trkpt>
      <trkpt lat="44.00059" lon="3.49902">
        <ele>633.7</ele>
        <time>2026-05-28T07:35:39.000Z</time>
      </trkpt>
      <trkpt lat="44.0006" lon="3.49901">
        <ele>634.1</ele>
        <time>2026-05-28T07:35:40.000Z</time>
      </trkpt>
      <trkpt lat="44.00061" lon="3.499">
        <ele>634.2</ele>
        <time>2026-05-28T07:35:41.000Z</time>
      </trkpt>
      <trkpt lat="44.00062" lon="3.49899">
        <ele>634.4</ele>
        <time>2026-05-28T07:35:42.000Z</time>
      </trkpt>
      <trkpt lat="44.00062" lon="3.49898">
        <ele>634.6</ele>
        <time>2026-05-28T07:35:43.000Z</time>
      </trkpt>
      <trkpt lat="44.00063" lon="3.49897">
        <ele>634.9</ele>
        <time>2026-05-28T07:35:44.000Z</time>
      </trkpt>
      <trkpt lat="44.00063" lon="3.49896">
        <ele>635</ele>
        <time>2026-05-28T07:35:45.000Z</time>
      </trkpt>
      <trkpt lat="44.00064" lon="3.49896">
        <ele>635.4</ele>
        <time>2026-05-28T07:35:46.000Z</time>
      </trkpt>
      <trkpt lat="44.00065" lon="3.49894">
        <ele>635.8</ele>
        <time>2026-05-28T07:35:47.000Z</time>
      </trkpt>
      <trkpt lat="44.00065" lon="3.49894">
        <ele>636</ele>
        <time>2026-05-28T07:35:48.000Z</time>
      </trkpt>
      <trkpt lat="44.00067" lon="3.49895">
        <ele>635.7</ele>
        <time>2026-05-28T07:35:49.000Z</time>
      </trkpt>
      <trkpt lat="44.00068" lon="3.49896">
        <ele>635.7</ele>
        <time>2026-05-28T07:35:50.000Z</time>
      </trkpt>
      <trkpt lat="44.00068" lon="3.49895">
        <ele>635</ele>
        <time>2026-05-28T07:35:51.000Z</time>
      </trkpt>
      <trkpt lat="44.00069" lon="3.49896">
        <ele>635.1</ele>
        <time>2026-05-28T07:35:52.000Z</time>
      </trkpt>
      <trkpt lat="44.0007" lon="3.49896">
        <ele>634.8</ele>
        <time>2026-05-28T07:35:53.000Z</time>
      </trkpt>
      <trkpt lat="44.0007" lon="3.49896">
        <ele>634.9</ele>
        <time>2026-05-28T07:35:54.000Z</time>
      </trkpt>
      <trkpt lat="44.0007" lon="3.49895">
        <ele>634.7</ele>
        <time>2026-05-28T07:35:55.000Z</time>
      </trkpt>
      <trkpt lat="44.00071" lon="3.49895">
        <ele>634.7</ele>
        <time>2026-05-28T07:35:56.000Z</time>
      </trkpt>
      <trkpt lat="44.00072" lon="3.49894">
        <ele>634.7</ele>
        <time>2026-05-28T07:35:57.000Z</time>
      </trkpt>
      <trkpt lat="44.00072" lon="3.49894">
        <ele>634.8</ele>
        <time>2026-05-28T07:35:58.000Z</time>
      </trkpt>
      <trkpt lat="44.00073" lon="3.49893">
        <ele>634.7</ele>
        <time>2026-05-28T07:35:59.000Z</time>
      </trkpt>
      <trkpt lat="44.00075" lon="3.49893">
        <ele>634.7</ele>
        <time>2026-05-28T07:36:00.000Z</time>
      </trkpt>
      <trkpt lat="44.00075" lon="3.49893">
        <ele>634.6</ele>
        <time>2026-05-28T07:36:01.000Z</time>
      </trkpt>
      <trkpt lat="44.00076" lon="3.49893">
        <ele>634.6</ele>
        <time>2026-05-28T07:36:02.000Z</time>
      </trkpt>
      <trkpt lat="44.00076" lon="3.49893">
        <ele>634.4</ele>
        <time>2026-05-28T07:36:03.000Z</time>
      </trkpt>
      <trkpt lat="44.00077" lon="3.49893">
        <ele>634.5</ele>
        <time>2026-05-28T07:36:04.000Z</time>
      </trkpt>
      <trkpt lat="44.00077" lon="3.49893">
        <ele>634.5</ele>
        <time>2026-05-28T07:36:05.000Z</time>
      </trkpt>
      <trkpt lat="44.00077" lon="3.49892">
        <ele>634.6</ele>
        <time>2026-05-28T07:36:06.000Z</time>
      </trkpt>
      <trkpt lat="44.00077" lon="3.49892">
        <ele>634.8</ele>
        <time>2026-05-28T07:36:07.000Z</time>
      </trkpt>
      <trkpt lat="44.00077" lon="3.49892">
        <ele>634.9</ele>
        <time>2026-05-28T07:36:08.000Z</time>
      </trkpt>
      <trkpt lat="44.00078" lon="3.49892">
        <ele>635.1</ele>
        <time>2026-05-28T07:36:09.000Z</time>
      </trkpt>
      <trkpt lat="44.00078" lon="3.49892">
        <ele>635.3</ele>
        <time>2026-05-28T07:36:10.000Z</time>
      </trkpt>
      <trkpt lat="44.00077" lon="3.49891">
        <ele>635.4</ele>
        <time>2026-05-28T07:36:11.000Z</time>
      </trkpt>
      <trkpt lat="44.00077" lon="3.49891">
        <ele>635</ele>
        <time>2026-05-28T07:36:12.000Z</time>
      </trkpt>
      <trkpt lat="44.00077" lon="3.49891">
        <ele>635</ele>
        <time>2026-05-28T07:36:13.000Z</time>
      </trkpt>
      <trkpt lat="44.00077" lon="3.49891">
        <ele>635.2</ele>
        <time>2026-05-28T07:36:14.000Z</time>
      </trkpt>
      <trkpt lat="44.00077" lon="3.49891">
        <ele>635.3</ele>
        <time>2026-05-28T07:36:15.000Z</time>
      </trkpt>
      <trkpt lat="44.00078" lon="3.49891">
        <ele>635.3</ele>
        <time>2026-05-28T07:36:16.000Z</time>
      </trkpt>
      <trkpt lat="44.00079" lon="3.49891">
        <ele>635.4</ele>
        <time>2026-05-28T07:36:17.000Z</time>
      </trkpt>
      <trkpt lat="44.0008" lon="3.49892">
        <ele>635.3</ele>
        <time>2026-05-28T07:36:18.000Z</time>
      </trkpt>
      <trkpt lat="44.00081" lon="3.49892">
        <ele>635.4</ele>
        <time>2026-05-28T07:36:19.000Z</time>
      </trkpt>
      <trkpt lat="44.00081" lon="3.49892">
        <ele>635.6</ele>
        <time>2026-05-28T07:36:20.000Z</time>
      </trkpt>
      <trkpt lat="44.00081" lon="3.49892">
        <ele>635.7</ele>
        <time>2026-05-28T07:36:21.000Z</time>
      </trkpt>
      <trkpt lat="44.00081" lon="3.49892">
        <ele>635.9</ele>
        <time>2026-05-28T07:36:22.000Z</time>
      </trkpt>
      <trkpt lat="44.00081" lon="3.49892">
        <ele>636.2</ele>
        <time>2026-05-28T07:36:23.000Z</time>
      </trkpt>
      <trkpt lat="44.00081" lon="3.49892">
        <ele>636.4</ele>
        <time>2026-05-28T07:36:24.000Z</time>
      </trkpt>
      <trkpt lat="44.00081" lon="3.49892">
        <ele>636.5</ele>
        <time>2026-05-28T07:36:25.000Z</time>
      </trkpt>
      <trkpt lat="44.00081" lon="3.49892">
        <ele>636.5</ele>
        <time>2026-05-28T07:36:26.000Z</time>
      </trkpt>
      <trkpt lat="44.00081" lon="3.49892">
        <ele>636.7</ele>
        <time>2026-05-28T07:36:27.000Z</time>
      </trkpt>
      <trkpt lat="44.00081" lon="3.49892">
        <ele>636.8</ele>
        <time>2026-05-28T07:36:28.000Z</time>
      </trkpt>
      <trkpt lat="44.00081" lon="3.49892">
        <ele>636.9</ele>
        <time>2026-05-28T07:36:29.000Z</time>
      </trkpt>
      <trkpt lat="44.0008" lon="3.49892">
        <ele>637</ele>
        <time>2026-05-28T07:36:30.000Z</time>
      </trkpt>
      <trkpt lat="44.0008" lon="3.49892">
        <ele>637</ele>
        <time>2026-05-28T07:36:31.000Z</time>
      </trkpt>
      <trkpt lat="44.0008" lon="3.49892">
        <ele>637.3</ele>
        <time>2026-05-28T07:36:32.000Z</time>
      </trkpt>
      <trkpt lat="44.00079" lon="3.49892">
        <ele>637.3</ele>
        <time>2026-05-28T07:36:33.000Z</time>
      </trkpt>
      <trkpt lat="44.0008" lon="3.49891">
        <ele>637.3</ele>
        <time>2026-05-28T07:36:34.000Z</time>
      </trkpt>
      <trkpt lat="44.0008" lon="3.49891">
        <ele>637.4</ele>
        <time>2026-05-28T07:36:35.000Z</time>
      </trkpt>
      <trkpt lat="44.0008" lon="3.4989">
        <ele>637.4</ele>
        <time>2026-05-28T07:36:36.000Z</time>
      </trkpt>
      <trkpt lat="44.0008" lon="3.49889">
        <ele>637.3</ele>
        <time>2026-05-28T07:36:37.000Z</time>
      </trkpt>
      <trkpt lat="44.00081" lon="3.49888">
        <ele>637.3</ele>
        <time>2026-05-28T07:36:38.000Z</time>
      </trkpt>
      <trkpt lat="44.00082" lon="3.49888">
        <ele>637.1</ele>
        <time>2026-05-28T07:36:39.000Z</time>
      </trkpt>
      <trkpt lat="44.00082" lon="3.49887">
        <ele>637.2</ele>
        <time>2026-05-28T07:36:40.000Z</time>
      </trkpt>
      <trkpt lat="44.00083" lon="3.49886">
        <ele>637</ele>
        <time>2026-05-28T07:36:41.000Z</time>
      </trkpt>
      <trkpt lat="44.00083" lon="3.49886">
        <ele>637</ele>
        <time>2026-05-28T07:36:42.000Z</time>
      </trkpt>
      <trkpt lat="44.00083" lon="3.49885">
        <ele>637.1</ele>
        <time>2026-05-28T07:36:43.000Z</time>
      </trkpt>
      <trkpt lat="44.00084" lon="3.49884">
        <ele>637.5</ele>
        <time>2026-05-28T07:36:44.000Z</time>
      </trkpt>
      <trkpt lat="44.00085" lon="3.49883">
        <ele>637.6</ele>
        <time>2026-05-28T07:36:45.000Z</time>
      </trkpt>
      <trkpt lat="44.00086" lon="3.49882">
        <ele>637.7</ele>
        <time>2026-05-28T07:36:46.000Z</time>
      </trkpt>
      <trkpt lat="44.00087" lon="3.49882">
        <ele>638</ele>
        <time>2026-05-28T07:36:47.000Z</time>
      </trkpt>
      <trkpt lat="44.00087" lon="3.49882">
        <ele>638.2</ele>
        <time>2026-05-28T07:36:48.000Z</time>
      </trkpt>
      <trkpt lat="44.00087" lon="3.49882">
        <ele>638.2</ele>
        <time>2026-05-28T07:36:49.000Z</time>
      </trkpt>
      <trkpt lat="44.00088" lon="3.49882">
        <ele>638.1</ele>
        <time>2026-05-28T07:36:50.000Z</time>
      </trkpt>
      <trkpt lat="44.00088" lon="3.49883">
        <ele>638</ele>
        <time>2026-05-28T07:36:51.000Z</time>
      </trkpt>
      <trkpt lat="44.00088" lon="3.49884">
        <ele>638</ele>
        <time>2026-05-28T07:36:52.000Z</time>
      </trkpt>
      <trkpt lat="44.00089" lon="3.49884">
        <ele>638</ele>
        <time>2026-05-28T07:36:53.000Z</time>
      </trkpt>
      <trkpt lat="44.00089" lon="3.49883">
        <ele>637.9</ele>
        <time>2026-05-28T07:36:54.000Z</time>
      </trkpt>
      <trkpt lat="44.00089" lon="3.49883">
        <ele>637.7</ele>
        <time>2026-05-28T07:36:55.000Z</time>
      </trkpt>
      <trkpt lat="44.00089" lon="3.49884">
        <ele>637.7</ele>
        <time>2026-05-28T07:36:56.000Z</time>
      </trkpt>
      <trkpt lat="44.00089" lon="3.49884">
        <ele>637.7</ele>
        <time>2026-05-28T07:36:57.000Z</time>
      </trkpt>
      <trkpt lat="44.00089" lon="3.49884">
        <ele>637.8</ele>
        <time>2026-05-28T07:36:58.000Z</time>
      </trkpt>
      <trkpt lat="44.00089" lon="3.49884">
        <ele>637.8</ele>
        <time>2026-05-28T07:36:59.000Z</time>
      </trkpt>
      <trkpt lat="44.00089" lon="3.49884">
        <ele>637.9</ele>
        <time>2026-05-28T07:37:00.000Z</time>
      </trkpt>
      <trkpt lat="44.0009" lon="3.49883">
        <ele>638</ele>
        <time>2026-05-28T07:37:01.000Z</time>
      </trkpt>
      <trkpt lat="44.0009" lon="3.49883">
        <ele>638.6</ele>
        <time>2026-05-28T07:37:02.000Z</time>
      </trkpt>
      <trkpt lat="44.0009" lon="3.49884">
        <ele>639.1</ele>
        <time>2026-05-28T07:37:03.000Z</time>
      </trkpt>
      <trkpt lat="44.0009" lon="3.49883">
        <ele>639.5</ele>
        <time>2026-05-28T07:37:04.000Z</time>
      </trkpt>
      <trkpt lat="44.0009" lon="3.49883">
        <ele>640</ele>
        <time>2026-05-28T07:37:05.000Z</time>
      </trkpt>
      <trkpt lat="44.0009" lon="3.49883">
        <ele>640.4</ele>
        <time>2026-05-28T07:37:06.000Z</time>
      </trkpt>
      <trkpt lat="44.00091" lon="3.49883">
        <ele>640.5</ele>
        <time>2026-05-28T07:37:07.000Z</time>
      </trkpt>
      <trkpt lat="44.00091" lon="3.49883">
        <ele>640.6</ele>
        <time>2026-05-28T07:37:08.000Z</time>
      </trkpt>
      <trkpt lat="44.00091" lon="3.49883">
        <ele>640.7</ele>
        <time>2026-05-28T07:37:09.000Z</time>
      </trkpt>
      <trkpt lat="44.00091" lon="3.49882">
        <ele>640.8</ele>
        <time>2026-05-28T07:37:10.000Z</time>
      </trkpt>
      <trkpt lat="44.00091" lon="3.49882">
        <ele>641.1</ele>
        <time>2026-05-28T07:37:11.000Z</time>
      </trkpt>
      <trkpt lat="44.00091" lon="3.49882">
        <ele>641.4</ele>
        <time>2026-05-28T07:37:12.000Z</time>
      </trkpt>
      <trkpt lat="44.00091" lon="3.49882">
        <ele>641.6</ele>
        <time>2026-05-28T07:37:13.000Z</time>
      </trkpt>
      <trkpt lat="44.00091" lon="3.49882">
        <ele>641.6</ele>
        <time>2026-05-28T07:37:14.000Z</time>
      </trkpt>
      <trkpt lat="44.00091" lon="3.49882">
        <ele>641.9</ele>
        <time>2026-05-28T07:37:15.000Z</time>
      </trkpt>
      <trkpt lat="44.00092" lon="3.49882">
        <ele>642</ele>
        <time>2026-05-28T07:37:17.000Z</time>
      </trkpt>
      <trkpt lat="44.00092" lon="3.49883">
        <ele>641.9</ele>
        <time>2026-05-28T07:37:18.000Z</time>
      </trkpt>
      <trkpt lat="44.00092" lon="3.49882">
        <ele>641.9</ele>
        <time>2026-05-28T07:37:19.000Z</time>
      </trkpt>
      <trkpt lat="44.00092" lon="3.49882">
        <ele>641.8</ele>
        <time>2026-05-28T07:37:20.000Z</time>
      </trkpt>
      <trkpt lat="44.00092" lon="3.49883">
        <ele>641.6</ele>
        <time>2026-05-28T07:37:21.000Z</time>
      </trkpt>
      <trkpt lat="44.00092" lon="3.49883">
        <ele>641.5</ele>
        <time>2026-05-28T07:37:22.000Z</time>
      </trkpt>
      <trkpt lat="44.00093" lon="3.49882">
        <ele>641.5</ele>
        <time>2026-05-28T07:37:23.000Z</time>
      </trkpt>
      <trkpt lat="44.00094" lon="3.49881">
        <ele>641.6</ele>
        <time>2026-05-28T07:37:24.000Z</time>
      </trkpt>
      <trkpt lat="44.00094" lon="3.4988">
        <ele>642</ele>
        <time>2026-05-28T07:37:25.000Z</time>
      </trkpt>
      <trkpt lat="44.00095" lon="3.4988">
        <ele>642.1</ele>
        <time>2026-05-28T07:37:26.000Z</time>
      </trkpt>
      <trkpt lat="44.00096" lon="3.49879">
        <ele>642.1</ele>
        <time>2026-05-28T07:37:27.000Z</time>
      </trkpt>
      <trkpt lat="44.00097" lon="3.49879">
        <ele>642</ele>
        <time>2026-05-28T07:37:28.000Z</time>
      </trkpt>
      <trkpt lat="44.00098" lon="3.49879">
        <ele>641.8</ele>
        <time>2026-05-28T07:37:29.000Z</time>
      </trkpt>
      <trkpt lat="44.00099" lon="3.49879">
        <ele>641.8</ele>
        <time>2026-05-28T07:37:30.000Z</time>
      </trkpt>
      <trkpt lat="44.001" lon="3.49879">
        <ele>641.9</ele>
        <time>2026-05-28T07:37:31.000Z</time>
      </trkpt>
      <trkpt lat="44.001" lon="3.4988">
        <ele>641.9</ele>
        <time>2026-05-28T07:37:32.000Z</time>
      </trkpt>
      <trkpt lat="44.00101" lon="3.49879">
        <ele>642.1</ele>
        <time>2026-05-28T07:37:33.000Z</time>
      </trkpt>
      <trkpt lat="44.00102" lon="3.49878">
        <ele>642.2</ele>
        <time>2026-05-28T07:37:34.000Z</time>
      </trkpt>
      <trkpt lat="44.00102" lon="3.49878">
        <ele>642.3</ele>
        <time>2026-05-28T07:37:35.000Z</time>
      </trkpt>
      <trkpt lat="44.00103" lon="3.49878">
        <ele>642.4</ele>
        <time>2026-05-28T07:37:36.000Z</time>
      </trkpt>
      <trkpt lat="44.00103" lon="3.49878">
        <ele>642.5</ele>
        <time>2026-05-28T07:37:37.000Z</time>
      </trkpt>
      <trkpt lat="44.00103" lon="3.49878">
        <ele>642.5</ele>
        <time>2026-05-28T07:37:38.000Z</time>
      </trkpt>
      <trkpt lat="44.00103" lon="3.49878">
        <ele>642.7</ele>
        <time>2026-05-28T07:37:39.000Z</time>
      </trkpt>
      <trkpt lat="44.00103" lon="3.49878">
        <ele>642.8</ele>
        <time>2026-05-28T07:37:40.000Z</time>
      </trkpt>
      <trkpt lat="44.00103" lon="3.49878">
        <ele>642.8</ele>
        <time>2026-05-28T07:37:41.000Z</time>
      </trkpt>
      <trkpt lat="44.00103" lon="3.49878">
        <ele>642.9</ele>
        <time>2026-05-28T07:37:42.000Z</time>
      </trkpt>
      <trkpt lat="44.00103" lon="3.49878">
        <ele>643</ele>
        <time>2026-05-28T07:37:43.000Z</time>
      </trkpt>
      <trkpt lat="44.00103" lon="3.49878">
        <ele>643</ele>
        <time>2026-05-28T07:37:44.000Z</time>
      </trkpt>
      <trkpt lat="44.00104" lon="3.49878">
        <ele>643.2</ele>
        <time>2026-05-28T07:37:45.000Z</time>
      </trkpt>
      <trkpt lat="44.00104" lon="3.49878">
        <ele>643.2</ele>
        <time>2026-05-28T07:37:46.000Z</time>
      </trkpt>
      <trkpt lat="44.00104" lon="3.49878">
        <ele>643.1</ele>
        <time>2026-05-28T07:37:47.000Z</time>
      </trkpt>
      <trkpt lat="44.00104" lon="3.49878">
        <ele>643.1</ele>
        <time>2026-05-28T07:37:48.000Z</time>
      </trkpt>
      <trkpt lat="44.00104" lon="3.49878">
        <ele>643.1</ele>
        <time>2026-05-28T07:37:49.000Z</time>
      </trkpt>
      <trkpt lat="44.00104" lon="3.49878">
        <ele>643.3</ele>
        <time>2026-05-28T07:37:50.000Z</time>
      </trkpt>
      <trkpt lat="44.00105" lon="3.49878">
        <ele>643.4</ele>
        <time>2026-05-28T07:37:51.000Z</time>
      </trkpt>
      <trkpt lat="44.00106" lon="3.49877">
        <ele>643.5</ele>
        <time>2026-05-28T07:37:52.000Z</time>
      </trkpt>
      <trkpt lat="44.00107" lon="3.49877">
        <ele>643.5</ele>
        <time>2026-05-28T07:37:53.000Z</time>
      </trkpt>
      <trkpt lat="44.00108" lon="3.49877">
        <ele>643.6</ele>
        <time>2026-05-28T07:37:54.000Z</time>
      </trkpt>
      <trkpt lat="44.00109" lon="3.49877">
        <ele>643.7</ele>
        <time>2026-05-28T07:37:55.000Z</time>
      </trkpt>
      <trkpt lat="44.00109" lon="3.49878">
        <ele>643.8</ele>
        <time>2026-05-28T07:37:56.000Z</time>
      </trkpt>
      <trkpt lat="44.0011" lon="3.49877">
        <ele>643.8</ele>
        <time>2026-05-28T07:37:57.000Z</time>
      </trkpt>
      <trkpt lat="44.0011" lon="3.49877">
        <ele>643.7</ele>
        <time>2026-05-28T07:37:58.000Z</time>
      </trkpt>
      <trkpt lat="44.00111" lon="3.49877">
        <ele>644</ele>
        <time>2026-05-28T07:37:59.000Z</time>
      </trkpt>
      <trkpt lat="44.00112" lon="3.49876">
        <ele>644.1</ele>
        <time>2026-05-28T07:38:00.000Z</time>
      </trkpt>
      <trkpt lat="44.00112" lon="3.49876">
        <ele>644.1</ele>
        <time>2026-05-28T07:38:01.000Z</time>
      </trkpt>
      <trkpt lat="44.00113" lon="3.49876">
        <ele>644.3</ele>
        <time>2026-05-28T07:38:02.000Z</time>
      </trkpt>
      <trkpt lat="44.00114" lon="3.49875">
        <ele>644.3</ele>
        <time>2026-05-28T07:38:03.000Z</time>
      </trkpt>
      <trkpt lat="44.00114" lon="3.49874">
        <ele>644.4</ele>
        <time>2026-05-28T07:38:04.000Z</time>
      </trkpt>
      <trkpt lat="44.00115" lon="3.49874">
        <ele>644.5</ele>
        <time>2026-05-28T07:38:05.000Z</time>
      </trkpt>
      <trkpt lat="44.00115" lon="3.49873">
        <ele>644.5</ele>
        <time>2026-05-28T07:38:06.000Z</time>
      </trkpt>
      <trkpt lat="44.00114" lon="3.49874">
        <ele>644.8</ele>
        <time>2026-05-28T07:38:07.000Z</time>
      </trkpt>
      <trkpt lat="44.00115" lon="3.49876">
        <ele>644.8</ele>
        <time>2026-05-28T07:38:08.000Z</time>
      </trkpt>
      <trkpt lat="44.00115" lon="3.49876">
        <ele>644.8</ele>
        <time>2026-05-28T07:38:09.000Z</time>
      </trkpt>
      <trkpt lat="44.00115" lon="3.49877">
        <ele>644.8</ele>
        <time>2026-05-28T07:38:10.000Z</time>
      </trkpt>
      <trkpt lat="44.00115" lon="3.49877">
        <ele>645</ele>
        <time>2026-05-28T07:38:11.000Z</time>
      </trkpt>
      <trkpt lat="44.00116" lon="3.49878">
        <ele>645</ele>
        <time>2026-05-28T07:38:12.000Z</time>
      </trkpt>
      <trkpt lat="44.00116" lon="3.49878">
        <ele>645.2</ele>
        <time>2026-05-28T07:38:13.000Z</time>
      </trkpt>
      <trkpt lat="44.00116" lon="3.49879">
        <ele>645.1</ele>
        <time>2026-05-28T07:38:14.000Z</time>
      </trkpt>
      <trkpt lat="44.00115" lon="3.49879">
        <ele>645.2</ele>
        <time>2026-05-28T07:38:15.000Z</time>
      </trkpt>
      <trkpt lat="44.00116" lon="3.49879">
        <ele>645.3</ele>
        <time>2026-05-28T07:38:16.000Z</time>
      </trkpt>
      <trkpt lat="44.00115" lon="3.49879">
        <ele>645.3</ele>
        <time>2026-05-28T07:38:17.000Z</time>
      </trkpt>
      <trkpt lat="44.00115" lon="3.49879">
        <ele>645.4</ele>
        <time>2026-05-28T07:38:18.000Z</time>
      </trkpt>
      <trkpt lat="44.00115" lon="3.49879">
        <ele>645.6</ele>
        <time>2026-05-28T07:38:19.000Z</time>
      </trkpt>
      <trkpt lat="44.00115" lon="3.4988">
        <ele>645.7</ele>
        <time>2026-05-28T07:38:20.000Z</time>
      </trkpt>
      <trkpt lat="44.00115" lon="3.4988">
        <ele>645.9</ele>
        <time>2026-05-28T07:38:21.000Z</time>
      </trkpt>
      <trkpt lat="44.00114" lon="3.4988">
        <ele>645.9</ele>
        <time>2026-05-28T07:38:22.000Z</time>
      </trkpt>
      <trkpt lat="44.00115" lon="3.4988">
        <ele>646.9</ele>
        <time>2026-05-28T07:38:23.000Z</time>
      </trkpt>
      <trkpt lat="44.00115" lon="3.4988">
        <ele>647.5</ele>
        <time>2026-05-28T07:38:24.000Z</time>
      </trkpt>
      <trkpt lat="44.00116" lon="3.49879">
        <ele>648</ele>
        <time>2026-05-28T07:38:25.000Z</time>
      </trkpt>
      <trkpt lat="44.00115" lon="3.49879">
        <ele>648.3</ele>
        <time>2026-05-28T07:38:26.000Z</time>
      </trkpt>
      <trkpt lat="44.00117" lon="3.49879">
        <ele>648.9</ele>
        <time>2026-05-28T07:38:28.000Z</time>
      </trkpt>
      <trkpt lat="44.00117" lon="3.4988">
        <ele>649.2</ele>
        <time>2026-05-28T07:38:29.000Z</time>
      </trkpt>
      <trkpt lat="44.00117" lon="3.49881">
        <ele>649.4</ele>
        <time>2026-05-28T07:38:30.000Z</time>
      </trkpt>
      <trkpt lat="44.00117" lon="3.49881">
        <ele>649.4</ele>
        <time>2026-05-28T07:38:31.000Z</time>
      </trkpt>
      <trkpt lat="44.00117" lon="3.49882">
        <ele>649.7</ele>
        <time>2026-05-28T07:38:32.000Z</time>
      </trkpt>
      <trkpt lat="44.00116" lon="3.49882">
        <ele>649.9</ele>
        <time>2026-05-28T07:38:33.000Z</time>
      </trkpt>
      <trkpt lat="44.00116" lon="3.49883">
        <ele>650</ele>
        <time>2026-05-28T07:38:34.000Z</time>
      </trkpt>
      <trkpt lat="44.00116" lon="3.49883">
        <ele>650.1</ele>
        <time>2026-05-28T07:38:35.000Z</time>
      </trkpt>
      <trkpt lat="44.00116" lon="3.49884">
        <ele>650.2</ele>
        <time>2026-05-28T07:38:36.000Z</time>
      </trkpt>
      <trkpt lat="44.00116" lon="3.49884">
        <ele>650</ele>
        <time>2026-05-28T07:38:37.000Z</time>
      </trkpt>
      <trkpt lat="44.00116" lon="3.49884">
        <ele>650</ele>
        <time>2026-05-28T07:38:38.000Z</time>
      </trkpt>
      <trkpt lat="44.00116" lon="3.49884">
        <ele>650.1</ele>
        <time>2026-05-28T07:38:39.000Z</time>
      </trkpt>
      <trkpt lat="44.00116" lon="3.49884">
        <ele>650.3</ele>
        <time>2026-05-28T07:38:40.000Z</time>
      </trkpt>
      <trkpt lat="44.00116" lon="3.49885">
        <ele>650.4</ele>
        <time>2026-05-28T07:38:41.000Z</time>
      </trkpt>
      <trkpt lat="44.00115" lon="3.49886">
        <ele>650.3</ele>
        <time>2026-05-28T07:38:42.000Z</time>
      </trkpt>
      <trkpt lat="44.00116" lon="3.49888">
        <ele>650.2</ele>
        <time>2026-05-28T07:38:43.000Z</time>
      </trkpt>
      <trkpt lat="44.00117" lon="3.49889">
        <ele>650.2</ele>
        <time>2026-05-28T07:38:44.000Z</time>
      </trkpt>
      <trkpt lat="44.00119" lon="3.4989">
        <ele>650.7</ele>
        <time>2026-05-28T07:38:45.000Z</time>
      </trkpt>
      <trkpt lat="44.00123" lon="3.49892">
        <ele>651.2</ele>
        <time>2026-05-28T07:38:47.000Z</time>
      </trkpt>
      <trkpt lat="44.00123" lon="3.49892">
        <ele>651.2</ele>
        <time>2026-05-28T07:38:48.000Z</time>
      </trkpt>
      <trkpt lat="44.00124" lon="3.49892">
        <ele>651.6</ele>
        <time>2026-05-28T07:38:49.000Z</time>
      </trkpt>
      <trkpt lat="44.00124" lon="3.49893">
        <ele>651.9</ele>
        <time>2026-05-28T07:38:50.000Z</time>
      </trkpt>
      <trkpt lat="44.00125" lon="3.49894">
        <ele>651.9</ele>
        <time>2026-05-28T07:38:51.000Z</time>
      </trkpt>
      <trkpt lat="44.00125" lon="3.49894">
        <ele>652.1</ele>
        <time>2026-05-28T07:38:52.000Z</time>
      </trkpt>
      <trkpt lat="44.00125" lon="3.49894">
        <ele>652.2</ele>
        <time>2026-05-28T07:38:53.000Z</time>
      </trkpt>
      <trkpt lat="44.00124" lon="3.49894">
        <ele>652.4</ele>
        <time>2026-05-28T07:38:54.000Z</time>
      </trkpt>
      <trkpt lat="44.00124" lon="3.49894">
        <ele>652.5</ele>
        <time>2026-05-28T07:38:55.000Z</time>
      </trkpt>
      <trkpt lat="44.00124" lon="3.49894">
        <ele>652.5</ele>
        <time>2026-05-28T07:38:56.000Z</time>
      </trkpt>
      <trkpt lat="44.00124" lon="3.49894">
        <ele>652.6</ele>
        <time>2026-05-28T07:38:57.000Z</time>
      </trkpt>
      <trkpt lat="44.00124" lon="3.49893">
        <ele>652.8</ele>
        <time>2026-05-28T07:38:58.000Z</time>
      </trkpt>
      <trkpt lat="44.00124" lon="3.49893">
        <ele>652.9</ele>
        <time>2026-05-28T07:38:59.000Z</time>
      </trkpt>
      <trkpt lat="44.00124" lon="3.49894">
        <ele>653.2</ele>
        <time>2026-05-28T07:39:00.000Z</time>
      </trkpt>
      <trkpt lat="44.00125" lon="3.49893">
        <ele>653.1</ele>
        <time>2026-05-28T07:39:01.000Z</time>
      </trkpt>
      <trkpt lat="44.00125" lon="3.49894">
        <ele>653.2</ele>
        <time>2026-05-28T07:39:02.000Z</time>
      </trkpt>
      <trkpt lat="44.00125" lon="3.49894">
        <ele>653.2</ele>
        <time>2026-05-28T07:39:03.000Z</time>
      </trkpt>
      <trkpt lat="44.00126" lon="3.49893">
        <ele>653.6</ele>
        <time>2026-05-28T07:39:04.000Z</time>
      </trkpt>
      <trkpt lat="44.00127" lon="3.49893">
        <ele>653.8</ele>
        <time>2026-05-28T07:39:05.000Z</time>
      </trkpt>
      <trkpt lat="44.00127" lon="3.49894">
        <ele>654.3</ele>
        <time>2026-05-28T07:39:06.000Z</time>
      </trkpt>
      <trkpt lat="44.00128" lon="3.49894">
        <ele>654.5</ele>
        <time>2026-05-28T07:39:07.000Z</time>
      </trkpt>
      <trkpt lat="44.00128" lon="3.49894">
        <ele>654.9</ele>
        <time>2026-05-28T07:39:08.000Z</time>
      </trkpt>
      <trkpt lat="44.00128" lon="3.49894">
        <ele>655.2</ele>
        <time>2026-05-28T07:39:09.000Z</time>
      </trkpt>
      <trkpt lat="44.00129" lon="3.49894">
        <ele>655.6</ele>
        <time>2026-05-28T07:39:10.000Z</time>
      </trkpt>
      <trkpt lat="44.00129" lon="3.49894">
        <ele>656</ele>
        <time>2026-05-28T07:39:11.000Z</time>
      </trkpt>
      <trkpt lat="44.00129" lon="3.49893">
        <ele>656.4</ele>
        <time>2026-05-28T07:39:12.000Z</time>
      </trkpt>
      <trkpt lat="44.00129" lon="3.49892">
        <ele>656.6</ele>
        <time>2026-05-28T07:39:13.000Z</time>
      </trkpt>
      <trkpt lat="44.00129" lon="3.49893">
        <ele>656.7</ele>
        <time>2026-05-28T07:39:14.000Z</time>
      </trkpt>
      <trkpt lat="44.00129" lon="3.49893">
        <ele>656.6</ele>
        <time>2026-05-28T07:39:15.000Z</time>
      </trkpt>
      <trkpt lat="44.00129" lon="3.49893">
        <ele>656.7</ele>
        <time>2026-05-28T07:39:16.000Z</time>
      </trkpt>
      <trkpt lat="44.00129" lon="3.49893">
        <ele>656.6</ele>
        <time>2026-05-28T07:39:17.000Z</time>
      </trkpt>
      <trkpt lat="44.00129" lon="3.49893">
        <ele>656.5</ele>
        <time>2026-05-28T07:39:18.000Z</time>
      </trkpt>
      <trkpt lat="44.00129" lon="3.49893">
        <ele>656.7</ele>
        <time>2026-05-28T07:39:19.000Z</time>
      </trkpt>
      <trkpt lat="44.00129" lon="3.49893">
        <ele>656.8</ele>
        <time>2026-05-28T07:39:20.000Z</time>
      </trkpt>
      <trkpt lat="44.00129" lon="3.49893">
        <ele>656.9</ele>
        <time>2026-05-28T07:39:21.000Z</time>
      </trkpt>
      <trkpt lat="44.00129" lon="3.49893">
        <ele>657.1</ele>
        <time>2026-05-28T07:39:22.000Z</time>
      </trkpt>
      <trkpt lat="44.00129" lon="3.49893">
        <ele>657.1</ele>
        <time>2026-05-28T07:39:23.000Z</time>
      </trkpt>
      <trkpt lat="44.00129" lon="3.49894">
        <ele>657.2</ele>
        <time>2026-05-28T07:39:24.000Z</time>
      </trkpt>
      <trkpt lat="44.0013" lon="3.49895">
        <ele>657.4</ele>
        <time>2026-05-28T07:39:25.000Z</time>
      </trkpt>
      <trkpt lat="44.0013" lon="3.49896">
        <ele>657.4</ele>
        <time>2026-05-28T07:39:26.000Z</time>
      </trkpt>
      <trkpt lat="44.00131" lon="3.49896">
        <ele>657.6</ele>
        <time>2026-05-28T07:39:27.000Z</time>
      </trkpt>
      <trkpt lat="44.00131" lon="3.49896">
        <ele>657.6</ele>
        <time>2026-05-28T07:39:28.999Z</time>
      </trkpt>
      <trkpt lat="44.00131" lon="3.49895">
        <ele>657.6</ele>
        <time>2026-05-28T07:39:29.999Z</time>
      </trkpt>
      <trkpt lat="44.0013" lon="3.49895">
        <ele>657.6</ele>
        <time>2026-05-28T07:39:30.999Z</time>
      </trkpt>
      <trkpt lat="44.0013" lon="3.49895">
        <ele>657.7</ele>
        <time>2026-05-28T07:39:31.999Z</time>
      </trkpt>
      <trkpt lat="44.0013" lon="3.49897">
        <ele>657.8</ele>
        <time>2026-05-28T07:39:32.999Z</time>
      </trkpt>
      <trkpt lat="44.00131" lon="3.49897">
        <ele>658</ele>
        <time>2026-05-28T07:39:33.999Z</time>
      </trkpt>
      <trkpt lat="44.0013" lon="3.49897">
        <ele>658.1</ele>
        <time>2026-05-28T07:39:34.999Z</time>
      </trkpt>
      <trkpt lat="44.00131" lon="3.49898">
        <ele>658</ele>
        <time>2026-05-28T07:39:35.999Z</time>
      </trkpt>
      <trkpt lat="44.00131" lon="3.49898">
        <ele>658.3</ele>
        <time>2026-05-28T07:39:36.999Z</time>
      </trkpt>
      <trkpt lat="44.00132" lon="3.49898">
        <ele>657.4</ele>
        <time>2026-05-28T07:39:37.999Z</time>
      </trkpt>
      <trkpt lat="44.00132" lon="3.49898">
        <ele>657.6</ele>
        <time>2026-05-28T07:39:38.999Z</time>
      </trkpt>
      <trkpt lat="44.00132" lon="3.49898">
        <ele>657.7</ele>
        <time>2026-05-28T07:39:39.999Z</time>
      </trkpt>
      <trkpt lat="44.00132" lon="3.49898">
        <ele>657.9</ele>
        <time>2026-05-28T07:39:40.999Z</time>
      </trkpt>
      <trkpt lat="44.00132" lon="3.49898">
        <ele>657.9</ele>
        <time>2026-05-28T07:39:41.999Z</time>
      </trkpt>
      <trkpt lat="44.00132" lon="3.49898">
        <ele>657.9</ele>
        <time>2026-05-28T07:39:42.999Z</time>
      </trkpt>
      <trkpt lat="44.00132" lon="3.49898">
        <ele>657.9</ele>
        <time>2026-05-28T07:39:43.999Z</time>
      </trkpt>
      <trkpt lat="44.00133" lon="3.49898">
        <ele>658.1</ele>
        <time>2026-05-28T07:39:44.999Z</time>
      </trkpt>
      <trkpt lat="44.00133" lon="3.49898">
        <ele>658.2</ele>
        <time>2026-05-28T07:39:45.999Z</time>
      </trkpt>
      <trkpt lat="44.00133" lon="3.49898">
        <ele>658.2</ele>
        <time>2026-05-28T07:39:46.999Z</time>
      </trkpt>
      <trkpt lat="44.00133" lon="3.49898">
        <ele>658.3</ele>
        <time>2026-05-28T07:39:47.999Z</time>
      </trkpt>
      <trkpt lat="44.00133" lon="3.49898">
        <ele>658.7</ele>
        <time>2026-05-28T07:39:48.999Z</time>
      </trkpt>
      <trkpt lat="44.00133" lon="3.49898">
        <ele>659</ele>
        <time>2026-05-28T07:39:49.999Z</time>
      </trkpt>
      <trkpt lat="44.00134" lon="3.49898">
        <ele>659</ele>
        <time>2026-05-28T07:39:50.999Z</time>
      </trkpt>
      <trkpt lat="44.00135" lon="3.49899">
        <ele>659</ele>
        <time>2026-05-28T07:39:51.999Z</time>
      </trkpt>
      <trkpt lat="44.00135" lon="3.499">
        <ele>659.3</ele>
        <time>2026-05-28T07:39:52.999Z</time>
      </trkpt>
      <trkpt lat="44.00135" lon="3.499">
        <ele>659.4</ele>
        <time>2026-05-28T07:39:53.999Z</time>
      </trkpt>
      <trkpt lat="44.00135" lon="3.499">
        <ele>659.5</ele>
        <time>2026-05-28T07:39:54.999Z</time>
      </trkpt>
      <trkpt lat="44.00135" lon="3.49901">
        <ele>659.8</ele>
        <time>2026-05-28T07:39:55.999Z</time>
      </trkpt>
      <trkpt lat="44.00135" lon="3.49901">
        <ele>660.1</ele>
        <time>2026-05-28T07:39:56.999Z</time>
      </trkpt>
      <trkpt lat="44.00134" lon="3.49901">
        <ele>660.2</ele>
        <time>2026-05-28T07:39:57.999Z</time>
      </trkpt>
      <trkpt lat="44.00134" lon="3.49901">
        <ele>660.6</ele>
        <time>2026-05-28T07:39:58.999Z</time>
      </trkpt>
      <trkpt lat="44.00134" lon="3.49901">
        <ele>660.8</ele>
        <time>2026-05-28T07:39:59.999Z</time>
      </trkpt>
      <trkpt lat="44.00134" lon="3.49901">
        <ele>660.9</ele>
        <time>2026-05-28T07:40:00.999Z</time>
      </trkpt>
      <trkpt lat="44.00133" lon="3.499">
        <ele>661.3</ele>
        <time>2026-05-28T07:40:01.999Z</time>
      </trkpt>
      <trkpt lat="44.00133" lon="3.499">
        <ele>661.3</ele>
        <time>2026-05-28T07:40:02.999Z</time>
      </trkpt>
      <trkpt lat="44.00134" lon="3.49899">
        <ele>661.6</ele>
        <time>2026-05-28T07:40:03.999Z</time>
      </trkpt>
      <trkpt lat="44.00134" lon="3.49899">
        <ele>661.6</ele>
        <time>2026-05-28T07:40:04.999Z</time>
      </trkpt>
      <trkpt lat="44.00135" lon="3.49898">
        <ele>661.6</ele>
        <time>2026-05-28T07:40:05.999Z</time>
      </trkpt>
      <trkpt lat="44.00135" lon="3.49898">
        <ele>661.7</ele>
        <time>2026-05-28T07:40:06.999Z</time>
      </trkpt>
      <trkpt lat="44.00135" lon="3.49897">
        <ele>662.1</ele>
        <time>2026-05-28T07:40:07.999Z</time>
      </trkpt>
      <trkpt lat="44.00135" lon="3.49898">
        <ele>662.2</ele>
        <time>2026-05-28T07:40:08.999Z</time>
      </trkpt>
      <trkpt lat="44.00135" lon="3.49897">
        <ele>662.6</ele>
        <time>2026-05-28T07:40:09.999Z</time>
      </trkpt>
      <trkpt lat="44.00136" lon="3.49897">
        <ele>662.8</ele>
        <time>2026-05-28T07:40:10.999Z</time>
      </trkpt>
      <trkpt lat="44.00137" lon="3.49896">
        <ele>663</ele>
        <time>2026-05-28T07:40:11.999Z</time>
      </trkpt>
      <trkpt lat="44.00137" lon="3.49896">
        <ele>663.3</ele>
        <time>2026-05-28T07:40:12.999Z</time>
      </trkpt>
      <trkpt lat="44.00138" lon="3.49896">
        <ele>663.6</ele>
        <time>2026-05-28T07:40:13.999Z</time>
      </trkpt>
      <trkpt lat="44.00138" lon="3.49896">
        <ele>663.5</ele>
        <time>2026-05-28T07:40:14.999Z</time>
      </trkpt>
      <trkpt lat="44.00138" lon="3.49895">
        <ele>663.4</ele>
        <time>2026-05-28T07:40:15.999Z</time>
      </trkpt>
      <trkpt lat="44.00139" lon="3.49895">
        <ele>663.4</ele>
        <time>2026-05-28T07:40:16.999Z</time>
      </trkpt>
      <trkpt lat="44.0014" lon="3.49895">
        <ele>663.4</ele>
        <time>2026-05-28T07:40:17.999Z</time>
      </trkpt>
      <trkpt lat="44.00141" lon="3.49894">
        <ele>663.3</ele>
        <time>2026-05-28T07:40:18.999Z</time>
      </trkpt>
      <trkpt lat="44.00142" lon="3.49894">
        <ele>663.5</ele>
        <time>2026-05-28T07:40:19.999Z</time>
      </trkpt>
      <trkpt lat="44.00142" lon="3.49894">
        <ele>663.5</ele>
        <time>2026-05-28T07:40:20.999Z</time>
      </trkpt>
      <trkpt lat="44.00142" lon="3.49894">
        <ele>663.8</ele>
        <time>2026-05-28T07:40:21.999Z</time>
      </trkpt>
      <trkpt lat="44.00142" lon="3.49894">
        <ele>663.8</ele>
        <time>2026-05-28T07:40:22.999Z</time>
      </trkpt>
      <trkpt lat="44.00142" lon="3.49893">
        <ele>663.8</ele>
        <time>2026-05-28T07:40:23.999Z</time>
      </trkpt>
      <trkpt lat="44.00143" lon="3.49892">
        <ele>663.8</ele>
        <time>2026-05-28T07:40:24.999Z</time>
      </trkpt>
      <trkpt lat="44.00144" lon="3.49891">
        <ele>663.9</ele>
        <time>2026-05-28T07:40:25.999Z</time>
      </trkpt>
      <trkpt lat="44.00145" lon="3.4989">
        <ele>663.9</ele>
        <time>2026-05-28T07:40:26.999Z</time>
      </trkpt>
      <trkpt lat="44.00146" lon="3.4989">
        <ele>663.9</ele>
        <time>2026-05-28T07:40:27.999Z</time>
      </trkpt>
      <trkpt lat="44.00146" lon="3.4989">
        <ele>663.9</ele>
        <time>2026-05-28T07:40:28.999Z</time>
      </trkpt>
      <trkpt lat="44.00147" lon="3.49891">
        <ele>663.9</ele>
        <time>2026-05-28T07:40:29.999Z</time>
      </trkpt>
      <trkpt lat="44.00149" lon="3.4989">
        <ele>664.1</ele>
        <time>2026-05-28T07:40:30.999Z</time>
      </trkpt>
      <trkpt lat="44.00149" lon="3.4989">
        <ele>664.1</ele>
        <time>2026-05-28T07:40:31.999Z</time>
      </trkpt>
      <trkpt lat="44.0015" lon="3.4989">
        <ele>664.2</ele>
        <time>2026-05-28T07:40:32.999Z</time>
      </trkpt>
      <trkpt lat="44.0015" lon="3.49889">
        <ele>664.4</ele>
        <time>2026-05-28T07:40:33.999Z</time>
      </trkpt>
      <trkpt lat="44.00151" lon="3.4989">
        <ele>664.2</ele>
        <time>2026-05-28T07:40:34.999Z</time>
      </trkpt>
      <trkpt lat="44.00151" lon="3.4989">
        <ele>664.2</ele>
        <time>2026-05-28T07:40:35.999Z</time>
      </trkpt>
      <trkpt lat="44.00151" lon="3.4989">
        <ele>664.2</ele>
        <time>2026-05-28T07:40:36.999Z</time>
      </trkpt>
      <trkpt lat="44.00152" lon="3.4989">
        <ele>664.3</ele>
        <time>2026-05-28T07:40:37.999Z</time>
      </trkpt>
      <trkpt lat="44.00152" lon="3.49891">
        <ele>664.3</ele>
        <time>2026-05-28T07:40:38.999Z</time>
      </trkpt>
      <trkpt lat="44.00152" lon="3.49891">
        <ele>664.4</ele>
        <time>2026-05-28T07:40:39.999Z</time>
      </trkpt>
      <trkpt lat="44.00152" lon="3.49891">
        <ele>664.4</ele>
        <time>2026-05-28T07:40:40.999Z</time>
      </trkpt>
      <trkpt lat="44.00152" lon="3.49891">
        <ele>664.4</ele>
        <time>2026-05-28T07:40:41.999Z</time>
      </trkpt>
      <trkpt lat="44.00152" lon="3.49891">
        <ele>664.5</ele>
        <time>2026-05-28T07:40:42.999Z</time>
      </trkpt>
      <trkpt lat="44.00153" lon="3.4989">
        <ele>664.6</ele>
        <time>2026-05-28T07:40:43.999Z</time>
      </trkpt>
      <trkpt lat="44.00153" lon="3.4989">
        <ele>664.7</ele>
        <time>2026-05-28T07:40:44.999Z</time>
      </trkpt>
      <trkpt lat="44.00154" lon="3.49889">
        <ele>665</ele>
        <time>2026-05-28T07:40:45.999Z</time>
      </trkpt>
      <trkpt lat="44.00154" lon="3.49889">
        <ele>665.1</ele>
        <time>2026-05-28T07:40:46.999Z</time>
      </trkpt>
      <trkpt lat="44.00154" lon="3.49889">
        <ele>665.1</ele>
        <time>2026-05-28T07:40:47.999Z</time>
      </trkpt>
      <trkpt lat="44.00154" lon="3.49889">
        <ele>665</ele>
        <time>2026-05-28T07:40:48.999Z</time>
      </trkpt>
      <trkpt lat="44.00154" lon="3.49888">
        <ele>664.8</ele>
        <time>2026-05-28T07:40:49.999Z</time>
      </trkpt>
      <trkpt lat="44.00154" lon="3.49888">
        <ele>664.7</ele>
        <time>2026-05-28T07:40:50.999Z</time>
      </trkpt>
      <trkpt lat="44.00155" lon="3.49888">
        <ele>664.7</ele>
        <time>2026-05-28T07:40:51.999Z</time>
      </trkpt>
      <trkpt lat="44.00155" lon="3.49888">
        <ele>664.7</ele>
        <time>2026-05-28T07:40:52.999Z</time>
      </trkpt>
      <trkpt lat="44.00155" lon="3.49888">
        <ele>664.7</ele>
        <time>2026-05-28T07:40:53.999Z</time>
      </trkpt>
      <trkpt lat="44.00155" lon="3.49888">
        <ele>664.9</ele>
        <time>2026-05-28T07:40:54.999Z</time>
      </trkpt>
      <trkpt lat="44.00155" lon="3.49888">
        <ele>664.8</ele>
        <time>2026-05-28T07:40:55.999Z</time>
      </trkpt>
      <trkpt lat="44.00155" lon="3.49887">
        <ele>664.8</ele>
        <time>2026-05-28T07:40:56.999Z</time>
      </trkpt>
      <trkpt lat="44.00155" lon="3.49887">
        <ele>664.9</ele>
        <time>2026-05-28T07:40:57.999Z</time>
      </trkpt>
      <trkpt lat="44.00155" lon="3.49887">
        <ele>664.7</ele>
        <time>2026-05-28T07:40:58.999Z</time>
      </trkpt>
      <trkpt lat="44.00155" lon="3.49886">
        <ele>664.7</ele>
        <time>2026-05-28T07:40:59.999Z</time>
      </trkpt>
      <trkpt lat="44.00155" lon="3.49886">
        <ele>664.5</ele>
        <time>2026-05-28T07:41:00.999Z</time>
      </trkpt>
      <trkpt lat="44.00156" lon="3.49885">
        <ele>664.6</ele>
        <time>2026-05-28T07:41:01.999Z</time>
      </trkpt>
      <trkpt lat="44.00156" lon="3.49885">
        <ele>664.5</ele>
        <time>2026-05-28T07:41:02.999Z</time>
      </trkpt>
      <trkpt lat="44.00156" lon="3.49885">
        <ele>664.5</ele>
        <time>2026-05-28T07:41:03.999Z</time>
      </trkpt>
      <trkpt lat="44.00156" lon="3.49885">
        <ele>664.5</ele>
        <time>2026-05-28T07:41:04.999Z</time>
      </trkpt>
      <trkpt lat="44.00156" lon="3.49885">
        <ele>664.8</ele>
        <time>2026-05-28T07:41:05.999Z</time>
      </trkpt>
      <trkpt lat="44.00156" lon="3.49885">
        <ele>664.9</ele>
        <time>2026-05-28T07:41:06.999Z</time>
      </trkpt>
      <trkpt lat="44.00156" lon="3.49885">
        <ele>665.1</ele>
        <time>2026-05-28T07:41:07.999Z</time>
      </trkpt>
      <trkpt lat="44.00157" lon="3.49885">
        <ele>665.1</ele>
        <time>2026-05-28T07:41:08.999Z</time>
      </trkpt>
      <trkpt lat="44.00158" lon="3.49885">
        <ele>665.2</ele>
        <time>2026-05-28T07:41:09.999Z</time>
      </trkpt>
      <trkpt lat="44.00158" lon="3.49884">
        <ele>665.6</ele>
        <time>2026-05-28T07:41:10.999Z</time>
      </trkpt>
      <trkpt lat="44.00158" lon="3.49884">
        <ele>665.8</ele>
        <time>2026-05-28T07:41:11.999Z</time>
      </trkpt>
      <trkpt lat="44.00158" lon="3.49883">
        <ele>665.9</ele>
        <time>2026-05-28T07:41:12.999Z</time>
      </trkpt>
      <trkpt lat="44.00158" lon="3.49883">
        <ele>665.8</ele>
        <time>2026-05-28T07:41:14.999Z</time>
      </trkpt>
      <trkpt lat="44.00158" lon="3.49882">
        <ele>665.8</ele>
        <time>2026-05-28T07:41:15.999Z</time>
      </trkpt>
      <trkpt lat="44.00158" lon="3.49883">
        <ele>665.8</ele>
        <time>2026-05-28T07:41:16.999Z</time>
      </trkpt>
      <trkpt lat="44.00158" lon="3.49883">
        <ele>665.7</ele>
        <time>2026-05-28T07:41:17.999Z</time>
      </trkpt>
      <trkpt lat="44.00159" lon="3.49883">
        <ele>665.8</ele>
        <time>2026-05-28T07:41:18.999Z</time>
      </trkpt>
      <trkpt lat="44.00159" lon="3.49883">
        <ele>666</ele>
        <time>2026-05-28T07:41:19.999Z</time>
      </trkpt>
      <trkpt lat="44.00159" lon="3.49882">
        <ele>666</ele>
        <time>2026-05-28T07:41:20.999Z</time>
      </trkpt>
      <trkpt lat="44.0016" lon="3.49882">
        <ele>666.5</ele>
        <time>2026-05-28T07:41:21.999Z</time>
      </trkpt>
      <trkpt lat="44.00162" lon="3.49881">
        <ele>666.9</ele>
        <time>2026-05-28T07:41:22.999Z</time>
      </trkpt>
      <trkpt lat="44.00163" lon="3.49881">
        <ele>667.1</ele>
        <time>2026-05-28T07:41:24.999Z</time>
      </trkpt>
      <trkpt lat="44.00164" lon="3.49882">
        <ele>667.2</ele>
        <time>2026-05-28T07:41:25.999Z</time>
      </trkpt>
      <trkpt lat="44.00165" lon="3.49882">
        <ele>667.5</ele>
        <time>2026-05-28T07:41:26.999Z</time>
      </trkpt>
      <trkpt lat="44.00165" lon="3.49882">
        <ele>667.6</ele>
        <time>2026-05-28T07:41:27.999Z</time>
      </trkpt>
      <trkpt lat="44.00165" lon="3.49882">
        <ele>667.7</ele>
        <time>2026-05-28T07:41:28.999Z</time>
      </trkpt>
      <trkpt lat="44.00165" lon="3.49882">
        <ele>667.7</ele>
        <time>2026-05-28T07:41:29.999Z</time>
      </trkpt>
      <trkpt lat="44.00165" lon="3.49882">
        <ele>667.8</ele>
        <time>2026-05-28T07:41:30.999Z</time>
      </trkpt>
      <trkpt lat="44.00165" lon="3.49882">
        <ele>667.8</ele>
        <time>2026-05-28T07:41:31.999Z</time>
      </trkpt>
      <trkpt lat="44.00165" lon="3.49882">
        <ele>667.7</ele>
        <time>2026-05-28T07:41:32.999Z</time>
      </trkpt>
      <trkpt lat="44.00165" lon="3.49882">
        <ele>667.8</ele>
        <time>2026-05-28T07:41:33.999Z</time>
      </trkpt>
      <trkpt lat="44.00165" lon="3.49882">
        <ele>667.8</ele>
        <time>2026-05-28T07:41:34.999Z</time>
      </trkpt>
      <trkpt lat="44.00166" lon="3.49882">
        <ele>667.8</ele>
        <time>2026-05-28T07:41:35.999Z</time>
      </trkpt>
      <trkpt lat="44.00166" lon="3.49882">
        <ele>667.8</ele>
        <time>2026-05-28T07:41:36.999Z</time>
      </trkpt>
      <trkpt lat="44.00166" lon="3.49883">
        <ele>667.9</ele>
        <time>2026-05-28T07:41:37.999Z</time>
      </trkpt>
      <trkpt lat="44.00167" lon="3.49884">
        <ele>667.9</ele>
        <time>2026-05-28T07:41:38.999Z</time>
      </trkpt>
      <trkpt lat="44.00168" lon="3.49884">
        <ele>667.9</ele>
        <time>2026-05-28T07:41:39.999Z</time>
      </trkpt>
      <trkpt lat="44.0017" lon="3.49883">
        <ele>668.3</ele>
        <time>2026-05-28T07:41:40.999Z</time>
      </trkpt>
      <trkpt lat="44.0017" lon="3.49883">
        <ele>668.3</ele>
        <time>2026-05-28T07:41:41.999Z</time>
      </trkpt>
      <trkpt lat="44.0017" lon="3.49884">
        <ele>668.6</ele>
        <time>2026-05-28T07:41:42.999Z</time>
      </trkpt>
      <trkpt lat="44.00171" lon="3.49884">
        <ele>668.8</ele>
        <time>2026-05-28T07:41:43.999Z</time>
      </trkpt>
      <trkpt lat="44.00171" lon="3.49883">
        <ele>668.8</ele>
        <time>2026-05-28T07:41:44.999Z</time>
      </trkpt>
      <trkpt lat="44.00172" lon="3.49883">
        <ele>668.9</ele>
        <time>2026-05-28T07:41:45.999Z</time>
      </trkpt>
      <trkpt lat="44.00172" lon="3.49883">
        <ele>669</ele>
        <time>2026-05-28T07:41:46.999Z</time>
      </trkpt>
      <trkpt lat="44.00172" lon="3.49882">
        <ele>669.1</ele>
        <time>2026-05-28T07:41:47.999Z</time>
      </trkpt>
      <trkpt lat="44.00172" lon="3.49882">
        <ele>669.1</ele>
        <time>2026-05-28T07:41:48.999Z</time>
      </trkpt>
      <trkpt lat="44.00172" lon="3.49882">
        <ele>669.1</ele>
        <time>2026-05-28T07:41:49.999Z</time>
      </trkpt>
      <trkpt lat="44.00172" lon="3.49882">
        <ele>669.1</ele>
        <time>2026-05-28T07:41:50.999Z</time>
      </trkpt>
      <trkpt lat="44.00172" lon="3.49882">
        <ele>669.2</ele>
        <time>2026-05-28T07:41:51.999Z</time>
      </trkpt>
      <trkpt lat="44.00172" lon="3.49882">
        <ele>669.4</ele>
        <time>2026-05-28T07:41:52.999Z</time>
      </trkpt>
      <trkpt lat="44.00172" lon="3.49881">
        <ele>669.4</ele>
        <time>2026-05-28T07:41:53.999Z</time>
      </trkpt>
      <trkpt lat="44.00172" lon="3.49881">
        <ele>669.3</ele>
        <time>2026-05-28T07:41:54.999Z</time>
      </trkpt>
      <trkpt lat="44.00172" lon="3.49881">
        <ele>669.1</ele>
        <time>2026-05-28T07:41:55.999Z</time>
      </trkpt>
      <trkpt lat="44.00173" lon="3.49881">
        <ele>669.1</ele>
        <time>2026-05-28T07:41:56.999Z</time>
      </trkpt>
      <trkpt lat="44.00174" lon="3.4988">
        <ele>669</ele>
        <time>2026-05-28T07:41:57.999Z</time>
      </trkpt>
      <trkpt lat="44.00175" lon="3.4988">
        <ele>669</ele>
        <time>2026-05-28T07:41:58.999Z</time>
      </trkpt>
      <trkpt lat="44.00176" lon="3.49879">
        <ele>668.9</ele>
        <time>2026-05-28T07:41:59.999Z</time>
      </trkpt>
      <trkpt lat="44.00177" lon="3.49879">
        <ele>669.1</ele>
        <time>2026-05-28T07:42:00.999Z</time>
      </trkpt>
      <trkpt lat="44.00177" lon="3.49879">
        <ele>669.2</ele>
        <time>2026-05-28T07:42:01.999Z</time>
      </trkpt>
      <trkpt lat="44.00178" lon="3.49879">
        <ele>669.3</ele>
        <time>2026-05-28T07:42:02.999Z</time>
      </trkpt>
      <trkpt lat="44.00178" lon="3.49879">
        <ele>669.4</ele>
        <time>2026-05-28T07:42:03.999Z</time>
      </trkpt>
      <trkpt lat="44.00178" lon="3.49879">
        <ele>669.4</ele>
        <time>2026-05-28T07:42:04.999Z</time>
      </trkpt>
      <trkpt lat="44.00178" lon="3.49879">
        <ele>669.4</ele>
        <time>2026-05-28T07:42:05.999Z</time>
      </trkpt>
      <trkpt lat="44.00178" lon="3.49879">
        <ele>669.5</ele>
        <time>2026-05-28T07:42:06.999Z</time>
      </trkpt>
      <trkpt lat="44.00178" lon="3.49879">
        <ele>669.6</ele>
        <time>2026-05-28T07:42:07.999Z</time>
      </trkpt>
      <trkpt lat="44.00178" lon="3.49878">
        <ele>669.7</ele>
        <time>2026-05-28T07:42:08.999Z</time>
      </trkpt>
      <trkpt lat="44.00179" lon="3.49878">
        <ele>669.8</ele>
        <time>2026-05-28T07:42:09.999Z</time>
      </trkpt>
      <trkpt lat="44.0018" lon="3.49877">
        <ele>669.9</ele>
        <time>2026-05-28T07:42:10.999Z</time>
      </trkpt>
      <trkpt lat="44.0018" lon="3.49876">
        <ele>669.9</ele>
        <time>2026-05-28T07:42:11.999Z</time>
      </trkpt>
      <trkpt lat="44.0018" lon="3.49875">
        <ele>670</ele>
        <time>2026-05-28T07:42:12.999Z</time>
      </trkpt>
      <trkpt lat="44.00181" lon="3.49875">
        <ele>670</ele>
        <time>2026-05-28T07:42:13.999Z</time>
      </trkpt>
      <trkpt lat="44.00181" lon="3.49875">
        <ele>669.9</ele>
        <time>2026-05-28T07:42:14.999Z</time>
      </trkpt>
      <trkpt lat="44.00182" lon="3.49876">
        <ele>669.8</ele>
        <time>2026-05-28T07:42:15.999Z</time>
      </trkpt>
      <trkpt lat="44.00182" lon="3.49876">
        <ele>669.8</ele>
        <time>2026-05-28T07:42:16.999Z</time>
      </trkpt>
      <trkpt lat="44.00182" lon="3.49876">
        <ele>669.9</ele>
        <time>2026-05-28T07:42:17.999Z</time>
      </trkpt>
      <trkpt lat="44.00183" lon="3.49876">
        <ele>670.2</ele>
        <time>2026-05-28T07:42:18.999Z</time>
      </trkpt>
      <trkpt lat="44.00182" lon="3.49877">
        <ele>670.3</ele>
        <time>2026-05-28T07:42:19.999Z</time>
      </trkpt>
      <trkpt lat="44.00181" lon="3.49877">
        <ele>670.4</ele>
        <time>2026-05-28T07:42:20.999Z</time>
      </trkpt>
      <trkpt lat="44.00181" lon="3.49878">
        <ele>670.4</ele>
        <time>2026-05-28T07:42:21.999Z</time>
      </trkpt>
      <trkpt lat="44.00181" lon="3.49878">
        <ele>670.5</ele>
        <time>2026-05-28T07:42:22.999Z</time>
      </trkpt>
      <trkpt lat="44.00181" lon="3.49878">
        <ele>670.7</ele>
        <time>2026-05-28T07:42:23.999Z</time>
      </trkpt>
      <trkpt lat="44.00181" lon="3.49878">
        <ele>670.6</ele>
        <time>2026-05-28T07:42:24.999Z</time>
      </trkpt>
      <trkpt lat="44.00181" lon="3.49879">
        <ele>670.7</ele>
        <time>2026-05-28T07:42:25.999Z</time>
      </trkpt>
      <trkpt lat="44.00182" lon="3.49879">
        <ele>670.8</ele>
        <time>2026-05-28T07:42:26.999Z</time>
      </trkpt>
      <trkpt lat="44.00182" lon="3.4988">
        <ele>670.7</ele>
        <time>2026-05-28T07:42:27.999Z</time>
      </trkpt>
      <trkpt lat="44.00182" lon="3.4988">
        <ele>670.8</ele>
        <time>2026-05-28T07:42:28.999Z</time>
      </trkpt>
      <trkpt lat="44.00182" lon="3.4988">
        <ele>670.8</ele>
        <time>2026-05-28T07:42:29.999Z</time>
      </trkpt>
      <trkpt lat="44.00183" lon="3.49881">
        <ele>671.1</ele>
        <time>2026-05-28T07:42:31.999Z</time>
      </trkpt>
      <trkpt lat="44.00183" lon="3.49881">
        <ele>671.3</ele>
        <time>2026-05-28T07:42:32.999Z</time>
      </trkpt>
      <trkpt lat="44.00184" lon="3.49881">
        <ele>671.3</ele>
        <time>2026-05-28T07:42:33.999Z</time>
      </trkpt>
      <trkpt lat="44.00184" lon="3.49881">
        <ele>671.5</ele>
        <time>2026-05-28T07:42:34.999Z</time>
      </trkpt>
      <trkpt lat="44.00184" lon="3.49881">
        <ele>671.4</ele>
        <time>2026-05-28T07:42:35.999Z</time>
      </trkpt>
      <trkpt lat="44.00184" lon="3.49881">
        <ele>671.6</ele>
        <time>2026-05-28T07:42:36.999Z</time>
      </trkpt>
      <trkpt lat="44.00184" lon="3.49881">
        <ele>671.6</ele>
        <time>2026-05-28T07:42:37.999Z</time>
      </trkpt>
      <trkpt lat="44.00184" lon="3.49881">
        <ele>671.6</ele>
        <time>2026-05-28T07:42:38.999Z</time>
      </trkpt>
      <trkpt lat="44.00184" lon="3.49882">
        <ele>671.7</ele>
        <time>2026-05-28T07:42:39.999Z</time>
      </trkpt>
      <trkpt lat="44.00184" lon="3.49882">
        <ele>671.9</ele>
        <time>2026-05-28T07:42:40.999Z</time>
      </trkpt>
      <trkpt lat="44.00184" lon="3.49882">
        <ele>672</ele>
        <time>2026-05-28T07:42:41.999Z</time>
      </trkpt>
      <trkpt lat="44.00184" lon="3.49882">
        <ele>672</ele>
        <time>2026-05-28T07:42:42.999Z</time>
      </trkpt>
      <trkpt lat="44.00184" lon="3.49882">
        <ele>672.1</ele>
        <time>2026-05-28T07:42:43.999Z</time>
      </trkpt>
      <trkpt lat="44.00184" lon="3.49882">
        <ele>672.1</ele>
        <time>2026-05-28T07:42:44.999Z</time>
      </trkpt>
      <trkpt lat="44.00184" lon="3.49882">
        <ele>672.3</ele>
        <time>2026-05-28T07:42:45.999Z</time>
      </trkpt>
      <trkpt lat="44.00184" lon="3.49882">
        <ele>672.3</ele>
        <time>2026-05-28T07:42:46.999Z</time>
      </trkpt>
      <trkpt lat="44.00185" lon="3.49881">
        <ele>672.5</ele>
        <time>2026-05-28T07:42:47.999Z</time>
      </trkpt>
      <trkpt lat="44.00185" lon="3.49882">
        <ele>672.5</ele>
        <time>2026-05-28T07:42:48.999Z</time>
      </trkpt>
      <trkpt lat="44.00186" lon="3.49881">
        <ele>672.7</ele>
        <time>2026-05-28T07:42:49.999Z</time>
      </trkpt>
      <trkpt lat="44.00187" lon="3.49881">
        <ele>672.9</ele>
        <time>2026-05-28T07:42:50.999Z</time>
      </trkpt>
      <trkpt lat="44.00188" lon="3.49881">
        <ele>673</ele>
        <time>2026-05-28T07:42:51.999Z</time>
      </trkpt>
      <trkpt lat="44.00188" lon="3.49881">
        <ele>673.1</ele>
        <time>2026-05-28T07:42:52.999Z</time>
      </trkpt>
      <trkpt lat="44.00189" lon="3.49881">
        <ele>673</ele>
        <time>2026-05-28T07:42:53.999Z</time>
      </trkpt>
      <trkpt lat="44.00189" lon="3.49881">
        <ele>673.3</ele>
        <time>2026-05-28T07:42:54.999Z</time>
      </trkpt>
      <trkpt lat="44.0019" lon="3.49881">
        <ele>673.5</ele>
        <time>2026-05-28T07:42:55.999Z</time>
      </trkpt>
      <trkpt lat="44.0019" lon="3.4988">
        <ele>673.6</ele>
        <time>2026-05-28T07:42:56.999Z</time>
      </trkpt>
      <trkpt lat="44.0019" lon="3.4988">
        <ele>673.7</ele>
        <time>2026-05-28T07:42:57.999Z</time>
      </trkpt>
      <trkpt lat="44.00191" lon="3.49881">
        <ele>673.8</ele>
        <time>2026-05-28T07:42:58.999Z</time>
      </trkpt>
      <trkpt lat="44.00191" lon="3.4988">
        <ele>674</ele>
        <time>2026-05-28T07:42:59.999Z</time>
      </trkpt>
      <trkpt lat="44.00191" lon="3.4988">
        <ele>674</ele>
        <time>2026-05-28T07:43:00.999Z</time>
      </trkpt>
      <trkpt lat="44.00191" lon="3.49879">
        <ele>674.1</ele>
        <time>2026-05-28T07:43:01.999Z</time>
      </trkpt>
      <trkpt lat="44.00191" lon="3.49879">
        <ele>674.3</ele>
        <time>2026-05-28T07:43:02.999Z</time>
      </trkpt>
      <trkpt lat="44.00192" lon="3.49878">
        <ele>674.5</ele>
        <time>2026-05-28T07:43:03.999Z</time>
      </trkpt>
      <trkpt lat="44.00192" lon="3.49878">
        <ele>674.5</ele>
        <time>2026-05-28T07:43:04.999Z</time>
      </trkpt>
      <trkpt lat="44.00192" lon="3.49878">
        <ele>674.8</ele>
        <time>2026-05-28T07:43:05.999Z</time>
      </trkpt>
      <trkpt lat="44.00192" lon="3.49878">
        <ele>674.9</ele>
        <time>2026-05-28T07:43:06.999Z</time>
      </trkpt>
      <trkpt lat="44.00192" lon="3.49878">
        <ele>675.3</ele>
        <time>2026-05-28T07:43:07.999Z</time>
      </trkpt>
      <trkpt lat="44.00192" lon="3.49878">
        <ele>675.4</ele>
        <time>2026-05-28T07:43:08.999Z</time>
      </trkpt>
      <trkpt lat="44.00192" lon="3.49878">
        <ele>675.5</ele>
        <time>2026-05-28T07:43:09.999Z</time>
      </trkpt>
      <trkpt lat="44.00192" lon="3.49878">
        <ele>675.7</ele>
        <time>2026-05-28T07:43:10.999Z</time>
      </trkpt>
      <trkpt lat="44.00193" lon="3.49879">
        <ele>675.8</ele>
        <time>2026-05-28T07:43:12.999Z</time>
      </trkpt>
      <trkpt lat="44.00193" lon="3.49879">
        <ele>675.9</ele>
        <time>2026-05-28T07:43:13.999Z</time>
      </trkpt>
      <trkpt lat="44.00194" lon="3.49878">
        <ele>676</ele>
        <time>2026-05-28T07:43:14.999Z</time>
      </trkpt>
      <trkpt lat="44.00194" lon="3.49878">
        <ele>676.1</ele>
        <time>2026-05-28T07:43:15.999Z</time>
      </trkpt>
      <trkpt lat="44.00195" lon="3.49879">
        <ele>676.4</ele>
        <time>2026-05-28T07:43:16.999Z</time>
      </trkpt>
      <trkpt lat="44.00196" lon="3.49879">
        <ele>676.5</ele>
        <time>2026-05-28T07:43:17.999Z</time>
      </trkpt>
      <trkpt lat="44.00196" lon="3.49879">
        <ele>676.7</ele>
        <time>2026-05-28T07:43:18.999Z</time>
      </trkpt>
      <trkpt lat="44.00196" lon="3.49879">
        <ele>676.9</ele>
        <time>2026-05-28T07:43:19.999Z</time>
      </trkpt>
      <trkpt lat="44.00197" lon="3.49879">
        <ele>677</ele>
        <time>2026-05-28T07:43:20.999Z</time>
      </trkpt>
      <trkpt lat="44.00197" lon="3.49879">
        <ele>677</ele>
        <time>2026-05-28T07:43:21.999Z</time>
      </trkpt>
      <trkpt lat="44.00197" lon="3.49879">
        <ele>677.1</ele>
        <time>2026-05-28T07:43:22.999Z</time>
      </trkpt>
      <trkpt lat="44.00197" lon="3.4988">
        <ele>677.2</ele>
        <time>2026-05-28T07:43:23.999Z</time>
      </trkpt>
      <trkpt lat="44.00197" lon="3.4988">
        <ele>677</ele>
        <time>2026-05-28T07:43:24.999Z</time>
      </trkpt>
      <trkpt lat="44.00197" lon="3.4988">
        <ele>677.3</ele>
        <time>2026-05-28T07:43:25.999Z</time>
      </trkpt>
      <trkpt lat="44.00197" lon="3.4988">
        <ele>677.4</ele>
        <time>2026-05-28T07:43:26.999Z</time>
      </trkpt>
      <trkpt lat="44.00198" lon="3.4988">
        <ele>677.4</ele>
        <time>2026-05-28T07:43:27.999Z</time>
      </trkpt>
      <trkpt lat="44.00198" lon="3.4988">
        <ele>677.5</ele>
        <time>2026-05-28T07:43:28.999Z</time>
      </trkpt>
      <trkpt lat="44.00198" lon="3.4988">
        <ele>677.6</ele>
        <time>2026-05-28T07:43:29.999Z</time>
      </trkpt>
      <trkpt lat="44.00198" lon="3.4988">
        <ele>677.8</ele>
        <time>2026-05-28T07:43:30.999Z</time>
      </trkpt>
      <trkpt lat="44.00198" lon="3.4988">
        <ele>679.2</ele>
        <time>2026-05-28T07:43:31.999Z</time>
      </trkpt>
      <trkpt lat="44.00198" lon="3.4988">
        <ele>679.4</ele>
        <time>2026-05-28T07:43:32.999Z</time>
      </trkpt>
      <trkpt lat="44.00198" lon="3.4988">
        <ele>679.5</ele>
        <time>2026-05-28T07:43:33.999Z</time>
      </trkpt>
      <trkpt lat="44.00198" lon="3.4988">
        <ele>679.5</ele>
        <time>2026-05-28T07:43:34.999Z</time>
      </trkpt>
      <trkpt lat="44.00198" lon="3.49881">
        <ele>679.9</ele>
        <time>2026-05-28T07:43:35.999Z</time>
      </trkpt>
      <trkpt lat="44.00198" lon="3.49882">
        <ele>680.2</ele>
        <time>2026-05-28T07:43:36.999Z</time>
      </trkpt>
      <trkpt lat="44.00198" lon="3.49882">
        <ele>680.4</ele>
        <time>2026-05-28T07:43:37.999Z</time>
      </trkpt>
      <trkpt lat="44.00198" lon="3.49882">
        <ele>680.5</ele>
        <time>2026-05-28T07:43:38.999Z</time>
      </trkpt>
      <trkpt lat="44.00199" lon="3.49882">
        <ele>680.5</ele>
        <time>2026-05-28T07:43:39.999Z</time>
      </trkpt>
      <trkpt lat="44.002" lon="3.49882">
        <ele>680.7</ele>
        <time>2026-05-28T07:43:41.999Z</time>
      </trkpt>
      <trkpt lat="44.00201" lon="3.49882">
        <ele>680.7</ele>
        <time>2026-05-28T07:43:42.999Z</time>
      </trkpt>
      <trkpt lat="44.00201" lon="3.49882">
        <ele>681</ele>
        <time>2026-05-28T07:43:43.999Z</time>
      </trkpt>
      <trkpt lat="44.00201" lon="3.49882">
        <ele>681.7</ele>
        <time>2026-05-28T07:43:44.999Z</time>
      </trkpt>
      <trkpt lat="44.00201" lon="3.49882">
        <ele>681.8</ele>
        <time>2026-05-28T07:43:45.999Z</time>
      </trkpt>
      <trkpt lat="44.00201" lon="3.49882">
        <ele>682</ele>
        <time>2026-05-28T07:43:46.999Z</time>
      </trkpt>
      <trkpt lat="44.00201" lon="3.49882">
        <ele>682</ele>
        <time>2026-05-28T07:43:47.999Z</time>
      </trkpt>
      <trkpt lat="44.00201" lon="3.49882">
        <ele>682.1</ele>
        <time>2026-05-28T07:43:48.999Z</time>
      </trkpt>
      <trkpt lat="44.00202" lon="3.49882">
        <ele>682</ele>
        <time>2026-05-28T07:43:49.999Z</time>
      </trkpt>
      <trkpt lat="44.00202" lon="3.49882">
        <ele>682.1</ele>
        <time>2026-05-28T07:43:50.999Z</time>
      </trkpt>
      <trkpt lat="44.00202" lon="3.49882">
        <ele>682.2</ele>
        <time>2026-05-28T07:43:51.999Z</time>
      </trkpt>
      <trkpt lat="44.00202" lon="3.49882">
        <ele>682.2</ele>
        <time>2026-05-28T07:43:52.999Z</time>
      </trkpt>
      <trkpt lat="44.00202" lon="3.49881">
        <ele>682.2</ele>
        <time>2026-05-28T07:43:53.999Z</time>
      </trkpt>
      <trkpt lat="44.00203" lon="3.49881">
        <ele>682.2</ele>
        <time>2026-05-28T07:43:54.999Z</time>
      </trkpt>
      <trkpt lat="44.00203" lon="3.49881">
        <ele>682.4</ele>
        <time>2026-05-28T07:43:55.999Z</time>
      </trkpt>
      <trkpt lat="44.00203" lon="3.4988">
        <ele>682.3</ele>
        <time>2026-05-28T07:43:56.999Z</time>
      </trkpt>
      <trkpt lat="44.00203" lon="3.4988">
        <ele>682.4</ele>
        <time>2026-05-28T07:43:57.999Z</time>
      </trkpt>
      <trkpt lat="44.00204" lon="3.49878">
        <ele>682.3</ele>
        <time>2026-05-28T07:43:58.999Z</time>
      </trkpt>
      <trkpt lat="44.00205" lon="3.49878">
        <ele>682.4</ele>
        <time>2026-05-28T07:43:59.999Z</time>
      </trkpt>
      <trkpt lat="44.00206" lon="3.49878">
        <ele>682.5</ele>
        <time>2026-05-28T07:44:00.999Z</time>
      </trkpt>
      <trkpt lat="44.00206" lon="3.49877">
        <ele>682.5</ele>
        <time>2026-05-28T07:44:01.999Z</time>
      </trkpt>
      <trkpt lat="44.00207" lon="3.49877">
        <ele>682.6</ele>
        <time>2026-05-28T07:44:02.999Z</time>
      </trkpt>
      <trkpt lat="44.00207" lon="3.49877">
        <ele>682.7</ele>
        <time>2026-05-28T07:44:03.999Z</time>
      </trkpt>
      <trkpt lat="44.00207" lon="3.49878">
        <ele>682.7</ele>
        <time>2026-05-28T07:44:04.999Z</time>
      </trkpt>
      <trkpt lat="44.00208" lon="3.49878">
        <ele>682.9</ele>
        <time>2026-05-28T07:44:05.999Z</time>
      </trkpt>
      <trkpt lat="44.00208" lon="3.49878">
        <ele>683</ele>
        <time>2026-05-28T07:44:06.999Z</time>
      </trkpt>
      <trkpt lat="44.00209" lon="3.49878">
        <ele>683.1</ele>
        <time>2026-05-28T07:44:07.999Z</time>
      </trkpt>
      <trkpt lat="44.00209" lon="3.49878">
        <ele>683.1</ele>
        <time>2026-05-28T07:44:08.999Z</time>
      </trkpt>
      <trkpt lat="44.00209" lon="3.49877">
        <ele>683.2</ele>
        <time>2026-05-28T07:44:09.999Z</time>
      </trkpt>
      <trkpt lat="44.00209" lon="3.49878">
        <ele>683.3</ele>
        <time>2026-05-28T07:44:10.999Z</time>
      </trkpt>
      <trkpt lat="44.00208" lon="3.49879">
        <ele>683.1</ele>
        <time>2026-05-28T07:44:11.999Z</time>
      </trkpt>
      <trkpt lat="44.00208" lon="3.49878">
        <ele>683.1</ele>
        <time>2026-05-28T07:44:12.999Z</time>
      </trkpt>
      <trkpt lat="44.00208" lon="3.49877">
        <ele>683.2</ele>
        <time>2026-05-28T07:44:13.999Z</time>
      </trkpt>
      <trkpt lat="44.00208" lon="3.49877">
        <ele>683.3</ele>
        <time>2026-05-28T07:44:14.999Z</time>
      </trkpt>
      <trkpt lat="44.00208" lon="3.49877">
        <ele>683.4</ele>
        <time>2026-05-28T07:44:15.999Z</time>
      </trkpt>
      <trkpt lat="44.00208" lon="3.49877">
        <ele>683.4</ele>
        <time>2026-05-28T07:44:16.999Z</time>
      </trkpt>
      <trkpt lat="44.00209" lon="3.49877">
        <ele>683.6</ele>
        <time>2026-05-28T07:44:17.999Z</time>
      </trkpt>
      <trkpt lat="44.00209" lon="3.49877">
        <ele>683.6</ele>
        <time>2026-05-28T07:44:18.999Z</time>
      </trkpt>
      <trkpt lat="44.0021" lon="3.49877">
        <ele>683.5</ele>
        <time>2026-05-28T07:44:19.999Z</time>
      </trkpt>
      <trkpt lat="44.00211" lon="3.49876">
        <ele>683.6</ele>
        <time>2026-05-28T07:44:20.999Z</time>
      </trkpt>
      <trkpt lat="44.00211" lon="3.49877">
        <ele>683.6</ele>
        <time>2026-05-28T07:44:21.999Z</time>
      </trkpt>
      <trkpt lat="44.00212" lon="3.49876">
        <ele>683.6</ele>
        <time>2026-05-28T07:44:22.999Z</time>
      </trkpt>
      <trkpt lat="44.00212" lon="3.49876">
        <ele>683.7</ele>
        <time>2026-05-28T07:44:23.999Z</time>
      </trkpt>
      <trkpt lat="44.00212" lon="3.49876">
        <ele>683.8</ele>
        <time>2026-05-28T07:44:24.999Z</time>
      </trkpt>
      <trkpt lat="44.00212" lon="3.49876">
        <ele>683.9</ele>
        <time>2026-05-28T07:44:25.999Z</time>
      </trkpt>
      <trkpt lat="44.00212" lon="3.49876">
        <ele>684</ele>
        <time>2026-05-28T07:44:26.999Z</time>
      </trkpt>
      <trkpt lat="44.00212" lon="3.49876">
        <ele>684</ele>
        <time>2026-05-28T07:44:27.999Z</time>
      </trkpt>
      <trkpt lat="44.00213" lon="3.49876">
        <ele>684</ele>
        <time>2026-05-28T07:44:28.999Z</time>
      </trkpt>
      <trkpt lat="44.00213" lon="3.49876">
        <ele>684.1</ele>
        <time>2026-05-28T07:44:29.999Z</time>
      </trkpt>
      <trkpt lat="44.00213" lon="3.49876">
        <ele>684.3</ele>
        <time>2026-05-28T07:44:30.999Z</time>
      </trkpt>
      <trkpt lat="44.00213" lon="3.49876">
        <ele>684.5</ele>
        <time>2026-05-28T07:44:31.999Z</time>
      </trkpt>
      <trkpt lat="44.00214" lon="3.49876">
        <ele>684.6</ele>
        <time>2026-05-28T07:44:32.999Z</time>
      </trkpt>
      <trkpt lat="44.00214" lon="3.49876">
        <ele>684.7</ele>
        <time>2026-05-28T07:44:33.999Z</time>
      </trkpt>
      <trkpt lat="44.00214" lon="3.49877">
        <ele>685</ele>
        <time>2026-05-28T07:44:34.999Z</time>
      </trkpt>
      <trkpt lat="44.00214" lon="3.49878">
        <ele>685.3</ele>
        <time>2026-05-28T07:44:35.999Z</time>
      </trkpt>
      <trkpt lat="44.00213" lon="3.49878">
        <ele>685.4</ele>
        <time>2026-05-28T07:44:36.999Z</time>
      </trkpt>
      <trkpt lat="44.00213" lon="3.49878">
        <ele>685.4</ele>
        <time>2026-05-28T07:44:37.999Z</time>
      </trkpt>
      <trkpt lat="44.00213" lon="3.49878">
        <ele>685.6</ele>
        <time>2026-05-28T07:44:38.999Z</time>
      </trkpt>
      <trkpt lat="44.00213" lon="3.49878">
        <ele>686</ele>
        <time>2026-05-28T07:44:39.999Z</time>
      </trkpt>
      <trkpt lat="44.00213" lon="3.49879">
        <ele>686.3</ele>
        <time>2026-05-28T07:44:40.999Z</time>
      </trkpt>
      <trkpt lat="44.00213" lon="3.49878">
        <ele>686.5</ele>
        <time>2026-05-28T07:44:42.999Z</time>
      </trkpt>
      <trkpt lat="44.00213" lon="3.49878">
        <ele>686.6</ele>
        <time>2026-05-28T07:44:43.999Z</time>
      </trkpt>
      <trkpt lat="44.00214" lon="3.49877">
        <ele>686.7</ele>
        <time>2026-05-28T07:44:44.999Z</time>
      </trkpt>
      <trkpt lat="44.00214" lon="3.49877">
        <ele>686.9</ele>
        <time>2026-05-28T07:44:45.999Z</time>
      </trkpt>
      <trkpt lat="44.00214" lon="3.49877">
        <ele>687</ele>
        <time>2026-05-28T07:44:46.999Z</time>
      </trkpt>
      <trkpt lat="44.00214" lon="3.49877">
        <ele>687.1</ele>
        <time>2026-05-28T07:44:47.999Z</time>
      </trkpt>
      <trkpt lat="44.00214" lon="3.49876">
        <ele>687.2</ele>
        <time>2026-05-28T07:44:48.999Z</time>
      </trkpt>
      <trkpt lat="44.00214" lon="3.49876">
        <ele>687.4</ele>
        <time>2026-05-28T07:44:49.999Z</time>
      </trkpt>
      <trkpt lat="44.00215" lon="3.49875">
        <ele>687.5</ele>
        <time>2026-05-28T07:44:50.999Z</time>
      </trkpt>
      <trkpt lat="44.00216" lon="3.49875">
        <ele>687.5</ele>
        <time>2026-05-28T07:44:51.999Z</time>
      </trkpt>
      <trkpt lat="44.00216" lon="3.49875">
        <ele>687.4</ele>
        <time>2026-05-28T07:44:52.999Z</time>
      </trkpt>
      <trkpt lat="44.00217" lon="3.49874">
        <ele>687.5</ele>
        <time>2026-05-28T07:44:53.999Z</time>
      </trkpt>
      <trkpt lat="44.00218" lon="3.49874">
        <ele>687.6</ele>
        <time>2026-05-28T07:44:54.999Z</time>
      </trkpt>
      <trkpt lat="44.00219" lon="3.49874">
        <ele>687.7</ele>
        <time>2026-05-28T07:44:55.999Z</time>
      </trkpt>
      <trkpt lat="44.00221" lon="3.49875">
        <ele>687.7</ele>
        <time>2026-05-28T07:44:56.999Z</time>
      </trkpt>
      <trkpt lat="44.00221" lon="3.49874">
        <ele>687.8</ele>
        <time>2026-05-28T07:44:57.999Z</time>
      </trkpt>
      <trkpt lat="44.00221" lon="3.49875">
        <ele>688</ele>
        <time>2026-05-28T07:44:58.999Z</time>
      </trkpt>
      <trkpt lat="44.00221" lon="3.49875">
        <ele>688.1</ele>
        <time>2026-05-28T07:44:59.999Z</time>
      </trkpt>
      <trkpt lat="44.00222" lon="3.49875">
        <ele>688.1</ele>
        <time>2026-05-28T07:45:00.999Z</time>
      </trkpt>
      <trkpt lat="44.00223" lon="3.49876">
        <ele>688.3</ele>
        <time>2026-05-28T07:45:01.999Z</time>
      </trkpt>
      <trkpt lat="44.00223" lon="3.49876">
        <ele>688.4</ele>
        <time>2026-05-28T07:45:02.999Z</time>
      </trkpt>
      <trkpt lat="44.00223" lon="3.49876">
        <ele>688.6</ele>
        <time>2026-05-28T07:45:03.999Z</time>
      </trkpt>
      <trkpt lat="44.00223" lon="3.49877">
        <ele>688.8</ele>
        <time>2026-05-28T07:45:04.999Z</time>
      </trkpt>
      <trkpt lat="44.00223" lon="3.49877">
        <ele>689</ele>
        <time>2026-05-28T07:45:05.999Z</time>
      </trkpt>
      <trkpt lat="44.00223" lon="3.49877">
        <ele>689.1</ele>
        <time>2026-05-28T07:45:06.999Z</time>
      </trkpt>
      <trkpt lat="44.00223" lon="3.49877">
        <ele>689.1</ele>
        <time>2026-05-28T07:45:07.999Z</time>
      </trkpt>
      <trkpt lat="44.00224" lon="3.49877">
        <ele>689.2</ele>
        <time>2026-05-28T07:45:08.999Z</time>
      </trkpt>
      <trkpt lat="44.00224" lon="3.49877">
        <ele>689.4</ele>
        <time>2026-05-28T07:45:09.999Z</time>
      </trkpt>
      <trkpt lat="44.00224" lon="3.49877">
        <ele>689.6</ele>
        <time>2026-05-28T07:45:10.999Z</time>
      </trkpt>
      <trkpt lat="44.00225" lon="3.49877">
        <ele>689.7</ele>
        <time>2026-05-28T07:45:11.999Z</time>
      </trkpt>
      <trkpt lat="44.00225" lon="3.49877">
        <ele>689.7</ele>
        <time>2026-05-28T07:45:12.999Z</time>
      </trkpt>
      <trkpt lat="44.00225" lon="3.49877">
        <ele>689.9</ele>
        <time>2026-05-28T07:45:13.999Z</time>
      </trkpt>
      <trkpt lat="44.00226" lon="3.49877">
        <ele>690</ele>
        <time>2026-05-28T07:45:14.999Z</time>
      </trkpt>
      <trkpt lat="44.00226" lon="3.49877">
        <ele>690.3</ele>
        <time>2026-05-28T07:45:15.999Z</time>
      </trkpt>
      <trkpt lat="44.00226" lon="3.49876">
        <ele>690.5</ele>
        <time>2026-05-28T07:45:16.999Z</time>
      </trkpt>
      <trkpt lat="44.00226" lon="3.49877">
        <ele>690.6</ele>
        <time>2026-05-28T07:45:17.999Z</time>
      </trkpt>
      <trkpt lat="44.00226" lon="3.49877">
        <ele>690.9</ele>
        <time>2026-05-28T07:45:18.999Z</time>
      </trkpt>
      <trkpt lat="44.00226" lon="3.49878">
        <ele>690.8</ele>
        <time>2026-05-28T07:45:19.999Z</time>
      </trkpt>
      <trkpt lat="44.00226" lon="3.49878">
        <ele>690.9</ele>
        <time>2026-05-28T07:45:20.999Z</time>
      </trkpt>
      <trkpt lat="44.00226" lon="3.49878">
        <ele>691.4</ele>
        <time>2026-05-28T07:45:21.999Z</time>
      </trkpt>
      <trkpt lat="44.00226" lon="3.49878">
        <ele>691.7</ele>
        <time>2026-05-28T07:45:22.999Z</time>
      </trkpt>
      <trkpt lat="44.00226" lon="3.49878">
        <ele>691.8</ele>
        <time>2026-05-28T07:45:23.999Z</time>
      </trkpt>
      <trkpt lat="44.00226" lon="3.49878">
        <ele>692.1</ele>
        <time>2026-05-28T07:45:24.999Z</time>
      </trkpt>
      <trkpt lat="44.00227" lon="3.49878">
        <ele>692.2</ele>
        <time>2026-05-28T07:45:25.999Z</time>
      </trkpt>
      <trkpt lat="44.00227" lon="3.49878">
        <ele>692.3</ele>
        <time>2026-05-28T07:45:26.999Z</time>
      </trkpt>
      <trkpt lat="44.00227" lon="3.49878">
        <ele>692.4</ele>
        <time>2026-05-28T07:45:27.999Z</time>
      </trkpt>
      <trkpt lat="44.00228" lon="3.49878">
        <ele>692.4</ele>
        <time>2026-05-28T07:45:28.999Z</time>
      </trkpt>
      <trkpt lat="44.00229" lon="3.49878">
        <ele>692.5</ele>
        <time>2026-05-28T07:45:29.999Z</time>
      </trkpt>
      <trkpt lat="44.0023" lon="3.49879">
        <ele>692.6</ele>
        <time>2026-05-28T07:45:30.999Z</time>
      </trkpt>
      <trkpt lat="44.0023" lon="3.49879">
        <ele>692.9</ele>
        <time>2026-05-28T07:45:31.999Z</time>
      </trkpt>
      <trkpt lat="44.00231" lon="3.49879">
        <ele>693.2</ele>
        <time>2026-05-28T07:45:32.999Z</time>
      </trkpt>
      <trkpt lat="44.00231" lon="3.49878">
        <ele>693.6</ele>
        <time>2026-05-28T07:45:33.999Z</time>
      </trkpt>
      <trkpt lat="44.00231" lon="3.49879">
        <ele>693.9</ele>
        <time>2026-05-28T07:45:34.999Z</time>
      </trkpt>
      <trkpt lat="44.00232" lon="3.49878">
        <ele>694.2</ele>
        <time>2026-05-28T07:45:35.999Z</time>
      </trkpt>
      <trkpt lat="44.00232" lon="3.49878">
        <ele>694.2</ele>
        <time>2026-05-28T07:45:36.999Z</time>
      </trkpt>
      <trkpt lat="44.00233" lon="3.49878">
        <ele>694.2</ele>
        <time>2026-05-28T07:45:37.999Z</time>
      </trkpt>
      <trkpt lat="44.00233" lon="3.49879">
        <ele>694.2</ele>
        <time>2026-05-28T07:45:38.999Z</time>
      </trkpt>
      <trkpt lat="44.00233" lon="3.49879">
        <ele>694.3</ele>
        <time>2026-05-28T07:45:39.999Z</time>
      </trkpt>
      <trkpt lat="44.00234" lon="3.49879">
        <ele>694.3</ele>
        <time>2026-05-28T07:45:40.999Z</time>
      </trkpt>
      <trkpt lat="44.00234" lon="3.49879">
        <ele>694.5</ele>
        <time>2026-05-28T07:45:41.999Z</time>
      </trkpt>
      <trkpt lat="44.00234" lon="3.49879">
        <ele>694.7</ele>
        <time>2026-05-28T07:45:42.999Z</time>
      </trkpt>
      <trkpt lat="44.00235" lon="3.49879">
        <ele>694.8</ele>
        <time>2026-05-28T07:45:43.999Z</time>
      </trkpt>
      <trkpt lat="44.00236" lon="3.49879">
        <ele>695.1</ele>
        <time>2026-05-28T07:45:44.999Z</time>
      </trkpt>
      <trkpt lat="44.00236" lon="3.49879">
        <ele>695.3</ele>
        <time>2026-05-28T07:45:45.999Z</time>
      </trkpt>
      <trkpt lat="44.00236" lon="3.49879">
        <ele>695.5</ele>
        <time>2026-05-28T07:45:46.999Z</time>
      </trkpt>
      <trkpt lat="44.00238" lon="3.49879">
        <ele>695.7</ele>
        <time>2026-05-28T07:45:47.999Z</time>
      </trkpt>
      <trkpt lat="44.00238" lon="3.4988">
        <ele>695.8</ele>
        <time>2026-05-28T07:45:48.999Z</time>
      </trkpt>
      <trkpt lat="44.00239" lon="3.4988">
        <ele>696</ele>
        <time>2026-05-28T07:45:49.999Z</time>
      </trkpt>
      <trkpt lat="44.00239" lon="3.4988">
        <ele>696</ele>
        <time>2026-05-28T07:45:50.999Z</time>
      </trkpt>
      <trkpt lat="44.0024" lon="3.49879">
        <ele>695.8</ele>
        <time>2026-05-28T07:45:51.999Z</time>
      </trkpt>
      <trkpt lat="44.00241" lon="3.49879">
        <ele>695.7</ele>
        <time>2026-05-28T07:45:52.999Z</time>
      </trkpt>
      <trkpt lat="44.00242" lon="3.49878">
        <ele>695.7</ele>
        <time>2026-05-28T07:45:53.999Z</time>
      </trkpt>
      <trkpt lat="44.00243" lon="3.49877">
        <ele>696</ele>
        <time>2026-05-28T07:45:54.999Z</time>
      </trkpt>
      <trkpt lat="44.00244" lon="3.49876">
        <ele>696.1</ele>
        <time>2026-05-28T07:45:55.999Z</time>
      </trkpt>
      <trkpt lat="44.00245" lon="3.49875">
        <ele>696.3</ele>
        <time>2026-05-28T07:45:56.999Z</time>
      </trkpt>
      <trkpt lat="44.00246" lon="3.49875">
        <ele>696.3</ele>
        <time>2026-05-28T07:45:57.999Z</time>
      </trkpt>
      <trkpt lat="44.00247" lon="3.49874">
        <ele>696.2</ele>
        <time>2026-05-28T07:45:58.999Z</time>
      </trkpt>
      <trkpt lat="44.00248" lon="3.49873">
        <ele>696.3</ele>
        <time>2026-05-28T07:45:59.999Z</time>
      </trkpt>
      <trkpt lat="44.0025" lon="3.49873">
        <ele>696.6</ele>
        <time>2026-05-28T07:46:00.999Z</time>
      </trkpt>
      <trkpt lat="44.00251" lon="3.49873">
        <ele>696.7</ele>
        <time>2026-05-28T07:46:01.999Z</time>
      </trkpt>
      <trkpt lat="44.00251" lon="3.49872">
        <ele>696.8</ele>
        <time>2026-05-28T07:46:02.999Z</time>
      </trkpt>
      <trkpt lat="44.00252" lon="3.49871">
        <ele>697</ele>
        <time>2026-05-28T07:46:03.999Z</time>
      </trkpt>
      <trkpt lat="44.00252" lon="3.49871">
        <ele>697</ele>
        <time>2026-05-28T07:46:04.999Z</time>
      </trkpt>
      <trkpt lat="44.00252" lon="3.4987">
        <ele>697</ele>
        <time>2026-05-28T07:46:05.999Z</time>
      </trkpt>
      <trkpt lat="44.00253" lon="3.4987">
        <ele>697</ele>
        <time>2026-05-28T07:46:06.999Z</time>
      </trkpt>
      <trkpt lat="44.00253" lon="3.49869">
        <ele>696.9</ele>
        <time>2026-05-28T07:46:07.999Z</time>
      </trkpt>
      <trkpt lat="44.00254" lon="3.49868">
        <ele>697</ele>
        <time>2026-05-28T07:46:08.999Z</time>
      </trkpt>
      <trkpt lat="44.00255" lon="3.49868">
        <ele>697.1</ele>
        <time>2026-05-28T07:46:09.999Z</time>
      </trkpt>
      <trkpt lat="44.00256" lon="3.49867">
        <ele>697</ele>
        <time>2026-05-28T07:46:10.999Z</time>
      </trkpt>
      <trkpt lat="44.00257" lon="3.49865">
        <ele>697</ele>
        <time>2026-05-28T07:46:11.999Z</time>
      </trkpt>
      <trkpt lat="44.00257" lon="3.49864">
        <ele>697.1</ele>
        <time>2026-05-28T07:46:12.999Z</time>
      </trkpt>
      <trkpt lat="44.00257" lon="3.49864">
        <ele>696.9</ele>
        <time>2026-05-28T07:46:13.999Z</time>
      </trkpt>
      <trkpt lat="44.00258" lon="3.49863">
        <ele>696.8</ele>
        <time>2026-05-28T07:46:14.999Z</time>
      </trkpt>
      <trkpt lat="44.00259" lon="3.49863">
        <ele>696.8</ele>
        <time>2026-05-28T07:46:15.999Z</time>
      </trkpt>
      <trkpt lat="44.0026" lon="3.49862">
        <ele>697.5</ele>
        <time>2026-05-28T07:46:17.999Z</time>
      </trkpt>
      <trkpt lat="44.0026" lon="3.49862">
        <ele>697.7</ele>
        <time>2026-05-28T07:46:18.999Z</time>
      </trkpt>
      <trkpt lat="44.0026" lon="3.49862">
        <ele>697.8</ele>
        <time>2026-05-28T07:46:19.999Z</time>
      </trkpt>
      <trkpt lat="44.0026" lon="3.49862">
        <ele>697.9</ele>
        <time>2026-05-28T07:46:20.999Z</time>
      </trkpt>
      <trkpt lat="44.0026" lon="3.49862">
        <ele>698</ele>
        <time>2026-05-28T07:46:21.999Z</time>
      </trkpt>
      <trkpt lat="44.0026" lon="3.49862">
        <ele>698</ele>
        <time>2026-05-28T07:46:22.999Z</time>
      </trkpt>
      <trkpt lat="44.0026" lon="3.49862">
        <ele>698</ele>
        <time>2026-05-28T07:46:23.999Z</time>
      </trkpt>
      <trkpt lat="44.0026" lon="3.49861">
        <ele>698.1</ele>
        <time>2026-05-28T07:46:24.999Z</time>
      </trkpt>
      <trkpt lat="44.0026" lon="3.4986">
        <ele>698.2</ele>
        <time>2026-05-28T07:46:25.999Z</time>
      </trkpt>
      <trkpt lat="44.00261" lon="3.49859">
        <ele>698.1</ele>
        <time>2026-05-28T07:46:26.999Z</time>
      </trkpt>
      <trkpt lat="44.00261" lon="3.49859">
        <ele>698.3</ele>
        <time>2026-05-28T07:46:27.999Z</time>
      </trkpt>
      <trkpt lat="44.00261" lon="3.49859">
        <ele>698.3</ele>
        <time>2026-05-28T07:46:28.999Z</time>
      </trkpt>
      <trkpt lat="44.00261" lon="3.49859">
        <ele>698.5</ele>
        <time>2026-05-28T07:46:29.999Z</time>
      </trkpt>
      <trkpt lat="44.00261" lon="3.49859">
        <ele>698.7</ele>
        <time>2026-05-28T07:46:30.999Z</time>
      </trkpt>
      <trkpt lat="44.00261" lon="3.49859">
        <ele>698.7</ele>
        <time>2026-05-28T07:46:31.999Z</time>
      </trkpt>
      <trkpt lat="44.00261" lon="3.49859">
        <ele>698.8</ele>
        <time>2026-05-28T07:46:32.999Z</time>
      </trkpt>
      <trkpt lat="44.00261" lon="3.49859">
        <ele>698.8</ele>
        <time>2026-05-28T07:46:33.999Z</time>
      </trkpt>
      <trkpt lat="44.00261" lon="3.49859">
        <ele>698.8</ele>
        <time>2026-05-28T07:46:34.999Z</time>
      </trkpt>
      <trkpt lat="44.00262" lon="3.49858">
        <ele>698.9</ele>
        <time>2026-05-28T07:46:35.999Z</time>
      </trkpt>
      <trkpt lat="44.00263" lon="3.49857">
        <ele>699</ele>
        <time>2026-05-28T07:46:36.999Z</time>
      </trkpt>
      <trkpt lat="44.00264" lon="3.49856">
        <ele>699.1</ele>
        <time>2026-05-28T07:46:37.999Z</time>
      </trkpt>
      <trkpt lat="44.00265" lon="3.49855">
        <ele>699.2</ele>
        <time>2026-05-28T07:46:39.999Z</time>
      </trkpt>
      <trkpt lat="44.00265" lon="3.49855">
        <ele>699.3</ele>
        <time>2026-05-28T07:46:40.999Z</time>
      </trkpt>
      <trkpt lat="44.00267" lon="3.49854">
        <ele>699.2</ele>
        <time>2026-05-28T07:46:41.999Z</time>
      </trkpt>
      <trkpt lat="44.00267" lon="3.49854">
        <ele>699.2</ele>
        <time>2026-05-28T07:46:42.999Z</time>
      </trkpt>
      <trkpt lat="44.00268" lon="3.49853">
        <ele>699.3</ele>
        <time>2026-05-28T07:46:43.999Z</time>
      </trkpt>
      <trkpt lat="44.00268" lon="3.49853">
        <ele>699.6</ele>
        <time>2026-05-28T07:46:44.999Z</time>
      </trkpt>
      <trkpt lat="44.00268" lon="3.49853">
        <ele>699.8</ele>
        <time>2026-05-28T07:46:45.999Z</time>
      </trkpt>
      <trkpt lat="44.00268" lon="3.49853">
        <ele>699.9</ele>
        <time>2026-05-28T07:46:46.999Z</time>
      </trkpt>
      <trkpt lat="44.00268" lon="3.49853">
        <ele>700</ele>
        <time>2026-05-28T07:46:47.999Z</time>
      </trkpt>
      <trkpt lat="44.00268" lon="3.49854">
        <ele>700</ele>
        <time>2026-05-28T07:46:48.999Z</time>
      </trkpt>
      <trkpt lat="44.00268" lon="3.49854">
        <ele>700</ele>
        <time>2026-05-28T07:46:49.999Z</time>
      </trkpt>
      <trkpt lat="44.00268" lon="3.49853">
        <ele>700.2</ele>
        <time>2026-05-28T07:46:51.999Z</time>
      </trkpt>
      <trkpt lat="44.00268" lon="3.49853">
        <ele>700.3</ele>
        <time>2026-05-28T07:46:52.999Z</time>
      </trkpt>
      <trkpt lat="44.00268" lon="3.49852">
        <ele>700.4</ele>
        <time>2026-05-28T07:46:53.999Z</time>
      </trkpt>
      <trkpt lat="44.00269" lon="3.49851">
        <ele>700.4</ele>
        <time>2026-05-28T07:46:54.999Z</time>
      </trkpt>
      <trkpt lat="44.00268" lon="3.49851">
        <ele>700.4</ele>
        <time>2026-05-28T07:46:55.999Z</time>
      </trkpt>
      <trkpt lat="44.00269" lon="3.49851">
        <ele>700.2</ele>
        <time>2026-05-28T07:46:56.999Z</time>
      </trkpt>
      <trkpt lat="44.00269" lon="3.49851">
        <ele>700.3</ele>
        <time>2026-05-28T07:46:57.999Z</time>
      </trkpt>
      <trkpt lat="44.00268" lon="3.4985">
        <ele>700.5</ele>
        <time>2026-05-28T07:46:58.999Z</time>
      </trkpt>
      <trkpt lat="44.00268" lon="3.4985">
        <ele>700.4</ele>
        <time>2026-05-28T07:46:59.999Z</time>
      </trkpt>
      <trkpt lat="44.00268" lon="3.4985">
        <ele>700.4</ele>
        <time>2026-05-28T07:47:00.999Z</time>
      </trkpt>
      <trkpt lat="44.00268" lon="3.49849">
        <ele>700.5</ele>
        <time>2026-05-28T07:47:01.999Z</time>
      </trkpt>
      <trkpt lat="44.00269" lon="3.49848">
        <ele>700.4</ele>
        <time>2026-05-28T07:47:02.999Z</time>
      </trkpt>
      <trkpt lat="44.00269" lon="3.49847">
        <ele>700.5</ele>
        <time>2026-05-28T07:47:03.999Z</time>
      </trkpt>
      <trkpt lat="44.0027" lon="3.49847">
        <ele>700.4</ele>
        <time>2026-05-28T07:47:04.999Z</time>
      </trkpt>
      <trkpt lat="44.0027" lon="3.49847">
        <ele>700.4</ele>
        <time>2026-05-28T07:47:05.999Z</time>
      </trkpt>
      <trkpt lat="44.00271" lon="3.49848">
        <ele>700.3</ele>
        <time>2026-05-28T07:47:07.999Z</time>
      </trkpt>
      <trkpt lat="44.00271" lon="3.49849">
        <ele>700.2</ele>
        <time>2026-05-28T07:47:08.999Z</time>
      </trkpt>
      <trkpt lat="44.00272" lon="3.49848">
        <ele>700.1</ele>
        <time>2026-05-28T07:47:09.999Z</time>
      </trkpt>
      <trkpt lat="44.00273" lon="3.49848">
        <ele>700.1</ele>
        <time>2026-05-28T07:47:10.999Z</time>
      </trkpt>
      <trkpt lat="44.00274" lon="3.49847">
        <ele>699.9</ele>
        <time>2026-05-28T07:47:11.999Z</time>
      </trkpt>
      <trkpt lat="44.00275" lon="3.49847">
        <ele>700</ele>
        <time>2026-05-28T07:47:12.999Z</time>
      </trkpt>
      <trkpt lat="44.00275" lon="3.49847">
        <ele>699.7</ele>
        <time>2026-05-28T07:47:13.999Z</time>
      </trkpt>
      <trkpt lat="44.00276" lon="3.49847">
        <ele>699.9</ele>
        <time>2026-05-28T07:47:14.999Z</time>
      </trkpt>
      <trkpt lat="44.00276" lon="3.49847">
        <ele>700</ele>
        <time>2026-05-28T07:47:15.999Z</time>
      </trkpt>
      <trkpt lat="44.00277" lon="3.49847">
        <ele>699.9</ele>
        <time>2026-05-28T07:47:16.999Z</time>
      </trkpt>
      <trkpt lat="44.00277" lon="3.49847">
        <ele>699.7</ele>
        <time>2026-05-28T07:47:17.999Z</time>
      </trkpt>
      <trkpt lat="44.00277" lon="3.49847">
        <ele>699.8</ele>
        <time>2026-05-28T07:47:18.999Z</time>
      </trkpt>
      <trkpt lat="44.00278" lon="3.49847">
        <ele>699.8</ele>
        <time>2026-05-28T07:47:19.999Z</time>
      </trkpt>
      <trkpt lat="44.00279" lon="3.49847">
        <ele>699.9</ele>
        <time>2026-05-28T07:47:20.999Z</time>
      </trkpt>
      <trkpt lat="44.0028" lon="3.49848">
        <ele>700</ele>
        <time>2026-05-28T07:47:21.999Z</time>
      </trkpt>
      <trkpt lat="44.0028" lon="3.49848">
        <ele>700</ele>
        <time>2026-05-28T07:47:22.999Z</time>
      </trkpt>
      <trkpt lat="44.00281" lon="3.49848">
        <ele>700.1</ele>
        <time>2026-05-28T07:47:23.999Z</time>
      </trkpt>
      <trkpt lat="44.00282" lon="3.49847">
        <ele>700.3</ele>
        <time>2026-05-28T07:47:24.999Z</time>
      </trkpt>
      <trkpt lat="44.00282" lon="3.49847">
        <ele>700.5</ele>
        <time>2026-05-28T07:47:25.999Z</time>
      </trkpt>
      <trkpt lat="44.00283" lon="3.49847">
        <ele>700.7</ele>
        <time>2026-05-28T07:47:27.999Z</time>
      </trkpt>
      <trkpt lat="44.00284" lon="3.49846">
        <ele>700.8</ele>
        <time>2026-05-28T07:47:28.999Z</time>
      </trkpt>
      <trkpt lat="44.00285" lon="3.49845">
        <ele>701</ele>
        <time>2026-05-28T07:47:29.999Z</time>
      </trkpt>
      <trkpt lat="44.00285" lon="3.49845">
        <ele>700.8</ele>
        <time>2026-05-28T07:47:30.999Z</time>
      </trkpt>
      <trkpt lat="44.00285" lon="3.49846">
        <ele>700.7</ele>
        <time>2026-05-28T07:47:31.999Z</time>
      </trkpt>
      <trkpt lat="44.00285" lon="3.49846">
        <ele>701.2</ele>
        <time>2026-05-28T07:47:32.999Z</time>
      </trkpt>
      <trkpt lat="44.00285" lon="3.49846">
        <ele>701.2</ele>
        <time>2026-05-28T07:47:33.999Z</time>
      </trkpt>
      <trkpt lat="44.00285" lon="3.49846">
        <ele>701.1</ele>
        <time>2026-05-28T07:47:34.999Z</time>
      </trkpt>
      <trkpt lat="44.00285" lon="3.49846">
        <ele>701.2</ele>
        <time>2026-05-28T07:47:35.999Z</time>
      </trkpt>
      <trkpt lat="44.00286" lon="3.49846">
        <ele>701.3</ele>
        <time>2026-05-28T07:47:36.999Z</time>
      </trkpt>
      <trkpt lat="44.00286" lon="3.49846">
        <ele>701.3</ele>
        <time>2026-05-28T07:47:37.999Z</time>
      </trkpt>
      <trkpt lat="44.00285" lon="3.49846">
        <ele>701.2</ele>
        <time>2026-05-28T07:47:38.999Z</time>
      </trkpt>
      <trkpt lat="44.00286" lon="3.49845">
        <ele>701.2</ele>
        <time>2026-05-28T07:47:39.999Z</time>
      </trkpt>
      <trkpt lat="44.00286" lon="3.49845">
        <ele>701.3</ele>
        <time>2026-05-28T07:47:40.999Z</time>
      </trkpt>
      <trkpt lat="44.00286" lon="3.49845">
        <ele>701.5</ele>
        <time>2026-05-28T07:47:41.999Z</time>
      </trkpt>
      <trkpt lat="44.00286" lon="3.49844">
        <ele>701.5</ele>
        <time>2026-05-28T07:47:42.999Z</time>
      </trkpt>
      <trkpt lat="44.00286" lon="3.49843">
        <ele>701.5</ele>
        <time>2026-05-28T07:47:43.999Z</time>
      </trkpt>
      <trkpt lat="44.00287" lon="3.49843">
        <ele>701.7</ele>
        <time>2026-05-28T07:47:44.999Z</time>
      </trkpt>
      <trkpt lat="44.00288" lon="3.49843">
        <ele>701.8</ele>
        <time>2026-05-28T07:47:45.999Z</time>
      </trkpt>
      <trkpt lat="44.00289" lon="3.49843">
        <ele>701.8</ele>
        <time>2026-05-28T07:47:46.999Z</time>
      </trkpt>
      <trkpt lat="44.0029" lon="3.49843">
        <ele>701.9</ele>
        <time>2026-05-28T07:47:47.999Z</time>
      </trkpt>
      <trkpt lat="44.00291" lon="3.49843">
        <ele>702</ele>
        <time>2026-05-28T07:47:48.999Z</time>
      </trkpt>
      <trkpt lat="44.00292" lon="3.49844">
        <ele>702.5</ele>
        <time>2026-05-28T07:47:49.999Z</time>
      </trkpt>
      <trkpt lat="44.00293" lon="3.49844">
        <ele>702.7</ele>
        <time>2026-05-28T07:47:50.999Z</time>
      </trkpt>
      <trkpt lat="44.00294" lon="3.49844">
        <ele>702.8</ele>
        <time>2026-05-28T07:47:51.999Z</time>
      </trkpt>
      <trkpt lat="44.00294" lon="3.49844">
        <ele>702.6</ele>
        <time>2026-05-28T07:47:52.999Z</time>
      </trkpt>
      <trkpt lat="44.00295" lon="3.49844">
        <ele>702.8</ele>
        <time>2026-05-28T07:47:53.999Z</time>
      </trkpt>
      <trkpt lat="44.00296" lon="3.49844">
        <ele>702.9</ele>
        <time>2026-05-28T07:47:54.999Z</time>
      </trkpt>
      <trkpt lat="44.00297" lon="3.49844">
        <ele>703.3</ele>
        <time>2026-05-28T07:47:55.999Z</time>
      </trkpt>
      <trkpt lat="44.00297" lon="3.49844">
        <ele>703.2</ele>
        <time>2026-05-28T07:47:56.999Z</time>
      </trkpt>
      <trkpt lat="44.00297" lon="3.49844">
        <ele>703.4</ele>
        <time>2026-05-28T07:47:57.999Z</time>
      </trkpt>
      <trkpt lat="44.00297" lon="3.49844">
        <ele>703.5</ele>
        <time>2026-05-28T07:47:58.999Z</time>
      </trkpt>
      <trkpt lat="44.00297" lon="3.49845">
        <ele>703.6</ele>
        <time>2026-05-28T07:47:59.999Z</time>
      </trkpt>
      <trkpt lat="44.00297" lon="3.49845">
        <ele>703.6</ele>
        <time>2026-05-28T07:48:00.999Z</time>
      </trkpt>
      <trkpt lat="44.00298" lon="3.49845">
        <ele>703.9</ele>
        <time>2026-05-28T07:48:01.999Z</time>
      </trkpt>
      <trkpt lat="44.00298" lon="3.49845">
        <ele>704</ele>
        <time>2026-05-28T07:48:02.999Z</time>
      </trkpt>
      <trkpt lat="44.00298" lon="3.49847">
        <ele>704.1</ele>
        <time>2026-05-28T07:48:03.999Z</time>
      </trkpt>
      <trkpt lat="44.00298" lon="3.49847">
        <ele>704.2</ele>
        <time>2026-05-28T07:48:04.999Z</time>
      </trkpt>
      <trkpt lat="44.00299" lon="3.49848">
        <ele>704.3</ele>
        <time>2026-05-28T07:48:05.999Z</time>
      </trkpt>
      <trkpt lat="44.003" lon="3.49848">
        <ele>704.5</ele>
        <time>2026-05-28T07:48:06.999Z</time>
      </trkpt>
      <trkpt lat="44.00301" lon="3.49847">
        <ele>704.6</ele>
        <time>2026-05-28T07:48:07.999Z</time>
      </trkpt>
      <trkpt lat="44.00302" lon="3.49847">
        <ele>704.7</ele>
        <time>2026-05-28T07:48:08.999Z</time>
      </trkpt>
      <trkpt lat="44.00304" lon="3.49847">
        <ele>704.4</ele>
        <time>2026-05-28T07:48:09.999Z</time>
      </trkpt>
      <trkpt lat="44.00304" lon="3.49846">
        <ele>704.4</ele>
        <time>2026-05-28T07:48:10.999Z</time>
      </trkpt>
      <trkpt lat="44.00305" lon="3.49845">
        <ele>704.4</ele>
        <time>2026-05-28T07:48:11.999Z</time>
      </trkpt>
      <trkpt lat="44.00305" lon="3.49845">
        <ele>704.6</ele>
        <time>2026-05-28T07:48:12.999Z</time>
      </trkpt>
      <trkpt lat="44.00305" lon="3.49845">
        <ele>704.6</ele>
        <time>2026-05-28T07:48:13.999Z</time>
      </trkpt>
      <trkpt lat="44.00305" lon="3.49845">
        <ele>704.7</ele>
        <time>2026-05-28T07:48:14.999Z</time>
      </trkpt>
      <trkpt lat="44.00305" lon="3.49845">
        <ele>704.6</ele>
        <time>2026-05-28T07:48:15.999Z</time>
      </trkpt>
      <trkpt lat="44.00305" lon="3.49845">
        <ele>704.6</ele>
        <time>2026-05-28T07:48:16.999Z</time>
      </trkpt>
      <trkpt lat="44.00305" lon="3.49846">
        <ele>704.6</ele>
        <time>2026-05-28T07:48:17.999Z</time>
      </trkpt>
      <trkpt lat="44.00305" lon="3.49846">
        <ele>704.6</ele>
        <time>2026-05-28T07:48:18.999Z</time>
      </trkpt>
      <trkpt lat="44.00305" lon="3.49846">
        <ele>704.7</ele>
        <time>2026-05-28T07:48:19.999Z</time>
      </trkpt>
      <trkpt lat="44.00305" lon="3.49846">
        <ele>704.7</ele>
        <time>2026-05-28T07:48:20.999Z</time>
      </trkpt>
      <trkpt lat="44.00305" lon="3.49846">
        <ele>704.8</ele>
        <time>2026-05-28T07:48:21.999Z</time>
      </trkpt>
      <trkpt lat="44.00305" lon="3.49846">
        <ele>704.9</ele>
        <time>2026-05-28T07:48:22.999Z</time>
      </trkpt>
      <trkpt lat="44.00306" lon="3.49846">
        <ele>705</ele>
        <time>2026-05-28T07:48:23.999Z</time>
      </trkpt>
      <trkpt lat="44.00306" lon="3.49846">
        <ele>705.2</ele>
        <time>2026-05-28T07:48:24.999Z</time>
      </trkpt>
      <trkpt lat="44.00307" lon="3.49846">
        <ele>705.4</ele>
        <time>2026-05-28T07:48:25.999Z</time>
      </trkpt>
      <trkpt lat="44.00308" lon="3.49847">
        <ele>705.4</ele>
        <time>2026-05-28T07:48:26.999Z</time>
      </trkpt>
      <trkpt lat="44.00309" lon="3.49847">
        <ele>705.6</ele>
        <time>2026-05-28T07:48:27.999Z</time>
      </trkpt>
      <trkpt lat="44.00309" lon="3.49847">
        <ele>705.8</ele>
        <time>2026-05-28T07:48:28.999Z</time>
      </trkpt>
      <trkpt lat="44.00309" lon="3.49847">
        <ele>705.9</ele>
        <time>2026-05-28T07:48:29.999Z</time>
      </trkpt>
      <trkpt lat="44.00309" lon="3.49847">
        <ele>706.1</ele>
        <time>2026-05-28T07:48:30.999Z</time>
      </trkpt>
      <trkpt lat="44.00309" lon="3.49847">
        <ele>706.2</ele>
        <time>2026-05-28T07:48:31.999Z</time>
      </trkpt>
      <trkpt lat="44.00309" lon="3.49847">
        <ele>706.3</ele>
        <time>2026-05-28T07:48:32.999Z</time>
      </trkpt>
      <trkpt lat="44.00309" lon="3.49847">
        <ele>706.5</ele>
        <time>2026-05-28T07:48:33.999Z</time>
      </trkpt>
      <trkpt lat="44.00309" lon="3.49847">
        <ele>706.7</ele>
        <time>2026-05-28T07:48:34.999Z</time>
      </trkpt>
      <trkpt lat="44.00309" lon="3.49847">
        <ele>706.8</ele>
        <time>2026-05-28T07:48:35.999Z</time>
      </trkpt>
      <trkpt lat="44.00309" lon="3.49847">
        <ele>706.9</ele>
        <time>2026-05-28T07:48:36.999Z</time>
      </trkpt>
      <trkpt lat="44.00309" lon="3.49848">
        <ele>707</ele>
        <time>2026-05-28T07:48:37.999Z</time>
      </trkpt>
      <trkpt lat="44.00309" lon="3.49848">
        <ele>707.1</ele>
        <time>2026-05-28T07:48:38.999Z</time>
      </trkpt>
      <trkpt lat="44.00309" lon="3.49848">
        <ele>707.1</ele>
        <time>2026-05-28T07:48:39.999Z</time>
      </trkpt>
      <trkpt lat="44.0031" lon="3.49848">
        <ele>707.3</ele>
        <time>2026-05-28T07:48:40.999Z</time>
      </trkpt>
      <trkpt lat="44.0031" lon="3.49848">
        <ele>707.5</ele>
        <time>2026-05-28T07:48:41.999Z</time>
      </trkpt>
      <trkpt lat="44.0031" lon="3.49848">
        <ele>707.5</ele>
        <time>2026-05-28T07:48:42.999Z</time>
      </trkpt>
      <trkpt lat="44.00311" lon="3.49847">
        <ele>707.5</ele>
        <time>2026-05-28T07:48:43.999Z</time>
      </trkpt>
      <trkpt lat="44.00311" lon="3.49847">
        <ele>707.5</ele>
        <time>2026-05-28T07:48:44.999Z</time>
      </trkpt>
      <trkpt lat="44.00312" lon="3.49847">
        <ele>707.6</ele>
        <time>2026-05-28T07:48:45.999Z</time>
      </trkpt>
      <trkpt lat="44.00312" lon="3.49847">
        <ele>707.7</ele>
        <time>2026-05-28T07:48:46.999Z</time>
      </trkpt>
      <trkpt lat="44.00313" lon="3.49847">
        <ele>707.8</ele>
        <time>2026-05-28T07:48:47.999Z</time>
      </trkpt>
      <trkpt lat="44.00314" lon="3.49848">
        <ele>707.8</ele>
        <time>2026-05-28T07:48:48.999Z</time>
      </trkpt>
      <trkpt lat="44.00316" lon="3.49849">
        <ele>707.9</ele>
        <time>2026-05-28T07:48:49.999Z</time>
      </trkpt>
      <trkpt lat="44.00316" lon="3.49848">
        <ele>708.1</ele>
        <time>2026-05-28T07:48:50.999Z</time>
      </trkpt>
      <trkpt lat="44.00316" lon="3.49848">
        <ele>708.3</ele>
        <time>2026-05-28T07:48:51.999Z</time>
      </trkpt>
      <trkpt lat="44.00316" lon="3.49848">
        <ele>708.6</ele>
        <time>2026-05-28T07:48:52.999Z</time>
      </trkpt>
      <trkpt lat="44.00317" lon="3.49849">
        <ele>708.9</ele>
        <time>2026-05-28T07:48:53.999Z</time>
      </trkpt>
      <trkpt lat="44.00317" lon="3.49849">
        <ele>709.1</ele>
        <time>2026-05-28T07:48:54.999Z</time>
      </trkpt>
      <trkpt lat="44.00319" lon="3.49849">
        <ele>709.3</ele>
        <time>2026-05-28T07:48:55.999Z</time>
      </trkpt>
      <trkpt lat="44.00319" lon="3.49849">
        <ele>709.6</ele>
        <time>2026-05-28T07:48:56.999Z</time>
      </trkpt>
      <trkpt lat="44.00319" lon="3.49849">
        <ele>709.9</ele>
        <time>2026-05-28T07:48:57.999Z</time>
      </trkpt>
      <trkpt lat="44.00319" lon="3.49849">
        <ele>709.9</ele>
        <time>2026-05-28T07:48:58.999Z</time>
      </trkpt>
      <trkpt lat="44.0032" lon="3.4985">
        <ele>710.1</ele>
        <time>2026-05-28T07:48:59.999Z</time>
      </trkpt>
      <trkpt lat="44.00321" lon="3.4985">
        <ele>710.4</ele>
        <time>2026-05-28T07:49:00.999Z</time>
      </trkpt>
      <trkpt lat="44.00321" lon="3.4985">
        <ele>710.6</ele>
        <time>2026-05-28T07:49:01.999Z</time>
      </trkpt>
      <trkpt lat="44.00321" lon="3.4985">
        <ele>710.7</ele>
        <time>2026-05-28T07:49:02.999Z</time>
      </trkpt>
      <trkpt lat="44.00322" lon="3.4985">
        <ele>711</ele>
        <time>2026-05-28T07:49:03.999Z</time>
      </trkpt>
      <trkpt lat="44.00322" lon="3.49851">
        <ele>711.2</ele>
        <time>2026-05-28T07:49:04.999Z</time>
      </trkpt>
      <trkpt lat="44.00323" lon="3.49852">
        <ele>711.6</ele>
        <time>2026-05-28T07:49:05.999Z</time>
      </trkpt>
      <trkpt lat="44.00323" lon="3.49853">
        <ele>711.6</ele>
        <time>2026-05-28T07:49:06.999Z</time>
      </trkpt>
      <trkpt lat="44.00323" lon="3.49853">
        <ele>711.8</ele>
        <time>2026-05-28T07:49:07.999Z</time>
      </trkpt>
      <trkpt lat="44.00323" lon="3.49853">
        <ele>712.1</ele>
        <time>2026-05-28T07:49:08.999Z</time>
      </trkpt>
      <trkpt lat="44.00323" lon="3.49853">
        <ele>712.2</ele>
        <time>2026-05-28T07:49:09.999Z</time>
      </trkpt>
      <trkpt lat="44.00323" lon="3.49853">
        <ele>712.3</ele>
        <time>2026-05-28T07:49:10.999Z</time>
      </trkpt>
      <trkpt lat="44.00323" lon="3.49853">
        <ele>712.4</ele>
        <time>2026-05-28T07:49:11.999Z</time>
      </trkpt>
      <trkpt lat="44.00323" lon="3.49853">
        <ele>712.8</ele>
        <time>2026-05-28T07:49:12.999Z</time>
      </trkpt>
      <trkpt lat="44.00324" lon="3.49853">
        <ele>713.1</ele>
        <time>2026-05-28T07:49:13.999Z</time>
      </trkpt>
      <trkpt lat="44.00324" lon="3.49853">
        <ele>713.2</ele>
        <time>2026-05-28T07:49:14.999Z</time>
      </trkpt>
      <trkpt lat="44.00323" lon="3.49853">
        <ele>713.5</ele>
        <time>2026-05-28T07:49:15.999Z</time>
      </trkpt>
      <trkpt lat="44.00323" lon="3.49853">
        <ele>713.5</ele>
        <time>2026-05-28T07:49:16.999Z</time>
      </trkpt>
      <trkpt lat="44.00323" lon="3.49852">
        <ele>713.4</ele>
        <time>2026-05-28T07:49:17.999Z</time>
      </trkpt>
      <trkpt lat="44.00323" lon="3.49852">
        <ele>713.5</ele>
        <time>2026-05-28T07:49:18.999Z</time>
      </trkpt>
      <trkpt lat="44.00323" lon="3.49852">
        <ele>713.4</ele>
        <time>2026-05-28T07:49:19.999Z</time>
      </trkpt>
      <trkpt lat="44.00323" lon="3.49852">
        <ele>713.2</ele>
        <time>2026-05-28T07:49:20.999Z</time>
      </trkpt>
      <trkpt lat="44.00323" lon="3.49852">
        <ele>713.3</ele>
        <time>2026-05-28T07:49:21.999Z</time>
      </trkpt>
      <trkpt lat="44.00324" lon="3.49852">
        <ele>713.4</ele>
        <time>2026-05-28T07:49:22.999Z</time>
      </trkpt>
      <trkpt lat="44.00324" lon="3.49852">
        <ele>713.5</ele>
        <time>2026-05-28T07:49:23.999Z</time>
      </trkpt>
      <trkpt lat="44.00326" lon="3.49852">
        <ele>713.7</ele>
        <time>2026-05-28T07:49:24.999Z</time>
      </trkpt>
      <trkpt lat="44.00327" lon="3.49852">
        <ele>713.9</ele>
        <time>2026-05-28T07:49:25.999Z</time>
      </trkpt>
      <trkpt lat="44.00328" lon="3.49852">
        <ele>714.1</ele>
        <time>2026-05-28T07:49:26.999Z</time>
      </trkpt>
      <trkpt lat="44.00329" lon="3.49852">
        <ele>714.2</ele>
        <time>2026-05-28T07:49:27.999Z</time>
      </trkpt>
      <trkpt lat="44.00329" lon="3.49851">
        <ele>714.5</ele>
        <time>2026-05-28T07:49:28.999Z</time>
      </trkpt>
      <trkpt lat="44.0033" lon="3.49851">
        <ele>714.5</ele>
        <time>2026-05-28T07:49:29.999Z</time>
      </trkpt>
      <trkpt lat="44.0033" lon="3.49851">
        <ele>714.5</ele>
        <time>2026-05-28T07:49:30.999Z</time>
      </trkpt>
      <trkpt lat="44.0033" lon="3.49851">
        <ele>714.7</ele>
        <time>2026-05-28T07:49:31.999Z</time>
      </trkpt>
      <trkpt lat="44.0033" lon="3.49851">
        <ele>714.8</ele>
        <time>2026-05-28T07:49:32.999Z</time>
      </trkpt>
      <trkpt lat="44.00331" lon="3.49851">
        <ele>715</ele>
        <time>2026-05-28T07:49:33.999Z</time>
      </trkpt>
      <trkpt lat="44.00331" lon="3.49851">
        <ele>715</ele>
        <time>2026-05-28T07:49:34.999Z</time>
      </trkpt>
      <trkpt lat="44.00332" lon="3.49851">
        <ele>715.1</ele>
        <time>2026-05-28T07:49:35.999Z</time>
      </trkpt>
      <trkpt lat="44.00332" lon="3.49851">
        <ele>715.4</ele>
        <time>2026-05-28T07:49:36.999Z</time>
      </trkpt>
      <trkpt lat="44.00332" lon="3.49851">
        <ele>715.6</ele>
        <time>2026-05-28T07:49:37.999Z</time>
      </trkpt>
      <trkpt lat="44.00333" lon="3.49851">
        <ele>716</ele>
        <time>2026-05-28T07:49:39.999Z</time>
      </trkpt>
      <trkpt lat="44.00333" lon="3.49851">
        <ele>716.3</ele>
        <time>2026-05-28T07:49:40.999Z</time>
      </trkpt>
      <trkpt lat="44.00333" lon="3.49851">
        <ele>716.4</ele>
        <time>2026-05-28T07:49:41.999Z</time>
      </trkpt>
      <trkpt lat="44.00333" lon="3.49851">
        <ele>716.6</ele>
        <time>2026-05-28T07:49:42.999Z</time>
      </trkpt>
      <trkpt lat="44.00333" lon="3.4985">
        <ele>716.7</ele>
        <time>2026-05-28T07:49:43.999Z</time>
      </trkpt>
      <trkpt lat="44.00333" lon="3.4985">
        <ele>716.9</ele>
        <time>2026-05-28T07:49:44.999Z</time>
      </trkpt>
      <trkpt lat="44.00333" lon="3.4985">
        <ele>717.1</ele>
        <time>2026-05-28T07:49:45.999Z</time>
      </trkpt>
      <trkpt lat="44.00334" lon="3.4985">
        <ele>717.2</ele>
        <time>2026-05-28T07:49:46.999Z</time>
      </trkpt>
      <trkpt lat="44.00335" lon="3.4985">
        <ele>717.4</ele>
        <time>2026-05-28T07:49:47.999Z</time>
      </trkpt>
      <trkpt lat="44.00337" lon="3.4985">
        <ele>717.8</ele>
        <time>2026-05-28T07:49:48.999Z</time>
      </trkpt>
      <trkpt lat="44.00338" lon="3.4985">
        <ele>717.8</ele>
        <time>2026-05-28T07:49:49.999Z</time>
      </trkpt>
      <trkpt lat="44.0034" lon="3.4985">
        <ele>717.8</ele>
        <time>2026-05-28T07:49:50.999Z</time>
      </trkpt>
      <trkpt lat="44.00341" lon="3.4985">
        <ele>717.9</ele>
        <time>2026-05-28T07:49:51.999Z</time>
      </trkpt>
      <trkpt lat="44.00342" lon="3.4985">
        <ele>718.1</ele>
        <time>2026-05-28T07:49:52.999Z</time>
      </trkpt>
      <trkpt lat="44.00342" lon="3.4985">
        <ele>718.1</ele>
        <time>2026-05-28T07:49:53.999Z</time>
      </trkpt>
      <trkpt lat="44.00344" lon="3.4985">
        <ele>717.9</ele>
        <time>2026-05-28T07:49:54.999Z</time>
      </trkpt>
      <trkpt lat="44.00344" lon="3.4985">
        <ele>717.9</ele>
        <time>2026-05-28T07:49:55.999Z</time>
      </trkpt>
      <trkpt lat="44.00344" lon="3.4985">
        <ele>718</ele>
        <time>2026-05-28T07:49:56.999Z</time>
      </trkpt>
      <trkpt lat="44.00344" lon="3.4985">
        <ele>718</ele>
        <time>2026-05-28T07:49:57.999Z</time>
      </trkpt>
      <trkpt lat="44.00345" lon="3.4985">
        <ele>718.2</ele>
        <time>2026-05-28T07:49:58.999Z</time>
      </trkpt>
      <trkpt lat="44.00345" lon="3.4985">
        <ele>718.3</ele>
        <time>2026-05-28T07:49:59.999Z</time>
      </trkpt>
      <trkpt lat="44.00346" lon="3.4985">
        <ele>718.4</ele>
        <time>2026-05-28T07:50:00.999Z</time>
      </trkpt>
      <trkpt lat="44.00346" lon="3.4985">
        <ele>718.6</ele>
        <time>2026-05-28T07:50:02.999Z</time>
      </trkpt>
      <trkpt lat="44.00347" lon="3.4985">
        <ele>718.9</ele>
        <time>2026-05-28T07:50:03.999Z</time>
      </trkpt>
      <trkpt lat="44.00348" lon="3.4985">
        <ele>719</ele>
        <time>2026-05-28T07:50:04.999Z</time>
      </trkpt>
      <trkpt lat="44.00348" lon="3.4985">
        <ele>719.3</ele>
        <time>2026-05-28T07:50:05.999Z</time>
      </trkpt>
      <trkpt lat="44.00348" lon="3.4985">
        <ele>719.3</ele>
        <time>2026-05-28T07:50:06.999Z</time>
      </trkpt>
      <trkpt lat="44.00348" lon="3.49849">
        <ele>719.5</ele>
        <time>2026-05-28T07:50:07.999Z</time>
      </trkpt>
      <trkpt lat="44.00349" lon="3.4985">
        <ele>719.7</ele>
        <time>2026-05-28T07:50:08.999Z</time>
      </trkpt>
      <trkpt lat="44.0035" lon="3.4985">
        <ele>719.7</ele>
        <time>2026-05-28T07:50:09.999Z</time>
      </trkpt>
      <trkpt lat="44.0035" lon="3.4985">
        <ele>719.7</ele>
        <time>2026-05-28T07:50:10.999Z</time>
      </trkpt>
      <trkpt lat="44.0035" lon="3.4985">
        <ele>719.5</ele>
        <time>2026-05-28T07:50:11.999Z</time>
      </trkpt>
      <trkpt lat="44.0035" lon="3.4985">
        <ele>719.5</ele>
        <time>2026-05-28T07:50:12.999Z</time>
      </trkpt>
      <trkpt lat="44.0035" lon="3.4985">
        <ele>719.3</ele>
        <time>2026-05-28T07:50:13.999Z</time>
      </trkpt>
      <trkpt lat="44.0035" lon="3.4985">
        <ele>719.3</ele>
        <time>2026-05-28T07:50:14.999Z</time>
      </trkpt>
      <trkpt lat="44.00351" lon="3.4985">
        <ele>719.4</ele>
        <time>2026-05-28T07:50:15.999Z</time>
      </trkpt>
      <trkpt lat="44.00351" lon="3.4985">
        <ele>719.6</ele>
        <time>2026-05-28T07:50:16.999Z</time>
      </trkpt>
      <trkpt lat="44.00351" lon="3.4985">
        <ele>719.7</ele>
        <time>2026-05-28T07:50:17.999Z</time>
      </trkpt>
      <trkpt lat="44.00351" lon="3.4985">
        <ele>719.9</ele>
        <time>2026-05-28T07:50:18.999Z</time>
      </trkpt>
      <trkpt lat="44.00352" lon="3.49849">
        <ele>720</ele>
        <time>2026-05-28T07:50:19.999Z</time>
      </trkpt>
      <trkpt lat="44.00353" lon="3.49848">
        <ele>720</ele>
        <time>2026-05-28T07:50:20.999Z</time>
      </trkpt>
      <trkpt lat="44.00354" lon="3.49848">
        <ele>720</ele>
        <time>2026-05-28T07:50:21.999Z</time>
      </trkpt>
      <trkpt lat="44.00356" lon="3.49847">
        <ele>719.9</ele>
        <time>2026-05-28T07:50:22.999Z</time>
      </trkpt>
      <trkpt lat="44.00357" lon="3.49846">
        <ele>719.9</ele>
        <time>2026-05-28T07:50:23.999Z</time>
      </trkpt>
      <trkpt lat="44.00358" lon="3.49845">
        <ele>720.1</ele>
        <time>2026-05-28T07:50:24.999Z</time>
      </trkpt>
      <trkpt lat="44.00358" lon="3.49845">
        <ele>720.2</ele>
        <time>2026-05-28T07:50:25.999Z</time>
      </trkpt>
      <trkpt lat="44.00358" lon="3.49844">
        <ele>720.3</ele>
        <time>2026-05-28T07:50:26.999Z</time>
      </trkpt>
      <trkpt lat="44.00358" lon="3.49843">
        <ele>720.4</ele>
        <time>2026-05-28T07:50:27.999Z</time>
      </trkpt>
      <trkpt lat="44.00359" lon="3.49843">
        <ele>720.4</ele>
        <time>2026-05-28T07:50:28.999Z</time>
      </trkpt>
      <trkpt lat="44.00359" lon="3.49843">
        <ele>720.3</ele>
        <time>2026-05-28T07:50:29.999Z</time>
      </trkpt>
      <trkpt lat="44.00359" lon="3.49843">
        <ele>720.5</ele>
        <time>2026-05-28T07:50:30.999Z</time>
      </trkpt>
      <trkpt lat="44.0036" lon="3.49843">
        <ele>720.7</ele>
        <time>2026-05-28T07:50:31.999Z</time>
      </trkpt>
      <trkpt lat="44.00359" lon="3.49843">
        <ele>720.9</ele>
        <time>2026-05-28T07:50:32.999Z</time>
      </trkpt>
      <trkpt lat="44.00359" lon="3.49843">
        <ele>721.2</ele>
        <time>2026-05-28T07:50:33.999Z</time>
      </trkpt>
      <trkpt lat="44.0036" lon="3.49842">
        <ele>721.3</ele>
        <time>2026-05-28T07:50:34.999Z</time>
      </trkpt>
      <trkpt lat="44.0036" lon="3.49842">
        <ele>721.6</ele>
        <time>2026-05-28T07:50:35.999Z</time>
      </trkpt>
      <trkpt lat="44.0036" lon="3.49842">
        <ele>721.8</ele>
        <time>2026-05-28T07:50:36.999Z</time>
      </trkpt>
      <trkpt lat="44.00361" lon="3.49842">
        <ele>721.9</ele>
        <time>2026-05-28T07:50:37.999Z</time>
      </trkpt>
      <trkpt lat="44.00361" lon="3.49841">
        <ele>722</ele>
        <time>2026-05-28T07:50:38.999Z</time>
      </trkpt>
      <trkpt lat="44.00361" lon="3.4984">
        <ele>721.9</ele>
        <time>2026-05-28T07:50:39.999Z</time>
      </trkpt>
      <trkpt lat="44.00361" lon="3.49839">
        <ele>722</ele>
        <time>2026-05-28T07:50:40.999Z</time>
      </trkpt>
      <trkpt lat="44.00362" lon="3.49839">
        <ele>722</ele>
        <time>2026-05-28T07:50:41.999Z</time>
      </trkpt>
      <trkpt lat="44.00362" lon="3.49839">
        <ele>722</ele>
        <time>2026-05-28T07:50:42.999Z</time>
      </trkpt>
      <trkpt lat="44.00363" lon="3.49838">
        <ele>722</ele>
        <time>2026-05-28T07:50:43.999Z</time>
      </trkpt>
      <trkpt lat="44.00364" lon="3.49837">
        <ele>722.1</ele>
        <time>2026-05-28T07:50:45.999Z</time>
      </trkpt>
      <trkpt lat="44.00365" lon="3.49837">
        <ele>722.1</ele>
        <time>2026-05-28T07:50:46.999Z</time>
      </trkpt>
      <trkpt lat="44.00365" lon="3.49837">
        <ele>722.1</ele>
        <time>2026-05-28T07:50:47.999Z</time>
      </trkpt>
      <trkpt lat="44.00366" lon="3.49837">
        <ele>722</ele>
        <time>2026-05-28T07:50:48.999Z</time>
      </trkpt>
      <trkpt lat="44.00366" lon="3.49837">
        <ele>722</ele>
        <time>2026-05-28T07:50:49.999Z</time>
      </trkpt>
      <trkpt lat="44.00367" lon="3.49836">
        <ele>722</ele>
        <time>2026-05-28T07:50:50.999Z</time>
      </trkpt>
      <trkpt lat="44.00367" lon="3.49836">
        <ele>722.3</ele>
        <time>2026-05-28T07:50:51.999Z</time>
      </trkpt>
      <trkpt lat="44.00368" lon="3.49836">
        <ele>722.3</ele>
        <time>2026-05-28T07:50:52.999Z</time>
      </trkpt>
      <trkpt lat="44.00368" lon="3.49836">
        <ele>722.2</ele>
        <time>2026-05-28T07:50:53.999Z</time>
      </trkpt>
      <trkpt lat="44.00369" lon="3.49837">
        <ele>722.3</ele>
        <time>2026-05-28T07:50:54.999Z</time>
      </trkpt>
      <trkpt lat="44.0037" lon="3.49837">
        <ele>722.3</ele>
        <time>2026-05-28T07:50:55.999Z</time>
      </trkpt>
      <trkpt lat="44.0037" lon="3.49837">
        <ele>722.4</ele>
        <time>2026-05-28T07:50:56.999Z</time>
      </trkpt>
      <trkpt lat="44.0037" lon="3.49837">
        <ele>722.6</ele>
        <time>2026-05-28T07:50:57.999Z</time>
      </trkpt>
      <trkpt lat="44.0037" lon="3.49837">
        <ele>722.7</ele>
        <time>2026-05-28T07:50:58.999Z</time>
      </trkpt>
      <trkpt lat="44.0037" lon="3.49837">
        <ele>722.9</ele>
        <time>2026-05-28T07:50:59.999Z</time>
      </trkpt>
      <trkpt lat="44.0037" lon="3.49837">
        <ele>723.2</ele>
        <time>2026-05-28T07:51:00.999Z</time>
      </trkpt>
      <trkpt lat="44.0037" lon="3.49837">
        <ele>723.5</ele>
        <time>2026-05-28T07:51:01.999Z</time>
      </trkpt>
      <trkpt lat="44.0037" lon="3.49837">
        <ele>723.8</ele>
        <time>2026-05-28T07:51:03.999Z</time>
      </trkpt>
      <trkpt lat="44.0037" lon="3.49837">
        <ele>724.1</ele>
        <time>2026-05-28T07:51:04.999Z</time>
      </trkpt>
      <trkpt lat="44.0037" lon="3.49837">
        <ele>724.2</ele>
        <time>2026-05-28T07:51:05.999Z</time>
      </trkpt>
      <trkpt lat="44.00371" lon="3.49837">
        <ele>724.4</ele>
        <time>2026-05-28T07:51:06.999Z</time>
      </trkpt>
      <trkpt lat="44.00371" lon="3.49837">
        <ele>724.6</ele>
        <time>2026-05-28T07:51:07.999Z</time>
      </trkpt>
      <trkpt lat="44.00372" lon="3.49838">
        <ele>724.7</ele>
        <time>2026-05-28T07:51:08.999Z</time>
      </trkpt>
      <trkpt lat="44.00373" lon="3.49837">
        <ele>724.9</ele>
        <time>2026-05-28T07:51:09.999Z</time>
      </trkpt>
      <trkpt lat="44.00374" lon="3.49837">
        <ele>725.1</ele>
        <time>2026-05-28T07:51:10.999Z</time>
      </trkpt>
      <trkpt lat="44.00374" lon="3.49838">
        <ele>725.2</ele>
        <time>2026-05-28T07:51:11.999Z</time>
      </trkpt>
      <trkpt lat="44.00375" lon="3.49838">
        <ele>725.5</ele>
        <time>2026-05-28T07:51:12.999Z</time>
      </trkpt>
      <trkpt lat="44.00376" lon="3.49837">
        <ele>725.7</ele>
        <time>2026-05-28T07:51:13.999Z</time>
      </trkpt>
      <trkpt lat="44.00376" lon="3.49837">
        <ele>725.8</ele>
        <time>2026-05-28T07:51:14.999Z</time>
      </trkpt>
      <trkpt lat="44.00376" lon="3.49837">
        <ele>726</ele>
        <time>2026-05-28T07:51:15.999Z</time>
      </trkpt>
      <trkpt lat="44.00376" lon="3.49836">
        <ele>726.1</ele>
        <time>2026-05-28T07:51:16.999Z</time>
      </trkpt>
      <trkpt lat="44.00376" lon="3.49836">
        <ele>726.4</ele>
        <time>2026-05-28T07:51:17.999Z</time>
      </trkpt>
      <trkpt lat="44.00377" lon="3.49836">
        <ele>726.5</ele>
        <time>2026-05-28T07:51:18.999Z</time>
      </trkpt>
      <trkpt lat="44.00377" lon="3.49836">
        <ele>726.3</ele>
        <time>2026-05-28T07:51:19.999Z</time>
      </trkpt>
      <trkpt lat="44.00377" lon="3.49836">
        <ele>726.4</ele>
        <time>2026-05-28T07:51:20.999Z</time>
      </trkpt>
      <trkpt lat="44.00377" lon="3.49836">
        <ele>726.3</ele>
        <time>2026-05-28T07:51:21.999Z</time>
      </trkpt>
      <trkpt lat="44.00377" lon="3.49836">
        <ele>726.4</ele>
        <time>2026-05-28T07:51:22.999Z</time>
      </trkpt>
      <trkpt lat="44.00377" lon="3.49836">
        <ele>726.6</ele>
        <time>2026-05-28T07:51:23.999Z</time>
      </trkpt>
      <trkpt lat="44.00378" lon="3.49836">
        <ele>726.8</ele>
        <time>2026-05-28T07:51:24.999Z</time>
      </trkpt>
      <trkpt lat="44.00378" lon="3.49837">
        <ele>726.8</ele>
        <time>2026-05-28T07:51:25.999Z</time>
      </trkpt>
      <trkpt lat="44.00378" lon="3.49837">
        <ele>727</ele>
        <time>2026-05-28T07:51:26.999Z</time>
      </trkpt>
      <trkpt lat="44.00378" lon="3.49837">
        <ele>727.2</ele>
        <time>2026-05-28T07:51:27.999Z</time>
      </trkpt>
      <trkpt lat="44.00378" lon="3.49837">
        <ele>727.6</ele>
        <time>2026-05-28T07:51:28.999Z</time>
      </trkpt>
      <trkpt lat="44.00378" lon="3.49837">
        <ele>727.7</ele>
        <time>2026-05-28T07:51:29.999Z</time>
      </trkpt>
      <trkpt lat="44.00379" lon="3.49837">
        <ele>728</ele>
        <time>2026-05-28T07:51:30.999Z</time>
      </trkpt>
      <trkpt lat="44.00379" lon="3.49837">
        <ele>728.2</ele>
        <time>2026-05-28T07:51:31.999Z</time>
      </trkpt>
      <trkpt lat="44.0038" lon="3.49837">
        <ele>728.2</ele>
        <time>2026-05-28T07:51:32.999Z</time>
      </trkpt>
      <trkpt lat="44.00381" lon="3.49837">
        <ele>728.3</ele>
        <time>2026-05-28T07:51:33.999Z</time>
      </trkpt>
      <trkpt lat="44.00381" lon="3.49837">
        <ele>728.3</ele>
        <time>2026-05-28T07:51:34.999Z</time>
      </trkpt>
      <trkpt lat="44.00382" lon="3.49838">
        <ele>728.5</ele>
        <time>2026-05-28T07:51:35.999Z</time>
      </trkpt>
      <trkpt lat="44.00382" lon="3.49838">
        <ele>728.6</ele>
        <time>2026-05-28T07:51:36.999Z</time>
      </trkpt>
      <trkpt lat="44.00383" lon="3.49837">
        <ele>728.7</ele>
        <time>2026-05-28T07:51:37.999Z</time>
      </trkpt>
      <trkpt lat="44.00384" lon="3.49837">
        <ele>728.9</ele>
        <time>2026-05-28T07:51:38.999Z</time>
      </trkpt>
      <trkpt lat="44.00385" lon="3.49838">
        <ele>729</ele>
        <time>2026-05-28T07:51:39.999Z</time>
      </trkpt>
      <trkpt lat="44.00385" lon="3.49838">
        <ele>729.2</ele>
        <time>2026-05-28T07:51:40.999Z</time>
      </trkpt>
      <trkpt lat="44.00386" lon="3.49838">
        <ele>729.4</ele>
        <time>2026-05-28T07:51:41.999Z</time>
      </trkpt>
      <trkpt lat="44.00387" lon="3.49838">
        <ele>729.3</ele>
        <time>2026-05-28T07:51:42.999Z</time>
      </trkpt>
      <trkpt lat="44.00387" lon="3.49837">
        <ele>729.5</ele>
        <time>2026-05-28T07:51:43.999Z</time>
      </trkpt>
      <trkpt lat="44.00388" lon="3.49837">
        <ele>729.5</ele>
        <time>2026-05-28T07:51:44.999Z</time>
      </trkpt>
      <trkpt lat="44.00389" lon="3.49837">
        <ele>729.6</ele>
        <time>2026-05-28T07:51:45.999Z</time>
      </trkpt>
      <trkpt lat="44.00389" lon="3.49837">
        <ele>729.6</ele>
        <time>2026-05-28T07:51:46.999Z</time>
      </trkpt>
      <trkpt lat="44.0039" lon="3.49837">
        <ele>729.8</ele>
        <time>2026-05-28T07:51:47.999Z</time>
      </trkpt>
      <trkpt lat="44.00391" lon="3.49837">
        <ele>730</ele>
        <time>2026-05-28T07:51:48.999Z</time>
      </trkpt>
      <trkpt lat="44.00391" lon="3.49837">
        <ele>729.9</ele>
        <time>2026-05-28T07:51:49.999Z</time>
      </trkpt>
      <trkpt lat="44.00391" lon="3.49837">
        <ele>729.9</ele>
        <time>2026-05-28T07:51:50.999Z</time>
      </trkpt>
      <trkpt lat="44.00391" lon="3.49836">
        <ele>730</ele>
        <time>2026-05-28T07:51:51.999Z</time>
      </trkpt>
      <trkpt lat="44.00391" lon="3.49835">
        <ele>730.1</ele>
        <time>2026-05-28T07:51:52.999Z</time>
      </trkpt>
      <trkpt lat="44.00391" lon="3.49834">
        <ele>730.1</ele>
        <time>2026-05-28T07:51:53.999Z</time>
      </trkpt>
      <trkpt lat="44.00391" lon="3.49834">
        <ele>730.1</ele>
        <time>2026-05-28T07:51:54.999Z</time>
      </trkpt>
      <trkpt lat="44.00391" lon="3.49833">
        <ele>730.2</ele>
        <time>2026-05-28T07:51:55.999Z</time>
      </trkpt>
      <trkpt lat="44.00391" lon="3.49833">
        <ele>730.1</ele>
        <time>2026-05-28T07:51:56.999Z</time>
      </trkpt>
      <trkpt lat="44.00392" lon="3.49833">
        <ele>730.2</ele>
        <time>2026-05-28T07:51:57.999Z</time>
      </trkpt>
      <trkpt lat="44.00392" lon="3.49833">
        <ele>730.3</ele>
        <time>2026-05-28T07:51:58.999Z</time>
      </trkpt>
      <trkpt lat="44.00392" lon="3.49833">
        <ele>730.2</ele>
        <time>2026-05-28T07:51:59.999Z</time>
      </trkpt>
      <trkpt lat="44.00392" lon="3.49833">
        <ele>730.2</ele>
        <time>2026-05-28T07:52:00.999Z</time>
      </trkpt>
      <trkpt lat="44.00392" lon="3.49832">
        <ele>730.4</ele>
        <time>2026-05-28T07:52:01.999Z</time>
      </trkpt>
      <trkpt lat="44.00393" lon="3.49832">
        <ele>730.5</ele>
        <time>2026-05-28T07:52:02.999Z</time>
      </trkpt>
      <trkpt lat="44.00393" lon="3.49832">
        <ele>730.5</ele>
        <time>2026-05-28T07:52:03.999Z</time>
      </trkpt>
      <trkpt lat="44.00393" lon="3.49832">
        <ele>730.6</ele>
        <time>2026-05-28T07:52:04.999Z</time>
      </trkpt>
      <trkpt lat="44.00393" lon="3.49832">
        <ele>730.7</ele>
        <time>2026-05-28T07:52:05.999Z</time>
      </trkpt>
      <trkpt lat="44.00393" lon="3.49832">
        <ele>730.9</ele>
        <time>2026-05-28T07:52:06.999Z</time>
      </trkpt>
      <trkpt lat="44.00394" lon="3.49832">
        <ele>730.9</ele>
        <time>2026-05-28T07:52:07.999Z</time>
      </trkpt>
      <trkpt lat="44.00395" lon="3.49832">
        <ele>731</ele>
        <time>2026-05-28T07:52:08.999Z</time>
      </trkpt>
      <trkpt lat="44.00395" lon="3.49832">
        <ele>731.1</ele>
        <time>2026-05-28T07:52:09.999Z</time>
      </trkpt>
      <trkpt lat="44.00398" lon="3.49834">
        <ele>731.2</ele>
        <time>2026-05-28T07:52:10.999Z</time>
      </trkpt>
      <trkpt lat="44.00399" lon="3.49834">
        <ele>731.2</ele>
        <time>2026-05-28T07:52:11.999Z</time>
      </trkpt>
      <trkpt lat="44.00398" lon="3.49834">
        <ele>731.5</ele>
        <time>2026-05-28T07:52:12.999Z</time>
      </trkpt>
      <trkpt lat="44.00398" lon="3.49834">
        <ele>731.7</ele>
        <time>2026-05-28T07:52:13.999Z</time>
      </trkpt>
      <trkpt lat="44.00398" lon="3.49834">
        <ele>731.9</ele>
        <time>2026-05-28T07:52:14.999Z</time>
      </trkpt>
      <trkpt lat="44.00398" lon="3.49834">
        <ele>731.9</ele>
        <time>2026-05-28T07:52:15.999Z</time>
      </trkpt>
      <trkpt lat="44.00398" lon="3.49834">
        <ele>731.9</ele>
        <time>2026-05-28T07:52:16.999Z</time>
      </trkpt>
      <trkpt lat="44.00398" lon="3.49834">
        <ele>732</ele>
        <time>2026-05-28T07:52:17.999Z</time>
      </trkpt>
      <trkpt lat="44.00399" lon="3.49835">
        <ele>732.1</ele>
        <time>2026-05-28T07:52:18.999Z</time>
      </trkpt>
      <trkpt lat="44.00399" lon="3.49835">
        <ele>732.3</ele>
        <time>2026-05-28T07:52:19.999Z</time>
      </trkpt>
      <trkpt lat="44.00399" lon="3.49835">
        <ele>732.4</ele>
        <time>2026-05-28T07:52:20.999Z</time>
      </trkpt>
      <trkpt lat="44.00398" lon="3.49834">
        <ele>732.7</ele>
        <time>2026-05-28T07:52:21.999Z</time>
      </trkpt>
      <trkpt lat="44.00398" lon="3.49833">
        <ele>732.9</ele>
        <time>2026-05-28T07:52:22.999Z</time>
      </trkpt>
      <trkpt lat="44.00399" lon="3.49834">
        <ele>732.9</ele>
        <time>2026-05-28T07:52:23.999Z</time>
      </trkpt>
      <trkpt lat="44.00399" lon="3.49834">
        <ele>733</ele>
        <time>2026-05-28T07:52:24.999Z</time>
      </trkpt>
      <trkpt lat="44.00399" lon="3.49834">
        <ele>733</ele>
        <time>2026-05-28T07:52:25.999Z</time>
      </trkpt>
      <trkpt lat="44.00399" lon="3.49834">
        <ele>733</ele>
        <time>2026-05-28T07:52:26.999Z</time>
      </trkpt>
      <trkpt lat="44.00399" lon="3.49834">
        <ele>732.8</ele>
        <time>2026-05-28T07:52:27.999Z</time>
      </trkpt>
      <trkpt lat="44.00399" lon="3.49834">
        <ele>732.7</ele>
        <time>2026-05-28T07:52:28.999Z</time>
      </trkpt>
      <trkpt lat="44.00399" lon="3.49834">
        <ele>732.5</ele>
        <time>2026-05-28T07:52:29.999Z</time>
      </trkpt>
      <trkpt lat="44.004" lon="3.49834">
        <ele>732.5</ele>
        <time>2026-05-28T07:52:30.999Z</time>
      </trkpt>
      <trkpt lat="44.00401" lon="3.49835">
        <ele>732.6</ele>
        <time>2026-05-28T07:52:31.999Z</time>
      </trkpt>
      <trkpt lat="44.00402" lon="3.49835">
        <ele>732.7</ele>
        <time>2026-05-28T07:52:32.999Z</time>
      </trkpt>
      <trkpt lat="44.00402" lon="3.49834">
        <ele>732.8</ele>
        <time>2026-05-28T07:52:33.999Z</time>
      </trkpt>
      <trkpt lat="44.00402" lon="3.49835">
        <ele>732.9</ele>
        <time>2026-05-28T07:52:34.999Z</time>
      </trkpt>
      <trkpt lat="44.00403" lon="3.49836">
        <ele>733</ele>
        <time>2026-05-28T07:52:35.999Z</time>
      </trkpt>
      <trkpt lat="44.00404" lon="3.49835">
        <ele>732.8</ele>
        <time>2026-05-28T07:52:36.999Z</time>
      </trkpt>
      <trkpt lat="44.00404" lon="3.49836">
        <ele>733</ele>
        <time>2026-05-28T07:52:37.999Z</time>
      </trkpt>
      <trkpt lat="44.00404" lon="3.49835">
        <ele>733.1</ele>
        <time>2026-05-28T07:52:38.999Z</time>
      </trkpt>
      <trkpt lat="44.00404" lon="3.49835">
        <ele>733.2</ele>
        <time>2026-05-28T07:52:39.999Z</time>
      </trkpt>
      <trkpt lat="44.00404" lon="3.49835">
        <ele>733.3</ele>
        <time>2026-05-28T07:52:40.999Z</time>
      </trkpt>
      <trkpt lat="44.00405" lon="3.49835">
        <ele>733.3</ele>
        <time>2026-05-28T07:52:41.999Z</time>
      </trkpt>
      <trkpt lat="44.00405" lon="3.49835">
        <ele>733.5</ele>
        <time>2026-05-28T07:52:42.999Z</time>
      </trkpt>
      <trkpt lat="44.00405" lon="3.49836">
        <ele>733.5</ele>
        <time>2026-05-28T07:52:43.999Z</time>
      </trkpt>
      <trkpt lat="44.00405" lon="3.49836">
        <ele>733.7</ele>
        <time>2026-05-28T07:52:44.999Z</time>
      </trkpt>
      <trkpt lat="44.00405" lon="3.49836">
        <ele>733.8</ele>
        <time>2026-05-28T07:52:45.999Z</time>
      </trkpt>
      <trkpt lat="44.00405" lon="3.49836">
        <ele>733.8</ele>
        <time>2026-05-28T07:52:46.999Z</time>
      </trkpt>
      <trkpt lat="44.00405" lon="3.49836">
        <ele>734.1</ele>
        <time>2026-05-28T07:52:47.999Z</time>
      </trkpt>
      <trkpt lat="44.00405" lon="3.49836">
        <ele>734.4</ele>
        <time>2026-05-28T07:52:48.999Z</time>
      </trkpt>
      <trkpt lat="44.00405" lon="3.49836">
        <ele>734.6</ele>
        <time>2026-05-28T07:52:49.999Z</time>
      </trkpt>
      <trkpt lat="44.00405" lon="3.49835">
        <ele>734.9</ele>
        <time>2026-05-28T07:52:50.999Z</time>
      </trkpt>
      <trkpt lat="44.00405" lon="3.49835">
        <ele>735</ele>
        <time>2026-05-28T07:52:51.999Z</time>
      </trkpt>
      <trkpt lat="44.00406" lon="3.49835">
        <ele>735.1</ele>
        <time>2026-05-28T07:52:52.999Z</time>
      </trkpt>
      <trkpt lat="44.00406" lon="3.49835">
        <ele>735.3</ele>
        <time>2026-05-28T07:52:53.999Z</time>
      </trkpt>
      <trkpt lat="44.00407" lon="3.49835">
        <ele>735.5</ele>
        <time>2026-05-28T07:52:54.999Z</time>
      </trkpt>
      <trkpt lat="44.00407" lon="3.49834">
        <ele>735.5</ele>
        <time>2026-05-28T07:52:55.999Z</time>
      </trkpt>
      <trkpt lat="44.00406" lon="3.49834">
        <ele>735.8</ele>
        <time>2026-05-28T07:52:56.999Z</time>
      </trkpt>
      <trkpt lat="44.00406" lon="3.49835">
        <ele>736</ele>
        <time>2026-05-28T07:52:57.999Z</time>
      </trkpt>
      <trkpt lat="44.00406" lon="3.49834">
        <ele>736.2</ele>
        <time>2026-05-28T07:52:58.999Z</time>
      </trkpt>
      <trkpt lat="44.00406" lon="3.49834">
        <ele>736.4</ele>
        <time>2026-05-28T07:52:59.999Z</time>
      </trkpt>
      <trkpt lat="44.00406" lon="3.49834">
        <ele>736.6</ele>
        <time>2026-05-28T07:53:00.999Z</time>
      </trkpt>
      <trkpt lat="44.00407" lon="3.49835">
        <ele>736.8</ele>
        <time>2026-05-28T07:53:01.999Z</time>
      </trkpt>
      <trkpt lat="44.00407" lon="3.49835">
        <ele>736.9</ele>
        <time>2026-05-28T07:53:02.999Z</time>
      </trkpt>
      <trkpt lat="44.00407" lon="3.49835">
        <ele>736.9</ele>
        <time>2026-05-28T07:53:03.999Z</time>
      </trkpt>
      <trkpt lat="44.00408" lon="3.49835">
        <ele>737</ele>
        <time>2026-05-28T07:53:04.999Z</time>
      </trkpt>
      <trkpt lat="44.00408" lon="3.49835">
        <ele>737.1</ele>
        <time>2026-05-28T07:53:05.999Z</time>
      </trkpt>
      <trkpt lat="44.00408" lon="3.49835">
        <ele>737.3</ele>
        <time>2026-05-28T07:53:06.999Z</time>
      </trkpt>
      <trkpt lat="44.00408" lon="3.49835">
        <ele>737.5</ele>
        <time>2026-05-28T07:53:07.999Z</time>
      </trkpt>
      <trkpt lat="44.00408" lon="3.49835">
        <ele>737.5</ele>
        <time>2026-05-28T07:53:08.999Z</time>
      </trkpt>
      <trkpt lat="44.00409" lon="3.49836">
        <ele>737.7</ele>
        <time>2026-05-28T07:53:09.999Z</time>
      </trkpt>
      <trkpt lat="44.00409" lon="3.49835">
        <ele>737.6</ele>
        <time>2026-05-28T07:53:10.999Z</time>
      </trkpt>
      <trkpt lat="44.0041" lon="3.49835">
        <ele>737.6</ele>
        <time>2026-05-28T07:53:11.999Z</time>
      </trkpt>
      <trkpt lat="44.0041" lon="3.49835">
        <ele>737.7</ele>
        <time>2026-05-28T07:53:12.999Z</time>
      </trkpt>
      <trkpt lat="44.0041" lon="3.49834">
        <ele>737.8</ele>
        <time>2026-05-28T07:53:13.999Z</time>
      </trkpt>
      <trkpt lat="44.0041" lon="3.49834">
        <ele>737.9</ele>
        <time>2026-05-28T07:53:14.999Z</time>
      </trkpt>
      <trkpt lat="44.0041" lon="3.49834">
        <ele>738</ele>
        <time>2026-05-28T07:53:15.999Z</time>
      </trkpt>
      <trkpt lat="44.00411" lon="3.49834">
        <ele>738.2</ele>
        <time>2026-05-28T07:53:16.999Z</time>
      </trkpt>
      <trkpt lat="44.00411" lon="3.49834">
        <ele>738.4</ele>
        <time>2026-05-28T07:53:17.999Z</time>
      </trkpt>
      <trkpt lat="44.00412" lon="3.49834">
        <ele>738.5</ele>
        <time>2026-05-28T07:53:18.999Z</time>
      </trkpt>
      <trkpt lat="44.00413" lon="3.49834">
        <ele>738.7</ele>
        <time>2026-05-28T07:53:19.999Z</time>
      </trkpt>
      <trkpt lat="44.00413" lon="3.49834">
        <ele>738.7</ele>
        <time>2026-05-28T07:53:20.999Z</time>
      </trkpt>
      <trkpt lat="44.00413" lon="3.49835">
        <ele>738.8</ele>
        <time>2026-05-28T07:53:21.999Z</time>
      </trkpt>
      <trkpt lat="44.00414" lon="3.49835">
        <ele>738.9</ele>
        <time>2026-05-28T07:53:22.999Z</time>
      </trkpt>
      <trkpt lat="44.00415" lon="3.49835">
        <ele>739</ele>
        <time>2026-05-28T07:53:23.999Z</time>
      </trkpt>
      <trkpt lat="44.00416" lon="3.49835">
        <ele>739</ele>
        <time>2026-05-28T07:53:24.999Z</time>
      </trkpt>
      <trkpt lat="44.00417" lon="3.49834">
        <ele>739.1</ele>
        <time>2026-05-28T07:53:25.999Z</time>
      </trkpt>
      <trkpt lat="44.00418" lon="3.49835">
        <ele>739.1</ele>
        <time>2026-05-28T07:53:27.000Z</time>
      </trkpt>
      <trkpt lat="44.00419" lon="3.49835">
        <ele>739.2</ele>
        <time>2026-05-28T07:53:28.000Z</time>
      </trkpt>
      <trkpt lat="44.0042" lon="3.49835">
        <ele>739.3</ele>
        <time>2026-05-28T07:53:29.000Z</time>
      </trkpt>
      <trkpt lat="44.00421" lon="3.49835">
        <ele>739.3</ele>
        <time>2026-05-28T07:53:30.000Z</time>
      </trkpt>
      <trkpt lat="44.00421" lon="3.49835">
        <ele>739.5</ele>
        <time>2026-05-28T07:53:31.000Z</time>
      </trkpt>
      <trkpt lat="44.00421" lon="3.49835">
        <ele>739.7</ele>
        <time>2026-05-28T07:53:32.000Z</time>
      </trkpt>
      <trkpt lat="44.00421" lon="3.49834">
        <ele>739.9</ele>
        <time>2026-05-28T07:53:33.000Z</time>
      </trkpt>
      <trkpt lat="44.00421" lon="3.49834">
        <ele>740.1</ele>
        <time>2026-05-28T07:53:34.000Z</time>
      </trkpt>
      <trkpt lat="44.00422" lon="3.49833">
        <ele>740.2</ele>
        <time>2026-05-28T07:53:35.000Z</time>
      </trkpt>
      <trkpt lat="44.00422" lon="3.49833">
        <ele>740.4</ele>
        <time>2026-05-28T07:53:36.000Z</time>
      </trkpt>
      <trkpt lat="44.00423" lon="3.49832">
        <ele>740.5</ele>
        <time>2026-05-28T07:53:37.000Z</time>
      </trkpt>
      <trkpt lat="44.00423" lon="3.49832">
        <ele>740.6</ele>
        <time>2026-05-28T07:53:38.000Z</time>
      </trkpt>
      <trkpt lat="44.00424" lon="3.49832">
        <ele>740.8</ele>
        <time>2026-05-28T07:53:39.000Z</time>
      </trkpt>
      <trkpt lat="44.00424" lon="3.49832">
        <ele>740.9</ele>
        <time>2026-05-28T07:53:40.000Z</time>
      </trkpt>
      <trkpt lat="44.00425" lon="3.49833">
        <ele>740.6</ele>
        <time>2026-05-28T07:53:41.000Z</time>
      </trkpt>
      <trkpt lat="44.00426" lon="3.49833">
        <ele>740.7</ele>
        <time>2026-05-28T07:53:42.000Z</time>
      </trkpt>
      <trkpt lat="44.00426" lon="3.49833">
        <ele>740.7</ele>
        <time>2026-05-28T07:53:43.000Z</time>
      </trkpt>
      <trkpt lat="44.00427" lon="3.49833">
        <ele>740.8</ele>
        <time>2026-05-28T07:53:44.000Z</time>
      </trkpt>
      <trkpt lat="44.00427" lon="3.49833">
        <ele>740.7</ele>
        <time>2026-05-28T07:53:45.000Z</time>
      </trkpt>
      <trkpt lat="44.00428" lon="3.49833">
        <ele>740.9</ele>
        <time>2026-05-28T07:53:46.000Z</time>
      </trkpt>
      <trkpt lat="44.00429" lon="3.49833">
        <ele>741</ele>
        <time>2026-05-28T07:53:47.000Z</time>
      </trkpt>
      <trkpt lat="44.00429" lon="3.49833">
        <ele>741.1</ele>
        <time>2026-05-28T07:53:48.000Z</time>
      </trkpt>
      <trkpt lat="44.00429" lon="3.49833">
        <ele>741.2</ele>
        <time>2026-05-28T07:53:49.000Z</time>
      </trkpt>
      <trkpt lat="44.00429" lon="3.49833">
        <ele>741.2</ele>
        <time>2026-05-28T07:53:50.000Z</time>
      </trkpt>
      <trkpt lat="44.00429" lon="3.49834">
        <ele>741.2</ele>
        <time>2026-05-28T07:53:51.000Z</time>
      </trkpt>
      <trkpt lat="44.00429" lon="3.49834">
        <ele>741</ele>
        <time>2026-05-28T07:53:52.000Z</time>
      </trkpt>
      <trkpt lat="44.00429" lon="3.49834">
        <ele>741</ele>
        <time>2026-05-28T07:53:53.000Z</time>
      </trkpt>
      <trkpt lat="44.00429" lon="3.49834">
        <ele>741.2</ele>
        <time>2026-05-28T07:53:54.000Z</time>
      </trkpt>
      <trkpt lat="44.00429" lon="3.49834">
        <ele>741.3</ele>
        <time>2026-05-28T07:53:55.000Z</time>
      </trkpt>
      <trkpt lat="44.00429" lon="3.49834">
        <ele>741.5</ele>
        <time>2026-05-28T07:53:56.000Z</time>
      </trkpt>
      <trkpt lat="44.00429" lon="3.49834">
        <ele>741.6</ele>
        <time>2026-05-28T07:53:57.000Z</time>
      </trkpt>
      <trkpt lat="44.00429" lon="3.49834">
        <ele>741.8</ele>
        <time>2026-05-28T07:53:58.000Z</time>
      </trkpt>
      <trkpt lat="44.00429" lon="3.49834">
        <ele>741.9</ele>
        <time>2026-05-28T07:53:59.000Z</time>
      </trkpt>
      <trkpt lat="44.00429" lon="3.49834">
        <ele>742</ele>
        <time>2026-05-28T07:54:00.000Z</time>
      </trkpt>
      <trkpt lat="44.0043" lon="3.49834">
        <ele>742.1</ele>
        <time>2026-05-28T07:54:01.000Z</time>
      </trkpt>
      <trkpt lat="44.0043" lon="3.49834">
        <ele>742.1</ele>
        <time>2026-05-28T07:54:02.000Z</time>
      </trkpt>
      <trkpt lat="44.00431" lon="3.49835">
        <ele>742.1</ele>
        <time>2026-05-28T07:54:03.000Z</time>
      </trkpt>
      <trkpt lat="44.00432" lon="3.49836">
        <ele>742.2</ele>
        <time>2026-05-28T07:54:04.000Z</time>
      </trkpt>
      <trkpt lat="44.00433" lon="3.49837">
        <ele>742.2</ele>
        <time>2026-05-28T07:54:05.000Z</time>
      </trkpt>
      <trkpt lat="44.00434" lon="3.49838">
        <ele>742.3</ele>
        <time>2026-05-28T07:54:06.000Z</time>
      </trkpt>
      <trkpt lat="44.00434" lon="3.49839">
        <ele>742.6</ele>
        <time>2026-05-28T07:54:07.000Z</time>
      </trkpt>
      <trkpt lat="44.00434" lon="3.49838">
        <ele>742.9</ele>
        <time>2026-05-28T07:54:08.000Z</time>
      </trkpt>
      <trkpt lat="44.00434" lon="3.49836">
        <ele>743.1</ele>
        <time>2026-05-28T07:54:09.000Z</time>
      </trkpt>
      <trkpt lat="44.00435" lon="3.49836">
        <ele>743.2</ele>
        <time>2026-05-28T07:54:10.000Z</time>
      </trkpt>
      <trkpt lat="44.00434" lon="3.49835">
        <ele>743.4</ele>
        <time>2026-05-28T07:54:11.000Z</time>
      </trkpt>
      <trkpt lat="44.00434" lon="3.49835">
        <ele>743.6</ele>
        <time>2026-05-28T07:54:12.000Z</time>
      </trkpt>
      <trkpt lat="44.00434" lon="3.49834">
        <ele>743.8</ele>
        <time>2026-05-28T07:54:13.000Z</time>
      </trkpt>
      <trkpt lat="44.00434" lon="3.49834">
        <ele>743.9</ele>
        <time>2026-05-28T07:54:14.000Z</time>
      </trkpt>
      <trkpt lat="44.00434" lon="3.49834">
        <ele>744</ele>
        <time>2026-05-28T07:54:15.000Z</time>
      </trkpt>
      <trkpt lat="44.00434" lon="3.49834">
        <ele>744.4</ele>
        <time>2026-05-28T07:54:16.000Z</time>
      </trkpt>
      <trkpt lat="44.00434" lon="3.49834">
        <ele>744.5</ele>
        <time>2026-05-28T07:54:17.000Z</time>
      </trkpt>
      <trkpt lat="44.00434" lon="3.49834">
        <ele>744.7</ele>
        <time>2026-05-28T07:54:18.000Z</time>
      </trkpt>
      <trkpt lat="44.00434" lon="3.49834">
        <ele>744.8</ele>
        <time>2026-05-28T07:54:19.000Z</time>
      </trkpt>
      <trkpt lat="44.00434" lon="3.49834">
        <ele>744.9</ele>
        <time>2026-05-28T07:54:20.000Z</time>
      </trkpt>
      <trkpt lat="44.00434" lon="3.49834">
        <ele>745.1</ele>
        <time>2026-05-28T07:54:21.000Z</time>
      </trkpt>
      <trkpt lat="44.00434" lon="3.49834">
        <ele>745.2</ele>
        <time>2026-05-28T07:54:22.000Z</time>
      </trkpt>
      <trkpt lat="44.00434" lon="3.49834">
        <ele>745.3</ele>
        <time>2026-05-28T07:54:23.000Z</time>
      </trkpt>
      <trkpt lat="44.00434" lon="3.49834">
        <ele>745.4</ele>
        <time>2026-05-28T07:54:24.000Z</time>
      </trkpt>
      <trkpt lat="44.00434" lon="3.49834">
        <ele>745.4</ele>
        <time>2026-05-28T07:54:25.000Z</time>
      </trkpt>
      <trkpt lat="44.00434" lon="3.49834">
        <ele>745.4</ele>
        <time>2026-05-28T07:54:26.000Z</time>
      </trkpt>
      <trkpt lat="44.00434" lon="3.49834">
        <ele>745.5</ele>
        <time>2026-05-28T07:54:27.000Z</time>
      </trkpt>
      <trkpt lat="44.00434" lon="3.49834">
        <ele>745.5</ele>
        <time>2026-05-28T07:54:28.000Z</time>
      </trkpt>
      <trkpt lat="44.00434" lon="3.49834">
        <ele>745.6</ele>
        <time>2026-05-28T07:54:29.000Z</time>
      </trkpt>
      <trkpt lat="44.00434" lon="3.49835">
        <ele>745.6</ele>
        <time>2026-05-28T07:54:30.000Z</time>
      </trkpt>
      <trkpt lat="44.00434" lon="3.49835">
        <ele>745.7</ele>
        <time>2026-05-28T07:54:31.000Z</time>
      </trkpt>
      <trkpt lat="44.00434" lon="3.49834">
        <ele>746</ele>
        <time>2026-05-28T07:54:33.000Z</time>
      </trkpt>
      <trkpt lat="44.00434" lon="3.49834">
        <ele>746</ele>
        <time>2026-05-28T07:54:34.000Z</time>
      </trkpt>
      <trkpt lat="44.00434" lon="3.49835">
        <ele>745.9</ele>
        <time>2026-05-28T07:54:35.000Z</time>
      </trkpt>
      <trkpt lat="44.00434" lon="3.49834">
        <ele>746</ele>
        <time>2026-05-28T07:54:36.000Z</time>
      </trkpt>
      <trkpt lat="44.00433" lon="3.49834">
        <ele>746.1</ele>
        <time>2026-05-28T07:54:37.000Z</time>
      </trkpt>
      <trkpt lat="44.00432" lon="3.49834">
        <ele>746.1</ele>
        <time>2026-05-28T07:54:38.000Z</time>
      </trkpt>
      <trkpt lat="44.00432" lon="3.49834">
        <ele>746.1</ele>
        <time>2026-05-28T07:54:39.000Z</time>
      </trkpt>
      <trkpt lat="44.00432" lon="3.49834">
        <ele>746.1</ele>
        <time>2026-05-28T07:54:40.000Z</time>
      </trkpt>
      <trkpt lat="44.00432" lon="3.49834">
        <ele>746.2</ele>
        <time>2026-05-28T07:54:41.000Z</time>
      </trkpt>
      <trkpt lat="44.00432" lon="3.49834">
        <ele>746.2</ele>
        <time>2026-05-28T07:54:42.000Z</time>
      </trkpt>
      <trkpt lat="44.00432" lon="3.49834">
        <ele>746.3</ele>
        <time>2026-05-28T07:54:43.000Z</time>
      </trkpt>
      <trkpt lat="44.00433" lon="3.49833">
        <ele>746.5</ele>
        <time>2026-05-28T07:54:44.000Z</time>
      </trkpt>
      <trkpt lat="44.00433" lon="3.49833">
        <ele>746.7</ele>
        <time>2026-05-28T07:54:45.000Z</time>
      </trkpt>
      <trkpt lat="44.00433" lon="3.49834">
        <ele>747.1</ele>
        <time>2026-05-28T07:54:46.000Z</time>
      </trkpt>
      <trkpt lat="44.00433" lon="3.49834">
        <ele>747.5</ele>
        <time>2026-05-28T07:54:47.000Z</time>
      </trkpt>
      <trkpt lat="44.00433" lon="3.49834">
        <ele>747.7</ele>
        <time>2026-05-28T07:54:48.000Z</time>
      </trkpt>
      <trkpt lat="44.00434" lon="3.49835">
        <ele>747.5</ele>
        <time>2026-05-28T07:54:49.000Z</time>
      </trkpt>
      <trkpt lat="44.00435" lon="3.49835">
        <ele>747.6</ele>
        <time>2026-05-28T07:54:50.000Z</time>
      </trkpt>
      <trkpt lat="44.00435" lon="3.49835">
        <ele>747.7</ele>
        <time>2026-05-28T07:54:51.000Z</time>
      </trkpt>
      <trkpt lat="44.00435" lon="3.49835">
        <ele>748</ele>
        <time>2026-05-28T07:54:52.000Z</time>
      </trkpt>
      <trkpt lat="44.00435" lon="3.49835">
        <ele>747.9</ele>
        <time>2026-05-28T07:54:53.000Z</time>
      </trkpt>
      <trkpt lat="44.00435" lon="3.49835">
        <ele>747.8</ele>
        <time>2026-05-28T07:54:54.000Z</time>
      </trkpt>
      <trkpt lat="44.00435" lon="3.49835">
        <ele>747.8</ele>
        <time>2026-05-28T07:54:55.000Z</time>
      </trkpt>
      <trkpt lat="44.00435" lon="3.49835">
        <ele>748</ele>
        <time>2026-05-28T07:54:56.000Z</time>
      </trkpt>
      <trkpt lat="44.00435" lon="3.49835">
        <ele>748.1</ele>
        <time>2026-05-28T07:54:57.000Z</time>
      </trkpt>
      <trkpt lat="44.00435" lon="3.49835">
        <ele>748.3</ele>
        <time>2026-05-28T07:54:58.000Z</time>
      </trkpt>
      <trkpt lat="44.00435" lon="3.49836">
        <ele>748.6</ele>
        <time>2026-05-28T07:54:59.000Z</time>
      </trkpt>
      <trkpt lat="44.00435" lon="3.49836">
        <ele>748.6</ele>
        <time>2026-05-28T07:55:00.000Z</time>
      </trkpt>
      <trkpt lat="44.00435" lon="3.49836">
        <ele>748.7</ele>
        <time>2026-05-28T07:55:01.000Z</time>
      </trkpt>
      <trkpt lat="44.00435" lon="3.49836">
        <ele>748.9</ele>
        <time>2026-05-28T07:55:03.000Z</time>
      </trkpt>
      <trkpt lat="44.00435" lon="3.49836">
        <ele>749.1</ele>
        <time>2026-05-28T07:55:04.000Z</time>
      </trkpt>
      <trkpt lat="44.00435" lon="3.49836">
        <ele>749.1</ele>
        <time>2026-05-28T07:55:05.000Z</time>
      </trkpt>
      <trkpt lat="44.00435" lon="3.49836">
        <ele>749.1</ele>
        <time>2026-05-28T07:55:06.000Z</time>
      </trkpt>
      <trkpt lat="44.00435" lon="3.49836">
        <ele>749</ele>
        <time>2026-05-28T07:55:07.000Z</time>
      </trkpt>
      <trkpt lat="44.00434" lon="3.49835">
        <ele>749.2</ele>
        <time>2026-05-28T07:55:08.000Z</time>
      </trkpt>
      <trkpt lat="44.00433" lon="3.49834">
        <ele>749.3</ele>
        <time>2026-05-28T07:55:09.000Z</time>
      </trkpt>
      <trkpt lat="44.00433" lon="3.49834">
        <ele>749.4</ele>
        <time>2026-05-28T07:55:10.000Z</time>
      </trkpt>
      <trkpt lat="44.00433" lon="3.49834">
        <ele>749.6</ele>
        <time>2026-05-28T07:55:11.000Z</time>
      </trkpt>
      <trkpt lat="44.00433" lon="3.49834">
        <ele>749.7</ele>
        <time>2026-05-28T07:55:12.000Z</time>
      </trkpt>
      <trkpt lat="44.00433" lon="3.49834">
        <ele>750</ele>
        <time>2026-05-28T07:55:13.000Z</time>
      </trkpt>
      <trkpt lat="44.00433" lon="3.49833">
        <ele>750.1</ele>
        <time>2026-05-28T07:55:14.000Z</time>
      </trkpt>
      <trkpt lat="44.00433" lon="3.49833">
        <ele>750.3</ele>
        <time>2026-05-28T07:55:15.000Z</time>
      </trkpt>
      <trkpt lat="44.00432" lon="3.49833">
        <ele>750.4</ele>
        <time>2026-05-28T07:55:16.000Z</time>
      </trkpt>
      <trkpt lat="44.00432" lon="3.49833">
        <ele>750.5</ele>
        <time>2026-05-28T07:55:17.000Z</time>
      </trkpt>
      <trkpt lat="44.00432" lon="3.49833">
        <ele>750.7</ele>
        <time>2026-05-28T07:55:18.000Z</time>
      </trkpt>
      <trkpt lat="44.00432" lon="3.49833">
        <ele>751</ele>
        <time>2026-05-28T07:55:19.000Z</time>
      </trkpt>
      <trkpt lat="44.00432" lon="3.49834">
        <ele>751.1</ele>
        <time>2026-05-28T07:55:20.000Z</time>
      </trkpt>
      <trkpt lat="44.00432" lon="3.49834">
        <ele>751.2</ele>
        <time>2026-05-28T07:55:21.000Z</time>
      </trkpt>
      <trkpt lat="44.00432" lon="3.49834">
        <ele>751</ele>
        <time>2026-05-28T07:55:22.000Z</time>
      </trkpt>
      <trkpt lat="44.00432" lon="3.49834">
        <ele>751</ele>
        <time>2026-05-28T07:55:23.000Z</time>
      </trkpt>
      <trkpt lat="44.00432" lon="3.49834">
        <ele>751</ele>
        <time>2026-05-28T07:55:24.000Z</time>
      </trkpt>
      <trkpt lat="44.00432" lon="3.49834">
        <ele>750.9</ele>
        <time>2026-05-28T07:55:25.000Z</time>
      </trkpt>
      <trkpt lat="44.00432" lon="3.49834">
        <ele>751.1</ele>
        <time>2026-05-28T07:55:26.000Z</time>
      </trkpt>
      <trkpt lat="44.00431" lon="3.49834">
        <ele>751.3</ele>
        <time>2026-05-28T07:55:27.000Z</time>
      </trkpt>
      <trkpt lat="44.00432" lon="3.49834">
        <ele>751.2</ele>
        <time>2026-05-28T07:55:28.000Z</time>
      </trkpt>
      <trkpt lat="44.00432" lon="3.49835">
        <ele>751.2</ele>
        <time>2026-05-28T07:55:29.000Z</time>
      </trkpt>
      <trkpt lat="44.00433" lon="3.49836">
        <ele>751.2</ele>
        <time>2026-05-28T07:55:30.000Z</time>
      </trkpt>
      <trkpt lat="44.00433" lon="3.49838">
        <ele>751.3</ele>
        <time>2026-05-28T07:55:31.000Z</time>
      </trkpt>
      <trkpt lat="44.00433" lon="3.49839">
        <ele>751.4</ele>
        <time>2026-05-28T07:55:32.000Z</time>
      </trkpt>
      <trkpt lat="44.00434" lon="3.49839">
        <ele>751.4</ele>
        <time>2026-05-28T07:55:33.000Z</time>
      </trkpt>
      <trkpt lat="44.00434" lon="3.4984">
        <ele>751.3</ele>
        <time>2026-05-28T07:55:34.000Z</time>
      </trkpt>
      <trkpt lat="44.00435" lon="3.49841">
        <ele>751.4</ele>
        <time>2026-05-28T07:55:35.000Z</time>
      </trkpt>
      <trkpt lat="44.00437" lon="3.49841">
        <ele>751.6</ele>
        <time>2026-05-28T07:55:37.000Z</time>
      </trkpt>
      <trkpt lat="44.00437" lon="3.49842">
        <ele>751.5</ele>
        <time>2026-05-28T07:55:38.000Z</time>
      </trkpt>
      <trkpt lat="44.00438" lon="3.49842">
        <ele>751.4</ele>
        <time>2026-05-28T07:55:39.000Z</time>
      </trkpt>
      <trkpt lat="44.00438" lon="3.49843">
        <ele>751.5</ele>
        <time>2026-05-28T07:55:40.000Z</time>
      </trkpt>
      <trkpt lat="44.00439" lon="3.49843">
        <ele>751.8</ele>
        <time>2026-05-28T07:55:41.000Z</time>
      </trkpt>
      <trkpt lat="44.00439" lon="3.49844">
        <ele>752</ele>
        <time>2026-05-28T07:55:42.000Z</time>
      </trkpt>
      <trkpt lat="44.0044" lon="3.49845">
        <ele>752.2</ele>
        <time>2026-05-28T07:55:43.000Z</time>
      </trkpt>
      <trkpt lat="44.0044" lon="3.49844">
        <ele>752.2</ele>
        <time>2026-05-28T07:55:44.000Z</time>
      </trkpt>
      <trkpt lat="44.0044" lon="3.49844">
        <ele>752.2</ele>
        <time>2026-05-28T07:55:45.000Z</time>
      </trkpt>
      <trkpt lat="44.00441" lon="3.49844">
        <ele>752</ele>
        <time>2026-05-28T07:55:46.000Z</time>
      </trkpt>
      <trkpt lat="44.00441" lon="3.49845">
        <ele>752.1</ele>
        <time>2026-05-28T07:55:47.000Z</time>
      </trkpt>
      <trkpt lat="44.00441" lon="3.49845">
        <ele>752.3</ele>
        <time>2026-05-28T07:55:48.000Z</time>
      </trkpt>
      <trkpt lat="44.00442" lon="3.49845">
        <ele>752.3</ele>
        <time>2026-05-28T07:55:49.000Z</time>
      </trkpt>
      <trkpt lat="44.00442" lon="3.49845">
        <ele>752.6</ele>
        <time>2026-05-28T07:55:50.000Z</time>
      </trkpt>
      <trkpt lat="44.00442" lon="3.49844">
        <ele>752.7</ele>
        <time>2026-05-28T07:55:51.000Z</time>
      </trkpt>
      <trkpt lat="44.00442" lon="3.49844">
        <ele>752.7</ele>
        <time>2026-05-28T07:55:52.000Z</time>
      </trkpt>
      <trkpt lat="44.00442" lon="3.49844">
        <ele>752.7</ele>
        <time>2026-05-28T07:55:53.000Z</time>
      </trkpt>
      <trkpt lat="44.00442" lon="3.49844">
        <ele>752.9</ele>
        <time>2026-05-28T07:55:54.000Z</time>
      </trkpt>
      <trkpt lat="44.00443" lon="3.49843">
        <ele>752.9</ele>
        <time>2026-05-28T07:55:55.000Z</time>
      </trkpt>
      <trkpt lat="44.00443" lon="3.49843">
        <ele>752.9</ele>
        <time>2026-05-28T07:55:56.000Z</time>
      </trkpt>
      <trkpt lat="44.00443" lon="3.49843">
        <ele>753</ele>
        <time>2026-05-28T07:55:57.000Z</time>
      </trkpt>
      <trkpt lat="44.00444" lon="3.49843">
        <ele>753.1</ele>
        <time>2026-05-28T07:55:58.000Z</time>
      </trkpt>
      <trkpt lat="44.00445" lon="3.49844">
        <ele>753.2</ele>
        <time>2026-05-28T07:55:59.000Z</time>
      </trkpt>
      <trkpt lat="44.00445" lon="3.49843">
        <ele>753.2</ele>
        <time>2026-05-28T07:56:00.000Z</time>
      </trkpt>
      <trkpt lat="44.00445" lon="3.49842">
        <ele>753.4</ele>
        <time>2026-05-28T07:56:01.000Z</time>
      </trkpt>
      <trkpt lat="44.00445" lon="3.49843">
        <ele>753.3</ele>
        <time>2026-05-28T07:56:02.000Z</time>
      </trkpt>
      <trkpt lat="44.00446" lon="3.49843">
        <ele>753.5</ele>
        <time>2026-05-28T07:56:03.000Z</time>
      </trkpt>
      <trkpt lat="44.00446" lon="3.49843">
        <ele>753.7</ele>
        <time>2026-05-28T07:56:04.000Z</time>
      </trkpt>
      <trkpt lat="44.00447" lon="3.49843">
        <ele>754</ele>
        <time>2026-05-28T07:56:05.000Z</time>
      </trkpt>
      <trkpt lat="44.00447" lon="3.49843">
        <ele>754.2</ele>
        <time>2026-05-28T07:56:06.000Z</time>
      </trkpt>
      <trkpt lat="44.00446" lon="3.49842">
        <ele>754.4</ele>
        <time>2026-05-28T07:56:07.000Z</time>
      </trkpt>
      <trkpt lat="44.00446" lon="3.49841">
        <ele>754.4</ele>
        <time>2026-05-28T07:56:08.000Z</time>
      </trkpt>
      <trkpt lat="44.00446" lon="3.49841">
        <ele>754.6</ele>
        <time>2026-05-28T07:56:09.000Z</time>
      </trkpt>
      <trkpt lat="44.00447" lon="3.49841">
        <ele>754.5</ele>
        <time>2026-05-28T07:56:10.000Z</time>
      </trkpt>
      <trkpt lat="44.00447" lon="3.4984">
        <ele>754.6</ele>
        <time>2026-05-28T07:56:11.000Z</time>
      </trkpt>
      <trkpt lat="44.00447" lon="3.49839">
        <ele>754.5</ele>
        <time>2026-05-28T07:56:12.000Z</time>
      </trkpt>
      <trkpt lat="44.00448" lon="3.49839">
        <ele>754.7</ele>
        <time>2026-05-28T07:56:13.000Z</time>
      </trkpt>
      <trkpt lat="44.00448" lon="3.49839">
        <ele>754.7</ele>
        <time>2026-05-28T07:56:14.000Z</time>
      </trkpt>
      <trkpt lat="44.00448" lon="3.49839">
        <ele>754.9</ele>
        <time>2026-05-28T07:56:15.000Z</time>
      </trkpt>
      <trkpt lat="44.00448" lon="3.49839">
        <ele>754.9</ele>
        <time>2026-05-28T07:56:16.000Z</time>
      </trkpt>
      <trkpt lat="44.00448" lon="3.49839">
        <ele>754.9</ele>
        <time>2026-05-28T07:56:17.000Z</time>
      </trkpt>
      <trkpt lat="44.00448" lon="3.49839">
        <ele>755</ele>
        <time>2026-05-28T07:56:18.000Z</time>
      </trkpt>
      <trkpt lat="44.00448" lon="3.49839">
        <ele>755.1</ele>
        <time>2026-05-28T07:56:19.000Z</time>
      </trkpt>
      <trkpt lat="44.00448" lon="3.49839">
        <ele>755.2</ele>
        <time>2026-05-28T07:56:20.000Z</time>
      </trkpt>
      <trkpt lat="44.00448" lon="3.49839">
        <ele>755.3</ele>
        <time>2026-05-28T07:56:21.000Z</time>
      </trkpt>
      <trkpt lat="44.00448" lon="3.49839">
        <ele>755.3</ele>
        <time>2026-05-28T07:56:22.000Z</time>
      </trkpt>
      <trkpt lat="44.00448" lon="3.49839">
        <ele>755.3</ele>
        <time>2026-05-28T07:56:23.000Z</time>
      </trkpt>
      <trkpt lat="44.00448" lon="3.49839">
        <ele>755.4</ele>
        <time>2026-05-28T07:56:24.000Z</time>
      </trkpt>
      <trkpt lat="44.00448" lon="3.49839">
        <ele>755.4</ele>
        <time>2026-05-28T07:56:25.000Z</time>
      </trkpt>
      <trkpt lat="44.00449" lon="3.49839">
        <ele>755.4</ele>
        <time>2026-05-28T07:56:26.000Z</time>
      </trkpt>
      <trkpt lat="44.00449" lon="3.4984">
        <ele>755.4</ele>
        <time>2026-05-28T07:56:27.000Z</time>
      </trkpt>
      <trkpt lat="44.00449" lon="3.4984">
        <ele>755.3</ele>
        <time>2026-05-28T07:56:28.000Z</time>
      </trkpt>
      <trkpt lat="44.0045" lon="3.49841">
        <ele>755.4</ele>
        <time>2026-05-28T07:56:29.000Z</time>
      </trkpt>
      <trkpt lat="44.00452" lon="3.49841">
        <ele>755.5</ele>
        <time>2026-05-28T07:56:31.000Z</time>
      </trkpt>
      <trkpt lat="44.00453" lon="3.49841">
        <ele>755.5</ele>
        <time>2026-05-28T07:56:32.000Z</time>
      </trkpt>
      <trkpt lat="44.00453" lon="3.49842">
        <ele>755.7</ele>
        <time>2026-05-28T07:56:33.000Z</time>
      </trkpt>
      <trkpt lat="44.00454" lon="3.49842">
        <ele>755.7</ele>
        <time>2026-05-28T07:56:34.000Z</time>
      </trkpt>
      <trkpt lat="44.00455" lon="3.49842">
        <ele>755.8</ele>
        <time>2026-05-28T07:56:35.000Z</time>
      </trkpt>
      <trkpt lat="44.00455" lon="3.49843">
        <ele>755.8</ele>
        <time>2026-05-28T07:56:36.000Z</time>
      </trkpt>
      <trkpt lat="44.00455" lon="3.49843">
        <ele>755.9</ele>
        <time>2026-05-28T07:56:37.000Z</time>
      </trkpt>
      <trkpt lat="44.00456" lon="3.49843">
        <ele>755.8</ele>
        <time>2026-05-28T07:56:38.000Z</time>
      </trkpt>
      <trkpt lat="44.00457" lon="3.49843">
        <ele>755.7</ele>
        <time>2026-05-28T07:56:39.000Z</time>
      </trkpt>
      <trkpt lat="44.00457" lon="3.49842">
        <ele>755.6</ele>
        <time>2026-05-28T07:56:40.000Z</time>
      </trkpt>
      <trkpt lat="44.00457" lon="3.49842">
        <ele>755.6</ele>
        <time>2026-05-28T07:56:41.000Z</time>
      </trkpt>
      <trkpt lat="44.00457" lon="3.49842">
        <ele>755.5</ele>
        <time>2026-05-28T07:56:42.000Z</time>
      </trkpt>
      <trkpt lat="44.00457" lon="3.49841">
        <ele>755.5</ele>
        <time>2026-05-28T07:56:43.000Z</time>
      </trkpt>
      <trkpt lat="44.00457" lon="3.4984">
        <ele>755.3</ele>
        <time>2026-05-28T07:56:44.000Z</time>
      </trkpt>
      <trkpt lat="44.00457" lon="3.49839">
        <ele>755.3</ele>
        <time>2026-05-28T07:56:45.000Z</time>
      </trkpt>
      <trkpt lat="44.00457" lon="3.49838">
        <ele>755.2</ele>
        <time>2026-05-28T07:56:46.000Z</time>
      </trkpt>
      <trkpt lat="44.00457" lon="3.49837">
        <ele>755.3</ele>
        <time>2026-05-28T07:56:47.000Z</time>
      </trkpt>
      <trkpt lat="44.00457" lon="3.49837">
        <ele>755.5</ele>
        <time>2026-05-28T07:56:48.000Z</time>
      </trkpt>
      <trkpt lat="44.00457" lon="3.49837">
        <ele>755.6</ele>
        <time>2026-05-28T07:56:49.000Z</time>
      </trkpt>
      <trkpt lat="44.00457" lon="3.49837">
        <ele>755.6</ele>
        <time>2026-05-28T07:56:50.000Z</time>
      </trkpt>
      <trkpt lat="44.00457" lon="3.49837">
        <ele>755.7</ele>
        <time>2026-05-28T07:56:51.000Z</time>
      </trkpt>
      <trkpt lat="44.00457" lon="3.49837">
        <ele>755.7</ele>
        <time>2026-05-28T07:56:52.000Z</time>
      </trkpt>
      <trkpt lat="44.00458" lon="3.49837">
        <ele>755.7</ele>
        <time>2026-05-28T07:56:53.000Z</time>
      </trkpt>
      <trkpt lat="44.00459" lon="3.49838">
        <ele>755.9</ele>
        <time>2026-05-28T07:56:54.000Z</time>
      </trkpt>
      <trkpt lat="44.0046" lon="3.49837">
        <ele>756</ele>
        <time>2026-05-28T07:56:55.000Z</time>
      </trkpt>
      <trkpt lat="44.0046" lon="3.49837">
        <ele>756.1</ele>
        <time>2026-05-28T07:56:56.000Z</time>
      </trkpt>
      <trkpt lat="44.0046" lon="3.49837">
        <ele>756.1</ele>
        <time>2026-05-28T07:56:57.000Z</time>
      </trkpt>
      <trkpt lat="44.0046" lon="3.49837">
        <ele>756.2</ele>
        <time>2026-05-28T07:56:58.000Z</time>
      </trkpt>
      <trkpt lat="44.0046" lon="3.49837">
        <ele>756.3</ele>
        <time>2026-05-28T07:56:59.000Z</time>
      </trkpt>
      <trkpt lat="44.0046" lon="3.49837">
        <ele>756.5</ele>
        <time>2026-05-28T07:57:00.000Z</time>
      </trkpt>
      <trkpt lat="44.00461" lon="3.49837">
        <ele>756.4</ele>
        <time>2026-05-28T07:57:01.000Z</time>
      </trkpt>
      <trkpt lat="44.00461" lon="3.49837">
        <ele>756.5</ele>
        <time>2026-05-28T07:57:02.000Z</time>
      </trkpt>
      <trkpt lat="44.00461" lon="3.49837">
        <ele>756.6</ele>
        <time>2026-05-28T07:57:03.000Z</time>
      </trkpt>
      <trkpt lat="44.00461" lon="3.49837">
        <ele>756.7</ele>
        <time>2026-05-28T07:57:04.000Z</time>
      </trkpt>
      <trkpt lat="44.00461" lon="3.49837">
        <ele>756.6</ele>
        <time>2026-05-28T07:57:05.000Z</time>
      </trkpt>
      <trkpt lat="44.00461" lon="3.49837">
        <ele>756.6</ele>
        <time>2026-05-28T07:57:06.000Z</time>
      </trkpt>
      <trkpt lat="44.00461" lon="3.49837">
        <ele>756.7</ele>
        <time>2026-05-28T07:57:07.000Z</time>
      </trkpt>
      <trkpt lat="44.00461" lon="3.49837">
        <ele>757</ele>
        <time>2026-05-28T07:57:08.000Z</time>
      </trkpt>
      <trkpt lat="44.00461" lon="3.49837">
        <ele>757.3</ele>
        <time>2026-05-28T07:57:09.000Z</time>
      </trkpt>
      <trkpt lat="44.00461" lon="3.49837">
        <ele>757.4</ele>
        <time>2026-05-28T07:57:10.000Z</time>
      </trkpt>
      <trkpt lat="44.00461" lon="3.49837">
        <ele>757.6</ele>
        <time>2026-05-28T07:57:11.000Z</time>
      </trkpt>
      <trkpt lat="44.00461" lon="3.49837">
        <ele>757.6</ele>
        <time>2026-05-28T07:57:12.000Z</time>
      </trkpt>
      <trkpt lat="44.00461" lon="3.49837">
        <ele>757.6</ele>
        <time>2026-05-28T07:57:13.000Z</time>
      </trkpt>
      <trkpt lat="44.00462" lon="3.49837">
        <ele>757.6</ele>
        <time>2026-05-28T07:57:14.000Z</time>
      </trkpt>
      <trkpt lat="44.00462" lon="3.49836">
        <ele>757.8</ele>
        <time>2026-05-28T07:57:15.000Z</time>
      </trkpt>
      <trkpt lat="44.00463" lon="3.49836">
        <ele>757.9</ele>
        <time>2026-05-28T07:57:16.000Z</time>
      </trkpt>
      <trkpt lat="44.00464" lon="3.49836">
        <ele>758</ele>
        <time>2026-05-28T07:57:17.000Z</time>
      </trkpt>
      <trkpt lat="44.00464" lon="3.49836">
        <ele>758.1</ele>
        <time>2026-05-28T07:57:18.000Z</time>
      </trkpt>
      <trkpt lat="44.00464" lon="3.49836">
        <ele>758.2</ele>
        <time>2026-05-28T07:57:19.000Z</time>
      </trkpt>
      <trkpt lat="44.00464" lon="3.49836">
        <ele>758.5</ele>
        <time>2026-05-28T07:57:20.000Z</time>
      </trkpt>
      <trkpt lat="44.00464" lon="3.49837">
        <ele>758.9</ele>
        <time>2026-05-28T07:57:21.000Z</time>
      </trkpt>
      <trkpt lat="44.00465" lon="3.49837">
        <ele>759.3</ele>
        <time>2026-05-28T07:57:22.000Z</time>
      </trkpt>
      <trkpt lat="44.00466" lon="3.49837">
        <ele>760.2</ele>
        <time>2026-05-28T07:57:23.000Z</time>
      </trkpt>
      <trkpt lat="44.00467" lon="3.49837">
        <ele>760.6</ele>
        <time>2026-05-28T07:57:24.000Z</time>
      </trkpt>
      <trkpt lat="44.00466" lon="3.49838">
        <ele>760.6</ele>
        <time>2026-05-28T07:57:25.000Z</time>
      </trkpt>
      <trkpt lat="44.00466" lon="3.49838">
        <ele>761</ele>
        <time>2026-05-28T07:57:26.000Z</time>
      </trkpt>
      <trkpt lat="44.00466" lon="3.49838">
        <ele>761.5</ele>
        <time>2026-05-28T07:57:27.000Z</time>
      </trkpt>
      <trkpt lat="44.00466" lon="3.49838">
        <ele>762.1</ele>
        <time>2026-05-28T07:57:28.000Z</time>
      </trkpt>
      <trkpt lat="44.00466" lon="3.49838">
        <ele>762.2</ele>
        <time>2026-05-28T07:57:29.000Z</time>
      </trkpt>
      <trkpt lat="44.00466" lon="3.49838">
        <ele>762.4</ele>
        <time>2026-05-28T07:57:30.000Z</time>
      </trkpt>
      <trkpt lat="44.00467" lon="3.49839">
        <ele>762.9</ele>
        <time>2026-05-28T07:57:31.000Z</time>
      </trkpt>
      <trkpt lat="44.00467" lon="3.49841">
        <ele>763.3</ele>
        <time>2026-05-28T07:57:32.000Z</time>
      </trkpt>
      <trkpt lat="44.00468" lon="3.49841">
        <ele>763.6</ele>
        <time>2026-05-28T07:57:33.000Z</time>
      </trkpt>
      <trkpt lat="44.00469" lon="3.49842">
        <ele>764.1</ele>
        <time>2026-05-28T07:57:34.000Z</time>
      </trkpt>
      <trkpt lat="44.00469" lon="3.49842">
        <ele>764.3</ele>
        <time>2026-05-28T07:57:35.000Z</time>
      </trkpt>
      <trkpt lat="44.00469" lon="3.49842">
        <ele>764.4</ele>
        <time>2026-05-28T07:57:37.000Z</time>
      </trkpt>
      <trkpt lat="44.00469" lon="3.49842">
        <ele>764.7</ele>
        <time>2026-05-28T07:57:38.000Z</time>
      </trkpt>
      <trkpt lat="44.0047" lon="3.49843">
        <ele>764.9</ele>
        <time>2026-05-28T07:57:39.000Z</time>
      </trkpt>
      <trkpt lat="44.00471" lon="3.49843">
        <ele>765.3</ele>
        <time>2026-05-28T07:57:40.000Z</time>
      </trkpt>
      <trkpt lat="44.00472" lon="3.49843">
        <ele>765.7</ele>
        <time>2026-05-28T07:57:41.000Z</time>
      </trkpt>
      <trkpt lat="44.00473" lon="3.49844">
        <ele>765.9</ele>
        <time>2026-05-28T07:57:42.000Z</time>
      </trkpt>
      <trkpt lat="44.00474" lon="3.49844">
        <ele>766.4</ele>
        <time>2026-05-28T07:57:43.000Z</time>
      </trkpt>
      <trkpt lat="44.00474" lon="3.49844">
        <ele>766.8</ele>
        <time>2026-05-28T07:57:44.000Z</time>
      </trkpt>
      <trkpt lat="44.00474" lon="3.49844">
        <ele>767.2</ele>
        <time>2026-05-28T07:57:45.000Z</time>
      </trkpt>
      <trkpt lat="44.00474" lon="3.49844">
        <ele>767.6</ele>
        <time>2026-05-28T07:57:46.000Z</time>
      </trkpt>
      <trkpt lat="44.00474" lon="3.49844">
        <ele>767.9</ele>
        <time>2026-05-28T07:57:47.000Z</time>
      </trkpt>
      <trkpt lat="44.00475" lon="3.49844">
        <ele>768</ele>
        <time>2026-05-28T07:57:48.000Z</time>
      </trkpt>
      <trkpt lat="44.00475" lon="3.49845">
        <ele>768.2</ele>
        <time>2026-05-28T07:57:49.000Z</time>
      </trkpt>
      <trkpt lat="44.00477" lon="3.49846">
        <ele>768.7</ele>
        <time>2026-05-28T07:57:51.000Z</time>
      </trkpt>
      <trkpt lat="44.00477" lon="3.49846">
        <ele>768.9</ele>
        <time>2026-05-28T07:57:52.000Z</time>
      </trkpt>
      <trkpt lat="44.00477" lon="3.49846">
        <ele>769</ele>
        <time>2026-05-28T07:57:53.000Z</time>
      </trkpt>
      <trkpt lat="44.00477" lon="3.49846">
        <ele>769</ele>
        <time>2026-05-28T07:57:54.000Z</time>
      </trkpt>
      <trkpt lat="44.00478" lon="3.49846">
        <ele>769.2</ele>
        <time>2026-05-28T07:57:55.000Z</time>
      </trkpt>
      <trkpt lat="44.00478" lon="3.49846">
        <ele>769.3</ele>
        <time>2026-05-28T07:57:56.000Z</time>
      </trkpt>
      <trkpt lat="44.00479" lon="3.49847">
        <ele>769.6</ele>
        <time>2026-05-28T07:57:57.000Z</time>
      </trkpt>
      <trkpt lat="44.0048" lon="3.49848">
        <ele>769.7</ele>
        <time>2026-05-28T07:57:58.000Z</time>
      </trkpt>
      <trkpt lat="44.00481" lon="3.49849">
        <ele>770</ele>
        <time>2026-05-28T07:57:59.000Z</time>
      </trkpt>
      <trkpt lat="44.00481" lon="3.49849">
        <ele>770.2</ele>
        <time>2026-05-28T07:58:00.000Z</time>
      </trkpt>
      <trkpt lat="44.00481" lon="3.49848">
        <ele>770.3</ele>
        <time>2026-05-28T07:58:01.000Z</time>
      </trkpt>
      <trkpt lat="44.00482" lon="3.49849">
        <ele>770.5</ele>
        <time>2026-05-28T07:58:02.000Z</time>
      </trkpt>
      <trkpt lat="44.00482" lon="3.49849">
        <ele>770.6</ele>
        <time>2026-05-28T07:58:03.000Z</time>
      </trkpt>
      <trkpt lat="44.00483" lon="3.49849">
        <ele>771</ele>
        <time>2026-05-28T07:58:04.000Z</time>
      </trkpt>
      <trkpt lat="44.00483" lon="3.4985">
        <ele>771.2</ele>
        <time>2026-05-28T07:58:05.000Z</time>
      </trkpt>
      <trkpt lat="44.00484" lon="3.4985">
        <ele>771.5</ele>
        <time>2026-05-28T07:58:06.000Z</time>
      </trkpt>
      <trkpt lat="44.00484" lon="3.4985">
        <ele>771.7</ele>
        <time>2026-05-28T07:58:07.000Z</time>
      </trkpt>
      <trkpt lat="44.00484" lon="3.4985">
        <ele>772.2</ele>
        <time>2026-05-28T07:58:08.000Z</time>
      </trkpt>
      <trkpt lat="44.00484" lon="3.4985">
        <ele>772.4</ele>
        <time>2026-05-28T07:58:09.000Z</time>
      </trkpt>
      <trkpt lat="44.00484" lon="3.4985">
        <ele>773</ele>
        <time>2026-05-28T07:58:11.000Z</time>
      </trkpt>
      <trkpt lat="44.00484" lon="3.4985">
        <ele>773.1</ele>
        <time>2026-05-28T07:58:12.000Z</time>
      </trkpt>
      <trkpt lat="44.00484" lon="3.4985">
        <ele>773.3</ele>
        <time>2026-05-28T07:58:13.000Z</time>
      </trkpt>
      <trkpt lat="44.00484" lon="3.4985">
        <ele>773.4</ele>
        <time>2026-05-28T07:58:14.000Z</time>
      </trkpt>
      <trkpt lat="44.00484" lon="3.4985">
        <ele>773.7</ele>
        <time>2026-05-28T07:58:15.000Z</time>
      </trkpt>
      <trkpt lat="44.00486" lon="3.49849">
        <ele>774.1</ele>
        <time>2026-05-28T07:58:16.000Z</time>
      </trkpt>
      <trkpt lat="44.00486" lon="3.49849">
        <ele>774.4</ele>
        <time>2026-05-28T07:58:17.000Z</time>
      </trkpt>
      <trkpt lat="44.00486" lon="3.49849">
        <ele>774.6</ele>
        <time>2026-05-28T07:58:18.000Z</time>
      </trkpt>
      <trkpt lat="44.00486" lon="3.49848">
        <ele>774.8</ele>
        <time>2026-05-28T07:58:19.000Z</time>
      </trkpt>
      <trkpt lat="44.00487" lon="3.49848">
        <ele>775.2</ele>
        <time>2026-05-28T07:58:20.000Z</time>
      </trkpt>
      <trkpt lat="44.00487" lon="3.49847">
        <ele>775.6</ele>
        <time>2026-05-28T07:58:21.000Z</time>
      </trkpt>
      <trkpt lat="44.00487" lon="3.49847">
        <ele>776.1</ele>
        <time>2026-05-28T07:58:22.000Z</time>
      </trkpt>
      <trkpt lat="44.00488" lon="3.49846">
        <ele>776.7</ele>
        <time>2026-05-28T07:58:23.000Z</time>
      </trkpt>
      <trkpt lat="44.00488" lon="3.49846">
        <ele>776.8</ele>
        <time>2026-05-28T07:58:24.000Z</time>
      </trkpt>
      <trkpt lat="44.00488" lon="3.49846">
        <ele>777.4</ele>
        <time>2026-05-28T07:58:26.000Z</time>
      </trkpt>
      <trkpt lat="44.00489" lon="3.49846">
        <ele>777.3</ele>
        <time>2026-05-28T07:58:27.000Z</time>
      </trkpt>
      <trkpt lat="44.0049" lon="3.49845">
        <ele>777.3</ele>
        <time>2026-05-28T07:58:28.000Z</time>
      </trkpt>
      <trkpt lat="44.0049" lon="3.49846">
        <ele>777.2</ele>
        <time>2026-05-28T07:58:29.000Z</time>
      </trkpt>
      <trkpt lat="44.00491" lon="3.49846">
        <ele>777.4</ele>
        <time>2026-05-28T07:58:30.000Z</time>
      </trkpt>
      <trkpt lat="44.00491" lon="3.49846">
        <ele>777.4</ele>
        <time>2026-05-28T07:58:31.000Z</time>
      </trkpt>
      <trkpt lat="44.00491" lon="3.49846">
        <ele>777.5</ele>
        <time>2026-05-28T07:58:32.000Z</time>
      </trkpt>
      <trkpt lat="44.00492" lon="3.49846">
        <ele>777.7</ele>
        <time>2026-05-28T07:58:33.000Z</time>
      </trkpt>
      <trkpt lat="44.00492" lon="3.49846">
        <ele>777.8</ele>
        <time>2026-05-28T07:58:34.000Z</time>
      </trkpt>
      <trkpt lat="44.00492" lon="3.49846">
        <ele>778.2</ele>
        <time>2026-05-28T07:58:35.000Z</time>
      </trkpt>
      <trkpt lat="44.00493" lon="3.49845">
        <ele>778.3</ele>
        <time>2026-05-28T07:58:36.000Z</time>
      </trkpt>
      <trkpt lat="44.00494" lon="3.49845">
        <ele>778.3</ele>
        <time>2026-05-28T07:58:37.000Z</time>
      </trkpt>
      <trkpt lat="44.00495" lon="3.49845">
        <ele>778.3</ele>
        <time>2026-05-28T07:58:38.000Z</time>
      </trkpt>
      <trkpt lat="44.00495" lon="3.49844">
        <ele>778.4</ele>
        <time>2026-05-28T07:58:39.000Z</time>
      </trkpt>
      <trkpt lat="44.00496" lon="3.49844">
        <ele>778.4</ele>
        <time>2026-05-28T07:58:40.000Z</time>
      </trkpt>
      <trkpt lat="44.00497" lon="3.49844">
        <ele>778.4</ele>
        <time>2026-05-28T07:58:41.000Z</time>
      </trkpt>
      <trkpt lat="44.00498" lon="3.49844">
        <ele>778.4</ele>
        <time>2026-05-28T07:58:42.000Z</time>
      </trkpt>
      <trkpt lat="44.00499" lon="3.49844">
        <ele>778.3</ele>
        <time>2026-05-28T07:58:43.000Z</time>
      </trkpt>
      <trkpt lat="44.005" lon="3.49843">
        <ele>778.4</ele>
        <time>2026-05-28T07:58:44.000Z</time>
      </trkpt>
      <trkpt lat="44.00502" lon="3.49843">
        <ele>778.6</ele>
        <time>2026-05-28T07:58:45.000Z</time>
      </trkpt>
      <trkpt lat="44.00502" lon="3.49843">
        <ele>778.5</ele>
        <time>2026-05-28T07:58:46.000Z</time>
      </trkpt>
      <trkpt lat="44.00502" lon="3.49843">
        <ele>778.5</ele>
        <time>2026-05-28T07:58:47.000Z</time>
      </trkpt>
      <trkpt lat="44.00502" lon="3.49843">
        <ele>778.6</ele>
        <time>2026-05-28T07:58:48.000Z</time>
      </trkpt>
      <trkpt lat="44.00502" lon="3.49843">
        <ele>778.7</ele>
        <time>2026-05-28T07:58:49.000Z</time>
      </trkpt>
      <trkpt lat="44.00504" lon="3.49843">
        <ele>778.8</ele>
        <time>2026-05-28T07:58:50.000Z</time>
      </trkpt>
      <trkpt lat="44.00505" lon="3.49844">
        <ele>778.9</ele>
        <time>2026-05-28T07:58:51.000Z</time>
      </trkpt>
      <trkpt lat="44.00506" lon="3.49843">
        <ele>779</ele>
        <time>2026-05-28T07:58:52.000Z</time>
      </trkpt>
      <trkpt lat="44.00506" lon="3.49843">
        <ele>779</ele>
        <time>2026-05-28T07:58:53.000Z</time>
      </trkpt>
      <trkpt lat="44.00507" lon="3.49842">
        <ele>778.9</ele>
        <time>2026-05-28T07:58:54.000Z</time>
      </trkpt>
      <trkpt lat="44.00507" lon="3.49841">
        <ele>778.8</ele>
        <time>2026-05-28T07:58:55.000Z</time>
      </trkpt>
      <trkpt lat="44.00508" lon="3.49839">
        <ele>778.8</ele>
        <time>2026-05-28T07:58:57.000Z</time>
      </trkpt>
      <trkpt lat="44.00508" lon="3.49836">
        <ele>778.9</ele>
        <time>2026-05-28T07:58:58.000Z</time>
      </trkpt>
      <trkpt lat="44.00508" lon="3.49836">
        <ele>779</ele>
        <time>2026-05-28T07:58:59.000Z</time>
      </trkpt>
      <trkpt lat="44.00507" lon="3.49836">
        <ele>779.4</ele>
        <time>2026-05-28T07:59:00.000Z</time>
      </trkpt>
      <trkpt lat="44.00508" lon="3.49836">
        <ele>779.3</ele>
        <time>2026-05-28T07:59:01.000Z</time>
      </trkpt>
      <trkpt lat="44.00509" lon="3.49836">
        <ele>779.2</ele>
        <time>2026-05-28T07:59:02.000Z</time>
      </trkpt>
      <trkpt lat="44.00509" lon="3.49836">
        <ele>779.3</ele>
        <time>2026-05-28T07:59:03.000Z</time>
      </trkpt>
      <trkpt lat="44.0051" lon="3.49835">
        <ele>779.6</ele>
        <time>2026-05-28T07:59:04.000Z</time>
      </trkpt>
      <trkpt lat="44.00511" lon="3.49836">
        <ele>779.9</ele>
        <time>2026-05-28T07:59:05.000Z</time>
      </trkpt>
      <trkpt lat="44.00511" lon="3.49835">
        <ele>779.9</ele>
        <time>2026-05-28T07:59:06.000Z</time>
      </trkpt>
      <trkpt lat="44.00512" lon="3.49835">
        <ele>779.6</ele>
        <time>2026-05-28T07:59:07.000Z</time>
      </trkpt>
      <trkpt lat="44.00513" lon="3.49835">
        <ele>780.1</ele>
        <time>2026-05-28T07:59:08.000Z</time>
      </trkpt>
      <trkpt lat="44.00513" lon="3.49835">
        <ele>780.3</ele>
        <time>2026-05-28T07:59:09.000Z</time>
      </trkpt>
      <trkpt lat="44.00513" lon="3.49834">
        <ele>780.2</ele>
        <time>2026-05-28T07:59:10.000Z</time>
      </trkpt>
      <trkpt lat="44.00513" lon="3.49834">
        <ele>780.1</ele>
        <time>2026-05-28T07:59:11.000Z</time>
      </trkpt>
      <trkpt lat="44.00514" lon="3.49833">
        <ele>780</ele>
        <time>2026-05-28T07:59:12.000Z</time>
      </trkpt>
      <trkpt lat="44.00514" lon="3.49833">
        <ele>780</ele>
        <time>2026-05-28T07:59:13.000Z</time>
      </trkpt>
      <trkpt lat="44.00515" lon="3.49832">
        <ele>780</ele>
        <time>2026-05-28T07:59:14.000Z</time>
      </trkpt>
      <trkpt lat="44.00516" lon="3.49831">
        <ele>780.1</ele>
        <time>2026-05-28T07:59:15.000Z</time>
      </trkpt>
      <trkpt lat="44.00517" lon="3.4983">
        <ele>780.4</ele>
        <time>2026-05-28T07:59:16.000Z</time>
      </trkpt>
      <trkpt lat="44.00518" lon="3.49829">
        <ele>780.5</ele>
        <time>2026-05-28T07:59:17.000Z</time>
      </trkpt>
      <trkpt lat="44.00519" lon="3.49827">
        <ele>781.2</ele>
        <time>2026-05-28T07:59:19.000Z</time>
      </trkpt>
      <trkpt lat="44.0052" lon="3.49827">
        <ele>781.5</ele>
        <time>2026-05-28T07:59:20.000Z</time>
      </trkpt>
      <trkpt lat="44.00521" lon="3.49827">
        <ele>781.5</ele>
        <time>2026-05-28T07:59:21.000Z</time>
      </trkpt>
      <trkpt lat="44.00521" lon="3.49826">
        <ele>781.8</ele>
        <time>2026-05-28T07:59:22.000Z</time>
      </trkpt>
      <trkpt lat="44.00522" lon="3.49825">
        <ele>782</ele>
        <time>2026-05-28T07:59:23.000Z</time>
      </trkpt>
      <trkpt lat="44.00522" lon="3.49825">
        <ele>781.9</ele>
        <time>2026-05-28T07:59:24.000Z</time>
      </trkpt>
      <trkpt lat="44.00523" lon="3.49825">
        <ele>782.1</ele>
        <time>2026-05-28T07:59:26.000Z</time>
      </trkpt>
      <trkpt lat="44.00523" lon="3.49824">
        <ele>782.2</ele>
        <time>2026-05-28T07:59:27.000Z</time>
      </trkpt>
      <trkpt lat="44.00524" lon="3.49824">
        <ele>782.3</ele>
        <time>2026-05-28T07:59:28.000Z</time>
      </trkpt>
      <trkpt lat="44.00524" lon="3.49824">
        <ele>781.9</ele>
        <time>2026-05-28T07:59:29.000Z</time>
      </trkpt>
      <trkpt lat="44.00525" lon="3.49824">
        <ele>782</ele>
        <time>2026-05-28T07:59:30.000Z</time>
      </trkpt>
      <trkpt lat="44.00526" lon="3.49825">
        <ele>782.1</ele>
        <time>2026-05-28T07:59:31.000Z</time>
      </trkpt>
      <trkpt lat="44.00527" lon="3.49825">
        <ele>782.1</ele>
        <time>2026-05-28T07:59:32.000Z</time>
      </trkpt>
      <trkpt lat="44.00527" lon="3.49825">
        <ele>782</ele>
        <time>2026-05-28T07:59:33.000Z</time>
      </trkpt>
      <trkpt lat="44.00528" lon="3.49825">
        <ele>782.1</ele>
        <time>2026-05-28T07:59:34.000Z</time>
      </trkpt>
      <trkpt lat="44.00528" lon="3.49825">
        <ele>782.3</ele>
        <time>2026-05-28T07:59:35.000Z</time>
      </trkpt>
      <trkpt lat="44.00528" lon="3.49825">
        <ele>782.3</ele>
        <time>2026-05-28T07:59:36.000Z</time>
      </trkpt>
      <trkpt lat="44.00528" lon="3.49825">
        <ele>782.3</ele>
        <time>2026-05-28T07:59:37.000Z</time>
      </trkpt>
      <trkpt lat="44.00528" lon="3.49825">
        <ele>782.3</ele>
        <time>2026-05-28T07:59:38.000Z</time>
      </trkpt>
      <trkpt lat="44.00529" lon="3.49825">
        <ele>782.3</ele>
        <time>2026-05-28T07:59:39.000Z</time>
      </trkpt>
      <trkpt lat="44.0053" lon="3.49825">
        <ele>782.4</ele>
        <time>2026-05-28T07:59:40.000Z</time>
      </trkpt>
      <trkpt lat="44.0053" lon="3.49824">
        <ele>782.5</ele>
        <time>2026-05-28T07:59:41.000Z</time>
      </trkpt>
      <trkpt lat="44.0053" lon="3.49824">
        <ele>782.7</ele>
        <time>2026-05-28T07:59:42.000Z</time>
      </trkpt>
      <trkpt lat="44.0053" lon="3.49824">
        <ele>782.8</ele>
        <time>2026-05-28T07:59:43.000Z</time>
      </trkpt>
      <trkpt lat="44.0053" lon="3.49824">
        <ele>782.8</ele>
        <time>2026-05-28T07:59:44.000Z</time>
      </trkpt>
      <trkpt lat="44.0053" lon="3.49824">
        <ele>782.7</ele>
        <time>2026-05-28T07:59:45.000Z</time>
      </trkpt>
      <trkpt lat="44.0053" lon="3.49824">
        <ele>782.9</ele>
        <time>2026-05-28T07:59:46.000Z</time>
      </trkpt>
      <trkpt lat="44.0053" lon="3.49824">
        <ele>783.2</ele>
        <time>2026-05-28T07:59:47.000Z</time>
      </trkpt>
      <trkpt lat="44.0053" lon="3.49824">
        <ele>783.2</ele>
        <time>2026-05-28T07:59:48.000Z</time>
      </trkpt>
      <trkpt lat="44.0053" lon="3.49824">
        <ele>783.2</ele>
        <time>2026-05-28T07:59:49.000Z</time>
      </trkpt>
      <trkpt lat="44.0053" lon="3.49824">
        <ele>783</ele>
        <time>2026-05-28T07:59:50.000Z</time>
      </trkpt>
      <trkpt lat="44.00529" lon="3.49823">
        <ele>783.1</ele>
        <time>2026-05-28T07:59:51.000Z</time>
      </trkpt>
      <trkpt lat="44.00529" lon="3.49823">
        <ele>783.1</ele>
        <time>2026-05-28T07:59:52.000Z</time>
      </trkpt>
      <trkpt lat="44.0053" lon="3.49823">
        <ele>783</ele>
        <time>2026-05-28T07:59:53.000Z</time>
      </trkpt>
      <trkpt lat="44.0053" lon="3.49823">
        <ele>783</ele>
        <time>2026-05-28T07:59:54.000Z</time>
      </trkpt>
      <trkpt lat="44.0053" lon="3.49823">
        <ele>782.9</ele>
        <time>2026-05-28T07:59:55.000Z</time>
      </trkpt>
      <trkpt lat="44.0053" lon="3.49823">
        <ele>783.2</ele>
        <time>2026-05-28T07:59:56.000Z</time>
      </trkpt>
      <trkpt lat="44.0053" lon="3.49823">
        <ele>783.3</ele>
        <time>2026-05-28T07:59:57.000Z</time>
      </trkpt>
      <trkpt lat="44.0053" lon="3.49823">
        <ele>783.4</ele>
        <time>2026-05-28T07:59:58.000Z</time>
      </trkpt>
      <trkpt lat="44.0053" lon="3.49823">
        <ele>783.5</ele>
        <time>2026-05-28T07:59:59.000Z</time>
      </trkpt>
      <trkpt lat="44.0053" lon="3.49823">
        <ele>783.5</ele>
        <time>2026-05-28T08:00:00.000Z</time>
      </trkpt>
      <trkpt lat="44.0053" lon="3.49823">
        <ele>783.9</ele>
        <time>2026-05-28T08:00:01.000Z</time>
      </trkpt>
      <trkpt lat="44.0053" lon="3.49823">
        <ele>784.6</ele>
        <time>2026-05-28T08:00:02.000Z</time>
      </trkpt>
      <trkpt lat="44.0053" lon="3.49823">
        <ele>784.9</ele>
        <time>2026-05-28T08:00:03.000Z</time>
      </trkpt>
      <trkpt lat="44.0053" lon="3.49823">
        <ele>785.1</ele>
        <time>2026-05-28T08:00:04.000Z</time>
      </trkpt>
      <trkpt lat="44.0053" lon="3.49823">
        <ele>785.4</ele>
        <time>2026-05-28T08:00:05.000Z</time>
      </trkpt>
      <trkpt lat="44.0053" lon="3.49823">
        <ele>785.7</ele>
        <time>2026-05-28T08:00:06.000Z</time>
      </trkpt>
      <trkpt lat="44.0053" lon="3.49823">
        <ele>786.3</ele>
        <time>2026-05-28T08:00:07.000Z</time>
      </trkpt>
      <trkpt lat="44.0053" lon="3.49823">
        <ele>786.6</ele>
        <time>2026-05-28T08:00:08.000Z</time>
      </trkpt>
      <trkpt lat="44.0053" lon="3.49822">
        <ele>786.7</ele>
        <time>2026-05-28T08:00:09.000Z</time>
      </trkpt>
      <trkpt lat="44.0053" lon="3.49822">
        <ele>786.9</ele>
        <time>2026-05-28T08:00:10.000Z</time>
      </trkpt>
      <trkpt lat="44.00531" lon="3.49822">
        <ele>786.8</ele>
        <time>2026-05-28T08:00:11.000Z</time>
      </trkpt>
      <trkpt lat="44.00531" lon="3.49822">
        <ele>786.8</ele>
        <time>2026-05-28T08:00:12.000Z</time>
      </trkpt>
      <trkpt lat="44.00531" lon="3.49822">
        <ele>787.1</ele>
        <time>2026-05-28T08:00:13.000Z</time>
      </trkpt>
      <trkpt lat="44.00531" lon="3.49822">
        <ele>787.4</ele>
        <time>2026-05-28T08:00:14.000Z</time>
      </trkpt>
      <trkpt lat="44.00531" lon="3.49822">
        <ele>787.7</ele>
        <time>2026-05-28T08:00:15.000Z</time>
      </trkpt>
      <trkpt lat="44.00531" lon="3.49822">
        <ele>788.1</ele>
        <time>2026-05-28T08:00:16.000Z</time>
      </trkpt>
      <trkpt lat="44.00531" lon="3.49822">
        <ele>788.5</ele>
        <time>2026-05-28T08:00:17.000Z</time>
      </trkpt>
      <trkpt lat="44.00531" lon="3.49822">
        <ele>789</ele>
        <time>2026-05-28T08:00:18.000Z</time>
      </trkpt>
      <trkpt lat="44.00531" lon="3.49822">
        <ele>789.6</ele>
        <time>2026-05-28T08:00:19.000Z</time>
      </trkpt>
      <trkpt lat="44.0053" lon="3.49822">
        <ele>790</ele>
        <time>2026-05-28T08:00:20.000Z</time>
      </trkpt>
      <trkpt lat="44.0053" lon="3.49822">
        <ele>790.4</ele>
        <time>2026-05-28T08:00:21.000Z</time>
      </trkpt>
      <trkpt lat="44.0053" lon="3.49822">
        <ele>790.4</ele>
        <time>2026-05-28T08:00:22.000Z</time>
      </trkpt>
      <trkpt lat="44.0053" lon="3.49821">
        <ele>790.4</ele>
        <time>2026-05-28T08:00:23.000Z</time>
      </trkpt>
      <trkpt lat="44.0053" lon="3.49821">
        <ele>790.3</ele>
        <time>2026-05-28T08:00:24.000Z</time>
      </trkpt>
      <trkpt lat="44.0053" lon="3.49821">
        <ele>790.5</ele>
        <time>2026-05-28T08:00:25.000Z</time>
      </trkpt>
      <trkpt lat="44.0053" lon="3.49821">
        <ele>790.4</ele>
        <time>2026-05-28T08:00:26.000Z</time>
      </trkpt>
      <trkpt lat="44.0053" lon="3.49821">
        <ele>790.5</ele>
        <time>2026-05-28T08:00:27.000Z</time>
      </trkpt>
      <trkpt lat="44.0053" lon="3.49821">
        <ele>790.7</ele>
        <time>2026-05-28T08:00:28.000Z</time>
      </trkpt>
      <trkpt lat="44.0053" lon="3.49821">
        <ele>790.8</ele>
        <time>2026-05-28T08:00:29.000Z</time>
      </trkpt>
      <trkpt lat="44.0053" lon="3.49821">
        <ele>790.9</ele>
        <time>2026-05-28T08:00:30.000Z</time>
      </trkpt>
      <trkpt lat="44.0053" lon="3.49821">
        <ele>791.1</ele>
        <time>2026-05-28T08:00:31.000Z</time>
      </trkpt>
      <trkpt lat="44.0053" lon="3.49821">
        <ele>791.2</ele>
        <time>2026-05-28T08:00:32.000Z</time>
      </trkpt>
      <trkpt lat="44.0053" lon="3.49821">
        <ele>791.6</ele>
        <time>2026-05-28T08:00:33.000Z</time>
      </trkpt>
      <trkpt lat="44.0053" lon="3.4982">
        <ele>792.2</ele>
        <time>2026-05-28T08:00:34.000Z</time>
      </trkpt>
      <trkpt lat="44.0053" lon="3.49819">
        <ele>792.6</ele>
        <time>2026-05-28T08:00:35.000Z</time>
      </trkpt>
      <trkpt lat="44.0053" lon="3.4982">
        <ele>793.2</ele>
        <time>2026-05-28T08:00:36.000Z</time>
      </trkpt>
      <trkpt lat="44.00531" lon="3.49819">
        <ele>793.9</ele>
        <time>2026-05-28T08:00:37.000Z</time>
      </trkpt>
      <trkpt lat="44.00532" lon="3.49819">
        <ele>794.2</ele>
        <time>2026-05-28T08:00:38.000Z</time>
      </trkpt>
      <trkpt lat="44.00532" lon="3.49819">
        <ele>794.5</ele>
        <time>2026-05-28T08:00:39.000Z</time>
      </trkpt>
      <trkpt lat="44.00532" lon="3.49818">
        <ele>795.1</ele>
        <time>2026-05-28T08:00:40.000Z</time>
      </trkpt>
      <trkpt lat="44.00531" lon="3.49817">
        <ele>795.3</ele>
        <time>2026-05-28T08:00:41.000Z</time>
      </trkpt>
      <trkpt lat="44.00531" lon="3.49817">
        <ele>795.6</ele>
        <time>2026-05-28T08:00:42.000Z</time>
      </trkpt>
      <trkpt lat="44.00531" lon="3.49816">
        <ele>795.6</ele>
        <time>2026-05-28T08:00:43.000Z</time>
      </trkpt>
      <trkpt lat="44.0053" lon="3.49816">
        <ele>795.4</ele>
        <time>2026-05-28T08:00:44.000Z</time>
      </trkpt>
      <trkpt lat="44.0053" lon="3.49815">
        <ele>795.2</ele>
        <time>2026-05-28T08:00:45.000Z</time>
      </trkpt>
      <trkpt lat="44.0053" lon="3.49814">
        <ele>794.9</ele>
        <time>2026-05-28T08:00:46.000Z</time>
      </trkpt>
      <trkpt lat="44.0053" lon="3.49813">
        <ele>794.5</ele>
        <time>2026-05-28T08:00:47.000Z</time>
      </trkpt>
      <trkpt lat="44.0053" lon="3.49813">
        <ele>794.3</ele>
        <time>2026-05-28T08:00:48.000Z</time>
      </trkpt>
      <trkpt lat="44.0053" lon="3.49813">
        <ele>792.6</ele>
        <time>2026-05-28T08:00:49.000Z</time>
      </trkpt>
      <trkpt lat="44.0053" lon="3.49813">
        <ele>792.7</ele>
        <time>2026-05-28T08:00:50.000Z</time>
      </trkpt>
      <trkpt lat="44.0053" lon="3.49813">
        <ele>792.9</ele>
        <time>2026-05-28T08:00:51.000Z</time>
      </trkpt>
      <trkpt lat="44.0053" lon="3.49813">
        <ele>793.1</ele>
        <time>2026-05-28T08:00:52.000Z</time>
      </trkpt>
      <trkpt lat="44.0053" lon="3.49813">
        <ele>793.1</ele>
        <time>2026-05-28T08:00:53.000Z</time>
      </trkpt>
      <trkpt lat="44.0053" lon="3.49813">
        <ele>793.5</ele>
        <time>2026-05-28T08:00:54.000Z</time>
      </trkpt>
      <trkpt lat="44.0053" lon="3.49813">
        <ele>793.6</ele>
        <time>2026-05-28T08:00:55.000Z</time>
      </trkpt>
      <trkpt lat="44.0053" lon="3.49813">
        <ele>793.8</ele>
        <time>2026-05-28T08:00:56.000Z</time>
      </trkpt>
      <trkpt lat="44.0053" lon="3.49813">
        <ele>793.9</ele>
        <time>2026-05-28T08:00:57.000Z</time>
      </trkpt>
      <trkpt lat="44.0053" lon="3.49813">
        <ele>794.1</ele>
        <time>2026-05-28T08:00:58.000Z</time>
      </trkpt>
      <trkpt lat="44.0053" lon="3.49813">
        <ele>794.3</ele>
        <time>2026-05-28T08:00:59.000Z</time>
      </trkpt>
      <trkpt lat="44.0053" lon="3.49813">
        <ele>794.4</ele>
        <time>2026-05-28T08:01:00.000Z</time>
      </trkpt>
      <trkpt lat="44.0053" lon="3.49813">
        <ele>794.6</ele>
        <time>2026-05-28T08:01:01.000Z</time>
      </trkpt>
      <trkpt lat="44.0053" lon="3.49813">
        <ele>794.7</ele>
        <time>2026-05-28T08:01:02.000Z</time>
      </trkpt>
      <trkpt lat="44.0053" lon="3.49813">
        <ele>794.8</ele>
        <time>2026-05-28T08:01:03.000Z</time>
      </trkpt>
      <trkpt lat="44.0053" lon="3.49813">
        <ele>795.1</ele>
        <time>2026-05-28T08:01:04.000Z</time>
      </trkpt>
      <trkpt lat="44.0053" lon="3.49812">
        <ele>795.2</ele>
        <time>2026-05-28T08:01:05.000Z</time>
      </trkpt>
      <trkpt lat="44.0053" lon="3.49812">
        <ele>795.3</ele>
        <time>2026-05-28T08:01:06.000Z</time>
      </trkpt>
      <trkpt lat="44.0053" lon="3.49812">
        <ele>795.6</ele>
        <time>2026-05-28T08:01:07.000Z</time>
      </trkpt>
      <trkpt lat="44.0053" lon="3.49812">
        <ele>795.7</ele>
        <time>2026-05-28T08:01:08.000Z</time>
      </trkpt>
      <trkpt lat="44.0053" lon="3.49812">
        <ele>795.7</ele>
        <time>2026-05-28T08:01:09.000Z</time>
      </trkpt>
      <trkpt lat="44.0053" lon="3.49812">
        <ele>795.8</ele>
        <time>2026-05-28T08:01:10.000Z</time>
      </trkpt>
      <trkpt lat="44.0053" lon="3.49812">
        <ele>795.8</ele>
        <time>2026-05-28T08:01:11.000Z</time>
      </trkpt>
      <trkpt lat="44.0053" lon="3.49812">
        <ele>795.9</ele>
        <time>2026-05-28T08:01:12.000Z</time>
      </trkpt>
      <trkpt lat="44.0053" lon="3.49812">
        <ele>795.8</ele>
        <time>2026-05-28T08:01:13.000Z</time>
      </trkpt>
      <trkpt lat="44.0053" lon="3.49812">
        <ele>796</ele>
        <time>2026-05-28T08:01:14.000Z</time>
      </trkpt>
      <trkpt lat="44.0053" lon="3.49812">
        <ele>796.4</ele>
        <time>2026-05-28T08:01:15.000Z</time>
      </trkpt>
      <trkpt lat="44.0053" lon="3.49813">
        <ele>796.5</ele>
        <time>2026-05-28T08:01:16.000Z</time>
      </trkpt>
      <trkpt lat="44.0053" lon="3.49813">
        <ele>796.6</ele>
        <time>2026-05-28T08:01:17.000Z</time>
      </trkpt>
      <trkpt lat="44.0053" lon="3.49813">
        <ele>796.7</ele>
        <time>2026-05-28T08:01:18.000Z</time>
      </trkpt>
      <trkpt lat="44.00531" lon="3.49812">
        <ele>796.6</ele>
        <time>2026-05-28T08:01:19.000Z</time>
      </trkpt>
      <trkpt lat="44.00531" lon="3.49812">
        <ele>796.6</ele>
        <time>2026-05-28T08:01:20.000Z</time>
      </trkpt>
      <trkpt lat="44.00531" lon="3.49812">
        <ele>796.6</ele>
        <time>2026-05-28T08:01:21.000Z</time>
      </trkpt>
      <trkpt lat="44.00531" lon="3.49812">
        <ele>796.7</ele>
        <time>2026-05-28T08:01:22.000Z</time>
      </trkpt>
      <trkpt lat="44.00531" lon="3.49813">
        <ele>796.5</ele>
        <time>2026-05-28T08:01:23.000Z</time>
      </trkpt>
      <trkpt lat="44.00531" lon="3.49812">
        <ele>796.7</ele>
        <time>2026-05-28T08:01:25.000Z</time>
      </trkpt>
      <trkpt lat="44.00531" lon="3.49812">
        <ele>796.8</ele>
        <time>2026-05-28T08:01:26.000Z</time>
      </trkpt>
      <trkpt lat="44.00531" lon="3.49812">
        <ele>797</ele>
        <time>2026-05-28T08:01:27.000Z</time>
      </trkpt>
      <trkpt lat="44.00532" lon="3.49812">
        <ele>797</ele>
        <time>2026-05-28T08:01:28.000Z</time>
      </trkpt>
      <trkpt lat="44.00532" lon="3.49812">
        <ele>797.1</ele>
        <time>2026-05-28T08:01:29.000Z</time>
      </trkpt>
      <trkpt lat="44.00532" lon="3.49812">
        <ele>797.4</ele>
        <time>2026-05-28T08:01:30.000Z</time>
      </trkpt>
      <trkpt lat="44.00532" lon="3.49812">
        <ele>797.6</ele>
        <time>2026-05-28T08:01:31.000Z</time>
      </trkpt>
      <trkpt lat="44.00532" lon="3.49812">
        <ele>797.6</ele>
        <time>2026-05-28T08:01:32.000Z</time>
      </trkpt>
      <trkpt lat="44.00532" lon="3.49812">
        <ele>797.7</ele>
        <time>2026-05-28T08:01:33.000Z</time>
      </trkpt>
      <trkpt lat="44.00532" lon="3.49812">
        <ele>797.9</ele>
        <time>2026-05-28T08:01:34.000Z</time>
      </trkpt>
      <trkpt lat="44.00532" lon="3.49812">
        <ele>797.9</ele>
        <time>2026-05-28T08:01:35.000Z</time>
      </trkpt>
      <trkpt lat="44.00531" lon="3.49812">
        <ele>798.1</ele>
        <time>2026-05-28T08:01:36.000Z</time>
      </trkpt>
      <trkpt lat="44.00531" lon="3.49812">
        <ele>798.1</ele>
        <time>2026-05-28T08:01:37.000Z</time>
      </trkpt>
      <trkpt lat="44.00531" lon="3.49812">
        <ele>798.1</ele>
        <time>2026-05-28T08:01:38.000Z</time>
      </trkpt>
      <trkpt lat="44.00531" lon="3.49812">
        <ele>797.8</ele>
        <time>2026-05-28T08:01:39.000Z</time>
      </trkpt>
      <trkpt lat="44.00531" lon="3.49812">
        <ele>797.7</ele>
        <time>2026-05-28T08:01:40.000Z</time>
      </trkpt>
      <trkpt lat="44.00531" lon="3.49811">
        <ele>797.4</ele>
        <time>2026-05-28T08:01:41.000Z</time>
      </trkpt>
      <trkpt lat="44.0053" lon="3.49811">
        <ele>797.1</ele>
        <time>2026-05-28T08:01:42.000Z</time>
      </trkpt>
      <trkpt lat="44.00529" lon="3.49811">
        <ele>796.8</ele>
        <time>2026-05-28T08:01:43.000Z</time>
      </trkpt>
      <trkpt lat="44.00529" lon="3.49811">
        <ele>796.7</ele>
        <time>2026-05-28T08:01:44.000Z</time>
      </trkpt>
      <trkpt lat="44.00528" lon="3.49811">
        <ele>796.6</ele>
        <time>2026-05-28T08:01:45.000Z</time>
      </trkpt>
      <trkpt lat="44.00528" lon="3.49811">
        <ele>796.5</ele>
        <time>2026-05-28T08:01:46.000Z</time>
      </trkpt>
      <trkpt lat="44.00528" lon="3.49811">
        <ele>796.5</ele>
        <time>2026-05-28T08:01:47.000Z</time>
      </trkpt>
      <trkpt lat="44.00528" lon="3.49811">
        <ele>796.4</ele>
        <time>2026-05-28T08:01:48.000Z</time>
      </trkpt>
      <trkpt lat="44.00528" lon="3.49812">
        <ele>796.2</ele>
        <time>2026-05-28T08:01:49.000Z</time>
      </trkpt>
      <trkpt lat="44.00529" lon="3.49812">
        <ele>796.1</ele>
        <time>2026-05-28T08:01:50.000Z</time>
      </trkpt>
      <trkpt lat="44.00529" lon="3.49812">
        <ele>795.9</ele>
        <time>2026-05-28T08:01:51.000Z</time>
      </trkpt>
      <trkpt lat="44.00529" lon="3.49812">
        <ele>796.2</ele>
        <time>2026-05-28T08:01:52.000Z</time>
      </trkpt>
      <trkpt lat="44.0053" lon="3.49812">
        <ele>796.3</ele>
        <time>2026-05-28T08:01:53.000Z</time>
      </trkpt>
      <trkpt lat="44.00531" lon="3.49811">
        <ele>796</ele>
        <time>2026-05-28T08:01:54.000Z</time>
      </trkpt>
      <trkpt lat="44.00532" lon="3.49811">
        <ele>796.3</ele>
        <time>2026-05-28T08:01:55.000Z</time>
      </trkpt>
      <trkpt lat="44.00533" lon="3.49812">
        <ele>796.8</ele>
        <time>2026-05-28T08:01:56.000Z</time>
      </trkpt>
      <trkpt lat="44.00533" lon="3.49811">
        <ele>797.4</ele>
        <time>2026-05-28T08:01:57.000Z</time>
      </trkpt>
      <trkpt lat="44.00534" lon="3.49811">
        <ele>797.5</ele>
        <time>2026-05-28T08:01:58.000Z</time>
      </trkpt>
      <trkpt lat="44.00533" lon="3.49812">
        <ele>797.6</ele>
        <time>2026-05-28T08:01:59.000Z</time>
      </trkpt>
      <trkpt lat="44.00534" lon="3.49812">
        <ele>797.5</ele>
        <time>2026-05-28T08:02:00.000Z</time>
      </trkpt>
      <trkpt lat="44.00534" lon="3.49812">
        <ele>797.4</ele>
        <time>2026-05-28T08:02:01.000Z</time>
      </trkpt>
      <trkpt lat="44.00535" lon="3.49812">
        <ele>797.7</ele>
        <time>2026-05-28T08:02:02.000Z</time>
      </trkpt>
      <trkpt lat="44.00535" lon="3.49812">
        <ele>798.1</ele>
        <time>2026-05-28T08:02:03.000Z</time>
      </trkpt>
      <trkpt lat="44.00535" lon="3.49812">
        <ele>798.4</ele>
        <time>2026-05-28T08:02:04.000Z</time>
      </trkpt>
      <trkpt lat="44.00535" lon="3.49812">
        <ele>798.4</ele>
        <time>2026-05-28T08:02:05.000Z</time>
      </trkpt>
      <trkpt lat="44.00535" lon="3.49813">
        <ele>798.3</ele>
        <time>2026-05-28T08:02:06.000Z</time>
      </trkpt>
      <trkpt lat="44.00535" lon="3.49812">
        <ele>798.2</ele>
        <time>2026-05-28T08:02:07.000Z</time>
      </trkpt>
      <trkpt lat="44.00535" lon="3.49812">
        <ele>798.1</ele>
        <time>2026-05-28T08:02:08.000Z</time>
      </trkpt>
      <trkpt lat="44.00534" lon="3.49811">
        <ele>798</ele>
        <time>2026-05-28T08:02:09.000Z</time>
      </trkpt>
      <trkpt lat="44.00534" lon="3.49811">
        <ele>797.9</ele>
        <time>2026-05-28T08:02:10.000Z</time>
      </trkpt>
      <trkpt lat="44.00534" lon="3.4981">
        <ele>797.9</ele>
        <time>2026-05-28T08:02:11.000Z</time>
      </trkpt>
      <trkpt lat="44.00534" lon="3.4981">
        <ele>797.9</ele>
        <time>2026-05-28T08:02:12.000Z</time>
      </trkpt>
      <trkpt lat="44.00534" lon="3.4981">
        <ele>797.8</ele>
        <time>2026-05-28T08:02:13.000Z</time>
      </trkpt>
      <trkpt lat="44.00534" lon="3.4981">
        <ele>798</ele>
        <time>2026-05-28T08:02:15.000Z</time>
      </trkpt>
      <trkpt lat="44.00534" lon="3.4981">
        <ele>797.9</ele>
        <time>2026-05-28T08:02:16.000Z</time>
      </trkpt>
      <trkpt lat="44.00535" lon="3.49811">
        <ele>797.6</ele>
        <time>2026-05-28T08:02:17.000Z</time>
      </trkpt>
      <trkpt lat="44.00535" lon="3.49811">
        <ele>797.6</ele>
        <time>2026-05-28T08:02:18.000Z</time>
      </trkpt>
      <trkpt lat="44.00536" lon="3.49812">
        <ele>797.8</ele>
        <time>2026-05-28T08:02:19.000Z</time>
      </trkpt>
      <trkpt lat="44.00536" lon="3.49812">
        <ele>798.2</ele>
        <time>2026-05-28T08:02:20.000Z</time>
      </trkpt>
      <trkpt lat="44.00536" lon="3.49812">
        <ele>798.6</ele>
        <time>2026-05-28T08:02:21.000Z</time>
      </trkpt>
      <trkpt lat="44.00537" lon="3.49812">
        <ele>798.9</ele>
        <time>2026-05-28T08:02:22.000Z</time>
      </trkpt>
      <trkpt lat="44.00536" lon="3.49812">
        <ele>798.5</ele>
        <time>2026-05-28T08:02:23.000Z</time>
      </trkpt>
      <trkpt lat="44.00537" lon="3.49812">
        <ele>798.2</ele>
        <time>2026-05-28T08:02:24.000Z</time>
      </trkpt>
      <trkpt lat="44.00537" lon="3.49811">
        <ele>798</ele>
        <time>2026-05-28T08:02:25.000Z</time>
      </trkpt>
      <trkpt lat="44.00537" lon="3.49811">
        <ele>797.9</ele>
        <time>2026-05-28T08:02:26.000Z</time>
      </trkpt>
      <trkpt lat="44.00537" lon="3.49811">
        <ele>798</ele>
        <time>2026-05-28T08:02:27.000Z</time>
      </trkpt>
      <trkpt lat="44.00537" lon="3.49811">
        <ele>798</ele>
        <time>2026-05-28T08:02:28.000Z</time>
      </trkpt>
      <trkpt lat="44.00537" lon="3.49811">
        <ele>798.1</ele>
        <time>2026-05-28T08:02:29.000Z</time>
      </trkpt>
      <trkpt lat="44.00539" lon="3.49812">
        <ele>798.2</ele>
        <time>2026-05-28T08:02:30.000Z</time>
      </trkpt>
      <trkpt lat="44.0054" lon="3.49812">
        <ele>798.3</ele>
        <time>2026-05-28T08:02:31.000Z</time>
      </trkpt>
      <trkpt lat="44.00541" lon="3.49812">
        <ele>798.4</ele>
        <time>2026-05-28T08:02:32.000Z</time>
      </trkpt>
      <trkpt lat="44.00542" lon="3.49811">
        <ele>798.4</ele>
        <time>2026-05-28T08:02:33.000Z</time>
      </trkpt>
      <trkpt lat="44.00543" lon="3.49811">
        <ele>798.4</ele>
        <time>2026-05-28T08:02:34.000Z</time>
      </trkpt>
      <trkpt lat="44.00543" lon="3.49811">
        <ele>798.7</ele>
        <time>2026-05-28T08:02:35.000Z</time>
      </trkpt>
      <trkpt lat="44.00543" lon="3.49811">
        <ele>798.6</ele>
        <time>2026-05-28T08:02:36.000Z</time>
      </trkpt>
      <trkpt lat="44.00543" lon="3.49811">
        <ele>798.7</ele>
        <time>2026-05-28T08:02:37.000Z</time>
      </trkpt>
      <trkpt lat="44.00543" lon="3.49811">
        <ele>798.6</ele>
        <time>2026-05-28T08:02:38.000Z</time>
      </trkpt>
      <trkpt lat="44.00544" lon="3.49811">
        <ele>798.5</ele>
        <time>2026-05-28T08:02:39.000Z</time>
      </trkpt>
      <trkpt lat="44.00545" lon="3.4981">
        <ele>798.5</ele>
        <time>2026-05-28T08:02:40.000Z</time>
      </trkpt>
      <trkpt lat="44.00545" lon="3.49811">
        <ele>798.6</ele>
        <time>2026-05-28T08:02:41.000Z</time>
      </trkpt>
      <trkpt lat="44.00546" lon="3.49811">
        <ele>798.3</ele>
        <time>2026-05-28T08:02:42.000Z</time>
      </trkpt>
      <trkpt lat="44.00546" lon="3.49811">
        <ele>798.6</ele>
        <time>2026-05-28T08:02:43.000Z</time>
      </trkpt>
      <trkpt lat="44.00547" lon="3.49811">
        <ele>798.7</ele>
        <time>2026-05-28T08:02:44.000Z</time>
      </trkpt>
      <trkpt lat="44.00548" lon="3.49811">
        <ele>798.8</ele>
        <time>2026-05-28T08:02:45.000Z</time>
      </trkpt>
      <trkpt lat="44.00548" lon="3.49811">
        <ele>798.9</ele>
        <time>2026-05-28T08:02:46.000Z</time>
      </trkpt>
      <trkpt lat="44.00548" lon="3.49811">
        <ele>799.2</ele>
        <time>2026-05-28T08:02:47.000Z</time>
      </trkpt>
      <trkpt lat="44.00549" lon="3.4981">
        <ele>799.7</ele>
        <time>2026-05-28T08:02:48.000Z</time>
      </trkpt>
      <trkpt lat="44.00549" lon="3.4981">
        <ele>799.8</ele>
        <time>2026-05-28T08:02:49.000Z</time>
      </trkpt>
      <trkpt lat="44.0055" lon="3.49809">
        <ele>799.9</ele>
        <time>2026-05-28T08:02:50.000Z</time>
      </trkpt>
      <trkpt lat="44.0055" lon="3.49809">
        <ele>799.8</ele>
        <time>2026-05-28T08:02:51.000Z</time>
      </trkpt>
      <trkpt lat="44.00551" lon="3.49809">
        <ele>799.9</ele>
        <time>2026-05-28T08:02:52.000Z</time>
      </trkpt>
      <trkpt lat="44.00551" lon="3.49809">
        <ele>799.9</ele>
        <time>2026-05-28T08:02:53.000Z</time>
      </trkpt>
      <trkpt lat="44.00551" lon="3.49809">
        <ele>800</ele>
        <time>2026-05-28T08:02:54.000Z</time>
      </trkpt>
      <trkpt lat="44.00552" lon="3.4981">
        <ele>800.3</ele>
        <time>2026-05-28T08:02:55.000Z</time>
      </trkpt>
      <trkpt lat="44.00552" lon="3.49811">
        <ele>800.6</ele>
        <time>2026-05-28T08:02:56.000Z</time>
      </trkpt>
      <trkpt lat="44.00552" lon="3.49812">
        <ele>800.6</ele>
        <time>2026-05-28T08:02:57.000Z</time>
      </trkpt>
      <trkpt lat="44.00552" lon="3.49812">
        <ele>800.9</ele>
        <time>2026-05-28T08:02:58.000Z</time>
      </trkpt>
      <trkpt lat="44.00551" lon="3.49813">
        <ele>801.1</ele>
        <time>2026-05-28T08:02:59.000Z</time>
      </trkpt>
      <trkpt lat="44.00552" lon="3.49813">
        <ele>801.1</ele>
        <time>2026-05-28T08:03:00.000Z</time>
      </trkpt>
      <trkpt lat="44.00552" lon="3.49814">
        <ele>801.4</ele>
        <time>2026-05-28T08:03:01.000Z</time>
      </trkpt>
      <trkpt lat="44.00552" lon="3.49814">
        <ele>801.3</ele>
        <time>2026-05-28T08:03:02.000Z</time>
      </trkpt>
      <trkpt lat="44.00553" lon="3.49815">
        <ele>801.5</ele>
        <time>2026-05-28T08:03:03.000Z</time>
      </trkpt>
      <trkpt lat="44.00553" lon="3.49815">
        <ele>801.4</ele>
        <time>2026-05-28T08:03:04.000Z</time>
      </trkpt>
      <trkpt lat="44.00554" lon="3.49816">
        <ele>801.5</ele>
        <time>2026-05-28T08:03:05.000Z</time>
      </trkpt>
      <trkpt lat="44.00554" lon="3.49816">
        <ele>801.9</ele>
        <time>2026-05-28T08:03:06.000Z</time>
      </trkpt>
      <trkpt lat="44.00554" lon="3.49816">
        <ele>801.9</ele>
        <time>2026-05-28T08:03:07.000Z</time>
      </trkpt>
      <trkpt lat="44.00555" lon="3.49816">
        <ele>801.9</ele>
        <time>2026-05-28T08:03:08.000Z</time>
      </trkpt>
      <trkpt lat="44.00555" lon="3.49817">
        <ele>802</ele>
        <time>2026-05-28T08:03:10.000Z</time>
      </trkpt>
      <trkpt lat="44.00556" lon="3.49817">
        <ele>801.8</ele>
        <time>2026-05-28T08:03:11.000Z</time>
      </trkpt>
      <trkpt lat="44.00556" lon="3.49817">
        <ele>802</ele>
        <time>2026-05-28T08:03:12.000Z</time>
      </trkpt>
      <trkpt lat="44.00556" lon="3.49817">
        <ele>802.2</ele>
        <time>2026-05-28T08:03:13.000Z</time>
      </trkpt>
      <trkpt lat="44.00556" lon="3.49817">
        <ele>802.3</ele>
        <time>2026-05-28T08:03:14.000Z</time>
      </trkpt>
      <trkpt lat="44.00556" lon="3.49817">
        <ele>802.6</ele>
        <time>2026-05-28T08:03:15.000Z</time>
      </trkpt>
      <trkpt lat="44.00556" lon="3.49817">
        <ele>802.9</ele>
        <time>2026-05-28T08:03:16.000Z</time>
      </trkpt>
      <trkpt lat="44.00556" lon="3.49817">
        <ele>803.2</ele>
        <time>2026-05-28T08:03:17.000Z</time>
      </trkpt>
      <trkpt lat="44.00556" lon="3.49817">
        <ele>803.4</ele>
        <time>2026-05-28T08:03:18.000Z</time>
      </trkpt>
      <trkpt lat="44.00556" lon="3.49817">
        <ele>803.5</ele>
        <time>2026-05-28T08:03:19.000Z</time>
      </trkpt>
      <trkpt lat="44.00556" lon="3.49817">
        <ele>803.4</ele>
        <time>2026-05-28T08:03:20.000Z</time>
      </trkpt>
      <trkpt lat="44.00556" lon="3.49817">
        <ele>803.4</ele>
        <time>2026-05-28T08:03:21.000Z</time>
      </trkpt>
      <trkpt lat="44.00556" lon="3.49817">
        <ele>803.5</ele>
        <time>2026-05-28T08:03:22.000Z</time>
      </trkpt>
      <trkpt lat="44.00556" lon="3.49816">
        <ele>803.5</ele>
        <time>2026-05-28T08:03:23.000Z</time>
      </trkpt>
      <trkpt lat="44.00556" lon="3.49816">
        <ele>803.6</ele>
        <time>2026-05-28T08:03:24.000Z</time>
      </trkpt>
      <trkpt lat="44.00556" lon="3.49816">
        <ele>803.6</ele>
        <time>2026-05-28T08:03:25.000Z</time>
      </trkpt>
      <trkpt lat="44.00556" lon="3.49816">
        <ele>803.5</ele>
        <time>2026-05-28T08:03:27.000Z</time>
      </trkpt>
      <trkpt lat="44.00556" lon="3.49816">
        <ele>803.1</ele>
        <time>2026-05-28T08:03:28.000Z</time>
      </trkpt>
      <trkpt lat="44.00556" lon="3.49816">
        <ele>803.1</ele>
        <time>2026-05-28T08:03:29.000Z</time>
      </trkpt>
      <trkpt lat="44.00556" lon="3.49816">
        <ele>803.1</ele>
        <time>2026-05-28T08:03:30.000Z</time>
      </trkpt>
      <trkpt lat="44.00556" lon="3.49816">
        <ele>803.2</ele>
        <time>2026-05-28T08:03:31.000Z</time>
      </trkpt>
      <trkpt lat="44.00556" lon="3.49816">
        <ele>803.2</ele>
        <time>2026-05-28T08:03:32.000Z</time>
      </trkpt>
      <trkpt lat="44.00556" lon="3.49816">
        <ele>802.9</ele>
        <time>2026-05-28T08:03:33.000Z</time>
      </trkpt>
      <trkpt lat="44.00556" lon="3.49816">
        <ele>802.8</ele>
        <time>2026-05-28T08:03:34.000Z</time>
      </trkpt>
      <trkpt lat="44.00556" lon="3.49816">
        <ele>802.9</ele>
        <time>2026-05-28T08:03:35.000Z</time>
      </trkpt>
      <trkpt lat="44.00556" lon="3.49816">
        <ele>803.1</ele>
        <time>2026-05-28T08:03:36.000Z</time>
      </trkpt>
      <trkpt lat="44.00556" lon="3.49816">
        <ele>803.3</ele>
        <time>2026-05-28T08:03:37.000Z</time>
      </trkpt>
      <trkpt lat="44.00556" lon="3.49816">
        <ele>803.5</ele>
        <time>2026-05-28T08:03:38.000Z</time>
      </trkpt>
      <trkpt lat="44.00556" lon="3.49816">
        <ele>803.7</ele>
        <time>2026-05-28T08:03:39.000Z</time>
      </trkpt>
      <trkpt lat="44.00556" lon="3.49816">
        <ele>803.9</ele>
        <time>2026-05-28T08:03:40.000Z</time>
      </trkpt>
      <trkpt lat="44.00556" lon="3.49816">
        <ele>804</ele>
        <time>2026-05-28T08:03:41.000Z</time>
      </trkpt>
      <trkpt lat="44.00557" lon="3.49815">
        <ele>804.2</ele>
        <time>2026-05-28T08:03:43.000Z</time>
      </trkpt>
      <trkpt lat="44.00558" lon="3.49815">
        <ele>804.4</ele>
        <time>2026-05-28T08:03:44.000Z</time>
      </trkpt>
      <trkpt lat="44.00558" lon="3.49815">
        <ele>804.5</ele>
        <time>2026-05-28T08:03:45.000Z</time>
      </trkpt>
      <trkpt lat="44.00558" lon="3.49815">
        <ele>804.5</ele>
        <time>2026-05-28T08:03:46.000Z</time>
      </trkpt>
      <trkpt lat="44.00558" lon="3.49815">
        <ele>804.7</ele>
        <time>2026-05-28T08:03:47.000Z</time>
      </trkpt>
      <trkpt lat="44.00558" lon="3.49815">
        <ele>804.7</ele>
        <time>2026-05-28T08:03:48.000Z</time>
      </trkpt>
      <trkpt lat="44.00559" lon="3.49815">
        <ele>804.7</ele>
        <time>2026-05-28T08:03:49.000Z</time>
      </trkpt>
      <trkpt lat="44.00559" lon="3.49815">
        <ele>804.7</ele>
        <time>2026-05-28T08:03:50.000Z</time>
      </trkpt>
      <trkpt lat="44.0056" lon="3.49814">
        <ele>804.6</ele>
        <time>2026-05-28T08:03:51.000Z</time>
      </trkpt>
      <trkpt lat="44.0056" lon="3.49814">
        <ele>804.5</ele>
        <time>2026-05-28T08:03:52.000Z</time>
      </trkpt>
      <trkpt lat="44.00561" lon="3.49814">
        <ele>804.3</ele>
        <time>2026-05-28T08:03:53.000Z</time>
      </trkpt>
      <trkpt lat="44.00561" lon="3.49814">
        <ele>804.1</ele>
        <time>2026-05-28T08:03:54.000Z</time>
      </trkpt>
      <trkpt lat="44.00562" lon="3.49814">
        <ele>803.9</ele>
        <time>2026-05-28T08:03:55.000Z</time>
      </trkpt>
      <trkpt lat="44.00562" lon="3.49814">
        <ele>803.8</ele>
        <time>2026-05-28T08:03:56.000Z</time>
      </trkpt>
      <trkpt lat="44.00563" lon="3.49814">
        <ele>803.7</ele>
        <time>2026-05-28T08:03:58.000Z</time>
      </trkpt>
      <trkpt lat="44.00564" lon="3.49814">
        <ele>803.6</ele>
        <time>2026-05-28T08:03:59.000Z</time>
      </trkpt>
      <trkpt lat="44.00565" lon="3.49813">
        <ele>803.6</ele>
        <time>2026-05-28T08:04:00.000Z</time>
      </trkpt>
      <trkpt lat="44.00566" lon="3.49813">
        <ele>803.3</ele>
        <time>2026-05-28T08:04:01.000Z</time>
      </trkpt>
      <trkpt lat="44.00566" lon="3.49813">
        <ele>803.3</ele>
        <time>2026-05-28T08:04:02.000Z</time>
      </trkpt>
      <trkpt lat="44.00567" lon="3.49813">
        <ele>803.2</ele>
        <time>2026-05-28T08:04:03.000Z</time>
      </trkpt>
      <trkpt lat="44.00568" lon="3.49813">
        <ele>803.1</ele>
        <time>2026-05-28T08:04:04.000Z</time>
      </trkpt>
      <trkpt lat="44.00568" lon="3.49812">
        <ele>803.1</ele>
        <time>2026-05-28T08:04:05.000Z</time>
      </trkpt>
      <trkpt lat="44.00568" lon="3.49812">
        <ele>802.9</ele>
        <time>2026-05-28T08:04:06.000Z</time>
      </trkpt>
      <trkpt lat="44.00569" lon="3.49811">
        <ele>802.7</ele>
        <time>2026-05-28T08:04:07.000Z</time>
      </trkpt>
      <trkpt lat="44.00569" lon="3.49811">
        <ele>802.6</ele>
        <time>2026-05-28T08:04:08.000Z</time>
      </trkpt>
      <trkpt lat="44.00571" lon="3.49811">
        <ele>803.2</ele>
        <time>2026-05-28T08:04:09.000Z</time>
      </trkpt>
      <trkpt lat="44.00571" lon="3.49811">
        <ele>803.2</ele>
        <time>2026-05-28T08:04:10.000Z</time>
      </trkpt>
      <trkpt lat="44.00572" lon="3.4981">
        <ele>803.5</ele>
        <time>2026-05-28T08:04:11.000Z</time>
      </trkpt>
      <trkpt lat="44.00572" lon="3.4981">
        <ele>803.5</ele>
        <time>2026-05-28T08:04:12.000Z</time>
      </trkpt>
      <trkpt lat="44.00572" lon="3.4981">
        <ele>803.6</ele>
        <time>2026-05-28T08:04:13.000Z</time>
      </trkpt>
      <trkpt lat="44.00572" lon="3.4981">
        <ele>803.7</ele>
        <time>2026-05-28T08:04:14.000Z</time>
      </trkpt>
      <trkpt lat="44.00572" lon="3.4981">
        <ele>803.6</ele>
        <time>2026-05-28T08:04:15.000Z</time>
      </trkpt>
      <trkpt lat="44.00573" lon="3.4981">
        <ele>803.6</ele>
        <time>2026-05-28T08:04:16.000Z</time>
      </trkpt>
      <trkpt lat="44.00573" lon="3.4981">
        <ele>803.6</ele>
        <time>2026-05-28T08:04:17.000Z</time>
      </trkpt>
      <trkpt lat="44.00573" lon="3.49809">
        <ele>803.4</ele>
        <time>2026-05-28T08:04:18.000Z</time>
      </trkpt>
      <trkpt lat="44.00573" lon="3.49809">
        <ele>803.4</ele>
        <time>2026-05-28T08:04:19.000Z</time>
      </trkpt>
      <trkpt lat="44.00574" lon="3.49809">
        <ele>803.4</ele>
        <time>2026-05-28T08:04:20.000Z</time>
      </trkpt>
      <trkpt lat="44.00574" lon="3.49809">
        <ele>803.3</ele>
        <time>2026-05-28T08:04:21.000Z</time>
      </trkpt>
      <trkpt lat="44.00575" lon="3.49808">
        <ele>802.8</ele>
        <time>2026-05-28T08:04:23.000Z</time>
      </trkpt>
      <trkpt lat="44.00575" lon="3.49808">
        <ele>802.7</ele>
        <time>2026-05-28T08:04:24.000Z</time>
      </trkpt>
      <trkpt lat="44.00576" lon="3.49809">
        <ele>802.7</ele>
        <time>2026-05-28T08:04:25.000Z</time>
      </trkpt>
      <trkpt lat="44.00576" lon="3.49809">
        <ele>802.9</ele>
        <time>2026-05-28T08:04:26.000Z</time>
      </trkpt>
      <trkpt lat="44.00577" lon="3.49809">
        <ele>803</ele>
        <time>2026-05-28T08:04:27.000Z</time>
      </trkpt>
      <trkpt lat="44.00577" lon="3.49809">
        <ele>802.9</ele>
        <time>2026-05-28T08:04:28.000Z</time>
      </trkpt>
      <trkpt lat="44.00577" lon="3.49809">
        <ele>803.1</ele>
        <time>2026-05-28T08:04:29.000Z</time>
      </trkpt>
      <trkpt lat="44.00577" lon="3.49809">
        <ele>803.4</ele>
        <time>2026-05-28T08:04:30.000Z</time>
      </trkpt>
      <trkpt lat="44.00577" lon="3.49809">
        <ele>803.2</ele>
        <time>2026-05-28T08:04:31.000Z</time>
      </trkpt>
      <trkpt lat="44.00577" lon="3.49809">
        <ele>803</ele>
        <time>2026-05-28T08:04:32.000Z</time>
      </trkpt>
      <trkpt lat="44.00578" lon="3.49809">
        <ele>803.1</ele>
        <time>2026-05-28T08:04:33.000Z</time>
      </trkpt>
      <trkpt lat="44.00578" lon="3.49809">
        <ele>802.9</ele>
        <time>2026-05-28T08:04:34.000Z</time>
      </trkpt>
      <trkpt lat="44.00579" lon="3.49809">
        <ele>802.9</ele>
        <time>2026-05-28T08:04:35.000Z</time>
      </trkpt>
      <trkpt lat="44.0058" lon="3.49808">
        <ele>802.8</ele>
        <time>2026-05-28T08:04:37.000Z</time>
      </trkpt>
      <trkpt lat="44.00581" lon="3.49807">
        <ele>802.7</ele>
        <time>2026-05-28T08:04:38.000Z</time>
      </trkpt>
      <trkpt lat="44.00581" lon="3.49806">
        <ele>802.6</ele>
        <time>2026-05-28T08:04:39.000Z</time>
      </trkpt>
      <trkpt lat="44.00581" lon="3.49806">
        <ele>802.7</ele>
        <time>2026-05-28T08:04:40.000Z</time>
      </trkpt>
      <trkpt lat="44.00581" lon="3.49805">
        <ele>802.7</ele>
        <time>2026-05-28T08:04:41.000Z</time>
      </trkpt>
      <trkpt lat="44.00581" lon="3.49804">
        <ele>802.6</ele>
        <time>2026-05-28T08:04:42.000Z</time>
      </trkpt>
      <trkpt lat="44.00582" lon="3.49803">
        <ele>802.5</ele>
        <time>2026-05-28T08:04:43.000Z</time>
      </trkpt>
      <trkpt lat="44.00582" lon="3.49804">
        <ele>802.6</ele>
        <time>2026-05-28T08:04:44.000Z</time>
      </trkpt>
      <trkpt lat="44.00583" lon="3.49803">
        <ele>802.8</ele>
        <time>2026-05-28T08:04:45.000Z</time>
      </trkpt>
      <trkpt lat="44.00583" lon="3.49803">
        <ele>802.8</ele>
        <time>2026-05-28T08:04:47.000Z</time>
      </trkpt>
      <trkpt lat="44.00583" lon="3.49803">
        <ele>802.8</ele>
        <time>2026-05-28T08:04:48.000Z</time>
      </trkpt>
      <trkpt lat="44.00584" lon="3.49802">
        <ele>802.9</ele>
        <time>2026-05-28T08:04:49.000Z</time>
      </trkpt>
      <trkpt lat="44.00585" lon="3.49802">
        <ele>803</ele>
        <time>2026-05-28T08:04:50.000Z</time>
      </trkpt>
      <trkpt lat="44.00585" lon="3.49802">
        <ele>802.9</ele>
        <time>2026-05-28T08:04:51.000Z</time>
      </trkpt>
      <trkpt lat="44.00586" lon="3.49802">
        <ele>802.9</ele>
        <time>2026-05-28T08:04:52.000Z</time>
      </trkpt>
      <trkpt lat="44.00587" lon="3.49801">
        <ele>803</ele>
        <time>2026-05-28T08:04:53.000Z</time>
      </trkpt>
      <trkpt lat="44.00587" lon="3.49801">
        <ele>803.1</ele>
        <time>2026-05-28T08:04:54.000Z</time>
      </trkpt>
      <trkpt lat="44.00588" lon="3.498">
        <ele>802.9</ele>
        <time>2026-05-28T08:04:56.000Z</time>
      </trkpt>
      <trkpt lat="44.00589" lon="3.49801">
        <ele>802.9</ele>
        <time>2026-05-28T08:04:57.000Z</time>
      </trkpt>
      <trkpt lat="44.00589" lon="3.498">
        <ele>802.9</ele>
        <time>2026-05-28T08:04:58.000Z</time>
      </trkpt>
      <trkpt lat="44.0059" lon="3.498">
        <ele>802.7</ele>
        <time>2026-05-28T08:04:59.000Z</time>
      </trkpt>
      <trkpt lat="44.0059" lon="3.49799">
        <ele>802.8</ele>
        <time>2026-05-28T08:05:00.000Z</time>
      </trkpt>
      <trkpt lat="44.0059" lon="3.49799">
        <ele>802.9</ele>
        <time>2026-05-28T08:05:01.000Z</time>
      </trkpt>
      <trkpt lat="44.00591" lon="3.49799">
        <ele>803.1</ele>
        <time>2026-05-28T08:05:02.000Z</time>
      </trkpt>
      <trkpt lat="44.00591" lon="3.49799">
        <ele>803.2</ele>
        <time>2026-05-28T08:05:03.000Z</time>
      </trkpt>
      <trkpt lat="44.00591" lon="3.49799">
        <ele>803.3</ele>
        <time>2026-05-28T08:05:04.000Z</time>
      </trkpt>
      <trkpt lat="44.00592" lon="3.49798">
        <ele>803.1</ele>
        <time>2026-05-28T08:05:05.000Z</time>
      </trkpt>
      <trkpt lat="44.00592" lon="3.49798">
        <ele>803.2</ele>
        <time>2026-05-28T08:05:06.000Z</time>
      </trkpt>
      <trkpt lat="44.00593" lon="3.49798">
        <ele>803.3</ele>
        <time>2026-05-28T08:05:07.000Z</time>
      </trkpt>
      <trkpt lat="44.00593" lon="3.49798">
        <ele>803.4</ele>
        <time>2026-05-28T08:05:08.000Z</time>
      </trkpt>
      <trkpt lat="44.00594" lon="3.49797">
        <ele>803.4</ele>
        <time>2026-05-28T08:05:09.000Z</time>
      </trkpt>
      <trkpt lat="44.00595" lon="3.49796">
        <ele>803.6</ele>
        <time>2026-05-28T08:05:10.000Z</time>
      </trkpt>
      <trkpt lat="44.00596" lon="3.49796">
        <ele>803.8</ele>
        <time>2026-05-28T08:05:11.000Z</time>
      </trkpt>
      <trkpt lat="44.00596" lon="3.49796">
        <ele>803.9</ele>
        <time>2026-05-28T08:05:12.000Z</time>
      </trkpt>
      <trkpt lat="44.00595" lon="3.49796">
        <ele>803.9</ele>
        <time>2026-05-28T08:05:13.000Z</time>
      </trkpt>
      <trkpt lat="44.00595" lon="3.49796">
        <ele>804</ele>
        <time>2026-05-28T08:05:14.000Z</time>
      </trkpt>
      <trkpt lat="44.00595" lon="3.49796">
        <ele>804.3</ele>
        <time>2026-05-28T08:05:15.000Z</time>
      </trkpt>
      <trkpt lat="44.00595" lon="3.49796">
        <ele>804.5</ele>
        <time>2026-05-28T08:05:16.000Z</time>
      </trkpt>
      <trkpt lat="44.00596" lon="3.49797">
        <ele>805.1</ele>
        <time>2026-05-28T08:05:17.000Z</time>
      </trkpt>
      <trkpt lat="44.00597" lon="3.49797">
        <ele>805.3</ele>
        <time>2026-05-28T08:05:18.000Z</time>
      </trkpt>
      <trkpt lat="44.00597" lon="3.49798">
        <ele>805.5</ele>
        <time>2026-05-28T08:05:19.000Z</time>
      </trkpt>
      <trkpt lat="44.00597" lon="3.49797">
        <ele>805.7</ele>
        <time>2026-05-28T08:05:21.000Z</time>
      </trkpt>
      <trkpt lat="44.00597" lon="3.49797">
        <ele>805.9</ele>
        <time>2026-05-28T08:05:22.000Z</time>
      </trkpt>
      <trkpt lat="44.00597" lon="3.49797">
        <ele>806.1</ele>
        <time>2026-05-28T08:05:23.000Z</time>
      </trkpt>
      <trkpt lat="44.00597" lon="3.49797">
        <ele>806.9</ele>
        <time>2026-05-28T08:05:24.000Z</time>
      </trkpt>
      <trkpt lat="44.00597" lon="3.49797">
        <ele>807</ele>
        <time>2026-05-28T08:05:25.000Z</time>
      </trkpt>
      <trkpt lat="44.00597" lon="3.49796">
        <ele>807.1</ele>
        <time>2026-05-28T08:05:26.000Z</time>
      </trkpt>
      <trkpt lat="44.00597" lon="3.49796">
        <ele>807.2</ele>
        <time>2026-05-28T08:05:27.000Z</time>
      </trkpt>
      <trkpt lat="44.00597" lon="3.49796">
        <ele>807.3</ele>
        <time>2026-05-28T08:05:28.000Z</time>
      </trkpt>
      <trkpt lat="44.00597" lon="3.49796">
        <ele>807.4</ele>
        <time>2026-05-28T08:05:29.000Z</time>
      </trkpt>
      <trkpt lat="44.00597" lon="3.49796">
        <ele>807.3</ele>
        <time>2026-05-28T08:05:30.000Z</time>
      </trkpt>
      <trkpt lat="44.00597" lon="3.49796">
        <ele>807.4</ele>
        <time>2026-05-28T08:05:31.000Z</time>
      </trkpt>
      <trkpt lat="44.00597" lon="3.49797">
        <ele>808</ele>
        <time>2026-05-28T08:05:32.000Z</time>
      </trkpt>
      <trkpt lat="44.00597" lon="3.49797">
        <ele>808.5</ele>
        <time>2026-05-28T08:05:33.000Z</time>
      </trkpt>
      <trkpt lat="44.00598" lon="3.49797">
        <ele>808.7</ele>
        <time>2026-05-28T08:05:34.000Z</time>
      </trkpt>
      <trkpt lat="44.00598" lon="3.49797">
        <ele>809</ele>
        <time>2026-05-28T08:05:35.000Z</time>
      </trkpt>
      <trkpt lat="44.00598" lon="3.49797">
        <ele>809.4</ele>
        <time>2026-05-28T08:05:36.000Z</time>
      </trkpt>
      <trkpt lat="44.00598" lon="3.49798">
        <ele>809.7</ele>
        <time>2026-05-28T08:05:37.000Z</time>
      </trkpt>
      <trkpt lat="44.00599" lon="3.49798">
        <ele>810</ele>
        <time>2026-05-28T08:05:38.000Z</time>
      </trkpt>
      <trkpt lat="44.006" lon="3.49799">
        <ele>809.7</ele>
        <time>2026-05-28T08:05:39.000Z</time>
      </trkpt>
      <trkpt lat="44.00601" lon="3.498">
        <ele>810</ele>
        <time>2026-05-28T08:05:41.000Z</time>
      </trkpt>
      <trkpt lat="44.00602" lon="3.49802">
        <ele>810.1</ele>
        <time>2026-05-28T08:05:42.000Z</time>
      </trkpt>
      <trkpt lat="44.00603" lon="3.49804">
        <ele>810.3</ele>
        <time>2026-05-28T08:05:43.000Z</time>
      </trkpt>
      <trkpt lat="44.00603" lon="3.49805">
        <ele>810.3</ele>
        <time>2026-05-28T08:05:44.000Z</time>
      </trkpt>
      <trkpt lat="44.00604" lon="3.49806">
        <ele>810.3</ele>
        <time>2026-05-28T08:05:45.000Z</time>
      </trkpt>
      <trkpt lat="44.00605" lon="3.49807">
        <ele>810.4</ele>
        <time>2026-05-28T08:05:46.000Z</time>
      </trkpt>
      <trkpt lat="44.00605" lon="3.49808">
        <ele>810.4</ele>
        <time>2026-05-28T08:05:47.000Z</time>
      </trkpt>
      <trkpt lat="44.00605" lon="3.49808">
        <ele>810.4</ele>
        <time>2026-05-28T08:05:48.000Z</time>
      </trkpt>
      <trkpt lat="44.00606" lon="3.49808">
        <ele>810.5</ele>
        <time>2026-05-28T08:05:49.000Z</time>
      </trkpt>
      <trkpt lat="44.00606" lon="3.49808">
        <ele>810.6</ele>
        <time>2026-05-28T08:05:50.000Z</time>
      </trkpt>
      <trkpt lat="44.00606" lon="3.49808">
        <ele>810.4</ele>
        <time>2026-05-28T08:05:51.000Z</time>
      </trkpt>
      <trkpt lat="44.00606" lon="3.49808">
        <ele>810.6</ele>
        <time>2026-05-28T08:05:52.000Z</time>
      </trkpt>
      <trkpt lat="44.00606" lon="3.49808">
        <ele>810.6</ele>
        <time>2026-05-28T08:05:53.000Z</time>
      </trkpt>
      <trkpt lat="44.00606" lon="3.49808">
        <ele>810.9</ele>
        <time>2026-05-28T08:05:54.000Z</time>
      </trkpt>
      <trkpt lat="44.00606" lon="3.49808">
        <ele>810.9</ele>
        <time>2026-05-28T08:05:55.000Z</time>
      </trkpt>
      <trkpt lat="44.00606" lon="3.49808">
        <ele>810.9</ele>
        <time>2026-05-28T08:05:56.000Z</time>
      </trkpt>
      <trkpt lat="44.00605" lon="3.49808">
        <ele>810.8</ele>
        <time>2026-05-28T08:05:57.000Z</time>
      </trkpt>
      <trkpt lat="44.00605" lon="3.49808">
        <ele>810.8</ele>
        <time>2026-05-28T08:05:58.000Z</time>
      </trkpt>
      <trkpt lat="44.00605" lon="3.49809">
        <ele>810.8</ele>
        <time>2026-05-28T08:05:59.000Z</time>
      </trkpt>
      <trkpt lat="44.00604" lon="3.4981">
        <ele>811.1</ele>
        <time>2026-05-28T08:06:00.000Z</time>
      </trkpt>
      <trkpt lat="44.00604" lon="3.49809">
        <ele>811.1</ele>
        <time>2026-05-28T08:06:01.000Z</time>
      </trkpt>
      <trkpt lat="44.00604" lon="3.4981">
        <ele>811.1</ele>
        <time>2026-05-28T08:06:02.000Z</time>
      </trkpt>
      <trkpt lat="44.00604" lon="3.49811">
        <ele>811</ele>
        <time>2026-05-28T08:06:03.000Z</time>
      </trkpt>
      <trkpt lat="44.00604" lon="3.49811">
        <ele>811.1</ele>
        <time>2026-05-28T08:06:04.000Z</time>
      </trkpt>
      <trkpt lat="44.00604" lon="3.49812">
        <ele>810.9</ele>
        <time>2026-05-28T08:06:05.000Z</time>
      </trkpt>
      <trkpt lat="44.00604" lon="3.49813">
        <ele>810.9</ele>
        <time>2026-05-28T08:06:06.000Z</time>
      </trkpt>
      <trkpt lat="44.00604" lon="3.49814">
        <ele>810.8</ele>
        <time>2026-05-28T08:06:07.000Z</time>
      </trkpt>
      <trkpt lat="44.00605" lon="3.49815">
        <ele>810.7</ele>
        <time>2026-05-28T08:06:08.000Z</time>
      </trkpt>
      <trkpt lat="44.00605" lon="3.49815">
        <ele>810.6</ele>
        <time>2026-05-28T08:06:09.000Z</time>
      </trkpt>
      <trkpt lat="44.00605" lon="3.49816">
        <ele>810.6</ele>
        <time>2026-05-28T08:06:10.000Z</time>
      </trkpt>
      <trkpt lat="44.00606" lon="3.49816">
        <ele>810.6</ele>
        <time>2026-05-28T08:06:11.000Z</time>
      </trkpt>
      <trkpt lat="44.00607" lon="3.49817">
        <ele>810.6</ele>
        <time>2026-05-28T08:06:12.000Z</time>
      </trkpt>
      <trkpt lat="44.00608" lon="3.49817">
        <ele>810.5</ele>
        <time>2026-05-28T08:06:13.000Z</time>
      </trkpt>
      <trkpt lat="44.00608" lon="3.49818">
        <ele>810.6</ele>
        <time>2026-05-28T08:06:14.000Z</time>
      </trkpt>
      <trkpt lat="44.00608" lon="3.49819">
        <ele>810.5</ele>
        <time>2026-05-28T08:06:15.000Z</time>
      </trkpt>
      <trkpt lat="44.00608" lon="3.49819">
        <ele>810.4</ele>
        <time>2026-05-28T08:06:16.000Z</time>
      </trkpt>
      <trkpt lat="44.00608" lon="3.4982">
        <ele>810.2</ele>
        <time>2026-05-28T08:06:17.000Z</time>
      </trkpt>
      <trkpt lat="44.00608" lon="3.49821">
        <ele>810</ele>
        <time>2026-05-28T08:06:19.000Z</time>
      </trkpt>
      <trkpt lat="44.00609" lon="3.49822">
        <ele>810</ele>
        <time>2026-05-28T08:06:20.000Z</time>
      </trkpt>
      <trkpt lat="44.00609" lon="3.49823">
        <ele>809.8</ele>
        <time>2026-05-28T08:06:21.000Z</time>
      </trkpt>
      <trkpt lat="44.00609" lon="3.49823">
        <ele>809.6</ele>
        <time>2026-05-28T08:06:22.000Z</time>
      </trkpt>
      <trkpt lat="44.00608" lon="3.49824">
        <ele>809.7</ele>
        <time>2026-05-28T08:06:23.000Z</time>
      </trkpt>
      <trkpt lat="44.00608" lon="3.49824">
        <ele>809.8</ele>
        <time>2026-05-28T08:06:24.000Z</time>
      </trkpt>
      <trkpt lat="44.00609" lon="3.49824">
        <ele>809.8</ele>
        <time>2026-05-28T08:06:25.000Z</time>
      </trkpt>
      <trkpt lat="44.00609" lon="3.49824">
        <ele>809.3</ele>
        <time>2026-05-28T08:06:26.000Z</time>
      </trkpt>
      <trkpt lat="44.00609" lon="3.49824">
        <ele>809.1</ele>
        <time>2026-05-28T08:06:27.000Z</time>
      </trkpt>
      <trkpt lat="44.00609" lon="3.49824">
        <ele>808.7</ele>
        <time>2026-05-28T08:06:28.000Z</time>
      </trkpt>
      <trkpt lat="44.00608" lon="3.49824">
        <ele>808.7</ele>
        <time>2026-05-28T08:06:29.000Z</time>
      </trkpt>
      <trkpt lat="44.00608" lon="3.49824">
        <ele>808.7</ele>
        <time>2026-05-28T08:06:30.000Z</time>
      </trkpt>
      <trkpt lat="44.00608" lon="3.49824">
        <ele>808.9</ele>
        <time>2026-05-28T08:06:31.000Z</time>
      </trkpt>
      <trkpt lat="44.00608" lon="3.49824">
        <ele>808.8</ele>
        <time>2026-05-28T08:06:32.000Z</time>
      </trkpt>
      <trkpt lat="44.00608" lon="3.49825">
        <ele>808.7</ele>
        <time>2026-05-28T08:06:33.000Z</time>
      </trkpt>
      <trkpt lat="44.00609" lon="3.49826">
        <ele>808.9</ele>
        <time>2026-05-28T08:06:34.000Z</time>
      </trkpt>
      <trkpt lat="44.0061" lon="3.49827">
        <ele>808.9</ele>
        <time>2026-05-28T08:06:35.000Z</time>
      </trkpt>
      <trkpt lat="44.00609" lon="3.49827">
        <ele>808.8</ele>
        <time>2026-05-28T08:06:36.000Z</time>
      </trkpt>
      <trkpt lat="44.00609" lon="3.49827">
        <ele>808.6</ele>
        <time>2026-05-28T08:06:37.000Z</time>
      </trkpt>
      <trkpt lat="44.0061" lon="3.49828">
        <ele>808.5</ele>
        <time>2026-05-28T08:06:38.000Z</time>
      </trkpt>
      <trkpt lat="44.0061" lon="3.49828">
        <ele>808.4</ele>
        <time>2026-05-28T08:06:39.000Z</time>
      </trkpt>
      <trkpt lat="44.0061" lon="3.49829">
        <ele>808.2</ele>
        <time>2026-05-28T08:06:40.000Z</time>
      </trkpt>
      <trkpt lat="44.0061" lon="3.4983">
        <ele>808.2</ele>
        <time>2026-05-28T08:06:41.000Z</time>
      </trkpt>
      <trkpt lat="44.0061" lon="3.49831">
        <ele>808.3</ele>
        <time>2026-05-28T08:06:42.000Z</time>
      </trkpt>
      <trkpt lat="44.00609" lon="3.49832">
        <ele>808.3</ele>
        <time>2026-05-28T08:06:43.000Z</time>
      </trkpt>
      <trkpt lat="44.00609" lon="3.49832">
        <ele>808.3</ele>
        <time>2026-05-28T08:06:44.000Z</time>
      </trkpt>
      <trkpt lat="44.00608" lon="3.49833">
        <ele>808.2</ele>
        <time>2026-05-28T08:06:45.000Z</time>
      </trkpt>
      <trkpt lat="44.00608" lon="3.49834">
        <ele>808.3</ele>
        <time>2026-05-28T08:06:46.000Z</time>
      </trkpt>
      <trkpt lat="44.00608" lon="3.49835">
        <ele>808.5</ele>
        <time>2026-05-28T08:06:47.000Z</time>
      </trkpt>
      <trkpt lat="44.00609" lon="3.49836">
        <ele>808.7</ele>
        <time>2026-05-28T08:06:48.000Z</time>
      </trkpt>
      <trkpt lat="44.00609" lon="3.49837">
        <ele>808.5</ele>
        <time>2026-05-28T08:06:49.000Z</time>
      </trkpt>
      <trkpt lat="44.00609" lon="3.49838">
        <ele>808.6</ele>
        <time>2026-05-28T08:06:50.000Z</time>
      </trkpt>
      <trkpt lat="44.00609" lon="3.49839">
        <ele>808.5</ele>
        <time>2026-05-28T08:06:51.000Z</time>
      </trkpt>
      <trkpt lat="44.00608" lon="3.4984">
        <ele>808.6</ele>
        <time>2026-05-28T08:06:52.000Z</time>
      </trkpt>
      <trkpt lat="44.00607" lon="3.49841">
        <ele>809.3</ele>
        <time>2026-05-28T08:06:53.000Z</time>
      </trkpt>
      <trkpt lat="44.00607" lon="3.49842">
        <ele>809.4</ele>
        <time>2026-05-28T08:06:54.000Z</time>
      </trkpt>
      <trkpt lat="44.00606" lon="3.49844">
        <ele>809.6</ele>
        <time>2026-05-28T08:06:55.000Z</time>
      </trkpt>
      <trkpt lat="44.00606" lon="3.49845">
        <ele>810</ele>
        <time>2026-05-28T08:06:56.000Z</time>
      </trkpt>
      <trkpt lat="44.00606" lon="3.49846">
        <ele>809.8</ele>
        <time>2026-05-28T08:06:57.000Z</time>
      </trkpt>
      <trkpt lat="44.00606" lon="3.49846">
        <ele>809.9</ele>
        <time>2026-05-28T08:06:58.000Z</time>
      </trkpt>
      <trkpt lat="44.00606" lon="3.49846">
        <ele>810</ele>
        <time>2026-05-28T08:06:59.000Z</time>
      </trkpt>
      <trkpt lat="44.00606" lon="3.49846">
        <ele>810.1</ele>
        <time>2026-05-28T08:07:00.000Z</time>
      </trkpt>
      <trkpt lat="44.00606" lon="3.49846">
        <ele>810.3</ele>
        <time>2026-05-28T08:07:01.000Z</time>
      </trkpt>
      <trkpt lat="44.00607" lon="3.49847">
        <ele>810.5</ele>
        <time>2026-05-28T08:07:02.000Z</time>
      </trkpt>
      <trkpt lat="44.00606" lon="3.49848">
        <ele>810.7</ele>
        <time>2026-05-28T08:07:03.000Z</time>
      </trkpt>
      <trkpt lat="44.00607" lon="3.49848">
        <ele>810.8</ele>
        <time>2026-05-28T08:07:04.000Z</time>
      </trkpt>
      <trkpt lat="44.00607" lon="3.49849">
        <ele>811</ele>
        <time>2026-05-28T08:07:05.000Z</time>
      </trkpt>
      <trkpt lat="44.00607" lon="3.49849">
        <ele>811</ele>
        <time>2026-05-28T08:07:06.000Z</time>
      </trkpt>
      <trkpt lat="44.00607" lon="3.4985">
        <ele>810.8</ele>
        <time>2026-05-28T08:07:07.000Z</time>
      </trkpt>
      <trkpt lat="44.00607" lon="3.4985">
        <ele>810.9</ele>
        <time>2026-05-28T08:07:08.000Z</time>
      </trkpt>
      <trkpt lat="44.00607" lon="3.49851">
        <ele>811</ele>
        <time>2026-05-28T08:07:09.000Z</time>
      </trkpt>
      <trkpt lat="44.00608" lon="3.49851">
        <ele>811.1</ele>
        <time>2026-05-28T08:07:10.000Z</time>
      </trkpt>
      <trkpt lat="44.00608" lon="3.49851">
        <ele>811.3</ele>
        <time>2026-05-28T08:07:11.000Z</time>
      </trkpt>
      <trkpt lat="44.00608" lon="3.49852">
        <ele>811.3</ele>
        <time>2026-05-28T08:07:13.000Z</time>
      </trkpt>
      <trkpt lat="44.00608" lon="3.49853">
        <ele>811.3</ele>
        <time>2026-05-28T08:07:14.000Z</time>
      </trkpt>
      <trkpt lat="44.00608" lon="3.49853">
        <ele>811.3</ele>
        <time>2026-05-28T08:07:15.000Z</time>
      </trkpt>
      <trkpt lat="44.00608" lon="3.49854">
        <ele>811.3</ele>
        <time>2026-05-28T08:07:16.000Z</time>
      </trkpt>
      <trkpt lat="44.00609" lon="3.49855">
        <ele>811.5</ele>
        <time>2026-05-28T08:07:17.000Z</time>
      </trkpt>
      <trkpt lat="44.00608" lon="3.49855">
        <ele>811.3</ele>
        <time>2026-05-28T08:07:18.000Z</time>
      </trkpt>
      <trkpt lat="44.00609" lon="3.49856">
        <ele>811.5</ele>
        <time>2026-05-28T08:07:19.000Z</time>
      </trkpt>
      <trkpt lat="44.00609" lon="3.49856">
        <ele>811.3</ele>
        <time>2026-05-28T08:07:20.000Z</time>
      </trkpt>
      <trkpt lat="44.00609" lon="3.49856">
        <ele>811.4</ele>
        <time>2026-05-28T08:07:21.000Z</time>
      </trkpt>
      <trkpt lat="44.00609" lon="3.49856">
        <ele>811.6</ele>
        <time>2026-05-28T08:07:22.000Z</time>
      </trkpt>
      <trkpt lat="44.00609" lon="3.49856">
        <ele>811.7</ele>
        <time>2026-05-28T08:07:23.000Z</time>
      </trkpt>
      <trkpt lat="44.00609" lon="3.49856">
        <ele>811.8</ele>
        <time>2026-05-28T08:07:24.000Z</time>
      </trkpt>
      <trkpt lat="44.00609" lon="3.49856">
        <ele>811.8</ele>
        <time>2026-05-28T08:07:25.000Z</time>
      </trkpt>
      <trkpt lat="44.00609" lon="3.49856">
        <ele>811.9</ele>
        <time>2026-05-28T08:07:26.000Z</time>
      </trkpt>
      <trkpt lat="44.00608" lon="3.49856">
        <ele>812</ele>
        <time>2026-05-28T08:07:27.000Z</time>
      </trkpt>
      <trkpt lat="44.00608" lon="3.49856">
        <ele>812</ele>
        <time>2026-05-28T08:07:28.999Z</time>
      </trkpt>
      <trkpt lat="44.00608" lon="3.49857">
        <ele>812</ele>
        <time>2026-05-28T08:07:29.999Z</time>
      </trkpt>
      <trkpt lat="44.00608" lon="3.49858">
        <ele>811.9</ele>
        <time>2026-05-28T08:07:30.999Z</time>
      </trkpt>
      <trkpt lat="44.00608" lon="3.49859">
        <ele>812</ele>
        <time>2026-05-28T08:07:31.999Z</time>
      </trkpt>
      <trkpt lat="44.00608" lon="3.4986">
        <ele>812.2</ele>
        <time>2026-05-28T08:07:32.999Z</time>
      </trkpt>
      <trkpt lat="44.00608" lon="3.4986">
        <ele>812.4</ele>
        <time>2026-05-28T08:07:33.999Z</time>
      </trkpt>
      <trkpt lat="44.00608" lon="3.49861">
        <ele>812.3</ele>
        <time>2026-05-28T08:07:34.999Z</time>
      </trkpt>
      <trkpt lat="44.00608" lon="3.49861">
        <ele>812.4</ele>
        <time>2026-05-28T08:07:35.999Z</time>
      </trkpt>
      <trkpt lat="44.00608" lon="3.49862">
        <ele>812.5</ele>
        <time>2026-05-28T08:07:36.999Z</time>
      </trkpt>
      <trkpt lat="44.00608" lon="3.49863">
        <ele>812.5</ele>
        <time>2026-05-28T08:07:38.999Z</time>
      </trkpt>
      <trkpt lat="44.00608" lon="3.49863">
        <ele>813</ele>
        <time>2026-05-28T08:07:39.999Z</time>
      </trkpt>
      <trkpt lat="44.00609" lon="3.49863">
        <ele>813</ele>
        <time>2026-05-28T08:07:40.999Z</time>
      </trkpt>
      <trkpt lat="44.00609" lon="3.49864">
        <ele>813.2</ele>
        <time>2026-05-28T08:07:41.999Z</time>
      </trkpt>
      <trkpt lat="44.00609" lon="3.49865">
        <ele>813.2</ele>
        <time>2026-05-28T08:07:42.999Z</time>
      </trkpt>
      <trkpt lat="44.00609" lon="3.49866">
        <ele>813.6</ele>
        <time>2026-05-28T08:07:43.999Z</time>
      </trkpt>
      <trkpt lat="44.0061" lon="3.49866">
        <ele>814</ele>
        <time>2026-05-28T08:07:44.999Z</time>
      </trkpt>
      <trkpt lat="44.0061" lon="3.49866">
        <ele>814.1</ele>
        <time>2026-05-28T08:07:45.999Z</time>
      </trkpt>
      <trkpt lat="44.00611" lon="3.49867">
        <ele>814.4</ele>
        <time>2026-05-28T08:07:46.999Z</time>
      </trkpt>
      <trkpt lat="44.00611" lon="3.49867">
        <ele>814.6</ele>
        <time>2026-05-28T08:07:47.999Z</time>
      </trkpt>
      <trkpt lat="44.00612" lon="3.49867">
        <ele>814.9</ele>
        <time>2026-05-28T08:07:49.999Z</time>
      </trkpt>
      <trkpt lat="44.00612" lon="3.49867">
        <ele>815.1</ele>
        <time>2026-05-28T08:07:50.999Z</time>
      </trkpt>
      <trkpt lat="44.00612" lon="3.49867">
        <ele>815.1</ele>
        <time>2026-05-28T08:07:51.999Z</time>
      </trkpt>
      <trkpt lat="44.00612" lon="3.49867">
        <ele>815.3</ele>
        <time>2026-05-28T08:07:52.999Z</time>
      </trkpt>
      <trkpt lat="44.00612" lon="3.49867">
        <ele>815.5</ele>
        <time>2026-05-28T08:07:53.999Z</time>
      </trkpt>
      <trkpt lat="44.00612" lon="3.49867">
        <ele>815.7</ele>
        <time>2026-05-28T08:07:54.999Z</time>
      </trkpt>
      <trkpt lat="44.00612" lon="3.49867">
        <ele>815.6</ele>
        <time>2026-05-28T08:07:55.999Z</time>
      </trkpt>
      <trkpt lat="44.00613" lon="3.49867">
        <ele>815.9</ele>
        <time>2026-05-28T08:07:57.999Z</time>
      </trkpt>
      <trkpt lat="44.00613" lon="3.49868">
        <ele>816</ele>
        <time>2026-05-28T08:07:58.999Z</time>
      </trkpt>
      <trkpt lat="44.00614" lon="3.49868">
        <ele>816.1</ele>
        <time>2026-05-28T08:07:59.999Z</time>
      </trkpt>
      <trkpt lat="44.00613" lon="3.49868">
        <ele>816.1</ele>
        <time>2026-05-28T08:08:00.999Z</time>
      </trkpt>
      <trkpt lat="44.00613" lon="3.49868">
        <ele>816</ele>
        <time>2026-05-28T08:08:01.999Z</time>
      </trkpt>
      <trkpt lat="44.00614" lon="3.49868">
        <ele>816.1</ele>
        <time>2026-05-28T08:08:02.999Z</time>
      </trkpt>
      <trkpt lat="44.00614" lon="3.49868">
        <ele>816.2</ele>
        <time>2026-05-28T08:08:03.999Z</time>
      </trkpt>
      <trkpt lat="44.00615" lon="3.49869">
        <ele>816.3</ele>
        <time>2026-05-28T08:08:04.999Z</time>
      </trkpt>
      <trkpt lat="44.00616" lon="3.49869">
        <ele>816.3</ele>
        <time>2026-05-28T08:08:05.999Z</time>
      </trkpt>
      <trkpt lat="44.00617" lon="3.4987">
        <ele>816.3</ele>
        <time>2026-05-28T08:08:06.999Z</time>
      </trkpt>
      <trkpt lat="44.00618" lon="3.49871">
        <ele>816.5</ele>
        <time>2026-05-28T08:08:07.999Z</time>
      </trkpt>
      <trkpt lat="44.00618" lon="3.49872">
        <ele>816.5</ele>
        <time>2026-05-28T08:08:08.999Z</time>
      </trkpt>
      <trkpt lat="44.00618" lon="3.49872">
        <ele>816.5</ele>
        <time>2026-05-28T08:08:09.999Z</time>
      </trkpt>
      <trkpt lat="44.00618" lon="3.49872">
        <ele>816.5</ele>
        <time>2026-05-28T08:08:10.999Z</time>
      </trkpt>
      <trkpt lat="44.00618" lon="3.49871">
        <ele>816.5</ele>
        <time>2026-05-28T08:08:11.999Z</time>
      </trkpt>
      <trkpt lat="44.00618" lon="3.49871">
        <ele>816.6</ele>
        <time>2026-05-28T08:08:12.999Z</time>
      </trkpt>
      <trkpt lat="44.00617" lon="3.49871">
        <ele>816.7</ele>
        <time>2026-05-28T08:08:13.999Z</time>
      </trkpt>
      <trkpt lat="44.00617" lon="3.4987">
        <ele>816.8</ele>
        <time>2026-05-28T08:08:14.999Z</time>
      </trkpt>
      <trkpt lat="44.00617" lon="3.4987">
        <ele>816.8</ele>
        <time>2026-05-28T08:08:15.999Z</time>
      </trkpt>
      <trkpt lat="44.00618" lon="3.49871">
        <ele>817.4</ele>
        <time>2026-05-28T08:08:17.999Z</time>
      </trkpt>
      <trkpt lat="44.00619" lon="3.49871">
        <ele>817.6</ele>
        <time>2026-05-28T08:08:18.999Z</time>
      </trkpt>
      <trkpt lat="44.00619" lon="3.49871">
        <ele>817.5</ele>
        <time>2026-05-28T08:08:19.999Z</time>
      </trkpt>
      <trkpt lat="44.00619" lon="3.49871">
        <ele>817.5</ele>
        <time>2026-05-28T08:08:20.999Z</time>
      </trkpt>
      <trkpt lat="44.00619" lon="3.49872">
        <ele>817.5</ele>
        <time>2026-05-28T08:08:21.999Z</time>
      </trkpt>
      <trkpt lat="44.00619" lon="3.49872">
        <ele>817.4</ele>
        <time>2026-05-28T08:08:22.999Z</time>
      </trkpt>
      <trkpt lat="44.00619" lon="3.49872">
        <ele>817.5</ele>
        <time>2026-05-28T08:08:23.999Z</time>
      </trkpt>
      <trkpt lat="44.00619" lon="3.49873">
        <ele>817.8</ele>
        <time>2026-05-28T08:08:24.999Z</time>
      </trkpt>
      <trkpt lat="44.00619" lon="3.49873">
        <ele>817.9</ele>
        <time>2026-05-28T08:08:25.999Z</time>
      </trkpt>
      <trkpt lat="44.00619" lon="3.49873">
        <ele>818</ele>
        <time>2026-05-28T08:08:26.999Z</time>
      </trkpt>
      <trkpt lat="44.0062" lon="3.49873">
        <ele>818.2</ele>
        <time>2026-05-28T08:08:27.999Z</time>
      </trkpt>
      <trkpt lat="44.0062" lon="3.49873">
        <ele>818.2</ele>
        <time>2026-05-28T08:08:28.999Z</time>
      </trkpt>
      <trkpt lat="44.0062" lon="3.49873">
        <ele>818.4</ele>
        <time>2026-05-28T08:08:29.999Z</time>
      </trkpt>
      <trkpt lat="44.0062" lon="3.49873">
        <ele>818.5</ele>
        <time>2026-05-28T08:08:30.999Z</time>
      </trkpt>
      <trkpt lat="44.0062" lon="3.49874">
        <ele>818.7</ele>
        <time>2026-05-28T08:08:31.999Z</time>
      </trkpt>
      <trkpt lat="44.0062" lon="3.49875">
        <ele>818.8</ele>
        <time>2026-05-28T08:08:32.999Z</time>
      </trkpt>
      <trkpt lat="44.0062" lon="3.49876">
        <ele>818.9</ele>
        <time>2026-05-28T08:08:33.999Z</time>
      </trkpt>
      <trkpt lat="44.0062" lon="3.49876">
        <ele>819</ele>
        <time>2026-05-28T08:08:34.999Z</time>
      </trkpt>
      <trkpt lat="44.0062" lon="3.49877">
        <ele>818.8</ele>
        <time>2026-05-28T08:08:35.999Z</time>
      </trkpt>
      <trkpt lat="44.00621" lon="3.49877">
        <ele>818.8</ele>
        <time>2026-05-28T08:08:36.999Z</time>
      </trkpt>
      <trkpt lat="44.00621" lon="3.49878">
        <ele>819</ele>
        <time>2026-05-28T08:08:37.999Z</time>
      </trkpt>
      <trkpt lat="44.00621" lon="3.49878">
        <ele>819</ele>
        <time>2026-05-28T08:08:38.999Z</time>
      </trkpt>
      <trkpt lat="44.00621" lon="3.49878">
        <ele>819.1</ele>
        <time>2026-05-28T08:08:39.999Z</time>
      </trkpt>
      <trkpt lat="44.00621" lon="3.49879">
        <ele>819.2</ele>
        <time>2026-05-28T08:08:41.999Z</time>
      </trkpt>
      <trkpt lat="44.0062" lon="3.49878">
        <ele>819.2</ele>
        <time>2026-05-28T08:08:42.999Z</time>
      </trkpt>
      <trkpt lat="44.0062" lon="3.49878">
        <ele>819.2</ele>
        <time>2026-05-28T08:08:43.999Z</time>
      </trkpt>
      <trkpt lat="44.0062" lon="3.49878">
        <ele>819.3</ele>
        <time>2026-05-28T08:08:44.999Z</time>
      </trkpt>
      <trkpt lat="44.0062" lon="3.49879">
        <ele>819.3</ele>
        <time>2026-05-28T08:08:45.999Z</time>
      </trkpt>
      <trkpt lat="44.0062" lon="3.49879">
        <ele>819.5</ele>
        <time>2026-05-28T08:08:46.999Z</time>
      </trkpt>
      <trkpt lat="44.0062" lon="3.49879">
        <ele>819.6</ele>
        <time>2026-05-28T08:08:47.999Z</time>
      </trkpt>
      <trkpt lat="44.0062" lon="3.49879">
        <ele>819.6</ele>
        <time>2026-05-28T08:08:48.999Z</time>
      </trkpt>
      <trkpt lat="44.0062" lon="3.49879">
        <ele>819.7</ele>
        <time>2026-05-28T08:08:49.999Z</time>
      </trkpt>
      <trkpt lat="44.0062" lon="3.49879">
        <ele>819.8</ele>
        <time>2026-05-28T08:08:50.999Z</time>
      </trkpt>
      <trkpt lat="44.0062" lon="3.49879">
        <ele>819.9</ele>
        <time>2026-05-28T08:08:51.999Z</time>
      </trkpt>
      <trkpt lat="44.0062" lon="3.49879">
        <ele>820</ele>
        <time>2026-05-28T08:08:52.999Z</time>
      </trkpt>
      <trkpt lat="44.0062" lon="3.49879">
        <ele>820.2</ele>
        <time>2026-05-28T08:08:53.999Z</time>
      </trkpt>
      <trkpt lat="44.0062" lon="3.49879">
        <ele>820.4</ele>
        <time>2026-05-28T08:08:54.999Z</time>
      </trkpt>
      <trkpt lat="44.0062" lon="3.49879">
        <ele>820.5</ele>
        <time>2026-05-28T08:08:55.999Z</time>
      </trkpt>
      <trkpt lat="44.0062" lon="3.4988">
        <ele>820.4</ele>
        <time>2026-05-28T08:08:56.999Z</time>
      </trkpt>
      <trkpt lat="44.0062" lon="3.4988">
        <ele>820.2</ele>
        <time>2026-05-28T08:08:57.999Z</time>
      </trkpt>
      <trkpt lat="44.0062" lon="3.49881">
        <ele>820.1</ele>
        <time>2026-05-28T08:08:58.999Z</time>
      </trkpt>
      <trkpt lat="44.0062" lon="3.49881">
        <ele>820</ele>
        <time>2026-05-28T08:08:59.999Z</time>
      </trkpt>
      <trkpt lat="44.0062" lon="3.49881">
        <ele>819.9</ele>
        <time>2026-05-28T08:09:00.999Z</time>
      </trkpt>
      <trkpt lat="44.0062" lon="3.49881">
        <ele>820</ele>
        <time>2026-05-28T08:09:01.999Z</time>
      </trkpt>
      <trkpt lat="44.0062" lon="3.49881">
        <ele>820.1</ele>
        <time>2026-05-28T08:09:02.999Z</time>
      </trkpt>
      <trkpt lat="44.0062" lon="3.49881">
        <ele>820.2</ele>
        <time>2026-05-28T08:09:03.999Z</time>
      </trkpt>
      <trkpt lat="44.0062" lon="3.49881">
        <ele>820.2</ele>
        <time>2026-05-28T08:09:04.999Z</time>
      </trkpt>
      <trkpt lat="44.0062" lon="3.49882">
        <ele>820.3</ele>
        <time>2026-05-28T08:09:05.999Z</time>
      </trkpt>
      <trkpt lat="44.0062" lon="3.49882">
        <ele>820.3</ele>
        <time>2026-05-28T08:09:06.999Z</time>
      </trkpt>
      <trkpt lat="44.00621" lon="3.49882">
        <ele>820.2</ele>
        <time>2026-05-28T08:09:07.999Z</time>
      </trkpt>
      <trkpt lat="44.00622" lon="3.49883">
        <ele>820.4</ele>
        <time>2026-05-28T08:09:08.999Z</time>
      </trkpt>
      <trkpt lat="44.00622" lon="3.49883">
        <ele>820.4</ele>
        <time>2026-05-28T08:09:09.999Z</time>
      </trkpt>
      <trkpt lat="44.00623" lon="3.49884">
        <ele>820.4</ele>
        <time>2026-05-28T08:09:10.999Z</time>
      </trkpt>
      <trkpt lat="44.00624" lon="3.49884">
        <ele>820.5</ele>
        <time>2026-05-28T08:09:11.999Z</time>
      </trkpt>
      <trkpt lat="44.00624" lon="3.49884">
        <ele>820.6</ele>
        <time>2026-05-28T08:09:12.999Z</time>
      </trkpt>
      <trkpt lat="44.00625" lon="3.49885">
        <ele>820.7</ele>
        <time>2026-05-28T08:09:13.999Z</time>
      </trkpt>
      <trkpt lat="44.00626" lon="3.49886">
        <ele>820.7</ele>
        <time>2026-05-28T08:09:14.999Z</time>
      </trkpt>
      <trkpt lat="44.00626" lon="3.49886">
        <ele>820.6</ele>
        <time>2026-05-28T08:09:15.999Z</time>
      </trkpt>
      <trkpt lat="44.00627" lon="3.49887">
        <ele>820.7</ele>
        <time>2026-05-28T08:09:16.999Z</time>
      </trkpt>
      <trkpt lat="44.00627" lon="3.49888">
        <ele>820.7</ele>
        <time>2026-05-28T08:09:17.999Z</time>
      </trkpt>
      <trkpt lat="44.00628" lon="3.49889">
        <ele>820.6</ele>
        <time>2026-05-28T08:09:18.999Z</time>
      </trkpt>
      <trkpt lat="44.00628" lon="3.49889">
        <ele>820.6</ele>
        <time>2026-05-28T08:09:19.999Z</time>
      </trkpt>
      <trkpt lat="44.00627" lon="3.4989">
        <ele>820.6</ele>
        <time>2026-05-28T08:09:20.999Z</time>
      </trkpt>
      <trkpt lat="44.00627" lon="3.49889">
        <ele>820.6</ele>
        <time>2026-05-28T08:09:21.999Z</time>
      </trkpt>
      <trkpt lat="44.00627" lon="3.4989">
        <ele>821</ele>
        <time>2026-05-28T08:09:22.999Z</time>
      </trkpt>
      <trkpt lat="44.00627" lon="3.4989">
        <ele>821.1</ele>
        <time>2026-05-28T08:09:23.999Z</time>
      </trkpt>
      <trkpt lat="44.00627" lon="3.4989">
        <ele>821.2</ele>
        <time>2026-05-28T08:09:24.999Z</time>
      </trkpt>
      <trkpt lat="44.00627" lon="3.4989">
        <ele>821.2</ele>
        <time>2026-05-28T08:09:25.999Z</time>
      </trkpt>
      <trkpt lat="44.00627" lon="3.49891">
        <ele>821.3</ele>
        <time>2026-05-28T08:09:26.999Z</time>
      </trkpt>
      <trkpt lat="44.00627" lon="3.49891">
        <ele>821.4</ele>
        <time>2026-05-28T08:09:27.999Z</time>
      </trkpt>
      <trkpt lat="44.00627" lon="3.49892">
        <ele>821.4</ele>
        <time>2026-05-28T08:09:28.999Z</time>
      </trkpt>
      <trkpt lat="44.00626" lon="3.49892">
        <ele>821.5</ele>
        <time>2026-05-28T08:09:29.999Z</time>
      </trkpt>
      <trkpt lat="44.00626" lon="3.49892">
        <ele>821.4</ele>
        <time>2026-05-28T08:09:30.999Z</time>
      </trkpt>
      <trkpt lat="44.00626" lon="3.49892">
        <ele>821.5</ele>
        <time>2026-05-28T08:09:31.999Z</time>
      </trkpt>
      <trkpt lat="44.00626" lon="3.49892">
        <ele>821.6</ele>
        <time>2026-05-28T08:09:32.999Z</time>
      </trkpt>
      <trkpt lat="44.00626" lon="3.49892">
        <ele>821.6</ele>
        <time>2026-05-28T08:09:33.999Z</time>
      </trkpt>
      <trkpt lat="44.00626" lon="3.49892">
        <ele>821.5</ele>
        <time>2026-05-28T08:09:34.999Z</time>
      </trkpt>
      <trkpt lat="44.00626" lon="3.49892">
        <ele>821.5</ele>
        <time>2026-05-28T08:09:35.999Z</time>
      </trkpt>
      <trkpt lat="44.00626" lon="3.49892">
        <ele>821.5</ele>
        <time>2026-05-28T08:09:36.999Z</time>
      </trkpt>
      <trkpt lat="44.00626" lon="3.49892">
        <ele>821.5</ele>
        <time>2026-05-28T08:09:37.999Z</time>
      </trkpt>
      <trkpt lat="44.00626" lon="3.49892">
        <ele>821.5</ele>
        <time>2026-05-28T08:09:38.999Z</time>
      </trkpt>
      <trkpt lat="44.00625" lon="3.49892">
        <ele>821.6</ele>
        <time>2026-05-28T08:09:39.999Z</time>
      </trkpt>
      <trkpt lat="44.00625" lon="3.49892">
        <ele>821.6</ele>
        <time>2026-05-28T08:09:40.999Z</time>
      </trkpt>
      <trkpt lat="44.00625" lon="3.49893">
        <ele>821.5</ele>
        <time>2026-05-28T08:09:41.999Z</time>
      </trkpt>
      <trkpt lat="44.00625" lon="3.49894">
        <ele>821.3</ele>
        <time>2026-05-28T08:09:42.999Z</time>
      </trkpt>
      <trkpt lat="44.00625" lon="3.49895">
        <ele>821.3</ele>
        <time>2026-05-28T08:09:43.999Z</time>
      </trkpt>
      <trkpt lat="44.00625" lon="3.49895">
        <ele>821.3</ele>
        <time>2026-05-28T08:09:44.999Z</time>
      </trkpt>
      <trkpt lat="44.00625" lon="3.49895">
        <ele>821.3</ele>
        <time>2026-05-28T08:09:45.999Z</time>
      </trkpt>
      <trkpt lat="44.00624" lon="3.49895">
        <ele>821.4</ele>
        <time>2026-05-28T08:09:46.999Z</time>
      </trkpt>
      <trkpt lat="44.00625" lon="3.49896">
        <ele>821.4</ele>
        <time>2026-05-28T08:09:47.999Z</time>
      </trkpt>
      <trkpt lat="44.00625" lon="3.49897">
        <ele>821.6</ele>
        <time>2026-05-28T08:09:48.999Z</time>
      </trkpt>
      <trkpt lat="44.00627" lon="3.49899">
        <ele>822</ele>
        <time>2026-05-28T08:09:50.999Z</time>
      </trkpt>
      <trkpt lat="44.00626" lon="3.49899">
        <ele>822.1</ele>
        <time>2026-05-28T08:09:51.999Z</time>
      </trkpt>
      <trkpt lat="44.00626" lon="3.49899">
        <ele>822.2</ele>
        <time>2026-05-28T08:09:52.999Z</time>
      </trkpt>
      <trkpt lat="44.00625" lon="3.499">
        <ele>822.3</ele>
        <time>2026-05-28T08:09:53.999Z</time>
      </trkpt>
      <trkpt lat="44.00624" lon="3.499">
        <ele>822.4</ele>
        <time>2026-05-28T08:09:54.999Z</time>
      </trkpt>
      <trkpt lat="44.00624" lon="3.499">
        <ele>822.5</ele>
        <time>2026-05-28T08:09:55.999Z</time>
      </trkpt>
      <trkpt lat="44.00624" lon="3.499">
        <ele>822.9</ele>
        <time>2026-05-28T08:09:56.999Z</time>
      </trkpt>
      <trkpt lat="44.00624" lon="3.49901">
        <ele>823.2</ele>
        <time>2026-05-28T08:09:57.999Z</time>
      </trkpt>
      <trkpt lat="44.00624" lon="3.49901">
        <ele>823.4</ele>
        <time>2026-05-28T08:09:58.999Z</time>
      </trkpt>
      <trkpt lat="44.00624" lon="3.49901">
        <ele>823.3</ele>
        <time>2026-05-28T08:09:59.999Z</time>
      </trkpt>
      <trkpt lat="44.00624" lon="3.49902">
        <ele>823.5</ele>
        <time>2026-05-28T08:10:00.999Z</time>
      </trkpt>
      <trkpt lat="44.00623" lon="3.49903">
        <ele>823.7</ele>
        <time>2026-05-28T08:10:01.999Z</time>
      </trkpt>
      <trkpt lat="44.00623" lon="3.49905">
        <ele>824.1</ele>
        <time>2026-05-28T08:10:03.999Z</time>
      </trkpt>
      <trkpt lat="44.00623" lon="3.49904">
        <ele>824.3</ele>
        <time>2026-05-28T08:10:04.999Z</time>
      </trkpt>
      <trkpt lat="44.00623" lon="3.49904">
        <ele>824.4</ele>
        <time>2026-05-28T08:10:05.999Z</time>
      </trkpt>
      <trkpt lat="44.00623" lon="3.49904">
        <ele>824.4</ele>
        <time>2026-05-28T08:10:06.999Z</time>
      </trkpt>
      <trkpt lat="44.00623" lon="3.49904">
        <ele>824.3</ele>
        <time>2026-05-28T08:10:07.999Z</time>
      </trkpt>
      <trkpt lat="44.00623" lon="3.49906">
        <ele>824.4</ele>
        <time>2026-05-28T08:10:08.999Z</time>
      </trkpt>
      <trkpt lat="44.00624" lon="3.49906">
        <ele>824.4</ele>
        <time>2026-05-28T08:10:09.999Z</time>
      </trkpt>
      <trkpt lat="44.00624" lon="3.49907">
        <ele>824.8</ele>
        <time>2026-05-28T08:10:10.999Z</time>
      </trkpt>
      <trkpt lat="44.00624" lon="3.49907">
        <ele>824.9</ele>
        <time>2026-05-28T08:10:11.999Z</time>
      </trkpt>
      <trkpt lat="44.00624" lon="3.49907">
        <ele>825.1</ele>
        <time>2026-05-28T08:10:12.999Z</time>
      </trkpt>
      <trkpt lat="44.00624" lon="3.49907">
        <ele>825.4</ele>
        <time>2026-05-28T08:10:13.999Z</time>
      </trkpt>
      <trkpt lat="44.00624" lon="3.49907">
        <ele>825.5</ele>
        <time>2026-05-28T08:10:14.999Z</time>
      </trkpt>
      <trkpt lat="44.00624" lon="3.49907">
        <ele>825.5</ele>
        <time>2026-05-28T08:10:15.999Z</time>
      </trkpt>
      <trkpt lat="44.00624" lon="3.49908">
        <ele>825.7</ele>
        <time>2026-05-28T08:10:16.999Z</time>
      </trkpt>
      <trkpt lat="44.00624" lon="3.49909">
        <ele>825.7</ele>
        <time>2026-05-28T08:10:17.999Z</time>
      </trkpt>
      <trkpt lat="44.00624" lon="3.49909">
        <ele>825.8</ele>
        <time>2026-05-28T08:10:18.999Z</time>
      </trkpt>
      <trkpt lat="44.00624" lon="3.49909">
        <ele>825.9</ele>
        <time>2026-05-28T08:10:19.999Z</time>
      </trkpt>
      <trkpt lat="44.00625" lon="3.49909">
        <ele>826</ele>
        <time>2026-05-28T08:10:20.999Z</time>
      </trkpt>
      <trkpt lat="44.00625" lon="3.4991">
        <ele>826.1</ele>
        <time>2026-05-28T08:10:21.999Z</time>
      </trkpt>
      <trkpt lat="44.00625" lon="3.49909">
        <ele>826</ele>
        <time>2026-05-28T08:10:22.999Z</time>
      </trkpt>
      <trkpt lat="44.00626" lon="3.4991">
        <ele>826.1</ele>
        <time>2026-05-28T08:10:23.999Z</time>
      </trkpt>
      <trkpt lat="44.00626" lon="3.4991">
        <ele>826.2</ele>
        <time>2026-05-28T08:10:24.999Z</time>
      </trkpt>
      <trkpt lat="44.00626" lon="3.4991">
        <ele>826.4</ele>
        <time>2026-05-28T08:10:25.999Z</time>
      </trkpt>
      <trkpt lat="44.00626" lon="3.4991">
        <ele>826.5</ele>
        <time>2026-05-28T08:10:26.999Z</time>
      </trkpt>
      <trkpt lat="44.00627" lon="3.49911">
        <ele>826.6</ele>
        <time>2026-05-28T08:10:27.999Z</time>
      </trkpt>
      <trkpt lat="44.00626" lon="3.49911">
        <ele>826.7</ele>
        <time>2026-05-28T08:10:28.999Z</time>
      </trkpt>
      <trkpt lat="44.00627" lon="3.49911">
        <ele>826.9</ele>
        <time>2026-05-28T08:10:29.999Z</time>
      </trkpt>
      <trkpt lat="44.00627" lon="3.49911">
        <ele>827</ele>
        <time>2026-05-28T08:10:30.999Z</time>
      </trkpt>
      <trkpt lat="44.00629" lon="3.49912">
        <ele>827.2</ele>
        <time>2026-05-28T08:10:31.999Z</time>
      </trkpt>
      <trkpt lat="44.00629" lon="3.49912">
        <ele>827.4</ele>
        <time>2026-05-28T08:10:32.999Z</time>
      </trkpt>
      <trkpt lat="44.00629" lon="3.49912">
        <ele>827.5</ele>
        <time>2026-05-28T08:10:33.999Z</time>
      </trkpt>
      <trkpt lat="44.00629" lon="3.49912">
        <ele>827.8</ele>
        <time>2026-05-28T08:10:34.999Z</time>
      </trkpt>
      <trkpt lat="44.00629" lon="3.49912">
        <ele>827.9</ele>
        <time>2026-05-28T08:10:35.999Z</time>
      </trkpt>
      <trkpt lat="44.00629" lon="3.49912">
        <ele>828</ele>
        <time>2026-05-28T08:10:36.999Z</time>
      </trkpt>
      <trkpt lat="44.00629" lon="3.49912">
        <ele>828.1</ele>
        <time>2026-05-28T08:10:37.999Z</time>
      </trkpt>
      <trkpt lat="44.00629" lon="3.49912">
        <ele>828.4</ele>
        <time>2026-05-28T08:10:38.999Z</time>
      </trkpt>
      <trkpt lat="44.00629" lon="3.49912">
        <ele>828.5</ele>
        <time>2026-05-28T08:10:39.999Z</time>
      </trkpt>
      <trkpt lat="44.00629" lon="3.49912">
        <ele>828.6</ele>
        <time>2026-05-28T08:10:40.999Z</time>
      </trkpt>
      <trkpt lat="44.00629" lon="3.49912">
        <ele>828.9</ele>
        <time>2026-05-28T08:10:41.999Z</time>
      </trkpt>
      <trkpt lat="44.0063" lon="3.49912">
        <ele>829.1</ele>
        <time>2026-05-28T08:10:42.999Z</time>
      </trkpt>
      <trkpt lat="44.0063" lon="3.49913">
        <ele>829.4</ele>
        <time>2026-05-28T08:10:43.999Z</time>
      </trkpt>
      <trkpt lat="44.00631" lon="3.49913">
        <ele>829.5</ele>
        <time>2026-05-28T08:10:44.999Z</time>
      </trkpt>
      <trkpt lat="44.00631" lon="3.49912">
        <ele>829.5</ele>
        <time>2026-05-28T08:10:45.999Z</time>
      </trkpt>
      <trkpt lat="44.00631" lon="3.49912">
        <ele>829.5</ele>
        <time>2026-05-28T08:10:46.999Z</time>
      </trkpt>
      <trkpt lat="44.00631" lon="3.49912">
        <ele>829.5</ele>
        <time>2026-05-28T08:10:47.999Z</time>
      </trkpt>
      <trkpt lat="44.00631" lon="3.49912">
        <ele>829.6</ele>
        <time>2026-05-28T08:10:48.999Z</time>
      </trkpt>
      <trkpt lat="44.00631" lon="3.49913">
        <ele>829.8</ele>
        <time>2026-05-28T08:10:49.999Z</time>
      </trkpt>
      <trkpt lat="44.00632" lon="3.49913">
        <ele>829.9</ele>
        <time>2026-05-28T08:10:50.999Z</time>
      </trkpt>
      <trkpt lat="44.00632" lon="3.49914">
        <ele>830.3</ele>
        <time>2026-05-28T08:10:51.999Z</time>
      </trkpt>
      <trkpt lat="44.00632" lon="3.49913">
        <ele>830.5</ele>
        <time>2026-05-28T08:10:52.999Z</time>
      </trkpt>
      <trkpt lat="44.00634" lon="3.49912">
        <ele>830.8</ele>
        <time>2026-05-28T08:10:53.999Z</time>
      </trkpt>
      <trkpt lat="44.00634" lon="3.49912">
        <ele>831.2</ele>
        <time>2026-05-28T08:10:54.999Z</time>
      </trkpt>
      <trkpt lat="44.00635" lon="3.49911">
        <ele>831.5</ele>
        <time>2026-05-28T08:10:55.999Z</time>
      </trkpt>
      <trkpt lat="44.00635" lon="3.49911">
        <ele>831.8</ele>
        <time>2026-05-28T08:10:56.999Z</time>
      </trkpt>
      <trkpt lat="44.00635" lon="3.49911">
        <ele>832.2</ele>
        <time>2026-05-28T08:10:57.999Z</time>
      </trkpt>
      <trkpt lat="44.00634" lon="3.49911">
        <ele>832.3</ele>
        <time>2026-05-28T08:10:58.999Z</time>
      </trkpt>
      <trkpt lat="44.00634" lon="3.49911">
        <ele>832.4</ele>
        <time>2026-05-28T08:10:59.999Z</time>
      </trkpt>
      <trkpt lat="44.00634" lon="3.49911">
        <ele>832.4</ele>
        <time>2026-05-28T08:11:00.999Z</time>
      </trkpt>
      <trkpt lat="44.00634" lon="3.4991">
        <ele>832.5</ele>
        <time>2026-05-28T08:11:01.999Z</time>
      </trkpt>
      <trkpt lat="44.00634" lon="3.4991">
        <ele>832.6</ele>
        <time>2026-05-28T08:11:02.999Z</time>
      </trkpt>
      <trkpt lat="44.00634" lon="3.4991">
        <ele>832.8</ele>
        <time>2026-05-28T08:11:03.999Z</time>
      </trkpt>
      <trkpt lat="44.00634" lon="3.4991">
        <ele>832.8</ele>
        <time>2026-05-28T08:11:04.999Z</time>
      </trkpt>
      <trkpt lat="44.00633" lon="3.4991">
        <ele>833</ele>
        <time>2026-05-28T08:11:05.999Z</time>
      </trkpt>
      <trkpt lat="44.00634" lon="3.4991">
        <ele>833.1</ele>
        <time>2026-05-28T08:11:06.999Z</time>
      </trkpt>
      <trkpt lat="44.00633" lon="3.49909">
        <ele>833.4</ele>
        <time>2026-05-28T08:11:07.999Z</time>
      </trkpt>
      <trkpt lat="44.00633" lon="3.4991">
        <ele>833.7</ele>
        <time>2026-05-28T08:11:08.999Z</time>
      </trkpt>
      <trkpt lat="44.00634" lon="3.4991">
        <ele>834</ele>
        <time>2026-05-28T08:11:09.999Z</time>
      </trkpt>
      <trkpt lat="44.00634" lon="3.49911">
        <ele>834.3</ele>
        <time>2026-05-28T08:11:10.999Z</time>
      </trkpt>
      <trkpt lat="44.00634" lon="3.49911">
        <ele>834.5</ele>
        <time>2026-05-28T08:11:11.999Z</time>
      </trkpt>
      <trkpt lat="44.00634" lon="3.49911">
        <ele>834.7</ele>
        <time>2026-05-28T08:11:12.999Z</time>
      </trkpt>
      <trkpt lat="44.00634" lon="3.49911">
        <ele>834.7</ele>
        <time>2026-05-28T08:11:13.999Z</time>
      </trkpt>
      <trkpt lat="44.00634" lon="3.49911">
        <ele>834.8</ele>
        <time>2026-05-28T08:11:14.999Z</time>
      </trkpt>
      <trkpt lat="44.00634" lon="3.49911">
        <ele>834.8</ele>
        <time>2026-05-28T08:11:15.999Z</time>
      </trkpt>
      <trkpt lat="44.00633" lon="3.49911">
        <ele>835</ele>
        <time>2026-05-28T08:11:16.999Z</time>
      </trkpt>
      <trkpt lat="44.00632" lon="3.49911">
        <ele>835.1</ele>
        <time>2026-05-28T08:11:17.999Z</time>
      </trkpt>
      <trkpt lat="44.00632" lon="3.49912">
        <ele>835.3</ele>
        <time>2026-05-28T08:11:18.999Z</time>
      </trkpt>
      <trkpt lat="44.00632" lon="3.49912">
        <ele>835.3</ele>
        <time>2026-05-28T08:11:19.999Z</time>
      </trkpt>
      <trkpt lat="44.00632" lon="3.49912">
        <ele>835.5</ele>
        <time>2026-05-28T08:11:20.999Z</time>
      </trkpt>
      <trkpt lat="44.00633" lon="3.49913">
        <ele>835.7</ele>
        <time>2026-05-28T08:11:21.999Z</time>
      </trkpt>
      <trkpt lat="44.00633" lon="3.49913">
        <ele>835.8</ele>
        <time>2026-05-28T08:11:22.999Z</time>
      </trkpt>
      <trkpt lat="44.00634" lon="3.49913">
        <ele>835.9</ele>
        <time>2026-05-28T08:11:23.999Z</time>
      </trkpt>
      <trkpt lat="44.00634" lon="3.49914">
        <ele>835.9</ele>
        <time>2026-05-28T08:11:24.999Z</time>
      </trkpt>
      <trkpt lat="44.00633" lon="3.49914">
        <ele>836</ele>
        <time>2026-05-28T08:11:25.999Z</time>
      </trkpt>
      <trkpt lat="44.00633" lon="3.49915">
        <ele>836</ele>
        <time>2026-05-28T08:11:26.999Z</time>
      </trkpt>
      <trkpt lat="44.00632" lon="3.49914">
        <ele>836.1</ele>
        <time>2026-05-28T08:11:27.999Z</time>
      </trkpt>
      <trkpt lat="44.00633" lon="3.49915">
        <ele>836.2</ele>
        <time>2026-05-28T08:11:28.999Z</time>
      </trkpt>
      <trkpt lat="44.00633" lon="3.49915">
        <ele>836.8</ele>
        <time>2026-05-28T08:11:30.999Z</time>
      </trkpt>
      <trkpt lat="44.00634" lon="3.49916">
        <ele>837</ele>
        <time>2026-05-28T08:11:31.999Z</time>
      </trkpt>
      <trkpt lat="44.00634" lon="3.49916">
        <ele>836.7</ele>
        <time>2026-05-28T08:11:32.999Z</time>
      </trkpt>
      <trkpt lat="44.00634" lon="3.49917">
        <ele>836.7</ele>
        <time>2026-05-28T08:11:33.999Z</time>
      </trkpt>
      <trkpt lat="44.00635" lon="3.49918">
        <ele>836.8</ele>
        <time>2026-05-28T08:11:34.999Z</time>
      </trkpt>
      <trkpt lat="44.00636" lon="3.49919">
        <ele>836.9</ele>
        <time>2026-05-28T08:11:35.999Z</time>
      </trkpt>
      <trkpt lat="44.00637" lon="3.49921">
        <ele>837</ele>
        <time>2026-05-28T08:11:36.999Z</time>
      </trkpt>
      <trkpt lat="44.00638" lon="3.49922">
        <ele>837.1</ele>
        <time>2026-05-28T08:11:37.999Z</time>
      </trkpt>
      <trkpt lat="44.00638" lon="3.49923">
        <ele>837.1</ele>
        <time>2026-05-28T08:11:38.999Z</time>
      </trkpt>
      <trkpt lat="44.00639" lon="3.49923">
        <ele>837.2</ele>
        <time>2026-05-28T08:11:39.999Z</time>
      </trkpt>
      <trkpt lat="44.00639" lon="3.49924">
        <ele>837.3</ele>
        <time>2026-05-28T08:11:40.999Z</time>
      </trkpt>
      <trkpt lat="44.00639" lon="3.49925">
        <ele>837.1</ele>
        <time>2026-05-28T08:11:42.999Z</time>
      </trkpt>
      <trkpt lat="44.00638" lon="3.49926">
        <ele>837.1</ele>
        <time>2026-05-28T08:11:43.999Z</time>
      </trkpt>
      <trkpt lat="44.00639" lon="3.49926">
        <ele>837</ele>
        <time>2026-05-28T08:11:44.999Z</time>
      </trkpt>
      <trkpt lat="44.0064" lon="3.49928">
        <ele>837</ele>
        <time>2026-05-28T08:11:45.999Z</time>
      </trkpt>
      <trkpt lat="44.0064" lon="3.49929">
        <ele>837.1</ele>
        <time>2026-05-28T08:11:46.999Z</time>
      </trkpt>
      <trkpt lat="44.0064" lon="3.4993">
        <ele>837.3</ele>
        <time>2026-05-28T08:11:47.999Z</time>
      </trkpt>
      <trkpt lat="44.00639" lon="3.4993">
        <ele>837.3</ele>
        <time>2026-05-28T08:11:48.999Z</time>
      </trkpt>
      <trkpt lat="44.0064" lon="3.49931">
        <ele>837.3</ele>
        <time>2026-05-28T08:11:49.999Z</time>
      </trkpt>
      <trkpt lat="44.0064" lon="3.49931">
        <ele>837.8</ele>
        <time>2026-05-28T08:11:50.999Z</time>
      </trkpt>
      <trkpt lat="44.0064" lon="3.49931">
        <ele>838.1</ele>
        <time>2026-05-28T08:11:51.999Z</time>
      </trkpt>
      <trkpt lat="44.00639" lon="3.49931">
        <ele>838</ele>
        <time>2026-05-28T08:11:52.999Z</time>
      </trkpt>
      <trkpt lat="44.00638" lon="3.49931">
        <ele>837.8</ele>
        <time>2026-05-28T08:11:53.999Z</time>
      </trkpt>
      <trkpt lat="44.00638" lon="3.49931">
        <ele>837.9</ele>
        <time>2026-05-28T08:11:54.999Z</time>
      </trkpt>
      <trkpt lat="44.00638" lon="3.49932">
        <ele>838.1</ele>
        <time>2026-05-28T08:11:55.999Z</time>
      </trkpt>
      <trkpt lat="44.00637" lon="3.49933">
        <ele>838.1</ele>
        <time>2026-05-28T08:11:56.999Z</time>
      </trkpt>
      <trkpt lat="44.00637" lon="3.49933">
        <ele>838.2</ele>
        <time>2026-05-28T08:11:57.999Z</time>
      </trkpt>
      <trkpt lat="44.00637" lon="3.49933">
        <ele>838.2</ele>
        <time>2026-05-28T08:11:58.999Z</time>
      </trkpt>
      <trkpt lat="44.00637" lon="3.49933">
        <ele>838</ele>
        <time>2026-05-28T08:11:59.999Z</time>
      </trkpt>
      <trkpt lat="44.00637" lon="3.49933">
        <ele>837.8</ele>
        <time>2026-05-28T08:12:00.999Z</time>
      </trkpt>
      <trkpt lat="44.00637" lon="3.49933">
        <ele>837.8</ele>
        <time>2026-05-28T08:12:01.999Z</time>
      </trkpt>
      <trkpt lat="44.00637" lon="3.49933">
        <ele>837.8</ele>
        <time>2026-05-28T08:12:02.999Z</time>
      </trkpt>
      <trkpt lat="44.00637" lon="3.49934">
        <ele>837.7</ele>
        <time>2026-05-28T08:12:03.999Z</time>
      </trkpt>
      <trkpt lat="44.00637" lon="3.49934">
        <ele>837.9</ele>
        <time>2026-05-28T08:12:04.999Z</time>
      </trkpt>
      <trkpt lat="44.00637" lon="3.49934">
        <ele>838.1</ele>
        <time>2026-05-28T08:12:05.999Z</time>
      </trkpt>
      <trkpt lat="44.00637" lon="3.49934">
        <ele>838.2</ele>
        <time>2026-05-28T08:12:06.999Z</time>
      </trkpt>
      <trkpt lat="44.00637" lon="3.49934">
        <ele>838.1</ele>
        <time>2026-05-28T08:12:07.999Z</time>
      </trkpt>
      <trkpt lat="44.00637" lon="3.49934">
        <ele>838.1</ele>
        <time>2026-05-28T08:12:08.999Z</time>
      </trkpt>
      <trkpt lat="44.00637" lon="3.49934">
        <ele>838.3</ele>
        <time>2026-05-28T08:12:09.999Z</time>
      </trkpt>
      <trkpt lat="44.00637" lon="3.49934">
        <ele>838.9</ele>
        <time>2026-05-28T08:12:10.999Z</time>
      </trkpt>
      <trkpt lat="44.00637" lon="3.49934">
        <ele>839.2</ele>
        <time>2026-05-28T08:12:11.999Z</time>
      </trkpt>
      <trkpt lat="44.00637" lon="3.49934">
        <ele>839.5</ele>
        <time>2026-05-28T08:12:12.999Z</time>
      </trkpt>
      <trkpt lat="44.00637" lon="3.49935">
        <ele>839.7</ele>
        <time>2026-05-28T08:12:13.999Z</time>
      </trkpt>
      <trkpt lat="44.00637" lon="3.49935">
        <ele>839.7</ele>
        <time>2026-05-28T08:12:14.999Z</time>
      </trkpt>
      <trkpt lat="44.00638" lon="3.49935">
        <ele>839.8</ele>
        <time>2026-05-28T08:12:15.999Z</time>
      </trkpt>
      <trkpt lat="44.00638" lon="3.49935">
        <ele>839.9</ele>
        <time>2026-05-28T08:12:16.999Z</time>
      </trkpt>
      <trkpt lat="44.00638" lon="3.49934">
        <ele>839.9</ele>
        <time>2026-05-28T08:12:17.999Z</time>
      </trkpt>
      <trkpt lat="44.00637" lon="3.49934">
        <ele>840</ele>
        <time>2026-05-28T08:12:18.999Z</time>
      </trkpt>
      <trkpt lat="44.00638" lon="3.49934">
        <ele>839.8</ele>
        <time>2026-05-28T08:12:19.999Z</time>
      </trkpt>
      <trkpt lat="44.00639" lon="3.49935">
        <ele>839.9</ele>
        <time>2026-05-28T08:12:20.999Z</time>
      </trkpt>
      <trkpt lat="44.0064" lon="3.49934">
        <ele>840.1</ele>
        <time>2026-05-28T08:12:21.999Z</time>
      </trkpt>
      <trkpt lat="44.00641" lon="3.49933">
        <ele>840.4</ele>
        <time>2026-05-28T08:12:22.999Z</time>
      </trkpt>
      <trkpt lat="44.00641" lon="3.49933">
        <ele>840.5</ele>
        <time>2026-05-28T08:12:23.999Z</time>
      </trkpt>
      <trkpt lat="44.00642" lon="3.49932">
        <ele>840.7</ele>
        <time>2026-05-28T08:12:24.999Z</time>
      </trkpt>
      <trkpt lat="44.00643" lon="3.49932">
        <ele>840.9</ele>
        <time>2026-05-28T08:12:25.999Z</time>
      </trkpt>
      <trkpt lat="44.00644" lon="3.49932">
        <ele>841</ele>
        <time>2026-05-28T08:12:26.999Z</time>
      </trkpt>
      <trkpt lat="44.00645" lon="3.49932">
        <ele>841.1</ele>
        <time>2026-05-28T08:12:27.999Z</time>
      </trkpt>
      <trkpt lat="44.00645" lon="3.49932">
        <ele>841.3</ele>
        <time>2026-05-28T08:12:28.999Z</time>
      </trkpt>
      <trkpt lat="44.00646" lon="3.49932">
        <ele>841.6</ele>
        <time>2026-05-28T08:12:29.999Z</time>
      </trkpt>
      <trkpt lat="44.00647" lon="3.49932">
        <ele>841.6</ele>
        <time>2026-05-28T08:12:30.999Z</time>
      </trkpt>
      <trkpt lat="44.00647" lon="3.49932">
        <ele>841.6</ele>
        <time>2026-05-28T08:12:31.999Z</time>
      </trkpt>
      <trkpt lat="44.00647" lon="3.49932">
        <ele>841.8</ele>
        <time>2026-05-28T08:12:32.999Z</time>
      </trkpt>
      <trkpt lat="44.00647" lon="3.49932">
        <ele>841.8</ele>
        <time>2026-05-28T08:12:33.999Z</time>
      </trkpt>
      <trkpt lat="44.00647" lon="3.49933">
        <ele>841.8</ele>
        <time>2026-05-28T08:12:34.999Z</time>
      </trkpt>
      <trkpt lat="44.00647" lon="3.49933">
        <ele>842</ele>
        <time>2026-05-28T08:12:35.999Z</time>
      </trkpt>
      <trkpt lat="44.00647" lon="3.49933">
        <ele>842.2</ele>
        <time>2026-05-28T08:12:36.999Z</time>
      </trkpt>
      <trkpt lat="44.00647" lon="3.49933">
        <ele>842.1</ele>
        <time>2026-05-28T08:12:37.999Z</time>
      </trkpt>
      <trkpt lat="44.00647" lon="3.49933">
        <ele>842</ele>
        <time>2026-05-28T08:12:38.999Z</time>
      </trkpt>
      <trkpt lat="44.00648" lon="3.49933">
        <ele>842.1</ele>
        <time>2026-05-28T08:12:39.999Z</time>
      </trkpt>
      <trkpt lat="44.00648" lon="3.49933">
        <ele>842.2</ele>
        <time>2026-05-28T08:12:40.999Z</time>
      </trkpt>
      <trkpt lat="44.00648" lon="3.49933">
        <ele>842.3</ele>
        <time>2026-05-28T08:12:42.999Z</time>
      </trkpt>
      <trkpt lat="44.00649" lon="3.49933">
        <ele>842.3</ele>
        <time>2026-05-28T08:12:43.999Z</time>
      </trkpt>
      <trkpt lat="44.00649" lon="3.49933">
        <ele>842.3</ele>
        <time>2026-05-28T08:12:44.999Z</time>
      </trkpt>
      <trkpt lat="44.00649" lon="3.49934">
        <ele>842.5</ele>
        <time>2026-05-28T08:12:45.999Z</time>
      </trkpt>
      <trkpt lat="44.00649" lon="3.49934">
        <ele>842.7</ele>
        <time>2026-05-28T08:12:46.999Z</time>
      </trkpt>
      <trkpt lat="44.00649" lon="3.49934">
        <ele>842.6</ele>
        <time>2026-05-28T08:12:47.999Z</time>
      </trkpt>
      <trkpt lat="44.0065" lon="3.49933">
        <ele>842.6</ele>
        <time>2026-05-28T08:12:48.999Z</time>
      </trkpt>
      <trkpt lat="44.0065" lon="3.49933">
        <ele>842.9</ele>
        <time>2026-05-28T08:12:49.999Z</time>
      </trkpt>
      <trkpt lat="44.00651" lon="3.49933">
        <ele>843</ele>
        <time>2026-05-28T08:12:50.999Z</time>
      </trkpt>
      <trkpt lat="44.00652" lon="3.49933">
        <ele>843.3</ele>
        <time>2026-05-28T08:12:51.999Z</time>
      </trkpt>
      <trkpt lat="44.00652" lon="3.49933">
        <ele>843.4</ele>
        <time>2026-05-28T08:12:52.999Z</time>
      </trkpt>
      <trkpt lat="44.00652" lon="3.49933">
        <ele>843.4</ele>
        <time>2026-05-28T08:12:53.999Z</time>
      </trkpt>
      <trkpt lat="44.00653" lon="3.49932">
        <ele>843.5</ele>
        <time>2026-05-28T08:12:54.999Z</time>
      </trkpt>
      <trkpt lat="44.00653" lon="3.49931">
        <ele>843.5</ele>
        <time>2026-05-28T08:12:55.999Z</time>
      </trkpt>
      <trkpt lat="44.00653" lon="3.49931">
        <ele>843.5</ele>
        <time>2026-05-28T08:12:56.999Z</time>
      </trkpt>
      <trkpt lat="44.00653" lon="3.49931">
        <ele>843.6</ele>
        <time>2026-05-28T08:12:57.999Z</time>
      </trkpt>
      <trkpt lat="44.00653" lon="3.49931">
        <ele>843.7</ele>
        <time>2026-05-28T08:12:58.999Z</time>
      </trkpt>
      <trkpt lat="44.00653" lon="3.49932">
        <ele>843.9</ele>
        <time>2026-05-28T08:12:59.999Z</time>
      </trkpt>
      <trkpt lat="44.00653" lon="3.49932">
        <ele>844</ele>
        <time>2026-05-28T08:13:00.999Z</time>
      </trkpt>
      <trkpt lat="44.00653" lon="3.49932">
        <ele>844.2</ele>
        <time>2026-05-28T08:13:01.999Z</time>
      </trkpt>
      <trkpt lat="44.00654" lon="3.49931">
        <ele>844.4</ele>
        <time>2026-05-28T08:13:02.999Z</time>
      </trkpt>
      <trkpt lat="44.00654" lon="3.49931">
        <ele>844.5</ele>
        <time>2026-05-28T08:13:03.999Z</time>
      </trkpt>
      <trkpt lat="44.00654" lon="3.49931">
        <ele>844.3</ele>
        <time>2026-05-28T08:13:04.999Z</time>
      </trkpt>
      <trkpt lat="44.00654" lon="3.49931">
        <ele>844.4</ele>
        <time>2026-05-28T08:13:05.999Z</time>
      </trkpt>
      <trkpt lat="44.00654" lon="3.49931">
        <ele>844.4</ele>
        <time>2026-05-28T08:13:06.999Z</time>
      </trkpt>
      <trkpt lat="44.00654" lon="3.49931">
        <ele>844.5</ele>
        <time>2026-05-28T08:13:07.999Z</time>
      </trkpt>
      <trkpt lat="44.00653" lon="3.49931">
        <ele>844.5</ele>
        <time>2026-05-28T08:13:08.999Z</time>
      </trkpt>
      <trkpt lat="44.00653" lon="3.4993">
        <ele>844.5</ele>
        <time>2026-05-28T08:13:09.999Z</time>
      </trkpt>
      <trkpt lat="44.00652" lon="3.49931">
        <ele>844.4</ele>
        <time>2026-05-28T08:13:10.999Z</time>
      </trkpt>
      <trkpt lat="44.00652" lon="3.49931">
        <ele>844.5</ele>
        <time>2026-05-28T08:13:11.999Z</time>
      </trkpt>
      <trkpt lat="44.00652" lon="3.49932">
        <ele>844.6</ele>
        <time>2026-05-28T08:13:12.999Z</time>
      </trkpt>
      <trkpt lat="44.00651" lon="3.49934">
        <ele>844.8</ele>
        <time>2026-05-28T08:13:13.999Z</time>
      </trkpt>
      <trkpt lat="44.00651" lon="3.49935">
        <ele>844.9</ele>
        <time>2026-05-28T08:13:14.999Z</time>
      </trkpt>
      <trkpt lat="44.00651" lon="3.49935">
        <ele>845</ele>
        <time>2026-05-28T08:13:15.999Z</time>
      </trkpt>
      <trkpt lat="44.00651" lon="3.49935">
        <ele>845.1</ele>
        <time>2026-05-28T08:13:16.999Z</time>
      </trkpt>
      <trkpt lat="44.00651" lon="3.49936">
        <ele>845.2</ele>
        <time>2026-05-28T08:13:17.999Z</time>
      </trkpt>
      <trkpt lat="44.00651" lon="3.49937">
        <ele>845.4</ele>
        <time>2026-05-28T08:13:18.999Z</time>
      </trkpt>
      <trkpt lat="44.00651" lon="3.49938">
        <ele>845.5</ele>
        <time>2026-05-28T08:13:19.999Z</time>
      </trkpt>
      <trkpt lat="44.00652" lon="3.49938">
        <ele>845.9</ele>
        <time>2026-05-28T08:13:20.999Z</time>
      </trkpt>
      <trkpt lat="44.00651" lon="3.49938">
        <ele>846</ele>
        <time>2026-05-28T08:13:21.999Z</time>
      </trkpt>
      <trkpt lat="44.00651" lon="3.49939">
        <ele>846.2</ele>
        <time>2026-05-28T08:13:22.999Z</time>
      </trkpt>
      <trkpt lat="44.00652" lon="3.49939">
        <ele>846.5</ele>
        <time>2026-05-28T08:13:23.999Z</time>
      </trkpt>
      <trkpt lat="44.00651" lon="3.49939">
        <ele>846.7</ele>
        <time>2026-05-28T08:13:24.999Z</time>
      </trkpt>
      <trkpt lat="44.00649" lon="3.49938">
        <ele>847</ele>
        <time>2026-05-28T08:13:25.999Z</time>
      </trkpt>
      <trkpt lat="44.00649" lon="3.49938">
        <ele>847.1</ele>
        <time>2026-05-28T08:13:26.999Z</time>
      </trkpt>
      <trkpt lat="44.00649" lon="3.49939">
        <ele>847.2</ele>
        <time>2026-05-28T08:13:27.999Z</time>
      </trkpt>
      <trkpt lat="44.00649" lon="3.49938">
        <ele>847.4</ele>
        <time>2026-05-28T08:13:28.999Z</time>
      </trkpt>
      <trkpt lat="44.0065" lon="3.49938">
        <ele>847.4</ele>
        <time>2026-05-28T08:13:29.999Z</time>
      </trkpt>
      <trkpt lat="44.0065" lon="3.49938">
        <ele>847.8</ele>
        <time>2026-05-28T08:13:30.999Z</time>
      </trkpt>
      <trkpt lat="44.00649" lon="3.49939">
        <ele>848.2</ele>
        <time>2026-05-28T08:13:31.999Z</time>
      </trkpt>
      <trkpt lat="44.0065" lon="3.49938">
        <ele>848.1</ele>
        <time>2026-05-28T08:13:32.999Z</time>
      </trkpt>
      <trkpt lat="44.0065" lon="3.49939">
        <ele>848.1</ele>
        <time>2026-05-28T08:13:33.999Z</time>
      </trkpt>
      <trkpt lat="44.0065" lon="3.4994">
        <ele>848.4</ele>
        <time>2026-05-28T08:13:34.999Z</time>
      </trkpt>
      <trkpt lat="44.0065" lon="3.4994">
        <ele>848.8</ele>
        <time>2026-05-28T08:13:35.999Z</time>
      </trkpt>
      <trkpt lat="44.0065" lon="3.4994">
        <ele>848.7</ele>
        <time>2026-05-28T08:13:36.999Z</time>
      </trkpt>
      <trkpt lat="44.0065" lon="3.49941">
        <ele>848.9</ele>
        <time>2026-05-28T08:13:37.999Z</time>
      </trkpt>
      <trkpt lat="44.0065" lon="3.49941">
        <ele>849</ele>
        <time>2026-05-28T08:13:38.999Z</time>
      </trkpt>
      <trkpt lat="44.0065" lon="3.49942">
        <ele>849.1</ele>
        <time>2026-05-28T08:13:39.999Z</time>
      </trkpt>
      <trkpt lat="44.00649" lon="3.49942">
        <ele>849</ele>
        <time>2026-05-28T08:13:40.999Z</time>
      </trkpt>
      <trkpt lat="44.00648" lon="3.49943">
        <ele>849.2</ele>
        <time>2026-05-28T08:13:41.999Z</time>
      </trkpt>
      <trkpt lat="44.00648" lon="3.49944">
        <ele>849.3</ele>
        <time>2026-05-28T08:13:42.999Z</time>
      </trkpt>
      <trkpt lat="44.00647" lon="3.49944">
        <ele>849.2</ele>
        <time>2026-05-28T08:13:43.999Z</time>
      </trkpt>
      <trkpt lat="44.00647" lon="3.49946">
        <ele>849.2</ele>
        <time>2026-05-28T08:13:44.999Z</time>
      </trkpt>
      <trkpt lat="44.00647" lon="3.49946">
        <ele>849.5</ele>
        <time>2026-05-28T08:13:45.999Z</time>
      </trkpt>
      <trkpt lat="44.00647" lon="3.49947">
        <ele>849.9</ele>
        <time>2026-05-28T08:13:46.999Z</time>
      </trkpt>
      <trkpt lat="44.00647" lon="3.49947">
        <ele>850.1</ele>
        <time>2026-05-28T08:13:47.999Z</time>
      </trkpt>
      <trkpt lat="44.00647" lon="3.49949">
        <ele>850.7</ele>
        <time>2026-05-28T08:13:48.999Z</time>
      </trkpt>
      <trkpt lat="44.00647" lon="3.4995">
        <ele>851.1</ele>
        <time>2026-05-28T08:13:49.999Z</time>
      </trkpt>
      <trkpt lat="44.00647" lon="3.49951">
        <ele>851.3</ele>
        <time>2026-05-28T08:13:50.999Z</time>
      </trkpt>
      <trkpt lat="44.00647" lon="3.49951">
        <ele>851.4</ele>
        <time>2026-05-28T08:13:51.999Z</time>
      </trkpt>
      <trkpt lat="44.00647" lon="3.4995">
        <ele>851.3</ele>
        <time>2026-05-28T08:13:52.999Z</time>
      </trkpt>
      <trkpt lat="44.00647" lon="3.49951">
        <ele>851.2</ele>
        <time>2026-05-28T08:13:53.999Z</time>
      </trkpt>
      <trkpt lat="44.00647" lon="3.49952">
        <ele>851.5</ele>
        <time>2026-05-28T08:13:54.999Z</time>
      </trkpt>
      <trkpt lat="44.00647" lon="3.49953">
        <ele>851.6</ele>
        <time>2026-05-28T08:13:55.999Z</time>
      </trkpt>
      <trkpt lat="44.00647" lon="3.49955">
        <ele>851.8</ele>
        <time>2026-05-28T08:13:56.999Z</time>
      </trkpt>
      <trkpt lat="44.00646" lon="3.49956">
        <ele>851.9</ele>
        <time>2026-05-28T08:13:57.999Z</time>
      </trkpt>
      <trkpt lat="44.00646" lon="3.49957">
        <ele>852.3</ele>
        <time>2026-05-28T08:13:58.999Z</time>
      </trkpt>
      <trkpt lat="44.00646" lon="3.49958">
        <ele>852.3</ele>
        <time>2026-05-28T08:13:59.999Z</time>
      </trkpt>
      <trkpt lat="44.00645" lon="3.4996">
        <ele>852.2</ele>
        <time>2026-05-28T08:14:00.999Z</time>
      </trkpt>
      <trkpt lat="44.00644" lon="3.4996">
        <ele>852.3</ele>
        <time>2026-05-28T08:14:01.999Z</time>
      </trkpt>
      <trkpt lat="44.00644" lon="3.49961">
        <ele>852.3</ele>
        <time>2026-05-28T08:14:02.999Z</time>
      </trkpt>
      <trkpt lat="44.00644" lon="3.49963">
        <ele>852.1</ele>
        <time>2026-05-28T08:14:03.999Z</time>
      </trkpt>
      <trkpt lat="44.00644" lon="3.49964">
        <ele>852</ele>
        <time>2026-05-28T08:14:04.999Z</time>
      </trkpt>
      <trkpt lat="44.00644" lon="3.49964">
        <ele>851.8</ele>
        <time>2026-05-28T08:14:05.999Z</time>
      </trkpt>
      <trkpt lat="44.00644" lon="3.49965">
        <ele>851.6</ele>
        <time>2026-05-28T08:14:06.999Z</time>
      </trkpt>
      <trkpt lat="44.00644" lon="3.49965">
        <ele>851.5</ele>
        <time>2026-05-28T08:14:07.999Z</time>
      </trkpt>
      <trkpt lat="44.00644" lon="3.49965">
        <ele>851.7</ele>
        <time>2026-05-28T08:14:08.999Z</time>
      </trkpt>
      <trkpt lat="44.00644" lon="3.49965">
        <ele>851.9</ele>
        <time>2026-05-28T08:14:09.999Z</time>
      </trkpt>
      <trkpt lat="44.00644" lon="3.49966">
        <ele>851.9</ele>
        <time>2026-05-28T08:14:10.999Z</time>
      </trkpt>
      <trkpt lat="44.00645" lon="3.49967">
        <ele>852</ele>
        <time>2026-05-28T08:14:11.999Z</time>
      </trkpt>
      <trkpt lat="44.00645" lon="3.49968">
        <ele>852</ele>
        <time>2026-05-28T08:14:12.999Z</time>
      </trkpt>
      <trkpt lat="44.00646" lon="3.49969">
        <ele>852.2</ele>
        <time>2026-05-28T08:14:13.999Z</time>
      </trkpt>
      <trkpt lat="44.00646" lon="3.49969">
        <ele>852.2</ele>
        <time>2026-05-28T08:14:14.999Z</time>
      </trkpt>
      <trkpt lat="44.00646" lon="3.4997">
        <ele>852.2</ele>
        <time>2026-05-28T08:14:15.999Z</time>
      </trkpt>
      <trkpt lat="44.00645" lon="3.4997">
        <ele>852.2</ele>
        <time>2026-05-28T08:14:16.999Z</time>
      </trkpt>
      <trkpt lat="44.00644" lon="3.4997">
        <ele>852</ele>
        <time>2026-05-28T08:14:17.999Z</time>
      </trkpt>
      <trkpt lat="44.00643" lon="3.4997">
        <ele>851.9</ele>
        <time>2026-05-28T08:14:18.999Z</time>
      </trkpt>
      <trkpt lat="44.00643" lon="3.4997">
        <ele>851.9</ele>
        <time>2026-05-28T08:14:19.999Z</time>
      </trkpt>
      <trkpt lat="44.00643" lon="3.49971">
        <ele>852</ele>
        <time>2026-05-28T08:14:20.999Z</time>
      </trkpt>
      <trkpt lat="44.00643" lon="3.49972">
        <ele>852.4</ele>
        <time>2026-05-28T08:14:21.999Z</time>
      </trkpt>
      <trkpt lat="44.00643" lon="3.49972">
        <ele>852.4</ele>
        <time>2026-05-28T08:14:22.999Z</time>
      </trkpt>
      <trkpt lat="44.00642" lon="3.49973">
        <ele>852.4</ele>
        <time>2026-05-28T08:14:23.999Z</time>
      </trkpt>
      <trkpt lat="44.00642" lon="3.49974">
        <ele>852.5</ele>
        <time>2026-05-28T08:14:24.999Z</time>
      </trkpt>
      <trkpt lat="44.00642" lon="3.49975">
        <ele>852.5</ele>
        <time>2026-05-28T08:14:25.999Z</time>
      </trkpt>
      <trkpt lat="44.00642" lon="3.49976">
        <ele>852.6</ele>
        <time>2026-05-28T08:14:26.999Z</time>
      </trkpt>
      <trkpt lat="44.00642" lon="3.49977">
        <ele>852.6</ele>
        <time>2026-05-28T08:14:27.999Z</time>
      </trkpt>
      <trkpt lat="44.00642" lon="3.49978">
        <ele>852.8</ele>
        <time>2026-05-28T08:14:28.999Z</time>
      </trkpt>
      <trkpt lat="44.00642" lon="3.49978">
        <ele>852.7</ele>
        <time>2026-05-28T08:14:29.999Z</time>
      </trkpt>
      <trkpt lat="44.00642" lon="3.49979">
        <ele>852.5</ele>
        <time>2026-05-28T08:14:30.999Z</time>
      </trkpt>
      <trkpt lat="44.00641" lon="3.49979">
        <ele>852.5</ele>
        <time>2026-05-28T08:14:31.999Z</time>
      </trkpt>
      <trkpt lat="44.00641" lon="3.4998">
        <ele>852.9</ele>
        <time>2026-05-28T08:14:32.999Z</time>
      </trkpt>
      <trkpt lat="44.00641" lon="3.49981">
        <ele>853.3</ele>
        <time>2026-05-28T08:14:33.999Z</time>
      </trkpt>
      <trkpt lat="44.00641" lon="3.49983">
        <ele>853.6</ele>
        <time>2026-05-28T08:14:34.999Z</time>
      </trkpt>
      <trkpt lat="44.00641" lon="3.49983">
        <ele>853.8</ele>
        <time>2026-05-28T08:14:35.999Z</time>
      </trkpt>
      <trkpt lat="44.00641" lon="3.49983">
        <ele>853.8</ele>
        <time>2026-05-28T08:14:36.999Z</time>
      </trkpt>
      <trkpt lat="44.0064" lon="3.49984">
        <ele>854.1</ele>
        <time>2026-05-28T08:14:37.999Z</time>
      </trkpt>
      <trkpt lat="44.00641" lon="3.49984">
        <ele>854.4</ele>
        <time>2026-05-28T08:14:38.999Z</time>
      </trkpt>
      <trkpt lat="44.00641" lon="3.49985">
        <ele>854.5</ele>
        <time>2026-05-28T08:14:39.999Z</time>
      </trkpt>
      <trkpt lat="44.00641" lon="3.49985">
        <ele>854.7</ele>
        <time>2026-05-28T08:14:40.999Z</time>
      </trkpt>
      <trkpt lat="44.00641" lon="3.49985">
        <ele>854.6</ele>
        <time>2026-05-28T08:14:41.999Z</time>
      </trkpt>
      <trkpt lat="44.0064" lon="3.49984">
        <ele>854.6</ele>
        <time>2026-05-28T08:14:42.999Z</time>
      </trkpt>
      <trkpt lat="44.00639" lon="3.49984">
        <ele>854.6</ele>
        <time>2026-05-28T08:14:43.999Z</time>
      </trkpt>
      <trkpt lat="44.00639" lon="3.49983">
        <ele>854.9</ele>
        <time>2026-05-28T08:14:44.999Z</time>
      </trkpt>
      <trkpt lat="44.00639" lon="3.49984">
        <ele>855.1</ele>
        <time>2026-05-28T08:14:45.999Z</time>
      </trkpt>
      <trkpt lat="44.00638" lon="3.49985">
        <ele>855.1</ele>
        <time>2026-05-28T08:14:46.999Z</time>
      </trkpt>
      <trkpt lat="44.00638" lon="3.49986">
        <ele>855.2</ele>
        <time>2026-05-28T08:14:47.999Z</time>
      </trkpt>
      <trkpt lat="44.00637" lon="3.49988">
        <ele>855.5</ele>
        <time>2026-05-28T08:14:48.999Z</time>
      </trkpt>
      <trkpt lat="44.00637" lon="3.49988">
        <ele>855.5</ele>
        <time>2026-05-28T08:14:49.999Z</time>
      </trkpt>
      <trkpt lat="44.00636" lon="3.49988">
        <ele>855.6</ele>
        <time>2026-05-28T08:14:50.999Z</time>
      </trkpt>
      <trkpt lat="44.00636" lon="3.49988">
        <ele>855.6</ele>
        <time>2026-05-28T08:14:51.999Z</time>
      </trkpt>
      <trkpt lat="44.00636" lon="3.49989">
        <ele>856</ele>
        <time>2026-05-28T08:14:52.999Z</time>
      </trkpt>
      <trkpt lat="44.00636" lon="3.49989">
        <ele>856.2</ele>
        <time>2026-05-28T08:14:53.999Z</time>
      </trkpt>
      <trkpt lat="44.00636" lon="3.49989">
        <ele>856.2</ele>
        <time>2026-05-28T08:14:54.999Z</time>
      </trkpt>
      <trkpt lat="44.00635" lon="3.4999">
        <ele>856.5</ele>
        <time>2026-05-28T08:14:55.999Z</time>
      </trkpt>
      <trkpt lat="44.00634" lon="3.4999">
        <ele>856.5</ele>
        <time>2026-05-28T08:14:56.999Z</time>
      </trkpt>
      <trkpt lat="44.00633" lon="3.49992">
        <ele>856.5</ele>
        <time>2026-05-28T08:14:57.999Z</time>
      </trkpt>
      <trkpt lat="44.00633" lon="3.49993">
        <ele>856.8</ele>
        <time>2026-05-28T08:14:58.999Z</time>
      </trkpt>
      <trkpt lat="44.00632" lon="3.49994">
        <ele>856.9</ele>
        <time>2026-05-28T08:14:59.999Z</time>
      </trkpt>
      <trkpt lat="44.00632" lon="3.49995">
        <ele>857.3</ele>
        <time>2026-05-28T08:15:00.999Z</time>
      </trkpt>
      <trkpt lat="44.00631" lon="3.49995">
        <ele>857.6</ele>
        <time>2026-05-28T08:15:01.999Z</time>
      </trkpt>
      <trkpt lat="44.00631" lon="3.49995">
        <ele>858.2</ele>
        <time>2026-05-28T08:15:02.999Z</time>
      </trkpt>
      <trkpt lat="44.00631" lon="3.49995">
        <ele>858.5</ele>
        <time>2026-05-28T08:15:03.999Z</time>
      </trkpt>
      <trkpt lat="44.00631" lon="3.49996">
        <ele>858.6</ele>
        <time>2026-05-28T08:15:04.999Z</time>
      </trkpt>
      <trkpt lat="44.00631" lon="3.49997">
        <ele>859</ele>
        <time>2026-05-28T08:15:06.999Z</time>
      </trkpt>
      <trkpt lat="44.00631" lon="3.49998">
        <ele>859.2</ele>
        <time>2026-05-28T08:15:07.999Z</time>
      </trkpt>
      <trkpt lat="44.0063" lon="3.49999">
        <ele>859.4</ele>
        <time>2026-05-28T08:15:08.999Z</time>
      </trkpt>
      <trkpt lat="44.0063" lon="3.49999">
        <ele>859.6</ele>
        <time>2026-05-28T08:15:09.999Z</time>
      </trkpt>
      <trkpt lat="44.0063" lon="3.5">
        <ele>859.8</ele>
        <time>2026-05-28T08:15:10.999Z</time>
      </trkpt>
      <trkpt lat="44.00631" lon="3.50002">
        <ele>860.3</ele>
        <time>2026-05-28T08:15:11.999Z</time>
      </trkpt>
      <trkpt lat="44.00631" lon="3.50002">
        <ele>860.5</ele>
        <time>2026-05-28T08:15:12.999Z</time>
      </trkpt>
      <trkpt lat="44.00631" lon="3.50002">
        <ele>861</ele>
        <time>2026-05-28T08:15:14.999Z</time>
      </trkpt>
      <trkpt lat="44.00631" lon="3.50002">
        <ele>861.1</ele>
        <time>2026-05-28T08:15:15.999Z</time>
      </trkpt>
      <trkpt lat="44.00631" lon="3.50002">
        <ele>861.3</ele>
        <time>2026-05-28T08:15:16.999Z</time>
      </trkpt>
      <trkpt lat="44.00631" lon="3.50003">
        <ele>861.5</ele>
        <time>2026-05-28T08:15:17.999Z</time>
      </trkpt>
      <trkpt lat="44.00632" lon="3.50003">
        <ele>861.8</ele>
        <time>2026-05-28T08:15:18.999Z</time>
      </trkpt>
      <trkpt lat="44.00632" lon="3.50004">
        <ele>862.1</ele>
        <time>2026-05-28T08:15:19.999Z</time>
      </trkpt>
      <trkpt lat="44.00632" lon="3.50004">
        <ele>862.2</ele>
        <time>2026-05-28T08:15:20.999Z</time>
      </trkpt>
      <trkpt lat="44.00633" lon="3.50004">
        <ele>862.5</ele>
        <time>2026-05-28T08:15:22.999Z</time>
      </trkpt>
      <trkpt lat="44.00634" lon="3.50004">
        <ele>862.6</ele>
        <time>2026-05-28T08:15:23.999Z</time>
      </trkpt>
      <trkpt lat="44.00634" lon="3.50003">
        <ele>862.5</ele>
        <time>2026-05-28T08:15:24.999Z</time>
      </trkpt>
      <trkpt lat="44.00634" lon="3.50003">
        <ele>862.3</ele>
        <time>2026-05-28T08:15:25.999Z</time>
      </trkpt>
      <trkpt lat="44.00634" lon="3.50004">
        <ele>862.5</ele>
        <time>2026-05-28T08:15:26.999Z</time>
      </trkpt>
      <trkpt lat="44.00635" lon="3.50006">
        <ele>862.7</ele>
        <time>2026-05-28T08:15:27.999Z</time>
      </trkpt>
      <trkpt lat="44.00636" lon="3.50007">
        <ele>863</ele>
        <time>2026-05-28T08:15:28.999Z</time>
      </trkpt>
      <trkpt lat="44.00637" lon="3.50007">
        <ele>863.3</ele>
        <time>2026-05-28T08:15:29.999Z</time>
      </trkpt>
      <trkpt lat="44.00638" lon="3.50007">
        <ele>863.5</ele>
        <time>2026-05-28T08:15:30.999Z</time>
      </trkpt>
      <trkpt lat="44.00638" lon="3.50007">
        <ele>863.7</ele>
        <time>2026-05-28T08:15:31.999Z</time>
      </trkpt>
      <trkpt lat="44.00639" lon="3.50007">
        <ele>863.8</ele>
        <time>2026-05-28T08:15:32.999Z</time>
      </trkpt>
      <trkpt lat="44.00638" lon="3.50007">
        <ele>864</ele>
        <time>2026-05-28T08:15:33.999Z</time>
      </trkpt>
      <trkpt lat="44.00637" lon="3.50008">
        <ele>864.2</ele>
        <time>2026-05-28T08:15:34.999Z</time>
      </trkpt>
      <trkpt lat="44.00637" lon="3.50009">
        <ele>864.1</ele>
        <time>2026-05-28T08:15:35.999Z</time>
      </trkpt>
      <trkpt lat="44.00637" lon="3.50009">
        <ele>864.3</ele>
        <time>2026-05-28T08:15:36.999Z</time>
      </trkpt>
      <trkpt lat="44.00636" lon="3.50009">
        <ele>864.3</ele>
        <time>2026-05-28T08:15:37.999Z</time>
      </trkpt>
      <trkpt lat="44.00635" lon="3.50009">
        <ele>864.2</ele>
        <time>2026-05-28T08:15:38.999Z</time>
      </trkpt>
      <trkpt lat="44.00635" lon="3.50009">
        <ele>864.3</ele>
        <time>2026-05-28T08:15:39.999Z</time>
      </trkpt>
      <trkpt lat="44.00634" lon="3.50009">
        <ele>864.4</ele>
        <time>2026-05-28T08:15:40.999Z</time>
      </trkpt>
      <trkpt lat="44.00634" lon="3.50009">
        <ele>864.5</ele>
        <time>2026-05-28T08:15:41.999Z</time>
      </trkpt>
      <trkpt lat="44.00633" lon="3.5001">
        <ele>864.7</ele>
        <time>2026-05-28T08:15:42.999Z</time>
      </trkpt>
      <trkpt lat="44.00632" lon="3.5001">
        <ele>864.9</ele>
        <time>2026-05-28T08:15:43.999Z</time>
      </trkpt>
      <trkpt lat="44.00631" lon="3.50011">
        <ele>865.2</ele>
        <time>2026-05-28T08:15:44.999Z</time>
      </trkpt>
      <trkpt lat="44.00631" lon="3.50011">
        <ele>865.2</ele>
        <time>2026-05-28T08:15:45.999Z</time>
      </trkpt>
      <trkpt lat="44.0063" lon="3.50012">
        <ele>865.3</ele>
        <time>2026-05-28T08:15:46.999Z</time>
      </trkpt>
      <trkpt lat="44.0063" lon="3.50012">
        <ele>865.3</ele>
        <time>2026-05-28T08:15:47.999Z</time>
      </trkpt>
      <trkpt lat="44.00629" lon="3.50013">
        <ele>865.4</ele>
        <time>2026-05-28T08:15:48.999Z</time>
      </trkpt>
      <trkpt lat="44.00629" lon="3.50013">
        <ele>865.8</ele>
        <time>2026-05-28T08:15:49.999Z</time>
      </trkpt>
      <trkpt lat="44.00629" lon="3.50014">
        <ele>865.7</ele>
        <time>2026-05-28T08:15:50.999Z</time>
      </trkpt>
      <trkpt lat="44.00629" lon="3.50013">
        <ele>865.9</ele>
        <time>2026-05-28T08:15:51.999Z</time>
      </trkpt>
      <trkpt lat="44.00629" lon="3.50013">
        <ele>866</ele>
        <time>2026-05-28T08:15:52.999Z</time>
      </trkpt>
      <trkpt lat="44.00628" lon="3.50012">
        <ele>865.9</ele>
        <time>2026-05-28T08:15:53.999Z</time>
      </trkpt>
      <trkpt lat="44.00628" lon="3.50012">
        <ele>866</ele>
        <time>2026-05-28T08:15:54.999Z</time>
      </trkpt>
      <trkpt lat="44.00627" lon="3.50012">
        <ele>866</ele>
        <time>2026-05-28T08:15:55.999Z</time>
      </trkpt>
      <trkpt lat="44.00627" lon="3.50011">
        <ele>866</ele>
        <time>2026-05-28T08:15:56.999Z</time>
      </trkpt>
      <trkpt lat="44.00628" lon="3.50011">
        <ele>865.8</ele>
        <time>2026-05-28T08:15:57.999Z</time>
      </trkpt>
      <trkpt lat="44.00628" lon="3.50013">
        <ele>866.4</ele>
        <time>2026-05-28T08:15:58.999Z</time>
      </trkpt>
      <trkpt lat="44.00628" lon="3.50015">
        <ele>866.9</ele>
        <time>2026-05-28T08:15:59.999Z</time>
      </trkpt>
      <trkpt lat="44.00628" lon="3.50016">
        <ele>867.2</ele>
        <time>2026-05-28T08:16:00.999Z</time>
      </trkpt>
      <trkpt lat="44.00628" lon="3.50017">
        <ele>867.3</ele>
        <time>2026-05-28T08:16:01.999Z</time>
      </trkpt>
      <trkpt lat="44.00628" lon="3.50017">
        <ele>867.4</ele>
        <time>2026-05-28T08:16:02.999Z</time>
      </trkpt>
      <trkpt lat="44.00628" lon="3.50018">
        <ele>867.5</ele>
        <time>2026-05-28T08:16:03.999Z</time>
      </trkpt>
      <trkpt lat="44.00628" lon="3.50018">
        <ele>867.4</ele>
        <time>2026-05-28T08:16:04.999Z</time>
      </trkpt>
      <trkpt lat="44.00628" lon="3.50018">
        <ele>867.5</ele>
        <time>2026-05-28T08:16:05.999Z</time>
      </trkpt>
      <trkpt lat="44.00628" lon="3.50019">
        <ele>867.6</ele>
        <time>2026-05-28T08:16:06.999Z</time>
      </trkpt>
      <trkpt lat="44.00627" lon="3.50019">
        <ele>867.9</ele>
        <time>2026-05-28T08:16:07.999Z</time>
      </trkpt>
      <trkpt lat="44.00627" lon="3.5002">
        <ele>868</ele>
        <time>2026-05-28T08:16:08.999Z</time>
      </trkpt>
      <trkpt lat="44.00627" lon="3.5002">
        <ele>867.9</ele>
        <time>2026-05-28T08:16:09.999Z</time>
      </trkpt>
      <trkpt lat="44.00627" lon="3.5002">
        <ele>868</ele>
        <time>2026-05-28T08:16:10.999Z</time>
      </trkpt>
      <trkpt lat="44.00627" lon="3.5002">
        <ele>868.2</ele>
        <time>2026-05-28T08:16:11.999Z</time>
      </trkpt>
      <trkpt lat="44.00628" lon="3.5002">
        <ele>868.3</ele>
        <time>2026-05-28T08:16:12.999Z</time>
      </trkpt>
      <trkpt lat="44.00628" lon="3.5002">
        <ele>868.5</ele>
        <time>2026-05-28T08:16:13.999Z</time>
      </trkpt>
      <trkpt lat="44.00628" lon="3.5002">
        <ele>868.6</ele>
        <time>2026-05-28T08:16:14.999Z</time>
      </trkpt>
      <trkpt lat="44.00628" lon="3.5002">
        <ele>868.9</ele>
        <time>2026-05-28T08:16:15.999Z</time>
      </trkpt>
      <trkpt lat="44.00628" lon="3.5002">
        <ele>868.7</ele>
        <time>2026-05-28T08:16:16.999Z</time>
      </trkpt>
      <trkpt lat="44.00628" lon="3.5002">
        <ele>868.6</ele>
        <time>2026-05-28T08:16:17.999Z</time>
      </trkpt>
      <trkpt lat="44.00628" lon="3.50022">
        <ele>868.7</ele>
        <time>2026-05-28T08:16:18.999Z</time>
      </trkpt>
      <trkpt lat="44.00629" lon="3.50022">
        <ele>868.7</ele>
        <time>2026-05-28T08:16:19.999Z</time>
      </trkpt>
      <trkpt lat="44.00628" lon="3.50023">
        <ele>868.8</ele>
        <time>2026-05-28T08:16:20.999Z</time>
      </trkpt>
      <trkpt lat="44.00628" lon="3.50024">
        <ele>868.8</ele>
        <time>2026-05-28T08:16:21.999Z</time>
      </trkpt>
      <trkpt lat="44.00628" lon="3.50024">
        <ele>868.7</ele>
        <time>2026-05-28T08:16:22.999Z</time>
      </trkpt>
      <trkpt lat="44.00628" lon="3.50023">
        <ele>868.3</ele>
        <time>2026-05-28T08:16:23.999Z</time>
      </trkpt>
      <trkpt lat="44.00628" lon="3.50023">
        <ele>868.2</ele>
        <time>2026-05-28T08:16:24.999Z</time>
      </trkpt>
      <trkpt lat="44.00627" lon="3.50022">
        <ele>868.3</ele>
        <time>2026-05-28T08:16:25.999Z</time>
      </trkpt>
      <trkpt lat="44.00627" lon="3.50021">
        <ele>868.4</ele>
        <time>2026-05-28T08:16:26.999Z</time>
      </trkpt>
      <trkpt lat="44.00626" lon="3.50022">
        <ele>868.7</ele>
        <time>2026-05-28T08:16:27.999Z</time>
      </trkpt>
      <trkpt lat="44.00626" lon="3.50023">
        <ele>868.7</ele>
        <time>2026-05-28T08:16:28.999Z</time>
      </trkpt>
      <trkpt lat="44.00626" lon="3.50023">
        <ele>868.7</ele>
        <time>2026-05-28T08:16:29.999Z</time>
      </trkpt>
      <trkpt lat="44.00626" lon="3.50023">
        <ele>869.3</ele>
        <time>2026-05-28T08:16:30.999Z</time>
      </trkpt>
      <trkpt lat="44.00626" lon="3.50023">
        <ele>869.7</ele>
        <time>2026-05-28T08:16:31.999Z</time>
      </trkpt>
      <trkpt lat="44.00626" lon="3.50023">
        <ele>868.4</ele>
        <time>2026-05-28T08:16:32.999Z</time>
      </trkpt>
      <trkpt lat="44.00626" lon="3.50023">
        <ele>868.3</ele>
        <time>2026-05-28T08:16:33.999Z</time>
      </trkpt>
      <trkpt lat="44.00626" lon="3.50023">
        <ele>868</ele>
        <time>2026-05-28T08:16:34.999Z</time>
      </trkpt>
      <trkpt lat="44.00627" lon="3.50023">
        <ele>868.3</ele>
        <time>2026-05-28T08:16:36.999Z</time>
      </trkpt>
      <trkpt lat="44.00627" lon="3.50023">
        <ele>868.3</ele>
        <time>2026-05-28T08:16:37.999Z</time>
      </trkpt>
      <trkpt lat="44.00627" lon="3.50023">
        <ele>868.4</ele>
        <time>2026-05-28T08:16:38.999Z</time>
      </trkpt>
      <trkpt lat="44.00627" lon="3.50022">
        <ele>868.6</ele>
        <time>2026-05-28T08:16:39.999Z</time>
      </trkpt>
      <trkpt lat="44.00626" lon="3.50021">
        <ele>868.9</ele>
        <time>2026-05-28T08:16:40.999Z</time>
      </trkpt>
      <trkpt lat="44.00626" lon="3.50021">
        <ele>869.5</ele>
        <time>2026-05-28T08:16:41.999Z</time>
      </trkpt>
      <trkpt lat="44.00626" lon="3.50021">
        <ele>869.8</ele>
        <time>2026-05-28T08:16:42.999Z</time>
      </trkpt>
      <trkpt lat="44.00626" lon="3.50022">
        <ele>870.2</ele>
        <time>2026-05-28T08:16:43.999Z</time>
      </trkpt>
      <trkpt lat="44.00625" lon="3.50023">
        <ele>870.4</ele>
        <time>2026-05-28T08:16:44.999Z</time>
      </trkpt>
      <trkpt lat="44.00624" lon="3.50023">
        <ele>870.8</ele>
        <time>2026-05-28T08:16:45.999Z</time>
      </trkpt>
      <trkpt lat="44.00625" lon="3.50024">
        <ele>871</ele>
        <time>2026-05-28T08:16:46.999Z</time>
      </trkpt>
      <trkpt lat="44.00625" lon="3.50024">
        <ele>871.5</ele>
        <time>2026-05-28T08:16:47.999Z</time>
      </trkpt>
      <trkpt lat="44.00625" lon="3.50023">
        <ele>870.8</ele>
        <time>2026-05-28T08:16:48.999Z</time>
      </trkpt>
      <trkpt lat="44.00625" lon="3.50024">
        <ele>871.2</ele>
        <time>2026-05-28T08:16:49.999Z</time>
      </trkpt>
      <trkpt lat="44.00625" lon="3.50024">
        <ele>871.4</ele>
        <time>2026-05-28T08:16:50.999Z</time>
      </trkpt>
      <trkpt lat="44.00625" lon="3.50024">
        <ele>871.6</ele>
        <time>2026-05-28T08:16:51.999Z</time>
      </trkpt>
      <trkpt lat="44.00626" lon="3.50025">
        <ele>871.6</ele>
        <time>2026-05-28T08:16:52.999Z</time>
      </trkpt>
      <trkpt lat="44.00626" lon="3.50027">
        <ele>871.6</ele>
        <time>2026-05-28T08:16:53.999Z</time>
      </trkpt>
      <trkpt lat="44.00627" lon="3.50029">
        <ele>871.6</ele>
        <time>2026-05-28T08:16:54.999Z</time>
      </trkpt>
      <trkpt lat="44.00627" lon="3.50031">
        <ele>871.7</ele>
        <time>2026-05-28T08:16:55.999Z</time>
      </trkpt>
      <trkpt lat="44.00627" lon="3.50032">
        <ele>871.7</ele>
        <time>2026-05-28T08:16:56.999Z</time>
      </trkpt>
      <trkpt lat="44.00628" lon="3.50032">
        <ele>872</ele>
        <time>2026-05-28T08:16:57.999Z</time>
      </trkpt>
      <trkpt lat="44.00628" lon="3.50034">
        <ele>872</ele>
        <time>2026-05-28T08:16:58.999Z</time>
      </trkpt>
      <trkpt lat="44.00629" lon="3.50035">
        <ele>871.9</ele>
        <time>2026-05-28T08:16:59.999Z</time>
      </trkpt>
      <trkpt lat="44.00628" lon="3.50037">
        <ele>872</ele>
        <time>2026-05-28T08:17:00.999Z</time>
      </trkpt>
      <trkpt lat="44.00628" lon="3.50038">
        <ele>872</ele>
        <time>2026-05-28T08:17:01.999Z</time>
      </trkpt>
      <trkpt lat="44.00627" lon="3.50041">
        <ele>872.2</ele>
        <time>2026-05-28T08:17:02.999Z</time>
      </trkpt>
      <trkpt lat="44.00626" lon="3.50044">
        <ele>872.6</ele>
        <time>2026-05-28T08:17:03.999Z</time>
      </trkpt>
      <trkpt lat="44.00624" lon="3.50045">
        <ele>872.3</ele>
        <time>2026-05-28T08:17:04.999Z</time>
      </trkpt>
      <trkpt lat="44.00623" lon="3.50047">
        <ele>872.1</ele>
        <time>2026-05-28T08:17:05.999Z</time>
      </trkpt>
      <trkpt lat="44.00622" lon="3.5005">
        <ele>872.2</ele>
        <time>2026-05-28T08:17:06.999Z</time>
      </trkpt>
      <trkpt lat="44.00622" lon="3.50052">
        <ele>872.1</ele>
        <time>2026-05-28T08:17:07.999Z</time>
      </trkpt>
      <trkpt lat="44.00621" lon="3.50052">
        <ele>872.1</ele>
        <time>2026-05-28T08:17:08.999Z</time>
      </trkpt>
      <trkpt lat="44.00622" lon="3.50047">
        <ele>872.9</ele>
        <time>2026-05-28T08:17:09.999Z</time>
      </trkpt>
      <trkpt lat="44.00622" lon="3.50047">
        <ele>872.9</ele>
        <time>2026-05-28T08:17:10.999Z</time>
      </trkpt>
      <trkpt lat="44.00621" lon="3.50046">
        <ele>872.9</ele>
        <time>2026-05-28T08:17:11.999Z</time>
      </trkpt>
      <trkpt lat="44.00621" lon="3.50046">
        <ele>872.6</ele>
        <time>2026-05-28T08:17:12.999Z</time>
      </trkpt>
      <trkpt lat="44.0062" lon="3.50045">
        <ele>872.5</ele>
        <time>2026-05-28T08:17:13.999Z</time>
      </trkpt>
      <trkpt lat="44.0062" lon="3.50044">
        <ele>872.3</ele>
        <time>2026-05-28T08:17:14.999Z</time>
      </trkpt>
      <trkpt lat="44.00621" lon="3.50046">
        <ele>872.3</ele>
        <time>2026-05-28T08:17:15.999Z</time>
      </trkpt>
      <trkpt lat="44.00621" lon="3.50046">
        <ele>872.6</ele>
        <time>2026-05-28T08:17:16.999Z</time>
      </trkpt>
      <trkpt lat="44.00622" lon="3.50047">
        <ele>872.6</ele>
        <time>2026-05-28T08:17:17.999Z</time>
      </trkpt>
      <trkpt lat="44.00623" lon="3.50048">
        <ele>872.8</ele>
        <time>2026-05-28T08:17:18.999Z</time>
      </trkpt>
      <trkpt lat="44.00624" lon="3.50049">
        <ele>873.1</ele>
        <time>2026-05-28T08:17:19.999Z</time>
      </trkpt>
      <trkpt lat="44.00624" lon="3.50049">
        <ele>873.7</ele>
        <time>2026-05-28T08:17:20.999Z</time>
      </trkpt>
      <trkpt lat="44.00625" lon="3.50049">
        <ele>873.6</ele>
        <time>2026-05-28T08:17:21.999Z</time>
      </trkpt>
      <trkpt lat="44.00625" lon="3.50049">
        <ele>874</ele>
        <time>2026-05-28T08:17:22.999Z</time>
      </trkpt>
      <trkpt lat="44.00625" lon="3.50049">
        <ele>874.2</ele>
        <time>2026-05-28T08:17:23.999Z</time>
      </trkpt>
      <trkpt lat="44.00625" lon="3.50048">
        <ele>874</ele>
        <time>2026-05-28T08:17:24.999Z</time>
      </trkpt>
      <trkpt lat="44.00625" lon="3.50048">
        <ele>873.9</ele>
        <time>2026-05-28T08:17:25.999Z</time>
      </trkpt>
      <trkpt lat="44.00625" lon="3.50047">
        <ele>874.1</ele>
        <time>2026-05-28T08:17:26.999Z</time>
      </trkpt>
      <trkpt lat="44.00625" lon="3.50047">
        <ele>874.4</ele>
        <time>2026-05-28T08:17:27.999Z</time>
      </trkpt>
      <trkpt lat="44.00625" lon="3.50047">
        <ele>874.3</ele>
        <time>2026-05-28T08:17:28.999Z</time>
      </trkpt>
      <trkpt lat="44.00623" lon="3.50046">
        <ele>874.3</ele>
        <time>2026-05-28T08:17:29.999Z</time>
      </trkpt>
      <trkpt lat="44.00623" lon="3.50046">
        <ele>875.3</ele>
        <time>2026-05-28T08:17:30.999Z</time>
      </trkpt>
      <trkpt lat="44.00623" lon="3.50046">
        <ele>875.4</ele>
        <time>2026-05-28T08:17:31.999Z</time>
      </trkpt>
      <trkpt lat="44.00623" lon="3.50046">
        <ele>875.4</ele>
        <time>2026-05-28T08:17:32.999Z</time>
      </trkpt>
      <trkpt lat="44.00623" lon="3.50047">
        <ele>875.4</ele>
        <time>2026-05-28T08:17:33.999Z</time>
      </trkpt>
      <trkpt lat="44.00623" lon="3.50047">
        <ele>875.4</ele>
        <time>2026-05-28T08:17:34.999Z</time>
      </trkpt>
      <trkpt lat="44.00622" lon="3.50047">
        <ele>875.3</ele>
        <time>2026-05-28T08:17:35.999Z</time>
      </trkpt>
      <trkpt lat="44.00622" lon="3.50047">
        <ele>875.4</ele>
        <time>2026-05-28T08:17:36.999Z</time>
      </trkpt>
      <trkpt lat="44.00621" lon="3.50048">
        <ele>875.6</ele>
        <time>2026-05-28T08:17:37.999Z</time>
      </trkpt>
      <trkpt lat="44.00621" lon="3.50049">
        <ele>876</ele>
        <time>2026-05-28T08:17:38.999Z</time>
      </trkpt>
      <trkpt lat="44.0062" lon="3.50049">
        <ele>876</ele>
        <time>2026-05-28T08:17:39.999Z</time>
      </trkpt>
      <trkpt lat="44.00619" lon="3.50049">
        <ele>875.9</ele>
        <time>2026-05-28T08:17:40.999Z</time>
      </trkpt>
      <trkpt lat="44.00618" lon="3.5005">
        <ele>876</ele>
        <time>2026-05-28T08:17:41.999Z</time>
      </trkpt>
      <trkpt lat="44.00618" lon="3.50051">
        <ele>876.3</ele>
        <time>2026-05-28T08:17:42.999Z</time>
      </trkpt>
      <trkpt lat="44.00618" lon="3.50052">
        <ele>876.6</ele>
        <time>2026-05-28T08:17:43.999Z</time>
      </trkpt>
      <trkpt lat="44.00618" lon="3.50054">
        <ele>876.9</ele>
        <time>2026-05-28T08:17:44.999Z</time>
      </trkpt>
      <trkpt lat="44.00617" lon="3.50055">
        <ele>877</ele>
        <time>2026-05-28T08:17:45.999Z</time>
      </trkpt>
      <trkpt lat="44.00617" lon="3.50055">
        <ele>877.2</ele>
        <time>2026-05-28T08:17:46.999Z</time>
      </trkpt>
      <trkpt lat="44.00616" lon="3.50055">
        <ele>877.5</ele>
        <time>2026-05-28T08:17:47.999Z</time>
      </trkpt>
      <trkpt lat="44.00615" lon="3.50055">
        <ele>877.9</ele>
        <time>2026-05-28T08:17:48.999Z</time>
      </trkpt>
      <trkpt lat="44.00614" lon="3.50055">
        <ele>878</ele>
        <time>2026-05-28T08:17:49.999Z</time>
      </trkpt>
      <trkpt lat="44.00614" lon="3.50055">
        <ele>878.3</ele>
        <time>2026-05-28T08:17:50.999Z</time>
      </trkpt>
      <trkpt lat="44.00614" lon="3.50055">
        <ele>878.3</ele>
        <time>2026-05-28T08:17:51.999Z</time>
      </trkpt>
      <trkpt lat="44.00613" lon="3.50055">
        <ele>878.6</ele>
        <time>2026-05-28T08:17:52.999Z</time>
      </trkpt>
      <trkpt lat="44.00613" lon="3.50055">
        <ele>878.9</ele>
        <time>2026-05-28T08:17:53.999Z</time>
      </trkpt>
      <trkpt lat="44.00612" lon="3.50055">
        <ele>879.3</ele>
        <time>2026-05-28T08:17:54.999Z</time>
      </trkpt>
      <trkpt lat="44.00611" lon="3.50055">
        <ele>879.5</ele>
        <time>2026-05-28T08:17:55.999Z</time>
      </trkpt>
      <trkpt lat="44.0061" lon="3.50055">
        <ele>879.6</ele>
        <time>2026-05-28T08:17:56.999Z</time>
      </trkpt>
      <trkpt lat="44.0061" lon="3.50055">
        <ele>880</ele>
        <time>2026-05-28T08:17:57.999Z</time>
      </trkpt>
      <trkpt lat="44.0061" lon="3.50056">
        <ele>880</ele>
        <time>2026-05-28T08:17:58.999Z</time>
      </trkpt>
      <trkpt lat="44.00609" lon="3.50057">
        <ele>880.2</ele>
        <time>2026-05-28T08:17:59.999Z</time>
      </trkpt>
      <trkpt lat="44.00609" lon="3.50057">
        <ele>880.4</ele>
        <time>2026-05-28T08:18:00.999Z</time>
      </trkpt>
      <trkpt lat="44.00609" lon="3.50057">
        <ele>880.5</ele>
        <time>2026-05-28T08:18:01.999Z</time>
      </trkpt>
      <trkpt lat="44.00608" lon="3.50058">
        <ele>880.5</ele>
        <time>2026-05-28T08:18:02.999Z</time>
      </trkpt>
      <trkpt lat="44.00607" lon="3.50059">
        <ele>880.7</ele>
        <time>2026-05-28T08:18:03.999Z</time>
      </trkpt>
      <trkpt lat="44.00606" lon="3.50059">
        <ele>880.9</ele>
        <time>2026-05-28T08:18:04.999Z</time>
      </trkpt>
      <trkpt lat="44.00606" lon="3.50059">
        <ele>881.1</ele>
        <time>2026-05-28T08:18:05.999Z</time>
      </trkpt>
      <trkpt lat="44.00606" lon="3.50059">
        <ele>881.4</ele>
        <time>2026-05-28T08:18:06.999Z</time>
      </trkpt>
      <trkpt lat="44.00606" lon="3.50059">
        <ele>881.6</ele>
        <time>2026-05-28T08:18:07.999Z</time>
      </trkpt>
      <trkpt lat="44.00606" lon="3.50061">
        <ele>881.5</ele>
        <time>2026-05-28T08:18:08.999Z</time>
      </trkpt>
      <trkpt lat="44.00605" lon="3.50062">
        <ele>881.8</ele>
        <time>2026-05-28T08:18:09.999Z</time>
      </trkpt>
      <trkpt lat="44.00605" lon="3.50063">
        <ele>881.8</ele>
        <time>2026-05-28T08:18:10.999Z</time>
      </trkpt>
      <trkpt lat="44.00604" lon="3.50064">
        <ele>881.8</ele>
        <time>2026-05-28T08:18:11.999Z</time>
      </trkpt>
      <trkpt lat="44.00604" lon="3.50065">
        <ele>882.1</ele>
        <time>2026-05-28T08:18:12.999Z</time>
      </trkpt>
      <trkpt lat="44.00603" lon="3.50067">
        <ele>882.3</ele>
        <time>2026-05-28T08:18:13.999Z</time>
      </trkpt>
      <trkpt lat="44.00603" lon="3.50067">
        <ele>881.9</ele>
        <time>2026-05-28T08:18:14.999Z</time>
      </trkpt>
      <trkpt lat="44.00603" lon="3.50068">
        <ele>882.3</ele>
        <time>2026-05-28T08:18:15.999Z</time>
      </trkpt>
      <trkpt lat="44.00602" lon="3.50069">
        <ele>882.6</ele>
        <time>2026-05-28T08:18:16.999Z</time>
      </trkpt>
      <trkpt lat="44.00601" lon="3.50071">
        <ele>883</ele>
        <time>2026-05-28T08:18:17.999Z</time>
      </trkpt>
      <trkpt lat="44.00601" lon="3.50072">
        <ele>882.8</ele>
        <time>2026-05-28T08:18:18.999Z</time>
      </trkpt>
      <trkpt lat="44.00601" lon="3.50072">
        <ele>882.7</ele>
        <time>2026-05-28T08:18:19.999Z</time>
      </trkpt>
      <trkpt lat="44.00601" lon="3.50072">
        <ele>882.9</ele>
        <time>2026-05-28T08:18:20.999Z</time>
      </trkpt>
      <trkpt lat="44.006" lon="3.50072">
        <ele>883</ele>
        <time>2026-05-28T08:18:21.999Z</time>
      </trkpt>
      <trkpt lat="44.006" lon="3.50072">
        <ele>883.1</ele>
        <time>2026-05-28T08:18:22.999Z</time>
      </trkpt>
      <trkpt lat="44.006" lon="3.50073">
        <ele>883.1</ele>
        <time>2026-05-28T08:18:23.999Z</time>
      </trkpt>
      <trkpt lat="44.006" lon="3.50073">
        <ele>883.1</ele>
        <time>2026-05-28T08:18:24.999Z</time>
      </trkpt>
      <trkpt lat="44.006" lon="3.50073">
        <ele>883.1</ele>
        <time>2026-05-28T08:18:25.999Z</time>
      </trkpt>
      <trkpt lat="44.006" lon="3.50073">
        <ele>883</ele>
        <time>2026-05-28T08:18:26.999Z</time>
      </trkpt>
      <trkpt lat="44.006" lon="3.50073">
        <ele>883.2</ele>
        <time>2026-05-28T08:18:27.999Z</time>
      </trkpt>
      <trkpt lat="44.00599" lon="3.50073">
        <ele>883.3</ele>
        <time>2026-05-28T08:18:28.999Z</time>
      </trkpt>
      <trkpt lat="44.00598" lon="3.50073">
        <ele>883.4</ele>
        <time>2026-05-28T08:18:29.999Z</time>
      </trkpt>
      <trkpt lat="44.00597" lon="3.50073">
        <ele>883.4</ele>
        <time>2026-05-28T08:18:30.999Z</time>
      </trkpt>
      <trkpt lat="44.00596" lon="3.50073">
        <ele>883.4</ele>
        <time>2026-05-28T08:18:31.999Z</time>
      </trkpt>
      <trkpt lat="44.00596" lon="3.50073">
        <ele>883.4</ele>
        <time>2026-05-28T08:18:32.999Z</time>
      </trkpt>
      <trkpt lat="44.00596" lon="3.50073">
        <ele>883.4</ele>
        <time>2026-05-28T08:18:33.999Z</time>
      </trkpt>
      <trkpt lat="44.00595" lon="3.50073">
        <ele>883.7</ele>
        <time>2026-05-28T08:18:34.999Z</time>
      </trkpt>
      <trkpt lat="44.00593" lon="3.50073">
        <ele>883.7</ele>
        <time>2026-05-28T08:18:35.999Z</time>
      </trkpt>
      <trkpt lat="44.00592" lon="3.50073">
        <ele>883.7</ele>
        <time>2026-05-28T08:18:36.999Z</time>
      </trkpt>
      <trkpt lat="44.0059" lon="3.50073">
        <ele>883.7</ele>
        <time>2026-05-28T08:18:37.999Z</time>
      </trkpt>
      <trkpt lat="44.00589" lon="3.50075">
        <ele>884</ele>
        <time>2026-05-28T08:18:38.999Z</time>
      </trkpt>
      <trkpt lat="44.00588" lon="3.50074">
        <ele>884.4</ele>
        <time>2026-05-28T08:18:39.999Z</time>
      </trkpt>
      <trkpt lat="44.00587" lon="3.50075">
        <ele>884.4</ele>
        <time>2026-05-28T08:18:40.999Z</time>
      </trkpt>
      <trkpt lat="44.00586" lon="3.50075">
        <ele>884.6</ele>
        <time>2026-05-28T08:18:41.999Z</time>
      </trkpt>
      <trkpt lat="44.00585" lon="3.50076">
        <ele>884.5</ele>
        <time>2026-05-28T08:18:42.999Z</time>
      </trkpt>
      <trkpt lat="44.00584" lon="3.50077">
        <ele>884.5</ele>
        <time>2026-05-28T08:18:43.999Z</time>
      </trkpt>
      <trkpt lat="44.00583" lon="3.50077">
        <ele>884.7</ele>
        <time>2026-05-28T08:18:44.999Z</time>
      </trkpt>
      <trkpt lat="44.00582" lon="3.50078">
        <ele>884.7</ele>
        <time>2026-05-28T08:18:45.999Z</time>
      </trkpt>
      <trkpt lat="44.00582" lon="3.50079">
        <ele>884.6</ele>
        <time>2026-05-28T08:18:46.999Z</time>
      </trkpt>
      <trkpt lat="44.00582" lon="3.5008">
        <ele>884.7</ele>
        <time>2026-05-28T08:18:47.999Z</time>
      </trkpt>
      <trkpt lat="44.00582" lon="3.50081">
        <ele>884.9</ele>
        <time>2026-05-28T08:18:48.999Z</time>
      </trkpt>
      <trkpt lat="44.00582" lon="3.50082">
        <ele>884.9</ele>
        <time>2026-05-28T08:18:49.999Z</time>
      </trkpt>
      <trkpt lat="44.00582" lon="3.50083">
        <ele>884.9</ele>
        <time>2026-05-28T08:18:50.999Z</time>
      </trkpt>
      <trkpt lat="44.00581" lon="3.50083">
        <ele>884.5</ele>
        <time>2026-05-28T08:18:51.999Z</time>
      </trkpt>
      <trkpt lat="44.00581" lon="3.50082">
        <ele>884.4</ele>
        <time>2026-05-28T08:18:52.999Z</time>
      </trkpt>
      <trkpt lat="44.0058" lon="3.50082">
        <ele>884.3</ele>
        <time>2026-05-28T08:18:53.999Z</time>
      </trkpt>
      <trkpt lat="44.0058" lon="3.50083">
        <ele>884.5</ele>
        <time>2026-05-28T08:18:54.999Z</time>
      </trkpt>
      <trkpt lat="44.0058" lon="3.50085">
        <ele>884.4</ele>
        <time>2026-05-28T08:18:55.999Z</time>
      </trkpt>
      <trkpt lat="44.00579" lon="3.50087">
        <ele>884.6</ele>
        <time>2026-05-28T08:18:56.999Z</time>
      </trkpt>
      <trkpt lat="44.00579" lon="3.50088">
        <ele>884.8</ele>
        <time>2026-05-28T08:18:57.999Z</time>
      </trkpt>
      <trkpt lat="44.00578" lon="3.50089">
        <ele>884.6</ele>
        <time>2026-05-28T08:18:58.999Z</time>
      </trkpt>
      <trkpt lat="44.00578" lon="3.5009">
        <ele>884.9</ele>
        <time>2026-05-28T08:18:59.999Z</time>
      </trkpt>
      <trkpt lat="44.00578" lon="3.5009">
        <ele>885.1</ele>
        <time>2026-05-28T08:19:00.999Z</time>
      </trkpt>
      <trkpt lat="44.00578" lon="3.5009">
        <ele>885.1</ele>
        <time>2026-05-28T08:19:01.999Z</time>
      </trkpt>
      <trkpt lat="44.00577" lon="3.5009">
        <ele>885</ele>
        <time>2026-05-28T08:19:02.999Z</time>
      </trkpt>
      <trkpt lat="44.00577" lon="3.5009">
        <ele>884.8</ele>
        <time>2026-05-28T08:19:03.999Z</time>
      </trkpt>
      <trkpt lat="44.00576" lon="3.5009">
        <ele>884.8</ele>
        <time>2026-05-28T08:19:04.999Z</time>
      </trkpt>
      <trkpt lat="44.00576" lon="3.5009">
        <ele>885.3</ele>
        <time>2026-05-28T08:19:05.999Z</time>
      </trkpt>
      <trkpt lat="44.00575" lon="3.5009">
        <ele>885.4</ele>
        <time>2026-05-28T08:19:06.999Z</time>
      </trkpt>
      <trkpt lat="44.00575" lon="3.5009">
        <ele>885.3</ele>
        <time>2026-05-28T08:19:07.999Z</time>
      </trkpt>
      <trkpt lat="44.00574" lon="3.50091">
        <ele>885.2</ele>
        <time>2026-05-28T08:19:08.999Z</time>
      </trkpt>
      <trkpt lat="44.00574" lon="3.50091">
        <ele>885.2</ele>
        <time>2026-05-28T08:19:09.999Z</time>
      </trkpt>
      <trkpt lat="44.00573" lon="3.50091">
        <ele>885.1</ele>
        <time>2026-05-28T08:19:10.999Z</time>
      </trkpt>
      <trkpt lat="44.00572" lon="3.50093">
        <ele>885.1</ele>
        <time>2026-05-28T08:19:11.999Z</time>
      </trkpt>
      <trkpt lat="44.00572" lon="3.50094">
        <ele>885.1</ele>
        <time>2026-05-28T08:19:12.999Z</time>
      </trkpt>
      <trkpt lat="44.00571" lon="3.50094">
        <ele>885</ele>
        <time>2026-05-28T08:19:13.999Z</time>
      </trkpt>
      <trkpt lat="44.00571" lon="3.50094">
        <ele>885</ele>
        <time>2026-05-28T08:19:14.999Z</time>
      </trkpt>
      <trkpt lat="44.00571" lon="3.50094">
        <ele>885</ele>
        <time>2026-05-28T08:19:15.999Z</time>
      </trkpt>
      <trkpt lat="44.0057" lon="3.50093">
        <ele>885.1</ele>
        <time>2026-05-28T08:19:16.999Z</time>
      </trkpt>
      <trkpt lat="44.00569" lon="3.50093">
        <ele>885.1</ele>
        <time>2026-05-28T08:19:17.999Z</time>
      </trkpt>
      <trkpt lat="44.00568" lon="3.50092">
        <ele>885.2</ele>
        <time>2026-05-28T08:19:18.999Z</time>
      </trkpt>
      <trkpt lat="44.00568" lon="3.50092">
        <ele>885.4</ele>
        <time>2026-05-28T08:19:19.999Z</time>
      </trkpt>
      <trkpt lat="44.00568" lon="3.50093">
        <ele>885.5</ele>
        <time>2026-05-28T08:19:20.999Z</time>
      </trkpt>
      <trkpt lat="44.00567" lon="3.50093">
        <ele>885.5</ele>
        <time>2026-05-28T08:19:21.999Z</time>
      </trkpt>
      <trkpt lat="44.00567" lon="3.50093">
        <ele>885.3</ele>
        <time>2026-05-28T08:19:22.999Z</time>
      </trkpt>
      <trkpt lat="44.00567" lon="3.50092">
        <ele>885.8</ele>
        <time>2026-05-28T08:19:23.999Z</time>
      </trkpt>
      <trkpt lat="44.00567" lon="3.50093">
        <ele>886</ele>
        <time>2026-05-28T08:19:24.999Z</time>
      </trkpt>
      <trkpt lat="44.00567" lon="3.50093">
        <ele>886.1</ele>
        <time>2026-05-28T08:19:25.999Z</time>
      </trkpt>
      <trkpt lat="44.00567" lon="3.50094">
        <ele>886.1</ele>
        <time>2026-05-28T08:19:26.999Z</time>
      </trkpt>
      <trkpt lat="44.00567" lon="3.50094">
        <ele>886.2</ele>
        <time>2026-05-28T08:19:27.999Z</time>
      </trkpt>
      <trkpt lat="44.00566" lon="3.50094">
        <ele>886.2</ele>
        <time>2026-05-28T08:19:28.999Z</time>
      </trkpt>
      <trkpt lat="44.00566" lon="3.50094">
        <ele>886.3</ele>
        <time>2026-05-28T08:19:29.999Z</time>
      </trkpt>
      <trkpt lat="44.00566" lon="3.50094">
        <ele>886.5</ele>
        <time>2026-05-28T08:19:30.999Z</time>
      </trkpt>
      <trkpt lat="44.00566" lon="3.50094">
        <ele>886.7</ele>
        <time>2026-05-28T08:19:31.999Z</time>
      </trkpt>
      <trkpt lat="44.00565" lon="3.50093">
        <ele>886.9</ele>
        <time>2026-05-28T08:19:32.999Z</time>
      </trkpt>
      <trkpt lat="44.00565" lon="3.50095">
        <ele>887.3</ele>
        <time>2026-05-28T08:19:33.999Z</time>
      </trkpt>
      <trkpt lat="44.00565" lon="3.50096">
        <ele>887.6</ele>
        <time>2026-05-28T08:19:34.999Z</time>
      </trkpt>
      <trkpt lat="44.00564" lon="3.50096">
        <ele>887.7</ele>
        <time>2026-05-28T08:19:35.999Z</time>
      </trkpt>
      <trkpt lat="44.00564" lon="3.50097">
        <ele>888</ele>
        <time>2026-05-28T08:19:36.999Z</time>
      </trkpt>
      <trkpt lat="44.00563" lon="3.50097">
        <ele>888.3</ele>
        <time>2026-05-28T08:19:37.999Z</time>
      </trkpt>
      <trkpt lat="44.00562" lon="3.50097">
        <ele>888.5</ele>
        <time>2026-05-28T08:19:38.999Z</time>
      </trkpt>
      <trkpt lat="44.00562" lon="3.50096">
        <ele>888.9</ele>
        <time>2026-05-28T08:19:39.999Z</time>
      </trkpt>
      <trkpt lat="44.00561" lon="3.50097">
        <ele>889.1</ele>
        <time>2026-05-28T08:19:40.999Z</time>
      </trkpt>
      <trkpt lat="44.00561" lon="3.50097">
        <ele>889.4</ele>
        <time>2026-05-28T08:19:41.999Z</time>
      </trkpt>
      <trkpt lat="44.0056" lon="3.50097">
        <ele>889.8</ele>
        <time>2026-05-28T08:19:42.999Z</time>
      </trkpt>
      <trkpt lat="44.00559" lon="3.50096">
        <ele>890</ele>
        <time>2026-05-28T08:19:43.999Z</time>
      </trkpt>
      <trkpt lat="44.00558" lon="3.50095">
        <ele>890</ele>
        <time>2026-05-28T08:19:44.999Z</time>
      </trkpt>
      <trkpt lat="44.00558" lon="3.50094">
        <ele>890.2</ele>
        <time>2026-05-28T08:19:45.999Z</time>
      </trkpt>
      <trkpt lat="44.00558" lon="3.50092">
        <ele>890.6</ele>
        <time>2026-05-28T08:19:46.999Z</time>
      </trkpt>
      <trkpt lat="44.00557" lon="3.50092">
        <ele>890.4</ele>
        <time>2026-05-28T08:19:47.999Z</time>
      </trkpt>
      <trkpt lat="44.00557" lon="3.50092">
        <ele>890.5</ele>
        <time>2026-05-28T08:19:48.999Z</time>
      </trkpt>
      <trkpt lat="44.00555" lon="3.50092">
        <ele>890.5</ele>
        <time>2026-05-28T08:19:49.999Z</time>
      </trkpt>
      <trkpt lat="44.00555" lon="3.50093">
        <ele>890.6</ele>
        <time>2026-05-28T08:19:50.999Z</time>
      </trkpt>
      <trkpt lat="44.00555" lon="3.50094">
        <ele>890.6</ele>
        <time>2026-05-28T08:19:51.999Z</time>
      </trkpt>
      <trkpt lat="44.00554" lon="3.50094">
        <ele>890.6</ele>
        <time>2026-05-28T08:19:52.999Z</time>
      </trkpt>
      <trkpt lat="44.00554" lon="3.50094">
        <ele>890.7</ele>
        <time>2026-05-28T08:19:53.999Z</time>
      </trkpt>
      <trkpt lat="44.00554" lon="3.50094">
        <ele>890.7</ele>
        <time>2026-05-28T08:19:54.999Z</time>
      </trkpt>
      <trkpt lat="44.00554" lon="3.50094">
        <ele>890.7</ele>
        <time>2026-05-28T08:19:55.999Z</time>
      </trkpt>
      <trkpt lat="44.00554" lon="3.50094">
        <ele>890.6</ele>
        <time>2026-05-28T08:19:56.999Z</time>
      </trkpt>
      <trkpt lat="44.00554" lon="3.50094">
        <ele>890.5</ele>
        <time>2026-05-28T08:19:57.999Z</time>
      </trkpt>
      <trkpt lat="44.00554" lon="3.50094">
        <ele>890.5</ele>
        <time>2026-05-28T08:19:58.999Z</time>
      </trkpt>
      <trkpt lat="44.00554" lon="3.50094">
        <ele>890.5</ele>
        <time>2026-05-28T08:19:59.999Z</time>
      </trkpt>
      <trkpt lat="44.00554" lon="3.50094">
        <ele>890.3</ele>
        <time>2026-05-28T08:20:00.999Z</time>
      </trkpt>
      <trkpt lat="44.00554" lon="3.50094">
        <ele>890.2</ele>
        <time>2026-05-28T08:20:01.999Z</time>
      </trkpt>
      <trkpt lat="44.00555" lon="3.50095">
        <ele>890</ele>
        <time>2026-05-28T08:20:02.999Z</time>
      </trkpt>
      <trkpt lat="44.00555" lon="3.50094">
        <ele>890.1</ele>
        <time>2026-05-28T08:20:03.999Z</time>
      </trkpt>
      <trkpt lat="44.00555" lon="3.50093">
        <ele>890.1</ele>
        <time>2026-05-28T08:20:04.999Z</time>
      </trkpt>
      <trkpt lat="44.00555" lon="3.50093">
        <ele>890.3</ele>
        <time>2026-05-28T08:20:05.999Z</time>
      </trkpt>
      <trkpt lat="44.00555" lon="3.50093">
        <ele>890.8</ele>
        <time>2026-05-28T08:20:06.999Z</time>
      </trkpt>
      <trkpt lat="44.00555" lon="3.50093">
        <ele>891.3</ele>
        <time>2026-05-28T08:20:07.999Z</time>
      </trkpt>
      <trkpt lat="44.00555" lon="3.50093">
        <ele>891.5</ele>
        <time>2026-05-28T08:20:08.999Z</time>
      </trkpt>
      <trkpt lat="44.00555" lon="3.50093">
        <ele>891.4</ele>
        <time>2026-05-28T08:20:09.999Z</time>
      </trkpt>
      <trkpt lat="44.00555" lon="3.50093">
        <ele>891.5</ele>
        <time>2026-05-28T08:20:10.999Z</time>
      </trkpt>
      <trkpt lat="44.00555" lon="3.50093">
        <ele>891.5</ele>
        <time>2026-05-28T08:20:11.999Z</time>
      </trkpt>
      <trkpt lat="44.00555" lon="3.50093">
        <ele>891.3</ele>
        <time>2026-05-28T08:20:12.999Z</time>
      </trkpt>
      <trkpt lat="44.00555" lon="3.50093">
        <ele>891.2</ele>
        <time>2026-05-28T08:20:13.999Z</time>
      </trkpt>
      <trkpt lat="44.00555" lon="3.50093">
        <ele>891.1</ele>
        <time>2026-05-28T08:20:14.999Z</time>
      </trkpt>
      <trkpt lat="44.00555" lon="3.50093">
        <ele>891.3</ele>
        <time>2026-05-28T08:20:15.999Z</time>
      </trkpt>
      <trkpt lat="44.00555" lon="3.50093">
        <ele>891.2</ele>
        <time>2026-05-28T08:20:16.999Z</time>
      </trkpt>
      <trkpt lat="44.00554" lon="3.50093">
        <ele>891.2</ele>
        <time>2026-05-28T08:20:17.999Z</time>
      </trkpt>
      <trkpt lat="44.00554" lon="3.50093">
        <ele>891.2</ele>
        <time>2026-05-28T08:20:18.999Z</time>
      </trkpt>
      <trkpt lat="44.00554" lon="3.50093">
        <ele>891.2</ele>
        <time>2026-05-28T08:20:19.999Z</time>
      </trkpt>
      <trkpt lat="44.00555" lon="3.50094">
        <ele>891.3</ele>
        <time>2026-05-28T08:20:20.999Z</time>
      </trkpt>
      <trkpt lat="44.00554" lon="3.50093">
        <ele>891.2</ele>
        <time>2026-05-28T08:20:21.999Z</time>
      </trkpt>
      <trkpt lat="44.00554" lon="3.50092">
        <ele>891.1</ele>
        <time>2026-05-28T08:20:22.999Z</time>
      </trkpt>
      <trkpt lat="44.00553" lon="3.50091">
        <ele>891.2</ele>
        <time>2026-05-28T08:20:23.999Z</time>
      </trkpt>
      <trkpt lat="44.00553" lon="3.5009">
        <ele>891.2</ele>
        <time>2026-05-28T08:20:24.999Z</time>
      </trkpt>
      <trkpt lat="44.00553" lon="3.50089">
        <ele>891.3</ele>
        <time>2026-05-28T08:20:25.999Z</time>
      </trkpt>
      <trkpt lat="44.00552" lon="3.50086">
        <ele>891.5</ele>
        <time>2026-05-28T08:20:26.999Z</time>
      </trkpt>
      <trkpt lat="44.00552" lon="3.50084">
        <ele>891.8</ele>
        <time>2026-05-28T08:20:27.999Z</time>
      </trkpt>
      <trkpt lat="44.00552" lon="3.50083">
        <ele>891.9</ele>
        <time>2026-05-28T08:20:28.999Z</time>
      </trkpt>
      <trkpt lat="44.00552" lon="3.50084">
        <ele>892</ele>
        <time>2026-05-28T08:20:29.999Z</time>
      </trkpt>
      <trkpt lat="44.00552" lon="3.50084">
        <ele>892.3</ele>
        <time>2026-05-28T08:20:30.999Z</time>
      </trkpt>
      <trkpt lat="44.00552" lon="3.50084">
        <ele>892.5</ele>
        <time>2026-05-28T08:20:31.999Z</time>
      </trkpt>
      <trkpt lat="44.00552" lon="3.50084">
        <ele>893</ele>
        <time>2026-05-28T08:20:32.999Z</time>
      </trkpt>
      <trkpt lat="44.00552" lon="3.50084">
        <ele>893.4</ele>
        <time>2026-05-28T08:20:33.999Z</time>
      </trkpt>
      <trkpt lat="44.00552" lon="3.50084">
        <ele>892.5</ele>
        <time>2026-05-28T08:20:34.999Z</time>
      </trkpt>
      <trkpt lat="44.00552" lon="3.50084">
        <ele>892.6</ele>
        <time>2026-05-28T08:20:35.999Z</time>
      </trkpt>
      <trkpt lat="44.00552" lon="3.50084">
        <ele>892.7</ele>
        <time>2026-05-28T08:20:36.999Z</time>
      </trkpt>
      <trkpt lat="44.00552" lon="3.50084">
        <ele>892.8</ele>
        <time>2026-05-28T08:20:37.999Z</time>
      </trkpt>
      <trkpt lat="44.00553" lon="3.50084">
        <ele>893.3</ele>
        <time>2026-05-28T08:20:38.999Z</time>
      </trkpt>
      <trkpt lat="44.00553" lon="3.50084">
        <ele>893.6</ele>
        <time>2026-05-28T08:20:39.999Z</time>
      </trkpt>
      <trkpt lat="44.00553" lon="3.50084">
        <ele>893.9</ele>
        <time>2026-05-28T08:20:40.999Z</time>
      </trkpt>
      <trkpt lat="44.00552" lon="3.50084">
        <ele>894.4</ele>
        <time>2026-05-28T08:20:41.999Z</time>
      </trkpt>
      <trkpt lat="44.00553" lon="3.50084">
        <ele>895.1</ele>
        <time>2026-05-28T08:20:42.999Z</time>
      </trkpt>
      <trkpt lat="44.00553" lon="3.50084">
        <ele>895.6</ele>
        <time>2026-05-28T08:20:43.999Z</time>
      </trkpt>
      <trkpt lat="44.00553" lon="3.50084">
        <ele>895.9</ele>
        <time>2026-05-28T08:20:44.999Z</time>
      </trkpt>
      <trkpt lat="44.00553" lon="3.50084">
        <ele>896.3</ele>
        <time>2026-05-28T08:20:45.999Z</time>
      </trkpt>
      <trkpt lat="44.00553" lon="3.50084">
        <ele>896.4</ele>
        <time>2026-05-28T08:20:46.999Z</time>
      </trkpt>
      <trkpt lat="44.00553" lon="3.50084">
        <ele>896.4</ele>
        <time>2026-05-28T08:20:47.999Z</time>
      </trkpt>
      <trkpt lat="44.00552" lon="3.50083">
        <ele>896.9</ele>
        <time>2026-05-28T08:20:48.999Z</time>
      </trkpt>
      <trkpt lat="44.00552" lon="3.50083">
        <ele>897.4</ele>
        <time>2026-05-28T08:20:49.999Z</time>
      </trkpt>
      <trkpt lat="44.00552" lon="3.50083">
        <ele>897.9</ele>
        <time>2026-05-28T08:20:50.999Z</time>
      </trkpt>
      <trkpt lat="44.00552" lon="3.50083">
        <ele>898.4</ele>
        <time>2026-05-28T08:20:51.999Z</time>
      </trkpt>
      <trkpt lat="44.00552" lon="3.50082">
        <ele>899.1</ele>
        <time>2026-05-28T08:20:52.999Z</time>
      </trkpt>
      <trkpt lat="44.00552" lon="3.50082">
        <ele>899.9</ele>
        <time>2026-05-28T08:20:53.999Z</time>
      </trkpt>
      <trkpt lat="44.00552" lon="3.50082">
        <ele>900.7</ele>
        <time>2026-05-28T08:20:54.999Z</time>
      </trkpt>
      <trkpt lat="44.00552" lon="3.50082">
        <ele>901.5</ele>
        <time>2026-05-28T08:20:55.999Z</time>
      </trkpt>
      <trkpt lat="44.00552" lon="3.50083">
        <ele>902.4</ele>
        <time>2026-05-28T08:20:56.999Z</time>
      </trkpt>
      <trkpt lat="44.00552" lon="3.50083">
        <ele>902.9</ele>
        <time>2026-05-28T08:20:57.999Z</time>
      </trkpt>
      <trkpt lat="44.00552" lon="3.50084">
        <ele>903.6</ele>
        <time>2026-05-28T08:20:58.999Z</time>
      </trkpt>
      <trkpt lat="44.00552" lon="3.50084">
        <ele>904.3</ele>
        <time>2026-05-28T08:20:59.999Z</time>
      </trkpt>
      <trkpt lat="44.00551" lon="3.50085">
        <ele>904.7</ele>
        <time>2026-05-28T08:21:00.999Z</time>
      </trkpt>
      <trkpt lat="44.00551" lon="3.50086">
        <ele>905.3</ele>
        <time>2026-05-28T08:21:01.999Z</time>
      </trkpt>
      <trkpt lat="44.00551" lon="3.50086">
        <ele>905.2</ele>
        <time>2026-05-28T08:21:02.999Z</time>
      </trkpt>
      <trkpt lat="44.0055" lon="3.50086">
        <ele>905.2</ele>
        <time>2026-05-28T08:21:03.999Z</time>
      </trkpt>
      <trkpt lat="44.0055" lon="3.50086">
        <ele>905.2</ele>
        <time>2026-05-28T08:21:04.999Z</time>
      </trkpt>
      <trkpt lat="44.0055" lon="3.50086">
        <ele>905.3</ele>
        <time>2026-05-28T08:21:05.999Z</time>
      </trkpt>
      <trkpt lat="44.0055" lon="3.50086">
        <ele>905.4</ele>
        <time>2026-05-28T08:21:06.999Z</time>
      </trkpt>
      <trkpt lat="44.0055" lon="3.50086">
        <ele>905.4</ele>
        <time>2026-05-28T08:21:07.999Z</time>
      </trkpt>
      <trkpt lat="44.0055" lon="3.50086">
        <ele>905.2</ele>
        <time>2026-05-28T08:21:08.999Z</time>
      </trkpt>
      <trkpt lat="44.0055" lon="3.50086">
        <ele>905.1</ele>
        <time>2026-05-28T08:21:09.999Z</time>
      </trkpt>
      <trkpt lat="44.0055" lon="3.50086">
        <ele>905.3</ele>
        <time>2026-05-28T08:21:10.999Z</time>
      </trkpt>
      <trkpt lat="44.0055" lon="3.50086">
        <ele>905.3</ele>
        <time>2026-05-28T08:21:11.999Z</time>
      </trkpt>
      <trkpt lat="44.0055" lon="3.50085">
        <ele>905.4</ele>
        <time>2026-05-28T08:21:12.999Z</time>
      </trkpt>
      <trkpt lat="44.0055" lon="3.50085">
        <ele>905.5</ele>
        <time>2026-05-28T08:21:13.999Z</time>
      </trkpt>
      <trkpt lat="44.0055" lon="3.50085">
        <ele>905.6</ele>
        <time>2026-05-28T08:21:14.999Z</time>
      </trkpt>
      <trkpt lat="44.0055" lon="3.50085">
        <ele>905.7</ele>
        <time>2026-05-28T08:21:15.999Z</time>
      </trkpt>
      <trkpt lat="44.0055" lon="3.50085">
        <ele>905.8</ele>
        <time>2026-05-28T08:21:16.999Z</time>
      </trkpt>
      <trkpt lat="44.0055" lon="3.50085">
        <ele>906</ele>
        <time>2026-05-28T08:21:17.999Z</time>
      </trkpt>
      <trkpt lat="44.0055" lon="3.50085">
        <ele>906.3</ele>
        <time>2026-05-28T08:21:18.999Z</time>
      </trkpt>
      <trkpt lat="44.0055" lon="3.50085">
        <ele>906.3</ele>
        <time>2026-05-28T08:21:19.999Z</time>
      </trkpt>
      <trkpt lat="44.0055" lon="3.50084">
        <ele>906.2</ele>
        <time>2026-05-28T08:21:20.999Z</time>
      </trkpt>
      <trkpt lat="44.0055" lon="3.50084">
        <ele>906.2</ele>
        <time>2026-05-28T08:21:21.999Z</time>
      </trkpt>
      <trkpt lat="44.00549" lon="3.50083">
        <ele>906.2</ele>
        <time>2026-05-28T08:21:22.999Z</time>
      </trkpt>
      <trkpt lat="44.00549" lon="3.50083">
        <ele>906.1</ele>
        <time>2026-05-28T08:21:23.999Z</time>
      </trkpt>
      <trkpt lat="44.00549" lon="3.50083">
        <ele>905.9</ele>
        <time>2026-05-28T08:21:24.999Z</time>
      </trkpt>
      <trkpt lat="44.00549" lon="3.50082">
        <ele>905.9</ele>
        <time>2026-05-28T08:21:26.000Z</time>
      </trkpt>
      <trkpt lat="44.00549" lon="3.50083">
        <ele>906</ele>
        <time>2026-05-28T08:21:27.000Z</time>
      </trkpt>
      <trkpt lat="44.00548" lon="3.50083">
        <ele>905.9</ele>
        <time>2026-05-28T08:21:28.000Z</time>
      </trkpt>
      <trkpt lat="44.00548" lon="3.50083">
        <ele>906.4</ele>
        <time>2026-05-28T08:21:29.000Z</time>
      </trkpt>
      <trkpt lat="44.00548" lon="3.50083">
        <ele>906.6</ele>
        <time>2026-05-28T08:21:30.000Z</time>
      </trkpt>
      <trkpt lat="44.00549" lon="3.50083">
        <ele>906.7</ele>
        <time>2026-05-28T08:21:31.000Z</time>
      </trkpt>
      <trkpt lat="44.00549" lon="3.50083">
        <ele>907</ele>
        <time>2026-05-28T08:21:32.000Z</time>
      </trkpt>
      <trkpt lat="44.00549" lon="3.50083">
        <ele>907</ele>
        <time>2026-05-28T08:21:33.000Z</time>
      </trkpt>
      <trkpt lat="44.00549" lon="3.50083">
        <ele>907.1</ele>
        <time>2026-05-28T08:21:34.000Z</time>
      </trkpt>
      <trkpt lat="44.00549" lon="3.50083">
        <ele>907.1</ele>
        <time>2026-05-28T08:21:35.000Z</time>
      </trkpt>
      <trkpt lat="44.00549" lon="3.50083">
        <ele>907.3</ele>
        <time>2026-05-28T08:21:36.000Z</time>
      </trkpt>
      <trkpt lat="44.00549" lon="3.50083">
        <ele>907.5</ele>
        <time>2026-05-28T08:21:37.000Z</time>
      </trkpt>
      <trkpt lat="44.00548" lon="3.50083">
        <ele>907.5</ele>
        <time>2026-05-28T08:21:38.000Z</time>
      </trkpt>
      <trkpt lat="44.00548" lon="3.50082">
        <ele>908.3</ele>
        <time>2026-05-28T08:21:39.000Z</time>
      </trkpt>
      <trkpt lat="44.00548" lon="3.50082">
        <ele>908.9</ele>
        <time>2026-05-28T08:21:40.000Z</time>
      </trkpt>
      <trkpt lat="44.00548" lon="3.50082">
        <ele>909.2</ele>
        <time>2026-05-28T08:21:41.000Z</time>
      </trkpt>
      <trkpt lat="44.00548" lon="3.50082">
        <ele>909.5</ele>
        <time>2026-05-28T08:21:42.000Z</time>
      </trkpt>
      <trkpt lat="44.00548" lon="3.50082">
        <ele>909.9</ele>
        <time>2026-05-28T08:21:43.000Z</time>
      </trkpt>
      <trkpt lat="44.00548" lon="3.50082">
        <ele>910.1</ele>
        <time>2026-05-28T08:21:44.000Z</time>
      </trkpt>
      <trkpt lat="44.00548" lon="3.50082">
        <ele>910.7</ele>
        <time>2026-05-28T08:21:45.000Z</time>
      </trkpt>
      <trkpt lat="44.00548" lon="3.50082">
        <ele>910.9</ele>
        <time>2026-05-28T08:21:46.000Z</time>
      </trkpt>
      <trkpt lat="44.00548" lon="3.50083">
        <ele>911.2</ele>
        <time>2026-05-28T08:21:47.000Z</time>
      </trkpt>
      <trkpt lat="44.00548" lon="3.50082">
        <ele>911.3</ele>
        <time>2026-05-28T08:21:48.000Z</time>
      </trkpt>
      <trkpt lat="44.00548" lon="3.50083">
        <ele>911.4</ele>
        <time>2026-05-28T08:21:49.000Z</time>
      </trkpt>
      <trkpt lat="44.00548" lon="3.50083">
        <ele>911</ele>
        <time>2026-05-28T08:21:50.000Z</time>
      </trkpt>
      <trkpt lat="44.00547" lon="3.50083">
        <ele>910.6</ele>
        <time>2026-05-28T08:21:52.000Z</time>
      </trkpt>
      <trkpt lat="44.00546" lon="3.50083">
        <ele>910.6</ele>
        <time>2026-05-28T08:21:53.000Z</time>
      </trkpt>
      <trkpt lat="44.00545" lon="3.50084">
        <ele>910.7</ele>
        <time>2026-05-28T08:21:54.000Z</time>
      </trkpt>
      <trkpt lat="44.00544" lon="3.50085">
        <ele>910.9</ele>
        <time>2026-05-28T08:21:55.000Z</time>
      </trkpt>
      <trkpt lat="44.00544" lon="3.50086">
        <ele>911</ele>
        <time>2026-05-28T08:21:56.000Z</time>
      </trkpt>
      <trkpt lat="44.00543" lon="3.50086">
        <ele>911.2</ele>
        <time>2026-05-28T08:21:57.000Z</time>
      </trkpt>
      <trkpt lat="44.00544" lon="3.50085">
        <ele>910.7</ele>
        <time>2026-05-28T08:21:58.000Z</time>
      </trkpt>
      <trkpt lat="44.00544" lon="3.50086">
        <ele>910.8</ele>
        <time>2026-05-28T08:21:59.000Z</time>
      </trkpt>
      <trkpt lat="44.00544" lon="3.50086">
        <ele>910.9</ele>
        <time>2026-05-28T08:22:00.000Z</time>
      </trkpt>
      <trkpt lat="44.00544" lon="3.50086">
        <ele>911.1</ele>
        <time>2026-05-28T08:22:01.000Z</time>
      </trkpt>
      <trkpt lat="44.00544" lon="3.50086">
        <ele>911.2</ele>
        <time>2026-05-28T08:22:02.000Z</time>
      </trkpt>
      <trkpt lat="44.00545" lon="3.50085">
        <ele>911.4</ele>
        <time>2026-05-28T08:22:03.000Z</time>
      </trkpt>
      <trkpt lat="44.00545" lon="3.50085">
        <ele>911.4</ele>
        <time>2026-05-28T08:22:04.000Z</time>
      </trkpt>
      <trkpt lat="44.00545" lon="3.50085">
        <ele>911.3</ele>
        <time>2026-05-28T08:22:05.000Z</time>
      </trkpt>
      <trkpt lat="44.00545" lon="3.50085">
        <ele>911.3</ele>
        <time>2026-05-28T08:22:06.000Z</time>
      </trkpt>
      <trkpt lat="44.00546" lon="3.50084">
        <ele>911.2</ele>
        <time>2026-05-28T08:22:07.000Z</time>
      </trkpt>
      <trkpt lat="44.00546" lon="3.50085">
        <ele>911</ele>
        <time>2026-05-28T08:22:08.000Z</time>
      </trkpt>
      <trkpt lat="44.00546" lon="3.50085">
        <ele>910.7</ele>
        <time>2026-05-28T08:22:09.000Z</time>
      </trkpt>
      <trkpt lat="44.00546" lon="3.50085">
        <ele>910.8</ele>
        <time>2026-05-28T08:22:10.000Z</time>
      </trkpt>
      <trkpt lat="44.00546" lon="3.50085">
        <ele>910.7</ele>
        <time>2026-05-28T08:22:11.000Z</time>
      </trkpt>
      <trkpt lat="44.00546" lon="3.50085">
        <ele>910.6</ele>
        <time>2026-05-28T08:22:12.000Z</time>
      </trkpt>
      <trkpt lat="44.00546" lon="3.50086">
        <ele>910.5</ele>
        <time>2026-05-28T08:22:13.000Z</time>
      </trkpt>
      <trkpt lat="44.00545" lon="3.50086">
        <ele>910.2</ele>
        <time>2026-05-28T08:22:14.000Z</time>
      </trkpt>
      <trkpt lat="44.00545" lon="3.50086">
        <ele>910</ele>
        <time>2026-05-28T08:22:15.000Z</time>
      </trkpt>
      <trkpt lat="44.00545" lon="3.50086">
        <ele>909.8</ele>
        <time>2026-05-28T08:22:16.000Z</time>
      </trkpt>
      <trkpt lat="44.00545" lon="3.50086">
        <ele>909.7</ele>
        <time>2026-05-28T08:22:17.000Z</time>
      </trkpt>
      <trkpt lat="44.00545" lon="3.50086">
        <ele>909.6</ele>
        <time>2026-05-28T08:22:18.000Z</time>
      </trkpt>
      <trkpt lat="44.00545" lon="3.50087">
        <ele>909.3</ele>
        <time>2026-05-28T08:22:19.000Z</time>
      </trkpt>
      <trkpt lat="44.00545" lon="3.50087">
        <ele>909.2</ele>
        <time>2026-05-28T08:22:20.000Z</time>
      </trkpt>
      <trkpt lat="44.00544" lon="3.50087">
        <ele>908.9</ele>
        <time>2026-05-28T08:22:21.000Z</time>
      </trkpt>
      <trkpt lat="44.00544" lon="3.50088">
        <ele>908.4</ele>
        <time>2026-05-28T08:22:22.000Z</time>
      </trkpt>
      <trkpt lat="44.00544" lon="3.50088">
        <ele>908</ele>
        <time>2026-05-28T08:22:23.000Z</time>
      </trkpt>
      <trkpt lat="44.00544" lon="3.50088">
        <ele>907.5</ele>
        <time>2026-05-28T08:22:24.000Z</time>
      </trkpt>
      <trkpt lat="44.00544" lon="3.50088">
        <ele>907.2</ele>
        <time>2026-05-28T08:22:25.000Z</time>
      </trkpt>
      <trkpt lat="44.00544" lon="3.50088">
        <ele>907</ele>
        <time>2026-05-28T08:22:26.000Z</time>
      </trkpt>
      <trkpt lat="44.00544" lon="3.50088">
        <ele>907.1</ele>
        <time>2026-05-28T08:22:27.000Z</time>
      </trkpt>
      <trkpt lat="44.00544" lon="3.50088">
        <ele>907.1</ele>
        <time>2026-05-28T08:22:28.000Z</time>
      </trkpt>
      <trkpt lat="44.00544" lon="3.50088">
        <ele>906.9</ele>
        <time>2026-05-28T08:22:29.000Z</time>
      </trkpt>
      <trkpt lat="44.00544" lon="3.50088">
        <ele>906.7</ele>
        <time>2026-05-28T08:22:30.000Z</time>
      </trkpt>
      <trkpt lat="44.00544" lon="3.50088">
        <ele>906.7</ele>
        <time>2026-05-28T08:22:31.000Z</time>
      </trkpt>
      <trkpt lat="44.00544" lon="3.50088">
        <ele>906.5</ele>
        <time>2026-05-28T08:22:33.000Z</time>
      </trkpt>
      <trkpt lat="44.00544" lon="3.50088">
        <ele>906.5</ele>
        <time>2026-05-28T08:22:34.000Z</time>
      </trkpt>
      <trkpt lat="44.00544" lon="3.50088">
        <ele>906.4</ele>
        <time>2026-05-28T08:22:35.000Z</time>
      </trkpt>
      <trkpt lat="44.00544" lon="3.50088">
        <ele>906.4</ele>
        <time>2026-05-28T08:22:36.000Z</time>
      </trkpt>
      <trkpt lat="44.00544" lon="3.50087">
        <ele>906.7</ele>
        <time>2026-05-28T08:22:37.000Z</time>
      </trkpt>
      <trkpt lat="44.00544" lon="3.50087">
        <ele>906.5</ele>
        <time>2026-05-28T08:22:38.000Z</time>
      </trkpt>
      <trkpt lat="44.00544" lon="3.50087">
        <ele>906.7</ele>
        <time>2026-05-28T08:22:39.000Z</time>
      </trkpt>
      <trkpt lat="44.00544" lon="3.50087">
        <ele>906.7</ele>
        <time>2026-05-28T08:22:40.000Z</time>
      </trkpt>
      <trkpt lat="44.00544" lon="3.50087">
        <ele>906.9</ele>
        <time>2026-05-28T08:22:41.000Z</time>
      </trkpt>
      <trkpt lat="44.00544" lon="3.50087">
        <ele>906.8</ele>
        <time>2026-05-28T08:22:42.000Z</time>
      </trkpt>
      <trkpt lat="44.00544" lon="3.50087">
        <ele>906.7</ele>
        <time>2026-05-28T08:22:44.000Z</time>
      </trkpt>
      <trkpt lat="44.00544" lon="3.50087">
        <ele>906.9</ele>
        <time>2026-05-28T08:22:45.000Z</time>
      </trkpt>
      <trkpt lat="44.00544" lon="3.50087">
        <ele>906.9</ele>
        <time>2026-05-28T08:22:46.000Z</time>
      </trkpt>
      <trkpt lat="44.00543" lon="3.50087">
        <ele>906.9</ele>
        <time>2026-05-28T08:22:47.000Z</time>
      </trkpt>
      <trkpt lat="44.00543" lon="3.50088">
        <ele>906.8</ele>
        <time>2026-05-28T08:22:48.000Z</time>
      </trkpt>
      <trkpt lat="44.00542" lon="3.50089">
        <ele>906.7</ele>
        <time>2026-05-28T08:22:49.000Z</time>
      </trkpt>
      <trkpt lat="44.00542" lon="3.50089">
        <ele>906.6</ele>
        <time>2026-05-28T08:22:50.000Z</time>
      </trkpt>
      <trkpt lat="44.00542" lon="3.5009">
        <ele>906.5</ele>
        <time>2026-05-28T08:22:51.000Z</time>
      </trkpt>
      <trkpt lat="44.00542" lon="3.50091">
        <ele>906.5</ele>
        <time>2026-05-28T08:22:52.000Z</time>
      </trkpt>
      <trkpt lat="44.00541" lon="3.50091">
        <ele>906.4</ele>
        <time>2026-05-28T08:22:53.000Z</time>
      </trkpt>
      <trkpt lat="44.0054" lon="3.50093">
        <ele>906.2</ele>
        <time>2026-05-28T08:22:54.000Z</time>
      </trkpt>
      <trkpt lat="44.0054" lon="3.50093">
        <ele>906.1</ele>
        <time>2026-05-28T08:22:55.000Z</time>
      </trkpt>
      <trkpt lat="44.00538" lon="3.50094">
        <ele>906.1</ele>
        <time>2026-05-28T08:22:56.000Z</time>
      </trkpt>
      <trkpt lat="44.00538" lon="3.50094">
        <ele>906</ele>
        <time>2026-05-28T08:22:57.000Z</time>
      </trkpt>
      <trkpt lat="44.00536" lon="3.50096">
        <ele>905.7</ele>
        <time>2026-05-28T08:22:58.000Z</time>
      </trkpt>
      <trkpt lat="44.00534" lon="3.50098">
        <ele>905.5</ele>
        <time>2026-05-28T08:22:59.000Z</time>
      </trkpt>
      <trkpt lat="44.00535" lon="3.50099">
        <ele>905.2</ele>
        <time>2026-05-28T08:23:00.000Z</time>
      </trkpt>
      <trkpt lat="44.00533" lon="3.50101">
        <ele>905</ele>
        <time>2026-05-28T08:23:01.000Z</time>
      </trkpt>
      <trkpt lat="44.00532" lon="3.50102">
        <ele>905</ele>
        <time>2026-05-28T08:23:02.000Z</time>
      </trkpt>
      <trkpt lat="44.00533" lon="3.501">
        <ele>905.1</ele>
        <time>2026-05-28T08:23:03.000Z</time>
      </trkpt>
      <trkpt lat="44.00533" lon="3.50101">
        <ele>904.9</ele>
        <time>2026-05-28T08:23:04.000Z</time>
      </trkpt>
      <trkpt lat="44.00533" lon="3.50101">
        <ele>904.8</ele>
        <time>2026-05-28T08:23:05.000Z</time>
      </trkpt>
      <trkpt lat="44.00532" lon="3.50102">
        <ele>904.6</ele>
        <time>2026-05-28T08:23:06.000Z</time>
      </trkpt>
      <trkpt lat="44.00532" lon="3.50102">
        <ele>905.7</ele>
        <time>2026-05-28T08:23:07.000Z</time>
      </trkpt>
      <trkpt lat="44.00532" lon="3.50102">
        <ele>905.5</ele>
        <time>2026-05-28T08:23:08.000Z</time>
      </trkpt>
      <trkpt lat="44.00532" lon="3.50102">
        <ele>905.1</ele>
        <time>2026-05-28T08:23:09.000Z</time>
      </trkpt>
      <trkpt lat="44.00531" lon="3.50102">
        <ele>905</ele>
        <time>2026-05-28T08:23:10.000Z</time>
      </trkpt>
      <trkpt lat="44.00531" lon="3.50102">
        <ele>905</ele>
        <time>2026-05-28T08:23:11.000Z</time>
      </trkpt>
      <trkpt lat="44.00532" lon="3.50101">
        <ele>904.7</ele>
        <time>2026-05-28T08:23:12.000Z</time>
      </trkpt>
      <trkpt lat="44.00533" lon="3.50099">
        <ele>903.9</ele>
        <time>2026-05-28T08:23:13.000Z</time>
      </trkpt>
      <trkpt lat="44.00534" lon="3.50097">
        <ele>903.6</ele>
        <time>2026-05-28T08:23:14.000Z</time>
      </trkpt>
      <trkpt lat="44.00535" lon="3.50096">
        <ele>903.2</ele>
        <time>2026-05-28T08:23:15.000Z</time>
      </trkpt>
      <trkpt lat="44.00535" lon="3.50095">
        <ele>902.9</ele>
        <time>2026-05-28T08:23:16.000Z</time>
      </trkpt>
      <trkpt lat="44.00536" lon="3.50094">
        <ele>902.6</ele>
        <time>2026-05-28T08:23:17.000Z</time>
      </trkpt>
      <trkpt lat="44.00536" lon="3.50093">
        <ele>902.5</ele>
        <time>2026-05-28T08:23:18.000Z</time>
      </trkpt>
      <trkpt lat="44.00536" lon="3.50093">
        <ele>902.7</ele>
        <time>2026-05-28T08:23:19.000Z</time>
      </trkpt>
      <trkpt lat="44.00536" lon="3.50093">
        <ele>902.5</ele>
        <time>2026-05-28T08:23:20.000Z</time>
      </trkpt>
      <trkpt lat="44.00536" lon="3.50093">
        <ele>902.3</ele>
        <time>2026-05-28T08:23:21.000Z</time>
      </trkpt>
      <trkpt lat="44.00536" lon="3.50092">
        <ele>902</ele>
        <time>2026-05-28T08:23:22.000Z</time>
      </trkpt>
      <trkpt lat="44.00536" lon="3.50092">
        <ele>901.7</ele>
        <time>2026-05-28T08:23:23.000Z</time>
      </trkpt>
      <trkpt lat="44.00535" lon="3.50093">
        <ele>901.9</ele>
        <time>2026-05-28T08:23:24.000Z</time>
      </trkpt>
      <trkpt lat="44.00535" lon="3.50094">
        <ele>901.9</ele>
        <time>2026-05-28T08:23:25.000Z</time>
      </trkpt>
      <trkpt lat="44.00536" lon="3.50094">
        <ele>901.8</ele>
        <time>2026-05-28T08:23:26.000Z</time>
      </trkpt>
      <trkpt lat="44.00536" lon="3.50094">
        <ele>901.6</ele>
        <time>2026-05-28T08:23:27.000Z</time>
      </trkpt>
      <trkpt lat="44.00536" lon="3.50094">
        <ele>901.6</ele>
        <time>2026-05-28T08:23:28.000Z</time>
      </trkpt>
      <trkpt lat="44.00536" lon="3.50094">
        <ele>901.5</ele>
        <time>2026-05-28T08:23:29.000Z</time>
      </trkpt>
      <trkpt lat="44.00536" lon="3.50094">
        <ele>901.4</ele>
        <time>2026-05-28T08:23:30.000Z</time>
      </trkpt>
      <trkpt lat="44.00536" lon="3.50094">
        <ele>901.7</ele>
        <time>2026-05-28T08:23:31.000Z</time>
      </trkpt>
      <trkpt lat="44.00536" lon="3.50094">
        <ele>901.5</ele>
        <time>2026-05-28T08:23:32.000Z</time>
      </trkpt>
      <trkpt lat="44.00536" lon="3.50093">
        <ele>901.6</ele>
        <time>2026-05-28T08:23:33.000Z</time>
      </trkpt>
      <trkpt lat="44.00536" lon="3.50093">
        <ele>901.9</ele>
        <time>2026-05-28T08:23:34.000Z</time>
      </trkpt>
      <trkpt lat="44.00536" lon="3.50093">
        <ele>902.2</ele>
        <time>2026-05-28T08:23:35.000Z</time>
      </trkpt>
      <trkpt lat="44.00536" lon="3.50093">
        <ele>902.4</ele>
        <time>2026-05-28T08:23:36.000Z</time>
      </trkpt>
      <trkpt lat="44.00535" lon="3.50093">
        <ele>902.8</ele>
        <time>2026-05-28T08:23:37.000Z</time>
      </trkpt>
      <trkpt lat="44.00535" lon="3.50093">
        <ele>903</ele>
        <time>2026-05-28T08:23:38.000Z</time>
      </trkpt>
      <trkpt lat="44.00535" lon="3.50094">
        <ele>903.2</ele>
        <time>2026-05-28T08:23:39.000Z</time>
      </trkpt>
      <trkpt lat="44.00535" lon="3.50094">
        <ele>903.6</ele>
        <time>2026-05-28T08:23:40.000Z</time>
      </trkpt>
      <trkpt lat="44.00535" lon="3.50094">
        <ele>904.1</ele>
        <time>2026-05-28T08:23:41.000Z</time>
      </trkpt>
      <trkpt lat="44.00536" lon="3.50094">
        <ele>904.8</ele>
        <time>2026-05-28T08:23:42.000Z</time>
      </trkpt>
      <trkpt lat="44.00536" lon="3.50093">
        <ele>905.6</ele>
        <time>2026-05-28T08:23:43.000Z</time>
      </trkpt>
      <trkpt lat="44.00536" lon="3.50093">
        <ele>906.4</ele>
        <time>2026-05-28T08:23:44.000Z</time>
      </trkpt>
      <trkpt lat="44.00536" lon="3.50093">
        <ele>907.9</ele>
        <time>2026-05-28T08:23:45.000Z</time>
      </trkpt>
      <trkpt lat="44.00536" lon="3.50093">
        <ele>909.1</ele>
        <time>2026-05-28T08:23:46.000Z</time>
      </trkpt>
      <trkpt lat="44.00536" lon="3.50093">
        <ele>910.2</ele>
        <time>2026-05-28T08:23:47.000Z</time>
      </trkpt>
      <trkpt lat="44.00536" lon="3.50093">
        <ele>910.9</ele>
        <time>2026-05-28T08:23:48.000Z</time>
      </trkpt>
      <trkpt lat="44.00536" lon="3.50093">
        <ele>911.4</ele>
        <time>2026-05-28T08:23:49.000Z</time>
      </trkpt>
      <trkpt lat="44.00536" lon="3.50092">
        <ele>911.7</ele>
        <time>2026-05-28T08:23:50.000Z</time>
      </trkpt>
      <trkpt lat="44.00536" lon="3.50092">
        <ele>912.1</ele>
        <time>2026-05-28T08:23:51.000Z</time>
      </trkpt>
      <trkpt lat="44.00537" lon="3.50091">
        <ele>912.5</ele>
        <time>2026-05-28T08:23:52.000Z</time>
      </trkpt>
      <trkpt lat="44.00537" lon="3.5009">
        <ele>913.1</ele>
        <time>2026-05-28T08:23:53.000Z</time>
      </trkpt>
      <trkpt lat="44.00537" lon="3.5009">
        <ele>913.5</ele>
        <time>2026-05-28T08:23:54.000Z</time>
      </trkpt>
      <trkpt lat="44.00537" lon="3.50091">
        <ele>913.7</ele>
        <time>2026-05-28T08:23:55.000Z</time>
      </trkpt>
      <trkpt lat="44.00538" lon="3.50092">
        <ele>913.7</ele>
        <time>2026-05-28T08:23:56.000Z</time>
      </trkpt>
      <trkpt lat="44.00538" lon="3.50095">
        <ele>914.9</ele>
        <time>2026-05-28T08:23:58.000Z</time>
      </trkpt>
      <trkpt lat="44.00538" lon="3.50096">
        <ele>915.3</ele>
        <time>2026-05-28T08:23:59.000Z</time>
      </trkpt>
      <trkpt lat="44.00539" lon="3.50097">
        <ele>915.5</ele>
        <time>2026-05-28T08:24:00.000Z</time>
      </trkpt>
      <trkpt lat="44.00538" lon="3.50097">
        <ele>915.5</ele>
        <time>2026-05-28T08:24:01.000Z</time>
      </trkpt>
      <trkpt lat="44.00539" lon="3.50097">
        <ele>915.7</ele>
        <time>2026-05-28T08:24:02.000Z</time>
      </trkpt>
      <trkpt lat="44.00538" lon="3.50097">
        <ele>915.7</ele>
        <time>2026-05-28T08:24:03.000Z</time>
      </trkpt>
      <trkpt lat="44.00538" lon="3.50097">
        <ele>915.7</ele>
        <time>2026-05-28T08:24:04.000Z</time>
      </trkpt>
      <trkpt lat="44.00539" lon="3.50097">
        <ele>914.9</ele>
        <time>2026-05-28T08:24:05.000Z</time>
      </trkpt>
      <trkpt lat="44.00539" lon="3.50097">
        <ele>914.8</ele>
        <time>2026-05-28T08:24:06.000Z</time>
      </trkpt>
      <trkpt lat="44.00539" lon="3.50097">
        <ele>914.9</ele>
        <time>2026-05-28T08:24:07.000Z</time>
      </trkpt>
      <trkpt lat="44.00539" lon="3.50097">
        <ele>914.7</ele>
        <time>2026-05-28T08:24:08.000Z</time>
      </trkpt>
      <trkpt lat="44.00539" lon="3.50097">
        <ele>914.9</ele>
        <time>2026-05-28T08:24:09.000Z</time>
      </trkpt>
      <trkpt lat="44.00539" lon="3.50097">
        <ele>915</ele>
        <time>2026-05-28T08:24:10.000Z</time>
      </trkpt>
      <trkpt lat="44.00538" lon="3.50097">
        <ele>915</ele>
        <time>2026-05-28T08:24:11.000Z</time>
      </trkpt>
      <trkpt lat="44.00538" lon="3.50097">
        <ele>915.1</ele>
        <time>2026-05-28T08:24:12.000Z</time>
      </trkpt>
      <trkpt lat="44.00538" lon="3.50097">
        <ele>915.2</ele>
        <time>2026-05-28T08:24:13.000Z</time>
      </trkpt>
      <trkpt lat="44.00538" lon="3.50096">
        <ele>915.4</ele>
        <time>2026-05-28T08:24:14.000Z</time>
      </trkpt>
      <trkpt lat="44.00539" lon="3.50096">
        <ele>915.5</ele>
        <time>2026-05-28T08:24:15.000Z</time>
      </trkpt>
      <trkpt lat="44.00539" lon="3.50096">
        <ele>915.5</ele>
        <time>2026-05-28T08:24:16.000Z</time>
      </trkpt>
      <trkpt lat="44.0054" lon="3.50095">
        <ele>915.3</ele>
        <time>2026-05-28T08:24:17.000Z</time>
      </trkpt>
      <trkpt lat="44.0054" lon="3.50095">
        <ele>915.6</ele>
        <time>2026-05-28T08:24:18.000Z</time>
      </trkpt>
      <trkpt lat="44.0054" lon="3.50095">
        <ele>915.8</ele>
        <time>2026-05-28T08:24:19.000Z</time>
      </trkpt>
      <trkpt lat="44.00539" lon="3.50095">
        <ele>915.9</ele>
        <time>2026-05-28T08:24:20.000Z</time>
      </trkpt>
      <trkpt lat="44.00539" lon="3.50095">
        <ele>916</ele>
        <time>2026-05-28T08:24:21.000Z</time>
      </trkpt>
      <trkpt lat="44.00539" lon="3.50095">
        <ele>915.9</ele>
        <time>2026-05-28T08:24:22.000Z</time>
      </trkpt>
      <trkpt lat="44.00539" lon="3.50095">
        <ele>915.7</ele>
        <time>2026-05-28T08:24:23.000Z</time>
      </trkpt>
      <trkpt lat="44.00539" lon="3.50095">
        <ele>915.4</ele>
        <time>2026-05-28T08:24:24.000Z</time>
      </trkpt>
      <trkpt lat="44.00539" lon="3.50094">
        <ele>915.1</ele>
        <time>2026-05-28T08:24:25.000Z</time>
      </trkpt>
      <trkpt lat="44.00539" lon="3.50094">
        <ele>914.6</ele>
        <time>2026-05-28T08:24:26.000Z</time>
      </trkpt>
      <trkpt lat="44.00539" lon="3.50094">
        <ele>914.3</ele>
        <time>2026-05-28T08:24:27.000Z</time>
      </trkpt>
      <trkpt lat="44.00539" lon="3.50094">
        <ele>914.1</ele>
        <time>2026-05-28T08:24:28.000Z</time>
      </trkpt>
      <trkpt lat="44.00539" lon="3.50094">
        <ele>913.9</ele>
        <time>2026-05-28T08:24:29.000Z</time>
      </trkpt>
      <trkpt lat="44.00539" lon="3.50094">
        <ele>913.9</ele>
        <time>2026-05-28T08:24:30.000Z</time>
      </trkpt>
      <trkpt lat="44.00539" lon="3.50094">
        <ele>914</ele>
        <time>2026-05-28T08:24:31.000Z</time>
      </trkpt>
      <trkpt lat="44.00539" lon="3.50094">
        <ele>914.2</ele>
        <time>2026-05-28T08:24:32.000Z</time>
      </trkpt>
      <trkpt lat="44.00539" lon="3.50094">
        <ele>914.2</ele>
        <time>2026-05-28T08:24:33.000Z</time>
      </trkpt>
      <trkpt lat="44.00539" lon="3.50094">
        <ele>914.3</ele>
        <time>2026-05-28T08:24:34.000Z</time>
      </trkpt>
      <trkpt lat="44.00539" lon="3.50094">
        <ele>914.2</ele>
        <time>2026-05-28T08:24:35.000Z</time>
      </trkpt>
      <trkpt lat="44.00539" lon="3.50094">
        <ele>914.3</ele>
        <time>2026-05-28T08:24:36.000Z</time>
      </trkpt>
      <trkpt lat="44.00539" lon="3.50094">
        <ele>914</ele>
        <time>2026-05-28T08:24:37.000Z</time>
      </trkpt>
      <trkpt lat="44.00538" lon="3.50094">
        <ele>913.9</ele>
        <time>2026-05-28T08:24:38.000Z</time>
      </trkpt>
      <trkpt lat="44.00538" lon="3.50094">
        <ele>914</ele>
        <time>2026-05-28T08:24:39.000Z</time>
      </trkpt>
      <trkpt lat="44.00538" lon="3.50093">
        <ele>913.9</ele>
        <time>2026-05-28T08:24:40.000Z</time>
      </trkpt>
      <trkpt lat="44.00538" lon="3.50092">
        <ele>913.8</ele>
        <time>2026-05-28T08:24:41.000Z</time>
      </trkpt>
      <trkpt lat="44.00538" lon="3.50092">
        <ele>913.8</ele>
        <time>2026-05-28T08:24:42.000Z</time>
      </trkpt>
      <trkpt lat="44.00538" lon="3.50093">
        <ele>913.8</ele>
        <time>2026-05-28T08:24:43.000Z</time>
      </trkpt>
      <trkpt lat="44.00538" lon="3.50093">
        <ele>913.7</ele>
        <time>2026-05-28T08:24:44.000Z</time>
      </trkpt>
      <trkpt lat="44.00538" lon="3.50093">
        <ele>913.9</ele>
        <time>2026-05-28T08:24:45.000Z</time>
      </trkpt>
      <trkpt lat="44.00538" lon="3.50094">
        <ele>914</ele>
        <time>2026-05-28T08:24:46.000Z</time>
      </trkpt>
      <trkpt lat="44.00538" lon="3.50094">
        <ele>914</ele>
        <time>2026-05-28T08:24:47.000Z</time>
      </trkpt>
      <trkpt lat="44.00538" lon="3.50094">
        <ele>914</ele>
        <time>2026-05-28T08:24:48.000Z</time>
      </trkpt>
      <trkpt lat="44.00538" lon="3.50094">
        <ele>914.1</ele>
        <time>2026-05-28T08:24:49.000Z</time>
      </trkpt>
      <trkpt lat="44.00538" lon="3.50094">
        <ele>914.4</ele>
        <time>2026-05-28T08:24:50.000Z</time>
      </trkpt>
      <trkpt lat="44.00538" lon="3.50094">
        <ele>914.5</ele>
        <time>2026-05-28T08:24:51.000Z</time>
      </trkpt>
      <trkpt lat="44.00538" lon="3.50094">
        <ele>914.6</ele>
        <time>2026-05-28T08:24:52.000Z</time>
      </trkpt>
      <trkpt lat="44.00538" lon="3.50094">
        <ele>914.8</ele>
        <time>2026-05-28T08:24:53.000Z</time>
      </trkpt>
      <trkpt lat="44.00538" lon="3.50094">
        <ele>914.8</ele>
        <time>2026-05-28T08:24:54.000Z</time>
      </trkpt>
      <trkpt lat="44.00538" lon="3.50094">
        <ele>915</ele>
        <time>2026-05-28T08:24:55.000Z</time>
      </trkpt>
      <trkpt lat="44.00538" lon="3.50094">
        <ele>915.3</ele>
        <time>2026-05-28T08:24:56.000Z</time>
      </trkpt>
      <trkpt lat="44.00538" lon="3.50093">
        <ele>915.5</ele>
        <time>2026-05-28T08:24:57.000Z</time>
      </trkpt>
      <trkpt lat="44.00538" lon="3.50093">
        <ele>915.7</ele>
        <time>2026-05-28T08:24:58.000Z</time>
      </trkpt>
      <trkpt lat="44.00538" lon="3.50093">
        <ele>915.9</ele>
        <time>2026-05-28T08:24:59.000Z</time>
      </trkpt>
      <trkpt lat="44.00539" lon="3.50092">
        <ele>916.1</ele>
        <time>2026-05-28T08:25:00.000Z</time>
      </trkpt>
      <trkpt lat="44.00539" lon="3.50091">
        <ele>916.3</ele>
        <time>2026-05-28T08:25:01.000Z</time>
      </trkpt>
      <trkpt lat="44.00539" lon="3.50091">
        <ele>916.7</ele>
        <time>2026-05-28T08:25:02.000Z</time>
      </trkpt>
      <trkpt lat="44.00539" lon="3.50091">
        <ele>916.8</ele>
        <time>2026-05-28T08:25:03.000Z</time>
      </trkpt>
      <trkpt lat="44.0054" lon="3.50091">
        <ele>917.3</ele>
        <time>2026-05-28T08:25:04.000Z</time>
      </trkpt>
      <trkpt lat="44.0054" lon="3.50091">
        <ele>917.5</ele>
        <time>2026-05-28T08:25:05.000Z</time>
      </trkpt>
      <trkpt lat="44.0054" lon="3.50091">
        <ele>917.7</ele>
        <time>2026-05-28T08:25:06.000Z</time>
      </trkpt>
      <trkpt lat="44.0054" lon="3.50091">
        <ele>917.8</ele>
        <time>2026-05-28T08:25:07.000Z</time>
      </trkpt>
      <trkpt lat="44.0054" lon="3.50091">
        <ele>918.1</ele>
        <time>2026-05-28T08:25:08.000Z</time>
      </trkpt>
      <trkpt lat="44.0054" lon="3.50091">
        <ele>918.3</ele>
        <time>2026-05-28T08:25:09.000Z</time>
      </trkpt>
      <trkpt lat="44.0054" lon="3.50091">
        <ele>918.5</ele>
        <time>2026-05-28T08:25:10.000Z</time>
      </trkpt>
      <trkpt lat="44.0054" lon="3.50091">
        <ele>918.7</ele>
        <time>2026-05-28T08:25:11.000Z</time>
      </trkpt>
      <trkpt lat="44.0054" lon="3.5009">
        <ele>919</ele>
        <time>2026-05-28T08:25:12.000Z</time>
      </trkpt>
      <trkpt lat="44.0054" lon="3.5009">
        <ele>919.4</ele>
        <time>2026-05-28T08:25:13.000Z</time>
      </trkpt>
      <trkpt lat="44.0054" lon="3.5009">
        <ele>919.7</ele>
        <time>2026-05-28T08:25:14.000Z</time>
      </trkpt>
      <trkpt lat="44.0054" lon="3.5009">
        <ele>919.9</ele>
        <time>2026-05-28T08:25:15.000Z</time>
      </trkpt>
      <trkpt lat="44.0054" lon="3.5009">
        <ele>920.2</ele>
        <time>2026-05-28T08:25:16.000Z</time>
      </trkpt>
      <trkpt lat="44.0054" lon="3.5009">
        <ele>920.5</ele>
        <time>2026-05-28T08:25:17.000Z</time>
      </trkpt>
      <trkpt lat="44.0054" lon="3.5009">
        <ele>920.6</ele>
        <time>2026-05-28T08:25:18.000Z</time>
      </trkpt>
      <trkpt lat="44.0054" lon="3.5009">
        <ele>920.6</ele>
        <time>2026-05-28T08:25:19.000Z</time>
      </trkpt>
      <trkpt lat="44.0054" lon="3.5009">
        <ele>920.6</ele>
        <time>2026-05-28T08:25:20.000Z</time>
      </trkpt>
      <trkpt lat="44.0054" lon="3.5009">
        <ele>920.6</ele>
        <time>2026-05-28T08:25:21.000Z</time>
      </trkpt>
      <trkpt lat="44.0054" lon="3.50089">
        <ele>920.7</ele>
        <time>2026-05-28T08:25:22.000Z</time>
      </trkpt>
      <trkpt lat="44.0054" lon="3.50089">
        <ele>920.8</ele>
        <time>2026-05-28T08:25:23.000Z</time>
      </trkpt>
      <trkpt lat="44.0054" lon="3.50089">
        <ele>920.9</ele>
        <time>2026-05-28T08:25:24.000Z</time>
      </trkpt>
      <trkpt lat="44.0054" lon="3.50089">
        <ele>921</ele>
        <time>2026-05-28T08:25:25.000Z</time>
      </trkpt>
      <trkpt lat="44.0054" lon="3.50089">
        <ele>921</ele>
        <time>2026-05-28T08:25:26.000Z</time>
      </trkpt>
      <trkpt lat="44.0054" lon="3.50089">
        <ele>921</ele>
        <time>2026-05-28T08:25:27.000Z</time>
      </trkpt>
      <trkpt lat="44.0054" lon="3.50089">
        <ele>920.9</ele>
        <time>2026-05-28T08:25:28.000Z</time>
      </trkpt>
      <trkpt lat="44.0054" lon="3.50089">
        <ele>920.8</ele>
        <time>2026-05-28T08:25:29.000Z</time>
      </trkpt>
      <trkpt lat="44.0054" lon="3.50089">
        <ele>920.8</ele>
        <time>2026-05-28T08:25:30.000Z</time>
      </trkpt>
      <trkpt lat="44.0054" lon="3.50089">
        <ele>920.9</ele>
        <time>2026-05-28T08:25:31.000Z</time>
      </trkpt>
      <trkpt lat="44.0054" lon="3.50089">
        <ele>920.8</ele>
        <time>2026-05-28T08:25:32.000Z</time>
      </trkpt>
      <trkpt lat="44.0054" lon="3.50089">
        <ele>920.7</ele>
        <time>2026-05-28T08:25:33.000Z</time>
      </trkpt>
      <trkpt lat="44.0054" lon="3.50088">
        <ele>920.5</ele>
        <time>2026-05-28T08:25:34.000Z</time>
      </trkpt>
      <trkpt lat="44.0054" lon="3.50088">
        <ele>920.4</ele>
        <time>2026-05-28T08:25:35.000Z</time>
      </trkpt>
      <trkpt lat="44.0054" lon="3.50088">
        <ele>920.3</ele>
        <time>2026-05-28T08:25:36.000Z</time>
      </trkpt>
      <trkpt lat="44.0054" lon="3.50088">
        <ele>920.4</ele>
        <time>2026-05-28T08:25:37.000Z</time>
      </trkpt>
      <trkpt lat="44.0054" lon="3.50088">
        <ele>920.4</ele>
        <time>2026-05-28T08:25:38.000Z</time>
      </trkpt>
      <trkpt lat="44.0054" lon="3.50088">
        <ele>920.3</ele>
        <time>2026-05-28T08:25:39.000Z</time>
      </trkpt>
      <trkpt lat="44.0054" lon="3.50088">
        <ele>920.2</ele>
        <time>2026-05-28T08:25:40.000Z</time>
      </trkpt>
      <trkpt lat="44.0054" lon="3.50088">
        <ele>920</ele>
        <time>2026-05-28T08:25:41.000Z</time>
      </trkpt>
      <trkpt lat="44.00539" lon="3.50088">
        <ele>919.8</ele>
        <time>2026-05-28T08:25:42.000Z</time>
      </trkpt>
      <trkpt lat="44.00539" lon="3.50087">
        <ele>919.6</ele>
        <time>2026-05-28T08:25:43.000Z</time>
      </trkpt>
      <trkpt lat="44.00539" lon="3.50087">
        <ele>919.5</ele>
        <time>2026-05-28T08:25:44.000Z</time>
      </trkpt>
      <trkpt lat="44.00539" lon="3.50087">
        <ele>919.5</ele>
        <time>2026-05-28T08:25:45.000Z</time>
      </trkpt>
      <trkpt lat="44.00539" lon="3.50087">
        <ele>919.4</ele>
        <time>2026-05-28T08:25:46.000Z</time>
      </trkpt>
      <trkpt lat="44.00539" lon="3.50087">
        <ele>919.7</ele>
        <time>2026-05-28T08:25:47.000Z</time>
      </trkpt>
      <trkpt lat="44.00539" lon="3.50087">
        <ele>919.8</ele>
        <time>2026-05-28T08:25:48.000Z</time>
      </trkpt>
      <trkpt lat="44.00539" lon="3.50087">
        <ele>920</ele>
        <time>2026-05-28T08:25:49.000Z</time>
      </trkpt>
      <trkpt lat="44.00539" lon="3.50088">
        <ele>920.2</ele>
        <time>2026-05-28T08:25:50.000Z</time>
      </trkpt>
      <trkpt lat="44.00539" lon="3.50088">
        <ele>920.3</ele>
        <time>2026-05-28T08:25:51.000Z</time>
      </trkpt>
      <trkpt lat="44.00539" lon="3.50088">
        <ele>920.5</ele>
        <time>2026-05-28T08:25:52.000Z</time>
      </trkpt>
      <trkpt lat="44.00539" lon="3.50088">
        <ele>920.6</ele>
        <time>2026-05-28T08:25:53.000Z</time>
      </trkpt>
      <trkpt lat="44.00539" lon="3.50088">
        <ele>920.7</ele>
        <time>2026-05-28T08:25:54.000Z</time>
      </trkpt>
      <trkpt lat="44.00539" lon="3.50088">
        <ele>920.8</ele>
        <time>2026-05-28T08:25:55.000Z</time>
      </trkpt>
      <trkpt lat="44.00539" lon="3.50088">
        <ele>921</ele>
        <time>2026-05-28T08:25:56.000Z</time>
      </trkpt>
      <trkpt lat="44.00539" lon="3.50088">
        <ele>921.2</ele>
        <time>2026-05-28T08:25:57.000Z</time>
      </trkpt>
      <trkpt lat="44.00539" lon="3.50088">
        <ele>921.4</ele>
        <time>2026-05-28T08:25:58.000Z</time>
      </trkpt>
      <trkpt lat="44.00539" lon="3.50088">
        <ele>921.5</ele>
        <time>2026-05-28T08:25:59.000Z</time>
      </trkpt>
      <trkpt lat="44.00539" lon="3.50088">
        <ele>921.6</ele>
        <time>2026-05-28T08:26:00.000Z</time>
      </trkpt>
      <trkpt lat="44.00539" lon="3.50088">
        <ele>921.6</ele>
        <time>2026-05-28T08:26:01.000Z</time>
      </trkpt>
      <trkpt lat="44.00539" lon="3.50088">
        <ele>921.7</ele>
        <time>2026-05-28T08:26:02.000Z</time>
      </trkpt>
      <trkpt lat="44.00539" lon="3.50088">
        <ele>921.8</ele>
        <time>2026-05-28T08:26:03.000Z</time>
      </trkpt>
      <trkpt lat="44.00539" lon="3.50088">
        <ele>921.8</ele>
        <time>2026-05-28T08:26:04.000Z</time>
      </trkpt>
      <trkpt lat="44.00539" lon="3.50088">
        <ele>921.7</ele>
        <time>2026-05-28T08:26:05.000Z</time>
      </trkpt>
      <trkpt lat="44.00539" lon="3.50088">
        <ele>921.8</ele>
        <time>2026-05-28T08:26:06.000Z</time>
      </trkpt>
      <trkpt lat="44.00539" lon="3.50088">
        <ele>921.7</ele>
        <time>2026-05-28T08:26:07.000Z</time>
      </trkpt>
      <trkpt lat="44.00539" lon="3.50088">
        <ele>921.8</ele>
        <time>2026-05-28T08:26:08.000Z</time>
      </trkpt>
      <trkpt lat="44.00539" lon="3.50088">
        <ele>921.9</ele>
        <time>2026-05-28T08:26:09.000Z</time>
      </trkpt>
      <trkpt lat="44.00539" lon="3.50088">
        <ele>921.7</ele>
        <time>2026-05-28T08:26:10.000Z</time>
      </trkpt>
      <trkpt lat="44.00539" lon="3.50088">
        <ele>921.6</ele>
        <time>2026-05-28T08:26:11.000Z</time>
      </trkpt>
      <trkpt lat="44.00539" lon="3.50088">
        <ele>921.4</ele>
        <time>2026-05-28T08:26:12.000Z</time>
      </trkpt>
      <trkpt lat="44.00539" lon="3.50088">
        <ele>921.3</ele>
        <time>2026-05-28T08:26:13.000Z</time>
      </trkpt>
      <trkpt lat="44.00539" lon="3.50088">
        <ele>921.1</ele>
        <time>2026-05-28T08:26:14.000Z</time>
      </trkpt>
      <trkpt lat="44.00539" lon="3.50088">
        <ele>921.1</ele>
        <time>2026-05-28T08:26:15.000Z</time>
      </trkpt>
      <trkpt lat="44.00539" lon="3.50088">
        <ele>921.1</ele>
        <time>2026-05-28T08:26:16.000Z</time>
      </trkpt>
      <trkpt lat="44.00539" lon="3.50088">
        <ele>920.8</ele>
        <time>2026-05-28T08:26:17.000Z</time>
      </trkpt>
      <trkpt lat="44.00539" lon="3.50088">
        <ele>920.6</ele>
        <time>2026-05-28T08:26:18.000Z</time>
      </trkpt>
      <trkpt lat="44.00539" lon="3.50088">
        <ele>920.7</ele>
        <time>2026-05-28T08:26:19.000Z</time>
      </trkpt>
      <trkpt lat="44.0054" lon="3.50088">
        <ele>920.8</ele>
        <time>2026-05-28T08:26:20.000Z</time>
      </trkpt>
      <trkpt lat="44.0054" lon="3.50088">
        <ele>920.5</ele>
        <time>2026-05-28T08:26:21.000Z</time>
      </trkpt>
      <trkpt lat="44.0054" lon="3.50088">
        <ele>920.6</ele>
        <time>2026-05-28T08:26:22.000Z</time>
      </trkpt>
      <trkpt lat="44.0054" lon="3.50088">
        <ele>920.9</ele>
        <time>2026-05-28T08:26:23.000Z</time>
      </trkpt>
      <trkpt lat="44.0054" lon="3.50088">
        <ele>921.1</ele>
        <time>2026-05-28T08:26:24.000Z</time>
      </trkpt>
      <trkpt lat="44.0054" lon="3.50088">
        <ele>921.2</ele>
        <time>2026-05-28T08:26:25.000Z</time>
      </trkpt>
      <trkpt lat="44.0054" lon="3.50088">
        <ele>921.4</ele>
        <time>2026-05-28T08:26:26.000Z</time>
      </trkpt>
      <trkpt lat="44.0054" lon="3.50088">
        <ele>921.6</ele>
        <time>2026-05-28T08:26:27.000Z</time>
      </trkpt>
      <trkpt lat="44.0054" lon="3.50088">
        <ele>921.7</ele>
        <time>2026-05-28T08:26:28.000Z</time>
      </trkpt>
      <trkpt lat="44.0054" lon="3.50088">
        <ele>921.7</ele>
        <time>2026-05-28T08:26:29.000Z</time>
      </trkpt>
      <trkpt lat="44.0054" lon="3.50088">
        <ele>921.8</ele>
        <time>2026-05-28T08:26:30.000Z</time>
      </trkpt>
      <trkpt lat="44.0054" lon="3.50088">
        <ele>921.8</ele>
        <time>2026-05-28T08:26:31.000Z</time>
      </trkpt>
      <trkpt lat="44.0054" lon="3.50088">
        <ele>921.9</ele>
        <time>2026-05-28T08:26:32.000Z</time>
      </trkpt>
      <trkpt lat="44.0054" lon="3.50088">
        <ele>921.9</ele>
        <time>2026-05-28T08:26:33.000Z</time>
      </trkpt>
      <trkpt lat="44.0054" lon="3.50088">
        <ele>922</ele>
        <time>2026-05-28T08:26:34.000Z</time>
      </trkpt>
      <trkpt lat="44.0054" lon="3.50088">
        <ele>922</ele>
        <time>2026-05-28T08:26:35.000Z</time>
      </trkpt>
      <trkpt lat="44.0054" lon="3.50088">
        <ele>922</ele>
        <time>2026-05-28T08:26:36.000Z</time>
      </trkpt>
      <trkpt lat="44.0054" lon="3.50088">
        <ele>922.1</ele>
        <time>2026-05-28T08:26:37.000Z</time>
      </trkpt>
      <trkpt lat="44.0054" lon="3.50088">
        <ele>922.2</ele>
        <time>2026-05-28T08:26:38.000Z</time>
      </trkpt>
      <trkpt lat="44.0054" lon="3.50088">
        <ele>922.3</ele>
        <time>2026-05-28T08:26:39.000Z</time>
      </trkpt>
      <trkpt lat="44.0054" lon="3.50088">
        <ele>922.5</ele>
        <time>2026-05-28T08:26:40.000Z</time>
      </trkpt>
      <trkpt lat="44.0054" lon="3.50088">
        <ele>922.7</ele>
        <time>2026-05-28T08:26:41.000Z</time>
      </trkpt>
      <trkpt lat="44.0054" lon="3.50088">
        <ele>922.9</ele>
        <time>2026-05-28T08:26:42.000Z</time>
      </trkpt>
      <trkpt lat="44.0054" lon="3.50088">
        <ele>923</ele>
        <time>2026-05-28T08:26:43.000Z</time>
      </trkpt>
      <trkpt lat="44.0054" lon="3.50088">
        <ele>923</ele>
        <time>2026-05-28T08:26:44.000Z</time>
      </trkpt>
      <trkpt lat="44.0054" lon="3.50088">
        <ele>923.1</ele>
        <time>2026-05-28T08:26:45.000Z</time>
      </trkpt>
      <trkpt lat="44.0054" lon="3.50088">
        <ele>923.2</ele>
        <time>2026-05-28T08:26:46.000Z</time>
      </trkpt>
      <trkpt lat="44.0054" lon="3.50088">
        <ele>923.3</ele>
        <time>2026-05-28T08:26:47.000Z</time>
      </trkpt>
      <trkpt lat="44.0054" lon="3.50088">
        <ele>923.3</ele>
        <time>2026-05-28T08:26:48.000Z</time>
      </trkpt>
      <trkpt lat="44.0054" lon="3.50088">
        <ele>923.5</ele>
        <time>2026-05-28T08:26:49.000Z</time>
      </trkpt>
      <trkpt lat="44.0054" lon="3.50088">
        <ele>923.7</ele>
        <time>2026-05-28T08:26:50.000Z</time>
      </trkpt>
      <trkpt lat="44.0054" lon="3.50088">
        <ele>924</ele>
        <time>2026-05-28T08:26:51.000Z</time>
      </trkpt>
      <trkpt lat="44.0054" lon="3.50088">
        <ele>924.3</ele>
        <time>2026-05-28T08:26:52.000Z</time>
      </trkpt>
      <trkpt lat="44.0054" lon="3.50089">
        <ele>924.4</ele>
        <time>2026-05-28T08:26:53.000Z</time>
      </trkpt>
      <trkpt lat="44.0054" lon="3.50089">
        <ele>924.6</ele>
        <time>2026-05-28T08:26:54.000Z</time>
      </trkpt>
      <trkpt lat="44.0054" lon="3.50089">
        <ele>924.9</ele>
        <time>2026-05-28T08:26:55.000Z</time>
      </trkpt>
      <trkpt lat="44.0054" lon="3.50089">
        <ele>925.3</ele>
        <time>2026-05-28T08:26:56.000Z</time>
      </trkpt>
      <trkpt lat="44.0054" lon="3.50089">
        <ele>925.6</ele>
        <time>2026-05-28T08:26:57.000Z</time>
      </trkpt>
      <trkpt lat="44.0054" lon="3.50089">
        <ele>925.9</ele>
        <time>2026-05-28T08:26:58.000Z</time>
      </trkpt>
      <trkpt lat="44.0054" lon="3.50089">
        <ele>926.2</ele>
        <time>2026-05-28T08:26:59.000Z</time>
      </trkpt>
      <trkpt lat="44.0054" lon="3.50089">
        <ele>926.6</ele>
        <time>2026-05-28T08:27:00.000Z</time>
      </trkpt>
      <trkpt lat="44.0054" lon="3.50089">
        <ele>926.8</ele>
        <time>2026-05-28T08:27:01.000Z</time>
      </trkpt>
      <trkpt lat="44.0054" lon="3.50089">
        <ele>927.1</ele>
        <time>2026-05-28T08:27:02.000Z</time>
      </trkpt>
      <trkpt lat="44.0054" lon="3.50089">
        <ele>927.2</ele>
        <time>2026-05-28T08:27:03.000Z</time>
      </trkpt>
      <trkpt lat="44.0054" lon="3.50089">
        <ele>926.9</ele>
        <time>2026-05-28T08:27:04.000Z</time>
      </trkpt>
      <trkpt lat="44.0054" lon="3.50089">
        <ele>926.6</ele>
        <time>2026-05-28T08:27:05.000Z</time>
      </trkpt>
      <trkpt lat="44.00541" lon="3.50089">
        <ele>926.3</ele>
        <time>2026-05-28T08:27:06.000Z</time>
      </trkpt>
      <trkpt lat="44.00541" lon="3.50089">
        <ele>926.1</ele>
        <time>2026-05-28T08:27:07.000Z</time>
      </trkpt>
      <trkpt lat="44.00541" lon="3.50089">
        <ele>926.1</ele>
        <time>2026-05-28T08:27:08.000Z</time>
      </trkpt>
      <trkpt lat="44.00541" lon="3.50089">
        <ele>926.1</ele>
        <time>2026-05-28T08:27:09.000Z</time>
      </trkpt>
      <trkpt lat="44.00541" lon="3.50089">
        <ele>926.1</ele>
        <time>2026-05-28T08:27:10.000Z</time>
      </trkpt>
      <trkpt lat="44.00541" lon="3.50089">
        <ele>926.2</ele>
        <time>2026-05-28T08:27:11.000Z</time>
      </trkpt>
      <trkpt lat="44.00541" lon="3.50089">
        <ele>926.3</ele>
        <time>2026-05-28T08:27:12.000Z</time>
      </trkpt>
      <trkpt lat="44.00541" lon="3.50089">
        <ele>926.5</ele>
        <time>2026-05-28T08:27:13.000Z</time>
      </trkpt>
      <trkpt lat="44.00541" lon="3.50089">
        <ele>926.4</ele>
        <time>2026-05-28T08:27:14.000Z</time>
      </trkpt>
      <trkpt lat="44.00541" lon="3.50089">
        <ele>926.2</ele>
        <time>2026-05-28T08:27:15.000Z</time>
      </trkpt>
      <trkpt lat="44.00541" lon="3.50089">
        <ele>926</ele>
        <time>2026-05-28T08:27:16.000Z</time>
      </trkpt>
      <trkpt lat="44.00541" lon="3.50089">
        <ele>925.8</ele>
        <time>2026-05-28T08:27:17.000Z</time>
      </trkpt>
      <trkpt lat="44.00541" lon="3.50089">
        <ele>925.7</ele>
        <time>2026-05-28T08:27:18.000Z</time>
      </trkpt>
      <trkpt lat="44.00541" lon="3.50089">
        <ele>925.6</ele>
        <time>2026-05-28T08:27:19.000Z</time>
      </trkpt>
      <trkpt lat="44.00541" lon="3.50089">
        <ele>925.4</ele>
        <time>2026-05-28T08:27:20.000Z</time>
      </trkpt>
      <trkpt lat="44.00541" lon="3.5009">
        <ele>925.2</ele>
        <time>2026-05-28T08:27:21.000Z</time>
      </trkpt>
      <trkpt lat="44.00541" lon="3.5009">
        <ele>925.3</ele>
        <time>2026-05-28T08:27:22.000Z</time>
      </trkpt>
      <trkpt lat="44.00541" lon="3.5009">
        <ele>925.1</ele>
        <time>2026-05-28T08:27:23.000Z</time>
      </trkpt>
      <trkpt lat="44.00541" lon="3.5009">
        <ele>924.9</ele>
        <time>2026-05-28T08:27:24.000Z</time>
      </trkpt>
      <trkpt lat="44.00541" lon="3.5009">
        <ele>924.8</ele>
        <time>2026-05-28T08:27:25.000Z</time>
      </trkpt>
      <trkpt lat="44.00541" lon="3.5009">
        <ele>924.7</ele>
        <time>2026-05-28T08:27:26.000Z</time>
      </trkpt>
      <trkpt lat="44.00541" lon="3.5009">
        <ele>924.7</ele>
        <time>2026-05-28T08:27:27.000Z</time>
      </trkpt>
      <trkpt lat="44.00541" lon="3.5009">
        <ele>924.6</ele>
        <time>2026-05-28T08:27:28.000Z</time>
      </trkpt>
      <trkpt lat="44.00541" lon="3.5009">
        <ele>924.5</ele>
        <time>2026-05-28T08:27:29.000Z</time>
      </trkpt>
      <trkpt lat="44.00541" lon="3.5009">
        <ele>924.5</ele>
        <time>2026-05-28T08:27:30.000Z</time>
      </trkpt>
      <trkpt lat="44.00541" lon="3.5009">
        <ele>924.5</ele>
        <time>2026-05-28T08:27:31.000Z</time>
      </trkpt>
      <trkpt lat="44.00541" lon="3.5009">
        <ele>924.2</ele>
        <time>2026-05-28T08:27:32.000Z</time>
      </trkpt>
      <trkpt lat="44.00541" lon="3.50089">
        <ele>923.8</ele>
        <time>2026-05-28T08:27:33.000Z</time>
      </trkpt>
      <trkpt lat="44.00541" lon="3.50089">
        <ele>923.8</ele>
        <time>2026-05-28T08:27:34.000Z</time>
      </trkpt>
      <trkpt lat="44.00541" lon="3.50089">
        <ele>923.8</ele>
        <time>2026-05-28T08:27:35.000Z</time>
      </trkpt>
      <trkpt lat="44.00541" lon="3.50089">
        <ele>923.7</ele>
        <time>2026-05-28T08:27:36.000Z</time>
      </trkpt>
      <trkpt lat="44.00541" lon="3.50089">
        <ele>923.7</ele>
        <time>2026-05-28T08:27:37.000Z</time>
      </trkpt>
      <trkpt lat="44.00541" lon="3.50089">
        <ele>923.7</ele>
        <time>2026-05-28T08:27:38.000Z</time>
      </trkpt>
      <trkpt lat="44.00541" lon="3.50089">
        <ele>923.8</ele>
        <time>2026-05-28T08:27:39.000Z</time>
      </trkpt>
      <trkpt lat="44.0054" lon="3.50089">
        <ele>923.9</ele>
        <time>2026-05-28T08:27:40.000Z</time>
      </trkpt>
      <trkpt lat="44.0054" lon="3.50089">
        <ele>924.1</ele>
        <time>2026-05-28T08:27:41.000Z</time>
      </trkpt>
      <trkpt lat="44.0054" lon="3.50089">
        <ele>924</ele>
        <time>2026-05-28T08:27:42.000Z</time>
      </trkpt>
      <trkpt lat="44.0054" lon="3.50089">
        <ele>923.9</ele>
        <time>2026-05-28T08:27:43.000Z</time>
      </trkpt>
      <trkpt lat="44.0054" lon="3.50089">
        <ele>923.8</ele>
        <time>2026-05-28T08:27:44.000Z</time>
      </trkpt>
      <trkpt lat="44.0054" lon="3.50089">
        <ele>923.7</ele>
        <time>2026-05-28T08:27:45.000Z</time>
      </trkpt>
      <trkpt lat="44.0054" lon="3.50089">
        <ele>924.2</ele>
        <time>2026-05-28T08:27:46.000Z</time>
      </trkpt>
      <trkpt lat="44.0054" lon="3.50089">
        <ele>924.7</ele>
        <time>2026-05-28T08:27:47.000Z</time>
      </trkpt>
      <trkpt lat="44.0054" lon="3.50089">
        <ele>925</ele>
        <time>2026-05-28T08:27:48.000Z</time>
      </trkpt>
      <trkpt lat="44.0054" lon="3.50089">
        <ele>925.2</ele>
        <time>2026-05-28T08:27:49.000Z</time>
      </trkpt>
      <trkpt lat="44.0054" lon="3.50089">
        <ele>925.2</ele>
        <time>2026-05-28T08:27:50.000Z</time>
      </trkpt>
      <trkpt lat="44.0054" lon="3.50088">
        <ele>925.2</ele>
        <time>2026-05-28T08:27:51.000Z</time>
      </trkpt>
      <trkpt lat="44.0054" lon="3.50088">
        <ele>925.2</ele>
        <time>2026-05-28T08:27:52.000Z</time>
      </trkpt>
      <trkpt lat="44.0054" lon="3.50088">
        <ele>925.2</ele>
        <time>2026-05-28T08:27:53.000Z</time>
      </trkpt>
      <trkpt lat="44.0054" lon="3.50088">
        <ele>925.3</ele>
        <time>2026-05-28T08:27:54.000Z</time>
      </trkpt>
      <trkpt lat="44.0054" lon="3.50088">
        <ele>925.4</ele>
        <time>2026-05-28T08:27:55.000Z</time>
      </trkpt>
      <trkpt lat="44.0054" lon="3.50088">
        <ele>925.5</ele>
        <time>2026-05-28T08:27:56.000Z</time>
      </trkpt>
      <trkpt lat="44.0054" lon="3.50088">
        <ele>925.6</ele>
        <time>2026-05-28T08:27:57.000Z</time>
      </trkpt>
      <trkpt lat="44.0054" lon="3.50088">
        <ele>925.9</ele>
        <time>2026-05-28T08:27:58.000Z</time>
      </trkpt>
      <trkpt lat="44.0054" lon="3.50088">
        <ele>925.9</ele>
        <time>2026-05-28T08:27:59.000Z</time>
      </trkpt>
      <trkpt lat="44.0054" lon="3.50088">
        <ele>926.1</ele>
        <time>2026-05-28T08:28:00.000Z</time>
      </trkpt>
      <trkpt lat="44.0054" lon="3.50088">
        <ele>926.2</ele>
        <time>2026-05-28T08:28:01.000Z</time>
      </trkpt>
      <trkpt lat="44.0054" lon="3.50088">
        <ele>926.4</ele>
        <time>2026-05-28T08:28:02.000Z</time>
      </trkpt>
      <trkpt lat="44.0054" lon="3.50088">
        <ele>926.6</ele>
        <time>2026-05-28T08:28:03.000Z</time>
      </trkpt>
      <trkpt lat="44.0054" lon="3.50088">
        <ele>926.8</ele>
        <time>2026-05-28T08:28:04.000Z</time>
      </trkpt>
      <trkpt lat="44.0054" lon="3.50088">
        <ele>927</ele>
        <time>2026-05-28T08:28:05.000Z</time>
      </trkpt>
      <trkpt lat="44.0054" lon="3.50088">
        <ele>927</ele>
        <time>2026-05-28T08:28:06.000Z</time>
      </trkpt>
      <trkpt lat="44.0054" lon="3.50088">
        <ele>927.1</ele>
        <time>2026-05-28T08:28:07.000Z</time>
      </trkpt>
      <trkpt lat="44.0054" lon="3.50088">
        <ele>927.2</ele>
        <time>2026-05-28T08:28:08.000Z</time>
      </trkpt>
      <trkpt lat="44.0054" lon="3.50088">
        <ele>927.2</ele>
        <time>2026-05-28T08:28:09.000Z</time>
      </trkpt>
      <trkpt lat="44.00541" lon="3.50088">
        <ele>927.6</ele>
        <time>2026-05-28T08:28:10.000Z</time>
      </trkpt>
      <trkpt lat="44.00541" lon="3.50088">
        <ele>928</ele>
        <time>2026-05-28T08:28:11.000Z</time>
      </trkpt>
      <trkpt lat="44.00541" lon="3.50088">
        <ele>928.1</ele>
        <time>2026-05-28T08:28:12.000Z</time>
      </trkpt>
      <trkpt lat="44.00541" lon="3.50088">
        <ele>928.5</ele>
        <time>2026-05-28T08:28:13.000Z</time>
      </trkpt>
      <trkpt lat="44.00541" lon="3.50088">
        <ele>928.7</ele>
        <time>2026-05-28T08:28:14.000Z</time>
      </trkpt>
      <trkpt lat="44.00541" lon="3.50088">
        <ele>929</ele>
        <time>2026-05-28T08:28:15.000Z</time>
      </trkpt>
      <trkpt lat="44.00541" lon="3.50088">
        <ele>929.1</ele>
        <time>2026-05-28T08:28:16.000Z</time>
      </trkpt>
      <trkpt lat="44.00541" lon="3.50088">
        <ele>929.4</ele>
        <time>2026-05-28T08:28:17.000Z</time>
      </trkpt>
      <trkpt lat="44.00541" lon="3.50088">
        <ele>929.7</ele>
        <time>2026-05-28T08:28:18.000Z</time>
      </trkpt>
      <trkpt lat="44.00541" lon="3.50088">
        <ele>930</ele>
        <time>2026-05-28T08:28:19.000Z</time>
      </trkpt>
      <trkpt lat="44.00541" lon="3.50088">
        <ele>930.4</ele>
        <time>2026-05-28T08:28:20.000Z</time>
      </trkpt>
      <trkpt lat="44.00541" lon="3.50088">
        <ele>930.9</ele>
        <time>2026-05-28T08:28:21.000Z</time>
      </trkpt>
      <trkpt lat="44.00541" lon="3.50088">
        <ele>931.4</ele>
        <time>2026-05-28T08:28:22.000Z</time>
      </trkpt>
      <trkpt lat="44.00541" lon="3.50088">
        <ele>931.7</ele>
        <time>2026-05-28T08:28:23.000Z</time>
      </trkpt>
      <trkpt lat="44.00541" lon="3.50088">
        <ele>932.1</ele>
        <time>2026-05-28T08:28:24.000Z</time>
      </trkpt>
      <trkpt lat="44.00541" lon="3.50088">
        <ele>932.5</ele>
        <time>2026-05-28T08:28:25.000Z</time>
      </trkpt>
      <trkpt lat="44.00541" lon="3.50088">
        <ele>932.8</ele>
        <time>2026-05-28T08:28:26.000Z</time>
      </trkpt>
      <trkpt lat="44.00541" lon="3.50088">
        <ele>933.1</ele>
        <time>2026-05-28T08:28:27.000Z</time>
      </trkpt>
      <trkpt lat="44.00541" lon="3.50088">
        <ele>932.5</ele>
        <time>2026-05-28T08:28:28.000Z</time>
      </trkpt>
      <trkpt lat="44.00541" lon="3.50088">
        <ele>932.1</ele>
        <time>2026-05-28T08:28:29.000Z</time>
      </trkpt>
      <trkpt lat="44.00541" lon="3.50088">
        <ele>931.6</ele>
        <time>2026-05-28T08:28:30.000Z</time>
      </trkpt>
      <trkpt lat="44.00541" lon="3.50088">
        <ele>931.2</ele>
        <time>2026-05-28T08:28:31.000Z</time>
      </trkpt>
      <trkpt lat="44.00541" lon="3.50088">
        <ele>931.3</ele>
        <time>2026-05-28T08:28:32.000Z</time>
      </trkpt>
      <trkpt lat="44.00541" lon="3.50088">
        <ele>931.6</ele>
        <time>2026-05-28T08:28:33.000Z</time>
      </trkpt>
      <trkpt lat="44.00541" lon="3.50088">
        <ele>931.8</ele>
        <time>2026-05-28T08:28:34.000Z</time>
      </trkpt>
      <trkpt lat="44.00541" lon="3.50088">
        <ele>932</ele>
        <time>2026-05-28T08:28:35.000Z</time>
      </trkpt>
      <trkpt lat="44.00541" lon="3.50088">
        <ele>931.6</ele>
        <time>2026-05-28T08:28:36.000Z</time>
      </trkpt>
      <trkpt lat="44.00541" lon="3.50088">
        <ele>931.4</ele>
        <time>2026-05-28T08:28:37.000Z</time>
      </trkpt>
      <trkpt lat="44.00541" lon="3.50088">
        <ele>931.5</ele>
        <time>2026-05-28T08:28:38.000Z</time>
      </trkpt>
      <trkpt lat="44.00541" lon="3.50088">
        <ele>931.5</ele>
        <time>2026-05-28T08:28:39.000Z</time>
      </trkpt>
      <trkpt lat="44.00541" lon="3.50088">
        <ele>931.4</ele>
        <time>2026-05-28T08:28:40.000Z</time>
      </trkpt>
      <trkpt lat="44.00541" lon="3.50088">
        <ele>931.3</ele>
        <time>2026-05-28T08:28:41.000Z</time>
      </trkpt>
      <trkpt lat="44.00541" lon="3.50088">
        <ele>931.1</ele>
        <time>2026-05-28T08:28:42.000Z</time>
      </trkpt>
      <trkpt lat="44.0054" lon="3.50088">
        <ele>930.6</ele>
        <time>2026-05-28T08:28:43.000Z</time>
      </trkpt>
      <trkpt lat="44.0054" lon="3.50088">
        <ele>930.2</ele>
        <time>2026-05-28T08:28:44.000Z</time>
      </trkpt>
      <trkpt lat="44.0054" lon="3.50088">
        <ele>929.8</ele>
        <time>2026-05-28T08:28:45.000Z</time>
      </trkpt>
      <trkpt lat="44.0054" lon="3.50087">
        <ele>929.6</ele>
        <time>2026-05-28T08:28:46.000Z</time>
      </trkpt>
      <trkpt lat="44.0054" lon="3.50087">
        <ele>929.5</ele>
        <time>2026-05-28T08:28:47.000Z</time>
      </trkpt>
      <trkpt lat="44.0054" lon="3.50087">
        <ele>929.4</ele>
        <time>2026-05-28T08:28:48.000Z</time>
      </trkpt>
      <trkpt lat="44.0054" lon="3.50087">
        <ele>929.1</ele>
        <time>2026-05-28T08:28:49.000Z</time>
      </trkpt>
      <trkpt lat="44.0054" lon="3.50087">
        <ele>928.9</ele>
        <time>2026-05-28T08:28:50.000Z</time>
      </trkpt>
      <trkpt lat="44.0054" lon="3.50087">
        <ele>928.8</ele>
        <time>2026-05-28T08:28:51.000Z</time>
      </trkpt>
      <trkpt lat="44.0054" lon="3.50087">
        <ele>928.5</ele>
        <time>2026-05-28T08:28:52.000Z</time>
      </trkpt>
      <trkpt lat="44.0054" lon="3.50087">
        <ele>928.2</ele>
        <time>2026-05-28T08:28:53.000Z</time>
      </trkpt>
      <trkpt lat="44.0054" lon="3.50087">
        <ele>928.2</ele>
        <time>2026-05-28T08:28:54.000Z</time>
      </trkpt>
      <trkpt lat="44.0054" lon="3.50087">
        <ele>928.1</ele>
        <time>2026-05-28T08:28:55.000Z</time>
      </trkpt>
      <trkpt lat="44.0054" lon="3.50087">
        <ele>928</ele>
        <time>2026-05-28T08:28:56.000Z</time>
      </trkpt>
      <trkpt lat="44.0054" lon="3.50087">
        <ele>927.9</ele>
        <time>2026-05-28T08:28:57.000Z</time>
      </trkpt>
      <trkpt lat="44.0054" lon="3.50087">
        <ele>927.7</ele>
        <time>2026-05-28T08:28:58.000Z</time>
      </trkpt>
      <trkpt lat="44.0054" lon="3.50087">
        <ele>927.4</ele>
        <time>2026-05-28T08:28:59.000Z</time>
      </trkpt>
      <trkpt lat="44.0054" lon="3.50087">
        <ele>927.2</ele>
        <time>2026-05-28T08:29:00.000Z</time>
      </trkpt>
      <trkpt lat="44.00541" lon="3.50088">
        <ele>926.8</ele>
        <time>2026-05-28T08:29:01.000Z</time>
      </trkpt>
      <trkpt lat="44.00541" lon="3.50088">
        <ele>926.2</ele>
        <time>2026-05-28T08:29:02.000Z</time>
      </trkpt>
      <trkpt lat="44.00541" lon="3.50088">
        <ele>925.9</ele>
        <time>2026-05-28T08:29:03.000Z</time>
      </trkpt>
      <trkpt lat="44.00541" lon="3.50088">
        <ele>925.7</ele>
        <time>2026-05-28T08:29:04.000Z</time>
      </trkpt>
      <trkpt lat="44.00541" lon="3.50088">
        <ele>925.7</ele>
        <time>2026-05-28T08:29:05.000Z</time>
      </trkpt>
      <trkpt lat="44.00541" lon="3.50089">
        <ele>925.7</ele>
        <time>2026-05-28T08:29:06.000Z</time>
      </trkpt>
      <trkpt lat="44.00541" lon="3.50091">
        <ele>925.6</ele>
        <time>2026-05-28T08:29:07.000Z</time>
      </trkpt>
      <trkpt lat="44.00541" lon="3.50091">
        <ele>925.7</ele>
        <time>2026-05-28T08:29:08.000Z</time>
      </trkpt>
      <trkpt lat="44.0054" lon="3.50091">
        <ele>925.4</ele>
        <time>2026-05-28T08:29:09.000Z</time>
      </trkpt>
      <trkpt lat="44.0054" lon="3.50091">
        <ele>925</ele>
        <time>2026-05-28T08:29:10.000Z</time>
      </trkpt>
      <trkpt lat="44.0054" lon="3.50091">
        <ele>924.9</ele>
        <time>2026-05-28T08:29:11.000Z</time>
      </trkpt>
      <trkpt lat="44.0054" lon="3.50091">
        <ele>924.7</ele>
        <time>2026-05-28T08:29:12.000Z</time>
      </trkpt>
      <trkpt lat="44.0054" lon="3.50091">
        <ele>924.4</ele>
        <time>2026-05-28T08:29:13.000Z</time>
      </trkpt>
      <trkpt lat="44.0054" lon="3.50091">
        <ele>924.4</ele>
        <time>2026-05-28T08:29:14.000Z</time>
      </trkpt>
      <trkpt lat="44.0054" lon="3.50091">
        <ele>924.5</ele>
        <time>2026-05-28T08:29:15.000Z</time>
      </trkpt>
      <trkpt lat="44.0054" lon="3.50091">
        <ele>924.7</ele>
        <time>2026-05-28T08:29:16.000Z</time>
      </trkpt>
      <trkpt lat="44.0054" lon="3.50091">
        <ele>924.8</ele>
        <time>2026-05-28T08:29:17.000Z</time>
      </trkpt>
      <trkpt lat="44.0054" lon="3.50091">
        <ele>925</ele>
        <time>2026-05-28T08:29:18.000Z</time>
      </trkpt>
      <trkpt lat="44.0054" lon="3.50091">
        <ele>925.1</ele>
        <time>2026-05-28T08:29:19.000Z</time>
      </trkpt>
      <trkpt lat="44.0054" lon="3.50091">
        <ele>925.2</ele>
        <time>2026-05-28T08:29:20.000Z</time>
      </trkpt>
      <trkpt lat="44.0054" lon="3.50091">
        <ele>925.2</ele>
        <time>2026-05-28T08:29:21.000Z</time>
      </trkpt>
      <trkpt lat="44.0054" lon="3.50091">
        <ele>925.1</ele>
        <time>2026-05-28T08:29:22.000Z</time>
      </trkpt>
      <trkpt lat="44.0054" lon="3.50091">
        <ele>925.4</ele>
        <time>2026-05-28T08:29:23.000Z</time>
      </trkpt>
      <trkpt lat="44.0054" lon="3.50091">
        <ele>925.4</ele>
        <time>2026-05-28T08:29:24.000Z</time>
      </trkpt>
      <trkpt lat="44.0054" lon="3.50091">
        <ele>925.4</ele>
        <time>2026-05-28T08:29:25.000Z</time>
      </trkpt>
      <trkpt lat="44.0054" lon="3.50091">
        <ele>925.3</ele>
        <time>2026-05-28T08:29:26.000Z</time>
      </trkpt>
      <trkpt lat="44.0054" lon="3.50091">
        <ele>925.3</ele>
        <time>2026-05-28T08:29:27.000Z</time>
      </trkpt>
      <trkpt lat="44.0054" lon="3.50091">
        <ele>925.4</ele>
        <time>2026-05-28T08:29:28.000Z</time>
      </trkpt>
      <trkpt lat="44.0054" lon="3.50091">
        <ele>925.1</ele>
        <time>2026-05-28T08:29:29.000Z</time>
      </trkpt>
      <trkpt lat="44.0054" lon="3.50091">
        <ele>924.8</ele>
        <time>2026-05-28T08:29:30.000Z</time>
      </trkpt>
      <trkpt lat="44.0054" lon="3.50091">
        <ele>924.5</ele>
        <time>2026-05-28T08:29:31.000Z</time>
      </trkpt>
      <trkpt lat="44.0054" lon="3.50091">
        <ele>924.5</ele>
        <time>2026-05-28T08:29:32.000Z</time>
      </trkpt>
      <trkpt lat="44.0054" lon="3.50091">
        <ele>924.4</ele>
        <time>2026-05-28T08:29:33.000Z</time>
      </trkpt>
      <trkpt lat="44.0054" lon="3.50091">
        <ele>924</ele>
        <time>2026-05-28T08:29:34.000Z</time>
      </trkpt>
      <trkpt lat="44.0054" lon="3.50091">
        <ele>923.8</ele>
        <time>2026-05-28T08:29:35.000Z</time>
      </trkpt>
      <trkpt lat="44.0054" lon="3.50091">
        <ele>923.4</ele>
        <time>2026-05-28T08:29:36.000Z</time>
      </trkpt>
      <trkpt lat="44.0054" lon="3.50091">
        <ele>923.3</ele>
        <time>2026-05-28T08:29:37.000Z</time>
      </trkpt>
      <trkpt lat="44.0054" lon="3.50091">
        <ele>923.2</ele>
        <time>2026-05-28T08:29:38.000Z</time>
      </trkpt>
      <trkpt lat="44.0054" lon="3.50091">
        <ele>923</ele>
        <time>2026-05-28T08:29:39.000Z</time>
      </trkpt>
      <trkpt lat="44.0054" lon="3.50091">
        <ele>922.9</ele>
        <time>2026-05-28T08:29:40.000Z</time>
      </trkpt>
      <trkpt lat="44.0054" lon="3.50091">
        <ele>922.6</ele>
        <time>2026-05-28T08:29:41.000Z</time>
      </trkpt>
      <trkpt lat="44.0054" lon="3.50091">
        <ele>922.5</ele>
        <time>2026-05-28T08:29:42.000Z</time>
      </trkpt>
      <trkpt lat="44.0054" lon="3.50091">
        <ele>922.2</ele>
        <time>2026-05-28T08:29:43.000Z</time>
      </trkpt>
      <trkpt lat="44.00539" lon="3.50091">
        <ele>922.1</ele>
        <time>2026-05-28T08:29:44.000Z</time>
      </trkpt>
      <trkpt lat="44.00539" lon="3.50091">
        <ele>921.8</ele>
        <time>2026-05-28T08:29:45.000Z</time>
      </trkpt>
      <trkpt lat="44.00539" lon="3.50091">
        <ele>921.7</ele>
        <time>2026-05-28T08:29:46.000Z</time>
      </trkpt>
      <trkpt lat="44.00539" lon="3.50091">
        <ele>921.5</ele>
        <time>2026-05-28T08:29:47.000Z</time>
      </trkpt>
      <trkpt lat="44.00539" lon="3.50091">
        <ele>921.3</ele>
        <time>2026-05-28T08:29:48.000Z</time>
      </trkpt>
      <trkpt lat="44.00539" lon="3.50091">
        <ele>921.1</ele>
        <time>2026-05-28T08:29:49.000Z</time>
      </trkpt>
      <trkpt lat="44.00539" lon="3.50091">
        <ele>920.9</ele>
        <time>2026-05-28T08:29:50.000Z</time>
      </trkpt>
      <trkpt lat="44.00539" lon="3.50091">
        <ele>920.7</ele>
        <time>2026-05-28T08:29:51.000Z</time>
      </trkpt>
      <trkpt lat="44.00539" lon="3.50091">
        <ele>920.7</ele>
        <time>2026-05-28T08:29:52.000Z</time>
      </trkpt>
      <trkpt lat="44.00539" lon="3.50091">
        <ele>920.7</ele>
        <time>2026-05-28T08:29:53.000Z</time>
      </trkpt>
      <trkpt lat="44.00539" lon="3.50091">
        <ele>920.7</ele>
        <time>2026-05-28T08:29:54.000Z</time>
      </trkpt>
      <trkpt lat="44.00539" lon="3.50091">
        <ele>920.8</ele>
        <time>2026-05-28T08:29:55.000Z</time>
      </trkpt>
      <trkpt lat="44.00539" lon="3.50091">
        <ele>921</ele>
        <time>2026-05-28T08:29:56.000Z</time>
      </trkpt>
      <trkpt lat="44.00539" lon="3.50091">
        <ele>921.3</ele>
        <time>2026-05-28T08:29:57.000Z</time>
      </trkpt>
      <trkpt lat="44.00539" lon="3.5009">
        <ele>921.6</ele>
        <time>2026-05-28T08:29:58.000Z</time>
      </trkpt>
      <trkpt lat="44.00539" lon="3.5009">
        <ele>921.8</ele>
        <time>2026-05-28T08:29:59.000Z</time>
      </trkpt>
      <trkpt lat="44.00539" lon="3.5009">
        <ele>922</ele>
        <time>2026-05-28T08:30:00.000Z</time>
      </trkpt>
      <trkpt lat="44.0054" lon="3.5009">
        <ele>922</ele>
        <time>2026-05-28T08:30:01.000Z</time>
      </trkpt>
      <trkpt lat="44.0054" lon="3.5009">
        <ele>922.1</ele>
        <time>2026-05-28T08:30:02.000Z</time>
      </trkpt>
      <trkpt lat="44.0054" lon="3.5009">
        <ele>922.3</ele>
        <time>2026-05-28T08:30:03.000Z</time>
      </trkpt>
      <trkpt lat="44.0054" lon="3.5009">
        <ele>922.4</ele>
        <time>2026-05-28T08:30:04.000Z</time>
      </trkpt>
      <trkpt lat="44.0054" lon="3.5009">
        <ele>922.4</ele>
        <time>2026-05-28T08:30:05.000Z</time>
      </trkpt>
      <trkpt lat="44.0054" lon="3.5009">
        <ele>922.7</ele>
        <time>2026-05-28T08:30:06.000Z</time>
      </trkpt>
      <trkpt lat="44.0054" lon="3.5009">
        <ele>923</ele>
        <time>2026-05-28T08:30:07.000Z</time>
      </trkpt>
      <trkpt lat="44.0054" lon="3.5009">
        <ele>923.2</ele>
        <time>2026-05-28T08:30:08.000Z</time>
      </trkpt>
      <trkpt lat="44.0054" lon="3.5009">
        <ele>923.2</ele>
        <time>2026-05-28T08:30:09.000Z</time>
      </trkpt>
      <trkpt lat="44.0054" lon="3.5009">
        <ele>923.1</ele>
        <time>2026-05-28T08:30:10.000Z</time>
      </trkpt>
      <trkpt lat="44.0054" lon="3.5009">
        <ele>923.3</ele>
        <time>2026-05-28T08:30:11.000Z</time>
      </trkpt>
      <trkpt lat="44.0054" lon="3.5009">
        <ele>923.7</ele>
        <time>2026-05-28T08:30:12.000Z</time>
      </trkpt>
      <trkpt lat="44.0054" lon="3.5009">
        <ele>923.9</ele>
        <time>2026-05-28T08:30:13.000Z</time>
      </trkpt>
      <trkpt lat="44.0054" lon="3.5009">
        <ele>923.9</ele>
        <time>2026-05-28T08:30:14.000Z</time>
      </trkpt>
      <trkpt lat="44.0054" lon="3.5009">
        <ele>924.2</ele>
        <time>2026-05-28T08:30:15.000Z</time>
      </trkpt>
      <trkpt lat="44.0054" lon="3.5009">
        <ele>924.5</ele>
        <time>2026-05-28T08:30:16.000Z</time>
      </trkpt>
      <trkpt lat="44.00541" lon="3.5009">
        <ele>924.8</ele>
        <time>2026-05-28T08:30:17.000Z</time>
      </trkpt>
      <trkpt lat="44.00541" lon="3.5009">
        <ele>924.8</ele>
        <time>2026-05-28T08:30:18.000Z</time>
      </trkpt>
      <trkpt lat="44.00541" lon="3.5009">
        <ele>925.2</ele>
        <time>2026-05-28T08:30:19.000Z</time>
      </trkpt>
      <trkpt lat="44.00541" lon="3.5009">
        <ele>925.5</ele>
        <time>2026-05-28T08:30:20.000Z</time>
      </trkpt>
      <trkpt lat="44.00541" lon="3.5009">
        <ele>925.6</ele>
        <time>2026-05-28T08:30:21.000Z</time>
      </trkpt>
      <trkpt lat="44.00541" lon="3.5009">
        <ele>925.7</ele>
        <time>2026-05-28T08:30:22.000Z</time>
      </trkpt>
      <trkpt lat="44.00541" lon="3.5009">
        <ele>925.8</ele>
        <time>2026-05-28T08:30:23.000Z</time>
      </trkpt>
      <trkpt lat="44.00541" lon="3.5009">
        <ele>926</ele>
        <time>2026-05-28T08:30:24.000Z</time>
      </trkpt>
      <trkpt lat="44.00541" lon="3.5009">
        <ele>926.3</ele>
        <time>2026-05-28T08:30:25.000Z</time>
      </trkpt>
      <trkpt lat="44.00541" lon="3.5009">
        <ele>926.3</ele>
        <time>2026-05-28T08:30:26.000Z</time>
      </trkpt>
      <trkpt lat="44.00541" lon="3.5009">
        <ele>926.3</ele>
        <time>2026-05-28T08:30:27.000Z</time>
      </trkpt>
      <trkpt lat="44.00541" lon="3.5009">
        <ele>926.2</ele>
        <time>2026-05-28T08:30:28.000Z</time>
      </trkpt>
      <trkpt lat="44.00541" lon="3.5009">
        <ele>926.3</ele>
        <time>2026-05-28T08:30:29.000Z</time>
      </trkpt>
      <trkpt lat="44.00541" lon="3.5009">
        <ele>926.3</ele>
        <time>2026-05-28T08:30:30.000Z</time>
      </trkpt>
      <trkpt lat="44.00541" lon="3.5009">
        <ele>926.2</ele>
        <time>2026-05-28T08:30:31.000Z</time>
      </trkpt>
      <trkpt lat="44.00541" lon="3.5009">
        <ele>925.9</ele>
        <time>2026-05-28T08:30:32.000Z</time>
      </trkpt>
      <trkpt lat="44.00541" lon="3.5009">
        <ele>925.7</ele>
        <time>2026-05-28T08:30:33.000Z</time>
      </trkpt>
      <trkpt lat="44.00541" lon="3.5009">
        <ele>925.4</ele>
        <time>2026-05-28T08:30:34.000Z</time>
      </trkpt>
      <trkpt lat="44.00541" lon="3.5009">
        <ele>925.1</ele>
        <time>2026-05-28T08:30:35.000Z</time>
      </trkpt>
      <trkpt lat="44.00541" lon="3.50089">
        <ele>925</ele>
        <time>2026-05-28T08:30:36.000Z</time>
      </trkpt>
      <trkpt lat="44.00541" lon="3.50089">
        <ele>924.8</ele>
        <time>2026-05-28T08:30:37.000Z</time>
      </trkpt>
      <trkpt lat="44.00541" lon="3.50089">
        <ele>924.6</ele>
        <time>2026-05-28T08:30:38.000Z</time>
      </trkpt>
      <trkpt lat="44.00541" lon="3.50089">
        <ele>924.4</ele>
        <time>2026-05-28T08:30:39.000Z</time>
      </trkpt>
      <trkpt lat="44.00541" lon="3.50089">
        <ele>924.2</ele>
        <time>2026-05-28T08:30:40.000Z</time>
      </trkpt>
      <trkpt lat="44.00541" lon="3.50089">
        <ele>923.9</ele>
        <time>2026-05-28T08:30:41.000Z</time>
      </trkpt>
      <trkpt lat="44.00541" lon="3.50089">
        <ele>923.7</ele>
        <time>2026-05-28T08:30:42.000Z</time>
      </trkpt>
      <trkpt lat="44.00541" lon="3.50089">
        <ele>923.7</ele>
        <time>2026-05-28T08:30:43.000Z</time>
      </trkpt>
      <trkpt lat="44.00541" lon="3.50089">
        <ele>923.6</ele>
        <time>2026-05-28T08:30:44.000Z</time>
      </trkpt>
      <trkpt lat="44.00541" lon="3.50089">
        <ele>923.6</ele>
        <time>2026-05-28T08:30:45.000Z</time>
      </trkpt>
      <trkpt lat="44.00541" lon="3.50089">
        <ele>923.7</ele>
        <time>2026-05-28T08:30:46.000Z</time>
      </trkpt>
      <trkpt lat="44.00541" lon="3.50089">
        <ele>923.6</ele>
        <time>2026-05-28T08:30:47.000Z</time>
      </trkpt>
      <trkpt lat="44.00541" lon="3.50089">
        <ele>923.4</ele>
        <time>2026-05-28T08:30:48.000Z</time>
      </trkpt>
      <trkpt lat="44.00541" lon="3.50089">
        <ele>923.2</ele>
        <time>2026-05-28T08:30:49.000Z</time>
      </trkpt>
      <trkpt lat="44.00541" lon="3.50089">
        <ele>923.1</ele>
        <time>2026-05-28T08:30:50.000Z</time>
      </trkpt>
      <trkpt lat="44.0054" lon="3.50088">
        <ele>923.1</ele>
        <time>2026-05-28T08:30:51.000Z</time>
      </trkpt>
      <trkpt lat="44.0054" lon="3.50087">
        <ele>923.1</ele>
        <time>2026-05-28T08:30:52.000Z</time>
      </trkpt>
      <trkpt lat="44.00541" lon="3.50087">
        <ele>923.1</ele>
        <time>2026-05-28T08:30:53.000Z</time>
      </trkpt>
      <trkpt lat="44.00541" lon="3.50087">
        <ele>923.2</ele>
        <time>2026-05-28T08:30:54.000Z</time>
      </trkpt>
      <trkpt lat="44.00541" lon="3.50087">
        <ele>923.2</ele>
        <time>2026-05-28T08:30:55.000Z</time>
      </trkpt>
      <trkpt lat="44.00541" lon="3.50087">
        <ele>923.2</ele>
        <time>2026-05-28T08:30:56.000Z</time>
      </trkpt>
      <trkpt lat="44.00542" lon="3.50087">
        <ele>922.9</ele>
        <time>2026-05-28T08:30:57.000Z</time>
      </trkpt>
      <trkpt lat="44.00542" lon="3.50087">
        <ele>922.6</ele>
        <time>2026-05-28T08:30:58.000Z</time>
      </trkpt>
      <trkpt lat="44.00542" lon="3.50087">
        <ele>922.3</ele>
        <time>2026-05-28T08:30:59.000Z</time>
      </trkpt>
      <trkpt lat="44.00542" lon="3.50087">
        <ele>922</ele>
        <time>2026-05-28T08:31:00.000Z</time>
      </trkpt>
      <trkpt lat="44.00542" lon="3.50087">
        <ele>921.7</ele>
        <time>2026-05-28T08:31:01.000Z</time>
      </trkpt>
      <trkpt lat="44.00542" lon="3.50087">
        <ele>921.5</ele>
        <time>2026-05-28T08:31:02.000Z</time>
      </trkpt>
      <trkpt lat="44.00542" lon="3.50087">
        <ele>921.3</ele>
        <time>2026-05-28T08:31:03.000Z</time>
      </trkpt>
      <trkpt lat="44.00542" lon="3.50087">
        <ele>921.1</ele>
        <time>2026-05-28T08:31:04.000Z</time>
      </trkpt>
      <trkpt lat="44.00542" lon="3.50087">
        <ele>920.9</ele>
        <time>2026-05-28T08:31:05.000Z</time>
      </trkpt>
      <trkpt lat="44.00542" lon="3.50087">
        <ele>920.7</ele>
        <time>2026-05-28T08:31:06.000Z</time>
      </trkpt>
      <trkpt lat="44.00542" lon="3.50087">
        <ele>920.5</ele>
        <time>2026-05-28T08:31:07.000Z</time>
      </trkpt>
      <trkpt lat="44.00542" lon="3.50087">
        <ele>920.4</ele>
        <time>2026-05-28T08:31:08.000Z</time>
      </trkpt>
      <trkpt lat="44.00542" lon="3.50087">
        <ele>920.4</ele>
        <time>2026-05-28T08:31:09.000Z</time>
      </trkpt>
      <trkpt lat="44.00542" lon="3.50087">
        <ele>920.2</ele>
        <time>2026-05-28T08:31:10.000Z</time>
      </trkpt>
      <trkpt lat="44.00542" lon="3.50087">
        <ele>920.2</ele>
        <time>2026-05-28T08:31:11.000Z</time>
      </trkpt>
      <trkpt lat="44.00542" lon="3.50087">
        <ele>920.3</ele>
        <time>2026-05-28T08:31:12.000Z</time>
      </trkpt>
      <trkpt lat="44.00542" lon="3.50087">
        <ele>920.1</ele>
        <time>2026-05-28T08:31:13.000Z</time>
      </trkpt>
      <trkpt lat="44.00542" lon="3.50087">
        <ele>920</ele>
        <time>2026-05-28T08:31:14.000Z</time>
      </trkpt>
      <trkpt lat="44.00542" lon="3.50087">
        <ele>919.8</ele>
        <time>2026-05-28T08:31:15.000Z</time>
      </trkpt>
      <trkpt lat="44.00542" lon="3.50087">
        <ele>919.7</ele>
        <time>2026-05-28T08:31:16.000Z</time>
      </trkpt>
      <trkpt lat="44.00542" lon="3.50087">
        <ele>919.5</ele>
        <time>2026-05-28T08:31:17.000Z</time>
      </trkpt>
      <trkpt lat="44.00542" lon="3.50087">
        <ele>919.3</ele>
        <time>2026-05-28T08:31:18.000Z</time>
      </trkpt>
      <trkpt lat="44.00542" lon="3.50087">
        <ele>919.1</ele>
        <time>2026-05-28T08:31:19.000Z</time>
      </trkpt>
      <trkpt lat="44.00542" lon="3.50087">
        <ele>919</ele>
        <time>2026-05-28T08:31:20.000Z</time>
      </trkpt>
      <trkpt lat="44.00542" lon="3.50087">
        <ele>918.8</ele>
        <time>2026-05-28T08:31:21.000Z</time>
      </trkpt>
      <trkpt lat="44.00542" lon="3.50087">
        <ele>918.8</ele>
        <time>2026-05-28T08:31:22.000Z</time>
      </trkpt>
      <trkpt lat="44.00542" lon="3.50087">
        <ele>918.8</ele>
        <time>2026-05-28T08:31:23.000Z</time>
      </trkpt>
      <trkpt lat="44.00542" lon="3.50087">
        <ele>918.6</ele>
        <time>2026-05-28T08:31:24.000Z</time>
      </trkpt>
      <trkpt lat="44.00542" lon="3.50087">
        <ele>918.6</ele>
        <time>2026-05-28T08:31:25.000Z</time>
      </trkpt>
      <trkpt lat="44.00542" lon="3.50087">
        <ele>918.7</ele>
        <time>2026-05-28T08:31:26.000Z</time>
      </trkpt>
      <trkpt lat="44.00542" lon="3.50087">
        <ele>918.9</ele>
        <time>2026-05-28T08:31:27.000Z</time>
      </trkpt>
      <trkpt lat="44.00542" lon="3.50087">
        <ele>919</ele>
        <time>2026-05-28T08:31:28.000Z</time>
      </trkpt>
      <trkpt lat="44.00542" lon="3.50087">
        <ele>919</ele>
        <time>2026-05-28T08:31:29.000Z</time>
      </trkpt>
      <trkpt lat="44.00542" lon="3.50087">
        <ele>919</ele>
        <time>2026-05-28T08:31:30.000Z</time>
      </trkpt>
      <trkpt lat="44.00542" lon="3.50087">
        <ele>918.9</ele>
        <time>2026-05-28T08:31:31.000Z</time>
      </trkpt>
      <trkpt lat="44.00542" lon="3.50087">
        <ele>918.9</ele>
        <time>2026-05-28T08:31:32.000Z</time>
      </trkpt>
      <trkpt lat="44.00542" lon="3.50087">
        <ele>918.8</ele>
        <time>2026-05-28T08:31:33.000Z</time>
      </trkpt>
      <trkpt lat="44.00542" lon="3.50087">
        <ele>918.7</ele>
        <time>2026-05-28T08:31:34.000Z</time>
      </trkpt>
      <trkpt lat="44.00542" lon="3.50086">
        <ele>918.5</ele>
        <time>2026-05-28T08:31:35.000Z</time>
      </trkpt>
      <trkpt lat="44.00542" lon="3.50086">
        <ele>918.1</ele>
        <time>2026-05-28T08:31:36.000Z</time>
      </trkpt>
      <trkpt lat="44.00542" lon="3.50086">
        <ele>917.9</ele>
        <time>2026-05-28T08:31:37.000Z</time>
      </trkpt>
      <trkpt lat="44.00542" lon="3.50086">
        <ele>917.9</ele>
        <time>2026-05-28T08:31:38.000Z</time>
      </trkpt>
      <trkpt lat="44.00542" lon="3.50086">
        <ele>917.6</ele>
        <time>2026-05-28T08:31:39.000Z</time>
      </trkpt>
      <trkpt lat="44.00542" lon="3.50086">
        <ele>917.2</ele>
        <time>2026-05-28T08:31:40.000Z</time>
      </trkpt>
      <trkpt lat="44.00542" lon="3.50086">
        <ele>917</ele>
        <time>2026-05-28T08:31:41.000Z</time>
      </trkpt>
      <trkpt lat="44.00542" lon="3.50086">
        <ele>916.8</ele>
        <time>2026-05-28T08:31:42.000Z</time>
      </trkpt>
      <trkpt lat="44.00542" lon="3.50086">
        <ele>916.8</ele>
        <time>2026-05-28T08:31:43.000Z</time>
      </trkpt>
      <trkpt lat="44.00542" lon="3.50086">
        <ele>916.8</ele>
        <time>2026-05-28T08:31:44.000Z</time>
      </trkpt>
      <trkpt lat="44.00542" lon="3.50086">
        <ele>916.8</ele>
        <time>2026-05-28T08:31:45.000Z</time>
      </trkpt>
      <trkpt lat="44.00542" lon="3.50086">
        <ele>916.8</ele>
        <time>2026-05-28T08:31:46.000Z</time>
      </trkpt>
      <trkpt lat="44.00542" lon="3.50086">
        <ele>916.8</ele>
        <time>2026-05-28T08:31:47.000Z</time>
      </trkpt>
      <trkpt lat="44.00542" lon="3.50086">
        <ele>916.8</ele>
        <time>2026-05-28T08:31:48.000Z</time>
      </trkpt>
      <trkpt lat="44.00542" lon="3.50086">
        <ele>916.7</ele>
        <time>2026-05-28T08:31:49.000Z</time>
      </trkpt>
      <trkpt lat="44.00542" lon="3.50086">
        <ele>916.7</ele>
        <time>2026-05-28T08:31:50.000Z</time>
      </trkpt>
      <trkpt lat="44.00542" lon="3.50086">
        <ele>916.6</ele>
        <time>2026-05-28T08:31:51.000Z</time>
      </trkpt>
      <trkpt lat="44.00542" lon="3.50086">
        <ele>916.6</ele>
        <time>2026-05-28T08:31:52.000Z</time>
      </trkpt>
      <trkpt lat="44.00542" lon="3.50086">
        <ele>916.6</ele>
        <time>2026-05-28T08:31:53.000Z</time>
      </trkpt>
      <trkpt lat="44.00542" lon="3.50086">
        <ele>916.6</ele>
        <time>2026-05-28T08:31:54.000Z</time>
      </trkpt>
      <trkpt lat="44.00542" lon="3.50086">
        <ele>916.6</ele>
        <time>2026-05-28T08:31:55.000Z</time>
      </trkpt>
      <trkpt lat="44.00542" lon="3.50086">
        <ele>916.7</ele>
        <time>2026-05-28T08:31:56.000Z</time>
      </trkpt>
      <trkpt lat="44.00542" lon="3.50086">
        <ele>916.5</ele>
        <time>2026-05-28T08:31:57.000Z</time>
      </trkpt>
      <trkpt lat="44.00542" lon="3.50086">
        <ele>916.4</ele>
        <time>2026-05-28T08:31:58.000Z</time>
      </trkpt>
      <trkpt lat="44.00542" lon="3.50086">
        <ele>916.3</ele>
        <time>2026-05-28T08:31:59.000Z</time>
      </trkpt>
      <trkpt lat="44.00542" lon="3.50086">
        <ele>916.2</ele>
        <time>2026-05-28T08:32:01.000Z</time>
      </trkpt>
      <trkpt lat="44.00542" lon="3.50086">
        <ele>916.2</ele>
        <time>2026-05-28T08:32:02.000Z</time>
      </trkpt>
      <trkpt lat="44.00542" lon="3.50086">
        <ele>916.4</ele>
        <time>2026-05-28T08:32:03.000Z</time>
      </trkpt>
      <trkpt lat="44.00542" lon="3.50086">
        <ele>916.6</ele>
        <time>2026-05-28T08:32:04.000Z</time>
      </trkpt>
      <trkpt lat="44.00542" lon="3.50086">
        <ele>916.8</ele>
        <time>2026-05-28T08:32:05.000Z</time>
      </trkpt>
      <trkpt lat="44.00542" lon="3.50086">
        <ele>916.8</ele>
        <time>2026-05-28T08:32:06.000Z</time>
      </trkpt>
      <trkpt lat="44.00542" lon="3.50086">
        <ele>916.9</ele>
        <time>2026-05-28T08:32:07.000Z</time>
      </trkpt>
      <trkpt lat="44.00542" lon="3.50086">
        <ele>916.9</ele>
        <time>2026-05-28T08:32:08.000Z</time>
      </trkpt>
      <trkpt lat="44.00542" lon="3.50086">
        <ele>917</ele>
        <time>2026-05-28T08:32:09.000Z</time>
      </trkpt>
      <trkpt lat="44.00542" lon="3.50086">
        <ele>917.1</ele>
        <time>2026-05-28T08:32:10.000Z</time>
      </trkpt>
      <trkpt lat="44.00542" lon="3.50086">
        <ele>917.2</ele>
        <time>2026-05-28T08:32:11.000Z</time>
      </trkpt>
      <trkpt lat="44.00542" lon="3.50086">
        <ele>917.2</ele>
        <time>2026-05-28T08:32:12.000Z</time>
      </trkpt>
      <trkpt lat="44.00542" lon="3.50086">
        <ele>917.2</ele>
        <time>2026-05-28T08:32:13.000Z</time>
      </trkpt>
      <trkpt lat="44.00542" lon="3.50086">
        <ele>916.9</ele>
        <time>2026-05-28T08:32:15.000Z</time>
      </trkpt>
      <trkpt lat="44.00542" lon="3.50086">
        <ele>916.7</ele>
        <time>2026-05-28T08:32:16.000Z</time>
      </trkpt>
      <trkpt lat="44.00542" lon="3.50086">
        <ele>916.6</ele>
        <time>2026-05-28T08:32:17.000Z</time>
      </trkpt>
      <trkpt lat="44.00541" lon="3.50087">
        <ele>916.5</ele>
        <time>2026-05-28T08:32:18.000Z</time>
      </trkpt>
      <trkpt lat="44.00541" lon="3.50087">
        <ele>916.2</ele>
        <time>2026-05-28T08:32:19.000Z</time>
      </trkpt>
      <trkpt lat="44.00541" lon="3.50087">
        <ele>915.9</ele>
        <time>2026-05-28T08:32:20.000Z</time>
      </trkpt>
      <trkpt lat="44.00541" lon="3.50087">
        <ele>915.8</ele>
        <time>2026-05-28T08:32:21.000Z</time>
      </trkpt>
      <trkpt lat="44.00541" lon="3.50087">
        <ele>915.6</ele>
        <time>2026-05-28T08:32:22.000Z</time>
      </trkpt>
      <trkpt lat="44.00541" lon="3.50087">
        <ele>915.6</ele>
        <time>2026-05-28T08:32:23.000Z</time>
      </trkpt>
      <trkpt lat="44.00541" lon="3.50087">
        <ele>915.8</ele>
        <time>2026-05-28T08:32:24.000Z</time>
      </trkpt>
      <trkpt lat="44.00541" lon="3.50087">
        <ele>915.8</ele>
        <time>2026-05-28T08:32:25.000Z</time>
      </trkpt>
      <trkpt lat="44.00541" lon="3.50087">
        <ele>915.9</ele>
        <time>2026-05-28T08:32:26.000Z</time>
      </trkpt>
      <trkpt lat="44.00541" lon="3.50087">
        <ele>915.5</ele>
        <time>2026-05-28T08:32:27.000Z</time>
      </trkpt>
      <trkpt lat="44.00541" lon="3.50087">
        <ele>915.5</ele>
        <time>2026-05-28T08:32:28.000Z</time>
      </trkpt>
      <trkpt lat="44.00541" lon="3.50087">
        <ele>915.6</ele>
        <time>2026-05-28T08:32:29.000Z</time>
      </trkpt>
      <trkpt lat="44.00541" lon="3.50087">
        <ele>915.6</ele>
        <time>2026-05-28T08:32:30.000Z</time>
      </trkpt>
      <trkpt lat="44.00541" lon="3.50087">
        <ele>915.6</ele>
        <time>2026-05-28T08:32:31.000Z</time>
      </trkpt>
      <trkpt lat="44.00541" lon="3.50087">
        <ele>915.6</ele>
        <time>2026-05-28T08:32:32.000Z</time>
      </trkpt>
      <trkpt lat="44.00541" lon="3.50087">
        <ele>915.5</ele>
        <time>2026-05-28T08:32:33.000Z</time>
      </trkpt>
      <trkpt lat="44.00541" lon="3.50087">
        <ele>915.3</ele>
        <time>2026-05-28T08:32:34.000Z</time>
      </trkpt>
      <trkpt lat="44.00541" lon="3.50087">
        <ele>915.2</ele>
        <time>2026-05-28T08:32:35.000Z</time>
      </trkpt>
      <trkpt lat="44.00541" lon="3.50087">
        <ele>915.1</ele>
        <time>2026-05-28T08:32:36.000Z</time>
      </trkpt>
      <trkpt lat="44.00541" lon="3.50087">
        <ele>915.1</ele>
        <time>2026-05-28T08:32:37.000Z</time>
      </trkpt>
      <trkpt lat="44.00541" lon="3.50087">
        <ele>915.1</ele>
        <time>2026-05-28T08:32:38.000Z</time>
      </trkpt>
      <trkpt lat="44.00541" lon="3.50087">
        <ele>915.1</ele>
        <time>2026-05-28T08:32:39.000Z</time>
      </trkpt>
      <trkpt lat="44.00541" lon="3.50087">
        <ele>915</ele>
        <time>2026-05-28T08:32:40.000Z</time>
      </trkpt>
      <trkpt lat="44.00541" lon="3.50087">
        <ele>915</ele>
        <time>2026-05-28T08:32:41.000Z</time>
      </trkpt>
      <trkpt lat="44.00541" lon="3.50087">
        <ele>915.1</ele>
        <time>2026-05-28T08:32:42.000Z</time>
      </trkpt>
      <trkpt lat="44.00541" lon="3.50087">
        <ele>915.2</ele>
        <time>2026-05-28T08:32:43.000Z</time>
      </trkpt>
      <trkpt lat="44.00541" lon="3.50087">
        <ele>915.3</ele>
        <time>2026-05-28T08:32:44.000Z</time>
      </trkpt>
      <trkpt lat="44.00541" lon="3.50087">
        <ele>915.4</ele>
        <time>2026-05-28T08:32:45.000Z</time>
      </trkpt>
      <trkpt lat="44.00542" lon="3.50087">
        <ele>915.6</ele>
        <time>2026-05-28T08:32:46.000Z</time>
      </trkpt>
      <trkpt lat="44.00542" lon="3.50087">
        <ele>916.1</ele>
        <time>2026-05-28T08:32:47.000Z</time>
      </trkpt>
      <trkpt lat="44.00542" lon="3.50087">
        <ele>916.2</ele>
        <time>2026-05-28T08:32:48.000Z</time>
      </trkpt>
      <trkpt lat="44.00542" lon="3.50087">
        <ele>916.2</ele>
        <time>2026-05-28T08:32:49.000Z</time>
      </trkpt>
      <trkpt lat="44.00542" lon="3.50087">
        <ele>916.3</ele>
        <time>2026-05-28T08:32:50.000Z</time>
      </trkpt>
      <trkpt lat="44.00542" lon="3.50088">
        <ele>916.4</ele>
        <time>2026-05-28T08:32:51.000Z</time>
      </trkpt>
      <trkpt lat="44.00542" lon="3.50088">
        <ele>916.6</ele>
        <time>2026-05-28T08:32:52.000Z</time>
      </trkpt>
      <trkpt lat="44.00542" lon="3.50088">
        <ele>916.7</ele>
        <time>2026-05-28T08:32:53.000Z</time>
      </trkpt>
      <trkpt lat="44.00542" lon="3.50088">
        <ele>917</ele>
        <time>2026-05-28T08:32:54.000Z</time>
      </trkpt>
      <trkpt lat="44.00542" lon="3.50088">
        <ele>916.8</ele>
        <time>2026-05-28T08:32:55.000Z</time>
      </trkpt>
      <trkpt lat="44.00542" lon="3.50088">
        <ele>916.7</ele>
        <time>2026-05-28T08:32:56.000Z</time>
      </trkpt>
      <trkpt lat="44.00542" lon="3.50088">
        <ele>916.6</ele>
        <time>2026-05-28T08:32:57.000Z</time>
      </trkpt>
      <trkpt lat="44.00542" lon="3.50088">
        <ele>916.5</ele>
        <time>2026-05-28T08:32:58.000Z</time>
      </trkpt>
      <trkpt lat="44.00542" lon="3.50088">
        <ele>916.7</ele>
        <time>2026-05-28T08:32:59.000Z</time>
      </trkpt>
      <trkpt lat="44.00542" lon="3.50087">
        <ele>917.1</ele>
        <time>2026-05-28T08:33:00.000Z</time>
      </trkpt>
      <trkpt lat="44.00542" lon="3.50087">
        <ele>917.4</ele>
        <time>2026-05-28T08:33:01.000Z</time>
      </trkpt>
      <trkpt lat="44.00542" lon="3.50087">
        <ele>917.6</ele>
        <time>2026-05-28T08:33:02.000Z</time>
      </trkpt>
      <trkpt lat="44.00542" lon="3.50087">
        <ele>917.8</ele>
        <time>2026-05-28T08:33:03.000Z</time>
      </trkpt>
      <trkpt lat="44.00542" lon="3.50087">
        <ele>918</ele>
        <time>2026-05-28T08:33:04.000Z</time>
      </trkpt>
      <trkpt lat="44.00542" lon="3.50087">
        <ele>918.3</ele>
        <time>2026-05-28T08:33:05.000Z</time>
      </trkpt>
      <trkpt lat="44.00542" lon="3.50088">
        <ele>918.6</ele>
        <time>2026-05-28T08:33:06.000Z</time>
      </trkpt>
      <trkpt lat="44.00542" lon="3.50088">
        <ele>918.7</ele>
        <time>2026-05-28T08:33:07.000Z</time>
      </trkpt>
      <trkpt lat="44.00542" lon="3.50088">
        <ele>919.1</ele>
        <time>2026-05-28T08:33:08.000Z</time>
      </trkpt>
      <trkpt lat="44.00542" lon="3.50088">
        <ele>919.5</ele>
        <time>2026-05-28T08:33:09.000Z</time>
      </trkpt>
      <trkpt lat="44.00542" lon="3.50088">
        <ele>919.6</ele>
        <time>2026-05-28T08:33:10.000Z</time>
      </trkpt>
      <trkpt lat="44.00542" lon="3.50088">
        <ele>919.5</ele>
        <time>2026-05-28T08:33:11.000Z</time>
      </trkpt>
      <trkpt lat="44.00542" lon="3.50088">
        <ele>919.4</ele>
        <time>2026-05-28T08:33:12.000Z</time>
      </trkpt>
      <trkpt lat="44.00542" lon="3.50088">
        <ele>919.5</ele>
        <time>2026-05-28T08:33:13.000Z</time>
      </trkpt>
      <trkpt lat="44.00542" lon="3.50088">
        <ele>919.5</ele>
        <time>2026-05-28T08:33:14.000Z</time>
      </trkpt>
      <trkpt lat="44.00542" lon="3.50088">
        <ele>919.6</ele>
        <time>2026-05-28T08:33:15.000Z</time>
      </trkpt>
      <trkpt lat="44.00542" lon="3.50088">
        <ele>919.8</ele>
        <time>2026-05-28T08:33:16.000Z</time>
      </trkpt>
      <trkpt lat="44.00542" lon="3.50088">
        <ele>920.1</ele>
        <time>2026-05-28T08:33:17.000Z</time>
      </trkpt>
      <trkpt lat="44.00542" lon="3.50089">
        <ele>920.2</ele>
        <time>2026-05-28T08:33:18.000Z</time>
      </trkpt>
      <trkpt lat="44.00542" lon="3.50089">
        <ele>920.4</ele>
        <time>2026-05-28T08:33:19.000Z</time>
      </trkpt>
      <trkpt lat="44.00542" lon="3.50089">
        <ele>920.5</ele>
        <time>2026-05-28T08:33:20.000Z</time>
      </trkpt>
      <trkpt lat="44.00542" lon="3.50089">
        <ele>920.4</ele>
        <time>2026-05-28T08:33:21.000Z</time>
      </trkpt>
      <trkpt lat="44.00542" lon="3.50089">
        <ele>920.5</ele>
        <time>2026-05-28T08:33:22.000Z</time>
      </trkpt>
      <trkpt lat="44.00542" lon="3.50089">
        <ele>920.8</ele>
        <time>2026-05-28T08:33:23.000Z</time>
      </trkpt>
      <trkpt lat="44.00542" lon="3.50088">
        <ele>921</ele>
        <time>2026-05-28T08:33:24.000Z</time>
      </trkpt>
      <trkpt lat="44.00542" lon="3.50088">
        <ele>921</ele>
        <time>2026-05-28T08:33:25.000Z</time>
      </trkpt>
      <trkpt lat="44.00542" lon="3.50088">
        <ele>920.8</ele>
        <time>2026-05-28T08:33:26.000Z</time>
      </trkpt>
      <trkpt lat="44.00542" lon="3.50088">
        <ele>920.8</ele>
        <time>2026-05-28T08:33:27.000Z</time>
      </trkpt>
      <trkpt lat="44.00542" lon="3.50088">
        <ele>920.8</ele>
        <time>2026-05-28T08:33:28.000Z</time>
      </trkpt>
      <trkpt lat="44.00542" lon="3.50088">
        <ele>920.7</ele>
        <time>2026-05-28T08:33:29.000Z</time>
      </trkpt>
      <trkpt lat="44.00542" lon="3.50088">
        <ele>920.8</ele>
        <time>2026-05-28T08:33:30.000Z</time>
      </trkpt>
      <trkpt lat="44.00542" lon="3.50088">
        <ele>920.9</ele>
        <time>2026-05-28T08:33:31.000Z</time>
      </trkpt>
      <trkpt lat="44.00542" lon="3.50088">
        <ele>921</ele>
        <time>2026-05-28T08:33:32.000Z</time>
      </trkpt>
      <trkpt lat="44.00542" lon="3.50088">
        <ele>920.9</ele>
        <time>2026-05-28T08:33:33.000Z</time>
      </trkpt>
      <trkpt lat="44.00542" lon="3.50088">
        <ele>920.8</ele>
        <time>2026-05-28T08:33:34.000Z</time>
      </trkpt>
      <trkpt lat="44.00542" lon="3.50088">
        <ele>921</ele>
        <time>2026-05-28T08:33:35.000Z</time>
      </trkpt>
      <trkpt lat="44.00542" lon="3.50088">
        <ele>921</ele>
        <time>2026-05-28T08:33:36.000Z</time>
      </trkpt>
      <trkpt lat="44.00542" lon="3.50088">
        <ele>921.1</ele>
        <time>2026-05-28T08:33:37.000Z</time>
      </trkpt>
      <trkpt lat="44.00543" lon="3.50088">
        <ele>921.1</ele>
        <time>2026-05-28T08:33:38.000Z</time>
      </trkpt>
      <trkpt lat="44.00543" lon="3.50088">
        <ele>921</ele>
        <time>2026-05-28T08:33:39.000Z</time>
      </trkpt>
      <trkpt lat="44.00543" lon="3.50088">
        <ele>921.1</ele>
        <time>2026-05-28T08:33:40.000Z</time>
      </trkpt>
      <trkpt lat="44.00543" lon="3.50088">
        <ele>921.1</ele>
        <time>2026-05-28T08:33:41.000Z</time>
      </trkpt>
      <trkpt lat="44.00543" lon="3.50088">
        <ele>921.1</ele>
        <time>2026-05-28T08:33:42.000Z</time>
      </trkpt>
      <trkpt lat="44.00543" lon="3.50088">
        <ele>921.1</ele>
        <time>2026-05-28T08:33:43.000Z</time>
      </trkpt>
      <trkpt lat="44.00543" lon="3.50088">
        <ele>921.2</ele>
        <time>2026-05-28T08:33:44.000Z</time>
      </trkpt>
      <trkpt lat="44.00543" lon="3.50088">
        <ele>921.1</ele>
        <time>2026-05-28T08:33:45.000Z</time>
      </trkpt>
      <trkpt lat="44.00543" lon="3.50088">
        <ele>921</ele>
        <time>2026-05-28T08:33:46.000Z</time>
      </trkpt>
      <trkpt lat="44.00543" lon="3.50088">
        <ele>921</ele>
        <time>2026-05-28T08:33:47.000Z</time>
      </trkpt>
      <trkpt lat="44.00543" lon="3.50088">
        <ele>920.9</ele>
        <time>2026-05-28T08:33:48.000Z</time>
      </trkpt>
      <trkpt lat="44.00543" lon="3.50088">
        <ele>920.8</ele>
        <time>2026-05-28T08:33:49.000Z</time>
      </trkpt>
      <trkpt lat="44.00543" lon="3.50088">
        <ele>920.6</ele>
        <time>2026-05-28T08:33:50.000Z</time>
      </trkpt>
      <trkpt lat="44.00543" lon="3.50088">
        <ele>920.7</ele>
        <time>2026-05-28T08:33:51.000Z</time>
      </trkpt>
      <trkpt lat="44.00543" lon="3.50088">
        <ele>920.7</ele>
        <time>2026-05-28T08:33:52.000Z</time>
      </trkpt>
      <trkpt lat="44.00543" lon="3.50088">
        <ele>920.6</ele>
        <time>2026-05-28T08:33:53.000Z</time>
      </trkpt>
      <trkpt lat="44.00543" lon="3.50088">
        <ele>920.4</ele>
        <time>2026-05-28T08:33:54.000Z</time>
      </trkpt>
      <trkpt lat="44.00543" lon="3.50088">
        <ele>920.2</ele>
        <time>2026-05-28T08:33:55.000Z</time>
      </trkpt>
      <trkpt lat="44.00543" lon="3.50088">
        <ele>920.1</ele>
        <time>2026-05-28T08:33:56.000Z</time>
      </trkpt>
      <trkpt lat="44.00543" lon="3.50088">
        <ele>919.8</ele>
        <time>2026-05-28T08:33:57.000Z</time>
      </trkpt>
      <trkpt lat="44.00543" lon="3.50088">
        <ele>919.8</ele>
        <time>2026-05-28T08:33:58.000Z</time>
      </trkpt>
      <trkpt lat="44.00543" lon="3.50088">
        <ele>919.6</ele>
        <time>2026-05-28T08:33:59.000Z</time>
      </trkpt>
      <trkpt lat="44.00543" lon="3.50088">
        <ele>919.4</ele>
        <time>2026-05-28T08:34:00.000Z</time>
      </trkpt>
      <trkpt lat="44.00543" lon="3.50088">
        <ele>919.4</ele>
        <time>2026-05-28T08:34:01.000Z</time>
      </trkpt>
      <trkpt lat="44.00543" lon="3.50088">
        <ele>919.6</ele>
        <time>2026-05-28T08:34:02.000Z</time>
      </trkpt>
      <trkpt lat="44.00543" lon="3.50088">
        <ele>919.8</ele>
        <time>2026-05-28T08:34:03.000Z</time>
      </trkpt>
      <trkpt lat="44.00543" lon="3.50088">
        <ele>920</ele>
        <time>2026-05-28T08:34:04.000Z</time>
      </trkpt>
      <trkpt lat="44.00543" lon="3.50088">
        <ele>920.1</ele>
        <time>2026-05-28T08:34:05.000Z</time>
      </trkpt>
      <trkpt lat="44.00543" lon="3.50088">
        <ele>920.1</ele>
        <time>2026-05-28T08:34:06.000Z</time>
      </trkpt>
      <trkpt lat="44.00543" lon="3.50089">
        <ele>920</ele>
        <time>2026-05-28T08:34:07.000Z</time>
      </trkpt>
      <trkpt lat="44.00543" lon="3.50089">
        <ele>920</ele>
        <time>2026-05-28T08:34:08.000Z</time>
      </trkpt>
      <trkpt lat="44.00543" lon="3.50089">
        <ele>919.9</ele>
        <time>2026-05-28T08:34:09.000Z</time>
      </trkpt>
      <trkpt lat="44.00543" lon="3.50089">
        <ele>920</ele>
        <time>2026-05-28T08:34:10.000Z</time>
      </trkpt>
      <trkpt lat="44.00543" lon="3.50089">
        <ele>920</ele>
        <time>2026-05-28T08:34:11.000Z</time>
      </trkpt>
      <trkpt lat="44.00543" lon="3.50089">
        <ele>919.9</ele>
        <time>2026-05-28T08:34:12.000Z</time>
      </trkpt>
      <trkpt lat="44.00543" lon="3.50089">
        <ele>919.8</ele>
        <time>2026-05-28T08:34:13.000Z</time>
      </trkpt>
      <trkpt lat="44.00543" lon="3.50089">
        <ele>919.8</ele>
        <time>2026-05-28T08:34:14.000Z</time>
      </trkpt>
      <trkpt lat="44.00543" lon="3.50089">
        <ele>919.6</ele>
        <time>2026-05-28T08:34:15.000Z</time>
      </trkpt>
      <trkpt lat="44.00543" lon="3.50089">
        <ele>919.6</ele>
        <time>2026-05-28T08:34:16.000Z</time>
      </trkpt>
      <trkpt lat="44.00543" lon="3.50089">
        <ele>919.7</ele>
        <time>2026-05-28T08:34:17.000Z</time>
      </trkpt>
      <trkpt lat="44.00543" lon="3.50089">
        <ele>919.7</ele>
        <time>2026-05-28T08:34:18.000Z</time>
      </trkpt>
      <trkpt lat="44.00543" lon="3.50089">
        <ele>919.7</ele>
        <time>2026-05-28T08:34:19.000Z</time>
      </trkpt>
      <trkpt lat="44.00543" lon="3.50089">
        <ele>919.6</ele>
        <time>2026-05-28T08:34:20.000Z</time>
      </trkpt>
      <trkpt lat="44.00543" lon="3.50089">
        <ele>919.5</ele>
        <time>2026-05-28T08:34:21.000Z</time>
      </trkpt>
      <trkpt lat="44.00543" lon="3.50089">
        <ele>919.4</ele>
        <time>2026-05-28T08:34:22.000Z</time>
      </trkpt>
      <trkpt lat="44.00543" lon="3.50089">
        <ele>919</ele>
        <time>2026-05-28T08:34:23.000Z</time>
      </trkpt>
      <trkpt lat="44.00543" lon="3.50089">
        <ele>918.7</ele>
        <time>2026-05-28T08:34:24.000Z</time>
      </trkpt>
      <trkpt lat="44.00543" lon="3.50089">
        <ele>918.6</ele>
        <time>2026-05-28T08:34:25.000Z</time>
      </trkpt>
      <trkpt lat="44.00543" lon="3.50089">
        <ele>918.4</ele>
        <time>2026-05-28T08:34:26.000Z</time>
      </trkpt>
      <trkpt lat="44.00543" lon="3.50089">
        <ele>918.2</ele>
        <time>2026-05-28T08:34:27.000Z</time>
      </trkpt>
      <trkpt lat="44.00543" lon="3.50089">
        <ele>918</ele>
        <time>2026-05-28T08:34:28.000Z</time>
      </trkpt>
      <trkpt lat="44.00543" lon="3.50089">
        <ele>917.8</ele>
        <time>2026-05-28T08:34:29.000Z</time>
      </trkpt>
      <trkpt lat="44.00543" lon="3.50089">
        <ele>917.7</ele>
        <time>2026-05-28T08:34:30.000Z</time>
      </trkpt>
      <trkpt lat="44.00543" lon="3.50089">
        <ele>917.8</ele>
        <time>2026-05-28T08:34:31.000Z</time>
      </trkpt>
      <trkpt lat="44.00543" lon="3.50089">
        <ele>918</ele>
        <time>2026-05-28T08:34:32.000Z</time>
      </trkpt>
      <trkpt lat="44.00543" lon="3.50089">
        <ele>917.9</ele>
        <time>2026-05-28T08:34:33.000Z</time>
      </trkpt>
      <trkpt lat="44.00543" lon="3.50089">
        <ele>918</ele>
        <time>2026-05-28T08:34:34.000Z</time>
      </trkpt>
      <trkpt lat="44.00543" lon="3.50089">
        <ele>918</ele>
        <time>2026-05-28T08:34:35.000Z</time>
      </trkpt>
      <trkpt lat="44.00543" lon="3.50089">
        <ele>918</ele>
        <time>2026-05-28T08:34:36.000Z</time>
      </trkpt>
      <trkpt lat="44.00543" lon="3.50089">
        <ele>918.2</ele>
        <time>2026-05-28T08:34:37.000Z</time>
      </trkpt>
      <trkpt lat="44.00543" lon="3.50089">
        <ele>918.7</ele>
        <time>2026-05-28T08:34:38.999Z</time>
      </trkpt>
      <trkpt lat="44.00543" lon="3.50089">
        <ele>919</ele>
        <time>2026-05-28T08:34:39.999Z</time>
      </trkpt>
      <trkpt lat="44.00543" lon="3.50089">
        <ele>919.2</ele>
        <time>2026-05-28T08:34:40.999Z</time>
      </trkpt>
      <trkpt lat="44.00543" lon="3.50089">
        <ele>919.5</ele>
        <time>2026-05-28T08:34:41.999Z</time>
      </trkpt>
      <trkpt lat="44.00543" lon="3.50089">
        <ele>919.8</ele>
        <time>2026-05-28T08:34:42.999Z</time>
      </trkpt>
      <trkpt lat="44.00543" lon="3.50089">
        <ele>920.3</ele>
        <time>2026-05-28T08:34:43.999Z</time>
      </trkpt>
      <trkpt lat="44.00543" lon="3.50089">
        <ele>920.6</ele>
        <time>2026-05-28T08:34:44.999Z</time>
      </trkpt>
      <trkpt lat="44.00543" lon="3.50089">
        <ele>920.7</ele>
        <time>2026-05-28T08:34:45.999Z</time>
      </trkpt>
      <trkpt lat="44.00543" lon="3.50089">
        <ele>920.8</ele>
        <time>2026-05-28T08:34:46.999Z</time>
      </trkpt>
      <trkpt lat="44.00543" lon="3.50089">
        <ele>921</ele>
        <time>2026-05-28T08:34:47.999Z</time>
      </trkpt>
      <trkpt lat="44.00543" lon="3.50089">
        <ele>921.1</ele>
        <time>2026-05-28T08:34:48.999Z</time>
      </trkpt>
      <trkpt lat="44.00543" lon="3.50089">
        <ele>921.1</ele>
        <time>2026-05-28T08:34:49.999Z</time>
      </trkpt>
      <trkpt lat="44.00543" lon="3.50089">
        <ele>921.1</ele>
        <time>2026-05-28T08:34:50.999Z</time>
      </trkpt>
      <trkpt lat="44.00543" lon="3.50089">
        <ele>921.1</ele>
        <time>2026-05-28T08:34:51.999Z</time>
      </trkpt>
      <trkpt lat="44.00543" lon="3.50089">
        <ele>921</ele>
        <time>2026-05-28T08:34:52.999Z</time>
      </trkpt>
      <trkpt lat="44.00543" lon="3.50089">
        <ele>921.2</ele>
        <time>2026-05-28T08:34:53.999Z</time>
      </trkpt>
      <trkpt lat="44.00543" lon="3.50089">
        <ele>921.2</ele>
        <time>2026-05-28T08:34:54.999Z</time>
      </trkpt>
      <trkpt lat="44.00543" lon="3.50089">
        <ele>921.5</ele>
        <time>2026-05-28T08:34:55.999Z</time>
      </trkpt>
      <trkpt lat="44.00543" lon="3.50089">
        <ele>921.4</ele>
        <time>2026-05-28T08:34:56.999Z</time>
      </trkpt>
      <trkpt lat="44.00543" lon="3.50089">
        <ele>921.8</ele>
        <time>2026-05-28T08:34:57.999Z</time>
      </trkpt>
      <trkpt lat="44.00543" lon="3.50089">
        <ele>922</ele>
        <time>2026-05-28T08:34:58.999Z</time>
      </trkpt>
      <trkpt lat="44.00543" lon="3.50089">
        <ele>922.2</ele>
        <time>2026-05-28T08:34:59.999Z</time>
      </trkpt>
      <trkpt lat="44.00543" lon="3.50089">
        <ele>922.3</ele>
        <time>2026-05-28T08:35:00.999Z</time>
      </trkpt>
      <trkpt lat="44.00543" lon="3.50089">
        <ele>922.3</ele>
        <time>2026-05-28T08:35:01.999Z</time>
      </trkpt>
      <trkpt lat="44.00543" lon="3.50089">
        <ele>922.2</ele>
        <time>2026-05-28T08:35:02.999Z</time>
      </trkpt>
      <trkpt lat="44.00543" lon="3.50089">
        <ele>922.2</ele>
        <time>2026-05-28T08:35:03.999Z</time>
      </trkpt>
      <trkpt lat="44.00543" lon="3.50089">
        <ele>922.4</ele>
        <time>2026-05-28T08:35:04.999Z</time>
      </trkpt>
      <trkpt lat="44.00543" lon="3.50089">
        <ele>922.6</ele>
        <time>2026-05-28T08:35:05.999Z</time>
      </trkpt>
      <trkpt lat="44.00543" lon="3.50089">
        <ele>922.7</ele>
        <time>2026-05-28T08:35:06.999Z</time>
      </trkpt>
      <trkpt lat="44.00543" lon="3.50089">
        <ele>922.9</ele>
        <time>2026-05-28T08:35:07.999Z</time>
      </trkpt>
      <trkpt lat="44.00543" lon="3.50089">
        <ele>923.1</ele>
        <time>2026-05-28T08:35:08.999Z</time>
      </trkpt>
      <trkpt lat="44.00543" lon="3.50089">
        <ele>923.2</ele>
        <time>2026-05-28T08:35:09.999Z</time>
      </trkpt>
      <trkpt lat="44.00544" lon="3.50089">
        <ele>923.4</ele>
        <time>2026-05-28T08:35:10.999Z</time>
      </trkpt>
      <trkpt lat="44.00544" lon="3.50089">
        <ele>923.4</ele>
        <time>2026-05-28T08:35:11.999Z</time>
      </trkpt>
      <trkpt lat="44.00544" lon="3.50089">
        <ele>923.3</ele>
        <time>2026-05-28T08:35:12.999Z</time>
      </trkpt>
      <trkpt lat="44.00544" lon="3.50089">
        <ele>923.3</ele>
        <time>2026-05-28T08:35:13.999Z</time>
      </trkpt>
      <trkpt lat="44.00544" lon="3.50089">
        <ele>923.2</ele>
        <time>2026-05-28T08:35:14.999Z</time>
      </trkpt>
      <trkpt lat="44.00544" lon="3.50089">
        <ele>922.9</ele>
        <time>2026-05-28T08:35:15.999Z</time>
      </trkpt>
      <trkpt lat="44.00544" lon="3.50089">
        <ele>922.4</ele>
        <time>2026-05-28T08:35:16.999Z</time>
      </trkpt>
      <trkpt lat="44.00544" lon="3.50089">
        <ele>922.2</ele>
        <time>2026-05-28T08:35:17.999Z</time>
      </trkpt>
      <trkpt lat="44.00544" lon="3.50089">
        <ele>922.1</ele>
        <time>2026-05-28T08:35:18.999Z</time>
      </trkpt>
      <trkpt lat="44.00544" lon="3.50089">
        <ele>922</ele>
        <time>2026-05-28T08:35:19.999Z</time>
      </trkpt>
      <trkpt lat="44.00544" lon="3.50089">
        <ele>921.8</ele>
        <time>2026-05-28T08:35:20.999Z</time>
      </trkpt>
      <trkpt lat="44.00544" lon="3.50089">
        <ele>921.5</ele>
        <time>2026-05-28T08:35:21.999Z</time>
      </trkpt>
      <trkpt lat="44.00544" lon="3.50089">
        <ele>921.3</ele>
        <time>2026-05-28T08:35:22.999Z</time>
      </trkpt>
      <trkpt lat="44.00544" lon="3.50089">
        <ele>921.1</ele>
        <time>2026-05-28T08:35:23.999Z</time>
      </trkpt>
      <trkpt lat="44.00543" lon="3.50089">
        <ele>920.9</ele>
        <time>2026-05-28T08:35:24.999Z</time>
      </trkpt>
      <trkpt lat="44.00543" lon="3.50089">
        <ele>920.8</ele>
        <time>2026-05-28T08:35:25.999Z</time>
      </trkpt>
      <trkpt lat="44.00543" lon="3.50089">
        <ele>920.8</ele>
        <time>2026-05-28T08:35:26.999Z</time>
      </trkpt>
      <trkpt lat="44.00543" lon="3.50089">
        <ele>920.6</ele>
        <time>2026-05-28T08:35:27.999Z</time>
      </trkpt>
      <trkpt lat="44.00543" lon="3.50089">
        <ele>920.4</ele>
        <time>2026-05-28T08:35:28.999Z</time>
      </trkpt>
      <trkpt lat="44.00543" lon="3.50089">
        <ele>920.2</ele>
        <time>2026-05-28T08:35:29.999Z</time>
      </trkpt>
      <trkpt lat="44.00543" lon="3.50089">
        <ele>920.1</ele>
        <time>2026-05-28T08:35:30.999Z</time>
      </trkpt>
      <trkpt lat="44.00543" lon="3.50089">
        <ele>920</ele>
        <time>2026-05-28T08:35:31.999Z</time>
      </trkpt>
      <trkpt lat="44.00543" lon="3.50089">
        <ele>919.7</ele>
        <time>2026-05-28T08:35:32.999Z</time>
      </trkpt>
      <trkpt lat="44.00543" lon="3.50089">
        <ele>919.4</ele>
        <time>2026-05-28T08:35:33.999Z</time>
      </trkpt>
      <trkpt lat="44.00543" lon="3.50089">
        <ele>919.3</ele>
        <time>2026-05-28T08:35:34.999Z</time>
      </trkpt>
      <trkpt lat="44.00543" lon="3.50089">
        <ele>919.2</ele>
        <time>2026-05-28T08:35:35.999Z</time>
      </trkpt>
      <trkpt lat="44.00543" lon="3.50089">
        <ele>919.2</ele>
        <time>2026-05-28T08:35:36.999Z</time>
      </trkpt>
      <trkpt lat="44.00543" lon="3.50089">
        <ele>919.1</ele>
        <time>2026-05-28T08:35:37.999Z</time>
      </trkpt>
      <trkpt lat="44.00543" lon="3.50089">
        <ele>919.1</ele>
        <time>2026-05-28T08:35:38.999Z</time>
      </trkpt>
      <trkpt lat="44.00543" lon="3.50089">
        <ele>919</ele>
        <time>2026-05-28T08:35:39.999Z</time>
      </trkpt>
      <trkpt lat="44.00543" lon="3.50089">
        <ele>918.9</ele>
        <time>2026-05-28T08:35:40.999Z</time>
      </trkpt>
      <trkpt lat="44.00543" lon="3.50089">
        <ele>918.8</ele>
        <time>2026-05-28T08:35:41.999Z</time>
      </trkpt>
      <trkpt lat="44.00543" lon="3.50089">
        <ele>918.6</ele>
        <time>2026-05-28T08:35:42.999Z</time>
      </trkpt>
      <trkpt lat="44.00543" lon="3.50089">
        <ele>918.5</ele>
        <time>2026-05-28T08:35:43.999Z</time>
      </trkpt>
      <trkpt lat="44.00544" lon="3.50089">
        <ele>918.5</ele>
        <time>2026-05-28T08:35:44.999Z</time>
      </trkpt>
      <trkpt lat="44.00544" lon="3.50089">
        <ele>918.5</ele>
        <time>2026-05-28T08:35:45.999Z</time>
      </trkpt>
      <trkpt lat="44.00544" lon="3.50089">
        <ele>918.4</ele>
        <time>2026-05-28T08:35:46.999Z</time>
      </trkpt>
      <trkpt lat="44.00544" lon="3.50089">
        <ele>918.4</ele>
        <time>2026-05-28T08:35:47.999Z</time>
      </trkpt>
      <trkpt lat="44.00544" lon="3.50089">
        <ele>918.5</ele>
        <time>2026-05-28T08:35:48.999Z</time>
      </trkpt>
      <trkpt lat="44.00544" lon="3.50089">
        <ele>918.8</ele>
        <time>2026-05-28T08:35:49.999Z</time>
      </trkpt>
      <trkpt lat="44.00544" lon="3.50089">
        <ele>919.2</ele>
        <time>2026-05-28T08:35:50.999Z</time>
      </trkpt>
      <trkpt lat="44.00544" lon="3.50089">
        <ele>919.5</ele>
        <time>2026-05-28T08:35:51.999Z</time>
      </trkpt>
      <trkpt lat="44.00544" lon="3.50089">
        <ele>919.7</ele>
        <time>2026-05-28T08:35:52.999Z</time>
      </trkpt>
      <trkpt lat="44.00544" lon="3.50089">
        <ele>919.9</ele>
        <time>2026-05-28T08:35:53.999Z</time>
      </trkpt>
      <trkpt lat="44.00544" lon="3.50089">
        <ele>920</ele>
        <time>2026-05-28T08:35:54.999Z</time>
      </trkpt>
      <trkpt lat="44.00544" lon="3.50089">
        <ele>920.2</ele>
        <time>2026-05-28T08:35:55.999Z</time>
      </trkpt>
      <trkpt lat="44.00544" lon="3.50089">
        <ele>920.2</ele>
        <time>2026-05-28T08:35:56.999Z</time>
      </trkpt>
      <trkpt lat="44.00544" lon="3.50089">
        <ele>920.1</ele>
        <time>2026-05-28T08:35:57.999Z</time>
      </trkpt>
      <trkpt lat="44.00544" lon="3.50089">
        <ele>920.3</ele>
        <time>2026-05-28T08:35:58.999Z</time>
      </trkpt>
      <trkpt lat="44.00544" lon="3.50089">
        <ele>920.6</ele>
        <time>2026-05-28T08:35:59.999Z</time>
      </trkpt>
      <trkpt lat="44.00544" lon="3.50089">
        <ele>920.8</ele>
        <time>2026-05-28T08:36:00.999Z</time>
      </trkpt>
      <trkpt lat="44.00544" lon="3.50089">
        <ele>920.9</ele>
        <time>2026-05-28T08:36:01.999Z</time>
      </trkpt>
      <trkpt lat="44.00544" lon="3.50089">
        <ele>920.9</ele>
        <time>2026-05-28T08:36:02.999Z</time>
      </trkpt>
      <trkpt lat="44.00545" lon="3.50089">
        <ele>920.7</ele>
        <time>2026-05-28T08:36:03.999Z</time>
      </trkpt>
      <trkpt lat="44.00545" lon="3.50089">
        <ele>920.4</ele>
        <time>2026-05-28T08:36:04.999Z</time>
      </trkpt>
      <trkpt lat="44.00545" lon="3.50089">
        <ele>920.2</ele>
        <time>2026-05-28T08:36:05.999Z</time>
      </trkpt>
      <trkpt lat="44.00545" lon="3.50089">
        <ele>920</ele>
        <time>2026-05-28T08:36:06.999Z</time>
      </trkpt>
      <trkpt lat="44.00545" lon="3.50089">
        <ele>919.8</ele>
        <time>2026-05-28T08:36:07.999Z</time>
      </trkpt>
      <trkpt lat="44.00545" lon="3.50089">
        <ele>919.4</ele>
        <time>2026-05-28T08:36:08.999Z</time>
      </trkpt>
      <trkpt lat="44.00545" lon="3.50089">
        <ele>919.2</ele>
        <time>2026-05-28T08:36:09.999Z</time>
      </trkpt>
      <trkpt lat="44.00545" lon="3.50089">
        <ele>918.9</ele>
        <time>2026-05-28T08:36:10.999Z</time>
      </trkpt>
      <trkpt lat="44.00545" lon="3.50089">
        <ele>918.6</ele>
        <time>2026-05-28T08:36:11.999Z</time>
      </trkpt>
      <trkpt lat="44.00545" lon="3.50089">
        <ele>918.1</ele>
        <time>2026-05-28T08:36:12.999Z</time>
      </trkpt>
      <trkpt lat="44.00545" lon="3.50089">
        <ele>917.8</ele>
        <time>2026-05-28T08:36:13.999Z</time>
      </trkpt>
      <trkpt lat="44.00545" lon="3.50089">
        <ele>917.7</ele>
        <time>2026-05-28T08:36:14.999Z</time>
      </trkpt>
      <trkpt lat="44.00545" lon="3.50089">
        <ele>917.7</ele>
        <time>2026-05-28T08:36:15.999Z</time>
      </trkpt>
      <trkpt lat="44.00545" lon="3.50089">
        <ele>917.8</ele>
        <time>2026-05-28T08:36:16.999Z</time>
      </trkpt>
      <trkpt lat="44.00545" lon="3.50089">
        <ele>917.7</ele>
        <time>2026-05-28T08:36:17.999Z</time>
      </trkpt>
      <trkpt lat="44.00545" lon="3.50089">
        <ele>917.5</ele>
        <time>2026-05-28T08:36:18.999Z</time>
      </trkpt>
      <trkpt lat="44.00545" lon="3.50089">
        <ele>917.7</ele>
        <time>2026-05-28T08:36:19.999Z</time>
      </trkpt>
      <trkpt lat="44.00545" lon="3.50089">
        <ele>917.8</ele>
        <time>2026-05-28T08:36:20.999Z</time>
      </trkpt>
      <trkpt lat="44.00545" lon="3.50089">
        <ele>917.8</ele>
        <time>2026-05-28T08:36:21.999Z</time>
      </trkpt>
      <trkpt lat="44.00545" lon="3.50089">
        <ele>917.7</ele>
        <time>2026-05-28T08:36:22.999Z</time>
      </trkpt>
      <trkpt lat="44.00545" lon="3.50089">
        <ele>917.4</ele>
        <time>2026-05-28T08:36:23.999Z</time>
      </trkpt>
      <trkpt lat="44.00545" lon="3.50089">
        <ele>917.1</ele>
        <time>2026-05-28T08:36:24.999Z</time>
      </trkpt>
      <trkpt lat="44.00545" lon="3.50089">
        <ele>917</ele>
        <time>2026-05-28T08:36:25.999Z</time>
      </trkpt>
      <trkpt lat="44.00545" lon="3.50089">
        <ele>916.6</ele>
        <time>2026-05-28T08:36:26.999Z</time>
      </trkpt>
      <trkpt lat="44.00545" lon="3.50089">
        <ele>916.4</ele>
        <time>2026-05-28T08:36:27.999Z</time>
      </trkpt>
      <trkpt lat="44.00545" lon="3.50089">
        <ele>916.3</ele>
        <time>2026-05-28T08:36:28.999Z</time>
      </trkpt>
      <trkpt lat="44.00545" lon="3.50089">
        <ele>916.2</ele>
        <time>2026-05-28T08:36:29.999Z</time>
      </trkpt>
      <trkpt lat="44.00545" lon="3.50089">
        <ele>916.1</ele>
        <time>2026-05-28T08:36:30.999Z</time>
      </trkpt>
      <trkpt lat="44.00545" lon="3.50089">
        <ele>916</ele>
        <time>2026-05-28T08:36:31.999Z</time>
      </trkpt>
      <trkpt lat="44.00545" lon="3.50089">
        <ele>916.1</ele>
        <time>2026-05-28T08:36:32.999Z</time>
      </trkpt>
      <trkpt lat="44.00545" lon="3.50089">
        <ele>916.5</ele>
        <time>2026-05-28T08:36:33.999Z</time>
      </trkpt>
      <trkpt lat="44.00545" lon="3.5009">
        <ele>916.8</ele>
        <time>2026-05-28T08:36:34.999Z</time>
      </trkpt>
      <trkpt lat="44.00545" lon="3.5009">
        <ele>916.9</ele>
        <time>2026-05-28T08:36:35.999Z</time>
      </trkpt>
      <trkpt lat="44.00546" lon="3.5009">
        <ele>917.2</ele>
        <time>2026-05-28T08:36:36.999Z</time>
      </trkpt>
      <trkpt lat="44.00546" lon="3.5009">
        <ele>917.4</ele>
        <time>2026-05-28T08:36:37.999Z</time>
      </trkpt>
      <trkpt lat="44.00546" lon="3.5009">
        <ele>917.7</ele>
        <time>2026-05-28T08:36:38.999Z</time>
      </trkpt>
      <trkpt lat="44.00546" lon="3.5009">
        <ele>918</ele>
        <time>2026-05-28T08:36:39.999Z</time>
      </trkpt>
      <trkpt lat="44.00546" lon="3.5009">
        <ele>918.3</ele>
        <time>2026-05-28T08:36:40.999Z</time>
      </trkpt>
      <trkpt lat="44.00546" lon="3.5009">
        <ele>918.6</ele>
        <time>2026-05-28T08:36:41.999Z</time>
      </trkpt>
      <trkpt lat="44.00546" lon="3.5009">
        <ele>918.8</ele>
        <time>2026-05-28T08:36:42.999Z</time>
      </trkpt>
      <trkpt lat="44.00546" lon="3.5009">
        <ele>918.8</ele>
        <time>2026-05-28T08:36:43.999Z</time>
      </trkpt>
      <trkpt lat="44.00546" lon="3.5009">
        <ele>918.9</ele>
        <time>2026-05-28T08:36:44.999Z</time>
      </trkpt>
      <trkpt lat="44.00546" lon="3.5009">
        <ele>918.8</ele>
        <time>2026-05-28T08:36:45.999Z</time>
      </trkpt>
      <trkpt lat="44.00546" lon="3.5009">
        <ele>918.8</ele>
        <time>2026-05-28T08:36:46.999Z</time>
      </trkpt>
      <trkpt lat="44.00546" lon="3.5009">
        <ele>918.9</ele>
        <time>2026-05-28T08:36:47.999Z</time>
      </trkpt>
      <trkpt lat="44.00546" lon="3.5009">
        <ele>918.9</ele>
        <time>2026-05-28T08:36:48.999Z</time>
      </trkpt>
      <trkpt lat="44.00546" lon="3.5009">
        <ele>918.8</ele>
        <time>2026-05-28T08:36:49.999Z</time>
      </trkpt>
      <trkpt lat="44.00546" lon="3.5009">
        <ele>918.8</ele>
        <time>2026-05-28T08:36:50.999Z</time>
      </trkpt>
      <trkpt lat="44.00546" lon="3.5009">
        <ele>918.8</ele>
        <time>2026-05-28T08:36:51.999Z</time>
      </trkpt>
      <trkpt lat="44.00546" lon="3.5009">
        <ele>918.7</ele>
        <time>2026-05-28T08:36:52.999Z</time>
      </trkpt>
      <trkpt lat="44.00546" lon="3.5009">
        <ele>918.7</ele>
        <time>2026-05-28T08:36:53.999Z</time>
      </trkpt>
      <trkpt lat="44.00546" lon="3.5009">
        <ele>918.7</ele>
        <time>2026-05-28T08:36:54.999Z</time>
      </trkpt>
      <trkpt lat="44.00546" lon="3.5009">
        <ele>918.8</ele>
        <time>2026-05-28T08:36:55.999Z</time>
      </trkpt>
      <trkpt lat="44.00546" lon="3.5009">
        <ele>918.8</ele>
        <time>2026-05-28T08:36:56.999Z</time>
      </trkpt>
      <trkpt lat="44.00546" lon="3.5009">
        <ele>919</ele>
        <time>2026-05-28T08:36:57.999Z</time>
      </trkpt>
      <trkpt lat="44.00546" lon="3.5009">
        <ele>919</ele>
        <time>2026-05-28T08:36:58.999Z</time>
      </trkpt>
      <trkpt lat="44.00546" lon="3.5009">
        <ele>919.2</ele>
        <time>2026-05-28T08:36:59.999Z</time>
      </trkpt>
      <trkpt lat="44.00546" lon="3.5009">
        <ele>919.3</ele>
        <time>2026-05-28T08:37:00.999Z</time>
      </trkpt>
      <trkpt lat="44.00546" lon="3.5009">
        <ele>919.3</ele>
        <time>2026-05-28T08:37:01.999Z</time>
      </trkpt>
      <trkpt lat="44.00546" lon="3.5009">
        <ele>919.5</ele>
        <time>2026-05-28T08:37:02.999Z</time>
      </trkpt>
      <trkpt lat="44.00546" lon="3.5009">
        <ele>919.6</ele>
        <time>2026-05-28T08:37:03.999Z</time>
      </trkpt>
      <trkpt lat="44.00546" lon="3.5009">
        <ele>919.5</ele>
        <time>2026-05-28T08:37:04.999Z</time>
      </trkpt>
      <trkpt lat="44.00546" lon="3.5009">
        <ele>919.4</ele>
        <time>2026-05-28T08:37:05.999Z</time>
      </trkpt>
      <trkpt lat="44.00546" lon="3.5009">
        <ele>919.2</ele>
        <time>2026-05-28T08:37:06.999Z</time>
      </trkpt>
      <trkpt lat="44.00546" lon="3.5009">
        <ele>919.1</ele>
        <time>2026-05-28T08:37:07.999Z</time>
      </trkpt>
      <trkpt lat="44.00546" lon="3.5009">
        <ele>919</ele>
        <time>2026-05-28T08:37:08.999Z</time>
      </trkpt>
      <trkpt lat="44.00546" lon="3.5009">
        <ele>918.8</ele>
        <time>2026-05-28T08:37:09.999Z</time>
      </trkpt>
      <trkpt lat="44.00546" lon="3.5009">
        <ele>918.9</ele>
        <time>2026-05-28T08:37:10.999Z</time>
      </trkpt>
      <trkpt lat="44.00546" lon="3.5009">
        <ele>919.1</ele>
        <time>2026-05-28T08:37:11.999Z</time>
      </trkpt>
      <trkpt lat="44.00546" lon="3.5009">
        <ele>919.3</ele>
        <time>2026-05-28T08:37:12.999Z</time>
      </trkpt>
      <trkpt lat="44.00546" lon="3.5009">
        <ele>919.3</ele>
        <time>2026-05-28T08:37:13.999Z</time>
      </trkpt>
      <trkpt lat="44.00546" lon="3.5009">
        <ele>919.2</ele>
        <time>2026-05-28T08:37:14.999Z</time>
      </trkpt>
      <trkpt lat="44.00546" lon="3.5009">
        <ele>919.3</ele>
        <time>2026-05-28T08:37:15.999Z</time>
      </trkpt>
      <trkpt lat="44.00546" lon="3.5009">
        <ele>919.6</ele>
        <time>2026-05-28T08:37:16.999Z</time>
      </trkpt>
      <trkpt lat="44.00546" lon="3.5009">
        <ele>919.7</ele>
        <time>2026-05-28T08:37:17.999Z</time>
      </trkpt>
      <trkpt lat="44.00546" lon="3.5009">
        <ele>919.8</ele>
        <time>2026-05-28T08:37:18.999Z</time>
      </trkpt>
      <trkpt lat="44.00546" lon="3.5009">
        <ele>919.9</ele>
        <time>2026-05-28T08:37:19.999Z</time>
      </trkpt>
      <trkpt lat="44.00546" lon="3.5009">
        <ele>919.8</ele>
        <time>2026-05-28T08:37:20.999Z</time>
      </trkpt>
      <trkpt lat="44.00546" lon="3.5009">
        <ele>919.8</ele>
        <time>2026-05-28T08:37:21.999Z</time>
      </trkpt>
      <trkpt lat="44.00546" lon="3.5009">
        <ele>919.8</ele>
        <time>2026-05-28T08:37:22.999Z</time>
      </trkpt>
      <trkpt lat="44.00546" lon="3.5009">
        <ele>919.9</ele>
        <time>2026-05-28T08:37:23.999Z</time>
      </trkpt>
      <trkpt lat="44.00546" lon="3.5009">
        <ele>920.2</ele>
        <time>2026-05-28T08:37:24.999Z</time>
      </trkpt>
      <trkpt lat="44.00546" lon="3.5009">
        <ele>920.4</ele>
        <time>2026-05-28T08:37:25.999Z</time>
      </trkpt>
      <trkpt lat="44.00545" lon="3.5009">
        <ele>920.6</ele>
        <time>2026-05-28T08:37:26.999Z</time>
      </trkpt>
      <trkpt lat="44.00545" lon="3.5009">
        <ele>920.9</ele>
        <time>2026-05-28T08:37:27.999Z</time>
      </trkpt>
      <trkpt lat="44.00545" lon="3.5009">
        <ele>921.1</ele>
        <time>2026-05-28T08:37:28.999Z</time>
      </trkpt>
      <trkpt lat="44.00545" lon="3.5009">
        <ele>921.3</ele>
        <time>2026-05-28T08:37:29.999Z</time>
      </trkpt>
      <trkpt lat="44.00545" lon="3.5009">
        <ele>921.5</ele>
        <time>2026-05-28T08:37:30.999Z</time>
      </trkpt>
      <trkpt lat="44.00545" lon="3.5009">
        <ele>921.5</ele>
        <time>2026-05-28T08:37:31.999Z</time>
      </trkpt>
      <trkpt lat="44.00545" lon="3.5009">
        <ele>921.6</ele>
        <time>2026-05-28T08:37:32.999Z</time>
      </trkpt>
      <trkpt lat="44.00545" lon="3.5009">
        <ele>921.6</ele>
        <time>2026-05-28T08:37:33.999Z</time>
      </trkpt>
      <trkpt lat="44.00545" lon="3.5009">
        <ele>921.6</ele>
        <time>2026-05-28T08:37:34.999Z</time>
      </trkpt>
      <trkpt lat="44.00545" lon="3.5009">
        <ele>921.7</ele>
        <time>2026-05-28T08:37:35.999Z</time>
      </trkpt>
      <trkpt lat="44.00545" lon="3.5009">
        <ele>921.9</ele>
        <time>2026-05-28T08:37:36.999Z</time>
      </trkpt>
      <trkpt lat="44.00545" lon="3.5009">
        <ele>922</ele>
        <time>2026-05-28T08:37:37.999Z</time>
      </trkpt>
      <trkpt lat="44.00545" lon="3.5009">
        <ele>922.1</ele>
        <time>2026-05-28T08:37:38.999Z</time>
      </trkpt>
      <trkpt lat="44.00545" lon="3.5009">
        <ele>922.2</ele>
        <time>2026-05-28T08:37:39.999Z</time>
      </trkpt>
      <trkpt lat="44.00545" lon="3.50089">
        <ele>922.2</ele>
        <time>2026-05-28T08:37:40.999Z</time>
      </trkpt>
      <trkpt lat="44.00545" lon="3.5009">
        <ele>922.3</ele>
        <time>2026-05-28T08:37:41.999Z</time>
      </trkpt>
      <trkpt lat="44.00545" lon="3.5009">
        <ele>922.2</ele>
        <time>2026-05-28T08:37:42.999Z</time>
      </trkpt>
      <trkpt lat="44.00545" lon="3.5009">
        <ele>922.3</ele>
        <time>2026-05-28T08:37:43.999Z</time>
      </trkpt>
      <trkpt lat="44.00545" lon="3.5009">
        <ele>922.4</ele>
        <time>2026-05-28T08:37:44.999Z</time>
      </trkpt>
      <trkpt lat="44.00545" lon="3.5009">
        <ele>922.2</ele>
        <time>2026-05-28T08:37:45.999Z</time>
      </trkpt>
      <trkpt lat="44.00545" lon="3.5009">
        <ele>922.1</ele>
        <time>2026-05-28T08:37:46.999Z</time>
      </trkpt>
      <trkpt lat="44.00545" lon="3.5009">
        <ele>922.1</ele>
        <time>2026-05-28T08:37:47.999Z</time>
      </trkpt>
      <trkpt lat="44.00545" lon="3.5009">
        <ele>922.2</ele>
        <time>2026-05-28T08:37:48.999Z</time>
      </trkpt>
      <trkpt lat="44.00545" lon="3.5009">
        <ele>922.5</ele>
        <time>2026-05-28T08:37:49.999Z</time>
      </trkpt>
      <trkpt lat="44.00545" lon="3.5009">
        <ele>922.6</ele>
        <time>2026-05-28T08:37:50.999Z</time>
      </trkpt>
      <trkpt lat="44.00545" lon="3.5009">
        <ele>922.6</ele>
        <time>2026-05-28T08:37:51.999Z</time>
      </trkpt>
      <trkpt lat="44.00545" lon="3.5009">
        <ele>922.6</ele>
        <time>2026-05-28T08:37:52.999Z</time>
      </trkpt>
      <trkpt lat="44.00545" lon="3.5009">
        <ele>922.7</ele>
        <time>2026-05-28T08:37:53.999Z</time>
      </trkpt>
      <trkpt lat="44.00544" lon="3.5009">
        <ele>922.6</ele>
        <time>2026-05-28T08:37:54.999Z</time>
      </trkpt>
      <trkpt lat="44.00544" lon="3.5009">
        <ele>922.6</ele>
        <time>2026-05-28T08:37:55.999Z</time>
      </trkpt>
      <trkpt lat="44.00544" lon="3.5009">
        <ele>922.6</ele>
        <time>2026-05-28T08:37:56.999Z</time>
      </trkpt>
      <trkpt lat="44.00544" lon="3.5009">
        <ele>922.7</ele>
        <time>2026-05-28T08:37:57.999Z</time>
      </trkpt>
      <trkpt lat="44.00544" lon="3.5009">
        <ele>922.7</ele>
        <time>2026-05-28T08:37:58.999Z</time>
      </trkpt>
      <trkpt lat="44.00544" lon="3.5009">
        <ele>923</ele>
        <time>2026-05-28T08:37:59.999Z</time>
      </trkpt>
      <trkpt lat="44.00544" lon="3.5009">
        <ele>923.1</ele>
        <time>2026-05-28T08:38:00.999Z</time>
      </trkpt>
      <trkpt lat="44.00544" lon="3.5009">
        <ele>923</ele>
        <time>2026-05-28T08:38:01.999Z</time>
      </trkpt>
      <trkpt lat="44.00545" lon="3.5009">
        <ele>923.2</ele>
        <time>2026-05-28T08:38:02.999Z</time>
      </trkpt>
      <trkpt lat="44.00545" lon="3.5009">
        <ele>923.6</ele>
        <time>2026-05-28T08:38:03.999Z</time>
      </trkpt>
      <trkpt lat="44.00545" lon="3.5009">
        <ele>923.9</ele>
        <time>2026-05-28T08:38:04.999Z</time>
      </trkpt>
      <trkpt lat="44.00545" lon="3.5009">
        <ele>924</ele>
        <time>2026-05-28T08:38:05.999Z</time>
      </trkpt>
      <trkpt lat="44.00545" lon="3.5009">
        <ele>924.2</ele>
        <time>2026-05-28T08:38:06.999Z</time>
      </trkpt>
      <trkpt lat="44.00545" lon="3.5009">
        <ele>924.2</ele>
        <time>2026-05-28T08:38:07.999Z</time>
      </trkpt>
      <trkpt lat="44.00545" lon="3.5009">
        <ele>924.4</ele>
        <time>2026-05-28T08:38:08.999Z</time>
      </trkpt>
      <trkpt lat="44.00544" lon="3.50091">
        <ele>924.6</ele>
        <time>2026-05-28T08:38:09.999Z</time>
      </trkpt>
      <trkpt lat="44.00544" lon="3.50091">
        <ele>924.8</ele>
        <time>2026-05-28T08:38:10.999Z</time>
      </trkpt>
      <trkpt lat="44.00544" lon="3.50091">
        <ele>925</ele>
        <time>2026-05-28T08:38:11.999Z</time>
      </trkpt>
      <trkpt lat="44.00544" lon="3.50091">
        <ele>925.2</ele>
        <time>2026-05-28T08:38:12.999Z</time>
      </trkpt>
      <trkpt lat="44.00545" lon="3.50091">
        <ele>925.5</ele>
        <time>2026-05-28T08:38:13.999Z</time>
      </trkpt>
      <trkpt lat="44.00545" lon="3.50091">
        <ele>925.9</ele>
        <time>2026-05-28T08:38:14.999Z</time>
      </trkpt>
      <trkpt lat="44.00545" lon="3.50091">
        <ele>926.3</ele>
        <time>2026-05-28T08:38:15.999Z</time>
      </trkpt>
      <trkpt lat="44.00545" lon="3.5009">
        <ele>926.4</ele>
        <time>2026-05-28T08:38:16.999Z</time>
      </trkpt>
      <trkpt lat="44.00545" lon="3.5009">
        <ele>926.6</ele>
        <time>2026-05-28T08:38:17.999Z</time>
      </trkpt>
      <trkpt lat="44.00545" lon="3.5009">
        <ele>926.8</ele>
        <time>2026-05-28T08:38:18.999Z</time>
      </trkpt>
      <trkpt lat="44.00545" lon="3.5009">
        <ele>926.7</ele>
        <time>2026-05-28T08:38:19.999Z</time>
      </trkpt>
      <trkpt lat="44.00545" lon="3.5009">
        <ele>926.6</ele>
        <time>2026-05-28T08:38:20.999Z</time>
      </trkpt>
      <trkpt lat="44.00545" lon="3.5009">
        <ele>926.4</ele>
        <time>2026-05-28T08:38:21.999Z</time>
      </trkpt>
      <trkpt lat="44.00545" lon="3.5009">
        <ele>926.3</ele>
        <time>2026-05-28T08:38:22.999Z</time>
      </trkpt>
      <trkpt lat="44.00545" lon="3.5009">
        <ele>926.2</ele>
        <time>2026-05-28T08:38:23.999Z</time>
      </trkpt>
      <trkpt lat="44.00545" lon="3.5009">
        <ele>926.1</ele>
        <time>2026-05-28T08:38:24.999Z</time>
      </trkpt>
      <trkpt lat="44.00545" lon="3.5009">
        <ele>925.9</ele>
        <time>2026-05-28T08:38:25.999Z</time>
      </trkpt>
      <trkpt lat="44.00545" lon="3.5009">
        <ele>925.7</ele>
        <time>2026-05-28T08:38:26.999Z</time>
      </trkpt>
      <trkpt lat="44.00545" lon="3.5009">
        <ele>925.7</ele>
        <time>2026-05-28T08:38:27.999Z</time>
      </trkpt>
      <trkpt lat="44.00545" lon="3.5009">
        <ele>925.5</ele>
        <time>2026-05-28T08:38:28.999Z</time>
      </trkpt>
      <trkpt lat="44.00545" lon="3.5009">
        <ele>925.6</ele>
        <time>2026-05-28T08:38:29.999Z</time>
      </trkpt>
      <trkpt lat="44.00545" lon="3.5009">
        <ele>925.6</ele>
        <time>2026-05-28T08:38:30.999Z</time>
      </trkpt>
      <trkpt lat="44.00545" lon="3.5009">
        <ele>925.5</ele>
        <time>2026-05-28T08:38:31.999Z</time>
      </trkpt>
      <trkpt lat="44.00545" lon="3.5009">
        <ele>925.7</ele>
        <time>2026-05-28T08:38:32.999Z</time>
      </trkpt>
      <trkpt lat="44.00545" lon="3.5009">
        <ele>925.9</ele>
        <time>2026-05-28T08:38:33.999Z</time>
      </trkpt>
      <trkpt lat="44.00545" lon="3.5009">
        <ele>925.9</ele>
        <time>2026-05-28T08:38:34.999Z</time>
      </trkpt>
      <trkpt lat="44.00545" lon="3.5009">
        <ele>926</ele>
        <time>2026-05-28T08:38:35.999Z</time>
      </trkpt>
      <trkpt lat="44.00545" lon="3.5009">
        <ele>926.4</ele>
        <time>2026-05-28T08:38:36.999Z</time>
      </trkpt>
      <trkpt lat="44.00544" lon="3.5009">
        <ele>926.4</ele>
        <time>2026-05-28T08:38:37.999Z</time>
      </trkpt>
      <trkpt lat="44.00544" lon="3.5009">
        <ele>926.6</ele>
        <time>2026-05-28T08:38:38.999Z</time>
      </trkpt>
      <trkpt lat="44.00544" lon="3.5009">
        <ele>926.7</ele>
        <time>2026-05-28T08:38:39.999Z</time>
      </trkpt>
      <trkpt lat="44.00544" lon="3.5009">
        <ele>926.6</ele>
        <time>2026-05-28T08:38:40.999Z</time>
      </trkpt>
      <trkpt lat="44.00544" lon="3.5009">
        <ele>926.3</ele>
        <time>2026-05-28T08:38:41.999Z</time>
      </trkpt>
      <trkpt lat="44.00544" lon="3.5009">
        <ele>926.1</ele>
        <time>2026-05-28T08:38:42.999Z</time>
      </trkpt>
      <trkpt lat="44.00544" lon="3.5009">
        <ele>926.1</ele>
        <time>2026-05-28T08:38:43.999Z</time>
      </trkpt>
      <trkpt lat="44.00544" lon="3.50089">
        <ele>926.2</ele>
        <time>2026-05-28T08:38:44.999Z</time>
      </trkpt>
      <trkpt lat="44.00544" lon="3.50089">
        <ele>926.3</ele>
        <time>2026-05-28T08:38:45.999Z</time>
      </trkpt>
      <trkpt lat="44.00544" lon="3.50089">
        <ele>926.2</ele>
        <time>2026-05-28T08:38:46.999Z</time>
      </trkpt>
      <trkpt lat="44.00544" lon="3.50089">
        <ele>925.9</ele>
        <time>2026-05-28T08:38:47.999Z</time>
      </trkpt>
      <trkpt lat="44.00544" lon="3.50089">
        <ele>925.9</ele>
        <time>2026-05-28T08:38:48.999Z</time>
      </trkpt>
      <trkpt lat="44.00544" lon="3.50089">
        <ele>925.7</ele>
        <time>2026-05-28T08:38:49.999Z</time>
      </trkpt>
      <trkpt lat="44.00544" lon="3.50089">
        <ele>925.4</ele>
        <time>2026-05-28T08:38:50.999Z</time>
      </trkpt>
      <trkpt lat="44.00543" lon="3.50089">
        <ele>925.3</ele>
        <time>2026-05-28T08:38:51.999Z</time>
      </trkpt>
      <trkpt lat="44.00542" lon="3.50088">
        <ele>925.1</ele>
        <time>2026-05-28T08:38:52.999Z</time>
      </trkpt>
      <trkpt lat="44.00541" lon="3.50088">
        <ele>924.9</ele>
        <time>2026-05-28T08:38:53.999Z</time>
      </trkpt>
      <trkpt lat="44.00541" lon="3.50087">
        <ele>924.8</ele>
        <time>2026-05-28T08:38:54.999Z</time>
      </trkpt>
      <trkpt lat="44.00541" lon="3.50087">
        <ele>924.8</ele>
        <time>2026-05-28T08:38:55.999Z</time>
      </trkpt>
      <trkpt lat="44.00541" lon="3.50087">
        <ele>924.7</ele>
        <time>2026-05-28T08:38:56.999Z</time>
      </trkpt>
      <trkpt lat="44.00541" lon="3.50087">
        <ele>924.7</ele>
        <time>2026-05-28T08:38:57.999Z</time>
      </trkpt>
      <trkpt lat="44.00541" lon="3.50087">
        <ele>924.6</ele>
        <time>2026-05-28T08:38:58.999Z</time>
      </trkpt>
      <trkpt lat="44.00541" lon="3.50087">
        <ele>924.6</ele>
        <time>2026-05-28T08:38:59.999Z</time>
      </trkpt>
      <trkpt lat="44.00541" lon="3.50087">
        <ele>924.5</ele>
        <time>2026-05-28T08:39:00.999Z</time>
      </trkpt>
      <trkpt lat="44.00541" lon="3.50087">
        <ele>924.5</ele>
        <time>2026-05-28T08:39:01.999Z</time>
      </trkpt>
      <trkpt lat="44.00541" lon="3.50087">
        <ele>924.6</ele>
        <time>2026-05-28T08:39:02.999Z</time>
      </trkpt>
      <trkpt lat="44.00541" lon="3.50087">
        <ele>925</ele>
        <time>2026-05-28T08:39:03.999Z</time>
      </trkpt>
      <trkpt lat="44.00541" lon="3.50087">
        <ele>925.2</ele>
        <time>2026-05-28T08:39:04.999Z</time>
      </trkpt>
      <trkpt lat="44.00541" lon="3.50087">
        <ele>925.1</ele>
        <time>2026-05-28T08:39:05.999Z</time>
      </trkpt>
      <trkpt lat="44.00541" lon="3.50087">
        <ele>925.3</ele>
        <time>2026-05-28T08:39:06.999Z</time>
      </trkpt>
      <trkpt lat="44.00541" lon="3.50088">
        <ele>925.5</ele>
        <time>2026-05-28T08:39:07.999Z</time>
      </trkpt>
      <trkpt lat="44.00541" lon="3.50088">
        <ele>925.2</ele>
        <time>2026-05-28T08:39:08.999Z</time>
      </trkpt>
      <trkpt lat="44.00541" lon="3.50088">
        <ele>924.9</ele>
        <time>2026-05-28T08:39:09.999Z</time>
      </trkpt>
      <trkpt lat="44.00541" lon="3.50087">
        <ele>924.6</ele>
        <time>2026-05-28T08:39:10.999Z</time>
      </trkpt>
      <trkpt lat="44.00541" lon="3.50087">
        <ele>924.3</ele>
        <time>2026-05-28T08:39:11.999Z</time>
      </trkpt>
      <trkpt lat="44.0054" lon="3.50087">
        <ele>924.2</ele>
        <time>2026-05-28T08:39:12.999Z</time>
      </trkpt>
      <trkpt lat="44.00539" lon="3.50088">
        <ele>924.3</ele>
        <time>2026-05-28T08:39:13.999Z</time>
      </trkpt>
      <trkpt lat="44.00538" lon="3.50089">
        <ele>924.4</ele>
        <time>2026-05-28T08:39:14.999Z</time>
      </trkpt>
      <trkpt lat="44.00538" lon="3.50089">
        <ele>924.5</ele>
        <time>2026-05-28T08:39:15.999Z</time>
      </trkpt>
      <trkpt lat="44.00538" lon="3.50089">
        <ele>924.3</ele>
        <time>2026-05-28T08:39:16.999Z</time>
      </trkpt>
      <trkpt lat="44.00538" lon="3.50089">
        <ele>924.4</ele>
        <time>2026-05-28T08:39:17.999Z</time>
      </trkpt>
      <trkpt lat="44.00538" lon="3.50089">
        <ele>924.3</ele>
        <time>2026-05-28T08:39:18.999Z</time>
      </trkpt>
      <trkpt lat="44.00538" lon="3.50089">
        <ele>924.5</ele>
        <time>2026-05-28T08:39:19.999Z</time>
      </trkpt>
      <trkpt lat="44.00538" lon="3.50089">
        <ele>924.7</ele>
        <time>2026-05-28T08:39:20.999Z</time>
      </trkpt>
      <trkpt lat="44.00538" lon="3.5009">
        <ele>924.8</ele>
        <time>2026-05-28T08:39:21.999Z</time>
      </trkpt>
      <trkpt lat="44.00538" lon="3.5009">
        <ele>924.9</ele>
        <time>2026-05-28T08:39:22.999Z</time>
      </trkpt>
      <trkpt lat="44.00538" lon="3.5009">
        <ele>925</ele>
        <time>2026-05-28T08:39:23.999Z</time>
      </trkpt>
      <trkpt lat="44.00538" lon="3.5009">
        <ele>925.2</ele>
        <time>2026-05-28T08:39:24.999Z</time>
      </trkpt>
      <trkpt lat="44.00538" lon="3.5009">
        <ele>925.4</ele>
        <time>2026-05-28T08:39:25.999Z</time>
      </trkpt>
      <trkpt lat="44.00539" lon="3.5009">
        <ele>925.4</ele>
        <time>2026-05-28T08:39:26.999Z</time>
      </trkpt>
      <trkpt lat="44.00539" lon="3.5009">
        <ele>925.6</ele>
        <time>2026-05-28T08:39:27.999Z</time>
      </trkpt>
      <trkpt lat="44.00539" lon="3.5009">
        <ele>925.9</ele>
        <time>2026-05-28T08:39:28.999Z</time>
      </trkpt>
      <trkpt lat="44.00539" lon="3.5009">
        <ele>926.2</ele>
        <time>2026-05-28T08:39:29.999Z</time>
      </trkpt>
      <trkpt lat="44.00539" lon="3.5009">
        <ele>926.4</ele>
        <time>2026-05-28T08:39:30.999Z</time>
      </trkpt>
      <trkpt lat="44.00539" lon="3.5009">
        <ele>926.5</ele>
        <time>2026-05-28T08:39:31.999Z</time>
      </trkpt>
      <trkpt lat="44.00539" lon="3.5009">
        <ele>926.8</ele>
        <time>2026-05-28T08:39:32.999Z</time>
      </trkpt>
      <trkpt lat="44.00539" lon="3.50091">
        <ele>926.9</ele>
        <time>2026-05-28T08:39:33.999Z</time>
      </trkpt>
      <trkpt lat="44.00539" lon="3.50091">
        <ele>927</ele>
        <time>2026-05-28T08:39:34.999Z</time>
      </trkpt>
      <trkpt lat="44.00539" lon="3.50091">
        <ele>927</ele>
        <time>2026-05-28T08:39:35.999Z</time>
      </trkpt>
      <trkpt lat="44.00539" lon="3.50091">
        <ele>927.1</ele>
        <time>2026-05-28T08:39:36.999Z</time>
      </trkpt>
      <trkpt lat="44.00539" lon="3.50091">
        <ele>927.1</ele>
        <time>2026-05-28T08:39:37.999Z</time>
      </trkpt>
      <trkpt lat="44.00539" lon="3.50091">
        <ele>927.2</ele>
        <time>2026-05-28T08:39:38.999Z</time>
      </trkpt>
      <trkpt lat="44.00539" lon="3.50091">
        <ele>927.2</ele>
        <time>2026-05-28T08:39:39.999Z</time>
      </trkpt>
      <trkpt lat="44.00539" lon="3.50091">
        <ele>927.1</ele>
        <time>2026-05-28T08:39:40.999Z</time>
      </trkpt>
      <trkpt lat="44.00539" lon="3.50091">
        <ele>926.9</ele>
        <time>2026-05-28T08:39:41.999Z</time>
      </trkpt>
      <trkpt lat="44.00539" lon="3.50091">
        <ele>926.7</ele>
        <time>2026-05-28T08:39:42.999Z</time>
      </trkpt>
      <trkpt lat="44.00539" lon="3.50091">
        <ele>926.5</ele>
        <time>2026-05-28T08:39:43.999Z</time>
      </trkpt>
      <trkpt lat="44.00539" lon="3.50091">
        <ele>926.4</ele>
        <time>2026-05-28T08:39:44.999Z</time>
      </trkpt>
      <trkpt lat="44.00539" lon="3.50091">
        <ele>926.1</ele>
        <time>2026-05-28T08:39:45.999Z</time>
      </trkpt>
      <trkpt lat="44.00539" lon="3.50091">
        <ele>925.7</ele>
        <time>2026-05-28T08:39:46.999Z</time>
      </trkpt>
      <trkpt lat="44.00539" lon="3.50091">
        <ele>925.9</ele>
        <time>2026-05-28T08:39:47.999Z</time>
      </trkpt>
      <trkpt lat="44.00539" lon="3.50091">
        <ele>925.9</ele>
        <time>2026-05-28T08:39:48.999Z</time>
      </trkpt>
      <trkpt lat="44.00539" lon="3.50091">
        <ele>925.9</ele>
        <time>2026-05-28T08:39:49.999Z</time>
      </trkpt>
      <trkpt lat="44.00539" lon="3.50091">
        <ele>925.9</ele>
        <time>2026-05-28T08:39:50.999Z</time>
      </trkpt>
      <trkpt lat="44.00539" lon="3.50091">
        <ele>926</ele>
        <time>2026-05-28T08:39:51.999Z</time>
      </trkpt>
      <trkpt lat="44.00539" lon="3.50091">
        <ele>925.9</ele>
        <time>2026-05-28T08:39:52.999Z</time>
      </trkpt>
      <trkpt lat="44.00539" lon="3.50091">
        <ele>925.9</ele>
        <time>2026-05-28T08:39:53.999Z</time>
      </trkpt>
      <trkpt lat="44.00539" lon="3.50091">
        <ele>926.1</ele>
        <time>2026-05-28T08:39:54.999Z</time>
      </trkpt>
      <trkpt lat="44.00539" lon="3.50091">
        <ele>926.3</ele>
        <time>2026-05-28T08:39:55.999Z</time>
      </trkpt>
      <trkpt lat="44.0054" lon="3.50091">
        <ele>926.5</ele>
        <time>2026-05-28T08:39:56.999Z</time>
      </trkpt>
      <trkpt lat="44.0054" lon="3.50091">
        <ele>926.7</ele>
        <time>2026-05-28T08:39:57.999Z</time>
      </trkpt>
      <trkpt lat="44.0054" lon="3.50091">
        <ele>927</ele>
        <time>2026-05-28T08:39:58.999Z</time>
      </trkpt>
      <trkpt lat="44.0054" lon="3.50091">
        <ele>927.2</ele>
        <time>2026-05-28T08:39:59.999Z</time>
      </trkpt>
      <trkpt lat="44.0054" lon="3.50091">
        <ele>927.4</ele>
        <time>2026-05-28T08:40:00.999Z</time>
      </trkpt>
      <trkpt lat="44.0054" lon="3.50091">
        <ele>927.5</ele>
        <time>2026-05-28T08:40:01.999Z</time>
      </trkpt>
      <trkpt lat="44.0054" lon="3.50091">
        <ele>927.3</ele>
        <time>2026-05-28T08:40:02.999Z</time>
      </trkpt>
      <trkpt lat="44.0054" lon="3.50091">
        <ele>927.2</ele>
        <time>2026-05-28T08:40:03.999Z</time>
      </trkpt>
      <trkpt lat="44.00541" lon="3.50091">
        <ele>926.9</ele>
        <time>2026-05-28T08:40:04.999Z</time>
      </trkpt>
      <trkpt lat="44.00541" lon="3.50091">
        <ele>926.6</ele>
        <time>2026-05-28T08:40:05.999Z</time>
      </trkpt>
      <trkpt lat="44.00541" lon="3.50092">
        <ele>926.4</ele>
        <time>2026-05-28T08:40:06.999Z</time>
      </trkpt>
      <trkpt lat="44.00541" lon="3.50092">
        <ele>926.3</ele>
        <time>2026-05-28T08:40:07.999Z</time>
      </trkpt>
      <trkpt lat="44.00542" lon="3.50093">
        <ele>926.4</ele>
        <time>2026-05-28T08:40:08.999Z</time>
      </trkpt>
      <trkpt lat="44.00542" lon="3.50093">
        <ele>926.2</ele>
        <time>2026-05-28T08:40:09.999Z</time>
      </trkpt>
      <trkpt lat="44.00542" lon="3.50094">
        <ele>925.8</ele>
        <time>2026-05-28T08:40:10.999Z</time>
      </trkpt>
      <trkpt lat="44.00542" lon="3.50094">
        <ele>925.5</ele>
        <time>2026-05-28T08:40:11.999Z</time>
      </trkpt>
      <trkpt lat="44.00542" lon="3.50094">
        <ele>925.3</ele>
        <time>2026-05-28T08:40:12.999Z</time>
      </trkpt>
      <trkpt lat="44.00543" lon="3.50095">
        <ele>925.8</ele>
        <time>2026-05-28T08:40:13.999Z</time>
      </trkpt>
      <trkpt lat="44.00544" lon="3.50097">
        <ele>926.2</ele>
        <time>2026-05-28T08:40:14.999Z</time>
      </trkpt>
      <trkpt lat="44.00546" lon="3.50098">
        <ele>926.6</ele>
        <time>2026-05-28T08:40:15.999Z</time>
      </trkpt>
      <trkpt lat="44.00547" lon="3.50099">
        <ele>926.8</ele>
        <time>2026-05-28T08:40:16.999Z</time>
      </trkpt>
      <trkpt lat="44.00548" lon="3.501">
        <ele>926.9</ele>
        <time>2026-05-28T08:40:17.999Z</time>
      </trkpt>
      <trkpt lat="44.00549" lon="3.50101">
        <ele>926.8</ele>
        <time>2026-05-28T08:40:18.999Z</time>
      </trkpt>
      <trkpt lat="44.0055" lon="3.50102">
        <ele>926.8</ele>
        <time>2026-05-28T08:40:19.999Z</time>
      </trkpt>
      <trkpt lat="44.0055" lon="3.50102">
        <ele>926.8</ele>
        <time>2026-05-28T08:40:20.999Z</time>
      </trkpt>
      <trkpt lat="44.0055" lon="3.50102">
        <ele>926.7</ele>
        <time>2026-05-28T08:40:21.999Z</time>
      </trkpt>
      <trkpt lat="44.0055" lon="3.50102">
        <ele>926.6</ele>
        <time>2026-05-28T08:40:22.999Z</time>
      </trkpt>
      <trkpt lat="44.0055" lon="3.50102">
        <ele>926.3</ele>
        <time>2026-05-28T08:40:23.999Z</time>
      </trkpt>
      <trkpt lat="44.0055" lon="3.50102">
        <ele>926</ele>
        <time>2026-05-28T08:40:24.999Z</time>
      </trkpt>
      <trkpt lat="44.0055" lon="3.50103">
        <ele>925.8</ele>
        <time>2026-05-28T08:40:25.999Z</time>
      </trkpt>
      <trkpt lat="44.00551" lon="3.50103">
        <ele>925.6</ele>
        <time>2026-05-28T08:40:26.999Z</time>
      </trkpt>
      <trkpt lat="44.00551" lon="3.50103">
        <ele>925.5</ele>
        <time>2026-05-28T08:40:27.999Z</time>
      </trkpt>
      <trkpt lat="44.0055" lon="3.50103">
        <ele>925.6</ele>
        <time>2026-05-28T08:40:28.999Z</time>
      </trkpt>
      <trkpt lat="44.0055" lon="3.50103">
        <ele>925.3</ele>
        <time>2026-05-28T08:40:29.999Z</time>
      </trkpt>
      <trkpt lat="44.0055" lon="3.50103">
        <ele>925.3</ele>
        <time>2026-05-28T08:40:30.999Z</time>
      </trkpt>
      <trkpt lat="44.0055" lon="3.50103">
        <ele>925.1</ele>
        <time>2026-05-28T08:40:31.999Z</time>
      </trkpt>
      <trkpt lat="44.0055" lon="3.50103">
        <ele>925.1</ele>
        <time>2026-05-28T08:40:32.999Z</time>
      </trkpt>
      <trkpt lat="44.0055" lon="3.50104">
        <ele>925</ele>
        <time>2026-05-28T08:40:33.999Z</time>
      </trkpt>
      <trkpt lat="44.0055" lon="3.50104">
        <ele>925.1</ele>
        <time>2026-05-28T08:40:34.999Z</time>
      </trkpt>
      <trkpt lat="44.00551" lon="3.50104">
        <ele>925.2</ele>
        <time>2026-05-28T08:40:35.999Z</time>
      </trkpt>
      <trkpt lat="44.00551" lon="3.50105">
        <ele>925.1</ele>
        <time>2026-05-28T08:40:36.999Z</time>
      </trkpt>
      <trkpt lat="44.00551" lon="3.50105">
        <ele>925</ele>
        <time>2026-05-28T08:40:37.999Z</time>
      </trkpt>
      <trkpt lat="44.00551" lon="3.50105">
        <ele>925.2</ele>
        <time>2026-05-28T08:40:38.999Z</time>
      </trkpt>
      <trkpt lat="44.00551" lon="3.50105">
        <ele>925.3</ele>
        <time>2026-05-28T08:40:39.999Z</time>
      </trkpt>
      <trkpt lat="44.00551" lon="3.50105">
        <ele>925.4</ele>
        <time>2026-05-28T08:40:40.999Z</time>
      </trkpt>
      <trkpt lat="44.00551" lon="3.50106">
        <ele>925.3</ele>
        <time>2026-05-28T08:40:41.999Z</time>
      </trkpt>
      <trkpt lat="44.00551" lon="3.50106">
        <ele>925.5</ele>
        <time>2026-05-28T08:40:42.999Z</time>
      </trkpt>
      <trkpt lat="44.00551" lon="3.50106">
        <ele>925.7</ele>
        <time>2026-05-28T08:40:43.999Z</time>
      </trkpt>
      <trkpt lat="44.00551" lon="3.50106">
        <ele>925.8</ele>
        <time>2026-05-28T08:40:44.999Z</time>
      </trkpt>
      <trkpt lat="44.00551" lon="3.50106">
        <ele>925.9</ele>
        <time>2026-05-28T08:40:45.999Z</time>
      </trkpt>
      <trkpt lat="44.00551" lon="3.50106">
        <ele>925.9</ele>
        <time>2026-05-28T08:40:46.999Z</time>
      </trkpt>
      <trkpt lat="44.00551" lon="3.50106">
        <ele>926</ele>
        <time>2026-05-28T08:40:47.999Z</time>
      </trkpt>
      <trkpt lat="44.00551" lon="3.50106">
        <ele>926.2</ele>
        <time>2026-05-28T08:40:48.999Z</time>
      </trkpt>
      <trkpt lat="44.00551" lon="3.50106">
        <ele>926.4</ele>
        <time>2026-05-28T08:40:49.999Z</time>
      </trkpt>
      <trkpt lat="44.00551" lon="3.50106">
        <ele>926.3</ele>
        <time>2026-05-28T08:40:50.999Z</time>
      </trkpt>
      <trkpt lat="44.00551" lon="3.50107">
        <ele>926.7</ele>
        <time>2026-05-28T08:40:51.999Z</time>
      </trkpt>
      <trkpt lat="44.00551" lon="3.50107">
        <ele>927.1</ele>
        <time>2026-05-28T08:40:52.999Z</time>
      </trkpt>
      <trkpt lat="44.00551" lon="3.50107">
        <ele>927.2</ele>
        <time>2026-05-28T08:40:53.999Z</time>
      </trkpt>
      <trkpt lat="44.00551" lon="3.50107">
        <ele>927.6</ele>
        <time>2026-05-28T08:40:54.999Z</time>
      </trkpt>
      <trkpt lat="44.00551" lon="3.50107">
        <ele>927.7</ele>
        <time>2026-05-28T08:40:55.999Z</time>
      </trkpt>
      <trkpt lat="44.00551" lon="3.50107">
        <ele>927.6</ele>
        <time>2026-05-28T08:40:56.999Z</time>
      </trkpt>
      <trkpt lat="44.00551" lon="3.50107">
        <ele>927.6</ele>
        <time>2026-05-28T08:40:57.999Z</time>
      </trkpt>
      <trkpt lat="44.00551" lon="3.50107">
        <ele>927.5</ele>
        <time>2026-05-28T08:40:58.999Z</time>
      </trkpt>
      <trkpt lat="44.00551" lon="3.50107">
        <ele>927.1</ele>
        <time>2026-05-28T08:40:59.999Z</time>
      </trkpt>
      <trkpt lat="44.0055" lon="3.50107">
        <ele>926.7</ele>
        <time>2026-05-28T08:41:00.999Z</time>
      </trkpt>
      <trkpt lat="44.0055" lon="3.50108">
        <ele>926.4</ele>
        <time>2026-05-28T08:41:01.999Z</time>
      </trkpt>
      <trkpt lat="44.0055" lon="3.50108">
        <ele>926.4</ele>
        <time>2026-05-28T08:41:02.999Z</time>
      </trkpt>
      <trkpt lat="44.0055" lon="3.50109">
        <ele>926.5</ele>
        <time>2026-05-28T08:41:03.999Z</time>
      </trkpt>
      <trkpt lat="44.00551" lon="3.5011">
        <ele>926.4</ele>
        <time>2026-05-28T08:41:04.999Z</time>
      </trkpt>
      <trkpt lat="44.00551" lon="3.50111">
        <ele>926.4</ele>
        <time>2026-05-28T08:41:05.999Z</time>
      </trkpt>
      <trkpt lat="44.0055" lon="3.50112">
        <ele>926.4</ele>
        <time>2026-05-28T08:41:06.999Z</time>
      </trkpt>
      <trkpt lat="44.0055" lon="3.50113">
        <ele>926.3</ele>
        <time>2026-05-28T08:41:07.999Z</time>
      </trkpt>
      <trkpt lat="44.0055" lon="3.50114">
        <ele>926.1</ele>
        <time>2026-05-28T08:41:08.999Z</time>
      </trkpt>
      <trkpt lat="44.0055" lon="3.50114">
        <ele>925.9</ele>
        <time>2026-05-28T08:41:09.999Z</time>
      </trkpt>
      <trkpt lat="44.0055" lon="3.50114">
        <ele>926.1</ele>
        <time>2026-05-28T08:41:10.999Z</time>
      </trkpt>
      <trkpt lat="44.0055" lon="3.50114">
        <ele>926.1</ele>
        <time>2026-05-28T08:41:11.999Z</time>
      </trkpt>
      <trkpt lat="44.0055" lon="3.50115">
        <ele>926</ele>
        <time>2026-05-28T08:41:12.999Z</time>
      </trkpt>
      <trkpt lat="44.0055" lon="3.50115">
        <ele>925.9</ele>
        <time>2026-05-28T08:41:13.999Z</time>
      </trkpt>
      <trkpt lat="44.0055" lon="3.50116">
        <ele>925.9</ele>
        <time>2026-05-28T08:41:14.999Z</time>
      </trkpt>
      <trkpt lat="44.0055" lon="3.50117">
        <ele>926.2</ele>
        <time>2026-05-28T08:41:15.999Z</time>
      </trkpt>
      <trkpt lat="44.0055" lon="3.50118">
        <ele>926.3</ele>
        <time>2026-05-28T08:41:16.999Z</time>
      </trkpt>
      <trkpt lat="44.0055" lon="3.50118">
        <ele>926.2</ele>
        <time>2026-05-28T08:41:17.999Z</time>
      </trkpt>
      <trkpt lat="44.0055" lon="3.50119">
        <ele>926.1</ele>
        <time>2026-05-28T08:41:18.999Z</time>
      </trkpt>
      <trkpt lat="44.0055" lon="3.5012">
        <ele>925.9</ele>
        <time>2026-05-28T08:41:19.999Z</time>
      </trkpt>
      <trkpt lat="44.0055" lon="3.50121">
        <ele>925.8</ele>
        <time>2026-05-28T08:41:20.999Z</time>
      </trkpt>
      <trkpt lat="44.0055" lon="3.50121">
        <ele>926</ele>
        <time>2026-05-28T08:41:21.999Z</time>
      </trkpt>
      <trkpt lat="44.0055" lon="3.50122">
        <ele>926.1</ele>
        <time>2026-05-28T08:41:22.999Z</time>
      </trkpt>
      <trkpt lat="44.0055" lon="3.50122">
        <ele>926</ele>
        <time>2026-05-28T08:41:23.999Z</time>
      </trkpt>
      <trkpt lat="44.0055" lon="3.50123">
        <ele>926.2</ele>
        <time>2026-05-28T08:41:24.999Z</time>
      </trkpt>
      <trkpt lat="44.0055" lon="3.50124">
        <ele>926.3</ele>
        <time>2026-05-28T08:41:25.999Z</time>
      </trkpt>
      <trkpt lat="44.00551" lon="3.50124">
        <ele>926.3</ele>
        <time>2026-05-28T08:41:26.999Z</time>
      </trkpt>
      <trkpt lat="44.00551" lon="3.50124">
        <ele>926.7</ele>
        <time>2026-05-28T08:41:27.999Z</time>
      </trkpt>
      <trkpt lat="44.00551" lon="3.50125">
        <ele>926.8</ele>
        <time>2026-05-28T08:41:28.999Z</time>
      </trkpt>
      <trkpt lat="44.00551" lon="3.50125">
        <ele>926.9</ele>
        <time>2026-05-28T08:41:29.999Z</time>
      </trkpt>
      <trkpt lat="44.00551" lon="3.50126">
        <ele>927</ele>
        <time>2026-05-28T08:41:30.999Z</time>
      </trkpt>
      <trkpt lat="44.00551" lon="3.50126">
        <ele>927.1</ele>
        <time>2026-05-28T08:41:31.999Z</time>
      </trkpt>
      <trkpt lat="44.00551" lon="3.50127">
        <ele>927</ele>
        <time>2026-05-28T08:41:32.999Z</time>
      </trkpt>
      <trkpt lat="44.00551" lon="3.50127">
        <ele>926.8</ele>
        <time>2026-05-28T08:41:33.999Z</time>
      </trkpt>
      <trkpt lat="44.00552" lon="3.50128">
        <ele>926.8</ele>
        <time>2026-05-28T08:41:34.999Z</time>
      </trkpt>
      <trkpt lat="44.00552" lon="3.50129">
        <ele>926.9</ele>
        <time>2026-05-28T08:41:35.999Z</time>
      </trkpt>
      <trkpt lat="44.00552" lon="3.50129">
        <ele>927</ele>
        <time>2026-05-28T08:41:36.999Z</time>
      </trkpt>
      <trkpt lat="44.00552" lon="3.5013">
        <ele>927.1</ele>
        <time>2026-05-28T08:41:37.999Z</time>
      </trkpt>
      <trkpt lat="44.00552" lon="3.5013">
        <ele>926.5</ele>
        <time>2026-05-28T08:41:38.999Z</time>
      </trkpt>
      <trkpt lat="44.00552" lon="3.50131">
        <ele>926.1</ele>
        <time>2026-05-28T08:41:39.999Z</time>
      </trkpt>
      <trkpt lat="44.00552" lon="3.50131">
        <ele>926</ele>
        <time>2026-05-28T08:41:40.999Z</time>
      </trkpt>
      <trkpt lat="44.00553" lon="3.50131">
        <ele>925.9</ele>
        <time>2026-05-28T08:41:41.999Z</time>
      </trkpt>
      <trkpt lat="44.00553" lon="3.50132">
        <ele>926</ele>
        <time>2026-05-28T08:41:42.999Z</time>
      </trkpt>
      <trkpt lat="44.00553" lon="3.50132">
        <ele>926.1</ele>
        <time>2026-05-28T08:41:43.999Z</time>
      </trkpt>
      <trkpt lat="44.00553" lon="3.50133">
        <ele>926.2</ele>
        <time>2026-05-28T08:41:44.999Z</time>
      </trkpt>
      <trkpt lat="44.00554" lon="3.50133">
        <ele>926.2</ele>
        <time>2026-05-28T08:41:45.999Z</time>
      </trkpt>
      <trkpt lat="44.00554" lon="3.50134">
        <ele>926</ele>
        <time>2026-05-28T08:41:46.999Z</time>
      </trkpt>
      <trkpt lat="44.00554" lon="3.50134">
        <ele>925.7</ele>
        <time>2026-05-28T08:41:47.999Z</time>
      </trkpt>
      <trkpt lat="44.00554" lon="3.50134">
        <ele>926.1</ele>
        <time>2026-05-28T08:41:48.999Z</time>
      </trkpt>
      <trkpt lat="44.00555" lon="3.50137">
        <ele>926.3</ele>
        <time>2026-05-28T08:41:49.999Z</time>
      </trkpt>
      <trkpt lat="44.00555" lon="3.50139">
        <ele>926.8</ele>
        <time>2026-05-28T08:41:50.999Z</time>
      </trkpt>
      <trkpt lat="44.00557" lon="3.50143">
        <ele>926.7</ele>
        <time>2026-05-28T08:41:51.999Z</time>
      </trkpt>
      <trkpt lat="44.00557" lon="3.50144">
        <ele>926.9</ele>
        <time>2026-05-28T08:41:52.999Z</time>
      </trkpt>
      <trkpt lat="44.00558" lon="3.50144">
        <ele>927</ele>
        <time>2026-05-28T08:41:53.999Z</time>
      </trkpt>
      <trkpt lat="44.00558" lon="3.50145">
        <ele>927.2</ele>
        <time>2026-05-28T08:41:54.999Z</time>
      </trkpt>
      <trkpt lat="44.00558" lon="3.50145">
        <ele>927.5</ele>
        <time>2026-05-28T08:41:55.999Z</time>
      </trkpt>
      <trkpt lat="44.00559" lon="3.50146">
        <ele>927.9</ele>
        <time>2026-05-28T08:41:56.999Z</time>
      </trkpt>
      <trkpt lat="44.00559" lon="3.50147">
        <ele>928.2</ele>
        <time>2026-05-28T08:41:57.999Z</time>
      </trkpt>
      <trkpt lat="44.0056" lon="3.50148">
        <ele>928.3</ele>
        <time>2026-05-28T08:41:58.999Z</time>
      </trkpt>
      <trkpt lat="44.00561" lon="3.5015">
        <ele>928.2</ele>
        <time>2026-05-28T08:41:59.999Z</time>
      </trkpt>
      <trkpt lat="44.00563" lon="3.50152">
        <ele>928.2</ele>
        <time>2026-05-28T08:42:00.999Z</time>
      </trkpt>
      <trkpt lat="44.00564" lon="3.50154">
        <ele>928.1</ele>
        <time>2026-05-28T08:42:01.999Z</time>
      </trkpt>
      <trkpt lat="44.00565" lon="3.50155">
        <ele>928</ele>
        <time>2026-05-28T08:42:02.999Z</time>
      </trkpt>
      <trkpt lat="44.00566" lon="3.50157">
        <ele>927.9</ele>
        <time>2026-05-28T08:42:03.999Z</time>
      </trkpt>
      <trkpt lat="44.00566" lon="3.50157">
        <ele>928.1</ele>
        <time>2026-05-28T08:42:04.999Z</time>
      </trkpt>
      <trkpt lat="44.00567" lon="3.50157">
        <ele>928.5</ele>
        <time>2026-05-28T08:42:05.999Z</time>
      </trkpt>
      <trkpt lat="44.00568" lon="3.50158">
        <ele>928.6</ele>
        <time>2026-05-28T08:42:06.999Z</time>
      </trkpt>
      <trkpt lat="44.00569" lon="3.50159">
        <ele>928.8</ele>
        <time>2026-05-28T08:42:07.999Z</time>
      </trkpt>
      <trkpt lat="44.00571" lon="3.50159">
        <ele>929</ele>
        <time>2026-05-28T08:42:08.999Z</time>
      </trkpt>
      <trkpt lat="44.00572" lon="3.50159">
        <ele>929.4</ele>
        <time>2026-05-28T08:42:09.999Z</time>
      </trkpt>
      <trkpt lat="44.00574" lon="3.5016">
        <ele>929.7</ele>
        <time>2026-05-28T08:42:10.999Z</time>
      </trkpt>
      <trkpt lat="44.00575" lon="3.50159">
        <ele>930.2</ele>
        <time>2026-05-28T08:42:11.999Z</time>
      </trkpt>
      <trkpt lat="44.00576" lon="3.50159">
        <ele>930.5</ele>
        <time>2026-05-28T08:42:12.999Z</time>
      </trkpt>
      <trkpt lat="44.00576" lon="3.50159">
        <ele>931</ele>
        <time>2026-05-28T08:42:13.999Z</time>
      </trkpt>
      <trkpt lat="44.00577" lon="3.5016">
        <ele>931.3</ele>
        <time>2026-05-28T08:42:14.999Z</time>
      </trkpt>
      <trkpt lat="44.00577" lon="3.5016">
        <ele>931.6</ele>
        <time>2026-05-28T08:42:15.999Z</time>
      </trkpt>
      <trkpt lat="44.00577" lon="3.50161">
        <ele>932.1</ele>
        <time>2026-05-28T08:42:16.999Z</time>
      </trkpt>
      <trkpt lat="44.00577" lon="3.50161">
        <ele>932.7</ele>
        <time>2026-05-28T08:42:17.999Z</time>
      </trkpt>
      <trkpt lat="44.00578" lon="3.50161">
        <ele>932.9</ele>
        <time>2026-05-28T08:42:18.999Z</time>
      </trkpt>
      <trkpt lat="44.00579" lon="3.50162">
        <ele>933.7</ele>
        <time>2026-05-28T08:42:19.999Z</time>
      </trkpt>
      <trkpt lat="44.00579" lon="3.50163">
        <ele>933.6</ele>
        <time>2026-05-28T08:42:20.999Z</time>
      </trkpt>
      <trkpt lat="44.0058" lon="3.50164">
        <ele>933.1</ele>
        <time>2026-05-28T08:42:21.999Z</time>
      </trkpt>
      <trkpt lat="44.0058" lon="3.50164">
        <ele>933.2</ele>
        <time>2026-05-28T08:42:22.999Z</time>
      </trkpt>
      <trkpt lat="44.0058" lon="3.50164">
        <ele>933.2</ele>
        <time>2026-05-28T08:42:23.999Z</time>
      </trkpt>
      <trkpt lat="44.00581" lon="3.50164">
        <ele>933.5</ele>
        <time>2026-05-28T08:42:24.999Z</time>
      </trkpt>
      <trkpt lat="44.00582" lon="3.50165">
        <ele>934.1</ele>
        <time>2026-05-28T08:42:25.999Z</time>
      </trkpt>
      <trkpt lat="44.00583" lon="3.50165">
        <ele>934.5</ele>
        <time>2026-05-28T08:42:26.999Z</time>
      </trkpt>
      <trkpt lat="44.00584" lon="3.50164">
        <ele>935</ele>
        <time>2026-05-28T08:42:27.999Z</time>
      </trkpt>
      <trkpt lat="44.00584" lon="3.50163">
        <ele>935.2</ele>
        <time>2026-05-28T08:42:28.999Z</time>
      </trkpt>
      <trkpt lat="44.00585" lon="3.50163">
        <ele>935.4</ele>
        <time>2026-05-28T08:42:29.999Z</time>
      </trkpt>
      <trkpt lat="44.00586" lon="3.50162">
        <ele>935.4</ele>
        <time>2026-05-28T08:42:30.999Z</time>
      </trkpt>
      <trkpt lat="44.00586" lon="3.50162">
        <ele>935.4</ele>
        <time>2026-05-28T08:42:31.999Z</time>
      </trkpt>
      <trkpt lat="44.00586" lon="3.50162">
        <ele>935.3</ele>
        <time>2026-05-28T08:42:32.999Z</time>
      </trkpt>
      <trkpt lat="44.00586" lon="3.50162">
        <ele>935.6</ele>
        <time>2026-05-28T08:42:33.999Z</time>
      </trkpt>
      <trkpt lat="44.00586" lon="3.50162">
        <ele>935.5</ele>
        <time>2026-05-28T08:42:34.999Z</time>
      </trkpt>
      <trkpt lat="44.00586" lon="3.50162">
        <ele>935.6</ele>
        <time>2026-05-28T08:42:35.999Z</time>
      </trkpt>
      <trkpt lat="44.00587" lon="3.50163">
        <ele>935.8</ele>
        <time>2026-05-28T08:42:36.999Z</time>
      </trkpt>
      <trkpt lat="44.00587" lon="3.50163">
        <ele>936.1</ele>
        <time>2026-05-28T08:42:37.999Z</time>
      </trkpt>
      <trkpt lat="44.00588" lon="3.50164">
        <ele>936.2</ele>
        <time>2026-05-28T08:42:38.999Z</time>
      </trkpt>
      <trkpt lat="44.00588" lon="3.50164">
        <ele>936.5</ele>
        <time>2026-05-28T08:42:39.999Z</time>
      </trkpt>
      <trkpt lat="44.00589" lon="3.50164">
        <ele>936.8</ele>
        <time>2026-05-28T08:42:40.999Z</time>
      </trkpt>
      <trkpt lat="44.00589" lon="3.50164">
        <ele>937.1</ele>
        <time>2026-05-28T08:42:41.999Z</time>
      </trkpt>
      <trkpt lat="44.00589" lon="3.50164">
        <ele>937.3</ele>
        <time>2026-05-28T08:42:42.999Z</time>
      </trkpt>
      <trkpt lat="44.00589" lon="3.50164">
        <ele>937.4</ele>
        <time>2026-05-28T08:42:43.999Z</time>
      </trkpt>
      <trkpt lat="44.00589" lon="3.50164">
        <ele>937.7</ele>
        <time>2026-05-28T08:42:44.999Z</time>
      </trkpt>
      <trkpt lat="44.0059" lon="3.50165">
        <ele>937.7</ele>
        <time>2026-05-28T08:42:45.999Z</time>
      </trkpt>
      <trkpt lat="44.00591" lon="3.50165">
        <ele>937.8</ele>
        <time>2026-05-28T08:42:46.999Z</time>
      </trkpt>
      <trkpt lat="44.00592" lon="3.50166">
        <ele>938.1</ele>
        <time>2026-05-28T08:42:47.999Z</time>
      </trkpt>
      <trkpt lat="44.00593" lon="3.50166">
        <ele>938.2</ele>
        <time>2026-05-28T08:42:48.999Z</time>
      </trkpt>
      <trkpt lat="44.00595" lon="3.50165">
        <ele>938.3</ele>
        <time>2026-05-28T08:42:49.999Z</time>
      </trkpt>
      <trkpt lat="44.00596" lon="3.50165">
        <ele>938.9</ele>
        <time>2026-05-28T08:42:50.999Z</time>
      </trkpt>
      <trkpt lat="44.00597" lon="3.50165">
        <ele>939</ele>
        <time>2026-05-28T08:42:51.999Z</time>
      </trkpt>
      <trkpt lat="44.00598" lon="3.50165">
        <ele>938.9</ele>
        <time>2026-05-28T08:42:52.999Z</time>
      </trkpt>
      <trkpt lat="44.006" lon="3.50166">
        <ele>939.2</ele>
        <time>2026-05-28T08:42:53.999Z</time>
      </trkpt>
      <trkpt lat="44.00601" lon="3.50166">
        <ele>939.4</ele>
        <time>2026-05-28T08:42:54.999Z</time>
      </trkpt>
      <trkpt lat="44.00602" lon="3.50166">
        <ele>939.8</ele>
        <time>2026-05-28T08:42:55.999Z</time>
      </trkpt>
      <trkpt lat="44.00603" lon="3.50166">
        <ele>940.2</ele>
        <time>2026-05-28T08:42:56.999Z</time>
      </trkpt>
      <trkpt lat="44.00604" lon="3.50166">
        <ele>940.6</ele>
        <time>2026-05-28T08:42:57.999Z</time>
      </trkpt>
      <trkpt lat="44.00606" lon="3.50165">
        <ele>940.7</ele>
        <time>2026-05-28T08:42:58.999Z</time>
      </trkpt>
      <trkpt lat="44.00606" lon="3.50165">
        <ele>940.7</ele>
        <time>2026-05-28T08:42:59.999Z</time>
      </trkpt>
      <trkpt lat="44.00606" lon="3.50165">
        <ele>940.7</ele>
        <time>2026-05-28T08:43:00.999Z</time>
      </trkpt>
      <trkpt lat="44.00607" lon="3.50166">
        <ele>940.7</ele>
        <time>2026-05-28T08:43:01.999Z</time>
      </trkpt>
      <trkpt lat="44.00608" lon="3.50166">
        <ele>940.7</ele>
        <time>2026-05-28T08:43:02.999Z</time>
      </trkpt>
      <trkpt lat="44.00609" lon="3.50167">
        <ele>940.7</ele>
        <time>2026-05-28T08:43:03.999Z</time>
      </trkpt>
      <trkpt lat="44.0061" lon="3.50167">
        <ele>940.8</ele>
        <time>2026-05-28T08:43:04.999Z</time>
      </trkpt>
      <trkpt lat="44.00611" lon="3.50167">
        <ele>940.7</ele>
        <time>2026-05-28T08:43:05.999Z</time>
      </trkpt>
      <trkpt lat="44.00611" lon="3.50167">
        <ele>940.7</ele>
        <time>2026-05-28T08:43:06.999Z</time>
      </trkpt>
      <trkpt lat="44.00612" lon="3.50167">
        <ele>940.9</ele>
        <time>2026-05-28T08:43:07.999Z</time>
      </trkpt>
      <trkpt lat="44.00612" lon="3.50167">
        <ele>941</ele>
        <time>2026-05-28T08:43:08.999Z</time>
      </trkpt>
      <trkpt lat="44.00613" lon="3.50168">
        <ele>940.9</ele>
        <time>2026-05-28T08:43:09.999Z</time>
      </trkpt>
      <trkpt lat="44.00614" lon="3.50168">
        <ele>941</ele>
        <time>2026-05-28T08:43:10.999Z</time>
      </trkpt>
      <trkpt lat="44.00614" lon="3.50167">
        <ele>940.6</ele>
        <time>2026-05-28T08:43:11.999Z</time>
      </trkpt>
      <trkpt lat="44.00615" lon="3.50167">
        <ele>940.4</ele>
        <time>2026-05-28T08:43:12.999Z</time>
      </trkpt>
      <trkpt lat="44.00616" lon="3.50167">
        <ele>940.3</ele>
        <time>2026-05-28T08:43:13.999Z</time>
      </trkpt>
      <trkpt lat="44.00616" lon="3.50167">
        <ele>940.6</ele>
        <time>2026-05-28T08:43:14.999Z</time>
      </trkpt>
      <trkpt lat="44.00617" lon="3.50168">
        <ele>940.7</ele>
        <time>2026-05-28T08:43:15.999Z</time>
      </trkpt>
      <trkpt lat="44.00618" lon="3.50169">
        <ele>940.9</ele>
        <time>2026-05-28T08:43:16.999Z</time>
      </trkpt>
      <trkpt lat="44.00619" lon="3.5017">
        <ele>941.9</ele>
        <time>2026-05-28T08:43:17.999Z</time>
      </trkpt>
      <trkpt lat="44.0062" lon="3.50171">
        <ele>942.6</ele>
        <time>2026-05-28T08:43:18.999Z</time>
      </trkpt>
      <trkpt lat="44.00621" lon="3.50171">
        <ele>943.1</ele>
        <time>2026-05-28T08:43:19.999Z</time>
      </trkpt>
      <trkpt lat="44.00622" lon="3.5017">
        <ele>944.2</ele>
        <time>2026-05-28T08:43:20.999Z</time>
      </trkpt>
      <trkpt lat="44.00623" lon="3.50169">
        <ele>944.4</ele>
        <time>2026-05-28T08:43:21.999Z</time>
      </trkpt>
      <trkpt lat="44.00624" lon="3.50167">
        <ele>944.2</ele>
        <time>2026-05-28T08:43:22.999Z</time>
      </trkpt>
      <trkpt lat="44.00625" lon="3.50166">
        <ele>944.3</ele>
        <time>2026-05-28T08:43:23.999Z</time>
      </trkpt>
      <trkpt lat="44.00626" lon="3.50165">
        <ele>944.4</ele>
        <time>2026-05-28T08:43:24.999Z</time>
      </trkpt>
      <trkpt lat="44.00626" lon="3.50164">
        <ele>944.6</ele>
        <time>2026-05-28T08:43:25.999Z</time>
      </trkpt>
      <trkpt lat="44.00627" lon="3.50164">
        <ele>944.8</ele>
        <time>2026-05-28T08:43:26.999Z</time>
      </trkpt>
      <trkpt lat="44.00627" lon="3.50163">
        <ele>944.8</ele>
        <time>2026-05-28T08:43:27.999Z</time>
      </trkpt>
      <trkpt lat="44.00628" lon="3.50163">
        <ele>944.5</ele>
        <time>2026-05-28T08:43:28.999Z</time>
      </trkpt>
      <trkpt lat="44.00629" lon="3.50162">
        <ele>944.5</ele>
        <time>2026-05-28T08:43:29.999Z</time>
      </trkpt>
      <trkpt lat="44.0063" lon="3.50162">
        <ele>944.4</ele>
        <time>2026-05-28T08:43:30.999Z</time>
      </trkpt>
      <trkpt lat="44.0063" lon="3.50162">
        <ele>944.5</ele>
        <time>2026-05-28T08:43:31.999Z</time>
      </trkpt>
      <trkpt lat="44.0063" lon="3.50162">
        <ele>944.7</ele>
        <time>2026-05-28T08:43:32.999Z</time>
      </trkpt>
      <trkpt lat="44.00631" lon="3.50162">
        <ele>944.9</ele>
        <time>2026-05-28T08:43:33.999Z</time>
      </trkpt>
      <trkpt lat="44.00631" lon="3.50161">
        <ele>944.8</ele>
        <time>2026-05-28T08:43:34.999Z</time>
      </trkpt>
      <trkpt lat="44.00632" lon="3.50161">
        <ele>944.7</ele>
        <time>2026-05-28T08:43:35.999Z</time>
      </trkpt>
      <trkpt lat="44.00633" lon="3.50162">
        <ele>944.5</ele>
        <time>2026-05-28T08:43:36.999Z</time>
      </trkpt>
      <trkpt lat="44.00633" lon="3.50161">
        <ele>944.4</ele>
        <time>2026-05-28T08:43:37.999Z</time>
      </trkpt>
      <trkpt lat="44.00634" lon="3.50161">
        <ele>943.8</ele>
        <time>2026-05-28T08:43:38.999Z</time>
      </trkpt>
      <trkpt lat="44.00634" lon="3.50161">
        <ele>944.3</ele>
        <time>2026-05-28T08:43:39.999Z</time>
      </trkpt>
      <trkpt lat="44.00634" lon="3.50161">
        <ele>944.4</ele>
        <time>2026-05-28T08:43:40.999Z</time>
      </trkpt>
      <trkpt lat="44.00634" lon="3.50161">
        <ele>944.9</ele>
        <time>2026-05-28T08:43:41.999Z</time>
      </trkpt>
      <trkpt lat="44.00634" lon="3.50161">
        <ele>945.2</ele>
        <time>2026-05-28T08:43:42.999Z</time>
      </trkpt>
      <trkpt lat="44.00634" lon="3.50161">
        <ele>945.6</ele>
        <time>2026-05-28T08:43:43.999Z</time>
      </trkpt>
      <trkpt lat="44.00634" lon="3.50161">
        <ele>945.9</ele>
        <time>2026-05-28T08:43:44.999Z</time>
      </trkpt>
      <trkpt lat="44.00634" lon="3.50161">
        <ele>946.3</ele>
        <time>2026-05-28T08:43:45.999Z</time>
      </trkpt>
      <trkpt lat="44.00634" lon="3.50161">
        <ele>946.5</ele>
        <time>2026-05-28T08:43:46.999Z</time>
      </trkpt>
      <trkpt lat="44.00635" lon="3.5016">
        <ele>946.5</ele>
        <time>2026-05-28T08:43:47.999Z</time>
      </trkpt>
      <trkpt lat="44.00635" lon="3.5016">
        <ele>946.6</ele>
        <time>2026-05-28T08:43:48.999Z</time>
      </trkpt>
      <trkpt lat="44.00635" lon="3.5016">
        <ele>946.7</ele>
        <time>2026-05-28T08:43:49.999Z</time>
      </trkpt>
      <trkpt lat="44.00635" lon="3.5016">
        <ele>946.8</ele>
        <time>2026-05-28T08:43:50.999Z</time>
      </trkpt>
      <trkpt lat="44.00634" lon="3.5016">
        <ele>947.1</ele>
        <time>2026-05-28T08:43:51.999Z</time>
      </trkpt>
      <trkpt lat="44.00634" lon="3.50159">
        <ele>947.4</ele>
        <time>2026-05-28T08:43:52.999Z</time>
      </trkpt>
      <trkpt lat="44.00634" lon="3.50158">
        <ele>947.5</ele>
        <time>2026-05-28T08:43:53.999Z</time>
      </trkpt>
      <trkpt lat="44.00635" lon="3.50157">
        <ele>947.6</ele>
        <time>2026-05-28T08:43:54.999Z</time>
      </trkpt>
      <trkpt lat="44.00635" lon="3.50157">
        <ele>947.3</ele>
        <time>2026-05-28T08:43:55.999Z</time>
      </trkpt>
      <trkpt lat="44.00635" lon="3.50156">
        <ele>947.4</ele>
        <time>2026-05-28T08:43:56.999Z</time>
      </trkpt>
      <trkpt lat="44.00635" lon="3.50156">
        <ele>947.8</ele>
        <time>2026-05-28T08:43:57.999Z</time>
      </trkpt>
      <trkpt lat="44.00635" lon="3.50156">
        <ele>947.8</ele>
        <time>2026-05-28T08:43:58.999Z</time>
      </trkpt>
      <trkpt lat="44.00635" lon="3.50155">
        <ele>947.6</ele>
        <time>2026-05-28T08:43:59.999Z</time>
      </trkpt>
      <trkpt lat="44.00635" lon="3.50155">
        <ele>947.5</ele>
        <time>2026-05-28T08:44:00.999Z</time>
      </trkpt>
      <trkpt lat="44.00635" lon="3.50155">
        <ele>947.5</ele>
        <time>2026-05-28T08:44:01.999Z</time>
      </trkpt>
      <trkpt lat="44.00635" lon="3.50155">
        <ele>947.8</ele>
        <time>2026-05-28T08:44:02.999Z</time>
      </trkpt>
      <trkpt lat="44.00635" lon="3.50155">
        <ele>948</ele>
        <time>2026-05-28T08:44:03.999Z</time>
      </trkpt>
      <trkpt lat="44.00636" lon="3.50154">
        <ele>947.9</ele>
        <time>2026-05-28T08:44:04.999Z</time>
      </trkpt>
      <trkpt lat="44.00636" lon="3.50154">
        <ele>948</ele>
        <time>2026-05-28T08:44:05.999Z</time>
      </trkpt>
      <trkpt lat="44.00637" lon="3.50154">
        <ele>948</ele>
        <time>2026-05-28T08:44:06.999Z</time>
      </trkpt>
      <trkpt lat="44.00637" lon="3.50154">
        <ele>947.7</ele>
        <time>2026-05-28T08:44:07.999Z</time>
      </trkpt>
      <trkpt lat="44.00638" lon="3.50154">
        <ele>947.8</ele>
        <time>2026-05-28T08:44:08.999Z</time>
      </trkpt>
      <trkpt lat="44.00638" lon="3.50154">
        <ele>948.1</ele>
        <time>2026-05-28T08:44:09.999Z</time>
      </trkpt>
      <trkpt lat="44.00638" lon="3.50154">
        <ele>948.2</ele>
        <time>2026-05-28T08:44:10.999Z</time>
      </trkpt>
      <trkpt lat="44.00639" lon="3.50154">
        <ele>948.1</ele>
        <time>2026-05-28T08:44:11.999Z</time>
      </trkpt>
      <trkpt lat="44.00639" lon="3.50154">
        <ele>948.3</ele>
        <time>2026-05-28T08:44:12.999Z</time>
      </trkpt>
      <trkpt lat="44.00639" lon="3.50153">
        <ele>948.1</ele>
        <time>2026-05-28T08:44:13.999Z</time>
      </trkpt>
      <trkpt lat="44.0064" lon="3.50153">
        <ele>947.9</ele>
        <time>2026-05-28T08:44:14.999Z</time>
      </trkpt>
      <trkpt lat="44.0064" lon="3.50153">
        <ele>947.6</ele>
        <time>2026-05-28T08:44:15.999Z</time>
      </trkpt>
      <trkpt lat="44.0064" lon="3.50153">
        <ele>947.5</ele>
        <time>2026-05-28T08:44:16.999Z</time>
      </trkpt>
      <trkpt lat="44.0064" lon="3.50153">
        <ele>947.3</ele>
        <time>2026-05-28T08:44:17.999Z</time>
      </trkpt>
      <trkpt lat="44.00641" lon="3.50153">
        <ele>947.6</ele>
        <time>2026-05-28T08:44:18.999Z</time>
      </trkpt>
      <trkpt lat="44.00641" lon="3.50153">
        <ele>948</ele>
        <time>2026-05-28T08:44:19.999Z</time>
      </trkpt>
      <trkpt lat="44.00641" lon="3.50153">
        <ele>948.2</ele>
        <time>2026-05-28T08:44:20.999Z</time>
      </trkpt>
      <trkpt lat="44.00642" lon="3.50153">
        <ele>948</ele>
        <time>2026-05-28T08:44:21.999Z</time>
      </trkpt>
      <trkpt lat="44.00642" lon="3.50153">
        <ele>948</ele>
        <time>2026-05-28T08:44:22.999Z</time>
      </trkpt>
      <trkpt lat="44.00642" lon="3.50153">
        <ele>948</ele>
        <time>2026-05-28T08:44:23.999Z</time>
      </trkpt>
      <trkpt lat="44.00642" lon="3.50153">
        <ele>948.2</ele>
        <time>2026-05-28T08:44:24.999Z</time>
      </trkpt>
      <trkpt lat="44.00642" lon="3.50153">
        <ele>948.5</ele>
        <time>2026-05-28T08:44:25.999Z</time>
      </trkpt>
      <trkpt lat="44.00642" lon="3.50153">
        <ele>948.7</ele>
        <time>2026-05-28T08:44:26.999Z</time>
      </trkpt>
      <trkpt lat="44.00642" lon="3.50153">
        <ele>948.8</ele>
        <time>2026-05-28T08:44:27.999Z</time>
      </trkpt>
      <trkpt lat="44.00642" lon="3.50153">
        <ele>949</ele>
        <time>2026-05-28T08:44:28.999Z</time>
      </trkpt>
      <trkpt lat="44.00643" lon="3.50153">
        <ele>949.2</ele>
        <time>2026-05-28T08:44:29.999Z</time>
      </trkpt>
      <trkpt lat="44.00643" lon="3.50153">
        <ele>949.5</ele>
        <time>2026-05-28T08:44:30.999Z</time>
      </trkpt>
      <trkpt lat="44.00643" lon="3.50153">
        <ele>950</ele>
        <time>2026-05-28T08:44:31.999Z</time>
      </trkpt>
      <trkpt lat="44.00643" lon="3.50153">
        <ele>949.8</ele>
        <time>2026-05-28T08:44:32.999Z</time>
      </trkpt>
      <trkpt lat="44.00643" lon="3.50154">
        <ele>949.5</ele>
        <time>2026-05-28T08:44:33.999Z</time>
      </trkpt>
      <trkpt lat="44.00644" lon="3.50154">
        <ele>949.4</ele>
        <time>2026-05-28T08:44:34.999Z</time>
      </trkpt>
      <trkpt lat="44.00645" lon="3.50153">
        <ele>949.3</ele>
        <time>2026-05-28T08:44:35.999Z</time>
      </trkpt>
      <trkpt lat="44.00647" lon="3.50154">
        <ele>950</ele>
        <time>2026-05-28T08:44:36.999Z</time>
      </trkpt>
      <trkpt lat="44.00649" lon="3.50155">
        <ele>950.6</ele>
        <time>2026-05-28T08:44:37.999Z</time>
      </trkpt>
      <trkpt lat="44.0065" lon="3.50155">
        <ele>950.8</ele>
        <time>2026-05-28T08:44:38.999Z</time>
      </trkpt>
      <trkpt lat="44.00652" lon="3.50155">
        <ele>950.6</ele>
        <time>2026-05-28T08:44:39.999Z</time>
      </trkpt>
      <trkpt lat="44.00652" lon="3.50155">
        <ele>950.5</ele>
        <time>2026-05-28T08:44:40.999Z</time>
      </trkpt>
      <trkpt lat="44.00654" lon="3.50156">
        <ele>950.2</ele>
        <time>2026-05-28T08:44:42.999Z</time>
      </trkpt>
      <trkpt lat="44.00655" lon="3.50156">
        <ele>950.1</ele>
        <time>2026-05-28T08:44:43.999Z</time>
      </trkpt>
      <trkpt lat="44.00655" lon="3.50156">
        <ele>950.1</ele>
        <time>2026-05-28T08:44:44.999Z</time>
      </trkpt>
      <trkpt lat="44.00655" lon="3.50156">
        <ele>950.2</ele>
        <time>2026-05-28T08:44:45.999Z</time>
      </trkpt>
      <trkpt lat="44.00655" lon="3.50156">
        <ele>949.9</ele>
        <time>2026-05-28T08:44:46.999Z</time>
      </trkpt>
      <trkpt lat="44.00655" lon="3.50156">
        <ele>949.6</ele>
        <time>2026-05-28T08:44:47.999Z</time>
      </trkpt>
      <trkpt lat="44.00655" lon="3.50155">
        <ele>949.4</ele>
        <time>2026-05-28T08:44:48.999Z</time>
      </trkpt>
      <trkpt lat="44.00655" lon="3.50155">
        <ele>949.1</ele>
        <time>2026-05-28T08:44:49.999Z</time>
      </trkpt>
      <trkpt lat="44.00655" lon="3.50155">
        <ele>948.8</ele>
        <time>2026-05-28T08:44:50.999Z</time>
      </trkpt>
      <trkpt lat="44.00655" lon="3.50156">
        <ele>948.6</ele>
        <time>2026-05-28T08:44:51.999Z</time>
      </trkpt>
      <trkpt lat="44.00655" lon="3.50156">
        <ele>948.4</ele>
        <time>2026-05-28T08:44:52.999Z</time>
      </trkpt>
      <trkpt lat="44.00655" lon="3.50156">
        <ele>948.3</ele>
        <time>2026-05-28T08:44:53.999Z</time>
      </trkpt>
      <trkpt lat="44.00655" lon="3.50156">
        <ele>948.2</ele>
        <time>2026-05-28T08:44:54.999Z</time>
      </trkpt>
      <trkpt lat="44.00655" lon="3.50156">
        <ele>948</ele>
        <time>2026-05-28T08:44:55.999Z</time>
      </trkpt>
      <trkpt lat="44.00655" lon="3.50156">
        <ele>947.7</ele>
        <time>2026-05-28T08:44:56.999Z</time>
      </trkpt>
      <trkpt lat="44.00655" lon="3.50156">
        <ele>947.6</ele>
        <time>2026-05-28T08:44:57.999Z</time>
      </trkpt>
      <trkpt lat="44.00656" lon="3.50157">
        <ele>947.9</ele>
        <time>2026-05-28T08:44:58.999Z</time>
      </trkpt>
      <trkpt lat="44.00658" lon="3.50158">
        <ele>947.9</ele>
        <time>2026-05-28T08:44:59.999Z</time>
      </trkpt>
      <trkpt lat="44.00659" lon="3.50158">
        <ele>948.2</ele>
        <time>2026-05-28T08:45:00.999Z</time>
      </trkpt>
      <trkpt lat="44.0066" lon="3.50159">
        <ele>948.3</ele>
        <time>2026-05-28T08:45:01.999Z</time>
      </trkpt>
      <trkpt lat="44.00661" lon="3.50159">
        <ele>948.4</ele>
        <time>2026-05-28T08:45:02.999Z</time>
      </trkpt>
      <trkpt lat="44.00661" lon="3.5016">
        <ele>948.8</ele>
        <time>2026-05-28T08:45:03.999Z</time>
      </trkpt>
      <trkpt lat="44.00662" lon="3.50161">
        <ele>948.7</ele>
        <time>2026-05-28T08:45:04.999Z</time>
      </trkpt>
      <trkpt lat="44.00663" lon="3.50161">
        <ele>948.6</ele>
        <time>2026-05-28T08:45:05.999Z</time>
      </trkpt>
      <trkpt lat="44.00663" lon="3.50162">
        <ele>948.7</ele>
        <time>2026-05-28T08:45:06.999Z</time>
      </trkpt>
      <trkpt lat="44.00664" lon="3.50164">
        <ele>948.6</ele>
        <time>2026-05-28T08:45:07.999Z</time>
      </trkpt>
      <trkpt lat="44.00664" lon="3.50165">
        <ele>948.8</ele>
        <time>2026-05-28T08:45:08.999Z</time>
      </trkpt>
      <trkpt lat="44.00665" lon="3.50165">
        <ele>949.2</ele>
        <time>2026-05-28T08:45:09.999Z</time>
      </trkpt>
      <trkpt lat="44.00666" lon="3.50166">
        <ele>949.5</ele>
        <time>2026-05-28T08:45:10.999Z</time>
      </trkpt>
      <trkpt lat="44.00667" lon="3.50167">
        <ele>949.7</ele>
        <time>2026-05-28T08:45:11.999Z</time>
      </trkpt>
      <trkpt lat="44.00668" lon="3.50168">
        <ele>950</ele>
        <time>2026-05-28T08:45:12.999Z</time>
      </trkpt>
      <trkpt lat="44.00669" lon="3.50168">
        <ele>950.3</ele>
        <time>2026-05-28T08:45:13.999Z</time>
      </trkpt>
      <trkpt lat="44.0067" lon="3.50169">
        <ele>950.2</ele>
        <time>2026-05-28T08:45:14.999Z</time>
      </trkpt>
      <trkpt lat="44.00671" lon="3.5017">
        <ele>950.1</ele>
        <time>2026-05-28T08:45:15.999Z</time>
      </trkpt>
      <trkpt lat="44.00672" lon="3.50171">
        <ele>950</ele>
        <time>2026-05-28T08:45:16.999Z</time>
      </trkpt>
      <trkpt lat="44.00673" lon="3.50171">
        <ele>950</ele>
        <time>2026-05-28T08:45:17.999Z</time>
      </trkpt>
      <trkpt lat="44.00673" lon="3.50171">
        <ele>949.7</ele>
        <time>2026-05-28T08:45:18.999Z</time>
      </trkpt>
      <trkpt lat="44.00674" lon="3.50171">
        <ele>949.4</ele>
        <time>2026-05-28T08:45:19.999Z</time>
      </trkpt>
      <trkpt lat="44.00675" lon="3.50171">
        <ele>949</ele>
        <time>2026-05-28T08:45:20.999Z</time>
      </trkpt>
      <trkpt lat="44.00675" lon="3.50172">
        <ele>948.7</ele>
        <time>2026-05-28T08:45:21.999Z</time>
      </trkpt>
      <trkpt lat="44.00675" lon="3.50173">
        <ele>948.5</ele>
        <time>2026-05-28T08:45:22.999Z</time>
      </trkpt>
      <trkpt lat="44.00676" lon="3.50174">
        <ele>948.4</ele>
        <time>2026-05-28T08:45:23.999Z</time>
      </trkpt>
      <trkpt lat="44.00677" lon="3.50175">
        <ele>948.2</ele>
        <time>2026-05-28T08:45:24.999Z</time>
      </trkpt>
      <trkpt lat="44.00679" lon="3.50175">
        <ele>947.9</ele>
        <time>2026-05-28T08:45:25.999Z</time>
      </trkpt>
      <trkpt lat="44.00679" lon="3.50175">
        <ele>947.6</ele>
        <time>2026-05-28T08:45:26.999Z</time>
      </trkpt>
      <trkpt lat="44.00681" lon="3.50177">
        <ele>947.6</ele>
        <time>2026-05-28T08:45:27.999Z</time>
      </trkpt>
      <trkpt lat="44.00682" lon="3.50178">
        <ele>947.3</ele>
        <time>2026-05-28T08:45:28.999Z</time>
      </trkpt>
      <trkpt lat="44.00682" lon="3.50179">
        <ele>947.4</ele>
        <time>2026-05-28T08:45:29.999Z</time>
      </trkpt>
      <trkpt lat="44.00683" lon="3.5018">
        <ele>947.7</ele>
        <time>2026-05-28T08:45:30.999Z</time>
      </trkpt>
      <trkpt lat="44.00684" lon="3.50181">
        <ele>947.6</ele>
        <time>2026-05-28T08:45:31.999Z</time>
      </trkpt>
      <trkpt lat="44.00685" lon="3.50183">
        <ele>947.6</ele>
        <time>2026-05-28T08:45:32.999Z</time>
      </trkpt>
      <trkpt lat="44.00686" lon="3.50184">
        <ele>947.7</ele>
        <time>2026-05-28T08:45:33.999Z</time>
      </trkpt>
      <trkpt lat="44.00687" lon="3.50185">
        <ele>948</ele>
        <time>2026-05-28T08:45:34.999Z</time>
      </trkpt>
      <trkpt lat="44.00688" lon="3.50186">
        <ele>948.1</ele>
        <time>2026-05-28T08:45:35.999Z</time>
      </trkpt>
      <trkpt lat="44.00689" lon="3.50187">
        <ele>947.9</ele>
        <time>2026-05-28T08:45:36.999Z</time>
      </trkpt>
      <trkpt lat="44.00689" lon="3.50188">
        <ele>948.1</ele>
        <time>2026-05-28T08:45:37.999Z</time>
      </trkpt>
      <trkpt lat="44.0069" lon="3.50188">
        <ele>948.5</ele>
        <time>2026-05-28T08:45:38.999Z</time>
      </trkpt>
      <trkpt lat="44.00691" lon="3.50188">
        <ele>948.6</ele>
        <time>2026-05-28T08:45:39.999Z</time>
      </trkpt>
      <trkpt lat="44.00692" lon="3.50188">
        <ele>948.6</ele>
        <time>2026-05-28T08:45:40.999Z</time>
      </trkpt>
      <trkpt lat="44.00692" lon="3.50189">
        <ele>948.8</ele>
        <time>2026-05-28T08:45:41.999Z</time>
      </trkpt>
      <trkpt lat="44.00692" lon="3.5019">
        <ele>948.9</ele>
        <time>2026-05-28T08:45:42.999Z</time>
      </trkpt>
      <trkpt lat="44.00693" lon="3.50191">
        <ele>949.2</ele>
        <time>2026-05-28T08:45:43.999Z</time>
      </trkpt>
      <trkpt lat="44.00693" lon="3.50192">
        <ele>949.6</ele>
        <time>2026-05-28T08:45:44.999Z</time>
      </trkpt>
      <trkpt lat="44.00694" lon="3.50193">
        <ele>949.7</ele>
        <time>2026-05-28T08:45:45.999Z</time>
      </trkpt>
      <trkpt lat="44.00695" lon="3.50193">
        <ele>949.8</ele>
        <time>2026-05-28T08:45:46.999Z</time>
      </trkpt>
      <trkpt lat="44.00696" lon="3.50194">
        <ele>950</ele>
        <time>2026-05-28T08:45:47.999Z</time>
      </trkpt>
      <trkpt lat="44.00697" lon="3.50195">
        <ele>950</ele>
        <time>2026-05-28T08:45:48.999Z</time>
      </trkpt>
      <trkpt lat="44.00698" lon="3.50196">
        <ele>950.5</ele>
        <time>2026-05-28T08:45:49.999Z</time>
      </trkpt>
      <trkpt lat="44.00699" lon="3.50197">
        <ele>951.6</ele>
        <time>2026-05-28T08:45:50.999Z</time>
      </trkpt>
      <trkpt lat="44.007" lon="3.50198">
        <ele>952.3</ele>
        <time>2026-05-28T08:45:51.999Z</time>
      </trkpt>
      <trkpt lat="44.00701" lon="3.50199">
        <ele>952.4</ele>
        <time>2026-05-28T08:45:52.999Z</time>
      </trkpt>
      <trkpt lat="44.00702" lon="3.50201">
        <ele>952.3</ele>
        <time>2026-05-28T08:45:53.999Z</time>
      </trkpt>
      <trkpt lat="44.00703" lon="3.50202">
        <ele>952.6</ele>
        <time>2026-05-28T08:45:54.999Z</time>
      </trkpt>
      <trkpt lat="44.00703" lon="3.50203">
        <ele>952.7</ele>
        <time>2026-05-28T08:45:55.999Z</time>
      </trkpt>
      <trkpt lat="44.00704" lon="3.50203">
        <ele>952.6</ele>
        <time>2026-05-28T08:45:56.999Z</time>
      </trkpt>
      <trkpt lat="44.00705" lon="3.50203">
        <ele>952.6</ele>
        <time>2026-05-28T08:45:57.999Z</time>
      </trkpt>
      <trkpt lat="44.00705" lon="3.50202">
        <ele>952.1</ele>
        <time>2026-05-28T08:45:58.999Z</time>
      </trkpt>
      <trkpt lat="44.00705" lon="3.50202">
        <ele>952.2</ele>
        <time>2026-05-28T08:45:59.999Z</time>
      </trkpt>
      <trkpt lat="44.00705" lon="3.50202">
        <ele>952.6</ele>
        <time>2026-05-28T08:46:00.999Z</time>
      </trkpt>
      <trkpt lat="44.00706" lon="3.50203">
        <ele>952.8</ele>
        <time>2026-05-28T08:46:01.999Z</time>
      </trkpt>
      <trkpt lat="44.00707" lon="3.50204">
        <ele>953.2</ele>
        <time>2026-05-28T08:46:02.999Z</time>
      </trkpt>
      <trkpt lat="44.00708" lon="3.50204">
        <ele>953.3</ele>
        <time>2026-05-28T08:46:03.999Z</time>
      </trkpt>
      <trkpt lat="44.00709" lon="3.50204">
        <ele>953.4</ele>
        <time>2026-05-28T08:46:04.999Z</time>
      </trkpt>
      <trkpt lat="44.00709" lon="3.50204">
        <ele>953.4</ele>
        <time>2026-05-28T08:46:05.999Z</time>
      </trkpt>
      <trkpt lat="44.00709" lon="3.50204">
        <ele>953.1</ele>
        <time>2026-05-28T08:46:06.999Z</time>
      </trkpt>
      <trkpt lat="44.0071" lon="3.50204">
        <ele>952.9</ele>
        <time>2026-05-28T08:46:07.999Z</time>
      </trkpt>
      <trkpt lat="44.0071" lon="3.50204">
        <ele>952.7</ele>
        <time>2026-05-28T08:46:08.999Z</time>
      </trkpt>
      <trkpt lat="44.0071" lon="3.50204">
        <ele>952.5</ele>
        <time>2026-05-28T08:46:09.999Z</time>
      </trkpt>
      <trkpt lat="44.0071" lon="3.50205">
        <ele>952.6</ele>
        <time>2026-05-28T08:46:10.999Z</time>
      </trkpt>
      <trkpt lat="44.00712" lon="3.50206">
        <ele>952.7</ele>
        <time>2026-05-28T08:46:11.999Z</time>
      </trkpt>
      <trkpt lat="44.00713" lon="3.50207">
        <ele>952.5</ele>
        <time>2026-05-28T08:46:12.999Z</time>
      </trkpt>
      <trkpt lat="44.00715" lon="3.50208">
        <ele>952.5</ele>
        <time>2026-05-28T08:46:13.999Z</time>
      </trkpt>
      <trkpt lat="44.00716" lon="3.50209">
        <ele>952.5</ele>
        <time>2026-05-28T08:46:14.999Z</time>
      </trkpt>
      <trkpt lat="44.00717" lon="3.5021">
        <ele>952.9</ele>
        <time>2026-05-28T08:46:15.999Z</time>
      </trkpt>
      <trkpt lat="44.00718" lon="3.50211">
        <ele>953.2</ele>
        <time>2026-05-28T08:46:16.999Z</time>
      </trkpt>
      <trkpt lat="44.0072" lon="3.50213">
        <ele>953.2</ele>
        <time>2026-05-28T08:46:17.999Z</time>
      </trkpt>
      <trkpt lat="44.00721" lon="3.50215">
        <ele>953.1</ele>
        <time>2026-05-28T08:46:18.999Z</time>
      </trkpt>
      <trkpt lat="44.00722" lon="3.50215">
        <ele>953</ele>
        <time>2026-05-28T08:46:19.999Z</time>
      </trkpt>
      <trkpt lat="44.00723" lon="3.50216">
        <ele>953.2</ele>
        <time>2026-05-28T08:46:20.999Z</time>
      </trkpt>
      <trkpt lat="44.00723" lon="3.50216">
        <ele>953.4</ele>
        <time>2026-05-28T08:46:21.999Z</time>
      </trkpt>
      <trkpt lat="44.00724" lon="3.50217">
        <ele>953.6</ele>
        <time>2026-05-28T08:46:22.999Z</time>
      </trkpt>
      <trkpt lat="44.00724" lon="3.50217">
        <ele>953.4</ele>
        <time>2026-05-28T08:46:23.999Z</time>
      </trkpt>
      <trkpt lat="44.00725" lon="3.50218">
        <ele>953.1</ele>
        <time>2026-05-28T08:46:24.999Z</time>
      </trkpt>
      <trkpt lat="44.00726" lon="3.50218">
        <ele>953</ele>
        <time>2026-05-28T08:46:25.999Z</time>
      </trkpt>
      <trkpt lat="44.00726" lon="3.50219">
        <ele>952.8</ele>
        <time>2026-05-28T08:46:26.999Z</time>
      </trkpt>
      <trkpt lat="44.00727" lon="3.5022">
        <ele>952.4</ele>
        <time>2026-05-28T08:46:27.999Z</time>
      </trkpt>
      <trkpt lat="44.00729" lon="3.5022">
        <ele>952.2</ele>
        <time>2026-05-28T08:46:28.999Z</time>
      </trkpt>
      <trkpt lat="44.00729" lon="3.50221">
        <ele>952.1</ele>
        <time>2026-05-28T08:46:29.999Z</time>
      </trkpt>
      <trkpt lat="44.0073" lon="3.50222">
        <ele>952.3</ele>
        <time>2026-05-28T08:46:30.999Z</time>
      </trkpt>
      <trkpt lat="44.0073" lon="3.50224">
        <ele>952.3</ele>
        <time>2026-05-28T08:46:31.999Z</time>
      </trkpt>
      <trkpt lat="44.00731" lon="3.50225">
        <ele>952.2</ele>
        <time>2026-05-28T08:46:32.999Z</time>
      </trkpt>
      <trkpt lat="44.00733" lon="3.50226">
        <ele>952.1</ele>
        <time>2026-05-28T08:46:33.999Z</time>
      </trkpt>
      <trkpt lat="44.00733" lon="3.50228">
        <ele>952</ele>
        <time>2026-05-28T08:46:34.999Z</time>
      </trkpt>
      <trkpt lat="44.00734" lon="3.50229">
        <ele>951.8</ele>
        <time>2026-05-28T08:46:35.999Z</time>
      </trkpt>
      <trkpt lat="44.00735" lon="3.5023">
        <ele>951.4</ele>
        <time>2026-05-28T08:46:36.999Z</time>
      </trkpt>
      <trkpt lat="44.00736" lon="3.50231">
        <ele>950.8</ele>
        <time>2026-05-28T08:46:37.999Z</time>
      </trkpt>
      <trkpt lat="44.00737" lon="3.50232">
        <ele>950.8</ele>
        <time>2026-05-28T08:46:38.999Z</time>
      </trkpt>
      <trkpt lat="44.00738" lon="3.50233">
        <ele>951</ele>
        <time>2026-05-28T08:46:39.999Z</time>
      </trkpt>
      <trkpt lat="44.00739" lon="3.50234">
        <ele>950.9</ele>
        <time>2026-05-28T08:46:40.999Z</time>
      </trkpt>
      <trkpt lat="44.00739" lon="3.50236">
        <ele>950.9</ele>
        <time>2026-05-28T08:46:41.999Z</time>
      </trkpt>
      <trkpt lat="44.00739" lon="3.50237">
        <ele>951.2</ele>
        <time>2026-05-28T08:46:42.999Z</time>
      </trkpt>
      <trkpt lat="44.0074" lon="3.50237">
        <ele>951.1</ele>
        <time>2026-05-28T08:46:43.999Z</time>
      </trkpt>
      <trkpt lat="44.00741" lon="3.50237">
        <ele>951.1</ele>
        <time>2026-05-28T08:46:44.999Z</time>
      </trkpt>
      <trkpt lat="44.00741" lon="3.50237">
        <ele>951.4</ele>
        <time>2026-05-28T08:46:45.999Z</time>
      </trkpt>
      <trkpt lat="44.00742" lon="3.50237">
        <ele>951.7</ele>
        <time>2026-05-28T08:46:46.999Z</time>
      </trkpt>
      <trkpt lat="44.00743" lon="3.50238">
        <ele>952</ele>
        <time>2026-05-28T08:46:47.999Z</time>
      </trkpt>
      <trkpt lat="44.00743" lon="3.50238">
        <ele>952.2</ele>
        <time>2026-05-28T08:46:48.999Z</time>
      </trkpt>
      <trkpt lat="44.00744" lon="3.50239">
        <ele>952.3</ele>
        <time>2026-05-28T08:46:49.999Z</time>
      </trkpt>
      <trkpt lat="44.00745" lon="3.50239">
        <ele>952.1</ele>
        <time>2026-05-28T08:46:50.999Z</time>
      </trkpt>
      <trkpt lat="44.00745" lon="3.50239">
        <ele>952.2</ele>
        <time>2026-05-28T08:46:51.999Z</time>
      </trkpt>
      <trkpt lat="44.00745" lon="3.50239">
        <ele>951.9</ele>
        <time>2026-05-28T08:46:52.999Z</time>
      </trkpt>
      <trkpt lat="44.00747" lon="3.5024">
        <ele>951.8</ele>
        <time>2026-05-28T08:46:53.999Z</time>
      </trkpt>
      <trkpt lat="44.00748" lon="3.5024">
        <ele>951.8</ele>
        <time>2026-05-28T08:46:54.999Z</time>
      </trkpt>
      <trkpt lat="44.00748" lon="3.50241">
        <ele>951.6</ele>
        <time>2026-05-28T08:46:55.999Z</time>
      </trkpt>
      <trkpt lat="44.00749" lon="3.50242">
        <ele>951.9</ele>
        <time>2026-05-28T08:46:56.999Z</time>
      </trkpt>
      <trkpt lat="44.00749" lon="3.50243">
        <ele>952.2</ele>
        <time>2026-05-28T08:46:57.999Z</time>
      </trkpt>
      <trkpt lat="44.00749" lon="3.50245">
        <ele>952.2</ele>
        <time>2026-05-28T08:46:58.999Z</time>
      </trkpt>
      <trkpt lat="44.0075" lon="3.50247">
        <ele>952.1</ele>
        <time>2026-05-28T08:46:59.999Z</time>
      </trkpt>
      <trkpt lat="44.00751" lon="3.50248">
        <ele>951.9</ele>
        <time>2026-05-28T08:47:00.999Z</time>
      </trkpt>
      <trkpt lat="44.00752" lon="3.50248">
        <ele>951.9</ele>
        <time>2026-05-28T08:47:01.999Z</time>
      </trkpt>
      <trkpt lat="44.00753" lon="3.50249">
        <ele>951.6</ele>
        <time>2026-05-28T08:47:02.999Z</time>
      </trkpt>
      <trkpt lat="44.00753" lon="3.5025">
        <ele>951.7</ele>
        <time>2026-05-28T08:47:03.999Z</time>
      </trkpt>
      <trkpt lat="44.00754" lon="3.50251">
        <ele>951.9</ele>
        <time>2026-05-28T08:47:04.999Z</time>
      </trkpt>
      <trkpt lat="44.00754" lon="3.50251">
        <ele>952</ele>
        <time>2026-05-28T08:47:05.999Z</time>
      </trkpt>
      <trkpt lat="44.00755" lon="3.50251">
        <ele>952.1</ele>
        <time>2026-05-28T08:47:06.999Z</time>
      </trkpt>
      <trkpt lat="44.00755" lon="3.50253">
        <ele>952.4</ele>
        <time>2026-05-28T08:47:07.999Z</time>
      </trkpt>
      <trkpt lat="44.00756" lon="3.50253">
        <ele>952.4</ele>
        <time>2026-05-28T08:47:08.999Z</time>
      </trkpt>
      <trkpt lat="44.00757" lon="3.50253">
        <ele>952.2</ele>
        <time>2026-05-28T08:47:09.999Z</time>
      </trkpt>
      <trkpt lat="44.00759" lon="3.50253">
        <ele>952.2</ele>
        <time>2026-05-28T08:47:10.999Z</time>
      </trkpt>
      <trkpt lat="44.0076" lon="3.50254">
        <ele>952.3</ele>
        <time>2026-05-28T08:47:11.999Z</time>
      </trkpt>
      <trkpt lat="44.00761" lon="3.50255">
        <ele>952.1</ele>
        <time>2026-05-28T08:47:12.999Z</time>
      </trkpt>
      <trkpt lat="44.00761" lon="3.50255">
        <ele>952</ele>
        <time>2026-05-28T08:47:13.999Z</time>
      </trkpt>
      <trkpt lat="44.00761" lon="3.50255">
        <ele>952.3</ele>
        <time>2026-05-28T08:47:14.999Z</time>
      </trkpt>
      <trkpt lat="44.00762" lon="3.50255">
        <ele>952.2</ele>
        <time>2026-05-28T08:47:15.999Z</time>
      </trkpt>
      <trkpt lat="44.00762" lon="3.50255">
        <ele>951.9</ele>
        <time>2026-05-28T08:47:16.999Z</time>
      </trkpt>
      <trkpt lat="44.00762" lon="3.50255">
        <ele>952</ele>
        <time>2026-05-28T08:47:17.999Z</time>
      </trkpt>
      <trkpt lat="44.00762" lon="3.50255">
        <ele>952</ele>
        <time>2026-05-28T08:47:18.999Z</time>
      </trkpt>
      <trkpt lat="44.00762" lon="3.50255">
        <ele>952</ele>
        <time>2026-05-28T08:47:19.999Z</time>
      </trkpt>
      <trkpt lat="44.00762" lon="3.50255">
        <ele>951.9</ele>
        <time>2026-05-28T08:47:20.999Z</time>
      </trkpt>
      <trkpt lat="44.00762" lon="3.50255">
        <ele>951.6</ele>
        <time>2026-05-28T08:47:21.999Z</time>
      </trkpt>
      <trkpt lat="44.00762" lon="3.50255">
        <ele>951.4</ele>
        <time>2026-05-28T08:47:22.999Z</time>
      </trkpt>
      <trkpt lat="44.00762" lon="3.50255">
        <ele>951.8</ele>
        <time>2026-05-28T08:47:23.999Z</time>
      </trkpt>
      <trkpt lat="44.00762" lon="3.50255">
        <ele>951.8</ele>
        <time>2026-05-28T08:47:24.999Z</time>
      </trkpt>
      <trkpt lat="44.00762" lon="3.50255">
        <ele>951.8</ele>
        <time>2026-05-28T08:47:25.999Z</time>
      </trkpt>
      <trkpt lat="44.00762" lon="3.50255">
        <ele>951.7</ele>
        <time>2026-05-28T08:47:26.999Z</time>
      </trkpt>
      <trkpt lat="44.00762" lon="3.50255">
        <ele>951.9</ele>
        <time>2026-05-28T08:47:27.999Z</time>
      </trkpt>
      <trkpt lat="44.00762" lon="3.50256">
        <ele>952.3</ele>
        <time>2026-05-28T08:47:28.999Z</time>
      </trkpt>
      <trkpt lat="44.00762" lon="3.50257">
        <ele>952.4</ele>
        <time>2026-05-28T08:47:29.999Z</time>
      </trkpt>
      <trkpt lat="44.00762" lon="3.50259">
        <ele>952.8</ele>
        <time>2026-05-28T08:47:30.999Z</time>
      </trkpt>
      <trkpt lat="44.00762" lon="3.5026">
        <ele>953.2</ele>
        <time>2026-05-28T08:47:31.999Z</time>
      </trkpt>
      <trkpt lat="44.00762" lon="3.50262">
        <ele>953.2</ele>
        <time>2026-05-28T08:47:32.999Z</time>
      </trkpt>
      <trkpt lat="44.00762" lon="3.50263">
        <ele>953.2</ele>
        <time>2026-05-28T08:47:33.999Z</time>
      </trkpt>
      <trkpt lat="44.00763" lon="3.50263">
        <ele>953.1</ele>
        <time>2026-05-28T08:47:34.999Z</time>
      </trkpt>
      <trkpt lat="44.00763" lon="3.50263">
        <ele>953.4</ele>
        <time>2026-05-28T08:47:35.999Z</time>
      </trkpt>
      <trkpt lat="44.00764" lon="3.50264">
        <ele>953.5</ele>
        <time>2026-05-28T08:47:36.999Z</time>
      </trkpt>
      <trkpt lat="44.00764" lon="3.50264">
        <ele>953.5</ele>
        <time>2026-05-28T08:47:37.999Z</time>
      </trkpt>
      <trkpt lat="44.00764" lon="3.50264">
        <ele>953.7</ele>
        <time>2026-05-28T08:47:38.999Z</time>
      </trkpt>
      <trkpt lat="44.00764" lon="3.50265">
        <ele>953.5</ele>
        <time>2026-05-28T08:47:39.999Z</time>
      </trkpt>
      <trkpt lat="44.00764" lon="3.50265">
        <ele>953.4</ele>
        <time>2026-05-28T08:47:40.999Z</time>
      </trkpt>
      <trkpt lat="44.00764" lon="3.50265">
        <ele>953.3</ele>
        <time>2026-05-28T08:47:41.999Z</time>
      </trkpt>
      <trkpt lat="44.00764" lon="3.50265">
        <ele>953</ele>
        <time>2026-05-28T08:47:42.999Z</time>
      </trkpt>
      <trkpt lat="44.00764" lon="3.50265">
        <ele>952.7</ele>
        <time>2026-05-28T08:47:43.999Z</time>
      </trkpt>
      <trkpt lat="44.00764" lon="3.50265">
        <ele>952.2</ele>
        <time>2026-05-28T08:47:44.999Z</time>
      </trkpt>
      <trkpt lat="44.00764" lon="3.50265">
        <ele>951.9</ele>
        <time>2026-05-28T08:47:45.999Z</time>
      </trkpt>
      <trkpt lat="44.00764" lon="3.50265">
        <ele>951.7</ele>
        <time>2026-05-28T08:47:46.999Z</time>
      </trkpt>
      <trkpt lat="44.00764" lon="3.50265">
        <ele>951.5</ele>
        <time>2026-05-28T08:47:47.999Z</time>
      </trkpt>
      <trkpt lat="44.00764" lon="3.50265">
        <ele>951.5</ele>
        <time>2026-05-28T08:47:48.999Z</time>
      </trkpt>
      <trkpt lat="44.00764" lon="3.50265">
        <ele>951.4</ele>
        <time>2026-05-28T08:47:49.999Z</time>
      </trkpt>
      <trkpt lat="44.00764" lon="3.50265">
        <ele>951.1</ele>
        <time>2026-05-28T08:47:50.999Z</time>
      </trkpt>
      <trkpt lat="44.00764" lon="3.50265">
        <ele>950.6</ele>
        <time>2026-05-28T08:47:51.999Z</time>
      </trkpt>
      <trkpt lat="44.00764" lon="3.50266">
        <ele>951</ele>
        <time>2026-05-28T08:47:52.999Z</time>
      </trkpt>
      <trkpt lat="44.00764" lon="3.50266">
        <ele>950.8</ele>
        <time>2026-05-28T08:47:53.999Z</time>
      </trkpt>
      <trkpt lat="44.00764" lon="3.50266">
        <ele>950.8</ele>
        <time>2026-05-28T08:47:54.999Z</time>
      </trkpt>
      <trkpt lat="44.00764" lon="3.50266">
        <ele>950.8</ele>
        <time>2026-05-28T08:47:55.999Z</time>
      </trkpt>
      <trkpt lat="44.00764" lon="3.50267">
        <ele>950.5</ele>
        <time>2026-05-28T08:47:56.999Z</time>
      </trkpt>
      <trkpt lat="44.00764" lon="3.50267">
        <ele>950.1</ele>
        <time>2026-05-28T08:47:57.999Z</time>
      </trkpt>
      <trkpt lat="44.00765" lon="3.5027">
        <ele>950.2</ele>
        <time>2026-05-28T08:47:58.999Z</time>
      </trkpt>
      <trkpt lat="44.00765" lon="3.50271">
        <ele>949.7</ele>
        <time>2026-05-28T08:47:59.999Z</time>
      </trkpt>
      <trkpt lat="44.00765" lon="3.50274">
        <ele>949.5</ele>
        <time>2026-05-28T08:48:00.999Z</time>
      </trkpt>
      <trkpt lat="44.00765" lon="3.50276">
        <ele>949.4</ele>
        <time>2026-05-28T08:48:01.999Z</time>
      </trkpt>
      <trkpt lat="44.00765" lon="3.50278">
        <ele>949.5</ele>
        <time>2026-05-28T08:48:03.000Z</time>
      </trkpt>
      <trkpt lat="44.00764" lon="3.50281">
        <ele>950.5</ele>
        <time>2026-05-28T08:48:04.000Z</time>
      </trkpt>
      <trkpt lat="44.00763" lon="3.50284">
        <ele>950.9</ele>
        <time>2026-05-28T08:48:05.000Z</time>
      </trkpt>
      <trkpt lat="44.00762" lon="3.50285">
        <ele>951.1</ele>
        <time>2026-05-28T08:48:06.000Z</time>
      </trkpt>
      <trkpt lat="44.0076" lon="3.50287">
        <ele>951.3</ele>
        <time>2026-05-28T08:48:07.000Z</time>
      </trkpt>
      <trkpt lat="44.0076" lon="3.50288">
        <ele>951.6</ele>
        <time>2026-05-28T08:48:08.000Z</time>
      </trkpt>
      <trkpt lat="44.00759" lon="3.50288">
        <ele>951.3</ele>
        <time>2026-05-28T08:48:09.000Z</time>
      </trkpt>
      <trkpt lat="44.00758" lon="3.50289">
        <ele>951.5</ele>
        <time>2026-05-28T08:48:10.000Z</time>
      </trkpt>
      <trkpt lat="44.00758" lon="3.50289">
        <ele>951.8</ele>
        <time>2026-05-28T08:48:11.000Z</time>
      </trkpt>
      <trkpt lat="44.00759" lon="3.50291">
        <ele>952.2</ele>
        <time>2026-05-28T08:48:12.000Z</time>
      </trkpt>
      <trkpt lat="44.00758" lon="3.50292">
        <ele>952.3</ele>
        <time>2026-05-28T08:48:13.000Z</time>
      </trkpt>
      <trkpt lat="44.00759" lon="3.50294">
        <ele>952.3</ele>
        <time>2026-05-28T08:48:14.000Z</time>
      </trkpt>
      <trkpt lat="44.00759" lon="3.50296">
        <ele>952.3</ele>
        <time>2026-05-28T08:48:15.000Z</time>
      </trkpt>
      <trkpt lat="44.00759" lon="3.50297">
        <ele>952.2</ele>
        <time>2026-05-28T08:48:16.000Z</time>
      </trkpt>
      <trkpt lat="44.00759" lon="3.50299">
        <ele>952.1</ele>
        <time>2026-05-28T08:48:17.000Z</time>
      </trkpt>
      <trkpt lat="44.00759" lon="3.50299">
        <ele>951.3</ele>
        <time>2026-05-28T08:48:18.000Z</time>
      </trkpt>
      <trkpt lat="44.00758" lon="3.50299">
        <ele>950.7</ele>
        <time>2026-05-28T08:48:19.000Z</time>
      </trkpt>
      <trkpt lat="44.00759" lon="3.50301">
        <ele>950.3</ele>
        <time>2026-05-28T08:48:20.000Z</time>
      </trkpt>
      <trkpt lat="44.00759" lon="3.50302">
        <ele>949.8</ele>
        <time>2026-05-28T08:48:21.000Z</time>
      </trkpt>
      <trkpt lat="44.00759" lon="3.50304">
        <ele>949.6</ele>
        <time>2026-05-28T08:48:22.000Z</time>
      </trkpt>
      <trkpt lat="44.00759" lon="3.50306">
        <ele>949.4</ele>
        <time>2026-05-28T08:48:23.000Z</time>
      </trkpt>
      <trkpt lat="44.0076" lon="3.50307">
        <ele>949.1</ele>
        <time>2026-05-28T08:48:24.000Z</time>
      </trkpt>
      <trkpt lat="44.0076" lon="3.50308">
        <ele>949</ele>
        <time>2026-05-28T08:48:25.000Z</time>
      </trkpt>
      <trkpt lat="44.0076" lon="3.50309">
        <ele>948.9</ele>
        <time>2026-05-28T08:48:26.000Z</time>
      </trkpt>
      <trkpt lat="44.0076" lon="3.5031">
        <ele>948.9</ele>
        <time>2026-05-28T08:48:27.000Z</time>
      </trkpt>
      <trkpt lat="44.00761" lon="3.50311">
        <ele>948.9</ele>
        <time>2026-05-28T08:48:28.000Z</time>
      </trkpt>
      <trkpt lat="44.00761" lon="3.50311">
        <ele>948.9</ele>
        <time>2026-05-28T08:48:29.000Z</time>
      </trkpt>
      <trkpt lat="44.00761" lon="3.50312">
        <ele>949.4</ele>
        <time>2026-05-28T08:48:30.000Z</time>
      </trkpt>
      <trkpt lat="44.00762" lon="3.50314">
        <ele>949.6</ele>
        <time>2026-05-28T08:48:31.000Z</time>
      </trkpt>
      <trkpt lat="44.00762" lon="3.50315">
        <ele>949.6</ele>
        <time>2026-05-28T08:48:32.000Z</time>
      </trkpt>
      <trkpt lat="44.00762" lon="3.50315">
        <ele>949.7</ele>
        <time>2026-05-28T08:48:33.000Z</time>
      </trkpt>
      <trkpt lat="44.00762" lon="3.50316">
        <ele>949.5</ele>
        <time>2026-05-28T08:48:34.000Z</time>
      </trkpt>
      <trkpt lat="44.00762" lon="3.50317">
        <ele>949.6</ele>
        <time>2026-05-28T08:48:35.000Z</time>
      </trkpt>
      <trkpt lat="44.00762" lon="3.50318">
        <ele>949.9</ele>
        <time>2026-05-28T08:48:36.000Z</time>
      </trkpt>
      <trkpt lat="44.00762" lon="3.50319">
        <ele>950.1</ele>
        <time>2026-05-28T08:48:37.000Z</time>
      </trkpt>
      <trkpt lat="44.00762" lon="3.5032">
        <ele>950.6</ele>
        <time>2026-05-28T08:48:38.000Z</time>
      </trkpt>
      <trkpt lat="44.00762" lon="3.5032">
        <ele>951.1</ele>
        <time>2026-05-28T08:48:39.000Z</time>
      </trkpt>
      <trkpt lat="44.00762" lon="3.50321">
        <ele>951.3</ele>
        <time>2026-05-28T08:48:40.000Z</time>
      </trkpt>
      <trkpt lat="44.00762" lon="3.50321">
        <ele>951.1</ele>
        <time>2026-05-28T08:48:41.000Z</time>
      </trkpt>
      <trkpt lat="44.00762" lon="3.50321">
        <ele>951.1</ele>
        <time>2026-05-28T08:48:42.000Z</time>
      </trkpt>
      <trkpt lat="44.00762" lon="3.50322">
        <ele>951.3</ele>
        <time>2026-05-28T08:48:43.000Z</time>
      </trkpt>
      <trkpt lat="44.00762" lon="3.50322">
        <ele>951.6</ele>
        <time>2026-05-28T08:48:44.000Z</time>
      </trkpt>
      <trkpt lat="44.00762" lon="3.50322">
        <ele>951.6</ele>
        <time>2026-05-28T08:48:45.000Z</time>
      </trkpt>
      <trkpt lat="44.00762" lon="3.50323">
        <ele>951.6</ele>
        <time>2026-05-28T08:48:46.000Z</time>
      </trkpt>
      <trkpt lat="44.00763" lon="3.50323">
        <ele>951.5</ele>
        <time>2026-05-28T08:48:47.000Z</time>
      </trkpt>
      <trkpt lat="44.00763" lon="3.50324">
        <ele>951.4</ele>
        <time>2026-05-28T08:48:48.000Z</time>
      </trkpt>
      <trkpt lat="44.00763" lon="3.50324">
        <ele>951.4</ele>
        <time>2026-05-28T08:48:49.000Z</time>
      </trkpt>
      <trkpt lat="44.00763" lon="3.50325">
        <ele>951.5</ele>
        <time>2026-05-28T08:48:50.000Z</time>
      </trkpt>
      <trkpt lat="44.00763" lon="3.50325">
        <ele>951.9</ele>
        <time>2026-05-28T08:48:51.000Z</time>
      </trkpt>
      <trkpt lat="44.00764" lon="3.50326">
        <ele>951.6</ele>
        <time>2026-05-28T08:48:52.000Z</time>
      </trkpt>
      <trkpt lat="44.00764" lon="3.50327">
        <ele>951.7</ele>
        <time>2026-05-28T08:48:53.000Z</time>
      </trkpt>
      <trkpt lat="44.00764" lon="3.50327">
        <ele>952</ele>
        <time>2026-05-28T08:48:54.000Z</time>
      </trkpt>
      <trkpt lat="44.00764" lon="3.50328">
        <ele>952.5</ele>
        <time>2026-05-28T08:48:55.000Z</time>
      </trkpt>
      <trkpt lat="44.00764" lon="3.50329">
        <ele>952.7</ele>
        <time>2026-05-28T08:48:56.000Z</time>
      </trkpt>
      <trkpt lat="44.00765" lon="3.50332">
        <ele>952.7</ele>
        <time>2026-05-28T08:48:57.000Z</time>
      </trkpt>
      <trkpt lat="44.00765" lon="3.50334">
        <ele>952.6</ele>
        <time>2026-05-28T08:48:58.000Z</time>
      </trkpt>
      <trkpt lat="44.00766" lon="3.50336">
        <ele>952.7</ele>
        <time>2026-05-28T08:48:59.000Z</time>
      </trkpt>
      <trkpt lat="44.00766" lon="3.50336">
        <ele>952.8</ele>
        <time>2026-05-28T08:49:00.000Z</time>
      </trkpt>
      <trkpt lat="44.00766" lon="3.50337">
        <ele>952.9</ele>
        <time>2026-05-28T08:49:01.000Z</time>
      </trkpt>
      <trkpt lat="44.00766" lon="3.50338">
        <ele>953.1</ele>
        <time>2026-05-28T08:49:02.000Z</time>
      </trkpt>
      <trkpt lat="44.00767" lon="3.50338">
        <ele>953.3</ele>
        <time>2026-05-28T08:49:03.000Z</time>
      </trkpt>
      <trkpt lat="44.00767" lon="3.50339">
        <ele>953.3</ele>
        <time>2026-05-28T08:49:04.000Z</time>
      </trkpt>
      <trkpt lat="44.00768" lon="3.5034">
        <ele>953.1</ele>
        <time>2026-05-28T08:49:05.000Z</time>
      </trkpt>
      <trkpt lat="44.00768" lon="3.50343">
        <ele>952.9</ele>
        <time>2026-05-28T08:49:06.000Z</time>
      </trkpt>
      <trkpt lat="44.00769" lon="3.50345">
        <ele>952.9</ele>
        <time>2026-05-28T08:49:07.000Z</time>
      </trkpt>
      <trkpt lat="44.00769" lon="3.50346">
        <ele>952.9</ele>
        <time>2026-05-28T08:49:08.000Z</time>
      </trkpt>
      <trkpt lat="44.00769" lon="3.50347">
        <ele>952.9</ele>
        <time>2026-05-28T08:49:09.000Z</time>
      </trkpt>
      <trkpt lat="44.00769" lon="3.50349">
        <ele>953.1</ele>
        <time>2026-05-28T08:49:10.000Z</time>
      </trkpt>
      <trkpt lat="44.0077" lon="3.5035">
        <ele>953.8</ele>
        <time>2026-05-28T08:49:11.000Z</time>
      </trkpt>
      <trkpt lat="44.0077" lon="3.50352">
        <ele>954.1</ele>
        <time>2026-05-28T08:49:12.000Z</time>
      </trkpt>
      <trkpt lat="44.00771" lon="3.50353">
        <ele>954.5</ele>
        <time>2026-05-28T08:49:13.000Z</time>
      </trkpt>
      <trkpt lat="44.00772" lon="3.50354">
        <ele>954.7</ele>
        <time>2026-05-28T08:49:14.000Z</time>
      </trkpt>
      <trkpt lat="44.00772" lon="3.50355">
        <ele>954.9</ele>
        <time>2026-05-28T08:49:15.000Z</time>
      </trkpt>
      <trkpt lat="44.00773" lon="3.50357">
        <ele>955.4</ele>
        <time>2026-05-28T08:49:16.000Z</time>
      </trkpt>
      <trkpt lat="44.00773" lon="3.50359">
        <ele>956.1</ele>
        <time>2026-05-28T08:49:17.000Z</time>
      </trkpt>
      <trkpt lat="44.00773" lon="3.50361">
        <ele>956.3</ele>
        <time>2026-05-28T08:49:18.000Z</time>
      </trkpt>
      <trkpt lat="44.00773" lon="3.50362">
        <ele>956.3</ele>
        <time>2026-05-28T08:49:19.000Z</time>
      </trkpt>
      <trkpt lat="44.00773" lon="3.50364">
        <ele>956.8</ele>
        <time>2026-05-28T08:49:20.000Z</time>
      </trkpt>
      <trkpt lat="44.00774" lon="3.50366">
        <ele>957.4</ele>
        <time>2026-05-28T08:49:21.000Z</time>
      </trkpt>
      <trkpt lat="44.00773" lon="3.50369">
        <ele>958</ele>
        <time>2026-05-28T08:49:22.000Z</time>
      </trkpt>
      <trkpt lat="44.00774" lon="3.5037">
        <ele>958.8</ele>
        <time>2026-05-28T08:49:23.000Z</time>
      </trkpt>
      <trkpt lat="44.00773" lon="3.50371">
        <ele>959.4</ele>
        <time>2026-05-28T08:49:24.000Z</time>
      </trkpt>
      <trkpt lat="44.00773" lon="3.50372">
        <ele>959.8</ele>
        <time>2026-05-28T08:49:25.000Z</time>
      </trkpt>
      <trkpt lat="44.00772" lon="3.50373">
        <ele>960.3</ele>
        <time>2026-05-28T08:49:26.000Z</time>
      </trkpt>
      <trkpt lat="44.00773" lon="3.50375">
        <ele>961.2</ele>
        <time>2026-05-28T08:49:27.000Z</time>
      </trkpt>
      <trkpt lat="44.00773" lon="3.50376">
        <ele>961.9</ele>
        <time>2026-05-28T08:49:28.000Z</time>
      </trkpt>
      <trkpt lat="44.00773" lon="3.50377">
        <ele>962.2</ele>
        <time>2026-05-28T08:49:29.000Z</time>
      </trkpt>
      <trkpt lat="44.00773" lon="3.50378">
        <ele>962.6</ele>
        <time>2026-05-28T08:49:30.000Z</time>
      </trkpt>
      <trkpt lat="44.00774" lon="3.50379">
        <ele>963.4</ele>
        <time>2026-05-28T08:49:31.000Z</time>
      </trkpt>
      <trkpt lat="44.00775" lon="3.5038">
        <ele>964.1</ele>
        <time>2026-05-28T08:49:32.000Z</time>
      </trkpt>
      <trkpt lat="44.00776" lon="3.50382">
        <ele>964.6</ele>
        <time>2026-05-28T08:49:33.000Z</time>
      </trkpt>
      <trkpt lat="44.00777" lon="3.50382">
        <ele>964.6</ele>
        <time>2026-05-28T08:49:34.000Z</time>
      </trkpt>
      <trkpt lat="44.00778" lon="3.50382">
        <ele>964.4</ele>
        <time>2026-05-28T08:49:35.000Z</time>
      </trkpt>
      <trkpt lat="44.00778" lon="3.50383">
        <ele>964.8</ele>
        <time>2026-05-28T08:49:36.000Z</time>
      </trkpt>
      <trkpt lat="44.00778" lon="3.50384">
        <ele>964.6</ele>
        <time>2026-05-28T08:49:37.000Z</time>
      </trkpt>
      <trkpt lat="44.00779" lon="3.50385">
        <ele>964.2</ele>
        <time>2026-05-28T08:49:38.000Z</time>
      </trkpt>
      <trkpt lat="44.00781" lon="3.50386">
        <ele>964.7</ele>
        <time>2026-05-28T08:49:39.000Z</time>
      </trkpt>
      <trkpt lat="44.00781" lon="3.50386">
        <ele>964.7</ele>
        <time>2026-05-28T08:49:40.000Z</time>
      </trkpt>
      <trkpt lat="44.00782" lon="3.50386">
        <ele>965.3</ele>
        <time>2026-05-28T08:49:41.000Z</time>
      </trkpt>
      <trkpt lat="44.00783" lon="3.50386">
        <ele>965.5</ele>
        <time>2026-05-28T08:49:42.000Z</time>
      </trkpt>
      <trkpt lat="44.00784" lon="3.50387">
        <ele>965.6</ele>
        <time>2026-05-28T08:49:43.000Z</time>
      </trkpt>
      <trkpt lat="44.00784" lon="3.50389">
        <ele>965.7</ele>
        <time>2026-05-28T08:49:44.000Z</time>
      </trkpt>
      <trkpt lat="44.00785" lon="3.50389">
        <ele>965.8</ele>
        <time>2026-05-28T08:49:45.000Z</time>
      </trkpt>
      <trkpt lat="44.00785" lon="3.5039">
        <ele>965.5</ele>
        <time>2026-05-28T08:49:46.000Z</time>
      </trkpt>
      <trkpt lat="44.00784" lon="3.50392">
        <ele>965.3</ele>
        <time>2026-05-28T08:49:47.000Z</time>
      </trkpt>
      <trkpt lat="44.00785" lon="3.50394">
        <ele>964.8</ele>
        <time>2026-05-28T08:49:48.000Z</time>
      </trkpt>
      <trkpt lat="44.00786" lon="3.50395">
        <ele>964.6</ele>
        <time>2026-05-28T08:49:49.000Z</time>
      </trkpt>
      <trkpt lat="44.00787" lon="3.50396">
        <ele>964.7</ele>
        <time>2026-05-28T08:49:50.000Z</time>
      </trkpt>
      <trkpt lat="44.00787" lon="3.50396">
        <ele>964.9</ele>
        <time>2026-05-28T08:49:51.000Z</time>
      </trkpt>
      <trkpt lat="44.00788" lon="3.50396">
        <ele>964.6</ele>
        <time>2026-05-28T08:49:52.000Z</time>
      </trkpt>
      <trkpt lat="44.00789" lon="3.50398">
        <ele>964.8</ele>
        <time>2026-05-28T08:49:53.000Z</time>
      </trkpt>
      <trkpt lat="44.0079" lon="3.50398">
        <ele>964.9</ele>
        <time>2026-05-28T08:49:54.000Z</time>
      </trkpt>
      <trkpt lat="44.0079" lon="3.50398">
        <ele>964.5</ele>
        <time>2026-05-28T08:49:55.000Z</time>
      </trkpt>
      <trkpt lat="44.0079" lon="3.50399">
        <ele>964.1</ele>
        <time>2026-05-28T08:49:56.000Z</time>
      </trkpt>
      <trkpt lat="44.00791" lon="3.50401">
        <ele>963.7</ele>
        <time>2026-05-28T08:49:57.000Z</time>
      </trkpt>
      <trkpt lat="44.00791" lon="3.50401">
        <ele>963.7</ele>
        <time>2026-05-28T08:49:58.000Z</time>
      </trkpt>
      <trkpt lat="44.00791" lon="3.50403">
        <ele>963.6</ele>
        <time>2026-05-28T08:49:59.000Z</time>
      </trkpt>
      <trkpt lat="44.00791" lon="3.50404">
        <ele>963.6</ele>
        <time>2026-05-28T08:50:00.000Z</time>
      </trkpt>
      <trkpt lat="44.00791" lon="3.50404">
        <ele>963.3</ele>
        <time>2026-05-28T08:50:01.000Z</time>
      </trkpt>
      <trkpt lat="44.00791" lon="3.50405">
        <ele>963.3</ele>
        <time>2026-05-28T08:50:02.000Z</time>
      </trkpt>
      <trkpt lat="44.00791" lon="3.50406">
        <ele>963.7</ele>
        <time>2026-05-28T08:50:03.000Z</time>
      </trkpt>
      <trkpt lat="44.00791" lon="3.50407">
        <ele>963.6</ele>
        <time>2026-05-28T08:50:04.000Z</time>
      </trkpt>
      <trkpt lat="44.00792" lon="3.50408">
        <ele>963.5</ele>
        <time>2026-05-28T08:50:05.000Z</time>
      </trkpt>
      <trkpt lat="44.00791" lon="3.50409">
        <ele>963.3</ele>
        <time>2026-05-28T08:50:06.000Z</time>
      </trkpt>
      <trkpt lat="44.00791" lon="3.50409">
        <ele>963</ele>
        <time>2026-05-28T08:50:07.000Z</time>
      </trkpt>
      <trkpt lat="44.00791" lon="3.5041">
        <ele>962.7</ele>
        <time>2026-05-28T08:50:08.000Z</time>
      </trkpt>
      <trkpt lat="44.00791" lon="3.5041">
        <ele>962.6</ele>
        <time>2026-05-28T08:50:09.000Z</time>
      </trkpt>
      <trkpt lat="44.00791" lon="3.5041">
        <ele>962.3</ele>
        <time>2026-05-28T08:50:10.000Z</time>
      </trkpt>
      <trkpt lat="44.00791" lon="3.5041">
        <ele>962.4</ele>
        <time>2026-05-28T08:50:11.000Z</time>
      </trkpt>
      <trkpt lat="44.00791" lon="3.5041">
        <ele>962.4</ele>
        <time>2026-05-28T08:50:12.000Z</time>
      </trkpt>
      <trkpt lat="44.0079" lon="3.5041">
        <ele>962.5</ele>
        <time>2026-05-28T08:50:13.000Z</time>
      </trkpt>
      <trkpt lat="44.0079" lon="3.5041">
        <ele>962.6</ele>
        <time>2026-05-28T08:50:14.000Z</time>
      </trkpt>
      <trkpt lat="44.0079" lon="3.5041">
        <ele>962.5</ele>
        <time>2026-05-28T08:50:15.000Z</time>
      </trkpt>
      <trkpt lat="44.0079" lon="3.50411">
        <ele>962.7</ele>
        <time>2026-05-28T08:50:16.000Z</time>
      </trkpt>
      <trkpt lat="44.0079" lon="3.50411">
        <ele>962.5</ele>
        <time>2026-05-28T08:50:17.000Z</time>
      </trkpt>
      <trkpt lat="44.0079" lon="3.50411">
        <ele>962.8</ele>
        <time>2026-05-28T08:50:18.000Z</time>
      </trkpt>
      <trkpt lat="44.00789" lon="3.50411">
        <ele>962.8</ele>
        <time>2026-05-28T08:50:19.000Z</time>
      </trkpt>
      <trkpt lat="44.00789" lon="3.50411">
        <ele>962.5</ele>
        <time>2026-05-28T08:50:20.000Z</time>
      </trkpt>
      <trkpt lat="44.00789" lon="3.50411">
        <ele>962.5</ele>
        <time>2026-05-28T08:50:21.000Z</time>
      </trkpt>
      <trkpt lat="44.00789" lon="3.50411">
        <ele>962.4</ele>
        <time>2026-05-28T08:50:22.000Z</time>
      </trkpt>
      <trkpt lat="44.00789" lon="3.50411">
        <ele>962.1</ele>
        <time>2026-05-28T08:50:23.000Z</time>
      </trkpt>
      <trkpt lat="44.00789" lon="3.50412">
        <ele>961.9</ele>
        <time>2026-05-28T08:50:24.000Z</time>
      </trkpt>
      <trkpt lat="44.00789" lon="3.50412">
        <ele>961.9</ele>
        <time>2026-05-28T08:50:25.000Z</time>
      </trkpt>
      <trkpt lat="44.00788" lon="3.50412">
        <ele>961.7</ele>
        <time>2026-05-28T08:50:26.000Z</time>
      </trkpt>
      <trkpt lat="44.00788" lon="3.50412">
        <ele>961.6</ele>
        <time>2026-05-28T08:50:27.000Z</time>
      </trkpt>
      <trkpt lat="44.00788" lon="3.50412">
        <ele>961.5</ele>
        <time>2026-05-28T08:50:28.000Z</time>
      </trkpt>
      <trkpt lat="44.00788" lon="3.50412">
        <ele>961.6</ele>
        <time>2026-05-28T08:50:29.000Z</time>
      </trkpt>
      <trkpt lat="44.00788" lon="3.50412">
        <ele>961.4</ele>
        <time>2026-05-28T08:50:30.000Z</time>
      </trkpt>
      <trkpt lat="44.00788" lon="3.50412">
        <ele>961.2</ele>
        <time>2026-05-28T08:50:31.000Z</time>
      </trkpt>
      <trkpt lat="44.00788" lon="3.50413">
        <ele>961.3</ele>
        <time>2026-05-28T08:50:32.000Z</time>
      </trkpt>
      <trkpt lat="44.00788" lon="3.50413">
        <ele>961.3</ele>
        <time>2026-05-28T08:50:33.000Z</time>
      </trkpt>
      <trkpt lat="44.00788" lon="3.50413">
        <ele>961.6</ele>
        <time>2026-05-28T08:50:34.000Z</time>
      </trkpt>
      <trkpt lat="44.00788" lon="3.50413">
        <ele>961.8</ele>
        <time>2026-05-28T08:50:35.000Z</time>
      </trkpt>
      <trkpt lat="44.00787" lon="3.50413">
        <ele>961.9</ele>
        <time>2026-05-28T08:50:36.000Z</time>
      </trkpt>
      <trkpt lat="44.00787" lon="3.50413">
        <ele>961.8</ele>
        <time>2026-05-28T08:50:37.000Z</time>
      </trkpt>
      <trkpt lat="44.00787" lon="3.50413">
        <ele>961.3</ele>
        <time>2026-05-28T08:50:38.000Z</time>
      </trkpt>
      <trkpt lat="44.00787" lon="3.50413">
        <ele>961</ele>
        <time>2026-05-28T08:50:39.000Z</time>
      </trkpt>
      <trkpt lat="44.00787" lon="3.50413">
        <ele>960.7</ele>
        <time>2026-05-28T08:50:40.000Z</time>
      </trkpt>
      <trkpt lat="44.00786" lon="3.50413">
        <ele>960.5</ele>
        <time>2026-05-28T08:50:41.000Z</time>
      </trkpt>
      <trkpt lat="44.00785" lon="3.50413">
        <ele>960.3</ele>
        <time>2026-05-28T08:50:42.000Z</time>
      </trkpt>
      <trkpt lat="44.00784" lon="3.50413">
        <ele>960.2</ele>
        <time>2026-05-28T08:50:43.000Z</time>
      </trkpt>
      <trkpt lat="44.00783" lon="3.50412">
        <ele>960</ele>
        <time>2026-05-28T08:50:44.000Z</time>
      </trkpt>
      <trkpt lat="44.00782" lon="3.50412">
        <ele>960.1</ele>
        <time>2026-05-28T08:50:45.000Z</time>
      </trkpt>
      <trkpt lat="44.00782" lon="3.50411">
        <ele>960.1</ele>
        <time>2026-05-28T08:50:46.000Z</time>
      </trkpt>
      <trkpt lat="44.00781" lon="3.50411">
        <ele>960</ele>
        <time>2026-05-28T08:50:47.000Z</time>
      </trkpt>
      <trkpt lat="44.0078" lon="3.50411">
        <ele>960.1</ele>
        <time>2026-05-28T08:50:48.000Z</time>
      </trkpt>
      <trkpt lat="44.0078" lon="3.50412">
        <ele>960.4</ele>
        <time>2026-05-28T08:50:49.000Z</time>
      </trkpt>
      <trkpt lat="44.00779" lon="3.50413">
        <ele>960.3</ele>
        <time>2026-05-28T08:50:50.000Z</time>
      </trkpt>
      <trkpt lat="44.00779" lon="3.50412">
        <ele>960.2</ele>
        <time>2026-05-28T08:50:51.000Z</time>
      </trkpt>
      <trkpt lat="44.00779" lon="3.50412">
        <ele>960.2</ele>
        <time>2026-05-28T08:50:52.000Z</time>
      </trkpt>
      <trkpt lat="44.00778" lon="3.50411">
        <ele>960.2</ele>
        <time>2026-05-28T08:50:53.000Z</time>
      </trkpt>
      <trkpt lat="44.00777" lon="3.5041">
        <ele>960.2</ele>
        <time>2026-05-28T08:50:54.000Z</time>
      </trkpt>
      <trkpt lat="44.00776" lon="3.5041">
        <ele>960</ele>
        <time>2026-05-28T08:50:55.000Z</time>
      </trkpt>
      <trkpt lat="44.00775" lon="3.50408">
        <ele>959.7</ele>
        <time>2026-05-28T08:50:56.000Z</time>
      </trkpt>
      <trkpt lat="44.00774" lon="3.50408">
        <ele>959.6</ele>
        <time>2026-05-28T08:50:57.000Z</time>
      </trkpt>
      <trkpt lat="44.00773" lon="3.50406">
        <ele>959.5</ele>
        <time>2026-05-28T08:50:58.000Z</time>
      </trkpt>
      <trkpt lat="44.00772" lon="3.50405">
        <ele>959.3</ele>
        <time>2026-05-28T08:50:59.000Z</time>
      </trkpt>
      <trkpt lat="44.00771" lon="3.50404">
        <ele>959.3</ele>
        <time>2026-05-28T08:51:00.000Z</time>
      </trkpt>
      <trkpt lat="44.0077" lon="3.50403">
        <ele>959.4</ele>
        <time>2026-05-28T08:51:01.000Z</time>
      </trkpt>
      <trkpt lat="44.00771" lon="3.50403">
        <ele>959</ele>
        <time>2026-05-28T08:51:02.000Z</time>
      </trkpt>
      <trkpt lat="44.00771" lon="3.50402">
        <ele>959</ele>
        <time>2026-05-28T08:51:03.000Z</time>
      </trkpt>
      <trkpt lat="44.00771" lon="3.50401">
        <ele>959.2</ele>
        <time>2026-05-28T08:51:04.000Z</time>
      </trkpt>
      <trkpt lat="44.00769" lon="3.504">
        <ele>959.2</ele>
        <time>2026-05-28T08:51:05.000Z</time>
      </trkpt>
      <trkpt lat="44.00767" lon="3.50398">
        <ele>959.1</ele>
        <time>2026-05-28T08:51:06.000Z</time>
      </trkpt>
      <trkpt lat="44.00765" lon="3.50398">
        <ele>958.9</ele>
        <time>2026-05-28T08:51:07.000Z</time>
      </trkpt>
      <trkpt lat="44.00764" lon="3.50398">
        <ele>958.8</ele>
        <time>2026-05-28T08:51:08.000Z</time>
      </trkpt>
      <trkpt lat="44.00763" lon="3.50397">
        <ele>958.7</ele>
        <time>2026-05-28T08:51:09.000Z</time>
      </trkpt>
      <trkpt lat="44.00762" lon="3.50397">
        <ele>958.7</ele>
        <time>2026-05-28T08:51:10.000Z</time>
      </trkpt>
      <trkpt lat="44.00761" lon="3.50398">
        <ele>959.2</ele>
        <time>2026-05-28T08:51:11.000Z</time>
      </trkpt>
      <trkpt lat="44.0076" lon="3.50399">
        <ele>959.1</ele>
        <time>2026-05-28T08:51:12.000Z</time>
      </trkpt>
      <trkpt lat="44.00759" lon="3.50399">
        <ele>959.2</ele>
        <time>2026-05-28T08:51:13.000Z</time>
      </trkpt>
      <trkpt lat="44.00758" lon="3.50399">
        <ele>959.3</ele>
        <time>2026-05-28T08:51:14.000Z</time>
      </trkpt>
      <trkpt lat="44.00757" lon="3.50398">
        <ele>959.5</ele>
        <time>2026-05-28T08:51:15.000Z</time>
      </trkpt>
      <trkpt lat="44.00756" lon="3.50398">
        <ele>959.5</ele>
        <time>2026-05-28T08:51:16.000Z</time>
      </trkpt>
      <trkpt lat="44.00755" lon="3.50397">
        <ele>959.3</ele>
        <time>2026-05-28T08:51:17.000Z</time>
      </trkpt>
      <trkpt lat="44.00754" lon="3.50396">
        <ele>959.4</ele>
        <time>2026-05-28T08:51:18.000Z</time>
      </trkpt>
      <trkpt lat="44.00753" lon="3.50395">
        <ele>959.7</ele>
        <time>2026-05-28T08:51:19.000Z</time>
      </trkpt>
      <trkpt lat="44.00752" lon="3.50394">
        <ele>959.7</ele>
        <time>2026-05-28T08:51:20.000Z</time>
      </trkpt>
      <trkpt lat="44.00751" lon="3.50393">
        <ele>960.3</ele>
        <time>2026-05-28T08:51:21.000Z</time>
      </trkpt>
      <trkpt lat="44.00751" lon="3.50392">
        <ele>960.9</ele>
        <time>2026-05-28T08:51:22.000Z</time>
      </trkpt>
      <trkpt lat="44.00752" lon="3.50392">
        <ele>961.2</ele>
        <time>2026-05-28T08:51:23.000Z</time>
      </trkpt>
      <trkpt lat="44.00751" lon="3.50391">
        <ele>961.3</ele>
        <time>2026-05-28T08:51:24.000Z</time>
      </trkpt>
      <trkpt lat="44.00752" lon="3.5039">
        <ele>961.4</ele>
        <time>2026-05-28T08:51:25.000Z</time>
      </trkpt>
      <trkpt lat="44.00751" lon="3.50389">
        <ele>961.2</ele>
        <time>2026-05-28T08:51:26.000Z</time>
      </trkpt>
      <trkpt lat="44.0075" lon="3.50387">
        <ele>960.9</ele>
        <time>2026-05-28T08:51:27.000Z</time>
      </trkpt>
      <trkpt lat="44.00749" lon="3.50386">
        <ele>960.8</ele>
        <time>2026-05-28T08:51:28.000Z</time>
      </trkpt>
      <trkpt lat="44.00748" lon="3.50386">
        <ele>960.5</ele>
        <time>2026-05-28T08:51:29.000Z</time>
      </trkpt>
      <trkpt lat="44.00748" lon="3.50384">
        <ele>960.3</ele>
        <time>2026-05-28T08:51:30.000Z</time>
      </trkpt>
      <trkpt lat="44.00747" lon="3.50384">
        <ele>960.1</ele>
        <time>2026-05-28T08:51:31.000Z</time>
      </trkpt>
      <trkpt lat="44.00746" lon="3.50383">
        <ele>960</ele>
        <time>2026-05-28T08:51:32.000Z</time>
      </trkpt>
      <trkpt lat="44.00745" lon="3.50383">
        <ele>959.9</ele>
        <time>2026-05-28T08:51:33.000Z</time>
      </trkpt>
      <trkpt lat="44.00744" lon="3.50383">
        <ele>960</ele>
        <time>2026-05-28T08:51:34.000Z</time>
      </trkpt>
      <trkpt lat="44.00743" lon="3.50383">
        <ele>960.1</ele>
        <time>2026-05-28T08:51:35.000Z</time>
      </trkpt>
      <trkpt lat="44.00742" lon="3.50383">
        <ele>960.2</ele>
        <time>2026-05-28T08:51:36.000Z</time>
      </trkpt>
      <trkpt lat="44.00742" lon="3.50384">
        <ele>960.5</ele>
        <time>2026-05-28T08:51:37.000Z</time>
      </trkpt>
      <trkpt lat="44.00742" lon="3.50384">
        <ele>960.8</ele>
        <time>2026-05-28T08:51:38.000Z</time>
      </trkpt>
      <trkpt lat="44.00741" lon="3.50384">
        <ele>960.9</ele>
        <time>2026-05-28T08:51:39.000Z</time>
      </trkpt>
      <trkpt lat="44.00741" lon="3.50383">
        <ele>961</ele>
        <time>2026-05-28T08:51:40.000Z</time>
      </trkpt>
      <trkpt lat="44.0074" lon="3.50382">
        <ele>961</ele>
        <time>2026-05-28T08:51:41.000Z</time>
      </trkpt>
      <trkpt lat="44.0074" lon="3.50381">
        <ele>961.2</ele>
        <time>2026-05-28T08:51:42.000Z</time>
      </trkpt>
      <trkpt lat="44.00739" lon="3.5038">
        <ele>961.4</ele>
        <time>2026-05-28T08:51:43.000Z</time>
      </trkpt>
      <trkpt lat="44.00738" lon="3.50379">
        <ele>961.2</ele>
        <time>2026-05-28T08:51:44.000Z</time>
      </trkpt>
      <trkpt lat="44.00738" lon="3.50379">
        <ele>961</ele>
        <time>2026-05-28T08:51:45.000Z</time>
      </trkpt>
      <trkpt lat="44.00738" lon="3.50378">
        <ele>961</ele>
        <time>2026-05-28T08:51:46.000Z</time>
      </trkpt>
      <trkpt lat="44.00738" lon="3.50378">
        <ele>961</ele>
        <time>2026-05-28T08:51:47.000Z</time>
      </trkpt>
      <trkpt lat="44.00738" lon="3.50377">
        <ele>960.9</ele>
        <time>2026-05-28T08:51:48.000Z</time>
      </trkpt>
      <trkpt lat="44.00737" lon="3.50376">
        <ele>960.6</ele>
        <time>2026-05-28T08:51:49.000Z</time>
      </trkpt>
      <trkpt lat="44.00737" lon="3.50376">
        <ele>960.1</ele>
        <time>2026-05-28T08:51:50.000Z</time>
      </trkpt>
      <trkpt lat="44.00736" lon="3.50376">
        <ele>959.5</ele>
        <time>2026-05-28T08:51:51.000Z</time>
      </trkpt>
      <trkpt lat="44.00735" lon="3.50376">
        <ele>959.2</ele>
        <time>2026-05-28T08:51:52.000Z</time>
      </trkpt>
      <trkpt lat="44.00734" lon="3.50375">
        <ele>959.1</ele>
        <time>2026-05-28T08:51:53.000Z</time>
      </trkpt>
      <trkpt lat="44.00733" lon="3.50375">
        <ele>959.2</ele>
        <time>2026-05-28T08:51:54.000Z</time>
      </trkpt>
      <trkpt lat="44.00732" lon="3.50375">
        <ele>959.2</ele>
        <time>2026-05-28T08:51:55.000Z</time>
      </trkpt>
      <trkpt lat="44.00731" lon="3.50374">
        <ele>959</ele>
        <time>2026-05-28T08:51:56.000Z</time>
      </trkpt>
      <trkpt lat="44.00731" lon="3.50373">
        <ele>959</ele>
        <time>2026-05-28T08:51:57.000Z</time>
      </trkpt>
      <trkpt lat="44.0073" lon="3.50372">
        <ele>959</ele>
        <time>2026-05-28T08:51:58.000Z</time>
      </trkpt>
      <trkpt lat="44.0073" lon="3.50372">
        <ele>959.2</ele>
        <time>2026-05-28T08:51:59.000Z</time>
      </trkpt>
      <trkpt lat="44.00728" lon="3.50372">
        <ele>959.7</ele>
        <time>2026-05-28T08:52:00.000Z</time>
      </trkpt>
      <trkpt lat="44.00728" lon="3.50373">
        <ele>959.9</ele>
        <time>2026-05-28T08:52:01.000Z</time>
      </trkpt>
      <trkpt lat="44.00727" lon="3.50374">
        <ele>959.9</ele>
        <time>2026-05-28T08:52:02.000Z</time>
      </trkpt>
      <trkpt lat="44.00727" lon="3.50374">
        <ele>960.4</ele>
        <time>2026-05-28T08:52:03.000Z</time>
      </trkpt>
      <trkpt lat="44.00727" lon="3.50374">
        <ele>960.2</ele>
        <time>2026-05-28T08:52:04.000Z</time>
      </trkpt>
      <trkpt lat="44.00726" lon="3.50374">
        <ele>960.7</ele>
        <time>2026-05-28T08:52:05.000Z</time>
      </trkpt>
      <trkpt lat="44.00726" lon="3.50374">
        <ele>960.9</ele>
        <time>2026-05-28T08:52:06.000Z</time>
      </trkpt>
      <trkpt lat="44.00726" lon="3.50374">
        <ele>961.2</ele>
        <time>2026-05-28T08:52:07.000Z</time>
      </trkpt>
      <trkpt lat="44.00726" lon="3.50374">
        <ele>961.4</ele>
        <time>2026-05-28T08:52:08.000Z</time>
      </trkpt>
      <trkpt lat="44.00726" lon="3.50374">
        <ele>961.6</ele>
        <time>2026-05-28T08:52:09.000Z</time>
      </trkpt>
      <trkpt lat="44.00725" lon="3.50374">
        <ele>961.7</ele>
        <time>2026-05-28T08:52:10.000Z</time>
      </trkpt>
      <trkpt lat="44.00725" lon="3.50375">
        <ele>961.9</ele>
        <time>2026-05-28T08:52:11.000Z</time>
      </trkpt>
      <trkpt lat="44.00724" lon="3.50375">
        <ele>962</ele>
        <time>2026-05-28T08:52:12.000Z</time>
      </trkpt>
      <trkpt lat="44.00724" lon="3.50375">
        <ele>962.3</ele>
        <time>2026-05-28T08:52:13.000Z</time>
      </trkpt>
      <trkpt lat="44.00723" lon="3.50375">
        <ele>962.4</ele>
        <time>2026-05-28T08:52:14.000Z</time>
      </trkpt>
      <trkpt lat="44.00723" lon="3.50376">
        <ele>962.6</ele>
        <time>2026-05-28T08:52:15.000Z</time>
      </trkpt>
      <trkpt lat="44.00722" lon="3.50377">
        <ele>963</ele>
        <time>2026-05-28T08:52:16.000Z</time>
      </trkpt>
      <trkpt lat="44.00722" lon="3.50377">
        <ele>963.2</ele>
        <time>2026-05-28T08:52:17.000Z</time>
      </trkpt>
      <trkpt lat="44.00721" lon="3.50378">
        <ele>963.3</ele>
        <time>2026-05-28T08:52:18.000Z</time>
      </trkpt>
      <trkpt lat="44.00721" lon="3.50378">
        <ele>963.5</ele>
        <time>2026-05-28T08:52:19.000Z</time>
      </trkpt>
      <trkpt lat="44.0072" lon="3.50378">
        <ele>963.6</ele>
        <time>2026-05-28T08:52:20.000Z</time>
      </trkpt>
      <trkpt lat="44.00719" lon="3.50379">
        <ele>964</ele>
        <time>2026-05-28T08:52:21.000Z</time>
      </trkpt>
      <trkpt lat="44.00719" lon="3.5038">
        <ele>964.4</ele>
        <time>2026-05-28T08:52:22.000Z</time>
      </trkpt>
      <trkpt lat="44.00718" lon="3.5038">
        <ele>964.8</ele>
        <time>2026-05-28T08:52:23.000Z</time>
      </trkpt>
      <trkpt lat="44.00717" lon="3.50379">
        <ele>965.1</ele>
        <time>2026-05-28T08:52:24.000Z</time>
      </trkpt>
      <trkpt lat="44.00717" lon="3.5038">
        <ele>965.5</ele>
        <time>2026-05-28T08:52:25.000Z</time>
      </trkpt>
      <trkpt lat="44.00716" lon="3.5038">
        <ele>966.2</ele>
        <time>2026-05-28T08:52:26.000Z</time>
      </trkpt>
      <trkpt lat="44.00715" lon="3.50381">
        <ele>966.9</ele>
        <time>2026-05-28T08:52:27.000Z</time>
      </trkpt>
      <trkpt lat="44.00714" lon="3.50381">
        <ele>967.3</ele>
        <time>2026-05-28T08:52:28.000Z</time>
      </trkpt>
      <trkpt lat="44.00713" lon="3.50381">
        <ele>967.5</ele>
        <time>2026-05-28T08:52:29.000Z</time>
      </trkpt>
      <trkpt lat="44.00712" lon="3.50382">
        <ele>968.3</ele>
        <time>2026-05-28T08:52:30.000Z</time>
      </trkpt>
      <trkpt lat="44.00712" lon="3.50382">
        <ele>968.6</ele>
        <time>2026-05-28T08:52:31.000Z</time>
      </trkpt>
      <trkpt lat="44.00711" lon="3.50383">
        <ele>969</ele>
        <time>2026-05-28T08:52:32.000Z</time>
      </trkpt>
      <trkpt lat="44.00711" lon="3.50384">
        <ele>969</ele>
        <time>2026-05-28T08:52:33.000Z</time>
      </trkpt>
      <trkpt lat="44.0071" lon="3.50385">
        <ele>969.5</ele>
        <time>2026-05-28T08:52:34.000Z</time>
      </trkpt>
      <trkpt lat="44.0071" lon="3.50386">
        <ele>969.5</ele>
        <time>2026-05-28T08:52:35.000Z</time>
      </trkpt>
      <trkpt lat="44.0071" lon="3.50387">
        <ele>969.4</ele>
        <time>2026-05-28T08:52:36.000Z</time>
      </trkpt>
      <trkpt lat="44.00709" lon="3.50387">
        <ele>969.7</ele>
        <time>2026-05-28T08:52:37.000Z</time>
      </trkpt>
      <trkpt lat="44.00708" lon="3.50388">
        <ele>969.7</ele>
        <time>2026-05-28T08:52:38.000Z</time>
      </trkpt>
      <trkpt lat="44.00708" lon="3.50388">
        <ele>970</ele>
        <time>2026-05-28T08:52:39.000Z</time>
      </trkpt>
      <trkpt lat="44.00707" lon="3.50389">
        <ele>970.2</ele>
        <time>2026-05-28T08:52:40.000Z</time>
      </trkpt>
      <trkpt lat="44.00706" lon="3.50389">
        <ele>970.7</ele>
        <time>2026-05-28T08:52:41.000Z</time>
      </trkpt>
      <trkpt lat="44.00705" lon="3.5039">
        <ele>971.1</ele>
        <time>2026-05-28T08:52:42.000Z</time>
      </trkpt>
      <trkpt lat="44.00704" lon="3.50391">
        <ele>971.6</ele>
        <time>2026-05-28T08:52:43.000Z</time>
      </trkpt>
      <trkpt lat="44.00704" lon="3.50391">
        <ele>972.1</ele>
        <time>2026-05-28T08:52:44.000Z</time>
      </trkpt>
      <trkpt lat="44.00704" lon="3.50392">
        <ele>972.3</ele>
        <time>2026-05-28T08:52:45.000Z</time>
      </trkpt>
      <trkpt lat="44.00704" lon="3.50392">
        <ele>972.1</ele>
        <time>2026-05-28T08:52:46.000Z</time>
      </trkpt>
      <trkpt lat="44.00704" lon="3.50393">
        <ele>971.9</ele>
        <time>2026-05-28T08:52:47.000Z</time>
      </trkpt>
      <trkpt lat="44.00703" lon="3.50393">
        <ele>972.1</ele>
        <time>2026-05-28T08:52:48.000Z</time>
      </trkpt>
      <trkpt lat="44.00702" lon="3.50395">
        <ele>971.7</ele>
        <time>2026-05-28T08:52:49.000Z</time>
      </trkpt>
      <trkpt lat="44.00702" lon="3.50395">
        <ele>972</ele>
        <time>2026-05-28T08:52:50.000Z</time>
      </trkpt>
      <trkpt lat="44.00702" lon="3.50396">
        <ele>971.8</ele>
        <time>2026-05-28T08:52:51.000Z</time>
      </trkpt>
      <trkpt lat="44.00701" lon="3.50397">
        <ele>971.3</ele>
        <time>2026-05-28T08:52:52.000Z</time>
      </trkpt>
      <trkpt lat="44.007" lon="3.50398">
        <ele>970.7</ele>
        <time>2026-05-28T08:52:53.000Z</time>
      </trkpt>
      <trkpt lat="44.00699" lon="3.50398">
        <ele>970.2</ele>
        <time>2026-05-28T08:52:54.000Z</time>
      </trkpt>
      <trkpt lat="44.00699" lon="3.50398">
        <ele>969.9</ele>
        <time>2026-05-28T08:52:55.000Z</time>
      </trkpt>
      <trkpt lat="44.00698" lon="3.50397">
        <ele>969.3</ele>
        <time>2026-05-28T08:52:56.000Z</time>
      </trkpt>
      <trkpt lat="44.00698" lon="3.50398">
        <ele>969.2</ele>
        <time>2026-05-28T08:52:57.000Z</time>
      </trkpt>
      <trkpt lat="44.00698" lon="3.50398">
        <ele>969.1</ele>
        <time>2026-05-28T08:52:58.000Z</time>
      </trkpt>
      <trkpt lat="44.00697" lon="3.50399">
        <ele>969.1</ele>
        <time>2026-05-28T08:52:59.000Z</time>
      </trkpt>
      <trkpt lat="44.00697" lon="3.50399">
        <ele>969.4</ele>
        <time>2026-05-28T08:53:00.000Z</time>
      </trkpt>
      <trkpt lat="44.00696" lon="3.50399">
        <ele>969.7</ele>
        <time>2026-05-28T08:53:01.000Z</time>
      </trkpt>
      <trkpt lat="44.00695" lon="3.50399">
        <ele>970.6</ele>
        <time>2026-05-28T08:53:02.000Z</time>
      </trkpt>
      <trkpt lat="44.00694" lon="3.50399">
        <ele>970.8</ele>
        <time>2026-05-28T08:53:03.000Z</time>
      </trkpt>
      <trkpt lat="44.00694" lon="3.50399">
        <ele>970.8</ele>
        <time>2026-05-28T08:53:04.000Z</time>
      </trkpt>
      <trkpt lat="44.00694" lon="3.504">
        <ele>971</ele>
        <time>2026-05-28T08:53:05.000Z</time>
      </trkpt>
      <trkpt lat="44.00693" lon="3.504">
        <ele>971.2</ele>
        <time>2026-05-28T08:53:06.000Z</time>
      </trkpt>
      <trkpt lat="44.00693" lon="3.50401">
        <ele>971.8</ele>
        <time>2026-05-28T08:53:07.000Z</time>
      </trkpt>
      <trkpt lat="44.00694" lon="3.50402">
        <ele>972.1</ele>
        <time>2026-05-28T08:53:08.000Z</time>
      </trkpt>
      <trkpt lat="44.00694" lon="3.50404">
        <ele>972</ele>
        <time>2026-05-28T08:53:09.000Z</time>
      </trkpt>
      <trkpt lat="44.00694" lon="3.50405">
        <ele>972.2</ele>
        <time>2026-05-28T08:53:10.000Z</time>
      </trkpt>
      <trkpt lat="44.00694" lon="3.50406">
        <ele>972.7</ele>
        <time>2026-05-28T08:53:11.000Z</time>
      </trkpt>
      <trkpt lat="44.00694" lon="3.50406">
        <ele>973.2</ele>
        <time>2026-05-28T08:53:12.000Z</time>
      </trkpt>
      <trkpt lat="44.00694" lon="3.50407">
        <ele>973.4</ele>
        <time>2026-05-28T08:53:13.000Z</time>
      </trkpt>
      <trkpt lat="44.00694" lon="3.50407">
        <ele>973.7</ele>
        <time>2026-05-28T08:53:14.000Z</time>
      </trkpt>
      <trkpt lat="44.00695" lon="3.50409">
        <ele>973.7</ele>
        <time>2026-05-28T08:53:15.000Z</time>
      </trkpt>
      <trkpt lat="44.00695" lon="3.50409">
        <ele>974</ele>
        <time>2026-05-28T08:53:16.000Z</time>
      </trkpt>
      <trkpt lat="44.00695" lon="3.5041">
        <ele>974.3</ele>
        <time>2026-05-28T08:53:17.000Z</time>
      </trkpt>
      <trkpt lat="44.00696" lon="3.5041">
        <ele>974.9</ele>
        <time>2026-05-28T08:53:18.000Z</time>
      </trkpt>
      <trkpt lat="44.00696" lon="3.50411">
        <ele>975.6</ele>
        <time>2026-05-28T08:53:19.000Z</time>
      </trkpt>
      <trkpt lat="44.00697" lon="3.50411">
        <ele>976</ele>
        <time>2026-05-28T08:53:20.000Z</time>
      </trkpt>
      <trkpt lat="44.00697" lon="3.50412">
        <ele>976.3</ele>
        <time>2026-05-28T08:53:21.000Z</time>
      </trkpt>
      <trkpt lat="44.00698" lon="3.50413">
        <ele>976.5</ele>
        <time>2026-05-28T08:53:22.000Z</time>
      </trkpt>
      <trkpt lat="44.00698" lon="3.50414">
        <ele>976.5</ele>
        <time>2026-05-28T08:53:23.000Z</time>
      </trkpt>
      <trkpt lat="44.00699" lon="3.50414">
        <ele>976.6</ele>
        <time>2026-05-28T08:53:24.000Z</time>
      </trkpt>
      <trkpt lat="44.00699" lon="3.50415">
        <ele>976.2</ele>
        <time>2026-05-28T08:53:25.000Z</time>
      </trkpt>
      <trkpt lat="44.00699" lon="3.50415">
        <ele>976</ele>
        <time>2026-05-28T08:53:26.000Z</time>
      </trkpt>
      <trkpt lat="44.00699" lon="3.50416">
        <ele>975.9</ele>
        <time>2026-05-28T08:53:27.000Z</time>
      </trkpt>
      <trkpt lat="44.00699" lon="3.50416">
        <ele>975.8</ele>
        <time>2026-05-28T08:53:28.000Z</time>
      </trkpt>
      <trkpt lat="44.00699" lon="3.50416">
        <ele>975.8</ele>
        <time>2026-05-28T08:53:29.000Z</time>
      </trkpt>
      <trkpt lat="44.00699" lon="3.50417">
        <ele>975.7</ele>
        <time>2026-05-28T08:53:30.000Z</time>
      </trkpt>
      <trkpt lat="44.00699" lon="3.50418">
        <ele>975.7</ele>
        <time>2026-05-28T08:53:31.000Z</time>
      </trkpt>
      <trkpt lat="44.00699" lon="3.5042">
        <ele>975.7</ele>
        <time>2026-05-28T08:53:32.000Z</time>
      </trkpt>
      <trkpt lat="44.00699" lon="3.50421">
        <ele>976</ele>
        <time>2026-05-28T08:53:33.000Z</time>
      </trkpt>
      <trkpt lat="44.00699" lon="3.50423">
        <ele>976.4</ele>
        <time>2026-05-28T08:53:34.000Z</time>
      </trkpt>
      <trkpt lat="44.007" lon="3.50424">
        <ele>976.7</ele>
        <time>2026-05-28T08:53:35.000Z</time>
      </trkpt>
      <trkpt lat="44.007" lon="3.50424">
        <ele>977.2</ele>
        <time>2026-05-28T08:53:36.000Z</time>
      </trkpt>
      <trkpt lat="44.007" lon="3.50424">
        <ele>977.5</ele>
        <time>2026-05-28T08:53:37.000Z</time>
      </trkpt>
      <trkpt lat="44.007" lon="3.50424">
        <ele>977.7</ele>
        <time>2026-05-28T08:53:38.000Z</time>
      </trkpt>
      <trkpt lat="44.007" lon="3.50424">
        <ele>977.9</ele>
        <time>2026-05-28T08:53:39.000Z</time>
      </trkpt>
      <trkpt lat="44.007" lon="3.50424">
        <ele>978.2</ele>
        <time>2026-05-28T08:53:40.000Z</time>
      </trkpt>
      <trkpt lat="44.007" lon="3.50426">
        <ele>978.5</ele>
        <time>2026-05-28T08:53:41.000Z</time>
      </trkpt>
      <trkpt lat="44.007" lon="3.50426">
        <ele>978.9</ele>
        <time>2026-05-28T08:53:42.000Z</time>
      </trkpt>
      <trkpt lat="44.00701" lon="3.50426">
        <ele>979.2</ele>
        <time>2026-05-28T08:53:43.000Z</time>
      </trkpt>
      <trkpt lat="44.00701" lon="3.50426">
        <ele>979.5</ele>
        <time>2026-05-28T08:53:44.000Z</time>
      </trkpt>
      <trkpt lat="44.00701" lon="3.50426">
        <ele>979.8</ele>
        <time>2026-05-28T08:53:45.000Z</time>
      </trkpt>
      <trkpt lat="44.00701" lon="3.50427">
        <ele>980</ele>
        <time>2026-05-28T08:53:46.000Z</time>
      </trkpt>
      <trkpt lat="44.00702" lon="3.50427">
        <ele>980.3</ele>
        <time>2026-05-28T08:53:47.000Z</time>
      </trkpt>
      <trkpt lat="44.00702" lon="3.50427">
        <ele>980.6</ele>
        <time>2026-05-28T08:53:48.000Z</time>
      </trkpt>
      <trkpt lat="44.00703" lon="3.50429">
        <ele>980.9</ele>
        <time>2026-05-28T08:53:49.000Z</time>
      </trkpt>
      <trkpt lat="44.00703" lon="3.50429">
        <ele>981.1</ele>
        <time>2026-05-28T08:53:50.000Z</time>
      </trkpt>
      <trkpt lat="44.00704" lon="3.5043">
        <ele>981.1</ele>
        <time>2026-05-28T08:53:51.000Z</time>
      </trkpt>
      <trkpt lat="44.00704" lon="3.5043">
        <ele>981.3</ele>
        <time>2026-05-28T08:53:52.000Z</time>
      </trkpt>
      <trkpt lat="44.00704" lon="3.50431">
        <ele>981.4</ele>
        <time>2026-05-28T08:53:53.000Z</time>
      </trkpt>
      <trkpt lat="44.00704" lon="3.50431">
        <ele>981.5</ele>
        <time>2026-05-28T08:53:54.000Z</time>
      </trkpt>
      <trkpt lat="44.00704" lon="3.50431">
        <ele>981.8</ele>
        <time>2026-05-28T08:53:55.000Z</time>
      </trkpt>
      <trkpt lat="44.00704" lon="3.50431">
        <ele>981.8</ele>
        <time>2026-05-28T08:53:56.000Z</time>
      </trkpt>
      <trkpt lat="44.00705" lon="3.50431">
        <ele>982.1</ele>
        <time>2026-05-28T08:53:57.000Z</time>
      </trkpt>
      <trkpt lat="44.00705" lon="3.50431">
        <ele>982.1</ele>
        <time>2026-05-28T08:53:58.000Z</time>
      </trkpt>
      <trkpt lat="44.00705" lon="3.50431">
        <ele>982.3</ele>
        <time>2026-05-28T08:53:59.000Z</time>
      </trkpt>
      <trkpt lat="44.00705" lon="3.50431">
        <ele>982.3</ele>
        <time>2026-05-28T08:54:00.000Z</time>
      </trkpt>
      <trkpt lat="44.00705" lon="3.50432">
        <ele>982.5</ele>
        <time>2026-05-28T08:54:01.000Z</time>
      </trkpt>
      <trkpt lat="44.00706" lon="3.50432">
        <ele>982.4</ele>
        <time>2026-05-28T08:54:02.000Z</time>
      </trkpt>
      <trkpt lat="44.00706" lon="3.50432">
        <ele>982.3</ele>
        <time>2026-05-28T08:54:03.000Z</time>
      </trkpt>
      <trkpt lat="44.00706" lon="3.50432">
        <ele>982.3</ele>
        <time>2026-05-28T08:54:04.000Z</time>
      </trkpt>
      <trkpt lat="44.00706" lon="3.50432">
        <ele>982.4</ele>
        <time>2026-05-28T08:54:05.000Z</time>
      </trkpt>
      <trkpt lat="44.00706" lon="3.50432">
        <ele>982.4</ele>
        <time>2026-05-28T08:54:06.000Z</time>
      </trkpt>
      <trkpt lat="44.00707" lon="3.50433">
        <ele>982.6</ele>
        <time>2026-05-28T08:54:07.000Z</time>
      </trkpt>
      <trkpt lat="44.00707" lon="3.50433">
        <ele>982.8</ele>
        <time>2026-05-28T08:54:08.000Z</time>
      </trkpt>
      <trkpt lat="44.00707" lon="3.50433">
        <ele>982.5</ele>
        <time>2026-05-28T08:54:09.000Z</time>
      </trkpt>
      <trkpt lat="44.00707" lon="3.50433">
        <ele>982.2</ele>
        <time>2026-05-28T08:54:10.000Z</time>
      </trkpt>
      <trkpt lat="44.00707" lon="3.50433">
        <ele>982.1</ele>
        <time>2026-05-28T08:54:11.000Z</time>
      </trkpt>
      <trkpt lat="44.00707" lon="3.50433">
        <ele>982.1</ele>
        <time>2026-05-28T08:54:12.000Z</time>
      </trkpt>
      <trkpt lat="44.00707" lon="3.50434">
        <ele>982.1</ele>
        <time>2026-05-28T08:54:13.000Z</time>
      </trkpt>
      <trkpt lat="44.00707" lon="3.50434">
        <ele>982</ele>
        <time>2026-05-28T08:54:14.000Z</time>
      </trkpt>
      <trkpt lat="44.00707" lon="3.50434">
        <ele>982.4</ele>
        <time>2026-05-28T08:54:15.000Z</time>
      </trkpt>
      <trkpt lat="44.00708" lon="3.50435">
        <ele>982.5</ele>
        <time>2026-05-28T08:54:16.000Z</time>
      </trkpt>
      <trkpt lat="44.00708" lon="3.50435">
        <ele>982.5</ele>
        <time>2026-05-28T08:54:17.000Z</time>
      </trkpt>
      <trkpt lat="44.00708" lon="3.50435">
        <ele>982.5</ele>
        <time>2026-05-28T08:54:18.000Z</time>
      </trkpt>
      <trkpt lat="44.00708" lon="3.50436">
        <ele>982.6</ele>
        <time>2026-05-28T08:54:19.000Z</time>
      </trkpt>
      <trkpt lat="44.00709" lon="3.50436">
        <ele>983</ele>
        <time>2026-05-28T08:54:20.000Z</time>
      </trkpt>
      <trkpt lat="44.00709" lon="3.50436">
        <ele>983.2</ele>
        <time>2026-05-28T08:54:21.000Z</time>
      </trkpt>
      <trkpt lat="44.00709" lon="3.50436">
        <ele>983.4</ele>
        <time>2026-05-28T08:54:22.000Z</time>
      </trkpt>
      <trkpt lat="44.00709" lon="3.50437">
        <ele>983.7</ele>
        <time>2026-05-28T08:54:23.000Z</time>
      </trkpt>
      <trkpt lat="44.0071" lon="3.50437">
        <ele>983.9</ele>
        <time>2026-05-28T08:54:24.000Z</time>
      </trkpt>
      <trkpt lat="44.0071" lon="3.50438">
        <ele>984.3</ele>
        <time>2026-05-28T08:54:25.000Z</time>
      </trkpt>
      <trkpt lat="44.0071" lon="3.50438">
        <ele>984.4</ele>
        <time>2026-05-28T08:54:26.000Z</time>
      </trkpt>
      <trkpt lat="44.0071" lon="3.50438">
        <ele>984.5</ele>
        <time>2026-05-28T08:54:27.000Z</time>
      </trkpt>
      <trkpt lat="44.0071" lon="3.50439">
        <ele>984.4</ele>
        <time>2026-05-28T08:54:28.000Z</time>
      </trkpt>
      <trkpt lat="44.0071" lon="3.50439">
        <ele>984.2</ele>
        <time>2026-05-28T08:54:29.000Z</time>
      </trkpt>
      <trkpt lat="44.0071" lon="3.5044">
        <ele>984.2</ele>
        <time>2026-05-28T08:54:30.000Z</time>
      </trkpt>
      <trkpt lat="44.0071" lon="3.5044">
        <ele>984.2</ele>
        <time>2026-05-28T08:54:31.000Z</time>
      </trkpt>
      <trkpt lat="44.0071" lon="3.5044">
        <ele>984.1</ele>
        <time>2026-05-28T08:54:32.000Z</time>
      </trkpt>
      <trkpt lat="44.0071" lon="3.50441">
        <ele>984.1</ele>
        <time>2026-05-28T08:54:33.000Z</time>
      </trkpt>
      <trkpt lat="44.0071" lon="3.50441">
        <ele>984.2</ele>
        <time>2026-05-28T08:54:34.000Z</time>
      </trkpt>
      <trkpt lat="44.0071" lon="3.50441">
        <ele>984.3</ele>
        <time>2026-05-28T08:54:35.000Z</time>
      </trkpt>
      <trkpt lat="44.00711" lon="3.50442">
        <ele>984.4</ele>
        <time>2026-05-28T08:54:36.000Z</time>
      </trkpt>
      <trkpt lat="44.0071" lon="3.50442">
        <ele>984.2</ele>
        <time>2026-05-28T08:54:37.000Z</time>
      </trkpt>
      <trkpt lat="44.0071" lon="3.50443">
        <ele>984.1</ele>
        <time>2026-05-28T08:54:38.000Z</time>
      </trkpt>
      <trkpt lat="44.0071" lon="3.50443">
        <ele>984</ele>
        <time>2026-05-28T08:54:39.000Z</time>
      </trkpt>
      <trkpt lat="44.0071" lon="3.50444">
        <ele>983.9</ele>
        <time>2026-05-28T08:54:40.000Z</time>
      </trkpt>
      <trkpt lat="44.0071" lon="3.50444">
        <ele>984.2</ele>
        <time>2026-05-28T08:54:41.000Z</time>
      </trkpt>
      <trkpt lat="44.0071" lon="3.50444">
        <ele>984.2</ele>
        <time>2026-05-28T08:54:42.000Z</time>
      </trkpt>
      <trkpt lat="44.0071" lon="3.50444">
        <ele>984.2</ele>
        <time>2026-05-28T08:54:43.000Z</time>
      </trkpt>
      <trkpt lat="44.0071" lon="3.50444">
        <ele>984.1</ele>
        <time>2026-05-28T08:54:44.000Z</time>
      </trkpt>
      <trkpt lat="44.0071" lon="3.50445">
        <ele>984.1</ele>
        <time>2026-05-28T08:54:45.000Z</time>
      </trkpt>
      <trkpt lat="44.0071" lon="3.50445">
        <ele>984.1</ele>
        <time>2026-05-28T08:54:46.000Z</time>
      </trkpt>
      <trkpt lat="44.0071" lon="3.50445">
        <ele>984.2</ele>
        <time>2026-05-28T08:54:47.000Z</time>
      </trkpt>
      <trkpt lat="44.0071" lon="3.50445">
        <ele>984.2</ele>
        <time>2026-05-28T08:54:48.000Z</time>
      </trkpt>
      <trkpt lat="44.0071" lon="3.50446">
        <ele>984.2</ele>
        <time>2026-05-28T08:54:49.000Z</time>
      </trkpt>
      <trkpt lat="44.0071" lon="3.50446">
        <ele>984.2</ele>
        <time>2026-05-28T08:54:50.000Z</time>
      </trkpt>
      <trkpt lat="44.0071" lon="3.50446">
        <ele>984.3</ele>
        <time>2026-05-28T08:54:51.000Z</time>
      </trkpt>
      <trkpt lat="44.0071" lon="3.50447">
        <ele>984.8</ele>
        <time>2026-05-28T08:54:52.000Z</time>
      </trkpt>
      <trkpt lat="44.0071" lon="3.50447">
        <ele>985.1</ele>
        <time>2026-05-28T08:54:53.000Z</time>
      </trkpt>
      <trkpt lat="44.0071" lon="3.50447">
        <ele>985.2</ele>
        <time>2026-05-28T08:54:54.000Z</time>
      </trkpt>
      <trkpt lat="44.0071" lon="3.50447">
        <ele>984.8</ele>
        <time>2026-05-28T08:54:55.000Z</time>
      </trkpt>
      <trkpt lat="44.0071" lon="3.50448">
        <ele>984.6</ele>
        <time>2026-05-28T08:54:56.000Z</time>
      </trkpt>
      <trkpt lat="44.0071" lon="3.50448">
        <ele>984.3</ele>
        <time>2026-05-28T08:54:57.000Z</time>
      </trkpt>
      <trkpt lat="44.0071" lon="3.50448">
        <ele>984.2</ele>
        <time>2026-05-28T08:54:58.000Z</time>
      </trkpt>
      <trkpt lat="44.0071" lon="3.50449">
        <ele>984.1</ele>
        <time>2026-05-28T08:54:59.000Z</time>
      </trkpt>
      <trkpt lat="44.0071" lon="3.50449">
        <ele>983.9</ele>
        <time>2026-05-28T08:55:00.000Z</time>
      </trkpt>
      <trkpt lat="44.0071" lon="3.5045">
        <ele>983.8</ele>
        <time>2026-05-28T08:55:01.000Z</time>
      </trkpt>
      <trkpt lat="44.0071" lon="3.5045">
        <ele>983.5</ele>
        <time>2026-05-28T08:55:02.000Z</time>
      </trkpt>
      <trkpt lat="44.0071" lon="3.50451">
        <ele>983.4</ele>
        <time>2026-05-28T08:55:03.000Z</time>
      </trkpt>
      <trkpt lat="44.0071" lon="3.50452">
        <ele>983.3</ele>
        <time>2026-05-28T08:55:04.000Z</time>
      </trkpt>
      <trkpt lat="44.0071" lon="3.50452">
        <ele>983.3</ele>
        <time>2026-05-28T08:55:05.000Z</time>
      </trkpt>
      <trkpt lat="44.0071" lon="3.50453">
        <ele>983.2</ele>
        <time>2026-05-28T08:55:06.000Z</time>
      </trkpt>
      <trkpt lat="44.0071" lon="3.50453">
        <ele>983.3</ele>
        <time>2026-05-28T08:55:07.000Z</time>
      </trkpt>
      <trkpt lat="44.0071" lon="3.50454">
        <ele>983.3</ele>
        <time>2026-05-28T08:55:08.000Z</time>
      </trkpt>
      <trkpt lat="44.0071" lon="3.50454">
        <ele>983.4</ele>
        <time>2026-05-28T08:55:09.000Z</time>
      </trkpt>
      <trkpt lat="44.0071" lon="3.50454">
        <ele>983.4</ele>
        <time>2026-05-28T08:55:10.000Z</time>
      </trkpt>
      <trkpt lat="44.0071" lon="3.50454">
        <ele>983.4</ele>
        <time>2026-05-28T08:55:11.000Z</time>
      </trkpt>
      <trkpt lat="44.0071" lon="3.50454">
        <ele>983.4</ele>
        <time>2026-05-28T08:55:12.000Z</time>
      </trkpt>
      <trkpt lat="44.0071" lon="3.50455">
        <ele>983.4</ele>
        <time>2026-05-28T08:55:13.000Z</time>
      </trkpt>
      <trkpt lat="44.0071" lon="3.50455">
        <ele>983.2</ele>
        <time>2026-05-28T08:55:14.000Z</time>
      </trkpt>
      <trkpt lat="44.0071" lon="3.50455">
        <ele>983.1</ele>
        <time>2026-05-28T08:55:15.000Z</time>
      </trkpt>
      <trkpt lat="44.0071" lon="3.50455">
        <ele>983.1</ele>
        <time>2026-05-28T08:55:16.000Z</time>
      </trkpt>
      <trkpt lat="44.0071" lon="3.50455">
        <ele>983.1</ele>
        <time>2026-05-28T08:55:17.000Z</time>
      </trkpt>
      <trkpt lat="44.0071" lon="3.50456">
        <ele>983.2</ele>
        <time>2026-05-28T08:55:18.000Z</time>
      </trkpt>
      <trkpt lat="44.0071" lon="3.50457">
        <ele>983.2</ele>
        <time>2026-05-28T08:55:19.000Z</time>
      </trkpt>
      <trkpt lat="44.00709" lon="3.50457">
        <ele>983.4</ele>
        <time>2026-05-28T08:55:20.000Z</time>
      </trkpt>
      <trkpt lat="44.00709" lon="3.50457">
        <ele>983.4</ele>
        <time>2026-05-28T08:55:21.000Z</time>
      </trkpt>
      <trkpt lat="44.00709" lon="3.50457">
        <ele>983.3</ele>
        <time>2026-05-28T08:55:22.000Z</time>
      </trkpt>
      <trkpt lat="44.00709" lon="3.50457">
        <ele>983.5</ele>
        <time>2026-05-28T08:55:23.000Z</time>
      </trkpt>
      <trkpt lat="44.00709" lon="3.50457">
        <ele>983.6</ele>
        <time>2026-05-28T08:55:24.000Z</time>
      </trkpt>
      <trkpt lat="44.00709" lon="3.50457">
        <ele>983.9</ele>
        <time>2026-05-28T08:55:25.000Z</time>
      </trkpt>
      <trkpt lat="44.00709" lon="3.50458">
        <ele>984.4</ele>
        <time>2026-05-28T08:55:26.000Z</time>
      </trkpt>
      <trkpt lat="44.00709" lon="3.50458">
        <ele>984.4</ele>
        <time>2026-05-28T08:55:27.000Z</time>
      </trkpt>
      <trkpt lat="44.00709" lon="3.50458">
        <ele>985</ele>
        <time>2026-05-28T08:55:28.000Z</time>
      </trkpt>
      <trkpt lat="44.00708" lon="3.50458">
        <ele>985.6</ele>
        <time>2026-05-28T08:55:29.000Z</time>
      </trkpt>
      <trkpt lat="44.00708" lon="3.50458">
        <ele>985.9</ele>
        <time>2026-05-28T08:55:30.000Z</time>
      </trkpt>
      <trkpt lat="44.00708" lon="3.50459">
        <ele>986</ele>
        <time>2026-05-28T08:55:31.000Z</time>
      </trkpt>
      <trkpt lat="44.00709" lon="3.50459">
        <ele>986.2</ele>
        <time>2026-05-28T08:55:32.000Z</time>
      </trkpt>
      <trkpt lat="44.00708" lon="3.50459">
        <ele>987</ele>
        <time>2026-05-28T08:55:33.000Z</time>
      </trkpt>
      <trkpt lat="44.00708" lon="3.50459">
        <ele>987.1</ele>
        <time>2026-05-28T08:55:34.000Z</time>
      </trkpt>
      <trkpt lat="44.00708" lon="3.50459">
        <ele>987.3</ele>
        <time>2026-05-28T08:55:35.000Z</time>
      </trkpt>
      <trkpt lat="44.00708" lon="3.50459">
        <ele>987.4</ele>
        <time>2026-05-28T08:55:36.000Z</time>
      </trkpt>
      <trkpt lat="44.00708" lon="3.50459">
        <ele>987.3</ele>
        <time>2026-05-28T08:55:37.000Z</time>
      </trkpt>
      <trkpt lat="44.00708" lon="3.50459">
        <ele>987.3</ele>
        <time>2026-05-28T08:55:38.000Z</time>
      </trkpt>
      <trkpt lat="44.00708" lon="3.50459">
        <ele>987.4</ele>
        <time>2026-05-28T08:55:39.000Z</time>
      </trkpt>
      <trkpt lat="44.00708" lon="3.5046">
        <ele>987.8</ele>
        <time>2026-05-28T08:55:40.000Z</time>
      </trkpt>
      <trkpt lat="44.00708" lon="3.5046">
        <ele>988.2</ele>
        <time>2026-05-28T08:55:41.000Z</time>
      </trkpt>
      <trkpt lat="44.00708" lon="3.5046">
        <ele>988.3</ele>
        <time>2026-05-28T08:55:42.000Z</time>
      </trkpt>
      <trkpt lat="44.00708" lon="3.50461">
        <ele>988.6</ele>
        <time>2026-05-28T08:55:43.000Z</time>
      </trkpt>
      <trkpt lat="44.00708" lon="3.50462">
        <ele>988.8</ele>
        <time>2026-05-28T08:55:44.000Z</time>
      </trkpt>
      <trkpt lat="44.00707" lon="3.50463">
        <ele>988.8</ele>
        <time>2026-05-28T08:55:45.000Z</time>
      </trkpt>
      <trkpt lat="44.00706" lon="3.50465">
        <ele>988.8</ele>
        <time>2026-05-28T08:55:46.000Z</time>
      </trkpt>
      <trkpt lat="44.00705" lon="3.50466">
        <ele>989</ele>
        <time>2026-05-28T08:55:47.000Z</time>
      </trkpt>
      <trkpt lat="44.00704" lon="3.50467">
        <ele>989</ele>
        <time>2026-05-28T08:55:48.000Z</time>
      </trkpt>
      <trkpt lat="44.00703" lon="3.50467">
        <ele>988.9</ele>
        <time>2026-05-28T08:55:49.000Z</time>
      </trkpt>
      <trkpt lat="44.00702" lon="3.50468">
        <ele>989.1</ele>
        <time>2026-05-28T08:55:50.000Z</time>
      </trkpt>
      <trkpt lat="44.00701" lon="3.5047">
        <ele>989.3</ele>
        <time>2026-05-28T08:55:51.000Z</time>
      </trkpt>
      <trkpt lat="44.00701" lon="3.50469">
        <ele>989.1</ele>
        <time>2026-05-28T08:55:52.000Z</time>
      </trkpt>
      <trkpt lat="44.007" lon="3.5047">
        <ele>989.7</ele>
        <time>2026-05-28T08:55:53.000Z</time>
      </trkpt>
      <trkpt lat="44.00699" lon="3.5047">
        <ele>990</ele>
        <time>2026-05-28T08:55:54.000Z</time>
      </trkpt>
      <trkpt lat="44.00699" lon="3.50471">
        <ele>990.3</ele>
        <time>2026-05-28T08:55:55.000Z</time>
      </trkpt>
      <trkpt lat="44.00699" lon="3.50471">
        <ele>990.3</ele>
        <time>2026-05-28T08:55:56.000Z</time>
      </trkpt>
      <trkpt lat="44.00699" lon="3.50472">
        <ele>990.4</ele>
        <time>2026-05-28T08:55:57.000Z</time>
      </trkpt>
      <trkpt lat="44.00699" lon="3.50472">
        <ele>989.7</ele>
        <time>2026-05-28T08:55:58.000Z</time>
      </trkpt>
      <trkpt lat="44.00699" lon="3.50473">
        <ele>989.4</ele>
        <time>2026-05-28T08:55:59.000Z</time>
      </trkpt>
      <trkpt lat="44.00699" lon="3.50474">
        <ele>989.5</ele>
        <time>2026-05-28T08:56:00.000Z</time>
      </trkpt>
      <trkpt lat="44.00699" lon="3.50474">
        <ele>989.4</ele>
        <time>2026-05-28T08:56:01.000Z</time>
      </trkpt>
      <trkpt lat="44.007" lon="3.50475">
        <ele>989.4</ele>
        <time>2026-05-28T08:56:02.000Z</time>
      </trkpt>
      <trkpt lat="44.007" lon="3.50475">
        <ele>989.7</ele>
        <time>2026-05-28T08:56:03.000Z</time>
      </trkpt>
      <trkpt lat="44.00699" lon="3.50475">
        <ele>989</ele>
        <time>2026-05-28T08:56:04.000Z</time>
      </trkpt>
      <trkpt lat="44.007" lon="3.50475">
        <ele>989.5</ele>
        <time>2026-05-28T08:56:05.000Z</time>
      </trkpt>
      <trkpt lat="44.007" lon="3.50475">
        <ele>989.8</ele>
        <time>2026-05-28T08:56:06.000Z</time>
      </trkpt>
      <trkpt lat="44.007" lon="3.50475">
        <ele>990.2</ele>
        <time>2026-05-28T08:56:07.000Z</time>
      </trkpt>
      <trkpt lat="44.007" lon="3.50475">
        <ele>990.5</ele>
        <time>2026-05-28T08:56:08.000Z</time>
      </trkpt>
      <trkpt lat="44.007" lon="3.50476">
        <ele>990.7</ele>
        <time>2026-05-28T08:56:09.000Z</time>
      </trkpt>
      <trkpt lat="44.007" lon="3.50476">
        <ele>991.1</ele>
        <time>2026-05-28T08:56:10.000Z</time>
      </trkpt>
      <trkpt lat="44.007" lon="3.50476">
        <ele>991.3</ele>
        <time>2026-05-28T08:56:11.000Z</time>
      </trkpt>
      <trkpt lat="44.007" lon="3.50476">
        <ele>991.4</ele>
        <time>2026-05-28T08:56:12.000Z</time>
      </trkpt>
      <trkpt lat="44.007" lon="3.50476">
        <ele>991.9</ele>
        <time>2026-05-28T08:56:13.000Z</time>
      </trkpt>
      <trkpt lat="44.007" lon="3.50476">
        <ele>992</ele>
        <time>2026-05-28T08:56:14.000Z</time>
      </trkpt>
      <trkpt lat="44.00701" lon="3.50477">
        <ele>992.1</ele>
        <time>2026-05-28T08:56:15.000Z</time>
      </trkpt>
      <trkpt lat="44.00701" lon="3.50477">
        <ele>992.1</ele>
        <time>2026-05-28T08:56:16.000Z</time>
      </trkpt>
      <trkpt lat="44.00701" lon="3.50478">
        <ele>992.2</ele>
        <time>2026-05-28T08:56:17.000Z</time>
      </trkpt>
      <trkpt lat="44.00701" lon="3.50478">
        <ele>992.1</ele>
        <time>2026-05-28T08:56:18.000Z</time>
      </trkpt>
      <trkpt lat="44.00701" lon="3.50478">
        <ele>992.1</ele>
        <time>2026-05-28T08:56:19.000Z</time>
      </trkpt>
      <trkpt lat="44.00701" lon="3.50478">
        <ele>992.4</ele>
        <time>2026-05-28T08:56:20.000Z</time>
      </trkpt>
      <trkpt lat="44.00701" lon="3.50479">
        <ele>992.8</ele>
        <time>2026-05-28T08:56:21.000Z</time>
      </trkpt>
      <trkpt lat="44.00701" lon="3.50479">
        <ele>993.1</ele>
        <time>2026-05-28T08:56:22.000Z</time>
      </trkpt>
      <trkpt lat="44.00701" lon="3.5048">
        <ele>993.4</ele>
        <time>2026-05-28T08:56:23.000Z</time>
      </trkpt>
      <trkpt lat="44.00701" lon="3.5048">
        <ele>994</ele>
        <time>2026-05-28T08:56:24.000Z</time>
      </trkpt>
      <trkpt lat="44.007" lon="3.5048">
        <ele>994.3</ele>
        <time>2026-05-28T08:56:25.000Z</time>
      </trkpt>
      <trkpt lat="44.007" lon="3.5048">
        <ele>994.5</ele>
        <time>2026-05-28T08:56:26.000Z</time>
      </trkpt>
      <trkpt lat="44.007" lon="3.50481">
        <ele>994.9</ele>
        <time>2026-05-28T08:56:27.000Z</time>
      </trkpt>
      <trkpt lat="44.007" lon="3.50482">
        <ele>995.2</ele>
        <time>2026-05-28T08:56:28.000Z</time>
      </trkpt>
      <trkpt lat="44.007" lon="3.50484">
        <ele>995.6</ele>
        <time>2026-05-28T08:56:29.000Z</time>
      </trkpt>
      <trkpt lat="44.007" lon="3.50484">
        <ele>995.5</ele>
        <time>2026-05-28T08:56:30.000Z</time>
      </trkpt>
      <trkpt lat="44.007" lon="3.50485">
        <ele>995.7</ele>
        <time>2026-05-28T08:56:31.000Z</time>
      </trkpt>
      <trkpt lat="44.007" lon="3.50485">
        <ele>995.8</ele>
        <time>2026-05-28T08:56:32.000Z</time>
      </trkpt>
      <trkpt lat="44.007" lon="3.50485">
        <ele>996.1</ele>
        <time>2026-05-28T08:56:33.000Z</time>
      </trkpt>
      <trkpt lat="44.007" lon="3.50485">
        <ele>996.1</ele>
        <time>2026-05-28T08:56:34.000Z</time>
      </trkpt>
      <trkpt lat="44.007" lon="3.50485">
        <ele>995.9</ele>
        <time>2026-05-28T08:56:35.000Z</time>
      </trkpt>
      <trkpt lat="44.007" lon="3.50485">
        <ele>996.1</ele>
        <time>2026-05-28T08:56:36.000Z</time>
      </trkpt>
      <trkpt lat="44.007" lon="3.50486">
        <ele>996.2</ele>
        <time>2026-05-28T08:56:37.000Z</time>
      </trkpt>
      <trkpt lat="44.007" lon="3.50486">
        <ele>996.7</ele>
        <time>2026-05-28T08:56:38.000Z</time>
      </trkpt>
      <trkpt lat="44.007" lon="3.50486">
        <ele>997.1</ele>
        <time>2026-05-28T08:56:39.000Z</time>
      </trkpt>
      <trkpt lat="44.007" lon="3.50487">
        <ele>997.4</ele>
        <time>2026-05-28T08:56:40.000Z</time>
      </trkpt>
      <trkpt lat="44.007" lon="3.50487">
        <ele>997.4</ele>
        <time>2026-05-28T08:56:41.000Z</time>
      </trkpt>
      <trkpt lat="44.007" lon="3.50487">
        <ele>997.3</ele>
        <time>2026-05-28T08:56:42.000Z</time>
      </trkpt>
      <trkpt lat="44.007" lon="3.50487">
        <ele>997.5</ele>
        <time>2026-05-28T08:56:43.000Z</time>
      </trkpt>
      <trkpt lat="44.007" lon="3.50487">
        <ele>997.8</ele>
        <time>2026-05-28T08:56:44.000Z</time>
      </trkpt>
      <trkpt lat="44.007" lon="3.50487">
        <ele>997.9</ele>
        <time>2026-05-28T08:56:45.000Z</time>
      </trkpt>
      <trkpt lat="44.007" lon="3.50487">
        <ele>998.1</ele>
        <time>2026-05-28T08:56:46.000Z</time>
      </trkpt>
      <trkpt lat="44.007" lon="3.50487">
        <ele>998.1</ele>
        <time>2026-05-28T08:56:47.000Z</time>
      </trkpt>
      <trkpt lat="44.007" lon="3.50487">
        <ele>998</ele>
        <time>2026-05-28T08:56:48.000Z</time>
      </trkpt>
      <trkpt lat="44.007" lon="3.50487">
        <ele>998.1</ele>
        <time>2026-05-28T08:56:49.000Z</time>
      </trkpt>
      <trkpt lat="44.00699" lon="3.50487">
        <ele>998.1</ele>
        <time>2026-05-28T08:56:50.000Z</time>
      </trkpt>
      <trkpt lat="44.00699" lon="3.50487">
        <ele>998</ele>
        <time>2026-05-28T08:56:51.000Z</time>
      </trkpt>
      <trkpt lat="44.00699" lon="3.50487">
        <ele>997.8</ele>
        <time>2026-05-28T08:56:52.000Z</time>
      </trkpt>
      <trkpt lat="44.00699" lon="3.50487">
        <ele>997.8</ele>
        <time>2026-05-28T08:56:53.000Z</time>
      </trkpt>
      <trkpt lat="44.00699" lon="3.50487">
        <ele>997.7</ele>
        <time>2026-05-28T08:56:54.000Z</time>
      </trkpt>
      <trkpt lat="44.00699" lon="3.50488">
        <ele>997.7</ele>
        <time>2026-05-28T08:56:55.000Z</time>
      </trkpt>
      <trkpt lat="44.00699" lon="3.50488">
        <ele>997.8</ele>
        <time>2026-05-28T08:56:56.000Z</time>
      </trkpt>
      <trkpt lat="44.00699" lon="3.50488">
        <ele>997.8</ele>
        <time>2026-05-28T08:56:57.000Z</time>
      </trkpt>
      <trkpt lat="44.00699" lon="3.50488">
        <ele>997.6</ele>
        <time>2026-05-28T08:56:58.000Z</time>
      </trkpt>
      <trkpt lat="44.00699" lon="3.50488">
        <ele>997.6</ele>
        <time>2026-05-28T08:56:59.000Z</time>
      </trkpt>
      <trkpt lat="44.00699" lon="3.50488">
        <ele>997.6</ele>
        <time>2026-05-28T08:57:00.000Z</time>
      </trkpt>
      <trkpt lat="44.00699" lon="3.50488">
        <ele>997.5</ele>
        <time>2026-05-28T08:57:01.000Z</time>
      </trkpt>
      <trkpt lat="44.00699" lon="3.50488">
        <ele>997.4</ele>
        <time>2026-05-28T08:57:02.000Z</time>
      </trkpt>
      <trkpt lat="44.00699" lon="3.50488">
        <ele>997.3</ele>
        <time>2026-05-28T08:57:03.000Z</time>
      </trkpt>
      <trkpt lat="44.00699" lon="3.50488">
        <ele>997.3</ele>
        <time>2026-05-28T08:57:04.000Z</time>
      </trkpt>
      <trkpt lat="44.00699" lon="3.50488">
        <ele>997.1</ele>
        <time>2026-05-28T08:57:05.000Z</time>
      </trkpt>
      <trkpt lat="44.00699" lon="3.50488">
        <ele>997.4</ele>
        <time>2026-05-28T08:57:06.000Z</time>
      </trkpt>
      <trkpt lat="44.00699" lon="3.50488">
        <ele>997.4</ele>
        <time>2026-05-28T08:57:07.000Z</time>
      </trkpt>
      <trkpt lat="44.00699" lon="3.50488">
        <ele>997.3</ele>
        <time>2026-05-28T08:57:08.000Z</time>
      </trkpt>
      <trkpt lat="44.00699" lon="3.50488">
        <ele>997.1</ele>
        <time>2026-05-28T08:57:09.000Z</time>
      </trkpt>
      <trkpt lat="44.00699" lon="3.50488">
        <ele>997</ele>
        <time>2026-05-28T08:57:10.000Z</time>
      </trkpt>
      <trkpt lat="44.00699" lon="3.50488">
        <ele>997.3</ele>
        <time>2026-05-28T08:57:11.000Z</time>
      </trkpt>
      <trkpt lat="44.00699" lon="3.50488">
        <ele>997.7</ele>
        <time>2026-05-28T08:57:12.000Z</time>
      </trkpt>
      <trkpt lat="44.00699" lon="3.50488">
        <ele>998</ele>
        <time>2026-05-28T08:57:13.000Z</time>
      </trkpt>
      <trkpt lat="44.00699" lon="3.50488">
        <ele>998.3</ele>
        <time>2026-05-28T08:57:14.000Z</time>
      </trkpt>
      <trkpt lat="44.007" lon="3.50488">
        <ele>998.7</ele>
        <time>2026-05-28T08:57:15.000Z</time>
      </trkpt>
      <trkpt lat="44.00701" lon="3.50489">
        <ele>998.9</ele>
        <time>2026-05-28T08:57:16.000Z</time>
      </trkpt>
      <trkpt lat="44.00702" lon="3.50489">
        <ele>999.2</ele>
        <time>2026-05-28T08:57:17.000Z</time>
      </trkpt>
      <trkpt lat="44.00703" lon="3.5049">
        <ele>999.3</ele>
        <time>2026-05-28T08:57:18.000Z</time>
      </trkpt>
      <trkpt lat="44.00703" lon="3.5049">
        <ele>999.7</ele>
        <time>2026-05-28T08:57:19.000Z</time>
      </trkpt>
      <trkpt lat="44.00703" lon="3.50491">
        <ele>1000</ele>
        <time>2026-05-28T08:57:20.000Z</time>
      </trkpt>
      <trkpt lat="44.00703" lon="3.50491">
        <ele>999.6</ele>
        <time>2026-05-28T08:57:21.000Z</time>
      </trkpt>
      <trkpt lat="44.00703" lon="3.50491">
        <ele>999.9</ele>
        <time>2026-05-28T08:57:22.000Z</time>
      </trkpt>
      <trkpt lat="44.00703" lon="3.50491">
        <ele>1000.1</ele>
        <time>2026-05-28T08:57:23.000Z</time>
      </trkpt>
      <trkpt lat="44.00703" lon="3.50491">
        <ele>1000.4</ele>
        <time>2026-05-28T08:57:24.000Z</time>
      </trkpt>
      <trkpt lat="44.00703" lon="3.50491">
        <ele>1000.6</ele>
        <time>2026-05-28T08:57:25.000Z</time>
      </trkpt>
      <trkpt lat="44.00703" lon="3.50491">
        <ele>1000.8</ele>
        <time>2026-05-28T08:57:26.000Z</time>
      </trkpt>
      <trkpt lat="44.00703" lon="3.50491">
        <ele>1001</ele>
        <time>2026-05-28T08:57:27.000Z</time>
      </trkpt>
      <trkpt lat="44.00703" lon="3.50491">
        <ele>1001.2</ele>
        <time>2026-05-28T08:57:28.000Z</time>
      </trkpt>
      <trkpt lat="44.00703" lon="3.50491">
        <ele>1001.3</ele>
        <time>2026-05-28T08:57:29.000Z</time>
      </trkpt>
      <trkpt lat="44.00703" lon="3.50491">
        <ele>1001.5</ele>
        <time>2026-05-28T08:57:30.000Z</time>
      </trkpt>
      <trkpt lat="44.00703" lon="3.50491">
        <ele>1001.5</ele>
        <time>2026-05-28T08:57:31.000Z</time>
      </trkpt>
      <trkpt lat="44.00703" lon="3.50491">
        <ele>1001.6</ele>
        <time>2026-05-28T08:57:32.000Z</time>
      </trkpt>
      <trkpt lat="44.00703" lon="3.50491">
        <ele>1001.6</ele>
        <time>2026-05-28T08:57:33.000Z</time>
      </trkpt>
      <trkpt lat="44.00703" lon="3.50491">
        <ele>1001.6</ele>
        <time>2026-05-28T08:57:34.000Z</time>
      </trkpt>
      <trkpt lat="44.00704" lon="3.5049">
        <ele>1001.7</ele>
        <time>2026-05-28T08:57:35.000Z</time>
      </trkpt>
      <trkpt lat="44.00705" lon="3.5049">
        <ele>1001.8</ele>
        <time>2026-05-28T08:57:36.000Z</time>
      </trkpt>
      <trkpt lat="44.00706" lon="3.50489">
        <ele>1001.6</ele>
        <time>2026-05-28T08:57:37.000Z</time>
      </trkpt>
      <trkpt lat="44.00706" lon="3.50489">
        <ele>1001.5</ele>
        <time>2026-05-28T08:57:38.000Z</time>
      </trkpt>
      <trkpt lat="44.00707" lon="3.50488">
        <ele>1001.3</ele>
        <time>2026-05-28T08:57:39.000Z</time>
      </trkpt>
      <trkpt lat="44.00708" lon="3.50488">
        <ele>1001</ele>
        <time>2026-05-28T08:57:40.000Z</time>
      </trkpt>
      <trkpt lat="44.0071" lon="3.50488">
        <ele>1001.1</ele>
        <time>2026-05-28T08:57:41.000Z</time>
      </trkpt>
      <trkpt lat="44.00711" lon="3.50488">
        <ele>1001.2</ele>
        <time>2026-05-28T08:57:42.000Z</time>
      </trkpt>
      <trkpt lat="44.00712" lon="3.50488">
        <ele>1001.4</ele>
        <time>2026-05-28T08:57:43.000Z</time>
      </trkpt>
      <trkpt lat="44.00714" lon="3.50488">
        <ele>1001.4</ele>
        <time>2026-05-28T08:57:44.000Z</time>
      </trkpt>
      <trkpt lat="44.00715" lon="3.50489">
        <ele>1001.4</ele>
        <time>2026-05-28T08:57:45.000Z</time>
      </trkpt>
      <trkpt lat="44.00716" lon="3.50489">
        <ele>1001.2</ele>
        <time>2026-05-28T08:57:46.000Z</time>
      </trkpt>
      <trkpt lat="44.00717" lon="3.50489">
        <ele>1001</ele>
        <time>2026-05-28T08:57:47.000Z</time>
      </trkpt>
      <trkpt lat="44.00718" lon="3.50489">
        <ele>1001.1</ele>
        <time>2026-05-28T08:57:48.000Z</time>
      </trkpt>
      <trkpt lat="44.00719" lon="3.50489">
        <ele>1001</ele>
        <time>2026-05-28T08:57:49.000Z</time>
      </trkpt>
      <trkpt lat="44.0072" lon="3.50489">
        <ele>1001.2</ele>
        <time>2026-05-28T08:57:50.000Z</time>
      </trkpt>
      <trkpt lat="44.0072" lon="3.50488">
        <ele>1001.4</ele>
        <time>2026-05-28T08:57:51.000Z</time>
      </trkpt>
      <trkpt lat="44.00721" lon="3.50488">
        <ele>1001.8</ele>
        <time>2026-05-28T08:57:52.000Z</time>
      </trkpt>
      <trkpt lat="44.00722" lon="3.50489">
        <ele>1002</ele>
        <time>2026-05-28T08:57:53.000Z</time>
      </trkpt>
      <trkpt lat="44.00722" lon="3.50489">
        <ele>1001.7</ele>
        <time>2026-05-28T08:57:54.000Z</time>
      </trkpt>
      <trkpt lat="44.00722" lon="3.50489">
        <ele>1001.7</ele>
        <time>2026-05-28T08:57:55.000Z</time>
      </trkpt>
      <trkpt lat="44.00723" lon="3.50489">
        <ele>1001.3</ele>
        <time>2026-05-28T08:57:56.000Z</time>
      </trkpt>
      <trkpt lat="44.00724" lon="3.50489">
        <ele>1001.3</ele>
        <time>2026-05-28T08:57:57.000Z</time>
      </trkpt>
      <trkpt lat="44.00725" lon="3.50488">
        <ele>1001.8</ele>
        <time>2026-05-28T08:57:58.000Z</time>
      </trkpt>
      <trkpt lat="44.00725" lon="3.50488">
        <ele>1001.9</ele>
        <time>2026-05-28T08:57:59.000Z</time>
      </trkpt>
      <trkpt lat="44.00726" lon="3.50488">
        <ele>1002.1</ele>
        <time>2026-05-28T08:58:00.000Z</time>
      </trkpt>
      <trkpt lat="44.00726" lon="3.50487">
        <ele>1002.5</ele>
        <time>2026-05-28T08:58:01.000Z</time>
      </trkpt>
      <trkpt lat="44.00728" lon="3.50487">
        <ele>1002.4</ele>
        <time>2026-05-28T08:58:02.000Z</time>
      </trkpt>
      <trkpt lat="44.00729" lon="3.50487">
        <ele>1002.5</ele>
        <time>2026-05-28T08:58:03.000Z</time>
      </trkpt>
      <trkpt lat="44.00731" lon="3.50487">
        <ele>1002.6</ele>
        <time>2026-05-28T08:58:04.000Z</time>
      </trkpt>
      <trkpt lat="44.00733" lon="3.50488">
        <ele>1002.7</ele>
        <time>2026-05-28T08:58:05.000Z</time>
      </trkpt>
      <trkpt lat="44.00734" lon="3.50488">
        <ele>1002.7</ele>
        <time>2026-05-28T08:58:06.000Z</time>
      </trkpt>
      <trkpt lat="44.00735" lon="3.50487">
        <ele>1003.2</ele>
        <time>2026-05-28T08:58:07.000Z</time>
      </trkpt>
      <trkpt lat="44.00735" lon="3.50487">
        <ele>1003.6</ele>
        <time>2026-05-28T08:58:08.000Z</time>
      </trkpt>
      <trkpt lat="44.00736" lon="3.50486">
        <ele>1003.9</ele>
        <time>2026-05-28T08:58:09.000Z</time>
      </trkpt>
      <trkpt lat="44.00738" lon="3.50485">
        <ele>1004.3</ele>
        <time>2026-05-28T08:58:10.000Z</time>
      </trkpt>
      <trkpt lat="44.00739" lon="3.50486">
        <ele>1004.4</ele>
        <time>2026-05-28T08:58:11.000Z</time>
      </trkpt>
      <trkpt lat="44.0074" lon="3.50485">
        <ele>1004.1</ele>
        <time>2026-05-28T08:58:12.000Z</time>
      </trkpt>
      <trkpt lat="44.00741" lon="3.50486">
        <ele>1003.6</ele>
        <time>2026-05-28T08:58:13.000Z</time>
      </trkpt>
      <trkpt lat="44.00743" lon="3.50487">
        <ele>1003.5</ele>
        <time>2026-05-28T08:58:15.000Z</time>
      </trkpt>
      <trkpt lat="44.00744" lon="3.50488">
        <ele>1003.7</ele>
        <time>2026-05-28T08:58:16.000Z</time>
      </trkpt>
      <trkpt lat="44.00745" lon="3.50489">
        <ele>1003.9</ele>
        <time>2026-05-28T08:58:17.000Z</time>
      </trkpt>
      <trkpt lat="44.00746" lon="3.5049">
        <ele>1003.7</ele>
        <time>2026-05-28T08:58:18.000Z</time>
      </trkpt>
      <trkpt lat="44.00747" lon="3.5049">
        <ele>1003.5</ele>
        <time>2026-05-28T08:58:19.000Z</time>
      </trkpt>
      <trkpt lat="44.00748" lon="3.5049">
        <ele>1003.2</ele>
        <time>2026-05-28T08:58:20.000Z</time>
      </trkpt>
      <trkpt lat="44.00749" lon="3.50491">
        <ele>1003.3</ele>
        <time>2026-05-28T08:58:21.000Z</time>
      </trkpt>
      <trkpt lat="44.0075" lon="3.50491">
        <ele>1003.5</ele>
        <time>2026-05-28T08:58:22.000Z</time>
      </trkpt>
      <trkpt lat="44.00752" lon="3.50491">
        <ele>1003.4</ele>
        <time>2026-05-28T08:58:23.000Z</time>
      </trkpt>
      <trkpt lat="44.00752" lon="3.50491">
        <ele>1002.9</ele>
        <time>2026-05-28T08:58:24.000Z</time>
      </trkpt>
      <trkpt lat="44.00754" lon="3.5049">
        <ele>1002.7</ele>
        <time>2026-05-28T08:58:25.000Z</time>
      </trkpt>
      <trkpt lat="44.00755" lon="3.5049">
        <ele>1002.5</ele>
        <time>2026-05-28T08:58:26.000Z</time>
      </trkpt>
      <trkpt lat="44.00756" lon="3.5049">
        <ele>1002.4</ele>
        <time>2026-05-28T08:58:27.000Z</time>
      </trkpt>
      <trkpt lat="44.00758" lon="3.5049">
        <ele>1002.1</ele>
        <time>2026-05-28T08:58:28.000Z</time>
      </trkpt>
      <trkpt lat="44.00759" lon="3.50491">
        <ele>1001.8</ele>
        <time>2026-05-28T08:58:29.000Z</time>
      </trkpt>
      <trkpt lat="44.0076" lon="3.50491">
        <ele>1001.8</ele>
        <time>2026-05-28T08:58:30.000Z</time>
      </trkpt>
      <trkpt lat="44.0076" lon="3.50491">
        <ele>1001.7</ele>
        <time>2026-05-28T08:58:31.000Z</time>
      </trkpt>
      <trkpt lat="44.00761" lon="3.50491">
        <ele>1001.8</ele>
        <time>2026-05-28T08:58:32.000Z</time>
      </trkpt>
      <trkpt lat="44.00762" lon="3.50491">
        <ele>1002</ele>
        <time>2026-05-28T08:58:33.000Z</time>
      </trkpt>
      <trkpt lat="44.00763" lon="3.50491">
        <ele>1001.7</ele>
        <time>2026-05-28T08:58:34.000Z</time>
      </trkpt>
      <trkpt lat="44.00763" lon="3.50491">
        <ele>1001.6</ele>
        <time>2026-05-28T08:58:35.000Z</time>
      </trkpt>
      <trkpt lat="44.00764" lon="3.50491">
        <ele>1001.6</ele>
        <time>2026-05-28T08:58:36.000Z</time>
      </trkpt>
      <trkpt lat="44.00764" lon="3.50491">
        <ele>1001.3</ele>
        <time>2026-05-28T08:58:37.000Z</time>
      </trkpt>
      <trkpt lat="44.00766" lon="3.50491">
        <ele>1001.2</ele>
        <time>2026-05-28T08:58:38.000Z</time>
      </trkpt>
      <trkpt lat="44.00767" lon="3.50492">
        <ele>1001.3</ele>
        <time>2026-05-28T08:58:39.000Z</time>
      </trkpt>
      <trkpt lat="44.00768" lon="3.50491">
        <ele>1001</ele>
        <time>2026-05-28T08:58:40.000Z</time>
      </trkpt>
      <trkpt lat="44.00769" lon="3.50491">
        <ele>1000.7</ele>
        <time>2026-05-28T08:58:41.000Z</time>
      </trkpt>
      <trkpt lat="44.0077" lon="3.50491">
        <ele>1000.1</ele>
        <time>2026-05-28T08:58:42.000Z</time>
      </trkpt>
      <trkpt lat="44.00772" lon="3.50492">
        <ele>1000</ele>
        <time>2026-05-28T08:58:43.000Z</time>
      </trkpt>
      <trkpt lat="44.00773" lon="3.50493">
        <ele>1000.4</ele>
        <time>2026-05-28T08:58:44.000Z</time>
      </trkpt>
      <trkpt lat="44.00773" lon="3.50493">
        <ele>1000.1</ele>
        <time>2026-05-28T08:58:45.000Z</time>
      </trkpt>
      <trkpt lat="44.00774" lon="3.50493">
        <ele>999.8</ele>
        <time>2026-05-28T08:58:46.000Z</time>
      </trkpt>
      <trkpt lat="44.00774" lon="3.50494">
        <ele>999.5</ele>
        <time>2026-05-28T08:58:47.000Z</time>
      </trkpt>
      <trkpt lat="44.00775" lon="3.50494">
        <ele>999.1</ele>
        <time>2026-05-28T08:58:48.000Z</time>
      </trkpt>
      <trkpt lat="44.00776" lon="3.50495">
        <ele>998.9</ele>
        <time>2026-05-28T08:58:49.000Z</time>
      </trkpt>
      <trkpt lat="44.00776" lon="3.50495">
        <ele>999.9</ele>
        <time>2026-05-28T08:58:50.000Z</time>
      </trkpt>
      <trkpt lat="44.00777" lon="3.50495">
        <ele>999.8</ele>
        <time>2026-05-28T08:58:51.000Z</time>
      </trkpt>
      <trkpt lat="44.00777" lon="3.50496">
        <ele>999.6</ele>
        <time>2026-05-28T08:58:52.000Z</time>
      </trkpt>
      <trkpt lat="44.00779" lon="3.50496">
        <ele>999.1</ele>
        <time>2026-05-28T08:58:53.000Z</time>
      </trkpt>
      <trkpt lat="44.0078" lon="3.50496">
        <ele>998.5</ele>
        <time>2026-05-28T08:58:54.000Z</time>
      </trkpt>
      <trkpt lat="44.0078" lon="3.50497">
        <ele>998</ele>
        <time>2026-05-28T08:58:55.000Z</time>
      </trkpt>
      <trkpt lat="44.00782" lon="3.50497">
        <ele>997.6</ele>
        <time>2026-05-28T08:58:56.000Z</time>
      </trkpt>
      <trkpt lat="44.00785" lon="3.50498">
        <ele>997.9</ele>
        <time>2026-05-28T08:58:57.000Z</time>
      </trkpt>
      <trkpt lat="44.00786" lon="3.50498">
        <ele>998.3</ele>
        <time>2026-05-28T08:58:58.000Z</time>
      </trkpt>
      <trkpt lat="44.00787" lon="3.50498">
        <ele>998.2</ele>
        <time>2026-05-28T08:58:59.000Z</time>
      </trkpt>
      <trkpt lat="44.00788" lon="3.50499">
        <ele>998.7</ele>
        <time>2026-05-28T08:59:00.000Z</time>
      </trkpt>
      <trkpt lat="44.0079" lon="3.505">
        <ele>999.1</ele>
        <time>2026-05-28T08:59:01.000Z</time>
      </trkpt>
      <trkpt lat="44.00791" lon="3.505">
        <ele>999.4</ele>
        <time>2026-05-28T08:59:02.000Z</time>
      </trkpt>
      <trkpt lat="44.00792" lon="3.505">
        <ele>999.4</ele>
        <time>2026-05-28T08:59:03.000Z</time>
      </trkpt>
      <trkpt lat="44.00793" lon="3.50501">
        <ele>999.7</ele>
        <time>2026-05-28T08:59:04.000Z</time>
      </trkpt>
      <trkpt lat="44.00794" lon="3.50501">
        <ele>999.6</ele>
        <time>2026-05-28T08:59:05.000Z</time>
      </trkpt>
      <trkpt lat="44.00794" lon="3.50502">
        <ele>999.9</ele>
        <time>2026-05-28T08:59:06.000Z</time>
      </trkpt>
      <trkpt lat="44.00795" lon="3.50502">
        <ele>1000.2</ele>
        <time>2026-05-28T08:59:07.000Z</time>
      </trkpt>
      <trkpt lat="44.00796" lon="3.50503">
        <ele>1000.2</ele>
        <time>2026-05-28T08:59:08.000Z</time>
      </trkpt>
      <trkpt lat="44.00797" lon="3.50504">
        <ele>1000.1</ele>
        <time>2026-05-28T08:59:09.000Z</time>
      </trkpt>
      <trkpt lat="44.00797" lon="3.50505">
        <ele>1000.3</ele>
        <time>2026-05-28T08:59:10.000Z</time>
      </trkpt>
      <trkpt lat="44.00798" lon="3.50505">
        <ele>1000.2</ele>
        <time>2026-05-28T08:59:11.000Z</time>
      </trkpt>
      <trkpt lat="44.00798" lon="3.50504">
        <ele>1000.3</ele>
        <time>2026-05-28T08:59:12.000Z</time>
      </trkpt>
      <trkpt lat="44.00798" lon="3.50504">
        <ele>1000.5</ele>
        <time>2026-05-28T08:59:13.000Z</time>
      </trkpt>
      <trkpt lat="44.00798" lon="3.50504">
        <ele>1000.3</ele>
        <time>2026-05-28T08:59:14.000Z</time>
      </trkpt>
      <trkpt lat="44.00799" lon="3.50504">
        <ele>1000.4</ele>
        <time>2026-05-28T08:59:15.000Z</time>
      </trkpt>
      <trkpt lat="44.00799" lon="3.50505">
        <ele>1000.7</ele>
        <time>2026-05-28T08:59:16.000Z</time>
      </trkpt>
      <trkpt lat="44.00799" lon="3.50505">
        <ele>1000.5</ele>
        <time>2026-05-28T08:59:17.000Z</time>
      </trkpt>
      <trkpt lat="44.00799" lon="3.50505">
        <ele>1000.4</ele>
        <time>2026-05-28T08:59:18.000Z</time>
      </trkpt>
      <trkpt lat="44.008" lon="3.50505">
        <ele>1000.3</ele>
        <time>2026-05-28T08:59:19.000Z</time>
      </trkpt>
      <trkpt lat="44.00803" lon="3.50506">
        <ele>1000.3</ele>
        <time>2026-05-28T08:59:20.000Z</time>
      </trkpt>
      <trkpt lat="44.00805" lon="3.50507">
        <ele>1000.6</ele>
        <time>2026-05-28T08:59:21.000Z</time>
      </trkpt>
      <trkpt lat="44.00806" lon="3.50507">
        <ele>1000.7</ele>
        <time>2026-05-28T08:59:22.000Z</time>
      </trkpt>
      <trkpt lat="44.00808" lon="3.50507">
        <ele>1000.7</ele>
        <time>2026-05-28T08:59:23.000Z</time>
      </trkpt>
      <trkpt lat="44.00809" lon="3.50508">
        <ele>1000.8</ele>
        <time>2026-05-28T08:59:24.000Z</time>
      </trkpt>
      <trkpt lat="44.0081" lon="3.50508">
        <ele>1000.9</ele>
        <time>2026-05-28T08:59:25.000Z</time>
      </trkpt>
      <trkpt lat="44.00811" lon="3.50509">
        <ele>1001</ele>
        <time>2026-05-28T08:59:26.000Z</time>
      </trkpt>
      <trkpt lat="44.00812" lon="3.50509">
        <ele>1001.2</ele>
        <time>2026-05-28T08:59:27.000Z</time>
      </trkpt>
      <trkpt lat="44.00813" lon="3.50509">
        <ele>1000.8</ele>
        <time>2026-05-28T08:59:28.000Z</time>
      </trkpt>
      <trkpt lat="44.00815" lon="3.50509">
        <ele>1000.6</ele>
        <time>2026-05-28T08:59:29.000Z</time>
      </trkpt>
      <trkpt lat="44.00816" lon="3.5051">
        <ele>1000.9</ele>
        <time>2026-05-28T08:59:30.000Z</time>
      </trkpt>
      <trkpt lat="44.00816" lon="3.5051">
        <ele>1001.1</ele>
        <time>2026-05-28T08:59:31.000Z</time>
      </trkpt>
      <trkpt lat="44.00818" lon="3.5051">
        <ele>1001.4</ele>
        <time>2026-05-28T08:59:32.000Z</time>
      </trkpt>
      <trkpt lat="44.0082" lon="3.5051">
        <ele>1001.4</ele>
        <time>2026-05-28T08:59:33.000Z</time>
      </trkpt>
      <trkpt lat="44.00821" lon="3.5051">
        <ele>1001.8</ele>
        <time>2026-05-28T08:59:34.000Z</time>
      </trkpt>
      <trkpt lat="44.00822" lon="3.50512">
        <ele>1002</ele>
        <time>2026-05-28T08:59:35.000Z</time>
      </trkpt>
      <trkpt lat="44.00823" lon="3.50513">
        <ele>1002</ele>
        <time>2026-05-28T08:59:36.000Z</time>
      </trkpt>
      <trkpt lat="44.00825" lon="3.50513">
        <ele>1001.8</ele>
        <time>2026-05-28T08:59:37.000Z</time>
      </trkpt>
      <trkpt lat="44.00826" lon="3.50514">
        <ele>1001.7</ele>
        <time>2026-05-28T08:59:38.000Z</time>
      </trkpt>
      <trkpt lat="44.00827" lon="3.50514">
        <ele>1001.9</ele>
        <time>2026-05-28T08:59:39.000Z</time>
      </trkpt>
      <trkpt lat="44.00827" lon="3.50515">
        <ele>1001.9</ele>
        <time>2026-05-28T08:59:40.000Z</time>
      </trkpt>
      <trkpt lat="44.00828" lon="3.50515">
        <ele>1001.7</ele>
        <time>2026-05-28T08:59:41.000Z</time>
      </trkpt>
      <trkpt lat="44.00828" lon="3.50515">
        <ele>1001.6</ele>
        <time>2026-05-28T08:59:42.000Z</time>
      </trkpt>
      <trkpt lat="44.00828" lon="3.50516">
        <ele>1001.3</ele>
        <time>2026-05-28T08:59:43.000Z</time>
      </trkpt>
      <trkpt lat="44.00828" lon="3.50516">
        <ele>1001.4</ele>
        <time>2026-05-28T08:59:44.000Z</time>
      </trkpt>
      <trkpt lat="44.00829" lon="3.50516">
        <ele>1001.6</ele>
        <time>2026-05-28T08:59:45.000Z</time>
      </trkpt>
      <trkpt lat="44.0083" lon="3.50516">
        <ele>1001.3</ele>
        <time>2026-05-28T08:59:46.000Z</time>
      </trkpt>
      <trkpt lat="44.00831" lon="3.50516">
        <ele>1001.3</ele>
        <time>2026-05-28T08:59:47.000Z</time>
      </trkpt>
      <trkpt lat="44.00832" lon="3.50516">
        <ele>1000.8</ele>
        <time>2026-05-28T08:59:48.000Z</time>
      </trkpt>
      <trkpt lat="44.00834" lon="3.50516">
        <ele>1000.7</ele>
        <time>2026-05-28T08:59:49.000Z</time>
      </trkpt>
      <trkpt lat="44.00835" lon="3.50515">
        <ele>1000.7</ele>
        <time>2026-05-28T08:59:50.000Z</time>
      </trkpt>
      <trkpt lat="44.00836" lon="3.50514">
        <ele>1000.7</ele>
        <time>2026-05-28T08:59:51.000Z</time>
      </trkpt>
      <trkpt lat="44.00837" lon="3.50515">
        <ele>1001</ele>
        <time>2026-05-28T08:59:52.000Z</time>
      </trkpt>
      <trkpt lat="44.00838" lon="3.50514">
        <ele>1001.1</ele>
        <time>2026-05-28T08:59:53.000Z</time>
      </trkpt>
      <trkpt lat="44.00841" lon="3.50515">
        <ele>1001.1</ele>
        <time>2026-05-28T08:59:55.000Z</time>
      </trkpt>
      <trkpt lat="44.00842" lon="3.50516">
        <ele>1001.5</ele>
        <time>2026-05-28T08:59:56.000Z</time>
      </trkpt>
      <trkpt lat="44.00843" lon="3.50518">
        <ele>1001.7</ele>
        <time>2026-05-28T08:59:57.000Z</time>
      </trkpt>
      <trkpt lat="44.00844" lon="3.50519">
        <ele>1001.7</ele>
        <time>2026-05-28T08:59:58.000Z</time>
      </trkpt>
      <trkpt lat="44.00844" lon="3.5052">
        <ele>1001.8</ele>
        <time>2026-05-28T08:59:59.000Z</time>
      </trkpt>
      <trkpt lat="44.00846" lon="3.5052">
        <ele>1001.8</ele>
        <time>2026-05-28T09:00:00.000Z</time>
      </trkpt>
      <trkpt lat="44.00847" lon="3.50519">
        <ele>1001.5</ele>
        <time>2026-05-28T09:00:01.000Z</time>
      </trkpt>
      <trkpt lat="44.00848" lon="3.5052">
        <ele>1001.3</ele>
        <time>2026-05-28T09:00:02.000Z</time>
      </trkpt>
      <trkpt lat="44.00849" lon="3.50521">
        <ele>1001</ele>
        <time>2026-05-28T09:00:03.000Z</time>
      </trkpt>
      <trkpt lat="44.00851" lon="3.50522">
        <ele>1000.9</ele>
        <time>2026-05-28T09:00:04.000Z</time>
      </trkpt>
      <trkpt lat="44.00851" lon="3.50522">
        <ele>1000.6</ele>
        <time>2026-05-28T09:00:05.000Z</time>
      </trkpt>
      <trkpt lat="44.00852" lon="3.50523">
        <ele>1000</ele>
        <time>2026-05-28T09:00:06.000Z</time>
      </trkpt>
      <trkpt lat="44.00854" lon="3.50522">
        <ele>999.6</ele>
        <time>2026-05-28T09:00:07.000Z</time>
      </trkpt>
      <trkpt lat="44.00855" lon="3.50522">
        <ele>999.6</ele>
        <time>2026-05-28T09:00:08.000Z</time>
      </trkpt>
      <trkpt lat="44.00855" lon="3.50522">
        <ele>999.2</ele>
        <time>2026-05-28T09:00:09.000Z</time>
      </trkpt>
      <trkpt lat="44.00856" lon="3.50522">
        <ele>999.4</ele>
        <time>2026-05-28T09:00:10.000Z</time>
      </trkpt>
      <trkpt lat="44.00857" lon="3.50522">
        <ele>999.2</ele>
        <time>2026-05-28T09:00:11.000Z</time>
      </trkpt>
      <trkpt lat="44.00858" lon="3.50522">
        <ele>999.5</ele>
        <time>2026-05-28T09:00:13.000Z</time>
      </trkpt>
      <trkpt lat="44.00858" lon="3.50522">
        <ele>999.1</ele>
        <time>2026-05-28T09:00:14.000Z</time>
      </trkpt>
      <trkpt lat="44.0086" lon="3.50522">
        <ele>998.8</ele>
        <time>2026-05-28T09:00:15.000Z</time>
      </trkpt>
      <trkpt lat="44.0086" lon="3.50523">
        <ele>998</ele>
        <time>2026-05-28T09:00:16.000Z</time>
      </trkpt>
      <trkpt lat="44.00862" lon="3.50523">
        <ele>997.8</ele>
        <time>2026-05-28T09:00:17.000Z</time>
      </trkpt>
      <trkpt lat="44.00863" lon="3.50524">
        <ele>997.2</ele>
        <time>2026-05-28T09:00:18.000Z</time>
      </trkpt>
      <trkpt lat="44.00864" lon="3.50524">
        <ele>997</ele>
        <time>2026-05-28T09:00:19.000Z</time>
      </trkpt>
      <trkpt lat="44.00864" lon="3.50524">
        <ele>997.9</ele>
        <time>2026-05-28T09:00:20.000Z</time>
      </trkpt>
      <trkpt lat="44.00864" lon="3.50524">
        <ele>998.1</ele>
        <time>2026-05-28T09:00:21.000Z</time>
      </trkpt>
      <trkpt lat="44.00865" lon="3.50524">
        <ele>998.8</ele>
        <time>2026-05-28T09:00:23.000Z</time>
      </trkpt>
      <trkpt lat="44.00865" lon="3.50524">
        <ele>999.3</ele>
        <time>2026-05-28T09:00:24.000Z</time>
      </trkpt>
      <trkpt lat="44.00865" lon="3.50524">
        <ele>999.3</ele>
        <time>2026-05-28T09:00:25.000Z</time>
      </trkpt>
      <trkpt lat="44.00866" lon="3.50524">
        <ele>999.7</ele>
        <time>2026-05-28T09:00:26.000Z</time>
      </trkpt>
      <trkpt lat="44.00866" lon="3.50524">
        <ele>999.6</ele>
        <time>2026-05-28T09:00:27.000Z</time>
      </trkpt>
      <trkpt lat="44.00866" lon="3.50524">
        <ele>999.2</ele>
        <time>2026-05-28T09:00:28.000Z</time>
      </trkpt>
      <trkpt lat="44.00866" lon="3.50524">
        <ele>998.9</ele>
        <time>2026-05-28T09:00:29.000Z</time>
      </trkpt>
      <trkpt lat="44.00866" lon="3.50524">
        <ele>999.1</ele>
        <time>2026-05-28T09:00:30.000Z</time>
      </trkpt>
      <trkpt lat="44.00867" lon="3.50524">
        <ele>999.4</ele>
        <time>2026-05-28T09:00:31.000Z</time>
      </trkpt>
      <trkpt lat="44.00867" lon="3.50524">
        <ele>999.5</ele>
        <time>2026-05-28T09:00:32.000Z</time>
      </trkpt>
      <trkpt lat="44.00868" lon="3.50524">
        <ele>999.4</ele>
        <time>2026-05-28T09:00:33.000Z</time>
      </trkpt>
      <trkpt lat="44.00869" lon="3.50526">
        <ele>999.7</ele>
        <time>2026-05-28T09:00:34.000Z</time>
      </trkpt>
      <trkpt lat="44.0087" lon="3.50526">
        <ele>999.7</ele>
        <time>2026-05-28T09:00:35.000Z</time>
      </trkpt>
      <trkpt lat="44.0087" lon="3.50526">
        <ele>999.7</ele>
        <time>2026-05-28T09:00:36.000Z</time>
      </trkpt>
      <trkpt lat="44.0087" lon="3.50526">
        <ele>999.6</ele>
        <time>2026-05-28T09:00:37.000Z</time>
      </trkpt>
      <trkpt lat="44.0087" lon="3.50527">
        <ele>999.7</ele>
        <time>2026-05-28T09:00:38.000Z</time>
      </trkpt>
      <trkpt lat="44.00871" lon="3.50527">
        <ele>1000</ele>
        <time>2026-05-28T09:00:39.000Z</time>
      </trkpt>
      <trkpt lat="44.00871" lon="3.50527">
        <ele>1000</ele>
        <time>2026-05-28T09:00:40.000Z</time>
      </trkpt>
      <trkpt lat="44.00873" lon="3.50527">
        <ele>999.7</ele>
        <time>2026-05-28T09:00:41.000Z</time>
      </trkpt>
      <trkpt lat="44.00875" lon="3.50528">
        <ele>999.6</ele>
        <time>2026-05-28T09:00:42.000Z</time>
      </trkpt>
      <trkpt lat="44.0088" lon="3.5053">
        <ele>999.4</ele>
        <time>2026-05-28T09:00:43.999Z</time>
      </trkpt>
      <trkpt lat="44.00883" lon="3.5053">
        <ele>999.3</ele>
        <time>2026-05-28T09:00:44.999Z</time>
      </trkpt>
      <trkpt lat="44.00884" lon="3.50529">
        <ele>999.3</ele>
        <time>2026-05-28T09:00:45.999Z</time>
      </trkpt>
      <trkpt lat="44.00884" lon="3.50529">
        <ele>999.3</ele>
        <time>2026-05-28T09:00:46.999Z</time>
      </trkpt>
      <trkpt lat="44.00884" lon="3.50529">
        <ele>999</ele>
        <time>2026-05-28T09:00:47.999Z</time>
      </trkpt>
      <trkpt lat="44.00886" lon="3.50529">
        <ele>998.8</ele>
        <time>2026-05-28T09:00:48.999Z</time>
      </trkpt>
      <trkpt lat="44.00888" lon="3.50529">
        <ele>998.6</ele>
        <time>2026-05-28T09:00:49.999Z</time>
      </trkpt>
      <trkpt lat="44.00889" lon="3.50529">
        <ele>998.5</ele>
        <time>2026-05-28T09:00:50.999Z</time>
      </trkpt>
      <trkpt lat="44.00889" lon="3.50529">
        <ele>998.6</ele>
        <time>2026-05-28T09:00:51.999Z</time>
      </trkpt>
      <trkpt lat="44.00889" lon="3.50529">
        <ele>998.6</ele>
        <time>2026-05-28T09:00:52.999Z</time>
      </trkpt>
      <trkpt lat="44.0089" lon="3.5053">
        <ele>998.8</ele>
        <time>2026-05-28T09:00:53.999Z</time>
      </trkpt>
      <trkpt lat="44.0089" lon="3.50532">
        <ele>998.7</ele>
        <time>2026-05-28T09:00:54.999Z</time>
      </trkpt>
      <trkpt lat="44.00892" lon="3.50532">
        <ele>998.3</ele>
        <time>2026-05-28T09:00:55.999Z</time>
      </trkpt>
      <trkpt lat="44.00892" lon="3.50531">
        <ele>998.3</ele>
        <time>2026-05-28T09:00:56.999Z</time>
      </trkpt>
      <trkpt lat="44.00892" lon="3.50531">
        <ele>998.2</ele>
        <time>2026-05-28T09:00:57.999Z</time>
      </trkpt>
      <trkpt lat="44.00892" lon="3.50532">
        <ele>998.2</ele>
        <time>2026-05-28T09:00:58.999Z</time>
      </trkpt>
      <trkpt lat="44.00893" lon="3.50531">
        <ele>998</ele>
        <time>2026-05-28T09:00:59.999Z</time>
      </trkpt>
      <trkpt lat="44.00894" lon="3.50531">
        <ele>998</ele>
        <time>2026-05-28T09:01:00.999Z</time>
      </trkpt>
      <trkpt lat="44.00894" lon="3.5053">
        <ele>997.9</ele>
        <time>2026-05-28T09:01:01.999Z</time>
      </trkpt>
      <trkpt lat="44.00896" lon="3.5053">
        <ele>998</ele>
        <time>2026-05-28T09:01:02.999Z</time>
      </trkpt>
      <trkpt lat="44.00898" lon="3.50529">
        <ele>997.9</ele>
        <time>2026-05-28T09:01:03.999Z</time>
      </trkpt>
      <trkpt lat="44.009" lon="3.50528">
        <ele>997.5</ele>
        <time>2026-05-28T09:01:04.999Z</time>
      </trkpt>
      <trkpt lat="44.00902" lon="3.50527">
        <ele>997.4</ele>
        <time>2026-05-28T09:01:05.999Z</time>
      </trkpt>
      <trkpt lat="44.00904" lon="3.50527">
        <ele>997.2</ele>
        <time>2026-05-28T09:01:06.999Z</time>
      </trkpt>
      <trkpt lat="44.00906" lon="3.50526">
        <ele>997.2</ele>
        <time>2026-05-28T09:01:07.999Z</time>
      </trkpt>
      <trkpt lat="44.00907" lon="3.50527">
        <ele>996.8</ele>
        <time>2026-05-28T09:01:08.999Z</time>
      </trkpt>
      <trkpt lat="44.00909" lon="3.50527">
        <ele>996.9</ele>
        <time>2026-05-28T09:01:09.999Z</time>
      </trkpt>
      <trkpt lat="44.0091" lon="3.50526">
        <ele>996.9</ele>
        <time>2026-05-28T09:01:10.999Z</time>
      </trkpt>
      <trkpt lat="44.00912" lon="3.50526">
        <ele>996.9</ele>
        <time>2026-05-28T09:01:11.999Z</time>
      </trkpt>
      <trkpt lat="44.00915" lon="3.50526">
        <ele>997.4</ele>
        <time>2026-05-28T09:01:12.999Z</time>
      </trkpt>
      <trkpt lat="44.00918" lon="3.50527">
        <ele>997.5</ele>
        <time>2026-05-28T09:01:13.999Z</time>
      </trkpt>
      <trkpt lat="44.0092" lon="3.50528">
        <ele>997.6</ele>
        <time>2026-05-28T09:01:14.999Z</time>
      </trkpt>
      <trkpt lat="44.00922" lon="3.50528">
        <ele>998.1</ele>
        <time>2026-05-28T09:01:15.999Z</time>
      </trkpt>
      <trkpt lat="44.00923" lon="3.50528">
        <ele>998.7</ele>
        <time>2026-05-28T09:01:16.999Z</time>
      </trkpt>
      <trkpt lat="44.00923" lon="3.50528">
        <ele>998.7</ele>
        <time>2026-05-28T09:01:17.999Z</time>
      </trkpt>
      <trkpt lat="44.00924" lon="3.50528">
        <ele>999.2</ele>
        <time>2026-05-28T09:01:18.999Z</time>
      </trkpt>
      <trkpt lat="44.00925" lon="3.50528">
        <ele>999.5</ele>
        <time>2026-05-28T09:01:19.999Z</time>
      </trkpt>
      <trkpt lat="44.00926" lon="3.50527">
        <ele>999.6</ele>
        <time>2026-05-28T09:01:20.999Z</time>
      </trkpt>
      <trkpt lat="44.00927" lon="3.50527">
        <ele>1000</ele>
        <time>2026-05-28T09:01:21.999Z</time>
      </trkpt>
      <trkpt lat="44.00929" lon="3.50526">
        <ele>999.9</ele>
        <time>2026-05-28T09:01:22.999Z</time>
      </trkpt>
      <trkpt lat="44.00931" lon="3.50526">
        <ele>999.6</ele>
        <time>2026-05-28T09:01:23.999Z</time>
      </trkpt>
      <trkpt lat="44.00932" lon="3.50526">
        <ele>999.7</ele>
        <time>2026-05-28T09:01:24.999Z</time>
      </trkpt>
      <trkpt lat="44.00933" lon="3.50525">
        <ele>1000.2</ele>
        <time>2026-05-28T09:01:25.999Z</time>
      </trkpt>
      <trkpt lat="44.00933" lon="3.50524">
        <ele>1000.3</ele>
        <time>2026-05-28T09:01:26.999Z</time>
      </trkpt>
      <trkpt lat="44.00934" lon="3.50525">
        <ele>1000.3</ele>
        <time>2026-05-28T09:01:27.999Z</time>
      </trkpt>
      <trkpt lat="44.00934" lon="3.50525">
        <ele>1000.1</ele>
        <time>2026-05-28T09:01:28.999Z</time>
      </trkpt>
      <trkpt lat="44.00934" lon="3.50523">
        <ele>1000.8</ele>
        <time>2026-05-28T09:01:29.999Z</time>
      </trkpt>
      <trkpt lat="44.00935" lon="3.50522">
        <ele>1001.5</ele>
        <time>2026-05-28T09:01:30.999Z</time>
      </trkpt>
      <trkpt lat="44.00935" lon="3.50521">
        <ele>1002</ele>
        <time>2026-05-28T09:01:31.999Z</time>
      </trkpt>
      <trkpt lat="44.00936" lon="3.5052">
        <ele>1001.9</ele>
        <time>2026-05-28T09:01:32.999Z</time>
      </trkpt>
      <trkpt lat="44.00937" lon="3.50519">
        <ele>1001.7</ele>
        <time>2026-05-28T09:01:33.999Z</time>
      </trkpt>
      <trkpt lat="44.00938" lon="3.50519">
        <ele>1001.4</ele>
        <time>2026-05-28T09:01:34.999Z</time>
      </trkpt>
      <trkpt lat="44.00938" lon="3.50519">
        <ele>1001.1</ele>
        <time>2026-05-28T09:01:35.999Z</time>
      </trkpt>
      <trkpt lat="44.0094" lon="3.50519">
        <ele>1001.3</ele>
        <time>2026-05-28T09:01:36.999Z</time>
      </trkpt>
      <trkpt lat="44.00941" lon="3.50519">
        <ele>1001.5</ele>
        <time>2026-05-28T09:01:37.999Z</time>
      </trkpt>
      <trkpt lat="44.00943" lon="3.50519">
        <ele>1001.7</ele>
        <time>2026-05-28T09:01:38.999Z</time>
      </trkpt>
      <trkpt lat="44.00945" lon="3.50518">
        <ele>1001.6</ele>
        <time>2026-05-28T09:01:39.999Z</time>
      </trkpt>
      <trkpt lat="44.00946" lon="3.50518">
        <ele>1001.6</ele>
        <time>2026-05-28T09:01:40.999Z</time>
      </trkpt>
      <trkpt lat="44.00947" lon="3.50516">
        <ele>1001.6</ele>
        <time>2026-05-28T09:01:41.999Z</time>
      </trkpt>
      <trkpt lat="44.00947" lon="3.50516">
        <ele>1001.2</ele>
        <time>2026-05-28T09:01:42.999Z</time>
      </trkpt>
      <trkpt lat="44.00947" lon="3.50516">
        <ele>1000.8</ele>
        <time>2026-05-28T09:01:43.999Z</time>
      </trkpt>
      <trkpt lat="44.00948" lon="3.50516">
        <ele>1000.3</ele>
        <time>2026-05-28T09:01:44.999Z</time>
      </trkpt>
      <trkpt lat="44.00949" lon="3.50517">
        <ele>1000</ele>
        <time>2026-05-28T09:01:45.999Z</time>
      </trkpt>
      <trkpt lat="44.0095" lon="3.50517">
        <ele>1000.2</ele>
        <time>2026-05-28T09:01:46.999Z</time>
      </trkpt>
      <trkpt lat="44.00952" lon="3.50519">
        <ele>1000.6</ele>
        <time>2026-05-28T09:01:47.999Z</time>
      </trkpt>
      <trkpt lat="44.00953" lon="3.50519">
        <ele>1000.4</ele>
        <time>2026-05-28T09:01:48.999Z</time>
      </trkpt>
      <trkpt lat="44.00954" lon="3.50519">
        <ele>999.9</ele>
        <time>2026-05-28T09:01:49.999Z</time>
      </trkpt>
      <trkpt lat="44.00954" lon="3.50519">
        <ele>1000.1</ele>
        <time>2026-05-28T09:01:50.999Z</time>
      </trkpt>
      <trkpt lat="44.00955" lon="3.50519">
        <ele>1000.3</ele>
        <time>2026-05-28T09:01:51.999Z</time>
      </trkpt>
      <trkpt lat="44.00956" lon="3.50519">
        <ele>1000.3</ele>
        <time>2026-05-28T09:01:52.999Z</time>
      </trkpt>
      <trkpt lat="44.00956" lon="3.50519">
        <ele>1000.6</ele>
        <time>2026-05-28T09:01:53.999Z</time>
      </trkpt>
      <trkpt lat="44.00956" lon="3.50519">
        <ele>1001</ele>
        <time>2026-05-28T09:01:54.999Z</time>
      </trkpt>
      <trkpt lat="44.00956" lon="3.50519">
        <ele>1001</ele>
        <time>2026-05-28T09:01:55.999Z</time>
      </trkpt>
      <trkpt lat="44.00957" lon="3.50519">
        <ele>1001.1</ele>
        <time>2026-05-28T09:01:56.999Z</time>
      </trkpt>
      <trkpt lat="44.00958" lon="3.50517">
        <ele>1001</ele>
        <time>2026-05-28T09:01:57.999Z</time>
      </trkpt>
      <trkpt lat="44.00959" lon="3.50517">
        <ele>1001</ele>
        <time>2026-05-28T09:01:58.999Z</time>
      </trkpt>
      <trkpt lat="44.0096" lon="3.50516">
        <ele>1001</ele>
        <time>2026-05-28T09:01:59.999Z</time>
      </trkpt>
      <trkpt lat="44.00961" lon="3.50515">
        <ele>1001.1</ele>
        <time>2026-05-28T09:02:00.999Z</time>
      </trkpt>
      <trkpt lat="44.00961" lon="3.50514">
        <ele>1001.5</ele>
        <time>2026-05-28T09:02:01.999Z</time>
      </trkpt>
      <trkpt lat="44.00962" lon="3.50514">
        <ele>1001.2</ele>
        <time>2026-05-28T09:02:02.999Z</time>
      </trkpt>
      <trkpt lat="44.00963" lon="3.50514">
        <ele>1001.5</ele>
        <time>2026-05-28T09:02:03.999Z</time>
      </trkpt>
      <trkpt lat="44.00964" lon="3.50514">
        <ele>1001.8</ele>
        <time>2026-05-28T09:02:04.999Z</time>
      </trkpt>
      <trkpt lat="44.00964" lon="3.50514">
        <ele>1001.6</ele>
        <time>2026-05-28T09:02:05.999Z</time>
      </trkpt>
      <trkpt lat="44.00966" lon="3.50513">
        <ele>1002.5</ele>
        <time>2026-05-28T09:02:06.999Z</time>
      </trkpt>
      <trkpt lat="44.00967" lon="3.50512">
        <ele>1002.5</ele>
        <time>2026-05-28T09:02:07.999Z</time>
      </trkpt>
      <trkpt lat="44.00968" lon="3.50512">
        <ele>1002.7</ele>
        <time>2026-05-28T09:02:08.999Z</time>
      </trkpt>
      <trkpt lat="44.00969" lon="3.50512">
        <ele>1002.8</ele>
        <time>2026-05-28T09:02:09.999Z</time>
      </trkpt>
      <trkpt lat="44.00971" lon="3.50511">
        <ele>1002.9</ele>
        <time>2026-05-28T09:02:10.999Z</time>
      </trkpt>
      <trkpt lat="44.00972" lon="3.50511">
        <ele>1002.8</ele>
        <time>2026-05-28T09:02:11.999Z</time>
      </trkpt>
      <trkpt lat="44.00973" lon="3.5051">
        <ele>1002.6</ele>
        <time>2026-05-28T09:02:12.999Z</time>
      </trkpt>
      <trkpt lat="44.00975" lon="3.50509">
        <ele>1003.1</ele>
        <time>2026-05-28T09:02:13.999Z</time>
      </trkpt>
      <trkpt lat="44.00975" lon="3.50509">
        <ele>1003.5</ele>
        <time>2026-05-28T09:02:14.999Z</time>
      </trkpt>
      <trkpt lat="44.00976" lon="3.50509">
        <ele>1003.6</ele>
        <time>2026-05-28T09:02:15.999Z</time>
      </trkpt>
      <trkpt lat="44.00976" lon="3.5051">
        <ele>1003.8</ele>
        <time>2026-05-28T09:02:16.999Z</time>
      </trkpt>
      <trkpt lat="44.00977" lon="3.50509">
        <ele>1004.4</ele>
        <time>2026-05-28T09:02:17.999Z</time>
      </trkpt>
      <trkpt lat="44.00978" lon="3.50509">
        <ele>1004.3</ele>
        <time>2026-05-28T09:02:18.999Z</time>
      </trkpt>
      <trkpt lat="44.00982" lon="3.50509">
        <ele>1004.3</ele>
        <time>2026-05-28T09:02:20.999Z</time>
      </trkpt>
      <trkpt lat="44.00983" lon="3.50509">
        <ele>1003.7</ele>
        <time>2026-05-28T09:02:21.999Z</time>
      </trkpt>
      <trkpt lat="44.00984" lon="3.50509">
        <ele>1003.6</ele>
        <time>2026-05-28T09:02:22.999Z</time>
      </trkpt>
      <trkpt lat="44.00985" lon="3.50508">
        <ele>1003.5</ele>
        <time>2026-05-28T09:02:23.999Z</time>
      </trkpt>
      <trkpt lat="44.00986" lon="3.50508">
        <ele>1003.4</ele>
        <time>2026-05-28T09:02:24.999Z</time>
      </trkpt>
      <trkpt lat="44.00987" lon="3.50508">
        <ele>1002.8</ele>
        <time>2026-05-28T09:02:25.999Z</time>
      </trkpt>
      <trkpt lat="44.00987" lon="3.50507">
        <ele>1003</ele>
        <time>2026-05-28T09:02:26.999Z</time>
      </trkpt>
      <trkpt lat="44.00988" lon="3.50507">
        <ele>1002.8</ele>
        <time>2026-05-28T09:02:27.999Z</time>
      </trkpt>
      <trkpt lat="44.00989" lon="3.50508">
        <ele>1002.5</ele>
        <time>2026-05-28T09:02:28.999Z</time>
      </trkpt>
      <trkpt lat="44.0099" lon="3.50507">
        <ele>1003.2</ele>
        <time>2026-05-28T09:02:29.999Z</time>
      </trkpt>
      <trkpt lat="44.0099" lon="3.50508">
        <ele>1003</ele>
        <time>2026-05-28T09:02:30.999Z</time>
      </trkpt>
      <trkpt lat="44.00991" lon="3.50507">
        <ele>1003.3</ele>
        <time>2026-05-28T09:02:31.999Z</time>
      </trkpt>
      <trkpt lat="44.00991" lon="3.50507">
        <ele>1003.7</ele>
        <time>2026-05-28T09:02:32.999Z</time>
      </trkpt>
      <trkpt lat="44.00991" lon="3.50507">
        <ele>1003.8</ele>
        <time>2026-05-28T09:02:33.999Z</time>
      </trkpt>
      <trkpt lat="44.00991" lon="3.50507">
        <ele>1004.4</ele>
        <time>2026-05-28T09:02:34.999Z</time>
      </trkpt>
      <trkpt lat="44.00992" lon="3.50507">
        <ele>1004</ele>
        <time>2026-05-28T09:02:35.999Z</time>
      </trkpt>
      <trkpt lat="44.00993" lon="3.50507">
        <ele>1004.4</ele>
        <time>2026-05-28T09:02:36.999Z</time>
      </trkpt>
      <trkpt lat="44.00994" lon="3.50508">
        <ele>1004</ele>
        <time>2026-05-28T09:02:37.999Z</time>
      </trkpt>
      <trkpt lat="44.00995" lon="3.50508">
        <ele>1003.9</ele>
        <time>2026-05-28T09:02:38.999Z</time>
      </trkpt>
      <trkpt lat="44.00995" lon="3.50508">
        <ele>1003.7</ele>
        <time>2026-05-28T09:02:39.999Z</time>
      </trkpt>
      <trkpt lat="44.00996" lon="3.50508">
        <ele>1004.3</ele>
        <time>2026-05-28T09:02:40.999Z</time>
      </trkpt>
      <trkpt lat="44.00997" lon="3.50507">
        <ele>1004.8</ele>
        <time>2026-05-28T09:02:41.999Z</time>
      </trkpt>
      <trkpt lat="44.00998" lon="3.50506">
        <ele>1005.6</ele>
        <time>2026-05-28T09:02:42.999Z</time>
      </trkpt>
      <trkpt lat="44.00998" lon="3.50506">
        <ele>1005.9</ele>
        <time>2026-05-28T09:02:43.999Z</time>
      </trkpt>
      <trkpt lat="44.00999" lon="3.50505">
        <ele>1006.7</ele>
        <time>2026-05-28T09:02:44.999Z</time>
      </trkpt>
      <trkpt lat="44.01" lon="3.50505">
        <ele>1007.1</ele>
        <time>2026-05-28T09:02:45.999Z</time>
      </trkpt>
      <trkpt lat="44.01" lon="3.50505">
        <ele>1007.4</ele>
        <time>2026-05-28T09:02:46.999Z</time>
      </trkpt>
      <trkpt lat="44.01001" lon="3.50505">
        <ele>1007.7</ele>
        <time>2026-05-28T09:02:47.999Z</time>
      </trkpt>
      <trkpt lat="44.01002" lon="3.50504">
        <ele>1008</ele>
        <time>2026-05-28T09:02:48.999Z</time>
      </trkpt>
      <trkpt lat="44.01003" lon="3.50503">
        <ele>1007.7</ele>
        <time>2026-05-28T09:02:49.999Z</time>
      </trkpt>
      <trkpt lat="44.01003" lon="3.50503">
        <ele>1008.1</ele>
        <time>2026-05-28T09:02:50.999Z</time>
      </trkpt>
      <trkpt lat="44.01003" lon="3.50503">
        <ele>1008.6</ele>
        <time>2026-05-28T09:02:51.999Z</time>
      </trkpt>
      <trkpt lat="44.01004" lon="3.50503">
        <ele>1008.8</ele>
        <time>2026-05-28T09:02:52.999Z</time>
      </trkpt>
      <trkpt lat="44.01004" lon="3.50503">
        <ele>1009.1</ele>
        <time>2026-05-28T09:02:53.999Z</time>
      </trkpt>
      <trkpt lat="44.01004" lon="3.50503">
        <ele>1008.9</ele>
        <time>2026-05-28T09:02:54.999Z</time>
      </trkpt>
      <trkpt lat="44.01004" lon="3.50502">
        <ele>1009</ele>
        <time>2026-05-28T09:02:55.999Z</time>
      </trkpt>
      <trkpt lat="44.01004" lon="3.50502">
        <ele>1009.3</ele>
        <time>2026-05-28T09:02:56.999Z</time>
      </trkpt>
      <trkpt lat="44.01004" lon="3.505">
        <ele>1009.5</ele>
        <time>2026-05-28T09:02:57.999Z</time>
      </trkpt>
      <trkpt lat="44.01004" lon="3.50499">
        <ele>1009.5</ele>
        <time>2026-05-28T09:02:58.999Z</time>
      </trkpt>
      <trkpt lat="44.01005" lon="3.50498">
        <ele>1009.7</ele>
        <time>2026-05-28T09:02:59.999Z</time>
      </trkpt>
      <trkpt lat="44.01006" lon="3.50497">
        <ele>1010.2</ele>
        <time>2026-05-28T09:03:00.999Z</time>
      </trkpt>
      <trkpt lat="44.01008" lon="3.50496">
        <ele>1010.6</ele>
        <time>2026-05-28T09:03:01.999Z</time>
      </trkpt>
      <trkpt lat="44.01008" lon="3.50496">
        <ele>1010.4</ele>
        <time>2026-05-28T09:03:02.999Z</time>
      </trkpt>
      <trkpt lat="44.01009" lon="3.50495">
        <ele>1010.5</ele>
        <time>2026-05-28T09:03:03.999Z</time>
      </trkpt>
      <trkpt lat="44.01011" lon="3.50495">
        <ele>1010.8</ele>
        <time>2026-05-28T09:03:04.999Z</time>
      </trkpt>
      <trkpt lat="44.01013" lon="3.50494">
        <ele>1011.3</ele>
        <time>2026-05-28T09:03:05.999Z</time>
      </trkpt>
      <trkpt lat="44.01014" lon="3.50494">
        <ele>1012.2</ele>
        <time>2026-05-28T09:03:06.999Z</time>
      </trkpt>
      <trkpt lat="44.01016" lon="3.50494">
        <ele>1013</ele>
        <time>2026-05-28T09:03:07.999Z</time>
      </trkpt>
      <trkpt lat="44.01017" lon="3.50493">
        <ele>1012.9</ele>
        <time>2026-05-28T09:03:08.999Z</time>
      </trkpt>
      <trkpt lat="44.01017" lon="3.50492">
        <ele>1013.4</ele>
        <time>2026-05-28T09:03:09.999Z</time>
      </trkpt>
      <trkpt lat="44.01018" lon="3.50492">
        <ele>1013.5</ele>
        <time>2026-05-28T09:03:10.999Z</time>
      </trkpt>
      <trkpt lat="44.01018" lon="3.50491">
        <ele>1013.8</ele>
        <time>2026-05-28T09:03:11.999Z</time>
      </trkpt>
      <trkpt lat="44.01018" lon="3.50491">
        <ele>1014</ele>
        <time>2026-05-28T09:03:12.999Z</time>
      </trkpt>
      <trkpt lat="44.01018" lon="3.50491">
        <ele>1013.6</ele>
        <time>2026-05-28T09:03:13.999Z</time>
      </trkpt>
      <trkpt lat="44.01017" lon="3.50491">
        <ele>1013.6</ele>
        <time>2026-05-28T09:03:14.999Z</time>
      </trkpt>
      <trkpt lat="44.01018" lon="3.50489">
        <ele>1013.8</ele>
        <time>2026-05-28T09:03:15.999Z</time>
      </trkpt>
      <trkpt lat="44.01018" lon="3.50487">
        <ele>1014</ele>
        <time>2026-05-28T09:03:16.999Z</time>
      </trkpt>
      <trkpt lat="44.01019" lon="3.50486">
        <ele>1014</ele>
        <time>2026-05-28T09:03:17.999Z</time>
      </trkpt>
      <trkpt lat="44.01019" lon="3.50486">
        <ele>1014</ele>
        <time>2026-05-28T09:03:18.999Z</time>
      </trkpt>
      <trkpt lat="44.01019" lon="3.50485">
        <ele>1014.3</ele>
        <time>2026-05-28T09:03:19.999Z</time>
      </trkpt>
      <trkpt lat="44.01019" lon="3.50485">
        <ele>1014.5</ele>
        <time>2026-05-28T09:03:20.999Z</time>
      </trkpt>
      <trkpt lat="44.01019" lon="3.50485">
        <ele>1014.7</ele>
        <time>2026-05-28T09:03:21.999Z</time>
      </trkpt>
      <trkpt lat="44.01019" lon="3.50485">
        <ele>1015</ele>
        <time>2026-05-28T09:03:22.999Z</time>
      </trkpt>
      <trkpt lat="44.01019" lon="3.50485">
        <ele>1015.1</ele>
        <time>2026-05-28T09:03:23.999Z</time>
      </trkpt>
      <trkpt lat="44.0102" lon="3.50484">
        <ele>1015.5</ele>
        <time>2026-05-28T09:03:24.999Z</time>
      </trkpt>
      <trkpt lat="44.0102" lon="3.50484">
        <ele>1015.5</ele>
        <time>2026-05-28T09:03:25.999Z</time>
      </trkpt>
      <trkpt lat="44.0102" lon="3.50484">
        <ele>1015.8</ele>
        <time>2026-05-28T09:03:26.999Z</time>
      </trkpt>
      <trkpt lat="44.0102" lon="3.50484">
        <ele>1015.9</ele>
        <time>2026-05-28T09:03:27.999Z</time>
      </trkpt>
      <trkpt lat="44.0102" lon="3.50484">
        <ele>1016</ele>
        <time>2026-05-28T09:03:28.999Z</time>
      </trkpt>
      <trkpt lat="44.0102" lon="3.50484">
        <ele>1015.7</ele>
        <time>2026-05-28T09:03:29.999Z</time>
      </trkpt>
      <trkpt lat="44.01021" lon="3.50483">
        <ele>1015.8</ele>
        <time>2026-05-28T09:03:30.999Z</time>
      </trkpt>
      <trkpt lat="44.01023" lon="3.50483">
        <ele>1015.7</ele>
        <time>2026-05-28T09:03:31.999Z</time>
      </trkpt>
      <trkpt lat="44.01024" lon="3.50483">
        <ele>1015.5</ele>
        <time>2026-05-28T09:03:32.999Z</time>
      </trkpt>
      <trkpt lat="44.01025" lon="3.50482">
        <ele>1015.4</ele>
        <time>2026-05-28T09:03:33.999Z</time>
      </trkpt>
      <trkpt lat="44.01026" lon="3.50482">
        <ele>1015.1</ele>
        <time>2026-05-28T09:03:34.999Z</time>
      </trkpt>
      <trkpt lat="44.01026" lon="3.50482">
        <ele>1014.8</ele>
        <time>2026-05-28T09:03:35.999Z</time>
      </trkpt>
      <trkpt lat="44.01026" lon="3.50482">
        <ele>1014.5</ele>
        <time>2026-05-28T09:03:36.999Z</time>
      </trkpt>
      <trkpt lat="44.01027" lon="3.50482">
        <ele>1014.5</ele>
        <time>2026-05-28T09:03:37.999Z</time>
      </trkpt>
      <trkpt lat="44.01028" lon="3.50482">
        <ele>1014.7</ele>
        <time>2026-05-28T09:03:38.999Z</time>
      </trkpt>
      <trkpt lat="44.01029" lon="3.50481">
        <ele>1015</ele>
        <time>2026-05-28T09:03:39.999Z</time>
      </trkpt>
      <trkpt lat="44.01029" lon="3.50482">
        <ele>1014.9</ele>
        <time>2026-05-28T09:03:40.999Z</time>
      </trkpt>
      <trkpt lat="44.0103" lon="3.50482">
        <ele>1014.7</ele>
        <time>2026-05-28T09:03:41.999Z</time>
      </trkpt>
      <trkpt lat="44.0103" lon="3.50482">
        <ele>1014.7</ele>
        <time>2026-05-28T09:03:42.999Z</time>
      </trkpt>
      <trkpt lat="44.0103" lon="3.50483">
        <ele>1014.7</ele>
        <time>2026-05-28T09:03:43.999Z</time>
      </trkpt>
      <trkpt lat="44.01031" lon="3.50485">
        <ele>1015</ele>
        <time>2026-05-28T09:03:44.999Z</time>
      </trkpt>
      <trkpt lat="44.01031" lon="3.50486">
        <ele>1015.4</ele>
        <time>2026-05-28T09:03:45.999Z</time>
      </trkpt>
      <trkpt lat="44.01032" lon="3.50487">
        <ele>1015.4</ele>
        <time>2026-05-28T09:03:46.999Z</time>
      </trkpt>
      <trkpt lat="44.01033" lon="3.50489">
        <ele>1015.5</ele>
        <time>2026-05-28T09:03:47.999Z</time>
      </trkpt>
      <trkpt lat="44.01034" lon="3.5049">
        <ele>1015.8</ele>
        <time>2026-05-28T09:03:48.999Z</time>
      </trkpt>
      <trkpt lat="44.01035" lon="3.50491">
        <ele>1015.8</ele>
        <time>2026-05-28T09:03:49.999Z</time>
      </trkpt>
      <trkpt lat="44.01035" lon="3.50491">
        <ele>1015.9</ele>
        <time>2026-05-28T09:03:50.999Z</time>
      </trkpt>
      <trkpt lat="44.01036" lon="3.50491">
        <ele>1015.9</ele>
        <time>2026-05-28T09:03:51.999Z</time>
      </trkpt>
      <trkpt lat="44.01037" lon="3.50492">
        <ele>1015.8</ele>
        <time>2026-05-28T09:03:52.999Z</time>
      </trkpt>
      <trkpt lat="44.01038" lon="3.50493">
        <ele>1016.1</ele>
        <time>2026-05-28T09:03:53.999Z</time>
      </trkpt>
      <trkpt lat="44.01038" lon="3.50493">
        <ele>1016.3</ele>
        <time>2026-05-28T09:03:54.999Z</time>
      </trkpt>
      <trkpt lat="44.01039" lon="3.50494">
        <ele>1016.5</ele>
        <time>2026-05-28T09:03:55.999Z</time>
      </trkpt>
      <trkpt lat="44.0104" lon="3.50494">
        <ele>1016.9</ele>
        <time>2026-05-28T09:03:56.999Z</time>
      </trkpt>
      <trkpt lat="44.01041" lon="3.50495">
        <ele>1017.1</ele>
        <time>2026-05-28T09:03:57.999Z</time>
      </trkpt>
      <trkpt lat="44.01042" lon="3.50496">
        <ele>1017.4</ele>
        <time>2026-05-28T09:03:58.999Z</time>
      </trkpt>
      <trkpt lat="44.01042" lon="3.50497">
        <ele>1017.6</ele>
        <time>2026-05-28T09:03:59.999Z</time>
      </trkpt>
      <trkpt lat="44.01043" lon="3.50498">
        <ele>1017.5</ele>
        <time>2026-05-28T09:04:00.999Z</time>
      </trkpt>
      <trkpt lat="44.01044" lon="3.50498">
        <ele>1017.3</ele>
        <time>2026-05-28T09:04:01.999Z</time>
      </trkpt>
      <trkpt lat="44.01045" lon="3.50499">
        <ele>1017.5</ele>
        <time>2026-05-28T09:04:02.999Z</time>
      </trkpt>
      <trkpt lat="44.01045" lon="3.50499">
        <ele>1017.7</ele>
        <time>2026-05-28T09:04:03.999Z</time>
      </trkpt>
      <trkpt lat="44.01046" lon="3.505">
        <ele>1017.6</ele>
        <time>2026-05-28T09:04:04.999Z</time>
      </trkpt>
      <trkpt lat="44.01046" lon="3.505">
        <ele>1017.5</ele>
        <time>2026-05-28T09:04:05.999Z</time>
      </trkpt>
      <trkpt lat="44.01047" lon="3.505">
        <ele>1017.5</ele>
        <time>2026-05-28T09:04:06.999Z</time>
      </trkpt>
      <trkpt lat="44.01048" lon="3.50501">
        <ele>1017.9</ele>
        <time>2026-05-28T09:04:07.999Z</time>
      </trkpt>
      <trkpt lat="44.01049" lon="3.50502">
        <ele>1018.4</ele>
        <time>2026-05-28T09:04:08.999Z</time>
      </trkpt>
      <trkpt lat="44.01049" lon="3.50502">
        <ele>1018.7</ele>
        <time>2026-05-28T09:04:09.999Z</time>
      </trkpt>
      <trkpt lat="44.0105" lon="3.50502">
        <ele>1018.8</ele>
        <time>2026-05-28T09:04:10.999Z</time>
      </trkpt>
      <trkpt lat="44.01051" lon="3.50502">
        <ele>1018.5</ele>
        <time>2026-05-28T09:04:11.999Z</time>
      </trkpt>
      <trkpt lat="44.01051" lon="3.50502">
        <ele>1018.1</ele>
        <time>2026-05-28T09:04:12.999Z</time>
      </trkpt>
      <trkpt lat="44.01052" lon="3.50502">
        <ele>1018</ele>
        <time>2026-05-28T09:04:13.999Z</time>
      </trkpt>
      <trkpt lat="44.01053" lon="3.50502">
        <ele>1017.7</ele>
        <time>2026-05-28T09:04:14.999Z</time>
      </trkpt>
      <trkpt lat="44.01054" lon="3.50503">
        <ele>1017.4</ele>
        <time>2026-05-28T09:04:15.999Z</time>
      </trkpt>
      <trkpt lat="44.01055" lon="3.50503">
        <ele>1017.5</ele>
        <time>2026-05-28T09:04:16.999Z</time>
      </trkpt>
      <trkpt lat="44.01056" lon="3.50504">
        <ele>1017.7</ele>
        <time>2026-05-28T09:04:17.999Z</time>
      </trkpt>
      <trkpt lat="44.01057" lon="3.50504">
        <ele>1017.9</ele>
        <time>2026-05-28T09:04:18.999Z</time>
      </trkpt>
      <trkpt lat="44.01057" lon="3.50505">
        <ele>1017.8</ele>
        <time>2026-05-28T09:04:19.999Z</time>
      </trkpt>
      <trkpt lat="44.01058" lon="3.50506">
        <ele>1017.6</ele>
        <time>2026-05-28T09:04:20.999Z</time>
      </trkpt>
      <trkpt lat="44.01059" lon="3.50506">
        <ele>1017.6</ele>
        <time>2026-05-28T09:04:21.999Z</time>
      </trkpt>
      <trkpt lat="44.0106" lon="3.50506">
        <ele>1017.9</ele>
        <time>2026-05-28T09:04:22.999Z</time>
      </trkpt>
      <trkpt lat="44.01061" lon="3.50507">
        <ele>1017.9</ele>
        <time>2026-05-28T09:04:23.999Z</time>
      </trkpt>
      <trkpt lat="44.01062" lon="3.50507">
        <ele>1017.6</ele>
        <time>2026-05-28T09:04:24.999Z</time>
      </trkpt>
      <trkpt lat="44.01063" lon="3.50508">
        <ele>1017.9</ele>
        <time>2026-05-28T09:04:25.999Z</time>
      </trkpt>
      <trkpt lat="44.01064" lon="3.50508">
        <ele>1017.8</ele>
        <time>2026-05-28T09:04:26.999Z</time>
      </trkpt>
      <trkpt lat="44.01064" lon="3.50509">
        <ele>1017.7</ele>
        <time>2026-05-28T09:04:27.999Z</time>
      </trkpt>
      <trkpt lat="44.01065" lon="3.50509">
        <ele>1017.5</ele>
        <time>2026-05-28T09:04:28.999Z</time>
      </trkpt>
      <trkpt lat="44.01066" lon="3.50509">
        <ele>1017.6</ele>
        <time>2026-05-28T09:04:29.999Z</time>
      </trkpt>
      <trkpt lat="44.01067" lon="3.5051">
        <ele>1017.7</ele>
        <time>2026-05-28T09:04:30.999Z</time>
      </trkpt>
      <trkpt lat="44.01068" lon="3.5051">
        <ele>1017.8</ele>
        <time>2026-05-28T09:04:31.999Z</time>
      </trkpt>
      <trkpt lat="44.01068" lon="3.50511">
        <ele>1017.8</ele>
        <time>2026-05-28T09:04:32.999Z</time>
      </trkpt>
      <trkpt lat="44.01069" lon="3.50512">
        <ele>1018</ele>
        <time>2026-05-28T09:04:33.999Z</time>
      </trkpt>
      <trkpt lat="44.0107" lon="3.50512">
        <ele>1018.1</ele>
        <time>2026-05-28T09:04:34.999Z</time>
      </trkpt>
      <trkpt lat="44.0107" lon="3.50512">
        <ele>1018.1</ele>
        <time>2026-05-28T09:04:35.999Z</time>
      </trkpt>
      <trkpt lat="44.01071" lon="3.50513">
        <ele>1018.3</ele>
        <time>2026-05-28T09:04:36.999Z</time>
      </trkpt>
      <trkpt lat="44.01071" lon="3.50513">
        <ele>1019</ele>
        <time>2026-05-28T09:04:37.999Z</time>
      </trkpt>
      <trkpt lat="44.01073" lon="3.50514">
        <ele>1019.5</ele>
        <time>2026-05-28T09:04:38.999Z</time>
      </trkpt>
      <trkpt lat="44.01074" lon="3.50515">
        <ele>1019.8</ele>
        <time>2026-05-28T09:04:39.999Z</time>
      </trkpt>
      <trkpt lat="44.01074" lon="3.50516">
        <ele>1019.7</ele>
        <time>2026-05-28T09:04:40.999Z</time>
      </trkpt>
      <trkpt lat="44.01075" lon="3.50516">
        <ele>1020.3</ele>
        <time>2026-05-28T09:04:41.999Z</time>
      </trkpt>
      <trkpt lat="44.01076" lon="3.50516">
        <ele>1020.2</ele>
        <time>2026-05-28T09:04:42.999Z</time>
      </trkpt>
      <trkpt lat="44.01077" lon="3.50517">
        <ele>1020.9</ele>
        <time>2026-05-28T09:04:43.999Z</time>
      </trkpt>
      <trkpt lat="44.01078" lon="3.50518">
        <ele>1020.8</ele>
        <time>2026-05-28T09:04:44.999Z</time>
      </trkpt>
      <trkpt lat="44.01078" lon="3.50518">
        <ele>1020.9</ele>
        <time>2026-05-28T09:04:45.999Z</time>
      </trkpt>
      <trkpt lat="44.01079" lon="3.50519">
        <ele>1021.1</ele>
        <time>2026-05-28T09:04:46.999Z</time>
      </trkpt>
      <trkpt lat="44.0108" lon="3.50519">
        <ele>1020.6</ele>
        <time>2026-05-28T09:04:47.999Z</time>
      </trkpt>
      <trkpt lat="44.01082" lon="3.5052">
        <ele>1020.4</ele>
        <time>2026-05-28T09:04:48.999Z</time>
      </trkpt>
      <trkpt lat="44.01082" lon="3.5052">
        <ele>1020.4</ele>
        <time>2026-05-28T09:04:49.999Z</time>
      </trkpt>
      <trkpt lat="44.01083" lon="3.50519">
        <ele>1020.2</ele>
        <time>2026-05-28T09:04:50.999Z</time>
      </trkpt>
      <trkpt lat="44.01084" lon="3.50519">
        <ele>1020.3</ele>
        <time>2026-05-28T09:04:51.999Z</time>
      </trkpt>
      <trkpt lat="44.01085" lon="3.5052">
        <ele>1020.6</ele>
        <time>2026-05-28T09:04:52.999Z</time>
      </trkpt>
      <trkpt lat="44.01086" lon="3.50521">
        <ele>1020.9</ele>
        <time>2026-05-28T09:04:53.999Z</time>
      </trkpt>
      <trkpt lat="44.01087" lon="3.50521">
        <ele>1021</ele>
        <time>2026-05-28T09:04:54.999Z</time>
      </trkpt>
      <trkpt lat="44.01088" lon="3.50522">
        <ele>1020.9</ele>
        <time>2026-05-28T09:04:55.999Z</time>
      </trkpt>
      <trkpt lat="44.01089" lon="3.50523">
        <ele>1020.9</ele>
        <time>2026-05-28T09:04:56.999Z</time>
      </trkpt>
      <trkpt lat="44.0109" lon="3.50523">
        <ele>1021</ele>
        <time>2026-05-28T09:04:57.999Z</time>
      </trkpt>
      <trkpt lat="44.01091" lon="3.50523">
        <ele>1021.1</ele>
        <time>2026-05-28T09:04:58.999Z</time>
      </trkpt>
      <trkpt lat="44.01091" lon="3.50523">
        <ele>1021.5</ele>
        <time>2026-05-28T09:04:59.999Z</time>
      </trkpt>
      <trkpt lat="44.01092" lon="3.50524">
        <ele>1021.5</ele>
        <time>2026-05-28T09:05:00.999Z</time>
      </trkpt>
      <trkpt lat="44.01093" lon="3.50523">
        <ele>1021.4</ele>
        <time>2026-05-28T09:05:01.999Z</time>
      </trkpt>
      <trkpt lat="44.01094" lon="3.50522">
        <ele>1021.2</ele>
        <time>2026-05-28T09:05:02.999Z</time>
      </trkpt>
      <trkpt lat="44.01095" lon="3.50523">
        <ele>1021.3</ele>
        <time>2026-05-28T09:05:03.999Z</time>
      </trkpt>
      <trkpt lat="44.01095" lon="3.50523">
        <ele>1020.9</ele>
        <time>2026-05-28T09:05:04.999Z</time>
      </trkpt>
      <trkpt lat="44.01095" lon="3.50523">
        <ele>1020.7</ele>
        <time>2026-05-28T09:05:05.999Z</time>
      </trkpt>
      <trkpt lat="44.01096" lon="3.50523">
        <ele>1020.7</ele>
        <time>2026-05-28T09:05:06.999Z</time>
      </trkpt>
      <trkpt lat="44.01097" lon="3.50523">
        <ele>1020.6</ele>
        <time>2026-05-28T09:05:07.999Z</time>
      </trkpt>
      <trkpt lat="44.01098" lon="3.50523">
        <ele>1020.5</ele>
        <time>2026-05-28T09:05:08.999Z</time>
      </trkpt>
      <trkpt lat="44.01099" lon="3.50523">
        <ele>1020.3</ele>
        <time>2026-05-28T09:05:09.999Z</time>
      </trkpt>
      <trkpt lat="44.011" lon="3.50524">
        <ele>1020.2</ele>
        <time>2026-05-28T09:05:10.999Z</time>
      </trkpt>
      <trkpt lat="44.011" lon="3.50525">
        <ele>1020.3</ele>
        <time>2026-05-28T09:05:11.999Z</time>
      </trkpt>
      <trkpt lat="44.01101" lon="3.50525">
        <ele>1020.6</ele>
        <time>2026-05-28T09:05:12.999Z</time>
      </trkpt>
      <trkpt lat="44.01101" lon="3.50525">
        <ele>1020.8</ele>
        <time>2026-05-28T09:05:13.999Z</time>
      </trkpt>
      <trkpt lat="44.01102" lon="3.50526">
        <ele>1020.7</ele>
        <time>2026-05-28T09:05:14.999Z</time>
      </trkpt>
      <trkpt lat="44.01102" lon="3.50526">
        <ele>1021.1</ele>
        <time>2026-05-28T09:05:15.999Z</time>
      </trkpt>
      <trkpt lat="44.01102" lon="3.50526">
        <ele>1021.6</ele>
        <time>2026-05-28T09:05:16.999Z</time>
      </trkpt>
      <trkpt lat="44.01102" lon="3.50526">
        <ele>1021.7</ele>
        <time>2026-05-28T09:05:17.999Z</time>
      </trkpt>
      <trkpt lat="44.01102" lon="3.50526">
        <ele>1021.9</ele>
        <time>2026-05-28T09:05:18.999Z</time>
      </trkpt>
      <trkpt lat="44.01102" lon="3.50526">
        <ele>1022.6</ele>
        <time>2026-05-28T09:05:19.999Z</time>
      </trkpt>
      <trkpt lat="44.01102" lon="3.50527">
        <ele>1023</ele>
        <time>2026-05-28T09:05:20.999Z</time>
      </trkpt>
      <trkpt lat="44.01103" lon="3.50527">
        <ele>1023.1</ele>
        <time>2026-05-28T09:05:21.999Z</time>
      </trkpt>
      <trkpt lat="44.01104" lon="3.50527">
        <ele>1023.2</ele>
        <time>2026-05-28T09:05:22.999Z</time>
      </trkpt>
      <trkpt lat="44.01105" lon="3.50528">
        <ele>1023.3</ele>
        <time>2026-05-28T09:05:23.999Z</time>
      </trkpt>
      <trkpt lat="44.01106" lon="3.50528">
        <ele>1023.4</ele>
        <time>2026-05-28T09:05:24.999Z</time>
      </trkpt>
      <trkpt lat="44.01106" lon="3.50528">
        <ele>1023.6</ele>
        <time>2026-05-28T09:05:25.999Z</time>
      </trkpt>
      <trkpt lat="44.01107" lon="3.50529">
        <ele>1023.8</ele>
        <time>2026-05-28T09:05:26.999Z</time>
      </trkpt>
      <trkpt lat="44.01107" lon="3.50528">
        <ele>1024.4</ele>
        <time>2026-05-28T09:05:28.999Z</time>
      </trkpt>
      <trkpt lat="44.01107" lon="3.50528">
        <ele>1024.6</ele>
        <time>2026-05-28T09:05:29.999Z</time>
      </trkpt>
      <trkpt lat="44.01107" lon="3.50529">
        <ele>1024.8</ele>
        <time>2026-05-28T09:05:30.999Z</time>
      </trkpt>
      <trkpt lat="44.01108" lon="3.50528">
        <ele>1024.9</ele>
        <time>2026-05-28T09:05:31.999Z</time>
      </trkpt>
      <trkpt lat="44.01108" lon="3.50528">
        <ele>1024.8</ele>
        <time>2026-05-28T09:05:32.999Z</time>
      </trkpt>
      <trkpt lat="44.01108" lon="3.50528">
        <ele>1025</ele>
        <time>2026-05-28T09:05:33.999Z</time>
      </trkpt>
      <trkpt lat="44.01108" lon="3.50528">
        <ele>1024.8</ele>
        <time>2026-05-28T09:05:34.999Z</time>
      </trkpt>
      <trkpt lat="44.01108" lon="3.50529">
        <ele>1024.8</ele>
        <time>2026-05-28T09:05:35.999Z</time>
      </trkpt>
      <trkpt lat="44.01108" lon="3.5053">
        <ele>1024.8</ele>
        <time>2026-05-28T09:05:36.999Z</time>
      </trkpt>
      <trkpt lat="44.01109" lon="3.5053">
        <ele>1024.8</ele>
        <time>2026-05-28T09:05:37.999Z</time>
      </trkpt>
      <trkpt lat="44.0111" lon="3.50529">
        <ele>1025.1</ele>
        <time>2026-05-28T09:05:38.999Z</time>
      </trkpt>
      <trkpt lat="44.01111" lon="3.5053">
        <ele>1024.9</ele>
        <time>2026-05-28T09:05:39.999Z</time>
      </trkpt>
      <trkpt lat="44.01113" lon="3.50531">
        <ele>1024.9</ele>
        <time>2026-05-28T09:05:40.999Z</time>
      </trkpt>
      <trkpt lat="44.01117" lon="3.50531">
        <ele>1024.7</ele>
        <time>2026-05-28T09:05:42.999Z</time>
      </trkpt>
      <trkpt lat="44.01119" lon="3.50532">
        <ele>1024.4</ele>
        <time>2026-05-28T09:05:43.999Z</time>
      </trkpt>
      <trkpt lat="44.0112" lon="3.50533">
        <ele>1024.1</ele>
        <time>2026-05-28T09:05:44.999Z</time>
      </trkpt>
      <trkpt lat="44.01121" lon="3.50533">
        <ele>1024.2</ele>
        <time>2026-05-28T09:05:45.999Z</time>
      </trkpt>
      <trkpt lat="44.01121" lon="3.50534">
        <ele>1024.2</ele>
        <time>2026-05-28T09:05:46.999Z</time>
      </trkpt>
      <trkpt lat="44.01122" lon="3.50534">
        <ele>1024.9</ele>
        <time>2026-05-28T09:05:47.999Z</time>
      </trkpt>
      <trkpt lat="44.01122" lon="3.50534">
        <ele>1025</ele>
        <time>2026-05-28T09:05:48.999Z</time>
      </trkpt>
      <trkpt lat="44.01122" lon="3.50533">
        <ele>1025.1</ele>
        <time>2026-05-28T09:05:49.999Z</time>
      </trkpt>
      <trkpt lat="44.01122" lon="3.50534">
        <ele>1025</ele>
        <time>2026-05-28T09:05:50.999Z</time>
      </trkpt>
      <trkpt lat="44.01123" lon="3.50534">
        <ele>1025.5</ele>
        <time>2026-05-28T09:05:51.999Z</time>
      </trkpt>
      <trkpt lat="44.01123" lon="3.50534">
        <ele>1026.4</ele>
        <time>2026-05-28T09:05:52.999Z</time>
      </trkpt>
      <trkpt lat="44.01123" lon="3.50535">
        <ele>1026.7</ele>
        <time>2026-05-28T09:05:53.999Z</time>
      </trkpt>
      <trkpt lat="44.01123" lon="3.50535">
        <ele>1027</ele>
        <time>2026-05-28T09:05:54.999Z</time>
      </trkpt>
      <trkpt lat="44.01123" lon="3.50535">
        <ele>1027</ele>
        <time>2026-05-28T09:05:55.999Z</time>
      </trkpt>
      <trkpt lat="44.01123" lon="3.50535">
        <ele>1027</ele>
        <time>2026-05-28T09:05:56.999Z</time>
      </trkpt>
      <trkpt lat="44.01124" lon="3.50537">
        <ele>1027.2</ele>
        <time>2026-05-28T09:05:57.999Z</time>
      </trkpt>
      <trkpt lat="44.01126" lon="3.50538">
        <ele>1027.4</ele>
        <time>2026-05-28T09:05:58.999Z</time>
      </trkpt>
      <trkpt lat="44.01127" lon="3.50538">
        <ele>1027.7</ele>
        <time>2026-05-28T09:05:59.999Z</time>
      </trkpt>
      <trkpt lat="44.01129" lon="3.50539">
        <ele>1027.7</ele>
        <time>2026-05-28T09:06:00.999Z</time>
      </trkpt>
      <trkpt lat="44.01131" lon="3.50541">
        <ele>1027.7</ele>
        <time>2026-05-28T09:06:01.999Z</time>
      </trkpt>
      <trkpt lat="44.01132" lon="3.50542">
        <ele>1027.5</ele>
        <time>2026-05-28T09:06:02.999Z</time>
      </trkpt>
      <trkpt lat="44.01132" lon="3.50543">
        <ele>1027.4</ele>
        <time>2026-05-28T09:06:03.999Z</time>
      </trkpt>
      <trkpt lat="44.01132" lon="3.50545">
        <ele>1027.2</ele>
        <time>2026-05-28T09:06:04.999Z</time>
      </trkpt>
      <trkpt lat="44.01134" lon="3.50545">
        <ele>1027</ele>
        <time>2026-05-28T09:06:05.999Z</time>
      </trkpt>
      <trkpt lat="44.01135" lon="3.50545">
        <ele>1026.8</ele>
        <time>2026-05-28T09:06:06.999Z</time>
      </trkpt>
      <trkpt lat="44.01136" lon="3.50545">
        <ele>1026.4</ele>
        <time>2026-05-28T09:06:07.999Z</time>
      </trkpt>
      <trkpt lat="44.01136" lon="3.50546">
        <ele>1025.9</ele>
        <time>2026-05-28T09:06:08.999Z</time>
      </trkpt>
      <trkpt lat="44.01136" lon="3.50547">
        <ele>1026.1</ele>
        <time>2026-05-28T09:06:09.999Z</time>
      </trkpt>
      <trkpt lat="44.01136" lon="3.50547">
        <ele>1026.1</ele>
        <time>2026-05-28T09:06:10.999Z</time>
      </trkpt>
      <trkpt lat="44.01136" lon="3.50548">
        <ele>1026.6</ele>
        <time>2026-05-28T09:06:11.999Z</time>
      </trkpt>
      <trkpt lat="44.01136" lon="3.50548">
        <ele>1026.7</ele>
        <time>2026-05-28T09:06:12.999Z</time>
      </trkpt>
      <trkpt lat="44.01137" lon="3.50548">
        <ele>1026.7</ele>
        <time>2026-05-28T09:06:13.999Z</time>
      </trkpt>
      <trkpt lat="44.01137" lon="3.50548">
        <ele>1026.9</ele>
        <time>2026-05-28T09:06:14.999Z</time>
      </trkpt>
      <trkpt lat="44.01137" lon="3.50547">
        <ele>1027</ele>
        <time>2026-05-28T09:06:15.999Z</time>
      </trkpt>
      <trkpt lat="44.01137" lon="3.50547">
        <ele>1027.1</ele>
        <time>2026-05-28T09:06:16.999Z</time>
      </trkpt>
      <trkpt lat="44.01137" lon="3.50547">
        <ele>1027.3</ele>
        <time>2026-05-28T09:06:17.999Z</time>
      </trkpt>
      <trkpt lat="44.01138" lon="3.50547">
        <ele>1027.5</ele>
        <time>2026-05-28T09:06:18.999Z</time>
      </trkpt>
      <trkpt lat="44.01138" lon="3.50547">
        <ele>1027.5</ele>
        <time>2026-05-28T09:06:19.999Z</time>
      </trkpt>
      <trkpt lat="44.01138" lon="3.50547">
        <ele>1027.8</ele>
        <time>2026-05-28T09:06:20.999Z</time>
      </trkpt>
      <trkpt lat="44.01138" lon="3.50546">
        <ele>1027.9</ele>
        <time>2026-05-28T09:06:21.999Z</time>
      </trkpt>
      <trkpt lat="44.01138" lon="3.50546">
        <ele>1028.2</ele>
        <time>2026-05-28T09:06:22.999Z</time>
      </trkpt>
      <trkpt lat="44.01138" lon="3.50546">
        <ele>1028.2</ele>
        <time>2026-05-28T09:06:23.999Z</time>
      </trkpt>
      <trkpt lat="44.0114" lon="3.50546">
        <ele>1028.4</ele>
        <time>2026-05-28T09:06:24.999Z</time>
      </trkpt>
      <trkpt lat="44.0114" lon="3.50545">
        <ele>1028.5</ele>
        <time>2026-05-28T09:06:25.999Z</time>
      </trkpt>
      <trkpt lat="44.01141" lon="3.50545">
        <ele>1028.5</ele>
        <time>2026-05-28T09:06:26.999Z</time>
      </trkpt>
      <trkpt lat="44.01143" lon="3.50545">
        <ele>1028.5</ele>
        <time>2026-05-28T09:06:27.999Z</time>
      </trkpt>
      <trkpt lat="44.01144" lon="3.50546">
        <ele>1028.3</ele>
        <time>2026-05-28T09:06:28.999Z</time>
      </trkpt>
      <trkpt lat="44.01144" lon="3.50546">
        <ele>1028.2</ele>
        <time>2026-05-28T09:06:29.999Z</time>
      </trkpt>
      <trkpt lat="44.01146" lon="3.50547">
        <ele>1028.2</ele>
        <time>2026-05-28T09:06:30.999Z</time>
      </trkpt>
      <trkpt lat="44.01147" lon="3.50547">
        <ele>1028</ele>
        <time>2026-05-28T09:06:31.999Z</time>
      </trkpt>
      <trkpt lat="44.01148" lon="3.50547">
        <ele>1027.9</ele>
        <time>2026-05-28T09:06:32.999Z</time>
      </trkpt>
      <trkpt lat="44.01149" lon="3.50547">
        <ele>1028</ele>
        <time>2026-05-28T09:06:33.999Z</time>
      </trkpt>
      <trkpt lat="44.01151" lon="3.50547">
        <ele>1028</ele>
        <time>2026-05-28T09:06:34.999Z</time>
      </trkpt>
      <trkpt lat="44.01152" lon="3.50547">
        <ele>1027.9</ele>
        <time>2026-05-28T09:06:35.999Z</time>
      </trkpt>
      <trkpt lat="44.01153" lon="3.50548">
        <ele>1027.8</ele>
        <time>2026-05-28T09:06:36.999Z</time>
      </trkpt>
      <trkpt lat="44.01154" lon="3.50547">
        <ele>1028.4</ele>
        <time>2026-05-28T09:06:37.999Z</time>
      </trkpt>
      <trkpt lat="44.01154" lon="3.50548">
        <ele>1028.3</ele>
        <time>2026-05-28T09:06:38.999Z</time>
      </trkpt>
      <trkpt lat="44.01155" lon="3.50548">
        <ele>1028.2</ele>
        <time>2026-05-28T09:06:39.999Z</time>
      </trkpt>
      <trkpt lat="44.01156" lon="3.50549">
        <ele>1028.4</ele>
        <time>2026-05-28T09:06:40.999Z</time>
      </trkpt>
      <trkpt lat="44.01157" lon="3.5055">
        <ele>1028.5</ele>
        <time>2026-05-28T09:06:41.999Z</time>
      </trkpt>
      <trkpt lat="44.01159" lon="3.5055">
        <ele>1029.2</ele>
        <time>2026-05-28T09:06:42.999Z</time>
      </trkpt>
      <trkpt lat="44.01161" lon="3.5055">
        <ele>1029.5</ele>
        <time>2026-05-28T09:06:43.999Z</time>
      </trkpt>
      <trkpt lat="44.01161" lon="3.5055">
        <ele>1030</ele>
        <time>2026-05-28T09:06:44.999Z</time>
      </trkpt>
      <trkpt lat="44.01162" lon="3.5055">
        <ele>1030.3</ele>
        <time>2026-05-28T09:06:45.999Z</time>
      </trkpt>
      <trkpt lat="44.01164" lon="3.5055">
        <ele>1030.8</ele>
        <time>2026-05-28T09:06:46.999Z</time>
      </trkpt>
      <trkpt lat="44.01166" lon="3.5055">
        <ele>1031.4</ele>
        <time>2026-05-28T09:06:47.999Z</time>
      </trkpt>
      <trkpt lat="44.01166" lon="3.5055">
        <ele>1031.7</ele>
        <time>2026-05-28T09:06:48.999Z</time>
      </trkpt>
      <trkpt lat="44.01167" lon="3.5055">
        <ele>1032.2</ele>
        <time>2026-05-28T09:06:49.999Z</time>
      </trkpt>
      <trkpt lat="44.01169" lon="3.5055">
        <ele>1033.1</ele>
        <time>2026-05-28T09:06:50.999Z</time>
      </trkpt>
      <trkpt lat="44.0117" lon="3.50549">
        <ele>1033.8</ele>
        <time>2026-05-28T09:06:51.999Z</time>
      </trkpt>
      <trkpt lat="44.0117" lon="3.5055">
        <ele>1034.2</ele>
        <time>2026-05-28T09:06:52.999Z</time>
      </trkpt>
      <trkpt lat="44.01171" lon="3.5055">
        <ele>1034.4</ele>
        <time>2026-05-28T09:06:53.999Z</time>
      </trkpt>
      <trkpt lat="44.01172" lon="3.50549">
        <ele>1034.6</ele>
        <time>2026-05-28T09:06:54.999Z</time>
      </trkpt>
      <trkpt lat="44.01172" lon="3.50549">
        <ele>1034.7</ele>
        <time>2026-05-28T09:06:55.999Z</time>
      </trkpt>
      <trkpt lat="44.01172" lon="3.50549">
        <ele>1034.8</ele>
        <time>2026-05-28T09:06:56.999Z</time>
      </trkpt>
      <trkpt lat="44.01173" lon="3.50548">
        <ele>1035.1</ele>
        <time>2026-05-28T09:06:58.999Z</time>
      </trkpt>
      <trkpt lat="44.01174" lon="3.50548">
        <ele>1035.3</ele>
        <time>2026-05-28T09:06:59.999Z</time>
      </trkpt>
      <trkpt lat="44.01175" lon="3.50547">
        <ele>1035.4</ele>
        <time>2026-05-28T09:07:00.999Z</time>
      </trkpt>
      <trkpt lat="44.01175" lon="3.50546">
        <ele>1035.5</ele>
        <time>2026-05-28T09:07:01.999Z</time>
      </trkpt>
      <trkpt lat="44.01176" lon="3.50546">
        <ele>1035.6</ele>
        <time>2026-05-28T09:07:02.999Z</time>
      </trkpt>
      <trkpt lat="44.01177" lon="3.50545">
        <ele>1035.7</ele>
        <time>2026-05-28T09:07:03.999Z</time>
      </trkpt>
      <trkpt lat="44.01178" lon="3.50544">
        <ele>1035.6</ele>
        <time>2026-05-28T09:07:04.999Z</time>
      </trkpt>
      <trkpt lat="44.01179" lon="3.50543">
        <ele>1035.4</ele>
        <time>2026-05-28T09:07:05.999Z</time>
      </trkpt>
      <trkpt lat="44.01182" lon="3.50542">
        <ele>1035.4</ele>
        <time>2026-05-28T09:07:07.999Z</time>
      </trkpt>
      <trkpt lat="44.01182" lon="3.50542">
        <ele>1035.3</ele>
        <time>2026-05-28T09:07:08.999Z</time>
      </trkpt>
      <trkpt lat="44.01183" lon="3.50542">
        <ele>1035.5</ele>
        <time>2026-05-28T09:07:09.999Z</time>
      </trkpt>
      <trkpt lat="44.01184" lon="3.50542">
        <ele>1035.4</ele>
        <time>2026-05-28T09:07:10.999Z</time>
      </trkpt>
      <trkpt lat="44.01185" lon="3.50542">
        <ele>1035.1</ele>
        <time>2026-05-28T09:07:11.999Z</time>
      </trkpt>
      <trkpt lat="44.01185" lon="3.50543">
        <ele>1034.4</ele>
        <time>2026-05-28T09:07:12.999Z</time>
      </trkpt>
      <trkpt lat="44.01185" lon="3.50544">
        <ele>1034</ele>
        <time>2026-05-28T09:07:13.999Z</time>
      </trkpt>
      <trkpt lat="44.01186" lon="3.50544">
        <ele>1033.9</ele>
        <time>2026-05-28T09:07:14.999Z</time>
      </trkpt>
      <trkpt lat="44.01186" lon="3.50544">
        <ele>1033.9</ele>
        <time>2026-05-28T09:07:15.999Z</time>
      </trkpt>
      <trkpt lat="44.01187" lon="3.50545">
        <ele>1033.5</ele>
        <time>2026-05-28T09:07:16.999Z</time>
      </trkpt>
      <trkpt lat="44.01187" lon="3.50546">
        <ele>1033.6</ele>
        <time>2026-05-28T09:07:17.999Z</time>
      </trkpt>
      <trkpt lat="44.01187" lon="3.50546">
        <ele>1033.8</ele>
        <time>2026-05-28T09:07:18.999Z</time>
      </trkpt>
      <trkpt lat="44.01187" lon="3.50547">
        <ele>1033.7</ele>
        <time>2026-05-28T09:07:19.999Z</time>
      </trkpt>
      <trkpt lat="44.01188" lon="3.50547">
        <ele>1033.8</ele>
        <time>2026-05-28T09:07:21.999Z</time>
      </trkpt>
      <trkpt lat="44.01188" lon="3.50547">
        <ele>1033.8</ele>
        <time>2026-05-28T09:07:22.999Z</time>
      </trkpt>
      <trkpt lat="44.01188" lon="3.50547">
        <ele>1033.9</ele>
        <time>2026-05-28T09:07:23.999Z</time>
      </trkpt>
      <trkpt lat="44.01187" lon="3.50547">
        <ele>1033.9</ele>
        <time>2026-05-28T09:07:24.999Z</time>
      </trkpt>
      <trkpt lat="44.01187" lon="3.50547">
        <ele>1033.8</ele>
        <time>2026-05-28T09:07:25.999Z</time>
      </trkpt>
      <trkpt lat="44.01187" lon="3.50547">
        <ele>1033.8</ele>
        <time>2026-05-28T09:07:26.999Z</time>
      </trkpt>
      <trkpt lat="44.01187" lon="3.50547">
        <ele>1033.6</ele>
        <time>2026-05-28T09:07:27.999Z</time>
      </trkpt>
      <trkpt lat="44.01187" lon="3.50547">
        <ele>1033.8</ele>
        <time>2026-05-28T09:07:28.999Z</time>
      </trkpt>
      <trkpt lat="44.01187" lon="3.50547">
        <ele>1033.8</ele>
        <time>2026-05-28T09:07:29.999Z</time>
      </trkpt>
      <trkpt lat="44.01188" lon="3.50547">
        <ele>1033.8</ele>
        <time>2026-05-28T09:07:30.999Z</time>
      </trkpt>
      <trkpt lat="44.01188" lon="3.50547">
        <ele>1033.8</ele>
        <time>2026-05-28T09:07:31.999Z</time>
      </trkpt>
      <trkpt lat="44.01188" lon="3.50548">
        <ele>1033.7</ele>
        <time>2026-05-28T09:07:32.999Z</time>
      </trkpt>
      <trkpt lat="44.01188" lon="3.50548">
        <ele>1034</ele>
        <time>2026-05-28T09:07:33.999Z</time>
      </trkpt>
      <trkpt lat="44.01188" lon="3.50548">
        <ele>1034.3</ele>
        <time>2026-05-28T09:07:34.999Z</time>
      </trkpt>
      <trkpt lat="44.01189" lon="3.50549">
        <ele>1035</ele>
        <time>2026-05-28T09:07:35.999Z</time>
      </trkpt>
      <trkpt lat="44.0119" lon="3.50551">
        <ele>1035.4</ele>
        <time>2026-05-28T09:07:36.999Z</time>
      </trkpt>
      <trkpt lat="44.01191" lon="3.50551">
        <ele>1035.4</ele>
        <time>2026-05-28T09:07:37.999Z</time>
      </trkpt>
      <trkpt lat="44.01192" lon="3.50551">
        <ele>1035.1</ele>
        <time>2026-05-28T09:07:38.999Z</time>
      </trkpt>
      <trkpt lat="44.01193" lon="3.50551">
        <ele>1034.9</ele>
        <time>2026-05-28T09:07:39.999Z</time>
      </trkpt>
      <trkpt lat="44.01194" lon="3.50551">
        <ele>1035</ele>
        <time>2026-05-28T09:07:40.999Z</time>
      </trkpt>
      <trkpt lat="44.01195" lon="3.50552">
        <ele>1035</ele>
        <time>2026-05-28T09:07:41.999Z</time>
      </trkpt>
      <trkpt lat="44.01195" lon="3.50552">
        <ele>1035</ele>
        <time>2026-05-28T09:07:42.999Z</time>
      </trkpt>
      <trkpt lat="44.01196" lon="3.50552">
        <ele>1034.7</ele>
        <time>2026-05-28T09:07:43.999Z</time>
      </trkpt>
      <trkpt lat="44.01197" lon="3.50552">
        <ele>1034.3</ele>
        <time>2026-05-28T09:07:44.999Z</time>
      </trkpt>
      <trkpt lat="44.01199" lon="3.50552">
        <ele>1034.4</ele>
        <time>2026-05-28T09:07:45.999Z</time>
      </trkpt>
      <trkpt lat="44.01199" lon="3.50552">
        <ele>1034.5</ele>
        <time>2026-05-28T09:07:46.999Z</time>
      </trkpt>
      <trkpt lat="44.01199" lon="3.50552">
        <ele>1034.4</ele>
        <time>2026-05-28T09:07:47.999Z</time>
      </trkpt>
      <trkpt lat="44.01199" lon="3.50552">
        <ele>1034.8</ele>
        <time>2026-05-28T09:07:48.999Z</time>
      </trkpt>
      <trkpt lat="44.01199" lon="3.50552">
        <ele>1035</ele>
        <time>2026-05-28T09:07:49.999Z</time>
      </trkpt>
      <trkpt lat="44.01199" lon="3.50552">
        <ele>1035.1</ele>
        <time>2026-05-28T09:07:50.999Z</time>
      </trkpt>
      <trkpt lat="44.01199" lon="3.50552">
        <ele>1035.2</ele>
        <time>2026-05-28T09:07:51.999Z</time>
      </trkpt>
      <trkpt lat="44.012" lon="3.50552">
        <ele>1035</ele>
        <time>2026-05-28T09:07:52.999Z</time>
      </trkpt>
      <trkpt lat="44.012" lon="3.50553">
        <ele>1034.7</ele>
        <time>2026-05-28T09:07:53.999Z</time>
      </trkpt>
      <trkpt lat="44.01201" lon="3.50553">
        <ele>1034.6</ele>
        <time>2026-05-28T09:07:54.999Z</time>
      </trkpt>
      <trkpt lat="44.01201" lon="3.50553">
        <ele>1034.5</ele>
        <time>2026-05-28T09:07:55.999Z</time>
      </trkpt>
      <trkpt lat="44.01201" lon="3.50553">
        <ele>1034.6</ele>
        <time>2026-05-28T09:07:56.999Z</time>
      </trkpt>
      <trkpt lat="44.01201" lon="3.50552">
        <ele>1034.5</ele>
        <time>2026-05-28T09:07:57.999Z</time>
      </trkpt>
      <trkpt lat="44.01201" lon="3.50553">
        <ele>1034.4</ele>
        <time>2026-05-28T09:07:58.999Z</time>
      </trkpt>
      <trkpt lat="44.01201" lon="3.50552">
        <ele>1034.4</ele>
        <time>2026-05-28T09:07:59.999Z</time>
      </trkpt>
      <trkpt lat="44.01202" lon="3.50552">
        <ele>1034.5</ele>
        <time>2026-05-28T09:08:00.999Z</time>
      </trkpt>
      <trkpt lat="44.01202" lon="3.50552">
        <ele>1034.5</ele>
        <time>2026-05-28T09:08:01.999Z</time>
      </trkpt>
      <trkpt lat="44.01202" lon="3.50553">
        <ele>1034.3</ele>
        <time>2026-05-28T09:08:02.999Z</time>
      </trkpt>
      <trkpt lat="44.01202" lon="3.50553">
        <ele>1034.2</ele>
        <time>2026-05-28T09:08:03.999Z</time>
      </trkpt>
      <trkpt lat="44.01202" lon="3.50552">
        <ele>1034.1</ele>
        <time>2026-05-28T09:08:04.999Z</time>
      </trkpt>
      <trkpt lat="44.01203" lon="3.50552">
        <ele>1033.9</ele>
        <time>2026-05-28T09:08:05.999Z</time>
      </trkpt>
      <trkpt lat="44.01204" lon="3.50552">
        <ele>1033.9</ele>
        <time>2026-05-28T09:08:06.999Z</time>
      </trkpt>
      <trkpt lat="44.01207" lon="3.50551">
        <ele>1033.6</ele>
        <time>2026-05-28T09:08:08.999Z</time>
      </trkpt>
      <trkpt lat="44.01209" lon="3.50551">
        <ele>1033.5</ele>
        <time>2026-05-28T09:08:09.999Z</time>
      </trkpt>
      <trkpt lat="44.0121" lon="3.50551">
        <ele>1033.4</ele>
        <time>2026-05-28T09:08:10.999Z</time>
      </trkpt>
      <trkpt lat="44.01213" lon="3.50551">
        <ele>1033.3</ele>
        <time>2026-05-28T09:08:11.999Z</time>
      </trkpt>
      <trkpt lat="44.01216" lon="3.5055">
        <ele>1033.4</ele>
        <time>2026-05-28T09:08:12.999Z</time>
      </trkpt>
      <trkpt lat="44.01218" lon="3.50551">
        <ele>1033.3</ele>
        <time>2026-05-28T09:08:13.999Z</time>
      </trkpt>
      <trkpt lat="44.0122" lon="3.5055">
        <ele>1033.4</ele>
        <time>2026-05-28T09:08:14.999Z</time>
      </trkpt>
      <trkpt lat="44.01222" lon="3.5055">
        <ele>1033.4</ele>
        <time>2026-05-28T09:08:15.999Z</time>
      </trkpt>
      <trkpt lat="44.01225" lon="3.50549">
        <ele>1033.5</ele>
        <time>2026-05-28T09:08:16.999Z</time>
      </trkpt>
      <trkpt lat="44.01227" lon="3.50549">
        <ele>1033.5</ele>
        <time>2026-05-28T09:08:17.999Z</time>
      </trkpt>
      <trkpt lat="44.01229" lon="3.50549">
        <ele>1033.6</ele>
        <time>2026-05-28T09:08:18.999Z</time>
      </trkpt>
      <trkpt lat="44.0123" lon="3.50549">
        <ele>1033.4</ele>
        <time>2026-05-28T09:08:19.999Z</time>
      </trkpt>
      <trkpt lat="44.01232" lon="3.50549">
        <ele>1033.2</ele>
        <time>2026-05-28T09:08:20.999Z</time>
      </trkpt>
      <trkpt lat="44.01233" lon="3.50549">
        <ele>1033.3</ele>
        <time>2026-05-28T09:08:21.999Z</time>
      </trkpt>
      <trkpt lat="44.01235" lon="3.5055">
        <ele>1033.3</ele>
        <time>2026-05-28T09:08:23.999Z</time>
      </trkpt>
      <trkpt lat="44.01236" lon="3.5055">
        <ele>1033.2</ele>
        <time>2026-05-28T09:08:24.999Z</time>
      </trkpt>
      <trkpt lat="44.01236" lon="3.5055">
        <ele>1033.3</ele>
        <time>2026-05-28T09:08:25.999Z</time>
      </trkpt>
      <trkpt lat="44.01236" lon="3.5055">
        <ele>1033.2</ele>
        <time>2026-05-28T09:08:26.999Z</time>
      </trkpt>
      <trkpt lat="44.01237" lon="3.5055">
        <ele>1033.2</ele>
        <time>2026-05-28T09:08:27.999Z</time>
      </trkpt>
      <trkpt lat="44.01237" lon="3.5055">
        <ele>1033.4</ele>
        <time>2026-05-28T09:08:28.999Z</time>
      </trkpt>
      <trkpt lat="44.01238" lon="3.5055">
        <ele>1033.2</ele>
        <time>2026-05-28T09:08:29.999Z</time>
      </trkpt>
      <trkpt lat="44.01239" lon="3.50549">
        <ele>1032.8</ele>
        <time>2026-05-28T09:08:30.999Z</time>
      </trkpt>
      <trkpt lat="44.01241" lon="3.50549">
        <ele>1032.6</ele>
        <time>2026-05-28T09:08:31.999Z</time>
      </trkpt>
      <trkpt lat="44.01241" lon="3.50549">
        <ele>1032.6</ele>
        <time>2026-05-28T09:08:32.999Z</time>
      </trkpt>
      <trkpt lat="44.01242" lon="3.50549">
        <ele>1032.1</ele>
        <time>2026-05-28T09:08:34.999Z</time>
      </trkpt>
      <trkpt lat="44.01242" lon="3.5055">
        <ele>1031.6</ele>
        <time>2026-05-28T09:08:35.999Z</time>
      </trkpt>
      <trkpt lat="44.01242" lon="3.50551">
        <ele>1031.4</ele>
        <time>2026-05-28T09:08:36.999Z</time>
      </trkpt>
      <trkpt lat="44.01243" lon="3.50551">
        <ele>1031.2</ele>
        <time>2026-05-28T09:08:37.999Z</time>
      </trkpt>
      <trkpt lat="44.01243" lon="3.50551">
        <ele>1031.3</ele>
        <time>2026-05-28T09:08:38.999Z</time>
      </trkpt>
      <trkpt lat="44.01244" lon="3.50551">
        <ele>1031.9</ele>
        <time>2026-05-28T09:08:39.999Z</time>
      </trkpt>
      <trkpt lat="44.01244" lon="3.50551">
        <ele>1032</ele>
        <time>2026-05-28T09:08:40.999Z</time>
      </trkpt>
      <trkpt lat="44.01245" lon="3.5055">
        <ele>1031.9</ele>
        <time>2026-05-28T09:08:41.999Z</time>
      </trkpt>
      <trkpt lat="44.01247" lon="3.50549">
        <ele>1031.7</ele>
        <time>2026-05-28T09:08:42.999Z</time>
      </trkpt>
      <trkpt lat="44.01248" lon="3.50547">
        <ele>1031.2</ele>
        <time>2026-05-28T09:08:43.999Z</time>
      </trkpt>
      <trkpt lat="44.01249" lon="3.50547">
        <ele>1031</ele>
        <time>2026-05-28T09:08:44.999Z</time>
      </trkpt>
      <trkpt lat="44.01249" lon="3.50547">
        <ele>1031</ele>
        <time>2026-05-28T09:08:45.999Z</time>
      </trkpt>
      <trkpt lat="44.0125" lon="3.50546">
        <ele>1030.9</ele>
        <time>2026-05-28T09:08:46.999Z</time>
      </trkpt>
      <trkpt lat="44.01251" lon="3.50547">
        <ele>1030.5</ele>
        <time>2026-05-28T09:08:47.999Z</time>
      </trkpt>
      <trkpt lat="44.01252" lon="3.50546">
        <ele>1030.4</ele>
        <time>2026-05-28T09:08:48.999Z</time>
      </trkpt>
      <trkpt lat="44.01254" lon="3.50546">
        <ele>1030.6</ele>
        <time>2026-05-28T09:08:49.999Z</time>
      </trkpt>
      <trkpt lat="44.01255" lon="3.50546">
        <ele>1030.8</ele>
        <time>2026-05-28T09:08:50.999Z</time>
      </trkpt>
      <trkpt lat="44.01256" lon="3.50545">
        <ele>1030.7</ele>
        <time>2026-05-28T09:08:51.999Z</time>
      </trkpt>
      <trkpt lat="44.01257" lon="3.50545">
        <ele>1030.7</ele>
        <time>2026-05-28T09:08:52.999Z</time>
      </trkpt>
      <trkpt lat="44.01258" lon="3.50544">
        <ele>1030.5</ele>
        <time>2026-05-28T09:08:53.999Z</time>
      </trkpt>
      <trkpt lat="44.01259" lon="3.50544">
        <ele>1030.2</ele>
        <time>2026-05-28T09:08:54.999Z</time>
      </trkpt>
      <trkpt lat="44.0126" lon="3.50545">
        <ele>1030.2</ele>
        <time>2026-05-28T09:08:55.999Z</time>
      </trkpt>
      <trkpt lat="44.01261" lon="3.50546">
        <ele>1030.2</ele>
        <time>2026-05-28T09:08:56.999Z</time>
      </trkpt>
      <trkpt lat="44.01263" lon="3.50546">
        <ele>1030.1</ele>
        <time>2026-05-28T09:08:57.999Z</time>
      </trkpt>
      <trkpt lat="44.01263" lon="3.50546">
        <ele>1030.2</ele>
        <time>2026-05-28T09:08:58.999Z</time>
      </trkpt>
      <trkpt lat="44.01264" lon="3.50546">
        <ele>1029.9</ele>
        <time>2026-05-28T09:08:59.999Z</time>
      </trkpt>
      <trkpt lat="44.01265" lon="3.50546">
        <ele>1029.7</ele>
        <time>2026-05-28T09:09:00.999Z</time>
      </trkpt>
      <trkpt lat="44.01266" lon="3.50546">
        <ele>1029.7</ele>
        <time>2026-05-28T09:09:01.999Z</time>
      </trkpt>
      <trkpt lat="44.01266" lon="3.50546">
        <ele>1029.3</ele>
        <time>2026-05-28T09:09:02.999Z</time>
      </trkpt>
      <trkpt lat="44.01267" lon="3.50546">
        <ele>1028.8</ele>
        <time>2026-05-28T09:09:03.999Z</time>
      </trkpt>
      <trkpt lat="44.01268" lon="3.50545">
        <ele>1028.6</ele>
        <time>2026-05-28T09:09:04.999Z</time>
      </trkpt>
      <trkpt lat="44.01269" lon="3.50545">
        <ele>1028.4</ele>
        <time>2026-05-28T09:09:05.999Z</time>
      </trkpt>
      <trkpt lat="44.0127" lon="3.50545">
        <ele>1028.3</ele>
        <time>2026-05-28T09:09:06.999Z</time>
      </trkpt>
      <trkpt lat="44.0127" lon="3.50546">
        <ele>1028</ele>
        <time>2026-05-28T09:09:07.999Z</time>
      </trkpt>
      <trkpt lat="44.01271" lon="3.50546">
        <ele>1027.9</ele>
        <time>2026-05-28T09:09:08.999Z</time>
      </trkpt>
      <trkpt lat="44.01272" lon="3.50545">
        <ele>1027.9</ele>
        <time>2026-05-28T09:09:09.999Z</time>
      </trkpt>
      <trkpt lat="44.01273" lon="3.50545">
        <ele>1028</ele>
        <time>2026-05-28T09:09:10.999Z</time>
      </trkpt>
      <trkpt lat="44.01275" lon="3.50544">
        <ele>1028.1</ele>
        <time>2026-05-28T09:09:11.999Z</time>
      </trkpt>
      <trkpt lat="44.01276" lon="3.50543">
        <ele>1028.2</ele>
        <time>2026-05-28T09:09:12.999Z</time>
      </trkpt>
      <trkpt lat="44.01276" lon="3.50543">
        <ele>1028.2</ele>
        <time>2026-05-28T09:09:13.999Z</time>
      </trkpt>
      <trkpt lat="44.01277" lon="3.50542">
        <ele>1028.2</ele>
        <time>2026-05-28T09:09:14.999Z</time>
      </trkpt>
      <trkpt lat="44.01278" lon="3.50542">
        <ele>1028.1</ele>
        <time>2026-05-28T09:09:15.999Z</time>
      </trkpt>
      <trkpt lat="44.01278" lon="3.50542">
        <ele>1028.1</ele>
        <time>2026-05-28T09:09:16.999Z</time>
      </trkpt>
      <trkpt lat="44.01278" lon="3.50542">
        <ele>1028</ele>
        <time>2026-05-28T09:09:17.999Z</time>
      </trkpt>
      <trkpt lat="44.01279" lon="3.50542">
        <ele>1028</ele>
        <time>2026-05-28T09:09:18.999Z</time>
      </trkpt>
      <trkpt lat="44.01279" lon="3.50542">
        <ele>1028</ele>
        <time>2026-05-28T09:09:19.999Z</time>
      </trkpt>
      <trkpt lat="44.0128" lon="3.50542">
        <ele>1028</ele>
        <time>2026-05-28T09:09:20.999Z</time>
      </trkpt>
      <trkpt lat="44.0128" lon="3.50542">
        <ele>1028</ele>
        <time>2026-05-28T09:09:21.999Z</time>
      </trkpt>
      <trkpt lat="44.01281" lon="3.50541">
        <ele>1028.2</ele>
        <time>2026-05-28T09:09:22.999Z</time>
      </trkpt>
      <trkpt lat="44.01282" lon="3.50542">
        <ele>1028.2</ele>
        <time>2026-05-28T09:09:23.999Z</time>
      </trkpt>
      <trkpt lat="44.01284" lon="3.50542">
        <ele>1027.9</ele>
        <time>2026-05-28T09:09:24.999Z</time>
      </trkpt>
      <trkpt lat="44.01285" lon="3.50542">
        <ele>1027.5</ele>
        <time>2026-05-28T09:09:25.999Z</time>
      </trkpt>
      <trkpt lat="44.01286" lon="3.50542">
        <ele>1027.4</ele>
        <time>2026-05-28T09:09:26.999Z</time>
      </trkpt>
      <trkpt lat="44.01287" lon="3.50542">
        <ele>1027.3</ele>
        <time>2026-05-28T09:09:27.999Z</time>
      </trkpt>
      <trkpt lat="44.01289" lon="3.50542">
        <ele>1027.2</ele>
        <time>2026-05-28T09:09:28.999Z</time>
      </trkpt>
      <trkpt lat="44.01289" lon="3.50543">
        <ele>1027.6</ele>
        <time>2026-05-28T09:09:29.999Z</time>
      </trkpt>
      <trkpt lat="44.0129" lon="3.50543">
        <ele>1027.6</ele>
        <time>2026-05-28T09:09:30.999Z</time>
      </trkpt>
      <trkpt lat="44.01291" lon="3.50543">
        <ele>1027.4</ele>
        <time>2026-05-28T09:09:31.999Z</time>
      </trkpt>
      <trkpt lat="44.01291" lon="3.50543">
        <ele>1027.2</ele>
        <time>2026-05-28T09:09:32.999Z</time>
      </trkpt>
      <trkpt lat="44.01292" lon="3.50543">
        <ele>1027.2</ele>
        <time>2026-05-28T09:09:33.999Z</time>
      </trkpt>
      <trkpt lat="44.01292" lon="3.50543">
        <ele>1027.1</ele>
        <time>2026-05-28T09:09:34.999Z</time>
      </trkpt>
      <trkpt lat="44.01293" lon="3.50543">
        <ele>1027.5</ele>
        <time>2026-05-28T09:09:35.999Z</time>
      </trkpt>
      <trkpt lat="44.01293" lon="3.50543">
        <ele>1027.2</ele>
        <time>2026-05-28T09:09:36.999Z</time>
      </trkpt>
      <trkpt lat="44.01294" lon="3.50543">
        <ele>1027.2</ele>
        <time>2026-05-28T09:09:37.999Z</time>
      </trkpt>
      <trkpt lat="44.01294" lon="3.50543">
        <ele>1027.1</ele>
        <time>2026-05-28T09:09:38.999Z</time>
      </trkpt>
      <trkpt lat="44.01295" lon="3.50544">
        <ele>1026.8</ele>
        <time>2026-05-28T09:09:39.999Z</time>
      </trkpt>
      <trkpt lat="44.01295" lon="3.50544">
        <ele>1026.7</ele>
        <time>2026-05-28T09:09:40.999Z</time>
      </trkpt>
      <trkpt lat="44.01296" lon="3.50544">
        <ele>1026.7</ele>
        <time>2026-05-28T09:09:41.999Z</time>
      </trkpt>
      <trkpt lat="44.01297" lon="3.50543">
        <ele>1026.6</ele>
        <time>2026-05-28T09:09:42.999Z</time>
      </trkpt>
      <trkpt lat="44.01297" lon="3.50543">
        <ele>1027.5</ele>
        <time>2026-05-28T09:09:43.999Z</time>
      </trkpt>
      <trkpt lat="44.01297" lon="3.50542">
        <ele>1027.9</ele>
        <time>2026-05-28T09:09:44.999Z</time>
      </trkpt>
      <trkpt lat="44.01298" lon="3.50542">
        <ele>1027.8</ele>
        <time>2026-05-28T09:09:45.999Z</time>
      </trkpt>
      <trkpt lat="44.01298" lon="3.50541">
        <ele>1027.6</ele>
        <time>2026-05-28T09:09:46.999Z</time>
      </trkpt>
      <trkpt lat="44.01298" lon="3.50541">
        <ele>1027.7</ele>
        <time>2026-05-28T09:09:47.999Z</time>
      </trkpt>
      <trkpt lat="44.01298" lon="3.50541">
        <ele>1027.6</ele>
        <time>2026-05-28T09:09:48.999Z</time>
      </trkpt>
      <trkpt lat="44.01299" lon="3.50541">
        <ele>1027.4</ele>
        <time>2026-05-28T09:09:49.999Z</time>
      </trkpt>
      <trkpt lat="44.01299" lon="3.50541">
        <ele>1027.5</ele>
        <time>2026-05-28T09:09:50.999Z</time>
      </trkpt>
      <trkpt lat="44.01299" lon="3.5054">
        <ele>1027.1</ele>
        <time>2026-05-28T09:09:51.999Z</time>
      </trkpt>
      <trkpt lat="44.013" lon="3.5054">
        <ele>1026.6</ele>
        <time>2026-05-28T09:09:52.999Z</time>
      </trkpt>
      <trkpt lat="44.013" lon="3.5054">
        <ele>1026.4</ele>
        <time>2026-05-28T09:09:53.999Z</time>
      </trkpt>
      <trkpt lat="44.01301" lon="3.50539">
        <ele>1026.3</ele>
        <time>2026-05-28T09:09:54.999Z</time>
      </trkpt>
      <trkpt lat="44.01301" lon="3.50539">
        <ele>1026.2</ele>
        <time>2026-05-28T09:09:55.999Z</time>
      </trkpt>
      <trkpt lat="44.01301" lon="3.50539">
        <ele>1025.9</ele>
        <time>2026-05-28T09:09:56.999Z</time>
      </trkpt>
      <trkpt lat="44.01301" lon="3.50539">
        <ele>1025.6</ele>
        <time>2026-05-28T09:09:57.999Z</time>
      </trkpt>
      <trkpt lat="44.01301" lon="3.50539">
        <ele>1025.4</ele>
        <time>2026-05-28T09:09:58.999Z</time>
      </trkpt>
      <trkpt lat="44.01301" lon="3.50539">
        <ele>1025.2</ele>
        <time>2026-05-28T09:09:59.999Z</time>
      </trkpt>
      <trkpt lat="44.01301" lon="3.50539">
        <ele>1025.1</ele>
        <time>2026-05-28T09:10:00.999Z</time>
      </trkpt>
      <trkpt lat="44.01301" lon="3.50539">
        <ele>1025.1</ele>
        <time>2026-05-28T09:10:01.999Z</time>
      </trkpt>
      <trkpt lat="44.01301" lon="3.50539">
        <ele>1025.2</ele>
        <time>2026-05-28T09:10:02.999Z</time>
      </trkpt>
      <trkpt lat="44.01301" lon="3.50539">
        <ele>1025.2</ele>
        <time>2026-05-28T09:10:03.999Z</time>
      </trkpt>
      <trkpt lat="44.01301" lon="3.50539">
        <ele>1025.2</ele>
        <time>2026-05-28T09:10:04.999Z</time>
      </trkpt>
      <trkpt lat="44.01301" lon="3.50539">
        <ele>1025.1</ele>
        <time>2026-05-28T09:10:05.999Z</time>
      </trkpt>
      <trkpt lat="44.01301" lon="3.50539">
        <ele>1025.2</ele>
        <time>2026-05-28T09:10:06.999Z</time>
      </trkpt>
      <trkpt lat="44.01301" lon="3.50539">
        <ele>1025.6</ele>
        <time>2026-05-28T09:10:07.999Z</time>
      </trkpt>
      <trkpt lat="44.01301" lon="3.50539">
        <ele>1026.1</ele>
        <time>2026-05-28T09:10:09.999Z</time>
      </trkpt>
      <trkpt lat="44.013" lon="3.5054">
        <ele>1026.8</ele>
        <time>2026-05-28T09:10:10.999Z</time>
      </trkpt>
      <trkpt lat="44.013" lon="3.50541">
        <ele>1027.5</ele>
        <time>2026-05-28T09:10:11.999Z</time>
      </trkpt>
      <trkpt lat="44.013" lon="3.50541">
        <ele>1027.8</ele>
        <time>2026-05-28T09:10:12.999Z</time>
      </trkpt>
      <trkpt lat="44.013" lon="3.50542">
        <ele>1028.4</ele>
        <time>2026-05-28T09:10:13.999Z</time>
      </trkpt>
      <trkpt lat="44.01299" lon="3.50543">
        <ele>1028.9</ele>
        <time>2026-05-28T09:10:14.999Z</time>
      </trkpt>
      <trkpt lat="44.01299" lon="3.50543">
        <ele>1029.8</ele>
        <time>2026-05-28T09:10:15.999Z</time>
      </trkpt>
      <trkpt lat="44.01299" lon="3.50543">
        <ele>1030.7</ele>
        <time>2026-05-28T09:10:16.999Z</time>
      </trkpt>
      <trkpt lat="44.01299" lon="3.50543">
        <ele>1031.2</ele>
        <time>2026-05-28T09:10:17.999Z</time>
      </trkpt>
      <trkpt lat="44.01299" lon="3.50543">
        <ele>1031.5</ele>
        <time>2026-05-28T09:10:18.999Z</time>
      </trkpt>
      <trkpt lat="44.01299" lon="3.50542">
        <ele>1031.8</ele>
        <time>2026-05-28T09:10:19.999Z</time>
      </trkpt>
      <trkpt lat="44.01299" lon="3.50542">
        <ele>1032.1</ele>
        <time>2026-05-28T09:10:20.999Z</time>
      </trkpt>
      <trkpt lat="44.01299" lon="3.50543">
        <ele>1032.1</ele>
        <time>2026-05-28T09:10:21.999Z</time>
      </trkpt>
      <trkpt lat="44.01299" lon="3.50543">
        <ele>1032.3</ele>
        <time>2026-05-28T09:10:22.999Z</time>
      </trkpt>
      <trkpt lat="44.01299" lon="3.50542">
        <ele>1032.7</ele>
        <time>2026-05-28T09:10:23.999Z</time>
      </trkpt>
      <trkpt lat="44.01299" lon="3.50542">
        <ele>1033.2</ele>
        <time>2026-05-28T09:10:24.999Z</time>
      </trkpt>
      <trkpt lat="44.01299" lon="3.50542">
        <ele>1033.4</ele>
        <time>2026-05-28T09:10:25.999Z</time>
      </trkpt>
      <trkpt lat="44.01299" lon="3.50542">
        <ele>1033.7</ele>
        <time>2026-05-28T09:10:26.999Z</time>
      </trkpt>
      <trkpt lat="44.01299" lon="3.50542">
        <ele>1033.6</ele>
        <time>2026-05-28T09:10:27.999Z</time>
      </trkpt>
      <trkpt lat="44.01299" lon="3.50542">
        <ele>1034.1</ele>
        <time>2026-05-28T09:10:28.999Z</time>
      </trkpt>
      <trkpt lat="44.01299" lon="3.50542">
        <ele>1034.3</ele>
        <time>2026-05-28T09:10:29.999Z</time>
      </trkpt>
      <trkpt lat="44.013" lon="3.50541">
        <ele>1034.6</ele>
        <time>2026-05-28T09:10:30.999Z</time>
      </trkpt>
      <trkpt lat="44.013" lon="3.5054">
        <ele>1035.1</ele>
        <time>2026-05-28T09:10:31.999Z</time>
      </trkpt>
      <trkpt lat="44.013" lon="3.50538">
        <ele>1035.5</ele>
        <time>2026-05-28T09:10:32.999Z</time>
      </trkpt>
      <trkpt lat="44.013" lon="3.50538">
        <ele>1035.8</ele>
        <time>2026-05-28T09:10:33.999Z</time>
      </trkpt>
      <trkpt lat="44.013" lon="3.50538">
        <ele>1035.7</ele>
        <time>2026-05-28T09:10:34.999Z</time>
      </trkpt>
      <trkpt lat="44.01301" lon="3.50538">
        <ele>1035.7</ele>
        <time>2026-05-28T09:10:35.999Z</time>
      </trkpt>
      <trkpt lat="44.01301" lon="3.50537">
        <ele>1035.5</ele>
        <time>2026-05-28T09:10:36.999Z</time>
      </trkpt>
      <trkpt lat="44.01301" lon="3.50537">
        <ele>1035.5</ele>
        <time>2026-05-28T09:10:37.999Z</time>
      </trkpt>
      <trkpt lat="44.01302" lon="3.50537">
        <ele>1035.6</ele>
        <time>2026-05-28T09:10:38.999Z</time>
      </trkpt>
      <trkpt lat="44.01302" lon="3.50537">
        <ele>1035.7</ele>
        <time>2026-05-28T09:10:39.999Z</time>
      </trkpt>
      <trkpt lat="44.01301" lon="3.50537">
        <ele>1036.2</ele>
        <time>2026-05-28T09:10:40.999Z</time>
      </trkpt>
      <trkpt lat="44.01301" lon="3.50537">
        <ele>1036.4</ele>
        <time>2026-05-28T09:10:41.999Z</time>
      </trkpt>
      <trkpt lat="44.01301" lon="3.50537">
        <ele>1036.5</ele>
        <time>2026-05-28T09:10:42.999Z</time>
      </trkpt>
      <trkpt lat="44.01301" lon="3.50537">
        <ele>1036.7</ele>
        <time>2026-05-28T09:10:43.999Z</time>
      </trkpt>
      <trkpt lat="44.01301" lon="3.50537">
        <ele>1037.1</ele>
        <time>2026-05-28T09:10:44.999Z</time>
      </trkpt>
      <trkpt lat="44.01301" lon="3.50537">
        <ele>1037.3</ele>
        <time>2026-05-28T09:10:45.999Z</time>
      </trkpt>
      <trkpt lat="44.01302" lon="3.50536">
        <ele>1037.5</ele>
        <time>2026-05-28T09:10:46.999Z</time>
      </trkpt>
      <trkpt lat="44.01302" lon="3.50536">
        <ele>1037.7</ele>
        <time>2026-05-28T09:10:47.999Z</time>
      </trkpt>
      <trkpt lat="44.01302" lon="3.50537">
        <ele>1037.6</ele>
        <time>2026-05-28T09:10:48.999Z</time>
      </trkpt>
      <trkpt lat="44.01303" lon="3.50538">
        <ele>1037.5</ele>
        <time>2026-05-28T09:10:49.999Z</time>
      </trkpt>
      <trkpt lat="44.01303" lon="3.50539">
        <ele>1037.4</ele>
        <time>2026-05-28T09:10:50.999Z</time>
      </trkpt>
      <trkpt lat="44.01303" lon="3.50539">
        <ele>1037.5</ele>
        <time>2026-05-28T09:10:51.999Z</time>
      </trkpt>
      <trkpt lat="44.01303" lon="3.50539">
        <ele>1037.3</ele>
        <time>2026-05-28T09:10:52.999Z</time>
      </trkpt>
      <trkpt lat="44.01303" lon="3.50539">
        <ele>1037.2</ele>
        <time>2026-05-28T09:10:53.999Z</time>
      </trkpt>
      <trkpt lat="44.01303" lon="3.50539">
        <ele>1036.8</ele>
        <time>2026-05-28T09:10:54.999Z</time>
      </trkpt>
      <trkpt lat="44.01303" lon="3.50539">
        <ele>1036.9</ele>
        <time>2026-05-28T09:10:55.999Z</time>
      </trkpt>
      <trkpt lat="44.01303" lon="3.50539">
        <ele>1037.1</ele>
        <time>2026-05-28T09:10:56.999Z</time>
      </trkpt>
      <trkpt lat="44.01303" lon="3.50539">
        <ele>1037.6</ele>
        <time>2026-05-28T09:10:57.999Z</time>
      </trkpt>
      <trkpt lat="44.01303" lon="3.50539">
        <ele>1037.6</ele>
        <time>2026-05-28T09:10:58.999Z</time>
      </trkpt>
      <trkpt lat="44.01303" lon="3.50539">
        <ele>1037.6</ele>
        <time>2026-05-28T09:10:59.999Z</time>
      </trkpt>
      <trkpt lat="44.01303" lon="3.50539">
        <ele>1037.7</ele>
        <time>2026-05-28T09:11:00.999Z</time>
      </trkpt>
      <trkpt lat="44.01303" lon="3.50539">
        <ele>1038</ele>
        <time>2026-05-28T09:11:01.999Z</time>
      </trkpt>
      <trkpt lat="44.01303" lon="3.50539">
        <ele>1037.8</ele>
        <time>2026-05-28T09:11:02.999Z</time>
      </trkpt>
      <trkpt lat="44.01303" lon="3.50539">
        <ele>1037.7</ele>
        <time>2026-05-28T09:11:03.999Z</time>
      </trkpt>
      <trkpt lat="44.01303" lon="3.50538">
        <ele>1037.6</ele>
        <time>2026-05-28T09:11:04.999Z</time>
      </trkpt>
      <trkpt lat="44.01303" lon="3.50538">
        <ele>1037.2</ele>
        <time>2026-05-28T09:11:05.999Z</time>
      </trkpt>
      <trkpt lat="44.01304" lon="3.50538">
        <ele>1036.9</ele>
        <time>2026-05-28T09:11:06.999Z</time>
      </trkpt>
      <trkpt lat="44.01303" lon="3.50538">
        <ele>1036.8</ele>
        <time>2026-05-28T09:11:07.999Z</time>
      </trkpt>
      <trkpt lat="44.01303" lon="3.50539">
        <ele>1037.2</ele>
        <time>2026-05-28T09:11:08.999Z</time>
      </trkpt>
      <trkpt lat="44.01302" lon="3.50538">
        <ele>1036.8</ele>
        <time>2026-05-28T09:11:09.999Z</time>
      </trkpt>
      <trkpt lat="44.01301" lon="3.50539">
        <ele>1036.8</ele>
        <time>2026-05-28T09:11:10.999Z</time>
      </trkpt>
      <trkpt lat="44.01301" lon="3.50539">
        <ele>1036.6</ele>
        <time>2026-05-28T09:11:11.999Z</time>
      </trkpt>
      <trkpt lat="44.01301" lon="3.50539">
        <ele>1036.6</ele>
        <time>2026-05-28T09:11:12.999Z</time>
      </trkpt>
      <trkpt lat="44.01301" lon="3.50539">
        <ele>1036.7</ele>
        <time>2026-05-28T09:11:13.999Z</time>
      </trkpt>
      <trkpt lat="44.01301" lon="3.50539">
        <ele>1036.5</ele>
        <time>2026-05-28T09:11:14.999Z</time>
      </trkpt>
      <trkpt lat="44.01301" lon="3.50539">
        <ele>1036.5</ele>
        <time>2026-05-28T09:11:15.999Z</time>
      </trkpt>
      <trkpt lat="44.01301" lon="3.50539">
        <ele>1036.4</ele>
        <time>2026-05-28T09:11:16.999Z</time>
      </trkpt>
      <trkpt lat="44.01301" lon="3.50539">
        <ele>1036.5</ele>
        <time>2026-05-28T09:11:17.999Z</time>
      </trkpt>
      <trkpt lat="44.01301" lon="3.50539">
        <ele>1036.3</ele>
        <time>2026-05-28T09:11:18.999Z</time>
      </trkpt>
      <trkpt lat="44.01301" lon="3.50539">
        <ele>1037.1</ele>
        <time>2026-05-28T09:11:20.999Z</time>
      </trkpt>
      <trkpt lat="44.01301" lon="3.50539">
        <ele>1037.2</ele>
        <time>2026-05-28T09:11:21.999Z</time>
      </trkpt>
      <trkpt lat="44.01301" lon="3.50539">
        <ele>1037.4</ele>
        <time>2026-05-28T09:11:22.999Z</time>
      </trkpt>
      <trkpt lat="44.01301" lon="3.50539">
        <ele>1037.9</ele>
        <time>2026-05-28T09:11:23.999Z</time>
      </trkpt>
      <trkpt lat="44.01301" lon="3.50539">
        <ele>1038.5</ele>
        <time>2026-05-28T09:11:24.999Z</time>
      </trkpt>
      <trkpt lat="44.01301" lon="3.50539">
        <ele>1038.3</ele>
        <time>2026-05-28T09:11:25.999Z</time>
      </trkpt>
      <trkpt lat="44.01301" lon="3.50539">
        <ele>1038.6</ele>
        <time>2026-05-28T09:11:26.999Z</time>
      </trkpt>
      <trkpt lat="44.01301" lon="3.50539">
        <ele>1038.6</ele>
        <time>2026-05-28T09:11:27.999Z</time>
      </trkpt>
      <trkpt lat="44.01301" lon="3.50539">
        <ele>1038.5</ele>
        <time>2026-05-28T09:11:28.999Z</time>
      </trkpt>
      <trkpt lat="44.01301" lon="3.5054">
        <ele>1038.5</ele>
        <time>2026-05-28T09:11:29.999Z</time>
      </trkpt>
      <trkpt lat="44.01301" lon="3.50539">
        <ele>1038.5</ele>
        <time>2026-05-28T09:11:30.999Z</time>
      </trkpt>
      <trkpt lat="44.01301" lon="3.50539">
        <ele>1038.6</ele>
        <time>2026-05-28T09:11:31.999Z</time>
      </trkpt>
      <trkpt lat="44.01301" lon="3.50539">
        <ele>1038.9</ele>
        <time>2026-05-28T09:11:32.999Z</time>
      </trkpt>
      <trkpt lat="44.01301" lon="3.50539">
        <ele>1039.3</ele>
        <time>2026-05-28T09:11:33.999Z</time>
      </trkpt>
      <trkpt lat="44.01301" lon="3.50539">
        <ele>1039.5</ele>
        <time>2026-05-28T09:11:34.999Z</time>
      </trkpt>
      <trkpt lat="44.01301" lon="3.50539">
        <ele>1039.9</ele>
        <time>2026-05-28T09:11:35.999Z</time>
      </trkpt>
      <trkpt lat="44.01301" lon="3.50539">
        <ele>1040.2</ele>
        <time>2026-05-28T09:11:36.999Z</time>
      </trkpt>
      <trkpt lat="44.01301" lon="3.50539">
        <ele>1040.4</ele>
        <time>2026-05-28T09:11:37.999Z</time>
      </trkpt>
      <trkpt lat="44.01301" lon="3.50539">
        <ele>1040.5</ele>
        <time>2026-05-28T09:11:38.999Z</time>
      </trkpt>
      <trkpt lat="44.01301" lon="3.50539">
        <ele>1040.1</ele>
        <time>2026-05-28T09:11:39.999Z</time>
      </trkpt>
      <trkpt lat="44.01301" lon="3.50539">
        <ele>1040.1</ele>
        <time>2026-05-28T09:11:40.999Z</time>
      </trkpt>
      <trkpt lat="44.01301" lon="3.50539">
        <ele>1040</ele>
        <time>2026-05-28T09:11:41.999Z</time>
      </trkpt>
      <trkpt lat="44.01301" lon="3.50539">
        <ele>1040.4</ele>
        <time>2026-05-28T09:11:42.999Z</time>
      </trkpt>
      <trkpt lat="44.01301" lon="3.50539">
        <ele>1041.3</ele>
        <time>2026-05-28T09:11:43.999Z</time>
      </trkpt>
      <trkpt lat="44.01302" lon="3.50539">
        <ele>1041.7</ele>
        <time>2026-05-28T09:11:44.999Z</time>
      </trkpt>
      <trkpt lat="44.01303" lon="3.5054">
        <ele>1041.9</ele>
        <time>2026-05-28T09:11:45.999Z</time>
      </trkpt>
      <trkpt lat="44.01303" lon="3.5054">
        <ele>1042</ele>
        <time>2026-05-28T09:11:46.999Z</time>
      </trkpt>
      <trkpt lat="44.01303" lon="3.50541">
        <ele>1042.2</ele>
        <time>2026-05-28T09:11:47.999Z</time>
      </trkpt>
      <trkpt lat="44.01304" lon="3.5054">
        <ele>1042.6</ele>
        <time>2026-05-28T09:11:48.999Z</time>
      </trkpt>
      <trkpt lat="44.01304" lon="3.50539">
        <ele>1043.3</ele>
        <time>2026-05-28T09:11:49.999Z</time>
      </trkpt>
      <trkpt lat="44.01304" lon="3.50539">
        <ele>1043.9</ele>
        <time>2026-05-28T09:11:50.999Z</time>
      </trkpt>
      <trkpt lat="44.01304" lon="3.50538">
        <ele>1044.2</ele>
        <time>2026-05-28T09:11:51.999Z</time>
      </trkpt>
      <trkpt lat="44.01304" lon="3.50537">
        <ele>1044.6</ele>
        <time>2026-05-28T09:11:52.999Z</time>
      </trkpt>
      <trkpt lat="44.01304" lon="3.50537">
        <ele>1045.2</ele>
        <time>2026-05-28T09:11:53.999Z</time>
      </trkpt>
      <trkpt lat="44.01304" lon="3.50537">
        <ele>1045.4</ele>
        <time>2026-05-28T09:11:54.999Z</time>
      </trkpt>
      <trkpt lat="44.01304" lon="3.50537">
        <ele>1045.4</ele>
        <time>2026-05-28T09:11:55.999Z</time>
      </trkpt>
      <trkpt lat="44.01305" lon="3.50537">
        <ele>1045.3</ele>
        <time>2026-05-28T09:11:56.999Z</time>
      </trkpt>
      <trkpt lat="44.01304" lon="3.50537">
        <ele>1045.5</ele>
        <time>2026-05-28T09:11:57.999Z</time>
      </trkpt>
      <trkpt lat="44.01305" lon="3.50537">
        <ele>1045.6</ele>
        <time>2026-05-28T09:11:58.999Z</time>
      </trkpt>
      <trkpt lat="44.01305" lon="3.50537">
        <ele>1045.9</ele>
        <time>2026-05-28T09:11:59.999Z</time>
      </trkpt>
      <trkpt lat="44.01305" lon="3.50537">
        <ele>1046</ele>
        <time>2026-05-28T09:12:00.999Z</time>
      </trkpt>
      <trkpt lat="44.01304" lon="3.50536">
        <ele>1046.2</ele>
        <time>2026-05-28T09:12:01.999Z</time>
      </trkpt>
      <trkpt lat="44.01304" lon="3.50536">
        <ele>1046.7</ele>
        <time>2026-05-28T09:12:02.999Z</time>
      </trkpt>
      <trkpt lat="44.01305" lon="3.50536">
        <ele>1047.1</ele>
        <time>2026-05-28T09:12:03.999Z</time>
      </trkpt>
      <trkpt lat="44.01305" lon="3.50536">
        <ele>1047.2</ele>
        <time>2026-05-28T09:12:04.999Z</time>
      </trkpt>
      <trkpt lat="44.01305" lon="3.50536">
        <ele>1047.4</ele>
        <time>2026-05-28T09:12:05.999Z</time>
      </trkpt>
      <trkpt lat="44.01304" lon="3.50536">
        <ele>1047.6</ele>
        <time>2026-05-28T09:12:06.999Z</time>
      </trkpt>
      <trkpt lat="44.01304" lon="3.50536">
        <ele>1047.8</ele>
        <time>2026-05-28T09:12:07.999Z</time>
      </trkpt>
      <trkpt lat="44.01304" lon="3.50536">
        <ele>1047.8</ele>
        <time>2026-05-28T09:12:08.999Z</time>
      </trkpt>
      <trkpt lat="44.01304" lon="3.50536">
        <ele>1048.1</ele>
        <time>2026-05-28T09:12:09.999Z</time>
      </trkpt>
      <trkpt lat="44.01304" lon="3.50536">
        <ele>1048.2</ele>
        <time>2026-05-28T09:12:10.999Z</time>
      </trkpt>
      <trkpt lat="44.01305" lon="3.50536">
        <ele>1047.2</ele>
        <time>2026-05-28T09:12:12.999Z</time>
      </trkpt>
      <trkpt lat="44.01305" lon="3.50535">
        <ele>1047.3</ele>
        <time>2026-05-28T09:12:13.999Z</time>
      </trkpt>
      <trkpt lat="44.01304" lon="3.50536">
        <ele>1047.2</ele>
        <time>2026-05-28T09:12:14.999Z</time>
      </trkpt>
      <trkpt lat="44.01304" lon="3.50535">
        <ele>1047.1</ele>
        <time>2026-05-28T09:12:15.999Z</time>
      </trkpt>
      <trkpt lat="44.01304" lon="3.50535">
        <ele>1047</ele>
        <time>2026-05-28T09:12:16.999Z</time>
      </trkpt>
      <trkpt lat="44.01303" lon="3.50536">
        <ele>1046.8</ele>
        <time>2026-05-28T09:12:17.999Z</time>
      </trkpt>
      <trkpt lat="44.01302" lon="3.50536">
        <ele>1047.2</ele>
        <time>2026-05-28T09:12:18.999Z</time>
      </trkpt>
      <trkpt lat="44.01302" lon="3.50536">
        <ele>1047.4</ele>
        <time>2026-05-28T09:12:19.999Z</time>
      </trkpt>
      <trkpt lat="44.01302" lon="3.50536">
        <ele>1047.7</ele>
        <time>2026-05-28T09:12:20.999Z</time>
      </trkpt>
      <trkpt lat="44.01301" lon="3.50537">
        <ele>1047.8</ele>
        <time>2026-05-28T09:12:21.999Z</time>
      </trkpt>
      <trkpt lat="44.01301" lon="3.50538">
        <ele>1048</ele>
        <time>2026-05-28T09:12:22.999Z</time>
      </trkpt>
      <trkpt lat="44.01301" lon="3.50539">
        <ele>1047.8</ele>
        <time>2026-05-28T09:12:23.999Z</time>
      </trkpt>
      <trkpt lat="44.01301" lon="3.50539">
        <ele>1047.6</ele>
        <time>2026-05-28T09:12:24.999Z</time>
      </trkpt>
      <trkpt lat="44.01301" lon="3.50539">
        <ele>1047.2</ele>
        <time>2026-05-28T09:12:25.999Z</time>
      </trkpt>
      <trkpt lat="44.01301" lon="3.50539">
        <ele>1047</ele>
        <time>2026-05-28T09:12:26.999Z</time>
      </trkpt>
      <trkpt lat="44.01301" lon="3.50539">
        <ele>1047.1</ele>
        <time>2026-05-28T09:12:27.999Z</time>
      </trkpt>
      <trkpt lat="44.01301" lon="3.50538">
        <ele>1047.1</ele>
        <time>2026-05-28T09:12:28.999Z</time>
      </trkpt>
      <trkpt lat="44.01301" lon="3.50538">
        <ele>1047</ele>
        <time>2026-05-28T09:12:29.999Z</time>
      </trkpt>
      <trkpt lat="44.01301" lon="3.50539">
        <ele>1046.8</ele>
        <time>2026-05-28T09:12:30.999Z</time>
      </trkpt>
      <trkpt lat="44.01301" lon="3.50539">
        <ele>1046.3</ele>
        <time>2026-05-28T09:12:31.999Z</time>
      </trkpt>
      <trkpt lat="44.01301" lon="3.50538">
        <ele>1046.1</ele>
        <time>2026-05-28T09:12:32.999Z</time>
      </trkpt>
      <trkpt lat="44.01301" lon="3.50538">
        <ele>1045.7</ele>
        <time>2026-05-28T09:12:33.999Z</time>
      </trkpt>
      <trkpt lat="44.01302" lon="3.50538">
        <ele>1045.3</ele>
        <time>2026-05-28T09:12:35.999Z</time>
      </trkpt>
      <trkpt lat="44.01303" lon="3.50537">
        <ele>1045.5</ele>
        <time>2026-05-28T09:12:36.999Z</time>
      </trkpt>
      <trkpt lat="44.01304" lon="3.50536">
        <ele>1046.1</ele>
        <time>2026-05-28T09:12:37.999Z</time>
      </trkpt>
      <trkpt lat="44.01305" lon="3.50537">
        <ele>1045.9</ele>
        <time>2026-05-28T09:12:38.999Z</time>
      </trkpt>
      <trkpt lat="44.01305" lon="3.50536">
        <ele>1046.1</ele>
        <time>2026-05-28T09:12:39.999Z</time>
      </trkpt>
      <trkpt lat="44.01305" lon="3.50535">
        <ele>1046.1</ele>
        <time>2026-05-28T09:12:40.999Z</time>
      </trkpt>
      <trkpt lat="44.01305" lon="3.50534">
        <ele>1046.3</ele>
        <time>2026-05-28T09:12:41.999Z</time>
      </trkpt>
      <trkpt lat="44.01305" lon="3.50534">
        <ele>1047.4</ele>
        <time>2026-05-28T09:12:42.999Z</time>
      </trkpt>
      <trkpt lat="44.01305" lon="3.50534">
        <ele>1047.3</ele>
        <time>2026-05-28T09:12:43.999Z</time>
      </trkpt>
      <trkpt lat="44.01305" lon="3.50534">
        <ele>1047.5</ele>
        <time>2026-05-28T09:12:44.999Z</time>
      </trkpt>
      <trkpt lat="44.01305" lon="3.50534">
        <ele>1047.7</ele>
        <time>2026-05-28T09:12:45.999Z</time>
      </trkpt>
      <trkpt lat="44.01305" lon="3.50535">
        <ele>1047.6</ele>
        <time>2026-05-28T09:12:46.999Z</time>
      </trkpt>
      <trkpt lat="44.01305" lon="3.50535">
        <ele>1047.9</ele>
        <time>2026-05-28T09:12:47.999Z</time>
      </trkpt>
      <trkpt lat="44.01305" lon="3.50535">
        <ele>1048.4</ele>
        <time>2026-05-28T09:12:48.999Z</time>
      </trkpt>
      <trkpt lat="44.01305" lon="3.50536">
        <ele>1048.3</ele>
        <time>2026-05-28T09:12:49.999Z</time>
      </trkpt>
      <trkpt lat="44.01305" lon="3.50536">
        <ele>1048</ele>
        <time>2026-05-28T09:12:50.999Z</time>
      </trkpt>
      <trkpt lat="44.01305" lon="3.50536">
        <ele>1047.8</ele>
        <time>2026-05-28T09:12:51.999Z</time>
      </trkpt>
      <trkpt lat="44.01305" lon="3.50536">
        <ele>1047.5</ele>
        <time>2026-05-28T09:12:52.999Z</time>
      </trkpt>
      <trkpt lat="44.01305" lon="3.50536">
        <ele>1047.3</ele>
        <time>2026-05-28T09:12:53.999Z</time>
      </trkpt>
      <trkpt lat="44.01304" lon="3.50537">
        <ele>1047.2</ele>
        <time>2026-05-28T09:12:54.999Z</time>
      </trkpt>
      <trkpt lat="44.01305" lon="3.50537">
        <ele>1047.8</ele>
        <time>2026-05-28T09:12:56.999Z</time>
      </trkpt>
      <trkpt lat="44.01305" lon="3.50536">
        <ele>1047.9</ele>
        <time>2026-05-28T09:12:57.999Z</time>
      </trkpt>
      <trkpt lat="44.01306" lon="3.50536">
        <ele>1047.9</ele>
        <time>2026-05-28T09:12:58.999Z</time>
      </trkpt>
      <trkpt lat="44.01306" lon="3.50537">
        <ele>1048.1</ele>
        <time>2026-05-28T09:12:59.999Z</time>
      </trkpt>
      <trkpt lat="44.01307" lon="3.50537">
        <ele>1049.2</ele>
        <time>2026-05-28T09:13:00.999Z</time>
      </trkpt>
      <trkpt lat="44.01307" lon="3.50537">
        <ele>1049.4</ele>
        <time>2026-05-28T09:13:01.999Z</time>
      </trkpt>
      <trkpt lat="44.01307" lon="3.50537">
        <ele>1049.3</ele>
        <time>2026-05-28T09:13:03.000Z</time>
      </trkpt>
      <trkpt lat="44.01307" lon="3.50537">
        <ele>1049.5</ele>
        <time>2026-05-28T09:13:04.000Z</time>
      </trkpt>
      <trkpt lat="44.01307" lon="3.50537">
        <ele>1049.4</ele>
        <time>2026-05-28T09:13:05.000Z</time>
      </trkpt>
      <trkpt lat="44.01307" lon="3.50537">
        <ele>1049.2</ele>
        <time>2026-05-28T09:13:06.000Z</time>
      </trkpt>
      <trkpt lat="44.01307" lon="3.50537">
        <ele>1049</ele>
        <time>2026-05-28T09:13:07.000Z</time>
      </trkpt>
      <trkpt lat="44.01307" lon="3.50537">
        <ele>1049.1</ele>
        <time>2026-05-28T09:13:08.000Z</time>
      </trkpt>
      <trkpt lat="44.01308" lon="3.50538">
        <ele>1049</ele>
        <time>2026-05-28T09:13:09.000Z</time>
      </trkpt>
      <trkpt lat="44.01308" lon="3.50538">
        <ele>1049.6</ele>
        <time>2026-05-28T09:13:10.000Z</time>
      </trkpt>
      <trkpt lat="44.01309" lon="3.50538">
        <ele>1049.9</ele>
        <time>2026-05-28T09:13:11.000Z</time>
      </trkpt>
      <trkpt lat="44.01309" lon="3.50538">
        <ele>1049.9</ele>
        <time>2026-05-28T09:13:12.000Z</time>
      </trkpt>
      <trkpt lat="44.0131" lon="3.50538">
        <ele>1050</ele>
        <time>2026-05-28T09:13:13.000Z</time>
      </trkpt>
      <trkpt lat="44.01311" lon="3.50538">
        <ele>1050.6</ele>
        <time>2026-05-28T09:13:14.000Z</time>
      </trkpt>
      <trkpt lat="44.01312" lon="3.50539">
        <ele>1050.8</ele>
        <time>2026-05-28T09:13:15.000Z</time>
      </trkpt>
      <trkpt lat="44.01313" lon="3.50539">
        <ele>1051.3</ele>
        <time>2026-05-28T09:13:16.000Z</time>
      </trkpt>
      <trkpt lat="44.01314" lon="3.5054">
        <ele>1051.4</ele>
        <time>2026-05-28T09:13:17.000Z</time>
      </trkpt>
      <trkpt lat="44.01316" lon="3.50542">
        <ele>1050.8</ele>
        <time>2026-05-28T09:13:19.000Z</time>
      </trkpt>
      <trkpt lat="44.01318" lon="3.50543">
        <ele>1050.8</ele>
        <time>2026-05-28T09:13:20.000Z</time>
      </trkpt>
      <trkpt lat="44.01319" lon="3.50543">
        <ele>1051</ele>
        <time>2026-05-28T09:13:21.000Z</time>
      </trkpt>
      <trkpt lat="44.0132" lon="3.50543">
        <ele>1051.2</ele>
        <time>2026-05-28T09:13:22.000Z</time>
      </trkpt>
      <trkpt lat="44.01321" lon="3.50543">
        <ele>1051.8</ele>
        <time>2026-05-28T09:13:23.000Z</time>
      </trkpt>
      <trkpt lat="44.01322" lon="3.50543">
        <ele>1051.6</ele>
        <time>2026-05-28T09:13:24.000Z</time>
      </trkpt>
      <trkpt lat="44.01322" lon="3.50544">
        <ele>1052</ele>
        <time>2026-05-28T09:13:25.000Z</time>
      </trkpt>
      <trkpt lat="44.01323" lon="3.50544">
        <ele>1052.1</ele>
        <time>2026-05-28T09:13:26.000Z</time>
      </trkpt>
      <trkpt lat="44.01324" lon="3.50544">
        <ele>1052.3</ele>
        <time>2026-05-28T09:13:27.000Z</time>
      </trkpt>
      <trkpt lat="44.01324" lon="3.50544">
        <ele>1052.4</ele>
        <time>2026-05-28T09:13:28.000Z</time>
      </trkpt>
      <trkpt lat="44.01324" lon="3.50545">
        <ele>1052.3</ele>
        <time>2026-05-28T09:13:29.000Z</time>
      </trkpt>
      <trkpt lat="44.01324" lon="3.50545">
        <ele>1052.4</ele>
        <time>2026-05-28T09:13:30.000Z</time>
      </trkpt>
      <trkpt lat="44.01323" lon="3.50545">
        <ele>1052.3</ele>
        <time>2026-05-28T09:13:31.000Z</time>
      </trkpt>
      <trkpt lat="44.01323" lon="3.50545">
        <ele>1052</ele>
        <time>2026-05-28T09:13:32.000Z</time>
      </trkpt>
      <trkpt lat="44.01323" lon="3.50545">
        <ele>1051.9</ele>
        <time>2026-05-28T09:13:33.000Z</time>
      </trkpt>
      <trkpt lat="44.01324" lon="3.50545">
        <ele>1051.3</ele>
        <time>2026-05-28T09:13:35.000Z</time>
      </trkpt>
      <trkpt lat="44.01324" lon="3.50545">
        <ele>1051.2</ele>
        <time>2026-05-28T09:13:36.000Z</time>
      </trkpt>
      <trkpt lat="44.01323" lon="3.50545">
        <ele>1050.8</ele>
        <time>2026-05-28T09:13:37.000Z</time>
      </trkpt>
      <trkpt lat="44.01324" lon="3.50545">
        <ele>1050.8</ele>
        <time>2026-05-28T09:13:38.000Z</time>
      </trkpt>
      <trkpt lat="44.01323" lon="3.50545">
        <ele>1050.4</ele>
        <time>2026-05-28T09:13:39.000Z</time>
      </trkpt>
      <trkpt lat="44.01322" lon="3.50546">
        <ele>1050.2</ele>
        <time>2026-05-28T09:13:40.000Z</time>
      </trkpt>
      <trkpt lat="44.01322" lon="3.50547">
        <ele>1050</ele>
        <time>2026-05-28T09:13:41.000Z</time>
      </trkpt>
      <trkpt lat="44.01322" lon="3.50547">
        <ele>1050.2</ele>
        <time>2026-05-28T09:13:42.000Z</time>
      </trkpt>
      <trkpt lat="44.01322" lon="3.50548">
        <ele>1050.3</ele>
        <time>2026-05-28T09:13:43.000Z</time>
      </trkpt>
      <trkpt lat="44.01322" lon="3.50549">
        <ele>1050.3</ele>
        <time>2026-05-28T09:13:44.000Z</time>
      </trkpt>
      <trkpt lat="44.01323" lon="3.50551">
        <ele>1049.6</ele>
        <time>2026-05-28T09:13:45.000Z</time>
      </trkpt>
      <trkpt lat="44.01323" lon="3.50551">
        <ele>1049.2</ele>
        <time>2026-05-28T09:13:46.000Z</time>
      </trkpt>
      <trkpt lat="44.01324" lon="3.50552">
        <ele>1048.9</ele>
        <time>2026-05-28T09:13:47.000Z</time>
      </trkpt>
      <trkpt lat="44.01324" lon="3.50552">
        <ele>1049.2</ele>
        <time>2026-05-28T09:13:48.000Z</time>
      </trkpt>
      <trkpt lat="44.01325" lon="3.50552">
        <ele>1049</ele>
        <time>2026-05-28T09:13:49.000Z</time>
      </trkpt>
      <trkpt lat="44.01325" lon="3.50553">
        <ele>1048.7</ele>
        <time>2026-05-28T09:13:50.000Z</time>
      </trkpt>
      <trkpt lat="44.01325" lon="3.50553">
        <ele>1048.6</ele>
        <time>2026-05-28T09:13:51.000Z</time>
      </trkpt>
      <trkpt lat="44.01325" lon="3.50554">
        <ele>1048</ele>
        <time>2026-05-28T09:13:52.000Z</time>
      </trkpt>
      <trkpt lat="44.01326" lon="3.50555">
        <ele>1047.6</ele>
        <time>2026-05-28T09:13:53.000Z</time>
      </trkpt>
      <trkpt lat="44.01327" lon="3.50555">
        <ele>1047.6</ele>
        <time>2026-05-28T09:13:54.000Z</time>
      </trkpt>
      <trkpt lat="44.01327" lon="3.50555">
        <ele>1047.2</ele>
        <time>2026-05-28T09:13:55.000Z</time>
      </trkpt>
      <trkpt lat="44.01327" lon="3.50555">
        <ele>1047.5</ele>
        <time>2026-05-28T09:13:56.000Z</time>
      </trkpt>
      <trkpt lat="44.01328" lon="3.50555">
        <ele>1047.3</ele>
        <time>2026-05-28T09:13:57.000Z</time>
      </trkpt>
      <trkpt lat="44.01328" lon="3.50556">
        <ele>1047</ele>
        <time>2026-05-28T09:13:58.000Z</time>
      </trkpt>
      <trkpt lat="44.01328" lon="3.50557">
        <ele>1046.8</ele>
        <time>2026-05-28T09:13:59.000Z</time>
      </trkpt>
      <trkpt lat="44.01329" lon="3.50556">
        <ele>1046.4</ele>
        <time>2026-05-28T09:14:00.000Z</time>
      </trkpt>
      <trkpt lat="44.01329" lon="3.50556">
        <ele>1046.2</ele>
        <time>2026-05-28T09:14:01.000Z</time>
      </trkpt>
      <trkpt lat="44.0133" lon="3.50556">
        <ele>1046</ele>
        <time>2026-05-28T09:14:02.000Z</time>
      </trkpt>
      <trkpt lat="44.0133" lon="3.50557">
        <ele>1045.6</ele>
        <time>2026-05-28T09:14:03.000Z</time>
      </trkpt>
      <trkpt lat="44.0133" lon="3.50558">
        <ele>1045.3</ele>
        <time>2026-05-28T09:14:04.000Z</time>
      </trkpt>
      <trkpt lat="44.0133" lon="3.50558">
        <ele>1045</ele>
        <time>2026-05-28T09:14:05.000Z</time>
      </trkpt>
      <trkpt lat="44.0133" lon="3.50558">
        <ele>1044.6</ele>
        <time>2026-05-28T09:14:06.000Z</time>
      </trkpt>
      <trkpt lat="44.0133" lon="3.50558">
        <ele>1044.5</ele>
        <time>2026-05-28T09:14:07.000Z</time>
      </trkpt>
      <trkpt lat="44.0133" lon="3.50558">
        <ele>1044.3</ele>
        <time>2026-05-28T09:14:08.000Z</time>
      </trkpt>
      <trkpt lat="44.0133" lon="3.50558">
        <ele>1043.7</ele>
        <time>2026-05-28T09:14:09.000Z</time>
      </trkpt>
      <trkpt lat="44.01331" lon="3.50559">
        <ele>1043.4</ele>
        <time>2026-05-28T09:14:10.000Z</time>
      </trkpt>
      <trkpt lat="44.01331" lon="3.5056">
        <ele>1042.9</ele>
        <time>2026-05-28T09:14:11.000Z</time>
      </trkpt>
      <trkpt lat="44.01331" lon="3.50561">
        <ele>1042.8</ele>
        <time>2026-05-28T09:14:12.000Z</time>
      </trkpt>
      <trkpt lat="44.01332" lon="3.50561">
        <ele>1043</ele>
        <time>2026-05-28T09:14:13.000Z</time>
      </trkpt>
      <trkpt lat="44.01332" lon="3.50561">
        <ele>1042.9</ele>
        <time>2026-05-28T09:14:14.000Z</time>
      </trkpt>
      <trkpt lat="44.01333" lon="3.50561">
        <ele>1042.7</ele>
        <time>2026-05-28T09:14:15.000Z</time>
      </trkpt>
      <trkpt lat="44.01334" lon="3.50561">
        <ele>1042.6</ele>
        <time>2026-05-28T09:14:16.000Z</time>
      </trkpt>
      <trkpt lat="44.01334" lon="3.50561">
        <ele>1042.5</ele>
        <time>2026-05-28T09:14:17.000Z</time>
      </trkpt>
      <trkpt lat="44.01334" lon="3.50561">
        <ele>1042.7</ele>
        <time>2026-05-28T09:14:18.000Z</time>
      </trkpt>
      <trkpt lat="44.01334" lon="3.50561">
        <ele>1042.7</ele>
        <time>2026-05-28T09:14:19.000Z</time>
      </trkpt>
      <trkpt lat="44.01334" lon="3.50562">
        <ele>1042.8</ele>
        <time>2026-05-28T09:14:20.000Z</time>
      </trkpt>
      <trkpt lat="44.01334" lon="3.50562">
        <ele>1042.8</ele>
        <time>2026-05-28T09:14:21.000Z</time>
      </trkpt>
      <trkpt lat="44.01334" lon="3.50562">
        <ele>1042.9</ele>
        <time>2026-05-28T09:14:22.000Z</time>
      </trkpt>
      <trkpt lat="44.01334" lon="3.50562">
        <ele>1042.9</ele>
        <time>2026-05-28T09:14:23.000Z</time>
      </trkpt>
      <trkpt lat="44.01335" lon="3.50563">
        <ele>1042.7</ele>
        <time>2026-05-28T09:14:24.000Z</time>
      </trkpt>
      <trkpt lat="44.01335" lon="3.50564">
        <ele>1042.6</ele>
        <time>2026-05-28T09:14:25.000Z</time>
      </trkpt>
      <trkpt lat="44.01335" lon="3.50564">
        <ele>1042.6</ele>
        <time>2026-05-28T09:14:26.000Z</time>
      </trkpt>
      <trkpt lat="44.01336" lon="3.50564">
        <ele>1042.6</ele>
        <time>2026-05-28T09:14:27.000Z</time>
      </trkpt>
      <trkpt lat="44.01336" lon="3.50565">
        <ele>1042.5</ele>
        <time>2026-05-28T09:14:28.000Z</time>
      </trkpt>
      <trkpt lat="44.01336" lon="3.50565">
        <ele>1042.4</ele>
        <time>2026-05-28T09:14:29.000Z</time>
      </trkpt>
      <trkpt lat="44.01337" lon="3.50565">
        <ele>1042.4</ele>
        <time>2026-05-28T09:14:30.000Z</time>
      </trkpt>
      <trkpt lat="44.01336" lon="3.50567">
        <ele>1042.6</ele>
        <time>2026-05-28T09:14:31.000Z</time>
      </trkpt>
      <trkpt lat="44.01337" lon="3.50568">
        <ele>1042.6</ele>
        <time>2026-05-28T09:14:32.000Z</time>
      </trkpt>
      <trkpt lat="44.01338" lon="3.50569">
        <ele>1043</ele>
        <time>2026-05-28T09:14:33.000Z</time>
      </trkpt>
      <trkpt lat="44.01339" lon="3.50569">
        <ele>1043</ele>
        <time>2026-05-28T09:14:34.000Z</time>
      </trkpt>
      <trkpt lat="44.01339" lon="3.50569">
        <ele>1043</ele>
        <time>2026-05-28T09:14:35.000Z</time>
      </trkpt>
      <trkpt lat="44.0134" lon="3.5057">
        <ele>1042.6</ele>
        <time>2026-05-28T09:14:36.000Z</time>
      </trkpt>
      <trkpt lat="44.0134" lon="3.5057">
        <ele>1042.9</ele>
        <time>2026-05-28T09:14:37.000Z</time>
      </trkpt>
      <trkpt lat="44.0134" lon="3.50571">
        <ele>1043.1</ele>
        <time>2026-05-28T09:14:38.000Z</time>
      </trkpt>
      <trkpt lat="44.01341" lon="3.50571">
        <ele>1043.3</ele>
        <time>2026-05-28T09:14:39.000Z</time>
      </trkpt>
      <trkpt lat="44.01341" lon="3.50572">
        <ele>1044.1</ele>
        <time>2026-05-28T09:14:40.000Z</time>
      </trkpt>
      <trkpt lat="44.01341" lon="3.50572">
        <ele>1044.7</ele>
        <time>2026-05-28T09:14:41.000Z</time>
      </trkpt>
      <trkpt lat="44.01341" lon="3.50572">
        <ele>1045.1</ele>
        <time>2026-05-28T09:14:42.000Z</time>
      </trkpt>
      <trkpt lat="44.01341" lon="3.50572">
        <ele>1045.2</ele>
        <time>2026-05-28T09:14:43.000Z</time>
      </trkpt>
      <trkpt lat="44.01342" lon="3.50571">
        <ele>1045.3</ele>
        <time>2026-05-28T09:14:44.000Z</time>
      </trkpt>
      <trkpt lat="44.01343" lon="3.50571">
        <ele>1045.5</ele>
        <time>2026-05-28T09:14:45.000Z</time>
      </trkpt>
      <trkpt lat="44.01345" lon="3.50571">
        <ele>1045.6</ele>
        <time>2026-05-28T09:14:46.000Z</time>
      </trkpt>
      <trkpt lat="44.01346" lon="3.5057">
        <ele>1045.5</ele>
        <time>2026-05-28T09:14:47.000Z</time>
      </trkpt>
      <trkpt lat="44.01347" lon="3.5057">
        <ele>1045.6</ele>
        <time>2026-05-28T09:14:48.000Z</time>
      </trkpt>
      <trkpt lat="44.01348" lon="3.5057">
        <ele>1045.7</ele>
        <time>2026-05-28T09:14:49.000Z</time>
      </trkpt>
      <trkpt lat="44.01348" lon="3.5057">
        <ele>1045.9</ele>
        <time>2026-05-28T09:14:50.000Z</time>
      </trkpt>
      <trkpt lat="44.01349" lon="3.5057">
        <ele>1046.1</ele>
        <time>2026-05-28T09:14:51.000Z</time>
      </trkpt>
      <trkpt lat="44.01349" lon="3.5057">
        <ele>1046.1</ele>
        <time>2026-05-28T09:14:52.000Z</time>
      </trkpt>
      <trkpt lat="44.0135" lon="3.5057">
        <ele>1046</ele>
        <time>2026-05-28T09:14:53.000Z</time>
      </trkpt>
      <trkpt lat="44.01351" lon="3.5057">
        <ele>1045.9</ele>
        <time>2026-05-28T09:14:54.000Z</time>
      </trkpt>
      <trkpt lat="44.01351" lon="3.5057">
        <ele>1046</ele>
        <time>2026-05-28T09:14:55.000Z</time>
      </trkpt>
      <trkpt lat="44.01351" lon="3.5057">
        <ele>1046</ele>
        <time>2026-05-28T09:14:56.000Z</time>
      </trkpt>
      <trkpt lat="44.01351" lon="3.5057">
        <ele>1046</ele>
        <time>2026-05-28T09:14:57.000Z</time>
      </trkpt>
      <trkpt lat="44.01351" lon="3.5057">
        <ele>1045.9</ele>
        <time>2026-05-28T09:14:58.000Z</time>
      </trkpt>
      <trkpt lat="44.01351" lon="3.5057">
        <ele>1045.8</ele>
        <time>2026-05-28T09:14:59.000Z</time>
      </trkpt>
      <trkpt lat="44.01352" lon="3.5057">
        <ele>1045.8</ele>
        <time>2026-05-28T09:15:00.000Z</time>
      </trkpt>
      <trkpt lat="44.01352" lon="3.5057">
        <ele>1045.7</ele>
        <time>2026-05-28T09:15:01.000Z</time>
      </trkpt>
      <trkpt lat="44.01352" lon="3.5057">
        <ele>1045.8</ele>
        <time>2026-05-28T09:15:02.000Z</time>
      </trkpt>
      <trkpt lat="44.01353" lon="3.50568">
        <ele>1045.5</ele>
        <time>2026-05-28T09:15:03.000Z</time>
      </trkpt>
      <trkpt lat="44.01354" lon="3.50566">
        <ele>1045.6</ele>
        <time>2026-05-28T09:15:04.000Z</time>
      </trkpt>
      <trkpt lat="44.01356" lon="3.50565">
        <ele>1045.6</ele>
        <time>2026-05-28T09:15:05.000Z</time>
      </trkpt>
      <trkpt lat="44.01357" lon="3.50564">
        <ele>1045.5</ele>
        <time>2026-05-28T09:15:06.000Z</time>
      </trkpt>
      <trkpt lat="44.01359" lon="3.50563">
        <ele>1045.4</ele>
        <time>2026-05-28T09:15:07.000Z</time>
      </trkpt>
      <trkpt lat="44.0136" lon="3.50562">
        <ele>1045.4</ele>
        <time>2026-05-28T09:15:08.000Z</time>
      </trkpt>
      <trkpt lat="44.01361" lon="3.50561">
        <ele>1045.4</ele>
        <time>2026-05-28T09:15:09.000Z</time>
      </trkpt>
      <trkpt lat="44.01362" lon="3.50561">
        <ele>1045.5</ele>
        <time>2026-05-28T09:15:10.000Z</time>
      </trkpt>
      <trkpt lat="44.01362" lon="3.5056">
        <ele>1045.5</ele>
        <time>2026-05-28T09:15:11.000Z</time>
      </trkpt>
      <trkpt lat="44.01362" lon="3.5056">
        <ele>1045.5</ele>
        <time>2026-05-28T09:15:12.000Z</time>
      </trkpt>
      <trkpt lat="44.01362" lon="3.50559">
        <ele>1045.5</ele>
        <time>2026-05-28T09:15:13.000Z</time>
      </trkpt>
      <trkpt lat="44.01363" lon="3.50558">
        <ele>1045.6</ele>
        <time>2026-05-28T09:15:14.000Z</time>
      </trkpt>
      <trkpt lat="44.01364" lon="3.50558">
        <ele>1045.8</ele>
        <time>2026-05-28T09:15:15.000Z</time>
      </trkpt>
      <trkpt lat="44.01365" lon="3.50558">
        <ele>1046</ele>
        <time>2026-05-28T09:15:16.000Z</time>
      </trkpt>
      <trkpt lat="44.01366" lon="3.50557">
        <ele>1046.1</ele>
        <time>2026-05-28T09:15:17.000Z</time>
      </trkpt>
      <trkpt lat="44.01367" lon="3.50556">
        <ele>1046.1</ele>
        <time>2026-05-28T09:15:18.000Z</time>
      </trkpt>
      <trkpt lat="44.01367" lon="3.50555">
        <ele>1046.8</ele>
        <time>2026-05-28T09:15:19.000Z</time>
      </trkpt>
      <trkpt lat="44.01368" lon="3.50554">
        <ele>1047</ele>
        <time>2026-05-28T09:15:20.000Z</time>
      </trkpt>
      <trkpt lat="44.01368" lon="3.50554">
        <ele>1047.4</ele>
        <time>2026-05-28T09:15:21.000Z</time>
      </trkpt>
      <trkpt lat="44.01369" lon="3.50553">
        <ele>1047.7</ele>
        <time>2026-05-28T09:15:22.000Z</time>
      </trkpt>
      <trkpt lat="44.01369" lon="3.50553">
        <ele>1047.8</ele>
        <time>2026-05-28T09:15:23.000Z</time>
      </trkpt>
      <trkpt lat="44.0137" lon="3.50553">
        <ele>1048.4</ele>
        <time>2026-05-28T09:15:24.000Z</time>
      </trkpt>
      <trkpt lat="44.01371" lon="3.50553">
        <ele>1048.7</ele>
        <time>2026-05-28T09:15:25.000Z</time>
      </trkpt>
      <trkpt lat="44.01372" lon="3.50552">
        <ele>1048.8</ele>
        <time>2026-05-28T09:15:26.000Z</time>
      </trkpt>
      <trkpt lat="44.01374" lon="3.50551">
        <ele>1048.6</ele>
        <time>2026-05-28T09:15:27.000Z</time>
      </trkpt>
      <trkpt lat="44.01374" lon="3.50551">
        <ele>1049.4</ele>
        <time>2026-05-28T09:15:28.000Z</time>
      </trkpt>
      <trkpt lat="44.01374" lon="3.5055">
        <ele>1050</ele>
        <time>2026-05-28T09:15:29.000Z</time>
      </trkpt>
      <trkpt lat="44.01374" lon="3.50551">
        <ele>1051</ele>
        <time>2026-05-28T09:15:30.000Z</time>
      </trkpt>
      <trkpt lat="44.01375" lon="3.50551">
        <ele>1051.9</ele>
        <time>2026-05-28T09:15:31.000Z</time>
      </trkpt>
      <trkpt lat="44.01376" lon="3.50551">
        <ele>1052.2</ele>
        <time>2026-05-28T09:15:32.000Z</time>
      </trkpt>
      <trkpt lat="44.01377" lon="3.5055">
        <ele>1052.4</ele>
        <time>2026-05-28T09:15:33.000Z</time>
      </trkpt>
      <trkpt lat="44.01378" lon="3.5055">
        <ele>1052.8</ele>
        <time>2026-05-28T09:15:34.000Z</time>
      </trkpt>
      <trkpt lat="44.01379" lon="3.5055">
        <ele>1053.2</ele>
        <time>2026-05-28T09:15:35.000Z</time>
      </trkpt>
      <trkpt lat="44.01379" lon="3.50549">
        <ele>1053.3</ele>
        <time>2026-05-28T09:15:36.000Z</time>
      </trkpt>
      <trkpt lat="44.0138" lon="3.50549">
        <ele>1053.6</ele>
        <time>2026-05-28T09:15:37.000Z</time>
      </trkpt>
      <trkpt lat="44.01381" lon="3.50549">
        <ele>1053.6</ele>
        <time>2026-05-28T09:15:38.000Z</time>
      </trkpt>
      <trkpt lat="44.01382" lon="3.50549">
        <ele>1053</ele>
        <time>2026-05-28T09:15:39.000Z</time>
      </trkpt>
      <trkpt lat="44.01383" lon="3.5055">
        <ele>1052.5</ele>
        <time>2026-05-28T09:15:40.000Z</time>
      </trkpt>
      <trkpt lat="44.01384" lon="3.5055">
        <ele>1051.8</ele>
        <time>2026-05-28T09:15:41.000Z</time>
      </trkpt>
      <trkpt lat="44.01386" lon="3.5055">
        <ele>1051.6</ele>
        <time>2026-05-28T09:15:42.000Z</time>
      </trkpt>
      <trkpt lat="44.01387" lon="3.5055">
        <ele>1052.2</ele>
        <time>2026-05-28T09:15:43.000Z</time>
      </trkpt>
      <trkpt lat="44.01388" lon="3.5055">
        <ele>1052.3</ele>
        <time>2026-05-28T09:15:44.000Z</time>
      </trkpt>
      <trkpt lat="44.01389" lon="3.50551">
        <ele>1052.4</ele>
        <time>2026-05-28T09:15:45.000Z</time>
      </trkpt>
      <trkpt lat="44.0139" lon="3.50551">
        <ele>1052.3</ele>
        <time>2026-05-28T09:15:46.000Z</time>
      </trkpt>
      <trkpt lat="44.0139" lon="3.5055">
        <ele>1052.1</ele>
        <time>2026-05-28T09:15:47.000Z</time>
      </trkpt>
      <trkpt lat="44.01391" lon="3.5055">
        <ele>1051.7</ele>
        <time>2026-05-28T09:15:48.000Z</time>
      </trkpt>
      <trkpt lat="44.01391" lon="3.5055">
        <ele>1051.2</ele>
        <time>2026-05-28T09:15:49.000Z</time>
      </trkpt>
      <trkpt lat="44.01392" lon="3.50551">
        <ele>1050.2</ele>
        <time>2026-05-28T09:15:50.000Z</time>
      </trkpt>
      <trkpt lat="44.01392" lon="3.50551">
        <ele>1049.9</ele>
        <time>2026-05-28T09:15:51.000Z</time>
      </trkpt>
      <trkpt lat="44.01393" lon="3.50551">
        <ele>1049.6</ele>
        <time>2026-05-28T09:15:52.000Z</time>
      </trkpt>
      <trkpt lat="44.01393" lon="3.50551">
        <ele>1049.6</ele>
        <time>2026-05-28T09:15:53.000Z</time>
      </trkpt>
      <trkpt lat="44.01394" lon="3.50551">
        <ele>1049.5</ele>
        <time>2026-05-28T09:15:54.000Z</time>
      </trkpt>
      <trkpt lat="44.01395" lon="3.50551">
        <ele>1049.1</ele>
        <time>2026-05-28T09:15:55.000Z</time>
      </trkpt>
      <trkpt lat="44.01396" lon="3.50551">
        <ele>1048.9</ele>
        <time>2026-05-28T09:15:56.000Z</time>
      </trkpt>
      <trkpt lat="44.01397" lon="3.5055">
        <ele>1049.1</ele>
        <time>2026-05-28T09:15:57.000Z</time>
      </trkpt>
      <trkpt lat="44.01398" lon="3.5055">
        <ele>1049.3</ele>
        <time>2026-05-28T09:15:58.000Z</time>
      </trkpt>
      <trkpt lat="44.01399" lon="3.5055">
        <ele>1049.5</ele>
        <time>2026-05-28T09:15:59.000Z</time>
      </trkpt>
      <trkpt lat="44.01399" lon="3.5055">
        <ele>1049.8</ele>
        <time>2026-05-28T09:16:00.000Z</time>
      </trkpt>
      <trkpt lat="44.014" lon="3.50549">
        <ele>1049.7</ele>
        <time>2026-05-28T09:16:01.000Z</time>
      </trkpt>
      <trkpt lat="44.014" lon="3.50549">
        <ele>1049.7</ele>
        <time>2026-05-28T09:16:02.000Z</time>
      </trkpt>
      <trkpt lat="44.01401" lon="3.50548">
        <ele>1049.4</ele>
        <time>2026-05-28T09:16:03.000Z</time>
      </trkpt>
      <trkpt lat="44.01402" lon="3.50548">
        <ele>1049.6</ele>
        <time>2026-05-28T09:16:04.000Z</time>
      </trkpt>
      <trkpt lat="44.01403" lon="3.50548">
        <ele>1049.9</ele>
        <time>2026-05-28T09:16:05.000Z</time>
      </trkpt>
      <trkpt lat="44.01403" lon="3.50548">
        <ele>1050.6</ele>
        <time>2026-05-28T09:16:06.000Z</time>
      </trkpt>
      <trkpt lat="44.01403" lon="3.50547">
        <ele>1050.7</ele>
        <time>2026-05-28T09:16:07.000Z</time>
      </trkpt>
      <trkpt lat="44.01404" lon="3.50548">
        <ele>1050.7</ele>
        <time>2026-05-28T09:16:08.000Z</time>
      </trkpt>
      <trkpt lat="44.01404" lon="3.50548">
        <ele>1050.9</ele>
        <time>2026-05-28T09:16:09.000Z</time>
      </trkpt>
      <trkpt lat="44.01405" lon="3.50548">
        <ele>1050.8</ele>
        <time>2026-05-28T09:16:10.000Z</time>
      </trkpt>
      <trkpt lat="44.01405" lon="3.50548">
        <ele>1050.6</ele>
        <time>2026-05-28T09:16:11.000Z</time>
      </trkpt>
      <trkpt lat="44.01406" lon="3.50547">
        <ele>1050.5</ele>
        <time>2026-05-28T09:16:12.000Z</time>
      </trkpt>
      <trkpt lat="44.01407" lon="3.50547">
        <ele>1050.7</ele>
        <time>2026-05-28T09:16:13.000Z</time>
      </trkpt>
      <trkpt lat="44.01409" lon="3.50547">
        <ele>1050.5</ele>
        <time>2026-05-28T09:16:14.000Z</time>
      </trkpt>
      <trkpt lat="44.0141" lon="3.50546">
        <ele>1050.4</ele>
        <time>2026-05-28T09:16:15.000Z</time>
      </trkpt>
      <trkpt lat="44.01412" lon="3.50546">
        <ele>1050.1</ele>
        <time>2026-05-28T09:16:16.000Z</time>
      </trkpt>
      <trkpt lat="44.01413" lon="3.50545">
        <ele>1049.9</ele>
        <time>2026-05-28T09:16:17.000Z</time>
      </trkpt>
      <trkpt lat="44.01414" lon="3.50545">
        <ele>1049.8</ele>
        <time>2026-05-28T09:16:18.000Z</time>
      </trkpt>
      <trkpt lat="44.01415" lon="3.50544">
        <ele>1049.8</ele>
        <time>2026-05-28T09:16:19.000Z</time>
      </trkpt>
      <trkpt lat="44.01417" lon="3.50544">
        <ele>1049.7</ele>
        <time>2026-05-28T09:16:20.000Z</time>
      </trkpt>
      <trkpt lat="44.01417" lon="3.50543">
        <ele>1049.5</ele>
        <time>2026-05-28T09:16:21.000Z</time>
      </trkpt>
      <trkpt lat="44.01419" lon="3.50543">
        <ele>1049.3</ele>
        <time>2026-05-28T09:16:22.000Z</time>
      </trkpt>
      <trkpt lat="44.0142" lon="3.50543">
        <ele>1049.1</ele>
        <time>2026-05-28T09:16:23.000Z</time>
      </trkpt>
      <trkpt lat="44.0142" lon="3.50543">
        <ele>1048.9</ele>
        <time>2026-05-28T09:16:24.000Z</time>
      </trkpt>
      <trkpt lat="44.01421" lon="3.50543">
        <ele>1048.7</ele>
        <time>2026-05-28T09:16:25.000Z</time>
      </trkpt>
      <trkpt lat="44.01422" lon="3.50542">
        <ele>1048.9</ele>
        <time>2026-05-28T09:16:26.000Z</time>
      </trkpt>
      <trkpt lat="44.01423" lon="3.50542">
        <ele>1049.1</ele>
        <time>2026-05-28T09:16:27.000Z</time>
      </trkpt>
      <trkpt lat="44.01424" lon="3.50543">
        <ele>1048.5</ele>
        <time>2026-05-28T09:16:28.000Z</time>
      </trkpt>
      <trkpt lat="44.01425" lon="3.50542">
        <ele>1048.3</ele>
        <time>2026-05-28T09:16:29.000Z</time>
      </trkpt>
      <trkpt lat="44.01426" lon="3.50543">
        <ele>1048.4</ele>
        <time>2026-05-28T09:16:30.000Z</time>
      </trkpt>
      <trkpt lat="44.01427" lon="3.50543">
        <ele>1048.5</ele>
        <time>2026-05-28T09:16:31.000Z</time>
      </trkpt>
      <trkpt lat="44.01428" lon="3.50543">
        <ele>1048.8</ele>
        <time>2026-05-28T09:16:32.000Z</time>
      </trkpt>
      <trkpt lat="44.01429" lon="3.50543">
        <ele>1048.9</ele>
        <time>2026-05-28T09:16:33.000Z</time>
      </trkpt>
      <trkpt lat="44.0143" lon="3.50543">
        <ele>1049</ele>
        <time>2026-05-28T09:16:34.000Z</time>
      </trkpt>
      <trkpt lat="44.01431" lon="3.50543">
        <ele>1049</ele>
        <time>2026-05-28T09:16:35.000Z</time>
      </trkpt>
      <trkpt lat="44.01431" lon="3.50543">
        <ele>1049.3</ele>
        <time>2026-05-28T09:16:36.000Z</time>
      </trkpt>
      <trkpt lat="44.01432" lon="3.50542">
        <ele>1049.3</ele>
        <time>2026-05-28T09:16:37.000Z</time>
      </trkpt>
      <trkpt lat="44.01432" lon="3.50542">
        <ele>1049.8</ele>
        <time>2026-05-28T09:16:38.000Z</time>
      </trkpt>
      <trkpt lat="44.01432" lon="3.50543">
        <ele>1049.8</ele>
        <time>2026-05-28T09:16:39.000Z</time>
      </trkpt>
      <trkpt lat="44.01433" lon="3.50542">
        <ele>1050</ele>
        <time>2026-05-28T09:16:40.000Z</time>
      </trkpt>
      <trkpt lat="44.01434" lon="3.50541">
        <ele>1049.9</ele>
        <time>2026-05-28T09:16:41.000Z</time>
      </trkpt>
      <trkpt lat="44.01435" lon="3.50541">
        <ele>1049.7</ele>
        <time>2026-05-28T09:16:42.000Z</time>
      </trkpt>
      <trkpt lat="44.01436" lon="3.50541">
        <ele>1049.9</ele>
        <time>2026-05-28T09:16:43.000Z</time>
      </trkpt>
      <trkpt lat="44.01438" lon="3.50542">
        <ele>1049.9</ele>
        <time>2026-05-28T09:16:44.000Z</time>
      </trkpt>
      <trkpt lat="44.01438" lon="3.50542">
        <ele>1050.2</ele>
        <time>2026-05-28T09:16:45.000Z</time>
      </trkpt>
      <trkpt lat="44.01439" lon="3.50542">
        <ele>1050.4</ele>
        <time>2026-05-28T09:16:46.000Z</time>
      </trkpt>
      <trkpt lat="44.0144" lon="3.50541">
        <ele>1050.8</ele>
        <time>2026-05-28T09:16:47.000Z</time>
      </trkpt>
      <trkpt lat="44.01441" lon="3.50542">
        <ele>1051.1</ele>
        <time>2026-05-28T09:16:48.000Z</time>
      </trkpt>
      <trkpt lat="44.01442" lon="3.50542">
        <ele>1051</ele>
        <time>2026-05-28T09:16:49.000Z</time>
      </trkpt>
      <trkpt lat="44.01442" lon="3.50541">
        <ele>1050.9</ele>
        <time>2026-05-28T09:16:50.000Z</time>
      </trkpt>
      <trkpt lat="44.01443" lon="3.50541">
        <ele>1051.3</ele>
        <time>2026-05-28T09:16:51.000Z</time>
      </trkpt>
      <trkpt lat="44.01444" lon="3.5054">
        <ele>1051.4</ele>
        <time>2026-05-28T09:16:52.000Z</time>
      </trkpt>
      <trkpt lat="44.01445" lon="3.5054">
        <ele>1051.4</ele>
        <time>2026-05-28T09:16:53.000Z</time>
      </trkpt>
      <trkpt lat="44.01445" lon="3.5054">
        <ele>1051.8</ele>
        <time>2026-05-28T09:16:54.000Z</time>
      </trkpt>
      <trkpt lat="44.01446" lon="3.5054">
        <ele>1051.8</ele>
        <time>2026-05-28T09:16:55.000Z</time>
      </trkpt>
      <trkpt lat="44.01447" lon="3.5054">
        <ele>1051.7</ele>
        <time>2026-05-28T09:16:56.000Z</time>
      </trkpt>
      <trkpt lat="44.01448" lon="3.5054">
        <ele>1051.6</ele>
        <time>2026-05-28T09:16:57.000Z</time>
      </trkpt>
      <trkpt lat="44.01449" lon="3.50541">
        <ele>1051.4</ele>
        <time>2026-05-28T09:16:58.000Z</time>
      </trkpt>
      <trkpt lat="44.01449" lon="3.50541">
        <ele>1051</ele>
        <time>2026-05-28T09:16:59.000Z</time>
      </trkpt>
      <trkpt lat="44.01451" lon="3.50542">
        <ele>1051.1</ele>
        <time>2026-05-28T09:17:00.000Z</time>
      </trkpt>
      <trkpt lat="44.01452" lon="3.50542">
        <ele>1051.6</ele>
        <time>2026-05-28T09:17:01.000Z</time>
      </trkpt>
      <trkpt lat="44.01454" lon="3.50542">
        <ele>1052.1</ele>
        <time>2026-05-28T09:17:02.000Z</time>
      </trkpt>
      <trkpt lat="44.01454" lon="3.50541">
        <ele>1052.3</ele>
        <time>2026-05-28T09:17:03.000Z</time>
      </trkpt>
      <trkpt lat="44.01455" lon="3.50541">
        <ele>1052.5</ele>
        <time>2026-05-28T09:17:04.000Z</time>
      </trkpt>
      <trkpt lat="44.01455" lon="3.50541">
        <ele>1052.7</ele>
        <time>2026-05-28T09:17:05.000Z</time>
      </trkpt>
      <trkpt lat="44.01456" lon="3.50541">
        <ele>1053</ele>
        <time>2026-05-28T09:17:06.000Z</time>
      </trkpt>
      <trkpt lat="44.01456" lon="3.50541">
        <ele>1053</ele>
        <time>2026-05-28T09:17:07.000Z</time>
      </trkpt>
      <trkpt lat="44.01457" lon="3.50541">
        <ele>1053.5</ele>
        <time>2026-05-28T09:17:08.000Z</time>
      </trkpt>
      <trkpt lat="44.01459" lon="3.50542">
        <ele>1053.6</ele>
        <time>2026-05-28T09:17:09.000Z</time>
      </trkpt>
      <trkpt lat="44.0146" lon="3.50542">
        <ele>1053.6</ele>
        <time>2026-05-28T09:17:10.000Z</time>
      </trkpt>
      <trkpt lat="44.01461" lon="3.50543">
        <ele>1053.8</ele>
        <time>2026-05-28T09:17:11.000Z</time>
      </trkpt>
      <trkpt lat="44.01462" lon="3.50543">
        <ele>1054</ele>
        <time>2026-05-28T09:17:12.000Z</time>
      </trkpt>
      <trkpt lat="44.01463" lon="3.50544">
        <ele>1054.3</ele>
        <time>2026-05-28T09:17:13.000Z</time>
      </trkpt>
      <trkpt lat="44.01464" lon="3.50545">
        <ele>1054.8</ele>
        <time>2026-05-28T09:17:14.000Z</time>
      </trkpt>
      <trkpt lat="44.01465" lon="3.50545">
        <ele>1055.4</ele>
        <time>2026-05-28T09:17:15.000Z</time>
      </trkpt>
      <trkpt lat="44.01466" lon="3.50545">
        <ele>1055.9</ele>
        <time>2026-05-28T09:17:16.000Z</time>
      </trkpt>
      <trkpt lat="44.01466" lon="3.50546">
        <ele>1056.2</ele>
        <time>2026-05-28T09:17:17.000Z</time>
      </trkpt>
      <trkpt lat="44.01467" lon="3.50546">
        <ele>1056.6</ele>
        <time>2026-05-28T09:17:18.000Z</time>
      </trkpt>
      <trkpt lat="44.01468" lon="3.50546">
        <ele>1056.9</ele>
        <time>2026-05-28T09:17:19.000Z</time>
      </trkpt>
      <trkpt lat="44.01469" lon="3.50546">
        <ele>1057.2</ele>
        <time>2026-05-28T09:17:20.000Z</time>
      </trkpt>
      <trkpt lat="44.0147" lon="3.50546">
        <ele>1057.4</ele>
        <time>2026-05-28T09:17:21.000Z</time>
      </trkpt>
      <trkpt lat="44.01471" lon="3.50546">
        <ele>1057.5</ele>
        <time>2026-05-28T09:17:22.000Z</time>
      </trkpt>
      <trkpt lat="44.01473" lon="3.50545">
        <ele>1057.6</ele>
        <time>2026-05-28T09:17:23.000Z</time>
      </trkpt>
      <trkpt lat="44.01474" lon="3.50546">
        <ele>1058</ele>
        <time>2026-05-28T09:17:24.000Z</time>
      </trkpt>
      <trkpt lat="44.01475" lon="3.50546">
        <ele>1057.9</ele>
        <time>2026-05-28T09:17:25.000Z</time>
      </trkpt>
      <trkpt lat="44.01476" lon="3.50546">
        <ele>1057.5</ele>
        <time>2026-05-28T09:17:26.000Z</time>
      </trkpt>
      <trkpt lat="44.01477" lon="3.50547">
        <ele>1057.4</ele>
        <time>2026-05-28T09:17:27.000Z</time>
      </trkpt>
      <trkpt lat="44.01478" lon="3.50546">
        <ele>1057.3</ele>
        <time>2026-05-28T09:17:28.000Z</time>
      </trkpt>
      <trkpt lat="44.01479" lon="3.50546">
        <ele>1057.4</ele>
        <time>2026-05-28T09:17:29.000Z</time>
      </trkpt>
      <trkpt lat="44.0148" lon="3.50546">
        <ele>1057.4</ele>
        <time>2026-05-28T09:17:30.000Z</time>
      </trkpt>
      <trkpt lat="44.01481" lon="3.50547">
        <ele>1057.8</ele>
        <time>2026-05-28T09:17:31.000Z</time>
      </trkpt>
      <trkpt lat="44.01482" lon="3.50547">
        <ele>1057.8</ele>
        <time>2026-05-28T09:17:32.000Z</time>
      </trkpt>
      <trkpt lat="44.01483" lon="3.50548">
        <ele>1058</ele>
        <time>2026-05-28T09:17:33.000Z</time>
      </trkpt>
      <trkpt lat="44.01484" lon="3.50548">
        <ele>1058.3</ele>
        <time>2026-05-28T09:17:34.000Z</time>
      </trkpt>
      <trkpt lat="44.01486" lon="3.50547">
        <ele>1058</ele>
        <time>2026-05-28T09:17:35.000Z</time>
      </trkpt>
      <trkpt lat="44.01487" lon="3.50546">
        <ele>1057.9</ele>
        <time>2026-05-28T09:17:36.000Z</time>
      </trkpt>
      <trkpt lat="44.01487" lon="3.50547">
        <ele>1058.5</ele>
        <time>2026-05-28T09:17:37.000Z</time>
      </trkpt>
      <trkpt lat="44.01488" lon="3.50547">
        <ele>1058.7</ele>
        <time>2026-05-28T09:17:38.000Z</time>
      </trkpt>
      <trkpt lat="44.01489" lon="3.50548">
        <ele>1058.8</ele>
        <time>2026-05-28T09:17:39.000Z</time>
      </trkpt>
      <trkpt lat="44.01489" lon="3.50549">
        <ele>1059.1</ele>
        <time>2026-05-28T09:17:40.000Z</time>
      </trkpt>
      <trkpt lat="44.0149" lon="3.50549">
        <ele>1059.5</ele>
        <time>2026-05-28T09:17:41.000Z</time>
      </trkpt>
      <trkpt lat="44.0149" lon="3.5055">
        <ele>1060.1</ele>
        <time>2026-05-28T09:17:42.000Z</time>
      </trkpt>
      <trkpt lat="44.01491" lon="3.5055">
        <ele>1060.7</ele>
        <time>2026-05-28T09:17:43.000Z</time>
      </trkpt>
      <trkpt lat="44.01492" lon="3.50551">
        <ele>1061.4</ele>
        <time>2026-05-28T09:17:44.000Z</time>
      </trkpt>
      <trkpt lat="44.01493" lon="3.50552">
        <ele>1061.8</ele>
        <time>2026-05-28T09:17:45.000Z</time>
      </trkpt>
      <trkpt lat="44.01494" lon="3.50553">
        <ele>1061.1</ele>
        <time>2026-05-28T09:17:46.000Z</time>
      </trkpt>
      <trkpt lat="44.01494" lon="3.50554">
        <ele>1061.4</ele>
        <time>2026-05-28T09:17:47.000Z</time>
      </trkpt>
      <trkpt lat="44.01495" lon="3.50554">
        <ele>1062</ele>
        <time>2026-05-28T09:17:49.000Z</time>
      </trkpt>
      <trkpt lat="44.01496" lon="3.50555">
        <ele>1060.7</ele>
        <time>2026-05-28T09:17:50.000Z</time>
      </trkpt>
      <trkpt lat="44.01498" lon="3.50556">
        <ele>1059.6</ele>
        <time>2026-05-28T09:17:51.000Z</time>
      </trkpt>
      <trkpt lat="44.01499" lon="3.50557">
        <ele>1059.7</ele>
        <time>2026-05-28T09:17:52.000Z</time>
      </trkpt>
      <trkpt lat="44.01499" lon="3.50557">
        <ele>1060</ele>
        <time>2026-05-28T09:17:53.000Z</time>
      </trkpt>
      <trkpt lat="44.01499" lon="3.50558">
        <ele>1060.5</ele>
        <time>2026-05-28T09:17:54.000Z</time>
      </trkpt>
      <trkpt lat="44.015" lon="3.50558">
        <ele>1061.3</ele>
        <time>2026-05-28T09:17:55.000Z</time>
      </trkpt>
      <trkpt lat="44.01501" lon="3.50559">
        <ele>1061.2</ele>
        <time>2026-05-28T09:17:56.000Z</time>
      </trkpt>
      <trkpt lat="44.01502" lon="3.50558">
        <ele>1060.6</ele>
        <time>2026-05-28T09:17:57.000Z</time>
      </trkpt>
      <trkpt lat="44.01503" lon="3.50558">
        <ele>1060.7</ele>
        <time>2026-05-28T09:17:58.000Z</time>
      </trkpt>
      <trkpt lat="44.01504" lon="3.50558">
        <ele>1061</ele>
        <time>2026-05-28T09:17:59.000Z</time>
      </trkpt>
      <trkpt lat="44.01504" lon="3.50557">
        <ele>1062</ele>
        <time>2026-05-28T09:18:00.000Z</time>
      </trkpt>
      <trkpt lat="44.01505" lon="3.50557">
        <ele>1062.4</ele>
        <time>2026-05-28T09:18:01.000Z</time>
      </trkpt>
      <trkpt lat="44.01507" lon="3.50557">
        <ele>1062.7</ele>
        <time>2026-05-28T09:18:02.000Z</time>
      </trkpt>
      <trkpt lat="44.01508" lon="3.50557">
        <ele>1063.1</ele>
        <time>2026-05-28T09:18:03.000Z</time>
      </trkpt>
      <trkpt lat="44.01509" lon="3.50557">
        <ele>1063.1</ele>
        <time>2026-05-28T09:18:04.000Z</time>
      </trkpt>
      <trkpt lat="44.0151" lon="3.50557">
        <ele>1062.8</ele>
        <time>2026-05-28T09:18:05.000Z</time>
      </trkpt>
      <trkpt lat="44.0151" lon="3.50557">
        <ele>1062.8</ele>
        <time>2026-05-28T09:18:06.000Z</time>
      </trkpt>
      <trkpt lat="44.01511" lon="3.50557">
        <ele>1063.2</ele>
        <time>2026-05-28T09:18:07.000Z</time>
      </trkpt>
      <trkpt lat="44.01511" lon="3.50558">
        <ele>1063.4</ele>
        <time>2026-05-28T09:18:08.000Z</time>
      </trkpt>
      <trkpt lat="44.01511" lon="3.50558">
        <ele>1063.6</ele>
        <time>2026-05-28T09:18:09.000Z</time>
      </trkpt>
      <trkpt lat="44.01512" lon="3.50559">
        <ele>1063.8</ele>
        <time>2026-05-28T09:18:10.000Z</time>
      </trkpt>
      <trkpt lat="44.01512" lon="3.50559">
        <ele>1064</ele>
        <time>2026-05-28T09:18:11.000Z</time>
      </trkpt>
      <trkpt lat="44.01514" lon="3.50559">
        <ele>1063.9</ele>
        <time>2026-05-28T09:18:12.000Z</time>
      </trkpt>
      <trkpt lat="44.01515" lon="3.5056">
        <ele>1064.3</ele>
        <time>2026-05-28T09:18:13.000Z</time>
      </trkpt>
      <trkpt lat="44.01515" lon="3.5056">
        <ele>1064.7</ele>
        <time>2026-05-28T09:18:14.000Z</time>
      </trkpt>
      <trkpt lat="44.01516" lon="3.5056">
        <ele>1064.8</ele>
        <time>2026-05-28T09:18:15.000Z</time>
      </trkpt>
      <trkpt lat="44.01517" lon="3.5056">
        <ele>1065</ele>
        <time>2026-05-28T09:18:16.000Z</time>
      </trkpt>
      <trkpt lat="44.01518" lon="3.5056">
        <ele>1065.1</ele>
        <time>2026-05-28T09:18:17.000Z</time>
      </trkpt>
      <trkpt lat="44.01519" lon="3.5056">
        <ele>1065.1</ele>
        <time>2026-05-28T09:18:18.000Z</time>
      </trkpt>
      <trkpt lat="44.0152" lon="3.5056">
        <ele>1065.6</ele>
        <time>2026-05-28T09:18:19.000Z</time>
      </trkpt>
      <trkpt lat="44.01522" lon="3.5056">
        <ele>1066.3</ele>
        <time>2026-05-28T09:18:20.000Z</time>
      </trkpt>
      <trkpt lat="44.01523" lon="3.5056">
        <ele>1065.7</ele>
        <time>2026-05-28T09:18:21.000Z</time>
      </trkpt>
      <trkpt lat="44.01524" lon="3.5056">
        <ele>1065.3</ele>
        <time>2026-05-28T09:18:22.000Z</time>
      </trkpt>
      <trkpt lat="44.01525" lon="3.50561">
        <ele>1065</ele>
        <time>2026-05-28T09:18:23.000Z</time>
      </trkpt>
      <trkpt lat="44.01526" lon="3.5056">
        <ele>1064.8</ele>
        <time>2026-05-28T09:18:24.000Z</time>
      </trkpt>
      <trkpt lat="44.01527" lon="3.50559">
        <ele>1064.4</ele>
        <time>2026-05-28T09:18:25.000Z</time>
      </trkpt>
      <trkpt lat="44.01529" lon="3.50559">
        <ele>1064</ele>
        <time>2026-05-28T09:18:26.000Z</time>
      </trkpt>
      <trkpt lat="44.0153" lon="3.50559">
        <ele>1064.1</ele>
        <time>2026-05-28T09:18:27.000Z</time>
      </trkpt>
      <trkpt lat="44.01531" lon="3.5056">
        <ele>1064.1</ele>
        <time>2026-05-28T09:18:28.000Z</time>
      </trkpt>
      <trkpt lat="44.01533" lon="3.5056">
        <ele>1063.6</ele>
        <time>2026-05-28T09:18:29.000Z</time>
      </trkpt>
      <trkpt lat="44.01534" lon="3.50561">
        <ele>1063.1</ele>
        <time>2026-05-28T09:18:30.000Z</time>
      </trkpt>
      <trkpt lat="44.01535" lon="3.50562">
        <ele>1063.1</ele>
        <time>2026-05-28T09:18:31.000Z</time>
      </trkpt>
      <trkpt lat="44.01535" lon="3.50563">
        <ele>1063.8</ele>
        <time>2026-05-28T09:18:32.000Z</time>
      </trkpt>
      <trkpt lat="44.01535" lon="3.50564">
        <ele>1064.2</ele>
        <time>2026-05-28T09:18:33.000Z</time>
      </trkpt>
      <trkpt lat="44.01536" lon="3.50564">
        <ele>1063.7</ele>
        <time>2026-05-28T09:18:34.000Z</time>
      </trkpt>
      <trkpt lat="44.01537" lon="3.50564">
        <ele>1063</ele>
        <time>2026-05-28T09:18:35.000Z</time>
      </trkpt>
      <trkpt lat="44.01538" lon="3.50566">
        <ele>1062.6</ele>
        <time>2026-05-28T09:18:36.000Z</time>
      </trkpt>
      <trkpt lat="44.01538" lon="3.50567">
        <ele>1063</ele>
        <time>2026-05-28T09:18:37.000Z</time>
      </trkpt>
      <trkpt lat="44.01539" lon="3.50566">
        <ele>1063.3</ele>
        <time>2026-05-28T09:18:38.000Z</time>
      </trkpt>
      <trkpt lat="44.0154" lon="3.50566">
        <ele>1063.7</ele>
        <time>2026-05-28T09:18:39.000Z</time>
      </trkpt>
      <trkpt lat="44.0154" lon="3.50565">
        <ele>1063.5</ele>
        <time>2026-05-28T09:18:40.000Z</time>
      </trkpt>
      <trkpt lat="44.01542" lon="3.50565">
        <ele>1064.1</ele>
        <time>2026-05-28T09:18:41.000Z</time>
      </trkpt>
      <trkpt lat="44.01543" lon="3.50565">
        <ele>1064.1</ele>
        <time>2026-05-28T09:18:42.000Z</time>
      </trkpt>
      <trkpt lat="44.01543" lon="3.50566">
        <ele>1064.5</ele>
        <time>2026-05-28T09:18:43.000Z</time>
      </trkpt>
      <trkpt lat="44.01544" lon="3.50566">
        <ele>1064.9</ele>
        <time>2026-05-28T09:18:44.000Z</time>
      </trkpt>
      <trkpt lat="44.01545" lon="3.50566">
        <ele>1065.3</ele>
        <time>2026-05-28T09:18:45.000Z</time>
      </trkpt>
      <trkpt lat="44.01545" lon="3.50567">
        <ele>1065.2</ele>
        <time>2026-05-28T09:18:46.000Z</time>
      </trkpt>
      <trkpt lat="44.01546" lon="3.50567">
        <ele>1065.3</ele>
        <time>2026-05-28T09:18:47.000Z</time>
      </trkpt>
      <trkpt lat="44.01546" lon="3.50566">
        <ele>1066</ele>
        <time>2026-05-28T09:18:48.000Z</time>
      </trkpt>
      <trkpt lat="44.01547" lon="3.50566">
        <ele>1067</ele>
        <time>2026-05-28T09:18:49.000Z</time>
      </trkpt>
      <trkpt lat="44.01548" lon="3.50567">
        <ele>1067.9</ele>
        <time>2026-05-28T09:18:50.000Z</time>
      </trkpt>
      <trkpt lat="44.01549" lon="3.50567">
        <ele>1068.7</ele>
        <time>2026-05-28T09:18:51.000Z</time>
      </trkpt>
      <trkpt lat="44.01551" lon="3.50567">
        <ele>1068.7</ele>
        <time>2026-05-28T09:18:52.000Z</time>
      </trkpt>
      <trkpt lat="44.01552" lon="3.50567">
        <ele>1069.2</ele>
        <time>2026-05-28T09:18:53.000Z</time>
      </trkpt>
      <trkpt lat="44.01554" lon="3.50566">
        <ele>1069.8</ele>
        <time>2026-05-28T09:18:54.000Z</time>
      </trkpt>
      <trkpt lat="44.01555" lon="3.50566">
        <ele>1070.1</ele>
        <time>2026-05-28T09:18:55.000Z</time>
      </trkpt>
      <trkpt lat="44.01557" lon="3.50566">
        <ele>1070.8</ele>
        <time>2026-05-28T09:18:56.000Z</time>
      </trkpt>
      <trkpt lat="44.01558" lon="3.50566">
        <ele>1070.9</ele>
        <time>2026-05-28T09:18:57.000Z</time>
      </trkpt>
      <trkpt lat="44.01558" lon="3.50566">
        <ele>1071</ele>
        <time>2026-05-28T09:18:58.000Z</time>
      </trkpt>
      <trkpt lat="44.01559" lon="3.50567">
        <ele>1071.4</ele>
        <time>2026-05-28T09:18:59.000Z</time>
      </trkpt>
      <trkpt lat="44.0156" lon="3.50567">
        <ele>1072.2</ele>
        <time>2026-05-28T09:19:00.000Z</time>
      </trkpt>
      <trkpt lat="44.01561" lon="3.50569">
        <ele>1073.3</ele>
        <time>2026-05-28T09:19:01.000Z</time>
      </trkpt>
      <trkpt lat="44.01562" lon="3.5057">
        <ele>1072.7</ele>
        <time>2026-05-28T09:19:02.000Z</time>
      </trkpt>
      <trkpt lat="44.01563" lon="3.50571">
        <ele>1071.8</ele>
        <time>2026-05-28T09:19:03.000Z</time>
      </trkpt>
      <trkpt lat="44.01564" lon="3.50572">
        <ele>1071.2</ele>
        <time>2026-05-28T09:19:04.000Z</time>
      </trkpt>
      <trkpt lat="44.01566" lon="3.50572">
        <ele>1071.2</ele>
        <time>2026-05-28T09:19:05.000Z</time>
      </trkpt>
      <trkpt lat="44.01567" lon="3.50573">
        <ele>1071.3</ele>
        <time>2026-05-28T09:19:06.000Z</time>
      </trkpt>
      <trkpt lat="44.01568" lon="3.50573">
        <ele>1071</ele>
        <time>2026-05-28T09:19:07.000Z</time>
      </trkpt>
      <trkpt lat="44.01568" lon="3.50574">
        <ele>1070.7</ele>
        <time>2026-05-28T09:19:08.000Z</time>
      </trkpt>
      <trkpt lat="44.01569" lon="3.50576">
        <ele>1070.3</ele>
        <time>2026-05-28T09:19:09.000Z</time>
      </trkpt>
      <trkpt lat="44.0157" lon="3.50577">
        <ele>1070</ele>
        <time>2026-05-28T09:19:10.000Z</time>
      </trkpt>
      <trkpt lat="44.0157" lon="3.50578">
        <ele>1070.1</ele>
        <time>2026-05-28T09:19:11.000Z</time>
      </trkpt>
      <trkpt lat="44.01571" lon="3.50578">
        <ele>1070.7</ele>
        <time>2026-05-28T09:19:12.000Z</time>
      </trkpt>
      <trkpt lat="44.01572" lon="3.5058">
        <ele>1071.2</ele>
        <time>2026-05-28T09:19:13.000Z</time>
      </trkpt>
      <trkpt lat="44.01573" lon="3.50581">
        <ele>1071.4</ele>
        <time>2026-05-28T09:19:14.000Z</time>
      </trkpt>
      <trkpt lat="44.01573" lon="3.50584">
        <ele>1071.9</ele>
        <time>2026-05-28T09:19:15.000Z</time>
      </trkpt>
      <trkpt lat="44.01574" lon="3.50585">
        <ele>1072.4</ele>
        <time>2026-05-28T09:19:16.000Z</time>
      </trkpt>
      <trkpt lat="44.01575" lon="3.50584">
        <ele>1072.8</ele>
        <time>2026-05-28T09:19:17.000Z</time>
      </trkpt>
      <trkpt lat="44.01575" lon="3.50586">
        <ele>1073.4</ele>
        <time>2026-05-28T09:19:18.000Z</time>
      </trkpt>
      <trkpt lat="44.01575" lon="3.50587">
        <ele>1073.8</ele>
        <time>2026-05-28T09:19:19.000Z</time>
      </trkpt>
      <trkpt lat="44.01576" lon="3.50588">
        <ele>1074.2</ele>
        <time>2026-05-28T09:19:20.000Z</time>
      </trkpt>
      <trkpt lat="44.01576" lon="3.50589">
        <ele>1075.5</ele>
        <time>2026-05-28T09:19:21.000Z</time>
      </trkpt>
      <trkpt lat="44.01576" lon="3.50591">
        <ele>1076.5</ele>
        <time>2026-05-28T09:19:22.000Z</time>
      </trkpt>
      <trkpt lat="44.01577" lon="3.50591">
        <ele>1076.2</ele>
        <time>2026-05-28T09:19:23.000Z</time>
      </trkpt>
      <trkpt lat="44.01577" lon="3.50591">
        <ele>1076.4</ele>
        <time>2026-05-28T09:19:24.000Z</time>
      </trkpt>
      <trkpt lat="44.01578" lon="3.50591">
        <ele>1076.4</ele>
        <time>2026-05-28T09:19:25.000Z</time>
      </trkpt>
      <trkpt lat="44.01579" lon="3.5059">
        <ele>1076.6</ele>
        <time>2026-05-28T09:19:26.000Z</time>
      </trkpt>
      <trkpt lat="44.0158" lon="3.50591">
        <ele>1076.7</ele>
        <time>2026-05-28T09:19:27.000Z</time>
      </trkpt>
      <trkpt lat="44.01582" lon="3.5059">
        <ele>1076.6</ele>
        <time>2026-05-28T09:19:28.000Z</time>
      </trkpt>
      <trkpt lat="44.01583" lon="3.5059">
        <ele>1076.4</ele>
        <time>2026-05-28T09:19:29.000Z</time>
      </trkpt>
      <trkpt lat="44.01584" lon="3.5059">
        <ele>1076.1</ele>
        <time>2026-05-28T09:19:30.000Z</time>
      </trkpt>
      <trkpt lat="44.01585" lon="3.50591">
        <ele>1077</ele>
        <time>2026-05-28T09:19:31.000Z</time>
      </trkpt>
      <trkpt lat="44.01585" lon="3.50591">
        <ele>1076.7</ele>
        <time>2026-05-28T09:19:32.000Z</time>
      </trkpt>
      <trkpt lat="44.01586" lon="3.50592">
        <ele>1077.1</ele>
        <time>2026-05-28T09:19:33.000Z</time>
      </trkpt>
      <trkpt lat="44.01587" lon="3.50593">
        <ele>1077.3</ele>
        <time>2026-05-28T09:19:34.000Z</time>
      </trkpt>
      <trkpt lat="44.01588" lon="3.50594">
        <ele>1077.8</ele>
        <time>2026-05-28T09:19:35.000Z</time>
      </trkpt>
      <trkpt lat="44.01589" lon="3.50594">
        <ele>1077.9</ele>
        <time>2026-05-28T09:19:36.000Z</time>
      </trkpt>
      <trkpt lat="44.0159" lon="3.50594">
        <ele>1078</ele>
        <time>2026-05-28T09:19:37.000Z</time>
      </trkpt>
      <trkpt lat="44.01591" lon="3.50594">
        <ele>1078</ele>
        <time>2026-05-28T09:19:38.000Z</time>
      </trkpt>
      <trkpt lat="44.01592" lon="3.50594">
        <ele>1078.2</ele>
        <time>2026-05-28T09:19:39.000Z</time>
      </trkpt>
      <trkpt lat="44.01593" lon="3.50594">
        <ele>1078.5</ele>
        <time>2026-05-28T09:19:40.000Z</time>
      </trkpt>
      <trkpt lat="44.01594" lon="3.50595">
        <ele>1078.6</ele>
        <time>2026-05-28T09:19:41.000Z</time>
      </trkpt>
      <trkpt lat="44.01594" lon="3.50595">
        <ele>1078.7</ele>
        <time>2026-05-28T09:19:42.000Z</time>
      </trkpt>
      <trkpt lat="44.01596" lon="3.50596">
        <ele>1078</ele>
        <time>2026-05-28T09:19:43.000Z</time>
      </trkpt>
      <trkpt lat="44.01597" lon="3.50598">
        <ele>1077.7</ele>
        <time>2026-05-28T09:19:44.000Z</time>
      </trkpt>
      <trkpt lat="44.01598" lon="3.50597">
        <ele>1077.7</ele>
        <time>2026-05-28T09:19:45.000Z</time>
      </trkpt>
      <trkpt lat="44.01599" lon="3.50598">
        <ele>1077.7</ele>
        <time>2026-05-28T09:19:46.000Z</time>
      </trkpt>
      <trkpt lat="44.016" lon="3.50598">
        <ele>1077.7</ele>
        <time>2026-05-28T09:19:47.000Z</time>
      </trkpt>
      <trkpt lat="44.016" lon="3.50599">
        <ele>1077</ele>
        <time>2026-05-28T09:19:48.000Z</time>
      </trkpt>
      <trkpt lat="44.01601" lon="3.50601">
        <ele>1077.1</ele>
        <time>2026-05-28T09:19:49.000Z</time>
      </trkpt>
      <trkpt lat="44.01602" lon="3.50601">
        <ele>1077.2</ele>
        <time>2026-05-28T09:19:50.000Z</time>
      </trkpt>
      <trkpt lat="44.01603" lon="3.50603">
        <ele>1076.8</ele>
        <time>2026-05-28T09:19:51.000Z</time>
      </trkpt>
      <trkpt lat="44.01604" lon="3.50604">
        <ele>1076.4</ele>
        <time>2026-05-28T09:19:52.000Z</time>
      </trkpt>
      <trkpt lat="44.01605" lon="3.50605">
        <ele>1075.8</ele>
        <time>2026-05-28T09:19:53.000Z</time>
      </trkpt>
      <trkpt lat="44.01605" lon="3.50605">
        <ele>1075.7</ele>
        <time>2026-05-28T09:19:54.000Z</time>
      </trkpt>
      <trkpt lat="44.01605" lon="3.50606">
        <ele>1076.2</ele>
        <time>2026-05-28T09:19:55.000Z</time>
      </trkpt>
      <trkpt lat="44.01605" lon="3.50605">
        <ele>1076.6</ele>
        <time>2026-05-28T09:19:56.000Z</time>
      </trkpt>
      <trkpt lat="44.01606" lon="3.50606">
        <ele>1076.8</ele>
        <time>2026-05-28T09:19:57.000Z</time>
      </trkpt>
      <trkpt lat="44.01607" lon="3.50605">
        <ele>1077.3</ele>
        <time>2026-05-28T09:19:58.000Z</time>
      </trkpt>
      <trkpt lat="44.01608" lon="3.50605">
        <ele>1076.8</ele>
        <time>2026-05-28T09:19:59.000Z</time>
      </trkpt>
      <trkpt lat="44.01609" lon="3.50606">
        <ele>1076.9</ele>
        <time>2026-05-28T09:20:00.000Z</time>
      </trkpt>
      <trkpt lat="44.0161" lon="3.50607">
        <ele>1076.7</ele>
        <time>2026-05-28T09:20:01.000Z</time>
      </trkpt>
      <trkpt lat="44.0161" lon="3.50608">
        <ele>1076.4</ele>
        <time>2026-05-28T09:20:02.000Z</time>
      </trkpt>
      <trkpt lat="44.01611" lon="3.50608">
        <ele>1076.1</ele>
        <time>2026-05-28T09:20:03.000Z</time>
      </trkpt>
      <trkpt lat="44.01611" lon="3.50609">
        <ele>1075.8</ele>
        <time>2026-05-28T09:20:04.000Z</time>
      </trkpt>
      <trkpt lat="44.01612" lon="3.50609">
        <ele>1075.6</ele>
        <time>2026-05-28T09:20:05.000Z</time>
      </trkpt>
      <trkpt lat="44.01612" lon="3.50609">
        <ele>1075.8</ele>
        <time>2026-05-28T09:20:06.000Z</time>
      </trkpt>
      <trkpt lat="44.01614" lon="3.5061">
        <ele>1075.7</ele>
        <time>2026-05-28T09:20:07.000Z</time>
      </trkpt>
      <trkpt lat="44.01615" lon="3.50611">
        <ele>1074.9</ele>
        <time>2026-05-28T09:20:08.000Z</time>
      </trkpt>
      <trkpt lat="44.01617" lon="3.50612">
        <ele>1074.4</ele>
        <time>2026-05-28T09:20:09.000Z</time>
      </trkpt>
      <trkpt lat="44.01618" lon="3.50612">
        <ele>1074.8</ele>
        <time>2026-05-28T09:20:10.000Z</time>
      </trkpt>
      <trkpt lat="44.01619" lon="3.50612">
        <ele>1074.7</ele>
        <time>2026-05-28T09:20:11.000Z</time>
      </trkpt>
      <trkpt lat="44.01619" lon="3.50612">
        <ele>1075</ele>
        <time>2026-05-28T09:20:12.000Z</time>
      </trkpt>
      <trkpt lat="44.0162" lon="3.50612">
        <ele>1075.2</ele>
        <time>2026-05-28T09:20:13.000Z</time>
      </trkpt>
      <trkpt lat="44.01621" lon="3.50612">
        <ele>1075.6</ele>
        <time>2026-05-28T09:20:14.000Z</time>
      </trkpt>
      <trkpt lat="44.01621" lon="3.50612">
        <ele>1075.5</ele>
        <time>2026-05-28T09:20:15.000Z</time>
      </trkpt>
      <trkpt lat="44.01622" lon="3.50612">
        <ele>1074.9</ele>
        <time>2026-05-28T09:20:16.000Z</time>
      </trkpt>
      <trkpt lat="44.01624" lon="3.50613">
        <ele>1074.2</ele>
        <time>2026-05-28T09:20:17.000Z</time>
      </trkpt>
      <trkpt lat="44.01624" lon="3.50613">
        <ele>1073.5</ele>
        <time>2026-05-28T09:20:18.000Z</time>
      </trkpt>
      <trkpt lat="44.01625" lon="3.50613">
        <ele>1073.4</ele>
        <time>2026-05-28T09:20:19.000Z</time>
      </trkpt>
      <trkpt lat="44.01626" lon="3.50613">
        <ele>1073.3</ele>
        <time>2026-05-28T09:20:20.000Z</time>
      </trkpt>
      <trkpt lat="44.01627" lon="3.50613">
        <ele>1073.7</ele>
        <time>2026-05-28T09:20:21.000Z</time>
      </trkpt>
      <trkpt lat="44.01627" lon="3.50613">
        <ele>1074.3</ele>
        <time>2026-05-28T09:20:22.000Z</time>
      </trkpt>
      <trkpt lat="44.01628" lon="3.50612">
        <ele>1075.3</ele>
        <time>2026-05-28T09:20:23.000Z</time>
      </trkpt>
      <trkpt lat="44.01629" lon="3.50613">
        <ele>1074.8</ele>
        <time>2026-05-28T09:20:24.000Z</time>
      </trkpt>
      <trkpt lat="44.0163" lon="3.50614">
        <ele>1074.4</ele>
        <time>2026-05-28T09:20:25.000Z</time>
      </trkpt>
      <trkpt lat="44.01631" lon="3.50614">
        <ele>1074.1</ele>
        <time>2026-05-28T09:20:26.000Z</time>
      </trkpt>
      <trkpt lat="44.01632" lon="3.50614">
        <ele>1073.9</ele>
        <time>2026-05-28T09:20:27.000Z</time>
      </trkpt>
      <trkpt lat="44.01633" lon="3.50614">
        <ele>1073.8</ele>
        <time>2026-05-28T09:20:28.000Z</time>
      </trkpt>
      <trkpt lat="44.01635" lon="3.50615">
        <ele>1073.3</ele>
        <time>2026-05-28T09:20:29.000Z</time>
      </trkpt>
      <trkpt lat="44.01636" lon="3.50615">
        <ele>1072.7</ele>
        <time>2026-05-28T09:20:30.000Z</time>
      </trkpt>
      <trkpt lat="44.01637" lon="3.50616">
        <ele>1072.4</ele>
        <time>2026-05-28T09:20:31.000Z</time>
      </trkpt>
      <trkpt lat="44.01638" lon="3.50616">
        <ele>1072.8</ele>
        <time>2026-05-28T09:20:32.000Z</time>
      </trkpt>
      <trkpt lat="44.01639" lon="3.50617">
        <ele>1073.1</ele>
        <time>2026-05-28T09:20:33.000Z</time>
      </trkpt>
      <trkpt lat="44.0164" lon="3.50617">
        <ele>1072.8</ele>
        <time>2026-05-28T09:20:34.000Z</time>
      </trkpt>
      <trkpt lat="44.01641" lon="3.50618">
        <ele>1072.2</ele>
        <time>2026-05-28T09:20:35.000Z</time>
      </trkpt>
      <trkpt lat="44.01642" lon="3.50619">
        <ele>1071.9</ele>
        <time>2026-05-28T09:20:36.000Z</time>
      </trkpt>
      <trkpt lat="44.01643" lon="3.50619">
        <ele>1071.9</ele>
        <time>2026-05-28T09:20:37.000Z</time>
      </trkpt>
      <trkpt lat="44.01644" lon="3.5062">
        <ele>1072.2</ele>
        <time>2026-05-28T09:20:38.000Z</time>
      </trkpt>
      <trkpt lat="44.01645" lon="3.5062">
        <ele>1072</ele>
        <time>2026-05-28T09:20:39.000Z</time>
      </trkpt>
      <trkpt lat="44.01646" lon="3.50621">
        <ele>1071.9</ele>
        <time>2026-05-28T09:20:40.000Z</time>
      </trkpt>
      <trkpt lat="44.01648" lon="3.50622">
        <ele>1071.3</ele>
        <time>2026-05-28T09:20:41.000Z</time>
      </trkpt>
      <trkpt lat="44.01649" lon="3.50623">
        <ele>1071.1</ele>
        <time>2026-05-28T09:20:42.000Z</time>
      </trkpt>
      <trkpt lat="44.0165" lon="3.50623">
        <ele>1071.1</ele>
        <time>2026-05-28T09:20:43.000Z</time>
      </trkpt>
      <trkpt lat="44.0165" lon="3.50624">
        <ele>1071</ele>
        <time>2026-05-28T09:20:44.000Z</time>
      </trkpt>
      <trkpt lat="44.01651" lon="3.50625">
        <ele>1071.3</ele>
        <time>2026-05-28T09:20:45.000Z</time>
      </trkpt>
      <trkpt lat="44.01652" lon="3.50625">
        <ele>1072.5</ele>
        <time>2026-05-28T09:20:46.000Z</time>
      </trkpt>
      <trkpt lat="44.01652" lon="3.50625">
        <ele>1072.5</ele>
        <time>2026-05-28T09:20:47.000Z</time>
      </trkpt>
      <trkpt lat="44.01652" lon="3.50625">
        <ele>1072.4</ele>
        <time>2026-05-28T09:20:48.000Z</time>
      </trkpt>
      <trkpt lat="44.01653" lon="3.50625">
        <ele>1072.5</ele>
        <time>2026-05-28T09:20:49.000Z</time>
      </trkpt>
      <trkpt lat="44.01653" lon="3.50624">
        <ele>1072.5</ele>
        <time>2026-05-28T09:20:50.000Z</time>
      </trkpt>
      <trkpt lat="44.01654" lon="3.50624">
        <ele>1072.4</ele>
        <time>2026-05-28T09:20:51.000Z</time>
      </trkpt>
      <trkpt lat="44.01656" lon="3.50625">
        <ele>1072.1</ele>
        <time>2026-05-28T09:20:52.000Z</time>
      </trkpt>
      <trkpt lat="44.01657" lon="3.50626">
        <ele>1072.1</ele>
        <time>2026-05-28T09:20:53.000Z</time>
      </trkpt>
      <trkpt lat="44.01658" lon="3.50626">
        <ele>1071.8</ele>
        <time>2026-05-28T09:20:54.000Z</time>
      </trkpt>
      <trkpt lat="44.01658" lon="3.50627">
        <ele>1072.2</ele>
        <time>2026-05-28T09:20:55.000Z</time>
      </trkpt>
      <trkpt lat="44.01659" lon="3.50628">
        <ele>1071.8</ele>
        <time>2026-05-28T09:20:56.000Z</time>
      </trkpt>
      <trkpt lat="44.0166" lon="3.50628">
        <ele>1071.7</ele>
        <time>2026-05-28T09:20:57.000Z</time>
      </trkpt>
      <trkpt lat="44.01662" lon="3.50629">
        <ele>1071.1</ele>
        <time>2026-05-28T09:20:58.000Z</time>
      </trkpt>
      <trkpt lat="44.01662" lon="3.5063">
        <ele>1071.3</ele>
        <time>2026-05-28T09:20:59.000Z</time>
      </trkpt>
      <trkpt lat="44.01663" lon="3.5063">
        <ele>1071.6</ele>
        <time>2026-05-28T09:21:00.000Z</time>
      </trkpt>
      <trkpt lat="44.01663" lon="3.50631">
        <ele>1071.9</ele>
        <time>2026-05-28T09:21:01.000Z</time>
      </trkpt>
      <trkpt lat="44.01664" lon="3.50632">
        <ele>1072.1</ele>
        <time>2026-05-28T09:21:02.000Z</time>
      </trkpt>
      <trkpt lat="44.01665" lon="3.50633">
        <ele>1072.3</ele>
        <time>2026-05-28T09:21:03.000Z</time>
      </trkpt>
      <trkpt lat="44.01666" lon="3.50634">
        <ele>1072.4</ele>
        <time>2026-05-28T09:21:04.000Z</time>
      </trkpt>
      <trkpt lat="44.01667" lon="3.50634">
        <ele>1072.3</ele>
        <time>2026-05-28T09:21:05.000Z</time>
      </trkpt>
      <trkpt lat="44.01668" lon="3.50635">
        <ele>1072.9</ele>
        <time>2026-05-28T09:21:06.000Z</time>
      </trkpt>
      <trkpt lat="44.0167" lon="3.50635">
        <ele>1073.4</ele>
        <time>2026-05-28T09:21:07.000Z</time>
      </trkpt>
      <trkpt lat="44.01671" lon="3.50636">
        <ele>1073.4</ele>
        <time>2026-05-28T09:21:08.000Z</time>
      </trkpt>
      <trkpt lat="44.01672" lon="3.50636">
        <ele>1073.3</ele>
        <time>2026-05-28T09:21:09.000Z</time>
      </trkpt>
      <trkpt lat="44.01673" lon="3.50636">
        <ele>1073.2</ele>
        <time>2026-05-28T09:21:10.000Z</time>
      </trkpt>
      <trkpt lat="44.01674" lon="3.50636">
        <ele>1073.2</ele>
        <time>2026-05-28T09:21:11.000Z</time>
      </trkpt>
      <trkpt lat="44.01675" lon="3.50636">
        <ele>1073.2</ele>
        <time>2026-05-28T09:21:12.000Z</time>
      </trkpt>
      <trkpt lat="44.01676" lon="3.50636">
        <ele>1073.3</ele>
        <time>2026-05-28T09:21:13.000Z</time>
      </trkpt>
      <trkpt lat="44.01677" lon="3.50636">
        <ele>1073.6</ele>
        <time>2026-05-28T09:21:14.000Z</time>
      </trkpt>
      <trkpt lat="44.01677" lon="3.50636">
        <ele>1074</ele>
        <time>2026-05-28T09:21:15.000Z</time>
      </trkpt>
      <trkpt lat="44.01678" lon="3.50636">
        <ele>1074</ele>
        <time>2026-05-28T09:21:16.000Z</time>
      </trkpt>
      <trkpt lat="44.01678" lon="3.50636">
        <ele>1074.2</ele>
        <time>2026-05-28T09:21:17.000Z</time>
      </trkpt>
      <trkpt lat="44.01679" lon="3.50636">
        <ele>1074.3</ele>
        <time>2026-05-28T09:21:18.000Z</time>
      </trkpt>
      <trkpt lat="44.01679" lon="3.50637">
        <ele>1074</ele>
        <time>2026-05-28T09:21:19.000Z</time>
      </trkpt>
      <trkpt lat="44.0168" lon="3.50638">
        <ele>1074</ele>
        <time>2026-05-28T09:21:20.000Z</time>
      </trkpt>
      <trkpt lat="44.01681" lon="3.50638">
        <ele>1074.1</ele>
        <time>2026-05-28T09:21:21.000Z</time>
      </trkpt>
      <trkpt lat="44.01682" lon="3.50639">
        <ele>1073.9</ele>
        <time>2026-05-28T09:21:22.000Z</time>
      </trkpt>
      <trkpt lat="44.01683" lon="3.5064">
        <ele>1073.8</ele>
        <time>2026-05-28T09:21:23.000Z</time>
      </trkpt>
      <trkpt lat="44.01684" lon="3.50641">
        <ele>1073.3</ele>
        <time>2026-05-28T09:21:24.000Z</time>
      </trkpt>
      <trkpt lat="44.01685" lon="3.50642">
        <ele>1073.1</ele>
        <time>2026-05-28T09:21:25.000Z</time>
      </trkpt>
      <trkpt lat="44.01686" lon="3.50642">
        <ele>1073</ele>
        <time>2026-05-28T09:21:26.000Z</time>
      </trkpt>
      <trkpt lat="44.01687" lon="3.50643">
        <ele>1072.9</ele>
        <time>2026-05-28T09:21:27.000Z</time>
      </trkpt>
      <trkpt lat="44.01689" lon="3.50643">
        <ele>1072.8</ele>
        <time>2026-05-28T09:21:28.000Z</time>
      </trkpt>
      <trkpt lat="44.0169" lon="3.50644">
        <ele>1072.4</ele>
        <time>2026-05-28T09:21:29.000Z</time>
      </trkpt>
      <trkpt lat="44.01691" lon="3.50645">
        <ele>1072.6</ele>
        <time>2026-05-28T09:21:30.000Z</time>
      </trkpt>
      <trkpt lat="44.01692" lon="3.50645">
        <ele>1072.9</ele>
        <time>2026-05-28T09:21:31.000Z</time>
      </trkpt>
      <trkpt lat="44.01693" lon="3.50645">
        <ele>1072.8</ele>
        <time>2026-05-28T09:21:32.000Z</time>
      </trkpt>
      <trkpt lat="44.01694" lon="3.50646">
        <ele>1073.2</ele>
        <time>2026-05-28T09:21:33.000Z</time>
      </trkpt>
      <trkpt lat="44.01695" lon="3.50646">
        <ele>1073.2</ele>
        <time>2026-05-28T09:21:34.000Z</time>
      </trkpt>
      <trkpt lat="44.01696" lon="3.50646">
        <ele>1072.8</ele>
        <time>2026-05-28T09:21:35.000Z</time>
      </trkpt>
      <trkpt lat="44.01697" lon="3.50647">
        <ele>1072.6</ele>
        <time>2026-05-28T09:21:36.000Z</time>
      </trkpt>
      <trkpt lat="44.01698" lon="3.50647">
        <ele>1072.8</ele>
        <time>2026-05-28T09:21:37.000Z</time>
      </trkpt>
      <trkpt lat="44.01699" lon="3.50648">
        <ele>1073.1</ele>
        <time>2026-05-28T09:21:38.000Z</time>
      </trkpt>
      <trkpt lat="44.017" lon="3.50648">
        <ele>1073.7</ele>
        <time>2026-05-28T09:21:39.000Z</time>
      </trkpt>
      <trkpt lat="44.01701" lon="3.50648">
        <ele>1074.3</ele>
        <time>2026-05-28T09:21:40.000Z</time>
      </trkpt>
      <trkpt lat="44.01702" lon="3.50648">
        <ele>1074.3</ele>
        <time>2026-05-28T09:21:41.000Z</time>
      </trkpt>
      <trkpt lat="44.01703" lon="3.50648">
        <ele>1074.3</ele>
        <time>2026-05-28T09:21:42.000Z</time>
      </trkpt>
      <trkpt lat="44.01703" lon="3.50649">
        <ele>1074.8</ele>
        <time>2026-05-28T09:21:43.000Z</time>
      </trkpt>
      <trkpt lat="44.01705" lon="3.50649">
        <ele>1074.9</ele>
        <time>2026-05-28T09:21:44.000Z</time>
      </trkpt>
      <trkpt lat="44.01706" lon="3.50648">
        <ele>1075.4</ele>
        <time>2026-05-28T09:21:45.000Z</time>
      </trkpt>
      <trkpt lat="44.01707" lon="3.50648">
        <ele>1075.6</ele>
        <time>2026-05-28T09:21:46.000Z</time>
      </trkpt>
      <trkpt lat="44.01708" lon="3.50647">
        <ele>1075.8</ele>
        <time>2026-05-28T09:21:47.000Z</time>
      </trkpt>
      <trkpt lat="44.01708" lon="3.50647">
        <ele>1075.6</ele>
        <time>2026-05-28T09:21:48.000Z</time>
      </trkpt>
      <trkpt lat="44.01709" lon="3.50647">
        <ele>1075.1</ele>
        <time>2026-05-28T09:21:49.000Z</time>
      </trkpt>
      <trkpt lat="44.0171" lon="3.50647">
        <ele>1075</ele>
        <time>2026-05-28T09:21:50.000Z</time>
      </trkpt>
      <trkpt lat="44.0171" lon="3.50646">
        <ele>1075</ele>
        <time>2026-05-28T09:21:51.000Z</time>
      </trkpt>
      <trkpt lat="44.01711" lon="3.50646">
        <ele>1075.1</ele>
        <time>2026-05-28T09:21:52.000Z</time>
      </trkpt>
      <trkpt lat="44.01712" lon="3.50646">
        <ele>1075</ele>
        <time>2026-05-28T09:21:53.000Z</time>
      </trkpt>
      <trkpt lat="44.01713" lon="3.50646">
        <ele>1075.1</ele>
        <time>2026-05-28T09:21:54.000Z</time>
      </trkpt>
      <trkpt lat="44.01713" lon="3.50646">
        <ele>1075.1</ele>
        <time>2026-05-28T09:21:55.000Z</time>
      </trkpt>
      <trkpt lat="44.01714" lon="3.50646">
        <ele>1075.4</ele>
        <time>2026-05-28T09:21:56.000Z</time>
      </trkpt>
      <trkpt lat="44.01715" lon="3.50647">
        <ele>1075.4</ele>
        <time>2026-05-28T09:21:57.000Z</time>
      </trkpt>
      <trkpt lat="44.01717" lon="3.50648">
        <ele>1074.7</ele>
        <time>2026-05-28T09:21:58.000Z</time>
      </trkpt>
      <trkpt lat="44.01718" lon="3.50648">
        <ele>1075</ele>
        <time>2026-05-28T09:21:59.000Z</time>
      </trkpt>
      <trkpt lat="44.01721" lon="3.50648">
        <ele>1075.4</ele>
        <time>2026-05-28T09:22:01.000Z</time>
      </trkpt>
      <trkpt lat="44.01722" lon="3.50648">
        <ele>1076.5</ele>
        <time>2026-05-28T09:22:02.000Z</time>
      </trkpt>
      <trkpt lat="44.01723" lon="3.50648">
        <ele>1076.1</ele>
        <time>2026-05-28T09:22:03.000Z</time>
      </trkpt>
      <trkpt lat="44.01723" lon="3.50648">
        <ele>1074.9</ele>
        <time>2026-05-28T09:22:04.000Z</time>
      </trkpt>
      <trkpt lat="44.01724" lon="3.50648">
        <ele>1074.9</ele>
        <time>2026-05-28T09:22:05.000Z</time>
      </trkpt>
      <trkpt lat="44.01725" lon="3.50648">
        <ele>1074.6</ele>
        <time>2026-05-28T09:22:06.000Z</time>
      </trkpt>
      <trkpt lat="44.01726" lon="3.50648">
        <ele>1074.9</ele>
        <time>2026-05-28T09:22:07.000Z</time>
      </trkpt>
      <trkpt lat="44.01726" lon="3.50648">
        <ele>1075.7</ele>
        <time>2026-05-28T09:22:08.000Z</time>
      </trkpt>
      <trkpt lat="44.01727" lon="3.50648">
        <ele>1075.9</ele>
        <time>2026-05-28T09:22:09.000Z</time>
      </trkpt>
      <trkpt lat="44.01728" lon="3.50648">
        <ele>1076</ele>
        <time>2026-05-28T09:22:10.000Z</time>
      </trkpt>
      <trkpt lat="44.01728" lon="3.50649">
        <ele>1075.4</ele>
        <time>2026-05-28T09:22:11.000Z</time>
      </trkpt>
      <trkpt lat="44.01728" lon="3.50649">
        <ele>1074.8</ele>
        <time>2026-05-28T09:22:12.000Z</time>
      </trkpt>
      <trkpt lat="44.01729" lon="3.50649">
        <ele>1074.4</ele>
        <time>2026-05-28T09:22:13.000Z</time>
      </trkpt>
      <trkpt lat="44.01728" lon="3.5065">
        <ele>1074.1</ele>
        <time>2026-05-28T09:22:14.000Z</time>
      </trkpt>
      <trkpt lat="44.01729" lon="3.5065">
        <ele>1075.1</ele>
        <time>2026-05-28T09:22:15.000Z</time>
      </trkpt>
      <trkpt lat="44.01729" lon="3.5065">
        <ele>1074.9</ele>
        <time>2026-05-28T09:22:16.000Z</time>
      </trkpt>
      <trkpt lat="44.01729" lon="3.5065">
        <ele>1074.8</ele>
        <time>2026-05-28T09:22:17.000Z</time>
      </trkpt>
      <trkpt lat="44.01729" lon="3.5065">
        <ele>1074.6</ele>
        <time>2026-05-28T09:22:18.000Z</time>
      </trkpt>
      <trkpt lat="44.01728" lon="3.5065">
        <ele>1074.5</ele>
        <time>2026-05-28T09:22:19.000Z</time>
      </trkpt>
      <trkpt lat="44.01728" lon="3.5065">
        <ele>1074.5</ele>
        <time>2026-05-28T09:22:20.000Z</time>
      </trkpt>
      <trkpt lat="44.01728" lon="3.5065">
        <ele>1074.7</ele>
        <time>2026-05-28T09:22:21.000Z</time>
      </trkpt>
      <trkpt lat="44.01728" lon="3.5065">
        <ele>1074.7</ele>
        <time>2026-05-28T09:22:22.000Z</time>
      </trkpt>
      <trkpt lat="44.01728" lon="3.5065">
        <ele>1074.7</ele>
        <time>2026-05-28T09:22:23.000Z</time>
      </trkpt>
      <trkpt lat="44.01728" lon="3.5065">
        <ele>1074</ele>
        <time>2026-05-28T09:22:24.000Z</time>
      </trkpt>
      <trkpt lat="44.01728" lon="3.50649">
        <ele>1073</ele>
        <time>2026-05-28T09:22:25.000Z</time>
      </trkpt>
      <trkpt lat="44.01728" lon="3.50649">
        <ele>1072.5</ele>
        <time>2026-05-28T09:22:26.000Z</time>
      </trkpt>
      <trkpt lat="44.01728" lon="3.50649">
        <ele>1072.7</ele>
        <time>2026-05-28T09:22:27.000Z</time>
      </trkpt>
      <trkpt lat="44.01728" lon="3.50649">
        <ele>1072.2</ele>
        <time>2026-05-28T09:22:28.000Z</time>
      </trkpt>
      <trkpt lat="44.01727" lon="3.5065">
        <ele>1071.7</ele>
        <time>2026-05-28T09:22:29.000Z</time>
      </trkpt>
      <trkpt lat="44.01726" lon="3.5065">
        <ele>1071</ele>
        <time>2026-05-28T09:22:30.000Z</time>
      </trkpt>
      <trkpt lat="44.01725" lon="3.5065">
        <ele>1070.7</ele>
        <time>2026-05-28T09:22:31.000Z</time>
      </trkpt>
      <trkpt lat="44.01725" lon="3.5065">
        <ele>1070.2</ele>
        <time>2026-05-28T09:22:32.000Z</time>
      </trkpt>
      <trkpt lat="44.01725" lon="3.5065">
        <ele>1070.7</ele>
        <time>2026-05-28T09:22:33.000Z</time>
      </trkpt>
      <trkpt lat="44.01725" lon="3.5065">
        <ele>1071.1</ele>
        <time>2026-05-28T09:22:34.000Z</time>
      </trkpt>
      <trkpt lat="44.01726" lon="3.5065">
        <ele>1071</ele>
        <time>2026-05-28T09:22:35.000Z</time>
      </trkpt>
      <trkpt lat="44.01726" lon="3.5065">
        <ele>1070.9</ele>
        <time>2026-05-28T09:22:36.000Z</time>
      </trkpt>
      <trkpt lat="44.01725" lon="3.5065">
        <ele>1070.9</ele>
        <time>2026-05-28T09:22:37.000Z</time>
      </trkpt>
      <trkpt lat="44.01725" lon="3.5065">
        <ele>1071</ele>
        <time>2026-05-28T09:22:38.000Z</time>
      </trkpt>
      <trkpt lat="44.01725" lon="3.5065">
        <ele>1071.3</ele>
        <time>2026-05-28T09:22:39.000Z</time>
      </trkpt>
      <trkpt lat="44.01725" lon="3.5065">
        <ele>1071.8</ele>
        <time>2026-05-28T09:22:40.000Z</time>
      </trkpt>
      <trkpt lat="44.01725" lon="3.50649">
        <ele>1072</ele>
        <time>2026-05-28T09:22:41.000Z</time>
      </trkpt>
      <trkpt lat="44.01726" lon="3.5065">
        <ele>1071.6</ele>
        <time>2026-05-28T09:22:42.000Z</time>
      </trkpt>
      <trkpt lat="44.01726" lon="3.5065">
        <ele>1071.2</ele>
        <time>2026-05-28T09:22:43.000Z</time>
      </trkpt>
      <trkpt lat="44.01725" lon="3.50651">
        <ele>1071</ele>
        <time>2026-05-28T09:22:44.000Z</time>
      </trkpt>
      <trkpt lat="44.01724" lon="3.50652">
        <ele>1071.3</ele>
        <time>2026-05-28T09:22:45.000Z</time>
      </trkpt>
      <trkpt lat="44.01724" lon="3.50652">
        <ele>1071.5</ele>
        <time>2026-05-28T09:22:46.000Z</time>
      </trkpt>
      <trkpt lat="44.01724" lon="3.50652">
        <ele>1072.5</ele>
        <time>2026-05-28T09:22:47.000Z</time>
      </trkpt>
      <trkpt lat="44.01724" lon="3.50652">
        <ele>1072.7</ele>
        <time>2026-05-28T09:22:48.000Z</time>
      </trkpt>
      <trkpt lat="44.01724" lon="3.50652">
        <ele>1072.5</ele>
        <time>2026-05-28T09:22:49.000Z</time>
      </trkpt>
      <trkpt lat="44.01724" lon="3.50652">
        <ele>1072.3</ele>
        <time>2026-05-28T09:22:50.000Z</time>
      </trkpt>
      <trkpt lat="44.01724" lon="3.50652">
        <ele>1072.2</ele>
        <time>2026-05-28T09:22:51.000Z</time>
      </trkpt>
      <trkpt lat="44.01724" lon="3.50652">
        <ele>1072.4</ele>
        <time>2026-05-28T09:22:52.000Z</time>
      </trkpt>
      <trkpt lat="44.01724" lon="3.50652">
        <ele>1072.9</ele>
        <time>2026-05-28T09:22:53.000Z</time>
      </trkpt>
      <trkpt lat="44.01724" lon="3.50653">
        <ele>1073.4</ele>
        <time>2026-05-28T09:22:54.000Z</time>
      </trkpt>
      <trkpt lat="44.01724" lon="3.50654">
        <ele>1073.5</ele>
        <time>2026-05-28T09:22:55.000Z</time>
      </trkpt>
      <trkpt lat="44.01725" lon="3.50654">
        <ele>1073.4</ele>
        <time>2026-05-28T09:22:56.000Z</time>
      </trkpt>
      <trkpt lat="44.01726" lon="3.50654">
        <ele>1073.8</ele>
        <time>2026-05-28T09:22:57.000Z</time>
      </trkpt>
      <trkpt lat="44.01727" lon="3.50656">
        <ele>1074</ele>
        <time>2026-05-28T09:22:59.000Z</time>
      </trkpt>
      <trkpt lat="44.01727" lon="3.50658">
        <ele>1074</ele>
        <time>2026-05-28T09:23:00.000Z</time>
      </trkpt>
      <trkpt lat="44.01728" lon="3.50658">
        <ele>1073.7</ele>
        <time>2026-05-28T09:23:01.000Z</time>
      </trkpt>
      <trkpt lat="44.01729" lon="3.50659">
        <ele>1073.6</ele>
        <time>2026-05-28T09:23:02.000Z</time>
      </trkpt>
      <trkpt lat="44.01729" lon="3.50659">
        <ele>1073.6</ele>
        <time>2026-05-28T09:23:03.000Z</time>
      </trkpt>
      <trkpt lat="44.0173" lon="3.50658">
        <ele>1073.7</ele>
        <time>2026-05-28T09:23:04.000Z</time>
      </trkpt>
      <trkpt lat="44.0173" lon="3.50658">
        <ele>1073.4</ele>
        <time>2026-05-28T09:23:05.000Z</time>
      </trkpt>
      <trkpt lat="44.01731" lon="3.50658">
        <ele>1073.3</ele>
        <time>2026-05-28T09:23:06.000Z</time>
      </trkpt>
      <trkpt lat="44.01732" lon="3.50658">
        <ele>1073.4</ele>
        <time>2026-05-28T09:23:07.000Z</time>
      </trkpt>
      <trkpt lat="44.01733" lon="3.50658">
        <ele>1073.6</ele>
        <time>2026-05-28T09:23:08.000Z</time>
      </trkpt>
      <trkpt lat="44.01733" lon="3.50659">
        <ele>1073.8</ele>
        <time>2026-05-28T09:23:09.000Z</time>
      </trkpt>
      <trkpt lat="44.01733" lon="3.50659">
        <ele>1073.8</ele>
        <time>2026-05-28T09:23:10.000Z</time>
      </trkpt>
      <trkpt lat="44.01734" lon="3.50659">
        <ele>1073.6</ele>
        <time>2026-05-28T09:23:11.000Z</time>
      </trkpt>
      <trkpt lat="44.01735" lon="3.50659">
        <ele>1073.4</ele>
        <time>2026-05-28T09:23:12.000Z</time>
      </trkpt>
      <trkpt lat="44.01735" lon="3.50659">
        <ele>1073.5</ele>
        <time>2026-05-28T09:23:13.000Z</time>
      </trkpt>
      <trkpt lat="44.01735" lon="3.50661">
        <ele>1073.3</ele>
        <time>2026-05-28T09:23:14.000Z</time>
      </trkpt>
      <trkpt lat="44.01736" lon="3.5066">
        <ele>1073.2</ele>
        <time>2026-05-28T09:23:15.000Z</time>
      </trkpt>
      <trkpt lat="44.01735" lon="3.50661">
        <ele>1073.4</ele>
        <time>2026-05-28T09:23:16.000Z</time>
      </trkpt>
      <trkpt lat="44.01736" lon="3.5066">
        <ele>1073.7</ele>
        <time>2026-05-28T09:23:17.000Z</time>
      </trkpt>
      <trkpt lat="44.01736" lon="3.5066">
        <ele>1073.7</ele>
        <time>2026-05-28T09:23:18.000Z</time>
      </trkpt>
      <trkpt lat="44.01736" lon="3.5066">
        <ele>1074</ele>
        <time>2026-05-28T09:23:19.000Z</time>
      </trkpt>
      <trkpt lat="44.01736" lon="3.5066">
        <ele>1073.9</ele>
        <time>2026-05-28T09:23:20.000Z</time>
      </trkpt>
      <trkpt lat="44.01736" lon="3.50659">
        <ele>1074</ele>
        <time>2026-05-28T09:23:21.000Z</time>
      </trkpt>
      <trkpt lat="44.01736" lon="3.50659">
        <ele>1074.2</ele>
        <time>2026-05-28T09:23:22.000Z</time>
      </trkpt>
      <trkpt lat="44.01736" lon="3.50659">
        <ele>1074.4</ele>
        <time>2026-05-28T09:23:23.000Z</time>
      </trkpt>
      <trkpt lat="44.01736" lon="3.50659">
        <ele>1074.3</ele>
        <time>2026-05-28T09:23:24.000Z</time>
      </trkpt>
      <trkpt lat="44.01738" lon="3.50658">
        <ele>1074.6</ele>
        <time>2026-05-28T09:23:26.000Z</time>
      </trkpt>
      <trkpt lat="44.01738" lon="3.50657">
        <ele>1074.8</ele>
        <time>2026-05-28T09:23:27.000Z</time>
      </trkpt>
      <trkpt lat="44.01738" lon="3.50657">
        <ele>1075</ele>
        <time>2026-05-28T09:23:28.000Z</time>
      </trkpt>
      <trkpt lat="44.01738" lon="3.50657">
        <ele>1075.2</ele>
        <time>2026-05-28T09:23:29.000Z</time>
      </trkpt>
      <trkpt lat="44.01738" lon="3.50657">
        <ele>1075.5</ele>
        <time>2026-05-28T09:23:30.000Z</time>
      </trkpt>
      <trkpt lat="44.01738" lon="3.50657">
        <ele>1075.7</ele>
        <time>2026-05-28T09:23:31.000Z</time>
      </trkpt>
      <trkpt lat="44.01738" lon="3.50657">
        <ele>1075.9</ele>
        <time>2026-05-28T09:23:32.000Z</time>
      </trkpt>
      <trkpt lat="44.0174" lon="3.50657">
        <ele>1077.5</ele>
        <time>2026-05-28T09:23:33.000Z</time>
      </trkpt>
      <trkpt lat="44.0174" lon="3.50657">
        <ele>1077.6</ele>
        <time>2026-05-28T09:23:34.000Z</time>
      </trkpt>
      <trkpt lat="44.0174" lon="3.50657">
        <ele>1077.8</ele>
        <time>2026-05-28T09:23:35.000Z</time>
      </trkpt>
      <trkpt lat="44.0174" lon="3.50657">
        <ele>1077.9</ele>
        <time>2026-05-28T09:23:36.000Z</time>
      </trkpt>
      <trkpt lat="44.01741" lon="3.50658">
        <ele>1078</ele>
        <time>2026-05-28T09:23:37.000Z</time>
      </trkpt>
      <trkpt lat="44.01742" lon="3.50657">
        <ele>1078.1</ele>
        <time>2026-05-28T09:23:38.000Z</time>
      </trkpt>
      <trkpt lat="44.01742" lon="3.50657">
        <ele>1078.4</ele>
        <time>2026-05-28T09:23:39.000Z</time>
      </trkpt>
      <trkpt lat="44.01743" lon="3.50657">
        <ele>1078.6</ele>
        <time>2026-05-28T09:23:40.000Z</time>
      </trkpt>
      <trkpt lat="44.01743" lon="3.50656">
        <ele>1078.2</ele>
        <time>2026-05-28T09:23:41.000Z</time>
      </trkpt>
      <trkpt lat="44.01743" lon="3.50656">
        <ele>1077.8</ele>
        <time>2026-05-28T09:23:42.000Z</time>
      </trkpt>
      <trkpt lat="44.01745" lon="3.50654">
        <ele>1078.2</ele>
        <time>2026-05-28T09:23:43.000Z</time>
      </trkpt>
      <trkpt lat="44.01747" lon="3.50653">
        <ele>1078.6</ele>
        <time>2026-05-28T09:23:44.000Z</time>
      </trkpt>
      <trkpt lat="44.01747" lon="3.50653">
        <ele>1079.4</ele>
        <time>2026-05-28T09:23:45.000Z</time>
      </trkpt>
      <trkpt lat="44.01748" lon="3.50651">
        <ele>1079.8</ele>
        <time>2026-05-28T09:23:46.000Z</time>
      </trkpt>
      <trkpt lat="44.01749" lon="3.5065">
        <ele>1080</ele>
        <time>2026-05-28T09:23:47.000Z</time>
      </trkpt>
      <trkpt lat="44.01749" lon="3.50649">
        <ele>1080.1</ele>
        <time>2026-05-28T09:23:48.000Z</time>
      </trkpt>
      <trkpt lat="44.01749" lon="3.50648">
        <ele>1081</ele>
        <time>2026-05-28T09:23:49.000Z</time>
      </trkpt>
      <trkpt lat="44.01749" lon="3.50648">
        <ele>1080.7</ele>
        <time>2026-05-28T09:23:50.000Z</time>
      </trkpt>
      <trkpt lat="44.0175" lon="3.50647">
        <ele>1080.4</ele>
        <time>2026-05-28T09:23:51.000Z</time>
      </trkpt>
      <trkpt lat="44.01751" lon="3.50647">
        <ele>1079.9</ele>
        <time>2026-05-28T09:23:52.000Z</time>
      </trkpt>
      <trkpt lat="44.01751" lon="3.50647">
        <ele>1079.7</ele>
        <time>2026-05-28T09:23:53.000Z</time>
      </trkpt>
      <trkpt lat="44.01752" lon="3.50646">
        <ele>1079.4</ele>
        <time>2026-05-28T09:23:54.000Z</time>
      </trkpt>
      <trkpt lat="44.01753" lon="3.50645">
        <ele>1079.1</ele>
        <time>2026-05-28T09:23:55.000Z</time>
      </trkpt>
      <trkpt lat="44.01753" lon="3.50644">
        <ele>1078.5</ele>
        <time>2026-05-28T09:23:56.000Z</time>
      </trkpt>
      <trkpt lat="44.01754" lon="3.50644">
        <ele>1078.6</ele>
        <time>2026-05-28T09:23:57.000Z</time>
      </trkpt>
      <trkpt lat="44.01754" lon="3.50643">
        <ele>1079</ele>
        <time>2026-05-28T09:23:58.000Z</time>
      </trkpt>
      <trkpt lat="44.01754" lon="3.50642">
        <ele>1079.2</ele>
        <time>2026-05-28T09:23:59.000Z</time>
      </trkpt>
      <trkpt lat="44.01755" lon="3.5064">
        <ele>1079.4</ele>
        <time>2026-05-28T09:24:00.000Z</time>
      </trkpt>
      <trkpt lat="44.01755" lon="3.5064">
        <ele>1079.3</ele>
        <time>2026-05-28T09:24:01.000Z</time>
      </trkpt>
      <trkpt lat="44.01755" lon="3.50639">
        <ele>1079.1</ele>
        <time>2026-05-28T09:24:02.000Z</time>
      </trkpt>
      <trkpt lat="44.01755" lon="3.50639">
        <ele>1079.2</ele>
        <time>2026-05-28T09:24:03.000Z</time>
      </trkpt>
      <trkpt lat="44.01755" lon="3.50638">
        <ele>1080.1</ele>
        <time>2026-05-28T09:24:04.000Z</time>
      </trkpt>
      <trkpt lat="44.01756" lon="3.50637">
        <ele>1080.4</ele>
        <time>2026-05-28T09:24:05.000Z</time>
      </trkpt>
      <trkpt lat="44.01756" lon="3.50635">
        <ele>1081</ele>
        <time>2026-05-28T09:24:06.000Z</time>
      </trkpt>
      <trkpt lat="44.01756" lon="3.50634">
        <ele>1081.2</ele>
        <time>2026-05-28T09:24:07.000Z</time>
      </trkpt>
      <trkpt lat="44.01756" lon="3.50632">
        <ele>1080.8</ele>
        <time>2026-05-28T09:24:08.000Z</time>
      </trkpt>
      <trkpt lat="44.01756" lon="3.5063">
        <ele>1080.9</ele>
        <time>2026-05-28T09:24:09.000Z</time>
      </trkpt>
      <trkpt lat="44.01756" lon="3.50629">
        <ele>1081.6</ele>
        <time>2026-05-28T09:24:10.000Z</time>
      </trkpt>
      <trkpt lat="44.01756" lon="3.50629">
        <ele>1081.6</ele>
        <time>2026-05-28T09:24:11.000Z</time>
      </trkpt>
      <trkpt lat="44.01757" lon="3.50627">
        <ele>1082.7</ele>
        <time>2026-05-28T09:24:12.000Z</time>
      </trkpt>
      <trkpt lat="44.01757" lon="3.50626">
        <ele>1082.9</ele>
        <time>2026-05-28T09:24:13.000Z</time>
      </trkpt>
      <trkpt lat="44.01757" lon="3.50625">
        <ele>1083.6</ele>
        <time>2026-05-28T09:24:14.000Z</time>
      </trkpt>
      <trkpt lat="44.01757" lon="3.50624">
        <ele>1084.4</ele>
        <time>2026-05-28T09:24:15.000Z</time>
      </trkpt>
      <trkpt lat="44.01757" lon="3.50624">
        <ele>1084.5</ele>
        <time>2026-05-28T09:24:16.000Z</time>
      </trkpt>
      <trkpt lat="44.01757" lon="3.50624">
        <ele>1085</ele>
        <time>2026-05-28T09:24:17.000Z</time>
      </trkpt>
      <trkpt lat="44.01757" lon="3.50624">
        <ele>1085.2</ele>
        <time>2026-05-28T09:24:18.000Z</time>
      </trkpt>
      <trkpt lat="44.01757" lon="3.50624">
        <ele>1085.6</ele>
        <time>2026-05-28T09:24:19.000Z</time>
      </trkpt>
      <trkpt lat="44.01757" lon="3.50623">
        <ele>1086</ele>
        <time>2026-05-28T09:24:20.000Z</time>
      </trkpt>
      <trkpt lat="44.01757" lon="3.50621">
        <ele>1086.3</ele>
        <time>2026-05-28T09:24:21.000Z</time>
      </trkpt>
      <trkpt lat="44.01757" lon="3.5062">
        <ele>1086.3</ele>
        <time>2026-05-28T09:24:22.000Z</time>
      </trkpt>
      <trkpt lat="44.01758" lon="3.50619">
        <ele>1086.1</ele>
        <time>2026-05-28T09:24:23.000Z</time>
      </trkpt>
      <trkpt lat="44.01758" lon="3.50617">
        <ele>1086.5</ele>
        <time>2026-05-28T09:24:24.000Z</time>
      </trkpt>
      <trkpt lat="44.01758" lon="3.50616">
        <ele>1086.9</ele>
        <time>2026-05-28T09:24:25.000Z</time>
      </trkpt>
      <trkpt lat="44.01758" lon="3.50614">
        <ele>1087.2</ele>
        <time>2026-05-28T09:24:26.000Z</time>
      </trkpt>
      <trkpt lat="44.01758" lon="3.50613">
        <ele>1087</ele>
        <time>2026-05-28T09:24:27.000Z</time>
      </trkpt>
      <trkpt lat="44.01758" lon="3.50611">
        <ele>1086.5</ele>
        <time>2026-05-28T09:24:28.000Z</time>
      </trkpt>
      <trkpt lat="44.01758" lon="3.5061">
        <ele>1085.9</ele>
        <time>2026-05-28T09:24:29.000Z</time>
      </trkpt>
      <trkpt lat="44.01759" lon="3.50609">
        <ele>1085.9</ele>
        <time>2026-05-28T09:24:30.000Z</time>
      </trkpt>
      <trkpt lat="44.01759" lon="3.50609">
        <ele>1085.8</ele>
        <time>2026-05-28T09:24:31.000Z</time>
      </trkpt>
      <trkpt lat="44.0176" lon="3.50607">
        <ele>1086.5</ele>
        <time>2026-05-28T09:24:32.000Z</time>
      </trkpt>
      <trkpt lat="44.01761" lon="3.50607">
        <ele>1087.2</ele>
        <time>2026-05-28T09:24:33.000Z</time>
      </trkpt>
      <trkpt lat="44.01763" lon="3.50606">
        <ele>1088.1</ele>
        <time>2026-05-28T09:24:34.000Z</time>
      </trkpt>
      <trkpt lat="44.01763" lon="3.50606">
        <ele>1088.2</ele>
        <time>2026-05-28T09:24:35.000Z</time>
      </trkpt>
      <trkpt lat="44.01764" lon="3.50606">
        <ele>1088.3</ele>
        <time>2026-05-28T09:24:36.000Z</time>
      </trkpt>
      <trkpt lat="44.01764" lon="3.50606">
        <ele>1088</ele>
        <time>2026-05-28T09:24:37.000Z</time>
      </trkpt>
      <trkpt lat="44.01765" lon="3.50605">
        <ele>1088.1</ele>
        <time>2026-05-28T09:24:38.000Z</time>
      </trkpt>
      <trkpt lat="44.01765" lon="3.50605">
        <ele>1088.1</ele>
        <time>2026-05-28T09:24:39.000Z</time>
      </trkpt>
      <trkpt lat="44.01765" lon="3.50605">
        <ele>1087.6</ele>
        <time>2026-05-28T09:24:40.000Z</time>
      </trkpt>
      <trkpt lat="44.01765" lon="3.50604">
        <ele>1088.2</ele>
        <time>2026-05-28T09:24:41.000Z</time>
      </trkpt>
      <trkpt lat="44.01765" lon="3.50603">
        <ele>1088.7</ele>
        <time>2026-05-28T09:24:42.000Z</time>
      </trkpt>
      <trkpt lat="44.01766" lon="3.50603">
        <ele>1089</ele>
        <time>2026-05-28T09:24:43.000Z</time>
      </trkpt>
      <trkpt lat="44.01766" lon="3.50601">
        <ele>1089.5</ele>
        <time>2026-05-28T09:24:44.000Z</time>
      </trkpt>
      <trkpt lat="44.01766" lon="3.50601">
        <ele>1090.1</ele>
        <time>2026-05-28T09:24:45.000Z</time>
      </trkpt>
      <trkpt lat="44.01766" lon="3.506">
        <ele>1090.5</ele>
        <time>2026-05-28T09:24:46.000Z</time>
      </trkpt>
      <trkpt lat="44.01766" lon="3.506">
        <ele>1090.3</ele>
        <time>2026-05-28T09:24:47.000Z</time>
      </trkpt>
      <trkpt lat="44.01766" lon="3.50599">
        <ele>1090.5</ele>
        <time>2026-05-28T09:24:48.000Z</time>
      </trkpt>
      <trkpt lat="44.01766" lon="3.50598">
        <ele>1091.2</ele>
        <time>2026-05-28T09:24:49.000Z</time>
      </trkpt>
      <trkpt lat="44.01766" lon="3.50595">
        <ele>1092.1</ele>
        <time>2026-05-28T09:24:50.000Z</time>
      </trkpt>
      <trkpt lat="44.01767" lon="3.50593">
        <ele>1093.1</ele>
        <time>2026-05-28T09:24:51.000Z</time>
      </trkpt>
      <trkpt lat="44.01767" lon="3.50593">
        <ele>1093.8</ele>
        <time>2026-05-28T09:24:52.000Z</time>
      </trkpt>
      <trkpt lat="44.01768" lon="3.50592">
        <ele>1094</ele>
        <time>2026-05-28T09:24:53.000Z</time>
      </trkpt>
      <trkpt lat="44.01768" lon="3.50592">
        <ele>1094.9</ele>
        <time>2026-05-28T09:24:54.000Z</time>
      </trkpt>
      <trkpt lat="44.01768" lon="3.50591">
        <ele>1095.5</ele>
        <time>2026-05-28T09:24:55.000Z</time>
      </trkpt>
      <trkpt lat="44.01767" lon="3.50591">
        <ele>1096.2</ele>
        <time>2026-05-28T09:24:56.000Z</time>
      </trkpt>
      <trkpt lat="44.01767" lon="3.5059">
        <ele>1096.7</ele>
        <time>2026-05-28T09:24:57.000Z</time>
      </trkpt>
      <trkpt lat="44.01766" lon="3.5059">
        <ele>1097.4</ele>
        <time>2026-05-28T09:24:58.000Z</time>
      </trkpt>
      <trkpt lat="44.01767" lon="3.50589">
        <ele>1097.5</ele>
        <time>2026-05-28T09:24:59.000Z</time>
      </trkpt>
      <trkpt lat="44.01767" lon="3.50589">
        <ele>1097.8</ele>
        <time>2026-05-28T09:25:00.000Z</time>
      </trkpt>
      <trkpt lat="44.01766" lon="3.50589">
        <ele>1098.2</ele>
        <time>2026-05-28T09:25:01.000Z</time>
      </trkpt>
      <trkpt lat="44.01766" lon="3.50588">
        <ele>1099</ele>
        <time>2026-05-28T09:25:02.000Z</time>
      </trkpt>
      <trkpt lat="44.01765" lon="3.50588">
        <ele>1099.6</ele>
        <time>2026-05-28T09:25:03.000Z</time>
      </trkpt>
      <trkpt lat="44.01765" lon="3.50587">
        <ele>1100.1</ele>
        <time>2026-05-28T09:25:04.000Z</time>
      </trkpt>
      <trkpt lat="44.01765" lon="3.50587">
        <ele>1099.6</ele>
        <time>2026-05-28T09:25:05.000Z</time>
      </trkpt>
      <trkpt lat="44.01766" lon="3.50587">
        <ele>1099.7</ele>
        <time>2026-05-28T09:25:06.000Z</time>
      </trkpt>
      <trkpt lat="44.01766" lon="3.50587">
        <ele>1099.2</ele>
        <time>2026-05-28T09:25:07.000Z</time>
      </trkpt>
      <trkpt lat="44.01766" lon="3.50586">
        <ele>1098.7</ele>
        <time>2026-05-28T09:25:08.000Z</time>
      </trkpt>
      <trkpt lat="44.01766" lon="3.50586">
        <ele>1098.4</ele>
        <time>2026-05-28T09:25:09.000Z</time>
      </trkpt>
      <trkpt lat="44.01766" lon="3.50586">
        <ele>1098</ele>
        <time>2026-05-28T09:25:10.000Z</time>
      </trkpt>
      <trkpt lat="44.01766" lon="3.50585">
        <ele>1097.7</ele>
        <time>2026-05-28T09:25:11.000Z</time>
      </trkpt>
      <trkpt lat="44.01766" lon="3.50584">
        <ele>1097.6</ele>
        <time>2026-05-28T09:25:12.000Z</time>
      </trkpt>
      <trkpt lat="44.01766" lon="3.50583">
        <ele>1097.6</ele>
        <time>2026-05-28T09:25:13.000Z</time>
      </trkpt>
      <trkpt lat="44.01766" lon="3.50583">
        <ele>1097.7</ele>
        <time>2026-05-28T09:25:14.000Z</time>
      </trkpt>
      <trkpt lat="44.01766" lon="3.50583">
        <ele>1097.4</ele>
        <time>2026-05-28T09:25:15.000Z</time>
      </trkpt>
      <trkpt lat="44.01766" lon="3.50583">
        <ele>1097</ele>
        <time>2026-05-28T09:25:16.000Z</time>
      </trkpt>
      <trkpt lat="44.01767" lon="3.50583">
        <ele>1096.5</ele>
        <time>2026-05-28T09:25:17.000Z</time>
      </trkpt>
      <trkpt lat="44.01767" lon="3.50582">
        <ele>1096.7</ele>
        <time>2026-05-28T09:25:18.000Z</time>
      </trkpt>
      <trkpt lat="44.01767" lon="3.50581">
        <ele>1096.7</ele>
        <time>2026-05-28T09:25:19.000Z</time>
      </trkpt>
      <trkpt lat="44.01767" lon="3.5058">
        <ele>1097</ele>
        <time>2026-05-28T09:25:20.000Z</time>
      </trkpt>
      <trkpt lat="44.01767" lon="3.50579">
        <ele>1097.5</ele>
        <time>2026-05-28T09:25:21.000Z</time>
      </trkpt>
      <trkpt lat="44.01767" lon="3.50578">
        <ele>1097.6</ele>
        <time>2026-05-28T09:25:22.000Z</time>
      </trkpt>
      <trkpt lat="44.01767" lon="3.50577">
        <ele>1097.7</ele>
        <time>2026-05-28T09:25:23.000Z</time>
      </trkpt>
      <trkpt lat="44.01767" lon="3.50577">
        <ele>1097.4</ele>
        <time>2026-05-28T09:25:24.000Z</time>
      </trkpt>
      <trkpt lat="44.01767" lon="3.50577">
        <ele>1097.2</ele>
        <time>2026-05-28T09:25:25.000Z</time>
      </trkpt>
      <trkpt lat="44.01768" lon="3.50578">
        <ele>1096.8</ele>
        <time>2026-05-28T09:25:26.000Z</time>
      </trkpt>
      <trkpt lat="44.01768" lon="3.50579">
        <ele>1096.7</ele>
        <time>2026-05-28T09:25:27.000Z</time>
      </trkpt>
      <trkpt lat="44.01769" lon="3.5058">
        <ele>1096.6</ele>
        <time>2026-05-28T09:25:28.000Z</time>
      </trkpt>
      <trkpt lat="44.01769" lon="3.50581">
        <ele>1096.4</ele>
        <time>2026-05-28T09:25:29.000Z</time>
      </trkpt>
      <trkpt lat="44.01769" lon="3.50581">
        <ele>1096.7</ele>
        <time>2026-05-28T09:25:30.000Z</time>
      </trkpt>
      <trkpt lat="44.01769" lon="3.50582">
        <ele>1097.1</ele>
        <time>2026-05-28T09:25:31.000Z</time>
      </trkpt>
      <trkpt lat="44.01769" lon="3.50581">
        <ele>1097.4</ele>
        <time>2026-05-28T09:25:32.000Z</time>
      </trkpt>
      <trkpt lat="44.01769" lon="3.50581">
        <ele>1097.7</ele>
        <time>2026-05-28T09:25:33.000Z</time>
      </trkpt>
      <trkpt lat="44.01769" lon="3.50581">
        <ele>1097.8</ele>
        <time>2026-05-28T09:25:34.000Z</time>
      </trkpt>
      <trkpt lat="44.01769" lon="3.50581">
        <ele>1098.2</ele>
        <time>2026-05-28T09:25:35.000Z</time>
      </trkpt>
      <trkpt lat="44.01769" lon="3.50581">
        <ele>1098.5</ele>
        <time>2026-05-28T09:25:36.000Z</time>
      </trkpt>
      <trkpt lat="44.01769" lon="3.50581">
        <ele>1098.6</ele>
        <time>2026-05-28T09:25:37.000Z</time>
      </trkpt>
      <trkpt lat="44.01769" lon="3.50581">
        <ele>1099.2</ele>
        <time>2026-05-28T09:25:38.000Z</time>
      </trkpt>
      <trkpt lat="44.01769" lon="3.50581">
        <ele>1099.4</ele>
        <time>2026-05-28T09:25:39.000Z</time>
      </trkpt>
      <trkpt lat="44.01769" lon="3.50581">
        <ele>1099.7</ele>
        <time>2026-05-28T09:25:40.000Z</time>
      </trkpt>
      <trkpt lat="44.0177" lon="3.50582">
        <ele>1099.9</ele>
        <time>2026-05-28T09:25:41.000Z</time>
      </trkpt>
      <trkpt lat="44.01771" lon="3.50582">
        <ele>1100.1</ele>
        <time>2026-05-28T09:25:42.000Z</time>
      </trkpt>
      <trkpt lat="44.01771" lon="3.50583">
        <ele>1100.3</ele>
        <time>2026-05-28T09:25:43.000Z</time>
      </trkpt>
      <trkpt lat="44.01771" lon="3.50583">
        <ele>1100.4</ele>
        <time>2026-05-28T09:25:44.000Z</time>
      </trkpt>
      <trkpt lat="44.01771" lon="3.50583">
        <ele>1100.3</ele>
        <time>2026-05-28T09:25:45.000Z</time>
      </trkpt>
      <trkpt lat="44.01772" lon="3.50583">
        <ele>1100.3</ele>
        <time>2026-05-28T09:25:46.000Z</time>
      </trkpt>
      <trkpt lat="44.01772" lon="3.50583">
        <ele>1100.6</ele>
        <time>2026-05-28T09:25:47.000Z</time>
      </trkpt>
      <trkpt lat="44.01772" lon="3.50583">
        <ele>1100.7</ele>
        <time>2026-05-28T09:25:48.000Z</time>
      </trkpt>
      <trkpt lat="44.01772" lon="3.50583">
        <ele>1100.6</ele>
        <time>2026-05-28T09:25:49.000Z</time>
      </trkpt>
      <trkpt lat="44.01772" lon="3.50583">
        <ele>1100.4</ele>
        <time>2026-05-28T09:25:50.000Z</time>
      </trkpt>
      <trkpt lat="44.01772" lon="3.50583">
        <ele>1100.4</ele>
        <time>2026-05-28T09:25:51.000Z</time>
      </trkpt>
      <trkpt lat="44.01772" lon="3.50583">
        <ele>1100.3</ele>
        <time>2026-05-28T09:25:52.000Z</time>
      </trkpt>
      <trkpt lat="44.01772" lon="3.50583">
        <ele>1100.1</ele>
        <time>2026-05-28T09:25:53.000Z</time>
      </trkpt>
      <trkpt lat="44.01772" lon="3.50583">
        <ele>1100.2</ele>
        <time>2026-05-28T09:25:54.000Z</time>
      </trkpt>
      <trkpt lat="44.01772" lon="3.50583">
        <ele>1100.8</ele>
        <time>2026-05-28T09:25:55.000Z</time>
      </trkpt>
      <trkpt lat="44.01772" lon="3.50582">
        <ele>1100.9</ele>
        <time>2026-05-28T09:25:56.000Z</time>
      </trkpt>
      <trkpt lat="44.01772" lon="3.5058">
        <ele>1100.8</ele>
        <time>2026-05-28T09:25:57.000Z</time>
      </trkpt>
      <trkpt lat="44.01772" lon="3.50579">
        <ele>1100.7</ele>
        <time>2026-05-28T09:25:58.000Z</time>
      </trkpt>
      <trkpt lat="44.01773" lon="3.50578">
        <ele>1101</ele>
        <time>2026-05-28T09:25:59.000Z</time>
      </trkpt>
      <trkpt lat="44.01773" lon="3.50578">
        <ele>1101.5</ele>
        <time>2026-05-28T09:26:00.000Z</time>
      </trkpt>
      <trkpt lat="44.01773" lon="3.50577">
        <ele>1101.2</ele>
        <time>2026-05-28T09:26:01.000Z</time>
      </trkpt>
      <trkpt lat="44.01773" lon="3.50578">
        <ele>1101.3</ele>
        <time>2026-05-28T09:26:02.000Z</time>
      </trkpt>
      <trkpt lat="44.01773" lon="3.50579">
        <ele>1101.5</ele>
        <time>2026-05-28T09:26:03.000Z</time>
      </trkpt>
      <trkpt lat="44.01774" lon="3.5058">
        <ele>1101.7</ele>
        <time>2026-05-28T09:26:04.000Z</time>
      </trkpt>
      <trkpt lat="44.01774" lon="3.5058">
        <ele>1101.9</ele>
        <time>2026-05-28T09:26:05.000Z</time>
      </trkpt>
      <trkpt lat="44.01774" lon="3.5058">
        <ele>1102</ele>
        <time>2026-05-28T09:26:06.000Z</time>
      </trkpt>
      <trkpt lat="44.01774" lon="3.50581">
        <ele>1102.2</ele>
        <time>2026-05-28T09:26:07.000Z</time>
      </trkpt>
      <trkpt lat="44.01775" lon="3.50581">
        <ele>1102.4</ele>
        <time>2026-05-28T09:26:08.000Z</time>
      </trkpt>
      <trkpt lat="44.01775" lon="3.50581">
        <ele>1102.7</ele>
        <time>2026-05-28T09:26:09.000Z</time>
      </trkpt>
      <trkpt lat="44.01775" lon="3.50581">
        <ele>1102.8</ele>
        <time>2026-05-28T09:26:10.000Z</time>
      </trkpt>
      <trkpt lat="44.01775" lon="3.50581">
        <ele>1102.7</ele>
        <time>2026-05-28T09:26:11.000Z</time>
      </trkpt>
      <trkpt lat="44.01775" lon="3.50581">
        <ele>1102.7</ele>
        <time>2026-05-28T09:26:12.000Z</time>
      </trkpt>
      <trkpt lat="44.01775" lon="3.50582">
        <ele>1102.9</ele>
        <time>2026-05-28T09:26:13.000Z</time>
      </trkpt>
      <trkpt lat="44.01776" lon="3.50583">
        <ele>1103.3</ele>
        <time>2026-05-28T09:26:14.000Z</time>
      </trkpt>
      <trkpt lat="44.01776" lon="3.50584">
        <ele>1103.6</ele>
        <time>2026-05-28T09:26:15.000Z</time>
      </trkpt>
      <trkpt lat="44.01776" lon="3.50584">
        <ele>1103.9</ele>
        <time>2026-05-28T09:26:16.000Z</time>
      </trkpt>
      <trkpt lat="44.01777" lon="3.50585">
        <ele>1104.1</ele>
        <time>2026-05-28T09:26:17.000Z</time>
      </trkpt>
      <trkpt lat="44.01779" lon="3.50586">
        <ele>1104.4</ele>
        <time>2026-05-28T09:26:18.999Z</time>
      </trkpt>
      <trkpt lat="44.01781" lon="3.50586">
        <ele>1104.6</ele>
        <time>2026-05-28T09:26:19.999Z</time>
      </trkpt>
      <trkpt lat="44.01783" lon="3.50586">
        <ele>1104.6</ele>
        <time>2026-05-28T09:26:20.999Z</time>
      </trkpt>
      <trkpt lat="44.01783" lon="3.50585">
        <ele>1104.9</ele>
        <time>2026-05-28T09:26:21.999Z</time>
      </trkpt>
      <trkpt lat="44.01784" lon="3.50585">
        <ele>1104.8</ele>
        <time>2026-05-28T09:26:22.999Z</time>
      </trkpt>
      <trkpt lat="44.01785" lon="3.50584">
        <ele>1104.6</ele>
        <time>2026-05-28T09:26:23.999Z</time>
      </trkpt>
      <trkpt lat="44.01785" lon="3.50582">
        <ele>1103.9</ele>
        <time>2026-05-28T09:26:24.999Z</time>
      </trkpt>
      <trkpt lat="44.01785" lon="3.50581">
        <ele>1103.5</ele>
        <time>2026-05-28T09:26:25.999Z</time>
      </trkpt>
      <trkpt lat="44.01786" lon="3.5058">
        <ele>1103.2</ele>
        <time>2026-05-28T09:26:26.999Z</time>
      </trkpt>
      <trkpt lat="44.01786" lon="3.50581">
        <ele>1103.2</ele>
        <time>2026-05-28T09:26:27.999Z</time>
      </trkpt>
      <trkpt lat="44.01786" lon="3.5058">
        <ele>1103</ele>
        <time>2026-05-28T09:26:28.999Z</time>
      </trkpt>
      <trkpt lat="44.01786" lon="3.50581">
        <ele>1103.1</ele>
        <time>2026-05-28T09:26:29.999Z</time>
      </trkpt>
      <trkpt lat="44.01786" lon="3.5058">
        <ele>1099.4</ele>
        <time>2026-05-28T09:26:30.999Z</time>
      </trkpt>
      <trkpt lat="44.01786" lon="3.5058">
        <ele>1099.9</ele>
        <time>2026-05-28T09:26:31.999Z</time>
      </trkpt>
      <trkpt lat="44.01786" lon="3.5058">
        <ele>1100.1</ele>
        <time>2026-05-28T09:26:32.999Z</time>
      </trkpt>
      <trkpt lat="44.01786" lon="3.5058">
        <ele>1100.2</ele>
        <time>2026-05-28T09:26:33.999Z</time>
      </trkpt>
      <trkpt lat="44.01786" lon="3.50581">
        <ele>1100.3</ele>
        <time>2026-05-28T09:26:34.999Z</time>
      </trkpt>
      <trkpt lat="44.01785" lon="3.5058">
        <ele>1100.7</ele>
        <time>2026-05-28T09:26:35.999Z</time>
      </trkpt>
      <trkpt lat="44.01785" lon="3.50579">
        <ele>1101</ele>
        <time>2026-05-28T09:26:36.999Z</time>
      </trkpt>
      <trkpt lat="44.01784" lon="3.50577">
        <ele>1101</ele>
        <time>2026-05-28T09:26:37.999Z</time>
      </trkpt>
      <trkpt lat="44.01784" lon="3.50576">
        <ele>1101.3</ele>
        <time>2026-05-28T09:26:38.999Z</time>
      </trkpt>
      <trkpt lat="44.01784" lon="3.50576">
        <ele>1101.4</ele>
        <time>2026-05-28T09:26:39.999Z</time>
      </trkpt>
      <trkpt lat="44.01784" lon="3.50576">
        <ele>1101.6</ele>
        <time>2026-05-28T09:26:40.999Z</time>
      </trkpt>
      <trkpt lat="44.01783" lon="3.50576">
        <ele>1101.5</ele>
        <time>2026-05-28T09:26:41.999Z</time>
      </trkpt>
      <trkpt lat="44.01782" lon="3.50576">
        <ele>1101.3</ele>
        <time>2026-05-28T09:26:42.999Z</time>
      </trkpt>
      <trkpt lat="44.01782" lon="3.50575">
        <ele>1101</ele>
        <time>2026-05-28T09:26:43.999Z</time>
      </trkpt>
      <trkpt lat="44.01783" lon="3.50574">
        <ele>1101</ele>
        <time>2026-05-28T09:26:44.999Z</time>
      </trkpt>
      <trkpt lat="44.01783" lon="3.50574">
        <ele>1102.3</ele>
        <time>2026-05-28T09:26:45.999Z</time>
      </trkpt>
      <trkpt lat="44.01783" lon="3.50574">
        <ele>1102.5</ele>
        <time>2026-05-28T09:26:46.999Z</time>
      </trkpt>
      <trkpt lat="44.01783" lon="3.50574">
        <ele>1102.6</ele>
        <time>2026-05-28T09:26:47.999Z</time>
      </trkpt>
      <trkpt lat="44.01783" lon="3.50574">
        <ele>1102.5</ele>
        <time>2026-05-28T09:26:48.999Z</time>
      </trkpt>
      <trkpt lat="44.01784" lon="3.50574">
        <ele>1102.6</ele>
        <time>2026-05-28T09:26:49.999Z</time>
      </trkpt>
      <trkpt lat="44.01784" lon="3.50575">
        <ele>1103.8</ele>
        <time>2026-05-28T09:26:50.999Z</time>
      </trkpt>
      <trkpt lat="44.01784" lon="3.50574">
        <ele>1103.9</ele>
        <time>2026-05-28T09:26:51.999Z</time>
      </trkpt>
      <trkpt lat="44.01784" lon="3.50573">
        <ele>1104.4</ele>
        <time>2026-05-28T09:26:52.999Z</time>
      </trkpt>
      <trkpt lat="44.01784" lon="3.50573">
        <ele>1104.3</ele>
        <time>2026-05-28T09:26:53.999Z</time>
      </trkpt>
      <trkpt lat="44.01785" lon="3.50572">
        <ele>1104.4</ele>
        <time>2026-05-28T09:26:54.999Z</time>
      </trkpt>
      <trkpt lat="44.01785" lon="3.50571">
        <ele>1104.1</ele>
        <time>2026-05-28T09:26:55.999Z</time>
      </trkpt>
      <trkpt lat="44.01785" lon="3.50571">
        <ele>1104</ele>
        <time>2026-05-28T09:26:56.999Z</time>
      </trkpt>
      <trkpt lat="44.01786" lon="3.50571">
        <ele>1103.6</ele>
        <time>2026-05-28T09:26:57.999Z</time>
      </trkpt>
      <trkpt lat="44.01785" lon="3.50571">
        <ele>1103.3</ele>
        <time>2026-05-28T09:26:58.999Z</time>
      </trkpt>
      <trkpt lat="44.01785" lon="3.50571">
        <ele>1103.1</ele>
        <time>2026-05-28T09:26:59.999Z</time>
      </trkpt>
      <trkpt lat="44.01785" lon="3.50571">
        <ele>1103.2</ele>
        <time>2026-05-28T09:27:00.999Z</time>
      </trkpt>
      <trkpt lat="44.01784" lon="3.5057">
        <ele>1103.3</ele>
        <time>2026-05-28T09:27:01.999Z</time>
      </trkpt>
      <trkpt lat="44.01785" lon="3.50569">
        <ele>1103.2</ele>
        <time>2026-05-28T09:27:02.999Z</time>
      </trkpt>
      <trkpt lat="44.01785" lon="3.50568">
        <ele>1103.3</ele>
        <time>2026-05-28T09:27:03.999Z</time>
      </trkpt>
      <trkpt lat="44.01785" lon="3.50567">
        <ele>1103.4</ele>
        <time>2026-05-28T09:27:04.999Z</time>
      </trkpt>
      <trkpt lat="44.01785" lon="3.50567">
        <ele>1103.7</ele>
        <time>2026-05-28T09:27:05.999Z</time>
      </trkpt>
      <trkpt lat="44.01786" lon="3.50566">
        <ele>1104</ele>
        <time>2026-05-28T09:27:06.999Z</time>
      </trkpt>
      <trkpt lat="44.01786" lon="3.50566">
        <ele>1104</ele>
        <time>2026-05-28T09:27:07.999Z</time>
      </trkpt>
      <trkpt lat="44.01785" lon="3.50565">
        <ele>1104.7</ele>
        <time>2026-05-28T09:27:08.999Z</time>
      </trkpt>
      <trkpt lat="44.01785" lon="3.50565">
        <ele>1104.8</ele>
        <time>2026-05-28T09:27:09.999Z</time>
      </trkpt>
      <trkpt lat="44.01785" lon="3.50565">
        <ele>1105.3</ele>
        <time>2026-05-28T09:27:10.999Z</time>
      </trkpt>
      <trkpt lat="44.01785" lon="3.50565">
        <ele>1105.2</ele>
        <time>2026-05-28T09:27:11.999Z</time>
      </trkpt>
      <trkpt lat="44.01786" lon="3.50565">
        <ele>1105.5</ele>
        <time>2026-05-28T09:27:12.999Z</time>
      </trkpt>
      <trkpt lat="44.01786" lon="3.50565">
        <ele>1105.9</ele>
        <time>2026-05-28T09:27:13.999Z</time>
      </trkpt>
      <trkpt lat="44.01786" lon="3.50565">
        <ele>1106.2</ele>
        <time>2026-05-28T09:27:14.999Z</time>
      </trkpt>
      <trkpt lat="44.01786" lon="3.50565">
        <ele>1106.5</ele>
        <time>2026-05-28T09:27:15.999Z</time>
      </trkpt>
      <trkpt lat="44.01786" lon="3.50565">
        <ele>1106.4</ele>
        <time>2026-05-28T09:27:16.999Z</time>
      </trkpt>
      <trkpt lat="44.01786" lon="3.50565">
        <ele>1106.5</ele>
        <time>2026-05-28T09:27:17.999Z</time>
      </trkpt>
      <trkpt lat="44.01787" lon="3.50566">
        <ele>1106.6</ele>
        <time>2026-05-28T09:27:18.999Z</time>
      </trkpt>
      <trkpt lat="44.01789" lon="3.50567">
        <ele>1106.8</ele>
        <time>2026-05-28T09:27:19.999Z</time>
      </trkpt>
      <trkpt lat="44.0179" lon="3.50569">
        <ele>1107.6</ele>
        <time>2026-05-28T09:27:20.999Z</time>
      </trkpt>
      <trkpt lat="44.01792" lon="3.50571">
        <ele>1108.2</ele>
        <time>2026-05-28T09:27:21.999Z</time>
      </trkpt>
      <trkpt lat="44.01793" lon="3.50571">
        <ele>1108.6</ele>
        <time>2026-05-28T09:27:22.999Z</time>
      </trkpt>
      <trkpt lat="44.01793" lon="3.50571">
        <ele>1108.9</ele>
        <time>2026-05-28T09:27:23.999Z</time>
      </trkpt>
      <trkpt lat="44.01793" lon="3.5057">
        <ele>1109.3</ele>
        <time>2026-05-28T09:27:24.999Z</time>
      </trkpt>
      <trkpt lat="44.01793" lon="3.50571">
        <ele>1109.6</ele>
        <time>2026-05-28T09:27:25.999Z</time>
      </trkpt>
      <trkpt lat="44.01794" lon="3.50571">
        <ele>1109.7</ele>
        <time>2026-05-28T09:27:26.999Z</time>
      </trkpt>
      <trkpt lat="44.01795" lon="3.50571">
        <ele>1109.4</ele>
        <time>2026-05-28T09:27:27.999Z</time>
      </trkpt>
      <trkpt lat="44.01795" lon="3.50571">
        <ele>1109.4</ele>
        <time>2026-05-28T09:27:28.999Z</time>
      </trkpt>
      <trkpt lat="44.01795" lon="3.50572">
        <ele>1109.5</ele>
        <time>2026-05-28T09:27:29.999Z</time>
      </trkpt>
      <trkpt lat="44.01796" lon="3.50572">
        <ele>1109.6</ele>
        <time>2026-05-28T09:27:30.999Z</time>
      </trkpt>
      <trkpt lat="44.01796" lon="3.50572">
        <ele>1109.9</ele>
        <time>2026-05-28T09:27:31.999Z</time>
      </trkpt>
      <trkpt lat="44.01797" lon="3.50572">
        <ele>1110.5</ele>
        <time>2026-05-28T09:27:32.999Z</time>
      </trkpt>
      <trkpt lat="44.01797" lon="3.50571">
        <ele>1111.2</ele>
        <time>2026-05-28T09:27:33.999Z</time>
      </trkpt>
      <trkpt lat="44.01798" lon="3.50571">
        <ele>1111.4</ele>
        <time>2026-05-28T09:27:34.999Z</time>
      </trkpt>
      <trkpt lat="44.01798" lon="3.50571">
        <ele>1112.2</ele>
        <time>2026-05-28T09:27:35.999Z</time>
      </trkpt>
      <trkpt lat="44.01799" lon="3.5057">
        <ele>1111.8</ele>
        <time>2026-05-28T09:27:36.999Z</time>
      </trkpt>
      <trkpt lat="44.01799" lon="3.50569">
        <ele>1111.5</ele>
        <time>2026-05-28T09:27:37.999Z</time>
      </trkpt>
      <trkpt lat="44.01799" lon="3.50569">
        <ele>1110.8</ele>
        <time>2026-05-28T09:27:38.999Z</time>
      </trkpt>
      <trkpt lat="44.01799" lon="3.50569">
        <ele>1110.5</ele>
        <time>2026-05-28T09:27:39.999Z</time>
      </trkpt>
      <trkpt lat="44.018" lon="3.5057">
        <ele>1110.3</ele>
        <time>2026-05-28T09:27:40.999Z</time>
      </trkpt>
      <trkpt lat="44.01801" lon="3.5057">
        <ele>1109.9</ele>
        <time>2026-05-28T09:27:41.999Z</time>
      </trkpt>
      <trkpt lat="44.01802" lon="3.50571">
        <ele>1109.6</ele>
        <time>2026-05-28T09:27:42.999Z</time>
      </trkpt>
      <trkpt lat="44.01803" lon="3.50571">
        <ele>1109.8</ele>
        <time>2026-05-28T09:27:43.999Z</time>
      </trkpt>
      <trkpt lat="44.01803" lon="3.5057">
        <ele>1110.2</ele>
        <time>2026-05-28T09:27:44.999Z</time>
      </trkpt>
      <trkpt lat="44.01804" lon="3.5057">
        <ele>1110.3</ele>
        <time>2026-05-28T09:27:45.999Z</time>
      </trkpt>
      <trkpt lat="44.01805" lon="3.50571">
        <ele>1110.2</ele>
        <time>2026-05-28T09:27:46.999Z</time>
      </trkpt>
      <trkpt lat="44.01805" lon="3.50572">
        <ele>1110.5</ele>
        <time>2026-05-28T09:27:47.999Z</time>
      </trkpt>
      <trkpt lat="44.01806" lon="3.50572">
        <ele>1110.8</ele>
        <time>2026-05-28T09:27:48.999Z</time>
      </trkpt>
      <trkpt lat="44.01808" lon="3.50572">
        <ele>1111.1</ele>
        <time>2026-05-28T09:27:49.999Z</time>
      </trkpt>
      <trkpt lat="44.01809" lon="3.50572">
        <ele>1110.8</ele>
        <time>2026-05-28T09:27:50.999Z</time>
      </trkpt>
      <trkpt lat="44.01809" lon="3.50573">
        <ele>1111</ele>
        <time>2026-05-28T09:27:51.999Z</time>
      </trkpt>
      <trkpt lat="44.01808" lon="3.50574">
        <ele>1111.4</ele>
        <time>2026-05-28T09:27:52.999Z</time>
      </trkpt>
      <trkpt lat="44.01808" lon="3.50575">
        <ele>1112</ele>
        <time>2026-05-28T09:27:53.999Z</time>
      </trkpt>
      <trkpt lat="44.01808" lon="3.50574">
        <ele>1112.4</ele>
        <time>2026-05-28T09:27:54.999Z</time>
      </trkpt>
      <trkpt lat="44.01809" lon="3.50574">
        <ele>1112.9</ele>
        <time>2026-05-28T09:27:55.999Z</time>
      </trkpt>
      <trkpt lat="44.0181" lon="3.50573">
        <ele>1113.1</ele>
        <time>2026-05-28T09:27:56.999Z</time>
      </trkpt>
      <trkpt lat="44.0181" lon="3.50573">
        <ele>1113.5</ele>
        <time>2026-05-28T09:27:57.999Z</time>
      </trkpt>
      <trkpt lat="44.0181" lon="3.50573">
        <ele>1113.2</ele>
        <time>2026-05-28T09:27:58.999Z</time>
      </trkpt>
      <trkpt lat="44.01811" lon="3.50573">
        <ele>1113.6</ele>
        <time>2026-05-28T09:27:59.999Z</time>
      </trkpt>
      <trkpt lat="44.01811" lon="3.50572">
        <ele>1114.2</ele>
        <time>2026-05-28T09:28:00.999Z</time>
      </trkpt>
      <trkpt lat="44.01811" lon="3.50571">
        <ele>1114.9</ele>
        <time>2026-05-28T09:28:01.999Z</time>
      </trkpt>
      <trkpt lat="44.01812" lon="3.5057">
        <ele>1115.1</ele>
        <time>2026-05-28T09:28:02.999Z</time>
      </trkpt>
      <trkpt lat="44.01812" lon="3.5057">
        <ele>1115.4</ele>
        <time>2026-05-28T09:28:03.999Z</time>
      </trkpt>
      <trkpt lat="44.01813" lon="3.50569">
        <ele>1115.4</ele>
        <time>2026-05-28T09:28:04.999Z</time>
      </trkpt>
      <trkpt lat="44.01814" lon="3.50569">
        <ele>1115.5</ele>
        <time>2026-05-28T09:28:05.999Z</time>
      </trkpt>
      <trkpt lat="44.01815" lon="3.5057">
        <ele>1115.7</ele>
        <time>2026-05-28T09:28:06.999Z</time>
      </trkpt>
      <trkpt lat="44.01816" lon="3.5057">
        <ele>1115.9</ele>
        <time>2026-05-28T09:28:07.999Z</time>
      </trkpt>
      <trkpt lat="44.01816" lon="3.5057">
        <ele>1116.8</ele>
        <time>2026-05-28T09:28:08.999Z</time>
      </trkpt>
      <trkpt lat="44.01817" lon="3.5057">
        <ele>1117.2</ele>
        <time>2026-05-28T09:28:09.999Z</time>
      </trkpt>
      <trkpt lat="44.01817" lon="3.5057">
        <ele>1117.5</ele>
        <time>2026-05-28T09:28:10.999Z</time>
      </trkpt>
      <trkpt lat="44.01818" lon="3.5057">
        <ele>1116.9</ele>
        <time>2026-05-28T09:28:11.999Z</time>
      </trkpt>
      <trkpt lat="44.01818" lon="3.5057">
        <ele>1116.7</ele>
        <time>2026-05-28T09:28:12.999Z</time>
      </trkpt>
      <trkpt lat="44.01819" lon="3.50568">
        <ele>1116.9</ele>
        <time>2026-05-28T09:28:13.999Z</time>
      </trkpt>
      <trkpt lat="44.0182" lon="3.50566">
        <ele>1117.4</ele>
        <time>2026-05-28T09:28:14.999Z</time>
      </trkpt>
      <trkpt lat="44.0182" lon="3.50565">
        <ele>1117.5</ele>
        <time>2026-05-28T09:28:15.999Z</time>
      </trkpt>
      <trkpt lat="44.01822" lon="3.50564">
        <ele>1117.3</ele>
        <time>2026-05-28T09:28:16.999Z</time>
      </trkpt>
      <trkpt lat="44.01823" lon="3.50564">
        <ele>1117.2</ele>
        <time>2026-05-28T09:28:17.999Z</time>
      </trkpt>
      <trkpt lat="44.01824" lon="3.50565">
        <ele>1117.3</ele>
        <time>2026-05-28T09:28:18.999Z</time>
      </trkpt>
      <trkpt lat="44.01825" lon="3.50565">
        <ele>1117.8</ele>
        <time>2026-05-28T09:28:19.999Z</time>
      </trkpt>
      <trkpt lat="44.01826" lon="3.50564">
        <ele>1118</ele>
        <time>2026-05-28T09:28:20.999Z</time>
      </trkpt>
      <trkpt lat="44.01827" lon="3.50565">
        <ele>1118.2</ele>
        <time>2026-05-28T09:28:21.999Z</time>
      </trkpt>
      <trkpt lat="44.01827" lon="3.50565">
        <ele>1118.6</ele>
        <time>2026-05-28T09:28:22.999Z</time>
      </trkpt>
      <trkpt lat="44.01828" lon="3.50564">
        <ele>1118.8</ele>
        <time>2026-05-28T09:28:23.999Z</time>
      </trkpt>
      <trkpt lat="44.01829" lon="3.50563">
        <ele>1119</ele>
        <time>2026-05-28T09:28:24.999Z</time>
      </trkpt>
      <trkpt lat="44.01829" lon="3.50563">
        <ele>1119.1</ele>
        <time>2026-05-28T09:28:25.999Z</time>
      </trkpt>
      <trkpt lat="44.0183" lon="3.50563">
        <ele>1119.4</ele>
        <time>2026-05-28T09:28:26.999Z</time>
      </trkpt>
      <trkpt lat="44.0183" lon="3.50563">
        <ele>1119.5</ele>
        <time>2026-05-28T09:28:27.999Z</time>
      </trkpt>
      <trkpt lat="44.01831" lon="3.50563">
        <ele>1119.3</ele>
        <time>2026-05-28T09:28:28.999Z</time>
      </trkpt>
      <trkpt lat="44.01831" lon="3.50563">
        <ele>1119.5</ele>
        <time>2026-05-28T09:28:29.999Z</time>
      </trkpt>
      <trkpt lat="44.01832" lon="3.50563">
        <ele>1119.5</ele>
        <time>2026-05-28T09:28:30.999Z</time>
      </trkpt>
      <trkpt lat="44.01833" lon="3.50562">
        <ele>1119.4</ele>
        <time>2026-05-28T09:28:31.999Z</time>
      </trkpt>
      <trkpt lat="44.01833" lon="3.50562">
        <ele>1119.5</ele>
        <time>2026-05-28T09:28:32.999Z</time>
      </trkpt>
      <trkpt lat="44.01835" lon="3.50562">
        <ele>1119.8</ele>
        <time>2026-05-28T09:28:33.999Z</time>
      </trkpt>
      <trkpt lat="44.01836" lon="3.50563">
        <ele>1120</ele>
        <time>2026-05-28T09:28:34.999Z</time>
      </trkpt>
      <trkpt lat="44.01836" lon="3.50563">
        <ele>1120.2</ele>
        <time>2026-05-28T09:28:35.999Z</time>
      </trkpt>
      <trkpt lat="44.01837" lon="3.50563">
        <ele>1120.4</ele>
        <time>2026-05-28T09:28:36.999Z</time>
      </trkpt>
      <trkpt lat="44.01838" lon="3.50563">
        <ele>1120.6</ele>
        <time>2026-05-28T09:28:37.999Z</time>
      </trkpt>
      <trkpt lat="44.01838" lon="3.50563">
        <ele>1120.9</ele>
        <time>2026-05-28T09:28:38.999Z</time>
      </trkpt>
      <trkpt lat="44.01839" lon="3.50563">
        <ele>1121.1</ele>
        <time>2026-05-28T09:28:39.999Z</time>
      </trkpt>
      <trkpt lat="44.0184" lon="3.50564">
        <ele>1121.3</ele>
        <time>2026-05-28T09:28:40.999Z</time>
      </trkpt>
      <trkpt lat="44.01841" lon="3.50564">
        <ele>1121.3</ele>
        <time>2026-05-28T09:28:41.999Z</time>
      </trkpt>
      <trkpt lat="44.01842" lon="3.50564">
        <ele>1121.3</ele>
        <time>2026-05-28T09:28:42.999Z</time>
      </trkpt>
      <trkpt lat="44.01842" lon="3.50564">
        <ele>1121.3</ele>
        <time>2026-05-28T09:28:43.999Z</time>
      </trkpt>
      <trkpt lat="44.01842" lon="3.50563">
        <ele>1121.4</ele>
        <time>2026-05-28T09:28:44.999Z</time>
      </trkpt>
      <trkpt lat="44.01843" lon="3.50563">
        <ele>1121.6</ele>
        <time>2026-05-28T09:28:45.999Z</time>
      </trkpt>
      <trkpt lat="44.01843" lon="3.50563">
        <ele>1121.5</ele>
        <time>2026-05-28T09:28:46.999Z</time>
      </trkpt>
      <trkpt lat="44.01844" lon="3.50563">
        <ele>1121.8</ele>
        <time>2026-05-28T09:28:47.999Z</time>
      </trkpt>
      <trkpt lat="44.01844" lon="3.50563">
        <ele>1122</ele>
        <time>2026-05-28T09:28:48.999Z</time>
      </trkpt>
      <trkpt lat="44.01845" lon="3.50563">
        <ele>1122.2</ele>
        <time>2026-05-28T09:28:49.999Z</time>
      </trkpt>
      <trkpt lat="44.01845" lon="3.50563">
        <ele>1122.1</ele>
        <time>2026-05-28T09:28:50.999Z</time>
      </trkpt>
      <trkpt lat="44.01846" lon="3.50564">
        <ele>1122.2</ele>
        <time>2026-05-28T09:28:51.999Z</time>
      </trkpt>
      <trkpt lat="44.01847" lon="3.50564">
        <ele>1122.3</ele>
        <time>2026-05-28T09:28:52.999Z</time>
      </trkpt>
      <trkpt lat="44.01848" lon="3.50564">
        <ele>1122.8</ele>
        <time>2026-05-28T09:28:53.999Z</time>
      </trkpt>
      <trkpt lat="44.01848" lon="3.50564">
        <ele>1122.9</ele>
        <time>2026-05-28T09:28:54.999Z</time>
      </trkpt>
      <trkpt lat="44.01849" lon="3.50564">
        <ele>1123</ele>
        <time>2026-05-28T09:28:55.999Z</time>
      </trkpt>
      <trkpt lat="44.0185" lon="3.50565">
        <ele>1123.3</ele>
        <time>2026-05-28T09:28:56.999Z</time>
      </trkpt>
      <trkpt lat="44.0185" lon="3.50565">
        <ele>1123.6</ele>
        <time>2026-05-28T09:28:57.999Z</time>
      </trkpt>
      <trkpt lat="44.01851" lon="3.50565">
        <ele>1123.7</ele>
        <time>2026-05-28T09:28:58.999Z</time>
      </trkpt>
      <trkpt lat="44.01852" lon="3.50565">
        <ele>1123.7</ele>
        <time>2026-05-28T09:29:00.999Z</time>
      </trkpt>
      <trkpt lat="44.01853" lon="3.50564">
        <ele>1123.7</ele>
        <time>2026-05-28T09:29:01.999Z</time>
      </trkpt>
      <trkpt lat="44.01854" lon="3.50564">
        <ele>1123.6</ele>
        <time>2026-05-28T09:29:02.999Z</time>
      </trkpt>
      <trkpt lat="44.01855" lon="3.50564">
        <ele>1123.3</ele>
        <time>2026-05-28T09:29:03.999Z</time>
      </trkpt>
      <trkpt lat="44.01855" lon="3.50565">
        <ele>1123</ele>
        <time>2026-05-28T09:29:04.999Z</time>
      </trkpt>
      <trkpt lat="44.01856" lon="3.50565">
        <ele>1122.7</ele>
        <time>2026-05-28T09:29:05.999Z</time>
      </trkpt>
      <trkpt lat="44.01857" lon="3.50565">
        <ele>1123.4</ele>
        <time>2026-05-28T09:29:06.999Z</time>
      </trkpt>
      <trkpt lat="44.01858" lon="3.50565">
        <ele>1123.7</ele>
        <time>2026-05-28T09:29:07.999Z</time>
      </trkpt>
      <trkpt lat="44.01859" lon="3.50565">
        <ele>1124.1</ele>
        <time>2026-05-28T09:29:08.999Z</time>
      </trkpt>
      <trkpt lat="44.0186" lon="3.50565">
        <ele>1124.8</ele>
        <time>2026-05-28T09:29:09.999Z</time>
      </trkpt>
      <trkpt lat="44.0186" lon="3.50565">
        <ele>1125.3</ele>
        <time>2026-05-28T09:29:10.999Z</time>
      </trkpt>
      <trkpt lat="44.0186" lon="3.50565">
        <ele>1125</ele>
        <time>2026-05-28T09:29:11.999Z</time>
      </trkpt>
      <trkpt lat="44.01861" lon="3.50566">
        <ele>1124.9</ele>
        <time>2026-05-28T09:29:12.999Z</time>
      </trkpt>
      <trkpt lat="44.01861" lon="3.50566">
        <ele>1124.7</ele>
        <time>2026-05-28T09:29:13.999Z</time>
      </trkpt>
      <trkpt lat="44.01861" lon="3.50566">
        <ele>1124.7</ele>
        <time>2026-05-28T09:29:15.999Z</time>
      </trkpt>
      <trkpt lat="44.01862" lon="3.50566">
        <ele>1125</ele>
        <time>2026-05-28T09:29:16.999Z</time>
      </trkpt>
      <trkpt lat="44.01862" lon="3.50566">
        <ele>1125.3</ele>
        <time>2026-05-28T09:29:17.999Z</time>
      </trkpt>
      <trkpt lat="44.01863" lon="3.50566">
        <ele>1125.2</ele>
        <time>2026-05-28T09:29:18.999Z</time>
      </trkpt>
      <trkpt lat="44.01864" lon="3.50567">
        <ele>1125.5</ele>
        <time>2026-05-28T09:29:19.999Z</time>
      </trkpt>
      <trkpt lat="44.01865" lon="3.50569">
        <ele>1125.8</ele>
        <time>2026-05-28T09:29:20.999Z</time>
      </trkpt>
      <trkpt lat="44.01866" lon="3.50569">
        <ele>1126</ele>
        <time>2026-05-28T09:29:21.999Z</time>
      </trkpt>
      <trkpt lat="44.01867" lon="3.50569">
        <ele>1126.2</ele>
        <time>2026-05-28T09:29:22.999Z</time>
      </trkpt>
      <trkpt lat="44.01868" lon="3.50569">
        <ele>1126.5</ele>
        <time>2026-05-28T09:29:23.999Z</time>
      </trkpt>
      <trkpt lat="44.01868" lon="3.5057">
        <ele>1126</ele>
        <time>2026-05-28T09:29:24.999Z</time>
      </trkpt>
      <trkpt lat="44.01868" lon="3.5057">
        <ele>1126.1</ele>
        <time>2026-05-28T09:29:25.999Z</time>
      </trkpt>
      <trkpt lat="44.01868" lon="3.5057">
        <ele>1126.1</ele>
        <time>2026-05-28T09:29:26.999Z</time>
      </trkpt>
      <trkpt lat="44.01869" lon="3.5057">
        <ele>1126</ele>
        <time>2026-05-28T09:29:27.999Z</time>
      </trkpt>
      <trkpt lat="44.01869" lon="3.5057">
        <ele>1125.9</ele>
        <time>2026-05-28T09:29:28.999Z</time>
      </trkpt>
      <trkpt lat="44.01869" lon="3.5057">
        <ele>1126.1</ele>
        <time>2026-05-28T09:29:29.999Z</time>
      </trkpt>
      <trkpt lat="44.01869" lon="3.5057">
        <ele>1126.3</ele>
        <time>2026-05-28T09:29:30.999Z</time>
      </trkpt>
      <trkpt lat="44.01869" lon="3.5057">
        <ele>1126.4</ele>
        <time>2026-05-28T09:29:31.999Z</time>
      </trkpt>
      <trkpt lat="44.01871" lon="3.50571">
        <ele>1126.9</ele>
        <time>2026-05-28T09:29:33.999Z</time>
      </trkpt>
      <trkpt lat="44.01871" lon="3.50571">
        <ele>1126.7</ele>
        <time>2026-05-28T09:29:34.999Z</time>
      </trkpt>
      <trkpt lat="44.01872" lon="3.50572">
        <ele>1126.9</ele>
        <time>2026-05-28T09:29:35.999Z</time>
      </trkpt>
      <trkpt lat="44.01872" lon="3.50571">
        <ele>1127.2</ele>
        <time>2026-05-28T09:29:36.999Z</time>
      </trkpt>
      <trkpt lat="44.01873" lon="3.50572">
        <ele>1127.1</ele>
        <time>2026-05-28T09:29:37.999Z</time>
      </trkpt>
      <trkpt lat="44.01875" lon="3.50573">
        <ele>1127.2</ele>
        <time>2026-05-28T09:29:38.999Z</time>
      </trkpt>
      <trkpt lat="44.01876" lon="3.50573">
        <ele>1127</ele>
        <time>2026-05-28T09:29:39.999Z</time>
      </trkpt>
      <trkpt lat="44.01878" lon="3.50573">
        <ele>1126.9</ele>
        <time>2026-05-28T09:29:40.999Z</time>
      </trkpt>
      <trkpt lat="44.01879" lon="3.50574">
        <ele>1126.8</ele>
        <time>2026-05-28T09:29:41.999Z</time>
      </trkpt>
      <trkpt lat="44.01881" lon="3.50574">
        <ele>1126.6</ele>
        <time>2026-05-28T09:29:42.999Z</time>
      </trkpt>
      <trkpt lat="44.01882" lon="3.50574">
        <ele>1126.8</ele>
        <time>2026-05-28T09:29:43.999Z</time>
      </trkpt>
      <trkpt lat="44.01882" lon="3.50574">
        <ele>1127.1</ele>
        <time>2026-05-28T09:29:44.999Z</time>
      </trkpt>
      <trkpt lat="44.01883" lon="3.50574">
        <ele>1127.3</ele>
        <time>2026-05-28T09:29:45.999Z</time>
      </trkpt>
      <trkpt lat="44.01883" lon="3.50575">
        <ele>1127.4</ele>
        <time>2026-05-28T09:29:46.999Z</time>
      </trkpt>
      <trkpt lat="44.01884" lon="3.50576">
        <ele>1127.2</ele>
        <time>2026-05-28T09:29:47.999Z</time>
      </trkpt>
      <trkpt lat="44.01884" lon="3.50576">
        <ele>1127</ele>
        <time>2026-05-28T09:29:48.999Z</time>
      </trkpt>
      <trkpt lat="44.01885" lon="3.50576">
        <ele>1127</ele>
        <time>2026-05-28T09:29:49.999Z</time>
      </trkpt>
      <trkpt lat="44.01886" lon="3.50575">
        <ele>1126.8</ele>
        <time>2026-05-28T09:29:50.999Z</time>
      </trkpt>
      <trkpt lat="44.01887" lon="3.50576">
        <ele>1126.6</ele>
        <time>2026-05-28T09:29:51.999Z</time>
      </trkpt>
      <trkpt lat="44.01888" lon="3.50576">
        <ele>1127.5</ele>
        <time>2026-05-28T09:29:52.999Z</time>
      </trkpt>
      <trkpt lat="44.01888" lon="3.50576">
        <ele>1127.5</ele>
        <time>2026-05-28T09:29:53.999Z</time>
      </trkpt>
      <trkpt lat="44.01888" lon="3.50577">
        <ele>1127.7</ele>
        <time>2026-05-28T09:29:54.999Z</time>
      </trkpt>
      <trkpt lat="44.01888" lon="3.50577">
        <ele>1128.1</ele>
        <time>2026-05-28T09:29:55.999Z</time>
      </trkpt>
      <trkpt lat="44.01889" lon="3.50578">
        <ele>1128.4</ele>
        <time>2026-05-28T09:29:56.999Z</time>
      </trkpt>
      <trkpt lat="44.01891" lon="3.50579">
        <ele>1128.3</ele>
        <time>2026-05-28T09:29:57.999Z</time>
      </trkpt>
      <trkpt lat="44.01891" lon="3.5058">
        <ele>1128.4</ele>
        <time>2026-05-28T09:29:58.999Z</time>
      </trkpt>
      <trkpt lat="44.01892" lon="3.5058">
        <ele>1128.5</ele>
        <time>2026-05-28T09:29:59.999Z</time>
      </trkpt>
      <trkpt lat="44.01893" lon="3.5058">
        <ele>1128.5</ele>
        <time>2026-05-28T09:30:00.999Z</time>
      </trkpt>
      <trkpt lat="44.01894" lon="3.5058">
        <ele>1128.6</ele>
        <time>2026-05-28T09:30:01.999Z</time>
      </trkpt>
      <trkpt lat="44.01895" lon="3.5058">
        <ele>1128.8</ele>
        <time>2026-05-28T09:30:02.999Z</time>
      </trkpt>
      <trkpt lat="44.01896" lon="3.5058">
        <ele>1129</ele>
        <time>2026-05-28T09:30:03.999Z</time>
      </trkpt>
      <trkpt lat="44.01897" lon="3.50579">
        <ele>1129.1</ele>
        <time>2026-05-28T09:30:04.999Z</time>
      </trkpt>
      <trkpt lat="44.01898" lon="3.50578">
        <ele>1129.2</ele>
        <time>2026-05-28T09:30:05.999Z</time>
      </trkpt>
      <trkpt lat="44.01899" lon="3.50578">
        <ele>1129</ele>
        <time>2026-05-28T09:30:06.999Z</time>
      </trkpt>
      <trkpt lat="44.01898" lon="3.50578">
        <ele>1128.8</ele>
        <time>2026-05-28T09:30:07.999Z</time>
      </trkpt>
      <trkpt lat="44.01899" lon="3.50579">
        <ele>1128.8</ele>
        <time>2026-05-28T09:30:08.999Z</time>
      </trkpt>
      <trkpt lat="44.01899" lon="3.50579">
        <ele>1128.4</ele>
        <time>2026-05-28T09:30:09.999Z</time>
      </trkpt>
      <trkpt lat="44.01899" lon="3.50579">
        <ele>1128.5</ele>
        <time>2026-05-28T09:30:10.999Z</time>
      </trkpt>
      <trkpt lat="44.019" lon="3.50579">
        <ele>1128.7</ele>
        <time>2026-05-28T09:30:11.999Z</time>
      </trkpt>
      <trkpt lat="44.01901" lon="3.5058">
        <ele>1129.3</ele>
        <time>2026-05-28T09:30:12.999Z</time>
      </trkpt>
      <trkpt lat="44.01902" lon="3.5058">
        <ele>1129.5</ele>
        <time>2026-05-28T09:30:13.999Z</time>
      </trkpt>
      <trkpt lat="44.01903" lon="3.50581">
        <ele>1129.7</ele>
        <time>2026-05-28T09:30:14.999Z</time>
      </trkpt>
      <trkpt lat="44.01903" lon="3.50581">
        <ele>1130</ele>
        <time>2026-05-28T09:30:15.999Z</time>
      </trkpt>
      <trkpt lat="44.01904" lon="3.5058">
        <ele>1130.2</ele>
        <time>2026-05-28T09:30:16.999Z</time>
      </trkpt>
      <trkpt lat="44.01904" lon="3.5058">
        <ele>1130.1</ele>
        <time>2026-05-28T09:30:17.999Z</time>
      </trkpt>
      <trkpt lat="44.01905" lon="3.5058">
        <ele>1130.2</ele>
        <time>2026-05-28T09:30:18.999Z</time>
      </trkpt>
      <trkpt lat="44.01906" lon="3.5058">
        <ele>1130.4</ele>
        <time>2026-05-28T09:30:19.999Z</time>
      </trkpt>
      <trkpt lat="44.01908" lon="3.50581">
        <ele>1130.4</ele>
        <time>2026-05-28T09:30:20.999Z</time>
      </trkpt>
      <trkpt lat="44.01909" lon="3.5058">
        <ele>1130.5</ele>
        <time>2026-05-28T09:30:21.999Z</time>
      </trkpt>
      <trkpt lat="44.0191" lon="3.50581">
        <ele>1130.7</ele>
        <time>2026-05-28T09:30:22.999Z</time>
      </trkpt>
      <trkpt lat="44.01911" lon="3.5058">
        <ele>1130.9</ele>
        <time>2026-05-28T09:30:23.999Z</time>
      </trkpt>
      <trkpt lat="44.01912" lon="3.50581">
        <ele>1130.8</ele>
        <time>2026-05-28T09:30:24.999Z</time>
      </trkpt>
      <trkpt lat="44.01912" lon="3.50581">
        <ele>1130.8</ele>
        <time>2026-05-28T09:30:25.999Z</time>
      </trkpt>
      <trkpt lat="44.01914" lon="3.50582">
        <ele>1130.5</ele>
        <time>2026-05-28T09:30:26.999Z</time>
      </trkpt>
      <trkpt lat="44.01915" lon="3.50582">
        <ele>1130.9</ele>
        <time>2026-05-28T09:30:27.999Z</time>
      </trkpt>
      <trkpt lat="44.01916" lon="3.50583">
        <ele>1131</ele>
        <time>2026-05-28T09:30:28.999Z</time>
      </trkpt>
      <trkpt lat="44.01917" lon="3.50584">
        <ele>1130.7</ele>
        <time>2026-05-28T09:30:29.999Z</time>
      </trkpt>
      <trkpt lat="44.01918" lon="3.50585">
        <ele>1130.7</ele>
        <time>2026-05-28T09:30:30.999Z</time>
      </trkpt>
      <trkpt lat="44.01918" lon="3.50586">
        <ele>1130.7</ele>
        <time>2026-05-28T09:30:31.999Z</time>
      </trkpt>
      <trkpt lat="44.01918" lon="3.50588">
        <ele>1130.6</ele>
        <time>2026-05-28T09:30:32.999Z</time>
      </trkpt>
      <trkpt lat="44.01918" lon="3.50589">
        <ele>1130.1</ele>
        <time>2026-05-28T09:30:33.999Z</time>
      </trkpt>
      <trkpt lat="44.01918" lon="3.50589">
        <ele>1130.1</ele>
        <time>2026-05-28T09:30:34.999Z</time>
      </trkpt>
      <trkpt lat="44.01919" lon="3.50589">
        <ele>1129.9</ele>
        <time>2026-05-28T09:30:35.999Z</time>
      </trkpt>
      <trkpt lat="44.01919" lon="3.50589">
        <ele>1129.5</ele>
        <time>2026-05-28T09:30:36.999Z</time>
      </trkpt>
      <trkpt lat="44.01919" lon="3.50589">
        <ele>1130</ele>
        <time>2026-05-28T09:30:37.999Z</time>
      </trkpt>
      <trkpt lat="44.01919" lon="3.50588">
        <ele>1130</ele>
        <time>2026-05-28T09:30:38.999Z</time>
      </trkpt>
      <trkpt lat="44.0192" lon="3.50588">
        <ele>1129.9</ele>
        <time>2026-05-28T09:30:39.999Z</time>
      </trkpt>
      <trkpt lat="44.0192" lon="3.50588">
        <ele>1130.2</ele>
        <time>2026-05-28T09:30:40.999Z</time>
      </trkpt>
      <trkpt lat="44.0192" lon="3.50588">
        <ele>1130.5</ele>
        <time>2026-05-28T09:30:41.999Z</time>
      </trkpt>
      <trkpt lat="44.0192" lon="3.50588">
        <ele>1130.5</ele>
        <time>2026-05-28T09:30:42.999Z</time>
      </trkpt>
      <trkpt lat="44.0192" lon="3.50588">
        <ele>1130.4</ele>
        <time>2026-05-28T09:30:43.999Z</time>
      </trkpt>
      <trkpt lat="44.0192" lon="3.50588">
        <ele>1130.4</ele>
        <time>2026-05-28T09:30:44.999Z</time>
      </trkpt>
      <trkpt lat="44.01919" lon="3.50587">
        <ele>1130.5</ele>
        <time>2026-05-28T09:30:45.999Z</time>
      </trkpt>
      <trkpt lat="44.01918" lon="3.50588">
        <ele>1130.6</ele>
        <time>2026-05-28T09:30:46.999Z</time>
      </trkpt>
      <trkpt lat="44.01918" lon="3.50588">
        <ele>1130.3</ele>
        <time>2026-05-28T09:30:47.999Z</time>
      </trkpt>
      <trkpt lat="44.01918" lon="3.50589">
        <ele>1130.1</ele>
        <time>2026-05-28T09:30:48.999Z</time>
      </trkpt>
      <trkpt lat="44.01918" lon="3.50589">
        <ele>1130.1</ele>
        <time>2026-05-28T09:30:49.999Z</time>
      </trkpt>
      <trkpt lat="44.01918" lon="3.50588">
        <ele>1130.2</ele>
        <time>2026-05-28T09:30:50.999Z</time>
      </trkpt>
      <trkpt lat="44.01918" lon="3.50588">
        <ele>1130.2</ele>
        <time>2026-05-28T09:30:51.999Z</time>
      </trkpt>
      <trkpt lat="44.01918" lon="3.50588">
        <ele>1129.8</ele>
        <time>2026-05-28T09:30:52.999Z</time>
      </trkpt>
      <trkpt lat="44.01918" lon="3.50588">
        <ele>1129.6</ele>
        <time>2026-05-28T09:30:53.999Z</time>
      </trkpt>
      <trkpt lat="44.01918" lon="3.50587">
        <ele>1129.7</ele>
        <time>2026-05-28T09:30:54.999Z</time>
      </trkpt>
      <trkpt lat="44.01918" lon="3.50588">
        <ele>1129.8</ele>
        <time>2026-05-28T09:30:55.999Z</time>
      </trkpt>
      <trkpt lat="44.01918" lon="3.50588">
        <ele>1129.6</ele>
        <time>2026-05-28T09:30:56.999Z</time>
      </trkpt>
      <trkpt lat="44.01918" lon="3.50588">
        <ele>1129.7</ele>
        <time>2026-05-28T09:30:57.999Z</time>
      </trkpt>
      <trkpt lat="44.01918" lon="3.50588">
        <ele>1129.9</ele>
        <time>2026-05-28T09:30:58.999Z</time>
      </trkpt>
      <trkpt lat="44.01918" lon="3.50587">
        <ele>1129.9</ele>
        <time>2026-05-28T09:30:59.999Z</time>
      </trkpt>
      <trkpt lat="44.01918" lon="3.50587">
        <ele>1129.7</ele>
        <time>2026-05-28T09:31:00.999Z</time>
      </trkpt>
      <trkpt lat="44.01918" lon="3.50587">
        <ele>1129.8</ele>
        <time>2026-05-28T09:31:01.999Z</time>
      </trkpt>
      <trkpt lat="44.01918" lon="3.50587">
        <ele>1130</ele>
        <time>2026-05-28T09:31:02.999Z</time>
      </trkpt>
      <trkpt lat="44.01918" lon="3.50587">
        <ele>1130.1</ele>
        <time>2026-05-28T09:31:03.999Z</time>
      </trkpt>
      <trkpt lat="44.01918" lon="3.50587">
        <ele>1129.9</ele>
        <time>2026-05-28T09:31:04.999Z</time>
      </trkpt>
      <trkpt lat="44.01919" lon="3.50587">
        <ele>1129.7</ele>
        <time>2026-05-28T09:31:05.999Z</time>
      </trkpt>
      <trkpt lat="44.01919" lon="3.50587">
        <ele>1129.7</ele>
        <time>2026-05-28T09:31:06.999Z</time>
      </trkpt>
      <trkpt lat="44.01919" lon="3.50587">
        <ele>1129.8</ele>
        <time>2026-05-28T09:31:07.999Z</time>
      </trkpt>
      <trkpt lat="44.01919" lon="3.50587">
        <ele>1129.9</ele>
        <time>2026-05-28T09:31:08.999Z</time>
      </trkpt>
      <trkpt lat="44.01918" lon="3.50587">
        <ele>1130</ele>
        <time>2026-05-28T09:31:09.999Z</time>
      </trkpt>
      <trkpt lat="44.01919" lon="3.50587">
        <ele>1129.5</ele>
        <time>2026-05-28T09:31:10.999Z</time>
      </trkpt>
      <trkpt lat="44.01918" lon="3.50587">
        <ele>1129.4</ele>
        <time>2026-05-28T09:31:11.999Z</time>
      </trkpt>
      <trkpt lat="44.01918" lon="3.50587">
        <ele>1129.3</ele>
        <time>2026-05-28T09:31:12.999Z</time>
      </trkpt>
      <trkpt lat="44.01918" lon="3.50587">
        <ele>1129.1</ele>
        <time>2026-05-28T09:31:13.999Z</time>
      </trkpt>
      <trkpt lat="44.01918" lon="3.50588">
        <ele>1129.1</ele>
        <time>2026-05-28T09:31:14.999Z</time>
      </trkpt>
      <trkpt lat="44.01918" lon="3.50588">
        <ele>1129.1</ele>
        <time>2026-05-28T09:31:15.999Z</time>
      </trkpt>
      <trkpt lat="44.01918" lon="3.50588">
        <ele>1129.4</ele>
        <time>2026-05-28T09:31:16.999Z</time>
      </trkpt>
      <trkpt lat="44.01918" lon="3.50588">
        <ele>1129.7</ele>
        <time>2026-05-28T09:31:17.999Z</time>
      </trkpt>
      <trkpt lat="44.01918" lon="3.50588">
        <ele>1129.9</ele>
        <time>2026-05-28T09:31:18.999Z</time>
      </trkpt>
      <trkpt lat="44.01918" lon="3.50587">
        <ele>1130.2</ele>
        <time>2026-05-28T09:31:19.999Z</time>
      </trkpt>
      <trkpt lat="44.01918" lon="3.50587">
        <ele>1130.5</ele>
        <time>2026-05-28T09:31:20.999Z</time>
      </trkpt>
      <trkpt lat="44.01918" lon="3.50587">
        <ele>1130.8</ele>
        <time>2026-05-28T09:31:21.999Z</time>
      </trkpt>
      <trkpt lat="44.01918" lon="3.50587">
        <ele>1130.8</ele>
        <time>2026-05-28T09:31:22.999Z</time>
      </trkpt>
      <trkpt lat="44.01918" lon="3.50587">
        <ele>1131</ele>
        <time>2026-05-28T09:31:23.999Z</time>
      </trkpt>
      <trkpt lat="44.01918" lon="3.50587">
        <ele>1131.3</ele>
        <time>2026-05-28T09:31:24.999Z</time>
      </trkpt>
      <trkpt lat="44.01918" lon="3.50587">
        <ele>1131.5</ele>
        <time>2026-05-28T09:31:25.999Z</time>
      </trkpt>
      <trkpt lat="44.01918" lon="3.50587">
        <ele>1131.8</ele>
        <time>2026-05-28T09:31:26.999Z</time>
      </trkpt>
      <trkpt lat="44.01918" lon="3.50587">
        <ele>1132.2</ele>
        <time>2026-05-28T09:31:27.999Z</time>
      </trkpt>
      <trkpt lat="44.01919" lon="3.50587">
        <ele>1132.5</ele>
        <time>2026-05-28T09:31:28.999Z</time>
      </trkpt>
      <trkpt lat="44.01919" lon="3.50587">
        <ele>1132.9</ele>
        <time>2026-05-28T09:31:29.999Z</time>
      </trkpt>
      <trkpt lat="44.01919" lon="3.50587">
        <ele>1133</ele>
        <time>2026-05-28T09:31:30.999Z</time>
      </trkpt>
      <trkpt lat="44.0192" lon="3.50588">
        <ele>1133</ele>
        <time>2026-05-28T09:31:31.999Z</time>
      </trkpt>
      <trkpt lat="44.0192" lon="3.50588">
        <ele>1133.1</ele>
        <time>2026-05-28T09:31:32.999Z</time>
      </trkpt>
      <trkpt lat="44.0192" lon="3.50588">
        <ele>1133.1</ele>
        <time>2026-05-28T09:31:33.999Z</time>
      </trkpt>
      <trkpt lat="44.01919" lon="3.50588">
        <ele>1133.1</ele>
        <time>2026-05-28T09:31:34.999Z</time>
      </trkpt>
      <trkpt lat="44.01919" lon="3.50588">
        <ele>1133.2</ele>
        <time>2026-05-28T09:31:35.999Z</time>
      </trkpt>
      <trkpt lat="44.01919" lon="3.50588">
        <ele>1133.4</ele>
        <time>2026-05-28T09:31:36.999Z</time>
      </trkpt>
      <trkpt lat="44.01919" lon="3.50588">
        <ele>1133.3</ele>
        <time>2026-05-28T09:31:37.999Z</time>
      </trkpt>
      <trkpt lat="44.01919" lon="3.50588">
        <ele>1133.3</ele>
        <time>2026-05-28T09:31:38.999Z</time>
      </trkpt>
      <trkpt lat="44.01919" lon="3.50588">
        <ele>1133.6</ele>
        <time>2026-05-28T09:31:39.999Z</time>
      </trkpt>
      <trkpt lat="44.01919" lon="3.50588">
        <ele>1133.8</ele>
        <time>2026-05-28T09:31:40.999Z</time>
      </trkpt>
      <trkpt lat="44.01919" lon="3.50588">
        <ele>1133.9</ele>
        <time>2026-05-28T09:31:41.999Z</time>
      </trkpt>
      <trkpt lat="44.01919" lon="3.50588">
        <ele>1133.9</ele>
        <time>2026-05-28T09:31:42.999Z</time>
      </trkpt>
      <trkpt lat="44.01919" lon="3.50588">
        <ele>1133.8</ele>
        <time>2026-05-28T09:31:43.999Z</time>
      </trkpt>
      <trkpt lat="44.01919" lon="3.50588">
        <ele>1133.9</ele>
        <time>2026-05-28T09:31:44.999Z</time>
      </trkpt>
      <trkpt lat="44.01919" lon="3.50588">
        <ele>1133.8</ele>
        <time>2026-05-28T09:31:45.999Z</time>
      </trkpt>
      <trkpt lat="44.01919" lon="3.50588">
        <ele>1133.9</ele>
        <time>2026-05-28T09:31:46.999Z</time>
      </trkpt>
      <trkpt lat="44.0192" lon="3.50588">
        <ele>1134.2</ele>
        <time>2026-05-28T09:31:47.999Z</time>
      </trkpt>
      <trkpt lat="44.01921" lon="3.50587">
        <ele>1135</ele>
        <time>2026-05-28T09:31:49.999Z</time>
      </trkpt>
      <trkpt lat="44.01921" lon="3.50587">
        <ele>1134.9</ele>
        <time>2026-05-28T09:31:50.999Z</time>
      </trkpt>
      <trkpt lat="44.0192" lon="3.50586">
        <ele>1135.2</ele>
        <time>2026-05-28T09:31:51.999Z</time>
      </trkpt>
      <trkpt lat="44.0192" lon="3.50586">
        <ele>1135.1</ele>
        <time>2026-05-28T09:31:52.999Z</time>
      </trkpt>
      <trkpt lat="44.0192" lon="3.50586">
        <ele>1134.6</ele>
        <time>2026-05-28T09:31:53.999Z</time>
      </trkpt>
      <trkpt lat="44.0192" lon="3.50586">
        <ele>1134.6</ele>
        <time>2026-05-28T09:31:54.999Z</time>
      </trkpt>
      <trkpt lat="44.0192" lon="3.50586">
        <ele>1134.5</ele>
        <time>2026-05-28T09:31:55.999Z</time>
      </trkpt>
      <trkpt lat="44.0192" lon="3.50586">
        <ele>1134.5</ele>
        <time>2026-05-28T09:31:56.999Z</time>
      </trkpt>
      <trkpt lat="44.0192" lon="3.50586">
        <ele>1134.5</ele>
        <time>2026-05-28T09:31:57.999Z</time>
      </trkpt>
      <trkpt lat="44.0192" lon="3.50586">
        <ele>1134.7</ele>
        <time>2026-05-28T09:31:58.999Z</time>
      </trkpt>
      <trkpt lat="44.0192" lon="3.50586">
        <ele>1134.8</ele>
        <time>2026-05-28T09:31:59.999Z</time>
      </trkpt>
      <trkpt lat="44.0192" lon="3.50586">
        <ele>1135.1</ele>
        <time>2026-05-28T09:32:00.999Z</time>
      </trkpt>
      <trkpt lat="44.0192" lon="3.50586">
        <ele>1135.3</ele>
        <time>2026-05-28T09:32:01.999Z</time>
      </trkpt>
      <trkpt lat="44.01921" lon="3.50585">
        <ele>1135.2</ele>
        <time>2026-05-28T09:32:02.999Z</time>
      </trkpt>
      <trkpt lat="44.01921" lon="3.50585">
        <ele>1135.4</ele>
        <time>2026-05-28T09:32:03.999Z</time>
      </trkpt>
      <trkpt lat="44.01921" lon="3.50585">
        <ele>1135.6</ele>
        <time>2026-05-28T09:32:04.999Z</time>
      </trkpt>
      <trkpt lat="44.01921" lon="3.50585">
        <ele>1136.1</ele>
        <time>2026-05-28T09:32:05.999Z</time>
      </trkpt>
      <trkpt lat="44.01921" lon="3.50585">
        <ele>1136.4</ele>
        <time>2026-05-28T09:32:06.999Z</time>
      </trkpt>
      <trkpt lat="44.01921" lon="3.50585">
        <ele>1136.6</ele>
        <time>2026-05-28T09:32:07.999Z</time>
      </trkpt>
      <trkpt lat="44.01921" lon="3.50585">
        <ele>1136.7</ele>
        <time>2026-05-28T09:32:08.999Z</time>
      </trkpt>
      <trkpt lat="44.01921" lon="3.50585">
        <ele>1136.5</ele>
        <time>2026-05-28T09:32:09.999Z</time>
      </trkpt>
      <trkpt lat="44.01921" lon="3.50585">
        <ele>1136.3</ele>
        <time>2026-05-28T09:32:10.999Z</time>
      </trkpt>
      <trkpt lat="44.01921" lon="3.50585">
        <ele>1136.2</ele>
        <time>2026-05-28T09:32:11.999Z</time>
      </trkpt>
      <trkpt lat="44.01921" lon="3.50585">
        <ele>1136.2</ele>
        <time>2026-05-28T09:32:12.999Z</time>
      </trkpt>
      <trkpt lat="44.01921" lon="3.50585">
        <ele>1136.3</ele>
        <time>2026-05-28T09:32:13.999Z</time>
      </trkpt>
      <trkpt lat="44.0192" lon="3.50585">
        <ele>1136.4</ele>
        <time>2026-05-28T09:32:14.999Z</time>
      </trkpt>
      <trkpt lat="44.0192" lon="3.50585">
        <ele>1136.6</ele>
        <time>2026-05-28T09:32:15.999Z</time>
      </trkpt>
      <trkpt lat="44.0192" lon="3.50585">
        <ele>1136.8</ele>
        <time>2026-05-28T09:32:16.999Z</time>
      </trkpt>
      <trkpt lat="44.0192" lon="3.50585">
        <ele>1136.8</ele>
        <time>2026-05-28T09:32:17.999Z</time>
      </trkpt>
      <trkpt lat="44.0192" lon="3.50585">
        <ele>1136.7</ele>
        <time>2026-05-28T09:32:18.999Z</time>
      </trkpt>
      <trkpt lat="44.0192" lon="3.50586">
        <ele>1136.7</ele>
        <time>2026-05-28T09:32:19.999Z</time>
      </trkpt>
      <trkpt lat="44.01921" lon="3.50586">
        <ele>1136.7</ele>
        <time>2026-05-28T09:32:20.999Z</time>
      </trkpt>
      <trkpt lat="44.01921" lon="3.50586">
        <ele>1136.9</ele>
        <time>2026-05-28T09:32:21.999Z</time>
      </trkpt>
      <trkpt lat="44.01922" lon="3.50587">
        <ele>1137.2</ele>
        <time>2026-05-28T09:32:22.999Z</time>
      </trkpt>
      <trkpt lat="44.01922" lon="3.50587">
        <ele>1137.4</ele>
        <time>2026-05-28T09:32:23.999Z</time>
      </trkpt>
      <trkpt lat="44.01923" lon="3.50587">
        <ele>1137.6</ele>
        <time>2026-05-28T09:32:24.999Z</time>
      </trkpt>
      <trkpt lat="44.01925" lon="3.50588">
        <ele>1138</ele>
        <time>2026-05-28T09:32:26.999Z</time>
      </trkpt>
      <trkpt lat="44.01926" lon="3.50588">
        <ele>1137.8</ele>
        <time>2026-05-28T09:32:27.999Z</time>
      </trkpt>
      <trkpt lat="44.01927" lon="3.50589">
        <ele>1137.5</ele>
        <time>2026-05-28T09:32:28.999Z</time>
      </trkpt>
      <trkpt lat="44.01929" lon="3.50589">
        <ele>1137.3</ele>
        <time>2026-05-28T09:32:29.999Z</time>
      </trkpt>
      <trkpt lat="44.01931" lon="3.5059">
        <ele>1137.4</ele>
        <time>2026-05-28T09:32:30.999Z</time>
      </trkpt>
      <trkpt lat="44.01932" lon="3.5059">
        <ele>1137.4</ele>
        <time>2026-05-28T09:32:31.999Z</time>
      </trkpt>
      <trkpt lat="44.01933" lon="3.50591">
        <ele>1137.6</ele>
        <time>2026-05-28T09:32:32.999Z</time>
      </trkpt>
      <trkpt lat="44.01934" lon="3.50591">
        <ele>1137.8</ele>
        <time>2026-05-28T09:32:33.999Z</time>
      </trkpt>
      <trkpt lat="44.01935" lon="3.50592">
        <ele>1137.8</ele>
        <time>2026-05-28T09:32:34.999Z</time>
      </trkpt>
      <trkpt lat="44.01936" lon="3.50592">
        <ele>1137.6</ele>
        <time>2026-05-28T09:32:35.999Z</time>
      </trkpt>
      <trkpt lat="44.01936" lon="3.50592">
        <ele>1138</ele>
        <time>2026-05-28T09:32:36.999Z</time>
      </trkpt>
      <trkpt lat="44.01936" lon="3.50592">
        <ele>1137.9</ele>
        <time>2026-05-28T09:32:37.999Z</time>
      </trkpt>
      <trkpt lat="44.01936" lon="3.50592">
        <ele>1137.8</ele>
        <time>2026-05-28T09:32:38.999Z</time>
      </trkpt>
      <trkpt lat="44.01936" lon="3.50593">
        <ele>1137.6</ele>
        <time>2026-05-28T09:32:39.999Z</time>
      </trkpt>
      <trkpt lat="44.01937" lon="3.50594">
        <ele>1137.5</ele>
        <time>2026-05-28T09:32:40.999Z</time>
      </trkpt>
      <trkpt lat="44.01938" lon="3.50595">
        <ele>1137.5</ele>
        <time>2026-05-28T09:32:41.999Z</time>
      </trkpt>
      <trkpt lat="44.01939" lon="3.50595">
        <ele>1137.6</ele>
        <time>2026-05-28T09:32:42.999Z</time>
      </trkpt>
      <trkpt lat="44.0194" lon="3.50596">
        <ele>1137.6</ele>
        <time>2026-05-28T09:32:43.999Z</time>
      </trkpt>
      <trkpt lat="44.01941" lon="3.50597">
        <ele>1137.6</ele>
        <time>2026-05-28T09:32:44.999Z</time>
      </trkpt>
      <trkpt lat="44.01942" lon="3.50598">
        <ele>1137.3</ele>
        <time>2026-05-28T09:32:45.999Z</time>
      </trkpt>
      <trkpt lat="44.01943" lon="3.50598">
        <ele>1137.1</ele>
        <time>2026-05-28T09:32:46.999Z</time>
      </trkpt>
      <trkpt lat="44.01944" lon="3.50598">
        <ele>1136.9</ele>
        <time>2026-05-28T09:32:47.999Z</time>
      </trkpt>
      <trkpt lat="44.01945" lon="3.50599">
        <ele>1137</ele>
        <time>2026-05-28T09:32:48.999Z</time>
      </trkpt>
      <trkpt lat="44.01946" lon="3.50599">
        <ele>1136.9</ele>
        <time>2026-05-28T09:32:49.999Z</time>
      </trkpt>
      <trkpt lat="44.01946" lon="3.50599">
        <ele>1137.9</ele>
        <time>2026-05-28T09:32:50.999Z</time>
      </trkpt>
      <trkpt lat="44.01946" lon="3.50599">
        <ele>1137.6</ele>
        <time>2026-05-28T09:32:51.999Z</time>
      </trkpt>
      <trkpt lat="44.01946" lon="3.50599">
        <ele>1137.3</ele>
        <time>2026-05-28T09:32:52.999Z</time>
      </trkpt>
      <trkpt lat="44.01947" lon="3.50599">
        <ele>1136.9</ele>
        <time>2026-05-28T09:32:53.999Z</time>
      </trkpt>
      <trkpt lat="44.01947" lon="3.50599">
        <ele>1136.4</ele>
        <time>2026-05-28T09:32:54.999Z</time>
      </trkpt>
      <trkpt lat="44.01948" lon="3.506">
        <ele>1136.4</ele>
        <time>2026-05-28T09:32:55.999Z</time>
      </trkpt>
      <trkpt lat="44.01949" lon="3.50601">
        <ele>1136.4</ele>
        <time>2026-05-28T09:32:56.999Z</time>
      </trkpt>
      <trkpt lat="44.01949" lon="3.50602">
        <ele>1136.2</ele>
        <time>2026-05-28T09:32:57.999Z</time>
      </trkpt>
      <trkpt lat="44.0195" lon="3.50602">
        <ele>1136.2</ele>
        <time>2026-05-28T09:32:58.999Z</time>
      </trkpt>
      <trkpt lat="44.01951" lon="3.50603">
        <ele>1136.4</ele>
        <time>2026-05-28T09:32:59.999Z</time>
      </trkpt>
      <trkpt lat="44.01953" lon="3.50602">
        <ele>1136.5</ele>
        <time>2026-05-28T09:33:00.999Z</time>
      </trkpt>
      <trkpt lat="44.01954" lon="3.50602">
        <ele>1136.2</ele>
        <time>2026-05-28T09:33:01.999Z</time>
      </trkpt>
      <trkpt lat="44.01955" lon="3.50602">
        <ele>1136.2</ele>
        <time>2026-05-28T09:33:02.999Z</time>
      </trkpt>
      <trkpt lat="44.01956" lon="3.50602">
        <ele>1136.2</ele>
        <time>2026-05-28T09:33:03.999Z</time>
      </trkpt>
      <trkpt lat="44.01957" lon="3.50602">
        <ele>1136.3</ele>
        <time>2026-05-28T09:33:04.999Z</time>
      </trkpt>
      <trkpt lat="44.01957" lon="3.50602">
        <ele>1136.7</ele>
        <time>2026-05-28T09:33:05.999Z</time>
      </trkpt>
      <trkpt lat="44.01958" lon="3.50602">
        <ele>1138.9</ele>
        <time>2026-05-28T09:33:06.999Z</time>
      </trkpt>
      <trkpt lat="44.01958" lon="3.50604">
        <ele>1138.7</ele>
        <time>2026-05-28T09:33:07.999Z</time>
      </trkpt>
      <trkpt lat="44.01959" lon="3.50605">
        <ele>1138.6</ele>
        <time>2026-05-28T09:33:08.999Z</time>
      </trkpt>
      <trkpt lat="44.0196" lon="3.50607">
        <ele>1138.7</ele>
        <time>2026-05-28T09:33:09.999Z</time>
      </trkpt>
      <trkpt lat="44.01963" lon="3.50609">
        <ele>1139</ele>
        <time>2026-05-28T09:33:11.999Z</time>
      </trkpt>
      <trkpt lat="44.01964" lon="3.50609">
        <ele>1139.2</ele>
        <time>2026-05-28T09:33:12.999Z</time>
      </trkpt>
      <trkpt lat="44.01965" lon="3.50609">
        <ele>1139.6</ele>
        <time>2026-05-28T09:33:13.999Z</time>
      </trkpt>
      <trkpt lat="44.01967" lon="3.5061">
        <ele>1140.3</ele>
        <time>2026-05-28T09:33:14.999Z</time>
      </trkpt>
      <trkpt lat="44.01968" lon="3.5061">
        <ele>1140.7</ele>
        <time>2026-05-28T09:33:15.999Z</time>
      </trkpt>
      <trkpt lat="44.01969" lon="3.50609">
        <ele>1140.4</ele>
        <time>2026-05-28T09:33:16.999Z</time>
      </trkpt>
      <trkpt lat="44.01969" lon="3.50609">
        <ele>1140</ele>
        <time>2026-05-28T09:33:17.999Z</time>
      </trkpt>
      <trkpt lat="44.01969" lon="3.50609">
        <ele>1140.2</ele>
        <time>2026-05-28T09:33:18.999Z</time>
      </trkpt>
      <trkpt lat="44.01969" lon="3.50609">
        <ele>1140.3</ele>
        <time>2026-05-28T09:33:19.999Z</time>
      </trkpt>
      <trkpt lat="44.0197" lon="3.5061">
        <ele>1140.4</ele>
        <time>2026-05-28T09:33:20.999Z</time>
      </trkpt>
      <trkpt lat="44.0197" lon="3.5061">
        <ele>1141.3</ele>
        <time>2026-05-28T09:33:21.999Z</time>
      </trkpt>
      <trkpt lat="44.0197" lon="3.5061">
        <ele>1141.7</ele>
        <time>2026-05-28T09:33:22.999Z</time>
      </trkpt>
      <trkpt lat="44.0197" lon="3.5061">
        <ele>1141.6</ele>
        <time>2026-05-28T09:33:23.999Z</time>
      </trkpt>
      <trkpt lat="44.0197" lon="3.50611">
        <ele>1141.8</ele>
        <time>2026-05-28T09:33:24.999Z</time>
      </trkpt>
      <trkpt lat="44.0197" lon="3.5061">
        <ele>1142</ele>
        <time>2026-05-28T09:33:25.999Z</time>
      </trkpt>
      <trkpt lat="44.01971" lon="3.50609">
        <ele>1142.4</ele>
        <time>2026-05-28T09:33:26.999Z</time>
      </trkpt>
      <trkpt lat="44.01972" lon="3.5061">
        <ele>1142.6</ele>
        <time>2026-05-28T09:33:27.999Z</time>
      </trkpt>
      <trkpt lat="44.01973" lon="3.50609">
        <ele>1142.5</ele>
        <time>2026-05-28T09:33:28.999Z</time>
      </trkpt>
      <trkpt lat="44.01973" lon="3.50609">
        <ele>1142.7</ele>
        <time>2026-05-28T09:33:29.999Z</time>
      </trkpt>
      <trkpt lat="44.01974" lon="3.50609">
        <ele>1142.8</ele>
        <time>2026-05-28T09:33:30.999Z</time>
      </trkpt>
      <trkpt lat="44.01975" lon="3.50609">
        <ele>1142.8</ele>
        <time>2026-05-28T09:33:31.999Z</time>
      </trkpt>
      <trkpt lat="44.01976" lon="3.5061">
        <ele>1142.7</ele>
        <time>2026-05-28T09:33:32.999Z</time>
      </trkpt>
      <trkpt lat="44.01976" lon="3.5061">
        <ele>1142.5</ele>
        <time>2026-05-28T09:33:33.999Z</time>
      </trkpt>
      <trkpt lat="44.01977" lon="3.50612">
        <ele>1142.4</ele>
        <time>2026-05-28T09:33:34.999Z</time>
      </trkpt>
      <trkpt lat="44.01978" lon="3.50612">
        <ele>1142.2</ele>
        <time>2026-05-28T09:33:35.999Z</time>
      </trkpt>
      <trkpt lat="44.01979" lon="3.50612">
        <ele>1141.8</ele>
        <time>2026-05-28T09:33:36.999Z</time>
      </trkpt>
      <trkpt lat="44.0198" lon="3.50611">
        <ele>1141.3</ele>
        <time>2026-05-28T09:33:37.999Z</time>
      </trkpt>
      <trkpt lat="44.0198" lon="3.50611">
        <ele>1140.8</ele>
        <time>2026-05-28T09:33:38.999Z</time>
      </trkpt>
      <trkpt lat="44.01981" lon="3.50611">
        <ele>1140.8</ele>
        <time>2026-05-28T09:33:39.999Z</time>
      </trkpt>
      <trkpt lat="44.01981" lon="3.50611">
        <ele>1140.8</ele>
        <time>2026-05-28T09:33:40.999Z</time>
      </trkpt>
      <trkpt lat="44.01982" lon="3.50611">
        <ele>1140.7</ele>
        <time>2026-05-28T09:33:42.999Z</time>
      </trkpt>
      <trkpt lat="44.01983" lon="3.50611">
        <ele>1140.6</ele>
        <time>2026-05-28T09:33:43.999Z</time>
      </trkpt>
      <trkpt lat="44.01984" lon="3.50612">
        <ele>1140.6</ele>
        <time>2026-05-28T09:33:44.999Z</time>
      </trkpt>
      <trkpt lat="44.01984" lon="3.50614">
        <ele>1140.7</ele>
        <time>2026-05-28T09:33:45.999Z</time>
      </trkpt>
      <trkpt lat="44.01985" lon="3.50614">
        <ele>1141.1</ele>
        <time>2026-05-28T09:33:46.999Z</time>
      </trkpt>
      <trkpt lat="44.01986" lon="3.50614">
        <ele>1141.4</ele>
        <time>2026-05-28T09:33:47.999Z</time>
      </trkpt>
      <trkpt lat="44.01988" lon="3.50614">
        <ele>1141.9</ele>
        <time>2026-05-28T09:33:48.999Z</time>
      </trkpt>
      <trkpt lat="44.01989" lon="3.50614">
        <ele>1142.4</ele>
        <time>2026-05-28T09:33:49.999Z</time>
      </trkpt>
      <trkpt lat="44.01988" lon="3.50614">
        <ele>1142.3</ele>
        <time>2026-05-28T09:33:50.999Z</time>
      </trkpt>
      <trkpt lat="44.01988" lon="3.50614">
        <ele>1142.2</ele>
        <time>2026-05-28T09:33:51.999Z</time>
      </trkpt>
      <trkpt lat="44.01987" lon="3.50614">
        <ele>1142.5</ele>
        <time>2026-05-28T09:33:52.999Z</time>
      </trkpt>
      <trkpt lat="44.01986" lon="3.50614">
        <ele>1142.7</ele>
        <time>2026-05-28T09:33:53.999Z</time>
      </trkpt>
      <trkpt lat="44.01986" lon="3.50615">
        <ele>1142.5</ele>
        <time>2026-05-28T09:33:54.999Z</time>
      </trkpt>
      <trkpt lat="44.01986" lon="3.50615">
        <ele>1142.2</ele>
        <time>2026-05-28T09:33:55.999Z</time>
      </trkpt>
      <trkpt lat="44.01986" lon="3.50615">
        <ele>1142.2</ele>
        <time>2026-05-28T09:33:56.999Z</time>
      </trkpt>
      <trkpt lat="44.01983" lon="3.50614">
        <ele>1139.5</ele>
        <time>2026-05-28T09:33:57.999Z</time>
      </trkpt>
      <trkpt lat="44.01983" lon="3.50615">
        <ele>1139</ele>
        <time>2026-05-28T09:33:58.999Z</time>
      </trkpt>
      <trkpt lat="44.01984" lon="3.50614">
        <ele>1139.5</ele>
        <time>2026-05-28T09:33:59.999Z</time>
      </trkpt>
      <trkpt lat="44.01983" lon="3.50615">
        <ele>1139.2</ele>
        <time>2026-05-28T09:34:00.999Z</time>
      </trkpt>
      <trkpt lat="44.0198" lon="3.50615">
        <ele>1136.8</ele>
        <time>2026-05-28T09:34:01.999Z</time>
      </trkpt>
      <trkpt lat="44.0198" lon="3.50614">
        <ele>1136.9</ele>
        <time>2026-05-28T09:34:02.999Z</time>
      </trkpt>
      <trkpt lat="44.0198" lon="3.50614">
        <ele>1136.6</ele>
        <time>2026-05-28T09:34:03.999Z</time>
      </trkpt>
      <trkpt lat="44.01979" lon="3.50613">
        <ele>1138.9</ele>
        <time>2026-05-28T09:34:05.999Z</time>
      </trkpt>
      <trkpt lat="44.01979" lon="3.50613">
        <ele>1138.3</ele>
        <time>2026-05-28T09:34:06.999Z</time>
      </trkpt>
      <trkpt lat="44.01979" lon="3.50613">
        <ele>1137.7</ele>
        <time>2026-05-28T09:34:07.999Z</time>
      </trkpt>
      <trkpt lat="44.01979" lon="3.50613">
        <ele>1137.6</ele>
        <time>2026-05-28T09:34:08.999Z</time>
      </trkpt>
      <trkpt lat="44.01979" lon="3.50613">
        <ele>1137.3</ele>
        <time>2026-05-28T09:34:09.999Z</time>
      </trkpt>
      <trkpt lat="44.01979" lon="3.50613">
        <ele>1136.9</ele>
        <time>2026-05-28T09:34:10.999Z</time>
      </trkpt>
      <trkpt lat="44.01979" lon="3.50613">
        <ele>1136.6</ele>
        <time>2026-05-28T09:34:11.999Z</time>
      </trkpt>
      <trkpt lat="44.01979" lon="3.50613">
        <ele>1136.6</ele>
        <time>2026-05-28T09:34:12.999Z</time>
      </trkpt>
      <trkpt lat="44.01979" lon="3.50613">
        <ele>1136.5</ele>
        <time>2026-05-28T09:34:13.999Z</time>
      </trkpt>
      <trkpt lat="44.01979" lon="3.50613">
        <ele>1136.6</ele>
        <time>2026-05-28T09:34:14.999Z</time>
      </trkpt>
      <trkpt lat="44.01979" lon="3.50612">
        <ele>1137.1</ele>
        <time>2026-05-28T09:34:15.999Z</time>
      </trkpt>
      <trkpt lat="44.01979" lon="3.50612">
        <ele>1137</ele>
        <time>2026-05-28T09:34:16.999Z</time>
      </trkpt>
      <trkpt lat="44.01979" lon="3.50613">
        <ele>1137.2</ele>
        <time>2026-05-28T09:34:17.999Z</time>
      </trkpt>
      <trkpt lat="44.01979" lon="3.50613">
        <ele>1137.7</ele>
        <time>2026-05-28T09:34:18.999Z</time>
      </trkpt>
      <trkpt lat="44.01979" lon="3.50613">
        <ele>1137.9</ele>
        <time>2026-05-28T09:34:19.999Z</time>
      </trkpt>
      <trkpt lat="44.01979" lon="3.50613">
        <ele>1138.1</ele>
        <time>2026-05-28T09:34:20.999Z</time>
      </trkpt>
      <trkpt lat="44.01979" lon="3.50613">
        <ele>1138.2</ele>
        <time>2026-05-28T09:34:21.999Z</time>
      </trkpt>
      <trkpt lat="44.0198" lon="3.50613">
        <ele>1140</ele>
        <time>2026-05-28T09:34:22.999Z</time>
      </trkpt>
      <trkpt lat="44.0198" lon="3.50613">
        <ele>1140.2</ele>
        <time>2026-05-28T09:34:23.999Z</time>
      </trkpt>
      <trkpt lat="44.0198" lon="3.50613">
        <ele>1140.5</ele>
        <time>2026-05-28T09:34:24.999Z</time>
      </trkpt>
      <trkpt lat="44.0198" lon="3.50613">
        <ele>1140.7</ele>
        <time>2026-05-28T09:34:25.999Z</time>
      </trkpt>
      <trkpt lat="44.0198" lon="3.50613">
        <ele>1141</ele>
        <time>2026-05-28T09:34:26.999Z</time>
      </trkpt>
      <trkpt lat="44.0198" lon="3.50613">
        <ele>1141.2</ele>
        <time>2026-05-28T09:34:27.999Z</time>
      </trkpt>
      <trkpt lat="44.0198" lon="3.50612">
        <ele>1141.1</ele>
        <time>2026-05-28T09:34:28.999Z</time>
      </trkpt>
      <trkpt lat="44.0198" lon="3.50612">
        <ele>1141.2</ele>
        <time>2026-05-28T09:34:29.999Z</time>
      </trkpt>
      <trkpt lat="44.0198" lon="3.50611">
        <ele>1141.5</ele>
        <time>2026-05-28T09:34:31.999Z</time>
      </trkpt>
      <trkpt lat="44.0198" lon="3.50611">
        <ele>1141.2</ele>
        <time>2026-05-28T09:34:32.999Z</time>
      </trkpt>
      <trkpt lat="44.0198" lon="3.50611">
        <ele>1141</ele>
        <time>2026-05-28T09:34:33.999Z</time>
      </trkpt>
      <trkpt lat="44.0198" lon="3.50611">
        <ele>1140.9</ele>
        <time>2026-05-28T09:34:34.999Z</time>
      </trkpt>
      <trkpt lat="44.0198" lon="3.50611">
        <ele>1140.9</ele>
        <time>2026-05-28T09:34:35.999Z</time>
      </trkpt>
      <trkpt lat="44.0198" lon="3.50611">
        <ele>1140.4</ele>
        <time>2026-05-28T09:34:36.999Z</time>
      </trkpt>
      <trkpt lat="44.0198" lon="3.50611">
        <ele>1140.1</ele>
        <time>2026-05-28T09:34:37.999Z</time>
      </trkpt>
      <trkpt lat="44.0198" lon="3.50611">
        <ele>1139.8</ele>
        <time>2026-05-28T09:34:38.999Z</time>
      </trkpt>
      <trkpt lat="44.0198" lon="3.50611">
        <ele>1139.7</ele>
        <time>2026-05-28T09:34:39.999Z</time>
      </trkpt>
      <trkpt lat="44.01979" lon="3.50611">
        <ele>1139.6</ele>
        <time>2026-05-28T09:34:40.999Z</time>
      </trkpt>
      <trkpt lat="44.01979" lon="3.50611">
        <ele>1139.5</ele>
        <time>2026-05-28T09:34:41.999Z</time>
      </trkpt>
      <trkpt lat="44.01979" lon="3.50611">
        <ele>1139.6</ele>
        <time>2026-05-28T09:34:42.999Z</time>
      </trkpt>
      <trkpt lat="44.01979" lon="3.50611">
        <ele>1139.8</ele>
        <time>2026-05-28T09:34:43.999Z</time>
      </trkpt>
      <trkpt lat="44.01979" lon="3.50611">
        <ele>1140</ele>
        <time>2026-05-28T09:34:44.999Z</time>
      </trkpt>
      <trkpt lat="44.01979" lon="3.50612">
        <ele>1139.9</ele>
        <time>2026-05-28T09:34:45.999Z</time>
      </trkpt>
      <trkpt lat="44.01979" lon="3.50612">
        <ele>1139.9</ele>
        <time>2026-05-28T09:34:46.999Z</time>
      </trkpt>
      <trkpt lat="44.0198" lon="3.50612">
        <ele>1140.1</ele>
        <time>2026-05-28T09:34:47.999Z</time>
      </trkpt>
      <trkpt lat="44.0198" lon="3.50612">
        <ele>1140.3</ele>
        <time>2026-05-28T09:34:48.999Z</time>
      </trkpt>
      <trkpt lat="44.0198" lon="3.50612">
        <ele>1140.2</ele>
        <time>2026-05-28T09:34:49.999Z</time>
      </trkpt>
      <trkpt lat="44.01979" lon="3.50612">
        <ele>1140</ele>
        <time>2026-05-28T09:34:50.999Z</time>
      </trkpt>
      <trkpt lat="44.01979" lon="3.50612">
        <ele>1139.8</ele>
        <time>2026-05-28T09:34:51.999Z</time>
      </trkpt>
      <trkpt lat="44.01979" lon="3.50612">
        <ele>1139.8</ele>
        <time>2026-05-28T09:34:52.999Z</time>
      </trkpt>
      <trkpt lat="44.01979" lon="3.50612">
        <ele>1139.6</ele>
        <time>2026-05-28T09:34:53.999Z</time>
      </trkpt>
      <trkpt lat="44.01979" lon="3.50611">
        <ele>1139.1</ele>
        <time>2026-05-28T09:34:54.999Z</time>
      </trkpt>
      <trkpt lat="44.01979" lon="3.50611">
        <ele>1138.6</ele>
        <time>2026-05-28T09:34:55.999Z</time>
      </trkpt>
      <trkpt lat="44.01979" lon="3.50611">
        <ele>1138.5</ele>
        <time>2026-05-28T09:34:56.999Z</time>
      </trkpt>
      <trkpt lat="44.01979" lon="3.50611">
        <ele>1138.3</ele>
        <time>2026-05-28T09:34:57.999Z</time>
      </trkpt>
      <trkpt lat="44.01979" lon="3.50611">
        <ele>1138.3</ele>
        <time>2026-05-28T09:34:58.999Z</time>
      </trkpt>
      <trkpt lat="44.01979" lon="3.50611">
        <ele>1138.4</ele>
        <time>2026-05-28T09:34:59.999Z</time>
      </trkpt>
      <trkpt lat="44.01979" lon="3.50611">
        <ele>1138.4</ele>
        <time>2026-05-28T09:35:00.999Z</time>
      </trkpt>
      <trkpt lat="44.01979" lon="3.50611">
        <ele>1138.2</ele>
        <time>2026-05-28T09:35:01.999Z</time>
      </trkpt>
      <trkpt lat="44.01979" lon="3.50611">
        <ele>1138.1</ele>
        <time>2026-05-28T09:35:02.999Z</time>
      </trkpt>
      <trkpt lat="44.01979" lon="3.50611">
        <ele>1137.9</ele>
        <time>2026-05-28T09:35:03.999Z</time>
      </trkpt>
      <trkpt lat="44.0198" lon="3.50611">
        <ele>1137.8</ele>
        <time>2026-05-28T09:35:04.999Z</time>
      </trkpt>
      <trkpt lat="44.0198" lon="3.50612">
        <ele>1137.9</ele>
        <time>2026-05-28T09:35:05.999Z</time>
      </trkpt>
      <trkpt lat="44.0198" lon="3.50612">
        <ele>1138</ele>
        <time>2026-05-28T09:35:06.999Z</time>
      </trkpt>
      <trkpt lat="44.0198" lon="3.50612">
        <ele>1138.3</ele>
        <time>2026-05-28T09:35:07.999Z</time>
      </trkpt>
      <trkpt lat="44.0198" lon="3.50612">
        <ele>1138.1</ele>
        <time>2026-05-28T09:35:08.999Z</time>
      </trkpt>
      <trkpt lat="44.0198" lon="3.50613">
        <ele>1138.4</ele>
        <time>2026-05-28T09:35:09.999Z</time>
      </trkpt>
      <trkpt lat="44.0198" lon="3.50613">
        <ele>1138.7</ele>
        <time>2026-05-28T09:35:10.999Z</time>
      </trkpt>
      <trkpt lat="44.0198" lon="3.50613">
        <ele>1138.6</ele>
        <time>2026-05-28T09:35:11.999Z</time>
      </trkpt>
      <trkpt lat="44.0198" lon="3.50613">
        <ele>1138.6</ele>
        <time>2026-05-28T09:35:12.999Z</time>
      </trkpt>
      <trkpt lat="44.0198" lon="3.50613">
        <ele>1138.8</ele>
        <time>2026-05-28T09:35:13.999Z</time>
      </trkpt>
      <trkpt lat="44.0198" lon="3.50613">
        <ele>1138.5</ele>
        <time>2026-05-28T09:35:14.999Z</time>
      </trkpt>
      <trkpt lat="44.0198" lon="3.50613">
        <ele>1138.2</ele>
        <time>2026-05-28T09:35:15.999Z</time>
      </trkpt>
      <trkpt lat="44.0198" lon="3.50612">
        <ele>1138</ele>
        <time>2026-05-28T09:35:16.999Z</time>
      </trkpt>
      <trkpt lat="44.0198" lon="3.50612">
        <ele>1138.1</ele>
        <time>2026-05-28T09:35:17.999Z</time>
      </trkpt>
      <trkpt lat="44.0198" lon="3.50612">
        <ele>1138.1</ele>
        <time>2026-05-28T09:35:18.999Z</time>
      </trkpt>
      <trkpt lat="44.0198" lon="3.50612">
        <ele>1138.2</ele>
        <time>2026-05-28T09:35:19.999Z</time>
      </trkpt>
      <trkpt lat="44.0198" lon="3.50613">
        <ele>1138.5</ele>
        <time>2026-05-28T09:35:20.999Z</time>
      </trkpt>
      <trkpt lat="44.0198" lon="3.50613">
        <ele>1138.7</ele>
        <time>2026-05-28T09:35:21.999Z</time>
      </trkpt>
      <trkpt lat="44.0198" lon="3.50613">
        <ele>1138.7</ele>
        <time>2026-05-28T09:35:22.999Z</time>
      </trkpt>
      <trkpt lat="44.0198" lon="3.50613">
        <ele>1138.8</ele>
        <time>2026-05-28T09:35:23.999Z</time>
      </trkpt>
      <trkpt lat="44.0198" lon="3.50613">
        <ele>1138.8</ele>
        <time>2026-05-28T09:35:24.999Z</time>
      </trkpt>
      <trkpt lat="44.0198" lon="3.50613">
        <ele>1138.9</ele>
        <time>2026-05-28T09:35:25.999Z</time>
      </trkpt>
      <trkpt lat="44.0198" lon="3.50613">
        <ele>1139.1</ele>
        <time>2026-05-28T09:35:26.999Z</time>
      </trkpt>
      <trkpt lat="44.0198" lon="3.50613">
        <ele>1139.2</ele>
        <time>2026-05-28T09:35:27.999Z</time>
      </trkpt>
      <trkpt lat="44.0198" lon="3.50613">
        <ele>1139</ele>
        <time>2026-05-28T09:35:28.999Z</time>
      </trkpt>
      <trkpt lat="44.0198" lon="3.50613">
        <ele>1138.9</ele>
        <time>2026-05-28T09:35:29.999Z</time>
      </trkpt>
      <trkpt lat="44.0198" lon="3.50613">
        <ele>1138.6</ele>
        <time>2026-05-28T09:35:30.999Z</time>
      </trkpt>
      <trkpt lat="44.0198" lon="3.50613">
        <ele>1138.7</ele>
        <time>2026-05-28T09:35:31.999Z</time>
      </trkpt>
      <trkpt lat="44.0198" lon="3.50613">
        <ele>1138.9</ele>
        <time>2026-05-28T09:35:32.999Z</time>
      </trkpt>
      <trkpt lat="44.0198" lon="3.50613">
        <ele>1138.8</ele>
        <time>2026-05-28T09:35:33.999Z</time>
      </trkpt>
      <trkpt lat="44.0198" lon="3.50613">
        <ele>1138.8</ele>
        <time>2026-05-28T09:35:34.999Z</time>
      </trkpt>
      <trkpt lat="44.0198" lon="3.50613">
        <ele>1138.5</ele>
        <time>2026-05-28T09:35:35.999Z</time>
      </trkpt>
      <trkpt lat="44.0198" lon="3.50614">
        <ele>1138.5</ele>
        <time>2026-05-28T09:35:36.999Z</time>
      </trkpt>
      <trkpt lat="44.0198" lon="3.50614">
        <ele>1138.3</ele>
        <time>2026-05-28T09:35:37.999Z</time>
      </trkpt>
      <trkpt lat="44.0198" lon="3.50614">
        <ele>1138.1</ele>
        <time>2026-05-28T09:35:38.999Z</time>
      </trkpt>
      <trkpt lat="44.0198" lon="3.50614">
        <ele>1137.8</ele>
        <time>2026-05-28T09:35:39.999Z</time>
      </trkpt>
      <trkpt lat="44.01979" lon="3.50614">
        <ele>1137.3</ele>
        <time>2026-05-28T09:35:40.999Z</time>
      </trkpt>
      <trkpt lat="44.01979" lon="3.50614">
        <ele>1137.2</ele>
        <time>2026-05-28T09:35:41.999Z</time>
      </trkpt>
      <trkpt lat="44.01979" lon="3.50614">
        <ele>1137.6</ele>
        <time>2026-05-28T09:35:42.999Z</time>
      </trkpt>
      <trkpt lat="44.01979" lon="3.50614">
        <ele>1137.8</ele>
        <time>2026-05-28T09:35:43.999Z</time>
      </trkpt>
      <trkpt lat="44.01979" lon="3.50614">
        <ele>1138.2</ele>
        <time>2026-05-28T09:35:44.999Z</time>
      </trkpt>
      <trkpt lat="44.0198" lon="3.50614">
        <ele>1138.3</ele>
        <time>2026-05-28T09:35:45.999Z</time>
      </trkpt>
      <trkpt lat="44.0198" lon="3.50614">
        <ele>1138.7</ele>
        <time>2026-05-28T09:35:46.999Z</time>
      </trkpt>
      <trkpt lat="44.0198" lon="3.50614">
        <ele>1139</ele>
        <time>2026-05-28T09:35:47.999Z</time>
      </trkpt>
      <trkpt lat="44.0198" lon="3.50614">
        <ele>1139.5</ele>
        <time>2026-05-28T09:35:48.999Z</time>
      </trkpt>
      <trkpt lat="44.0198" lon="3.50614">
        <ele>1139.6</ele>
        <time>2026-05-28T09:35:49.999Z</time>
      </trkpt>
      <trkpt lat="44.0198" lon="3.50614">
        <ele>1139.6</ele>
        <time>2026-05-28T09:35:50.999Z</time>
      </trkpt>
      <trkpt lat="44.01979" lon="3.50614">
        <ele>1139.8</ele>
        <time>2026-05-28T09:35:51.999Z</time>
      </trkpt>
      <trkpt lat="44.01979" lon="3.50614">
        <ele>1139.9</ele>
        <time>2026-05-28T09:35:52.999Z</time>
      </trkpt>
      <trkpt lat="44.01979" lon="3.50614">
        <ele>1140.2</ele>
        <time>2026-05-28T09:35:53.999Z</time>
      </trkpt>
      <trkpt lat="44.01979" lon="3.50614">
        <ele>1140.7</ele>
        <time>2026-05-28T09:35:54.999Z</time>
      </trkpt>
      <trkpt lat="44.01979" lon="3.50614">
        <ele>1140.6</ele>
        <time>2026-05-28T09:35:55.999Z</time>
      </trkpt>
      <trkpt lat="44.01979" lon="3.50614">
        <ele>1140.7</ele>
        <time>2026-05-28T09:35:56.999Z</time>
      </trkpt>
      <trkpt lat="44.01979" lon="3.50614">
        <ele>1140.7</ele>
        <time>2026-05-28T09:35:57.999Z</time>
      </trkpt>
      <trkpt lat="44.01979" lon="3.50615">
        <ele>1141.2</ele>
        <time>2026-05-28T09:35:58.999Z</time>
      </trkpt>
      <trkpt lat="44.01979" lon="3.50614">
        <ele>1141.6</ele>
        <time>2026-05-28T09:35:59.999Z</time>
      </trkpt>
      <trkpt lat="44.01979" lon="3.50614">
        <ele>1141.9</ele>
        <time>2026-05-28T09:36:00.999Z</time>
      </trkpt>
      <trkpt lat="44.0198" lon="3.50614">
        <ele>1142.4</ele>
        <time>2026-05-28T09:36:01.999Z</time>
      </trkpt>
      <trkpt lat="44.0198" lon="3.50614">
        <ele>1142.4</ele>
        <time>2026-05-28T09:36:02.999Z</time>
      </trkpt>
      <trkpt lat="44.0198" lon="3.50614">
        <ele>1142.5</ele>
        <time>2026-05-28T09:36:03.999Z</time>
      </trkpt>
      <trkpt lat="44.0198" lon="3.50614">
        <ele>1142.5</ele>
        <time>2026-05-28T09:36:04.999Z</time>
      </trkpt>
      <trkpt lat="44.0198" lon="3.50615">
        <ele>1142.6</ele>
        <time>2026-05-28T09:36:05.999Z</time>
      </trkpt>
      <trkpt lat="44.0198" lon="3.50615">
        <ele>1142.8</ele>
        <time>2026-05-28T09:36:06.999Z</time>
      </trkpt>
      <trkpt lat="44.0198" lon="3.50615">
        <ele>1142.9</ele>
        <time>2026-05-28T09:36:07.999Z</time>
      </trkpt>
      <trkpt lat="44.0198" lon="3.50616">
        <ele>1143.3</ele>
        <time>2026-05-28T09:36:08.999Z</time>
      </trkpt>
      <trkpt lat="44.0198" lon="3.50616">
        <ele>1143.4</ele>
        <time>2026-05-28T09:36:09.999Z</time>
      </trkpt>
      <trkpt lat="44.0198" lon="3.50616">
        <ele>1143.6</ele>
        <time>2026-05-28T09:36:10.999Z</time>
      </trkpt>
      <trkpt lat="44.0198" lon="3.50616">
        <ele>1143.7</ele>
        <time>2026-05-28T09:36:11.999Z</time>
      </trkpt>
      <trkpt lat="44.0198" lon="3.50616">
        <ele>1142.7</ele>
        <time>2026-05-28T09:36:12.999Z</time>
      </trkpt>
      <trkpt lat="44.0198" lon="3.50616">
        <ele>1141.9</ele>
        <time>2026-05-28T09:36:13.999Z</time>
      </trkpt>
      <trkpt lat="44.0198" lon="3.50616">
        <ele>1141.5</ele>
        <time>2026-05-28T09:36:14.999Z</time>
      </trkpt>
      <trkpt lat="44.0198" lon="3.50615">
        <ele>1141.1</ele>
        <time>2026-05-28T09:36:15.999Z</time>
      </trkpt>
      <trkpt lat="44.0198" lon="3.50615">
        <ele>1141.1</ele>
        <time>2026-05-28T09:36:16.999Z</time>
      </trkpt>
      <trkpt lat="44.0198" lon="3.50615">
        <ele>1141</ele>
        <time>2026-05-28T09:36:17.999Z</time>
      </trkpt>
      <trkpt lat="44.01979" lon="3.50615">
        <ele>1141</ele>
        <time>2026-05-28T09:36:18.999Z</time>
      </trkpt>
      <trkpt lat="44.01979" lon="3.50615">
        <ele>1141.3</ele>
        <time>2026-05-28T09:36:19.999Z</time>
      </trkpt>
      <trkpt lat="44.01979" lon="3.50615">
        <ele>1141.4</ele>
        <time>2026-05-28T09:36:20.999Z</time>
      </trkpt>
      <trkpt lat="44.01979" lon="3.50615">
        <ele>1141.5</ele>
        <time>2026-05-28T09:36:21.999Z</time>
      </trkpt>
      <trkpt lat="44.0198" lon="3.50615">
        <ele>1141.4</ele>
        <time>2026-05-28T09:36:22.999Z</time>
      </trkpt>
      <trkpt lat="44.0198" lon="3.50615">
        <ele>1141.3</ele>
        <time>2026-05-28T09:36:23.999Z</time>
      </trkpt>
      <trkpt lat="44.0198" lon="3.50615">
        <ele>1141.1</ele>
        <time>2026-05-28T09:36:24.999Z</time>
      </trkpt>
      <trkpt lat="44.0198" lon="3.50615">
        <ele>1141</ele>
        <time>2026-05-28T09:36:25.999Z</time>
      </trkpt>
      <trkpt lat="44.0198" lon="3.50615">
        <ele>1140.9</ele>
        <time>2026-05-28T09:36:26.999Z</time>
      </trkpt>
      <trkpt lat="44.01979" lon="3.50615">
        <ele>1140.6</ele>
        <time>2026-05-28T09:36:27.999Z</time>
      </trkpt>
      <trkpt lat="44.01979" lon="3.50615">
        <ele>1140.8</ele>
        <time>2026-05-28T09:36:28.999Z</time>
      </trkpt>
      <trkpt lat="44.01979" lon="3.50615">
        <ele>1140.9</ele>
        <time>2026-05-28T09:36:29.999Z</time>
      </trkpt>
      <trkpt lat="44.01979" lon="3.50616">
        <ele>1140.9</ele>
        <time>2026-05-28T09:36:30.999Z</time>
      </trkpt>
      <trkpt lat="44.01979" lon="3.50616">
        <ele>1140.8</ele>
        <time>2026-05-28T09:36:31.999Z</time>
      </trkpt>
      <trkpt lat="44.01979" lon="3.50616">
        <ele>1141.2</ele>
        <time>2026-05-28T09:36:32.999Z</time>
      </trkpt>
      <trkpt lat="44.01979" lon="3.50616">
        <ele>1141.3</ele>
        <time>2026-05-28T09:36:33.999Z</time>
      </trkpt>
      <trkpt lat="44.01979" lon="3.50616">
        <ele>1141.3</ele>
        <time>2026-05-28T09:36:34.999Z</time>
      </trkpt>
      <trkpt lat="44.01979" lon="3.50616">
        <ele>1141.3</ele>
        <time>2026-05-28T09:36:35.999Z</time>
      </trkpt>
      <trkpt lat="44.01978" lon="3.50616">
        <ele>1141.4</ele>
        <time>2026-05-28T09:36:36.999Z</time>
      </trkpt>
      <trkpt lat="44.01978" lon="3.50616">
        <ele>1141.3</ele>
        <time>2026-05-28T09:36:37.999Z</time>
      </trkpt>
      <trkpt lat="44.01979" lon="3.50616">
        <ele>1141.2</ele>
        <time>2026-05-28T09:36:38.999Z</time>
      </trkpt>
      <trkpt lat="44.01978" lon="3.50616">
        <ele>1140.9</ele>
        <time>2026-05-28T09:36:39.999Z</time>
      </trkpt>
      <trkpt lat="44.01979" lon="3.50616">
        <ele>1140.5</ele>
        <time>2026-05-28T09:36:40.999Z</time>
      </trkpt>
      <trkpt lat="44.01979" lon="3.50616">
        <ele>1140.2</ele>
        <time>2026-05-28T09:36:41.999Z</time>
      </trkpt>
      <trkpt lat="44.01979" lon="3.50616">
        <ele>1139.8</ele>
        <time>2026-05-28T09:36:42.999Z</time>
      </trkpt>
      <trkpt lat="44.01978" lon="3.50616">
        <ele>1139.6</ele>
        <time>2026-05-28T09:36:43.999Z</time>
      </trkpt>
      <trkpt lat="44.01978" lon="3.50616">
        <ele>1139.3</ele>
        <time>2026-05-28T09:36:44.999Z</time>
      </trkpt>
      <trkpt lat="44.01978" lon="3.50616">
        <ele>1138.8</ele>
        <time>2026-05-28T09:36:45.999Z</time>
      </trkpt>
      <trkpt lat="44.01978" lon="3.50616">
        <ele>1138.4</ele>
        <time>2026-05-28T09:36:46.999Z</time>
      </trkpt>
      <trkpt lat="44.01978" lon="3.50616">
        <ele>1138.1</ele>
        <time>2026-05-28T09:36:47.999Z</time>
      </trkpt>
      <trkpt lat="44.01978" lon="3.50616">
        <ele>1138.1</ele>
        <time>2026-05-28T09:36:48.999Z</time>
      </trkpt>
      <trkpt lat="44.01978" lon="3.50616">
        <ele>1137.9</ele>
        <time>2026-05-28T09:36:49.999Z</time>
      </trkpt>
      <trkpt lat="44.01978" lon="3.50616">
        <ele>1137.5</ele>
        <time>2026-05-28T09:36:50.999Z</time>
      </trkpt>
      <trkpt lat="44.01978" lon="3.50616">
        <ele>1137</ele>
        <time>2026-05-28T09:36:51.999Z</time>
      </trkpt>
      <trkpt lat="44.01978" lon="3.50616">
        <ele>1136.8</ele>
        <time>2026-05-28T09:36:52.999Z</time>
      </trkpt>
      <trkpt lat="44.01978" lon="3.50616">
        <ele>1136.7</ele>
        <time>2026-05-28T09:36:53.999Z</time>
      </trkpt>
      <trkpt lat="44.01978" lon="3.50615">
        <ele>1136.4</ele>
        <time>2026-05-28T09:36:54.999Z</time>
      </trkpt>
      <trkpt lat="44.01978" lon="3.50615">
        <ele>1136</ele>
        <time>2026-05-28T09:36:55.999Z</time>
      </trkpt>
      <trkpt lat="44.01978" lon="3.50615">
        <ele>1135.8</ele>
        <time>2026-05-28T09:36:56.999Z</time>
      </trkpt>
      <trkpt lat="44.01978" lon="3.50615">
        <ele>1135.6</ele>
        <time>2026-05-28T09:36:57.999Z</time>
      </trkpt>
      <trkpt lat="44.01978" lon="3.50615">
        <ele>1135.4</ele>
        <time>2026-05-28T09:36:58.999Z</time>
      </trkpt>
      <trkpt lat="44.01978" lon="3.50615">
        <ele>1135.4</ele>
        <time>2026-05-28T09:36:59.999Z</time>
      </trkpt>
      <trkpt lat="44.01978" lon="3.50615">
        <ele>1135.3</ele>
        <time>2026-05-28T09:37:00.999Z</time>
      </trkpt>
      <trkpt lat="44.01979" lon="3.50614">
        <ele>1135.5</ele>
        <time>2026-05-28T09:37:01.999Z</time>
      </trkpt>
      <trkpt lat="44.01979" lon="3.50614">
        <ele>1135.5</ele>
        <time>2026-05-28T09:37:02.999Z</time>
      </trkpt>
      <trkpt lat="44.01979" lon="3.50614">
        <ele>1135.9</ele>
        <time>2026-05-28T09:37:03.999Z</time>
      </trkpt>
      <trkpt lat="44.01979" lon="3.50614">
        <ele>1136.2</ele>
        <time>2026-05-28T09:37:04.999Z</time>
      </trkpt>
      <trkpt lat="44.01979" lon="3.50615">
        <ele>1136.6</ele>
        <time>2026-05-28T09:37:05.999Z</time>
      </trkpt>
      <trkpt lat="44.01979" lon="3.50615">
        <ele>1136.9</ele>
        <time>2026-05-28T09:37:06.999Z</time>
      </trkpt>
      <trkpt lat="44.01979" lon="3.50615">
        <ele>1137.1</ele>
        <time>2026-05-28T09:37:07.999Z</time>
      </trkpt>
      <trkpt lat="44.01979" lon="3.50615">
        <ele>1137.2</ele>
        <time>2026-05-28T09:37:08.999Z</time>
      </trkpt>
      <trkpt lat="44.01979" lon="3.50615">
        <ele>1137.4</ele>
        <time>2026-05-28T09:37:09.999Z</time>
      </trkpt>
      <trkpt lat="44.01979" lon="3.50615">
        <ele>1137.7</ele>
        <time>2026-05-28T09:37:10.999Z</time>
      </trkpt>
      <trkpt lat="44.0198" lon="3.50616">
        <ele>1138</ele>
        <time>2026-05-28T09:37:11.999Z</time>
      </trkpt>
      <trkpt lat="44.0198" lon="3.50617">
        <ele>1138</ele>
        <time>2026-05-28T09:37:12.999Z</time>
      </trkpt>
      <trkpt lat="44.01981" lon="3.50617">
        <ele>1138.1</ele>
        <time>2026-05-28T09:37:13.999Z</time>
      </trkpt>
      <trkpt lat="44.01981" lon="3.50617">
        <ele>1138.1</ele>
        <time>2026-05-28T09:37:14.999Z</time>
      </trkpt>
      <trkpt lat="44.01981" lon="3.50617">
        <ele>1138.5</ele>
        <time>2026-05-28T09:37:15.999Z</time>
      </trkpt>
      <trkpt lat="44.0198" lon="3.50617">
        <ele>1138.7</ele>
        <time>2026-05-28T09:37:16.999Z</time>
      </trkpt>
      <trkpt lat="44.0198" lon="3.50616">
        <ele>1138.6</ele>
        <time>2026-05-28T09:37:17.999Z</time>
      </trkpt>
      <trkpt lat="44.0198" lon="3.50616">
        <ele>1138.4</ele>
        <time>2026-05-28T09:37:18.999Z</time>
      </trkpt>
      <trkpt lat="44.0198" lon="3.50616">
        <ele>1138.1</ele>
        <time>2026-05-28T09:37:19.999Z</time>
      </trkpt>
      <trkpt lat="44.0198" lon="3.50616">
        <ele>1138.3</ele>
        <time>2026-05-28T09:37:20.999Z</time>
      </trkpt>
      <trkpt lat="44.0198" lon="3.50616">
        <ele>1138.5</ele>
        <time>2026-05-28T09:37:21.999Z</time>
      </trkpt>
      <trkpt lat="44.0198" lon="3.50616">
        <ele>1138.8</ele>
        <time>2026-05-28T09:37:22.999Z</time>
      </trkpt>
      <trkpt lat="44.01981" lon="3.50616">
        <ele>1139.2</ele>
        <time>2026-05-28T09:37:23.999Z</time>
      </trkpt>
      <trkpt lat="44.01982" lon="3.50616">
        <ele>1139.5</ele>
        <time>2026-05-28T09:37:24.999Z</time>
      </trkpt>
      <trkpt lat="44.01982" lon="3.50615">
        <ele>1139.8</ele>
        <time>2026-05-28T09:37:25.999Z</time>
      </trkpt>
      <trkpt lat="44.01982" lon="3.50615">
        <ele>1140.1</ele>
        <time>2026-05-28T09:37:26.999Z</time>
      </trkpt>
      <trkpt lat="44.01983" lon="3.50615">
        <ele>1140.3</ele>
        <time>2026-05-28T09:37:27.999Z</time>
      </trkpt>
      <trkpt lat="44.01983" lon="3.50615">
        <ele>1140.3</ele>
        <time>2026-05-28T09:37:28.999Z</time>
      </trkpt>
      <trkpt lat="44.01983" lon="3.50615">
        <ele>1140</ele>
        <time>2026-05-28T09:37:29.999Z</time>
      </trkpt>
      <trkpt lat="44.01983" lon="3.50616">
        <ele>1139.9</ele>
        <time>2026-05-28T09:37:30.999Z</time>
      </trkpt>
      <trkpt lat="44.01982" lon="3.50616">
        <ele>1139.3</ele>
        <time>2026-05-28T09:37:31.999Z</time>
      </trkpt>
      <trkpt lat="44.01982" lon="3.50616">
        <ele>1138.6</ele>
        <time>2026-05-28T09:37:32.999Z</time>
      </trkpt>
      <trkpt lat="44.01982" lon="3.50616">
        <ele>1138.2</ele>
        <time>2026-05-28T09:37:33.999Z</time>
      </trkpt>
      <trkpt lat="44.01982" lon="3.50616">
        <ele>1137.8</ele>
        <time>2026-05-28T09:37:34.999Z</time>
      </trkpt>
      <trkpt lat="44.01982" lon="3.50616">
        <ele>1137.2</ele>
        <time>2026-05-28T09:37:35.999Z</time>
      </trkpt>
      <trkpt lat="44.01982" lon="3.50616">
        <ele>1137.1</ele>
        <time>2026-05-28T09:37:36.999Z</time>
      </trkpt>
      <trkpt lat="44.01982" lon="3.50616">
        <ele>1136.9</ele>
        <time>2026-05-28T09:37:37.999Z</time>
      </trkpt>
      <trkpt lat="44.01982" lon="3.50616">
        <ele>1136.8</ele>
        <time>2026-05-28T09:37:38.999Z</time>
      </trkpt>
      <trkpt lat="44.01982" lon="3.50616">
        <ele>1136.7</ele>
        <time>2026-05-28T09:37:39.999Z</time>
      </trkpt>
      <trkpt lat="44.01982" lon="3.50616">
        <ele>1136.4</ele>
        <time>2026-05-28T09:37:40.999Z</time>
      </trkpt>
      <trkpt lat="44.01982" lon="3.50616">
        <ele>1136.2</ele>
        <time>2026-05-28T09:37:41.999Z</time>
      </trkpt>
      <trkpt lat="44.01982" lon="3.50615">
        <ele>1136.1</ele>
        <time>2026-05-28T09:37:42.999Z</time>
      </trkpt>
      <trkpt lat="44.01982" lon="3.50615">
        <ele>1136.2</ele>
        <time>2026-05-28T09:37:43.999Z</time>
      </trkpt>
      <trkpt lat="44.01982" lon="3.50615">
        <ele>1136.2</ele>
        <time>2026-05-28T09:37:44.999Z</time>
      </trkpt>
      <trkpt lat="44.01982" lon="3.50615">
        <ele>1136</ele>
        <time>2026-05-28T09:37:45.999Z</time>
      </trkpt>
      <trkpt lat="44.01982" lon="3.50615">
        <ele>1135.7</ele>
        <time>2026-05-28T09:37:47.000Z</time>
      </trkpt>
      <trkpt lat="44.01982" lon="3.50615">
        <ele>1135.6</ele>
        <time>2026-05-28T09:37:48.000Z</time>
      </trkpt>
      <trkpt lat="44.01982" lon="3.50614">
        <ele>1135.7</ele>
        <time>2026-05-28T09:37:50.000Z</time>
      </trkpt>
      <trkpt lat="44.01982" lon="3.50613">
        <ele>1136.1</ele>
        <time>2026-05-28T09:37:51.000Z</time>
      </trkpt>
      <trkpt lat="44.01982" lon="3.50613">
        <ele>1135.4</ele>
        <time>2026-05-28T09:37:52.000Z</time>
      </trkpt>
      <trkpt lat="44.01982" lon="3.50613">
        <ele>1135.5</ele>
        <time>2026-05-28T09:37:53.000Z</time>
      </trkpt>
      <trkpt lat="44.01982" lon="3.50613">
        <ele>1135.5</ele>
        <time>2026-05-28T09:37:54.000Z</time>
      </trkpt>
      <trkpt lat="44.01982" lon="3.50613">
        <ele>1135.3</ele>
        <time>2026-05-28T09:37:55.000Z</time>
      </trkpt>
      <trkpt lat="44.01982" lon="3.50613">
        <ele>1135.2</ele>
        <time>2026-05-28T09:37:56.000Z</time>
      </trkpt>
      <trkpt lat="44.01982" lon="3.50613">
        <ele>1135.2</ele>
        <time>2026-05-28T09:37:57.000Z</time>
      </trkpt>
      <trkpt lat="44.01982" lon="3.50613">
        <ele>1135.1</ele>
        <time>2026-05-28T09:37:58.000Z</time>
      </trkpt>
      <trkpt lat="44.01982" lon="3.50613">
        <ele>1135</ele>
        <time>2026-05-28T09:37:59.000Z</time>
      </trkpt>
      <trkpt lat="44.01982" lon="3.50613">
        <ele>1135.2</ele>
        <time>2026-05-28T09:38:00.000Z</time>
      </trkpt>
      <trkpt lat="44.01982" lon="3.50613">
        <ele>1135.3</ele>
        <time>2026-05-28T09:38:01.000Z</time>
      </trkpt>
      <trkpt lat="44.01982" lon="3.50613">
        <ele>1135.3</ele>
        <time>2026-05-28T09:38:02.000Z</time>
      </trkpt>
      <trkpt lat="44.01982" lon="3.50612">
        <ele>1135.5</ele>
        <time>2026-05-28T09:38:03.000Z</time>
      </trkpt>
      <trkpt lat="44.01982" lon="3.50612">
        <ele>1135.6</ele>
        <time>2026-05-28T09:38:04.000Z</time>
      </trkpt>
      <trkpt lat="44.01982" lon="3.50612">
        <ele>1135.5</ele>
        <time>2026-05-28T09:38:05.000Z</time>
      </trkpt>
      <trkpt lat="44.01981" lon="3.50612">
        <ele>1135.4</ele>
        <time>2026-05-28T09:38:06.000Z</time>
      </trkpt>
      <trkpt lat="44.0198" lon="3.5061">
        <ele>1135.1</ele>
        <time>2026-05-28T09:38:07.000Z</time>
      </trkpt>
      <trkpt lat="44.01979" lon="3.5061">
        <ele>1135.3</ele>
        <time>2026-05-28T09:38:08.000Z</time>
      </trkpt>
      <trkpt lat="44.01978" lon="3.5061">
        <ele>1135.3</ele>
        <time>2026-05-28T09:38:09.000Z</time>
      </trkpt>
      <trkpt lat="44.01977" lon="3.5061">
        <ele>1135.3</ele>
        <time>2026-05-28T09:38:10.000Z</time>
      </trkpt>
      <trkpt lat="44.01977" lon="3.5061">
        <ele>1135.3</ele>
        <time>2026-05-28T09:38:11.000Z</time>
      </trkpt>
      <trkpt lat="44.01976" lon="3.50611">
        <ele>1135.3</ele>
        <time>2026-05-28T09:38:12.000Z</time>
      </trkpt>
      <trkpt lat="44.01976" lon="3.50612">
        <ele>1135.4</ele>
        <time>2026-05-28T09:38:13.000Z</time>
      </trkpt>
      <trkpt lat="44.01976" lon="3.50614">
        <ele>1135.5</ele>
        <time>2026-05-28T09:38:14.000Z</time>
      </trkpt>
      <trkpt lat="44.01975" lon="3.50617">
        <ele>1135.2</ele>
        <time>2026-05-28T09:38:15.000Z</time>
      </trkpt>
      <trkpt lat="44.01976" lon="3.50618">
        <ele>1135.2</ele>
        <time>2026-05-28T09:38:16.000Z</time>
      </trkpt>
      <trkpt lat="44.01976" lon="3.50618">
        <ele>1135.2</ele>
        <time>2026-05-28T09:38:17.000Z</time>
      </trkpt>
      <trkpt lat="44.01976" lon="3.50619">
        <ele>1135.1</ele>
        <time>2026-05-28T09:38:18.000Z</time>
      </trkpt>
      <trkpt lat="44.01975" lon="3.5062">
        <ele>1134.5</ele>
        <time>2026-05-28T09:38:19.000Z</time>
      </trkpt>
      <trkpt lat="44.01975" lon="3.50622">
        <ele>1134.5</ele>
        <time>2026-05-28T09:38:20.000Z</time>
      </trkpt>
      <trkpt lat="44.01974" lon="3.50622">
        <ele>1134.6</ele>
        <time>2026-05-28T09:38:21.000Z</time>
      </trkpt>
      <trkpt lat="44.01974" lon="3.50622">
        <ele>1134.5</ele>
        <time>2026-05-28T09:38:22.000Z</time>
      </trkpt>
      <trkpt lat="44.01974" lon="3.50622">
        <ele>1133.7</ele>
        <time>2026-05-28T09:38:23.000Z</time>
      </trkpt>
      <trkpt lat="44.01973" lon="3.50622">
        <ele>1133</ele>
        <time>2026-05-28T09:38:24.000Z</time>
      </trkpt>
      <trkpt lat="44.01974" lon="3.50621">
        <ele>1132.9</ele>
        <time>2026-05-28T09:38:25.000Z</time>
      </trkpt>
      <trkpt lat="44.01974" lon="3.50622">
        <ele>1132</ele>
        <time>2026-05-28T09:38:26.000Z</time>
      </trkpt>
      <trkpt lat="44.01974" lon="3.50622">
        <ele>1131.8</ele>
        <time>2026-05-28T09:38:27.000Z</time>
      </trkpt>
      <trkpt lat="44.01974" lon="3.50623">
        <ele>1131.8</ele>
        <time>2026-05-28T09:38:28.000Z</time>
      </trkpt>
      <trkpt lat="44.01974" lon="3.50624">
        <ele>1131.3</ele>
        <time>2026-05-28T09:38:29.000Z</time>
      </trkpt>
      <trkpt lat="44.01974" lon="3.50624">
        <ele>1133.8</ele>
        <time>2026-05-28T09:38:31.000Z</time>
      </trkpt>
      <trkpt lat="44.01975" lon="3.50623">
        <ele>1133.8</ele>
        <time>2026-05-28T09:38:32.000Z</time>
      </trkpt>
      <trkpt lat="44.01975" lon="3.50623">
        <ele>1133.9</ele>
        <time>2026-05-28T09:38:33.000Z</time>
      </trkpt>
      <trkpt lat="44.01975" lon="3.50623">
        <ele>1134.3</ele>
        <time>2026-05-28T09:38:34.000Z</time>
      </trkpt>
      <trkpt lat="44.01975" lon="3.50623">
        <ele>1134.5</ele>
        <time>2026-05-28T09:38:35.000Z</time>
      </trkpt>
      <trkpt lat="44.01975" lon="3.50622">
        <ele>1134.6</ele>
        <time>2026-05-28T09:38:36.000Z</time>
      </trkpt>
      <trkpt lat="44.01976" lon="3.50621">
        <ele>1135.1</ele>
        <time>2026-05-28T09:38:37.000Z</time>
      </trkpt>
      <trkpt lat="44.01977" lon="3.50622">
        <ele>1135.3</ele>
        <time>2026-05-28T09:38:38.000Z</time>
      </trkpt>
      <trkpt lat="44.01978" lon="3.50624">
        <ele>1135.3</ele>
        <time>2026-05-28T09:38:40.000Z</time>
      </trkpt>
      <trkpt lat="44.01978" lon="3.50625">
        <ele>1135.2</ele>
        <time>2026-05-28T09:38:41.000Z</time>
      </trkpt>
      <trkpt lat="44.01979" lon="3.50625">
        <ele>1135.3</ele>
        <time>2026-05-28T09:38:42.000Z</time>
      </trkpt>
      <trkpt lat="44.0198" lon="3.50626">
        <ele>1135.4</ele>
        <time>2026-05-28T09:38:43.000Z</time>
      </trkpt>
      <trkpt lat="44.01981" lon="3.50626">
        <ele>1135.6</ele>
        <time>2026-05-28T09:38:44.000Z</time>
      </trkpt>
      <trkpt lat="44.01981" lon="3.50626">
        <ele>1136.3</ele>
        <time>2026-05-28T09:38:45.000Z</time>
      </trkpt>
      <trkpt lat="44.01981" lon="3.50626">
        <ele>1136.9</ele>
        <time>2026-05-28T09:38:46.000Z</time>
      </trkpt>
      <trkpt lat="44.01981" lon="3.50625">
        <ele>1137.3</ele>
        <time>2026-05-28T09:38:47.000Z</time>
      </trkpt>
      <trkpt lat="44.01982" lon="3.50623">
        <ele>1137.6</ele>
        <time>2026-05-28T09:38:48.000Z</time>
      </trkpt>
      <trkpt lat="44.01982" lon="3.50622">
        <ele>1137.8</ele>
        <time>2026-05-28T09:38:49.000Z</time>
      </trkpt>
      <trkpt lat="44.01982" lon="3.50622">
        <ele>1137.8</ele>
        <time>2026-05-28T09:38:50.000Z</time>
      </trkpt>
      <trkpt lat="44.01982" lon="3.50622">
        <ele>1137.7</ele>
        <time>2026-05-28T09:38:51.000Z</time>
      </trkpt>
      <trkpt lat="44.01981" lon="3.50622">
        <ele>1137.2</ele>
        <time>2026-05-28T09:38:52.000Z</time>
      </trkpt>
      <trkpt lat="44.01981" lon="3.50621">
        <ele>1136.5</ele>
        <time>2026-05-28T09:38:53.000Z</time>
      </trkpt>
      <trkpt lat="44.01982" lon="3.5062">
        <ele>1137</ele>
        <time>2026-05-28T09:38:54.000Z</time>
      </trkpt>
      <trkpt lat="44.01982" lon="3.50621">
        <ele>1137.6</ele>
        <time>2026-05-28T09:38:55.000Z</time>
      </trkpt>
      <trkpt lat="44.01984" lon="3.50622">
        <ele>1138.1</ele>
        <time>2026-05-28T09:38:56.000Z</time>
      </trkpt>
      <trkpt lat="44.01984" lon="3.50622">
        <ele>1139.1</ele>
        <time>2026-05-28T09:38:57.000Z</time>
      </trkpt>
      <trkpt lat="44.01984" lon="3.5062">
        <ele>1139.5</ele>
        <time>2026-05-28T09:38:58.000Z</time>
      </trkpt>
      <trkpt lat="44.01984" lon="3.5062">
        <ele>1139.7</ele>
        <time>2026-05-28T09:38:59.000Z</time>
      </trkpt>
      <trkpt lat="44.01984" lon="3.5062">
        <ele>1139.7</ele>
        <time>2026-05-28T09:39:00.000Z</time>
      </trkpt>
      <trkpt lat="44.01984" lon="3.50621">
        <ele>1140.1</ele>
        <time>2026-05-28T09:39:01.000Z</time>
      </trkpt>
      <trkpt lat="44.01984" lon="3.50621">
        <ele>1140.1</ele>
        <time>2026-05-28T09:39:03.000Z</time>
      </trkpt>
      <trkpt lat="44.01983" lon="3.50623">
        <ele>1140.1</ele>
        <time>2026-05-28T09:39:04.000Z</time>
      </trkpt>
      <trkpt lat="44.01982" lon="3.50624">
        <ele>1139.9</ele>
        <time>2026-05-28T09:39:05.000Z</time>
      </trkpt>
      <trkpt lat="44.01981" lon="3.50625">
        <ele>1139.5</ele>
        <time>2026-05-28T09:39:06.000Z</time>
      </trkpt>
      <trkpt lat="44.0198" lon="3.50625">
        <ele>1139.5</ele>
        <time>2026-05-28T09:39:07.000Z</time>
      </trkpt>
      <trkpt lat="44.01979" lon="3.50625">
        <ele>1139.7</ele>
        <time>2026-05-28T09:39:08.000Z</time>
      </trkpt>
      <trkpt lat="44.01979" lon="3.50624">
        <ele>1139.8</ele>
        <time>2026-05-28T09:39:09.000Z</time>
      </trkpt>
      <trkpt lat="44.01978" lon="3.50623">
        <ele>1140</ele>
        <time>2026-05-28T09:39:10.000Z</time>
      </trkpt>
      <trkpt lat="44.01978" lon="3.50623">
        <ele>1140.3</ele>
        <time>2026-05-28T09:39:11.000Z</time>
      </trkpt>
      <trkpt lat="44.01979" lon="3.50624">
        <ele>1140.6</ele>
        <time>2026-05-28T09:39:12.000Z</time>
      </trkpt>
      <trkpt lat="44.0198" lon="3.50623">
        <ele>1141.4</ele>
        <time>2026-05-28T09:39:13.000Z</time>
      </trkpt>
      <trkpt lat="44.01979" lon="3.50622">
        <ele>1141.4</ele>
        <time>2026-05-28T09:39:14.000Z</time>
      </trkpt>
      <trkpt lat="44.01978" lon="3.50621">
        <ele>1141.9</ele>
        <time>2026-05-28T09:39:15.000Z</time>
      </trkpt>
      <trkpt lat="44.01977" lon="3.5062">
        <ele>1143.1</ele>
        <time>2026-05-28T09:39:16.000Z</time>
      </trkpt>
      <trkpt lat="44.01976" lon="3.50619">
        <ele>1143.6</ele>
        <time>2026-05-28T09:39:17.000Z</time>
      </trkpt>
      <trkpt lat="44.01975" lon="3.50619">
        <ele>1143.8</ele>
        <time>2026-05-28T09:39:18.000Z</time>
      </trkpt>
      <trkpt lat="44.01974" lon="3.5062">
        <ele>1143.8</ele>
        <time>2026-05-28T09:39:19.000Z</time>
      </trkpt>
      <trkpt lat="44.01973" lon="3.5062">
        <ele>1144</ele>
        <time>2026-05-28T09:39:20.000Z</time>
      </trkpt>
      <trkpt lat="44.01973" lon="3.5062">
        <ele>1145.2</ele>
        <time>2026-05-28T09:39:21.000Z</time>
      </trkpt>
      <trkpt lat="44.01973" lon="3.50619">
        <ele>1145.8</ele>
        <time>2026-05-28T09:39:22.000Z</time>
      </trkpt>
      <trkpt lat="44.01973" lon="3.50619">
        <ele>1145.9</ele>
        <time>2026-05-28T09:39:23.000Z</time>
      </trkpt>
      <trkpt lat="44.01973" lon="3.50619">
        <ele>1146.3</ele>
        <time>2026-05-28T09:39:24.000Z</time>
      </trkpt>
      <trkpt lat="44.01972" lon="3.50618">
        <ele>1146.6</ele>
        <time>2026-05-28T09:39:25.000Z</time>
      </trkpt>
      <trkpt lat="44.01972" lon="3.50619">
        <ele>1146.9</ele>
        <time>2026-05-28T09:39:26.000Z</time>
      </trkpt>
      <trkpt lat="44.01972" lon="3.50618">
        <ele>1146.9</ele>
        <time>2026-05-28T09:39:27.000Z</time>
      </trkpt>
      <trkpt lat="44.01972" lon="3.50618">
        <ele>1146.7</ele>
        <time>2026-05-28T09:39:28.000Z</time>
      </trkpt>
      <trkpt lat="44.01972" lon="3.50618">
        <ele>1146.8</ele>
        <time>2026-05-28T09:39:29.000Z</time>
      </trkpt>
      <trkpt lat="44.01972" lon="3.50618">
        <ele>1147.5</ele>
        <time>2026-05-28T09:39:30.000Z</time>
      </trkpt>
      <trkpt lat="44.01972" lon="3.50618">
        <ele>1147.9</ele>
        <time>2026-05-28T09:39:31.000Z</time>
      </trkpt>
      <trkpt lat="44.01972" lon="3.50618">
        <ele>1147.3</ele>
        <time>2026-05-28T09:39:33.000Z</time>
      </trkpt>
      <trkpt lat="44.01972" lon="3.50618">
        <ele>1147.3</ele>
        <time>2026-05-28T09:39:34.000Z</time>
      </trkpt>
      <trkpt lat="44.01972" lon="3.50617">
        <ele>1147.5</ele>
        <time>2026-05-28T09:39:35.000Z</time>
      </trkpt>
      <trkpt lat="44.01972" lon="3.50617">
        <ele>1147.8</ele>
        <time>2026-05-28T09:39:36.000Z</time>
      </trkpt>
      <trkpt lat="44.0197" lon="3.50617">
        <ele>1147.5</ele>
        <time>2026-05-28T09:39:37.000Z</time>
      </trkpt>
      <trkpt lat="44.0197" lon="3.50617">
        <ele>1147.1</ele>
        <time>2026-05-28T09:39:38.000Z</time>
      </trkpt>
      <trkpt lat="44.0197" lon="3.50617">
        <ele>1147.2</ele>
        <time>2026-05-28T09:39:39.000Z</time>
      </trkpt>
      <trkpt lat="44.0197" lon="3.50617">
        <ele>1147.4</ele>
        <time>2026-05-28T09:39:40.000Z</time>
      </trkpt>
      <trkpt lat="44.0197" lon="3.50617">
        <ele>1147.4</ele>
        <time>2026-05-28T09:39:41.000Z</time>
      </trkpt>
      <trkpt lat="44.0197" lon="3.50616">
        <ele>1147.7</ele>
        <time>2026-05-28T09:39:42.000Z</time>
      </trkpt>
      <trkpt lat="44.01971" lon="3.50616">
        <ele>1147.3</ele>
        <time>2026-05-28T09:39:43.000Z</time>
      </trkpt>
      <trkpt lat="44.01971" lon="3.50616">
        <ele>1147.3</ele>
        <time>2026-05-28T09:39:44.000Z</time>
      </trkpt>
      <trkpt lat="44.01971" lon="3.50613">
        <ele>1147.2</ele>
        <time>2026-05-28T09:39:45.000Z</time>
      </trkpt>
      <trkpt lat="44.01971" lon="3.50613">
        <ele>1147</ele>
        <time>2026-05-28T09:39:46.000Z</time>
      </trkpt>
      <trkpt lat="44.01971" lon="3.50613">
        <ele>1147</ele>
        <time>2026-05-28T09:39:47.000Z</time>
      </trkpt>
      <trkpt lat="44.01971" lon="3.50614">
        <ele>1146.3</ele>
        <time>2026-05-28T09:39:48.000Z</time>
      </trkpt>
      <trkpt lat="44.01971" lon="3.50614">
        <ele>1146.1</ele>
        <time>2026-05-28T09:39:49.000Z</time>
      </trkpt>
      <trkpt lat="44.01971" lon="3.50614">
        <ele>1145.7</ele>
        <time>2026-05-28T09:39:50.000Z</time>
      </trkpt>
      <trkpt lat="44.01972" lon="3.50614">
        <ele>1146</ele>
        <time>2026-05-28T09:39:51.000Z</time>
      </trkpt>
      <trkpt lat="44.01972" lon="3.50614">
        <ele>1146</ele>
        <time>2026-05-28T09:39:52.000Z</time>
      </trkpt>
      <trkpt lat="44.01973" lon="3.50614">
        <ele>1145.9</ele>
        <time>2026-05-28T09:39:53.000Z</time>
      </trkpt>
      <trkpt lat="44.01974" lon="3.50614">
        <ele>1145.8</ele>
        <time>2026-05-28T09:39:54.000Z</time>
      </trkpt>
      <trkpt lat="44.01975" lon="3.50615">
        <ele>1145.8</ele>
        <time>2026-05-28T09:39:55.000Z</time>
      </trkpt>
      <trkpt lat="44.01976" lon="3.50615">
        <ele>1145.7</ele>
        <time>2026-05-28T09:39:56.000Z</time>
      </trkpt>
      <trkpt lat="44.01976" lon="3.50616">
        <ele>1146.1</ele>
        <time>2026-05-28T09:39:57.000Z</time>
      </trkpt>
      <trkpt lat="44.01976" lon="3.50615">
        <ele>1146.4</ele>
        <time>2026-05-28T09:39:58.000Z</time>
      </trkpt>
      <trkpt lat="44.01977" lon="3.50615">
        <ele>1147</ele>
        <time>2026-05-28T09:39:59.000Z</time>
      </trkpt>
      <trkpt lat="44.01977" lon="3.50615">
        <ele>1147.1</ele>
        <time>2026-05-28T09:40:00.000Z</time>
      </trkpt>
      <trkpt lat="44.01977" lon="3.50615">
        <ele>1147.2</ele>
        <time>2026-05-28T09:40:01.000Z</time>
      </trkpt>
      <trkpt lat="44.01977" lon="3.50615">
        <ele>1147.3</ele>
        <time>2026-05-28T09:40:02.000Z</time>
      </trkpt>
      <trkpt lat="44.01977" lon="3.50615">
        <ele>1147.4</ele>
        <time>2026-05-28T09:40:03.000Z</time>
      </trkpt>
      <trkpt lat="44.01977" lon="3.50615">
        <ele>1147.6</ele>
        <time>2026-05-28T09:40:04.000Z</time>
      </trkpt>
      <trkpt lat="44.01977" lon="3.50615">
        <ele>1147.5</ele>
        <time>2026-05-28T09:40:05.000Z</time>
      </trkpt>
      <trkpt lat="44.01977" lon="3.50615">
        <ele>1147.4</ele>
        <time>2026-05-28T09:40:06.000Z</time>
      </trkpt>
      <trkpt lat="44.01977" lon="3.50615">
        <ele>1147.2</ele>
        <time>2026-05-28T09:40:07.000Z</time>
      </trkpt>
      <trkpt lat="44.01977" lon="3.50615">
        <ele>1147.1</ele>
        <time>2026-05-28T09:40:08.000Z</time>
      </trkpt>
      <trkpt lat="44.01977" lon="3.50615">
        <ele>1147.2</ele>
        <time>2026-05-28T09:40:09.000Z</time>
      </trkpt>
      <trkpt lat="44.01977" lon="3.50615">
        <ele>1147.2</ele>
        <time>2026-05-28T09:40:10.000Z</time>
      </trkpt>
      <trkpt lat="44.01977" lon="3.50615">
        <ele>1147.2</ele>
        <time>2026-05-28T09:40:11.000Z</time>
      </trkpt>
      <trkpt lat="44.01977" lon="3.50615">
        <ele>1147</ele>
        <time>2026-05-28T09:40:12.000Z</time>
      </trkpt>
      <trkpt lat="44.01977" lon="3.50615">
        <ele>1147.1</ele>
        <time>2026-05-28T09:40:13.000Z</time>
      </trkpt>
      <trkpt lat="44.01977" lon="3.50615">
        <ele>1147.1</ele>
        <time>2026-05-28T09:40:14.000Z</time>
      </trkpt>
      <trkpt lat="44.01977" lon="3.50615">
        <ele>1147.3</ele>
        <time>2026-05-28T09:40:15.000Z</time>
      </trkpt>
      <trkpt lat="44.01977" lon="3.50615">
        <ele>1147.5</ele>
        <time>2026-05-28T09:40:16.000Z</time>
      </trkpt>
      <trkpt lat="44.01977" lon="3.50615">
        <ele>1147.6</ele>
        <time>2026-05-28T09:40:17.000Z</time>
      </trkpt>
      <trkpt lat="44.01978" lon="3.50615">
        <ele>1147.5</ele>
        <time>2026-05-28T09:40:18.000Z</time>
      </trkpt>
      <trkpt lat="44.01978" lon="3.50615">
        <ele>1147.6</ele>
        <time>2026-05-28T09:40:19.000Z</time>
      </trkpt>
      <trkpt lat="44.01978" lon="3.50615">
        <ele>1147.4</ele>
        <time>2026-05-28T09:40:20.000Z</time>
      </trkpt>
      <trkpt lat="44.01978" lon="3.50615">
        <ele>1147.6</ele>
        <time>2026-05-28T09:40:21.000Z</time>
      </trkpt>
      <trkpt lat="44.01978" lon="3.50615">
        <ele>1147.6</ele>
        <time>2026-05-28T09:40:22.000Z</time>
      </trkpt>
      <trkpt lat="44.01978" lon="3.50615">
        <ele>1147.4</ele>
        <time>2026-05-28T09:40:23.000Z</time>
      </trkpt>
      <trkpt lat="44.01978" lon="3.50615">
        <ele>1147.5</ele>
        <time>2026-05-28T09:40:24.000Z</time>
      </trkpt>
      <trkpt lat="44.01978" lon="3.50615">
        <ele>1147.7</ele>
        <time>2026-05-28T09:40:25.000Z</time>
      </trkpt>
      <trkpt lat="44.01978" lon="3.50615">
        <ele>1147.8</ele>
        <time>2026-05-28T09:40:26.000Z</time>
      </trkpt>
      <trkpt lat="44.01978" lon="3.50615">
        <ele>1148</ele>
        <time>2026-05-28T09:40:27.000Z</time>
      </trkpt>
      <trkpt lat="44.01978" lon="3.50615">
        <ele>1148</ele>
        <time>2026-05-28T09:40:28.000Z</time>
      </trkpt>
      <trkpt lat="44.01978" lon="3.50615">
        <ele>1148</ele>
        <time>2026-05-28T09:40:29.000Z</time>
      </trkpt>
      <trkpt lat="44.01978" lon="3.50615">
        <ele>1148.1</ele>
        <time>2026-05-28T09:40:30.000Z</time>
      </trkpt>
      <trkpt lat="44.01978" lon="3.50615">
        <ele>1148.2</ele>
        <time>2026-05-28T09:40:31.000Z</time>
      </trkpt>
      <trkpt lat="44.01978" lon="3.50615">
        <ele>1148.1</ele>
        <time>2026-05-28T09:40:32.000Z</time>
      </trkpt>
      <trkpt lat="44.01978" lon="3.50615">
        <ele>1148.3</ele>
        <time>2026-05-28T09:40:33.000Z</time>
      </trkpt>
      <trkpt lat="44.01978" lon="3.50615">
        <ele>1148.4</ele>
        <time>2026-05-28T09:40:34.000Z</time>
      </trkpt>
      <trkpt lat="44.01978" lon="3.50615">
        <ele>1148.2</ele>
        <time>2026-05-28T09:40:35.000Z</time>
      </trkpt>
      <trkpt lat="44.01978" lon="3.50615">
        <ele>1148.5</ele>
        <time>2026-05-28T09:40:36.000Z</time>
      </trkpt>
      <trkpt lat="44.01978" lon="3.50615">
        <ele>1148.4</ele>
        <time>2026-05-28T09:40:37.000Z</time>
      </trkpt>
      <trkpt lat="44.01978" lon="3.50615">
        <ele>1148.5</ele>
        <time>2026-05-28T09:40:38.000Z</time>
      </trkpt>
      <trkpt lat="44.01978" lon="3.50615">
        <ele>1148.5</ele>
        <time>2026-05-28T09:40:39.000Z</time>
      </trkpt>
      <trkpt lat="44.01978" lon="3.50615">
        <ele>1148.9</ele>
        <time>2026-05-28T09:40:40.000Z</time>
      </trkpt>
      <trkpt lat="44.01978" lon="3.50615">
        <ele>1149</ele>
        <time>2026-05-28T09:40:41.000Z</time>
      </trkpt>
      <trkpt lat="44.01978" lon="3.50615">
        <ele>1149</ele>
        <time>2026-05-28T09:40:42.000Z</time>
      </trkpt>
      <trkpt lat="44.01978" lon="3.50615">
        <ele>1149.1</ele>
        <time>2026-05-28T09:40:43.000Z</time>
      </trkpt>
      <trkpt lat="44.01978" lon="3.50615">
        <ele>1149.2</ele>
        <time>2026-05-28T09:40:44.000Z</time>
      </trkpt>
      <trkpt lat="44.01978" lon="3.50616">
        <ele>1149.4</ele>
        <time>2026-05-28T09:40:45.000Z</time>
      </trkpt>
      <trkpt lat="44.01978" lon="3.50617">
        <ele>1149.6</ele>
        <time>2026-05-28T09:40:46.000Z</time>
      </trkpt>
      <trkpt lat="44.01978" lon="3.50617">
        <ele>1149.7</ele>
        <time>2026-05-28T09:40:47.000Z</time>
      </trkpt>
      <trkpt lat="44.01978" lon="3.50617">
        <ele>1149.7</ele>
        <time>2026-05-28T09:40:48.000Z</time>
      </trkpt>
      <trkpt lat="44.01977" lon="3.50618">
        <ele>1149.9</ele>
        <time>2026-05-28T09:40:49.000Z</time>
      </trkpt>
      <trkpt lat="44.01977" lon="3.50618">
        <ele>1149.9</ele>
        <time>2026-05-28T09:40:50.000Z</time>
      </trkpt>
      <trkpt lat="44.01977" lon="3.50618">
        <ele>1150.2</ele>
        <time>2026-05-28T09:40:51.000Z</time>
      </trkpt>
      <trkpt lat="44.01977" lon="3.50618">
        <ele>1150.1</ele>
        <time>2026-05-28T09:40:52.000Z</time>
      </trkpt>
      <trkpt lat="44.01977" lon="3.50618">
        <ele>1150.1</ele>
        <time>2026-05-28T09:40:53.000Z</time>
      </trkpt>
      <trkpt lat="44.01977" lon="3.50618">
        <ele>1150</ele>
        <time>2026-05-28T09:40:54.000Z</time>
      </trkpt>
      <trkpt lat="44.01977" lon="3.50618">
        <ele>1150.3</ele>
        <time>2026-05-28T09:40:55.000Z</time>
      </trkpt>
      <trkpt lat="44.01977" lon="3.50618">
        <ele>1150.3</ele>
        <time>2026-05-28T09:40:56.000Z</time>
      </trkpt>
      <trkpt lat="44.01977" lon="3.50618">
        <ele>1150.3</ele>
        <time>2026-05-28T09:40:57.000Z</time>
      </trkpt>
      <trkpt lat="44.01977" lon="3.50618">
        <ele>1150.4</ele>
        <time>2026-05-28T09:40:58.000Z</time>
      </trkpt>
      <trkpt lat="44.01977" lon="3.50618">
        <ele>1150.3</ele>
        <time>2026-05-28T09:40:59.000Z</time>
      </trkpt>
      <trkpt lat="44.01977" lon="3.50618">
        <ele>1150</ele>
        <time>2026-05-28T09:41:00.000Z</time>
      </trkpt>
      <trkpt lat="44.01977" lon="3.50619">
        <ele>1150.1</ele>
        <time>2026-05-28T09:41:01.000Z</time>
      </trkpt>
      <trkpt lat="44.01977" lon="3.50619">
        <ele>1150.2</ele>
        <time>2026-05-28T09:41:02.000Z</time>
      </trkpt>
      <trkpt lat="44.01977" lon="3.50619">
        <ele>1150.3</ele>
        <time>2026-05-28T09:41:03.000Z</time>
      </trkpt>
      <trkpt lat="44.01977" lon="3.50619">
        <ele>1150.3</ele>
        <time>2026-05-28T09:41:04.000Z</time>
      </trkpt>
      <trkpt lat="44.01977" lon="3.50619">
        <ele>1150.1</ele>
        <time>2026-05-28T09:41:05.000Z</time>
      </trkpt>
      <trkpt lat="44.01977" lon="3.50619">
        <ele>1150</ele>
        <time>2026-05-28T09:41:06.000Z</time>
      </trkpt>
      <trkpt lat="44.01977" lon="3.50619">
        <ele>1149.8</ele>
        <time>2026-05-28T09:41:07.000Z</time>
      </trkpt>
      <trkpt lat="44.01977" lon="3.50619">
        <ele>1149.6</ele>
        <time>2026-05-28T09:41:08.000Z</time>
      </trkpt>
      <trkpt lat="44.01977" lon="3.50619">
        <ele>1149.2</ele>
        <time>2026-05-28T09:41:09.000Z</time>
      </trkpt>
      <trkpt lat="44.01977" lon="3.50619">
        <ele>1148.8</ele>
        <time>2026-05-28T09:41:10.000Z</time>
      </trkpt>
      <trkpt lat="44.01977" lon="3.50619">
        <ele>1148.5</ele>
        <time>2026-05-28T09:41:11.000Z</time>
      </trkpt>
      <trkpt lat="44.01977" lon="3.50619">
        <ele>1148.2</ele>
        <time>2026-05-28T09:41:12.000Z</time>
      </trkpt>
      <trkpt lat="44.01977" lon="3.50619">
        <ele>1147.9</ele>
        <time>2026-05-28T09:41:13.000Z</time>
      </trkpt>
      <trkpt lat="44.01977" lon="3.50619">
        <ele>1148.1</ele>
        <time>2026-05-28T09:41:14.000Z</time>
      </trkpt>
      <trkpt lat="44.01977" lon="3.50619">
        <ele>1148.1</ele>
        <time>2026-05-28T09:41:15.000Z</time>
      </trkpt>
      <trkpt lat="44.01977" lon="3.50619">
        <ele>1147.9</ele>
        <time>2026-05-28T09:41:16.000Z</time>
      </trkpt>
      <trkpt lat="44.01977" lon="3.50619">
        <ele>1147.9</ele>
        <time>2026-05-28T09:41:17.000Z</time>
      </trkpt>
      <trkpt lat="44.01977" lon="3.50619">
        <ele>1147.9</ele>
        <time>2026-05-28T09:41:18.000Z</time>
      </trkpt>
      <trkpt lat="44.01977" lon="3.50619">
        <ele>1147.9</ele>
        <time>2026-05-28T09:41:19.000Z</time>
      </trkpt>
      <trkpt lat="44.01977" lon="3.50619">
        <ele>1148.1</ele>
        <time>2026-05-28T09:41:20.000Z</time>
      </trkpt>
      <trkpt lat="44.01977" lon="3.50619">
        <ele>1148.3</ele>
        <time>2026-05-28T09:41:21.000Z</time>
      </trkpt>
      <trkpt lat="44.01977" lon="3.50619">
        <ele>1148.7</ele>
        <time>2026-05-28T09:41:22.000Z</time>
      </trkpt>
      <trkpt lat="44.01977" lon="3.50619">
        <ele>1148.8</ele>
        <time>2026-05-28T09:41:23.000Z</time>
      </trkpt>
      <trkpt lat="44.01977" lon="3.50619">
        <ele>1148.3</ele>
        <time>2026-05-28T09:41:24.000Z</time>
      </trkpt>
      <trkpt lat="44.01977" lon="3.50619">
        <ele>1148</ele>
        <time>2026-05-28T09:41:25.000Z</time>
      </trkpt>
      <trkpt lat="44.01977" lon="3.50619">
        <ele>1148.1</ele>
        <time>2026-05-28T09:41:26.000Z</time>
      </trkpt>
      <trkpt lat="44.01977" lon="3.50619">
        <ele>1148.2</ele>
        <time>2026-05-28T09:41:27.000Z</time>
      </trkpt>
      <trkpt lat="44.01977" lon="3.50619">
        <ele>1148</ele>
        <time>2026-05-28T09:41:28.000Z</time>
      </trkpt>
      <trkpt lat="44.01977" lon="3.50619">
        <ele>1148</ele>
        <time>2026-05-28T09:41:29.000Z</time>
      </trkpt>
      <trkpt lat="44.01977" lon="3.50619">
        <ele>1147.7</ele>
        <time>2026-05-28T09:41:30.000Z</time>
      </trkpt>
      <trkpt lat="44.01977" lon="3.50619">
        <ele>1147.2</ele>
        <time>2026-05-28T09:41:31.000Z</time>
      </trkpt>
      <trkpt lat="44.01977" lon="3.50619">
        <ele>1147.2</ele>
        <time>2026-05-28T09:41:32.000Z</time>
      </trkpt>
      <trkpt lat="44.01977" lon="3.50619">
        <ele>1147.3</ele>
        <time>2026-05-28T09:41:33.000Z</time>
      </trkpt>
      <trkpt lat="44.01977" lon="3.50619">
        <ele>1147.3</ele>
        <time>2026-05-28T09:41:34.000Z</time>
      </trkpt>
      <trkpt lat="44.01977" lon="3.50619">
        <ele>1147</ele>
        <time>2026-05-28T09:41:35.000Z</time>
      </trkpt>
      <trkpt lat="44.01977" lon="3.50619">
        <ele>1146.7</ele>
        <time>2026-05-28T09:41:36.000Z</time>
      </trkpt>
      <trkpt lat="44.01977" lon="3.50619">
        <ele>1146.6</ele>
        <time>2026-05-28T09:41:37.000Z</time>
      </trkpt>
      <trkpt lat="44.01977" lon="3.50619">
        <ele>1146.4</ele>
        <time>2026-05-28T09:41:38.000Z</time>
      </trkpt>
      <trkpt lat="44.01977" lon="3.50619">
        <ele>1146.2</ele>
        <time>2026-05-28T09:41:39.000Z</time>
      </trkpt>
      <trkpt lat="44.01977" lon="3.50619">
        <ele>1146.5</ele>
        <time>2026-05-28T09:41:40.000Z</time>
      </trkpt>
      <trkpt lat="44.01977" lon="3.50619">
        <ele>1146.6</ele>
        <time>2026-05-28T09:41:41.000Z</time>
      </trkpt>
      <trkpt lat="44.01977" lon="3.50619">
        <ele>1146.4</ele>
        <time>2026-05-28T09:41:42.000Z</time>
      </trkpt>
      <trkpt lat="44.01977" lon="3.50619">
        <ele>1146.2</ele>
        <time>2026-05-28T09:41:43.000Z</time>
      </trkpt>
      <trkpt lat="44.01977" lon="3.50619">
        <ele>1146</ele>
        <time>2026-05-28T09:41:44.000Z</time>
      </trkpt>
      <trkpt lat="44.01977" lon="3.50619">
        <ele>1145.9</ele>
        <time>2026-05-28T09:41:45.000Z</time>
      </trkpt>
      <trkpt lat="44.01977" lon="3.50619">
        <ele>1145.8</ele>
        <time>2026-05-28T09:41:46.000Z</time>
      </trkpt>
      <trkpt lat="44.01977" lon="3.50619">
        <ele>1145.9</ele>
        <time>2026-05-28T09:41:47.000Z</time>
      </trkpt>
      <trkpt lat="44.01977" lon="3.50619">
        <ele>1146.1</ele>
        <time>2026-05-28T09:41:48.000Z</time>
      </trkpt>
      <trkpt lat="44.01977" lon="3.50619">
        <ele>1146.1</ele>
        <time>2026-05-28T09:41:49.000Z</time>
      </trkpt>
      <trkpt lat="44.01977" lon="3.50619">
        <ele>1146.7</ele>
        <time>2026-05-28T09:41:50.000Z</time>
      </trkpt>
      <trkpt lat="44.01977" lon="3.50619">
        <ele>1146.9</ele>
        <time>2026-05-28T09:41:51.000Z</time>
      </trkpt>
      <trkpt lat="44.01977" lon="3.50619">
        <ele>1147.4</ele>
        <time>2026-05-28T09:41:52.000Z</time>
      </trkpt>
      <trkpt lat="44.01977" lon="3.50619">
        <ele>1147.9</ele>
        <time>2026-05-28T09:41:53.000Z</time>
      </trkpt>
      <trkpt lat="44.01977" lon="3.50619">
        <ele>1148.2</ele>
        <time>2026-05-28T09:41:54.000Z</time>
      </trkpt>
      <trkpt lat="44.01977" lon="3.50619">
        <ele>1148.8</ele>
        <time>2026-05-28T09:41:55.000Z</time>
      </trkpt>
      <trkpt lat="44.01977" lon="3.50619">
        <ele>1149.4</ele>
        <time>2026-05-28T09:41:56.000Z</time>
      </trkpt>
      <trkpt lat="44.01977" lon="3.50619">
        <ele>1150</ele>
        <time>2026-05-28T09:41:57.000Z</time>
      </trkpt>
      <trkpt lat="44.01977" lon="3.50619">
        <ele>1150.1</ele>
        <time>2026-05-28T09:41:58.000Z</time>
      </trkpt>
      <trkpt lat="44.01977" lon="3.50619">
        <ele>1150.3</ele>
        <time>2026-05-28T09:41:59.000Z</time>
      </trkpt>
      <trkpt lat="44.01977" lon="3.50619">
        <ele>1150.5</ele>
        <time>2026-05-28T09:42:00.000Z</time>
      </trkpt>
      <trkpt lat="44.01977" lon="3.50619">
        <ele>1150.6</ele>
        <time>2026-05-28T09:42:01.000Z</time>
      </trkpt>
      <trkpt lat="44.01977" lon="3.50619">
        <ele>1150.7</ele>
        <time>2026-05-28T09:42:02.000Z</time>
      </trkpt>
      <trkpt lat="44.01977" lon="3.50619">
        <ele>1150.6</ele>
        <time>2026-05-28T09:42:03.000Z</time>
      </trkpt>
      <trkpt lat="44.01977" lon="3.5062">
        <ele>1150.7</ele>
        <time>2026-05-28T09:42:04.000Z</time>
      </trkpt>
      <trkpt lat="44.01977" lon="3.5062">
        <ele>1151.1</ele>
        <time>2026-05-28T09:42:05.000Z</time>
      </trkpt>
      <trkpt lat="44.01977" lon="3.5062">
        <ele>1150.9</ele>
        <time>2026-05-28T09:42:06.000Z</time>
      </trkpt>
      <trkpt lat="44.01977" lon="3.5062">
        <ele>1150.7</ele>
        <time>2026-05-28T09:42:07.000Z</time>
      </trkpt>
      <trkpt lat="44.01977" lon="3.5062">
        <ele>1150.6</ele>
        <time>2026-05-28T09:42:08.000Z</time>
      </trkpt>
      <trkpt lat="44.01977" lon="3.5062">
        <ele>1150.3</ele>
        <time>2026-05-28T09:42:09.000Z</time>
      </trkpt>
      <trkpt lat="44.01977" lon="3.5062">
        <ele>1150.1</ele>
        <time>2026-05-28T09:42:10.000Z</time>
      </trkpt>
      <trkpt lat="44.01977" lon="3.5062">
        <ele>1149.8</ele>
        <time>2026-05-28T09:42:11.000Z</time>
      </trkpt>
      <trkpt lat="44.01977" lon="3.5062">
        <ele>1150</ele>
        <time>2026-05-28T09:42:12.000Z</time>
      </trkpt>
      <trkpt lat="44.01977" lon="3.5062">
        <ele>1149.9</ele>
        <time>2026-05-28T09:42:13.000Z</time>
      </trkpt>
      <trkpt lat="44.01977" lon="3.5062">
        <ele>1149.8</ele>
        <time>2026-05-28T09:42:14.000Z</time>
      </trkpt>
      <trkpt lat="44.01977" lon="3.5062">
        <ele>1149.5</ele>
        <time>2026-05-28T09:42:15.000Z</time>
      </trkpt>
      <trkpt lat="44.01977" lon="3.5062">
        <ele>1149.2</ele>
        <time>2026-05-28T09:42:16.000Z</time>
      </trkpt>
      <trkpt lat="44.01977" lon="3.5062">
        <ele>1148.9</ele>
        <time>2026-05-28T09:42:17.000Z</time>
      </trkpt>
      <trkpt lat="44.01978" lon="3.5062">
        <ele>1148.6</ele>
        <time>2026-05-28T09:42:18.000Z</time>
      </trkpt>
      <trkpt lat="44.01978" lon="3.5062">
        <ele>1148.5</ele>
        <time>2026-05-28T09:42:19.000Z</time>
      </trkpt>
      <trkpt lat="44.01978" lon="3.5062">
        <ele>1148.3</ele>
        <time>2026-05-28T09:42:20.000Z</time>
      </trkpt>
      <trkpt lat="44.01978" lon="3.5062">
        <ele>1148.2</ele>
        <time>2026-05-28T09:42:21.000Z</time>
      </trkpt>
      <trkpt lat="44.01978" lon="3.5062">
        <ele>1148.2</ele>
        <time>2026-05-28T09:42:22.000Z</time>
      </trkpt>
      <trkpt lat="44.01978" lon="3.5062">
        <ele>1147.7</ele>
        <time>2026-05-28T09:42:23.000Z</time>
      </trkpt>
      <trkpt lat="44.01978" lon="3.5062">
        <ele>1147.1</ele>
        <time>2026-05-28T09:42:24.000Z</time>
      </trkpt>
      <trkpt lat="44.01978" lon="3.5062">
        <ele>1146.6</ele>
        <time>2026-05-28T09:42:25.000Z</time>
      </trkpt>
      <trkpt lat="44.01978" lon="3.5062">
        <ele>1146.3</ele>
        <time>2026-05-28T09:42:26.000Z</time>
      </trkpt>
      <trkpt lat="44.01978" lon="3.5062">
        <ele>1146</ele>
        <time>2026-05-28T09:42:27.000Z</time>
      </trkpt>
      <trkpt lat="44.01978" lon="3.5062">
        <ele>1145.8</ele>
        <time>2026-05-28T09:42:28.000Z</time>
      </trkpt>
      <trkpt lat="44.01978" lon="3.5062">
        <ele>1145.4</ele>
        <time>2026-05-28T09:42:29.000Z</time>
      </trkpt>
      <trkpt lat="44.01978" lon="3.5062">
        <ele>1144.9</ele>
        <time>2026-05-28T09:42:30.000Z</time>
      </trkpt>
      <trkpt lat="44.01978" lon="3.5062">
        <ele>1144.7</ele>
        <time>2026-05-28T09:42:31.000Z</time>
      </trkpt>
      <trkpt lat="44.01978" lon="3.5062">
        <ele>1144.5</ele>
        <time>2026-05-28T09:42:32.000Z</time>
      </trkpt>
      <trkpt lat="44.01978" lon="3.5062">
        <ele>1144.4</ele>
        <time>2026-05-28T09:42:33.000Z</time>
      </trkpt>
      <trkpt lat="44.01978" lon="3.5062">
        <ele>1144</ele>
        <time>2026-05-28T09:42:34.000Z</time>
      </trkpt>
      <trkpt lat="44.01978" lon="3.5062">
        <ele>1143.9</ele>
        <time>2026-05-28T09:42:35.000Z</time>
      </trkpt>
      <trkpt lat="44.01978" lon="3.5062">
        <ele>1143.7</ele>
        <time>2026-05-28T09:42:36.000Z</time>
      </trkpt>
      <trkpt lat="44.01978" lon="3.5062">
        <ele>1143.7</ele>
        <time>2026-05-28T09:42:37.000Z</time>
      </trkpt>
      <trkpt lat="44.01978" lon="3.5062">
        <ele>1143.7</ele>
        <time>2026-05-28T09:42:38.000Z</time>
      </trkpt>
      <trkpt lat="44.01978" lon="3.5062">
        <ele>1143.1</ele>
        <time>2026-05-28T09:42:39.000Z</time>
      </trkpt>
      <trkpt lat="44.01978" lon="3.5062">
        <ele>1142.8</ele>
        <time>2026-05-28T09:42:40.000Z</time>
      </trkpt>
      <trkpt lat="44.01977" lon="3.5062">
        <ele>1142.7</ele>
        <time>2026-05-28T09:42:41.000Z</time>
      </trkpt>
      <trkpt lat="44.01977" lon="3.5062">
        <ele>1142.3</ele>
        <time>2026-05-28T09:42:42.000Z</time>
      </trkpt>
      <trkpt lat="44.01977" lon="3.50619">
        <ele>1142</ele>
        <time>2026-05-28T09:42:43.000Z</time>
      </trkpt>
      <trkpt lat="44.01977" lon="3.50619">
        <ele>1142</ele>
        <time>2026-05-28T09:42:44.000Z</time>
      </trkpt>
      <trkpt lat="44.01977" lon="3.50619">
        <ele>1142</ele>
        <time>2026-05-28T09:42:45.000Z</time>
      </trkpt>
      <trkpt lat="44.01977" lon="3.50619">
        <ele>1142.1</ele>
        <time>2026-05-28T09:42:46.000Z</time>
      </trkpt>
      <trkpt lat="44.01977" lon="3.50619">
        <ele>1142.1</ele>
        <time>2026-05-28T09:42:47.000Z</time>
      </trkpt>
      <trkpt lat="44.01977" lon="3.50619">
        <ele>1142.3</ele>
        <time>2026-05-28T09:42:48.000Z</time>
      </trkpt>
      <trkpt lat="44.01977" lon="3.50619">
        <ele>1142.4</ele>
        <time>2026-05-28T09:42:49.000Z</time>
      </trkpt>
      <trkpt lat="44.01977" lon="3.50619">
        <ele>1142.5</ele>
        <time>2026-05-28T09:42:50.000Z</time>
      </trkpt>
      <trkpt lat="44.01977" lon="3.50619">
        <ele>1142.6</ele>
        <time>2026-05-28T09:42:51.000Z</time>
      </trkpt>
      <trkpt lat="44.01977" lon="3.50619">
        <ele>1142.5</ele>
        <time>2026-05-28T09:42:52.000Z</time>
      </trkpt>
      <trkpt lat="44.01977" lon="3.50619">
        <ele>1142.3</ele>
        <time>2026-05-28T09:42:53.000Z</time>
      </trkpt>
      <trkpt lat="44.01977" lon="3.50619">
        <ele>1142.1</ele>
        <time>2026-05-28T09:42:54.000Z</time>
      </trkpt>
      <trkpt lat="44.01977" lon="3.50619">
        <ele>1142</ele>
        <time>2026-05-28T09:42:55.000Z</time>
      </trkpt>
      <trkpt lat="44.01977" lon="3.50619">
        <ele>1141.7</ele>
        <time>2026-05-28T09:42:56.000Z</time>
      </trkpt>
      <trkpt lat="44.01977" lon="3.50619">
        <ele>1141.3</ele>
        <time>2026-05-28T09:42:57.000Z</time>
      </trkpt>
      <trkpt lat="44.01977" lon="3.50619">
        <ele>1141</ele>
        <time>2026-05-28T09:42:58.000Z</time>
      </trkpt>
      <trkpt lat="44.01977" lon="3.50619">
        <ele>1141</ele>
        <time>2026-05-28T09:42:59.000Z</time>
      </trkpt>
      <trkpt lat="44.01977" lon="3.50619">
        <ele>1140.8</ele>
        <time>2026-05-28T09:43:00.000Z</time>
      </trkpt>
      <trkpt lat="44.01977" lon="3.50619">
        <ele>1140.6</ele>
        <time>2026-05-28T09:43:01.000Z</time>
      </trkpt>
      <trkpt lat="44.01977" lon="3.50619">
        <ele>1140.5</ele>
        <time>2026-05-28T09:43:02.000Z</time>
      </trkpt>
      <trkpt lat="44.01977" lon="3.50619">
        <ele>1140.3</ele>
        <time>2026-05-28T09:43:03.000Z</time>
      </trkpt>
      <trkpt lat="44.01977" lon="3.50619">
        <ele>1140.1</ele>
        <time>2026-05-28T09:43:04.000Z</time>
      </trkpt>
      <trkpt lat="44.01977" lon="3.50619">
        <ele>1140</ele>
        <time>2026-05-28T09:43:05.000Z</time>
      </trkpt>
      <trkpt lat="44.01977" lon="3.50619">
        <ele>1139.7</ele>
        <time>2026-05-28T09:43:06.000Z</time>
      </trkpt>
      <trkpt lat="44.01977" lon="3.50619">
        <ele>1139.5</ele>
        <time>2026-05-28T09:43:07.000Z</time>
      </trkpt>
      <trkpt lat="44.01977" lon="3.50619">
        <ele>1139.2</ele>
        <time>2026-05-28T09:43:08.000Z</time>
      </trkpt>
      <trkpt lat="44.01977" lon="3.50619">
        <ele>1139</ele>
        <time>2026-05-28T09:43:09.000Z</time>
      </trkpt>
      <trkpt lat="44.01977" lon="3.50619">
        <ele>1139.1</ele>
        <time>2026-05-28T09:43:10.000Z</time>
      </trkpt>
      <trkpt lat="44.01977" lon="3.50619">
        <ele>1139.2</ele>
        <time>2026-05-28T09:43:11.000Z</time>
      </trkpt>
      <trkpt lat="44.01977" lon="3.50619">
        <ele>1139</ele>
        <time>2026-05-28T09:43:12.000Z</time>
      </trkpt>
      <trkpt lat="44.01977" lon="3.50619">
        <ele>1138.8</ele>
        <time>2026-05-28T09:43:14.000Z</time>
      </trkpt>
      <trkpt lat="44.01977" lon="3.5062">
        <ele>1138.8</ele>
        <time>2026-05-28T09:43:15.000Z</time>
      </trkpt>
      <trkpt lat="44.01977" lon="3.5062">
        <ele>1138.9</ele>
        <time>2026-05-28T09:43:16.000Z</time>
      </trkpt>
      <trkpt lat="44.01977" lon="3.5062">
        <ele>1138.9</ele>
        <time>2026-05-28T09:43:17.000Z</time>
      </trkpt>
      <trkpt lat="44.01977" lon="3.5062">
        <ele>1138.8</ele>
        <time>2026-05-28T09:43:18.000Z</time>
      </trkpt>
      <trkpt lat="44.01977" lon="3.5062">
        <ele>1138.6</ele>
        <time>2026-05-28T09:43:19.000Z</time>
      </trkpt>
      <trkpt lat="44.01977" lon="3.5062">
        <ele>1138.7</ele>
        <time>2026-05-28T09:43:20.000Z</time>
      </trkpt>
      <trkpt lat="44.01977" lon="3.5062">
        <ele>1138.6</ele>
        <time>2026-05-28T09:43:21.000Z</time>
      </trkpt>
      <trkpt lat="44.01978" lon="3.5062">
        <ele>1138.6</ele>
        <time>2026-05-28T09:43:22.000Z</time>
      </trkpt>
      <trkpt lat="44.01978" lon="3.5062">
        <ele>1138.5</ele>
        <time>2026-05-28T09:43:23.000Z</time>
      </trkpt>
      <trkpt lat="44.01978" lon="3.5062">
        <ele>1138.5</ele>
        <time>2026-05-28T09:43:24.000Z</time>
      </trkpt>
      <trkpt lat="44.01977" lon="3.50619">
        <ele>1138.5</ele>
        <time>2026-05-28T09:43:25.000Z</time>
      </trkpt>
      <trkpt lat="44.01977" lon="3.50618">
        <ele>1138.6</ele>
        <time>2026-05-28T09:43:26.000Z</time>
      </trkpt>
      <trkpt lat="44.01977" lon="3.50618">
        <ele>1138.6</ele>
        <time>2026-05-28T09:43:27.000Z</time>
      </trkpt>
      <trkpt lat="44.01978" lon="3.50617">
        <ele>1138.6</ele>
        <time>2026-05-28T09:43:28.000Z</time>
      </trkpt>
      <trkpt lat="44.01978" lon="3.50617">
        <ele>1138.5</ele>
        <time>2026-05-28T09:43:29.000Z</time>
      </trkpt>
      <trkpt lat="44.01978" lon="3.50617">
        <ele>1138.5</ele>
        <time>2026-05-28T09:43:30.000Z</time>
      </trkpt>
      <trkpt lat="44.01978" lon="3.50617">
        <ele>1138.4</ele>
        <time>2026-05-28T09:43:31.000Z</time>
      </trkpt>
      <trkpt lat="44.01978" lon="3.50617">
        <ele>1138.4</ele>
        <time>2026-05-28T09:43:32.000Z</time>
      </trkpt>
      <trkpt lat="44.01978" lon="3.50617">
        <ele>1138.3</ele>
        <time>2026-05-28T09:43:33.000Z</time>
      </trkpt>
      <trkpt lat="44.01978" lon="3.50616">
        <ele>1138.2</ele>
        <time>2026-05-28T09:43:34.000Z</time>
      </trkpt>
      <trkpt lat="44.01978" lon="3.50616">
        <ele>1138.1</ele>
        <time>2026-05-28T09:43:35.000Z</time>
      </trkpt>
      <trkpt lat="44.01978" lon="3.50616">
        <ele>1138.1</ele>
        <time>2026-05-28T09:43:36.000Z</time>
      </trkpt>
      <trkpt lat="44.01978" lon="3.50616">
        <ele>1138</ele>
        <time>2026-05-28T09:43:37.000Z</time>
      </trkpt>
      <trkpt lat="44.01978" lon="3.50616">
        <ele>1138.1</ele>
        <time>2026-05-28T09:43:38.000Z</time>
      </trkpt>
      <trkpt lat="44.01978" lon="3.50616">
        <ele>1138.1</ele>
        <time>2026-05-28T09:43:39.000Z</time>
      </trkpt>
      <trkpt lat="44.01978" lon="3.50616">
        <ele>1138</ele>
        <time>2026-05-28T09:43:40.000Z</time>
      </trkpt>
      <trkpt lat="44.01979" lon="3.50616">
        <ele>1138</ele>
        <time>2026-05-28T09:43:41.000Z</time>
      </trkpt>
      <trkpt lat="44.0198" lon="3.50616">
        <ele>1137.9</ele>
        <time>2026-05-28T09:43:42.000Z</time>
      </trkpt>
      <trkpt lat="44.0198" lon="3.50616">
        <ele>1137.8</ele>
        <time>2026-05-28T09:43:43.000Z</time>
      </trkpt>
      <trkpt lat="44.0198" lon="3.50616">
        <ele>1137.8</ele>
        <time>2026-05-28T09:43:44.000Z</time>
      </trkpt>
      <trkpt lat="44.0198" lon="3.50616">
        <ele>1137.9</ele>
        <time>2026-05-28T09:43:45.000Z</time>
      </trkpt>
      <trkpt lat="44.0198" lon="3.50616">
        <ele>1137.8</ele>
        <time>2026-05-28T09:43:46.000Z</time>
      </trkpt>
      <trkpt lat="44.0198" lon="3.50616">
        <ele>1137.8</ele>
        <time>2026-05-28T09:43:47.000Z</time>
      </trkpt>
      <trkpt lat="44.0198" lon="3.50616">
        <ele>1137.8</ele>
        <time>2026-05-28T09:43:48.000Z</time>
      </trkpt>
      <trkpt lat="44.0198" lon="3.50616">
        <ele>1138.1</ele>
        <time>2026-05-28T09:43:49.000Z</time>
      </trkpt>
      <trkpt lat="44.0198" lon="3.50616">
        <ele>1138.1</ele>
        <time>2026-05-28T09:43:50.000Z</time>
      </trkpt>
      <trkpt lat="44.0198" lon="3.50616">
        <ele>1138</ele>
        <time>2026-05-28T09:43:51.000Z</time>
      </trkpt>
      <trkpt lat="44.0198" lon="3.50616">
        <ele>1137.8</ele>
        <time>2026-05-28T09:43:52.000Z</time>
      </trkpt>
      <trkpt lat="44.0198" lon="3.50616">
        <ele>1137.8</ele>
        <time>2026-05-28T09:43:53.000Z</time>
      </trkpt>
      <trkpt lat="44.01981" lon="3.50616">
        <ele>1137.6</ele>
        <time>2026-05-28T09:43:54.000Z</time>
      </trkpt>
      <trkpt lat="44.01981" lon="3.50616">
        <ele>1137.3</ele>
        <time>2026-05-28T09:43:55.000Z</time>
      </trkpt>
      <trkpt lat="44.01982" lon="3.50616">
        <ele>1137.2</ele>
        <time>2026-05-28T09:43:56.000Z</time>
      </trkpt>
      <trkpt lat="44.01982" lon="3.50616">
        <ele>1137.1</ele>
        <time>2026-05-28T09:43:57.000Z</time>
      </trkpt>
      <trkpt lat="44.01982" lon="3.50616">
        <ele>1137</ele>
        <time>2026-05-28T09:43:58.000Z</time>
      </trkpt>
      <trkpt lat="44.01982" lon="3.50616">
        <ele>1136.8</ele>
        <time>2026-05-28T09:43:59.000Z</time>
      </trkpt>
      <trkpt lat="44.01982" lon="3.50616">
        <ele>1136.7</ele>
        <time>2026-05-28T09:44:00.000Z</time>
      </trkpt>
      <trkpt lat="44.01982" lon="3.50616">
        <ele>1136.5</ele>
        <time>2026-05-28T09:44:01.000Z</time>
      </trkpt>
      <trkpt lat="44.01982" lon="3.50616">
        <ele>1136.4</ele>
        <time>2026-05-28T09:44:02.000Z</time>
      </trkpt>
      <trkpt lat="44.01982" lon="3.50616">
        <ele>1136.5</ele>
        <time>2026-05-28T09:44:03.000Z</time>
      </trkpt>
      <trkpt lat="44.01982" lon="3.50616">
        <ele>1136.4</ele>
        <time>2026-05-28T09:44:04.000Z</time>
      </trkpt>
      <trkpt lat="44.01982" lon="3.50616">
        <ele>1136.5</ele>
        <time>2026-05-28T09:44:05.000Z</time>
      </trkpt>
      <trkpt lat="44.01982" lon="3.50616">
        <ele>1136.5</ele>
        <time>2026-05-28T09:44:06.000Z</time>
      </trkpt>
      <trkpt lat="44.01982" lon="3.50616">
        <ele>1136.6</ele>
        <time>2026-05-28T09:44:07.000Z</time>
      </trkpt>
      <trkpt lat="44.01982" lon="3.50616">
        <ele>1136.7</ele>
        <time>2026-05-28T09:44:08.000Z</time>
      </trkpt>
      <trkpt lat="44.01982" lon="3.50616">
        <ele>1136.9</ele>
        <time>2026-05-28T09:44:09.000Z</time>
      </trkpt>
      <trkpt lat="44.01982" lon="3.50616">
        <ele>1136.9</ele>
        <time>2026-05-28T09:44:10.000Z</time>
      </trkpt>
      <trkpt lat="44.01983" lon="3.50616">
        <ele>1136.9</ele>
        <time>2026-05-28T09:44:11.000Z</time>
      </trkpt>
      <trkpt lat="44.01983" lon="3.50617">
        <ele>1137</ele>
        <time>2026-05-28T09:44:12.000Z</time>
      </trkpt>
      <trkpt lat="44.01983" lon="3.50617">
        <ele>1137.1</ele>
        <time>2026-05-28T09:44:13.000Z</time>
      </trkpt>
      <trkpt lat="44.01983" lon="3.50617">
        <ele>1137</ele>
        <time>2026-05-28T09:44:14.000Z</time>
      </trkpt>
      <trkpt lat="44.01983" lon="3.50618">
        <ele>1136.8</ele>
        <time>2026-05-28T09:44:15.000Z</time>
      </trkpt>
      <trkpt lat="44.01983" lon="3.50618">
        <ele>1136.8</ele>
        <time>2026-05-28T09:44:16.000Z</time>
      </trkpt>
      <trkpt lat="44.01983" lon="3.50618">
        <ele>1136.8</ele>
        <time>2026-05-28T09:44:17.000Z</time>
      </trkpt>
      <trkpt lat="44.01983" lon="3.50618">
        <ele>1136.9</ele>
        <time>2026-05-28T09:44:18.000Z</time>
      </trkpt>
      <trkpt lat="44.01983" lon="3.50618">
        <ele>1137</ele>
        <time>2026-05-28T09:44:19.000Z</time>
      </trkpt>
      <trkpt lat="44.01983" lon="3.50618">
        <ele>1136.9</ele>
        <time>2026-05-28T09:44:20.000Z</time>
      </trkpt>
      <trkpt lat="44.01983" lon="3.50618">
        <ele>1137</ele>
        <time>2026-05-28T09:44:21.000Z</time>
      </trkpt>
      <trkpt lat="44.01983" lon="3.50618">
        <ele>1137.1</ele>
        <time>2026-05-28T09:44:22.000Z</time>
      </trkpt>
      <trkpt lat="44.01983" lon="3.50618">
        <ele>1137.1</ele>
        <time>2026-05-28T09:44:23.000Z</time>
      </trkpt>
      <trkpt lat="44.01983" lon="3.50618">
        <ele>1136.9</ele>
        <time>2026-05-28T09:44:24.000Z</time>
      </trkpt>
      <trkpt lat="44.01983" lon="3.50618">
        <ele>1136.8</ele>
        <time>2026-05-28T09:44:25.000Z</time>
      </trkpt>
      <trkpt lat="44.01983" lon="3.50618">
        <ele>1136.7</ele>
        <time>2026-05-28T09:44:26.000Z</time>
      </trkpt>
      <trkpt lat="44.01982" lon="3.50619">
        <ele>1136.5</ele>
        <time>2026-05-28T09:44:27.000Z</time>
      </trkpt>
      <trkpt lat="44.01982" lon="3.50619">
        <ele>1136.5</ele>
        <time>2026-05-28T09:44:28.000Z</time>
      </trkpt>
      <trkpt lat="44.01982" lon="3.50619">
        <ele>1136.2</ele>
        <time>2026-05-28T09:44:29.000Z</time>
      </trkpt>
      <trkpt lat="44.01982" lon="3.50619">
        <ele>1135.7</ele>
        <time>2026-05-28T09:44:30.000Z</time>
      </trkpt>
      <trkpt lat="44.01982" lon="3.5062">
        <ele>1135.5</ele>
        <time>2026-05-28T09:44:31.000Z</time>
      </trkpt>
      <trkpt lat="44.01982" lon="3.5062">
        <ele>1135.5</ele>
        <time>2026-05-28T09:44:32.000Z</time>
      </trkpt>
      <trkpt lat="44.01982" lon="3.50621">
        <ele>1135.7</ele>
        <time>2026-05-28T09:44:33.000Z</time>
      </trkpt>
      <trkpt lat="44.01981" lon="3.50621">
        <ele>1135.3</ele>
        <time>2026-05-28T09:44:34.000Z</time>
      </trkpt>
      <trkpt lat="44.01981" lon="3.50621">
        <ele>1135.2</ele>
        <time>2026-05-28T09:44:35.000Z</time>
      </trkpt>
      <trkpt lat="44.01982" lon="3.50621">
        <ele>1135.5</ele>
        <time>2026-05-28T09:44:36.000Z</time>
      </trkpt>
      <trkpt lat="44.01981" lon="3.5062">
        <ele>1135.3</ele>
        <time>2026-05-28T09:44:37.000Z</time>
      </trkpt>
      <trkpt lat="44.0198" lon="3.5062">
        <ele>1135.3</ele>
        <time>2026-05-28T09:44:38.000Z</time>
      </trkpt>
      <trkpt lat="44.01979" lon="3.5062">
        <ele>1134.8</ele>
        <time>2026-05-28T09:44:39.000Z</time>
      </trkpt>
      <trkpt lat="44.01978" lon="3.5062">
        <ele>1134.7</ele>
        <time>2026-05-28T09:44:40.000Z</time>
      </trkpt>
      <trkpt lat="44.01977" lon="3.50621">
        <ele>1134.3</ele>
        <time>2026-05-28T09:44:41.000Z</time>
      </trkpt>
      <trkpt lat="44.01976" lon="3.50621">
        <ele>1134.1</ele>
        <time>2026-05-28T09:44:42.000Z</time>
      </trkpt>
      <trkpt lat="44.01974" lon="3.50622">
        <ele>1134</ele>
        <time>2026-05-28T09:44:43.000Z</time>
      </trkpt>
      <trkpt lat="44.01974" lon="3.50622">
        <ele>1133.8</ele>
        <time>2026-05-28T09:44:44.000Z</time>
      </trkpt>
      <trkpt lat="44.01974" lon="3.50622">
        <ele>1133.6</ele>
        <time>2026-05-28T09:44:45.000Z</time>
      </trkpt>
      <trkpt lat="44.01974" lon="3.50623">
        <ele>1133.4</ele>
        <time>2026-05-28T09:44:46.000Z</time>
      </trkpt>
      <trkpt lat="44.01973" lon="3.50623">
        <ele>1133.1</ele>
        <time>2026-05-28T09:44:47.000Z</time>
      </trkpt>
      <trkpt lat="44.01972" lon="3.50623">
        <ele>1132.9</ele>
        <time>2026-05-28T09:44:48.000Z</time>
      </trkpt>
      <trkpt lat="44.01972" lon="3.50623">
        <ele>1132.9</ele>
        <time>2026-05-28T09:44:49.000Z</time>
      </trkpt>
      <trkpt lat="44.01972" lon="3.50623">
        <ele>1133</ele>
        <time>2026-05-28T09:44:50.000Z</time>
      </trkpt>
      <trkpt lat="44.01972" lon="3.50623">
        <ele>1132.8</ele>
        <time>2026-05-28T09:44:51.000Z</time>
      </trkpt>
      <trkpt lat="44.01972" lon="3.50623">
        <ele>1132.8</ele>
        <time>2026-05-28T09:44:52.000Z</time>
      </trkpt>
      <trkpt lat="44.01972" lon="3.50623">
        <ele>1132.9</ele>
        <time>2026-05-28T09:44:53.000Z</time>
      </trkpt>
      <trkpt lat="44.01972" lon="3.50622">
        <ele>1132.3</ele>
        <time>2026-05-28T09:44:54.000Z</time>
      </trkpt>
      <trkpt lat="44.01973" lon="3.50622">
        <ele>1132.3</ele>
        <time>2026-05-28T09:44:55.000Z</time>
      </trkpt>
      <trkpt lat="44.01973" lon="3.50621">
        <ele>1132.3</ele>
        <time>2026-05-28T09:44:56.000Z</time>
      </trkpt>
      <trkpt lat="44.01973" lon="3.50621">
        <ele>1132.1</ele>
        <time>2026-05-28T09:44:57.000Z</time>
      </trkpt>
      <trkpt lat="44.01973" lon="3.50621">
        <ele>1132</ele>
        <time>2026-05-28T09:44:58.000Z</time>
      </trkpt>
      <trkpt lat="44.01973" lon="3.50621">
        <ele>1131.9</ele>
        <time>2026-05-28T09:44:59.000Z</time>
      </trkpt>
      <trkpt lat="44.01973" lon="3.50621">
        <ele>1131.9</ele>
        <time>2026-05-28T09:45:00.000Z</time>
      </trkpt>
      <trkpt lat="44.01973" lon="3.50621">
        <ele>1131.9</ele>
        <time>2026-05-28T09:45:01.000Z</time>
      </trkpt>
      <trkpt lat="44.01973" lon="3.50621">
        <ele>1132</ele>
        <time>2026-05-28T09:45:02.000Z</time>
      </trkpt>
      <trkpt lat="44.01973" lon="3.50621">
        <ele>1132.1</ele>
        <time>2026-05-28T09:45:03.000Z</time>
      </trkpt>
      <trkpt lat="44.01972" lon="3.50621">
        <ele>1132</ele>
        <time>2026-05-28T09:45:04.000Z</time>
      </trkpt>
      <trkpt lat="44.01972" lon="3.50621">
        <ele>1132</ele>
        <time>2026-05-28T09:45:05.000Z</time>
      </trkpt>
      <trkpt lat="44.01972" lon="3.5062">
        <ele>1132.2</ele>
        <time>2026-05-28T09:45:06.000Z</time>
      </trkpt>
      <trkpt lat="44.01972" lon="3.50621">
        <ele>1132.1</ele>
        <time>2026-05-28T09:45:07.000Z</time>
      </trkpt>
      <trkpt lat="44.01972" lon="3.50621">
        <ele>1132</ele>
        <time>2026-05-28T09:45:08.000Z</time>
      </trkpt>
      <trkpt lat="44.01972" lon="3.50621">
        <ele>1132.1</ele>
        <time>2026-05-28T09:45:09.000Z</time>
      </trkpt>
      <trkpt lat="44.01972" lon="3.50621">
        <ele>1132.3</ele>
        <time>2026-05-28T09:45:10.000Z</time>
      </trkpt>
      <trkpt lat="44.01972" lon="3.50621">
        <ele>1132.2</ele>
        <time>2026-05-28T09:45:11.000Z</time>
      </trkpt>
      <trkpt lat="44.01972" lon="3.50621">
        <ele>1132.6</ele>
        <time>2026-05-28T09:45:12.000Z</time>
      </trkpt>
      <trkpt lat="44.01973" lon="3.50621">
        <ele>1132.9</ele>
        <time>2026-05-28T09:45:13.000Z</time>
      </trkpt>
      <trkpt lat="44.01973" lon="3.50621">
        <ele>1132.9</ele>
        <time>2026-05-28T09:45:14.000Z</time>
      </trkpt>
      <trkpt lat="44.01972" lon="3.50622">
        <ele>1132.9</ele>
        <time>2026-05-28T09:45:15.000Z</time>
      </trkpt>
      <trkpt lat="44.01982" lon="3.5062">
        <ele>1130.4</ele>
        <time>2026-05-28T09:45:50.000Z</time>
      </trkpt>
      <trkpt lat="44.01982" lon="3.5062">
        <ele>1130.8</ele>
        <time>2026-05-28T09:45:51.000Z</time>
      </trkpt>
      <trkpt lat="44.01982" lon="3.5062">
        <ele>1130.8</ele>
        <time>2026-05-28T09:45:52.000Z</time>
      </trkpt>
      <trkpt lat="44.01982" lon="3.50619">
        <ele>1130.9</ele>
        <time>2026-05-28T09:45:53.000Z</time>
      </trkpt>
      <trkpt lat="44.01982" lon="3.50619">
        <ele>1131.4</ele>
        <time>2026-05-28T09:45:54.000Z</time>
      </trkpt>
      <trkpt lat="44.01982" lon="3.50619">
        <ele>1131.6</ele>
        <time>2026-05-28T09:45:55.000Z</time>
      </trkpt>
      <trkpt lat="44.01982" lon="3.50619">
        <ele>1132.2</ele>
        <time>2026-05-28T09:45:56.000Z</time>
      </trkpt>
      <trkpt lat="44.01982" lon="3.50619">
        <ele>1132.9</ele>
        <time>2026-05-28T09:45:57.000Z</time>
      </trkpt>
      <trkpt lat="44.01982" lon="3.50619">
        <ele>1133.4</ele>
        <time>2026-05-28T09:45:58.000Z</time>
      </trkpt>
      <trkpt lat="44.01982" lon="3.50619">
        <ele>1135</ele>
        <time>2026-05-28T09:45:59.000Z</time>
      </trkpt>
      <trkpt lat="44.01982" lon="3.50619">
        <ele>1135</ele>
        <time>2026-05-28T09:46:00.000Z</time>
      </trkpt>
      <trkpt lat="44.01982" lon="3.50619">
        <ele>1135</ele>
        <time>2026-05-28T09:46:01.000Z</time>
      </trkpt>
      <trkpt lat="44.01983" lon="3.50619">
        <ele>1136</ele>
        <time>2026-05-28T09:46:02.000Z</time>
      </trkpt>
      <trkpt lat="44.01983" lon="3.50619">
        <ele>1136.2</ele>
        <time>2026-05-28T09:46:03.000Z</time>
      </trkpt>
      <trkpt lat="44.01983" lon="3.50619">
        <ele>1136.3</ele>
        <time>2026-05-28T09:46:04.000Z</time>
      </trkpt>
      <trkpt lat="44.01983" lon="3.50619">
        <ele>1136.5</ele>
        <time>2026-05-28T09:46:05.000Z</time>
      </trkpt>
      <trkpt lat="44.01983" lon="3.50619">
        <ele>1136.3</ele>
        <time>2026-05-28T09:46:06.000Z</time>
      </trkpt>
      <trkpt lat="44.01983" lon="3.50619">
        <ele>1136.2</ele>
        <time>2026-05-28T09:46:07.000Z</time>
      </trkpt>
      <trkpt lat="44.01983" lon="3.50619">
        <ele>1136.3</ele>
        <time>2026-05-28T09:46:08.000Z</time>
      </trkpt>
      <trkpt lat="44.01983" lon="3.50619">
        <ele>1136.6</ele>
        <time>2026-05-28T09:46:09.000Z</time>
      </trkpt>
      <trkpt lat="44.01983" lon="3.50619">
        <ele>1136.9</ele>
        <time>2026-05-28T09:46:10.000Z</time>
      </trkpt>
      <trkpt lat="44.01983" lon="3.50619">
        <ele>1136.9</ele>
        <time>2026-05-28T09:46:11.000Z</time>
      </trkpt>
      <trkpt lat="44.01983" lon="3.50619">
        <ele>1136.6</ele>
        <time>2026-05-28T09:46:12.000Z</time>
      </trkpt>
      <trkpt lat="44.01983" lon="3.50619">
        <ele>1136.1</ele>
        <time>2026-05-28T09:46:13.000Z</time>
      </trkpt>
      <trkpt lat="44.01983" lon="3.50619">
        <ele>1136</ele>
        <time>2026-05-28T09:46:14.000Z</time>
      </trkpt>
      <trkpt lat="44.01983" lon="3.50619">
        <ele>1136</ele>
        <time>2026-05-28T09:46:15.000Z</time>
      </trkpt>
      <trkpt lat="44.01983" lon="3.50619">
        <ele>1136</ele>
        <time>2026-05-28T09:46:16.000Z</time>
      </trkpt>
      <trkpt lat="44.01983" lon="3.50619">
        <ele>1136.4</ele>
        <time>2026-05-28T09:46:17.000Z</time>
      </trkpt>
      <trkpt lat="44.01983" lon="3.50619">
        <ele>1136.8</ele>
        <time>2026-05-28T09:46:18.000Z</time>
      </trkpt>
      <trkpt lat="44.01983" lon="3.50619">
        <ele>1137.1</ele>
        <time>2026-05-28T09:46:19.000Z</time>
      </trkpt>
      <trkpt lat="44.01983" lon="3.50619">
        <ele>1136.9</ele>
        <time>2026-05-28T09:46:20.000Z</time>
      </trkpt>
      <trkpt lat="44.01983" lon="3.50619">
        <ele>1137</ele>
        <time>2026-05-28T09:46:21.000Z</time>
      </trkpt>
      <trkpt lat="44.01983" lon="3.50619">
        <ele>1137.2</ele>
        <time>2026-05-28T09:46:22.000Z</time>
      </trkpt>
      <trkpt lat="44.01983" lon="3.50619">
        <ele>1137.2</ele>
        <time>2026-05-28T09:46:23.000Z</time>
      </trkpt>
      <trkpt lat="44.01983" lon="3.50619">
        <ele>1136.8</ele>
        <time>2026-05-28T09:46:24.000Z</time>
      </trkpt>
      <trkpt lat="44.01983" lon="3.50619">
        <ele>1136.8</ele>
        <time>2026-05-28T09:46:25.000Z</time>
      </trkpt>
      <trkpt lat="44.01983" lon="3.50619">
        <ele>1136.6</ele>
        <time>2026-05-28T09:46:26.000Z</time>
      </trkpt>
      <trkpt lat="44.01983" lon="3.50619">
        <ele>1136.3</ele>
        <time>2026-05-28T09:46:27.000Z</time>
      </trkpt>
      <trkpt lat="44.01984" lon="3.50618">
        <ele>1136.2</ele>
        <time>2026-05-28T09:46:28.000Z</time>
      </trkpt>
      <trkpt lat="44.01985" lon="3.50618">
        <ele>1136.1</ele>
        <time>2026-05-28T09:46:29.000Z</time>
      </trkpt>
      <trkpt lat="44.01986" lon="3.50617">
        <ele>1135.8</ele>
        <time>2026-05-28T09:46:30.000Z</time>
      </trkpt>
      <trkpt lat="44.01987" lon="3.50616">
        <ele>1135.7</ele>
        <time>2026-05-28T09:46:31.000Z</time>
      </trkpt>
      <trkpt lat="44.01987" lon="3.50615">
        <ele>1135.6</ele>
        <time>2026-05-28T09:46:32.000Z</time>
      </trkpt>
      <trkpt lat="44.01987" lon="3.50615">
        <ele>1135.4</ele>
        <time>2026-05-28T09:46:33.000Z</time>
      </trkpt>
      <trkpt lat="44.01987" lon="3.50615">
        <ele>1135.3</ele>
        <time>2026-05-28T09:46:34.000Z</time>
      </trkpt>
      <trkpt lat="44.01987" lon="3.50615">
        <ele>1135.3</ele>
        <time>2026-05-28T09:46:35.000Z</time>
      </trkpt>
      <trkpt lat="44.01987" lon="3.50615">
        <ele>1135</ele>
        <time>2026-05-28T09:46:36.000Z</time>
      </trkpt>
      <trkpt lat="44.01987" lon="3.50615">
        <ele>1134.9</ele>
        <time>2026-05-28T09:46:37.000Z</time>
      </trkpt>
      <trkpt lat="44.01987" lon="3.50615">
        <ele>1134.9</ele>
        <time>2026-05-28T09:46:38.000Z</time>
      </trkpt>
      <trkpt lat="44.01987" lon="3.50616">
        <ele>1134.5</ele>
        <time>2026-05-28T09:46:39.000Z</time>
      </trkpt>
      <trkpt lat="44.01987" lon="3.50616">
        <ele>1134.4</ele>
        <time>2026-05-28T09:46:40.000Z</time>
      </trkpt>
      <trkpt lat="44.01987" lon="3.50616">
        <ele>1134.3</ele>
        <time>2026-05-28T09:46:41.000Z</time>
      </trkpt>
      <trkpt lat="44.01986" lon="3.50616">
        <ele>1134.3</ele>
        <time>2026-05-28T09:46:42.000Z</time>
      </trkpt>
      <trkpt lat="44.01986" lon="3.50615">
        <ele>1134.2</ele>
        <time>2026-05-28T09:46:43.000Z</time>
      </trkpt>
      <trkpt lat="44.01986" lon="3.50615">
        <ele>1134.2</ele>
        <time>2026-05-28T09:46:44.000Z</time>
      </trkpt>
      <trkpt lat="44.01986" lon="3.50615">
        <ele>1134.2</ele>
        <time>2026-05-28T09:46:45.000Z</time>
      </trkpt>
      <trkpt lat="44.01986" lon="3.50615">
        <ele>1134.2</ele>
        <time>2026-05-28T09:46:46.000Z</time>
      </trkpt>
      <trkpt lat="44.01985" lon="3.50615">
        <ele>1134.1</ele>
        <time>2026-05-28T09:46:47.000Z</time>
      </trkpt>
      <trkpt lat="44.01985" lon="3.50615">
        <ele>1134</ele>
        <time>2026-05-28T09:46:48.000Z</time>
      </trkpt>
      <trkpt lat="44.01985" lon="3.50615">
        <ele>1134</ele>
        <time>2026-05-28T09:46:49.000Z</time>
      </trkpt>
      <trkpt lat="44.01985" lon="3.50615">
        <ele>1133.9</ele>
        <time>2026-05-28T09:46:50.000Z</time>
      </trkpt>
      <trkpt lat="44.01985" lon="3.50614">
        <ele>1134.2</ele>
        <time>2026-05-28T09:46:51.000Z</time>
      </trkpt>
      <trkpt lat="44.01986" lon="3.50614">
        <ele>1134.9</ele>
        <time>2026-05-28T09:46:52.000Z</time>
      </trkpt>
      <trkpt lat="44.01988" lon="3.50614">
        <ele>1135.5</ele>
        <time>2026-05-28T09:46:53.000Z</time>
      </trkpt>
      <trkpt lat="44.01988" lon="3.50614">
        <ele>1135.4</ele>
        <time>2026-05-28T09:46:54.000Z</time>
      </trkpt>
      <trkpt lat="44.01988" lon="3.50614">
        <ele>1135.8</ele>
        <time>2026-05-28T09:46:55.000Z</time>
      </trkpt>
      <trkpt lat="44.01988" lon="3.50613">
        <ele>1135.8</ele>
        <time>2026-05-28T09:46:56.000Z</time>
      </trkpt>
      <trkpt lat="44.01988" lon="3.50613">
        <ele>1135.8</ele>
        <time>2026-05-28T09:46:57.000Z</time>
      </trkpt>
      <trkpt lat="44.01988" lon="3.50613">
        <ele>1135.8</ele>
        <time>2026-05-28T09:46:58.000Z</time>
      </trkpt>
      <trkpt lat="44.01987" lon="3.50612">
        <ele>1135.7</ele>
        <time>2026-05-28T09:46:59.000Z</time>
      </trkpt>
      <trkpt lat="44.01986" lon="3.50612">
        <ele>1135.7</ele>
        <time>2026-05-28T09:47:00.000Z</time>
      </trkpt>
      <trkpt lat="44.01985" lon="3.50612">
        <ele>1135.3</ele>
        <time>2026-05-28T09:47:01.000Z</time>
      </trkpt>
      <trkpt lat="44.01984" lon="3.50612">
        <ele>1134.9</ele>
        <time>2026-05-28T09:47:02.000Z</time>
      </trkpt>
      <trkpt lat="44.01983" lon="3.50612">
        <ele>1134.5</ele>
        <time>2026-05-28T09:47:03.000Z</time>
      </trkpt>
      <trkpt lat="44.01983" lon="3.50612">
        <ele>1134.1</ele>
        <time>2026-05-28T09:47:04.000Z</time>
      </trkpt>
      <trkpt lat="44.01982" lon="3.50612">
        <ele>1133.6</ele>
        <time>2026-05-28T09:47:05.000Z</time>
      </trkpt>
      <trkpt lat="44.01981" lon="3.50612">
        <ele>1133.7</ele>
        <time>2026-05-28T09:47:06.000Z</time>
      </trkpt>
      <trkpt lat="44.01978" lon="3.50613">
        <ele>1133.4</ele>
        <time>2026-05-28T09:47:08.000Z</time>
      </trkpt>
      <trkpt lat="44.01978" lon="3.50614">
        <ele>1133.3</ele>
        <time>2026-05-28T09:47:09.000Z</time>
      </trkpt>
      <trkpt lat="44.01977" lon="3.50615">
        <ele>1133.3</ele>
        <time>2026-05-28T09:47:10.000Z</time>
      </trkpt>
      <trkpt lat="44.01976" lon="3.50615">
        <ele>1133.1</ele>
        <time>2026-05-28T09:47:11.000Z</time>
      </trkpt>
      <trkpt lat="44.01975" lon="3.50616">
        <ele>1133</ele>
        <time>2026-05-28T09:47:12.000Z</time>
      </trkpt>
      <trkpt lat="44.01974" lon="3.50617">
        <ele>1132.6</ele>
        <time>2026-05-28T09:47:13.000Z</time>
      </trkpt>
      <trkpt lat="44.01973" lon="3.50617">
        <ele>1132.3</ele>
        <time>2026-05-28T09:47:14.000Z</time>
      </trkpt>
      <trkpt lat="44.01973" lon="3.50618">
        <ele>1131.9</ele>
        <time>2026-05-28T09:47:15.000Z</time>
      </trkpt>
      <trkpt lat="44.01972" lon="3.50618">
        <ele>1131.8</ele>
        <time>2026-05-28T09:47:16.000Z</time>
      </trkpt>
      <trkpt lat="44.01972" lon="3.50618">
        <ele>1131.9</ele>
        <time>2026-05-28T09:47:17.000Z</time>
      </trkpt>
      <trkpt lat="44.01972" lon="3.50618">
        <ele>1131.9</ele>
        <time>2026-05-28T09:47:18.000Z</time>
      </trkpt>
      <trkpt lat="44.01972" lon="3.50618">
        <ele>1132.1</ele>
        <time>2026-05-28T09:47:19.000Z</time>
      </trkpt>
      <trkpt lat="44.01972" lon="3.50618">
        <ele>1132.3</ele>
        <time>2026-05-28T09:47:20.000Z</time>
      </trkpt>
      <trkpt lat="44.01972" lon="3.50618">
        <ele>1132.3</ele>
        <time>2026-05-28T09:47:21.000Z</time>
      </trkpt>
      <trkpt lat="44.01972" lon="3.50619">
        <ele>1132.3</ele>
        <time>2026-05-28T09:47:22.000Z</time>
      </trkpt>
      <trkpt lat="44.01972" lon="3.50618">
        <ele>1132.2</ele>
        <time>2026-05-28T09:47:23.000Z</time>
      </trkpt>
      <trkpt lat="44.01971" lon="3.50619">
        <ele>1132.3</ele>
        <time>2026-05-28T09:47:24.000Z</time>
      </trkpt>
      <trkpt lat="44.01971" lon="3.50619">
        <ele>1132.5</ele>
        <time>2026-05-28T09:47:25.000Z</time>
      </trkpt>
      <trkpt lat="44.01971" lon="3.50619">
        <ele>1132.6</ele>
        <time>2026-05-28T09:47:27.000Z</time>
      </trkpt>
      <trkpt lat="44.01972" lon="3.50619">
        <ele>1132.6</ele>
        <time>2026-05-28T09:47:28.000Z</time>
      </trkpt>
      <trkpt lat="44.01973" lon="3.50619">
        <ele>1132.6</ele>
        <time>2026-05-28T09:47:29.000Z</time>
      </trkpt>
      <trkpt lat="44.01973" lon="3.50619">
        <ele>1132.9</ele>
        <time>2026-05-28T09:47:30.000Z</time>
      </trkpt>
      <trkpt lat="44.01973" lon="3.50619">
        <ele>1133.1</ele>
        <time>2026-05-28T09:47:31.000Z</time>
      </trkpt>
      <trkpt lat="44.01974" lon="3.50617">
        <ele>1132.9</ele>
        <time>2026-05-28T09:47:32.000Z</time>
      </trkpt>
      <trkpt lat="44.01976" lon="3.50617">
        <ele>1132.8</ele>
        <time>2026-05-28T09:47:33.000Z</time>
      </trkpt>
      <trkpt lat="44.01976" lon="3.50617">
        <ele>1133.1</ele>
        <time>2026-05-28T09:47:34.000Z</time>
      </trkpt>
      <trkpt lat="44.01976" lon="3.50617">
        <ele>1133.3</ele>
        <time>2026-05-28T09:47:35.000Z</time>
      </trkpt>
      <trkpt lat="44.01976" lon="3.50617">
        <ele>1133.4</ele>
        <time>2026-05-28T09:47:36.000Z</time>
      </trkpt>
      <trkpt lat="44.01976" lon="3.50617">
        <ele>1133.6</ele>
        <time>2026-05-28T09:47:37.000Z</time>
      </trkpt>
      <trkpt lat="44.01976" lon="3.50617">
        <ele>1133.5</ele>
        <time>2026-05-28T09:47:38.000Z</time>
      </trkpt>
      <trkpt lat="44.01976" lon="3.50617">
        <ele>1133.8</ele>
        <time>2026-05-28T09:47:39.000Z</time>
      </trkpt>
      <trkpt lat="44.01976" lon="3.50617">
        <ele>1134</ele>
        <time>2026-05-28T09:47:40.000Z</time>
      </trkpt>
      <trkpt lat="44.01976" lon="3.50617">
        <ele>1134.3</ele>
        <time>2026-05-28T09:47:41.000Z</time>
      </trkpt>
      <trkpt lat="44.01976" lon="3.50616">
        <ele>1134.4</ele>
        <time>2026-05-28T09:47:42.000Z</time>
      </trkpt>
      <trkpt lat="44.01976" lon="3.50616">
        <ele>1134.5</ele>
        <time>2026-05-28T09:47:43.000Z</time>
      </trkpt>
      <trkpt lat="44.01976" lon="3.50616">
        <ele>1134.8</ele>
        <time>2026-05-28T09:47:44.000Z</time>
      </trkpt>
      <trkpt lat="44.01976" lon="3.50616">
        <ele>1135.2</ele>
        <time>2026-05-28T09:47:45.000Z</time>
      </trkpt>
      <trkpt lat="44.01976" lon="3.50616">
        <ele>1135.5</ele>
        <time>2026-05-28T09:47:46.000Z</time>
      </trkpt>
      <trkpt lat="44.01976" lon="3.50616">
        <ele>1136</ele>
        <time>2026-05-28T09:47:47.000Z</time>
      </trkpt>
      <trkpt lat="44.01976" lon="3.50616">
        <ele>1136.5</ele>
        <time>2026-05-28T09:47:48.000Z</time>
      </trkpt>
      <trkpt lat="44.01976" lon="3.50616">
        <ele>1136.7</ele>
        <time>2026-05-28T09:47:49.000Z</time>
      </trkpt>
      <trkpt lat="44.01976" lon="3.50616">
        <ele>1137.1</ele>
        <time>2026-05-28T09:47:50.000Z</time>
      </trkpt>
      <trkpt lat="44.01976" lon="3.50616">
        <ele>1137.5</ele>
        <time>2026-05-28T09:47:51.000Z</time>
      </trkpt>
      <trkpt lat="44.01976" lon="3.50616">
        <ele>1137.7</ele>
        <time>2026-05-28T09:47:52.000Z</time>
      </trkpt>
      <trkpt lat="44.01976" lon="3.50616">
        <ele>1137.8</ele>
        <time>2026-05-28T09:47:53.000Z</time>
      </trkpt>
      <trkpt lat="44.01976" lon="3.50616">
        <ele>1137.7</ele>
        <time>2026-05-28T09:47:54.000Z</time>
      </trkpt>
      <trkpt lat="44.01976" lon="3.50616">
        <ele>1137.8</ele>
        <time>2026-05-28T09:47:55.000Z</time>
      </trkpt>
      <trkpt lat="44.01976" lon="3.50616">
        <ele>1137.9</ele>
        <time>2026-05-28T09:47:56.000Z</time>
      </trkpt>
      <trkpt lat="44.01976" lon="3.50616">
        <ele>1137.9</ele>
        <time>2026-05-28T09:47:57.000Z</time>
      </trkpt>
      <trkpt lat="44.01976" lon="3.50616">
        <ele>1138</ele>
        <time>2026-05-28T09:47:58.000Z</time>
      </trkpt>
      <trkpt lat="44.01976" lon="3.50616">
        <ele>1138.5</ele>
        <time>2026-05-28T09:47:59.000Z</time>
      </trkpt>
      <trkpt lat="44.01976" lon="3.50616">
        <ele>1138.5</ele>
        <time>2026-05-28T09:48:00.000Z</time>
      </trkpt>
      <trkpt lat="44.01976" lon="3.50617">
        <ele>1138.3</ele>
        <time>2026-05-28T09:48:01.000Z</time>
      </trkpt>
      <trkpt lat="44.01976" lon="3.50616">
        <ele>1138.2</ele>
        <time>2026-05-28T09:48:02.000Z</time>
      </trkpt>
      <trkpt lat="44.01977" lon="3.50616">
        <ele>1138</ele>
        <time>2026-05-28T09:48:03.000Z</time>
      </trkpt>
      <trkpt lat="44.01977" lon="3.50616">
        <ele>1137.8</ele>
        <time>2026-05-28T09:48:04.000Z</time>
      </trkpt>
      <trkpt lat="44.01977" lon="3.50616">
        <ele>1137.6</ele>
        <time>2026-05-28T09:48:05.000Z</time>
      </trkpt>
      <trkpt lat="44.01977" lon="3.50616">
        <ele>1137.5</ele>
        <time>2026-05-28T09:48:06.000Z</time>
      </trkpt>
      <trkpt lat="44.01977" lon="3.50616">
        <ele>1137.3</ele>
        <time>2026-05-28T09:48:07.000Z</time>
      </trkpt>
      <trkpt lat="44.01977" lon="3.50616">
        <ele>1137.2</ele>
        <time>2026-05-28T09:48:08.000Z</time>
      </trkpt>
      <trkpt lat="44.01977" lon="3.50616">
        <ele>1137.1</ele>
        <time>2026-05-28T09:48:09.000Z</time>
      </trkpt>
      <trkpt lat="44.01977" lon="3.50616">
        <ele>1137.1</ele>
        <time>2026-05-28T09:48:10.000Z</time>
      </trkpt>
      <trkpt lat="44.01977" lon="3.50616">
        <ele>1137</ele>
        <time>2026-05-28T09:48:11.000Z</time>
      </trkpt>
      <trkpt lat="44.01977" lon="3.50616">
        <ele>1136.9</ele>
        <time>2026-05-28T09:48:12.000Z</time>
      </trkpt>
      <trkpt lat="44.01977" lon="3.50616">
        <ele>1136.9</ele>
        <time>2026-05-28T09:48:13.000Z</time>
      </trkpt>
      <trkpt lat="44.01977" lon="3.50616">
        <ele>1136.9</ele>
        <time>2026-05-28T09:48:14.000Z</time>
      </trkpt>
      <trkpt lat="44.01977" lon="3.50616">
        <ele>1137</ele>
        <time>2026-05-28T09:48:15.000Z</time>
      </trkpt>
      <trkpt lat="44.01977" lon="3.50616">
        <ele>1137</ele>
        <time>2026-05-28T09:48:16.000Z</time>
      </trkpt>
      <trkpt lat="44.01977" lon="3.50616">
        <ele>1137</ele>
        <time>2026-05-28T09:48:17.000Z</time>
      </trkpt>
      <trkpt lat="44.01977" lon="3.50616">
        <ele>1137.1</ele>
        <time>2026-05-28T09:48:18.000Z</time>
      </trkpt>
      <trkpt lat="44.01977" lon="3.50616">
        <ele>1137.1</ele>
        <time>2026-05-28T09:48:19.000Z</time>
      </trkpt>
      <trkpt lat="44.01977" lon="3.50616">
        <ele>1137.3</ele>
        <time>2026-05-28T09:48:20.000Z</time>
      </trkpt>
      <trkpt lat="44.01977" lon="3.50616">
        <ele>1137.4</ele>
        <time>2026-05-28T09:48:21.000Z</time>
      </trkpt>
      <trkpt lat="44.01977" lon="3.50616">
        <ele>1137.4</ele>
        <time>2026-05-28T09:48:22.000Z</time>
      </trkpt>
      <trkpt lat="44.01977" lon="3.50616">
        <ele>1137.5</ele>
        <time>2026-05-28T09:48:23.000Z</time>
      </trkpt>
      <trkpt lat="44.01977" lon="3.50616">
        <ele>1137.6</ele>
        <time>2026-05-28T09:48:24.000Z</time>
      </trkpt>
      <trkpt lat="44.01977" lon="3.50616">
        <ele>1137.8</ele>
        <time>2026-05-28T09:48:25.000Z</time>
      </trkpt>
      <trkpt lat="44.01977" lon="3.50616">
        <ele>1137.8</ele>
        <time>2026-05-28T09:48:26.000Z</time>
      </trkpt>
      <trkpt lat="44.01977" lon="3.50616">
        <ele>1138</ele>
        <time>2026-05-28T09:48:27.000Z</time>
      </trkpt>
      <trkpt lat="44.01977" lon="3.50616">
        <ele>1138.1</ele>
        <time>2026-05-28T09:48:28.000Z</time>
      </trkpt>
      <trkpt lat="44.01977" lon="3.50616">
        <ele>1138.2</ele>
        <time>2026-05-28T09:48:29.000Z</time>
      </trkpt>
      <trkpt lat="44.01977" lon="3.50616">
        <ele>1138.3</ele>
        <time>2026-05-28T09:48:30.000Z</time>
      </trkpt>
      <trkpt lat="44.01977" lon="3.50617">
        <ele>1138.3</ele>
        <time>2026-05-28T09:48:31.000Z</time>
      </trkpt>
      <trkpt lat="44.01977" lon="3.50617">
        <ele>1138.4</ele>
        <time>2026-05-28T09:48:32.000Z</time>
      </trkpt>
      <trkpt lat="44.01977" lon="3.50617">
        <ele>1138.5</ele>
        <time>2026-05-28T09:48:33.000Z</time>
      </trkpt>
      <trkpt lat="44.01977" lon="3.50617">
        <ele>1138.6</ele>
        <time>2026-05-28T09:48:34.000Z</time>
      </trkpt>
      <trkpt lat="44.01977" lon="3.50617">
        <ele>1138.8</ele>
        <time>2026-05-28T09:48:35.000Z</time>
      </trkpt>
      <trkpt lat="44.01977" lon="3.50617">
        <ele>1139</ele>
        <time>2026-05-28T09:48:36.000Z</time>
      </trkpt>
      <trkpt lat="44.01977" lon="3.50617">
        <ele>1139.5</ele>
        <time>2026-05-28T09:48:37.000Z</time>
      </trkpt>
      <trkpt lat="44.01978" lon="3.50618">
        <ele>1140.1</ele>
        <time>2026-05-28T09:48:38.000Z</time>
      </trkpt>
      <trkpt lat="44.01978" lon="3.50618">
        <ele>1140.7</ele>
        <time>2026-05-28T09:48:39.000Z</time>
      </trkpt>
      <trkpt lat="44.01978" lon="3.50618">
        <ele>1141.4</ele>
        <time>2026-05-28T09:48:40.000Z</time>
      </trkpt>
      <trkpt lat="44.01978" lon="3.50618">
        <ele>1141.8</ele>
        <time>2026-05-28T09:48:41.000Z</time>
      </trkpt>
      <trkpt lat="44.01978" lon="3.50618">
        <ele>1142.2</ele>
        <time>2026-05-28T09:48:42.000Z</time>
      </trkpt>
      <trkpt lat="44.01978" lon="3.50618">
        <ele>1142.7</ele>
        <time>2026-05-28T09:48:43.000Z</time>
      </trkpt>
      <trkpt lat="44.01978" lon="3.50619">
        <ele>1143.1</ele>
        <time>2026-05-28T09:48:44.000Z</time>
      </trkpt>
      <trkpt lat="44.01978" lon="3.50619">
        <ele>1143.3</ele>
        <time>2026-05-28T09:48:45.000Z</time>
      </trkpt>
      <trkpt lat="44.01979" lon="3.5062">
        <ele>1143.7</ele>
        <time>2026-05-28T09:48:46.000Z</time>
      </trkpt>
      <trkpt lat="44.01979" lon="3.5062">
        <ele>1144</ele>
        <time>2026-05-28T09:48:47.000Z</time>
      </trkpt>
      <trkpt lat="44.01979" lon="3.50621">
        <ele>1144.2</ele>
        <time>2026-05-28T09:48:48.000Z</time>
      </trkpt>
      <trkpt lat="44.0198" lon="3.50621">
        <ele>1144.4</ele>
        <time>2026-05-28T09:48:49.000Z</time>
      </trkpt>
      <trkpt lat="44.0198" lon="3.50621">
        <ele>1144.2</ele>
        <time>2026-05-28T09:48:50.000Z</time>
      </trkpt>
      <trkpt lat="44.0198" lon="3.50621">
        <ele>1144.3</ele>
        <time>2026-05-28T09:48:51.000Z</time>
      </trkpt>
      <trkpt lat="44.0198" lon="3.50621">
        <ele>1144.6</ele>
        <time>2026-05-28T09:48:52.000Z</time>
      </trkpt>
      <trkpt lat="44.0198" lon="3.50621">
        <ele>1144.7</ele>
        <time>2026-05-28T09:48:53.000Z</time>
      </trkpt>
      <trkpt lat="44.0198" lon="3.50621">
        <ele>1144.8</ele>
        <time>2026-05-28T09:48:54.000Z</time>
      </trkpt>
      <trkpt lat="44.0198" lon="3.50621">
        <ele>1144.7</ele>
        <time>2026-05-28T09:48:55.000Z</time>
      </trkpt>
      <trkpt lat="44.0198" lon="3.50621">
        <ele>1144.7</ele>
        <time>2026-05-28T09:48:56.000Z</time>
      </trkpt>
      <trkpt lat="44.0198" lon="3.50621">
        <ele>1144.9</ele>
        <time>2026-05-28T09:48:57.000Z</time>
      </trkpt>
      <trkpt lat="44.0198" lon="3.50621">
        <ele>1145.1</ele>
        <time>2026-05-28T09:48:58.000Z</time>
      </trkpt>
      <trkpt lat="44.01979" lon="3.50621">
        <ele>1145.2</ele>
        <time>2026-05-28T09:48:59.000Z</time>
      </trkpt>
      <trkpt lat="44.01979" lon="3.50621">
        <ele>1145.1</ele>
        <time>2026-05-28T09:49:00.000Z</time>
      </trkpt>
      <trkpt lat="44.01979" lon="3.5062">
        <ele>1145.4</ele>
        <time>2026-05-28T09:49:01.000Z</time>
      </trkpt>
      <trkpt lat="44.01979" lon="3.5062">
        <ele>1145.6</ele>
        <time>2026-05-28T09:49:02.000Z</time>
      </trkpt>
      <trkpt lat="44.01979" lon="3.5062">
        <ele>1145.7</ele>
        <time>2026-05-28T09:49:03.000Z</time>
      </trkpt>
      <trkpt lat="44.01979" lon="3.50621">
        <ele>1145.8</ele>
        <time>2026-05-28T09:49:04.000Z</time>
      </trkpt>
      <trkpt lat="44.0198" lon="3.5062">
        <ele>1146</ele>
        <time>2026-05-28T09:49:05.000Z</time>
      </trkpt>
      <trkpt lat="44.01981" lon="3.50619">
        <ele>1146.1</ele>
        <time>2026-05-28T09:49:06.000Z</time>
      </trkpt>
      <trkpt lat="44.0198" lon="3.50619">
        <ele>1146.2</ele>
        <time>2026-05-28T09:49:07.000Z</time>
      </trkpt>
      <trkpt lat="44.01979" lon="3.50619">
        <ele>1146.4</ele>
        <time>2026-05-28T09:49:08.000Z</time>
      </trkpt>
      <trkpt lat="44.01979" lon="3.50619">
        <ele>1146.4</ele>
        <time>2026-05-28T09:49:09.000Z</time>
      </trkpt>
      <trkpt lat="44.01979" lon="3.50619">
        <ele>1146.4</ele>
        <time>2026-05-28T09:49:10.000Z</time>
      </trkpt>
      <trkpt lat="44.01984" lon="3.50617">
        <ele>1144.1</ele>
        <time>2026-05-28T09:49:34.000Z</time>
      </trkpt>
      <trkpt lat="44.01984" lon="3.50617">
        <ele>1144.4</ele>
        <time>2026-05-28T09:49:35.000Z</time>
      </trkpt>
      <trkpt lat="44.01983" lon="3.50617">
        <ele>1143.9</ele>
        <time>2026-05-28T09:49:36.000Z</time>
      </trkpt>
      <trkpt lat="44.01984" lon="3.50617">
        <ele>1143.7</ele>
        <time>2026-05-28T09:49:37.000Z</time>
      </trkpt>
      <trkpt lat="44.01985" lon="3.50617">
        <ele>1143.5</ele>
        <time>2026-05-28T09:49:38.000Z</time>
      </trkpt>
      <trkpt lat="44.01986" lon="3.50617">
        <ele>1143.4</ele>
        <time>2026-05-28T09:49:39.000Z</time>
      </trkpt>
      <trkpt lat="44.01985" lon="3.50618">
        <ele>1143.5</ele>
        <time>2026-05-28T09:49:40.000Z</time>
      </trkpt>
      <trkpt lat="44.01985" lon="3.50618">
        <ele>1143.7</ele>
        <time>2026-05-28T09:49:41.000Z</time>
      </trkpt>
      <trkpt lat="44.01985" lon="3.50618">
        <ele>1143.7</ele>
        <time>2026-05-28T09:49:42.000Z</time>
      </trkpt>
      <trkpt lat="44.01986" lon="3.50617">
        <ele>1143.7</ele>
        <time>2026-05-28T09:49:43.000Z</time>
      </trkpt>
      <trkpt lat="44.01987" lon="3.50617">
        <ele>1143.5</ele>
        <time>2026-05-28T09:49:44.000Z</time>
      </trkpt>
      <trkpt lat="44.01987" lon="3.50617">
        <ele>1143.6</ele>
        <time>2026-05-28T09:49:45.000Z</time>
      </trkpt>
      <trkpt lat="44.01986" lon="3.50618">
        <ele>1143.8</ele>
        <time>2026-05-28T09:49:46.000Z</time>
      </trkpt>
      <trkpt lat="44.01986" lon="3.50618">
        <ele>1143.7</ele>
        <time>2026-05-28T09:49:47.000Z</time>
      </trkpt>
      <trkpt lat="44.01986" lon="3.50618">
        <ele>1143.9</ele>
        <time>2026-05-28T09:49:48.000Z</time>
      </trkpt>
      <trkpt lat="44.01986" lon="3.50618">
        <ele>1143.8</ele>
        <time>2026-05-28T09:49:49.000Z</time>
      </trkpt>
      <trkpt lat="44.01986" lon="3.50618">
        <ele>1143.8</ele>
        <time>2026-05-28T09:49:50.000Z</time>
      </trkpt>
      <trkpt lat="44.01985" lon="3.50618">
        <ele>1144</ele>
        <time>2026-05-28T09:49:51.000Z</time>
      </trkpt>
      <trkpt lat="44.01983" lon="3.50618">
        <ele>1144.1</ele>
        <time>2026-05-28T09:49:52.000Z</time>
      </trkpt>
      <trkpt lat="44.01983" lon="3.50618">
        <ele>1144</ele>
        <time>2026-05-28T09:49:53.000Z</time>
      </trkpt>
      <trkpt lat="44.01983" lon="3.50618">
        <ele>1144</ele>
        <time>2026-05-28T09:49:54.000Z</time>
      </trkpt>
      <trkpt lat="44.01983" lon="3.50618">
        <ele>1143.8</ele>
        <time>2026-05-28T09:49:55.999Z</time>
      </trkpt>
      <trkpt lat="44.01984" lon="3.50618">
        <ele>1143.6</ele>
        <time>2026-05-28T09:49:56.999Z</time>
      </trkpt>
      <trkpt lat="44.01984" lon="3.50617">
        <ele>1143.6</ele>
        <time>2026-05-28T09:49:57.999Z</time>
      </trkpt>
      <trkpt lat="44.01985" lon="3.50618">
        <ele>1143.6</ele>
        <time>2026-05-28T09:49:58.999Z</time>
      </trkpt>
      <trkpt lat="44.01986" lon="3.50617">
        <ele>1143.3</ele>
        <time>2026-05-28T09:49:59.999Z</time>
      </trkpt>
      <trkpt lat="44.01988" lon="3.50618">
        <ele>1143</ele>
        <time>2026-05-28T09:50:00.999Z</time>
      </trkpt>
      <trkpt lat="44.01988" lon="3.50617">
        <ele>1142.9</ele>
        <time>2026-05-28T09:50:01.999Z</time>
      </trkpt>
      <trkpt lat="44.01988" lon="3.50617">
        <ele>1143</ele>
        <time>2026-05-28T09:50:02.999Z</time>
      </trkpt>
      <trkpt lat="44.01988" lon="3.50617">
        <ele>1142.9</ele>
        <time>2026-05-28T09:50:03.999Z</time>
      </trkpt>
      <trkpt lat="44.01988" lon="3.50617">
        <ele>1142.9</ele>
        <time>2026-05-28T09:50:04.999Z</time>
      </trkpt>
      <trkpt lat="44.01988" lon="3.50617">
        <ele>1142.8</ele>
        <time>2026-05-28T09:50:05.999Z</time>
      </trkpt>
      <trkpt lat="44.01988" lon="3.50617">
        <ele>1142.7</ele>
        <time>2026-05-28T09:50:06.999Z</time>
      </trkpt>
      <trkpt lat="44.01988" lon="3.50616">
        <ele>1143.4</ele>
        <time>2026-05-28T09:50:07.999Z</time>
      </trkpt>
      <trkpt lat="44.01988" lon="3.50616">
        <ele>1142.8</ele>
        <time>2026-05-28T09:50:08.999Z</time>
      </trkpt>
      <trkpt lat="44.01988" lon="3.50617">
        <ele>1142.5</ele>
        <time>2026-05-28T09:50:09.999Z</time>
      </trkpt>
      <trkpt lat="44.01987" lon="3.50617">
        <ele>1142.2</ele>
        <time>2026-05-28T09:50:10.999Z</time>
      </trkpt>
      <trkpt lat="44.01987" lon="3.50617">
        <ele>1141.9</ele>
        <time>2026-05-28T09:50:11.999Z</time>
      </trkpt>
      <trkpt lat="44.01987" lon="3.50617">
        <ele>1141.8</ele>
        <time>2026-05-28T09:50:12.999Z</time>
      </trkpt>
      <trkpt lat="44.01988" lon="3.50617">
        <ele>1141.7</ele>
        <time>2026-05-28T09:50:13.999Z</time>
      </trkpt>
      <trkpt lat="44.01987" lon="3.50617">
        <ele>1141.8</ele>
        <time>2026-05-28T09:50:14.999Z</time>
      </trkpt>
      <trkpt lat="44.01987" lon="3.50617">
        <ele>1142</ele>
        <time>2026-05-28T09:50:15.999Z</time>
      </trkpt>
      <trkpt lat="44.01987" lon="3.50617">
        <ele>1142</ele>
        <time>2026-05-28T09:50:16.999Z</time>
      </trkpt>
      <trkpt lat="44.01987" lon="3.50617">
        <ele>1141.9</ele>
        <time>2026-05-28T09:50:17.999Z</time>
      </trkpt>
      <trkpt lat="44.01987" lon="3.50617">
        <ele>1141.7</ele>
        <time>2026-05-28T09:50:18.999Z</time>
      </trkpt>
      <trkpt lat="44.01987" lon="3.50617">
        <ele>1141.7</ele>
        <time>2026-05-28T09:50:19.999Z</time>
      </trkpt>
      <trkpt lat="44.01987" lon="3.50617">
        <ele>1141.5</ele>
        <time>2026-05-28T09:50:20.999Z</time>
      </trkpt>
      <trkpt lat="44.01987" lon="3.50617">
        <ele>1141.4</ele>
        <time>2026-05-28T09:50:21.999Z</time>
      </trkpt>
      <trkpt lat="44.01987" lon="3.50617">
        <ele>1141.4</ele>
        <time>2026-05-28T09:50:22.999Z</time>
      </trkpt>
      <trkpt lat="44.01986" lon="3.50617">
        <ele>1141.3</ele>
        <time>2026-05-28T09:50:23.999Z</time>
      </trkpt>
      <trkpt lat="44.01986" lon="3.50617">
        <ele>1141.2</ele>
        <time>2026-05-28T09:50:24.999Z</time>
      </trkpt>
      <trkpt lat="44.01986" lon="3.50617">
        <ele>1141.3</ele>
        <time>2026-05-28T09:50:25.999Z</time>
      </trkpt>
      <trkpt lat="44.01985" lon="3.50616">
        <ele>1141.3</ele>
        <time>2026-05-28T09:50:26.999Z</time>
      </trkpt>
      <trkpt lat="44.01985" lon="3.50616">
        <ele>1141.3</ele>
        <time>2026-05-28T09:50:27.999Z</time>
      </trkpt>
      <trkpt lat="44.01985" lon="3.50616">
        <ele>1141.3</ele>
        <time>2026-05-28T09:50:28.999Z</time>
      </trkpt>
      <trkpt lat="44.01985" lon="3.50615">
        <ele>1141.2</ele>
        <time>2026-05-28T09:50:29.999Z</time>
      </trkpt>
      <trkpt lat="44.01985" lon="3.50614">
        <ele>1141.2</ele>
        <time>2026-05-28T09:50:30.999Z</time>
      </trkpt>
      <trkpt lat="44.01984" lon="3.50614">
        <ele>1141.2</ele>
        <time>2026-05-28T09:50:31.999Z</time>
      </trkpt>
      <trkpt lat="44.01983" lon="3.50614">
        <ele>1141</ele>
        <time>2026-05-28T09:50:32.999Z</time>
      </trkpt>
      <trkpt lat="44.01984" lon="3.50614">
        <ele>1140.9</ele>
        <time>2026-05-28T09:50:33.999Z</time>
      </trkpt>
      <trkpt lat="44.01985" lon="3.50614">
        <ele>1140.6</ele>
        <time>2026-05-28T09:50:34.999Z</time>
      </trkpt>
      <trkpt lat="44.01985" lon="3.50614">
        <ele>1140.3</ele>
        <time>2026-05-28T09:50:35.999Z</time>
      </trkpt>
      <trkpt lat="44.01984" lon="3.50614">
        <ele>1140.1</ele>
        <time>2026-05-28T09:50:36.999Z</time>
      </trkpt>
      <trkpt lat="44.01984" lon="3.50614">
        <ele>1139.9</ele>
        <time>2026-05-28T09:50:37.999Z</time>
      </trkpt>
      <trkpt lat="44.01984" lon="3.50614">
        <ele>1139.6</ele>
        <time>2026-05-28T09:50:38.999Z</time>
      </trkpt>
      <trkpt lat="44.01983" lon="3.50614">
        <ele>1139.4</ele>
        <time>2026-05-28T09:50:39.999Z</time>
      </trkpt>
      <trkpt lat="44.01983" lon="3.50614">
        <ele>1139.3</ele>
        <time>2026-05-28T09:50:40.999Z</time>
      </trkpt>
      <trkpt lat="44.01983" lon="3.50614">
        <ele>1139.2</ele>
        <time>2026-05-28T09:50:41.999Z</time>
      </trkpt>
      <trkpt lat="44.01965" lon="3.50621">
        <ele>1139.2</ele>
        <time>2026-05-28T09:50:55.999Z</time>
      </trkpt>
      <trkpt lat="44.01964" lon="3.50621">
        <ele>1139.3</ele>
        <time>2026-05-28T09:50:56.999Z</time>
      </trkpt>
      <trkpt lat="44.01963" lon="3.50622">
        <ele>1139.3</ele>
        <time>2026-05-28T09:50:57.999Z</time>
      </trkpt>
      <trkpt lat="44.01963" lon="3.50621">
        <ele>1139.5</ele>
        <time>2026-05-28T09:50:58.999Z</time>
      </trkpt>
      <trkpt lat="44.01964" lon="3.50622">
        <ele>1134.6</ele>
        <time>2026-05-28T09:51:32.999Z</time>
      </trkpt>
      <trkpt lat="44.01964" lon="3.50622">
        <ele>1134.5</ele>
        <time>2026-05-28T09:51:33.999Z</time>
      </trkpt>
      <trkpt lat="44.01964" lon="3.50622">
        <ele>1134.2</ele>
        <time>2026-05-28T09:51:34.999Z</time>
      </trkpt>
      <trkpt lat="44.01964" lon="3.50622">
        <ele>1134.1</ele>
        <time>2026-05-28T09:51:35.999Z</time>
      </trkpt>
      <trkpt lat="44.01964" lon="3.50622">
        <ele>1133.3</ele>
        <time>2026-05-28T09:51:36.999Z</time>
      </trkpt>
      <trkpt lat="44.01964" lon="3.50622">
        <ele>1133.2</ele>
        <time>2026-05-28T09:51:37.999Z</time>
      </trkpt>
      <trkpt lat="44.01964" lon="3.50622">
        <ele>1133</ele>
        <time>2026-05-28T09:51:38.999Z</time>
      </trkpt>
      <trkpt lat="44.01964" lon="3.50622">
        <ele>1132.8</ele>
        <time>2026-05-28T09:51:39.999Z</time>
      </trkpt>
      <trkpt lat="44.01964" lon="3.50622">
        <ele>1132.9</ele>
        <time>2026-05-28T09:51:40.999Z</time>
      </trkpt>
      <trkpt lat="44.01964" lon="3.50622">
        <ele>1132.8</ele>
        <time>2026-05-28T09:51:41.999Z</time>
      </trkpt>
      <trkpt lat="44.01964" lon="3.50622">
        <ele>1132.8</ele>
        <time>2026-05-28T09:51:42.999Z</time>
      </trkpt>
      <trkpt lat="44.01964" lon="3.50622">
        <ele>1132.7</ele>
        <time>2026-05-28T09:51:43.999Z</time>
      </trkpt>
      <trkpt lat="44.01964" lon="3.50622">
        <ele>1133.2</ele>
        <time>2026-05-28T09:51:44.999Z</time>
      </trkpt>
      <trkpt lat="44.01965" lon="3.50622">
        <ele>1133.5</ele>
        <time>2026-05-28T09:51:45.999Z</time>
      </trkpt>
      <trkpt lat="44.01965" lon="3.50621">
        <ele>1133.2</ele>
        <time>2026-05-28T09:51:46.999Z</time>
      </trkpt>
      <trkpt lat="44.01966" lon="3.50621">
        <ele>1132.8</ele>
        <time>2026-05-28T09:51:47.999Z</time>
      </trkpt>
      <trkpt lat="44.01966" lon="3.5062">
        <ele>1130.8</ele>
        <time>2026-05-28T09:51:48.999Z</time>
      </trkpt>
      <trkpt lat="44.01967" lon="3.50619">
        <ele>1130.4</ele>
        <time>2026-05-28T09:51:49.999Z</time>
      </trkpt>
      <trkpt lat="44.01967" lon="3.50619">
        <ele>1130</ele>
        <time>2026-05-28T09:51:50.999Z</time>
      </trkpt>
      <trkpt lat="44.01968" lon="3.50619">
        <ele>1129.9</ele>
        <time>2026-05-28T09:51:51.999Z</time>
      </trkpt>
      <trkpt lat="44.01969" lon="3.50618">
        <ele>1129.8</ele>
        <time>2026-05-28T09:51:52.999Z</time>
      </trkpt>
      <trkpt lat="44.01971" lon="3.50616">
        <ele>1131.1</ele>
        <time>2026-05-28T09:51:53.999Z</time>
      </trkpt>
      <trkpt lat="44.01972" lon="3.50616">
        <ele>1132.9</ele>
        <time>2026-05-28T09:51:54.999Z</time>
      </trkpt>
      <trkpt lat="44.01974" lon="3.50616">
        <ele>1134.4</ele>
        <time>2026-05-28T09:51:55.999Z</time>
      </trkpt>
      <trkpt lat="44.01975" lon="3.50615">
        <ele>1134.3</ele>
        <time>2026-05-28T09:51:56.999Z</time>
      </trkpt>
      <trkpt lat="44.01976" lon="3.50614">
        <ele>1134.3</ele>
        <time>2026-05-28T09:51:57.999Z</time>
      </trkpt>
      <trkpt lat="44.01976" lon="3.50614">
        <ele>1135</ele>
        <time>2026-05-28T09:51:58.999Z</time>
      </trkpt>
      <trkpt lat="44.01978" lon="3.50613">
        <ele>1135.2</ele>
        <time>2026-05-28T09:51:59.999Z</time>
      </trkpt>
      <trkpt lat="44.01978" lon="3.50613">
        <ele>1135.8</ele>
        <time>2026-05-28T09:52:00.999Z</time>
      </trkpt>
      <trkpt lat="44.01979" lon="3.50613">
        <ele>1136.1</ele>
        <time>2026-05-28T09:52:01.999Z</time>
      </trkpt>
      <trkpt lat="44.0198" lon="3.50613">
        <ele>1136.4</ele>
        <time>2026-05-28T09:52:02.999Z</time>
      </trkpt>
      <trkpt lat="44.01981" lon="3.50612">
        <ele>1136.6</ele>
        <time>2026-05-28T09:52:04.999Z</time>
      </trkpt>
      <trkpt lat="44.01981" lon="3.50612">
        <ele>1136.9</ele>
        <time>2026-05-28T09:52:05.999Z</time>
      </trkpt>
      <trkpt lat="44.01981" lon="3.50612">
        <ele>1136.9</ele>
        <time>2026-05-28T09:52:06.999Z</time>
      </trkpt>
      <trkpt lat="44.01981" lon="3.50612">
        <ele>1137.1</ele>
        <time>2026-05-28T09:52:07.999Z</time>
      </trkpt>
      <trkpt lat="44.01981" lon="3.50611">
        <ele>1137.2</ele>
        <time>2026-05-28T09:52:08.999Z</time>
      </trkpt>
      <trkpt lat="44.01981" lon="3.50612">
        <ele>1137.2</ele>
        <time>2026-05-28T09:52:09.999Z</time>
      </trkpt>
      <trkpt lat="44.01981" lon="3.50612">
        <ele>1137.4</ele>
        <time>2026-05-28T09:52:10.999Z</time>
      </trkpt>
      <trkpt lat="44.01981" lon="3.50612">
        <ele>1137.6</ele>
        <time>2026-05-28T09:52:11.999Z</time>
      </trkpt>
      <trkpt lat="44.01981" lon="3.50612">
        <ele>1137.8</ele>
        <time>2026-05-28T09:52:12.999Z</time>
      </trkpt>
      <trkpt lat="44.01981" lon="3.50612">
        <ele>1138</ele>
        <time>2026-05-28T09:52:13.999Z</time>
      </trkpt>
      <trkpt lat="44.01981" lon="3.50612">
        <ele>1138.3</ele>
        <time>2026-05-28T09:52:14.999Z</time>
      </trkpt>
      <trkpt lat="44.01981" lon="3.50612">
        <ele>1138.7</ele>
        <time>2026-05-28T09:52:15.999Z</time>
      </trkpt>
      <trkpt lat="44.01981" lon="3.50612">
        <ele>1139</ele>
        <time>2026-05-28T09:52:16.999Z</time>
      </trkpt>
      <trkpt lat="44.01981" lon="3.50612">
        <ele>1139.3</ele>
        <time>2026-05-28T09:52:17.999Z</time>
      </trkpt>
      <trkpt lat="44.01981" lon="3.50612">
        <ele>1139.5</ele>
        <time>2026-05-28T09:52:18.999Z</time>
      </trkpt>
      <trkpt lat="44.01981" lon="3.50611">
        <ele>1139.4</ele>
        <time>2026-05-28T09:52:19.999Z</time>
      </trkpt>
      <trkpt lat="44.01981" lon="3.50611">
        <ele>1139.7</ele>
        <time>2026-05-28T09:52:20.999Z</time>
      </trkpt>
      <trkpt lat="44.01982" lon="3.50611">
        <ele>1140.3</ele>
        <time>2026-05-28T09:52:21.999Z</time>
      </trkpt>
      <trkpt lat="44.01982" lon="3.50611">
        <ele>1140.6</ele>
        <time>2026-05-28T09:52:22.999Z</time>
      </trkpt>
      <trkpt lat="44.01982" lon="3.50611">
        <ele>1140.6</ele>
        <time>2026-05-28T09:52:23.999Z</time>
      </trkpt>
      <trkpt lat="44.01983" lon="3.50611">
        <ele>1140.2</ele>
        <time>2026-05-28T09:52:24.999Z</time>
      </trkpt>
      <trkpt lat="44.01983" lon="3.50611">
        <ele>1140.4</ele>
        <time>2026-05-28T09:52:25.999Z</time>
      </trkpt>
      <trkpt lat="44.01983" lon="3.50611">
        <ele>1140.3</ele>
        <time>2026-05-28T09:52:26.999Z</time>
      </trkpt>
      <trkpt lat="44.01983" lon="3.50611">
        <ele>1140.3</ele>
        <time>2026-05-28T09:52:27.999Z</time>
      </trkpt>
      <trkpt lat="44.01983" lon="3.50611">
        <ele>1140.3</ele>
        <time>2026-05-28T09:52:28.999Z</time>
      </trkpt>
      <trkpt lat="44.01984" lon="3.5061">
        <ele>1140.1</ele>
        <time>2026-05-28T09:52:29.999Z</time>
      </trkpt>
      <trkpt lat="44.01987" lon="3.50609">
        <ele>1139.8</ele>
        <time>2026-05-28T09:52:31.999Z</time>
      </trkpt>
      <trkpt lat="44.01987" lon="3.5061">
        <ele>1139.6</ele>
        <time>2026-05-28T09:52:32.999Z</time>
      </trkpt>
      <trkpt lat="44.01987" lon="3.50609">
        <ele>1139.9</ele>
        <time>2026-05-28T09:52:33.999Z</time>
      </trkpt>
      <trkpt lat="44.01987" lon="3.5061">
        <ele>1140</ele>
        <time>2026-05-28T09:52:34.999Z</time>
      </trkpt>
      <trkpt lat="44.01987" lon="3.5061">
        <ele>1140.1</ele>
        <time>2026-05-28T09:52:35.999Z</time>
      </trkpt>
      <trkpt lat="44.01986" lon="3.5061">
        <ele>1139.8</ele>
        <time>2026-05-28T09:52:36.999Z</time>
      </trkpt>
      <trkpt lat="44.01986" lon="3.5061">
        <ele>1139.1</ele>
        <time>2026-05-28T09:52:37.999Z</time>
      </trkpt>
      <trkpt lat="44.01985" lon="3.50611">
        <ele>1138.1</ele>
        <time>2026-05-28T09:52:38.999Z</time>
      </trkpt>
      <trkpt lat="44.01985" lon="3.50611">
        <ele>1137.9</ele>
        <time>2026-05-28T09:52:39.999Z</time>
      </trkpt>
      <trkpt lat="44.01985" lon="3.50611">
        <ele>1137.4</ele>
        <time>2026-05-28T09:52:40.999Z</time>
      </trkpt>
      <trkpt lat="44.01985" lon="3.50611">
        <ele>1137.2</ele>
        <time>2026-05-28T09:52:41.999Z</time>
      </trkpt>
      <trkpt lat="44.01985" lon="3.50611">
        <ele>1137.1</ele>
        <time>2026-05-28T09:52:42.999Z</time>
      </trkpt>
      <trkpt lat="44.01985" lon="3.50611">
        <ele>1137</ele>
        <time>2026-05-28T09:52:43.999Z</time>
      </trkpt>
      <trkpt lat="44.01985" lon="3.50611">
        <ele>1136.8</ele>
        <time>2026-05-28T09:52:44.999Z</time>
      </trkpt>
      <trkpt lat="44.01985" lon="3.50612">
        <ele>1136.5</ele>
        <time>2026-05-28T09:52:45.999Z</time>
      </trkpt>
      <trkpt lat="44.01984" lon="3.50613">
        <ele>1136.2</ele>
        <time>2026-05-28T09:52:46.999Z</time>
      </trkpt>
      <trkpt lat="44.01983" lon="3.50613">
        <ele>1136</ele>
        <time>2026-05-28T09:52:47.999Z</time>
      </trkpt>
      <trkpt lat="44.01983" lon="3.50613">
        <ele>1135.8</ele>
        <time>2026-05-28T09:52:48.999Z</time>
      </trkpt>
      <trkpt lat="44.01983" lon="3.50613">
        <ele>1135.5</ele>
        <time>2026-05-28T09:52:49.999Z</time>
      </trkpt>
      <trkpt lat="44.01983" lon="3.50613">
        <ele>1135</ele>
        <time>2026-05-28T09:52:50.999Z</time>
      </trkpt>
      <trkpt lat="44.01983" lon="3.50613">
        <ele>1134.8</ele>
        <time>2026-05-28T09:52:51.999Z</time>
      </trkpt>
      <trkpt lat="44.01983" lon="3.50613">
        <ele>1134.9</ele>
        <time>2026-05-28T09:52:52.999Z</time>
      </trkpt>
      <trkpt lat="44.01983" lon="3.50613">
        <ele>1135</ele>
        <time>2026-05-28T09:52:53.999Z</time>
      </trkpt>
      <trkpt lat="44.01983" lon="3.50613">
        <ele>1134.8</ele>
        <time>2026-05-28T09:52:54.999Z</time>
      </trkpt>
      <trkpt lat="44.01983" lon="3.50613">
        <ele>1134.3</ele>
        <time>2026-05-28T09:52:55.999Z</time>
      </trkpt>
      <trkpt lat="44.01983" lon="3.50613">
        <ele>1134.1</ele>
        <time>2026-05-28T09:52:56.999Z</time>
      </trkpt>
      <trkpt lat="44.01983" lon="3.50613">
        <ele>1134</ele>
        <time>2026-05-28T09:52:57.999Z</time>
      </trkpt>
      <trkpt lat="44.01983" lon="3.50613">
        <ele>1134.3</ele>
        <time>2026-05-28T09:52:58.999Z</time>
      </trkpt>
      <trkpt lat="44.01983" lon="3.50613">
        <ele>1134.4</ele>
        <time>2026-05-28T09:52:59.999Z</time>
      </trkpt>
      <trkpt lat="44.01983" lon="3.50613">
        <ele>1134.6</ele>
        <time>2026-05-28T09:53:00.999Z</time>
      </trkpt>
      <trkpt lat="44.01983" lon="3.50613">
        <ele>1134.9</ele>
        <time>2026-05-28T09:53:01.999Z</time>
      </trkpt>
      <trkpt lat="44.01983" lon="3.50613">
        <ele>1134.8</ele>
        <time>2026-05-28T09:53:03.999Z</time>
      </trkpt>
      <trkpt lat="44.01983" lon="3.50613">
        <ele>1134.6</ele>
        <time>2026-05-28T09:53:04.999Z</time>
      </trkpt>
      <trkpt lat="44.01983" lon="3.50613">
        <ele>1134.7</ele>
        <time>2026-05-28T09:53:05.999Z</time>
      </trkpt>
      <trkpt lat="44.01985" lon="3.50613">
        <ele>1135</ele>
        <time>2026-05-28T09:53:06.999Z</time>
      </trkpt>
      <trkpt lat="44.01986" lon="3.50613">
        <ele>1135.2</ele>
        <time>2026-05-28T09:53:07.999Z</time>
      </trkpt>
      <trkpt lat="44.01987" lon="3.50613">
        <ele>1135.5</ele>
        <time>2026-05-28T09:53:08.999Z</time>
      </trkpt>
      <trkpt lat="44.01987" lon="3.50613">
        <ele>1135.3</ele>
        <time>2026-05-28T09:53:09.999Z</time>
      </trkpt>
      <trkpt lat="44.01987" lon="3.50614">
        <ele>1134.9</ele>
        <time>2026-05-28T09:53:10.999Z</time>
      </trkpt>
      <trkpt lat="44.01987" lon="3.50615">
        <ele>1134.7</ele>
        <time>2026-05-28T09:53:11.999Z</time>
      </trkpt>
      <trkpt lat="44.01987" lon="3.50616">
        <ele>1134.3</ele>
        <time>2026-05-28T09:53:12.999Z</time>
      </trkpt>
      <trkpt lat="44.01987" lon="3.50616">
        <ele>1133.8</ele>
        <time>2026-05-28T09:53:13.999Z</time>
      </trkpt>
      <trkpt lat="44.01985" lon="3.50616">
        <ele>1133.6</ele>
        <time>2026-05-28T09:53:14.999Z</time>
      </trkpt>
      <trkpt lat="44.01985" lon="3.50617">
        <ele>1133.3</ele>
        <time>2026-05-28T09:53:15.999Z</time>
      </trkpt>
      <trkpt lat="44.01984" lon="3.50618">
        <ele>1133.4</ele>
        <time>2026-05-28T09:53:16.999Z</time>
      </trkpt>
      <trkpt lat="44.01984" lon="3.50618">
        <ele>1133.3</ele>
        <time>2026-05-28T09:53:17.999Z</time>
      </trkpt>
      <trkpt lat="44.01984" lon="3.50617">
        <ele>1133.6</ele>
        <time>2026-05-28T09:53:18.999Z</time>
      </trkpt>
      <trkpt lat="44.01984" lon="3.50617">
        <ele>1133.9</ele>
        <time>2026-05-28T09:53:19.999Z</time>
      </trkpt>
      <trkpt lat="44.01985" lon="3.50617">
        <ele>1134.2</ele>
        <time>2026-05-28T09:53:20.999Z</time>
      </trkpt>
      <trkpt lat="44.01984" lon="3.50617">
        <ele>1134.1</ele>
        <time>2026-05-28T09:53:21.999Z</time>
      </trkpt>
      <trkpt lat="44.01984" lon="3.50618">
        <ele>1134</ele>
        <time>2026-05-28T09:53:22.999Z</time>
      </trkpt>
      <trkpt lat="44.01984" lon="3.50617">
        <ele>1134.4</ele>
        <time>2026-05-28T09:53:23.999Z</time>
      </trkpt>
      <trkpt lat="44.01984" lon="3.50617">
        <ele>1134.7</ele>
        <time>2026-05-28T09:53:24.999Z</time>
      </trkpt>
      <trkpt lat="44.01985" lon="3.50617">
        <ele>1134.9</ele>
        <time>2026-05-28T09:53:25.999Z</time>
      </trkpt>
      <trkpt lat="44.01986" lon="3.50617">
        <ele>1134.9</ele>
        <time>2026-05-28T09:53:27.999Z</time>
      </trkpt>
      <trkpt lat="44.01987" lon="3.50617">
        <ele>1134.5</ele>
        <time>2026-05-28T09:53:28.999Z</time>
      </trkpt>
      <trkpt lat="44.01987" lon="3.50617">
        <ele>1134.2</ele>
        <time>2026-05-28T09:53:29.999Z</time>
      </trkpt>
      <trkpt lat="44.01988" lon="3.50617">
        <ele>1133.9</ele>
        <time>2026-05-28T09:53:30.999Z</time>
      </trkpt>
      <trkpt lat="44.01989" lon="3.50616">
        <ele>1133.6</ele>
        <time>2026-05-28T09:53:31.999Z</time>
      </trkpt>
      <trkpt lat="44.01989" lon="3.50616">
        <ele>1133.4</ele>
        <time>2026-05-28T09:53:32.999Z</time>
      </trkpt>
      <trkpt lat="44.01989" lon="3.50616">
        <ele>1133.7</ele>
        <time>2026-05-28T09:53:33.999Z</time>
      </trkpt>
      <trkpt lat="44.01989" lon="3.50616">
        <ele>1133.8</ele>
        <time>2026-05-28T09:53:34.999Z</time>
      </trkpt>
      <trkpt lat="44.01989" lon="3.50616">
        <ele>1134.1</ele>
        <time>2026-05-28T09:53:35.999Z</time>
      </trkpt>
      <trkpt lat="44.01989" lon="3.50616">
        <ele>1134.5</ele>
        <time>2026-05-28T09:53:36.999Z</time>
      </trkpt>
      <trkpt lat="44.01989" lon="3.50616">
        <ele>1134.3</ele>
        <time>2026-05-28T09:53:37.999Z</time>
      </trkpt>
      <trkpt lat="44.01989" lon="3.50616">
        <ele>1133.9</ele>
        <time>2026-05-28T09:53:38.999Z</time>
      </trkpt>
      <trkpt lat="44.01989" lon="3.50616">
        <ele>1133.6</ele>
        <time>2026-05-28T09:53:39.999Z</time>
      </trkpt>
      <trkpt lat="44.01989" lon="3.50616">
        <ele>1133.4</ele>
        <time>2026-05-28T09:53:40.999Z</time>
      </trkpt>
      <trkpt lat="44.01988" lon="3.50617">
        <ele>1133.4</ele>
        <time>2026-05-28T09:53:41.999Z</time>
      </trkpt>
      <trkpt lat="44.01988" lon="3.50616">
        <ele>1133.5</ele>
        <time>2026-05-28T09:53:42.999Z</time>
      </trkpt>
      <trkpt lat="44.01987" lon="3.50616">
        <ele>1134</ele>
        <time>2026-05-28T09:53:43.999Z</time>
      </trkpt>
      <trkpt lat="44.01987" lon="3.50616">
        <ele>1134.5</ele>
        <time>2026-05-28T09:53:44.999Z</time>
      </trkpt>
      <trkpt lat="44.01987" lon="3.50616">
        <ele>1134.9</ele>
        <time>2026-05-28T09:53:45.999Z</time>
      </trkpt>
      <trkpt lat="44.01987" lon="3.50616">
        <ele>1135.1</ele>
        <time>2026-05-28T09:53:46.999Z</time>
      </trkpt>
      <trkpt lat="44.01987" lon="3.50616">
        <ele>1135</ele>
        <time>2026-05-28T09:53:47.999Z</time>
      </trkpt>
      <trkpt lat="44.01987" lon="3.50616">
        <ele>1135.3</ele>
        <time>2026-05-28T09:53:48.999Z</time>
      </trkpt>
      <trkpt lat="44.01987" lon="3.50616">
        <ele>1135.7</ele>
        <time>2026-05-28T09:53:49.999Z</time>
      </trkpt>
      <trkpt lat="44.01987" lon="3.50616">
        <ele>1136</ele>
        <time>2026-05-28T09:53:50.999Z</time>
      </trkpt>
      <trkpt lat="44.01987" lon="3.50616">
        <ele>1136.1</ele>
        <time>2026-05-28T09:53:51.999Z</time>
      </trkpt>
      <trkpt lat="44.01987" lon="3.50616">
        <ele>1136.2</ele>
        <time>2026-05-28T09:53:52.999Z</time>
      </trkpt>
      <trkpt lat="44.01986" lon="3.50617">
        <ele>1136.7</ele>
        <time>2026-05-28T09:53:53.999Z</time>
      </trkpt>
      <trkpt lat="44.01986" lon="3.50617">
        <ele>1137.2</ele>
        <time>2026-05-28T09:53:54.999Z</time>
      </trkpt>
      <trkpt lat="44.01986" lon="3.50618">
        <ele>1137.5</ele>
        <time>2026-05-28T09:53:55.999Z</time>
      </trkpt>
      <trkpt lat="44.01986" lon="3.50618">
        <ele>1137.6</ele>
        <time>2026-05-28T09:53:56.999Z</time>
      </trkpt>
      <trkpt lat="44.01985" lon="3.50618">
        <ele>1137.6</ele>
        <time>2026-05-28T09:53:57.999Z</time>
      </trkpt>
      <trkpt lat="44.01985" lon="3.50618">
        <ele>1138</ele>
        <time>2026-05-28T09:53:58.999Z</time>
      </trkpt>
      <trkpt lat="44.01984" lon="3.50618">
        <ele>1138.5</ele>
        <time>2026-05-28T09:53:59.999Z</time>
      </trkpt>
      <trkpt lat="44.01984" lon="3.50618">
        <ele>1138.9</ele>
        <time>2026-05-28T09:54:00.999Z</time>
      </trkpt>
      <trkpt lat="44.01984" lon="3.50618">
        <ele>1139.1</ele>
        <time>2026-05-28T09:54:01.999Z</time>
      </trkpt>
      <trkpt lat="44.01984" lon="3.50618">
        <ele>1139.4</ele>
        <time>2026-05-28T09:54:02.999Z</time>
      </trkpt>
      <trkpt lat="44.01984" lon="3.50618">
        <ele>1139.7</ele>
        <time>2026-05-28T09:54:03.999Z</time>
      </trkpt>
      <trkpt lat="44.01984" lon="3.50618">
        <ele>1140</ele>
        <time>2026-05-28T09:54:04.999Z</time>
      </trkpt>
      <trkpt lat="44.01984" lon="3.50618">
        <ele>1140.2</ele>
        <time>2026-05-28T09:54:05.999Z</time>
      </trkpt>
      <trkpt lat="44.01984" lon="3.50619">
        <ele>1140.6</ele>
        <time>2026-05-28T09:54:06.999Z</time>
      </trkpt>
      <trkpt lat="44.01984" lon="3.50619">
        <ele>1140.7</ele>
        <time>2026-05-28T09:54:07.999Z</time>
      </trkpt>
      <trkpt lat="44.01984" lon="3.50619">
        <ele>1140.7</ele>
        <time>2026-05-28T09:54:08.999Z</time>
      </trkpt>
      <trkpt lat="44.01984" lon="3.50619">
        <ele>1140.6</ele>
        <time>2026-05-28T09:54:09.999Z</time>
      </trkpt>
      <trkpt lat="44.01984" lon="3.50619">
        <ele>1140.6</ele>
        <time>2026-05-28T09:54:10.999Z</time>
      </trkpt>
      <trkpt lat="44.01984" lon="3.50619">
        <ele>1140.8</ele>
        <time>2026-05-28T09:54:11.999Z</time>
      </trkpt>
      <trkpt lat="44.01984" lon="3.50619">
        <ele>1140.6</ele>
        <time>2026-05-28T09:54:12.999Z</time>
      </trkpt>
      <trkpt lat="44.01984" lon="3.50619">
        <ele>1140.6</ele>
        <time>2026-05-28T09:54:13.999Z</time>
      </trkpt>
      <trkpt lat="44.01984" lon="3.50619">
        <ele>1140.2</ele>
        <time>2026-05-28T09:54:14.999Z</time>
      </trkpt>
      <trkpt lat="44.01984" lon="3.50619">
        <ele>1140.3</ele>
        <time>2026-05-28T09:54:15.999Z</time>
      </trkpt>
      <trkpt lat="44.01984" lon="3.50619">
        <ele>1140.4</ele>
        <time>2026-05-28T09:54:16.999Z</time>
      </trkpt>
      <trkpt lat="44.01984" lon="3.50619">
        <ele>1140</ele>
        <time>2026-05-28T09:54:17.999Z</time>
      </trkpt>
      <trkpt lat="44.01984" lon="3.50619">
        <ele>1139.8</ele>
        <time>2026-05-28T09:54:18.999Z</time>
      </trkpt>
      <trkpt lat="44.01984" lon="3.50619">
        <ele>1139.8</ele>
        <time>2026-05-28T09:54:19.999Z</time>
      </trkpt>
      <trkpt lat="44.01984" lon="3.50619">
        <ele>1139.8</ele>
        <time>2026-05-28T09:54:20.999Z</time>
      </trkpt>
      <trkpt lat="44.01984" lon="3.50619">
        <ele>1139.9</ele>
        <time>2026-05-28T09:54:21.999Z</time>
      </trkpt>
      <trkpt lat="44.01984" lon="3.50619">
        <ele>1140</ele>
        <time>2026-05-28T09:54:22.999Z</time>
      </trkpt>
      <trkpt lat="44.01984" lon="3.50619">
        <ele>1140</ele>
        <time>2026-05-28T09:54:24.999Z</time>
      </trkpt>
      <trkpt lat="44.01984" lon="3.50619">
        <ele>1140</ele>
        <time>2026-05-28T09:54:25.999Z</time>
      </trkpt>
      <trkpt lat="44.01984" lon="3.50619">
        <ele>1139.8</ele>
        <time>2026-05-28T09:54:26.999Z</time>
      </trkpt>
      <trkpt lat="44.01984" lon="3.50619">
        <ele>1140</ele>
        <time>2026-05-28T09:54:27.999Z</time>
      </trkpt>
      <trkpt lat="44.01984" lon="3.50619">
        <ele>1140.3</ele>
        <time>2026-05-28T09:54:28.999Z</time>
      </trkpt>
      <trkpt lat="44.01984" lon="3.50619">
        <ele>1140.2</ele>
        <time>2026-05-28T09:54:29.999Z</time>
      </trkpt>
      <trkpt lat="44.01984" lon="3.50619">
        <ele>1140</ele>
        <time>2026-05-28T09:54:30.999Z</time>
      </trkpt>
      <trkpt lat="44.01984" lon="3.50619">
        <ele>1140.2</ele>
        <time>2026-05-28T09:54:31.999Z</time>
      </trkpt>
      <trkpt lat="44.01984" lon="3.50619">
        <ele>1140.2</ele>
        <time>2026-05-28T09:54:32.999Z</time>
      </trkpt>
      <trkpt lat="44.01984" lon="3.50619">
        <ele>1140.4</ele>
        <time>2026-05-28T09:54:33.999Z</time>
      </trkpt>
      <trkpt lat="44.01984" lon="3.50619">
        <ele>1140.2</ele>
        <time>2026-05-28T09:54:34.999Z</time>
      </trkpt>
      <trkpt lat="44.01984" lon="3.50619">
        <ele>1140</ele>
        <time>2026-05-28T09:54:36.999Z</time>
      </trkpt>
      <trkpt lat="44.01984" lon="3.50619">
        <ele>1140.1</ele>
        <time>2026-05-28T09:54:37.999Z</time>
      </trkpt>
      <trkpt lat="44.01984" lon="3.50619">
        <ele>1140.3</ele>
        <time>2026-05-28T09:54:38.999Z</time>
      </trkpt>
      <trkpt lat="44.01984" lon="3.50619">
        <ele>1140.4</ele>
        <time>2026-05-28T09:54:39.999Z</time>
      </trkpt>
      <trkpt lat="44.01984" lon="3.50619">
        <ele>1140.1</ele>
        <time>2026-05-28T09:54:40.999Z</time>
      </trkpt>
      <trkpt lat="44.01984" lon="3.50619">
        <ele>1140</ele>
        <time>2026-05-28T09:54:41.999Z</time>
      </trkpt>
      <trkpt lat="44.01984" lon="3.50619">
        <ele>1139.8</ele>
        <time>2026-05-28T09:54:42.999Z</time>
      </trkpt>
      <trkpt lat="44.01984" lon="3.50619">
        <ele>1139.6</ele>
        <time>2026-05-28T09:54:43.999Z</time>
      </trkpt>
      <trkpt lat="44.01984" lon="3.50619">
        <ele>1139.7</ele>
        <time>2026-05-28T09:54:44.999Z</time>
      </trkpt>
      <trkpt lat="44.01984" lon="3.50619">
        <ele>1140.2</ele>
        <time>2026-05-28T09:54:45.999Z</time>
      </trkpt>
      <trkpt lat="44.01984" lon="3.50618">
        <ele>1140.3</ele>
        <time>2026-05-28T09:54:46.999Z</time>
      </trkpt>
      <trkpt lat="44.01984" lon="3.50618">
        <ele>1140.3</ele>
        <time>2026-05-28T09:54:47.999Z</time>
      </trkpt>
      <trkpt lat="44.01983" lon="3.50619">
        <ele>1140.2</ele>
        <time>2026-05-28T09:54:49.999Z</time>
      </trkpt>
      <trkpt lat="44.01983" lon="3.50619">
        <ele>1140.3</ele>
        <time>2026-05-28T09:54:50.999Z</time>
      </trkpt>
      <trkpt lat="44.01983" lon="3.5062">
        <ele>1140.3</ele>
        <time>2026-05-28T09:54:51.999Z</time>
      </trkpt>
      <trkpt lat="44.01983" lon="3.5062">
        <ele>1140.6</ele>
        <time>2026-05-28T09:54:52.999Z</time>
      </trkpt>
      <trkpt lat="44.01983" lon="3.5062">
        <ele>1140.9</ele>
        <time>2026-05-28T09:54:53.999Z</time>
      </trkpt>
      <trkpt lat="44.01983" lon="3.50621">
        <ele>1141</ele>
        <time>2026-05-28T09:54:54.999Z</time>
      </trkpt>
      <trkpt lat="44.01983" lon="3.50621">
        <ele>1141.2</ele>
        <time>2026-05-28T09:54:55.999Z</time>
      </trkpt>
      <trkpt lat="44.01982" lon="3.50621">
        <ele>1141.4</ele>
        <time>2026-05-28T09:54:56.999Z</time>
      </trkpt>
      <trkpt lat="44.01981" lon="3.50622">
        <ele>1141.7</ele>
        <time>2026-05-28T09:54:57.999Z</time>
      </trkpt>
      <trkpt lat="44.01981" lon="3.50622">
        <ele>1142.1</ele>
        <time>2026-05-28T09:54:58.999Z</time>
      </trkpt>
      <trkpt lat="44.01981" lon="3.50622">
        <ele>1142.3</ele>
        <time>2026-05-28T09:54:59.999Z</time>
      </trkpt>
      <trkpt lat="44.01981" lon="3.50622">
        <ele>1142.5</ele>
        <time>2026-05-28T09:55:00.999Z</time>
      </trkpt>
      <trkpt lat="44.01981" lon="3.50622">
        <ele>1142.2</ele>
        <time>2026-05-28T09:55:01.999Z</time>
      </trkpt>
      <trkpt lat="44.01981" lon="3.50622">
        <ele>1141.7</ele>
        <time>2026-05-28T09:55:02.999Z</time>
      </trkpt>
      <trkpt lat="44.01981" lon="3.50622">
        <ele>1141.5</ele>
        <time>2026-05-28T09:55:03.999Z</time>
      </trkpt>
      <trkpt lat="44.01981" lon="3.50622">
        <ele>1141.2</ele>
        <time>2026-05-28T09:55:04.999Z</time>
      </trkpt>
      <trkpt lat="44.0198" lon="3.50622">
        <ele>1140.9</ele>
        <time>2026-05-28T09:55:05.999Z</time>
      </trkpt>
      <trkpt lat="44.0198" lon="3.50622">
        <ele>1140.6</ele>
        <time>2026-05-28T09:55:06.999Z</time>
      </trkpt>
      <trkpt lat="44.0198" lon="3.50622">
        <ele>1140.4</ele>
        <time>2026-05-28T09:55:07.999Z</time>
      </trkpt>
      <trkpt lat="44.0198" lon="3.50622">
        <ele>1140.4</ele>
        <time>2026-05-28T09:55:08.999Z</time>
      </trkpt>
      <trkpt lat="44.0198" lon="3.50622">
        <ele>1140.3</ele>
        <time>2026-05-28T09:55:09.999Z</time>
      </trkpt>
      <trkpt lat="44.0198" lon="3.50622">
        <ele>1140.4</ele>
        <time>2026-05-28T09:55:10.999Z</time>
      </trkpt>
      <trkpt lat="44.0198" lon="3.50622">
        <ele>1140.5</ele>
        <time>2026-05-28T09:55:11.999Z</time>
      </trkpt>
      <trkpt lat="44.0198" lon="3.50622">
        <ele>1140.5</ele>
        <time>2026-05-28T09:55:12.999Z</time>
      </trkpt>
      <trkpt lat="44.0198" lon="3.50622">
        <ele>1140.6</ele>
        <time>2026-05-28T09:55:13.999Z</time>
      </trkpt>
      <trkpt lat="44.0198" lon="3.50622">
        <ele>1140.6</ele>
        <time>2026-05-28T09:55:14.999Z</time>
      </trkpt>
      <trkpt lat="44.0198" lon="3.50622">
        <ele>1140.8</ele>
        <time>2026-05-28T09:55:15.999Z</time>
      </trkpt>
      <trkpt lat="44.01979" lon="3.50622">
        <ele>1140.7</ele>
        <time>2026-05-28T09:55:16.999Z</time>
      </trkpt>
      <trkpt lat="44.01979" lon="3.50622">
        <ele>1140.9</ele>
        <time>2026-05-28T09:55:17.999Z</time>
      </trkpt>
      <trkpt lat="44.0198" lon="3.50621">
        <ele>1140.8</ele>
        <time>2026-05-28T09:55:18.999Z</time>
      </trkpt>
      <trkpt lat="44.01979" lon="3.50621">
        <ele>1140.7</ele>
        <time>2026-05-28T09:55:19.999Z</time>
      </trkpt>
      <trkpt lat="44.01979" lon="3.5062">
        <ele>1140.6</ele>
        <time>2026-05-28T09:55:20.999Z</time>
      </trkpt>
      <trkpt lat="44.01979" lon="3.50619">
        <ele>1140.4</ele>
        <time>2026-05-28T09:55:21.999Z</time>
      </trkpt>
      <trkpt lat="44.01979" lon="3.50619">
        <ele>1140.2</ele>
        <time>2026-05-28T09:55:22.999Z</time>
      </trkpt>
      <trkpt lat="44.01979" lon="3.50619">
        <ele>1140.2</ele>
        <time>2026-05-28T09:55:23.999Z</time>
      </trkpt>
      <trkpt lat="44.0198" lon="3.50619">
        <ele>1140.5</ele>
        <time>2026-05-28T09:55:24.999Z</time>
      </trkpt>
      <trkpt lat="44.0198" lon="3.50618">
        <ele>1140.5</ele>
        <time>2026-05-28T09:55:25.999Z</time>
      </trkpt>
      <trkpt lat="44.0198" lon="3.50618">
        <ele>1140.7</ele>
        <time>2026-05-28T09:55:26.999Z</time>
      </trkpt>
      <trkpt lat="44.01979" lon="3.50619">
        <ele>1140.4</ele>
        <time>2026-05-28T09:55:27.999Z</time>
      </trkpt>
      <trkpt lat="44.01979" lon="3.50618">
        <ele>1140.2</ele>
        <time>2026-05-28T09:55:28.999Z</time>
      </trkpt>
      <trkpt lat="44.01979" lon="3.50618">
        <ele>1140.2</ele>
        <time>2026-05-28T09:55:29.999Z</time>
      </trkpt>
      <trkpt lat="44.01979" lon="3.50618">
        <ele>1140.2</ele>
        <time>2026-05-28T09:55:30.999Z</time>
      </trkpt>
      <trkpt lat="44.01979" lon="3.50618">
        <ele>1140.4</ele>
        <time>2026-05-28T09:55:31.999Z</time>
      </trkpt>
      <trkpt lat="44.01979" lon="3.50618">
        <ele>1140.3</ele>
        <time>2026-05-28T09:55:32.999Z</time>
      </trkpt>
      <trkpt lat="44.01978" lon="3.50619">
        <ele>1140.3</ele>
        <time>2026-05-28T09:55:33.999Z</time>
      </trkpt>
      <trkpt lat="44.01977" lon="3.50619">
        <ele>1140.4</ele>
        <time>2026-05-28T09:55:34.999Z</time>
      </trkpt>
      <trkpt lat="44.01976" lon="3.50619">
        <ele>1140.2</ele>
        <time>2026-05-28T09:55:35.999Z</time>
      </trkpt>
      <trkpt lat="44.01976" lon="3.50619">
        <ele>1140.4</ele>
        <time>2026-05-28T09:55:36.999Z</time>
      </trkpt>
      <trkpt lat="44.01976" lon="3.50619">
        <ele>1140.5</ele>
        <time>2026-05-28T09:55:37.999Z</time>
      </trkpt>
      <trkpt lat="44.01976" lon="3.50619">
        <ele>1140.6</ele>
        <time>2026-05-28T09:55:38.999Z</time>
      </trkpt>
      <trkpt lat="44.01976" lon="3.50619">
        <ele>1140.7</ele>
        <time>2026-05-28T09:55:39.999Z</time>
      </trkpt>
      <trkpt lat="44.01976" lon="3.50619">
        <ele>1140.5</ele>
        <time>2026-05-28T09:55:41.999Z</time>
      </trkpt>
      <trkpt lat="44.01976" lon="3.50619">
        <ele>1140.5</ele>
        <time>2026-05-28T09:55:42.999Z</time>
      </trkpt>
      <trkpt lat="44.01976" lon="3.50619">
        <ele>1140.2</ele>
        <time>2026-05-28T09:55:43.999Z</time>
      </trkpt>
      <trkpt lat="44.01976" lon="3.50619">
        <ele>1139.8</ele>
        <time>2026-05-28T09:55:44.999Z</time>
      </trkpt>
      <trkpt lat="44.01976" lon="3.50619">
        <ele>1139.7</ele>
        <time>2026-05-28T09:55:45.999Z</time>
      </trkpt>
      <trkpt lat="44.01976" lon="3.50619">
        <ele>1139.6</ele>
        <time>2026-05-28T09:55:46.999Z</time>
      </trkpt>
      <trkpt lat="44.01977" lon="3.50619">
        <ele>1139.3</ele>
        <time>2026-05-28T09:55:47.999Z</time>
      </trkpt>
      <trkpt lat="44.01977" lon="3.50619">
        <ele>1139.2</ele>
        <time>2026-05-28T09:55:48.999Z</time>
      </trkpt>
      <trkpt lat="44.01977" lon="3.50619">
        <ele>1139.5</ele>
        <time>2026-05-28T09:55:49.999Z</time>
      </trkpt>
      <trkpt lat="44.01978" lon="3.50619">
        <ele>1139.8</ele>
        <time>2026-05-28T09:55:50.999Z</time>
      </trkpt>
      <trkpt lat="44.01978" lon="3.50619">
        <ele>1139.9</ele>
        <time>2026-05-28T09:55:51.999Z</time>
      </trkpt>
      <trkpt lat="44.01978" lon="3.50619">
        <ele>1140</ele>
        <time>2026-05-28T09:55:52.999Z</time>
      </trkpt>
      <trkpt lat="44.01978" lon="3.50619">
        <ele>1139.9</ele>
        <time>2026-05-28T09:55:53.999Z</time>
      </trkpt>
      <trkpt lat="44.01978" lon="3.50619">
        <ele>1139.8</ele>
        <time>2026-05-28T09:55:54.999Z</time>
      </trkpt>
      <trkpt lat="44.01977" lon="3.50619">
        <ele>1139.8</ele>
        <time>2026-05-28T09:55:55.999Z</time>
      </trkpt>
      <trkpt lat="44.01976" lon="3.50619">
        <ele>1139.8</ele>
        <time>2026-05-28T09:55:56.999Z</time>
      </trkpt>
      <trkpt lat="44.01975" lon="3.5062">
        <ele>1139.6</ele>
        <time>2026-05-28T09:55:57.999Z</time>
      </trkpt>
      <trkpt lat="44.01975" lon="3.50619">
        <ele>1139.3</ele>
        <time>2026-05-28T09:55:58.999Z</time>
      </trkpt>
      <trkpt lat="44.01976" lon="3.5062">
        <ele>1139.1</ele>
        <time>2026-05-28T09:55:59.999Z</time>
      </trkpt>
      <trkpt lat="44.01976" lon="3.5062">
        <ele>1139.2</ele>
        <time>2026-05-28T09:56:00.999Z</time>
      </trkpt>
      <trkpt lat="44.01977" lon="3.5062">
        <ele>1139.6</ele>
        <time>2026-05-28T09:56:01.999Z</time>
      </trkpt>
      <trkpt lat="44.01977" lon="3.50619">
        <ele>1139.6</ele>
        <time>2026-05-28T09:56:02.999Z</time>
      </trkpt>
      <trkpt lat="44.01977" lon="3.50619">
        <ele>1138.6</ele>
        <time>2026-05-28T09:56:03.999Z</time>
      </trkpt>
      <trkpt lat="44.01977" lon="3.50618">
        <ele>1138.3</ele>
        <time>2026-05-28T09:56:04.999Z</time>
      </trkpt>
      <trkpt lat="44.01978" lon="3.50618">
        <ele>1138</ele>
        <time>2026-05-28T09:56:05.999Z</time>
      </trkpt>
      <trkpt lat="44.01977" lon="3.50618">
        <ele>1138</ele>
        <time>2026-05-28T09:56:06.999Z</time>
      </trkpt>
      <trkpt lat="44.01977" lon="3.50619">
        <ele>1137.9</ele>
        <time>2026-05-28T09:56:07.999Z</time>
      </trkpt>
      <trkpt lat="44.01978" lon="3.50619">
        <ele>1138.1</ele>
        <time>2026-05-28T09:56:08.999Z</time>
      </trkpt>
      <trkpt lat="44.01978" lon="3.50619">
        <ele>1138.4</ele>
        <time>2026-05-28T09:56:09.999Z</time>
      </trkpt>
      <trkpt lat="44.01978" lon="3.50619">
        <ele>1138.6</ele>
        <time>2026-05-28T09:56:10.999Z</time>
      </trkpt>
      <trkpt lat="44.01978" lon="3.50619">
        <ele>1139</ele>
        <time>2026-05-28T09:56:11.999Z</time>
      </trkpt>
      <trkpt lat="44.01978" lon="3.50619">
        <ele>1139</ele>
        <time>2026-05-28T09:56:12.999Z</time>
      </trkpt>
      <trkpt lat="44.01978" lon="3.50619">
        <ele>1139.1</ele>
        <time>2026-05-28T09:56:13.999Z</time>
      </trkpt>
      <trkpt lat="44.01979" lon="3.50619">
        <ele>1139.3</ele>
        <time>2026-05-28T09:56:14.999Z</time>
      </trkpt>
      <trkpt lat="44.01979" lon="3.50619">
        <ele>1139.3</ele>
        <time>2026-05-28T09:56:15.999Z</time>
      </trkpt>
      <trkpt lat="44.01979" lon="3.50619">
        <ele>1139.4</ele>
        <time>2026-05-28T09:56:16.999Z</time>
      </trkpt>
      <trkpt lat="44.01979" lon="3.50619">
        <ele>1139.2</ele>
        <time>2026-05-28T09:56:17.999Z</time>
      </trkpt>
      <trkpt lat="44.01979" lon="3.50619">
        <ele>1139.4</ele>
        <time>2026-05-28T09:56:18.999Z</time>
      </trkpt>
      <trkpt lat="44.01979" lon="3.50619">
        <ele>1139.4</ele>
        <time>2026-05-28T09:56:19.999Z</time>
      </trkpt>
      <trkpt lat="44.01979" lon="3.50619">
        <ele>1139.2</ele>
        <time>2026-05-28T09:56:20.999Z</time>
      </trkpt>
      <trkpt lat="44.01979" lon="3.50619">
        <ele>1139</ele>
        <time>2026-05-28T09:56:21.999Z</time>
      </trkpt>
      <trkpt lat="44.01979" lon="3.50619">
        <ele>1138.9</ele>
        <time>2026-05-28T09:56:22.999Z</time>
      </trkpt>
      <trkpt lat="44.01979" lon="3.50618">
        <ele>1138.8</ele>
        <time>2026-05-28T09:56:23.999Z</time>
      </trkpt>
      <trkpt lat="44.01979" lon="3.50618">
        <ele>1138.6</ele>
        <time>2026-05-28T09:56:24.999Z</time>
      </trkpt>
      <trkpt lat="44.01979" lon="3.50618">
        <ele>1138.3</ele>
        <time>2026-05-28T09:56:25.999Z</time>
      </trkpt>
      <trkpt lat="44.01979" lon="3.50618">
        <ele>1138.1</ele>
        <time>2026-05-28T09:56:26.999Z</time>
      </trkpt>
      <trkpt lat="44.01979" lon="3.50618">
        <ele>1138</ele>
        <time>2026-05-28T09:56:27.999Z</time>
      </trkpt>
      <trkpt lat="44.01979" lon="3.50618">
        <ele>1138</ele>
        <time>2026-05-28T09:56:28.999Z</time>
      </trkpt>
      <trkpt lat="44.01979" lon="3.50618">
        <ele>1138.1</ele>
        <time>2026-05-28T09:56:29.999Z</time>
      </trkpt>
      <trkpt lat="44.01979" lon="3.50618">
        <ele>1138.5</ele>
        <time>2026-05-28T09:56:30.999Z</time>
      </trkpt>
      <trkpt lat="44.01979" lon="3.50618">
        <ele>1138.5</ele>
        <time>2026-05-28T09:56:31.999Z</time>
      </trkpt>
      <trkpt lat="44.01979" lon="3.50618">
        <ele>1138.4</ele>
        <time>2026-05-28T09:56:32.999Z</time>
      </trkpt>
      <trkpt lat="44.01979" lon="3.50618">
        <ele>1138.2</ele>
        <time>2026-05-28T09:56:34.999Z</time>
      </trkpt>
      <trkpt lat="44.01979" lon="3.50618">
        <ele>1138.1</ele>
        <time>2026-05-28T09:56:35.999Z</time>
      </trkpt>
      <trkpt lat="44.01979" lon="3.50618">
        <ele>1138.2</ele>
        <time>2026-05-28T09:56:36.999Z</time>
      </trkpt>
      <trkpt lat="44.0198" lon="3.50618">
        <ele>1138.6</ele>
        <time>2026-05-28T09:56:37.999Z</time>
      </trkpt>
      <trkpt lat="44.0198" lon="3.50618">
        <ele>1139.3</ele>
        <time>2026-05-28T09:56:38.999Z</time>
      </trkpt>
      <trkpt lat="44.0198" lon="3.50618">
        <ele>1139.6</ele>
        <time>2026-05-28T09:56:39.999Z</time>
      </trkpt>
      <trkpt lat="44.01981" lon="3.50618">
        <ele>1139.9</ele>
        <time>2026-05-28T09:56:40.999Z</time>
      </trkpt>
      <trkpt lat="44.01981" lon="3.50618">
        <ele>1140.3</ele>
        <time>2026-05-28T09:56:41.999Z</time>
      </trkpt>
      <trkpt lat="44.01981" lon="3.50618">
        <ele>1140.5</ele>
        <time>2026-05-28T09:56:42.999Z</time>
      </trkpt>
      <trkpt lat="44.01981" lon="3.50618">
        <ele>1140.9</ele>
        <time>2026-05-28T09:56:43.999Z</time>
      </trkpt>
      <trkpt lat="44.01981" lon="3.50618">
        <ele>1140.6</ele>
        <time>2026-05-28T09:56:44.999Z</time>
      </trkpt>
      <trkpt lat="44.01981" lon="3.50618">
        <ele>1140.4</ele>
        <time>2026-05-28T09:56:45.999Z</time>
      </trkpt>
      <trkpt lat="44.0198" lon="3.50618">
        <ele>1140.2</ele>
        <time>2026-05-28T09:56:46.999Z</time>
      </trkpt>
      <trkpt lat="44.0198" lon="3.50618">
        <ele>1140</ele>
        <time>2026-05-28T09:56:47.999Z</time>
      </trkpt>
      <trkpt lat="44.01981" lon="3.50618">
        <ele>1140.3</ele>
        <time>2026-05-28T09:56:48.999Z</time>
      </trkpt>
      <trkpt lat="44.0198" lon="3.50618">
        <ele>1140.2</ele>
        <time>2026-05-28T09:56:49.999Z</time>
      </trkpt>
      <trkpt lat="44.0198" lon="3.50618">
        <ele>1140</ele>
        <time>2026-05-28T09:56:50.999Z</time>
      </trkpt>
      <trkpt lat="44.0198" lon="3.50618">
        <ele>1139.5</ele>
        <time>2026-05-28T09:56:51.999Z</time>
      </trkpt>
      <trkpt lat="44.0198" lon="3.50618">
        <ele>1139.5</ele>
        <time>2026-05-28T09:56:52.999Z</time>
      </trkpt>
      <trkpt lat="44.0198" lon="3.50618">
        <ele>1139.4</ele>
        <time>2026-05-28T09:56:53.999Z</time>
      </trkpt>
      <trkpt lat="44.0198" lon="3.50618">
        <ele>1139.5</ele>
        <time>2026-05-28T09:56:54.999Z</time>
      </trkpt>
      <trkpt lat="44.0198" lon="3.50618">
        <ele>1139.6</ele>
        <time>2026-05-28T09:56:55.999Z</time>
      </trkpt>
      <trkpt lat="44.0198" lon="3.50618">
        <ele>1139.6</ele>
        <time>2026-05-28T09:56:56.999Z</time>
      </trkpt>
      <trkpt lat="44.0198" lon="3.50618">
        <ele>1139.7</ele>
        <time>2026-05-28T09:56:57.999Z</time>
      </trkpt>
      <trkpt lat="44.0198" lon="3.50618">
        <ele>1139.8</ele>
        <time>2026-05-28T09:56:58.999Z</time>
      </trkpt>
      <trkpt lat="44.0198" lon="3.50618">
        <ele>1139.8</ele>
        <time>2026-05-28T09:56:59.999Z</time>
      </trkpt>
      <trkpt lat="44.0198" lon="3.50618">
        <ele>1140</ele>
        <time>2026-05-28T09:57:00.999Z</time>
      </trkpt>
      <trkpt lat="44.0198" lon="3.50619">
        <ele>1139.9</ele>
        <time>2026-05-28T09:57:01.999Z</time>
      </trkpt>
      <trkpt lat="44.0198" lon="3.50619">
        <ele>1140</ele>
        <time>2026-05-28T09:57:02.999Z</time>
      </trkpt>
      <trkpt lat="44.0198" lon="3.50619">
        <ele>1140.1</ele>
        <time>2026-05-28T09:57:03.999Z</time>
      </trkpt>
      <trkpt lat="44.0198" lon="3.50619">
        <ele>1140.4</ele>
        <time>2026-05-28T09:57:04.999Z</time>
      </trkpt>
      <trkpt lat="44.0198" lon="3.50619">
        <ele>1140.7</ele>
        <time>2026-05-28T09:57:05.999Z</time>
      </trkpt>
      <trkpt lat="44.0198" lon="3.50619">
        <ele>1140.7</ele>
        <time>2026-05-28T09:57:06.999Z</time>
      </trkpt>
      <trkpt lat="44.0198" lon="3.50619">
        <ele>1140.7</ele>
        <time>2026-05-28T09:57:07.999Z</time>
      </trkpt>
      <trkpt lat="44.0198" lon="3.50619">
        <ele>1140.8</ele>
        <time>2026-05-28T09:57:08.999Z</time>
      </trkpt>
      <trkpt lat="44.0198" lon="3.50619">
        <ele>1140.8</ele>
        <time>2026-05-28T09:57:09.999Z</time>
      </trkpt>
      <trkpt lat="44.0198" lon="3.50619">
        <ele>1140.7</ele>
        <time>2026-05-28T09:57:10.999Z</time>
      </trkpt>
      <trkpt lat="44.0198" lon="3.50619">
        <ele>1140.4</ele>
        <time>2026-05-28T09:57:11.999Z</time>
      </trkpt>
      <trkpt lat="44.0198" lon="3.50619">
        <ele>1140.2</ele>
        <time>2026-05-28T09:57:12.999Z</time>
      </trkpt>
      <trkpt lat="44.0198" lon="3.50619">
        <ele>1140.1</ele>
        <time>2026-05-28T09:57:13.999Z</time>
      </trkpt>
      <trkpt lat="44.0198" lon="3.50619">
        <ele>1140.2</ele>
        <time>2026-05-28T09:57:14.999Z</time>
      </trkpt>
      <trkpt lat="44.0198" lon="3.50619">
        <ele>1140.3</ele>
        <time>2026-05-28T09:57:15.999Z</time>
      </trkpt>
      <trkpt lat="44.0198" lon="3.50619">
        <ele>1140.3</ele>
        <time>2026-05-28T09:57:16.999Z</time>
      </trkpt>
      <trkpt lat="44.01979" lon="3.50619">
        <ele>1140.1</ele>
        <time>2026-05-28T09:57:17.999Z</time>
      </trkpt>
      <trkpt lat="44.01979" lon="3.50619">
        <ele>1139.7</ele>
        <time>2026-05-28T09:57:18.999Z</time>
      </trkpt>
      <trkpt lat="44.01979" lon="3.50619">
        <ele>1139.7</ele>
        <time>2026-05-28T09:57:19.999Z</time>
      </trkpt>
      <trkpt lat="44.01979" lon="3.5062">
        <ele>1139.5</ele>
        <time>2026-05-28T09:57:20.999Z</time>
      </trkpt>
      <trkpt lat="44.01979" lon="3.5062">
        <ele>1139.2</ele>
        <time>2026-05-28T09:57:21.999Z</time>
      </trkpt>
      <trkpt lat="44.01979" lon="3.5062">
        <ele>1139.3</ele>
        <time>2026-05-28T09:57:22.999Z</time>
      </trkpt>
      <trkpt lat="44.01979" lon="3.5062">
        <ele>1139.1</ele>
        <time>2026-05-28T09:57:23.999Z</time>
      </trkpt>
      <trkpt lat="44.01979" lon="3.5062">
        <ele>1138.9</ele>
        <time>2026-05-28T09:57:24.999Z</time>
      </trkpt>
      <trkpt lat="44.01979" lon="3.5062">
        <ele>1138.7</ele>
        <time>2026-05-28T09:57:25.999Z</time>
      </trkpt>
      <trkpt lat="44.01979" lon="3.5062">
        <ele>1138.6</ele>
        <time>2026-05-28T09:57:26.999Z</time>
      </trkpt>
      <trkpt lat="44.01979" lon="3.5062">
        <ele>1138.4</ele>
        <time>2026-05-28T09:57:27.999Z</time>
      </trkpt>
      <trkpt lat="44.01979" lon="3.5062">
        <ele>1138.3</ele>
        <time>2026-05-28T09:57:28.999Z</time>
      </trkpt>
      <trkpt lat="44.01979" lon="3.5062">
        <ele>1138.3</ele>
        <time>2026-05-28T09:57:29.999Z</time>
      </trkpt>
      <trkpt lat="44.01979" lon="3.5062">
        <ele>1138.4</ele>
        <time>2026-05-28T09:57:30.999Z</time>
      </trkpt>
      <trkpt lat="44.01979" lon="3.5062">
        <ele>1138.4</ele>
        <time>2026-05-28T09:57:31.999Z</time>
      </trkpt>
      <trkpt lat="44.01979" lon="3.5062">
        <ele>1138.2</ele>
        <time>2026-05-28T09:57:32.999Z</time>
      </trkpt>
      <trkpt lat="44.01979" lon="3.5062">
        <ele>1138.4</ele>
        <time>2026-05-28T09:57:33.999Z</time>
      </trkpt>
      <trkpt lat="44.01979" lon="3.5062">
        <ele>1138.5</ele>
        <time>2026-05-28T09:57:34.999Z</time>
      </trkpt>
      <trkpt lat="44.01979" lon="3.5062">
        <ele>1138.4</ele>
        <time>2026-05-28T09:57:35.999Z</time>
      </trkpt>
      <trkpt lat="44.01979" lon="3.5062">
        <ele>1138.4</ele>
        <time>2026-05-28T09:57:36.999Z</time>
      </trkpt>
      <trkpt lat="44.01979" lon="3.5062">
        <ele>1138.3</ele>
        <time>2026-05-28T09:57:37.999Z</time>
      </trkpt>
      <trkpt lat="44.01979" lon="3.5062">
        <ele>1138.2</ele>
        <time>2026-05-28T09:57:38.999Z</time>
      </trkpt>
      <trkpt lat="44.01979" lon="3.5062">
        <ele>1138.1</ele>
        <time>2026-05-28T09:57:39.999Z</time>
      </trkpt>
      <trkpt lat="44.01979" lon="3.5062">
        <ele>1138.2</ele>
        <time>2026-05-28T09:57:40.999Z</time>
      </trkpt>
      <trkpt lat="44.01979" lon="3.5062">
        <ele>1138.3</ele>
        <time>2026-05-28T09:57:41.999Z</time>
      </trkpt>
      <trkpt lat="44.01979" lon="3.5062">
        <ele>1138.4</ele>
        <time>2026-05-28T09:57:42.999Z</time>
      </trkpt>
      <trkpt lat="44.01979" lon="3.5062">
        <ele>1138.1</ele>
        <time>2026-05-28T09:57:43.999Z</time>
      </trkpt>
      <trkpt lat="44.01979" lon="3.5062">
        <ele>1138</ele>
        <time>2026-05-28T09:57:44.999Z</time>
      </trkpt>
      <trkpt lat="44.01979" lon="3.5062">
        <ele>1137.7</ele>
        <time>2026-05-28T09:57:45.999Z</time>
      </trkpt>
      <trkpt lat="44.01979" lon="3.5062">
        <ele>1137.6</ele>
        <time>2026-05-28T09:57:46.999Z</time>
      </trkpt>
      <trkpt lat="44.01979" lon="3.5062">
        <ele>1137.6</ele>
        <time>2026-05-28T09:57:47.999Z</time>
      </trkpt>
      <trkpt lat="44.01979" lon="3.5062">
        <ele>1137.3</ele>
        <time>2026-05-28T09:57:48.999Z</time>
      </trkpt>
      <trkpt lat="44.01979" lon="3.5062">
        <ele>1137.4</ele>
        <time>2026-05-28T09:57:49.999Z</time>
      </trkpt>
      <trkpt lat="44.01979" lon="3.5062">
        <ele>1137.9</ele>
        <time>2026-05-28T09:57:50.999Z</time>
      </trkpt>
      <trkpt lat="44.01979" lon="3.5062">
        <ele>1138.1</ele>
        <time>2026-05-28T09:57:51.999Z</time>
      </trkpt>
      <trkpt lat="44.01979" lon="3.5062">
        <ele>1138.6</ele>
        <time>2026-05-28T09:57:52.999Z</time>
      </trkpt>
      <trkpt lat="44.01979" lon="3.5062">
        <ele>1138.9</ele>
        <time>2026-05-28T09:57:53.999Z</time>
      </trkpt>
      <trkpt lat="44.01979" lon="3.5062">
        <ele>1139.4</ele>
        <time>2026-05-28T09:57:54.999Z</time>
      </trkpt>
      <trkpt lat="44.0198" lon="3.5062">
        <ele>1139.5</ele>
        <time>2026-05-28T09:57:55.999Z</time>
      </trkpt>
      <trkpt lat="44.0198" lon="3.5062">
        <ele>1139.8</ele>
        <time>2026-05-28T09:57:56.999Z</time>
      </trkpt>
      <trkpt lat="44.0198" lon="3.5062">
        <ele>1139.9</ele>
        <time>2026-05-28T09:57:57.999Z</time>
      </trkpt>
      <trkpt lat="44.0198" lon="3.5062">
        <ele>1140</ele>
        <time>2026-05-28T09:57:58.999Z</time>
      </trkpt>
      <trkpt lat="44.0198" lon="3.5062">
        <ele>1140.2</ele>
        <time>2026-05-28T09:57:59.999Z</time>
      </trkpt>
      <trkpt lat="44.0198" lon="3.5062">
        <ele>1140.1</ele>
        <time>2026-05-28T09:58:00.999Z</time>
      </trkpt>
      <trkpt lat="44.0198" lon="3.5062">
        <ele>1140.2</ele>
        <time>2026-05-28T09:58:01.999Z</time>
      </trkpt>
      <trkpt lat="44.0198" lon="3.50619">
        <ele>1140.2</ele>
        <time>2026-05-28T09:58:02.999Z</time>
      </trkpt>
      <trkpt lat="44.0198" lon="3.50619">
        <ele>1140.3</ele>
        <time>2026-05-28T09:58:03.999Z</time>
      </trkpt>
      <trkpt lat="44.0198" lon="3.50619">
        <ele>1140</ele>
        <time>2026-05-28T09:58:04.999Z</time>
      </trkpt>
      <trkpt lat="44.01981" lon="3.50619">
        <ele>1140.2</ele>
        <time>2026-05-28T09:58:05.999Z</time>
      </trkpt>
      <trkpt lat="44.01981" lon="3.50619">
        <ele>1140.2</ele>
        <time>2026-05-28T09:58:06.999Z</time>
      </trkpt>
      <trkpt lat="44.01981" lon="3.50619">
        <ele>1140.1</ele>
        <time>2026-05-28T09:58:07.999Z</time>
      </trkpt>
      <trkpt lat="44.01981" lon="3.50619">
        <ele>1139.9</ele>
        <time>2026-05-28T09:58:08.999Z</time>
      </trkpt>
      <trkpt lat="44.01981" lon="3.50619">
        <ele>1139.6</ele>
        <time>2026-05-28T09:58:09.999Z</time>
      </trkpt>
      <trkpt lat="44.01981" lon="3.50619">
        <ele>1139.5</ele>
        <time>2026-05-28T09:58:10.999Z</time>
      </trkpt>
      <trkpt lat="44.01981" lon="3.50619">
        <ele>1139.5</ele>
        <time>2026-05-28T09:58:11.999Z</time>
      </trkpt>
      <trkpt lat="44.01981" lon="3.50619">
        <ele>1139.6</ele>
        <time>2026-05-28T09:58:12.999Z</time>
      </trkpt>
      <trkpt lat="44.01981" lon="3.50619">
        <ele>1139.9</ele>
        <time>2026-05-28T09:58:13.999Z</time>
      </trkpt>
      <trkpt lat="44.01981" lon="3.50619">
        <ele>1140</ele>
        <time>2026-05-28T09:58:14.999Z</time>
      </trkpt>
      <trkpt lat="44.01981" lon="3.50619">
        <ele>1140.3</ele>
        <time>2026-05-28T09:58:15.999Z</time>
      </trkpt>
      <trkpt lat="44.01981" lon="3.50619">
        <ele>1140.7</ele>
        <time>2026-05-28T09:58:16.999Z</time>
      </trkpt>
      <trkpt lat="44.01981" lon="3.5062">
        <ele>1141</ele>
        <time>2026-05-28T09:58:18.999Z</time>
      </trkpt>
      <trkpt lat="44.0198" lon="3.5062">
        <ele>1141</ele>
        <time>2026-05-28T09:58:19.999Z</time>
      </trkpt>
      <trkpt lat="44.01981" lon="3.5062">
        <ele>1140.7</ele>
        <time>2026-05-28T09:58:20.999Z</time>
      </trkpt>
      <trkpt lat="44.0198" lon="3.5062">
        <ele>1140.6</ele>
        <time>2026-05-28T09:58:21.999Z</time>
      </trkpt>
      <trkpt lat="44.01981" lon="3.5062">
        <ele>1141.1</ele>
        <time>2026-05-28T09:58:22.999Z</time>
      </trkpt>
      <trkpt lat="44.01981" lon="3.5062">
        <ele>1141.5</ele>
        <time>2026-05-28T09:58:23.999Z</time>
      </trkpt>
      <trkpt lat="44.01981" lon="3.5062">
        <ele>1141.8</ele>
        <time>2026-05-28T09:58:24.999Z</time>
      </trkpt>
      <trkpt lat="44.01981" lon="3.5062">
        <ele>1142.1</ele>
        <time>2026-05-28T09:58:25.999Z</time>
      </trkpt>
      <trkpt lat="44.01981" lon="3.5062">
        <ele>1142.4</ele>
        <time>2026-05-28T09:58:26.999Z</time>
      </trkpt>
      <trkpt lat="44.01981" lon="3.5062">
        <ele>1142.6</ele>
        <time>2026-05-28T09:58:27.999Z</time>
      </trkpt>
      <trkpt lat="44.01981" lon="3.5062">
        <ele>1142.6</ele>
        <time>2026-05-28T09:58:28.999Z</time>
      </trkpt>
      <trkpt lat="44.0198" lon="3.5062">
        <ele>1142.4</ele>
        <time>2026-05-28T09:58:29.999Z</time>
      </trkpt>
      <trkpt lat="44.0198" lon="3.5062">
        <ele>1141.9</ele>
        <time>2026-05-28T09:58:30.999Z</time>
      </trkpt>
      <trkpt lat="44.0198" lon="3.50621">
        <ele>1141.9</ele>
        <time>2026-05-28T09:58:31.999Z</time>
      </trkpt>
      <trkpt lat="44.0198" lon="3.50621">
        <ele>1141.6</ele>
        <time>2026-05-28T09:58:32.999Z</time>
      </trkpt>
      <trkpt lat="44.0198" lon="3.50621">
        <ele>1141.4</ele>
        <time>2026-05-28T09:58:33.999Z</time>
      </trkpt>
      <trkpt lat="44.0198" lon="3.50621">
        <ele>1141.2</ele>
        <time>2026-05-28T09:58:34.999Z</time>
      </trkpt>
      <trkpt lat="44.0198" lon="3.50621">
        <ele>1140.9</ele>
        <time>2026-05-28T09:58:35.999Z</time>
      </trkpt>
      <trkpt lat="44.0198" lon="3.50621">
        <ele>1140.8</ele>
        <time>2026-05-28T09:58:36.999Z</time>
      </trkpt>
      <trkpt lat="44.0198" lon="3.50621">
        <ele>1140.6</ele>
        <time>2026-05-28T09:58:37.999Z</time>
      </trkpt>
      <trkpt lat="44.0198" lon="3.50621">
        <ele>1140.6</ele>
        <time>2026-05-28T09:58:38.999Z</time>
      </trkpt>
      <trkpt lat="44.0198" lon="3.50621">
        <ele>1140.8</ele>
        <time>2026-05-28T09:58:39.999Z</time>
      </trkpt>
      <trkpt lat="44.0198" lon="3.50621">
        <ele>1141.1</ele>
        <time>2026-05-28T09:58:40.999Z</time>
      </trkpt>
      <trkpt lat="44.0198" lon="3.50621">
        <ele>1141.3</ele>
        <time>2026-05-28T09:58:41.999Z</time>
      </trkpt>
      <trkpt lat="44.0198" lon="3.50621">
        <ele>1141.5</ele>
        <time>2026-05-28T09:58:42.999Z</time>
      </trkpt>
      <trkpt lat="44.0198" lon="3.50621">
        <ele>1141.6</ele>
        <time>2026-05-28T09:58:43.999Z</time>
      </trkpt>
      <trkpt lat="44.0198" lon="3.50621">
        <ele>1141.5</ele>
        <time>2026-05-28T09:58:44.999Z</time>
      </trkpt>
      <trkpt lat="44.0198" lon="3.50621">
        <ele>1141.3</ele>
        <time>2026-05-28T09:58:45.999Z</time>
      </trkpt>
      <trkpt lat="44.0198" lon="3.50621">
        <ele>1141.1</ele>
        <time>2026-05-28T09:58:46.999Z</time>
      </trkpt>
      <trkpt lat="44.0198" lon="3.50621">
        <ele>1141</ele>
        <time>2026-05-28T09:58:47.999Z</time>
      </trkpt>
      <trkpt lat="44.0198" lon="3.50621">
        <ele>1141</ele>
        <time>2026-05-28T09:58:48.999Z</time>
      </trkpt>
      <trkpt lat="44.0198" lon="3.50621">
        <ele>1141.2</ele>
        <time>2026-05-28T09:58:49.999Z</time>
      </trkpt>
      <trkpt lat="44.0198" lon="3.50621">
        <ele>1141.3</ele>
        <time>2026-05-28T09:58:50.999Z</time>
      </trkpt>
      <trkpt lat="44.0198" lon="3.50621">
        <ele>1141.3</ele>
        <time>2026-05-28T09:58:51.999Z</time>
      </trkpt>
      <trkpt lat="44.0198" lon="3.50621">
        <ele>1141.2</ele>
        <time>2026-05-28T09:58:52.999Z</time>
      </trkpt>
      <trkpt lat="44.0198" lon="3.50621">
        <ele>1141.5</ele>
        <time>2026-05-28T09:58:53.999Z</time>
      </trkpt>
      <trkpt lat="44.0198" lon="3.50621">
        <ele>1141.6</ele>
        <time>2026-05-28T09:58:54.999Z</time>
      </trkpt>
      <trkpt lat="44.0198" lon="3.50621">
        <ele>1141.7</ele>
        <time>2026-05-28T09:58:55.999Z</time>
      </trkpt>
      <trkpt lat="44.0198" lon="3.50621">
        <ele>1141.8</ele>
        <time>2026-05-28T09:58:56.999Z</time>
      </trkpt>
      <trkpt lat="44.0198" lon="3.50621">
        <ele>1142</ele>
        <time>2026-05-28T09:58:57.999Z</time>
      </trkpt>
      <trkpt lat="44.0198" lon="3.50621">
        <ele>1142.2</ele>
        <time>2026-05-28T09:58:58.999Z</time>
      </trkpt>
      <trkpt lat="44.0198" lon="3.50621">
        <ele>1142.6</ele>
        <time>2026-05-28T09:58:59.999Z</time>
      </trkpt>
      <trkpt lat="44.0198" lon="3.50621">
        <ele>1143</ele>
        <time>2026-05-28T09:59:00.999Z</time>
      </trkpt>
      <trkpt lat="44.0198" lon="3.50621">
        <ele>1143.2</ele>
        <time>2026-05-28T09:59:01.999Z</time>
      </trkpt>
      <trkpt lat="44.0198" lon="3.50621">
        <ele>1143.4</ele>
        <time>2026-05-28T09:59:02.999Z</time>
      </trkpt>
      <trkpt lat="44.0198" lon="3.50621">
        <ele>1143.7</ele>
        <time>2026-05-28T09:59:03.999Z</time>
      </trkpt>
      <trkpt lat="44.0198" lon="3.50621">
        <ele>1144</ele>
        <time>2026-05-28T09:59:04.999Z</time>
      </trkpt>
      <trkpt lat="44.0198" lon="3.50621">
        <ele>1144.3</ele>
        <time>2026-05-28T09:59:05.999Z</time>
      </trkpt>
      <trkpt lat="44.0198" lon="3.50621">
        <ele>1144.6</ele>
        <time>2026-05-28T09:59:06.999Z</time>
      </trkpt>
      <trkpt lat="44.0198" lon="3.50621">
        <ele>1144.7</ele>
        <time>2026-05-28T09:59:07.999Z</time>
      </trkpt>
      <trkpt lat="44.0198" lon="3.50621">
        <ele>1144.9</ele>
        <time>2026-05-28T09:59:08.999Z</time>
      </trkpt>
      <trkpt lat="44.0198" lon="3.50621">
        <ele>1145</ele>
        <time>2026-05-28T09:59:09.999Z</time>
      </trkpt>
      <trkpt lat="44.01981" lon="3.50621">
        <ele>1145.2</ele>
        <time>2026-05-28T09:59:10.999Z</time>
      </trkpt>
      <trkpt lat="44.01981" lon="3.50621">
        <ele>1145.1</ele>
        <time>2026-05-28T09:59:11.999Z</time>
      </trkpt>
      <trkpt lat="44.01981" lon="3.50621">
        <ele>1145.1</ele>
        <time>2026-05-28T09:59:12.999Z</time>
      </trkpt>
      <trkpt lat="44.01981" lon="3.50621">
        <ele>1144.9</ele>
        <time>2026-05-28T09:59:13.999Z</time>
      </trkpt>
      <trkpt lat="44.0198" lon="3.50621">
        <ele>1145</ele>
        <time>2026-05-28T09:59:14.999Z</time>
      </trkpt>
      <trkpt lat="44.0198" lon="3.50621">
        <ele>1145.4</ele>
        <time>2026-05-28T09:59:15.999Z</time>
      </trkpt>
      <trkpt lat="44.0198" lon="3.50621">
        <ele>1145.5</ele>
        <time>2026-05-28T09:59:16.999Z</time>
      </trkpt>
      <trkpt lat="44.0198" lon="3.50621">
        <ele>1145.3</ele>
        <time>2026-05-28T09:59:17.999Z</time>
      </trkpt>
      <trkpt lat="44.0198" lon="3.50621">
        <ele>1145.1</ele>
        <time>2026-05-28T09:59:18.999Z</time>
      </trkpt>
      <trkpt lat="44.0198" lon="3.5062">
        <ele>1144.9</ele>
        <time>2026-05-28T09:59:19.999Z</time>
      </trkpt>
      <trkpt lat="44.0198" lon="3.5062">
        <ele>1144.7</ele>
        <time>2026-05-28T09:59:20.999Z</time>
      </trkpt>
      <trkpt lat="44.0198" lon="3.5062">
        <ele>1144.6</ele>
        <time>2026-05-28T09:59:21.999Z</time>
      </trkpt>
      <trkpt lat="44.0198" lon="3.5062">
        <ele>1144.3</ele>
        <time>2026-05-28T09:59:22.999Z</time>
      </trkpt>
      <trkpt lat="44.0198" lon="3.5062">
        <ele>1144.4</ele>
        <time>2026-05-28T09:59:23.999Z</time>
      </trkpt>
      <trkpt lat="44.0198" lon="3.5062">
        <ele>1144.3</ele>
        <time>2026-05-28T09:59:24.999Z</time>
      </trkpt>
      <trkpt lat="44.0198" lon="3.5062">
        <ele>1144.3</ele>
        <time>2026-05-28T09:59:25.999Z</time>
      </trkpt>
      <trkpt lat="44.0198" lon="3.5062">
        <ele>1144.2</ele>
        <time>2026-05-28T09:59:26.999Z</time>
      </trkpt>
      <trkpt lat="44.0198" lon="3.5062">
        <ele>1144.2</ele>
        <time>2026-05-28T09:59:27.999Z</time>
      </trkpt>
      <trkpt lat="44.0198" lon="3.5062">
        <ele>1144</ele>
        <time>2026-05-28T09:59:28.999Z</time>
      </trkpt>
      <trkpt lat="44.0198" lon="3.5062">
        <ele>1144</ele>
        <time>2026-05-28T09:59:29.999Z</time>
      </trkpt>
      <trkpt lat="44.0198" lon="3.5062">
        <ele>1143.9</ele>
        <time>2026-05-28T09:59:30.999Z</time>
      </trkpt>
      <trkpt lat="44.0198" lon="3.5062">
        <ele>1144.3</ele>
        <time>2026-05-28T09:59:31.999Z</time>
      </trkpt>
      <trkpt lat="44.0198" lon="3.5062">
        <ele>1144.6</ele>
        <time>2026-05-28T09:59:32.999Z</time>
      </trkpt>
      <trkpt lat="44.0198" lon="3.5062">
        <ele>1144.8</ele>
        <time>2026-05-28T09:59:33.999Z</time>
      </trkpt>
      <trkpt lat="44.01979" lon="3.50621">
        <ele>1145.1</ele>
        <time>2026-05-28T09:59:34.999Z</time>
      </trkpt>
      <trkpt lat="44.01979" lon="3.50621">
        <ele>1145.5</ele>
        <time>2026-05-28T09:59:35.999Z</time>
      </trkpt>
      <trkpt lat="44.01979" lon="3.5062">
        <ele>1146</ele>
        <time>2026-05-28T09:59:36.999Z</time>
      </trkpt>
      <trkpt lat="44.01979" lon="3.5062">
        <ele>1146.2</ele>
        <time>2026-05-28T09:59:37.999Z</time>
      </trkpt>
      <trkpt lat="44.01979" lon="3.5062">
        <ele>1146.2</ele>
        <time>2026-05-28T09:59:38.999Z</time>
      </trkpt>
      <trkpt lat="44.01979" lon="3.5062">
        <ele>1146.4</ele>
        <time>2026-05-28T09:59:39.999Z</time>
      </trkpt>
      <trkpt lat="44.01979" lon="3.5062">
        <ele>1146.2</ele>
        <time>2026-05-28T09:59:40.999Z</time>
      </trkpt>
      <trkpt lat="44.01979" lon="3.5062">
        <ele>1146.2</ele>
        <time>2026-05-28T09:59:41.999Z</time>
      </trkpt>
      <trkpt lat="44.01979" lon="3.5062">
        <ele>1146.4</ele>
        <time>2026-05-28T09:59:42.999Z</time>
      </trkpt>
      <trkpt lat="44.01979" lon="3.5062">
        <ele>1146.3</ele>
        <time>2026-05-28T09:59:43.999Z</time>
      </trkpt>
      <trkpt lat="44.01979" lon="3.5062">
        <ele>1146.3</ele>
        <time>2026-05-28T09:59:44.999Z</time>
      </trkpt>
      <trkpt lat="44.01979" lon="3.5062">
        <ele>1146.3</ele>
        <time>2026-05-28T09:59:45.999Z</time>
      </trkpt>
      <trkpt lat="44.01979" lon="3.5062">
        <ele>1146.2</ele>
        <time>2026-05-28T09:59:46.999Z</time>
      </trkpt>
      <trkpt lat="44.01979" lon="3.5062">
        <ele>1146.3</ele>
        <time>2026-05-28T09:59:47.999Z</time>
      </trkpt>
      <trkpt lat="44.01979" lon="3.5062">
        <ele>1146.3</ele>
        <time>2026-05-28T09:59:48.999Z</time>
      </trkpt>
      <trkpt lat="44.01979" lon="3.5062">
        <ele>1146.1</ele>
        <time>2026-05-28T09:59:49.999Z</time>
      </trkpt>
      <trkpt lat="44.01979" lon="3.5062">
        <ele>1145.8</ele>
        <time>2026-05-28T09:59:50.999Z</time>
      </trkpt>
      <trkpt lat="44.01978" lon="3.5062">
        <ele>1145.7</ele>
        <time>2026-05-28T09:59:51.999Z</time>
      </trkpt>
      <trkpt lat="44.01978" lon="3.5062">
        <ele>1145.4</ele>
        <time>2026-05-28T09:59:52.999Z</time>
      </trkpt>
      <trkpt lat="44.01978" lon="3.5062">
        <ele>1145.2</ele>
        <time>2026-05-28T09:59:53.999Z</time>
      </trkpt>
      <trkpt lat="44.01979" lon="3.5062">
        <ele>1145.3</ele>
        <time>2026-05-28T09:59:54.999Z</time>
      </trkpt>
      <trkpt lat="44.01979" lon="3.5062">
        <ele>1145.4</ele>
        <time>2026-05-28T09:59:55.999Z</time>
      </trkpt>
      <trkpt lat="44.01979" lon="3.5062">
        <ele>1145.6</ele>
        <time>2026-05-28T09:59:56.999Z</time>
      </trkpt>
      <trkpt lat="44.01979" lon="3.5062">
        <ele>1145.7</ele>
        <time>2026-05-28T09:59:57.999Z</time>
      </trkpt>
      <trkpt lat="44.01979" lon="3.5062">
        <ele>1145.8</ele>
        <time>2026-05-28T09:59:58.999Z</time>
      </trkpt>
      <trkpt lat="44.01979" lon="3.5062">
        <ele>1146</ele>
        <time>2026-05-28T09:59:59.999Z</time>
      </trkpt>
      <trkpt lat="44.01979" lon="3.5062">
        <ele>1146.2</ele>
        <time>2026-05-28T10:00:00.999Z</time>
      </trkpt>
      <trkpt lat="44.01979" lon="3.5062">
        <ele>1146.7</ele>
        <time>2026-05-28T10:00:01.999Z</time>
      </trkpt>
      <trkpt lat="44.01979" lon="3.5062">
        <ele>1146.9</ele>
        <time>2026-05-28T10:00:02.999Z</time>
      </trkpt>
      <trkpt lat="44.01979" lon="3.5062">
        <ele>1146.8</ele>
        <time>2026-05-28T10:00:03.999Z</time>
      </trkpt>
      <trkpt lat="44.01979" lon="3.5062">
        <ele>1146.8</ele>
        <time>2026-05-28T10:00:04.999Z</time>
      </trkpt>
      <trkpt lat="44.01979" lon="3.5062">
        <ele>1146.8</ele>
        <time>2026-05-28T10:00:05.999Z</time>
      </trkpt>
      <trkpt lat="44.01979" lon="3.5062">
        <ele>1146.7</ele>
        <time>2026-05-28T10:00:06.999Z</time>
      </trkpt>
      <trkpt lat="44.01979" lon="3.5062">
        <ele>1146.5</ele>
        <time>2026-05-28T10:00:07.999Z</time>
      </trkpt>
      <trkpt lat="44.01979" lon="3.5062">
        <ele>1146.4</ele>
        <time>2026-05-28T10:00:08.999Z</time>
      </trkpt>
      <trkpt lat="44.01979" lon="3.5062">
        <ele>1146.3</ele>
        <time>2026-05-28T10:00:09.999Z</time>
      </trkpt>
      <trkpt lat="44.01979" lon="3.5062">
        <ele>1146.2</ele>
        <time>2026-05-28T10:00:10.999Z</time>
      </trkpt>
      <trkpt lat="44.01979" lon="3.5062">
        <ele>1146</ele>
        <time>2026-05-28T10:00:11.999Z</time>
      </trkpt>
      <trkpt lat="44.01979" lon="3.5062">
        <ele>1145.7</ele>
        <time>2026-05-28T10:00:12.999Z</time>
      </trkpt>
      <trkpt lat="44.01978" lon="3.5062">
        <ele>1145.5</ele>
        <time>2026-05-28T10:00:13.999Z</time>
      </trkpt>
      <trkpt lat="44.01977" lon="3.5062">
        <ele>1145.2</ele>
        <time>2026-05-28T10:00:14.999Z</time>
      </trkpt>
      <trkpt lat="44.01977" lon="3.50618">
        <ele>1145.1</ele>
        <time>2026-05-28T10:00:15.999Z</time>
      </trkpt>
      <trkpt lat="44.01976" lon="3.50618">
        <ele>1144.9</ele>
        <time>2026-05-28T10:00:16.999Z</time>
      </trkpt>
      <trkpt lat="44.01977" lon="3.50618">
        <ele>1145.4</ele>
        <time>2026-05-28T10:00:17.999Z</time>
      </trkpt>
      <trkpt lat="44.01977" lon="3.50618">
        <ele>1145.5</ele>
        <time>2026-05-28T10:00:18.999Z</time>
      </trkpt>
      <trkpt lat="44.01977" lon="3.50618">
        <ele>1145.3</ele>
        <time>2026-05-28T10:00:19.999Z</time>
      </trkpt>
      <trkpt lat="44.01977" lon="3.50618">
        <ele>1145.3</ele>
        <time>2026-05-28T10:00:20.999Z</time>
      </trkpt>
      <trkpt lat="44.01977" lon="3.50618">
        <ele>1145.2</ele>
        <time>2026-05-28T10:00:21.999Z</time>
      </trkpt>
      <trkpt lat="44.01977" lon="3.50618">
        <ele>1145</ele>
        <time>2026-05-28T10:00:22.999Z</time>
      </trkpt>
      <trkpt lat="44.01977" lon="3.50618">
        <ele>1144.9</ele>
        <time>2026-05-28T10:00:23.999Z</time>
      </trkpt>
      <trkpt lat="44.01976" lon="3.50618">
        <ele>1144.9</ele>
        <time>2026-05-28T10:00:24.999Z</time>
      </trkpt>
      <trkpt lat="44.01976" lon="3.50619">
        <ele>1145</ele>
        <time>2026-05-28T10:00:25.999Z</time>
      </trkpt>
      <trkpt lat="44.01976" lon="3.50619">
        <ele>1144.3</ele>
        <time>2026-05-28T10:00:26.999Z</time>
      </trkpt>
      <trkpt lat="44.01976" lon="3.50619">
        <ele>1143.9</ele>
        <time>2026-05-28T10:00:27.999Z</time>
      </trkpt>
      <trkpt lat="44.01976" lon="3.50619">
        <ele>1144</ele>
        <time>2026-05-28T10:00:28.999Z</time>
      </trkpt>
      <trkpt lat="44.01976" lon="3.50619">
        <ele>1144.1</ele>
        <time>2026-05-28T10:00:29.999Z</time>
      </trkpt>
      <trkpt lat="44.01976" lon="3.50619">
        <ele>1144</ele>
        <time>2026-05-28T10:00:30.999Z</time>
      </trkpt>
      <trkpt lat="44.01976" lon="3.50619">
        <ele>1143.8</ele>
        <time>2026-05-28T10:00:31.999Z</time>
      </trkpt>
      <trkpt lat="44.01976" lon="3.50619">
        <ele>1143.5</ele>
        <time>2026-05-28T10:00:32.999Z</time>
      </trkpt>
      <trkpt lat="44.01976" lon="3.50619">
        <ele>1142.4</ele>
        <time>2026-05-28T10:00:33.999Z</time>
      </trkpt>
      <trkpt lat="44.01976" lon="3.50619">
        <ele>1141.5</ele>
        <time>2026-05-28T10:00:34.999Z</time>
      </trkpt>
      <trkpt lat="44.01976" lon="3.50619">
        <ele>1140.8</ele>
        <time>2026-05-28T10:00:35.999Z</time>
      </trkpt>
      <trkpt lat="44.01976" lon="3.50619">
        <ele>1140.4</ele>
        <time>2026-05-28T10:00:36.999Z</time>
      </trkpt>
      <trkpt lat="44.01977" lon="3.50618">
        <ele>1140.2</ele>
        <time>2026-05-28T10:00:37.999Z</time>
      </trkpt>
      <trkpt lat="44.01977" lon="3.50618">
        <ele>1140</ele>
        <time>2026-05-28T10:00:38.999Z</time>
      </trkpt>
      <trkpt lat="44.01977" lon="3.50618">
        <ele>1140.5</ele>
        <time>2026-05-28T10:00:39.999Z</time>
      </trkpt>
      <trkpt lat="44.01977" lon="3.50618">
        <ele>1141.1</ele>
        <time>2026-05-28T10:00:40.999Z</time>
      </trkpt>
      <trkpt lat="44.01977" lon="3.50618">
        <ele>1141.9</ele>
        <time>2026-05-28T10:00:41.999Z</time>
      </trkpt>
      <trkpt lat="44.01977" lon="3.50618">
        <ele>1142.3</ele>
        <time>2026-05-28T10:00:42.999Z</time>
      </trkpt>
      <trkpt lat="44.01977" lon="3.50618">
        <ele>1142.4</ele>
        <time>2026-05-28T10:00:43.999Z</time>
      </trkpt>
      <trkpt lat="44.01977" lon="3.50618">
        <ele>1143.1</ele>
        <time>2026-05-28T10:00:44.999Z</time>
      </trkpt>
      <trkpt lat="44.01978" lon="3.50618">
        <ele>1143.8</ele>
        <time>2026-05-28T10:00:45.999Z</time>
      </trkpt>
      <trkpt lat="44.01978" lon="3.50618">
        <ele>1144.3</ele>
        <time>2026-05-28T10:00:46.999Z</time>
      </trkpt>
      <trkpt lat="44.01978" lon="3.50618">
        <ele>1144.5</ele>
        <time>2026-05-28T10:00:47.999Z</time>
      </trkpt>
      <trkpt lat="44.01978" lon="3.50618">
        <ele>1144.5</ele>
        <time>2026-05-28T10:00:48.999Z</time>
      </trkpt>
      <trkpt lat="44.01978" lon="3.50618">
        <ele>1144.4</ele>
        <time>2026-05-28T10:00:49.999Z</time>
      </trkpt>
      <trkpt lat="44.01978" lon="3.50618">
        <ele>1144.4</ele>
        <time>2026-05-28T10:00:50.999Z</time>
      </trkpt>
      <trkpt lat="44.01978" lon="3.50618">
        <ele>1144.2</ele>
        <time>2026-05-28T10:00:51.999Z</time>
      </trkpt>
      <trkpt lat="44.01978" lon="3.50618">
        <ele>1143.9</ele>
        <time>2026-05-28T10:00:52.999Z</time>
      </trkpt>
      <trkpt lat="44.01978" lon="3.50619">
        <ele>1143.2</ele>
        <time>2026-05-28T10:00:53.999Z</time>
      </trkpt>
      <trkpt lat="44.01978" lon="3.50619">
        <ele>1142.9</ele>
        <time>2026-05-28T10:00:54.999Z</time>
      </trkpt>
      <trkpt lat="44.01978" lon="3.50619">
        <ele>1142.5</ele>
        <time>2026-05-28T10:00:55.999Z</time>
      </trkpt>
      <trkpt lat="44.01978" lon="3.50619">
        <ele>1142.3</ele>
        <time>2026-05-28T10:00:56.999Z</time>
      </trkpt>
      <trkpt lat="44.01978" lon="3.50619">
        <ele>1142</ele>
        <time>2026-05-28T10:00:57.999Z</time>
      </trkpt>
      <trkpt lat="44.01978" lon="3.50619">
        <ele>1141.8</ele>
        <time>2026-05-28T10:00:58.999Z</time>
      </trkpt>
      <trkpt lat="44.01978" lon="3.50619">
        <ele>1141.8</ele>
        <time>2026-05-28T10:00:59.999Z</time>
      </trkpt>
      <trkpt lat="44.01978" lon="3.50619">
        <ele>1141.6</ele>
        <time>2026-05-28T10:01:00.999Z</time>
      </trkpt>
      <trkpt lat="44.01978" lon="3.50619">
        <ele>1141.5</ele>
        <time>2026-05-28T10:01:01.999Z</time>
      </trkpt>
      <trkpt lat="44.01978" lon="3.50619">
        <ele>1141.3</ele>
        <time>2026-05-28T10:01:02.999Z</time>
      </trkpt>
      <trkpt lat="44.01978" lon="3.50619">
        <ele>1141.3</ele>
        <time>2026-05-28T10:01:03.999Z</time>
      </trkpt>
      <trkpt lat="44.01978" lon="3.50619">
        <ele>1141.6</ele>
        <time>2026-05-28T10:01:04.999Z</time>
      </trkpt>
      <trkpt lat="44.01978" lon="3.50619">
        <ele>1141.4</ele>
        <time>2026-05-28T10:01:05.999Z</time>
      </trkpt>
      <trkpt lat="44.01978" lon="3.50619">
        <ele>1141</ele>
        <time>2026-05-28T10:01:06.999Z</time>
      </trkpt>
      <trkpt lat="44.01978" lon="3.50619">
        <ele>1140.6</ele>
        <time>2026-05-28T10:01:07.999Z</time>
      </trkpt>
      <trkpt lat="44.01978" lon="3.50619">
        <ele>1140.2</ele>
        <time>2026-05-28T10:01:08.999Z</time>
      </trkpt>
      <trkpt lat="44.01978" lon="3.50619">
        <ele>1140</ele>
        <time>2026-05-28T10:01:09.999Z</time>
      </trkpt>
      <trkpt lat="44.01978" lon="3.50619">
        <ele>1140.3</ele>
        <time>2026-05-28T10:01:10.999Z</time>
      </trkpt>
      <trkpt lat="44.01978" lon="3.50619">
        <ele>1140.2</ele>
        <time>2026-05-28T10:01:11.999Z</time>
      </trkpt>
      <trkpt lat="44.0198" lon="3.5062">
        <ele>1140.2</ele>
        <time>2026-05-28T10:01:12.999Z</time>
      </trkpt>
      <trkpt lat="44.01981" lon="3.50619">
        <ele>1140.1</ele>
        <time>2026-05-28T10:01:13.999Z</time>
      </trkpt>
      <trkpt lat="44.01982" lon="3.5062">
        <ele>1140.3</ele>
        <time>2026-05-28T10:01:14.999Z</time>
      </trkpt>
      <trkpt lat="44.01983" lon="3.5062">
        <ele>1140.7</ele>
        <time>2026-05-28T10:01:15.999Z</time>
      </trkpt>
      <trkpt lat="44.01983" lon="3.5062">
        <ele>1140.9</ele>
        <time>2026-05-28T10:01:16.999Z</time>
      </trkpt>
      <trkpt lat="44.01983" lon="3.5062">
        <ele>1141.1</ele>
        <time>2026-05-28T10:01:17.999Z</time>
      </trkpt>
      <trkpt lat="44.01983" lon="3.5062">
        <ele>1141.1</ele>
        <time>2026-05-28T10:01:18.999Z</time>
      </trkpt>
      <trkpt lat="44.01983" lon="3.5062">
        <ele>1141.2</ele>
        <time>2026-05-28T10:01:19.999Z</time>
      </trkpt>
      <trkpt lat="44.01983" lon="3.5062">
        <ele>1141.3</ele>
        <time>2026-05-28T10:01:20.999Z</time>
      </trkpt>
      <trkpt lat="44.01983" lon="3.5062">
        <ele>1141.2</ele>
        <time>2026-05-28T10:01:21.999Z</time>
      </trkpt>
      <trkpt lat="44.01983" lon="3.5062">
        <ele>1141.3</ele>
        <time>2026-05-28T10:01:22.999Z</time>
      </trkpt>
      <trkpt lat="44.01983" lon="3.5062">
        <ele>1141.3</ele>
        <time>2026-05-28T10:01:23.999Z</time>
      </trkpt>
      <trkpt lat="44.01983" lon="3.5062">
        <ele>1141.2</ele>
        <time>2026-05-28T10:01:24.999Z</time>
      </trkpt>
      <trkpt lat="44.01983" lon="3.5062">
        <ele>1141.4</ele>
        <time>2026-05-28T10:01:25.999Z</time>
      </trkpt>
      <trkpt lat="44.01983" lon="3.5062">
        <ele>1141.3</ele>
        <time>2026-05-28T10:01:26.999Z</time>
      </trkpt>
      <trkpt lat="44.01983" lon="3.5062">
        <ele>1141</ele>
        <time>2026-05-28T10:01:27.999Z</time>
      </trkpt>
      <trkpt lat="44.01983" lon="3.5062">
        <ele>1140.7</ele>
        <time>2026-05-28T10:01:28.999Z</time>
      </trkpt>
      <trkpt lat="44.01983" lon="3.5062">
        <ele>1140.8</ele>
        <time>2026-05-28T10:01:29.999Z</time>
      </trkpt>
      <trkpt lat="44.01983" lon="3.5062">
        <ele>1140.7</ele>
        <time>2026-05-28T10:01:30.999Z</time>
      </trkpt>
      <trkpt lat="44.01983" lon="3.5062">
        <ele>1141.2</ele>
        <time>2026-05-28T10:01:31.999Z</time>
      </trkpt>
      <trkpt lat="44.01983" lon="3.5062">
        <ele>1141.6</ele>
        <time>2026-05-28T10:01:32.999Z</time>
      </trkpt>
      <trkpt lat="44.01983" lon="3.5062">
        <ele>1142.1</ele>
        <time>2026-05-28T10:01:33.999Z</time>
      </trkpt>
      <trkpt lat="44.01983" lon="3.5062">
        <ele>1142</ele>
        <time>2026-05-28T10:01:34.999Z</time>
      </trkpt>
      <trkpt lat="44.01983" lon="3.50619">
        <ele>1141.9</ele>
        <time>2026-05-28T10:01:35.999Z</time>
      </trkpt>
      <trkpt lat="44.01983" lon="3.50619">
        <ele>1142</ele>
        <time>2026-05-28T10:01:36.999Z</time>
      </trkpt>
      <trkpt lat="44.01982" lon="3.50619">
        <ele>1141.9</ele>
        <time>2026-05-28T10:01:38.999Z</time>
      </trkpt>
      <trkpt lat="44.01982" lon="3.50619">
        <ele>1141.8</ele>
        <time>2026-05-28T10:01:39.999Z</time>
      </trkpt>
      <trkpt lat="44.01982" lon="3.50619">
        <ele>1141.8</ele>
        <time>2026-05-28T10:01:40.999Z</time>
      </trkpt>
      <trkpt lat="44.01982" lon="3.50619">
        <ele>1141.9</ele>
        <time>2026-05-28T10:01:41.999Z</time>
      </trkpt>
      <trkpt lat="44.01982" lon="3.50619">
        <ele>1141.8</ele>
        <time>2026-05-28T10:01:42.999Z</time>
      </trkpt>
      <trkpt lat="44.01982" lon="3.50619">
        <ele>1141.7</ele>
        <time>2026-05-28T10:01:43.999Z</time>
      </trkpt>
      <trkpt lat="44.01982" lon="3.5062">
        <ele>1141.6</ele>
        <time>2026-05-28T10:01:44.999Z</time>
      </trkpt>
      <trkpt lat="44.01982" lon="3.50619">
        <ele>1141.4</ele>
        <time>2026-05-28T10:01:45.999Z</time>
      </trkpt>
      <trkpt lat="44.01982" lon="3.5062">
        <ele>1141.4</ele>
        <time>2026-05-28T10:01:46.999Z</time>
      </trkpt>
      <trkpt lat="44.01982" lon="3.5062">
        <ele>1141.6</ele>
        <time>2026-05-28T10:01:47.999Z</time>
      </trkpt>
      <trkpt lat="44.01982" lon="3.5062">
        <ele>1142.2</ele>
        <time>2026-05-28T10:01:48.999Z</time>
      </trkpt>
      <trkpt lat="44.01982" lon="3.5062">
        <ele>1142.5</ele>
        <time>2026-05-28T10:01:49.999Z</time>
      </trkpt>
      <trkpt lat="44.01982" lon="3.5062">
        <ele>1142.9</ele>
        <time>2026-05-28T10:01:50.999Z</time>
      </trkpt>
      <trkpt lat="44.01982" lon="3.5062">
        <ele>1143.3</ele>
        <time>2026-05-28T10:01:51.999Z</time>
      </trkpt>
      <trkpt lat="44.01982" lon="3.50621">
        <ele>1143.8</ele>
        <time>2026-05-28T10:01:52.999Z</time>
      </trkpt>
      <trkpt lat="44.01982" lon="3.50621">
        <ele>1144.2</ele>
        <time>2026-05-28T10:01:53.999Z</time>
      </trkpt>
      <trkpt lat="44.01982" lon="3.50621">
        <ele>1144.4</ele>
        <time>2026-05-28T10:01:54.999Z</time>
      </trkpt>
      <trkpt lat="44.01982" lon="3.50622">
        <ele>1144.6</ele>
        <time>2026-05-28T10:01:55.999Z</time>
      </trkpt>
      <trkpt lat="44.01982" lon="3.50622">
        <ele>1144.6</ele>
        <time>2026-05-28T10:01:56.999Z</time>
      </trkpt>
      <trkpt lat="44.01982" lon="3.50622">
        <ele>1144.3</ele>
        <time>2026-05-28T10:01:57.999Z</time>
      </trkpt>
      <trkpt lat="44.01982" lon="3.50622">
        <ele>1144.4</ele>
        <time>2026-05-28T10:01:58.999Z</time>
      </trkpt>
      <trkpt lat="44.01982" lon="3.50622">
        <ele>1144.4</ele>
        <time>2026-05-28T10:01:59.999Z</time>
      </trkpt>
      <trkpt lat="44.01982" lon="3.50622">
        <ele>1144.3</ele>
        <time>2026-05-28T10:02:00.999Z</time>
      </trkpt>
      <trkpt lat="44.01982" lon="3.50622">
        <ele>1144</ele>
        <time>2026-05-28T10:02:01.999Z</time>
      </trkpt>
      <trkpt lat="44.01982" lon="3.50622">
        <ele>1144.1</ele>
        <time>2026-05-28T10:02:02.999Z</time>
      </trkpt>
      <trkpt lat="44.01982" lon="3.50621">
        <ele>1144</ele>
        <time>2026-05-28T10:02:03.999Z</time>
      </trkpt>
      <trkpt lat="44.01982" lon="3.50622">
        <ele>1144</ele>
        <time>2026-05-28T10:02:04.999Z</time>
      </trkpt>
      <trkpt lat="44.01982" lon="3.50622">
        <ele>1144.2</ele>
        <time>2026-05-28T10:02:05.999Z</time>
      </trkpt>
      <trkpt lat="44.01982" lon="3.50622">
        <ele>1144.4</ele>
        <time>2026-05-28T10:02:06.999Z</time>
      </trkpt>
      <trkpt lat="44.01982" lon="3.50621">
        <ele>1144.7</ele>
        <time>2026-05-28T10:02:07.999Z</time>
      </trkpt>
      <trkpt lat="44.01982" lon="3.50621">
        <ele>1144.9</ele>
        <time>2026-05-28T10:02:08.999Z</time>
      </trkpt>
      <trkpt lat="44.01981" lon="3.5062">
        <ele>1145.1</ele>
        <time>2026-05-28T10:02:09.999Z</time>
      </trkpt>
      <trkpt lat="44.0198" lon="3.50619">
        <ele>1145.3</ele>
        <time>2026-05-28T10:02:10.999Z</time>
      </trkpt>
      <trkpt lat="44.01979" lon="3.50619">
        <ele>1145.7</ele>
        <time>2026-05-28T10:02:12.999Z</time>
      </trkpt>
      <trkpt lat="44.01979" lon="3.50619">
        <ele>1146.1</ele>
        <time>2026-05-28T10:02:13.999Z</time>
      </trkpt>
      <trkpt lat="44.01979" lon="3.50619">
        <ele>1146.5</ele>
        <time>2026-05-28T10:02:14.999Z</time>
      </trkpt>
      <trkpt lat="44.01979" lon="3.50619">
        <ele>1146.8</ele>
        <time>2026-05-28T10:02:15.999Z</time>
      </trkpt>
      <trkpt lat="44.01979" lon="3.50619">
        <ele>1146.9</ele>
        <time>2026-05-28T10:02:16.999Z</time>
      </trkpt>
      <trkpt lat="44.01979" lon="3.50619">
        <ele>1146.8</ele>
        <time>2026-05-28T10:02:17.999Z</time>
      </trkpt>
      <trkpt lat="44.01979" lon="3.50619">
        <ele>1147</ele>
        <time>2026-05-28T10:02:18.999Z</time>
      </trkpt>
      <trkpt lat="44.01979" lon="3.50619">
        <ele>1147</ele>
        <time>2026-05-28T10:02:19.999Z</time>
      </trkpt>
      <trkpt lat="44.01979" lon="3.50619">
        <ele>1147.7</ele>
        <time>2026-05-28T10:02:20.999Z</time>
      </trkpt>
      <trkpt lat="44.01979" lon="3.50619">
        <ele>1147.8</ele>
        <time>2026-05-28T10:02:21.999Z</time>
      </trkpt>
      <trkpt lat="44.01979" lon="3.50619">
        <ele>1147.4</ele>
        <time>2026-05-28T10:02:22.999Z</time>
      </trkpt>
      <trkpt lat="44.01979" lon="3.50619">
        <ele>1146.5</ele>
        <time>2026-05-28T10:02:23.999Z</time>
      </trkpt>
      <trkpt lat="44.01979" lon="3.50619">
        <ele>1146.2</ele>
        <time>2026-05-28T10:02:24.999Z</time>
      </trkpt>
      <trkpt lat="44.01979" lon="3.50619">
        <ele>1145.5</ele>
        <time>2026-05-28T10:02:25.999Z</time>
      </trkpt>
      <trkpt lat="44.01979" lon="3.50619">
        <ele>1145.3</ele>
        <time>2026-05-28T10:02:26.999Z</time>
      </trkpt>
      <trkpt lat="44.01979" lon="3.50619">
        <ele>1144.9</ele>
        <time>2026-05-28T10:02:27.999Z</time>
      </trkpt>
      <trkpt lat="44.01979" lon="3.50619">
        <ele>1145.1</ele>
        <time>2026-05-28T10:02:28.999Z</time>
      </trkpt>
      <trkpt lat="44.01979" lon="3.50619">
        <ele>1145.1</ele>
        <time>2026-05-28T10:02:29.999Z</time>
      </trkpt>
      <trkpt lat="44.01979" lon="3.50619">
        <ele>1145.3</ele>
        <time>2026-05-28T10:02:30.999Z</time>
      </trkpt>
      <trkpt lat="44.01979" lon="3.50619">
        <ele>1144.8</ele>
        <time>2026-05-28T10:02:31.999Z</time>
      </trkpt>
      <trkpt lat="44.01979" lon="3.50619">
        <ele>1144.3</ele>
        <time>2026-05-28T10:02:32.999Z</time>
      </trkpt>
      <trkpt lat="44.01979" lon="3.50619">
        <ele>1143.6</ele>
        <time>2026-05-28T10:02:33.999Z</time>
      </trkpt>
      <trkpt lat="44.01979" lon="3.50619">
        <ele>1143.3</ele>
        <time>2026-05-28T10:02:34.999Z</time>
      </trkpt>
      <trkpt lat="44.01979" lon="3.50619">
        <ele>1143.3</ele>
        <time>2026-05-28T10:02:35.999Z</time>
      </trkpt>
      <trkpt lat="44.01979" lon="3.50619">
        <ele>1143.7</ele>
        <time>2026-05-28T10:02:36.999Z</time>
      </trkpt>
      <trkpt lat="44.01979" lon="3.50619">
        <ele>1144.1</ele>
        <time>2026-05-28T10:02:37.999Z</time>
      </trkpt>
      <trkpt lat="44.01979" lon="3.50619">
        <ele>1144.3</ele>
        <time>2026-05-28T10:02:38.999Z</time>
      </trkpt>
      <trkpt lat="44.01979" lon="3.50619">
        <ele>1144.5</ele>
        <time>2026-05-28T10:02:39.999Z</time>
      </trkpt>
      <trkpt lat="44.0198" lon="3.50619">
        <ele>1144.6</ele>
        <time>2026-05-28T10:02:40.999Z</time>
      </trkpt>
      <trkpt lat="44.0198" lon="3.50619">
        <ele>1144.6</ele>
        <time>2026-05-28T10:02:41.999Z</time>
      </trkpt>
      <trkpt lat="44.0198" lon="3.50619">
        <ele>1144.6</ele>
        <time>2026-05-28T10:02:42.999Z</time>
      </trkpt>
      <trkpt lat="44.0198" lon="3.50619">
        <ele>1144.4</ele>
        <time>2026-05-28T10:02:43.999Z</time>
      </trkpt>
      <trkpt lat="44.0198" lon="3.50619">
        <ele>1144.6</ele>
        <time>2026-05-28T10:02:44.999Z</time>
      </trkpt>
      <trkpt lat="44.0198" lon="3.50619">
        <ele>1144.7</ele>
        <time>2026-05-28T10:02:45.999Z</time>
      </trkpt>
      <trkpt lat="44.0198" lon="3.50619">
        <ele>1145.1</ele>
        <time>2026-05-28T10:02:46.999Z</time>
      </trkpt>
      <trkpt lat="44.0198" lon="3.50619">
        <ele>1144.7</ele>
        <time>2026-05-28T10:02:48.000Z</time>
      </trkpt>
      <trkpt lat="44.0198" lon="3.5062">
        <ele>1144.5</ele>
        <time>2026-05-28T10:02:49.000Z</time>
      </trkpt>
      <trkpt lat="44.0198" lon="3.5062">
        <ele>1144.3</ele>
        <time>2026-05-28T10:02:50.000Z</time>
      </trkpt>
      <trkpt lat="44.0198" lon="3.5062">
        <ele>1144</ele>
        <time>2026-05-28T10:02:52.000Z</time>
      </trkpt>
      <trkpt lat="44.01981" lon="3.5062">
        <ele>1143.7</ele>
        <time>2026-05-28T10:02:53.000Z</time>
      </trkpt>
      <trkpt lat="44.01981" lon="3.50621">
        <ele>1143.7</ele>
        <time>2026-05-28T10:02:54.000Z</time>
      </trkpt>
      <trkpt lat="44.01981" lon="3.50622">
        <ele>1143.5</ele>
        <time>2026-05-28T10:02:55.000Z</time>
      </trkpt>
      <trkpt lat="44.01981" lon="3.50622">
        <ele>1143.3</ele>
        <time>2026-05-28T10:02:56.000Z</time>
      </trkpt>
      <trkpt lat="44.01981" lon="3.50622">
        <ele>1143</ele>
        <time>2026-05-28T10:02:57.000Z</time>
      </trkpt>
      <trkpt lat="44.01981" lon="3.5062">
        <ele>1142.7</ele>
        <time>2026-05-28T10:02:58.000Z</time>
      </trkpt>
      <trkpt lat="44.0198" lon="3.5062">
        <ele>1142.2</ele>
        <time>2026-05-28T10:02:59.000Z</time>
      </trkpt>
      <trkpt lat="44.0198" lon="3.50619">
        <ele>1141.9</ele>
        <time>2026-05-28T10:03:00.000Z</time>
      </trkpt>
      <trkpt lat="44.01979" lon="3.5062">
        <ele>1141.5</ele>
        <time>2026-05-28T10:03:01.000Z</time>
      </trkpt>
      <trkpt lat="44.01979" lon="3.50621">
        <ele>1141</ele>
        <time>2026-05-28T10:03:02.000Z</time>
      </trkpt>
      <trkpt lat="44.01979" lon="3.50621">
        <ele>1140.7</ele>
        <time>2026-05-28T10:03:03.000Z</time>
      </trkpt>
      <trkpt lat="44.01979" lon="3.50621">
        <ele>1140.1</ele>
        <time>2026-05-28T10:03:04.000Z</time>
      </trkpt>
      <trkpt lat="44.01978" lon="3.50621">
        <ele>1139.4</ele>
        <time>2026-05-28T10:03:05.000Z</time>
      </trkpt>
      <trkpt lat="44.01977" lon="3.50621">
        <ele>1138.9</ele>
        <time>2026-05-28T10:03:06.000Z</time>
      </trkpt>
      <trkpt lat="44.01977" lon="3.50621">
        <ele>1139</ele>
        <time>2026-05-28T10:03:07.000Z</time>
      </trkpt>
      <trkpt lat="44.01977" lon="3.50621">
        <ele>1138.9</ele>
        <time>2026-05-28T10:03:08.000Z</time>
      </trkpt>
      <trkpt lat="44.01977" lon="3.50621">
        <ele>1138.8</ele>
        <time>2026-05-28T10:03:09.000Z</time>
      </trkpt>
      <trkpt lat="44.01977" lon="3.50622">
        <ele>1138.7</ele>
        <time>2026-05-28T10:03:11.000Z</time>
      </trkpt>
      <trkpt lat="44.01977" lon="3.50623">
        <ele>1138.7</ele>
        <time>2026-05-28T10:03:12.000Z</time>
      </trkpt>
      <trkpt lat="44.01976" lon="3.50623">
        <ele>1138.5</ele>
        <time>2026-05-28T10:03:13.000Z</time>
      </trkpt>
      <trkpt lat="44.01976" lon="3.50623">
        <ele>1138.5</ele>
        <time>2026-05-28T10:03:14.000Z</time>
      </trkpt>
      <trkpt lat="44.01976" lon="3.50623">
        <ele>1138.8</ele>
        <time>2026-05-28T10:03:15.000Z</time>
      </trkpt>
      <trkpt lat="44.01976" lon="3.50622">
        <ele>1138.9</ele>
        <time>2026-05-28T10:03:16.000Z</time>
      </trkpt>
      <trkpt lat="44.01977" lon="3.50622">
        <ele>1138.9</ele>
        <time>2026-05-28T10:03:17.000Z</time>
      </trkpt>
      <trkpt lat="44.01977" lon="3.50621">
        <ele>1139.1</ele>
        <time>2026-05-28T10:03:18.000Z</time>
      </trkpt>
      <trkpt lat="44.01977" lon="3.5062">
        <ele>1139.1</ele>
        <time>2026-05-28T10:03:19.000Z</time>
      </trkpt>
      <trkpt lat="44.01978" lon="3.5062">
        <ele>1139.2</ele>
        <time>2026-05-28T10:03:20.000Z</time>
      </trkpt>
      <trkpt lat="44.01978" lon="3.50619">
        <ele>1139.2</ele>
        <time>2026-05-28T10:03:21.000Z</time>
      </trkpt>
      <trkpt lat="44.01978" lon="3.50618">
        <ele>1139.2</ele>
        <time>2026-05-28T10:03:22.000Z</time>
      </trkpt>
      <trkpt lat="44.01978" lon="3.50617">
        <ele>1139.2</ele>
        <time>2026-05-28T10:03:23.000Z</time>
      </trkpt>
      <trkpt lat="44.01979" lon="3.50616">
        <ele>1139</ele>
        <time>2026-05-28T10:03:24.000Z</time>
      </trkpt>
      <trkpt lat="44.0198" lon="3.50616">
        <ele>1138.7</ele>
        <time>2026-05-28T10:03:25.000Z</time>
      </trkpt>
      <trkpt lat="44.0198" lon="3.50615">
        <ele>1138.6</ele>
        <time>2026-05-28T10:03:26.000Z</time>
      </trkpt>
      <trkpt lat="44.0198" lon="3.50615">
        <ele>1138.5</ele>
        <time>2026-05-28T10:03:27.000Z</time>
      </trkpt>
      <trkpt lat="44.01982" lon="3.50615">
        <ele>1138.6</ele>
        <time>2026-05-28T10:03:28.000Z</time>
      </trkpt>
      <trkpt lat="44.01983" lon="3.50614">
        <ele>1138.9</ele>
        <time>2026-05-28T10:03:29.000Z</time>
      </trkpt>
      <trkpt lat="44.01985" lon="3.50614">
        <ele>1139.2</ele>
        <time>2026-05-28T10:03:30.000Z</time>
      </trkpt>
      <trkpt lat="44.01986" lon="3.50613">
        <ele>1139.3</ele>
        <time>2026-05-28T10:03:31.000Z</time>
      </trkpt>
      <trkpt lat="44.01987" lon="3.50613">
        <ele>1139.6</ele>
        <time>2026-05-28T10:03:32.000Z</time>
      </trkpt>
      <trkpt lat="44.01987" lon="3.50612">
        <ele>1140</ele>
        <time>2026-05-28T10:03:33.000Z</time>
      </trkpt>
      <trkpt lat="44.01986" lon="3.50613">
        <ele>1139.7</ele>
        <time>2026-05-28T10:03:34.000Z</time>
      </trkpt>
      <trkpt lat="44.01986" lon="3.50613">
        <ele>1139</ele>
        <time>2026-05-28T10:03:36.000Z</time>
      </trkpt>
      <trkpt lat="44.01986" lon="3.50612">
        <ele>1138.6</ele>
        <time>2026-05-28T10:03:37.000Z</time>
      </trkpt>
      <trkpt lat="44.01985" lon="3.50612">
        <ele>1138.4</ele>
        <time>2026-05-28T10:03:38.000Z</time>
      </trkpt>
      <trkpt lat="44.01985" lon="3.50612">
        <ele>1138.9</ele>
        <time>2026-05-28T10:03:39.000Z</time>
      </trkpt>
      <trkpt lat="44.01985" lon="3.50612">
        <ele>1138.7</ele>
        <time>2026-05-28T10:03:40.000Z</time>
      </trkpt>
      <trkpt lat="44.01986" lon="3.50612">
        <ele>1138.6</ele>
        <time>2026-05-28T10:03:41.000Z</time>
      </trkpt>
      <trkpt lat="44.01985" lon="3.50612">
        <ele>1138.5</ele>
        <time>2026-05-28T10:03:42.000Z</time>
      </trkpt>
      <trkpt lat="44.01985" lon="3.50612">
        <ele>1138.4</ele>
        <time>2026-05-28T10:03:43.000Z</time>
      </trkpt>
      <trkpt lat="44.01984" lon="3.50613">
        <ele>1138.4</ele>
        <time>2026-05-28T10:03:44.000Z</time>
      </trkpt>
      <trkpt lat="44.01984" lon="3.50613">
        <ele>1138.3</ele>
        <time>2026-05-28T10:03:45.000Z</time>
      </trkpt>
      <trkpt lat="44.01984" lon="3.50613">
        <ele>1138.2</ele>
        <time>2026-05-28T10:03:46.000Z</time>
      </trkpt>
      <trkpt lat="44.01985" lon="3.50613">
        <ele>1138</ele>
        <time>2026-05-28T10:03:47.000Z</time>
      </trkpt>
      <trkpt lat="44.01985" lon="3.50613">
        <ele>1138.1</ele>
        <time>2026-05-28T10:03:48.000Z</time>
      </trkpt>
      <trkpt lat="44.01985" lon="3.50613">
        <ele>1138.1</ele>
        <time>2026-05-28T10:03:49.000Z</time>
      </trkpt>
      <trkpt lat="44.01986" lon="3.50613">
        <ele>1138</ele>
        <time>2026-05-28T10:03:50.000Z</time>
      </trkpt>
      <trkpt lat="44.01986" lon="3.50612">
        <ele>1137.8</ele>
        <time>2026-05-28T10:03:51.000Z</time>
      </trkpt>
      <trkpt lat="44.01987" lon="3.50613">
        <ele>1137.5</ele>
        <time>2026-05-28T10:03:52.000Z</time>
      </trkpt>
      <trkpt lat="44.01987" lon="3.50613">
        <ele>1137.2</ele>
        <time>2026-05-28T10:03:53.000Z</time>
      </trkpt>
      <trkpt lat="44.01987" lon="3.50613">
        <ele>1136</ele>
        <time>2026-05-28T10:03:54.000Z</time>
      </trkpt>
      <trkpt lat="44.01987" lon="3.50613">
        <ele>1135.6</ele>
        <time>2026-05-28T10:03:55.000Z</time>
      </trkpt>
      <trkpt lat="44.01987" lon="3.50613">
        <ele>1135.3</ele>
        <time>2026-05-28T10:03:56.000Z</time>
      </trkpt>
      <trkpt lat="44.01987" lon="3.50613">
        <ele>1135.5</ele>
        <time>2026-05-28T10:03:57.000Z</time>
      </trkpt>
      <trkpt lat="44.01988" lon="3.50613">
        <ele>1135.6</ele>
        <time>2026-05-28T10:03:58.000Z</time>
      </trkpt>
      <trkpt lat="44.01988" lon="3.50613">
        <ele>1135.9</ele>
        <time>2026-05-28T10:03:59.000Z</time>
      </trkpt>
      <trkpt lat="44.01988" lon="3.50613">
        <ele>1135.9</ele>
        <time>2026-05-28T10:04:01.000Z</time>
      </trkpt>
      <trkpt lat="44.01988" lon="3.50612">
        <ele>1135.8</ele>
        <time>2026-05-28T10:04:02.000Z</time>
      </trkpt>
      <trkpt lat="44.01988" lon="3.50612">
        <ele>1136</ele>
        <time>2026-05-28T10:04:03.000Z</time>
      </trkpt>
      <trkpt lat="44.01989" lon="3.50612">
        <ele>1136.2</ele>
        <time>2026-05-28T10:04:04.000Z</time>
      </trkpt>
      <trkpt lat="44.01989" lon="3.50612">
        <ele>1136.2</ele>
        <time>2026-05-28T10:04:05.000Z</time>
      </trkpt>
      <trkpt lat="44.01989" lon="3.50612">
        <ele>1136.3</ele>
        <time>2026-05-28T10:04:06.000Z</time>
      </trkpt>
      <trkpt lat="44.01989" lon="3.50612">
        <ele>1136.3</ele>
        <time>2026-05-28T10:04:07.000Z</time>
      </trkpt>
      <trkpt lat="44.01989" lon="3.50612">
        <ele>1136.4</ele>
        <time>2026-05-28T10:04:08.000Z</time>
      </trkpt>
      <trkpt lat="44.01989" lon="3.50613">
        <ele>1136.6</ele>
        <time>2026-05-28T10:04:09.000Z</time>
      </trkpt>
      <trkpt lat="44.01989" lon="3.50614">
        <ele>1137</ele>
        <time>2026-05-28T10:04:10.000Z</time>
      </trkpt>
      <trkpt lat="44.01989" lon="3.50614">
        <ele>1137.5</ele>
        <time>2026-05-28T10:04:11.000Z</time>
      </trkpt>
      <trkpt lat="44.01989" lon="3.50614">
        <ele>1137.6</ele>
        <time>2026-05-28T10:04:12.000Z</time>
      </trkpt>
      <trkpt lat="44.0199" lon="3.50615">
        <ele>1137.3</ele>
        <time>2026-05-28T10:04:13.000Z</time>
      </trkpt>
      <trkpt lat="44.0199" lon="3.50615">
        <ele>1136.7</ele>
        <time>2026-05-28T10:04:14.000Z</time>
      </trkpt>
      <trkpt lat="44.01991" lon="3.50615">
        <ele>1136.2</ele>
        <time>2026-05-28T10:04:15.000Z</time>
      </trkpt>
      <trkpt lat="44.01991" lon="3.50615">
        <ele>1136.1</ele>
        <time>2026-05-28T10:04:16.000Z</time>
      </trkpt>
      <trkpt lat="44.0199" lon="3.50615">
        <ele>1136</ele>
        <time>2026-05-28T10:04:17.000Z</time>
      </trkpt>
      <trkpt lat="44.0199" lon="3.50616">
        <ele>1136</ele>
        <time>2026-05-28T10:04:18.000Z</time>
      </trkpt>
      <trkpt lat="44.0199" lon="3.50616">
        <ele>1135.8</ele>
        <time>2026-05-28T10:04:19.000Z</time>
      </trkpt>
      <trkpt lat="44.01989" lon="3.50616">
        <ele>1135.7</ele>
        <time>2026-05-28T10:04:20.000Z</time>
      </trkpt>
      <trkpt lat="44.01989" lon="3.50616">
        <ele>1136.1</ele>
        <time>2026-05-28T10:04:21.000Z</time>
      </trkpt>
      <trkpt lat="44.01989" lon="3.50616">
        <ele>1135.7</ele>
        <time>2026-05-28T10:04:22.000Z</time>
      </trkpt>
      <trkpt lat="44.01989" lon="3.50616">
        <ele>1135.6</ele>
        <time>2026-05-28T10:04:23.000Z</time>
      </trkpt>
      <trkpt lat="44.01989" lon="3.50616">
        <ele>1135.7</ele>
        <time>2026-05-28T10:04:24.000Z</time>
      </trkpt>
      <trkpt lat="44.01989" lon="3.50616">
        <ele>1135.4</ele>
        <time>2026-05-28T10:04:25.000Z</time>
      </trkpt>
      <trkpt lat="44.01989" lon="3.50616">
        <ele>1134.7</ele>
        <time>2026-05-28T10:04:26.000Z</time>
      </trkpt>
      <trkpt lat="44.01989" lon="3.50616">
        <ele>1134.2</ele>
        <time>2026-05-28T10:04:27.000Z</time>
      </trkpt>
      <trkpt lat="44.01989" lon="3.50616">
        <ele>1133.4</ele>
        <time>2026-05-28T10:04:28.000Z</time>
      </trkpt>
      <trkpt lat="44.01989" lon="3.50616">
        <ele>1133</ele>
        <time>2026-05-28T10:04:29.000Z</time>
      </trkpt>
      <trkpt lat="44.01989" lon="3.50616">
        <ele>1132.5</ele>
        <time>2026-05-28T10:04:30.000Z</time>
      </trkpt>
      <trkpt lat="44.01989" lon="3.50616">
        <ele>1132.4</ele>
        <time>2026-05-28T10:04:31.000Z</time>
      </trkpt>
      <trkpt lat="44.01989" lon="3.50616">
        <ele>1132.4</ele>
        <time>2026-05-28T10:04:32.000Z</time>
      </trkpt>
      <trkpt lat="44.01989" lon="3.50616">
        <ele>1132.5</ele>
        <time>2026-05-28T10:04:33.000Z</time>
      </trkpt>
      <trkpt lat="44.01989" lon="3.50616">
        <ele>1132.5</ele>
        <time>2026-05-28T10:04:34.000Z</time>
      </trkpt>
      <trkpt lat="44.01989" lon="3.50616">
        <ele>1132.6</ele>
        <time>2026-05-28T10:04:35.000Z</time>
      </trkpt>
      <trkpt lat="44.01989" lon="3.50616">
        <ele>1132.2</ele>
        <time>2026-05-28T10:04:36.000Z</time>
      </trkpt>
      <trkpt lat="44.01989" lon="3.50616">
        <ele>1132.2</ele>
        <time>2026-05-28T10:04:37.000Z</time>
      </trkpt>
      <trkpt lat="44.01989" lon="3.50616">
        <ele>1132</ele>
        <time>2026-05-28T10:04:38.000Z</time>
      </trkpt>
      <trkpt lat="44.01989" lon="3.50616">
        <ele>1131.9</ele>
        <time>2026-05-28T10:04:39.000Z</time>
      </trkpt>
      <trkpt lat="44.01989" lon="3.50616">
        <ele>1131.3</ele>
        <time>2026-05-28T10:04:40.000Z</time>
      </trkpt>
      <trkpt lat="44.01989" lon="3.50616">
        <ele>1130.9</ele>
        <time>2026-05-28T10:04:41.000Z</time>
      </trkpt>
      <trkpt lat="44.01988" lon="3.50616">
        <ele>1130.4</ele>
        <time>2026-05-28T10:04:42.000Z</time>
      </trkpt>
      <trkpt lat="44.01988" lon="3.50616">
        <ele>1130.3</ele>
        <time>2026-05-28T10:04:43.000Z</time>
      </trkpt>
      <trkpt lat="44.01988" lon="3.50616">
        <ele>1130.3</ele>
        <time>2026-05-28T10:04:44.000Z</time>
      </trkpt>
      <trkpt lat="44.01988" lon="3.50616">
        <ele>1130.3</ele>
        <time>2026-05-28T10:04:45.000Z</time>
      </trkpt>
      <trkpt lat="44.01987" lon="3.50615">
        <ele>1130.3</ele>
        <time>2026-05-28T10:04:46.000Z</time>
      </trkpt>
      <trkpt lat="44.01987" lon="3.50616">
        <ele>1130.4</ele>
        <time>2026-05-28T10:04:47.000Z</time>
      </trkpt>
      <trkpt lat="44.01985" lon="3.50616">
        <ele>1130.5</ele>
        <time>2026-05-28T10:04:48.000Z</time>
      </trkpt>
      <trkpt lat="44.01984" lon="3.50617">
        <ele>1130.6</ele>
        <time>2026-05-28T10:04:49.000Z</time>
      </trkpt>
      <trkpt lat="44.01983" lon="3.50617">
        <ele>1131.1</ele>
        <time>2026-05-28T10:04:50.000Z</time>
      </trkpt>
      <trkpt lat="44.01983" lon="3.50617">
        <ele>1131.2</ele>
        <time>2026-05-28T10:04:51.000Z</time>
      </trkpt>
      <trkpt lat="44.01982" lon="3.50617">
        <ele>1131.7</ele>
        <time>2026-05-28T10:04:52.000Z</time>
      </trkpt>
      <trkpt lat="44.01981" lon="3.50617">
        <ele>1132.2</ele>
        <time>2026-05-28T10:04:53.000Z</time>
      </trkpt>
      <trkpt lat="44.01981" lon="3.50617">
        <ele>1131.8</ele>
        <time>2026-05-28T10:04:54.000Z</time>
      </trkpt>
      <trkpt lat="44.01981" lon="3.50616">
        <ele>1131.5</ele>
        <time>2026-05-28T10:04:56.000Z</time>
      </trkpt>
      <trkpt lat="44.01982" lon="3.50615">
        <ele>1131.4</ele>
        <time>2026-05-28T10:04:57.000Z</time>
      </trkpt>
      <trkpt lat="44.01982" lon="3.50615">
        <ele>1131.2</ele>
        <time>2026-05-28T10:04:58.000Z</time>
      </trkpt>
      <trkpt lat="44.01982" lon="3.50615">
        <ele>1131.2</ele>
        <time>2026-05-28T10:04:59.000Z</time>
      </trkpt>
      <trkpt lat="44.01982" lon="3.50615">
        <ele>1131.3</ele>
        <time>2026-05-28T10:05:00.000Z</time>
      </trkpt>
      <trkpt lat="44.01982" lon="3.50615">
        <ele>1131.2</ele>
        <time>2026-05-28T10:05:01.000Z</time>
      </trkpt>
      <trkpt lat="44.01981" lon="3.50615">
        <ele>1131</ele>
        <time>2026-05-28T10:05:02.000Z</time>
      </trkpt>
      <trkpt lat="44.01981" lon="3.50615">
        <ele>1130.9</ele>
        <time>2026-05-28T10:05:03.000Z</time>
      </trkpt>
      <trkpt lat="44.01981" lon="3.50615">
        <ele>1130.7</ele>
        <time>2026-05-28T10:05:04.000Z</time>
      </trkpt>
      <trkpt lat="44.01981" lon="3.50615">
        <ele>1130.3</ele>
        <time>2026-05-28T10:05:05.000Z</time>
      </trkpt>
      <trkpt lat="44.01981" lon="3.50615">
        <ele>1130</ele>
        <time>2026-05-28T10:05:06.000Z</time>
      </trkpt>
      <trkpt lat="44.01981" lon="3.50615">
        <ele>1129.7</ele>
        <time>2026-05-28T10:05:07.000Z</time>
      </trkpt>
      <trkpt lat="44.01981" lon="3.50615">
        <ele>1129.3</ele>
        <time>2026-05-28T10:05:08.000Z</time>
      </trkpt>
      <trkpt lat="44.01981" lon="3.50615">
        <ele>1129.1</ele>
        <time>2026-05-28T10:05:09.000Z</time>
      </trkpt>
      <trkpt lat="44.01981" lon="3.50615">
        <ele>1129.6</ele>
        <time>2026-05-28T10:05:10.000Z</time>
      </trkpt>
      <trkpt lat="44.01981" lon="3.50615">
        <ele>1129.4</ele>
        <time>2026-05-28T10:05:11.000Z</time>
      </trkpt>
      <trkpt lat="44.01981" lon="3.50615">
        <ele>1129.7</ele>
        <time>2026-05-28T10:05:12.000Z</time>
      </trkpt>
      <trkpt lat="44.01981" lon="3.50615">
        <ele>1129.6</ele>
        <time>2026-05-28T10:05:13.000Z</time>
      </trkpt>
      <trkpt lat="44.01981" lon="3.50614">
        <ele>1129.7</ele>
        <time>2026-05-28T10:05:14.000Z</time>
      </trkpt>
      <trkpt lat="44.01981" lon="3.50613">
        <ele>1129.5</ele>
        <time>2026-05-28T10:05:15.000Z</time>
      </trkpt>
      <trkpt lat="44.01982" lon="3.50613">
        <ele>1129.5</ele>
        <time>2026-05-28T10:05:16.000Z</time>
      </trkpt>
      <trkpt lat="44.01981" lon="3.50613">
        <ele>1129.5</ele>
        <time>2026-05-28T10:05:17.000Z</time>
      </trkpt>
      <trkpt lat="44.01981" lon="3.50613">
        <ele>1129.6</ele>
        <time>2026-05-28T10:05:18.000Z</time>
      </trkpt>
      <trkpt lat="44.01981" lon="3.50614">
        <ele>1129.9</ele>
        <time>2026-05-28T10:05:19.000Z</time>
      </trkpt>
      <trkpt lat="44.01982" lon="3.50615">
        <ele>1129.7</ele>
        <time>2026-05-28T10:05:20.000Z</time>
      </trkpt>
      <trkpt lat="44.01982" lon="3.50616">
        <ele>1129.4</ele>
        <time>2026-05-28T10:05:21.000Z</time>
      </trkpt>
      <trkpt lat="44.01981" lon="3.50617">
        <ele>1129.4</ele>
        <time>2026-05-28T10:05:22.000Z</time>
      </trkpt>
      <trkpt lat="44.01982" lon="3.50617">
        <ele>1129.3</ele>
        <time>2026-05-28T10:05:23.000Z</time>
      </trkpt>
      <trkpt lat="44.01982" lon="3.50617">
        <ele>1129.4</ele>
        <time>2026-05-28T10:05:24.000Z</time>
      </trkpt>
      <trkpt lat="44.01983" lon="3.50617">
        <ele>1129.1</ele>
        <time>2026-05-28T10:05:25.000Z</time>
      </trkpt>
      <trkpt lat="44.01983" lon="3.50617">
        <ele>1128.8</ele>
        <time>2026-05-28T10:05:26.000Z</time>
      </trkpt>
      <trkpt lat="44.01983" lon="3.50617">
        <ele>1128.8</ele>
        <time>2026-05-28T10:05:27.000Z</time>
      </trkpt>
      <trkpt lat="44.01983" lon="3.50618">
        <ele>1129.1</ele>
        <time>2026-05-28T10:05:28.000Z</time>
      </trkpt>
      <trkpt lat="44.01984" lon="3.50618">
        <ele>1129.2</ele>
        <time>2026-05-28T10:05:29.000Z</time>
      </trkpt>
      <trkpt lat="44.01985" lon="3.50618">
        <ele>1129.2</ele>
        <time>2026-05-28T10:05:30.000Z</time>
      </trkpt>
      <trkpt lat="44.01987" lon="3.50618">
        <ele>1129.5</ele>
        <time>2026-05-28T10:05:31.000Z</time>
      </trkpt>
      <trkpt lat="44.01987" lon="3.50618">
        <ele>1129.6</ele>
        <time>2026-05-28T10:05:32.000Z</time>
      </trkpt>
      <trkpt lat="44.01987" lon="3.50618">
        <ele>1129.8</ele>
        <time>2026-05-28T10:05:33.000Z</time>
      </trkpt>
      <trkpt lat="44.01987" lon="3.50619">
        <ele>1129.8</ele>
        <time>2026-05-28T10:05:34.000Z</time>
      </trkpt>
      <trkpt lat="44.01987" lon="3.50618">
        <ele>1129.8</ele>
        <time>2026-05-28T10:05:35.000Z</time>
      </trkpt>
      <trkpt lat="44.01986" lon="3.50618">
        <ele>1129.9</ele>
        <time>2026-05-28T10:05:36.000Z</time>
      </trkpt>
      <trkpt lat="44.01986" lon="3.50617">
        <ele>1130.1</ele>
        <time>2026-05-28T10:05:37.000Z</time>
      </trkpt>
      <trkpt lat="44.01985" lon="3.50617">
        <ele>1130.2</ele>
        <time>2026-05-28T10:05:38.000Z</time>
      </trkpt>
      <trkpt lat="44.01985" lon="3.50617">
        <ele>1129.9</ele>
        <time>2026-05-28T10:05:39.000Z</time>
      </trkpt>
      <trkpt lat="44.01985" lon="3.50616">
        <ele>1129.4</ele>
        <time>2026-05-28T10:05:40.000Z</time>
      </trkpt>
      <trkpt lat="44.01985" lon="3.50617">
        <ele>1129.4</ele>
        <time>2026-05-28T10:05:41.000Z</time>
      </trkpt>
      <trkpt lat="44.01984" lon="3.50617">
        <ele>1129.1</ele>
        <time>2026-05-28T10:05:42.000Z</time>
      </trkpt>
      <trkpt lat="44.01984" lon="3.50616">
        <ele>1128.7</ele>
        <time>2026-05-28T10:05:43.000Z</time>
      </trkpt>
      <trkpt lat="44.01984" lon="3.50616">
        <ele>1128.4</ele>
        <time>2026-05-28T10:05:44.000Z</time>
      </trkpt>
      <trkpt lat="44.01984" lon="3.50616">
        <ele>1128.9</ele>
        <time>2026-05-28T10:05:45.000Z</time>
      </trkpt>
      <trkpt lat="44.01984" lon="3.50616">
        <ele>1128.9</ele>
        <time>2026-05-28T10:05:46.000Z</time>
      </trkpt>
      <trkpt lat="44.01983" lon="3.50617">
        <ele>1129.1</ele>
        <time>2026-05-28T10:05:47.000Z</time>
      </trkpt>
      <trkpt lat="44.01982" lon="3.50617">
        <ele>1129.4</ele>
        <time>2026-05-28T10:05:48.000Z</time>
      </trkpt>
      <trkpt lat="44.01981" lon="3.50618">
        <ele>1129.4</ele>
        <time>2026-05-28T10:05:49.000Z</time>
      </trkpt>
      <trkpt lat="44.01982" lon="3.50618">
        <ele>1129.9</ele>
        <time>2026-05-28T10:05:50.000Z</time>
      </trkpt>
      <trkpt lat="44.01981" lon="3.50618">
        <ele>1129.8</ele>
        <time>2026-05-28T10:05:51.000Z</time>
      </trkpt>
      <trkpt lat="44.0198" lon="3.50618">
        <ele>1129.6</ele>
        <time>2026-05-28T10:05:53.000Z</time>
      </trkpt>
      <trkpt lat="44.01979" lon="3.50619">
        <ele>1129.6</ele>
        <time>2026-05-28T10:05:54.000Z</time>
      </trkpt>
      <trkpt lat="44.01978" lon="3.50619">
        <ele>1129.5</ele>
        <time>2026-05-28T10:05:55.000Z</time>
      </trkpt>
      <trkpt lat="44.01978" lon="3.50619">
        <ele>1129.4</ele>
        <time>2026-05-28T10:05:56.000Z</time>
      </trkpt>
      <trkpt lat="44.01978" lon="3.50619">
        <ele>1129.2</ele>
        <time>2026-05-28T10:05:57.000Z</time>
      </trkpt>
      <trkpt lat="44.01978" lon="3.50619">
        <ele>1128.9</ele>
        <time>2026-05-28T10:05:58.000Z</time>
      </trkpt>
      <trkpt lat="44.01978" lon="3.50618">
        <ele>1129.1</ele>
        <time>2026-05-28T10:05:59.000Z</time>
      </trkpt>
      <trkpt lat="44.01978" lon="3.50618">
        <ele>1129.2</ele>
        <time>2026-05-28T10:06:00.000Z</time>
      </trkpt>
      <trkpt lat="44.01978" lon="3.50618">
        <ele>1128.9</ele>
        <time>2026-05-28T10:06:01.000Z</time>
      </trkpt>
      <trkpt lat="44.01978" lon="3.50618">
        <ele>1128.9</ele>
        <time>2026-05-28T10:06:02.000Z</time>
      </trkpt>
      <trkpt lat="44.01978" lon="3.50618">
        <ele>1129.3</ele>
        <time>2026-05-28T10:06:03.000Z</time>
      </trkpt>
      <trkpt lat="44.01978" lon="3.50618">
        <ele>1129.7</ele>
        <time>2026-05-28T10:06:04.000Z</time>
      </trkpt>
      <trkpt lat="44.01978" lon="3.50618">
        <ele>1129.9</ele>
        <time>2026-05-28T10:06:05.000Z</time>
      </trkpt>
      <trkpt lat="44.01978" lon="3.50618">
        <ele>1130.1</ele>
        <time>2026-05-28T10:06:06.000Z</time>
      </trkpt>
      <trkpt lat="44.01979" lon="3.50618">
        <ele>1130.1</ele>
        <time>2026-05-28T10:06:07.000Z</time>
      </trkpt>
      <trkpt lat="44.01981" lon="3.50617">
        <ele>1129.8</ele>
        <time>2026-05-28T10:06:08.000Z</time>
      </trkpt>
      <trkpt lat="44.01981" lon="3.50617">
        <ele>1129.5</ele>
        <time>2026-05-28T10:06:09.000Z</time>
      </trkpt>
      <trkpt lat="44.01981" lon="3.50617">
        <ele>1129.3</ele>
        <time>2026-05-28T10:06:10.000Z</time>
      </trkpt>
      <trkpt lat="44.01981" lon="3.50617">
        <ele>1128.8</ele>
        <time>2026-05-28T10:06:11.000Z</time>
      </trkpt>
      <trkpt lat="44.01981" lon="3.50617">
        <ele>1129</ele>
        <time>2026-05-28T10:06:12.000Z</time>
      </trkpt>
      <trkpt lat="44.01981" lon="3.50617">
        <ele>1128.9</ele>
        <time>2026-05-28T10:06:13.000Z</time>
      </trkpt>
      <trkpt lat="44.01981" lon="3.50617">
        <ele>1129.1</ele>
        <time>2026-05-28T10:06:14.000Z</time>
      </trkpt>
      <trkpt lat="44.01981" lon="3.50617">
        <ele>1128.9</ele>
        <time>2026-05-28T10:06:15.000Z</time>
      </trkpt>
      <trkpt lat="44.01981" lon="3.50617">
        <ele>1128.7</ele>
        <time>2026-05-28T10:06:16.000Z</time>
      </trkpt>
      <trkpt lat="44.01981" lon="3.50617">
        <ele>1128.7</ele>
        <time>2026-05-28T10:06:17.000Z</time>
      </trkpt>
      <trkpt lat="44.01981" lon="3.50617">
        <ele>1128.4</ele>
        <time>2026-05-28T10:06:18.000Z</time>
      </trkpt>
      <trkpt lat="44.01981" lon="3.50617">
        <ele>1128.4</ele>
        <time>2026-05-28T10:06:19.000Z</time>
      </trkpt>
      <trkpt lat="44.01981" lon="3.50617">
        <ele>1128.3</ele>
        <time>2026-05-28T10:06:20.000Z</time>
      </trkpt>
      <trkpt lat="44.01981" lon="3.50617">
        <ele>1128.4</ele>
        <time>2026-05-28T10:06:21.000Z</time>
      </trkpt>
      <trkpt lat="44.01981" lon="3.50617">
        <ele>1128.4</ele>
        <time>2026-05-28T10:06:22.000Z</time>
      </trkpt>
      <trkpt lat="44.01981" lon="3.50617">
        <ele>1128.4</ele>
        <time>2026-05-28T10:06:23.000Z</time>
      </trkpt>
      <trkpt lat="44.01981" lon="3.50617">
        <ele>1128.4</ele>
        <time>2026-05-28T10:06:24.000Z</time>
      </trkpt>
      <trkpt lat="44.01981" lon="3.50617">
        <ele>1128.1</ele>
        <time>2026-05-28T10:06:25.000Z</time>
      </trkpt>
      <trkpt lat="44.01981" lon="3.50617">
        <ele>1127.9</ele>
        <time>2026-05-28T10:06:26.000Z</time>
      </trkpt>
      <trkpt lat="44.01981" lon="3.50617">
        <ele>1127.7</ele>
        <time>2026-05-28T10:06:27.000Z</time>
      </trkpt>
      <trkpt lat="44.01981" lon="3.50617">
        <ele>1127.4</ele>
        <time>2026-05-28T10:06:28.000Z</time>
      </trkpt>
      <trkpt lat="44.01981" lon="3.50617">
        <ele>1127.3</ele>
        <time>2026-05-28T10:06:29.000Z</time>
      </trkpt>
      <trkpt lat="44.01981" lon="3.50617">
        <ele>1127.1</ele>
        <time>2026-05-28T10:06:30.000Z</time>
      </trkpt>
      <trkpt lat="44.01981" lon="3.50617">
        <ele>1126.9</ele>
        <time>2026-05-28T10:06:31.000Z</time>
      </trkpt>
      <trkpt lat="44.01981" lon="3.50617">
        <ele>1126.8</ele>
        <time>2026-05-28T10:06:32.000Z</time>
      </trkpt>
      <trkpt lat="44.01981" lon="3.50617">
        <ele>1127.1</ele>
        <time>2026-05-28T10:06:33.000Z</time>
      </trkpt>
      <trkpt lat="44.01981" lon="3.50617">
        <ele>1127.3</ele>
        <time>2026-05-28T10:06:34.000Z</time>
      </trkpt>
      <trkpt lat="44.01981" lon="3.50617">
        <ele>1127.4</ele>
        <time>2026-05-28T10:06:35.000Z</time>
      </trkpt>
      <trkpt lat="44.01981" lon="3.50617">
        <ele>1127.2</ele>
        <time>2026-05-28T10:06:36.000Z</time>
      </trkpt>
      <trkpt lat="44.01981" lon="3.50617">
        <ele>1126.7</ele>
        <time>2026-05-28T10:06:37.000Z</time>
      </trkpt>
      <trkpt lat="44.01981" lon="3.50617">
        <ele>1126.6</ele>
        <time>2026-05-28T10:06:38.000Z</time>
      </trkpt>
      <trkpt lat="44.01981" lon="3.50617">
        <ele>1126.4</ele>
        <time>2026-05-28T10:06:39.000Z</time>
      </trkpt>
      <trkpt lat="44.01981" lon="3.50617">
        <ele>1126.2</ele>
        <time>2026-05-28T10:06:40.000Z</time>
      </trkpt>
      <trkpt lat="44.01981" lon="3.50617">
        <ele>1125.9</ele>
        <time>2026-05-28T10:06:41.000Z</time>
      </trkpt>
      <trkpt lat="44.01981" lon="3.50617">
        <ele>1125.8</ele>
        <time>2026-05-28T10:06:42.000Z</time>
      </trkpt>
      <trkpt lat="44.01981" lon="3.50617">
        <ele>1125.3</ele>
        <time>2026-05-28T10:06:43.000Z</time>
      </trkpt>
      <trkpt lat="44.01981" lon="3.50617">
        <ele>1124.9</ele>
        <time>2026-05-28T10:06:44.000Z</time>
      </trkpt>
      <trkpt lat="44.01981" lon="3.50617">
        <ele>1124.7</ele>
        <time>2026-05-28T10:06:45.000Z</time>
      </trkpt>
      <trkpt lat="44.01981" lon="3.50617">
        <ele>1124.8</ele>
        <time>2026-05-28T10:06:46.000Z</time>
      </trkpt>
      <trkpt lat="44.01981" lon="3.50617">
        <ele>1124.8</ele>
        <time>2026-05-28T10:06:47.000Z</time>
      </trkpt>
      <trkpt lat="44.01981" lon="3.50617">
        <ele>1124.8</ele>
        <time>2026-05-28T10:06:48.000Z</time>
      </trkpt>
      <trkpt lat="44.01981" lon="3.50617">
        <ele>1124.5</ele>
        <time>2026-05-28T10:06:49.000Z</time>
      </trkpt>
      <trkpt lat="44.01981" lon="3.50617">
        <ele>1124.2</ele>
        <time>2026-05-28T10:06:50.000Z</time>
      </trkpt>
      <trkpt lat="44.01981" lon="3.50617">
        <ele>1123.9</ele>
        <time>2026-05-28T10:06:51.000Z</time>
      </trkpt>
      <trkpt lat="44.01981" lon="3.50617">
        <ele>1123.8</ele>
        <time>2026-05-28T10:06:52.000Z</time>
      </trkpt>
      <trkpt lat="44.01981" lon="3.50617">
        <ele>1123.7</ele>
        <time>2026-05-28T10:06:53.000Z</time>
      </trkpt>
      <trkpt lat="44.01981" lon="3.50617">
        <ele>1123.4</ele>
        <time>2026-05-28T10:06:54.000Z</time>
      </trkpt>
      <trkpt lat="44.01981" lon="3.50617">
        <ele>1123.2</ele>
        <time>2026-05-28T10:06:55.000Z</time>
      </trkpt>
      <trkpt lat="44.01981" lon="3.50617">
        <ele>1123</ele>
        <time>2026-05-28T10:06:56.000Z</time>
      </trkpt>
      <trkpt lat="44.01981" lon="3.50617">
        <ele>1122.8</ele>
        <time>2026-05-28T10:06:57.000Z</time>
      </trkpt>
      <trkpt lat="44.01981" lon="3.50617">
        <ele>1122.5</ele>
        <time>2026-05-28T10:06:58.000Z</time>
      </trkpt>
      <trkpt lat="44.01981" lon="3.50617">
        <ele>1122.4</ele>
        <time>2026-05-28T10:06:59.000Z</time>
      </trkpt>
      <trkpt lat="44.01981" lon="3.50617">
        <ele>1122.6</ele>
        <time>2026-05-28T10:07:00.000Z</time>
      </trkpt>
      <trkpt lat="44.01981" lon="3.50617">
        <ele>1122.5</ele>
        <time>2026-05-28T10:07:01.000Z</time>
      </trkpt>
      <trkpt lat="44.01981" lon="3.50617">
        <ele>1122.5</ele>
        <time>2026-05-28T10:07:02.000Z</time>
      </trkpt>
      <trkpt lat="44.01981" lon="3.50617">
        <ele>1122.3</ele>
        <time>2026-05-28T10:07:03.000Z</time>
      </trkpt>
      <trkpt lat="44.01981" lon="3.50617">
        <ele>1122.3</ele>
        <time>2026-05-28T10:07:04.000Z</time>
      </trkpt>
      <trkpt lat="44.01981" lon="3.50617">
        <ele>1122.7</ele>
        <time>2026-05-28T10:07:05.000Z</time>
      </trkpt>
      <trkpt lat="44.01981" lon="3.50617">
        <ele>1122.9</ele>
        <time>2026-05-28T10:07:06.000Z</time>
      </trkpt>
      <trkpt lat="44.01981" lon="3.50617">
        <ele>1122.9</ele>
        <time>2026-05-28T10:07:07.000Z</time>
      </trkpt>
      <trkpt lat="44.01981" lon="3.50617">
        <ele>1123.3</ele>
        <time>2026-05-28T10:07:08.000Z</time>
      </trkpt>
      <trkpt lat="44.01981" lon="3.50617">
        <ele>1123.5</ele>
        <time>2026-05-28T10:07:09.000Z</time>
      </trkpt>
      <trkpt lat="44.01981" lon="3.50617">
        <ele>1123.8</ele>
        <time>2026-05-28T10:07:10.000Z</time>
      </trkpt>
      <trkpt lat="44.01981" lon="3.50617">
        <ele>1123.9</ele>
        <time>2026-05-28T10:07:11.000Z</time>
      </trkpt>
      <trkpt lat="44.01981" lon="3.50617">
        <ele>1124.2</ele>
        <time>2026-05-28T10:07:12.000Z</time>
      </trkpt>
      <trkpt lat="44.01981" lon="3.50617">
        <ele>1124.4</ele>
        <time>2026-05-28T10:07:13.000Z</time>
      </trkpt>
      <trkpt lat="44.01981" lon="3.50617">
        <ele>1124.7</ele>
        <time>2026-05-28T10:07:14.000Z</time>
      </trkpt>
      <trkpt lat="44.01981" lon="3.50617">
        <ele>1124.8</ele>
        <time>2026-05-28T10:07:15.000Z</time>
      </trkpt>
      <trkpt lat="44.01981" lon="3.50616">
        <ele>1124.9</ele>
        <time>2026-05-28T10:07:16.000Z</time>
      </trkpt>
      <trkpt lat="44.01981" lon="3.50616">
        <ele>1125</ele>
        <time>2026-05-28T10:07:17.000Z</time>
      </trkpt>
      <trkpt lat="44.01981" lon="3.50616">
        <ele>1125</ele>
        <time>2026-05-28T10:07:18.000Z</time>
      </trkpt>
      <trkpt lat="44.01981" lon="3.50616">
        <ele>1124.9</ele>
        <time>2026-05-28T10:07:19.000Z</time>
      </trkpt>
      <trkpt lat="44.01982" lon="3.50616">
        <ele>1124.9</ele>
        <time>2026-05-28T10:07:20.000Z</time>
      </trkpt>
      <trkpt lat="44.01982" lon="3.50616">
        <ele>1125.1</ele>
        <time>2026-05-28T10:07:21.000Z</time>
      </trkpt>
      <trkpt lat="44.01982" lon="3.50616">
        <ele>1125.3</ele>
        <time>2026-05-28T10:07:22.000Z</time>
      </trkpt>
      <trkpt lat="44.01982" lon="3.50616">
        <ele>1125.6</ele>
        <time>2026-05-28T10:07:23.000Z</time>
      </trkpt>
      <trkpt lat="44.01982" lon="3.50616">
        <ele>1126.1</ele>
        <time>2026-05-28T10:07:24.000Z</time>
      </trkpt>
      <trkpt lat="44.01982" lon="3.50616">
        <ele>1126.4</ele>
        <time>2026-05-28T10:07:25.000Z</time>
      </trkpt>
      <trkpt lat="44.01982" lon="3.50616">
        <ele>1126.7</ele>
        <time>2026-05-28T10:07:26.000Z</time>
      </trkpt>
      <trkpt lat="44.01982" lon="3.50616">
        <ele>1127</ele>
        <time>2026-05-28T10:07:27.000Z</time>
      </trkpt>
      <trkpt lat="44.01982" lon="3.50616">
        <ele>1127.4</ele>
        <time>2026-05-28T10:07:28.000Z</time>
      </trkpt>
      <trkpt lat="44.01982" lon="3.50616">
        <ele>1127.7</ele>
        <time>2026-05-28T10:07:29.000Z</time>
      </trkpt>
      <trkpt lat="44.01982" lon="3.50616">
        <ele>1127.8</ele>
        <time>2026-05-28T10:07:30.000Z</time>
      </trkpt>
      <trkpt lat="44.01982" lon="3.50616">
        <ele>1127.9</ele>
        <time>2026-05-28T10:07:31.000Z</time>
      </trkpt>
      <trkpt lat="44.01982" lon="3.50617">
        <ele>1128</ele>
        <time>2026-05-28T10:07:32.000Z</time>
      </trkpt>
      <trkpt lat="44.01983" lon="3.50617">
        <ele>1128.1</ele>
        <time>2026-05-28T10:07:33.000Z</time>
      </trkpt>
      <trkpt lat="44.01984" lon="3.50617">
        <ele>1128.5</ele>
        <time>2026-05-28T10:07:34.000Z</time>
      </trkpt>
      <trkpt lat="44.01984" lon="3.50617">
        <ele>1128.9</ele>
        <time>2026-05-28T10:07:35.000Z</time>
      </trkpt>
      <trkpt lat="44.01985" lon="3.50617">
        <ele>1129.3</ele>
        <time>2026-05-28T10:07:36.000Z</time>
      </trkpt>
      <trkpt lat="44.01985" lon="3.50617">
        <ele>1129.4</ele>
        <time>2026-05-28T10:07:37.000Z</time>
      </trkpt>
      <trkpt lat="44.01985" lon="3.50617">
        <ele>1129.6</ele>
        <time>2026-05-28T10:07:38.000Z</time>
      </trkpt>
      <trkpt lat="44.01984" lon="3.50616">
        <ele>1129.6</ele>
        <time>2026-05-28T10:07:39.000Z</time>
      </trkpt>
      <trkpt lat="44.01984" lon="3.50616">
        <ele>1128.7</ele>
        <time>2026-05-28T10:07:40.000Z</time>
      </trkpt>
      <trkpt lat="44.01984" lon="3.50616">
        <ele>1128.8</ele>
        <time>2026-05-28T10:07:41.000Z</time>
      </trkpt>
      <trkpt lat="44.01985" lon="3.50616">
        <ele>1129.2</ele>
        <time>2026-05-28T10:07:42.000Z</time>
      </trkpt>
      <trkpt lat="44.01985" lon="3.50616">
        <ele>1129.3</ele>
        <time>2026-05-28T10:07:43.000Z</time>
      </trkpt>
      <trkpt lat="44.01986" lon="3.50616">
        <ele>1129.3</ele>
        <time>2026-05-28T10:07:44.000Z</time>
      </trkpt>
      <trkpt lat="44.01986" lon="3.50616">
        <ele>1129.3</ele>
        <time>2026-05-28T10:07:45.000Z</time>
      </trkpt>
      <trkpt lat="44.01986" lon="3.50616">
        <ele>1129.4</ele>
        <time>2026-05-28T10:07:46.000Z</time>
      </trkpt>
      <trkpt lat="44.01985" lon="3.50615">
        <ele>1129.6</ele>
        <time>2026-05-28T10:07:47.000Z</time>
      </trkpt>
      <trkpt lat="44.01985" lon="3.50615">
        <ele>1129.7</ele>
        <time>2026-05-28T10:07:48.000Z</time>
      </trkpt>
      <trkpt lat="44.01985" lon="3.50615">
        <ele>1129.7</ele>
        <time>2026-05-28T10:07:49.000Z</time>
      </trkpt>
      <trkpt lat="44.01985" lon="3.50615">
        <ele>1129.9</ele>
        <time>2026-05-28T10:07:50.000Z</time>
      </trkpt>
      <trkpt lat="44.01984" lon="3.50615">
        <ele>1130.1</ele>
        <time>2026-05-28T10:07:51.000Z</time>
      </trkpt>
      <trkpt lat="44.01984" lon="3.50615">
        <ele>1130.2</ele>
        <time>2026-05-28T10:07:52.000Z</time>
      </trkpt>
      <trkpt lat="44.01983" lon="3.50615">
        <ele>1130.3</ele>
        <time>2026-05-28T10:07:53.000Z</time>
      </trkpt>
      <trkpt lat="44.01983" lon="3.50615">
        <ele>1130.4</ele>
        <time>2026-05-28T10:07:54.000Z</time>
      </trkpt>
      <trkpt lat="44.01984" lon="3.50615">
        <ele>1130.6</ele>
        <time>2026-05-28T10:07:55.000Z</time>
      </trkpt>
      <trkpt lat="44.01984" lon="3.50615">
        <ele>1130.8</ele>
        <time>2026-05-28T10:07:56.000Z</time>
      </trkpt>
      <trkpt lat="44.01984" lon="3.50615">
        <ele>1131.1</ele>
        <time>2026-05-28T10:07:57.000Z</time>
      </trkpt>
      <trkpt lat="44.01984" lon="3.50615">
        <ele>1131.2</ele>
        <time>2026-05-28T10:07:58.000Z</time>
      </trkpt>
      <trkpt lat="44.01984" lon="3.50615">
        <ele>1131.4</ele>
        <time>2026-05-28T10:07:59.000Z</time>
      </trkpt>
      <trkpt lat="44.01984" lon="3.50615">
        <ele>1131.5</ele>
        <time>2026-05-28T10:08:00.000Z</time>
      </trkpt>
      <trkpt lat="44.01984" lon="3.50615">
        <ele>1131.7</ele>
        <time>2026-05-28T10:08:01.000Z</time>
      </trkpt>
      <trkpt lat="44.01984" lon="3.50615">
        <ele>1131.8</ele>
        <time>2026-05-28T10:08:02.000Z</time>
      </trkpt>
      <trkpt lat="44.01984" lon="3.50615">
        <ele>1131.9</ele>
        <time>2026-05-28T10:08:03.000Z</time>
      </trkpt>
      <trkpt lat="44.01984" lon="3.50615">
        <ele>1131.8</ele>
        <time>2026-05-28T10:08:04.000Z</time>
      </trkpt>
      <trkpt lat="44.01984" lon="3.50615">
        <ele>1131.6</ele>
        <time>2026-05-28T10:08:05.000Z</time>
      </trkpt>
      <trkpt lat="44.01984" lon="3.50615">
        <ele>1131.6</ele>
        <time>2026-05-28T10:08:06.000Z</time>
      </trkpt>
      <trkpt lat="44.01984" lon="3.50615">
        <ele>1131.8</ele>
        <time>2026-05-28T10:08:07.000Z</time>
      </trkpt>
      <trkpt lat="44.01984" lon="3.50615">
        <ele>1132</ele>
        <time>2026-05-28T10:08:08.000Z</time>
      </trkpt>
      <trkpt lat="44.01984" lon="3.50615">
        <ele>1132.2</ele>
        <time>2026-05-28T10:08:09.000Z</time>
      </trkpt>
      <trkpt lat="44.01984" lon="3.50615">
        <ele>1132.2</ele>
        <time>2026-05-28T10:08:10.000Z</time>
      </trkpt>
      <trkpt lat="44.01984" lon="3.50615">
        <ele>1132.3</ele>
        <time>2026-05-28T10:08:11.000Z</time>
      </trkpt>
      <trkpt lat="44.01984" lon="3.50615">
        <ele>1132.9</ele>
        <time>2026-05-28T10:08:12.000Z</time>
      </trkpt>
      <trkpt lat="44.01984" lon="3.50615">
        <ele>1133.7</ele>
        <time>2026-05-28T10:08:13.000Z</time>
      </trkpt>
      <trkpt lat="44.01984" lon="3.50615">
        <ele>1134.3</ele>
        <time>2026-05-28T10:08:14.000Z</time>
      </trkpt>
      <trkpt lat="44.01985" lon="3.50615">
        <ele>1134.6</ele>
        <time>2026-05-28T10:08:15.000Z</time>
      </trkpt>
      <trkpt lat="44.01985" lon="3.50615">
        <ele>1134.6</ele>
        <time>2026-05-28T10:08:16.000Z</time>
      </trkpt>
      <trkpt lat="44.01985" lon="3.50616">
        <ele>1134.8</ele>
        <time>2026-05-28T10:08:17.000Z</time>
      </trkpt>
      <trkpt lat="44.01985" lon="3.50615">
        <ele>1134.7</ele>
        <time>2026-05-28T10:08:18.000Z</time>
      </trkpt>
      <trkpt lat="44.01985" lon="3.50616">
        <ele>1134.8</ele>
        <time>2026-05-28T10:08:19.000Z</time>
      </trkpt>
      <trkpt lat="44.01985" lon="3.50615">
        <ele>1134.8</ele>
        <time>2026-05-28T10:08:21.000Z</time>
      </trkpt>
      <trkpt lat="44.01985" lon="3.50615">
        <ele>1134.9</ele>
        <time>2026-05-28T10:08:22.000Z</time>
      </trkpt>
      <trkpt lat="44.01983" lon="3.50615">
        <ele>1134.4</ele>
        <time>2026-05-28T10:08:23.000Z</time>
      </trkpt>
      <trkpt lat="44.01983" lon="3.50615">
        <ele>1134.4</ele>
        <time>2026-05-28T10:08:24.000Z</time>
      </trkpt>
      <trkpt lat="44.01983" lon="3.50615">
        <ele>1134.8</ele>
        <time>2026-05-28T10:08:25.000Z</time>
      </trkpt>
      <trkpt lat="44.01983" lon="3.50615">
        <ele>1134.7</ele>
        <time>2026-05-28T10:08:26.000Z</time>
      </trkpt>
      <trkpt lat="44.01983" lon="3.50615">
        <ele>1134.8</ele>
        <time>2026-05-28T10:08:27.000Z</time>
      </trkpt>
      <trkpt lat="44.01983" lon="3.50615">
        <ele>1134.9</ele>
        <time>2026-05-28T10:08:28.000Z</time>
      </trkpt>
      <trkpt lat="44.01983" lon="3.50615">
        <ele>1135.1</ele>
        <time>2026-05-28T10:08:29.000Z</time>
      </trkpt>
      <trkpt lat="44.01983" lon="3.50615">
        <ele>1135.1</ele>
        <time>2026-05-28T10:08:30.000Z</time>
      </trkpt>
      <trkpt lat="44.01983" lon="3.50615">
        <ele>1134.8</ele>
        <time>2026-05-28T10:08:31.000Z</time>
      </trkpt>
      <trkpt lat="44.01983" lon="3.50615">
        <ele>1134.5</ele>
        <time>2026-05-28T10:08:32.000Z</time>
      </trkpt>
      <trkpt lat="44.01983" lon="3.50615">
        <ele>1134.3</ele>
        <time>2026-05-28T10:08:34.000Z</time>
      </trkpt>
      <trkpt lat="44.01982" lon="3.50616">
        <ele>1134.4</ele>
        <time>2026-05-28T10:08:35.000Z</time>
      </trkpt>
      <trkpt lat="44.0198" lon="3.50617">
        <ele>1134.4</ele>
        <time>2026-05-28T10:08:36.000Z</time>
      </trkpt>
      <trkpt lat="44.0198" lon="3.50617">
        <ele>1134.1</ele>
        <time>2026-05-28T10:08:37.000Z</time>
      </trkpt>
      <trkpt lat="44.01979" lon="3.50617">
        <ele>1133.8</ele>
        <time>2026-05-28T10:08:38.000Z</time>
      </trkpt>
      <trkpt lat="44.01978" lon="3.50618">
        <ele>1133.7</ele>
        <time>2026-05-28T10:08:39.000Z</time>
      </trkpt>
      <trkpt lat="44.01978" lon="3.50618">
        <ele>1133.5</ele>
        <time>2026-05-28T10:08:40.000Z</time>
      </trkpt>
      <trkpt lat="44.01977" lon="3.50619">
        <ele>1136.3</ele>
        <time>2026-05-28T10:08:41.000Z</time>
      </trkpt>
      <trkpt lat="44.01977" lon="3.50619">
        <ele>1136.5</ele>
        <time>2026-05-28T10:08:42.000Z</time>
      </trkpt>
      <trkpt lat="44.01977" lon="3.50618">
        <ele>1136.6</ele>
        <time>2026-05-28T10:08:43.000Z</time>
      </trkpt>
      <trkpt lat="44.01976" lon="3.50619">
        <ele>1136.7</ele>
        <time>2026-05-28T10:08:44.000Z</time>
      </trkpt>
      <trkpt lat="44.01976" lon="3.50618">
        <ele>1136.7</ele>
        <time>2026-05-28T10:08:45.000Z</time>
      </trkpt>
      <trkpt lat="44.01976" lon="3.50618">
        <ele>1136.8</ele>
        <time>2026-05-28T10:08:46.000Z</time>
      </trkpt>
      <trkpt lat="44.01976" lon="3.50618">
        <ele>1137.1</ele>
        <time>2026-05-28T10:08:47.000Z</time>
      </trkpt>
      <trkpt lat="44.01976" lon="3.50618">
        <ele>1137.2</ele>
        <time>2026-05-28T10:08:48.000Z</time>
      </trkpt>
      <trkpt lat="44.01976" lon="3.50618">
        <ele>1137.4</ele>
        <time>2026-05-28T10:08:49.000Z</time>
      </trkpt>
      <trkpt lat="44.01976" lon="3.50619">
        <ele>1137.8</ele>
        <time>2026-05-28T10:08:50.000Z</time>
      </trkpt>
      <trkpt lat="44.01975" lon="3.50619">
        <ele>1137.4</ele>
        <time>2026-05-28T10:08:51.000Z</time>
      </trkpt>
      <trkpt lat="44.01976" lon="3.50619">
        <ele>1137.4</ele>
        <time>2026-05-28T10:08:52.000Z</time>
      </trkpt>
      <trkpt lat="44.01976" lon="3.50618">
        <ele>1137</ele>
        <time>2026-05-28T10:08:53.000Z</time>
      </trkpt>
      <trkpt lat="44.01976" lon="3.50618">
        <ele>1136.8</ele>
        <time>2026-05-28T10:08:54.000Z</time>
      </trkpt>
      <trkpt lat="44.01975" lon="3.50618">
        <ele>1136.6</ele>
        <time>2026-05-28T10:08:55.000Z</time>
      </trkpt>
      <trkpt lat="44.01975" lon="3.50619">
        <ele>1136.4</ele>
        <time>2026-05-28T10:08:56.000Z</time>
      </trkpt>
      <trkpt lat="44.01975" lon="3.50619">
        <ele>1136.4</ele>
        <time>2026-05-28T10:08:57.000Z</time>
      </trkpt>
      <trkpt lat="44.01975" lon="3.50619">
        <ele>1135.9</ele>
        <time>2026-05-28T10:08:58.000Z</time>
      </trkpt>
      <trkpt lat="44.01975" lon="3.5062">
        <ele>1136.3</ele>
        <time>2026-05-28T10:09:00.000Z</time>
      </trkpt>
      <trkpt lat="44.01975" lon="3.5062">
        <ele>1136.5</ele>
        <time>2026-05-28T10:09:01.000Z</time>
      </trkpt>
      <trkpt lat="44.01975" lon="3.5062">
        <ele>1136.7</ele>
        <time>2026-05-28T10:09:02.000Z</time>
      </trkpt>
      <trkpt lat="44.01974" lon="3.50619">
        <ele>1137</ele>
        <time>2026-05-28T10:09:03.000Z</time>
      </trkpt>
      <trkpt lat="44.01974" lon="3.50618">
        <ele>1137.2</ele>
        <time>2026-05-28T10:09:04.000Z</time>
      </trkpt>
      <trkpt lat="44.01974" lon="3.50618">
        <ele>1137.4</ele>
        <time>2026-05-28T10:09:05.000Z</time>
      </trkpt>
      <trkpt lat="44.01973" lon="3.50617">
        <ele>1137.5</ele>
        <time>2026-05-28T10:09:06.000Z</time>
      </trkpt>
      <trkpt lat="44.01974" lon="3.50617">
        <ele>1137.5</ele>
        <time>2026-05-28T10:09:07.000Z</time>
      </trkpt>
      <trkpt lat="44.01973" lon="3.50616">
        <ele>1137.5</ele>
        <time>2026-05-28T10:09:08.000Z</time>
      </trkpt>
      <trkpt lat="44.01975" lon="3.50616">
        <ele>1137.4</ele>
        <time>2026-05-28T10:09:09.000Z</time>
      </trkpt>
      <trkpt lat="44.01975" lon="3.50616">
        <ele>1137.3</ele>
        <time>2026-05-28T10:09:10.000Z</time>
      </trkpt>
      <trkpt lat="44.01976" lon="3.50616">
        <ele>1137.1</ele>
        <time>2026-05-28T10:09:11.000Z</time>
      </trkpt>
      <trkpt lat="44.01975" lon="3.50616">
        <ele>1136.9</ele>
        <time>2026-05-28T10:09:12.000Z</time>
      </trkpt>
      <trkpt lat="44.01975" lon="3.50616">
        <ele>1136.5</ele>
        <time>2026-05-28T10:09:13.000Z</time>
      </trkpt>
      <trkpt lat="44.01978" lon="3.50618">
        <ele>1134.4</ele>
        <time>2026-05-28T10:09:52.000Z</time>
      </trkpt>
      <trkpt lat="44.01978" lon="3.50618">
        <ele>1133.9</ele>
        <time>2026-05-28T10:09:53.000Z</time>
      </trkpt>
      <trkpt lat="44.01978" lon="3.50617">
        <ele>1133.5</ele>
        <time>2026-05-28T10:09:54.000Z</time>
      </trkpt>
      <trkpt lat="44.01978" lon="3.50617">
        <ele>1133.1</ele>
        <time>2026-05-28T10:09:55.000Z</time>
      </trkpt>
      <trkpt lat="44.01979" lon="3.50617">
        <ele>1133</ele>
        <time>2026-05-28T10:09:56.000Z</time>
      </trkpt>
      <trkpt lat="44.01978" lon="3.50617">
        <ele>1132.4</ele>
        <time>2026-05-28T10:09:57.000Z</time>
      </trkpt>
      <trkpt lat="44.01978" lon="3.50617">
        <ele>1132.4</ele>
        <time>2026-05-28T10:09:58.000Z</time>
      </trkpt>
      <trkpt lat="44.01978" lon="3.50617">
        <ele>1132.2</ele>
        <time>2026-05-28T10:09:59.000Z</time>
      </trkpt>
      <trkpt lat="44.01978" lon="3.50617">
        <ele>1132.2</ele>
        <time>2026-05-28T10:10:00.000Z</time>
      </trkpt>
      <trkpt lat="44.01978" lon="3.50617">
        <ele>1132.2</ele>
        <time>2026-05-28T10:10:01.000Z</time>
      </trkpt>
      <trkpt lat="44.01978" lon="3.50617">
        <ele>1132.1</ele>
        <time>2026-05-28T10:10:02.000Z</time>
      </trkpt>
      <trkpt lat="44.01978" lon="3.50617">
        <ele>1132.1</ele>
        <time>2026-05-28T10:10:03.000Z</time>
      </trkpt>
      <trkpt lat="44.01978" lon="3.50617">
        <ele>1132.3</ele>
        <time>2026-05-28T10:10:04.000Z</time>
      </trkpt>
      <trkpt lat="44.01977" lon="3.50617">
        <ele>1132.2</ele>
        <time>2026-05-28T10:10:05.000Z</time>
      </trkpt>
      <trkpt lat="44.01977" lon="3.50617">
        <ele>1132.2</ele>
        <time>2026-05-28T10:10:06.000Z</time>
      </trkpt>
      <trkpt lat="44.01977" lon="3.50617">
        <ele>1132.1</ele>
        <time>2026-05-28T10:10:07.000Z</time>
      </trkpt>
      <trkpt lat="44.01977" lon="3.50617">
        <ele>1132.1</ele>
        <time>2026-05-28T10:10:08.000Z</time>
      </trkpt>
      <trkpt lat="44.01977" lon="3.50617">
        <ele>1132</ele>
        <time>2026-05-28T10:10:09.000Z</time>
      </trkpt>
      <trkpt lat="44.01977" lon="3.50617">
        <ele>1131.8</ele>
        <time>2026-05-28T10:10:10.000Z</time>
      </trkpt>
      <trkpt lat="44.01977" lon="3.50617">
        <ele>1131.3</ele>
        <time>2026-05-28T10:10:11.000Z</time>
      </trkpt>
      <trkpt lat="44.01977" lon="3.50617">
        <ele>1131.2</ele>
        <time>2026-05-28T10:10:12.000Z</time>
      </trkpt>
      <trkpt lat="44.01977" lon="3.50617">
        <ele>1130.9</ele>
        <time>2026-05-28T10:10:13.000Z</time>
      </trkpt>
      <trkpt lat="44.01977" lon="3.50617">
        <ele>1130.6</ele>
        <time>2026-05-28T10:10:14.000Z</time>
      </trkpt>
      <trkpt lat="44.01977" lon="3.50617">
        <ele>1130.2</ele>
        <time>2026-05-28T10:10:15.000Z</time>
      </trkpt>
      <trkpt lat="44.01977" lon="3.50617">
        <ele>1130.2</ele>
        <time>2026-05-28T10:10:16.000Z</time>
      </trkpt>
      <trkpt lat="44.01977" lon="3.50617">
        <ele>1129.7</ele>
        <time>2026-05-28T10:10:17.000Z</time>
      </trkpt>
      <trkpt lat="44.01977" lon="3.50618">
        <ele>1129.4</ele>
        <time>2026-05-28T10:10:18.000Z</time>
      </trkpt>
      <trkpt lat="44.01977" lon="3.50618">
        <ele>1129.4</ele>
        <time>2026-05-28T10:10:19.000Z</time>
      </trkpt>
      <trkpt lat="44.01977" lon="3.50618">
        <ele>1129.3</ele>
        <time>2026-05-28T10:10:20.000Z</time>
      </trkpt>
      <trkpt lat="44.01977" lon="3.50618">
        <ele>1129.2</ele>
        <time>2026-05-28T10:10:21.000Z</time>
      </trkpt>
      <trkpt lat="44.01976" lon="3.50618">
        <ele>1129.2</ele>
        <time>2026-05-28T10:10:22.000Z</time>
      </trkpt>
      <trkpt lat="44.01976" lon="3.50618">
        <ele>1129.1</ele>
        <time>2026-05-28T10:10:23.000Z</time>
      </trkpt>
      <trkpt lat="44.01976" lon="3.50618">
        <ele>1128.7</ele>
        <time>2026-05-28T10:10:24.000Z</time>
      </trkpt>
      <trkpt lat="44.01976" lon="3.50618">
        <ele>1128.5</ele>
        <time>2026-05-28T10:10:25.000Z</time>
      </trkpt>
      <trkpt lat="44.01976" lon="3.50618">
        <ele>1128.2</ele>
        <time>2026-05-28T10:10:26.000Z</time>
      </trkpt>
      <trkpt lat="44.01976" lon="3.50618">
        <ele>1127.9</ele>
        <time>2026-05-28T10:10:27.000Z</time>
      </trkpt>
      <trkpt lat="44.01976" lon="3.50618">
        <ele>1127.5</ele>
        <time>2026-05-28T10:10:28.000Z</time>
      </trkpt>
      <trkpt lat="44.01976" lon="3.50618">
        <ele>1127.4</ele>
        <time>2026-05-28T10:10:29.000Z</time>
      </trkpt>
      <trkpt lat="44.01976" lon="3.50618">
        <ele>1127.3</ele>
        <time>2026-05-28T10:10:30.000Z</time>
      </trkpt>
      <trkpt lat="44.01976" lon="3.50618">
        <ele>1127.3</ele>
        <time>2026-05-28T10:10:31.000Z</time>
      </trkpt>
      <trkpt lat="44.01976" lon="3.50618">
        <ele>1127.2</ele>
        <time>2026-05-28T10:10:32.000Z</time>
      </trkpt>
      <trkpt lat="44.01975" lon="3.50617">
        <ele>1127.2</ele>
        <time>2026-05-28T10:10:33.000Z</time>
      </trkpt>
      <trkpt lat="44.01975" lon="3.50618">
        <ele>1127.3</ele>
        <time>2026-05-28T10:10:34.000Z</time>
      </trkpt>
      <trkpt lat="44.01975" lon="3.50618">
        <ele>1127.2</ele>
        <time>2026-05-28T10:10:35.000Z</time>
      </trkpt>
      <trkpt lat="44.01975" lon="3.50618">
        <ele>1127.2</ele>
        <time>2026-05-28T10:10:36.000Z</time>
      </trkpt>
      <trkpt lat="44.01975" lon="3.50618">
        <ele>1127.2</ele>
        <time>2026-05-28T10:10:37.000Z</time>
      </trkpt>
      <trkpt lat="44.01975" lon="3.50618">
        <ele>1127.2</ele>
        <time>2026-05-28T10:10:38.000Z</time>
      </trkpt>
      <trkpt lat="44.01975" lon="3.50618">
        <ele>1127.1</ele>
        <time>2026-05-28T10:10:39.000Z</time>
      </trkpt>
      <trkpt lat="44.01975" lon="3.50618">
        <ele>1127.1</ele>
        <time>2026-05-28T10:10:40.000Z</time>
      </trkpt>
      <trkpt lat="44.01975" lon="3.50618">
        <ele>1127.1</ele>
        <time>2026-05-28T10:10:41.000Z</time>
      </trkpt>
      <trkpt lat="44.01974" lon="3.50617">
        <ele>1127.1</ele>
        <time>2026-05-28T10:10:42.000Z</time>
      </trkpt>
      <trkpt lat="44.01974" lon="3.50618">
        <ele>1127</ele>
        <time>2026-05-28T10:10:43.000Z</time>
      </trkpt>
      <trkpt lat="44.01973" lon="3.50618">
        <ele>1127</ele>
        <time>2026-05-28T10:10:44.000Z</time>
      </trkpt>
      <trkpt lat="44.01973" lon="3.50618">
        <ele>1127</ele>
        <time>2026-05-28T10:10:45.000Z</time>
      </trkpt>
      <trkpt lat="44.01972" lon="3.50618">
        <ele>1127</ele>
        <time>2026-05-28T10:10:46.000Z</time>
      </trkpt>
      <trkpt lat="44.01972" lon="3.50618">
        <ele>1127</ele>
        <time>2026-05-28T10:10:47.000Z</time>
      </trkpt>
      <trkpt lat="44.01972" lon="3.50618">
        <ele>1127.1</ele>
        <time>2026-05-28T10:10:48.000Z</time>
      </trkpt>
      <trkpt lat="44.01971" lon="3.50618">
        <ele>1127.1</ele>
        <time>2026-05-28T10:10:49.000Z</time>
      </trkpt>
      <trkpt lat="44.01971" lon="3.50618">
        <ele>1127</ele>
        <time>2026-05-28T10:10:50.000Z</time>
      </trkpt>
      <trkpt lat="44.0197" lon="3.50618">
        <ele>1127</ele>
        <time>2026-05-28T10:10:51.000Z</time>
      </trkpt>
      <trkpt lat="44.0197" lon="3.50618">
        <ele>1127</ele>
        <time>2026-05-28T10:10:52.000Z</time>
      </trkpt>
      <trkpt lat="44.0197" lon="3.50618">
        <ele>1127</ele>
        <time>2026-05-28T10:10:53.000Z</time>
      </trkpt>
      <trkpt lat="44.0197" lon="3.50618">
        <ele>1127</ele>
        <time>2026-05-28T10:10:54.000Z</time>
      </trkpt>
      <trkpt lat="44.0197" lon="3.50617">
        <ele>1127</ele>
        <time>2026-05-28T10:10:55.000Z</time>
      </trkpt>
      <trkpt lat="44.0197" lon="3.50617">
        <ele>1126.9</ele>
        <time>2026-05-28T10:10:56.000Z</time>
      </trkpt>
      <trkpt lat="44.0197" lon="3.50617">
        <ele>1126.9</ele>
        <time>2026-05-28T10:10:57.000Z</time>
      </trkpt>
      <trkpt lat="44.01971" lon="3.50616">
        <ele>1126.9</ele>
        <time>2026-05-28T10:10:58.000Z</time>
      </trkpt>
      <trkpt lat="44.01972" lon="3.50615">
        <ele>1126.8</ele>
        <time>2026-05-28T10:10:59.000Z</time>
      </trkpt>
      <trkpt lat="44.01973" lon="3.50615">
        <ele>1126.8</ele>
        <time>2026-05-28T10:11:00.000Z</time>
      </trkpt>
      <trkpt lat="44.01973" lon="3.50614">
        <ele>1126.8</ele>
        <time>2026-05-28T10:11:01.000Z</time>
      </trkpt>
      <trkpt lat="44.01973" lon="3.50614">
        <ele>1126.8</ele>
        <time>2026-05-28T10:11:02.000Z</time>
      </trkpt>
      <trkpt lat="44.01973" lon="3.50614">
        <ele>1126.8</ele>
        <time>2026-05-28T10:11:03.000Z</time>
      </trkpt>
      <trkpt lat="44.01973" lon="3.50614">
        <ele>1126.8</ele>
        <time>2026-05-28T10:11:04.000Z</time>
      </trkpt>
      <trkpt lat="44.01973" lon="3.50614">
        <ele>1126.8</ele>
        <time>2026-05-28T10:11:05.000Z</time>
      </trkpt>
      <trkpt lat="44.01973" lon="3.50614">
        <ele>1126.8</ele>
        <time>2026-05-28T10:11:06.000Z</time>
      </trkpt>
      <trkpt lat="44.01976" lon="3.50618">
        <ele>1125.4</ele>
        <time>2026-05-28T10:11:31.000Z</time>
      </trkpt>
      <trkpt lat="44.01976" lon="3.50619">
        <ele>1125.8</ele>
        <time>2026-05-28T10:11:32.000Z</time>
      </trkpt>
      <trkpt lat="44.01975" lon="3.50619">
        <ele>1126.2</ele>
        <time>2026-05-28T10:11:33.000Z</time>
      </trkpt>
      <trkpt lat="44.01975" lon="3.50619">
        <ele>1126.8</ele>
        <time>2026-05-28T10:11:34.000Z</time>
      </trkpt>
      <trkpt lat="44.01975" lon="3.50619">
        <ele>1126.8</ele>
        <time>2026-05-28T10:11:35.000Z</time>
      </trkpt>
      <trkpt lat="44.01975" lon="3.50619">
        <ele>1126.4</ele>
        <time>2026-05-28T10:11:36.000Z</time>
      </trkpt>
      <trkpt lat="44.01975" lon="3.50619">
        <ele>1126.6</ele>
        <time>2026-05-28T10:11:37.000Z</time>
      </trkpt>
      <trkpt lat="44.01976" lon="3.50618">
        <ele>1126.9</ele>
        <time>2026-05-28T10:11:38.000Z</time>
      </trkpt>
      <trkpt lat="44.01978" lon="3.50618">
        <ele>1128</ele>
        <time>2026-05-28T10:11:39.000Z</time>
      </trkpt>
      <trkpt lat="44.01979" lon="3.50619">
        <ele>1128.7</ele>
        <time>2026-05-28T10:11:40.000Z</time>
      </trkpt>
      <trkpt lat="44.01979" lon="3.50619">
        <ele>1129.2</ele>
        <time>2026-05-28T10:11:41.000Z</time>
      </trkpt>
      <trkpt lat="44.01979" lon="3.50619">
        <ele>1129.1</ele>
        <time>2026-05-28T10:11:42.000Z</time>
      </trkpt>
      <trkpt lat="44.01979" lon="3.50619">
        <ele>1129</ele>
        <time>2026-05-28T10:11:44.000Z</time>
      </trkpt>
      <trkpt lat="44.01979" lon="3.50619">
        <ele>1128.9</ele>
        <time>2026-05-28T10:11:45.000Z</time>
      </trkpt>
      <trkpt lat="44.01979" lon="3.50619">
        <ele>1128.9</ele>
        <time>2026-05-28T10:11:46.000Z</time>
      </trkpt>
      <trkpt lat="44.01978" lon="3.5062">
        <ele>1129</ele>
        <time>2026-05-28T10:11:47.000Z</time>
      </trkpt>
      <trkpt lat="44.01978" lon="3.5062">
        <ele>1129.4</ele>
        <time>2026-05-28T10:11:48.000Z</time>
      </trkpt>
      <trkpt lat="44.01977" lon="3.5062">
        <ele>1129.5</ele>
        <time>2026-05-28T10:11:49.000Z</time>
      </trkpt>
      <trkpt lat="44.01978" lon="3.5062">
        <ele>1129.4</ele>
        <time>2026-05-28T10:11:50.000Z</time>
      </trkpt>
      <trkpt lat="44.01978" lon="3.50619">
        <ele>1128.8</ele>
        <time>2026-05-28T10:11:51.000Z</time>
      </trkpt>
      <trkpt lat="44.01978" lon="3.50619">
        <ele>1128.1</ele>
        <time>2026-05-28T10:11:52.000Z</time>
      </trkpt>
      <trkpt lat="44.01979" lon="3.50619">
        <ele>1127.7</ele>
        <time>2026-05-28T10:11:53.000Z</time>
      </trkpt>
      <trkpt lat="44.0198" lon="3.50619">
        <ele>1127.6</ele>
        <time>2026-05-28T10:11:54.000Z</time>
      </trkpt>
      <trkpt lat="44.0198" lon="3.50619">
        <ele>1127.6</ele>
        <time>2026-05-28T10:11:55.000Z</time>
      </trkpt>
      <trkpt lat="44.0198" lon="3.50618">
        <ele>1127.4</ele>
        <time>2026-05-28T10:11:56.000Z</time>
      </trkpt>
      <trkpt lat="44.01981" lon="3.50618">
        <ele>1127</ele>
        <time>2026-05-28T10:11:57.000Z</time>
      </trkpt>
      <trkpt lat="44.01982" lon="3.50618">
        <ele>1126.8</ele>
        <time>2026-05-28T10:11:58.000Z</time>
      </trkpt>
      <trkpt lat="44.01982" lon="3.50617">
        <ele>1127.1</ele>
        <time>2026-05-28T10:11:59.000Z</time>
      </trkpt>
      <trkpt lat="44.01982" lon="3.50617">
        <ele>1127.4</ele>
        <time>2026-05-28T10:12:00.000Z</time>
      </trkpt>
      <trkpt lat="44.01983" lon="3.50617">
        <ele>1128.7</ele>
        <time>2026-05-28T10:12:02.000Z</time>
      </trkpt>
      <trkpt lat="44.01984" lon="3.50617">
        <ele>1129.2</ele>
        <time>2026-05-28T10:12:03.000Z</time>
      </trkpt>
      <trkpt lat="44.01985" lon="3.50616">
        <ele>1129.1</ele>
        <time>2026-05-28T10:12:04.000Z</time>
      </trkpt>
      <trkpt lat="44.01986" lon="3.50616">
        <ele>1129.4</ele>
        <time>2026-05-28T10:12:05.000Z</time>
      </trkpt>
      <trkpt lat="44.01986" lon="3.50616">
        <ele>1129.2</ele>
        <time>2026-05-28T10:12:06.000Z</time>
      </trkpt>
      <trkpt lat="44.01986" lon="3.50616">
        <ele>1129.2</ele>
        <time>2026-05-28T10:12:07.000Z</time>
      </trkpt>
      <trkpt lat="44.01986" lon="3.50616">
        <ele>1129.1</ele>
        <time>2026-05-28T10:12:08.000Z</time>
      </trkpt>
      <trkpt lat="44.01986" lon="3.50616">
        <ele>1128.9</ele>
        <time>2026-05-28T10:12:09.000Z</time>
      </trkpt>
      <trkpt lat="44.01986" lon="3.50616">
        <ele>1128.3</ele>
        <time>2026-05-28T10:12:10.000Z</time>
      </trkpt>
      <trkpt lat="44.01986" lon="3.50616">
        <ele>1128</ele>
        <time>2026-05-28T10:12:11.000Z</time>
      </trkpt>
      <trkpt lat="44.01986" lon="3.50616">
        <ele>1127</ele>
        <time>2026-05-28T10:12:13.000Z</time>
      </trkpt>
      <trkpt lat="44.01986" lon="3.50616">
        <ele>1126.5</ele>
        <time>2026-05-28T10:12:14.000Z</time>
      </trkpt>
      <trkpt lat="44.01986" lon="3.50616">
        <ele>1126.1</ele>
        <time>2026-05-28T10:12:15.000Z</time>
      </trkpt>
      <trkpt lat="44.01986" lon="3.50616">
        <ele>1125.8</ele>
        <time>2026-05-28T10:12:16.000Z</time>
      </trkpt>
      <trkpt lat="44.01986" lon="3.50616">
        <ele>1125.5</ele>
        <time>2026-05-28T10:12:17.000Z</time>
      </trkpt>
      <trkpt lat="44.01986" lon="3.50616">
        <ele>1125</ele>
        <time>2026-05-28T10:12:18.000Z</time>
      </trkpt>
      <trkpt lat="44.01986" lon="3.50616">
        <ele>1124.7</ele>
        <time>2026-05-28T10:12:19.000Z</time>
      </trkpt>
      <trkpt lat="44.01986" lon="3.50616">
        <ele>1124.9</ele>
        <time>2026-05-28T10:12:20.000Z</time>
      </trkpt>
      <trkpt lat="44.01986" lon="3.50616">
        <ele>1125.5</ele>
        <time>2026-05-28T10:12:21.000Z</time>
      </trkpt>
      <trkpt lat="44.01986" lon="3.50616">
        <ele>1125.7</ele>
        <time>2026-05-28T10:12:22.000Z</time>
      </trkpt>
      <trkpt lat="44.01986" lon="3.50616">
        <ele>1125.5</ele>
        <time>2026-05-28T10:12:23.000Z</time>
      </trkpt>
      <trkpt lat="44.01986" lon="3.50616">
        <ele>1125.1</ele>
        <time>2026-05-28T10:12:24.000Z</time>
      </trkpt>
      <trkpt lat="44.01986" lon="3.50616">
        <ele>1125</ele>
        <time>2026-05-28T10:12:25.000Z</time>
      </trkpt>
      <trkpt lat="44.01986" lon="3.50616">
        <ele>1125.1</ele>
        <time>2026-05-28T10:12:26.000Z</time>
      </trkpt>
      <trkpt lat="44.01986" lon="3.50616">
        <ele>1124.9</ele>
        <time>2026-05-28T10:12:27.000Z</time>
      </trkpt>
      <trkpt lat="44.01986" lon="3.50616">
        <ele>1124.8</ele>
        <time>2026-05-28T10:12:28.000Z</time>
      </trkpt>
      <trkpt lat="44.01985" lon="3.50616">
        <ele>1124.4</ele>
        <time>2026-05-28T10:12:30.000Z</time>
      </trkpt>
      <trkpt lat="44.01985" lon="3.50616">
        <ele>1124.2</ele>
        <time>2026-05-28T10:12:31.000Z</time>
      </trkpt>
      <trkpt lat="44.01985" lon="3.50615">
        <ele>1124</ele>
        <time>2026-05-28T10:12:32.000Z</time>
      </trkpt>
      <trkpt lat="44.01984" lon="3.50616">
        <ele>1123.8</ele>
        <time>2026-05-28T10:12:33.000Z</time>
      </trkpt>
      <trkpt lat="44.01984" lon="3.50615">
        <ele>1123.5</ele>
        <time>2026-05-28T10:12:34.000Z</time>
      </trkpt>
      <trkpt lat="44.01985" lon="3.50614">
        <ele>1123.4</ele>
        <time>2026-05-28T10:12:35.000Z</time>
      </trkpt>
      <trkpt lat="44.01985" lon="3.50614">
        <ele>1123.4</ele>
        <time>2026-05-28T10:12:36.000Z</time>
      </trkpt>
      <trkpt lat="44.01985" lon="3.50613">
        <ele>1123.7</ele>
        <time>2026-05-28T10:12:37.000Z</time>
      </trkpt>
      <trkpt lat="44.01985" lon="3.50613">
        <ele>1123.8</ele>
        <time>2026-05-28T10:12:38.000Z</time>
      </trkpt>
      <trkpt lat="44.01985" lon="3.50613">
        <ele>1123.8</ele>
        <time>2026-05-28T10:12:39.000Z</time>
      </trkpt>
      <trkpt lat="44.01985" lon="3.50612">
        <ele>1123.9</ele>
        <time>2026-05-28T10:12:40.000Z</time>
      </trkpt>
      <trkpt lat="44.01985" lon="3.50613">
        <ele>1124.1</ele>
        <time>2026-05-28T10:12:41.000Z</time>
      </trkpt>
      <trkpt lat="44.01984" lon="3.50615">
        <ele>1123.2</ele>
        <time>2026-05-28T10:12:42.000Z</time>
      </trkpt>
      <trkpt lat="44.01984" lon="3.50616">
        <ele>1121.7</ele>
        <time>2026-05-28T10:12:43.000Z</time>
      </trkpt>
      <trkpt lat="44.01984" lon="3.50617">
        <ele>1121.1</ele>
        <time>2026-05-28T10:12:44.000Z</time>
      </trkpt>
      <trkpt lat="44.01984" lon="3.50618">
        <ele>1120.7</ele>
        <time>2026-05-28T10:12:45.000Z</time>
      </trkpt>
      <trkpt lat="44.01984" lon="3.50618">
        <ele>1120.3</ele>
        <time>2026-05-28T10:12:46.000Z</time>
      </trkpt>
      <trkpt lat="44.01983" lon="3.50619">
        <ele>1120.3</ele>
        <time>2026-05-28T10:12:47.000Z</time>
      </trkpt>
      <trkpt lat="44.01983" lon="3.50619">
        <ele>1120.8</ele>
        <time>2026-05-28T10:12:48.000Z</time>
      </trkpt>
      <trkpt lat="44.01983" lon="3.50619">
        <ele>1120.9</ele>
        <time>2026-05-28T10:12:49.000Z</time>
      </trkpt>
      <trkpt lat="44.01983" lon="3.5062">
        <ele>1121</ele>
        <time>2026-05-28T10:12:50.000Z</time>
      </trkpt>
      <trkpt lat="44.01984" lon="3.5062">
        <ele>1121</ele>
        <time>2026-05-28T10:12:51.000Z</time>
      </trkpt>
      <trkpt lat="44.01983" lon="3.50622">
        <ele>1121.2</ele>
        <time>2026-05-28T10:12:52.000Z</time>
      </trkpt>
      <trkpt lat="44.01984" lon="3.50623">
        <ele>1121.1</ele>
        <time>2026-05-28T10:12:53.000Z</time>
      </trkpt>
      <trkpt lat="44.01984" lon="3.50623">
        <ele>1121</ele>
        <time>2026-05-28T10:12:54.000Z</time>
      </trkpt>
      <trkpt lat="44.01983" lon="3.50623">
        <ele>1120.7</ele>
        <time>2026-05-28T10:12:55.000Z</time>
      </trkpt>
      <trkpt lat="44.01984" lon="3.50624">
        <ele>1120.3</ele>
        <time>2026-05-28T10:12:56.000Z</time>
      </trkpt>
      <trkpt lat="44.01984" lon="3.50623">
        <ele>1119.9</ele>
        <time>2026-05-28T10:12:57.000Z</time>
      </trkpt>
      <trkpt lat="44.01984" lon="3.50624">
        <ele>1119.8</ele>
        <time>2026-05-28T10:12:58.000Z</time>
      </trkpt>
      <trkpt lat="44.01983" lon="3.50624">
        <ele>1119.7</ele>
        <time>2026-05-28T10:12:59.000Z</time>
      </trkpt>
      <trkpt lat="44.01981" lon="3.50625">
        <ele>1120.3</ele>
        <time>2026-05-28T10:13:00.000Z</time>
      </trkpt>
      <trkpt lat="44.0198" lon="3.50624">
        <ele>1120.1</ele>
        <time>2026-05-28T10:13:01.000Z</time>
      </trkpt>
      <trkpt lat="44.01979" lon="3.50623">
        <ele>1120</ele>
        <time>2026-05-28T10:13:02.000Z</time>
      </trkpt>
      <trkpt lat="44.01979" lon="3.50623">
        <ele>1119.8</ele>
        <time>2026-05-28T10:13:03.000Z</time>
      </trkpt>
      <trkpt lat="44.0198" lon="3.50622">
        <ele>1120.4</ele>
        <time>2026-05-28T10:13:04.000Z</time>
      </trkpt>
      <trkpt lat="44.0198" lon="3.50621">
        <ele>1121.1</ele>
        <time>2026-05-28T10:13:05.000Z</time>
      </trkpt>
      <trkpt lat="44.0198" lon="3.50621">
        <ele>1121.8</ele>
        <time>2026-05-28T10:13:06.000Z</time>
      </trkpt>
      <trkpt lat="44.0198" lon="3.5062">
        <ele>1122.1</ele>
        <time>2026-05-28T10:13:07.000Z</time>
      </trkpt>
      <trkpt lat="44.01981" lon="3.50619">
        <ele>1122.8</ele>
        <time>2026-05-28T10:13:08.000Z</time>
      </trkpt>
      <trkpt lat="44.01982" lon="3.50618">
        <ele>1122.8</ele>
        <time>2026-05-28T10:13:09.000Z</time>
      </trkpt>
      <trkpt lat="44.01981" lon="3.50618">
        <ele>1122.6</ele>
        <time>2026-05-28T10:13:10.000Z</time>
      </trkpt>
      <trkpt lat="44.01981" lon="3.50618">
        <ele>1122.4</ele>
        <time>2026-05-28T10:13:11.000Z</time>
      </trkpt>
      <trkpt lat="44.01982" lon="3.50617">
        <ele>1122.7</ele>
        <time>2026-05-28T10:13:12.000Z</time>
      </trkpt>
      <trkpt lat="44.01982" lon="3.50617">
        <ele>1122.9</ele>
        <time>2026-05-28T10:13:13.000Z</time>
      </trkpt>
      <trkpt lat="44.01982" lon="3.50618">
        <ele>1123.1</ele>
        <time>2026-05-28T10:13:14.000Z</time>
      </trkpt>
      <trkpt lat="44.01982" lon="3.50618">
        <ele>1123.5</ele>
        <time>2026-05-28T10:13:15.000Z</time>
      </trkpt>
      <trkpt lat="44.01982" lon="3.50618">
        <ele>1123.5</ele>
        <time>2026-05-28T10:13:16.000Z</time>
      </trkpt>
      <trkpt lat="44.01981" lon="3.50618">
        <ele>1123.9</ele>
        <time>2026-05-28T10:13:17.000Z</time>
      </trkpt>
      <trkpt lat="44.0198" lon="3.50619">
        <ele>1124.6</ele>
        <time>2026-05-28T10:13:18.000Z</time>
      </trkpt>
      <trkpt lat="44.01979" lon="3.5062">
        <ele>1125</ele>
        <time>2026-05-28T10:13:19.000Z</time>
      </trkpt>
      <trkpt lat="44.01979" lon="3.5062">
        <ele>1124.8</ele>
        <time>2026-05-28T10:13:20.000Z</time>
      </trkpt>
      <trkpt lat="44.01979" lon="3.5062">
        <ele>1125.1</ele>
        <time>2026-05-28T10:13:21.000Z</time>
      </trkpt>
      <trkpt lat="44.01979" lon="3.5062">
        <ele>1125.9</ele>
        <time>2026-05-28T10:13:22.000Z</time>
      </trkpt>
      <trkpt lat="44.0199" lon="3.50616">
        <ele>1125.8</ele>
        <time>2026-05-28T10:13:51.000Z</time>
      </trkpt>
      <trkpt lat="44.01989" lon="3.50617">
        <ele>1125.2</ele>
        <time>2026-05-28T10:13:52.000Z</time>
      </trkpt>
      <trkpt lat="44.01989" lon="3.50618">
        <ele>1124.8</ele>
        <time>2026-05-28T10:13:53.000Z</time>
      </trkpt>
      <trkpt lat="44.01989" lon="3.50618">
        <ele>1124.8</ele>
        <time>2026-05-28T10:13:54.000Z</time>
      </trkpt>
      <trkpt lat="44.01988" lon="3.50618">
        <ele>1124.6</ele>
        <time>2026-05-28T10:13:55.000Z</time>
      </trkpt>
      <trkpt lat="44.01988" lon="3.50618">
        <ele>1124.8</ele>
        <time>2026-05-28T10:13:56.000Z</time>
      </trkpt>
      <trkpt lat="44.01987" lon="3.50618">
        <ele>1124.9</ele>
        <time>2026-05-28T10:13:57.000Z</time>
      </trkpt>
      <trkpt lat="44.01987" lon="3.50618">
        <ele>1125.3</ele>
        <time>2026-05-28T10:13:58.000Z</time>
      </trkpt>
      <trkpt lat="44.01987" lon="3.50618">
        <ele>1125.6</ele>
        <time>2026-05-28T10:13:59.000Z</time>
      </trkpt>
      <trkpt lat="44.01988" lon="3.50617">
        <ele>1126</ele>
        <time>2026-05-28T10:14:00.000Z</time>
      </trkpt>
      <trkpt lat="44.01988" lon="3.50617">
        <ele>1126.9</ele>
        <time>2026-05-28T10:14:01.000Z</time>
      </trkpt>
      <trkpt lat="44.01988" lon="3.50617">
        <ele>1128.2</ele>
        <time>2026-05-28T10:14:02.000Z</time>
      </trkpt>
      <trkpt lat="44.01988" lon="3.50617">
        <ele>1128.4</ele>
        <time>2026-05-28T10:14:03.000Z</time>
      </trkpt>
      <trkpt lat="44.01987" lon="3.50617">
        <ele>1128.5</ele>
        <time>2026-05-28T10:14:04.000Z</time>
      </trkpt>
      <trkpt lat="44.01981" lon="3.50616">
        <ele>1129.1</ele>
        <time>2026-05-28T10:14:11.000Z</time>
      </trkpt>
      <trkpt lat="44.0198" lon="3.50616">
        <ele>1128.9</ele>
        <time>2026-05-28T10:14:12.000Z</time>
      </trkpt>
      <trkpt lat="44.01979" lon="3.50617">
        <ele>1129.1</ele>
        <time>2026-05-28T10:14:13.000Z</time>
      </trkpt>
      <trkpt lat="44.01979" lon="3.50617">
        <ele>1128.7</ele>
        <time>2026-05-28T10:14:14.000Z</time>
      </trkpt>
      <trkpt lat="44.01977" lon="3.50617">
        <ele>1127.7</ele>
        <time>2026-05-28T10:14:15.000Z</time>
      </trkpt>
      <trkpt lat="44.01977" lon="3.50617">
        <ele>1127.6</ele>
        <time>2026-05-28T10:14:16.000Z</time>
      </trkpt>
      <trkpt lat="44.01977" lon="3.50617">
        <ele>1127.3</ele>
        <time>2026-05-28T10:14:17.000Z</time>
      </trkpt>
      <trkpt lat="44.01977" lon="3.50617">
        <ele>1126.9</ele>
        <time>2026-05-28T10:14:18.000Z</time>
      </trkpt>
      <trkpt lat="44.01977" lon="3.50617">
        <ele>1126.8</ele>
        <time>2026-05-28T10:14:19.000Z</time>
      </trkpt>
      <trkpt lat="44.01977" lon="3.50617">
        <ele>1126.4</ele>
        <time>2026-05-28T10:14:20.000Z</time>
      </trkpt>
      <trkpt lat="44.01977" lon="3.50617">
        <ele>1126</ele>
        <time>2026-05-28T10:14:21.000Z</time>
      </trkpt>
      <trkpt lat="44.01977" lon="3.50617">
        <ele>1125.2</ele>
        <time>2026-05-28T10:14:22.000Z</time>
      </trkpt>
      <trkpt lat="44.01977" lon="3.50617">
        <ele>1124.8</ele>
        <time>2026-05-28T10:14:23.000Z</time>
      </trkpt>
      <trkpt lat="44.01977" lon="3.50617">
        <ele>1124.4</ele>
        <time>2026-05-28T10:14:24.000Z</time>
      </trkpt>
      <trkpt lat="44.01977" lon="3.50616">
        <ele>1123.8</ele>
        <time>2026-05-28T10:14:26.000Z</time>
      </trkpt>
      <trkpt lat="44.01978" lon="3.50615">
        <ele>1123.6</ele>
        <time>2026-05-28T10:14:27.000Z</time>
      </trkpt>
      <trkpt lat="44.01978" lon="3.50615">
        <ele>1123.7</ele>
        <time>2026-05-28T10:14:28.000Z</time>
      </trkpt>
      <trkpt lat="44.01978" lon="3.50615">
        <ele>1123.6</ele>
        <time>2026-05-28T10:14:29.000Z</time>
      </trkpt>
      <trkpt lat="44.01977" lon="3.50615">
        <ele>1123.4</ele>
        <time>2026-05-28T10:14:30.000Z</time>
      </trkpt>
      <trkpt lat="44.01977" lon="3.50615">
        <ele>1123.5</ele>
        <time>2026-05-28T10:14:31.000Z</time>
      </trkpt>
      <trkpt lat="44.01977" lon="3.50615">
        <ele>1123.2</ele>
        <time>2026-05-28T10:14:32.000Z</time>
      </trkpt>
      <trkpt lat="44.01977" lon="3.50614">
        <ele>1122.7</ele>
        <time>2026-05-28T10:14:33.000Z</time>
      </trkpt>
      <trkpt lat="44.01976" lon="3.50614">
        <ele>1123</ele>
        <time>2026-05-28T10:14:35.000Z</time>
      </trkpt>
      <trkpt lat="44.01976" lon="3.50615">
        <ele>1122.9</ele>
        <time>2026-05-28T10:14:36.000Z</time>
      </trkpt>
      <trkpt lat="44.01977" lon="3.50614">
        <ele>1122.3</ele>
        <time>2026-05-28T10:14:37.000Z</time>
      </trkpt>
      <trkpt lat="44.01976" lon="3.50613">
        <ele>1122</ele>
        <time>2026-05-28T10:14:38.000Z</time>
      </trkpt>
      <trkpt lat="44.01976" lon="3.50613">
        <ele>1122</ele>
        <time>2026-05-28T10:14:39.000Z</time>
      </trkpt>
      <trkpt lat="44.01976" lon="3.50612">
        <ele>1122.2</ele>
        <time>2026-05-28T10:14:40.000Z</time>
      </trkpt>
      <trkpt lat="44.01976" lon="3.50613">
        <ele>1121.9</ele>
        <time>2026-05-28T10:14:41.000Z</time>
      </trkpt>
      <trkpt lat="44.01977" lon="3.50612">
        <ele>1121.8</ele>
        <time>2026-05-28T10:14:42.000Z</time>
      </trkpt>
      <trkpt lat="44.01978" lon="3.50611">
        <ele>1121.8</ele>
        <time>2026-05-28T10:14:43.000Z</time>
      </trkpt>
      <trkpt lat="44.01977" lon="3.50611">
        <ele>1121.8</ele>
        <time>2026-05-28T10:14:44.000Z</time>
      </trkpt>
      <trkpt lat="44.01977" lon="3.50611">
        <ele>1121.8</ele>
        <time>2026-05-28T10:14:45.000Z</time>
      </trkpt>
      <trkpt lat="44.01976" lon="3.50611">
        <ele>1121.8</ele>
        <time>2026-05-28T10:14:46.000Z</time>
      </trkpt>
      <trkpt lat="44.01975" lon="3.50611">
        <ele>1121.8</ele>
        <time>2026-05-28T10:14:47.000Z</time>
      </trkpt>
      <trkpt lat="44.01975" lon="3.50611">
        <ele>1121.6</ele>
        <time>2026-05-28T10:14:48.000Z</time>
      </trkpt>
      <trkpt lat="44.01974" lon="3.50612">
        <ele>1121.6</ele>
        <time>2026-05-28T10:14:49.000Z</time>
      </trkpt>
      <trkpt lat="44.01974" lon="3.50612">
        <ele>1121.5</ele>
        <time>2026-05-28T10:14:50.000Z</time>
      </trkpt>
      <trkpt lat="44.01974" lon="3.50612">
        <ele>1122.1</ele>
        <time>2026-05-28T10:14:51.000Z</time>
      </trkpt>
      <trkpt lat="44.01974" lon="3.50612">
        <ele>1122.1</ele>
        <time>2026-05-28T10:14:52.000Z</time>
      </trkpt>
      <trkpt lat="44.01974" lon="3.50612">
        <ele>1122</ele>
        <time>2026-05-28T10:14:53.000Z</time>
      </trkpt>
      <trkpt lat="44.01973" lon="3.50612">
        <ele>1122.1</ele>
        <time>2026-05-28T10:14:54.000Z</time>
      </trkpt>
      <trkpt lat="44.01973" lon="3.50611">
        <ele>1122.1</ele>
        <time>2026-05-28T10:14:55.000Z</time>
      </trkpt>
      <trkpt lat="44.01973" lon="3.5061">
        <ele>1122</ele>
        <time>2026-05-28T10:14:56.000Z</time>
      </trkpt>
      <trkpt lat="44.01974" lon="3.5061">
        <ele>1122.1</ele>
        <time>2026-05-28T10:14:57.000Z</time>
      </trkpt>
      <trkpt lat="44.01973" lon="3.50611">
        <ele>1121.7</ele>
        <time>2026-05-28T10:14:58.000Z</time>
      </trkpt>
      <trkpt lat="44.01973" lon="3.50612">
        <ele>1120.9</ele>
        <time>2026-05-28T10:14:59.000Z</time>
      </trkpt>
      <trkpt lat="44.01973" lon="3.50612">
        <ele>1120.5</ele>
        <time>2026-05-28T10:15:00.000Z</time>
      </trkpt>
      <trkpt lat="44.01972" lon="3.50614">
        <ele>1120</ele>
        <time>2026-05-28T10:15:01.000Z</time>
      </trkpt>
      <trkpt lat="44.01972" lon="3.50614">
        <ele>1120</ele>
        <time>2026-05-28T10:15:02.000Z</time>
      </trkpt>
      <trkpt lat="44.01972" lon="3.50614">
        <ele>1119.9</ele>
        <time>2026-05-28T10:15:03.000Z</time>
      </trkpt>
      <trkpt lat="44.01972" lon="3.50614">
        <ele>1119.7</ele>
        <time>2026-05-28T10:15:04.000Z</time>
      </trkpt>
      <trkpt lat="44.01972" lon="3.50614">
        <ele>1119.7</ele>
        <time>2026-05-28T10:15:05.000Z</time>
      </trkpt>
      <trkpt lat="44.01972" lon="3.50614">
        <ele>1119.7</ele>
        <time>2026-05-28T10:15:06.000Z</time>
      </trkpt>
      <trkpt lat="44.01973" lon="3.50614">
        <ele>1119.2</ele>
        <time>2026-05-28T10:15:07.000Z</time>
      </trkpt>
      <trkpt lat="44.01975" lon="3.50614">
        <ele>1118.9</ele>
        <time>2026-05-28T10:15:08.000Z</time>
      </trkpt>
      <trkpt lat="44.01975" lon="3.50615">
        <ele>1118.5</ele>
        <time>2026-05-28T10:15:09.000Z</time>
      </trkpt>
      <trkpt lat="44.01976" lon="3.50616">
        <ele>1118.5</ele>
        <time>2026-05-28T10:15:10.000Z</time>
      </trkpt>
      <trkpt lat="44.01976" lon="3.50616">
        <ele>1118.6</ele>
        <time>2026-05-28T10:15:11.000Z</time>
      </trkpt>
      <trkpt lat="44.01976" lon="3.50616">
        <ele>1118.5</ele>
        <time>2026-05-28T10:15:12.000Z</time>
      </trkpt>
      <trkpt lat="44.01976" lon="3.50616">
        <ele>1118.5</ele>
        <time>2026-05-28T10:15:13.000Z</time>
      </trkpt>
      <trkpt lat="44.01977" lon="3.50615">
        <ele>1118.6</ele>
        <time>2026-05-28T10:15:14.000Z</time>
      </trkpt>
      <trkpt lat="44.01978" lon="3.50615">
        <ele>1118.5</ele>
        <time>2026-05-28T10:15:15.000Z</time>
      </trkpt>
      <trkpt lat="44.01979" lon="3.50615">
        <ele>1119.8</ele>
        <time>2026-05-28T10:15:16.000Z</time>
      </trkpt>
      <trkpt lat="44.01979" lon="3.50615">
        <ele>1121</ele>
        <time>2026-05-28T10:15:17.000Z</time>
      </trkpt>
      <trkpt lat="44.01979" lon="3.50615">
        <ele>1120.8</ele>
        <time>2026-05-28T10:15:18.000Z</time>
      </trkpt>
      <trkpt lat="44.01979" lon="3.50615">
        <ele>1120.8</ele>
        <time>2026-05-28T10:15:19.000Z</time>
      </trkpt>
      <trkpt lat="44.0198" lon="3.50615">
        <ele>1121.6</ele>
        <time>2026-05-28T10:15:20.000Z</time>
      </trkpt>
      <trkpt lat="44.01979" lon="3.50615">
        <ele>1121.6</ele>
        <time>2026-05-28T10:15:21.000Z</time>
      </trkpt>
      <trkpt lat="44.01979" lon="3.50615">
        <ele>1121.6</ele>
        <time>2026-05-28T10:15:22.000Z</time>
      </trkpt>
      <trkpt lat="44.01979" lon="3.50615">
        <ele>1121.3</ele>
        <time>2026-05-28T10:15:23.000Z</time>
      </trkpt>
      <trkpt lat="44.01979" lon="3.50615">
        <ele>1121.1</ele>
        <time>2026-05-28T10:15:24.000Z</time>
      </trkpt>
      <trkpt lat="44.01979" lon="3.50615">
        <ele>1120.8</ele>
        <time>2026-05-28T10:15:25.000Z</time>
      </trkpt>
      <trkpt lat="44.01979" lon="3.50615">
        <ele>1120.9</ele>
        <time>2026-05-28T10:15:26.000Z</time>
      </trkpt>
      <trkpt lat="44.01979" lon="3.50615">
        <ele>1120.7</ele>
        <time>2026-05-28T10:15:27.000Z</time>
      </trkpt>
      <trkpt lat="44.01979" lon="3.50615">
        <ele>1120</ele>
        <time>2026-05-28T10:15:28.000Z</time>
      </trkpt>
      <trkpt lat="44.01979" lon="3.50615">
        <ele>1119.2</ele>
        <time>2026-05-28T10:15:30.000Z</time>
      </trkpt>
      <trkpt lat="44.0198" lon="3.50615">
        <ele>1119.8</ele>
        <time>2026-05-28T10:15:31.000Z</time>
      </trkpt>
      <trkpt lat="44.0198" lon="3.50615">
        <ele>1120.1</ele>
        <time>2026-05-28T10:15:32.000Z</time>
      </trkpt>
      <trkpt lat="44.0198" lon="3.50615">
        <ele>1120.6</ele>
        <time>2026-05-28T10:15:33.000Z</time>
      </trkpt>
      <trkpt lat="44.0198" lon="3.50615">
        <ele>1121</ele>
        <time>2026-05-28T10:15:34.000Z</time>
      </trkpt>
      <trkpt lat="44.0198" lon="3.50615">
        <ele>1121</ele>
        <time>2026-05-28T10:15:35.000Z</time>
      </trkpt>
      <trkpt lat="44.0198" lon="3.50615">
        <ele>1121.1</ele>
        <time>2026-05-28T10:15:36.000Z</time>
      </trkpt>
      <trkpt lat="44.0198" lon="3.50615">
        <ele>1121.5</ele>
        <time>2026-05-28T10:15:37.000Z</time>
      </trkpt>
      <trkpt lat="44.0198" lon="3.50615">
        <ele>1122.4</ele>
        <time>2026-05-28T10:15:38.000Z</time>
      </trkpt>
      <trkpt lat="44.0198" lon="3.50615">
        <ele>1123.2</ele>
        <time>2026-05-28T10:15:39.000Z</time>
      </trkpt>
      <trkpt lat="44.0198" lon="3.50615">
        <ele>1123.9</ele>
        <time>2026-05-28T10:15:40.000Z</time>
      </trkpt>
      <trkpt lat="44.0198" lon="3.50615">
        <ele>1124.7</ele>
        <time>2026-05-28T10:15:41.000Z</time>
      </trkpt>
      <trkpt lat="44.0198" lon="3.50615">
        <ele>1126.8</ele>
        <time>2026-05-28T10:15:43.000Z</time>
      </trkpt>
      <trkpt lat="44.0198" lon="3.50615">
        <ele>1127.6</ele>
        <time>2026-05-28T10:15:44.000Z</time>
      </trkpt>
      <trkpt lat="44.0198" lon="3.50615">
        <ele>1128.4</ele>
        <time>2026-05-28T10:15:45.000Z</time>
      </trkpt>
      <trkpt lat="44.0198" lon="3.50615">
        <ele>1128.8</ele>
        <time>2026-05-28T10:15:46.000Z</time>
      </trkpt>
      <trkpt lat="44.0198" lon="3.50615">
        <ele>1129.2</ele>
        <time>2026-05-28T10:15:47.000Z</time>
      </trkpt>
      <trkpt lat="44.0198" lon="3.50615">
        <ele>1130</ele>
        <time>2026-05-28T10:15:48.000Z</time>
      </trkpt>
      <trkpt lat="44.0198" lon="3.50615">
        <ele>1130.9</ele>
        <time>2026-05-28T10:15:49.000Z</time>
      </trkpt>
      <trkpt lat="44.0198" lon="3.50615">
        <ele>1131</ele>
        <time>2026-05-28T10:15:50.999Z</time>
      </trkpt>
      <trkpt lat="44.0198" lon="3.50615">
        <ele>1130.7</ele>
        <time>2026-05-28T10:15:51.999Z</time>
      </trkpt>
      <trkpt lat="44.0198" lon="3.50615">
        <ele>1130.9</ele>
        <time>2026-05-28T10:15:52.999Z</time>
      </trkpt>
      <trkpt lat="44.0198" lon="3.50615">
        <ele>1131.4</ele>
        <time>2026-05-28T10:15:53.999Z</time>
      </trkpt>
      <trkpt lat="44.0198" lon="3.50615">
        <ele>1131.5</ele>
        <time>2026-05-28T10:15:54.999Z</time>
      </trkpt>
      <trkpt lat="44.01981" lon="3.50615">
        <ele>1131.4</ele>
        <time>2026-05-28T10:15:55.999Z</time>
      </trkpt>
      <trkpt lat="44.01983" lon="3.50615">
        <ele>1131.4</ele>
        <time>2026-05-28T10:15:56.999Z</time>
      </trkpt>
      <trkpt lat="44.01983" lon="3.50615">
        <ele>1131</ele>
        <time>2026-05-28T10:15:57.999Z</time>
      </trkpt>
      <trkpt lat="44.01984" lon="3.50615">
        <ele>1131.2</ele>
        <time>2026-05-28T10:15:58.999Z</time>
      </trkpt>
      <trkpt lat="44.01984" lon="3.50615">
        <ele>1131.6</ele>
        <time>2026-05-28T10:15:59.999Z</time>
      </trkpt>
      <trkpt lat="44.01984" lon="3.50615">
        <ele>1131.8</ele>
        <time>2026-05-28T10:16:00.999Z</time>
      </trkpt>
      <trkpt lat="44.01984" lon="3.50615">
        <ele>1131.5</ele>
        <time>2026-05-28T10:16:01.999Z</time>
      </trkpt>
      <trkpt lat="44.01984" lon="3.50615">
        <ele>1131.6</ele>
        <time>2026-05-28T10:16:02.999Z</time>
      </trkpt>
      <trkpt lat="44.01984" lon="3.50615">
        <ele>1131.6</ele>
        <time>2026-05-28T10:16:03.999Z</time>
      </trkpt>
      <trkpt lat="44.01984" lon="3.50615">
        <ele>1131.7</ele>
        <time>2026-05-28T10:16:04.999Z</time>
      </trkpt>
      <trkpt lat="44.01985" lon="3.50615">
        <ele>1131.9</ele>
        <time>2026-05-28T10:16:05.999Z</time>
      </trkpt>
      <trkpt lat="44.01985" lon="3.50615">
        <ele>1131.6</ele>
        <time>2026-05-28T10:16:06.999Z</time>
      </trkpt>
      <trkpt lat="44.01984" lon="3.50615">
        <ele>1131.7</ele>
        <time>2026-05-28T10:16:07.999Z</time>
      </trkpt>
      <trkpt lat="44.01984" lon="3.50615">
        <ele>1132</ele>
        <time>2026-05-28T10:16:08.999Z</time>
      </trkpt>
      <trkpt lat="44.01984" lon="3.50615">
        <ele>1132.1</ele>
        <time>2026-05-28T10:16:09.999Z</time>
      </trkpt>
      <trkpt lat="44.01984" lon="3.50615">
        <ele>1132.2</ele>
        <time>2026-05-28T10:16:10.999Z</time>
      </trkpt>
      <trkpt lat="44.01984" lon="3.50615">
        <ele>1132.8</ele>
        <time>2026-05-28T10:16:11.999Z</time>
      </trkpt>
      <trkpt lat="44.01984" lon="3.50616">
        <ele>1132.7</ele>
        <time>2026-05-28T10:16:12.999Z</time>
      </trkpt>
      <trkpt lat="44.01983" lon="3.50616">
        <ele>1132.7</ele>
        <time>2026-05-28T10:16:13.999Z</time>
      </trkpt>
      <trkpt lat="44.01983" lon="3.50617">
        <ele>1133</ele>
        <time>2026-05-28T10:16:15.999Z</time>
      </trkpt>
      <trkpt lat="44.01981" lon="3.50617">
        <ele>1132.8</ele>
        <time>2026-05-28T10:16:16.999Z</time>
      </trkpt>
      <trkpt lat="44.0198" lon="3.50617">
        <ele>1132.8</ele>
        <time>2026-05-28T10:16:17.999Z</time>
      </trkpt>
      <trkpt lat="44.01978" lon="3.50617">
        <ele>1132.6</ele>
        <time>2026-05-28T10:16:18.999Z</time>
      </trkpt>
      <trkpt lat="44.01978" lon="3.50617">
        <ele>1132.6</ele>
        <time>2026-05-28T10:16:19.999Z</time>
      </trkpt>
      <trkpt lat="44.01978" lon="3.50617">
        <ele>1132.9</ele>
        <time>2026-05-28T10:16:20.999Z</time>
      </trkpt>
      <trkpt lat="44.01977" lon="3.50617">
        <ele>1132.9</ele>
        <time>2026-05-28T10:16:21.999Z</time>
      </trkpt>
      <trkpt lat="44.01977" lon="3.50618">
        <ele>1133</ele>
        <time>2026-05-28T10:16:22.999Z</time>
      </trkpt>
      <trkpt lat="44.01977" lon="3.50617">
        <ele>1132.9</ele>
        <time>2026-05-28T10:16:23.999Z</time>
      </trkpt>
      <trkpt lat="44.01977" lon="3.50617">
        <ele>1132.6</ele>
        <time>2026-05-28T10:16:24.999Z</time>
      </trkpt>
      <trkpt lat="44.01977" lon="3.50617">
        <ele>1132.6</ele>
        <time>2026-05-28T10:16:25.999Z</time>
      </trkpt>
      <trkpt lat="44.01978" lon="3.50617">
        <ele>1132.4</ele>
        <time>2026-05-28T10:16:26.999Z</time>
      </trkpt>
      <trkpt lat="44.01978" lon="3.50617">
        <ele>1132.4</ele>
        <time>2026-05-28T10:16:27.999Z</time>
      </trkpt>
      <trkpt lat="44.01978" lon="3.50617">
        <ele>1132.3</ele>
        <time>2026-05-28T10:16:28.999Z</time>
      </trkpt>
      <trkpt lat="44.01978" lon="3.50617">
        <ele>1132.4</ele>
        <time>2026-05-28T10:16:29.999Z</time>
      </trkpt>
      <trkpt lat="44.01978" lon="3.50617">
        <ele>1132.3</ele>
        <time>2026-05-28T10:16:30.999Z</time>
      </trkpt>
      <trkpt lat="44.01978" lon="3.50618">
        <ele>1132.4</ele>
        <time>2026-05-28T10:16:31.999Z</time>
      </trkpt>
      <trkpt lat="44.01977" lon="3.50618">
        <ele>1132.6</ele>
        <time>2026-05-28T10:16:32.999Z</time>
      </trkpt>
      <trkpt lat="44.01977" lon="3.50618">
        <ele>1132.6</ele>
        <time>2026-05-28T10:16:33.999Z</time>
      </trkpt>
      <trkpt lat="44.01976" lon="3.50618">
        <ele>1132.7</ele>
        <time>2026-05-28T10:16:34.999Z</time>
      </trkpt>
      <trkpt lat="44.01975" lon="3.50617">
        <ele>1132.6</ele>
        <time>2026-05-28T10:16:35.999Z</time>
      </trkpt>
      <trkpt lat="44.01974" lon="3.50617">
        <ele>1132.7</ele>
        <time>2026-05-28T10:16:36.999Z</time>
      </trkpt>
      <trkpt lat="44.01974" lon="3.50617">
        <ele>1132.8</ele>
        <time>2026-05-28T10:16:37.999Z</time>
      </trkpt>
      <trkpt lat="44.01974" lon="3.50617">
        <ele>1133</ele>
        <time>2026-05-28T10:16:38.999Z</time>
      </trkpt>
      <trkpt lat="44.01974" lon="3.50617">
        <ele>1133.1</ele>
        <time>2026-05-28T10:16:39.999Z</time>
      </trkpt>
      <trkpt lat="44.01974" lon="3.50617">
        <ele>1133.2</ele>
        <time>2026-05-28T10:16:40.999Z</time>
      </trkpt>
      <trkpt lat="44.01974" lon="3.50617">
        <ele>1133.3</ele>
        <time>2026-05-28T10:16:41.999Z</time>
      </trkpt>
      <trkpt lat="44.01973" lon="3.50617">
        <ele>1133.5</ele>
        <time>2026-05-28T10:16:42.999Z</time>
      </trkpt>
      <trkpt lat="44.01973" lon="3.50617">
        <ele>1133.4</ele>
        <time>2026-05-28T10:16:43.999Z</time>
      </trkpt>
      <trkpt lat="44.01973" lon="3.50617">
        <ele>1133.5</ele>
        <time>2026-05-28T10:16:44.999Z</time>
      </trkpt>
      <trkpt lat="44.01973" lon="3.50617">
        <ele>1133.4</ele>
        <time>2026-05-28T10:16:45.999Z</time>
      </trkpt>
      <trkpt lat="44.01973" lon="3.50617">
        <ele>1133.8</ele>
        <time>2026-05-28T10:16:46.999Z</time>
      </trkpt>
      <trkpt lat="44.01973" lon="3.50617">
        <ele>1133.9</ele>
        <time>2026-05-28T10:16:47.999Z</time>
      </trkpt>
      <trkpt lat="44.01973" lon="3.50617">
        <ele>1134</ele>
        <time>2026-05-28T10:16:48.999Z</time>
      </trkpt>
      <trkpt lat="44.01973" lon="3.50617">
        <ele>1133.9</ele>
        <time>2026-05-28T10:16:49.999Z</time>
      </trkpt>
      <trkpt lat="44.01973" lon="3.50617">
        <ele>1134</ele>
        <time>2026-05-28T10:16:50.999Z</time>
      </trkpt>
      <trkpt lat="44.01973" lon="3.50617">
        <ele>1134.1</ele>
        <time>2026-05-28T10:16:51.999Z</time>
      </trkpt>
      <trkpt lat="44.01973" lon="3.50617">
        <ele>1134.6</ele>
        <time>2026-05-28T10:16:52.999Z</time>
      </trkpt>
      <trkpt lat="44.01973" lon="3.50617">
        <ele>1134.7</ele>
        <time>2026-05-28T10:16:53.999Z</time>
      </trkpt>
      <trkpt lat="44.01973" lon="3.50617">
        <ele>1134.7</ele>
        <time>2026-05-28T10:16:54.999Z</time>
      </trkpt>
      <trkpt lat="44.01973" lon="3.50617">
        <ele>1135.1</ele>
        <time>2026-05-28T10:16:55.999Z</time>
      </trkpt>
      <trkpt lat="44.01973" lon="3.50617">
        <ele>1135.7</ele>
        <time>2026-05-28T10:16:56.999Z</time>
      </trkpt>
      <trkpt lat="44.01973" lon="3.50617">
        <ele>1136.2</ele>
        <time>2026-05-28T10:16:57.999Z</time>
      </trkpt>
      <trkpt lat="44.01973" lon="3.50617">
        <ele>1136.5</ele>
        <time>2026-05-28T10:16:58.999Z</time>
      </trkpt>
      <trkpt lat="44.01973" lon="3.50617">
        <ele>1136.6</ele>
        <time>2026-05-28T10:16:59.999Z</time>
      </trkpt>
      <trkpt lat="44.01974" lon="3.50617">
        <ele>1137.4</ele>
        <time>2026-05-28T10:17:01.999Z</time>
      </trkpt>
      <trkpt lat="44.01974" lon="3.50617">
        <ele>1137.5</ele>
        <time>2026-05-28T10:17:02.999Z</time>
      </trkpt>
      <trkpt lat="44.01974" lon="3.50617">
        <ele>1137.3</ele>
        <time>2026-05-28T10:17:03.999Z</time>
      </trkpt>
      <trkpt lat="44.01973" lon="3.50618">
        <ele>1137.6</ele>
        <time>2026-05-28T10:17:04.999Z</time>
      </trkpt>
      <trkpt lat="44.01973" lon="3.50618">
        <ele>1137.6</ele>
        <time>2026-05-28T10:17:05.999Z</time>
      </trkpt>
      <trkpt lat="44.01973" lon="3.50618">
        <ele>1137.3</ele>
        <time>2026-05-28T10:17:06.999Z</time>
      </trkpt>
      <trkpt lat="44.01973" lon="3.50618">
        <ele>1137.5</ele>
        <time>2026-05-28T10:17:07.999Z</time>
      </trkpt>
      <trkpt lat="44.01974" lon="3.50618">
        <ele>1137.7</ele>
        <time>2026-05-28T10:17:08.999Z</time>
      </trkpt>
      <trkpt lat="44.01974" lon="3.50618">
        <ele>1137.7</ele>
        <time>2026-05-28T10:17:09.999Z</time>
      </trkpt>
      <trkpt lat="44.01974" lon="3.50618">
        <ele>1137.8</ele>
        <time>2026-05-28T10:17:10.999Z</time>
      </trkpt>
      <trkpt lat="44.01974" lon="3.50618">
        <ele>1137.5</ele>
        <time>2026-05-28T10:17:12.999Z</time>
      </trkpt>
      <trkpt lat="44.01974" lon="3.50618">
        <ele>1137.6</ele>
        <time>2026-05-28T10:17:13.999Z</time>
      </trkpt>
      <trkpt lat="44.01974" lon="3.50618">
        <ele>1137.7</ele>
        <time>2026-05-28T10:17:14.999Z</time>
      </trkpt>
      <trkpt lat="44.01974" lon="3.50618">
        <ele>1137.7</ele>
        <time>2026-05-28T10:17:15.999Z</time>
      </trkpt>
      <trkpt lat="44.01974" lon="3.50618">
        <ele>1137.7</ele>
        <time>2026-05-28T10:17:16.999Z</time>
      </trkpt>
      <trkpt lat="44.01975" lon="3.50617">
        <ele>1137.7</ele>
        <time>2026-05-28T10:17:17.999Z</time>
      </trkpt>
      <trkpt lat="44.01975" lon="3.50617">
        <ele>1137.7</ele>
        <time>2026-05-28T10:17:18.999Z</time>
      </trkpt>
      <trkpt lat="44.01975" lon="3.50617">
        <ele>1137.7</ele>
        <time>2026-05-28T10:17:19.999Z</time>
      </trkpt>
      <trkpt lat="44.01975" lon="3.50617">
        <ele>1137.8</ele>
        <time>2026-05-28T10:17:20.999Z</time>
      </trkpt>
      <trkpt lat="44.01975" lon="3.50617">
        <ele>1137.8</ele>
        <time>2026-05-28T10:17:21.999Z</time>
      </trkpt>
      <trkpt lat="44.01975" lon="3.50617">
        <ele>1137.9</ele>
        <time>2026-05-28T10:17:22.999Z</time>
      </trkpt>
      <trkpt lat="44.01976" lon="3.50617">
        <ele>1138.2</ele>
        <time>2026-05-28T10:17:23.999Z</time>
      </trkpt>
      <trkpt lat="44.01976" lon="3.50617">
        <ele>1138.2</ele>
        <time>2026-05-28T10:17:24.999Z</time>
      </trkpt>
      <trkpt lat="44.01977" lon="3.50617">
        <ele>1137.9</ele>
        <time>2026-05-28T10:17:25.999Z</time>
      </trkpt>
      <trkpt lat="44.01977" lon="3.50617">
        <ele>1137.8</ele>
        <time>2026-05-28T10:17:26.999Z</time>
      </trkpt>
      <trkpt lat="44.01977" lon="3.50617">
        <ele>1138</ele>
        <time>2026-05-28T10:17:27.999Z</time>
      </trkpt>
      <trkpt lat="44.01977" lon="3.50617">
        <ele>1138.2</ele>
        <time>2026-05-28T10:17:28.999Z</time>
      </trkpt>
      <trkpt lat="44.01977" lon="3.50617">
        <ele>1138.4</ele>
        <time>2026-05-28T10:17:29.999Z</time>
      </trkpt>
      <trkpt lat="44.01977" lon="3.50617">
        <ele>1138.4</ele>
        <time>2026-05-28T10:17:30.999Z</time>
      </trkpt>
      <trkpt lat="44.01977" lon="3.50617">
        <ele>1138.4</ele>
        <time>2026-05-28T10:17:31.999Z</time>
      </trkpt>
      <trkpt lat="44.01977" lon="3.50617">
        <ele>1138.5</ele>
        <time>2026-05-28T10:17:32.999Z</time>
      </trkpt>
      <trkpt lat="44.01976" lon="3.50618">
        <ele>1138.8</ele>
        <time>2026-05-28T10:17:33.999Z</time>
      </trkpt>
      <trkpt lat="44.01977" lon="3.50618">
        <ele>1138.4</ele>
        <time>2026-05-28T10:17:34.999Z</time>
      </trkpt>
      <trkpt lat="44.01977" lon="3.50618">
        <ele>1138.4</ele>
        <time>2026-05-28T10:17:35.999Z</time>
      </trkpt>
      <trkpt lat="44.01976" lon="3.50619">
        <ele>1138.5</ele>
        <time>2026-05-28T10:17:36.999Z</time>
      </trkpt>
      <trkpt lat="44.01977" lon="3.50619">
        <ele>1138.5</ele>
        <time>2026-05-28T10:17:37.999Z</time>
      </trkpt>
      <trkpt lat="44.01977" lon="3.50619">
        <ele>1138.5</ele>
        <time>2026-05-28T10:17:38.999Z</time>
      </trkpt>
      <trkpt lat="44.01978" lon="3.50618">
        <ele>1138.5</ele>
        <time>2026-05-28T10:17:39.999Z</time>
      </trkpt>
      <trkpt lat="44.01979" lon="3.50618">
        <ele>1138.4</ele>
        <time>2026-05-28T10:17:40.999Z</time>
      </trkpt>
      <trkpt lat="44.01979" lon="3.50619">
        <ele>1138.4</ele>
        <time>2026-05-28T10:17:41.999Z</time>
      </trkpt>
      <trkpt lat="44.01979" lon="3.5062">
        <ele>1138.5</ele>
        <time>2026-05-28T10:17:42.999Z</time>
      </trkpt>
      <trkpt lat="44.01981" lon="3.5062">
        <ele>1138.8</ele>
        <time>2026-05-28T10:17:43.999Z</time>
      </trkpt>
      <trkpt lat="44.01983" lon="3.5062">
        <ele>1139.1</ele>
        <time>2026-05-28T10:17:44.999Z</time>
      </trkpt>
      <trkpt lat="44.01988" lon="3.50621">
        <ele>1139.4</ele>
        <time>2026-05-28T10:17:46.999Z</time>
      </trkpt>
      <trkpt lat="44.01991" lon="3.5062">
        <ele>1140.5</ele>
        <time>2026-05-28T10:17:47.999Z</time>
      </trkpt>
      <trkpt lat="44.01994" lon="3.5062">
        <ele>1141.1</ele>
        <time>2026-05-28T10:17:48.999Z</time>
      </trkpt>
      <trkpt lat="44.01996" lon="3.50619">
        <ele>1142.5</ele>
        <time>2026-05-28T10:17:49.999Z</time>
      </trkpt>
      <trkpt lat="44.01999" lon="3.50618">
        <ele>1141.6</ele>
        <time>2026-05-28T10:17:50.999Z</time>
      </trkpt>
      <trkpt lat="44.02001" lon="3.50619">
        <ele>1141.7</ele>
        <time>2026-05-28T10:17:51.999Z</time>
      </trkpt>
      <trkpt lat="44.02003" lon="3.50618">
        <ele>1142.1</ele>
        <time>2026-05-28T10:17:52.999Z</time>
      </trkpt>
      <trkpt lat="44.02005" lon="3.50618">
        <ele>1141.7</ele>
        <time>2026-05-28T10:17:53.999Z</time>
      </trkpt>
      <trkpt lat="44.02005" lon="3.50617">
        <ele>1141</ele>
        <time>2026-05-28T10:17:54.999Z</time>
      </trkpt>
      <trkpt lat="44.02006" lon="3.50616">
        <ele>1140.5</ele>
        <time>2026-05-28T10:17:55.999Z</time>
      </trkpt>
      <trkpt lat="44.02007" lon="3.50616">
        <ele>1140.8</ele>
        <time>2026-05-28T10:17:56.999Z</time>
      </trkpt>
      <trkpt lat="44.02007" lon="3.50616">
        <ele>1141.4</ele>
        <time>2026-05-28T10:17:57.999Z</time>
      </trkpt>
      <trkpt lat="44.02007" lon="3.50615">
        <ele>1141.8</ele>
        <time>2026-05-28T10:17:58.999Z</time>
      </trkpt>
      <trkpt lat="44.02005" lon="3.50615">
        <ele>1142.6</ele>
        <time>2026-05-28T10:17:59.999Z</time>
      </trkpt>
      <trkpt lat="44.02004" lon="3.50615">
        <ele>1141.8</ele>
        <time>2026-05-28T10:18:00.999Z</time>
      </trkpt>
      <trkpt lat="44.02002" lon="3.50615">
        <ele>1141.4</ele>
        <time>2026-05-28T10:18:01.999Z</time>
      </trkpt>
      <trkpt lat="44.02" lon="3.50617">
        <ele>1141.2</ele>
        <time>2026-05-28T10:18:02.999Z</time>
      </trkpt>
      <trkpt lat="44.01999" lon="3.50617">
        <ele>1141.1</ele>
        <time>2026-05-28T10:18:03.999Z</time>
      </trkpt>
      <trkpt lat="44.01995" lon="3.50619">
        <ele>1140.3</ele>
        <time>2026-05-28T10:18:05.999Z</time>
      </trkpt>
      <trkpt lat="44.01994" lon="3.50618">
        <ele>1139.9</ele>
        <time>2026-05-28T10:18:06.999Z</time>
      </trkpt>
      <trkpt lat="44.01994" lon="3.50618">
        <ele>1137.1</ele>
        <time>2026-05-28T10:18:07.999Z</time>
      </trkpt>
      <trkpt lat="44.01992" lon="3.50619">
        <ele>1136.9</ele>
        <time>2026-05-28T10:18:08.999Z</time>
      </trkpt>
      <trkpt lat="44.0199" lon="3.50619">
        <ele>1136.6</ele>
        <time>2026-05-28T10:18:09.999Z</time>
      </trkpt>
      <trkpt lat="44.01989" lon="3.50619">
        <ele>1136.6</ele>
        <time>2026-05-28T10:18:10.999Z</time>
      </trkpt>
      <trkpt lat="44.01989" lon="3.50619">
        <ele>1136.6</ele>
        <time>2026-05-28T10:18:11.999Z</time>
      </trkpt>
      <trkpt lat="44.01989" lon="3.50619">
        <ele>1136.2</ele>
        <time>2026-05-28T10:18:12.999Z</time>
      </trkpt>
      <trkpt lat="44.01989" lon="3.50619">
        <ele>1135.7</ele>
        <time>2026-05-28T10:18:13.999Z</time>
      </trkpt>
      <trkpt lat="44.01988" lon="3.50619">
        <ele>1135.2</ele>
        <time>2026-05-28T10:18:14.999Z</time>
      </trkpt>
      <trkpt lat="44.01989" lon="3.50619">
        <ele>1135.2</ele>
        <time>2026-05-28T10:18:15.999Z</time>
      </trkpt>
      <trkpt lat="44.01989" lon="3.50619">
        <ele>1135</ele>
        <time>2026-05-28T10:18:16.999Z</time>
      </trkpt>
      <trkpt lat="44.01989" lon="3.50619">
        <ele>1134.7</ele>
        <time>2026-05-28T10:18:17.999Z</time>
      </trkpt>
      <trkpt lat="44.01989" lon="3.50619">
        <ele>1134.6</ele>
        <time>2026-05-28T10:18:18.999Z</time>
      </trkpt>
      <trkpt lat="44.01989" lon="3.50619">
        <ele>1134.4</ele>
        <time>2026-05-28T10:18:19.999Z</time>
      </trkpt>
      <trkpt lat="44.01989" lon="3.50619">
        <ele>1134.4</ele>
        <time>2026-05-28T10:18:20.999Z</time>
      </trkpt>
      <trkpt lat="44.01989" lon="3.50619">
        <ele>1134.3</ele>
        <time>2026-05-28T10:18:21.999Z</time>
      </trkpt>
      <trkpt lat="44.01989" lon="3.50619">
        <ele>1134.2</ele>
        <time>2026-05-28T10:18:22.999Z</time>
      </trkpt>
      <trkpt lat="44.01989" lon="3.50619">
        <ele>1134.3</ele>
        <time>2026-05-28T10:18:23.999Z</time>
      </trkpt>
      <trkpt lat="44.01988" lon="3.5062">
        <ele>1134.3</ele>
        <time>2026-05-28T10:18:25.999Z</time>
      </trkpt>
      <trkpt lat="44.01988" lon="3.5062">
        <ele>1134.3</ele>
        <time>2026-05-28T10:18:26.999Z</time>
      </trkpt>
      <trkpt lat="44.01988" lon="3.5062">
        <ele>1133.7</ele>
        <time>2026-05-28T10:18:27.999Z</time>
      </trkpt>
      <trkpt lat="44.01988" lon="3.5062">
        <ele>1133.6</ele>
        <time>2026-05-28T10:18:28.999Z</time>
      </trkpt>
      <trkpt lat="44.01988" lon="3.5062">
        <ele>1133.1</ele>
        <time>2026-05-28T10:18:29.999Z</time>
      </trkpt>
      <trkpt lat="44.01988" lon="3.5062">
        <ele>1132.3</ele>
        <time>2026-05-28T10:18:30.999Z</time>
      </trkpt>
      <trkpt lat="44.01988" lon="3.5062">
        <ele>1132.1</ele>
        <time>2026-05-28T10:18:31.999Z</time>
      </trkpt>
      <trkpt lat="44.01988" lon="3.5062">
        <ele>1131.5</ele>
        <time>2026-05-28T10:18:32.999Z</time>
      </trkpt>
      <trkpt lat="44.01988" lon="3.5062">
        <ele>1130.8</ele>
        <time>2026-05-28T10:18:33.999Z</time>
      </trkpt>
      <trkpt lat="44.01988" lon="3.5062">
        <ele>1130.3</ele>
        <time>2026-05-28T10:18:34.999Z</time>
      </trkpt>
      <trkpt lat="44.01988" lon="3.5062">
        <ele>1129.8</ele>
        <time>2026-05-28T10:18:35.999Z</time>
      </trkpt>
      <trkpt lat="44.01988" lon="3.5062">
        <ele>1129.3</ele>
        <time>2026-05-28T10:18:36.999Z</time>
      </trkpt>
      <trkpt lat="44.01988" lon="3.50621">
        <ele>1129.2</ele>
        <time>2026-05-28T10:18:37.999Z</time>
      </trkpt>
      <trkpt lat="44.01987" lon="3.5062">
        <ele>1129</ele>
        <time>2026-05-28T10:18:38.999Z</time>
      </trkpt>
      <trkpt lat="44.01987" lon="3.5062">
        <ele>1128.9</ele>
        <time>2026-05-28T10:18:39.999Z</time>
      </trkpt>
      <trkpt lat="44.01987" lon="3.50621">
        <ele>1128.6</ele>
        <time>2026-05-28T10:18:40.999Z</time>
      </trkpt>
      <trkpt lat="44.01986" lon="3.5062">
        <ele>1128.5</ele>
        <time>2026-05-28T10:18:41.999Z</time>
      </trkpt>
      <trkpt lat="44.01985" lon="3.5062">
        <ele>1128.1</ele>
        <time>2026-05-28T10:18:42.999Z</time>
      </trkpt>
      <trkpt lat="44.01985" lon="3.5062">
        <ele>1128</ele>
        <time>2026-05-28T10:18:43.999Z</time>
      </trkpt>
      <trkpt lat="44.01984" lon="3.5062">
        <ele>1127.6</ele>
        <time>2026-05-28T10:18:44.999Z</time>
      </trkpt>
      <trkpt lat="44.01984" lon="3.5062">
        <ele>1127.6</ele>
        <time>2026-05-28T10:18:45.999Z</time>
      </trkpt>
      <trkpt lat="44.01984" lon="3.5062">
        <ele>1127.5</ele>
        <time>2026-05-28T10:18:46.999Z</time>
      </trkpt>
      <trkpt lat="44.01984" lon="3.5062">
        <ele>1127</ele>
        <time>2026-05-28T10:18:47.999Z</time>
      </trkpt>
      <trkpt lat="44.01983" lon="3.5062">
        <ele>1127.1</ele>
        <time>2026-05-28T10:18:48.999Z</time>
      </trkpt>
      <trkpt lat="44.01983" lon="3.5062">
        <ele>1127</ele>
        <time>2026-05-28T10:18:49.999Z</time>
      </trkpt>
      <trkpt lat="44.01983" lon="3.50621">
        <ele>1126.9</ele>
        <time>2026-05-28T10:18:50.999Z</time>
      </trkpt>
      <trkpt lat="44.01982" lon="3.50621">
        <ele>1126.1</ele>
        <time>2026-05-28T10:18:52.999Z</time>
      </trkpt>
      <trkpt lat="44.01982" lon="3.50621">
        <ele>1126</ele>
        <time>2026-05-28T10:18:53.999Z</time>
      </trkpt>
      <trkpt lat="44.01982" lon="3.50621">
        <ele>1126.3</ele>
        <time>2026-05-28T10:18:54.999Z</time>
      </trkpt>
      <trkpt lat="44.01982" lon="3.50621">
        <ele>1126.1</ele>
        <time>2026-05-28T10:18:55.999Z</time>
      </trkpt>
      <trkpt lat="44.01982" lon="3.50621">
        <ele>1125.9</ele>
        <time>2026-05-28T10:18:56.999Z</time>
      </trkpt>
      <trkpt lat="44.01982" lon="3.50621">
        <ele>1125.6</ele>
        <time>2026-05-28T10:18:57.999Z</time>
      </trkpt>
      <trkpt lat="44.01982" lon="3.50622">
        <ele>1125.4</ele>
        <time>2026-05-28T10:18:58.999Z</time>
      </trkpt>
      <trkpt lat="44.01982" lon="3.50623">
        <ele>1125.1</ele>
        <time>2026-05-28T10:18:59.999Z</time>
      </trkpt>
      <trkpt lat="44.0198" lon="3.50624">
        <ele>1124.6</ele>
        <time>2026-05-28T10:19:00.999Z</time>
      </trkpt>
      <trkpt lat="44.01979" lon="3.50624">
        <ele>1123.8</ele>
        <time>2026-05-28T10:19:01.999Z</time>
      </trkpt>
      <trkpt lat="44.01979" lon="3.50625">
        <ele>1123.5</ele>
        <time>2026-05-28T10:19:02.999Z</time>
      </trkpt>
      <trkpt lat="44.01979" lon="3.50626">
        <ele>1123.2</ele>
        <time>2026-05-28T10:19:03.999Z</time>
      </trkpt>
      <trkpt lat="44.01979" lon="3.50626">
        <ele>1123.2</ele>
        <time>2026-05-28T10:19:04.999Z</time>
      </trkpt>
      <trkpt lat="44.01979" lon="3.50627">
        <ele>1123.1</ele>
        <time>2026-05-28T10:19:05.999Z</time>
      </trkpt>
      <trkpt lat="44.0198" lon="3.50627">
        <ele>1123</ele>
        <time>2026-05-28T10:19:06.999Z</time>
      </trkpt>
      <trkpt lat="44.0198" lon="3.50627">
        <ele>1122.8</ele>
        <time>2026-05-28T10:19:07.999Z</time>
      </trkpt>
      <trkpt lat="44.0198" lon="3.50628">
        <ele>1122.8</ele>
        <time>2026-05-28T10:19:08.999Z</time>
      </trkpt>
      <trkpt lat="44.0198" lon="3.50628">
        <ele>1124.1</ele>
        <time>2026-05-28T10:19:09.999Z</time>
      </trkpt>
      <trkpt lat="44.0198" lon="3.50628">
        <ele>1124.2</ele>
        <time>2026-05-28T10:19:10.999Z</time>
      </trkpt>
      <trkpt lat="44.0198" lon="3.50628">
        <ele>1124.1</ele>
        <time>2026-05-28T10:19:11.999Z</time>
      </trkpt>
      <trkpt lat="44.0198" lon="3.50628">
        <ele>1124.1</ele>
        <time>2026-05-28T10:19:12.999Z</time>
      </trkpt>
      <trkpt lat="44.01981" lon="3.50628">
        <ele>1124.2</ele>
        <time>2026-05-28T10:19:13.999Z</time>
      </trkpt>
      <trkpt lat="44.01981" lon="3.50629">
        <ele>1124.5</ele>
        <time>2026-05-28T10:19:14.999Z</time>
      </trkpt>
      <trkpt lat="44.0198" lon="3.5063">
        <ele>1125</ele>
        <time>2026-05-28T10:19:15.999Z</time>
      </trkpt>
      <trkpt lat="44.01981" lon="3.5063">
        <ele>1124.7</ele>
        <time>2026-05-28T10:19:16.999Z</time>
      </trkpt>
      <trkpt lat="44.01981" lon="3.5063">
        <ele>1124.6</ele>
        <time>2026-05-28T10:19:17.999Z</time>
      </trkpt>
      <trkpt lat="44.01981" lon="3.5063">
        <ele>1124.7</ele>
        <time>2026-05-28T10:19:18.999Z</time>
      </trkpt>
      <trkpt lat="44.01981" lon="3.50631">
        <ele>1125.4</ele>
        <time>2026-05-28T10:19:19.999Z</time>
      </trkpt>
      <trkpt lat="44.01982" lon="3.50632">
        <ele>1125.2</ele>
        <time>2026-05-28T10:19:20.999Z</time>
      </trkpt>
      <trkpt lat="44.01982" lon="3.50632">
        <ele>1125.1</ele>
        <time>2026-05-28T10:19:21.999Z</time>
      </trkpt>
      <trkpt lat="44.01983" lon="3.50633">
        <ele>1124.9</ele>
        <time>2026-05-28T10:19:22.999Z</time>
      </trkpt>
      <trkpt lat="44.01984" lon="3.50633">
        <ele>1125.1</ele>
        <time>2026-05-28T10:19:23.999Z</time>
      </trkpt>
      <trkpt lat="44.01984" lon="3.50634">
        <ele>1125.5</ele>
        <time>2026-05-28T10:19:24.999Z</time>
      </trkpt>
      <trkpt lat="44.01985" lon="3.50635">
        <ele>1126.2</ele>
        <time>2026-05-28T10:19:25.999Z</time>
      </trkpt>
      <trkpt lat="44.01987" lon="3.50636">
        <ele>1126.5</ele>
        <time>2026-05-28T10:19:26.999Z</time>
      </trkpt>
      <trkpt lat="44.01988" lon="3.50637">
        <ele>1126.7</ele>
        <time>2026-05-28T10:19:27.999Z</time>
      </trkpt>
      <trkpt lat="44.01989" lon="3.50637">
        <ele>1127.1</ele>
        <time>2026-05-28T10:19:28.999Z</time>
      </trkpt>
      <trkpt lat="44.0199" lon="3.50638">
        <ele>1127.4</ele>
        <time>2026-05-28T10:19:29.999Z</time>
      </trkpt>
      <trkpt lat="44.0199" lon="3.50639">
        <ele>1127.2</ele>
        <time>2026-05-28T10:19:30.999Z</time>
      </trkpt>
      <trkpt lat="44.01991" lon="3.5064">
        <ele>1127</ele>
        <time>2026-05-28T10:19:31.999Z</time>
      </trkpt>
      <trkpt lat="44.01991" lon="3.50641">
        <ele>1127.5</ele>
        <time>2026-05-28T10:19:32.999Z</time>
      </trkpt>
      <trkpt lat="44.01992" lon="3.50642">
        <ele>1127.5</ele>
        <time>2026-05-28T10:19:33.999Z</time>
      </trkpt>
      <trkpt lat="44.01992" lon="3.50643">
        <ele>1127.1</ele>
        <time>2026-05-28T10:19:34.999Z</time>
      </trkpt>
      <trkpt lat="44.01992" lon="3.50643">
        <ele>1126.9</ele>
        <time>2026-05-28T10:19:35.999Z</time>
      </trkpt>
      <trkpt lat="44.01993" lon="3.50643">
        <ele>1127.1</ele>
        <time>2026-05-28T10:19:36.999Z</time>
      </trkpt>
      <trkpt lat="44.01993" lon="3.50643">
        <ele>1127.4</ele>
        <time>2026-05-28T10:19:37.999Z</time>
      </trkpt>
      <trkpt lat="44.01994" lon="3.50643">
        <ele>1128.7</ele>
        <time>2026-05-28T10:19:38.999Z</time>
      </trkpt>
      <trkpt lat="44.01994" lon="3.50643">
        <ele>1128.8</ele>
        <time>2026-05-28T10:19:39.999Z</time>
      </trkpt>
      <trkpt lat="44.01994" lon="3.50644">
        <ele>1128.4</ele>
        <time>2026-05-28T10:19:40.999Z</time>
      </trkpt>
      <trkpt lat="44.01996" lon="3.50644">
        <ele>1127.9</ele>
        <time>2026-05-28T10:19:41.999Z</time>
      </trkpt>
      <trkpt lat="44.01996" lon="3.50645">
        <ele>1127.7</ele>
        <time>2026-05-28T10:19:42.999Z</time>
      </trkpt>
      <trkpt lat="44.01997" lon="3.50646">
        <ele>1127.9</ele>
        <time>2026-05-28T10:19:43.999Z</time>
      </trkpt>
      <trkpt lat="44.01998" lon="3.50646">
        <ele>1127.9</ele>
        <time>2026-05-28T10:19:44.999Z</time>
      </trkpt>
      <trkpt lat="44.01999" lon="3.50646">
        <ele>1127.5</ele>
        <time>2026-05-28T10:19:45.999Z</time>
      </trkpt>
      <trkpt lat="44.01999" lon="3.50647">
        <ele>1126.9</ele>
        <time>2026-05-28T10:19:46.999Z</time>
      </trkpt>
      <trkpt lat="44.02" lon="3.50648">
        <ele>1126.9</ele>
        <time>2026-05-28T10:19:47.999Z</time>
      </trkpt>
      <trkpt lat="44.02001" lon="3.50648">
        <ele>1126.8</ele>
        <time>2026-05-28T10:19:48.999Z</time>
      </trkpt>
      <trkpt lat="44.02002" lon="3.50649">
        <ele>1127</ele>
        <time>2026-05-28T10:19:49.999Z</time>
      </trkpt>
      <trkpt lat="44.02003" lon="3.50649">
        <ele>1126.9</ele>
        <time>2026-05-28T10:19:50.999Z</time>
      </trkpt>
      <trkpt lat="44.02003" lon="3.50649">
        <ele>1126.6</ele>
        <time>2026-05-28T10:19:51.999Z</time>
      </trkpt>
      <trkpt lat="44.02004" lon="3.50649">
        <ele>1126.6</ele>
        <time>2026-05-28T10:19:52.999Z</time>
      </trkpt>
      <trkpt lat="44.02005" lon="3.50649">
        <ele>1127</ele>
        <time>2026-05-28T10:19:53.999Z</time>
      </trkpt>
      <trkpt lat="44.02006" lon="3.5065">
        <ele>1126.7</ele>
        <time>2026-05-28T10:19:54.999Z</time>
      </trkpt>
      <trkpt lat="44.02006" lon="3.5065">
        <ele>1126.6</ele>
        <time>2026-05-28T10:19:55.999Z</time>
      </trkpt>
      <trkpt lat="44.02007" lon="3.5065">
        <ele>1126.7</ele>
        <time>2026-05-28T10:19:56.999Z</time>
      </trkpt>
      <trkpt lat="44.02007" lon="3.5065">
        <ele>1127.2</ele>
        <time>2026-05-28T10:19:57.999Z</time>
      </trkpt>
      <trkpt lat="44.02007" lon="3.5065">
        <ele>1127.4</ele>
        <time>2026-05-28T10:19:58.999Z</time>
      </trkpt>
      <trkpt lat="44.02008" lon="3.5065">
        <ele>1127.4</ele>
        <time>2026-05-28T10:19:59.999Z</time>
      </trkpt>
      <trkpt lat="44.02008" lon="3.5065">
        <ele>1127.5</ele>
        <time>2026-05-28T10:20:00.999Z</time>
      </trkpt>
      <trkpt lat="44.02009" lon="3.50651">
        <ele>1127.1</ele>
        <time>2026-05-28T10:20:01.999Z</time>
      </trkpt>
      <trkpt lat="44.02009" lon="3.50651">
        <ele>1127.8</ele>
        <time>2026-05-28T10:20:02.999Z</time>
      </trkpt>
      <trkpt lat="44.02009" lon="3.50651">
        <ele>1127.5</ele>
        <time>2026-05-28T10:20:03.999Z</time>
      </trkpt>
      <trkpt lat="44.02009" lon="3.50652">
        <ele>1127.3</ele>
        <time>2026-05-28T10:20:04.999Z</time>
      </trkpt>
      <trkpt lat="44.02009" lon="3.50652">
        <ele>1127.1</ele>
        <time>2026-05-28T10:20:05.999Z</time>
      </trkpt>
      <trkpt lat="44.0201" lon="3.50652">
        <ele>1126.8</ele>
        <time>2026-05-28T10:20:06.999Z</time>
      </trkpt>
      <trkpt lat="44.0201" lon="3.50653">
        <ele>1126.8</ele>
        <time>2026-05-28T10:20:07.999Z</time>
      </trkpt>
      <trkpt lat="44.0201" lon="3.50653">
        <ele>1126.4</ele>
        <time>2026-05-28T10:20:08.999Z</time>
      </trkpt>
      <trkpt lat="44.0201" lon="3.50653">
        <ele>1126.9</ele>
        <time>2026-05-28T10:20:09.999Z</time>
      </trkpt>
      <trkpt lat="44.0201" lon="3.50653">
        <ele>1126.7</ele>
        <time>2026-05-28T10:20:10.999Z</time>
      </trkpt>
      <trkpt lat="44.02011" lon="3.50653">
        <ele>1126.6</ele>
        <time>2026-05-28T10:20:11.999Z</time>
      </trkpt>
      <trkpt lat="44.02011" lon="3.50653">
        <ele>1126.8</ele>
        <time>2026-05-28T10:20:12.999Z</time>
      </trkpt>
      <trkpt lat="44.02012" lon="3.50653">
        <ele>1127.2</ele>
        <time>2026-05-28T10:20:13.999Z</time>
      </trkpt>
      <trkpt lat="44.0201" lon="3.50654">
        <ele>1126.8</ele>
        <time>2026-05-28T10:20:14.999Z</time>
      </trkpt>
      <trkpt lat="44.02011" lon="3.50653">
        <ele>1126.9</ele>
        <time>2026-05-28T10:20:15.999Z</time>
      </trkpt>
      <trkpt lat="44.02012" lon="3.50654">
        <ele>1127.1</ele>
        <time>2026-05-28T10:20:16.999Z</time>
      </trkpt>
      <trkpt lat="44.02012" lon="3.50654">
        <ele>1126.7</ele>
        <time>2026-05-28T10:20:17.999Z</time>
      </trkpt>
      <trkpt lat="44.02012" lon="3.50654">
        <ele>1126.3</ele>
        <time>2026-05-28T10:20:18.999Z</time>
      </trkpt>
      <trkpt lat="44.02012" lon="3.50654">
        <ele>1126.8</ele>
        <time>2026-05-28T10:20:19.999Z</time>
      </trkpt>
      <trkpt lat="44.02012" lon="3.50654">
        <ele>1127</ele>
        <time>2026-05-28T10:20:20.999Z</time>
      </trkpt>
      <trkpt lat="44.02012" lon="3.50655">
        <ele>1127.4</ele>
        <time>2026-05-28T10:20:21.999Z</time>
      </trkpt>
      <trkpt lat="44.02012" lon="3.50655">
        <ele>1127.8</ele>
        <time>2026-05-28T10:20:22.999Z</time>
      </trkpt>
      <trkpt lat="44.02012" lon="3.50655">
        <ele>1128.3</ele>
        <time>2026-05-28T10:20:23.999Z</time>
      </trkpt>
      <trkpt lat="44.02012" lon="3.50656">
        <ele>1128.6</ele>
        <time>2026-05-28T10:20:24.999Z</time>
      </trkpt>
      <trkpt lat="44.02012" lon="3.50656">
        <ele>1128.9</ele>
        <time>2026-05-28T10:20:25.999Z</time>
      </trkpt>
      <trkpt lat="44.02012" lon="3.50656">
        <ele>1128.9</ele>
        <time>2026-05-28T10:20:26.999Z</time>
      </trkpt>
      <trkpt lat="44.02012" lon="3.50656">
        <ele>1129.1</ele>
        <time>2026-05-28T10:20:27.999Z</time>
      </trkpt>
      <trkpt lat="44.02012" lon="3.50656">
        <ele>1129.2</ele>
        <time>2026-05-28T10:20:28.999Z</time>
      </trkpt>
      <trkpt lat="44.02012" lon="3.50656">
        <ele>1129.5</ele>
        <time>2026-05-28T10:20:29.999Z</time>
      </trkpt>
      <trkpt lat="44.02012" lon="3.50657">
        <ele>1129.8</ele>
        <time>2026-05-28T10:20:30.999Z</time>
      </trkpt>
      <trkpt lat="44.02011" lon="3.50657">
        <ele>1130.5</ele>
        <time>2026-05-28T10:20:31.999Z</time>
      </trkpt>
      <trkpt lat="44.02011" lon="3.50657">
        <ele>1130.9</ele>
        <time>2026-05-28T10:20:32.999Z</time>
      </trkpt>
      <trkpt lat="44.02011" lon="3.50658">
        <ele>1131.2</ele>
        <time>2026-05-28T10:20:33.999Z</time>
      </trkpt>
      <trkpt lat="44.02011" lon="3.50658">
        <ele>1131.7</ele>
        <time>2026-05-28T10:20:34.999Z</time>
      </trkpt>
      <trkpt lat="44.02011" lon="3.50658">
        <ele>1132</ele>
        <time>2026-05-28T10:20:35.999Z</time>
      </trkpt>
      <trkpt lat="44.0201" lon="3.50658">
        <ele>1132.4</ele>
        <time>2026-05-28T10:20:36.999Z</time>
      </trkpt>
      <trkpt lat="44.0201" lon="3.50658">
        <ele>1132.9</ele>
        <time>2026-05-28T10:20:37.999Z</time>
      </trkpt>
      <trkpt lat="44.0201" lon="3.50659">
        <ele>1132.8</ele>
        <time>2026-05-28T10:20:38.999Z</time>
      </trkpt>
      <trkpt lat="44.0201" lon="3.50659">
        <ele>1133.3</ele>
        <time>2026-05-28T10:20:39.999Z</time>
      </trkpt>
      <trkpt lat="44.0201" lon="3.50659">
        <ele>1134</ele>
        <time>2026-05-28T10:20:40.999Z</time>
      </trkpt>
      <trkpt lat="44.0201" lon="3.50659">
        <ele>1134.8</ele>
        <time>2026-05-28T10:20:41.999Z</time>
      </trkpt>
      <trkpt lat="44.02011" lon="3.50659">
        <ele>1134.8</ele>
        <time>2026-05-28T10:20:42.999Z</time>
      </trkpt>
      <trkpt lat="44.02011" lon="3.5066">
        <ele>1134.8</ele>
        <time>2026-05-28T10:20:43.999Z</time>
      </trkpt>
      <trkpt lat="44.0201" lon="3.5066">
        <ele>1135.4</ele>
        <time>2026-05-28T10:20:45.999Z</time>
      </trkpt>
      <trkpt lat="44.0201" lon="3.5066">
        <ele>1135.6</ele>
        <time>2026-05-28T10:20:46.999Z</time>
      </trkpt>
      <trkpt lat="44.0201" lon="3.5066">
        <ele>1135.9</ele>
        <time>2026-05-28T10:20:47.999Z</time>
      </trkpt>
      <trkpt lat="44.02011" lon="3.5066">
        <ele>1136.1</ele>
        <time>2026-05-28T10:20:48.999Z</time>
      </trkpt>
      <trkpt lat="44.0201" lon="3.50661">
        <ele>1136.1</ele>
        <time>2026-05-28T10:20:49.999Z</time>
      </trkpt>
      <trkpt lat="44.0201" lon="3.50661">
        <ele>1135.9</ele>
        <time>2026-05-28T10:20:50.999Z</time>
      </trkpt>
      <trkpt lat="44.0201" lon="3.50661">
        <ele>1135.9</ele>
        <time>2026-05-28T10:20:51.999Z</time>
      </trkpt>
      <trkpt lat="44.02009" lon="3.50662">
        <ele>1135.9</ele>
        <time>2026-05-28T10:20:52.999Z</time>
      </trkpt>
      <trkpt lat="44.02008" lon="3.50662">
        <ele>1135.9</ele>
        <time>2026-05-28T10:20:53.999Z</time>
      </trkpt>
      <trkpt lat="44.02008" lon="3.50662">
        <ele>1135.8</ele>
        <time>2026-05-28T10:20:54.999Z</time>
      </trkpt>
      <trkpt lat="44.02007" lon="3.50662">
        <ele>1135.9</ele>
        <time>2026-05-28T10:20:55.999Z</time>
      </trkpt>
      <trkpt lat="44.02006" lon="3.50662">
        <ele>1135.9</ele>
        <time>2026-05-28T10:20:56.999Z</time>
      </trkpt>
      <trkpt lat="44.02005" lon="3.50662">
        <ele>1136.4</ele>
        <time>2026-05-28T10:20:57.999Z</time>
      </trkpt>
      <trkpt lat="44.02004" lon="3.50663">
        <ele>1136.4</ele>
        <time>2026-05-28T10:20:58.999Z</time>
      </trkpt>
      <trkpt lat="44.02003" lon="3.50663">
        <ele>1136.3</ele>
        <time>2026-05-28T10:20:59.999Z</time>
      </trkpt>
      <trkpt lat="44.02002" lon="3.50663">
        <ele>1136.4</ele>
        <time>2026-05-28T10:21:00.999Z</time>
      </trkpt>
      <trkpt lat="44.02" lon="3.50663">
        <ele>1136.3</ele>
        <time>2026-05-28T10:21:01.999Z</time>
      </trkpt>
      <trkpt lat="44.01999" lon="3.50662">
        <ele>1136</ele>
        <time>2026-05-28T10:21:02.999Z</time>
      </trkpt>
      <trkpt lat="44.01998" lon="3.50662">
        <ele>1136</ele>
        <time>2026-05-28T10:21:03.999Z</time>
      </trkpt>
      <trkpt lat="44.01998" lon="3.50662">
        <ele>1136.2</ele>
        <time>2026-05-28T10:21:04.999Z</time>
      </trkpt>
      <trkpt lat="44.01997" lon="3.50662">
        <ele>1136.3</ele>
        <time>2026-05-28T10:21:05.999Z</time>
      </trkpt>
      <trkpt lat="44.01996" lon="3.50663">
        <ele>1136.1</ele>
        <time>2026-05-28T10:21:06.999Z</time>
      </trkpt>
      <trkpt lat="44.01995" lon="3.50663">
        <ele>1136.2</ele>
        <time>2026-05-28T10:21:07.999Z</time>
      </trkpt>
      <trkpt lat="44.01994" lon="3.50664">
        <ele>1136.1</ele>
        <time>2026-05-28T10:21:08.999Z</time>
      </trkpt>
      <trkpt lat="44.01993" lon="3.50664">
        <ele>1136.4</ele>
        <time>2026-05-28T10:21:09.999Z</time>
      </trkpt>
      <trkpt lat="44.01992" lon="3.50664">
        <ele>1136.5</ele>
        <time>2026-05-28T10:21:10.999Z</time>
      </trkpt>
      <trkpt lat="44.01991" lon="3.50664">
        <ele>1136.4</ele>
        <time>2026-05-28T10:21:11.999Z</time>
      </trkpt>
      <trkpt lat="44.01991" lon="3.50664">
        <ele>1136.8</ele>
        <time>2026-05-28T10:21:12.999Z</time>
      </trkpt>
      <trkpt lat="44.0199" lon="3.50665">
        <ele>1137.1</ele>
        <time>2026-05-28T10:21:13.999Z</time>
      </trkpt>
      <trkpt lat="44.0199" lon="3.50666">
        <ele>1137.4</ele>
        <time>2026-05-28T10:21:14.999Z</time>
      </trkpt>
      <trkpt lat="44.0199" lon="3.50667">
        <ele>1137.5</ele>
        <time>2026-05-28T10:21:15.999Z</time>
      </trkpt>
      <trkpt lat="44.0199" lon="3.50667">
        <ele>1137.6</ele>
        <time>2026-05-28T10:21:16.999Z</time>
      </trkpt>
      <trkpt lat="44.0199" lon="3.50666">
        <ele>1137.8</ele>
        <time>2026-05-28T10:21:17.999Z</time>
      </trkpt>
      <trkpt lat="44.0199" lon="3.50666">
        <ele>1137.9</ele>
        <time>2026-05-28T10:21:18.999Z</time>
      </trkpt>
      <trkpt lat="44.0199" lon="3.50666">
        <ele>1138</ele>
        <time>2026-05-28T10:21:19.999Z</time>
      </trkpt>
      <trkpt lat="44.0199" lon="3.50667">
        <ele>1138.1</ele>
        <time>2026-05-28T10:21:20.999Z</time>
      </trkpt>
      <trkpt lat="44.0199" lon="3.50667">
        <ele>1138.5</ele>
        <time>2026-05-28T10:21:21.999Z</time>
      </trkpt>
      <trkpt lat="44.0199" lon="3.50668">
        <ele>1138.7</ele>
        <time>2026-05-28T10:21:22.999Z</time>
      </trkpt>
      <trkpt lat="44.0199" lon="3.50668">
        <ele>1138.7</ele>
        <time>2026-05-28T10:21:23.999Z</time>
      </trkpt>
      <trkpt lat="44.0199" lon="3.50669">
        <ele>1138.6</ele>
        <time>2026-05-28T10:21:24.999Z</time>
      </trkpt>
      <trkpt lat="44.0199" lon="3.50669">
        <ele>1138.7</ele>
        <time>2026-05-28T10:21:25.999Z</time>
      </trkpt>
      <trkpt lat="44.01989" lon="3.5067">
        <ele>1138.7</ele>
        <time>2026-05-28T10:21:26.999Z</time>
      </trkpt>
      <trkpt lat="44.0199" lon="3.5067">
        <ele>1139.2</ele>
        <time>2026-05-28T10:21:27.999Z</time>
      </trkpt>
      <trkpt lat="44.0199" lon="3.50671">
        <ele>1139.4</ele>
        <time>2026-05-28T10:21:28.999Z</time>
      </trkpt>
      <trkpt lat="44.01991" lon="3.50671">
        <ele>1139.2</ele>
        <time>2026-05-28T10:21:29.999Z</time>
      </trkpt>
      <trkpt lat="44.0199" lon="3.50672">
        <ele>1138.9</ele>
        <time>2026-05-28T10:21:30.999Z</time>
      </trkpt>
      <trkpt lat="44.0199" lon="3.50674">
        <ele>1139.1</ele>
        <time>2026-05-28T10:21:31.999Z</time>
      </trkpt>
      <trkpt lat="44.0199" lon="3.50674">
        <ele>1140.1</ele>
        <time>2026-05-28T10:21:32.999Z</time>
      </trkpt>
      <trkpt lat="44.0199" lon="3.50675">
        <ele>1140.2</ele>
        <time>2026-05-28T10:21:33.999Z</time>
      </trkpt>
      <trkpt lat="44.0199" lon="3.50675">
        <ele>1140.5</ele>
        <time>2026-05-28T10:21:34.999Z</time>
      </trkpt>
      <trkpt lat="44.0199" lon="3.50675">
        <ele>1140.7</ele>
        <time>2026-05-28T10:21:35.999Z</time>
      </trkpt>
      <trkpt lat="44.0199" lon="3.50675">
        <ele>1141</ele>
        <time>2026-05-28T10:21:36.999Z</time>
      </trkpt>
      <trkpt lat="44.0199" lon="3.50676">
        <ele>1141.1</ele>
        <time>2026-05-28T10:21:37.999Z</time>
      </trkpt>
      <trkpt lat="44.01991" lon="3.50676">
        <ele>1141</ele>
        <time>2026-05-28T10:21:38.999Z</time>
      </trkpt>
      <trkpt lat="44.01991" lon="3.50677">
        <ele>1140.9</ele>
        <time>2026-05-28T10:21:39.999Z</time>
      </trkpt>
      <trkpt lat="44.01991" lon="3.50677">
        <ele>1140.8</ele>
        <time>2026-05-28T10:21:40.999Z</time>
      </trkpt>
      <trkpt lat="44.0199" lon="3.50677">
        <ele>1140.7</ele>
        <time>2026-05-28T10:21:41.999Z</time>
      </trkpt>
      <trkpt lat="44.0199" lon="3.50678">
        <ele>1140.7</ele>
        <time>2026-05-28T10:21:42.999Z</time>
      </trkpt>
      <trkpt lat="44.0199" lon="3.50678">
        <ele>1140.3</ele>
        <time>2026-05-28T10:21:43.999Z</time>
      </trkpt>
      <trkpt lat="44.01991" lon="3.50679">
        <ele>1140.2</ele>
        <time>2026-05-28T10:21:44.999Z</time>
      </trkpt>
      <trkpt lat="44.01991" lon="3.50679">
        <ele>1140</ele>
        <time>2026-05-28T10:21:45.999Z</time>
      </trkpt>
      <trkpt lat="44.01991" lon="3.50679">
        <ele>1140</ele>
        <time>2026-05-28T10:21:46.999Z</time>
      </trkpt>
      <trkpt lat="44.01991" lon="3.5068">
        <ele>1139.9</ele>
        <time>2026-05-28T10:21:47.999Z</time>
      </trkpt>
      <trkpt lat="44.01991" lon="3.5068">
        <ele>1140.5</ele>
        <time>2026-05-28T10:21:48.999Z</time>
      </trkpt>
      <trkpt lat="44.01992" lon="3.5068">
        <ele>1141</ele>
        <time>2026-05-28T10:21:49.999Z</time>
      </trkpt>
      <trkpt lat="44.01991" lon="3.5068">
        <ele>1141.3</ele>
        <time>2026-05-28T10:21:50.999Z</time>
      </trkpt>
      <trkpt lat="44.01991" lon="3.50682">
        <ele>1142.6</ele>
        <time>2026-05-28T10:21:51.999Z</time>
      </trkpt>
      <trkpt lat="44.01991" lon="3.50682">
        <ele>1143.2</ele>
        <time>2026-05-28T10:21:52.999Z</time>
      </trkpt>
      <trkpt lat="44.01991" lon="3.50682">
        <ele>1144</ele>
        <time>2026-05-28T10:21:53.999Z</time>
      </trkpt>
      <trkpt lat="44.01991" lon="3.50682">
        <ele>1144.6</ele>
        <time>2026-05-28T10:21:54.999Z</time>
      </trkpt>
      <trkpt lat="44.01991" lon="3.50683">
        <ele>1145.3</ele>
        <time>2026-05-28T10:21:55.999Z</time>
      </trkpt>
      <trkpt lat="44.0199" lon="3.50684">
        <ele>1146.2</ele>
        <time>2026-05-28T10:21:56.999Z</time>
      </trkpt>
      <trkpt lat="44.01989" lon="3.50685">
        <ele>1146.8</ele>
        <time>2026-05-28T10:21:57.999Z</time>
      </trkpt>
      <trkpt lat="44.01989" lon="3.50685">
        <ele>1147.1</ele>
        <time>2026-05-28T10:21:58.999Z</time>
      </trkpt>
      <trkpt lat="44.01989" lon="3.50686">
        <ele>1147.3</ele>
        <time>2026-05-28T10:21:59.999Z</time>
      </trkpt>
      <trkpt lat="44.01989" lon="3.50687">
        <ele>1147.8</ele>
        <time>2026-05-28T10:22:00.999Z</time>
      </trkpt>
      <trkpt lat="44.0199" lon="3.50688">
        <ele>1148.3</ele>
        <time>2026-05-28T10:22:01.999Z</time>
      </trkpt>
      <trkpt lat="44.0199" lon="3.50689">
        <ele>1148.7</ele>
        <time>2026-05-28T10:22:02.999Z</time>
      </trkpt>
      <trkpt lat="44.01989" lon="3.5069">
        <ele>1148.7</ele>
        <time>2026-05-28T10:22:03.999Z</time>
      </trkpt>
      <trkpt lat="44.01989" lon="3.5069">
        <ele>1148.6</ele>
        <time>2026-05-28T10:22:04.999Z</time>
      </trkpt>
      <trkpt lat="44.01989" lon="3.5069">
        <ele>1148.8</ele>
        <time>2026-05-28T10:22:05.999Z</time>
      </trkpt>
      <trkpt lat="44.01989" lon="3.5069">
        <ele>1148</ele>
        <time>2026-05-28T10:22:06.999Z</time>
      </trkpt>
      <trkpt lat="44.0199" lon="3.5069">
        <ele>1148.2</ele>
        <time>2026-05-28T10:22:07.999Z</time>
      </trkpt>
      <trkpt lat="44.0199" lon="3.50689">
        <ele>1148.1</ele>
        <time>2026-05-28T10:22:08.999Z</time>
      </trkpt>
      <trkpt lat="44.01992" lon="3.5069">
        <ele>1148.9</ele>
        <time>2026-05-28T10:22:09.999Z</time>
      </trkpt>
      <trkpt lat="44.01993" lon="3.5069">
        <ele>1149.5</ele>
        <time>2026-05-28T10:22:10.999Z</time>
      </trkpt>
      <trkpt lat="44.01995" lon="3.50691">
        <ele>1150</ele>
        <time>2026-05-28T10:22:11.999Z</time>
      </trkpt>
      <trkpt lat="44.01996" lon="3.50692">
        <ele>1150.4</ele>
        <time>2026-05-28T10:22:12.999Z</time>
      </trkpt>
      <trkpt lat="44.01998" lon="3.50692">
        <ele>1151.1</ele>
        <time>2026-05-28T10:22:13.999Z</time>
      </trkpt>
      <trkpt lat="44.01999" lon="3.50693">
        <ele>1151.8</ele>
        <time>2026-05-28T10:22:14.999Z</time>
      </trkpt>
      <trkpt lat="44.02" lon="3.50694">
        <ele>1152.5</ele>
        <time>2026-05-28T10:22:15.999Z</time>
      </trkpt>
      <trkpt lat="44.02001" lon="3.50694">
        <ele>1153.1</ele>
        <time>2026-05-28T10:22:16.999Z</time>
      </trkpt>
      <trkpt lat="44.02002" lon="3.50695">
        <ele>1153.5</ele>
        <time>2026-05-28T10:22:17.999Z</time>
      </trkpt>
      <trkpt lat="44.02003" lon="3.50694">
        <ele>1153.9</ele>
        <time>2026-05-28T10:22:18.999Z</time>
      </trkpt>
      <trkpt lat="44.02003" lon="3.50695">
        <ele>1154</ele>
        <time>2026-05-28T10:22:19.999Z</time>
      </trkpt>
      <trkpt lat="44.02004" lon="3.50695">
        <ele>1154.2</ele>
        <time>2026-05-28T10:22:20.999Z</time>
      </trkpt>
      <trkpt lat="44.02004" lon="3.50695">
        <ele>1154.4</ele>
        <time>2026-05-28T10:22:21.999Z</time>
      </trkpt>
      <trkpt lat="44.02005" lon="3.50695">
        <ele>1154.8</ele>
        <time>2026-05-28T10:22:22.999Z</time>
      </trkpt>
      <trkpt lat="44.02005" lon="3.50695">
        <ele>1154.8</ele>
        <time>2026-05-28T10:22:23.999Z</time>
      </trkpt>
      <trkpt lat="44.02006" lon="3.50695">
        <ele>1155</ele>
        <time>2026-05-28T10:22:24.999Z</time>
      </trkpt>
      <trkpt lat="44.02007" lon="3.50696">
        <ele>1155.2</ele>
        <time>2026-05-28T10:22:25.999Z</time>
      </trkpt>
      <trkpt lat="44.02008" lon="3.50695">
        <ele>1155.7</ele>
        <time>2026-05-28T10:22:26.999Z</time>
      </trkpt>
      <trkpt lat="44.02008" lon="3.50695">
        <ele>1156.1</ele>
        <time>2026-05-28T10:22:27.999Z</time>
      </trkpt>
      <trkpt lat="44.02009" lon="3.50696">
        <ele>1156.1</ele>
        <time>2026-05-28T10:22:28.999Z</time>
      </trkpt>
      <trkpt lat="44.0201" lon="3.50696">
        <ele>1156.1</ele>
        <time>2026-05-28T10:22:29.999Z</time>
      </trkpt>
      <trkpt lat="44.0201" lon="3.50697">
        <ele>1156</ele>
        <time>2026-05-28T10:22:30.999Z</time>
      </trkpt>
      <trkpt lat="44.0201" lon="3.50697">
        <ele>1156</ele>
        <time>2026-05-28T10:22:31.999Z</time>
      </trkpt>
      <trkpt lat="44.02011" lon="3.50698">
        <ele>1156.3</ele>
        <time>2026-05-28T10:22:32.999Z</time>
      </trkpt>
      <trkpt lat="44.02012" lon="3.50699">
        <ele>1156.6</ele>
        <time>2026-05-28T10:22:33.999Z</time>
      </trkpt>
      <trkpt lat="44.02013" lon="3.50699">
        <ele>1157</ele>
        <time>2026-05-28T10:22:34.999Z</time>
      </trkpt>
      <trkpt lat="44.02014" lon="3.50699">
        <ele>1157.4</ele>
        <time>2026-05-28T10:22:35.999Z</time>
      </trkpt>
      <trkpt lat="44.02014" lon="3.50699">
        <ele>1157.5</ele>
        <time>2026-05-28T10:22:36.999Z</time>
      </trkpt>
      <trkpt lat="44.02015" lon="3.507">
        <ele>1157.6</ele>
        <time>2026-05-28T10:22:37.999Z</time>
      </trkpt>
      <trkpt lat="44.02016" lon="3.507">
        <ele>1157.4</ele>
        <time>2026-05-28T10:22:38.999Z</time>
      </trkpt>
      <trkpt lat="44.02016" lon="3.507">
        <ele>1157.3</ele>
        <time>2026-05-28T10:22:39.999Z</time>
      </trkpt>
      <trkpt lat="44.02016" lon="3.507">
        <ele>1157.1</ele>
        <time>2026-05-28T10:22:40.999Z</time>
      </trkpt>
      <trkpt lat="44.02016" lon="3.507">
        <ele>1157.5</ele>
        <time>2026-05-28T10:22:41.999Z</time>
      </trkpt>
      <trkpt lat="44.02016" lon="3.507">
        <ele>1158.3</ele>
        <time>2026-05-28T10:22:42.999Z</time>
      </trkpt>
      <trkpt lat="44.02016" lon="3.507">
        <ele>1158.9</ele>
        <time>2026-05-28T10:22:43.999Z</time>
      </trkpt>
      <trkpt lat="44.02017" lon="3.507">
        <ele>1159.3</ele>
        <time>2026-05-28T10:22:44.999Z</time>
      </trkpt>
      <trkpt lat="44.02017" lon="3.507">
        <ele>1159.7</ele>
        <time>2026-05-28T10:22:45.999Z</time>
      </trkpt>
      <trkpt lat="44.02017" lon="3.507">
        <ele>1160.1</ele>
        <time>2026-05-28T10:22:46.999Z</time>
      </trkpt>
      <trkpt lat="44.02017" lon="3.50701">
        <ele>1160.5</ele>
        <time>2026-05-28T10:22:47.999Z</time>
      </trkpt>
      <trkpt lat="44.02018" lon="3.50702">
        <ele>1160.8</ele>
        <time>2026-05-28T10:22:48.999Z</time>
      </trkpt>
      <trkpt lat="44.02019" lon="3.50702">
        <ele>1160.8</ele>
        <time>2026-05-28T10:22:49.999Z</time>
      </trkpt>
      <trkpt lat="44.02019" lon="3.50703">
        <ele>1160.8</ele>
        <time>2026-05-28T10:22:50.999Z</time>
      </trkpt>
      <trkpt lat="44.02019" lon="3.50703">
        <ele>1160.8</ele>
        <time>2026-05-28T10:22:51.999Z</time>
      </trkpt>
      <trkpt lat="44.0202" lon="3.50703">
        <ele>1160.7</ele>
        <time>2026-05-28T10:22:52.999Z</time>
      </trkpt>
      <trkpt lat="44.0202" lon="3.50703">
        <ele>1161.1</ele>
        <time>2026-05-28T10:22:53.999Z</time>
      </trkpt>
      <trkpt lat="44.0202" lon="3.50703">
        <ele>1161.1</ele>
        <time>2026-05-28T10:22:54.999Z</time>
      </trkpt>
      <trkpt lat="44.02021" lon="3.50703">
        <ele>1161.3</ele>
        <time>2026-05-28T10:22:55.999Z</time>
      </trkpt>
      <trkpt lat="44.02021" lon="3.50704">
        <ele>1161.5</ele>
        <time>2026-05-28T10:22:56.999Z</time>
      </trkpt>
      <trkpt lat="44.02021" lon="3.50704">
        <ele>1161.7</ele>
        <time>2026-05-28T10:22:57.999Z</time>
      </trkpt>
      <trkpt lat="44.02022" lon="3.50705">
        <ele>1161.8</ele>
        <time>2026-05-28T10:22:58.999Z</time>
      </trkpt>
      <trkpt lat="44.02023" lon="3.50705">
        <ele>1162</ele>
        <time>2026-05-28T10:22:59.999Z</time>
      </trkpt>
      <trkpt lat="44.02023" lon="3.50706">
        <ele>1162.3</ele>
        <time>2026-05-28T10:23:00.999Z</time>
      </trkpt>
      <trkpt lat="44.02024" lon="3.50706">
        <ele>1162.8</ele>
        <time>2026-05-28T10:23:01.999Z</time>
      </trkpt>
      <trkpt lat="44.02025" lon="3.50707">
        <ele>1163.2</ele>
        <time>2026-05-28T10:23:02.999Z</time>
      </trkpt>
      <trkpt lat="44.02025" lon="3.50707">
        <ele>1163.6</ele>
        <time>2026-05-28T10:23:03.999Z</time>
      </trkpt>
      <trkpt lat="44.02026" lon="3.50707">
        <ele>1164</ele>
        <time>2026-05-28T10:23:05.999Z</time>
      </trkpt>
      <trkpt lat="44.02027" lon="3.50708">
        <ele>1163.7</ele>
        <time>2026-05-28T10:23:06.999Z</time>
      </trkpt>
      <trkpt lat="44.02028" lon="3.50709">
        <ele>1163.6</ele>
        <time>2026-05-28T10:23:07.999Z</time>
      </trkpt>
      <trkpt lat="44.02027" lon="3.50709">
        <ele>1163.5</ele>
        <time>2026-05-28T10:23:08.999Z</time>
      </trkpt>
      <trkpt lat="44.02028" lon="3.5071">
        <ele>1163.2</ele>
        <time>2026-05-28T10:23:09.999Z</time>
      </trkpt>
      <trkpt lat="44.02028" lon="3.50711">
        <ele>1162.7</ele>
        <time>2026-05-28T10:23:10.999Z</time>
      </trkpt>
      <trkpt lat="44.02028" lon="3.50711">
        <ele>1162.5</ele>
        <time>2026-05-28T10:23:11.999Z</time>
      </trkpt>
      <trkpt lat="44.02028" lon="3.50712">
        <ele>1162.6</ele>
        <time>2026-05-28T10:23:12.999Z</time>
      </trkpt>
      <trkpt lat="44.02029" lon="3.50713">
        <ele>1163</ele>
        <time>2026-05-28T10:23:13.999Z</time>
      </trkpt>
      <trkpt lat="44.02029" lon="3.50714">
        <ele>1163</ele>
        <time>2026-05-28T10:23:14.999Z</time>
      </trkpt>
      <trkpt lat="44.0203" lon="3.50715">
        <ele>1161.7</ele>
        <time>2026-05-28T10:23:15.999Z</time>
      </trkpt>
      <trkpt lat="44.0203" lon="3.50715">
        <ele>1161.7</ele>
        <time>2026-05-28T10:23:16.999Z</time>
      </trkpt>
      <trkpt lat="44.02031" lon="3.50716">
        <ele>1160.8</ele>
        <time>2026-05-28T10:23:18.999Z</time>
      </trkpt>
      <trkpt lat="44.02031" lon="3.50717">
        <ele>1160.6</ele>
        <time>2026-05-28T10:23:19.999Z</time>
      </trkpt>
      <trkpt lat="44.0203" lon="3.50719">
        <ele>1160.2</ele>
        <time>2026-05-28T10:23:20.999Z</time>
      </trkpt>
      <trkpt lat="44.02031" lon="3.5072">
        <ele>1159.9</ele>
        <time>2026-05-28T10:23:21.999Z</time>
      </trkpt>
      <trkpt lat="44.02031" lon="3.50722">
        <ele>1159.7</ele>
        <time>2026-05-28T10:23:22.999Z</time>
      </trkpt>
      <trkpt lat="44.0203" lon="3.50723">
        <ele>1159.7</ele>
        <time>2026-05-28T10:23:23.999Z</time>
      </trkpt>
      <trkpt lat="44.02031" lon="3.50725">
        <ele>1160</ele>
        <time>2026-05-28T10:23:24.999Z</time>
      </trkpt>
      <trkpt lat="44.02031" lon="3.50726">
        <ele>1160.4</ele>
        <time>2026-05-28T10:23:25.999Z</time>
      </trkpt>
      <trkpt lat="44.02031" lon="3.50727">
        <ele>1160.5</ele>
        <time>2026-05-28T10:23:26.999Z</time>
      </trkpt>
      <trkpt lat="44.02032" lon="3.50728">
        <ele>1160.4</ele>
        <time>2026-05-28T10:23:27.999Z</time>
      </trkpt>
      <trkpt lat="44.02032" lon="3.50728">
        <ele>1160.7</ele>
        <time>2026-05-28T10:23:28.999Z</time>
      </trkpt>
      <trkpt lat="44.02032" lon="3.50729">
        <ele>1160.6</ele>
        <time>2026-05-28T10:23:29.999Z</time>
      </trkpt>
      <trkpt lat="44.02032" lon="3.5073">
        <ele>1160.6</ele>
        <time>2026-05-28T10:23:30.999Z</time>
      </trkpt>
      <trkpt lat="44.02033" lon="3.50731">
        <ele>1160.6</ele>
        <time>2026-05-28T10:23:31.999Z</time>
      </trkpt>
      <trkpt lat="44.02033" lon="3.50731">
        <ele>1161.7</ele>
        <time>2026-05-28T10:23:32.999Z</time>
      </trkpt>
      <trkpt lat="44.02033" lon="3.50731">
        <ele>1162</ele>
        <time>2026-05-28T10:23:33.999Z</time>
      </trkpt>
      <trkpt lat="44.02034" lon="3.50732">
        <ele>1162.8</ele>
        <time>2026-05-28T10:23:35.999Z</time>
      </trkpt>
      <trkpt lat="44.02035" lon="3.50733">
        <ele>1162.7</ele>
        <time>2026-05-28T10:23:36.999Z</time>
      </trkpt>
      <trkpt lat="44.02035" lon="3.50733">
        <ele>1162.5</ele>
        <time>2026-05-28T10:23:37.999Z</time>
      </trkpt>
      <trkpt lat="44.02036" lon="3.50733">
        <ele>1162.5</ele>
        <time>2026-05-28T10:23:38.999Z</time>
      </trkpt>
      <trkpt lat="44.02036" lon="3.50733">
        <ele>1162.3</ele>
        <time>2026-05-28T10:23:39.999Z</time>
      </trkpt>
      <trkpt lat="44.02036" lon="3.50734">
        <ele>1162.6</ele>
        <time>2026-05-28T10:23:40.999Z</time>
      </trkpt>
      <trkpt lat="44.02037" lon="3.50734">
        <ele>1162.9</ele>
        <time>2026-05-28T10:23:41.999Z</time>
      </trkpt>
      <trkpt lat="44.02038" lon="3.50735">
        <ele>1163.3</ele>
        <time>2026-05-28T10:23:42.999Z</time>
      </trkpt>
      <trkpt lat="44.02038" lon="3.50735">
        <ele>1163.5</ele>
        <time>2026-05-28T10:23:43.999Z</time>
      </trkpt>
      <trkpt lat="44.02039" lon="3.50736">
        <ele>1163.4</ele>
        <time>2026-05-28T10:23:44.999Z</time>
      </trkpt>
      <trkpt lat="44.0204" lon="3.50737">
        <ele>1163.1</ele>
        <time>2026-05-28T10:23:45.999Z</time>
      </trkpt>
      <trkpt lat="44.0204" lon="3.50737">
        <ele>1163.4</ele>
        <time>2026-05-28T10:23:46.999Z</time>
      </trkpt>
      <trkpt lat="44.02041" lon="3.50738">
        <ele>1163.1</ele>
        <time>2026-05-28T10:23:47.999Z</time>
      </trkpt>
      <trkpt lat="44.02042" lon="3.50739">
        <ele>1163</ele>
        <time>2026-05-28T10:23:48.999Z</time>
      </trkpt>
      <trkpt lat="44.02043" lon="3.50739">
        <ele>1162.3</ele>
        <time>2026-05-28T10:23:49.999Z</time>
      </trkpt>
      <trkpt lat="44.02043" lon="3.5074">
        <ele>1161.9</ele>
        <time>2026-05-28T10:23:50.999Z</time>
      </trkpt>
      <trkpt lat="44.02043" lon="3.5074">
        <ele>1162.1</ele>
        <time>2026-05-28T10:23:51.999Z</time>
      </trkpt>
      <trkpt lat="44.02043" lon="3.5074">
        <ele>1162.3</ele>
        <time>2026-05-28T10:23:52.999Z</time>
      </trkpt>
      <trkpt lat="44.02043" lon="3.50741">
        <ele>1162.4</ele>
        <time>2026-05-28T10:23:53.999Z</time>
      </trkpt>
      <trkpt lat="44.02043" lon="3.50742">
        <ele>1162.3</ele>
        <time>2026-05-28T10:23:54.999Z</time>
      </trkpt>
      <trkpt lat="44.02043" lon="3.50743">
        <ele>1161.9</ele>
        <time>2026-05-28T10:23:55.999Z</time>
      </trkpt>
      <trkpt lat="44.02042" lon="3.50744">
        <ele>1162</ele>
        <time>2026-05-28T10:23:56.999Z</time>
      </trkpt>
      <trkpt lat="44.02042" lon="3.50744">
        <ele>1161.8</ele>
        <time>2026-05-28T10:23:57.999Z</time>
      </trkpt>
      <trkpt lat="44.02041" lon="3.50744">
        <ele>1161.9</ele>
        <time>2026-05-28T10:23:58.999Z</time>
      </trkpt>
      <trkpt lat="44.02041" lon="3.50745">
        <ele>1161.5</ele>
        <time>2026-05-28T10:23:59.999Z</time>
      </trkpt>
      <trkpt lat="44.02042" lon="3.50746">
        <ele>1162.1</ele>
        <time>2026-05-28T10:24:00.999Z</time>
      </trkpt>
      <trkpt lat="44.02042" lon="3.50747">
        <ele>1162.4</ele>
        <time>2026-05-28T10:24:01.999Z</time>
      </trkpt>
      <trkpt lat="44.02043" lon="3.50748">
        <ele>1162.7</ele>
        <time>2026-05-28T10:24:02.999Z</time>
      </trkpt>
      <trkpt lat="44.02043" lon="3.50749">
        <ele>1162.9</ele>
        <time>2026-05-28T10:24:03.999Z</time>
      </trkpt>
      <trkpt lat="44.02044" lon="3.50747">
        <ele>1162.2</ele>
        <time>2026-05-28T10:24:04.999Z</time>
      </trkpt>
      <trkpt lat="44.02044" lon="3.50747">
        <ele>1162.9</ele>
        <time>2026-05-28T10:24:05.999Z</time>
      </trkpt>
      <trkpt lat="44.02044" lon="3.50747">
        <ele>1162.8</ele>
        <time>2026-05-28T10:24:06.999Z</time>
      </trkpt>
      <trkpt lat="44.02044" lon="3.50747">
        <ele>1163.1</ele>
        <time>2026-05-28T10:24:07.999Z</time>
      </trkpt>
      <trkpt lat="44.02044" lon="3.50747">
        <ele>1163.2</ele>
        <time>2026-05-28T10:24:08.999Z</time>
      </trkpt>
      <trkpt lat="44.02045" lon="3.50748">
        <ele>1163.5</ele>
        <time>2026-05-28T10:24:09.999Z</time>
      </trkpt>
      <trkpt lat="44.02045" lon="3.50748">
        <ele>1163.4</ele>
        <time>2026-05-28T10:24:10.999Z</time>
      </trkpt>
      <trkpt lat="44.02046" lon="3.50748">
        <ele>1164</ele>
        <time>2026-05-28T10:24:11.999Z</time>
      </trkpt>
      <trkpt lat="44.02047" lon="3.50747">
        <ele>1164.3</ele>
        <time>2026-05-28T10:24:12.999Z</time>
      </trkpt>
      <trkpt lat="44.02048" lon="3.50748">
        <ele>1164</ele>
        <time>2026-05-28T10:24:13.999Z</time>
      </trkpt>
      <trkpt lat="44.02049" lon="3.50747">
        <ele>1163.7</ele>
        <time>2026-05-28T10:24:14.999Z</time>
      </trkpt>
      <trkpt lat="44.02049" lon="3.50746">
        <ele>1163.2</ele>
        <time>2026-05-28T10:24:15.999Z</time>
      </trkpt>
      <trkpt lat="44.02049" lon="3.50746">
        <ele>1162.9</ele>
        <time>2026-05-28T10:24:16.999Z</time>
      </trkpt>
      <trkpt lat="44.0205" lon="3.50746">
        <ele>1162.7</ele>
        <time>2026-05-28T10:24:17.999Z</time>
      </trkpt>
      <trkpt lat="44.0205" lon="3.50746">
        <ele>1162.4</ele>
        <time>2026-05-28T10:24:18.999Z</time>
      </trkpt>
      <trkpt lat="44.0205" lon="3.50746">
        <ele>1162.4</ele>
        <time>2026-05-28T10:24:19.999Z</time>
      </trkpt>
      <trkpt lat="44.0205" lon="3.50746">
        <ele>1162.4</ele>
        <time>2026-05-28T10:24:20.999Z</time>
      </trkpt>
      <trkpt lat="44.02051" lon="3.50746">
        <ele>1163.1</ele>
        <time>2026-05-28T10:24:21.999Z</time>
      </trkpt>
      <trkpt lat="44.02051" lon="3.50746">
        <ele>1163.1</ele>
        <time>2026-05-28T10:24:22.999Z</time>
      </trkpt>
      <trkpt lat="44.02052" lon="3.50746">
        <ele>1163.2</ele>
        <time>2026-05-28T10:24:23.999Z</time>
      </trkpt>
      <trkpt lat="44.02053" lon="3.50747">
        <ele>1163.2</ele>
        <time>2026-05-28T10:24:24.999Z</time>
      </trkpt>
      <trkpt lat="44.02053" lon="3.50746">
        <ele>1163.4</ele>
        <time>2026-05-28T10:24:25.999Z</time>
      </trkpt>
      <trkpt lat="44.02053" lon="3.50746">
        <ele>1163.4</ele>
        <time>2026-05-28T10:24:26.999Z</time>
      </trkpt>
      <trkpt lat="44.02053" lon="3.50746">
        <ele>1163.5</ele>
        <time>2026-05-28T10:24:27.999Z</time>
      </trkpt>
      <trkpt lat="44.02053" lon="3.50746">
        <ele>1163.5</ele>
        <time>2026-05-28T10:24:28.999Z</time>
      </trkpt>
      <trkpt lat="44.02056" lon="3.50745">
        <ele>1164.1</ele>
        <time>2026-05-28T10:24:29.999Z</time>
      </trkpt>
      <trkpt lat="44.02056" lon="3.50745">
        <ele>1163.7</ele>
        <time>2026-05-28T10:24:30.999Z</time>
      </trkpt>
      <trkpt lat="44.02056" lon="3.50745">
        <ele>1163.5</ele>
        <time>2026-05-28T10:24:31.999Z</time>
      </trkpt>
      <trkpt lat="44.02056" lon="3.50745">
        <ele>1163.7</ele>
        <time>2026-05-28T10:24:32.999Z</time>
      </trkpt>
      <trkpt lat="44.02057" lon="3.50744">
        <ele>1163.5</ele>
        <time>2026-05-28T10:24:33.999Z</time>
      </trkpt>
      <trkpt lat="44.02057" lon="3.50744">
        <ele>1163.2</ele>
        <time>2026-05-28T10:24:34.999Z</time>
      </trkpt>
      <trkpt lat="44.02057" lon="3.50744">
        <ele>1162.9</ele>
        <time>2026-05-28T10:24:35.999Z</time>
      </trkpt>
      <trkpt lat="44.02057" lon="3.50745">
        <ele>1162.9</ele>
        <time>2026-05-28T10:24:36.999Z</time>
      </trkpt>
      <trkpt lat="44.02059" lon="3.50745">
        <ele>1163.4</ele>
        <time>2026-05-28T10:24:37.999Z</time>
      </trkpt>
      <trkpt lat="44.0206" lon="3.50745">
        <ele>1164.1</ele>
        <time>2026-05-28T10:24:38.999Z</time>
      </trkpt>
      <trkpt lat="44.02062" lon="3.50745">
        <ele>1164.8</ele>
        <time>2026-05-28T10:24:39.999Z</time>
      </trkpt>
      <trkpt lat="44.02063" lon="3.50745">
        <ele>1165.5</ele>
        <time>2026-05-28T10:24:40.999Z</time>
      </trkpt>
      <trkpt lat="44.02063" lon="3.50745">
        <ele>1165.8</ele>
        <time>2026-05-28T10:24:41.999Z</time>
      </trkpt>
      <trkpt lat="44.02064" lon="3.50744">
        <ele>1165.9</ele>
        <time>2026-05-28T10:24:42.999Z</time>
      </trkpt>
      <trkpt lat="44.02065" lon="3.50743">
        <ele>1166.1</ele>
        <time>2026-05-28T10:24:43.999Z</time>
      </trkpt>
      <trkpt lat="44.02066" lon="3.50742">
        <ele>1166.2</ele>
        <time>2026-05-28T10:24:44.999Z</time>
      </trkpt>
      <trkpt lat="44.02067" lon="3.50741">
        <ele>1166.3</ele>
        <time>2026-05-28T10:24:45.999Z</time>
      </trkpt>
      <trkpt lat="44.02067" lon="3.50742">
        <ele>1166.8</ele>
        <time>2026-05-28T10:24:46.999Z</time>
      </trkpt>
      <trkpt lat="44.02067" lon="3.50742">
        <ele>1166.9</ele>
        <time>2026-05-28T10:24:47.999Z</time>
      </trkpt>
      <trkpt lat="44.02067" lon="3.50742">
        <ele>1167.1</ele>
        <time>2026-05-28T10:24:48.999Z</time>
      </trkpt>
      <trkpt lat="44.02067" lon="3.50742">
        <ele>1167.5</ele>
        <time>2026-05-28T10:24:49.999Z</time>
      </trkpt>
      <trkpt lat="44.02068" lon="3.50742">
        <ele>1167.7</ele>
        <time>2026-05-28T10:24:50.999Z</time>
      </trkpt>
      <trkpt lat="44.02068" lon="3.50742">
        <ele>1167.9</ele>
        <time>2026-05-28T10:24:51.999Z</time>
      </trkpt>
      <trkpt lat="44.02068" lon="3.50742">
        <ele>1168.5</ele>
        <time>2026-05-28T10:24:52.999Z</time>
      </trkpt>
      <trkpt lat="44.02069" lon="3.50742">
        <ele>1168.5</ele>
        <time>2026-05-28T10:24:53.999Z</time>
      </trkpt>
      <trkpt lat="44.02069" lon="3.50742">
        <ele>1168.6</ele>
        <time>2026-05-28T10:24:54.999Z</time>
      </trkpt>
      <trkpt lat="44.02069" lon="3.50742">
        <ele>1168.8</ele>
        <time>2026-05-28T10:24:55.999Z</time>
      </trkpt>
      <trkpt lat="44.02069" lon="3.50742">
        <ele>1169</ele>
        <time>2026-05-28T10:24:56.999Z</time>
      </trkpt>
      <trkpt lat="44.02069" lon="3.50743">
        <ele>1169.2</ele>
        <time>2026-05-28T10:24:57.999Z</time>
      </trkpt>
      <trkpt lat="44.02069" lon="3.50743">
        <ele>1169.2</ele>
        <time>2026-05-28T10:24:58.999Z</time>
      </trkpt>
      <trkpt lat="44.0207" lon="3.50743">
        <ele>1169.2</ele>
        <time>2026-05-28T10:24:59.999Z</time>
      </trkpt>
      <trkpt lat="44.0207" lon="3.50742">
        <ele>1169.4</ele>
        <time>2026-05-28T10:25:00.999Z</time>
      </trkpt>
      <trkpt lat="44.0207" lon="3.50742">
        <ele>1169.7</ele>
        <time>2026-05-28T10:25:01.999Z</time>
      </trkpt>
      <trkpt lat="44.0207" lon="3.50742">
        <ele>1169.7</ele>
        <time>2026-05-28T10:25:02.999Z</time>
      </trkpt>
      <trkpt lat="44.02071" lon="3.50742">
        <ele>1169.5</ele>
        <time>2026-05-28T10:25:03.999Z</time>
      </trkpt>
      <trkpt lat="44.02071" lon="3.50742">
        <ele>1169.4</ele>
        <time>2026-05-28T10:25:04.999Z</time>
      </trkpt>
      <trkpt lat="44.02071" lon="3.50742">
        <ele>1169.7</ele>
        <time>2026-05-28T10:25:05.999Z</time>
      </trkpt>
      <trkpt lat="44.02071" lon="3.50741">
        <ele>1169.6</ele>
        <time>2026-05-28T10:25:06.999Z</time>
      </trkpt>
      <trkpt lat="44.02072" lon="3.50741">
        <ele>1169.6</ele>
        <time>2026-05-28T10:25:07.999Z</time>
      </trkpt>
      <trkpt lat="44.02072" lon="3.50741">
        <ele>1169.5</ele>
        <time>2026-05-28T10:25:08.999Z</time>
      </trkpt>
      <trkpt lat="44.02072" lon="3.50741">
        <ele>1169.3</ele>
        <time>2026-05-28T10:25:09.999Z</time>
      </trkpt>
      <trkpt lat="44.02072" lon="3.50741">
        <ele>1169.6</ele>
        <time>2026-05-28T10:25:10.999Z</time>
      </trkpt>
      <trkpt lat="44.02074" lon="3.50741">
        <ele>1169.7</ele>
        <time>2026-05-28T10:25:11.999Z</time>
      </trkpt>
      <trkpt lat="44.02076" lon="3.50742">
        <ele>1169.9</ele>
        <time>2026-05-28T10:25:12.999Z</time>
      </trkpt>
      <trkpt lat="44.02077" lon="3.50742">
        <ele>1170.4</ele>
        <time>2026-05-28T10:25:13.999Z</time>
      </trkpt>
      <trkpt lat="44.0208" lon="3.50742">
        <ele>1170.6</ele>
        <time>2026-05-28T10:25:14.999Z</time>
      </trkpt>
      <trkpt lat="44.02082" lon="3.50742">
        <ele>1170.9</ele>
        <time>2026-05-28T10:25:15.999Z</time>
      </trkpt>
      <trkpt lat="44.02084" lon="3.50741">
        <ele>1170.9</ele>
        <time>2026-05-28T10:25:16.999Z</time>
      </trkpt>
      <trkpt lat="44.02084" lon="3.50741">
        <ele>1170.8</ele>
        <time>2026-05-28T10:25:17.999Z</time>
      </trkpt>
      <trkpt lat="44.02085" lon="3.50741">
        <ele>1170.9</ele>
        <time>2026-05-28T10:25:18.999Z</time>
      </trkpt>
      <trkpt lat="44.02085" lon="3.50741">
        <ele>1171.2</ele>
        <time>2026-05-28T10:25:19.999Z</time>
      </trkpt>
      <trkpt lat="44.02085" lon="3.50741">
        <ele>1171.5</ele>
        <time>2026-05-28T10:25:20.999Z</time>
      </trkpt>
      <trkpt lat="44.02085" lon="3.50741">
        <ele>1171.6</ele>
        <time>2026-05-28T10:25:21.999Z</time>
      </trkpt>
      <trkpt lat="44.02086" lon="3.50741">
        <ele>1171.9</ele>
        <time>2026-05-28T10:25:22.999Z</time>
      </trkpt>
      <trkpt lat="44.02087" lon="3.50741">
        <ele>1171.9</ele>
        <time>2026-05-28T10:25:23.999Z</time>
      </trkpt>
      <trkpt lat="44.02089" lon="3.50741">
        <ele>1171.9</ele>
        <time>2026-05-28T10:25:24.999Z</time>
      </trkpt>
      <trkpt lat="44.02091" lon="3.50741">
        <ele>1171.7</ele>
        <time>2026-05-28T10:25:25.999Z</time>
      </trkpt>
      <trkpt lat="44.02092" lon="3.5074">
        <ele>1171.5</ele>
        <time>2026-05-28T10:25:26.999Z</time>
      </trkpt>
      <trkpt lat="44.02092" lon="3.5074">
        <ele>1171.7</ele>
        <time>2026-05-28T10:25:27.999Z</time>
      </trkpt>
      <trkpt lat="44.02093" lon="3.5074">
        <ele>1171.7</ele>
        <time>2026-05-28T10:25:28.999Z</time>
      </trkpt>
      <trkpt lat="44.02093" lon="3.50741">
        <ele>1171.8</ele>
        <time>2026-05-28T10:25:29.999Z</time>
      </trkpt>
      <trkpt lat="44.02093" lon="3.50741">
        <ele>1171.8</ele>
        <time>2026-05-28T10:25:30.999Z</time>
      </trkpt>
      <trkpt lat="44.02093" lon="3.50741">
        <ele>1171.8</ele>
        <time>2026-05-28T10:25:31.999Z</time>
      </trkpt>
      <trkpt lat="44.02093" lon="3.50741">
        <ele>1172</ele>
        <time>2026-05-28T10:25:32.999Z</time>
      </trkpt>
      <trkpt lat="44.02094" lon="3.50741">
        <ele>1172.1</ele>
        <time>2026-05-28T10:25:33.999Z</time>
      </trkpt>
      <trkpt lat="44.02094" lon="3.50741">
        <ele>1171.9</ele>
        <time>2026-05-28T10:25:34.999Z</time>
      </trkpt>
      <trkpt lat="44.02094" lon="3.50741">
        <ele>1172.1</ele>
        <time>2026-05-28T10:25:35.999Z</time>
      </trkpt>
      <trkpt lat="44.02095" lon="3.50741">
        <ele>1172.1</ele>
        <time>2026-05-28T10:25:36.999Z</time>
      </trkpt>
      <trkpt lat="44.02095" lon="3.50741">
        <ele>1172.5</ele>
        <time>2026-05-28T10:25:37.999Z</time>
      </trkpt>
      <trkpt lat="44.02095" lon="3.50741">
        <ele>1172.9</ele>
        <time>2026-05-28T10:25:38.999Z</time>
      </trkpt>
      <trkpt lat="44.02097" lon="3.50742">
        <ele>1173.2</ele>
        <time>2026-05-28T10:25:39.999Z</time>
      </trkpt>
      <trkpt lat="44.02099" lon="3.50743">
        <ele>1173</ele>
        <time>2026-05-28T10:25:40.999Z</time>
      </trkpt>
      <trkpt lat="44.021" lon="3.50743">
        <ele>1172.8</ele>
        <time>2026-05-28T10:25:41.999Z</time>
      </trkpt>
      <trkpt lat="44.02102" lon="3.50742">
        <ele>1172.4</ele>
        <time>2026-05-28T10:25:42.999Z</time>
      </trkpt>
      <trkpt lat="44.02104" lon="3.50742">
        <ele>1172.1</ele>
        <time>2026-05-28T10:25:43.999Z</time>
      </trkpt>
      <trkpt lat="44.02105" lon="3.50742">
        <ele>1172.1</ele>
        <time>2026-05-28T10:25:44.999Z</time>
      </trkpt>
      <trkpt lat="44.02106" lon="3.50742">
        <ele>1171.9</ele>
        <time>2026-05-28T10:25:45.999Z</time>
      </trkpt>
      <trkpt lat="44.02106" lon="3.50742">
        <ele>1171.8</ele>
        <time>2026-05-28T10:25:46.999Z</time>
      </trkpt>
      <trkpt lat="44.02106" lon="3.50742">
        <ele>1171.8</ele>
        <time>2026-05-28T10:25:47.999Z</time>
      </trkpt>
      <trkpt lat="44.02106" lon="3.50742">
        <ele>1171.8</ele>
        <time>2026-05-28T10:25:48.999Z</time>
      </trkpt>
      <trkpt lat="44.02108" lon="3.50742">
        <ele>1172.2</ele>
        <time>2026-05-28T10:25:49.999Z</time>
      </trkpt>
      <trkpt lat="44.02109" lon="3.50742">
        <ele>1172.6</ele>
        <time>2026-05-28T10:25:50.999Z</time>
      </trkpt>
      <trkpt lat="44.02111" lon="3.50742">
        <ele>1172.6</ele>
        <time>2026-05-28T10:25:51.999Z</time>
      </trkpt>
      <trkpt lat="44.02114" lon="3.50742">
        <ele>1172.8</ele>
        <time>2026-05-28T10:25:52.999Z</time>
      </trkpt>
      <trkpt lat="44.02115" lon="3.50743">
        <ele>1173</ele>
        <time>2026-05-28T10:25:53.999Z</time>
      </trkpt>
      <trkpt lat="44.02117" lon="3.50744">
        <ele>1173.2</ele>
        <time>2026-05-28T10:25:54.999Z</time>
      </trkpt>
      <trkpt lat="44.02117" lon="3.50744">
        <ele>1172.9</ele>
        <time>2026-05-28T10:25:55.999Z</time>
      </trkpt>
      <trkpt lat="44.02118" lon="3.50744">
        <ele>1172.5</ele>
        <time>2026-05-28T10:25:56.999Z</time>
      </trkpt>
      <trkpt lat="44.02117" lon="3.50743">
        <ele>1172.5</ele>
        <time>2026-05-28T10:25:57.999Z</time>
      </trkpt>
      <trkpt lat="44.02118" lon="3.50743">
        <ele>1172.5</ele>
        <time>2026-05-28T10:25:58.999Z</time>
      </trkpt>
      <trkpt lat="44.02118" lon="3.50743">
        <ele>1172.8</ele>
        <time>2026-05-28T10:25:59.999Z</time>
      </trkpt>
      <trkpt lat="44.02118" lon="3.50744">
        <ele>1173.2</ele>
        <time>2026-05-28T10:26:00.999Z</time>
      </trkpt>
      <trkpt lat="44.02118" lon="3.50744">
        <ele>1173.6</ele>
        <time>2026-05-28T10:26:01.999Z</time>
      </trkpt>
      <trkpt lat="44.02118" lon="3.50744">
        <ele>1173.8</ele>
        <time>2026-05-28T10:26:02.999Z</time>
      </trkpt>
      <trkpt lat="44.02118" lon="3.50744">
        <ele>1174</ele>
        <time>2026-05-28T10:26:03.999Z</time>
      </trkpt>
      <trkpt lat="44.02118" lon="3.50744">
        <ele>1174.1</ele>
        <time>2026-05-28T10:26:04.999Z</time>
      </trkpt>
      <trkpt lat="44.02118" lon="3.50744">
        <ele>1174.1</ele>
        <time>2026-05-28T10:26:05.999Z</time>
      </trkpt>
      <trkpt lat="44.02118" lon="3.50744">
        <ele>1174</ele>
        <time>2026-05-28T10:26:06.999Z</time>
      </trkpt>
      <trkpt lat="44.02119" lon="3.50744">
        <ele>1173.9</ele>
        <time>2026-05-28T10:26:07.999Z</time>
      </trkpt>
      <trkpt lat="44.02119" lon="3.50744">
        <ele>1173.6</ele>
        <time>2026-05-28T10:26:08.999Z</time>
      </trkpt>
      <trkpt lat="44.02119" lon="3.50744">
        <ele>1173.8</ele>
        <time>2026-05-28T10:26:09.999Z</time>
      </trkpt>
      <trkpt lat="44.02119" lon="3.50744">
        <ele>1173.9</ele>
        <time>2026-05-28T10:26:10.999Z</time>
      </trkpt>
      <trkpt lat="44.02119" lon="3.50744">
        <ele>1174.2</ele>
        <time>2026-05-28T10:26:11.999Z</time>
      </trkpt>
      <trkpt lat="44.02119" lon="3.50744">
        <ele>1174.4</ele>
        <time>2026-05-28T10:26:12.999Z</time>
      </trkpt>
      <trkpt lat="44.0212" lon="3.50744">
        <ele>1174.3</ele>
        <time>2026-05-28T10:26:13.999Z</time>
      </trkpt>
      <trkpt lat="44.0212" lon="3.50743">
        <ele>1173.9</ele>
        <time>2026-05-28T10:26:14.999Z</time>
      </trkpt>
      <trkpt lat="44.0212" lon="3.50742">
        <ele>1173.6</ele>
        <time>2026-05-28T10:26:15.999Z</time>
      </trkpt>
      <trkpt lat="44.02121" lon="3.50742">
        <ele>1173.4</ele>
        <time>2026-05-28T10:26:16.999Z</time>
      </trkpt>
      <trkpt lat="44.02122" lon="3.5074">
        <ele>1173.2</ele>
        <time>2026-05-28T10:26:17.999Z</time>
      </trkpt>
      <trkpt lat="44.02123" lon="3.50739">
        <ele>1173.2</ele>
        <time>2026-05-28T10:26:18.999Z</time>
      </trkpt>
      <trkpt lat="44.02125" lon="3.50739">
        <ele>1173.3</ele>
        <time>2026-05-28T10:26:19.999Z</time>
      </trkpt>
      <trkpt lat="44.02125" lon="3.50738">
        <ele>1173.3</ele>
        <time>2026-05-28T10:26:20.999Z</time>
      </trkpt>
      <trkpt lat="44.02127" lon="3.50738">
        <ele>1173.6</ele>
        <time>2026-05-28T10:26:21.999Z</time>
      </trkpt>
      <trkpt lat="44.02128" lon="3.50737">
        <ele>1173.4</ele>
        <time>2026-05-28T10:26:22.999Z</time>
      </trkpt>
      <trkpt lat="44.02129" lon="3.50736">
        <ele>1173.2</ele>
        <time>2026-05-28T10:26:23.999Z</time>
      </trkpt>
      <trkpt lat="44.0213" lon="3.50735">
        <ele>1173</ele>
        <time>2026-05-28T10:26:24.999Z</time>
      </trkpt>
      <trkpt lat="44.02131" lon="3.50735">
        <ele>1173.1</ele>
        <time>2026-05-28T10:26:25.999Z</time>
      </trkpt>
      <trkpt lat="44.02133" lon="3.50735">
        <ele>1173</ele>
        <time>2026-05-28T10:26:26.999Z</time>
      </trkpt>
      <trkpt lat="44.02134" lon="3.50736">
        <ele>1173</ele>
        <time>2026-05-28T10:26:27.999Z</time>
      </trkpt>
      <trkpt lat="44.02136" lon="3.50736">
        <ele>1172.9</ele>
        <time>2026-05-28T10:26:28.999Z</time>
      </trkpt>
      <trkpt lat="44.02138" lon="3.50736">
        <ele>1173</ele>
        <time>2026-05-28T10:26:29.999Z</time>
      </trkpt>
      <trkpt lat="44.02139" lon="3.50736">
        <ele>1173</ele>
        <time>2026-05-28T10:26:30.999Z</time>
      </trkpt>
      <trkpt lat="44.0214" lon="3.50735">
        <ele>1173.3</ele>
        <time>2026-05-28T10:26:31.999Z</time>
      </trkpt>
      <trkpt lat="44.02142" lon="3.50735">
        <ele>1173.6</ele>
        <time>2026-05-28T10:26:32.999Z</time>
      </trkpt>
      <trkpt lat="44.02143" lon="3.50736">
        <ele>1174</ele>
        <time>2026-05-28T10:26:33.999Z</time>
      </trkpt>
      <trkpt lat="44.02145" lon="3.50736">
        <ele>1173.9</ele>
        <time>2026-05-28T10:26:34.999Z</time>
      </trkpt>
      <trkpt lat="44.02146" lon="3.50736">
        <ele>1174</ele>
        <time>2026-05-28T10:26:35.999Z</time>
      </trkpt>
      <trkpt lat="44.02147" lon="3.50736">
        <ele>1174.6</ele>
        <time>2026-05-28T10:26:36.999Z</time>
      </trkpt>
      <trkpt lat="44.02148" lon="3.50736">
        <ele>1175</ele>
        <time>2026-05-28T10:26:37.999Z</time>
      </trkpt>
      <trkpt lat="44.02149" lon="3.50736">
        <ele>1175</ele>
        <time>2026-05-28T10:26:38.999Z</time>
      </trkpt>
      <trkpt lat="44.02149" lon="3.50736">
        <ele>1175</ele>
        <time>2026-05-28T10:26:39.999Z</time>
      </trkpt>
      <trkpt lat="44.02149" lon="3.50737">
        <ele>1174.9</ele>
        <time>2026-05-28T10:26:40.999Z</time>
      </trkpt>
      <trkpt lat="44.02149" lon="3.50737">
        <ele>1175.1</ele>
        <time>2026-05-28T10:26:41.999Z</time>
      </trkpt>
      <trkpt lat="44.02149" lon="3.50737">
        <ele>1175.4</ele>
        <time>2026-05-28T10:26:42.999Z</time>
      </trkpt>
      <trkpt lat="44.02149" lon="3.50737">
        <ele>1175.6</ele>
        <time>2026-05-28T10:26:43.999Z</time>
      </trkpt>
      <trkpt lat="44.02149" lon="3.50737">
        <ele>1175.5</ele>
        <time>2026-05-28T10:26:44.999Z</time>
      </trkpt>
      <trkpt lat="44.02149" lon="3.50737">
        <ele>1175.5</ele>
        <time>2026-05-28T10:26:45.999Z</time>
      </trkpt>
      <trkpt lat="44.02149" lon="3.50737">
        <ele>1175.5</ele>
        <time>2026-05-28T10:26:46.999Z</time>
      </trkpt>
      <trkpt lat="44.0215" lon="3.50737">
        <ele>1175.3</ele>
        <time>2026-05-28T10:26:47.999Z</time>
      </trkpt>
      <trkpt lat="44.02151" lon="3.50737">
        <ele>1175</ele>
        <time>2026-05-28T10:26:48.999Z</time>
      </trkpt>
      <trkpt lat="44.02152" lon="3.50736">
        <ele>1174.8</ele>
        <time>2026-05-28T10:26:49.999Z</time>
      </trkpt>
      <trkpt lat="44.02154" lon="3.50736">
        <ele>1174.9</ele>
        <time>2026-05-28T10:26:50.999Z</time>
      </trkpt>
      <trkpt lat="44.02155" lon="3.50736">
        <ele>1174.9</ele>
        <time>2026-05-28T10:26:51.999Z</time>
      </trkpt>
      <trkpt lat="44.02156" lon="3.50736">
        <ele>1174.6</ele>
        <time>2026-05-28T10:26:52.999Z</time>
      </trkpt>
      <trkpt lat="44.02158" lon="3.50735">
        <ele>1174.4</ele>
        <time>2026-05-28T10:26:53.999Z</time>
      </trkpt>
      <trkpt lat="44.02159" lon="3.50734">
        <ele>1174.4</ele>
        <time>2026-05-28T10:26:54.999Z</time>
      </trkpt>
      <trkpt lat="44.0216" lon="3.50733">
        <ele>1174.1</ele>
        <time>2026-05-28T10:26:55.999Z</time>
      </trkpt>
      <trkpt lat="44.02162" lon="3.50732">
        <ele>1174.5</ele>
        <time>2026-05-28T10:26:56.999Z</time>
      </trkpt>
      <trkpt lat="44.02162" lon="3.50731">
        <ele>1174.3</ele>
        <time>2026-05-28T10:26:57.999Z</time>
      </trkpt>
      <trkpt lat="44.02163" lon="3.50731">
        <ele>1174.4</ele>
        <time>2026-05-28T10:26:58.999Z</time>
      </trkpt>
      <trkpt lat="44.02164" lon="3.50731">
        <ele>1174.9</ele>
        <time>2026-05-28T10:26:59.999Z</time>
      </trkpt>
      <trkpt lat="44.02164" lon="3.5073">
        <ele>1175.4</ele>
        <time>2026-05-28T10:27:00.999Z</time>
      </trkpt>
      <trkpt lat="44.02164" lon="3.5073">
        <ele>1175.6</ele>
        <time>2026-05-28T10:27:01.999Z</time>
      </trkpt>
      <trkpt lat="44.02165" lon="3.50729">
        <ele>1175.5</ele>
        <time>2026-05-28T10:27:02.999Z</time>
      </trkpt>
      <trkpt lat="44.02166" lon="3.50728">
        <ele>1174.9</ele>
        <time>2026-05-28T10:27:03.999Z</time>
      </trkpt>
      <trkpt lat="44.02166" lon="3.50729">
        <ele>1174.6</ele>
        <time>2026-05-28T10:27:04.999Z</time>
      </trkpt>
      <trkpt lat="44.02167" lon="3.50728">
        <ele>1174.6</ele>
        <time>2026-05-28T10:27:05.999Z</time>
      </trkpt>
      <trkpt lat="44.02168" lon="3.50728">
        <ele>1174.3</ele>
        <time>2026-05-28T10:27:06.999Z</time>
      </trkpt>
      <trkpt lat="44.02168" lon="3.50727">
        <ele>1174.4</ele>
        <time>2026-05-28T10:27:07.999Z</time>
      </trkpt>
      <trkpt lat="44.02169" lon="3.50727">
        <ele>1174.3</ele>
        <time>2026-05-28T10:27:08.999Z</time>
      </trkpt>
      <trkpt lat="44.02169" lon="3.50727">
        <ele>1174</ele>
        <time>2026-05-28T10:27:09.999Z</time>
      </trkpt>
      <trkpt lat="44.02169" lon="3.50727">
        <ele>1174</ele>
        <time>2026-05-28T10:27:10.999Z</time>
      </trkpt>
      <trkpt lat="44.02169" lon="3.50727">
        <ele>1174.1</ele>
        <time>2026-05-28T10:27:11.999Z</time>
      </trkpt>
      <trkpt lat="44.02169" lon="3.50726">
        <ele>1173.8</ele>
        <time>2026-05-28T10:27:12.999Z</time>
      </trkpt>
      <trkpt lat="44.02169" lon="3.50726">
        <ele>1173.7</ele>
        <time>2026-05-28T10:27:13.999Z</time>
      </trkpt>
      <trkpt lat="44.02169" lon="3.50726">
        <ele>1173.6</ele>
        <time>2026-05-28T10:27:14.999Z</time>
      </trkpt>
      <trkpt lat="44.02169" lon="3.50726">
        <ele>1173.2</ele>
        <time>2026-05-28T10:27:15.999Z</time>
      </trkpt>
      <trkpt lat="44.0217" lon="3.50726">
        <ele>1173</ele>
        <time>2026-05-28T10:27:16.999Z</time>
      </trkpt>
      <trkpt lat="44.0217" lon="3.50726">
        <ele>1173.3</ele>
        <time>2026-05-28T10:27:17.999Z</time>
      </trkpt>
      <trkpt lat="44.02171" lon="3.50726">
        <ele>1173.6</ele>
        <time>2026-05-28T10:27:18.999Z</time>
      </trkpt>
      <trkpt lat="44.02171" lon="3.50726">
        <ele>1173.6</ele>
        <time>2026-05-28T10:27:19.999Z</time>
      </trkpt>
      <trkpt lat="44.02171" lon="3.50726">
        <ele>1174</ele>
        <time>2026-05-28T10:27:20.999Z</time>
      </trkpt>
      <trkpt lat="44.02171" lon="3.50726">
        <ele>1174.6</ele>
        <time>2026-05-28T10:27:21.999Z</time>
      </trkpt>
      <trkpt lat="44.02171" lon="3.50726">
        <ele>1174.8</ele>
        <time>2026-05-28T10:27:22.999Z</time>
      </trkpt>
      <trkpt lat="44.02174" lon="3.50726">
        <ele>1175.5</ele>
        <time>2026-05-28T10:27:23.999Z</time>
      </trkpt>
      <trkpt lat="44.02176" lon="3.50724">
        <ele>1175.8</ele>
        <time>2026-05-28T10:27:24.999Z</time>
      </trkpt>
      <trkpt lat="44.02178" lon="3.50723">
        <ele>1175.5</ele>
        <time>2026-05-28T10:27:25.999Z</time>
      </trkpt>
      <trkpt lat="44.02179" lon="3.50723">
        <ele>1175.4</ele>
        <time>2026-05-28T10:27:26.999Z</time>
      </trkpt>
      <trkpt lat="44.0218" lon="3.50723">
        <ele>1175.3</ele>
        <time>2026-05-28T10:27:27.999Z</time>
      </trkpt>
      <trkpt lat="44.0218" lon="3.50723">
        <ele>1175.1</ele>
        <time>2026-05-28T10:27:28.999Z</time>
      </trkpt>
      <trkpt lat="44.02181" lon="3.50723">
        <ele>1175.1</ele>
        <time>2026-05-28T10:27:29.999Z</time>
      </trkpt>
      <trkpt lat="44.02181" lon="3.50724">
        <ele>1175.1</ele>
        <time>2026-05-28T10:27:30.999Z</time>
      </trkpt>
      <trkpt lat="44.02181" lon="3.50724">
        <ele>1175.6</ele>
        <time>2026-05-28T10:27:31.999Z</time>
      </trkpt>
      <trkpt lat="44.02181" lon="3.50724">
        <ele>1175.8</ele>
        <time>2026-05-28T10:27:32.999Z</time>
      </trkpt>
      <trkpt lat="44.02181" lon="3.50724">
        <ele>1176.2</ele>
        <time>2026-05-28T10:27:33.999Z</time>
      </trkpt>
      <trkpt lat="44.02182" lon="3.50725">
        <ele>1176.6</ele>
        <time>2026-05-28T10:27:34.999Z</time>
      </trkpt>
      <trkpt lat="44.02183" lon="3.50725">
        <ele>1177.1</ele>
        <time>2026-05-28T10:27:35.999Z</time>
      </trkpt>
      <trkpt lat="44.02184" lon="3.50724">
        <ele>1176.9</ele>
        <time>2026-05-28T10:27:36.999Z</time>
      </trkpt>
      <trkpt lat="44.02185" lon="3.50724">
        <ele>1177.7</ele>
        <time>2026-05-28T10:27:37.999Z</time>
      </trkpt>
      <trkpt lat="44.02185" lon="3.50723">
        <ele>1177.5</ele>
        <time>2026-05-28T10:27:38.999Z</time>
      </trkpt>
      <trkpt lat="44.02185" lon="3.50723">
        <ele>1177.5</ele>
        <time>2026-05-28T10:27:39.999Z</time>
      </trkpt>
      <trkpt lat="44.02185" lon="3.50724">
        <ele>1177.6</ele>
        <time>2026-05-28T10:27:40.999Z</time>
      </trkpt>
      <trkpt lat="44.02185" lon="3.50723">
        <ele>1177.9</ele>
        <time>2026-05-28T10:27:41.999Z</time>
      </trkpt>
      <trkpt lat="44.02186" lon="3.50724">
        <ele>1177.8</ele>
        <time>2026-05-28T10:27:42.999Z</time>
      </trkpt>
      <trkpt lat="44.02186" lon="3.50723">
        <ele>1178</ele>
        <time>2026-05-28T10:27:43.999Z</time>
      </trkpt>
      <trkpt lat="44.02187" lon="3.50722">
        <ele>1178.1</ele>
        <time>2026-05-28T10:27:44.999Z</time>
      </trkpt>
      <trkpt lat="44.02188" lon="3.50721">
        <ele>1177.9</ele>
        <time>2026-05-28T10:27:45.999Z</time>
      </trkpt>
      <trkpt lat="44.02188" lon="3.50721">
        <ele>1177.6</ele>
        <time>2026-05-28T10:27:46.999Z</time>
      </trkpt>
      <trkpt lat="44.02188" lon="3.50721">
        <ele>1177.8</ele>
        <time>2026-05-28T10:27:47.999Z</time>
      </trkpt>
      <trkpt lat="44.02188" lon="3.50721">
        <ele>1178.2</ele>
        <time>2026-05-28T10:27:48.999Z</time>
      </trkpt>
      <trkpt lat="44.02188" lon="3.50722">
        <ele>1178.4</ele>
        <time>2026-05-28T10:27:49.999Z</time>
      </trkpt>
      <trkpt lat="44.02188" lon="3.50722">
        <ele>1178.4</ele>
        <time>2026-05-28T10:27:50.999Z</time>
      </trkpt>
      <trkpt lat="44.02188" lon="3.50722">
        <ele>1178.7</ele>
        <time>2026-05-28T10:27:51.999Z</time>
      </trkpt>
      <trkpt lat="44.02189" lon="3.50721">
        <ele>1179.1</ele>
        <time>2026-05-28T10:27:52.999Z</time>
      </trkpt>
      <trkpt lat="44.02189" lon="3.50721">
        <ele>1179.3</ele>
        <time>2026-05-28T10:27:53.999Z</time>
      </trkpt>
      <trkpt lat="44.02189" lon="3.50721">
        <ele>1179.5</ele>
        <time>2026-05-28T10:27:54.999Z</time>
      </trkpt>
      <trkpt lat="44.02189" lon="3.50721">
        <ele>1179.7</ele>
        <time>2026-05-28T10:27:55.999Z</time>
      </trkpt>
      <trkpt lat="44.02189" lon="3.50721">
        <ele>1179.5</ele>
        <time>2026-05-28T10:27:56.999Z</time>
      </trkpt>
      <trkpt lat="44.02189" lon="3.50721">
        <ele>1179.5</ele>
        <time>2026-05-28T10:27:57.999Z</time>
      </trkpt>
      <trkpt lat="44.0219" lon="3.50721">
        <ele>1179.7</ele>
        <time>2026-05-28T10:27:58.999Z</time>
      </trkpt>
      <trkpt lat="44.0219" lon="3.50721">
        <ele>1179.7</ele>
        <time>2026-05-28T10:27:59.999Z</time>
      </trkpt>
      <trkpt lat="44.0219" lon="3.50721">
        <ele>1179.9</ele>
        <time>2026-05-28T10:28:00.999Z</time>
      </trkpt>
      <trkpt lat="44.0219" lon="3.50721">
        <ele>1180.2</ele>
        <time>2026-05-28T10:28:01.999Z</time>
      </trkpt>
      <trkpt lat="44.02191" lon="3.50721">
        <ele>1180.8</ele>
        <time>2026-05-28T10:28:02.999Z</time>
      </trkpt>
      <trkpt lat="44.02192" lon="3.50722">
        <ele>1180.7</ele>
        <time>2026-05-28T10:28:03.999Z</time>
      </trkpt>
      <trkpt lat="44.02193" lon="3.50722">
        <ele>1181</ele>
        <time>2026-05-28T10:28:04.999Z</time>
      </trkpt>
      <trkpt lat="44.02196" lon="3.50724">
        <ele>1181.6</ele>
        <time>2026-05-28T10:28:05.999Z</time>
      </trkpt>
      <trkpt lat="44.02198" lon="3.50724">
        <ele>1181.7</ele>
        <time>2026-05-28T10:28:06.999Z</time>
      </trkpt>
      <trkpt lat="44.02201" lon="3.50724">
        <ele>1182.1</ele>
        <time>2026-05-28T10:28:07.999Z</time>
      </trkpt>
      <trkpt lat="44.02204" lon="3.50724">
        <ele>1182.5</ele>
        <time>2026-05-28T10:28:08.999Z</time>
      </trkpt>
      <trkpt lat="44.02206" lon="3.50723">
        <ele>1182.7</ele>
        <time>2026-05-28T10:28:09.999Z</time>
      </trkpt>
      <trkpt lat="44.02207" lon="3.50722">
        <ele>1182.8</ele>
        <time>2026-05-28T10:28:10.999Z</time>
      </trkpt>
      <trkpt lat="44.02208" lon="3.50722">
        <ele>1182.9</ele>
        <time>2026-05-28T10:28:11.999Z</time>
      </trkpt>
      <trkpt lat="44.0221" lon="3.50722">
        <ele>1182.9</ele>
        <time>2026-05-28T10:28:12.999Z</time>
      </trkpt>
      <trkpt lat="44.02212" lon="3.50722">
        <ele>1183.1</ele>
        <time>2026-05-28T10:28:13.999Z</time>
      </trkpt>
      <trkpt lat="44.02214" lon="3.50721">
        <ele>1183.4</ele>
        <time>2026-05-28T10:28:14.999Z</time>
      </trkpt>
      <trkpt lat="44.02215" lon="3.50721">
        <ele>1183.6</ele>
        <time>2026-05-28T10:28:15.999Z</time>
      </trkpt>
      <trkpt lat="44.02217" lon="3.50721">
        <ele>1184.1</ele>
        <time>2026-05-28T10:28:16.999Z</time>
      </trkpt>
      <trkpt lat="44.02218" lon="3.5072">
        <ele>1184.3</ele>
        <time>2026-05-28T10:28:17.999Z</time>
      </trkpt>
      <trkpt lat="44.02218" lon="3.5072">
        <ele>1184.8</ele>
        <time>2026-05-28T10:28:18.999Z</time>
      </trkpt>
      <trkpt lat="44.02219" lon="3.5072">
        <ele>1184.9</ele>
        <time>2026-05-28T10:28:19.999Z</time>
      </trkpt>
      <trkpt lat="44.0222" lon="3.5072">
        <ele>1184.9</ele>
        <time>2026-05-28T10:28:20.999Z</time>
      </trkpt>
      <trkpt lat="44.02221" lon="3.50719">
        <ele>1184.8</ele>
        <time>2026-05-28T10:28:21.999Z</time>
      </trkpt>
      <trkpt lat="44.02222" lon="3.50719">
        <ele>1184.5</ele>
        <time>2026-05-28T10:28:22.999Z</time>
      </trkpt>
      <trkpt lat="44.02224" lon="3.50718">
        <ele>1184.3</ele>
        <time>2026-05-28T10:28:23.999Z</time>
      </trkpt>
      <trkpt lat="44.02225" lon="3.50719">
        <ele>1184.5</ele>
        <time>2026-05-28T10:28:24.999Z</time>
      </trkpt>
      <trkpt lat="44.02226" lon="3.50718">
        <ele>1184.5</ele>
        <time>2026-05-28T10:28:25.999Z</time>
      </trkpt>
      <trkpt lat="44.02226" lon="3.50718">
        <ele>1184.4</ele>
        <time>2026-05-28T10:28:26.999Z</time>
      </trkpt>
      <trkpt lat="44.02227" lon="3.50718">
        <ele>1184.7</ele>
        <time>2026-05-28T10:28:27.999Z</time>
      </trkpt>
      <trkpt lat="44.02227" lon="3.50718">
        <ele>1184.7</ele>
        <time>2026-05-28T10:28:28.999Z</time>
      </trkpt>
      <trkpt lat="44.02228" lon="3.50718">
        <ele>1185.2</ele>
        <time>2026-05-28T10:28:29.999Z</time>
      </trkpt>
      <trkpt lat="44.02229" lon="3.50718">
        <ele>1185.5</ele>
        <time>2026-05-28T10:28:30.999Z</time>
      </trkpt>
      <trkpt lat="44.0223" lon="3.50718">
        <ele>1185.9</ele>
        <time>2026-05-28T10:28:31.999Z</time>
      </trkpt>
      <trkpt lat="44.0223" lon="3.50718">
        <ele>1186</ele>
        <time>2026-05-28T10:28:32.999Z</time>
      </trkpt>
      <trkpt lat="44.0223" lon="3.50718">
        <ele>1186</ele>
        <time>2026-05-28T10:28:33.999Z</time>
      </trkpt>
      <trkpt lat="44.0223" lon="3.50718">
        <ele>1186.3</ele>
        <time>2026-05-28T10:28:34.999Z</time>
      </trkpt>
      <trkpt lat="44.0223" lon="3.50718">
        <ele>1186.7</ele>
        <time>2026-05-28T10:28:36.000Z</time>
      </trkpt>
      <trkpt lat="44.0223" lon="3.50719">
        <ele>1186.8</ele>
        <time>2026-05-28T10:28:37.000Z</time>
      </trkpt>
      <trkpt lat="44.0223" lon="3.50719">
        <ele>1187.4</ele>
        <time>2026-05-28T10:28:38.000Z</time>
      </trkpt>
      <trkpt lat="44.0223" lon="3.50719">
        <ele>1187.5</ele>
        <time>2026-05-28T10:28:39.000Z</time>
      </trkpt>
      <trkpt lat="44.0223" lon="3.50719">
        <ele>1187.6</ele>
        <time>2026-05-28T10:28:40.000Z</time>
      </trkpt>
      <trkpt lat="44.0223" lon="3.50719">
        <ele>1187.5</ele>
        <time>2026-05-28T10:28:41.000Z</time>
      </trkpt>
      <trkpt lat="44.0223" lon="3.50719">
        <ele>1187.4</ele>
        <time>2026-05-28T10:28:42.000Z</time>
      </trkpt>
      <trkpt lat="44.0223" lon="3.50719">
        <ele>1187.6</ele>
        <time>2026-05-28T10:28:43.000Z</time>
      </trkpt>
      <trkpt lat="44.0223" lon="3.50719">
        <ele>1188.1</ele>
        <time>2026-05-28T10:28:44.000Z</time>
      </trkpt>
      <trkpt lat="44.0223" lon="3.50719">
        <ele>1188.6</ele>
        <time>2026-05-28T10:28:45.000Z</time>
      </trkpt>
      <trkpt lat="44.0223" lon="3.50719">
        <ele>1189</ele>
        <time>2026-05-28T10:28:46.000Z</time>
      </trkpt>
      <trkpt lat="44.02231" lon="3.50719">
        <ele>1188.7</ele>
        <time>2026-05-28T10:28:47.000Z</time>
      </trkpt>
      <trkpt lat="44.02231" lon="3.50719">
        <ele>1188.5</ele>
        <time>2026-05-28T10:28:48.000Z</time>
      </trkpt>
      <trkpt lat="44.02231" lon="3.50719">
        <ele>1188.5</ele>
        <time>2026-05-28T10:28:49.000Z</time>
      </trkpt>
      <trkpt lat="44.02231" lon="3.50719">
        <ele>1188.7</ele>
        <time>2026-05-28T10:28:50.000Z</time>
      </trkpt>
      <trkpt lat="44.02231" lon="3.50719">
        <ele>1188.7</ele>
        <time>2026-05-28T10:28:51.000Z</time>
      </trkpt>
      <trkpt lat="44.02231" lon="3.50719">
        <ele>1188.8</ele>
        <time>2026-05-28T10:28:52.000Z</time>
      </trkpt>
      <trkpt lat="44.02231" lon="3.50719">
        <ele>1188.6</ele>
        <time>2026-05-28T10:28:53.000Z</time>
      </trkpt>
      <trkpt lat="44.02231" lon="3.50719">
        <ele>1188.5</ele>
        <time>2026-05-28T10:28:54.000Z</time>
      </trkpt>
      <trkpt lat="44.02233" lon="3.50719">
        <ele>1188.5</ele>
        <time>2026-05-28T10:28:55.000Z</time>
      </trkpt>
      <trkpt lat="44.02234" lon="3.50719">
        <ele>1188.1</ele>
        <time>2026-05-28T10:28:56.000Z</time>
      </trkpt>
      <trkpt lat="44.02235" lon="3.50719">
        <ele>1187.9</ele>
        <time>2026-05-28T10:28:57.000Z</time>
      </trkpt>
      <trkpt lat="44.02236" lon="3.50719">
        <ele>1187.6</ele>
        <time>2026-05-28T10:28:58.000Z</time>
      </trkpt>
      <trkpt lat="44.02236" lon="3.50719">
        <ele>1187.5</ele>
        <time>2026-05-28T10:28:59.000Z</time>
      </trkpt>
      <trkpt lat="44.02236" lon="3.50719">
        <ele>1187.4</ele>
        <time>2026-05-28T10:29:00.000Z</time>
      </trkpt>
      <trkpt lat="44.02236" lon="3.50719">
        <ele>1187</ele>
        <time>2026-05-28T10:29:01.000Z</time>
      </trkpt>
      <trkpt lat="44.02237" lon="3.50718">
        <ele>1186.8</ele>
        <time>2026-05-28T10:29:02.000Z</time>
      </trkpt>
      <trkpt lat="44.02237" lon="3.50718">
        <ele>1186.9</ele>
        <time>2026-05-28T10:29:03.000Z</time>
      </trkpt>
      <trkpt lat="44.02237" lon="3.50718">
        <ele>1187</ele>
        <time>2026-05-28T10:29:04.000Z</time>
      </trkpt>
      <trkpt lat="44.02237" lon="3.50718">
        <ele>1186.8</ele>
        <time>2026-05-28T10:29:05.000Z</time>
      </trkpt>
      <trkpt lat="44.02237" lon="3.50718">
        <ele>1186.7</ele>
        <time>2026-05-28T10:29:06.000Z</time>
      </trkpt>
      <trkpt lat="44.02238" lon="3.50718">
        <ele>1187</ele>
        <time>2026-05-28T10:29:07.000Z</time>
      </trkpt>
      <trkpt lat="44.02238" lon="3.50718">
        <ele>1187.5</ele>
        <time>2026-05-28T10:29:08.000Z</time>
      </trkpt>
      <trkpt lat="44.02238" lon="3.50716">
        <ele>1187.4</ele>
        <time>2026-05-28T10:29:09.000Z</time>
      </trkpt>
      <trkpt lat="44.0224" lon="3.50715">
        <ele>1187.3</ele>
        <time>2026-05-28T10:29:10.000Z</time>
      </trkpt>
      <trkpt lat="44.02241" lon="3.50714">
        <ele>1187.7</ele>
        <time>2026-05-28T10:29:11.000Z</time>
      </trkpt>
      <trkpt lat="44.02241" lon="3.50714">
        <ele>1188</ele>
        <time>2026-05-28T10:29:12.000Z</time>
      </trkpt>
      <trkpt lat="44.02241" lon="3.50714">
        <ele>1188.1</ele>
        <time>2026-05-28T10:29:13.000Z</time>
      </trkpt>
      <trkpt lat="44.02242" lon="3.50713">
        <ele>1188.2</ele>
        <time>2026-05-28T10:29:14.000Z</time>
      </trkpt>
      <trkpt lat="44.02243" lon="3.50713">
        <ele>1188.4</ele>
        <time>2026-05-28T10:29:15.000Z</time>
      </trkpt>
      <trkpt lat="44.02245" lon="3.50713">
        <ele>1188.7</ele>
        <time>2026-05-28T10:29:16.000Z</time>
      </trkpt>
      <trkpt lat="44.02246" lon="3.50712">
        <ele>1188.8</ele>
        <time>2026-05-28T10:29:17.000Z</time>
      </trkpt>
      <trkpt lat="44.02249" lon="3.50711">
        <ele>1189.1</ele>
        <time>2026-05-28T10:29:18.000Z</time>
      </trkpt>
      <trkpt lat="44.02252" lon="3.50711">
        <ele>1189.2</ele>
        <time>2026-05-28T10:29:19.000Z</time>
      </trkpt>
      <trkpt lat="44.02254" lon="3.5071">
        <ele>1189.5</ele>
        <time>2026-05-28T10:29:20.000Z</time>
      </trkpt>
      <trkpt lat="44.02255" lon="3.50711">
        <ele>1189.8</ele>
        <time>2026-05-28T10:29:21.000Z</time>
      </trkpt>
      <trkpt lat="44.02257" lon="3.5071">
        <ele>1189.7</ele>
        <time>2026-05-28T10:29:22.000Z</time>
      </trkpt>
      <trkpt lat="44.02258" lon="3.5071">
        <ele>1189.6</ele>
        <time>2026-05-28T10:29:23.000Z</time>
      </trkpt>
      <trkpt lat="44.02259" lon="3.50711">
        <ele>1190.1</ele>
        <time>2026-05-28T10:29:24.000Z</time>
      </trkpt>
      <trkpt lat="44.0226" lon="3.50711">
        <ele>1190.5</ele>
        <time>2026-05-28T10:29:25.000Z</time>
      </trkpt>
      <trkpt lat="44.02261" lon="3.5071">
        <ele>1190.8</ele>
        <time>2026-05-28T10:29:26.000Z</time>
      </trkpt>
      <trkpt lat="44.02263" lon="3.50711">
        <ele>1191.1</ele>
        <time>2026-05-28T10:29:27.000Z</time>
      </trkpt>
      <trkpt lat="44.02264" lon="3.50711">
        <ele>1190.9</ele>
        <time>2026-05-28T10:29:28.000Z</time>
      </trkpt>
      <trkpt lat="44.02265" lon="3.5071">
        <ele>1190.9</ele>
        <time>2026-05-28T10:29:29.000Z</time>
      </trkpt>
      <trkpt lat="44.02266" lon="3.50709">
        <ele>1190.4</ele>
        <time>2026-05-28T10:29:30.000Z</time>
      </trkpt>
      <trkpt lat="44.02267" lon="3.50709">
        <ele>1189.9</ele>
        <time>2026-05-28T10:29:31.000Z</time>
      </trkpt>
      <trkpt lat="44.02267" lon="3.50709">
        <ele>1189.6</ele>
        <time>2026-05-28T10:29:32.000Z</time>
      </trkpt>
      <trkpt lat="44.02267" lon="3.50709">
        <ele>1189.2</ele>
        <time>2026-05-28T10:29:33.000Z</time>
      </trkpt>
      <trkpt lat="44.02268" lon="3.50709">
        <ele>1188.9</ele>
        <time>2026-05-28T10:29:34.000Z</time>
      </trkpt>
      <trkpt lat="44.02269" lon="3.50709">
        <ele>1188.7</ele>
        <time>2026-05-28T10:29:35.000Z</time>
      </trkpt>
      <trkpt lat="44.02269" lon="3.50709">
        <ele>1188.5</ele>
        <time>2026-05-28T10:29:36.000Z</time>
      </trkpt>
      <trkpt lat="44.02271" lon="3.50709">
        <ele>1188.2</ele>
        <time>2026-05-28T10:29:37.000Z</time>
      </trkpt>
      <trkpt lat="44.02272" lon="3.50709">
        <ele>1188</ele>
        <time>2026-05-28T10:29:38.000Z</time>
      </trkpt>
      <trkpt lat="44.02273" lon="3.50709">
        <ele>1187.9</ele>
        <time>2026-05-28T10:29:39.000Z</time>
      </trkpt>
      <trkpt lat="44.02274" lon="3.50709">
        <ele>1188.1</ele>
        <time>2026-05-28T10:29:40.000Z</time>
      </trkpt>
      <trkpt lat="44.02275" lon="3.50708">
        <ele>1187.7</ele>
        <time>2026-05-28T10:29:41.000Z</time>
      </trkpt>
      <trkpt lat="44.02276" lon="3.50709">
        <ele>1187.3</ele>
        <time>2026-05-28T10:29:42.000Z</time>
      </trkpt>
      <trkpt lat="44.02277" lon="3.50709">
        <ele>1187.7</ele>
        <time>2026-05-28T10:29:43.000Z</time>
      </trkpt>
      <trkpt lat="44.02277" lon="3.50709">
        <ele>1188</ele>
        <time>2026-05-28T10:29:44.000Z</time>
      </trkpt>
      <trkpt lat="44.02277" lon="3.50709">
        <ele>1188.5</ele>
        <time>2026-05-28T10:29:45.000Z</time>
      </trkpt>
      <trkpt lat="44.02277" lon="3.50709">
        <ele>1188.5</ele>
        <time>2026-05-28T10:29:46.000Z</time>
      </trkpt>
      <trkpt lat="44.02278" lon="3.50709">
        <ele>1188.9</ele>
        <time>2026-05-28T10:29:47.000Z</time>
      </trkpt>
      <trkpt lat="44.02278" lon="3.50709">
        <ele>1189.1</ele>
        <time>2026-05-28T10:29:48.000Z</time>
      </trkpt>
      <trkpt lat="44.02279" lon="3.50708">
        <ele>1189</ele>
        <time>2026-05-28T10:29:49.000Z</time>
      </trkpt>
      <trkpt lat="44.02279" lon="3.50708">
        <ele>1189.2</ele>
        <time>2026-05-28T10:29:50.000Z</time>
      </trkpt>
      <trkpt lat="44.02279" lon="3.50708">
        <ele>1189.6</ele>
        <time>2026-05-28T10:29:51.000Z</time>
      </trkpt>
      <trkpt lat="44.02279" lon="3.50708">
        <ele>1189.7</ele>
        <time>2026-05-28T10:29:52.000Z</time>
      </trkpt>
      <trkpt lat="44.0228" lon="3.50709">
        <ele>1190.2</ele>
        <time>2026-05-28T10:29:53.000Z</time>
      </trkpt>
      <trkpt lat="44.02281" lon="3.50709">
        <ele>1190.1</ele>
        <time>2026-05-28T10:29:54.000Z</time>
      </trkpt>
      <trkpt lat="44.02282" lon="3.50709">
        <ele>1189.7</ele>
        <time>2026-05-28T10:29:55.000Z</time>
      </trkpt>
      <trkpt lat="44.02283" lon="3.50709">
        <ele>1189.5</ele>
        <time>2026-05-28T10:29:56.000Z</time>
      </trkpt>
      <trkpt lat="44.02283" lon="3.50709">
        <ele>1189.4</ele>
        <time>2026-05-28T10:29:57.000Z</time>
      </trkpt>
      <trkpt lat="44.02283" lon="3.50709">
        <ele>1189.4</ele>
        <time>2026-05-28T10:29:58.000Z</time>
      </trkpt>
      <trkpt lat="44.02284" lon="3.50709">
        <ele>1189.4</ele>
        <time>2026-05-28T10:29:59.000Z</time>
      </trkpt>
      <trkpt lat="44.02284" lon="3.50709">
        <ele>1189.5</ele>
        <time>2026-05-28T10:30:00.000Z</time>
      </trkpt>
      <trkpt lat="44.02284" lon="3.5071">
        <ele>1189.4</ele>
        <time>2026-05-28T10:30:01.000Z</time>
      </trkpt>
      <trkpt lat="44.02285" lon="3.5071">
        <ele>1189.5</ele>
        <time>2026-05-28T10:30:02.000Z</time>
      </trkpt>
      <trkpt lat="44.02285" lon="3.50709">
        <ele>1189.6</ele>
        <time>2026-05-28T10:30:03.000Z</time>
      </trkpt>
      <trkpt lat="44.02285" lon="3.50709">
        <ele>1189.9</ele>
        <time>2026-05-28T10:30:04.000Z</time>
      </trkpt>
      <trkpt lat="44.02286" lon="3.5071">
        <ele>1190</ele>
        <time>2026-05-28T10:30:05.000Z</time>
      </trkpt>
      <trkpt lat="44.02287" lon="3.5071">
        <ele>1190.1</ele>
        <time>2026-05-28T10:30:06.000Z</time>
      </trkpt>
      <trkpt lat="44.02289" lon="3.50711">
        <ele>1190.5</ele>
        <time>2026-05-28T10:30:07.000Z</time>
      </trkpt>
      <trkpt lat="44.02291" lon="3.50712">
        <ele>1190.8</ele>
        <time>2026-05-28T10:30:08.000Z</time>
      </trkpt>
      <trkpt lat="44.02292" lon="3.50712">
        <ele>1191.3</ele>
        <time>2026-05-28T10:30:09.000Z</time>
      </trkpt>
      <trkpt lat="44.02293" lon="3.50712">
        <ele>1191.5</ele>
        <time>2026-05-28T10:30:10.000Z</time>
      </trkpt>
      <trkpt lat="44.02294" lon="3.50713">
        <ele>1192</ele>
        <time>2026-05-28T10:30:11.000Z</time>
      </trkpt>
      <trkpt lat="44.02296" lon="3.50712">
        <ele>1192.3</ele>
        <time>2026-05-28T10:30:12.000Z</time>
      </trkpt>
      <trkpt lat="44.02298" lon="3.50712">
        <ele>1192.4</ele>
        <time>2026-05-28T10:30:13.000Z</time>
      </trkpt>
      <trkpt lat="44.02298" lon="3.50712">
        <ele>1192.9</ele>
        <time>2026-05-28T10:30:14.000Z</time>
      </trkpt>
      <trkpt lat="44.02299" lon="3.50713">
        <ele>1192.9</ele>
        <time>2026-05-28T10:30:15.000Z</time>
      </trkpt>
      <trkpt lat="44.02299" lon="3.50712">
        <ele>1192.7</ele>
        <time>2026-05-28T10:30:16.000Z</time>
      </trkpt>
      <trkpt lat="44.023" lon="3.50712">
        <ele>1192.2</ele>
        <time>2026-05-28T10:30:17.000Z</time>
      </trkpt>
      <trkpt lat="44.02301" lon="3.50713">
        <ele>1191.8</ele>
        <time>2026-05-28T10:30:18.000Z</time>
      </trkpt>
      <trkpt lat="44.02302" lon="3.50713">
        <ele>1191.7</ele>
        <time>2026-05-28T10:30:19.000Z</time>
      </trkpt>
      <trkpt lat="44.02303" lon="3.50713">
        <ele>1192.2</ele>
        <time>2026-05-28T10:30:20.000Z</time>
      </trkpt>
      <trkpt lat="44.02304" lon="3.50713">
        <ele>1192.8</ele>
        <time>2026-05-28T10:30:21.000Z</time>
      </trkpt>
      <trkpt lat="44.02304" lon="3.50713">
        <ele>1192.7</ele>
        <time>2026-05-28T10:30:22.000Z</time>
      </trkpt>
      <trkpt lat="44.02305" lon="3.50712">
        <ele>1192.5</ele>
        <time>2026-05-28T10:30:23.000Z</time>
      </trkpt>
      <trkpt lat="44.02306" lon="3.50711">
        <ele>1193.1</ele>
        <time>2026-05-28T10:30:24.000Z</time>
      </trkpt>
      <trkpt lat="44.02307" lon="3.5071">
        <ele>1193.1</ele>
        <time>2026-05-28T10:30:25.000Z</time>
      </trkpt>
      <trkpt lat="44.02308" lon="3.50709">
        <ele>1192.9</ele>
        <time>2026-05-28T10:30:26.000Z</time>
      </trkpt>
      <trkpt lat="44.02309" lon="3.50709">
        <ele>1193</ele>
        <time>2026-05-28T10:30:27.000Z</time>
      </trkpt>
      <trkpt lat="44.02309" lon="3.5071">
        <ele>1193.5</ele>
        <time>2026-05-28T10:30:28.000Z</time>
      </trkpt>
      <trkpt lat="44.0231" lon="3.50709">
        <ele>1193.5</ele>
        <time>2026-05-28T10:30:29.000Z</time>
      </trkpt>
      <trkpt lat="44.0231" lon="3.50708">
        <ele>1193.9</ele>
        <time>2026-05-28T10:30:30.000Z</time>
      </trkpt>
      <trkpt lat="44.02311" lon="3.50708">
        <ele>1194.4</ele>
        <time>2026-05-28T10:30:31.000Z</time>
      </trkpt>
      <trkpt lat="44.02311" lon="3.50708">
        <ele>1194.1</ele>
        <time>2026-05-28T10:30:32.000Z</time>
      </trkpt>
      <trkpt lat="44.02311" lon="3.50708">
        <ele>1194.3</ele>
        <time>2026-05-28T10:30:33.000Z</time>
      </trkpt>
      <trkpt lat="44.02311" lon="3.50708">
        <ele>1194.3</ele>
        <time>2026-05-28T10:30:34.000Z</time>
      </trkpt>
      <trkpt lat="44.02311" lon="3.50708">
        <ele>1194.2</ele>
        <time>2026-05-28T10:30:35.000Z</time>
      </trkpt>
      <trkpt lat="44.02311" lon="3.50708">
        <ele>1193.8</ele>
        <time>2026-05-28T10:30:36.000Z</time>
      </trkpt>
      <trkpt lat="44.02312" lon="3.50708">
        <ele>1193.5</ele>
        <time>2026-05-28T10:30:37.000Z</time>
      </trkpt>
      <trkpt lat="44.02312" lon="3.50707">
        <ele>1193.4</ele>
        <time>2026-05-28T10:30:38.000Z</time>
      </trkpt>
      <trkpt lat="44.02312" lon="3.50707">
        <ele>1193.4</ele>
        <time>2026-05-28T10:30:39.000Z</time>
      </trkpt>
      <trkpt lat="44.02312" lon="3.50707">
        <ele>1193.6</ele>
        <time>2026-05-28T10:30:40.000Z</time>
      </trkpt>
      <trkpt lat="44.02313" lon="3.50707">
        <ele>1193.9</ele>
        <time>2026-05-28T10:30:41.000Z</time>
      </trkpt>
      <trkpt lat="44.02313" lon="3.50707">
        <ele>1194.1</ele>
        <time>2026-05-28T10:30:42.000Z</time>
      </trkpt>
      <trkpt lat="44.02314" lon="3.50706">
        <ele>1194.5</ele>
        <time>2026-05-28T10:30:43.000Z</time>
      </trkpt>
      <trkpt lat="44.02314" lon="3.50706">
        <ele>1194.6</ele>
        <time>2026-05-28T10:30:44.000Z</time>
      </trkpt>
      <trkpt lat="44.02314" lon="3.50706">
        <ele>1194.3</ele>
        <time>2026-05-28T10:30:45.000Z</time>
      </trkpt>
      <trkpt lat="44.02314" lon="3.50706">
        <ele>1194</ele>
        <time>2026-05-28T10:30:46.000Z</time>
      </trkpt>
      <trkpt lat="44.02315" lon="3.50705">
        <ele>1193.5</ele>
        <time>2026-05-28T10:30:47.000Z</time>
      </trkpt>
      <trkpt lat="44.02316" lon="3.50704">
        <ele>1193.2</ele>
        <time>2026-05-28T10:30:48.000Z</time>
      </trkpt>
      <trkpt lat="44.02317" lon="3.50703">
        <ele>1193</ele>
        <time>2026-05-28T10:30:49.000Z</time>
      </trkpt>
      <trkpt lat="44.0232" lon="3.50701">
        <ele>1193.1</ele>
        <time>2026-05-28T10:30:50.000Z</time>
      </trkpt>
      <trkpt lat="44.02321" lon="3.50701">
        <ele>1193.5</ele>
        <time>2026-05-28T10:30:51.000Z</time>
      </trkpt>
      <trkpt lat="44.02322" lon="3.50701">
        <ele>1194.2</ele>
        <time>2026-05-28T10:30:52.000Z</time>
      </trkpt>
      <trkpt lat="44.02323" lon="3.507">
        <ele>1195</ele>
        <time>2026-05-28T10:30:53.000Z</time>
      </trkpt>
      <trkpt lat="44.02325" lon="3.50699">
        <ele>1195.4</ele>
        <time>2026-05-28T10:30:54.000Z</time>
      </trkpt>
      <trkpt lat="44.02326" lon="3.50699">
        <ele>1195.5</ele>
        <time>2026-05-28T10:30:55.000Z</time>
      </trkpt>
      <trkpt lat="44.02328" lon="3.50698">
        <ele>1195.4</ele>
        <time>2026-05-28T10:30:56.000Z</time>
      </trkpt>
      <trkpt lat="44.0233" lon="3.50697">
        <ele>1195.5</ele>
        <time>2026-05-28T10:30:57.000Z</time>
      </trkpt>
      <trkpt lat="44.02331" lon="3.50697">
        <ele>1195.6</ele>
        <time>2026-05-28T10:30:58.000Z</time>
      </trkpt>
      <trkpt lat="44.02332" lon="3.50697">
        <ele>1195.5</ele>
        <time>2026-05-28T10:30:59.000Z</time>
      </trkpt>
      <trkpt lat="44.02333" lon="3.50697">
        <ele>1195.8</ele>
        <time>2026-05-28T10:31:00.000Z</time>
      </trkpt>
      <trkpt lat="44.02333" lon="3.50697">
        <ele>1196.1</ele>
        <time>2026-05-28T10:31:01.000Z</time>
      </trkpt>
      <trkpt lat="44.02334" lon="3.50697">
        <ele>1196.1</ele>
        <time>2026-05-28T10:31:02.000Z</time>
      </trkpt>
      <trkpt lat="44.02334" lon="3.50697">
        <ele>1196.4</ele>
        <time>2026-05-28T10:31:03.000Z</time>
      </trkpt>
      <trkpt lat="44.02334" lon="3.50697">
        <ele>1196.1</ele>
        <time>2026-05-28T10:31:04.000Z</time>
      </trkpt>
      <trkpt lat="44.02335" lon="3.50698">
        <ele>1196.3</ele>
        <time>2026-05-28T10:31:05.000Z</time>
      </trkpt>
      <trkpt lat="44.02336" lon="3.50698">
        <ele>1196.4</ele>
        <time>2026-05-28T10:31:06.000Z</time>
      </trkpt>
      <trkpt lat="44.02337" lon="3.50699">
        <ele>1196.9</ele>
        <time>2026-05-28T10:31:07.000Z</time>
      </trkpt>
      <trkpt lat="44.02337" lon="3.507">
        <ele>1196.8</ele>
        <time>2026-05-28T10:31:08.000Z</time>
      </trkpt>
      <trkpt lat="44.02337" lon="3.50699">
        <ele>1196.8</ele>
        <time>2026-05-28T10:31:09.000Z</time>
      </trkpt>
      <trkpt lat="44.02337" lon="3.507">
        <ele>1196.8</ele>
        <time>2026-05-28T10:31:11.000Z</time>
      </trkpt>
      <trkpt lat="44.02337" lon="3.507">
        <ele>1196.9</ele>
        <time>2026-05-28T10:31:12.000Z</time>
      </trkpt>
      <trkpt lat="44.02337" lon="3.507">
        <ele>1196.8</ele>
        <time>2026-05-28T10:31:13.000Z</time>
      </trkpt>
      <trkpt lat="44.02337" lon="3.50701">
        <ele>1196.8</ele>
        <time>2026-05-28T10:31:14.000Z</time>
      </trkpt>
      <trkpt lat="44.02337" lon="3.50701">
        <ele>1196.8</ele>
        <time>2026-05-28T10:31:15.000Z</time>
      </trkpt>
      <trkpt lat="44.02338" lon="3.50701">
        <ele>1196.8</ele>
        <time>2026-05-28T10:31:16.000Z</time>
      </trkpt>
      <trkpt lat="44.02338" lon="3.50701">
        <ele>1196.7</ele>
        <time>2026-05-28T10:31:17.000Z</time>
      </trkpt>
      <trkpt lat="44.02338" lon="3.50701">
        <ele>1196.9</ele>
        <time>2026-05-28T10:31:18.000Z</time>
      </trkpt>
      <trkpt lat="44.02338" lon="3.50701">
        <ele>1196.4</ele>
        <time>2026-05-28T10:31:19.000Z</time>
      </trkpt>
      <trkpt lat="44.02338" lon="3.50702">
        <ele>1196.1</ele>
        <time>2026-05-28T10:31:20.000Z</time>
      </trkpt>
      <trkpt lat="44.02338" lon="3.50702">
        <ele>1196</ele>
        <time>2026-05-28T10:31:21.000Z</time>
      </trkpt>
      <trkpt lat="44.02338" lon="3.50702">
        <ele>1195.9</ele>
        <time>2026-05-28T10:31:22.000Z</time>
      </trkpt>
      <trkpt lat="44.02339" lon="3.50703">
        <ele>1195.7</ele>
        <time>2026-05-28T10:31:23.000Z</time>
      </trkpt>
      <trkpt lat="44.02339" lon="3.50703">
        <ele>1195.3</ele>
        <time>2026-05-28T10:31:24.000Z</time>
      </trkpt>
      <trkpt lat="44.02339" lon="3.50703">
        <ele>1194.7</ele>
        <time>2026-05-28T10:31:25.000Z</time>
      </trkpt>
      <trkpt lat="44.02339" lon="3.50703">
        <ele>1194.2</ele>
        <time>2026-05-28T10:31:26.000Z</time>
      </trkpt>
      <trkpt lat="44.02339" lon="3.50704">
        <ele>1194.1</ele>
        <time>2026-05-28T10:31:27.000Z</time>
      </trkpt>
      <trkpt lat="44.02339" lon="3.50704">
        <ele>1194.2</ele>
        <time>2026-05-28T10:31:28.000Z</time>
      </trkpt>
      <trkpt lat="44.02339" lon="3.50704">
        <ele>1194.1</ele>
        <time>2026-05-28T10:31:29.000Z</time>
      </trkpt>
      <trkpt lat="44.0234" lon="3.50705">
        <ele>1194</ele>
        <time>2026-05-28T10:31:30.000Z</time>
      </trkpt>
      <trkpt lat="44.02341" lon="3.50706">
        <ele>1194.4</ele>
        <time>2026-05-28T10:31:31.000Z</time>
      </trkpt>
      <trkpt lat="44.02342" lon="3.50709">
        <ele>1194.5</ele>
        <time>2026-05-28T10:31:32.000Z</time>
      </trkpt>
      <trkpt lat="44.02343" lon="3.50709">
        <ele>1194.1</ele>
        <time>2026-05-28T10:31:33.000Z</time>
      </trkpt>
      <trkpt lat="44.02344" lon="3.50711">
        <ele>1194.2</ele>
        <time>2026-05-28T10:31:34.000Z</time>
      </trkpt>
      <trkpt lat="44.02345" lon="3.50711">
        <ele>1194.4</ele>
        <time>2026-05-28T10:31:35.000Z</time>
      </trkpt>
      <trkpt lat="44.02345" lon="3.50711">
        <ele>1194.2</ele>
        <time>2026-05-28T10:31:36.000Z</time>
      </trkpt>
      <trkpt lat="44.02345" lon="3.50711">
        <ele>1194.2</ele>
        <time>2026-05-28T10:31:37.000Z</time>
      </trkpt>
      <trkpt lat="44.02345" lon="3.50711">
        <ele>1194.5</ele>
        <time>2026-05-28T10:31:38.000Z</time>
      </trkpt>
      <trkpt lat="44.02345" lon="3.50711">
        <ele>1194.6</ele>
        <time>2026-05-28T10:31:39.000Z</time>
      </trkpt>
      <trkpt lat="44.02345" lon="3.50711">
        <ele>1194.6</ele>
        <time>2026-05-28T10:31:40.000Z</time>
      </trkpt>
      <trkpt lat="44.02345" lon="3.50711">
        <ele>1194.8</ele>
        <time>2026-05-28T10:31:41.000Z</time>
      </trkpt>
      <trkpt lat="44.02346" lon="3.50711">
        <ele>1195.2</ele>
        <time>2026-05-28T10:31:42.000Z</time>
      </trkpt>
      <trkpt lat="44.02347" lon="3.50712">
        <ele>1195.2</ele>
        <time>2026-05-28T10:31:43.000Z</time>
      </trkpt>
      <trkpt lat="44.02348" lon="3.50714">
        <ele>1195.4</ele>
        <time>2026-05-28T10:31:44.000Z</time>
      </trkpt>
      <trkpt lat="44.02348" lon="3.50716">
        <ele>1195.6</ele>
        <time>2026-05-28T10:31:45.000Z</time>
      </trkpt>
      <trkpt lat="44.02348" lon="3.50718">
        <ele>1195.7</ele>
        <time>2026-05-28T10:31:46.000Z</time>
      </trkpt>
      <trkpt lat="44.02349" lon="3.50719">
        <ele>1196</ele>
        <time>2026-05-28T10:31:47.000Z</time>
      </trkpt>
      <trkpt lat="44.0235" lon="3.5072">
        <ele>1196.5</ele>
        <time>2026-05-28T10:31:48.000Z</time>
      </trkpt>
      <trkpt lat="44.02351" lon="3.5072">
        <ele>1197</ele>
        <time>2026-05-28T10:31:49.000Z</time>
      </trkpt>
      <trkpt lat="44.02352" lon="3.5072">
        <ele>1197.2</ele>
        <time>2026-05-28T10:31:50.000Z</time>
      </trkpt>
      <trkpt lat="44.02352" lon="3.50719">
        <ele>1197.1</ele>
        <time>2026-05-28T10:31:51.000Z</time>
      </trkpt>
      <trkpt lat="44.02353" lon="3.50719">
        <ele>1197</ele>
        <time>2026-05-28T10:31:52.000Z</time>
      </trkpt>
      <trkpt lat="44.02354" lon="3.50719">
        <ele>1196.9</ele>
        <time>2026-05-28T10:31:53.000Z</time>
      </trkpt>
      <trkpt lat="44.02355" lon="3.50718">
        <ele>1196.7</ele>
        <time>2026-05-28T10:31:54.000Z</time>
      </trkpt>
      <trkpt lat="44.02355" lon="3.50717">
        <ele>1196.3</ele>
        <time>2026-05-28T10:31:55.000Z</time>
      </trkpt>
      <trkpt lat="44.02356" lon="3.50716">
        <ele>1195.5</ele>
        <time>2026-05-28T10:31:56.000Z</time>
      </trkpt>
      <trkpt lat="44.02356" lon="3.50716">
        <ele>1196.4</ele>
        <time>2026-05-28T10:31:57.000Z</time>
      </trkpt>
      <trkpt lat="44.02356" lon="3.50715">
        <ele>1196.2</ele>
        <time>2026-05-28T10:31:58.000Z</time>
      </trkpt>
      <trkpt lat="44.02357" lon="3.50715">
        <ele>1196.1</ele>
        <time>2026-05-28T10:31:59.000Z</time>
      </trkpt>
      <trkpt lat="44.02358" lon="3.50715">
        <ele>1196.2</ele>
        <time>2026-05-28T10:32:00.000Z</time>
      </trkpt>
      <trkpt lat="44.02358" lon="3.50715">
        <ele>1196.2</ele>
        <time>2026-05-28T10:32:01.000Z</time>
      </trkpt>
      <trkpt lat="44.02359" lon="3.50715">
        <ele>1196.1</ele>
        <time>2026-05-28T10:32:02.000Z</time>
      </trkpt>
      <trkpt lat="44.0236" lon="3.50715">
        <ele>1196</ele>
        <time>2026-05-28T10:32:03.000Z</time>
      </trkpt>
      <trkpt lat="44.02361" lon="3.50714">
        <ele>1195.7</ele>
        <time>2026-05-28T10:32:04.000Z</time>
      </trkpt>
      <trkpt lat="44.02362" lon="3.50714">
        <ele>1195.3</ele>
        <time>2026-05-28T10:32:05.000Z</time>
      </trkpt>
      <trkpt lat="44.02362" lon="3.50714">
        <ele>1195.7</ele>
        <time>2026-05-28T10:32:06.000Z</time>
      </trkpt>
      <trkpt lat="44.02363" lon="3.50714">
        <ele>1195.7</ele>
        <time>2026-05-28T10:32:07.000Z</time>
      </trkpt>
      <trkpt lat="44.02364" lon="3.50714">
        <ele>1195.9</ele>
        <time>2026-05-28T10:32:08.000Z</time>
      </trkpt>
      <trkpt lat="44.02364" lon="3.50715">
        <ele>1195.5</ele>
        <time>2026-05-28T10:32:09.000Z</time>
      </trkpt>
      <trkpt lat="44.02365" lon="3.50715">
        <ele>1195.9</ele>
        <time>2026-05-28T10:32:10.000Z</time>
      </trkpt>
      <trkpt lat="44.02365" lon="3.50716">
        <ele>1196.3</ele>
        <time>2026-05-28T10:32:11.000Z</time>
      </trkpt>
      <trkpt lat="44.02366" lon="3.50717">
        <ele>1196.9</ele>
        <time>2026-05-28T10:32:12.000Z</time>
      </trkpt>
      <trkpt lat="44.02366" lon="3.50717">
        <ele>1197.9</ele>
        <time>2026-05-28T10:32:13.000Z</time>
      </trkpt>
      <trkpt lat="44.02366" lon="3.50717">
        <ele>1198</ele>
        <time>2026-05-28T10:32:14.000Z</time>
      </trkpt>
      <trkpt lat="44.02366" lon="3.50717">
        <ele>1198</ele>
        <time>2026-05-28T10:32:15.000Z</time>
      </trkpt>
      <trkpt lat="44.02367" lon="3.50718">
        <ele>1198.5</ele>
        <time>2026-05-28T10:32:16.000Z</time>
      </trkpt>
      <trkpt lat="44.02368" lon="3.50719">
        <ele>1199</ele>
        <time>2026-05-28T10:32:17.000Z</time>
      </trkpt>
      <trkpt lat="44.02368" lon="3.50719">
        <ele>1199.1</ele>
        <time>2026-05-28T10:32:18.000Z</time>
      </trkpt>
      <trkpt lat="44.02369" lon="3.50719">
        <ele>1199.1</ele>
        <time>2026-05-28T10:32:19.000Z</time>
      </trkpt>
      <trkpt lat="44.02369" lon="3.50719">
        <ele>1199.5</ele>
        <time>2026-05-28T10:32:20.000Z</time>
      </trkpt>
      <trkpt lat="44.0237" lon="3.5072">
        <ele>1200.2</ele>
        <time>2026-05-28T10:32:21.000Z</time>
      </trkpt>
      <trkpt lat="44.0237" lon="3.5072">
        <ele>1200.4</ele>
        <time>2026-05-28T10:32:22.000Z</time>
      </trkpt>
      <trkpt lat="44.02371" lon="3.5072">
        <ele>1200.6</ele>
        <time>2026-05-28T10:32:23.000Z</time>
      </trkpt>
      <trkpt lat="44.02372" lon="3.5072">
        <ele>1200.5</ele>
        <time>2026-05-28T10:32:24.000Z</time>
      </trkpt>
      <trkpt lat="44.02372" lon="3.5072">
        <ele>1200.7</ele>
        <time>2026-05-28T10:32:25.000Z</time>
      </trkpt>
      <trkpt lat="44.02373" lon="3.50721">
        <ele>1201.2</ele>
        <time>2026-05-28T10:32:26.000Z</time>
      </trkpt>
      <trkpt lat="44.02374" lon="3.50722">
        <ele>1201.5</ele>
        <time>2026-05-28T10:32:27.000Z</time>
      </trkpt>
      <trkpt lat="44.02375" lon="3.50723">
        <ele>1201.6</ele>
        <time>2026-05-28T10:32:28.000Z</time>
      </trkpt>
      <trkpt lat="44.02376" lon="3.50722">
        <ele>1201.3</ele>
        <time>2026-05-28T10:32:29.000Z</time>
      </trkpt>
      <trkpt lat="44.02378" lon="3.50721">
        <ele>1200.7</ele>
        <time>2026-05-28T10:32:30.000Z</time>
      </trkpt>
      <trkpt lat="44.02378" lon="3.50721">
        <ele>1200.6</ele>
        <time>2026-05-28T10:32:31.000Z</time>
      </trkpt>
      <trkpt lat="44.02379" lon="3.50721">
        <ele>1200.4</ele>
        <time>2026-05-28T10:32:32.000Z</time>
      </trkpt>
      <trkpt lat="44.02379" lon="3.50722">
        <ele>1200.5</ele>
        <time>2026-05-28T10:32:33.000Z</time>
      </trkpt>
      <trkpt lat="44.0238" lon="3.50721">
        <ele>1200.6</ele>
        <time>2026-05-28T10:32:34.000Z</time>
      </trkpt>
      <trkpt lat="44.0238" lon="3.50721">
        <ele>1200.4</ele>
        <time>2026-05-28T10:32:35.000Z</time>
      </trkpt>
      <trkpt lat="44.0238" lon="3.50721">
        <ele>1200.1</ele>
        <time>2026-05-28T10:32:36.000Z</time>
      </trkpt>
      <trkpt lat="44.0238" lon="3.50721">
        <ele>1200</ele>
        <time>2026-05-28T10:32:37.000Z</time>
      </trkpt>
      <trkpt lat="44.0238" lon="3.5072">
        <ele>1199.8</ele>
        <time>2026-05-28T10:32:38.000Z</time>
      </trkpt>
      <trkpt lat="44.0238" lon="3.5072">
        <ele>1199.6</ele>
        <time>2026-05-28T10:32:39.000Z</time>
      </trkpt>
      <trkpt lat="44.02381" lon="3.5072">
        <ele>1199.8</ele>
        <time>2026-05-28T10:32:40.000Z</time>
      </trkpt>
      <trkpt lat="44.02381" lon="3.5072">
        <ele>1199.9</ele>
        <time>2026-05-28T10:32:41.000Z</time>
      </trkpt>
      <trkpt lat="44.02381" lon="3.50719">
        <ele>1199.9</ele>
        <time>2026-05-28T10:32:42.000Z</time>
      </trkpt>
      <trkpt lat="44.02381" lon="3.50719">
        <ele>1199.9</ele>
        <time>2026-05-28T10:32:43.000Z</time>
      </trkpt>
      <trkpt lat="44.02382" lon="3.50718">
        <ele>1199.9</ele>
        <time>2026-05-28T10:32:44.000Z</time>
      </trkpt>
      <trkpt lat="44.02384" lon="3.50717">
        <ele>1200.2</ele>
        <time>2026-05-28T10:32:45.000Z</time>
      </trkpt>
      <trkpt lat="44.02385" lon="3.50717">
        <ele>1200</ele>
        <time>2026-05-28T10:32:46.000Z</time>
      </trkpt>
      <trkpt lat="44.02385" lon="3.50717">
        <ele>1199.9</ele>
        <time>2026-05-28T10:32:47.000Z</time>
      </trkpt>
      <trkpt lat="44.02386" lon="3.50717">
        <ele>1199.9</ele>
        <time>2026-05-28T10:32:48.000Z</time>
      </trkpt>
      <trkpt lat="44.02387" lon="3.50717">
        <ele>1200</ele>
        <time>2026-05-28T10:32:49.000Z</time>
      </trkpt>
      <trkpt lat="44.02388" lon="3.50716">
        <ele>1199.7</ele>
        <time>2026-05-28T10:32:50.000Z</time>
      </trkpt>
      <trkpt lat="44.0239" lon="3.50716">
        <ele>1199.8</ele>
        <time>2026-05-28T10:32:51.000Z</time>
      </trkpt>
      <trkpt lat="44.0239" lon="3.50717">
        <ele>1200.2</ele>
        <time>2026-05-28T10:32:52.000Z</time>
      </trkpt>
      <trkpt lat="44.0239" lon="3.50718">
        <ele>1200.2</ele>
        <time>2026-05-28T10:32:53.000Z</time>
      </trkpt>
      <trkpt lat="44.02391" lon="3.50718">
        <ele>1200.4</ele>
        <time>2026-05-28T10:32:54.000Z</time>
      </trkpt>
      <trkpt lat="44.02391" lon="3.50718">
        <ele>1200.5</ele>
        <time>2026-05-28T10:32:55.000Z</time>
      </trkpt>
      <trkpt lat="44.02391" lon="3.50718">
        <ele>1200.5</ele>
        <time>2026-05-28T10:32:56.000Z</time>
      </trkpt>
      <trkpt lat="44.02392" lon="3.50719">
        <ele>1200.4</ele>
        <time>2026-05-28T10:32:57.000Z</time>
      </trkpt>
      <trkpt lat="44.02393" lon="3.50718">
        <ele>1200.4</ele>
        <time>2026-05-28T10:32:58.000Z</time>
      </trkpt>
      <trkpt lat="44.02393" lon="3.50718">
        <ele>1200.3</ele>
        <time>2026-05-28T10:32:59.000Z</time>
      </trkpt>
      <trkpt lat="44.02393" lon="3.50717">
        <ele>1200.1</ele>
        <time>2026-05-28T10:33:00.000Z</time>
      </trkpt>
      <trkpt lat="44.02394" lon="3.50718">
        <ele>1200</ele>
        <time>2026-05-28T10:33:01.000Z</time>
      </trkpt>
      <trkpt lat="44.02394" lon="3.50718">
        <ele>1200.1</ele>
        <time>2026-05-28T10:33:02.000Z</time>
      </trkpt>
      <trkpt lat="44.02394" lon="3.50718">
        <ele>1200.5</ele>
        <time>2026-05-28T10:33:03.000Z</time>
      </trkpt>
      <trkpt lat="44.02394" lon="3.50718">
        <ele>1200.5</ele>
        <time>2026-05-28T10:33:04.000Z</time>
      </trkpt>
      <trkpt lat="44.02394" lon="3.50718">
        <ele>1200.3</ele>
        <time>2026-05-28T10:33:05.000Z</time>
      </trkpt>
      <trkpt lat="44.02394" lon="3.50718">
        <ele>1200.5</ele>
        <time>2026-05-28T10:33:06.000Z</time>
      </trkpt>
      <trkpt lat="44.02394" lon="3.50718">
        <ele>1200.5</ele>
        <time>2026-05-28T10:33:07.000Z</time>
      </trkpt>
      <trkpt lat="44.02395" lon="3.50718">
        <ele>1200.6</ele>
        <time>2026-05-28T10:33:08.000Z</time>
      </trkpt>
      <trkpt lat="44.02395" lon="3.50718">
        <ele>1201</ele>
        <time>2026-05-28T10:33:09.000Z</time>
      </trkpt>
      <trkpt lat="44.02395" lon="3.50718">
        <ele>1201.2</ele>
        <time>2026-05-28T10:33:10.000Z</time>
      </trkpt>
      <trkpt lat="44.02396" lon="3.50718">
        <ele>1201.2</ele>
        <time>2026-05-28T10:33:11.000Z</time>
      </trkpt>
      <trkpt lat="44.02396" lon="3.50718">
        <ele>1201.4</ele>
        <time>2026-05-28T10:33:12.000Z</time>
      </trkpt>
      <trkpt lat="44.02396" lon="3.50718">
        <ele>1201.4</ele>
        <time>2026-05-28T10:33:13.000Z</time>
      </trkpt>
      <trkpt lat="44.02396" lon="3.50718">
        <ele>1201.5</ele>
        <time>2026-05-28T10:33:14.000Z</time>
      </trkpt>
      <trkpt lat="44.02397" lon="3.50718">
        <ele>1201.6</ele>
        <time>2026-05-28T10:33:15.000Z</time>
      </trkpt>
      <trkpt lat="44.02397" lon="3.50718">
        <ele>1201.7</ele>
        <time>2026-05-28T10:33:16.000Z</time>
      </trkpt>
      <trkpt lat="44.02397" lon="3.50718">
        <ele>1201.4</ele>
        <time>2026-05-28T10:33:17.000Z</time>
      </trkpt>
      <trkpt lat="44.02398" lon="3.50717">
        <ele>1201.5</ele>
        <time>2026-05-28T10:33:18.000Z</time>
      </trkpt>
      <trkpt lat="44.02398" lon="3.50717">
        <ele>1201.4</ele>
        <time>2026-05-28T10:33:19.000Z</time>
      </trkpt>
      <trkpt lat="44.02398" lon="3.50717">
        <ele>1201.4</ele>
        <time>2026-05-28T10:33:20.000Z</time>
      </trkpt>
      <trkpt lat="44.02398" lon="3.50717">
        <ele>1201.3</ele>
        <time>2026-05-28T10:33:21.000Z</time>
      </trkpt>
      <trkpt lat="44.024" lon="3.50717">
        <ele>1201.1</ele>
        <time>2026-05-28T10:33:22.000Z</time>
      </trkpt>
      <trkpt lat="44.02402" lon="3.50717">
        <ele>1200.9</ele>
        <time>2026-05-28T10:33:23.000Z</time>
      </trkpt>
      <trkpt lat="44.02404" lon="3.50717">
        <ele>1201.2</ele>
        <time>2026-05-28T10:33:24.000Z</time>
      </trkpt>
      <trkpt lat="44.02407" lon="3.50717">
        <ele>1201.4</ele>
        <time>2026-05-28T10:33:25.000Z</time>
      </trkpt>
      <trkpt lat="44.02409" lon="3.50716">
        <ele>1201.3</ele>
        <time>2026-05-28T10:33:26.000Z</time>
      </trkpt>
      <trkpt lat="44.0241" lon="3.50715">
        <ele>1200.7</ele>
        <time>2026-05-28T10:33:27.000Z</time>
      </trkpt>
      <trkpt lat="44.02412" lon="3.50715">
        <ele>1200.4</ele>
        <time>2026-05-28T10:33:28.000Z</time>
      </trkpt>
      <trkpt lat="44.02412" lon="3.50715">
        <ele>1200.4</ele>
        <time>2026-05-28T10:33:29.000Z</time>
      </trkpt>
      <trkpt lat="44.02413" lon="3.50715">
        <ele>1200.4</ele>
        <time>2026-05-28T10:33:30.000Z</time>
      </trkpt>
      <trkpt lat="44.02415" lon="3.50715">
        <ele>1200.4</ele>
        <time>2026-05-28T10:33:31.000Z</time>
      </trkpt>
      <trkpt lat="44.02416" lon="3.50715">
        <ele>1200.6</ele>
        <time>2026-05-28T10:33:32.000Z</time>
      </trkpt>
      <trkpt lat="44.02417" lon="3.50715">
        <ele>1200.9</ele>
        <time>2026-05-28T10:33:33.000Z</time>
      </trkpt>
      <trkpt lat="44.02419" lon="3.50715">
        <ele>1201.2</ele>
        <time>2026-05-28T10:33:34.000Z</time>
      </trkpt>
      <trkpt lat="44.0242" lon="3.50714">
        <ele>1201.7</ele>
        <time>2026-05-28T10:33:35.000Z</time>
      </trkpt>
      <trkpt lat="44.02421" lon="3.50714">
        <ele>1202.1</ele>
        <time>2026-05-28T10:33:36.000Z</time>
      </trkpt>
      <trkpt lat="44.02422" lon="3.50714">
        <ele>1202.3</ele>
        <time>2026-05-28T10:33:37.000Z</time>
      </trkpt>
      <trkpt lat="44.02423" lon="3.50714">
        <ele>1202.5</ele>
        <time>2026-05-28T10:33:38.000Z</time>
      </trkpt>
      <trkpt lat="44.02423" lon="3.50714">
        <ele>1202.5</ele>
        <time>2026-05-28T10:33:39.000Z</time>
      </trkpt>
      <trkpt lat="44.02425" lon="3.50713">
        <ele>1202.3</ele>
        <time>2026-05-28T10:33:40.000Z</time>
      </trkpt>
      <trkpt lat="44.02426" lon="3.50713">
        <ele>1202.4</ele>
        <time>2026-05-28T10:33:41.000Z</time>
      </trkpt>
      <trkpt lat="44.02427" lon="3.50713">
        <ele>1202.5</ele>
        <time>2026-05-28T10:33:42.000Z</time>
      </trkpt>
      <trkpt lat="44.02428" lon="3.50713">
        <ele>1202</ele>
        <time>2026-05-28T10:33:43.000Z</time>
      </trkpt>
      <trkpt lat="44.02429" lon="3.50713">
        <ele>1201.8</ele>
        <time>2026-05-28T10:33:44.000Z</time>
      </trkpt>
      <trkpt lat="44.0243" lon="3.50714">
        <ele>1201.8</ele>
        <time>2026-05-28T10:33:45.000Z</time>
      </trkpt>
      <trkpt lat="44.0243" lon="3.50714">
        <ele>1202.4</ele>
        <time>2026-05-28T10:33:46.000Z</time>
      </trkpt>
      <trkpt lat="44.02431" lon="3.50714">
        <ele>1202.7</ele>
        <time>2026-05-28T10:33:47.000Z</time>
      </trkpt>
      <trkpt lat="44.02432" lon="3.50714">
        <ele>1203.3</ele>
        <time>2026-05-28T10:33:48.000Z</time>
      </trkpt>
      <trkpt lat="44.02433" lon="3.50714">
        <ele>1203.5</ele>
        <time>2026-05-28T10:33:49.000Z</time>
      </trkpt>
      <trkpt lat="44.02433" lon="3.50714">
        <ele>1203.9</ele>
        <time>2026-05-28T10:33:50.000Z</time>
      </trkpt>
      <trkpt lat="44.02434" lon="3.50714">
        <ele>1204.4</ele>
        <time>2026-05-28T10:33:51.000Z</time>
      </trkpt>
      <trkpt lat="44.02434" lon="3.50714">
        <ele>1204.7</ele>
        <time>2026-05-28T10:33:52.000Z</time>
      </trkpt>
      <trkpt lat="44.02434" lon="3.50714">
        <ele>1205</ele>
        <time>2026-05-28T10:33:53.000Z</time>
      </trkpt>
      <trkpt lat="44.02434" lon="3.50714">
        <ele>1205.1</ele>
        <time>2026-05-28T10:33:54.000Z</time>
      </trkpt>
      <trkpt lat="44.02434" lon="3.50714">
        <ele>1205.4</ele>
        <time>2026-05-28T10:33:55.000Z</time>
      </trkpt>
      <trkpt lat="44.02434" lon="3.50714">
        <ele>1205.7</ele>
        <time>2026-05-28T10:33:56.000Z</time>
      </trkpt>
      <trkpt lat="44.02435" lon="3.50714">
        <ele>1205.8</ele>
        <time>2026-05-28T10:33:57.000Z</time>
      </trkpt>
      <trkpt lat="44.02435" lon="3.50714">
        <ele>1205.9</ele>
        <time>2026-05-28T10:33:58.000Z</time>
      </trkpt>
      <trkpt lat="44.02435" lon="3.50714">
        <ele>1206</ele>
        <time>2026-05-28T10:33:59.000Z</time>
      </trkpt>
      <trkpt lat="44.02435" lon="3.50714">
        <ele>1206.3</ele>
        <time>2026-05-28T10:34:00.000Z</time>
      </trkpt>
      <trkpt lat="44.02435" lon="3.50713">
        <ele>1206.6</ele>
        <time>2026-05-28T10:34:01.000Z</time>
      </trkpt>
      <trkpt lat="44.02435" lon="3.50713">
        <ele>1206.6</ele>
        <time>2026-05-28T10:34:02.000Z</time>
      </trkpt>
      <trkpt lat="44.02436" lon="3.50713">
        <ele>1206.4</ele>
        <time>2026-05-28T10:34:03.000Z</time>
      </trkpt>
      <trkpt lat="44.02436" lon="3.50713">
        <ele>1206.4</ele>
        <time>2026-05-28T10:34:04.000Z</time>
      </trkpt>
      <trkpt lat="44.02436" lon="3.50713">
        <ele>1206.4</ele>
        <time>2026-05-28T10:34:05.000Z</time>
      </trkpt>
      <trkpt lat="44.02436" lon="3.50713">
        <ele>1206.1</ele>
        <time>2026-05-28T10:34:06.000Z</time>
      </trkpt>
      <trkpt lat="44.02437" lon="3.50713">
        <ele>1205.8</ele>
        <time>2026-05-28T10:34:07.000Z</time>
      </trkpt>
      <trkpt lat="44.02437" lon="3.50713">
        <ele>1205.8</ele>
        <time>2026-05-28T10:34:08.000Z</time>
      </trkpt>
      <trkpt lat="44.02437" lon="3.50712">
        <ele>1205.8</ele>
        <time>2026-05-28T10:34:09.000Z</time>
      </trkpt>
      <trkpt lat="44.02437" lon="3.50712">
        <ele>1205.7</ele>
        <time>2026-05-28T10:34:10.000Z</time>
      </trkpt>
      <trkpt lat="44.02438" lon="3.50712">
        <ele>1205.4</ele>
        <time>2026-05-28T10:34:11.000Z</time>
      </trkpt>
      <trkpt lat="44.02438" lon="3.50712">
        <ele>1205.1</ele>
        <time>2026-05-28T10:34:12.000Z</time>
      </trkpt>
      <trkpt lat="44.02439" lon="3.50712">
        <ele>1204.8</ele>
        <time>2026-05-28T10:34:13.000Z</time>
      </trkpt>
      <trkpt lat="44.02439" lon="3.50712">
        <ele>1204.7</ele>
        <time>2026-05-28T10:34:14.000Z</time>
      </trkpt>
      <trkpt lat="44.02439" lon="3.50712">
        <ele>1204.5</ele>
        <time>2026-05-28T10:34:15.000Z</time>
      </trkpt>
      <trkpt lat="44.0244" lon="3.50712">
        <ele>1204.5</ele>
        <time>2026-05-28T10:34:16.000Z</time>
      </trkpt>
      <trkpt lat="44.0244" lon="3.50712">
        <ele>1204.5</ele>
        <time>2026-05-28T10:34:17.000Z</time>
      </trkpt>
      <trkpt lat="44.0244" lon="3.50712">
        <ele>1204.5</ele>
        <time>2026-05-28T10:34:18.000Z</time>
      </trkpt>
      <trkpt lat="44.02442" lon="3.50711">
        <ele>1204.5</ele>
        <time>2026-05-28T10:34:19.000Z</time>
      </trkpt>
      <trkpt lat="44.02444" lon="3.50711">
        <ele>1204.5</ele>
        <time>2026-05-28T10:34:20.000Z</time>
      </trkpt>
      <trkpt lat="44.02445" lon="3.5071">
        <ele>1204.3</ele>
        <time>2026-05-28T10:34:21.000Z</time>
      </trkpt>
      <trkpt lat="44.02445" lon="3.5071">
        <ele>1204.2</ele>
        <time>2026-05-28T10:34:22.000Z</time>
      </trkpt>
      <trkpt lat="44.02446" lon="3.50709">
        <ele>1204</ele>
        <time>2026-05-28T10:34:23.000Z</time>
      </trkpt>
      <trkpt lat="44.02447" lon="3.50709">
        <ele>1204.2</ele>
        <time>2026-05-28T10:34:24.000Z</time>
      </trkpt>
      <trkpt lat="44.02448" lon="3.50709">
        <ele>1204.2</ele>
        <time>2026-05-28T10:34:25.000Z</time>
      </trkpt>
      <trkpt lat="44.0245" lon="3.50708">
        <ele>1204.3</ele>
        <time>2026-05-28T10:34:26.000Z</time>
      </trkpt>
      <trkpt lat="44.02452" lon="3.50708">
        <ele>1204.4</ele>
        <time>2026-05-28T10:34:27.000Z</time>
      </trkpt>
      <trkpt lat="44.02454" lon="3.50708">
        <ele>1204.7</ele>
        <time>2026-05-28T10:34:28.000Z</time>
      </trkpt>
      <trkpt lat="44.02457" lon="3.50707">
        <ele>1204.8</ele>
        <time>2026-05-28T10:34:29.000Z</time>
      </trkpt>
      <trkpt lat="44.02458" lon="3.50707">
        <ele>1205</ele>
        <time>2026-05-28T10:34:30.000Z</time>
      </trkpt>
      <trkpt lat="44.02459" lon="3.50707">
        <ele>1205.1</ele>
        <time>2026-05-28T10:34:31.000Z</time>
      </trkpt>
      <trkpt lat="44.02462" lon="3.50706">
        <ele>1205.1</ele>
        <time>2026-05-28T10:34:32.000Z</time>
      </trkpt>
      <trkpt lat="44.02464" lon="3.50706">
        <ele>1205.2</ele>
        <time>2026-05-28T10:34:33.000Z</time>
      </trkpt>
      <trkpt lat="44.02466" lon="3.50705">
        <ele>1205.2</ele>
        <time>2026-05-28T10:34:34.000Z</time>
      </trkpt>
      <trkpt lat="44.02467" lon="3.50705">
        <ele>1205.4</ele>
        <time>2026-05-28T10:34:35.000Z</time>
      </trkpt>
      <trkpt lat="44.02468" lon="3.50705">
        <ele>1205.6</ele>
        <time>2026-05-28T10:34:36.000Z</time>
      </trkpt>
      <trkpt lat="44.02468" lon="3.50705">
        <ele>1205.6</ele>
        <time>2026-05-28T10:34:37.000Z</time>
      </trkpt>
      <trkpt lat="44.02468" lon="3.50704">
        <ele>1205.7</ele>
        <time>2026-05-28T10:34:38.000Z</time>
      </trkpt>
      <trkpt lat="44.02468" lon="3.50704">
        <ele>1205.9</ele>
        <time>2026-05-28T10:34:39.000Z</time>
      </trkpt>
      <trkpt lat="44.0247" lon="3.50704">
        <ele>1205.9</ele>
        <time>2026-05-28T10:34:40.000Z</time>
      </trkpt>
      <trkpt lat="44.02471" lon="3.50704">
        <ele>1205.9</ele>
        <time>2026-05-28T10:34:41.000Z</time>
      </trkpt>
      <trkpt lat="44.02473" lon="3.50704">
        <ele>1205.6</ele>
        <time>2026-05-28T10:34:42.000Z</time>
      </trkpt>
      <trkpt lat="44.02474" lon="3.50704">
        <ele>1205.5</ele>
        <time>2026-05-28T10:34:43.000Z</time>
      </trkpt>
      <trkpt lat="44.02476" lon="3.50705">
        <ele>1205.5</ele>
        <time>2026-05-28T10:34:44.000Z</time>
      </trkpt>
      <trkpt lat="44.02478" lon="3.50705">
        <ele>1205.5</ele>
        <time>2026-05-28T10:34:45.000Z</time>
      </trkpt>
      <trkpt lat="44.02479" lon="3.50706">
        <ele>1205.5</ele>
        <time>2026-05-28T10:34:46.000Z</time>
      </trkpt>
      <trkpt lat="44.0248" lon="3.50707">
        <ele>1205.7</ele>
        <time>2026-05-28T10:34:47.000Z</time>
      </trkpt>
      <trkpt lat="44.02482" lon="3.50706">
        <ele>1205.6</ele>
        <time>2026-05-28T10:34:48.000Z</time>
      </trkpt>
      <trkpt lat="44.02483" lon="3.50705">
        <ele>1205.5</ele>
        <time>2026-05-28T10:34:49.000Z</time>
      </trkpt>
      <trkpt lat="44.02484" lon="3.50704">
        <ele>1205.5</ele>
        <time>2026-05-28T10:34:50.000Z</time>
      </trkpt>
      <trkpt lat="44.02485" lon="3.50703">
        <ele>1205.6</ele>
        <time>2026-05-28T10:34:51.000Z</time>
      </trkpt>
      <trkpt lat="44.02486" lon="3.50703">
        <ele>1205.1</ele>
        <time>2026-05-28T10:34:52.000Z</time>
      </trkpt>
      <trkpt lat="44.02487" lon="3.50703">
        <ele>1204.8</ele>
        <time>2026-05-28T10:34:53.000Z</time>
      </trkpt>
      <trkpt lat="44.02488" lon="3.50702">
        <ele>1204.4</ele>
        <time>2026-05-28T10:34:54.000Z</time>
      </trkpt>
      <trkpt lat="44.02488" lon="3.50702">
        <ele>1203.7</ele>
        <time>2026-05-28T10:34:55.000Z</time>
      </trkpt>
      <trkpt lat="44.02489" lon="3.50701">
        <ele>1203.4</ele>
        <time>2026-05-28T10:34:56.000Z</time>
      </trkpt>
      <trkpt lat="44.02491" lon="3.50701">
        <ele>1203.6</ele>
        <time>2026-05-28T10:34:57.000Z</time>
      </trkpt>
      <trkpt lat="44.02492" lon="3.50701">
        <ele>1203.8</ele>
        <time>2026-05-28T10:34:58.000Z</time>
      </trkpt>
      <trkpt lat="44.02493" lon="3.50702">
        <ele>1204.2</ele>
        <time>2026-05-28T10:34:59.000Z</time>
      </trkpt>
      <trkpt lat="44.02494" lon="3.50702">
        <ele>1204.1</ele>
        <time>2026-05-28T10:35:00.000Z</time>
      </trkpt>
      <trkpt lat="44.02494" lon="3.50702">
        <ele>1203.9</ele>
        <time>2026-05-28T10:35:01.000Z</time>
      </trkpt>
      <trkpt lat="44.02494" lon="3.50702">
        <ele>1203.4</ele>
        <time>2026-05-28T10:35:02.000Z</time>
      </trkpt>
      <trkpt lat="44.02494" lon="3.50702">
        <ele>1202.9</ele>
        <time>2026-05-28T10:35:03.000Z</time>
      </trkpt>
      <trkpt lat="44.02495" lon="3.50703">
        <ele>1202.7</ele>
        <time>2026-05-28T10:35:04.000Z</time>
      </trkpt>
      <trkpt lat="44.02496" lon="3.50702">
        <ele>1202.6</ele>
        <time>2026-05-28T10:35:05.000Z</time>
      </trkpt>
      <trkpt lat="44.02497" lon="3.50701">
        <ele>1202.6</ele>
        <time>2026-05-28T10:35:06.000Z</time>
      </trkpt>
      <trkpt lat="44.02497" lon="3.507">
        <ele>1203.1</ele>
        <time>2026-05-28T10:35:07.000Z</time>
      </trkpt>
      <trkpt lat="44.02497" lon="3.507">
        <ele>1203.3</ele>
        <time>2026-05-28T10:35:08.000Z</time>
      </trkpt>
      <trkpt lat="44.02498" lon="3.50701">
        <ele>1203.6</ele>
        <time>2026-05-28T10:35:09.000Z</time>
      </trkpt>
      <trkpt lat="44.025" lon="3.50702">
        <ele>1204</ele>
        <time>2026-05-28T10:35:10.000Z</time>
      </trkpt>
      <trkpt lat="44.02501" lon="3.50702">
        <ele>1204.5</ele>
        <time>2026-05-28T10:35:11.000Z</time>
      </trkpt>
      <trkpt lat="44.02502" lon="3.50702">
        <ele>1204.6</ele>
        <time>2026-05-28T10:35:12.000Z</time>
      </trkpt>
      <trkpt lat="44.02503" lon="3.50701">
        <ele>1204.7</ele>
        <time>2026-05-28T10:35:13.000Z</time>
      </trkpt>
      <trkpt lat="44.02504" lon="3.50702">
        <ele>1204.8</ele>
        <time>2026-05-28T10:35:14.000Z</time>
      </trkpt>
      <trkpt lat="44.02505" lon="3.50702">
        <ele>1204.8</ele>
        <time>2026-05-28T10:35:15.000Z</time>
      </trkpt>
      <trkpt lat="44.02506" lon="3.50702">
        <ele>1204.5</ele>
        <time>2026-05-28T10:35:16.000Z</time>
      </trkpt>
      <trkpt lat="44.02507" lon="3.50701">
        <ele>1204.6</ele>
        <time>2026-05-28T10:35:17.000Z</time>
      </trkpt>
      <trkpt lat="44.02508" lon="3.50702">
        <ele>1204.3</ele>
        <time>2026-05-28T10:35:18.000Z</time>
      </trkpt>
      <trkpt lat="44.02509" lon="3.50702">
        <ele>1204.5</ele>
        <time>2026-05-28T10:35:19.000Z</time>
      </trkpt>
      <trkpt lat="44.02509" lon="3.50702">
        <ele>1204.6</ele>
        <time>2026-05-28T10:35:20.000Z</time>
      </trkpt>
      <trkpt lat="44.02509" lon="3.50702">
        <ele>1204.7</ele>
        <time>2026-05-28T10:35:21.000Z</time>
      </trkpt>
      <trkpt lat="44.02509" lon="3.50702">
        <ele>1204.5</ele>
        <time>2026-05-28T10:35:22.000Z</time>
      </trkpt>
      <trkpt lat="44.0251" lon="3.50702">
        <ele>1204.2</ele>
        <time>2026-05-28T10:35:23.000Z</time>
      </trkpt>
      <trkpt lat="44.02511" lon="3.50703">
        <ele>1204.3</ele>
        <time>2026-05-28T10:35:24.000Z</time>
      </trkpt>
      <trkpt lat="44.02511" lon="3.50704">
        <ele>1204.4</ele>
        <time>2026-05-28T10:35:25.000Z</time>
      </trkpt>
      <trkpt lat="44.02512" lon="3.50704">
        <ele>1204.3</ele>
        <time>2026-05-28T10:35:26.000Z</time>
      </trkpt>
      <trkpt lat="44.02514" lon="3.50705">
        <ele>1204.2</ele>
        <time>2026-05-28T10:35:27.000Z</time>
      </trkpt>
      <trkpt lat="44.02515" lon="3.50705">
        <ele>1204.5</ele>
        <time>2026-05-28T10:35:28.000Z</time>
      </trkpt>
      <trkpt lat="44.02516" lon="3.50704">
        <ele>1204.7</ele>
        <time>2026-05-28T10:35:29.000Z</time>
      </trkpt>
      <trkpt lat="44.02516" lon="3.50705">
        <ele>1205.1</ele>
        <time>2026-05-28T10:35:30.000Z</time>
      </trkpt>
      <trkpt lat="44.02517" lon="3.50704">
        <ele>1205.5</ele>
        <time>2026-05-28T10:35:31.000Z</time>
      </trkpt>
      <trkpt lat="44.02518" lon="3.50704">
        <ele>1205.5</ele>
        <time>2026-05-28T10:35:32.000Z</time>
      </trkpt>
      <trkpt lat="44.02518" lon="3.50704">
        <ele>1205.6</ele>
        <time>2026-05-28T10:35:33.000Z</time>
      </trkpt>
      <trkpt lat="44.02519" lon="3.50704">
        <ele>1205.8</ele>
        <time>2026-05-28T10:35:34.000Z</time>
      </trkpt>
      <trkpt lat="44.0252" lon="3.50704">
        <ele>1205.9</ele>
        <time>2026-05-28T10:35:35.000Z</time>
      </trkpt>
      <trkpt lat="44.02521" lon="3.50703">
        <ele>1205.6</ele>
        <time>2026-05-28T10:35:36.000Z</time>
      </trkpt>
      <trkpt lat="44.02522" lon="3.50702">
        <ele>1205.2</ele>
        <time>2026-05-28T10:35:37.000Z</time>
      </trkpt>
      <trkpt lat="44.02524" lon="3.50702">
        <ele>1204.7</ele>
        <time>2026-05-28T10:35:38.000Z</time>
      </trkpt>
      <trkpt lat="44.02525" lon="3.50703">
        <ele>1204.6</ele>
        <time>2026-05-28T10:35:39.000Z</time>
      </trkpt>
      <trkpt lat="44.02527" lon="3.50702">
        <ele>1204.6</ele>
        <time>2026-05-28T10:35:40.000Z</time>
      </trkpt>
      <trkpt lat="44.02528" lon="3.50701">
        <ele>1204.7</ele>
        <time>2026-05-28T10:35:41.000Z</time>
      </trkpt>
      <trkpt lat="44.02529" lon="3.507">
        <ele>1204.9</ele>
        <time>2026-05-28T10:35:42.000Z</time>
      </trkpt>
      <trkpt lat="44.02529" lon="3.507">
        <ele>1204.6</ele>
        <time>2026-05-28T10:35:43.000Z</time>
      </trkpt>
      <trkpt lat="44.02529" lon="3.50698">
        <ele>1204.7</ele>
        <time>2026-05-28T10:35:44.000Z</time>
      </trkpt>
      <trkpt lat="44.0253" lon="3.50697">
        <ele>1204.8</ele>
        <time>2026-05-28T10:35:45.000Z</time>
      </trkpt>
      <trkpt lat="44.0253" lon="3.50697">
        <ele>1205.1</ele>
        <time>2026-05-28T10:35:46.000Z</time>
      </trkpt>
      <trkpt lat="44.02532" lon="3.50697">
        <ele>1204.9</ele>
        <time>2026-05-28T10:35:47.000Z</time>
      </trkpt>
      <trkpt lat="44.02533" lon="3.50697">
        <ele>1204.8</ele>
        <time>2026-05-28T10:35:48.000Z</time>
      </trkpt>
      <trkpt lat="44.02533" lon="3.50698">
        <ele>1204.6</ele>
        <time>2026-05-28T10:35:49.000Z</time>
      </trkpt>
      <trkpt lat="44.02534" lon="3.50698">
        <ele>1204.8</ele>
        <time>2026-05-28T10:35:50.000Z</time>
      </trkpt>
      <trkpt lat="44.02536" lon="3.50698">
        <ele>1205.2</ele>
        <time>2026-05-28T10:35:51.000Z</time>
      </trkpt>
      <trkpt lat="44.02537" lon="3.507">
        <ele>1205.6</ele>
        <time>2026-05-28T10:35:52.000Z</time>
      </trkpt>
      <trkpt lat="44.02538" lon="3.50701">
        <ele>1205.7</ele>
        <time>2026-05-28T10:35:53.000Z</time>
      </trkpt>
      <trkpt lat="44.02539" lon="3.50702">
        <ele>1205.9</ele>
        <time>2026-05-28T10:35:54.000Z</time>
      </trkpt>
      <trkpt lat="44.0254" lon="3.50703">
        <ele>1205.8</ele>
        <time>2026-05-28T10:35:55.000Z</time>
      </trkpt>
      <trkpt lat="44.02541" lon="3.50704">
        <ele>1205.7</ele>
        <time>2026-05-28T10:35:56.000Z</time>
      </trkpt>
      <trkpt lat="44.02542" lon="3.50704">
        <ele>1205.8</ele>
        <time>2026-05-28T10:35:57.000Z</time>
      </trkpt>
      <trkpt lat="44.02542" lon="3.50704">
        <ele>1205.9</ele>
        <time>2026-05-28T10:35:58.000Z</time>
      </trkpt>
      <trkpt lat="44.02543" lon="3.50705">
        <ele>1206.3</ele>
        <time>2026-05-28T10:35:59.000Z</time>
      </trkpt>
      <trkpt lat="44.02543" lon="3.50705">
        <ele>1207</ele>
        <time>2026-05-28T10:36:00.000Z</time>
      </trkpt>
      <trkpt lat="44.02544" lon="3.50705">
        <ele>1207.4</ele>
        <time>2026-05-28T10:36:01.000Z</time>
      </trkpt>
      <trkpt lat="44.02545" lon="3.50705">
        <ele>1208</ele>
        <time>2026-05-28T10:36:02.000Z</time>
      </trkpt>
      <trkpt lat="44.02545" lon="3.50703">
        <ele>1208</ele>
        <time>2026-05-28T10:36:03.000Z</time>
      </trkpt>
      <trkpt lat="44.02545" lon="3.50702">
        <ele>1207.6</ele>
        <time>2026-05-28T10:36:04.000Z</time>
      </trkpt>
      <trkpt lat="44.02546" lon="3.50702">
        <ele>1207.2</ele>
        <time>2026-05-28T10:36:05.000Z</time>
      </trkpt>
      <trkpt lat="44.02547" lon="3.50703">
        <ele>1207.4</ele>
        <time>2026-05-28T10:36:06.000Z</time>
      </trkpt>
      <trkpt lat="44.02548" lon="3.50703">
        <ele>1207.9</ele>
        <time>2026-05-28T10:36:07.000Z</time>
      </trkpt>
      <trkpt lat="44.02548" lon="3.50703">
        <ele>1208.4</ele>
        <time>2026-05-28T10:36:08.000Z</time>
      </trkpt>
      <trkpt lat="44.02548" lon="3.50703">
        <ele>1208.5</ele>
        <time>2026-05-28T10:36:09.000Z</time>
      </trkpt>
      <trkpt lat="44.02548" lon="3.50703">
        <ele>1208.2</ele>
        <time>2026-05-28T10:36:10.000Z</time>
      </trkpt>
      <trkpt lat="44.02549" lon="3.50703">
        <ele>1206.9</ele>
        <time>2026-05-28T10:36:11.000Z</time>
      </trkpt>
      <trkpt lat="44.0255" lon="3.50703">
        <ele>1206.6</ele>
        <time>2026-05-28T10:36:12.000Z</time>
      </trkpt>
      <trkpt lat="44.02551" lon="3.50702">
        <ele>1205.8</ele>
        <time>2026-05-28T10:36:13.000Z</time>
      </trkpt>
      <trkpt lat="44.02553" lon="3.50702">
        <ele>1205.7</ele>
        <time>2026-05-28T10:36:14.000Z</time>
      </trkpt>
      <trkpt lat="44.02555" lon="3.50703">
        <ele>1205.3</ele>
        <time>2026-05-28T10:36:15.000Z</time>
      </trkpt>
      <trkpt lat="44.02556" lon="3.50703">
        <ele>1205.4</ele>
        <time>2026-05-28T10:36:16.000Z</time>
      </trkpt>
      <trkpt lat="44.02556" lon="3.50703">
        <ele>1205.5</ele>
        <time>2026-05-28T10:36:17.000Z</time>
      </trkpt>
      <trkpt lat="44.02556" lon="3.50704">
        <ele>1205.5</ele>
        <time>2026-05-28T10:36:18.000Z</time>
      </trkpt>
      <trkpt lat="44.02556" lon="3.50704">
        <ele>1205.7</ele>
        <time>2026-05-28T10:36:19.000Z</time>
      </trkpt>
      <trkpt lat="44.02556" lon="3.50704">
        <ele>1205.8</ele>
        <time>2026-05-28T10:36:20.000Z</time>
      </trkpt>
      <trkpt lat="44.02556" lon="3.50704">
        <ele>1206.1</ele>
        <time>2026-05-28T10:36:21.000Z</time>
      </trkpt>
      <trkpt lat="44.02556" lon="3.50704">
        <ele>1206.1</ele>
        <time>2026-05-28T10:36:22.000Z</time>
      </trkpt>
      <trkpt lat="44.02556" lon="3.50704">
        <ele>1206</ele>
        <time>2026-05-28T10:36:23.000Z</time>
      </trkpt>
      <trkpt lat="44.02556" lon="3.50704">
        <ele>1205.9</ele>
        <time>2026-05-28T10:36:24.000Z</time>
      </trkpt>
      <trkpt lat="44.02556" lon="3.50704">
        <ele>1206.1</ele>
        <time>2026-05-28T10:36:25.000Z</time>
      </trkpt>
      <trkpt lat="44.02556" lon="3.50705">
        <ele>1206.4</ele>
        <time>2026-05-28T10:36:26.000Z</time>
      </trkpt>
      <trkpt lat="44.02556" lon="3.50705">
        <ele>1206.4</ele>
        <time>2026-05-28T10:36:27.000Z</time>
      </trkpt>
      <trkpt lat="44.02556" lon="3.50705">
        <ele>1206.2</ele>
        <time>2026-05-28T10:36:28.000Z</time>
      </trkpt>
      <trkpt lat="44.02556" lon="3.50705">
        <ele>1206.7</ele>
        <time>2026-05-28T10:36:29.000Z</time>
      </trkpt>
      <trkpt lat="44.02556" lon="3.50705">
        <ele>1207.2</ele>
        <time>2026-05-28T10:36:30.000Z</time>
      </trkpt>
      <trkpt lat="44.02556" lon="3.50705">
        <ele>1207.5</ele>
        <time>2026-05-28T10:36:31.000Z</time>
      </trkpt>
      <trkpt lat="44.02556" lon="3.50705">
        <ele>1207.9</ele>
        <time>2026-05-28T10:36:32.000Z</time>
      </trkpt>
      <trkpt lat="44.02556" lon="3.50705">
        <ele>1208.2</ele>
        <time>2026-05-28T10:36:33.000Z</time>
      </trkpt>
      <trkpt lat="44.02556" lon="3.50705">
        <ele>1208.5</ele>
        <time>2026-05-28T10:36:34.000Z</time>
      </trkpt>
      <trkpt lat="44.02556" lon="3.50705">
        <ele>1209</ele>
        <time>2026-05-28T10:36:35.000Z</time>
      </trkpt>
      <trkpt lat="44.02556" lon="3.50705">
        <ele>1209.3</ele>
        <time>2026-05-28T10:36:36.000Z</time>
      </trkpt>
      <trkpt lat="44.02556" lon="3.50705">
        <ele>1209.5</ele>
        <time>2026-05-28T10:36:37.000Z</time>
      </trkpt>
      <trkpt lat="44.02556" lon="3.50705">
        <ele>1209.7</ele>
        <time>2026-05-28T10:36:38.000Z</time>
      </trkpt>
      <trkpt lat="44.02556" lon="3.50705">
        <ele>1209.9</ele>
        <time>2026-05-28T10:36:39.000Z</time>
      </trkpt>
      <trkpt lat="44.02556" lon="3.50705">
        <ele>1210.4</ele>
        <time>2026-05-28T10:36:40.000Z</time>
      </trkpt>
      <trkpt lat="44.02556" lon="3.50705">
        <ele>1210.3</ele>
        <time>2026-05-28T10:36:41.000Z</time>
      </trkpt>
      <trkpt lat="44.02556" lon="3.50705">
        <ele>1210.1</ele>
        <time>2026-05-28T10:36:42.000Z</time>
      </trkpt>
      <trkpt lat="44.02556" lon="3.50706">
        <ele>1210</ele>
        <time>2026-05-28T10:36:43.000Z</time>
      </trkpt>
      <trkpt lat="44.02556" lon="3.50706">
        <ele>1209.8</ele>
        <time>2026-05-28T10:36:44.000Z</time>
      </trkpt>
      <trkpt lat="44.02556" lon="3.50706">
        <ele>1209.6</ele>
        <time>2026-05-28T10:36:45.000Z</time>
      </trkpt>
      <trkpt lat="44.02556" lon="3.50706">
        <ele>1209.3</ele>
        <time>2026-05-28T10:36:46.000Z</time>
      </trkpt>
      <trkpt lat="44.02556" lon="3.50706">
        <ele>1209.3</ele>
        <time>2026-05-28T10:36:47.000Z</time>
      </trkpt>
      <trkpt lat="44.02556" lon="3.50706">
        <ele>1208.8</ele>
        <time>2026-05-28T10:36:48.000Z</time>
      </trkpt>
      <trkpt lat="44.02556" lon="3.50706">
        <ele>1208.6</ele>
        <time>2026-05-28T10:36:49.000Z</time>
      </trkpt>
      <trkpt lat="44.02557" lon="3.50706">
        <ele>1208.5</ele>
        <time>2026-05-28T10:36:50.000Z</time>
      </trkpt>
      <trkpt lat="44.02557" lon="3.50706">
        <ele>1208.2</ele>
        <time>2026-05-28T10:36:51.000Z</time>
      </trkpt>
      <trkpt lat="44.02557" lon="3.50706">
        <ele>1207.9</ele>
        <time>2026-05-28T10:36:52.000Z</time>
      </trkpt>
      <trkpt lat="44.02557" lon="3.50706">
        <ele>1207.7</ele>
        <time>2026-05-28T10:36:53.000Z</time>
      </trkpt>
      <trkpt lat="44.02557" lon="3.50706">
        <ele>1207.9</ele>
        <time>2026-05-28T10:36:54.000Z</time>
      </trkpt>
      <trkpt lat="44.02557" lon="3.50706">
        <ele>1207.9</ele>
        <time>2026-05-28T10:36:55.000Z</time>
      </trkpt>
      <trkpt lat="44.02557" lon="3.50707">
        <ele>1208</ele>
        <time>2026-05-28T10:36:56.000Z</time>
      </trkpt>
      <trkpt lat="44.02557" lon="3.50707">
        <ele>1208</ele>
        <time>2026-05-28T10:36:57.000Z</time>
      </trkpt>
      <trkpt lat="44.02557" lon="3.50707">
        <ele>1207.9</ele>
        <time>2026-05-28T10:36:58.000Z</time>
      </trkpt>
      <trkpt lat="44.02557" lon="3.50707">
        <ele>1208</ele>
        <time>2026-05-28T10:36:59.000Z</time>
      </trkpt>
      <trkpt lat="44.02557" lon="3.50707">
        <ele>1207.5</ele>
        <time>2026-05-28T10:37:00.000Z</time>
      </trkpt>
      <trkpt lat="44.02557" lon="3.50707">
        <ele>1207.6</ele>
        <time>2026-05-28T10:37:01.000Z</time>
      </trkpt>
      <trkpt lat="44.02558" lon="3.50708">
        <ele>1207.7</ele>
        <time>2026-05-28T10:37:02.000Z</time>
      </trkpt>
      <trkpt lat="44.02558" lon="3.50709">
        <ele>1207.7</ele>
        <time>2026-05-28T10:37:03.000Z</time>
      </trkpt>
      <trkpt lat="44.02559" lon="3.5071">
        <ele>1207.9</ele>
        <time>2026-05-28T10:37:04.000Z</time>
      </trkpt>
      <trkpt lat="44.0256" lon="3.50711">
        <ele>1207.9</ele>
        <time>2026-05-28T10:37:05.000Z</time>
      </trkpt>
      <trkpt lat="44.02561" lon="3.5071">
        <ele>1208</ele>
        <time>2026-05-28T10:37:06.000Z</time>
      </trkpt>
      <trkpt lat="44.02562" lon="3.50709">
        <ele>1208.1</ele>
        <time>2026-05-28T10:37:07.000Z</time>
      </trkpt>
      <trkpt lat="44.02562" lon="3.50709">
        <ele>1207.9</ele>
        <time>2026-05-28T10:37:08.000Z</time>
      </trkpt>
      <trkpt lat="44.02562" lon="3.50709">
        <ele>1208.2</ele>
        <time>2026-05-28T10:37:09.000Z</time>
      </trkpt>
      <trkpt lat="44.02563" lon="3.50708">
        <ele>1208</ele>
        <time>2026-05-28T10:37:10.000Z</time>
      </trkpt>
      <trkpt lat="44.02564" lon="3.50707">
        <ele>1208.4</ele>
        <time>2026-05-28T10:37:11.000Z</time>
      </trkpt>
      <trkpt lat="44.02564" lon="3.50708">
        <ele>1208.2</ele>
        <time>2026-05-28T10:37:12.000Z</time>
      </trkpt>
      <trkpt lat="44.02565" lon="3.50708">
        <ele>1208.4</ele>
        <time>2026-05-28T10:37:13.000Z</time>
      </trkpt>
      <trkpt lat="44.02565" lon="3.50708">
        <ele>1208.7</ele>
        <time>2026-05-28T10:37:14.000Z</time>
      </trkpt>
      <trkpt lat="44.02566" lon="3.50708">
        <ele>1209</ele>
        <time>2026-05-28T10:37:15.000Z</time>
      </trkpt>
      <trkpt lat="44.02568" lon="3.50709">
        <ele>1209.1</ele>
        <time>2026-05-28T10:37:16.000Z</time>
      </trkpt>
      <trkpt lat="44.02569" lon="3.50709">
        <ele>1209.4</ele>
        <time>2026-05-28T10:37:17.000Z</time>
      </trkpt>
      <trkpt lat="44.02571" lon="3.5071">
        <ele>1209.6</ele>
        <time>2026-05-28T10:37:18.000Z</time>
      </trkpt>
      <trkpt lat="44.02572" lon="3.5071">
        <ele>1210.1</ele>
        <time>2026-05-28T10:37:19.000Z</time>
      </trkpt>
      <trkpt lat="44.02572" lon="3.50711">
        <ele>1210.2</ele>
        <time>2026-05-28T10:37:20.000Z</time>
      </trkpt>
      <trkpt lat="44.02573" lon="3.50712">
        <ele>1210.2</ele>
        <time>2026-05-28T10:37:21.000Z</time>
      </trkpt>
      <trkpt lat="44.02573" lon="3.50712">
        <ele>1210.5</ele>
        <time>2026-05-28T10:37:22.000Z</time>
      </trkpt>
      <trkpt lat="44.02574" lon="3.50712">
        <ele>1210.4</ele>
        <time>2026-05-28T10:37:23.000Z</time>
      </trkpt>
      <trkpt lat="44.02575" lon="3.50713">
        <ele>1210.5</ele>
        <time>2026-05-28T10:37:24.000Z</time>
      </trkpt>
      <trkpt lat="44.02576" lon="3.50713">
        <ele>1211.1</ele>
        <time>2026-05-28T10:37:25.000Z</time>
      </trkpt>
      <trkpt lat="44.02577" lon="3.50714">
        <ele>1211.5</ele>
        <time>2026-05-28T10:37:26.000Z</time>
      </trkpt>
      <trkpt lat="44.02578" lon="3.50714">
        <ele>1212.1</ele>
        <time>2026-05-28T10:37:27.000Z</time>
      </trkpt>
      <trkpt lat="44.02578" lon="3.50715">
        <ele>1212.3</ele>
        <time>2026-05-28T10:37:28.000Z</time>
      </trkpt>
      <trkpt lat="44.02578" lon="3.50715">
        <ele>1212.8</ele>
        <time>2026-05-28T10:37:29.000Z</time>
      </trkpt>
      <trkpt lat="44.02578" lon="3.50715">
        <ele>1212.6</ele>
        <time>2026-05-28T10:37:30.000Z</time>
      </trkpt>
      <trkpt lat="44.02578" lon="3.50715">
        <ele>1212.5</ele>
        <time>2026-05-28T10:37:31.000Z</time>
      </trkpt>
      <trkpt lat="44.02579" lon="3.50715">
        <ele>1212.9</ele>
        <time>2026-05-28T10:37:32.000Z</time>
      </trkpt>
      <trkpt lat="44.02579" lon="3.50716">
        <ele>1213.1</ele>
        <time>2026-05-28T10:37:33.000Z</time>
      </trkpt>
      <trkpt lat="44.0258" lon="3.50716">
        <ele>1213.3</ele>
        <time>2026-05-28T10:37:34.000Z</time>
      </trkpt>
      <trkpt lat="44.02581" lon="3.50716">
        <ele>1213.5</ele>
        <time>2026-05-28T10:37:35.000Z</time>
      </trkpt>
      <trkpt lat="44.02581" lon="3.50716">
        <ele>1213.3</ele>
        <time>2026-05-28T10:37:36.000Z</time>
      </trkpt>
      <trkpt lat="44.02582" lon="3.50716">
        <ele>1213.4</ele>
        <time>2026-05-28T10:37:37.000Z</time>
      </trkpt>
      <trkpt lat="44.02583" lon="3.50716">
        <ele>1213.3</ele>
        <time>2026-05-28T10:37:38.000Z</time>
      </trkpt>
      <trkpt lat="44.02584" lon="3.50718">
        <ele>1213.2</ele>
        <time>2026-05-28T10:37:39.000Z</time>
      </trkpt>
      <trkpt lat="44.02585" lon="3.50719">
        <ele>1213.3</ele>
        <time>2026-05-28T10:37:40.000Z</time>
      </trkpt>
      <trkpt lat="44.02586" lon="3.5072">
        <ele>1213.5</ele>
        <time>2026-05-28T10:37:41.000Z</time>
      </trkpt>
      <trkpt lat="44.02587" lon="3.5072">
        <ele>1213.3</ele>
        <time>2026-05-28T10:37:42.000Z</time>
      </trkpt>
      <trkpt lat="44.02588" lon="3.50721">
        <ele>1213.7</ele>
        <time>2026-05-28T10:37:43.000Z</time>
      </trkpt>
      <trkpt lat="44.02589" lon="3.50722">
        <ele>1214</ele>
        <time>2026-05-28T10:37:44.000Z</time>
      </trkpt>
      <trkpt lat="44.02589" lon="3.50724">
        <ele>1213.8</ele>
        <time>2026-05-28T10:37:45.000Z</time>
      </trkpt>
      <trkpt lat="44.02588" lon="3.50725">
        <ele>1213.5</ele>
        <time>2026-05-28T10:37:46.000Z</time>
      </trkpt>
      <trkpt lat="44.02589" lon="3.50726">
        <ele>1213</ele>
        <time>2026-05-28T10:37:47.000Z</time>
      </trkpt>
      <trkpt lat="44.0259" lon="3.50725">
        <ele>1213.4</ele>
        <time>2026-05-28T10:37:48.000Z</time>
      </trkpt>
      <trkpt lat="44.0259" lon="3.50725">
        <ele>1213.9</ele>
        <time>2026-05-28T10:37:49.000Z</time>
      </trkpt>
      <trkpt lat="44.0259" lon="3.50725">
        <ele>1214.1</ele>
        <time>2026-05-28T10:37:50.000Z</time>
      </trkpt>
      <trkpt lat="44.0259" lon="3.50725">
        <ele>1214</ele>
        <time>2026-05-28T10:37:51.000Z</time>
      </trkpt>
      <trkpt lat="44.0259" lon="3.50726">
        <ele>1213.8</ele>
        <time>2026-05-28T10:37:52.000Z</time>
      </trkpt>
      <trkpt lat="44.02591" lon="3.50727">
        <ele>1213.5</ele>
        <time>2026-05-28T10:37:53.000Z</time>
      </trkpt>
      <trkpt lat="44.02592" lon="3.50727">
        <ele>1213.6</ele>
        <time>2026-05-28T10:37:54.000Z</time>
      </trkpt>
      <trkpt lat="44.02593" lon="3.50727">
        <ele>1213.1</ele>
        <time>2026-05-28T10:37:55.000Z</time>
      </trkpt>
      <trkpt lat="44.02594" lon="3.50728">
        <ele>1213.3</ele>
        <time>2026-05-28T10:37:56.000Z</time>
      </trkpt>
      <trkpt lat="44.02595" lon="3.50728">
        <ele>1213.5</ele>
        <time>2026-05-28T10:37:57.000Z</time>
      </trkpt>
      <trkpt lat="44.02597" lon="3.5073">
        <ele>1213.2</ele>
        <time>2026-05-28T10:37:58.000Z</time>
      </trkpt>
      <trkpt lat="44.02598" lon="3.50731">
        <ele>1213.3</ele>
        <time>2026-05-28T10:37:59.000Z</time>
      </trkpt>
      <trkpt lat="44.02599" lon="3.50732">
        <ele>1214.1</ele>
        <time>2026-05-28T10:38:00.000Z</time>
      </trkpt>
      <trkpt lat="44.02601" lon="3.50733">
        <ele>1214</ele>
        <time>2026-05-28T10:38:01.000Z</time>
      </trkpt>
      <trkpt lat="44.02602" lon="3.50733">
        <ele>1214.2</ele>
        <time>2026-05-28T10:38:02.000Z</time>
      </trkpt>
      <trkpt lat="44.02603" lon="3.50735">
        <ele>1214.2</ele>
        <time>2026-05-28T10:38:03.000Z</time>
      </trkpt>
      <trkpt lat="44.02603" lon="3.50734">
        <ele>1214.5</ele>
        <time>2026-05-28T10:38:04.000Z</time>
      </trkpt>
      <trkpt lat="44.02603" lon="3.50734">
        <ele>1214.2</ele>
        <time>2026-05-28T10:38:05.000Z</time>
      </trkpt>
      <trkpt lat="44.02603" lon="3.50734">
        <ele>1215.2</ele>
        <time>2026-05-28T10:38:06.000Z</time>
      </trkpt>
      <trkpt lat="44.02603" lon="3.50735">
        <ele>1215.5</ele>
        <time>2026-05-28T10:38:07.000Z</time>
      </trkpt>
      <trkpt lat="44.02603" lon="3.50735">
        <ele>1215.7</ele>
        <time>2026-05-28T10:38:08.000Z</time>
      </trkpt>
      <trkpt lat="44.02603" lon="3.50735">
        <ele>1216</ele>
        <time>2026-05-28T10:38:09.000Z</time>
      </trkpt>
      <trkpt lat="44.02603" lon="3.50735">
        <ele>1216.2</ele>
        <time>2026-05-28T10:38:10.000Z</time>
      </trkpt>
      <trkpt lat="44.02603" lon="3.50735">
        <ele>1216.5</ele>
        <time>2026-05-28T10:38:11.000Z</time>
      </trkpt>
      <trkpt lat="44.02603" lon="3.50735">
        <ele>1216.9</ele>
        <time>2026-05-28T10:38:12.000Z</time>
      </trkpt>
      <trkpt lat="44.02603" lon="3.50735">
        <ele>1217</ele>
        <time>2026-05-28T10:38:13.000Z</time>
      </trkpt>
      <trkpt lat="44.02604" lon="3.50736">
        <ele>1217.1</ele>
        <time>2026-05-28T10:38:14.000Z</time>
      </trkpt>
      <trkpt lat="44.02604" lon="3.50736">
        <ele>1217.3</ele>
        <time>2026-05-28T10:38:15.000Z</time>
      </trkpt>
      <trkpt lat="44.02606" lon="3.50737">
        <ele>1216.9</ele>
        <time>2026-05-28T10:38:16.000Z</time>
      </trkpt>
      <trkpt lat="44.02607" lon="3.50739">
        <ele>1216.4</ele>
        <time>2026-05-28T10:38:17.000Z</time>
      </trkpt>
      <trkpt lat="44.02608" lon="3.50739">
        <ele>1216.2</ele>
        <time>2026-05-28T10:38:18.000Z</time>
      </trkpt>
      <trkpt lat="44.02608" lon="3.5074">
        <ele>1215.8</ele>
        <time>2026-05-28T10:38:19.000Z</time>
      </trkpt>
      <trkpt lat="44.02609" lon="3.50741">
        <ele>1215.4</ele>
        <time>2026-05-28T10:38:20.000Z</time>
      </trkpt>
      <trkpt lat="44.0261" lon="3.50742">
        <ele>1215.4</ele>
        <time>2026-05-28T10:38:21.000Z</time>
      </trkpt>
      <trkpt lat="44.0261" lon="3.50744">
        <ele>1214.9</ele>
        <time>2026-05-28T10:38:22.000Z</time>
      </trkpt>
      <trkpt lat="44.02612" lon="3.50745">
        <ele>1215.2</ele>
        <time>2026-05-28T10:38:23.000Z</time>
      </trkpt>
      <trkpt lat="44.02614" lon="3.50747">
        <ele>1215.3</ele>
        <time>2026-05-28T10:38:24.000Z</time>
      </trkpt>
      <trkpt lat="44.02616" lon="3.50749">
        <ele>1215.6</ele>
        <time>2026-05-28T10:38:25.000Z</time>
      </trkpt>
      <trkpt lat="44.02617" lon="3.50749">
        <ele>1216.3</ele>
        <time>2026-05-28T10:38:26.000Z</time>
      </trkpt>
      <trkpt lat="44.02618" lon="3.50749">
        <ele>1216.7</ele>
        <time>2026-05-28T10:38:27.000Z</time>
      </trkpt>
      <trkpt lat="44.02618" lon="3.5075">
        <ele>1217.5</ele>
        <time>2026-05-28T10:38:28.000Z</time>
      </trkpt>
      <trkpt lat="44.02619" lon="3.5075">
        <ele>1218</ele>
        <time>2026-05-28T10:38:29.000Z</time>
      </trkpt>
      <trkpt lat="44.0262" lon="3.5075">
        <ele>1218.8</ele>
        <time>2026-05-28T10:38:30.000Z</time>
      </trkpt>
      <trkpt lat="44.02621" lon="3.50751">
        <ele>1219.5</ele>
        <time>2026-05-28T10:38:31.000Z</time>
      </trkpt>
      <trkpt lat="44.02622" lon="3.50752">
        <ele>1220</ele>
        <time>2026-05-28T10:38:32.000Z</time>
      </trkpt>
      <trkpt lat="44.02622" lon="3.50754">
        <ele>1220.9</ele>
        <time>2026-05-28T10:38:33.000Z</time>
      </trkpt>
      <trkpt lat="44.02623" lon="3.50754">
        <ele>1221.8</ele>
        <time>2026-05-28T10:38:34.000Z</time>
      </trkpt>
      <trkpt lat="44.02624" lon="3.50755">
        <ele>1222.5</ele>
        <time>2026-05-28T10:38:35.000Z</time>
      </trkpt>
      <trkpt lat="44.02625" lon="3.50755">
        <ele>1223.4</ele>
        <time>2026-05-28T10:38:36.000Z</time>
      </trkpt>
      <trkpt lat="44.02625" lon="3.50754">
        <ele>1223.7</ele>
        <time>2026-05-28T10:38:37.000Z</time>
      </trkpt>
      <trkpt lat="44.02626" lon="3.50752">
        <ele>1223.8</ele>
        <time>2026-05-28T10:38:38.000Z</time>
      </trkpt>
      <trkpt lat="44.02626" lon="3.50751">
        <ele>1223.9</ele>
        <time>2026-05-28T10:38:39.000Z</time>
      </trkpt>
      <trkpt lat="44.02627" lon="3.50751">
        <ele>1224</ele>
        <time>2026-05-28T10:38:40.000Z</time>
      </trkpt>
      <trkpt lat="44.02627" lon="3.5075">
        <ele>1223.9</ele>
        <time>2026-05-28T10:38:41.000Z</time>
      </trkpt>
      <trkpt lat="44.02628" lon="3.50749">
        <ele>1224.3</ele>
        <time>2026-05-28T10:38:42.000Z</time>
      </trkpt>
      <trkpt lat="44.02628" lon="3.5075">
        <ele>1224.6</ele>
        <time>2026-05-28T10:38:43.000Z</time>
      </trkpt>
      <trkpt lat="44.02629" lon="3.50748">
        <ele>1224.6</ele>
        <time>2026-05-28T10:38:44.000Z</time>
      </trkpt>
      <trkpt lat="44.02631" lon="3.50746">
        <ele>1224.8</ele>
        <time>2026-05-28T10:38:45.000Z</time>
      </trkpt>
      <trkpt lat="44.02632" lon="3.50746">
        <ele>1225</ele>
        <time>2026-05-28T10:38:46.000Z</time>
      </trkpt>
      <trkpt lat="44.02633" lon="3.50746">
        <ele>1225.2</ele>
        <time>2026-05-28T10:38:47.000Z</time>
      </trkpt>
      <trkpt lat="44.02634" lon="3.50745">
        <ele>1225.3</ele>
        <time>2026-05-28T10:38:48.000Z</time>
      </trkpt>
      <trkpt lat="44.02635" lon="3.50743">
        <ele>1225.3</ele>
        <time>2026-05-28T10:38:49.000Z</time>
      </trkpt>
      <trkpt lat="44.02636" lon="3.50742">
        <ele>1224.9</ele>
        <time>2026-05-28T10:38:50.000Z</time>
      </trkpt>
      <trkpt lat="44.02637" lon="3.50741">
        <ele>1224.8</ele>
        <time>2026-05-28T10:38:51.000Z</time>
      </trkpt>
      <trkpt lat="44.02637" lon="3.5074">
        <ele>1224.4</ele>
        <time>2026-05-28T10:38:52.000Z</time>
      </trkpt>
      <trkpt lat="44.02637" lon="3.5074">
        <ele>1224.5</ele>
        <time>2026-05-28T10:38:53.000Z</time>
      </trkpt>
      <trkpt lat="44.02637" lon="3.5074">
        <ele>1224.6</ele>
        <time>2026-05-28T10:38:54.000Z</time>
      </trkpt>
      <trkpt lat="44.02637" lon="3.50741">
        <ele>1224.6</ele>
        <time>2026-05-28T10:38:55.000Z</time>
      </trkpt>
      <trkpt lat="44.02637" lon="3.50741">
        <ele>1224.7</ele>
        <time>2026-05-28T10:38:56.000Z</time>
      </trkpt>
      <trkpt lat="44.02637" lon="3.50741">
        <ele>1224.6</ele>
        <time>2026-05-28T10:38:57.000Z</time>
      </trkpt>
      <trkpt lat="44.02638" lon="3.50741">
        <ele>1224.5</ele>
        <time>2026-05-28T10:38:58.000Z</time>
      </trkpt>
      <trkpt lat="44.02638" lon="3.50742">
        <ele>1224.7</ele>
        <time>2026-05-28T10:38:59.000Z</time>
      </trkpt>
      <trkpt lat="44.02638" lon="3.50742">
        <ele>1224.8</ele>
        <time>2026-05-28T10:39:00.000Z</time>
      </trkpt>
      <trkpt lat="44.02638" lon="3.50742">
        <ele>1225.2</ele>
        <time>2026-05-28T10:39:01.000Z</time>
      </trkpt>
      <trkpt lat="44.02639" lon="3.50742">
        <ele>1226.1</ele>
        <time>2026-05-28T10:39:02.000Z</time>
      </trkpt>
      <trkpt lat="44.02639" lon="3.50742">
        <ele>1226.9</ele>
        <time>2026-05-28T10:39:03.000Z</time>
      </trkpt>
      <trkpt lat="44.0264" lon="3.50742">
        <ele>1227.2</ele>
        <time>2026-05-28T10:39:04.000Z</time>
      </trkpt>
      <trkpt lat="44.0264" lon="3.50742">
        <ele>1227.9</ele>
        <time>2026-05-28T10:39:05.000Z</time>
      </trkpt>
      <trkpt lat="44.0264" lon="3.50742">
        <ele>1228.8</ele>
        <time>2026-05-28T10:39:06.000Z</time>
      </trkpt>
      <trkpt lat="44.02641" lon="3.50742">
        <ele>1228.9</ele>
        <time>2026-05-28T10:39:07.000Z</time>
      </trkpt>
      <trkpt lat="44.02641" lon="3.50742">
        <ele>1228.8</ele>
        <time>2026-05-28T10:39:08.000Z</time>
      </trkpt>
      <trkpt lat="44.02643" lon="3.50741">
        <ele>1228.9</ele>
        <time>2026-05-28T10:39:09.000Z</time>
      </trkpt>
      <trkpt lat="44.02644" lon="3.50741">
        <ele>1228.7</ele>
        <time>2026-05-28T10:39:10.000Z</time>
      </trkpt>
      <trkpt lat="44.02646" lon="3.50741">
        <ele>1228.9</ele>
        <time>2026-05-28T10:39:11.000Z</time>
      </trkpt>
      <trkpt lat="44.02647" lon="3.50741">
        <ele>1228.9</ele>
        <time>2026-05-28T10:39:12.000Z</time>
      </trkpt>
      <trkpt lat="44.02649" lon="3.50741">
        <ele>1229.1</ele>
        <time>2026-05-28T10:39:13.000Z</time>
      </trkpt>
      <trkpt lat="44.02651" lon="3.50741">
        <ele>1229.4</ele>
        <time>2026-05-28T10:39:14.000Z</time>
      </trkpt>
      <trkpt lat="44.02653" lon="3.50741">
        <ele>1229.3</ele>
        <time>2026-05-28T10:39:15.000Z</time>
      </trkpt>
      <trkpt lat="44.02655" lon="3.50741">
        <ele>1229.4</ele>
        <time>2026-05-28T10:39:16.000Z</time>
      </trkpt>
      <trkpt lat="44.02656" lon="3.50741">
        <ele>1229.6</ele>
        <time>2026-05-28T10:39:17.000Z</time>
      </trkpt>
      <trkpt lat="44.02657" lon="3.50741">
        <ele>1229.9</ele>
        <time>2026-05-28T10:39:18.000Z</time>
      </trkpt>
      <trkpt lat="44.02658" lon="3.5074">
        <ele>1229.7</ele>
        <time>2026-05-28T10:39:19.000Z</time>
      </trkpt>
      <trkpt lat="44.02658" lon="3.5074">
        <ele>1229.4</ele>
        <time>2026-05-28T10:39:20.000Z</time>
      </trkpt>
      <trkpt lat="44.02659" lon="3.5074">
        <ele>1229.4</ele>
        <time>2026-05-28T10:39:21.000Z</time>
      </trkpt>
      <trkpt lat="44.0266" lon="3.5074">
        <ele>1229.4</ele>
        <time>2026-05-28T10:39:22.000Z</time>
      </trkpt>
      <trkpt lat="44.0266" lon="3.5074">
        <ele>1229.4</ele>
        <time>2026-05-28T10:39:23.000Z</time>
      </trkpt>
      <trkpt lat="44.02661" lon="3.50739">
        <ele>1229.8</ele>
        <time>2026-05-28T10:39:24.000Z</time>
      </trkpt>
      <trkpt lat="44.02662" lon="3.50738">
        <ele>1229.8</ele>
        <time>2026-05-28T10:39:25.000Z</time>
      </trkpt>
      <trkpt lat="44.02664" lon="3.50737">
        <ele>1229.7</ele>
        <time>2026-05-28T10:39:26.000Z</time>
      </trkpt>
      <trkpt lat="44.02665" lon="3.50737">
        <ele>1230.3</ele>
        <time>2026-05-28T10:39:27.000Z</time>
      </trkpt>
      <trkpt lat="44.02667" lon="3.50737">
        <ele>1230.2</ele>
        <time>2026-05-28T10:39:28.000Z</time>
      </trkpt>
      <trkpt lat="44.02668" lon="3.50737">
        <ele>1230.3</ele>
        <time>2026-05-28T10:39:29.000Z</time>
      </trkpt>
      <trkpt lat="44.02669" lon="3.50737">
        <ele>1229.8</ele>
        <time>2026-05-28T10:39:30.000Z</time>
      </trkpt>
      <trkpt lat="44.02671" lon="3.50738">
        <ele>1229.4</ele>
        <time>2026-05-28T10:39:31.000Z</time>
      </trkpt>
      <trkpt lat="44.02672" lon="3.50738">
        <ele>1228.9</ele>
        <time>2026-05-28T10:39:32.000Z</time>
      </trkpt>
      <trkpt lat="44.02672" lon="3.50738">
        <ele>1228.7</ele>
        <time>2026-05-28T10:39:33.000Z</time>
      </trkpt>
      <trkpt lat="44.02673" lon="3.50737">
        <ele>1228.1</ele>
        <time>2026-05-28T10:39:34.000Z</time>
      </trkpt>
      <trkpt lat="44.02675" lon="3.50735">
        <ele>1227.8</ele>
        <time>2026-05-28T10:39:35.000Z</time>
      </trkpt>
      <trkpt lat="44.02675" lon="3.50734">
        <ele>1226.6</ele>
        <time>2026-05-28T10:39:36.000Z</time>
      </trkpt>
      <trkpt lat="44.02676" lon="3.50733">
        <ele>1225.9</ele>
        <time>2026-05-28T10:39:37.000Z</time>
      </trkpt>
      <trkpt lat="44.02677" lon="3.50732">
        <ele>1225.6</ele>
        <time>2026-05-28T10:39:38.000Z</time>
      </trkpt>
      <trkpt lat="44.02677" lon="3.50731">
        <ele>1225.1</ele>
        <time>2026-05-28T10:39:39.000Z</time>
      </trkpt>
      <trkpt lat="44.02678" lon="3.50731">
        <ele>1224.5</ele>
        <time>2026-05-28T10:39:40.000Z</time>
      </trkpt>
      <trkpt lat="44.02678" lon="3.50729">
        <ele>1223.9</ele>
        <time>2026-05-28T10:39:41.000Z</time>
      </trkpt>
      <trkpt lat="44.0268" lon="3.50728">
        <ele>1223.7</ele>
        <time>2026-05-28T10:39:42.000Z</time>
      </trkpt>
      <trkpt lat="44.0268" lon="3.50727">
        <ele>1223.2</ele>
        <time>2026-05-28T10:39:43.000Z</time>
      </trkpt>
      <trkpt lat="44.0268" lon="3.50726">
        <ele>1222.8</ele>
        <time>2026-05-28T10:39:44.000Z</time>
      </trkpt>
      <trkpt lat="44.02681" lon="3.50725">
        <ele>1222.9</ele>
        <time>2026-05-28T10:39:45.000Z</time>
      </trkpt>
      <trkpt lat="44.02682" lon="3.50724">
        <ele>1223</ele>
        <time>2026-05-28T10:39:46.000Z</time>
      </trkpt>
      <trkpt lat="44.02683" lon="3.50724">
        <ele>1222.9</ele>
        <time>2026-05-28T10:39:47.000Z</time>
      </trkpt>
      <trkpt lat="44.02683" lon="3.50723">
        <ele>1223.5</ele>
        <time>2026-05-28T10:39:48.000Z</time>
      </trkpt>
      <trkpt lat="44.02684" lon="3.50723">
        <ele>1223.4</ele>
        <time>2026-05-28T10:39:49.000Z</time>
      </trkpt>
      <trkpt lat="44.02685" lon="3.50722">
        <ele>1223.3</ele>
        <time>2026-05-28T10:39:50.000Z</time>
      </trkpt>
      <trkpt lat="44.02685" lon="3.50721">
        <ele>1224.1</ele>
        <time>2026-05-28T10:39:51.000Z</time>
      </trkpt>
      <trkpt lat="44.02685" lon="3.50719">
        <ele>1224.6</ele>
        <time>2026-05-28T10:39:52.000Z</time>
      </trkpt>
      <trkpt lat="44.02686" lon="3.50719">
        <ele>1224.3</ele>
        <time>2026-05-28T10:39:53.000Z</time>
      </trkpt>
      <trkpt lat="44.02687" lon="3.50717">
        <ele>1224</ele>
        <time>2026-05-28T10:39:54.000Z</time>
      </trkpt>
      <trkpt lat="44.02688" lon="3.50717">
        <ele>1224</ele>
        <time>2026-05-28T10:39:55.000Z</time>
      </trkpt>
      <trkpt lat="44.02689" lon="3.50715">
        <ele>1224.4</ele>
        <time>2026-05-28T10:39:56.000Z</time>
      </trkpt>
      <trkpt lat="44.02689" lon="3.50714">
        <ele>1224.6</ele>
        <time>2026-05-28T10:39:57.000Z</time>
      </trkpt>
      <trkpt lat="44.02689" lon="3.50713">
        <ele>1224.4</ele>
        <time>2026-05-28T10:39:58.000Z</time>
      </trkpt>
      <trkpt lat="44.0269" lon="3.50711">
        <ele>1224.2</ele>
        <time>2026-05-28T10:39:59.000Z</time>
      </trkpt>
      <trkpt lat="44.02691" lon="3.5071">
        <ele>1224.1</ele>
        <time>2026-05-28T10:40:00.000Z</time>
      </trkpt>
      <trkpt lat="44.02691" lon="3.50709">
        <ele>1224.1</ele>
        <time>2026-05-28T10:40:01.000Z</time>
      </trkpt>
      <trkpt lat="44.02693" lon="3.50708">
        <ele>1224.3</ele>
        <time>2026-05-28T10:40:02.000Z</time>
      </trkpt>
      <trkpt lat="44.02694" lon="3.50707">
        <ele>1224.2</ele>
        <time>2026-05-28T10:40:03.000Z</time>
      </trkpt>
      <trkpt lat="44.02694" lon="3.50706">
        <ele>1224.1</ele>
        <time>2026-05-28T10:40:04.000Z</time>
      </trkpt>
      <trkpt lat="44.02695" lon="3.50706">
        <ele>1223.6</ele>
        <time>2026-05-28T10:40:05.000Z</time>
      </trkpt>
      <trkpt lat="44.02696" lon="3.50706">
        <ele>1223.8</ele>
        <time>2026-05-28T10:40:06.000Z</time>
      </trkpt>
      <trkpt lat="44.02697" lon="3.50705">
        <ele>1223.9</ele>
        <time>2026-05-28T10:40:07.000Z</time>
      </trkpt>
      <trkpt lat="44.02698" lon="3.50704">
        <ele>1223.8</ele>
        <time>2026-05-28T10:40:08.000Z</time>
      </trkpt>
      <trkpt lat="44.02698" lon="3.50704">
        <ele>1223.9</ele>
        <time>2026-05-28T10:40:09.000Z</time>
      </trkpt>
      <trkpt lat="44.02699" lon="3.50704">
        <ele>1223.8</ele>
        <time>2026-05-28T10:40:10.000Z</time>
      </trkpt>
      <trkpt lat="44.02699" lon="3.50705">
        <ele>1224.2</ele>
        <time>2026-05-28T10:40:11.000Z</time>
      </trkpt>
      <trkpt lat="44.027" lon="3.50705">
        <ele>1224.5</ele>
        <time>2026-05-28T10:40:12.000Z</time>
      </trkpt>
      <trkpt lat="44.02701" lon="3.50705">
        <ele>1225.1</ele>
        <time>2026-05-28T10:40:13.000Z</time>
      </trkpt>
      <trkpt lat="44.02702" lon="3.50706">
        <ele>1226.4</ele>
        <time>2026-05-28T10:40:14.000Z</time>
      </trkpt>
      <trkpt lat="44.02702" lon="3.50706">
        <ele>1227.3</ele>
        <time>2026-05-28T10:40:15.000Z</time>
      </trkpt>
      <trkpt lat="44.02703" lon="3.50707">
        <ele>1227.6</ele>
        <time>2026-05-28T10:40:16.000Z</time>
      </trkpt>
      <trkpt lat="44.02704" lon="3.50706">
        <ele>1228.4</ele>
        <time>2026-05-28T10:40:17.000Z</time>
      </trkpt>
      <trkpt lat="44.02704" lon="3.50705">
        <ele>1229.5</ele>
        <time>2026-05-28T10:40:18.000Z</time>
      </trkpt>
      <trkpt lat="44.02706" lon="3.50706">
        <ele>1228.6</ele>
        <time>2026-05-28T10:40:19.000Z</time>
      </trkpt>
      <trkpt lat="44.02707" lon="3.50706">
        <ele>1228.5</ele>
        <time>2026-05-28T10:40:20.000Z</time>
      </trkpt>
      <trkpt lat="44.02708" lon="3.50705">
        <ele>1228.2</ele>
        <time>2026-05-28T10:40:21.000Z</time>
      </trkpt>
      <trkpt lat="44.02709" lon="3.50705">
        <ele>1227.7</ele>
        <time>2026-05-28T10:40:22.000Z</time>
      </trkpt>
      <trkpt lat="44.0271" lon="3.50705">
        <ele>1227.2</ele>
        <time>2026-05-28T10:40:23.000Z</time>
      </trkpt>
      <trkpt lat="44.02711" lon="3.50704">
        <ele>1226.4</ele>
        <time>2026-05-28T10:40:24.000Z</time>
      </trkpt>
      <trkpt lat="44.02713" lon="3.50702">
        <ele>1225.5</ele>
        <time>2026-05-28T10:40:25.000Z</time>
      </trkpt>
      <trkpt lat="44.02714" lon="3.50702">
        <ele>1224.8</ele>
        <time>2026-05-28T10:40:26.000Z</time>
      </trkpt>
      <trkpt lat="44.02714" lon="3.50701">
        <ele>1223.9</ele>
        <time>2026-05-28T10:40:27.000Z</time>
      </trkpt>
      <trkpt lat="44.02715" lon="3.50699">
        <ele>1223.3</ele>
        <time>2026-05-28T10:40:28.000Z</time>
      </trkpt>
      <trkpt lat="44.02716" lon="3.50699">
        <ele>1222.5</ele>
        <time>2026-05-28T10:40:29.000Z</time>
      </trkpt>
      <trkpt lat="44.02717" lon="3.50698">
        <ele>1221.5</ele>
        <time>2026-05-28T10:40:30.000Z</time>
      </trkpt>
      <trkpt lat="44.02719" lon="3.50698">
        <ele>1221</ele>
        <time>2026-05-28T10:40:31.000Z</time>
      </trkpt>
      <trkpt lat="44.0272" lon="3.50699">
        <ele>1221</ele>
        <time>2026-05-28T10:40:32.000Z</time>
      </trkpt>
      <trkpt lat="44.02722" lon="3.50698">
        <ele>1221.4</ele>
        <time>2026-05-28T10:40:33.000Z</time>
      </trkpt>
      <trkpt lat="44.02723" lon="3.50699">
        <ele>1221.4</ele>
        <time>2026-05-28T10:40:34.000Z</time>
      </trkpt>
      <trkpt lat="44.02724" lon="3.50699">
        <ele>1221.4</ele>
        <time>2026-05-28T10:40:35.000Z</time>
      </trkpt>
      <trkpt lat="44.02725" lon="3.50698">
        <ele>1221.6</ele>
        <time>2026-05-28T10:40:36.000Z</time>
      </trkpt>
      <trkpt lat="44.02725" lon="3.50698">
        <ele>1221.8</ele>
        <time>2026-05-28T10:40:37.000Z</time>
      </trkpt>
      <trkpt lat="44.02725" lon="3.50697">
        <ele>1221.7</ele>
        <time>2026-05-28T10:40:38.000Z</time>
      </trkpt>
      <trkpt lat="44.02726" lon="3.50696">
        <ele>1222</ele>
        <time>2026-05-28T10:40:39.000Z</time>
      </trkpt>
      <trkpt lat="44.02727" lon="3.50696">
        <ele>1223</ele>
        <time>2026-05-28T10:40:40.000Z</time>
      </trkpt>
      <trkpt lat="44.02727" lon="3.50695">
        <ele>1223.1</ele>
        <time>2026-05-28T10:40:41.000Z</time>
      </trkpt>
      <trkpt lat="44.02727" lon="3.50695">
        <ele>1223.4</ele>
        <time>2026-05-28T10:40:42.000Z</time>
      </trkpt>
      <trkpt lat="44.02728" lon="3.50695">
        <ele>1223.6</ele>
        <time>2026-05-28T10:40:43.000Z</time>
      </trkpt>
      <trkpt lat="44.02729" lon="3.50694">
        <ele>1223.8</ele>
        <time>2026-05-28T10:40:44.000Z</time>
      </trkpt>
      <trkpt lat="44.02731" lon="3.50694">
        <ele>1223.8</ele>
        <time>2026-05-28T10:40:45.000Z</time>
      </trkpt>
      <trkpt lat="44.02732" lon="3.50693">
        <ele>1223.8</ele>
        <time>2026-05-28T10:40:46.000Z</time>
      </trkpt>
      <trkpt lat="44.02734" lon="3.50693">
        <ele>1224.2</ele>
        <time>2026-05-28T10:40:47.000Z</time>
      </trkpt>
      <trkpt lat="44.02734" lon="3.50692">
        <ele>1224.2</ele>
        <time>2026-05-28T10:40:48.000Z</time>
      </trkpt>
      <trkpt lat="44.02736" lon="3.50692">
        <ele>1224.3</ele>
        <time>2026-05-28T10:40:49.000Z</time>
      </trkpt>
      <trkpt lat="44.02736" lon="3.50693">
        <ele>1224.5</ele>
        <time>2026-05-28T10:40:50.000Z</time>
      </trkpt>
      <trkpt lat="44.02737" lon="3.50693">
        <ele>1224.4</ele>
        <time>2026-05-28T10:40:51.000Z</time>
      </trkpt>
      <trkpt lat="44.02738" lon="3.50693">
        <ele>1224.8</ele>
        <time>2026-05-28T10:40:52.000Z</time>
      </trkpt>
      <trkpt lat="44.02739" lon="3.50692">
        <ele>1224.6</ele>
        <time>2026-05-28T10:40:53.000Z</time>
      </trkpt>
      <trkpt lat="44.0274" lon="3.50692">
        <ele>1224.7</ele>
        <time>2026-05-28T10:40:54.000Z</time>
      </trkpt>
      <trkpt lat="44.02742" lon="3.50691">
        <ele>1224.5</ele>
        <time>2026-05-28T10:40:55.000Z</time>
      </trkpt>
      <trkpt lat="44.02743" lon="3.5069">
        <ele>1224</ele>
        <time>2026-05-28T10:40:56.000Z</time>
      </trkpt>
      <trkpt lat="44.02744" lon="3.50689">
        <ele>1223.8</ele>
        <time>2026-05-28T10:40:57.000Z</time>
      </trkpt>
      <trkpt lat="44.02745" lon="3.50687">
        <ele>1223.7</ele>
        <time>2026-05-28T10:40:58.000Z</time>
      </trkpt>
      <trkpt lat="44.02747" lon="3.50686">
        <ele>1223</ele>
        <time>2026-05-28T10:40:59.000Z</time>
      </trkpt>
      <trkpt lat="44.02747" lon="3.50685">
        <ele>1222.8</ele>
        <time>2026-05-28T10:41:00.000Z</time>
      </trkpt>
      <trkpt lat="44.02747" lon="3.50685">
        <ele>1223</ele>
        <time>2026-05-28T10:41:01.000Z</time>
      </trkpt>
      <trkpt lat="44.02747" lon="3.50685">
        <ele>1223.4</ele>
        <time>2026-05-28T10:41:02.000Z</time>
      </trkpt>
      <trkpt lat="44.02748" lon="3.50686">
        <ele>1224.1</ele>
        <time>2026-05-28T10:41:03.000Z</time>
      </trkpt>
      <trkpt lat="44.02748" lon="3.50687">
        <ele>1224.5</ele>
        <time>2026-05-28T10:41:04.000Z</time>
      </trkpt>
      <trkpt lat="44.02749" lon="3.50688">
        <ele>1225</ele>
        <time>2026-05-28T10:41:05.000Z</time>
      </trkpt>
      <trkpt lat="44.02749" lon="3.50688">
        <ele>1225.4</ele>
        <time>2026-05-28T10:41:06.000Z</time>
      </trkpt>
      <trkpt lat="44.0275" lon="3.50688">
        <ele>1225.9</ele>
        <time>2026-05-28T10:41:07.000Z</time>
      </trkpt>
      <trkpt lat="44.0275" lon="3.50688">
        <ele>1225.4</ele>
        <time>2026-05-28T10:41:08.000Z</time>
      </trkpt>
      <trkpt lat="44.02751" lon="3.5069">
        <ele>1225.2</ele>
        <time>2026-05-28T10:41:09.000Z</time>
      </trkpt>
      <trkpt lat="44.02751" lon="3.5069">
        <ele>1225.1</ele>
        <time>2026-05-28T10:41:10.000Z</time>
      </trkpt>
      <trkpt lat="44.02752" lon="3.5069">
        <ele>1224.8</ele>
        <time>2026-05-28T10:41:11.000Z</time>
      </trkpt>
      <trkpt lat="44.02752" lon="3.5069">
        <ele>1224.7</ele>
        <time>2026-05-28T10:41:12.000Z</time>
      </trkpt>
      <trkpt lat="44.02753" lon="3.50689">
        <ele>1224.4</ele>
        <time>2026-05-28T10:41:13.000Z</time>
      </trkpt>
      <trkpt lat="44.02754" lon="3.50688">
        <ele>1224</ele>
        <time>2026-05-28T10:41:14.000Z</time>
      </trkpt>
      <trkpt lat="44.02754" lon="3.50689">
        <ele>1225</ele>
        <time>2026-05-28T10:41:15.000Z</time>
      </trkpt>
      <trkpt lat="44.02754" lon="3.50688">
        <ele>1225.3</ele>
        <time>2026-05-28T10:41:16.000Z</time>
      </trkpt>
      <trkpt lat="44.02755" lon="3.50688">
        <ele>1225.6</ele>
        <time>2026-05-28T10:41:17.000Z</time>
      </trkpt>
      <trkpt lat="44.02755" lon="3.50688">
        <ele>1225.5</ele>
        <time>2026-05-28T10:41:18.000Z</time>
      </trkpt>
      <trkpt lat="44.02756" lon="3.50688">
        <ele>1225.5</ele>
        <time>2026-05-28T10:41:19.000Z</time>
      </trkpt>
      <trkpt lat="44.02757" lon="3.50688">
        <ele>1225.5</ele>
        <time>2026-05-28T10:41:20.000Z</time>
      </trkpt>
      <trkpt lat="44.02758" lon="3.50688">
        <ele>1225.7</ele>
        <time>2026-05-28T10:41:21.000Z</time>
      </trkpt>
      <trkpt lat="44.02759" lon="3.50689">
        <ele>1226</ele>
        <time>2026-05-28T10:41:22.000Z</time>
      </trkpt>
      <trkpt lat="44.02759" lon="3.50689">
        <ele>1226.7</ele>
        <time>2026-05-28T10:41:23.000Z</time>
      </trkpt>
      <trkpt lat="44.0276" lon="3.50689">
        <ele>1227.3</ele>
        <time>2026-05-28T10:41:24.000Z</time>
      </trkpt>
      <trkpt lat="44.02761" lon="3.50689">
        <ele>1227.7</ele>
        <time>2026-05-28T10:41:25.000Z</time>
      </trkpt>
      <trkpt lat="44.02762" lon="3.50689">
        <ele>1228</ele>
        <time>2026-05-28T10:41:26.000Z</time>
      </trkpt>
      <trkpt lat="44.02763" lon="3.50689">
        <ele>1228.1</ele>
        <time>2026-05-28T10:41:27.000Z</time>
      </trkpt>
      <trkpt lat="44.02763" lon="3.50691">
        <ele>1229.3</ele>
        <time>2026-05-28T10:41:28.000Z</time>
      </trkpt>
      <trkpt lat="44.02763" lon="3.50692">
        <ele>1230.2</ele>
        <time>2026-05-28T10:41:29.000Z</time>
      </trkpt>
      <trkpt lat="44.02763" lon="3.50693">
        <ele>1230.7</ele>
        <time>2026-05-28T10:41:30.000Z</time>
      </trkpt>
      <trkpt lat="44.02763" lon="3.50694">
        <ele>1231.3</ele>
        <time>2026-05-28T10:41:31.000Z</time>
      </trkpt>
      <trkpt lat="44.02764" lon="3.50694">
        <ele>1232</ele>
        <time>2026-05-28T10:41:32.000Z</time>
      </trkpt>
      <trkpt lat="44.02765" lon="3.50695">
        <ele>1232.3</ele>
        <time>2026-05-28T10:41:33.000Z</time>
      </trkpt>
      <trkpt lat="44.02766" lon="3.50696">
        <ele>1232.9</ele>
        <time>2026-05-28T10:41:34.000Z</time>
      </trkpt>
      <trkpt lat="44.02767" lon="3.50696">
        <ele>1233.2</ele>
        <time>2026-05-28T10:41:35.000Z</time>
      </trkpt>
      <trkpt lat="44.02768" lon="3.50696">
        <ele>1233.3</ele>
        <time>2026-05-28T10:41:36.000Z</time>
      </trkpt>
      <trkpt lat="44.02769" lon="3.50697">
        <ele>1233.9</ele>
        <time>2026-05-28T10:41:37.000Z</time>
      </trkpt>
      <trkpt lat="44.02768" lon="3.50698">
        <ele>1234.6</ele>
        <time>2026-05-28T10:41:38.000Z</time>
      </trkpt>
      <trkpt lat="44.02767" lon="3.50698">
        <ele>1234.5</ele>
        <time>2026-05-28T10:41:39.000Z</time>
      </trkpt>
      <trkpt lat="44.02768" lon="3.50698">
        <ele>1235.1</ele>
        <time>2026-05-28T10:41:40.000Z</time>
      </trkpt>
      <trkpt lat="44.02768" lon="3.50698">
        <ele>1235.1</ele>
        <time>2026-05-28T10:41:41.000Z</time>
      </trkpt>
      <trkpt lat="44.02768" lon="3.50698">
        <ele>1235.6</ele>
        <time>2026-05-28T10:41:42.000Z</time>
      </trkpt>
      <trkpt lat="44.02768" lon="3.50698">
        <ele>1235.4</ele>
        <time>2026-05-28T10:41:43.000Z</time>
      </trkpt>
      <trkpt lat="44.02768" lon="3.50699">
        <ele>1235.4</ele>
        <time>2026-05-28T10:41:44.000Z</time>
      </trkpt>
      <trkpt lat="44.02768" lon="3.50699">
        <ele>1235.4</ele>
        <time>2026-05-28T10:41:45.000Z</time>
      </trkpt>
      <trkpt lat="44.02769" lon="3.50699">
        <ele>1235.4</ele>
        <time>2026-05-28T10:41:46.000Z</time>
      </trkpt>
      <trkpt lat="44.02769" lon="3.50698">
        <ele>1235</ele>
        <time>2026-05-28T10:41:47.000Z</time>
      </trkpt>
      <trkpt lat="44.02767" lon="3.50698">
        <ele>1234.9</ele>
        <time>2026-05-28T10:41:48.000Z</time>
      </trkpt>
      <trkpt lat="44.02766" lon="3.50699">
        <ele>1234.8</ele>
        <time>2026-05-28T10:41:49.000Z</time>
      </trkpt>
      <trkpt lat="44.02766" lon="3.50699">
        <ele>1235.2</ele>
        <time>2026-05-28T10:41:50.000Z</time>
      </trkpt>
      <trkpt lat="44.02766" lon="3.50699">
        <ele>1236</ele>
        <time>2026-05-28T10:41:51.000Z</time>
      </trkpt>
      <trkpt lat="44.02767" lon="3.50699">
        <ele>1236.4</ele>
        <time>2026-05-28T10:41:52.000Z</time>
      </trkpt>
      <trkpt lat="44.02767" lon="3.50699">
        <ele>1236.6</ele>
        <time>2026-05-28T10:41:53.999Z</time>
      </trkpt>
      <trkpt lat="44.02767" lon="3.50699">
        <ele>1236.4</ele>
        <time>2026-05-28T10:41:54.999Z</time>
      </trkpt>
      <trkpt lat="44.02767" lon="3.50699">
        <ele>1236.3</ele>
        <time>2026-05-28T10:41:55.999Z</time>
      </trkpt>
      <trkpt lat="44.02766" lon="3.50699">
        <ele>1235.9</ele>
        <time>2026-05-28T10:41:56.999Z</time>
      </trkpt>
      <trkpt lat="44.02767" lon="3.50699">
        <ele>1236</ele>
        <time>2026-05-28T10:41:57.999Z</time>
      </trkpt>
      <trkpt lat="44.02767" lon="3.50699">
        <ele>1236.3</ele>
        <time>2026-05-28T10:41:58.999Z</time>
      </trkpt>
      <trkpt lat="44.02767" lon="3.50699">
        <ele>1236.6</ele>
        <time>2026-05-28T10:41:59.999Z</time>
      </trkpt>
      <trkpt lat="44.02767" lon="3.50699">
        <ele>1236.8</ele>
        <time>2026-05-28T10:42:00.999Z</time>
      </trkpt>
      <trkpt lat="44.02767" lon="3.50699">
        <ele>1237.2</ele>
        <time>2026-05-28T10:42:01.999Z</time>
      </trkpt>
      <trkpt lat="44.02767" lon="3.50699">
        <ele>1237.1</ele>
        <time>2026-05-28T10:42:02.999Z</time>
      </trkpt>
      <trkpt lat="44.02767" lon="3.50698">
        <ele>1237.5</ele>
        <time>2026-05-28T10:42:03.999Z</time>
      </trkpt>
      <trkpt lat="44.02768" lon="3.50698">
        <ele>1238</ele>
        <time>2026-05-28T10:42:04.999Z</time>
      </trkpt>
      <trkpt lat="44.02768" lon="3.50698">
        <ele>1238.4</ele>
        <time>2026-05-28T10:42:05.999Z</time>
      </trkpt>
      <trkpt lat="44.02768" lon="3.507">
        <ele>1238.7</ele>
        <time>2026-05-28T10:42:06.999Z</time>
      </trkpt>
      <trkpt lat="44.0277" lon="3.50701">
        <ele>1238.4</ele>
        <time>2026-05-28T10:42:07.999Z</time>
      </trkpt>
      <trkpt lat="44.0277" lon="3.50704">
        <ele>1239</ele>
        <time>2026-05-28T10:42:08.999Z</time>
      </trkpt>
      <trkpt lat="44.0277" lon="3.50706">
        <ele>1239.7</ele>
        <time>2026-05-28T10:42:09.999Z</time>
      </trkpt>
      <trkpt lat="44.0277" lon="3.50706">
        <ele>1240.4</ele>
        <time>2026-05-28T10:42:10.999Z</time>
      </trkpt>
      <trkpt lat="44.0277" lon="3.50708">
        <ele>1241</ele>
        <time>2026-05-28T10:42:11.999Z</time>
      </trkpt>
      <trkpt lat="44.0277" lon="3.50709">
        <ele>1241.3</ele>
        <time>2026-05-28T10:42:12.999Z</time>
      </trkpt>
      <trkpt lat="44.0277" lon="3.5071">
        <ele>1241.9</ele>
        <time>2026-05-28T10:42:13.999Z</time>
      </trkpt>
      <trkpt lat="44.02771" lon="3.50712">
        <ele>1242.2</ele>
        <time>2026-05-28T10:42:15.999Z</time>
      </trkpt>
      <trkpt lat="44.02771" lon="3.50713">
        <ele>1242.2</ele>
        <time>2026-05-28T10:42:16.999Z</time>
      </trkpt>
      <trkpt lat="44.02771" lon="3.50712">
        <ele>1242</ele>
        <time>2026-05-28T10:42:17.999Z</time>
      </trkpt>
      <trkpt lat="44.02772" lon="3.50711">
        <ele>1241.6</ele>
        <time>2026-05-28T10:42:18.999Z</time>
      </trkpt>
      <trkpt lat="44.02772" lon="3.50711">
        <ele>1237.3</ele>
        <time>2026-05-28T10:42:19.999Z</time>
      </trkpt>
      <trkpt lat="44.02773" lon="3.5071">
        <ele>1237.1</ele>
        <time>2026-05-28T10:42:20.999Z</time>
      </trkpt>
      <trkpt lat="44.02773" lon="3.5071">
        <ele>1236.8</ele>
        <time>2026-05-28T10:42:21.999Z</time>
      </trkpt>
      <trkpt lat="44.02773" lon="3.5071">
        <ele>1236.6</ele>
        <time>2026-05-28T10:42:22.999Z</time>
      </trkpt>
      <trkpt lat="44.02775" lon="3.5071">
        <ele>1236.7</ele>
        <time>2026-05-28T10:42:23.999Z</time>
      </trkpt>
      <trkpt lat="44.02776" lon="3.50711">
        <ele>1236.9</ele>
        <time>2026-05-28T10:42:24.999Z</time>
      </trkpt>
      <trkpt lat="44.02777" lon="3.50711">
        <ele>1237</ele>
        <time>2026-05-28T10:42:25.999Z</time>
      </trkpt>
      <trkpt lat="44.02777" lon="3.50711">
        <ele>1236.4</ele>
        <time>2026-05-28T10:42:26.999Z</time>
      </trkpt>
      <trkpt lat="44.02778" lon="3.50711">
        <ele>1236.6</ele>
        <time>2026-05-28T10:42:27.999Z</time>
      </trkpt>
      <trkpt lat="44.0278" lon="3.50711">
        <ele>1237.3</ele>
        <time>2026-05-28T10:42:28.999Z</time>
      </trkpt>
      <trkpt lat="44.02782" lon="3.50711">
        <ele>1236.9</ele>
        <time>2026-05-28T10:42:29.999Z</time>
      </trkpt>
      <trkpt lat="44.02783" lon="3.50711">
        <ele>1237.1</ele>
        <time>2026-05-28T10:42:30.999Z</time>
      </trkpt>
      <trkpt lat="44.02783" lon="3.50711">
        <ele>1237.7</ele>
        <time>2026-05-28T10:42:31.999Z</time>
      </trkpt>
      <trkpt lat="44.02783" lon="3.50712">
        <ele>1238.1</ele>
        <time>2026-05-28T10:42:32.999Z</time>
      </trkpt>
      <trkpt lat="44.02784" lon="3.50713">
        <ele>1237.9</ele>
        <time>2026-05-28T10:42:33.999Z</time>
      </trkpt>
      <trkpt lat="44.02785" lon="3.50714">
        <ele>1237.8</ele>
        <time>2026-05-28T10:42:34.999Z</time>
      </trkpt>
      <trkpt lat="44.02786" lon="3.50715">
        <ele>1237.7</ele>
        <time>2026-05-28T10:42:35.999Z</time>
      </trkpt>
      <trkpt lat="44.02787" lon="3.50715">
        <ele>1237.6</ele>
        <time>2026-05-28T10:42:36.999Z</time>
      </trkpt>
      <trkpt lat="44.02789" lon="3.50716">
        <ele>1237.5</ele>
        <time>2026-05-28T10:42:37.999Z</time>
      </trkpt>
      <trkpt lat="44.02789" lon="3.50716">
        <ele>1237.6</ele>
        <time>2026-05-28T10:42:38.999Z</time>
      </trkpt>
      <trkpt lat="44.0279" lon="3.50717">
        <ele>1237.7</ele>
        <time>2026-05-28T10:42:39.999Z</time>
      </trkpt>
      <trkpt lat="44.0279" lon="3.50717">
        <ele>1237.6</ele>
        <time>2026-05-28T10:42:40.999Z</time>
      </trkpt>
      <trkpt lat="44.0279" lon="3.50717">
        <ele>1238.3</ele>
        <time>2026-05-28T10:42:41.999Z</time>
      </trkpt>
      <trkpt lat="44.0279" lon="3.50717">
        <ele>1238.1</ele>
        <time>2026-05-28T10:42:42.999Z</time>
      </trkpt>
      <trkpt lat="44.0279" lon="3.50717">
        <ele>1238.3</ele>
        <time>2026-05-28T10:42:43.999Z</time>
      </trkpt>
      <trkpt lat="44.0279" lon="3.50717">
        <ele>1238.3</ele>
        <time>2026-05-28T10:42:44.999Z</time>
      </trkpt>
      <trkpt lat="44.02791" lon="3.50718">
        <ele>1238.3</ele>
        <time>2026-05-28T10:42:45.999Z</time>
      </trkpt>
      <trkpt lat="44.02791" lon="3.50718">
        <ele>1238.8</ele>
        <time>2026-05-28T10:42:46.999Z</time>
      </trkpt>
      <trkpt lat="44.02791" lon="3.50719">
        <ele>1238.9</ele>
        <time>2026-05-28T10:42:47.999Z</time>
      </trkpt>
      <trkpt lat="44.02792" lon="3.5072">
        <ele>1238.6</ele>
        <time>2026-05-28T10:42:48.999Z</time>
      </trkpt>
      <trkpt lat="44.02792" lon="3.50721">
        <ele>1238</ele>
        <time>2026-05-28T10:42:49.999Z</time>
      </trkpt>
      <trkpt lat="44.02793" lon="3.50721">
        <ele>1237.9</ele>
        <time>2026-05-28T10:42:50.999Z</time>
      </trkpt>
      <trkpt lat="44.02795" lon="3.50723">
        <ele>1237.7</ele>
        <time>2026-05-28T10:42:51.999Z</time>
      </trkpt>
      <trkpt lat="44.02797" lon="3.50724">
        <ele>1237.4</ele>
        <time>2026-05-28T10:42:52.999Z</time>
      </trkpt>
      <trkpt lat="44.02799" lon="3.50725">
        <ele>1236.7</ele>
        <time>2026-05-28T10:42:53.999Z</time>
      </trkpt>
      <trkpt lat="44.02799" lon="3.50726">
        <ele>1236.5</ele>
        <time>2026-05-28T10:42:54.999Z</time>
      </trkpt>
      <trkpt lat="44.028" lon="3.50725">
        <ele>1236</ele>
        <time>2026-05-28T10:42:55.999Z</time>
      </trkpt>
      <trkpt lat="44.028" lon="3.50725">
        <ele>1236.2</ele>
        <time>2026-05-28T10:42:56.999Z</time>
      </trkpt>
      <trkpt lat="44.028" lon="3.50725">
        <ele>1236</ele>
        <time>2026-05-28T10:42:57.999Z</time>
      </trkpt>
      <trkpt lat="44.028" lon="3.50725">
        <ele>1236.6</ele>
        <time>2026-05-28T10:42:58.999Z</time>
      </trkpt>
      <trkpt lat="44.028" lon="3.50725">
        <ele>1237.3</ele>
        <time>2026-05-28T10:42:59.999Z</time>
      </trkpt>
      <trkpt lat="44.02799" lon="3.50726">
        <ele>1237.9</ele>
        <time>2026-05-28T10:43:00.999Z</time>
      </trkpt>
      <trkpt lat="44.02798" lon="3.50725">
        <ele>1238</ele>
        <time>2026-05-28T10:43:01.999Z</time>
      </trkpt>
      <trkpt lat="44.02798" lon="3.50725">
        <ele>1238.2</ele>
        <time>2026-05-28T10:43:02.999Z</time>
      </trkpt>
      <trkpt lat="44.02798" lon="3.50725">
        <ele>1239.2</ele>
        <time>2026-05-28T10:43:03.999Z</time>
      </trkpt>
      <trkpt lat="44.02798" lon="3.50725">
        <ele>1239</ele>
        <time>2026-05-28T10:43:04.999Z</time>
      </trkpt>
      <trkpt lat="44.02798" lon="3.50725">
        <ele>1238.7</ele>
        <time>2026-05-28T10:43:05.999Z</time>
      </trkpt>
      <trkpt lat="44.02798" lon="3.50725">
        <ele>1238.5</ele>
        <time>2026-05-28T10:43:06.999Z</time>
      </trkpt>
      <trkpt lat="44.02798" lon="3.50726">
        <ele>1237.8</ele>
        <time>2026-05-28T10:43:07.999Z</time>
      </trkpt>
      <trkpt lat="44.02799" lon="3.50726">
        <ele>1236.9</ele>
        <time>2026-05-28T10:43:08.999Z</time>
      </trkpt>
      <trkpt lat="44.028" lon="3.50727">
        <ele>1236.7</ele>
        <time>2026-05-28T10:43:09.999Z</time>
      </trkpt>
      <trkpt lat="44.02802" lon="3.50727">
        <ele>1236.3</ele>
        <time>2026-05-28T10:43:10.999Z</time>
      </trkpt>
      <trkpt lat="44.02802" lon="3.50727">
        <ele>1236.8</ele>
        <time>2026-05-28T10:43:11.999Z</time>
      </trkpt>
      <trkpt lat="44.02801" lon="3.50728">
        <ele>1236.9</ele>
        <time>2026-05-28T10:43:12.999Z</time>
      </trkpt>
      <trkpt lat="44.02801" lon="3.50727">
        <ele>1237.4</ele>
        <time>2026-05-28T10:43:13.999Z</time>
      </trkpt>
      <trkpt lat="44.02801" lon="3.50727">
        <ele>1237.4</ele>
        <time>2026-05-28T10:43:14.999Z</time>
      </trkpt>
      <trkpt lat="44.02801" lon="3.50727">
        <ele>1237.5</ele>
        <time>2026-05-28T10:43:15.999Z</time>
      </trkpt>
      <trkpt lat="44.02801" lon="3.50728">
        <ele>1237.8</ele>
        <time>2026-05-28T10:43:16.999Z</time>
      </trkpt>
      <trkpt lat="44.02801" lon="3.50727">
        <ele>1238</ele>
        <time>2026-05-28T10:43:17.999Z</time>
      </trkpt>
      <trkpt lat="44.02801" lon="3.50727">
        <ele>1237.9</ele>
        <time>2026-05-28T10:43:18.999Z</time>
      </trkpt>
      <trkpt lat="44.02801" lon="3.50727">
        <ele>1237.7</ele>
        <time>2026-05-28T10:43:19.999Z</time>
      </trkpt>
      <trkpt lat="44.02802" lon="3.50728">
        <ele>1237.9</ele>
        <time>2026-05-28T10:43:20.999Z</time>
      </trkpt>
      <trkpt lat="44.02802" lon="3.50729">
        <ele>1238</ele>
        <time>2026-05-28T10:43:21.999Z</time>
      </trkpt>
      <trkpt lat="44.02802" lon="3.5073">
        <ele>1238.7</ele>
        <time>2026-05-28T10:43:22.999Z</time>
      </trkpt>
      <trkpt lat="44.02802" lon="3.5073">
        <ele>1238.6</ele>
        <time>2026-05-28T10:43:23.999Z</time>
      </trkpt>
      <trkpt lat="44.02802" lon="3.5073">
        <ele>1238.4</ele>
        <time>2026-05-28T10:43:24.999Z</time>
      </trkpt>
      <trkpt lat="44.02802" lon="3.5073">
        <ele>1238.3</ele>
        <time>2026-05-28T10:43:25.999Z</time>
      </trkpt>
      <trkpt lat="44.02803" lon="3.50731">
        <ele>1238.4</ele>
        <time>2026-05-28T10:43:26.999Z</time>
      </trkpt>
      <trkpt lat="44.02803" lon="3.50731">
        <ele>1238.3</ele>
        <time>2026-05-28T10:43:27.999Z</time>
      </trkpt>
      <trkpt lat="44.02803" lon="3.50731">
        <ele>1238.2</ele>
        <time>2026-05-28T10:43:28.999Z</time>
      </trkpt>
      <trkpt lat="44.02803" lon="3.50731">
        <ele>1238.2</ele>
        <time>2026-05-28T10:43:29.999Z</time>
      </trkpt>
      <trkpt lat="44.02803" lon="3.50732">
        <ele>1238.6</ele>
        <time>2026-05-28T10:43:30.999Z</time>
      </trkpt>
      <trkpt lat="44.02804" lon="3.50734">
        <ele>1238.6</ele>
        <time>2026-05-28T10:43:31.999Z</time>
      </trkpt>
      <trkpt lat="44.02804" lon="3.50736">
        <ele>1239</ele>
        <time>2026-05-28T10:43:32.999Z</time>
      </trkpt>
      <trkpt lat="44.02804" lon="3.50736">
        <ele>1239.3</ele>
        <time>2026-05-28T10:43:33.999Z</time>
      </trkpt>
      <trkpt lat="44.02804" lon="3.50737">
        <ele>1239.6</ele>
        <time>2026-05-28T10:43:34.999Z</time>
      </trkpt>
      <trkpt lat="44.02804" lon="3.50737">
        <ele>1240.1</ele>
        <time>2026-05-28T10:43:35.999Z</time>
      </trkpt>
      <trkpt lat="44.02804" lon="3.50739">
        <ele>1240.4</ele>
        <time>2026-05-28T10:43:36.999Z</time>
      </trkpt>
      <trkpt lat="44.02804" lon="3.5074">
        <ele>1240.9</ele>
        <time>2026-05-28T10:43:37.999Z</time>
      </trkpt>
      <trkpt lat="44.02804" lon="3.5074">
        <ele>1241.4</ele>
        <time>2026-05-28T10:43:38.999Z</time>
      </trkpt>
      <trkpt lat="44.02804" lon="3.5074">
        <ele>1241.4</ele>
        <time>2026-05-28T10:43:39.999Z</time>
      </trkpt>
      <trkpt lat="44.02803" lon="3.5074">
        <ele>1241.6</ele>
        <time>2026-05-28T10:43:40.999Z</time>
      </trkpt>
      <trkpt lat="44.02804" lon="3.5074">
        <ele>1242</ele>
        <time>2026-05-28T10:43:41.999Z</time>
      </trkpt>
      <trkpt lat="44.02804" lon="3.50741">
        <ele>1242.3</ele>
        <time>2026-05-28T10:43:42.999Z</time>
      </trkpt>
      <trkpt lat="44.02804" lon="3.50741">
        <ele>1242.4</ele>
        <time>2026-05-28T10:43:43.999Z</time>
      </trkpt>
      <trkpt lat="44.02804" lon="3.50741">
        <ele>1242.7</ele>
        <time>2026-05-28T10:43:44.999Z</time>
      </trkpt>
      <trkpt lat="44.02804" lon="3.50742">
        <ele>1243.3</ele>
        <time>2026-05-28T10:43:45.999Z</time>
      </trkpt>
      <trkpt lat="44.02804" lon="3.50742">
        <ele>1243.4</ele>
        <time>2026-05-28T10:43:46.999Z</time>
      </trkpt>
      <trkpt lat="44.02804" lon="3.50742">
        <ele>1243.2</ele>
        <time>2026-05-28T10:43:47.999Z</time>
      </trkpt>
      <trkpt lat="44.02804" lon="3.50742">
        <ele>1242.9</ele>
        <time>2026-05-28T10:43:48.999Z</time>
      </trkpt>
      <trkpt lat="44.02805" lon="3.50742">
        <ele>1242.9</ele>
        <time>2026-05-28T10:43:49.999Z</time>
      </trkpt>
      <trkpt lat="44.02805" lon="3.50743">
        <ele>1242.4</ele>
        <time>2026-05-28T10:43:50.999Z</time>
      </trkpt>
      <trkpt lat="44.02805" lon="3.50743">
        <ele>1242.5</ele>
        <time>2026-05-28T10:43:51.999Z</time>
      </trkpt>
      <trkpt lat="44.02806" lon="3.50743">
        <ele>1242.8</ele>
        <time>2026-05-28T10:43:52.999Z</time>
      </trkpt>
      <trkpt lat="44.02808" lon="3.50745">
        <ele>1243</ele>
        <time>2026-05-28T10:43:53.999Z</time>
      </trkpt>
      <trkpt lat="44.02809" lon="3.50746">
        <ele>1243.1</ele>
        <time>2026-05-28T10:43:54.999Z</time>
      </trkpt>
      <trkpt lat="44.0281" lon="3.50746">
        <ele>1243.3</ele>
        <time>2026-05-28T10:43:55.999Z</time>
      </trkpt>
      <trkpt lat="44.0281" lon="3.50746">
        <ele>1243.1</ele>
        <time>2026-05-28T10:43:56.999Z</time>
      </trkpt>
      <trkpt lat="44.02811" lon="3.50746">
        <ele>1242.8</ele>
        <time>2026-05-28T10:43:57.999Z</time>
      </trkpt>
      <trkpt lat="44.02811" lon="3.50747">
        <ele>1242.9</ele>
        <time>2026-05-28T10:43:58.999Z</time>
      </trkpt>
      <trkpt lat="44.02811" lon="3.50747">
        <ele>1243</ele>
        <time>2026-05-28T10:43:59.999Z</time>
      </trkpt>
      <trkpt lat="44.02811" lon="3.50747">
        <ele>1242.8</ele>
        <time>2026-05-28T10:44:00.999Z</time>
      </trkpt>
      <trkpt lat="44.02811" lon="3.50747">
        <ele>1243</ele>
        <time>2026-05-28T10:44:01.999Z</time>
      </trkpt>
      <trkpt lat="44.02811" lon="3.50747">
        <ele>1243.6</ele>
        <time>2026-05-28T10:44:02.999Z</time>
      </trkpt>
      <trkpt lat="44.02812" lon="3.50748">
        <ele>1244</ele>
        <time>2026-05-28T10:44:03.999Z</time>
      </trkpt>
      <trkpt lat="44.02812" lon="3.50749">
        <ele>1244.9</ele>
        <time>2026-05-28T10:44:04.999Z</time>
      </trkpt>
      <trkpt lat="44.02812" lon="3.5075">
        <ele>1245.5</ele>
        <time>2026-05-28T10:44:05.999Z</time>
      </trkpt>
      <trkpt lat="44.02812" lon="3.50752">
        <ele>1245.6</ele>
        <time>2026-05-28T10:44:06.999Z</time>
      </trkpt>
      <trkpt lat="44.02812" lon="3.50754">
        <ele>1245.4</ele>
        <time>2026-05-28T10:44:07.999Z</time>
      </trkpt>
      <trkpt lat="44.02813" lon="3.50755">
        <ele>1245.5</ele>
        <time>2026-05-28T10:44:08.999Z</time>
      </trkpt>
      <trkpt lat="44.02814" lon="3.50757">
        <ele>1245.4</ele>
        <time>2026-05-28T10:44:09.999Z</time>
      </trkpt>
      <trkpt lat="44.02815" lon="3.50759">
        <ele>1245.7</ele>
        <time>2026-05-28T10:44:10.999Z</time>
      </trkpt>
      <trkpt lat="44.02815" lon="3.50761">
        <ele>1245.8</ele>
        <time>2026-05-28T10:44:11.999Z</time>
      </trkpt>
      <trkpt lat="44.02816" lon="3.50763">
        <ele>1245.9</ele>
        <time>2026-05-28T10:44:12.999Z</time>
      </trkpt>
      <trkpt lat="44.02817" lon="3.50765">
        <ele>1246.1</ele>
        <time>2026-05-28T10:44:13.999Z</time>
      </trkpt>
      <trkpt lat="44.02817" lon="3.50764">
        <ele>1246.5</ele>
        <time>2026-05-28T10:44:14.999Z</time>
      </trkpt>
      <trkpt lat="44.02818" lon="3.50765">
        <ele>1246.8</ele>
        <time>2026-05-28T10:44:15.999Z</time>
      </trkpt>
      <trkpt lat="44.0282" lon="3.50767">
        <ele>1246.6</ele>
        <time>2026-05-28T10:44:16.999Z</time>
      </trkpt>
      <trkpt lat="44.02821" lon="3.50769">
        <ele>1247.2</ele>
        <time>2026-05-28T10:44:17.999Z</time>
      </trkpt>
      <trkpt lat="44.02823" lon="3.5077">
        <ele>1247.5</ele>
        <time>2026-05-28T10:44:18.999Z</time>
      </trkpt>
      <trkpt lat="44.02824" lon="3.50771">
        <ele>1247.9</ele>
        <time>2026-05-28T10:44:19.999Z</time>
      </trkpt>
      <trkpt lat="44.02825" lon="3.5077">
        <ele>1247.5</ele>
        <time>2026-05-28T10:44:20.999Z</time>
      </trkpt>
      <trkpt lat="44.02827" lon="3.5077">
        <ele>1247.7</ele>
        <time>2026-05-28T10:44:21.999Z</time>
      </trkpt>
      <trkpt lat="44.02827" lon="3.50769">
        <ele>1247.7</ele>
        <time>2026-05-28T10:44:22.999Z</time>
      </trkpt>
      <trkpt lat="44.02828" lon="3.50769">
        <ele>1248.3</ele>
        <time>2026-05-28T10:44:23.999Z</time>
      </trkpt>
      <trkpt lat="44.02828" lon="3.50769">
        <ele>1249</ele>
        <time>2026-05-28T10:44:24.999Z</time>
      </trkpt>
      <trkpt lat="44.02828" lon="3.50769">
        <ele>1250.3</ele>
        <time>2026-05-28T10:44:25.999Z</time>
      </trkpt>
      <trkpt lat="44.02829" lon="3.50769">
        <ele>1251.4</ele>
        <time>2026-05-28T10:44:26.999Z</time>
      </trkpt>
      <trkpt lat="44.02829" lon="3.50769">
        <ele>1251.9</ele>
        <time>2026-05-28T10:44:27.999Z</time>
      </trkpt>
      <trkpt lat="44.0283" lon="3.50769">
        <ele>1252.8</ele>
        <time>2026-05-28T10:44:28.999Z</time>
      </trkpt>
      <trkpt lat="44.02831" lon="3.50768">
        <ele>1252.6</ele>
        <time>2026-05-28T10:44:29.999Z</time>
      </trkpt>
      <trkpt lat="44.02832" lon="3.50768">
        <ele>1252.3</ele>
        <time>2026-05-28T10:44:30.999Z</time>
      </trkpt>
      <trkpt lat="44.02832" lon="3.50767">
        <ele>1252.3</ele>
        <time>2026-05-28T10:44:31.999Z</time>
      </trkpt>
      <trkpt lat="44.02832" lon="3.50765">
        <ele>1252.4</ele>
        <time>2026-05-28T10:44:32.999Z</time>
      </trkpt>
      <trkpt lat="44.02833" lon="3.50766">
        <ele>1251.9</ele>
        <time>2026-05-28T10:44:33.999Z</time>
      </trkpt>
      <trkpt lat="44.02832" lon="3.50766">
        <ele>1251.9</ele>
        <time>2026-05-28T10:44:34.999Z</time>
      </trkpt>
      <trkpt lat="44.02833" lon="3.50766">
        <ele>1251.2</ele>
        <time>2026-05-28T10:44:35.999Z</time>
      </trkpt>
      <trkpt lat="44.02833" lon="3.50767">
        <ele>1250.5</ele>
        <time>2026-05-28T10:44:36.999Z</time>
      </trkpt>
      <trkpt lat="44.02834" lon="3.50768">
        <ele>1250.6</ele>
        <time>2026-05-28T10:44:37.999Z</time>
      </trkpt>
      <trkpt lat="44.02834" lon="3.50769">
        <ele>1250.7</ele>
        <time>2026-05-28T10:44:38.999Z</time>
      </trkpt>
      <trkpt lat="44.02834" lon="3.5077">
        <ele>1250</ele>
        <time>2026-05-28T10:44:39.999Z</time>
      </trkpt>
      <trkpt lat="44.02835" lon="3.5077">
        <ele>1249.8</ele>
        <time>2026-05-28T10:44:40.999Z</time>
      </trkpt>
      <trkpt lat="44.02835" lon="3.50772">
        <ele>1250.1</ele>
        <time>2026-05-28T10:44:41.999Z</time>
      </trkpt>
      <trkpt lat="44.02836" lon="3.50773">
        <ele>1250.4</ele>
        <time>2026-05-28T10:44:42.999Z</time>
      </trkpt>
      <trkpt lat="44.02836" lon="3.50772">
        <ele>1250.2</ele>
        <time>2026-05-28T10:44:43.999Z</time>
      </trkpt>
      <trkpt lat="44.02837" lon="3.50772">
        <ele>1250.2</ele>
        <time>2026-05-28T10:44:44.999Z</time>
      </trkpt>
      <trkpt lat="44.02837" lon="3.50773">
        <ele>1250.7</ele>
        <time>2026-05-28T10:44:45.999Z</time>
      </trkpt>
      <trkpt lat="44.02838" lon="3.50773">
        <ele>1250.8</ele>
        <time>2026-05-28T10:44:46.999Z</time>
      </trkpt>
      <trkpt lat="44.02839" lon="3.50772">
        <ele>1251.1</ele>
        <time>2026-05-28T10:44:47.999Z</time>
      </trkpt>
      <trkpt lat="44.02841" lon="3.50772">
        <ele>1250.9</ele>
        <time>2026-05-28T10:44:48.999Z</time>
      </trkpt>
      <trkpt lat="44.02842" lon="3.50772">
        <ele>1250.8</ele>
        <time>2026-05-28T10:44:49.999Z</time>
      </trkpt>
      <trkpt lat="44.02844" lon="3.50773">
        <ele>1251</ele>
        <time>2026-05-28T10:44:50.999Z</time>
      </trkpt>
      <trkpt lat="44.02845" lon="3.50773">
        <ele>1251.3</ele>
        <time>2026-05-28T10:44:51.999Z</time>
      </trkpt>
      <trkpt lat="44.02846" lon="3.50773">
        <ele>1251.8</ele>
        <time>2026-05-28T10:44:52.999Z</time>
      </trkpt>
      <trkpt lat="44.02846" lon="3.50774">
        <ele>1251.9</ele>
        <time>2026-05-28T10:44:53.999Z</time>
      </trkpt>
      <trkpt lat="44.02847" lon="3.50774">
        <ele>1252</ele>
        <time>2026-05-28T10:44:54.999Z</time>
      </trkpt>
      <trkpt lat="44.02847" lon="3.50775">
        <ele>1252.3</ele>
        <time>2026-05-28T10:44:55.999Z</time>
      </trkpt>
      <trkpt lat="44.02848" lon="3.50775">
        <ele>1251.8</ele>
        <time>2026-05-28T10:44:56.999Z</time>
      </trkpt>
      <trkpt lat="44.02849" lon="3.50775">
        <ele>1251.4</ele>
        <time>2026-05-28T10:44:57.999Z</time>
      </trkpt>
      <trkpt lat="44.0285" lon="3.50776">
        <ele>1252.1</ele>
        <time>2026-05-28T10:44:58.999Z</time>
      </trkpt>
      <trkpt lat="44.02851" lon="3.50776">
        <ele>1252</ele>
        <time>2026-05-28T10:44:59.999Z</time>
      </trkpt>
      <trkpt lat="44.02851" lon="3.50776">
        <ele>1251.4</ele>
        <time>2026-05-28T10:45:00.999Z</time>
      </trkpt>
      <trkpt lat="44.02851" lon="3.50776">
        <ele>1251.3</ele>
        <time>2026-05-28T10:45:01.999Z</time>
      </trkpt>
      <trkpt lat="44.02851" lon="3.50776">
        <ele>1250.7</ele>
        <time>2026-05-28T10:45:02.999Z</time>
      </trkpt>
      <trkpt lat="44.02851" lon="3.50776">
        <ele>1251.3</ele>
        <time>2026-05-28T10:45:03.999Z</time>
      </trkpt>
      <trkpt lat="44.02852" lon="3.50776">
        <ele>1251.1</ele>
        <time>2026-05-28T10:45:04.999Z</time>
      </trkpt>
      <trkpt lat="44.02852" lon="3.50775">
        <ele>1250.9</ele>
        <time>2026-05-28T10:45:05.999Z</time>
      </trkpt>
      <trkpt lat="44.02853" lon="3.50774">
        <ele>1251</ele>
        <time>2026-05-28T10:45:06.999Z</time>
      </trkpt>
      <trkpt lat="44.02853" lon="3.50773">
        <ele>1251.1</ele>
        <time>2026-05-28T10:45:07.999Z</time>
      </trkpt>
      <trkpt lat="44.02854" lon="3.50772">
        <ele>1251.2</ele>
        <time>2026-05-28T10:45:08.999Z</time>
      </trkpt>
      <trkpt lat="44.02855" lon="3.50772">
        <ele>1251.1</ele>
        <time>2026-05-28T10:45:09.999Z</time>
      </trkpt>
      <trkpt lat="44.02857" lon="3.50772">
        <ele>1251</ele>
        <time>2026-05-28T10:45:10.999Z</time>
      </trkpt>
      <trkpt lat="44.02859" lon="3.50772">
        <ele>1250.7</ele>
        <time>2026-05-28T10:45:11.999Z</time>
      </trkpt>
      <trkpt lat="44.0286" lon="3.50773">
        <ele>1250.3</ele>
        <time>2026-05-28T10:45:12.999Z</time>
      </trkpt>
      <trkpt lat="44.02861" lon="3.50775">
        <ele>1250.1</ele>
        <time>2026-05-28T10:45:13.999Z</time>
      </trkpt>
      <trkpt lat="44.02861" lon="3.50775">
        <ele>1249.9</ele>
        <time>2026-05-28T10:45:14.999Z</time>
      </trkpt>
      <trkpt lat="44.02861" lon="3.50777">
        <ele>1250.1</ele>
        <time>2026-05-28T10:45:15.999Z</time>
      </trkpt>
      <trkpt lat="44.02861" lon="3.50779">
        <ele>1250.7</ele>
        <time>2026-05-28T10:45:16.999Z</time>
      </trkpt>
      <trkpt lat="44.02861" lon="3.50779">
        <ele>1250.6</ele>
        <time>2026-05-28T10:45:17.999Z</time>
      </trkpt>
      <trkpt lat="44.02861" lon="3.50779">
        <ele>1251</ele>
        <time>2026-05-28T10:45:18.999Z</time>
      </trkpt>
      <trkpt lat="44.02862" lon="3.50779">
        <ele>1251.1</ele>
        <time>2026-05-28T10:45:19.999Z</time>
      </trkpt>
      <trkpt lat="44.02862" lon="3.50779">
        <ele>1251.6</ele>
        <time>2026-05-28T10:45:20.999Z</time>
      </trkpt>
      <trkpt lat="44.02862" lon="3.50779">
        <ele>1251.8</ele>
        <time>2026-05-28T10:45:21.999Z</time>
      </trkpt>
      <trkpt lat="44.02862" lon="3.5078">
        <ele>1252.3</ele>
        <time>2026-05-28T10:45:22.999Z</time>
      </trkpt>
      <trkpt lat="44.02862" lon="3.5078">
        <ele>1252.3</ele>
        <time>2026-05-28T10:45:23.999Z</time>
      </trkpt>
      <trkpt lat="44.02863" lon="3.50779">
        <ele>1252.5</ele>
        <time>2026-05-28T10:45:24.999Z</time>
      </trkpt>
      <trkpt lat="44.02863" lon="3.50779">
        <ele>1252.7</ele>
        <time>2026-05-28T10:45:25.999Z</time>
      </trkpt>
      <trkpt lat="44.02863" lon="3.50779">
        <ele>1252.7</ele>
        <time>2026-05-28T10:45:26.999Z</time>
      </trkpt>
      <trkpt lat="44.02864" lon="3.50779">
        <ele>1252.4</ele>
        <time>2026-05-28T10:45:27.999Z</time>
      </trkpt>
      <trkpt lat="44.02864" lon="3.50779">
        <ele>1252.4</ele>
        <time>2026-05-28T10:45:28.999Z</time>
      </trkpt>
      <trkpt lat="44.02864" lon="3.50779">
        <ele>1252.3</ele>
        <time>2026-05-28T10:45:29.999Z</time>
      </trkpt>
      <trkpt lat="44.02864" lon="3.50781">
        <ele>1252.1</ele>
        <time>2026-05-28T10:45:30.999Z</time>
      </trkpt>
      <trkpt lat="44.02865" lon="3.50783">
        <ele>1252</ele>
        <time>2026-05-28T10:45:31.999Z</time>
      </trkpt>
      <trkpt lat="44.02867" lon="3.50784">
        <ele>1252.4</ele>
        <time>2026-05-28T10:45:32.999Z</time>
      </trkpt>
      <trkpt lat="44.02868" lon="3.50784">
        <ele>1252.8</ele>
        <time>2026-05-28T10:45:33.999Z</time>
      </trkpt>
      <trkpt lat="44.02868" lon="3.50784">
        <ele>1253.4</ele>
        <time>2026-05-28T10:45:34.999Z</time>
      </trkpt>
      <trkpt lat="44.02868" lon="3.50784">
        <ele>1254.2</ele>
        <time>2026-05-28T10:45:35.999Z</time>
      </trkpt>
      <trkpt lat="44.02868" lon="3.50784">
        <ele>1255</ele>
        <time>2026-05-28T10:45:36.999Z</time>
      </trkpt>
      <trkpt lat="44.02868" lon="3.50784">
        <ele>1255.2</ele>
        <time>2026-05-28T10:45:37.999Z</time>
      </trkpt>
      <trkpt lat="44.02868" lon="3.50785">
        <ele>1255.7</ele>
        <time>2026-05-28T10:45:38.999Z</time>
      </trkpt>
      <trkpt lat="44.02869" lon="3.50784">
        <ele>1256</ele>
        <time>2026-05-28T10:45:39.999Z</time>
      </trkpt>
      <trkpt lat="44.0287" lon="3.50784">
        <ele>1256.5</ele>
        <time>2026-05-28T10:45:40.999Z</time>
      </trkpt>
      <trkpt lat="44.02871" lon="3.50785">
        <ele>1257.2</ele>
        <time>2026-05-28T10:45:41.999Z</time>
      </trkpt>
      <trkpt lat="44.02872" lon="3.50786">
        <ele>1257.5</ele>
        <time>2026-05-28T10:45:42.999Z</time>
      </trkpt>
      <trkpt lat="44.02873" lon="3.50786">
        <ele>1257.7</ele>
        <time>2026-05-28T10:45:43.999Z</time>
      </trkpt>
      <trkpt lat="44.02873" lon="3.50786">
        <ele>1257.9</ele>
        <time>2026-05-28T10:45:44.999Z</time>
      </trkpt>
      <trkpt lat="44.02873" lon="3.50786">
        <ele>1258.1</ele>
        <time>2026-05-28T10:45:45.999Z</time>
      </trkpt>
      <trkpt lat="44.02873" lon="3.50786">
        <ele>1258.1</ele>
        <time>2026-05-28T10:45:46.999Z</time>
      </trkpt>
      <trkpt lat="44.02873" lon="3.50787">
        <ele>1257.9</ele>
        <time>2026-05-28T10:45:47.999Z</time>
      </trkpt>
      <trkpt lat="44.02873" lon="3.50787">
        <ele>1258.2</ele>
        <time>2026-05-28T10:45:48.999Z</time>
      </trkpt>
      <trkpt lat="44.02873" lon="3.50787">
        <ele>1258.1</ele>
        <time>2026-05-28T10:45:49.999Z</time>
      </trkpt>
      <trkpt lat="44.02873" lon="3.50787">
        <ele>1258.2</ele>
        <time>2026-05-28T10:45:50.999Z</time>
      </trkpt>
      <trkpt lat="44.02874" lon="3.50787">
        <ele>1258.1</ele>
        <time>2026-05-28T10:45:51.999Z</time>
      </trkpt>
      <trkpt lat="44.02874" lon="3.50787">
        <ele>1258</ele>
        <time>2026-05-28T10:45:52.999Z</time>
      </trkpt>
      <trkpt lat="44.02874" lon="3.50787">
        <ele>1257.7</ele>
        <time>2026-05-28T10:45:53.999Z</time>
      </trkpt>
      <trkpt lat="44.02874" lon="3.50787">
        <ele>1257.7</ele>
        <time>2026-05-28T10:45:54.999Z</time>
      </trkpt>
      <trkpt lat="44.02874" lon="3.50788">
        <ele>1257.7</ele>
        <time>2026-05-28T10:45:55.999Z</time>
      </trkpt>
      <trkpt lat="44.02873" lon="3.50789">
        <ele>1257.2</ele>
        <time>2026-05-28T10:45:56.999Z</time>
      </trkpt>
      <trkpt lat="44.02874" lon="3.5079">
        <ele>1256.8</ele>
        <time>2026-05-28T10:45:57.999Z</time>
      </trkpt>
      <trkpt lat="44.02875" lon="3.50791">
        <ele>1256.9</ele>
        <time>2026-05-28T10:45:58.999Z</time>
      </trkpt>
      <trkpt lat="44.02876" lon="3.50791">
        <ele>1257.2</ele>
        <time>2026-05-28T10:45:59.999Z</time>
      </trkpt>
      <trkpt lat="44.02878" lon="3.50792">
        <ele>1257.8</ele>
        <time>2026-05-28T10:46:00.999Z</time>
      </trkpt>
      <trkpt lat="44.02879" lon="3.50793">
        <ele>1258.1</ele>
        <time>2026-05-28T10:46:01.999Z</time>
      </trkpt>
      <trkpt lat="44.0288" lon="3.50792">
        <ele>1258.7</ele>
        <time>2026-05-28T10:46:02.999Z</time>
      </trkpt>
      <trkpt lat="44.02881" lon="3.50793">
        <ele>1259</ele>
        <time>2026-05-28T10:46:03.999Z</time>
      </trkpt>
      <trkpt lat="44.02882" lon="3.50794">
        <ele>1258.9</ele>
        <time>2026-05-28T10:46:04.999Z</time>
      </trkpt>
      <trkpt lat="44.02883" lon="3.50795">
        <ele>1259.1</ele>
        <time>2026-05-28T10:46:05.999Z</time>
      </trkpt>
      <trkpt lat="44.02883" lon="3.50796">
        <ele>1259</ele>
        <time>2026-05-28T10:46:06.999Z</time>
      </trkpt>
      <trkpt lat="44.02884" lon="3.50798">
        <ele>1259.6</ele>
        <time>2026-05-28T10:46:07.999Z</time>
      </trkpt>
      <trkpt lat="44.02884" lon="3.50799">
        <ele>1259.8</ele>
        <time>2026-05-28T10:46:08.999Z</time>
      </trkpt>
      <trkpt lat="44.02886" lon="3.50798">
        <ele>1260</ele>
        <time>2026-05-28T10:46:09.999Z</time>
      </trkpt>
      <trkpt lat="44.02887" lon="3.50798">
        <ele>1259.9</ele>
        <time>2026-05-28T10:46:10.999Z</time>
      </trkpt>
      <trkpt lat="44.0289" lon="3.50794">
        <ele>1259</ele>
        <time>2026-05-28T10:46:12.999Z</time>
      </trkpt>
      <trkpt lat="44.0289" lon="3.50794">
        <ele>1258.4</ele>
        <time>2026-05-28T10:46:13.999Z</time>
      </trkpt>
      <trkpt lat="44.02891" lon="3.50792">
        <ele>1258.5</ele>
        <time>2026-05-28T10:46:14.999Z</time>
      </trkpt>
      <trkpt lat="44.02891" lon="3.50792">
        <ele>1259</ele>
        <time>2026-05-28T10:46:15.999Z</time>
      </trkpt>
      <trkpt lat="44.02891" lon="3.50792">
        <ele>1259</ele>
        <time>2026-05-28T10:46:16.999Z</time>
      </trkpt>
      <trkpt lat="44.02893" lon="3.50792">
        <ele>1259.7</ele>
        <time>2026-05-28T10:46:17.999Z</time>
      </trkpt>
      <trkpt lat="44.02893" lon="3.50793">
        <ele>1260.3</ele>
        <time>2026-05-28T10:46:18.999Z</time>
      </trkpt>
      <trkpt lat="44.02895" lon="3.50793">
        <ele>1260.7</ele>
        <time>2026-05-28T10:46:19.999Z</time>
      </trkpt>
      <trkpt lat="44.02895" lon="3.50794">
        <ele>1260.8</ele>
        <time>2026-05-28T10:46:20.999Z</time>
      </trkpt>
      <trkpt lat="44.02896" lon="3.50796">
        <ele>1261</ele>
        <time>2026-05-28T10:46:21.999Z</time>
      </trkpt>
      <trkpt lat="44.02897" lon="3.50797">
        <ele>1262.1</ele>
        <time>2026-05-28T10:46:22.999Z</time>
      </trkpt>
      <trkpt lat="44.02897" lon="3.50799">
        <ele>1262.9</ele>
        <time>2026-05-28T10:46:23.999Z</time>
      </trkpt>
      <trkpt lat="44.02897" lon="3.50799">
        <ele>1263.4</ele>
        <time>2026-05-28T10:46:24.999Z</time>
      </trkpt>
      <trkpt lat="44.02896" lon="3.508">
        <ele>1263.4</ele>
        <time>2026-05-28T10:46:25.999Z</time>
      </trkpt>
      <trkpt lat="44.02896" lon="3.50801">
        <ele>1264</ele>
        <time>2026-05-28T10:46:26.999Z</time>
      </trkpt>
      <trkpt lat="44.02897" lon="3.50802">
        <ele>1264.5</ele>
        <time>2026-05-28T10:46:27.999Z</time>
      </trkpt>
      <trkpt lat="44.02898" lon="3.50801">
        <ele>1264.2</ele>
        <time>2026-05-28T10:46:28.999Z</time>
      </trkpt>
      <trkpt lat="44.02898" lon="3.508">
        <ele>1262.7</ele>
        <time>2026-05-28T10:46:29.999Z</time>
      </trkpt>
      <trkpt lat="44.02897" lon="3.508">
        <ele>1262.6</ele>
        <time>2026-05-28T10:46:30.999Z</time>
      </trkpt>
      <trkpt lat="44.02897" lon="3.508">
        <ele>1263</ele>
        <time>2026-05-28T10:46:31.999Z</time>
      </trkpt>
      <trkpt lat="44.02897" lon="3.508">
        <ele>1263.1</ele>
        <time>2026-05-28T10:46:32.999Z</time>
      </trkpt>
      <trkpt lat="44.02897" lon="3.508">
        <ele>1263.5</ele>
        <time>2026-05-28T10:46:33.999Z</time>
      </trkpt>
      <trkpt lat="44.02897" lon="3.50799">
        <ele>1264.1</ele>
        <time>2026-05-28T10:46:34.999Z</time>
      </trkpt>
      <trkpt lat="44.02898" lon="3.50799">
        <ele>1264.1</ele>
        <time>2026-05-28T10:46:35.999Z</time>
      </trkpt>
      <trkpt lat="44.02897" lon="3.50799">
        <ele>1264.3</ele>
        <time>2026-05-28T10:46:36.999Z</time>
      </trkpt>
      <trkpt lat="44.02897" lon="3.50799">
        <ele>1264.5</ele>
        <time>2026-05-28T10:46:37.999Z</time>
      </trkpt>
      <trkpt lat="44.02897" lon="3.50798">
        <ele>1264.6</ele>
        <time>2026-05-28T10:46:38.999Z</time>
      </trkpt>
      <trkpt lat="44.02897" lon="3.50798">
        <ele>1262.6</ele>
        <time>2026-05-28T10:46:39.999Z</time>
      </trkpt>
      <trkpt lat="44.02896" lon="3.50798">
        <ele>1262.8</ele>
        <time>2026-05-28T10:46:40.999Z</time>
      </trkpt>
      <trkpt lat="44.02896" lon="3.50799">
        <ele>1263.2</ele>
        <time>2026-05-28T10:46:41.999Z</time>
      </trkpt>
      <trkpt lat="44.02896" lon="3.50798">
        <ele>1263.6</ele>
        <time>2026-05-28T10:46:42.999Z</time>
      </trkpt>
      <trkpt lat="44.02897" lon="3.50798">
        <ele>1264.3</ele>
        <time>2026-05-28T10:46:43.999Z</time>
      </trkpt>
      <trkpt lat="44.02898" lon="3.50798">
        <ele>1264.1</ele>
        <time>2026-05-28T10:46:44.999Z</time>
      </trkpt>
      <trkpt lat="44.02898" lon="3.50798">
        <ele>1263.9</ele>
        <time>2026-05-28T10:46:45.999Z</time>
      </trkpt>
      <trkpt lat="44.02899" lon="3.50797">
        <ele>1263.2</ele>
        <time>2026-05-28T10:46:46.999Z</time>
      </trkpt>
      <trkpt lat="44.02899" lon="3.50797">
        <ele>1262.9</ele>
        <time>2026-05-28T10:46:47.999Z</time>
      </trkpt>
      <trkpt lat="44.02899" lon="3.50797">
        <ele>1262.9</ele>
        <time>2026-05-28T10:46:48.999Z</time>
      </trkpt>
      <trkpt lat="44.02899" lon="3.50796">
        <ele>1263</ele>
        <time>2026-05-28T10:46:49.999Z</time>
      </trkpt>
      <trkpt lat="44.029" lon="3.50795">
        <ele>1263.3</ele>
        <time>2026-05-28T10:46:50.999Z</time>
      </trkpt>
      <trkpt lat="44.02901" lon="3.50794">
        <ele>1263.8</ele>
        <time>2026-05-28T10:46:51.999Z</time>
      </trkpt>
      <trkpt lat="44.02902" lon="3.50794">
        <ele>1264.1</ele>
        <time>2026-05-28T10:46:52.999Z</time>
      </trkpt>
      <trkpt lat="44.02901" lon="3.50795">
        <ele>1264.1</ele>
        <time>2026-05-28T10:46:53.999Z</time>
      </trkpt>
      <trkpt lat="44.02901" lon="3.50796">
        <ele>1263.9</ele>
        <time>2026-05-28T10:46:54.999Z</time>
      </trkpt>
      <trkpt lat="44.02901" lon="3.50797">
        <ele>1263.7</ele>
        <time>2026-05-28T10:46:55.999Z</time>
      </trkpt>
      <trkpt lat="44.02903" lon="3.50797">
        <ele>1263.8</ele>
        <time>2026-05-28T10:46:56.999Z</time>
      </trkpt>
      <trkpt lat="44.02904" lon="3.50798">
        <ele>1263.9</ele>
        <time>2026-05-28T10:46:57.999Z</time>
      </trkpt>
      <trkpt lat="44.02905" lon="3.50798">
        <ele>1264.2</ele>
        <time>2026-05-28T10:46:58.999Z</time>
      </trkpt>
      <trkpt lat="44.02907" lon="3.50798">
        <ele>1264.6</ele>
        <time>2026-05-28T10:46:59.999Z</time>
      </trkpt>
      <trkpt lat="44.02908" lon="3.50797">
        <ele>1264.9</ele>
        <time>2026-05-28T10:47:00.999Z</time>
      </trkpt>
      <trkpt lat="44.02909" lon="3.50797">
        <ele>1264.9</ele>
        <time>2026-05-28T10:47:01.999Z</time>
      </trkpt>
      <trkpt lat="44.0291" lon="3.50796">
        <ele>1265.1</ele>
        <time>2026-05-28T10:47:02.999Z</time>
      </trkpt>
      <trkpt lat="44.0291" lon="3.50795">
        <ele>1265.4</ele>
        <time>2026-05-28T10:47:03.999Z</time>
      </trkpt>
      <trkpt lat="44.02911" lon="3.50795">
        <ele>1265.8</ele>
        <time>2026-05-28T10:47:04.999Z</time>
      </trkpt>
      <trkpt lat="44.02911" lon="3.50795">
        <ele>1266.6</ele>
        <time>2026-05-28T10:47:06.999Z</time>
      </trkpt>
      <trkpt lat="44.02911" lon="3.50795">
        <ele>1264.7</ele>
        <time>2026-05-28T10:47:07.999Z</time>
      </trkpt>
      <trkpt lat="44.02911" lon="3.50795">
        <ele>1265.3</ele>
        <time>2026-05-28T10:47:08.999Z</time>
      </trkpt>
      <trkpt lat="44.02912" lon="3.50795">
        <ele>1265.9</ele>
        <time>2026-05-28T10:47:09.999Z</time>
      </trkpt>
      <trkpt lat="44.02912" lon="3.50796">
        <ele>1266</ele>
        <time>2026-05-28T10:47:10.999Z</time>
      </trkpt>
      <trkpt lat="44.02912" lon="3.50799">
        <ele>1266.1</ele>
        <time>2026-05-28T10:47:11.999Z</time>
      </trkpt>
      <trkpt lat="44.02913" lon="3.50802">
        <ele>1265.9</ele>
        <time>2026-05-28T10:47:12.999Z</time>
      </trkpt>
      <trkpt lat="44.02913" lon="3.50802">
        <ele>1264.9</ele>
        <time>2026-05-28T10:47:13.999Z</time>
      </trkpt>
      <trkpt lat="44.02913" lon="3.50802">
        <ele>1265.2</ele>
        <time>2026-05-28T10:47:14.999Z</time>
      </trkpt>
      <trkpt lat="44.02912" lon="3.50802">
        <ele>1265.1</ele>
        <time>2026-05-28T10:47:15.999Z</time>
      </trkpt>
      <trkpt lat="44.02912" lon="3.50802">
        <ele>1264.9</ele>
        <time>2026-05-28T10:47:16.999Z</time>
      </trkpt>
      <trkpt lat="44.02913" lon="3.50802">
        <ele>1264.6</ele>
        <time>2026-05-28T10:47:17.999Z</time>
      </trkpt>
      <trkpt lat="44.02913" lon="3.50802">
        <ele>1264.6</ele>
        <time>2026-05-28T10:47:18.999Z</time>
      </trkpt>
      <trkpt lat="44.02913" lon="3.50802">
        <ele>1264.8</ele>
        <time>2026-05-28T10:47:19.999Z</time>
      </trkpt>
      <trkpt lat="44.02913" lon="3.50802">
        <ele>1264.7</ele>
        <time>2026-05-28T10:47:20.999Z</time>
      </trkpt>
      <trkpt lat="44.02913" lon="3.50802">
        <ele>1264.6</ele>
        <time>2026-05-28T10:47:21.999Z</time>
      </trkpt>
      <trkpt lat="44.02914" lon="3.50803">
        <ele>1264.5</ele>
        <time>2026-05-28T10:47:22.999Z</time>
      </trkpt>
      <trkpt lat="44.02915" lon="3.50804">
        <ele>1264.5</ele>
        <time>2026-05-28T10:47:23.999Z</time>
      </trkpt>
      <trkpt lat="44.02916" lon="3.50805">
        <ele>1264.6</ele>
        <time>2026-05-28T10:47:24.999Z</time>
      </trkpt>
      <trkpt lat="44.02916" lon="3.50806">
        <ele>1264.2</ele>
        <time>2026-05-28T10:47:25.999Z</time>
      </trkpt>
      <trkpt lat="44.02917" lon="3.50806">
        <ele>1264.3</ele>
        <time>2026-05-28T10:47:26.999Z</time>
      </trkpt>
      <trkpt lat="44.02918" lon="3.50807">
        <ele>1264.1</ele>
        <time>2026-05-28T10:47:27.999Z</time>
      </trkpt>
      <trkpt lat="44.02919" lon="3.50807">
        <ele>1264</ele>
        <time>2026-05-28T10:47:28.999Z</time>
      </trkpt>
      <trkpt lat="44.02919" lon="3.50808">
        <ele>1263.8</ele>
        <time>2026-05-28T10:47:29.999Z</time>
      </trkpt>
      <trkpt lat="44.0292" lon="3.50809">
        <ele>1263.6</ele>
        <time>2026-05-28T10:47:30.999Z</time>
      </trkpt>
      <trkpt lat="44.0292" lon="3.50809">
        <ele>1263.4</ele>
        <time>2026-05-28T10:47:31.999Z</time>
      </trkpt>
      <trkpt lat="44.02921" lon="3.5081">
        <ele>1263.2</ele>
        <time>2026-05-28T10:47:32.999Z</time>
      </trkpt>
      <trkpt lat="44.02922" lon="3.50809">
        <ele>1263.6</ele>
        <time>2026-05-28T10:47:33.999Z</time>
      </trkpt>
      <trkpt lat="44.02923" lon="3.5081">
        <ele>1264.4</ele>
        <time>2026-05-28T10:47:34.999Z</time>
      </trkpt>
      <trkpt lat="44.02922" lon="3.5081">
        <ele>1265.1</ele>
        <time>2026-05-28T10:47:35.999Z</time>
      </trkpt>
      <trkpt lat="44.02922" lon="3.50811">
        <ele>1265.5</ele>
        <time>2026-05-28T10:47:36.999Z</time>
      </trkpt>
      <trkpt lat="44.02923" lon="3.50811">
        <ele>1268.8</ele>
        <time>2026-05-28T10:47:37.999Z</time>
      </trkpt>
      <trkpt lat="44.02923" lon="3.50811">
        <ele>1269.3</ele>
        <time>2026-05-28T10:47:38.999Z</time>
      </trkpt>
      <trkpt lat="44.02923" lon="3.50811">
        <ele>1269.7</ele>
        <time>2026-05-28T10:47:39.999Z</time>
      </trkpt>
      <trkpt lat="44.02923" lon="3.50812">
        <ele>1270.2</ele>
        <time>2026-05-28T10:47:41.999Z</time>
      </trkpt>
      <trkpt lat="44.02924" lon="3.50812">
        <ele>1270.3</ele>
        <time>2026-05-28T10:47:42.999Z</time>
      </trkpt>
      <trkpt lat="44.02925" lon="3.50813">
        <ele>1270.5</ele>
        <time>2026-05-28T10:47:43.999Z</time>
      </trkpt>
      <trkpt lat="44.02925" lon="3.50813">
        <ele>1270.3</ele>
        <time>2026-05-28T10:47:44.999Z</time>
      </trkpt>
      <trkpt lat="44.02925" lon="3.50815">
        <ele>1270.4</ele>
        <time>2026-05-28T10:47:45.999Z</time>
      </trkpt>
      <trkpt lat="44.02926" lon="3.50817">
        <ele>1270.6</ele>
        <time>2026-05-28T10:47:46.999Z</time>
      </trkpt>
      <trkpt lat="44.02926" lon="3.50818">
        <ele>1270.9</ele>
        <time>2026-05-28T10:47:47.999Z</time>
      </trkpt>
      <trkpt lat="44.02927" lon="3.5082">
        <ele>1271.8</ele>
        <time>2026-05-28T10:47:48.999Z</time>
      </trkpt>
      <trkpt lat="44.02927" lon="3.50821">
        <ele>1271.9</ele>
        <time>2026-05-28T10:47:49.999Z</time>
      </trkpt>
      <trkpt lat="44.02928" lon="3.50821">
        <ele>1271.9</ele>
        <time>2026-05-28T10:47:50.999Z</time>
      </trkpt>
      <trkpt lat="44.02929" lon="3.5082">
        <ele>1272.1</ele>
        <time>2026-05-28T10:47:51.999Z</time>
      </trkpt>
      <trkpt lat="44.02931" lon="3.50819">
        <ele>1271.4</ele>
        <time>2026-05-28T10:47:52.999Z</time>
      </trkpt>
      <trkpt lat="44.02932" lon="3.50818">
        <ele>1270.6</ele>
        <time>2026-05-28T10:47:53.999Z</time>
      </trkpt>
      <trkpt lat="44.02933" lon="3.50817">
        <ele>1270.4</ele>
        <time>2026-05-28T10:47:54.999Z</time>
      </trkpt>
      <trkpt lat="44.02935" lon="3.50817">
        <ele>1269.8</ele>
        <time>2026-05-28T10:47:55.999Z</time>
      </trkpt>
      <trkpt lat="44.02936" lon="3.50815">
        <ele>1269.8</ele>
        <time>2026-05-28T10:47:56.999Z</time>
      </trkpt>
      <trkpt lat="44.02937" lon="3.50815">
        <ele>1269.7</ele>
        <time>2026-05-28T10:47:57.999Z</time>
      </trkpt>
      <trkpt lat="44.02937" lon="3.50815">
        <ele>1269.9</ele>
        <time>2026-05-28T10:47:58.999Z</time>
      </trkpt>
      <trkpt lat="44.02938" lon="3.50815">
        <ele>1270.1</ele>
        <time>2026-05-28T10:47:59.999Z</time>
      </trkpt>
      <trkpt lat="44.02938" lon="3.50816">
        <ele>1270.3</ele>
        <time>2026-05-28T10:48:00.999Z</time>
      </trkpt>
      <trkpt lat="44.02939" lon="3.50817">
        <ele>1270.2</ele>
        <time>2026-05-28T10:48:01.999Z</time>
      </trkpt>
      <trkpt lat="44.02939" lon="3.50819">
        <ele>1270.5</ele>
        <time>2026-05-28T10:48:02.999Z</time>
      </trkpt>
      <trkpt lat="44.0294" lon="3.5082">
        <ele>1270.4</ele>
        <time>2026-05-28T10:48:03.999Z</time>
      </trkpt>
      <trkpt lat="44.0294" lon="3.50821">
        <ele>1270.2</ele>
        <time>2026-05-28T10:48:04.999Z</time>
      </trkpt>
      <trkpt lat="44.02941" lon="3.50822">
        <ele>1270.1</ele>
        <time>2026-05-28T10:48:05.999Z</time>
      </trkpt>
      <trkpt lat="44.02942" lon="3.50823">
        <ele>1269.5</ele>
        <time>2026-05-28T10:48:06.999Z</time>
      </trkpt>
      <trkpt lat="44.02943" lon="3.50823">
        <ele>1268.8</ele>
        <time>2026-05-28T10:48:07.999Z</time>
      </trkpt>
      <trkpt lat="44.02944" lon="3.50823">
        <ele>1268.5</ele>
        <time>2026-05-28T10:48:08.999Z</time>
      </trkpt>
      <trkpt lat="44.02945" lon="3.50824">
        <ele>1268.1</ele>
        <time>2026-05-28T10:48:09.999Z</time>
      </trkpt>
      <trkpt lat="44.02946" lon="3.50824">
        <ele>1267.1</ele>
        <time>2026-05-28T10:48:10.999Z</time>
      </trkpt>
      <trkpt lat="44.02946" lon="3.50825">
        <ele>1266.6</ele>
        <time>2026-05-28T10:48:11.999Z</time>
      </trkpt>
      <trkpt lat="44.02947" lon="3.50826">
        <ele>1266.5</ele>
        <time>2026-05-28T10:48:12.999Z</time>
      </trkpt>
      <trkpt lat="44.02948" lon="3.50826">
        <ele>1266.7</ele>
        <time>2026-05-28T10:48:13.999Z</time>
      </trkpt>
      <trkpt lat="44.02949" lon="3.50827">
        <ele>1266.8</ele>
        <time>2026-05-28T10:48:14.999Z</time>
      </trkpt>
      <trkpt lat="44.0295" lon="3.50827">
        <ele>1266.8</ele>
        <time>2026-05-28T10:48:15.999Z</time>
      </trkpt>
      <trkpt lat="44.02951" lon="3.50827">
        <ele>1266.9</ele>
        <time>2026-05-28T10:48:16.999Z</time>
      </trkpt>
      <trkpt lat="44.02952" lon="3.50827">
        <ele>1266.9</ele>
        <time>2026-05-28T10:48:17.999Z</time>
      </trkpt>
      <trkpt lat="44.02952" lon="3.50829">
        <ele>1268</ele>
        <time>2026-05-28T10:48:18.999Z</time>
      </trkpt>
      <trkpt lat="44.02953" lon="3.50829">
        <ele>1268.5</ele>
        <time>2026-05-28T10:48:19.999Z</time>
      </trkpt>
      <trkpt lat="44.02953" lon="3.5083">
        <ele>1268.7</ele>
        <time>2026-05-28T10:48:20.999Z</time>
      </trkpt>
      <trkpt lat="44.02954" lon="3.50832">
        <ele>1269.2</ele>
        <time>2026-05-28T10:48:22.999Z</time>
      </trkpt>
      <trkpt lat="44.02954" lon="3.50832">
        <ele>1269.1</ele>
        <time>2026-05-28T10:48:23.999Z</time>
      </trkpt>
      <trkpt lat="44.02955" lon="3.50831">
        <ele>1269</ele>
        <time>2026-05-28T10:48:24.999Z</time>
      </trkpt>
      <trkpt lat="44.02955" lon="3.50832">
        <ele>1269.1</ele>
        <time>2026-05-28T10:48:25.999Z</time>
      </trkpt>
      <trkpt lat="44.02955" lon="3.50833">
        <ele>1268.6</ele>
        <time>2026-05-28T10:48:26.999Z</time>
      </trkpt>
      <trkpt lat="44.02956" lon="3.50833">
        <ele>1268.7</ele>
        <time>2026-05-28T10:48:27.999Z</time>
      </trkpt>
      <trkpt lat="44.02956" lon="3.50834">
        <ele>1269.4</ele>
        <time>2026-05-28T10:48:28.999Z</time>
      </trkpt>
      <trkpt lat="44.02957" lon="3.50835">
        <ele>1269.7</ele>
        <time>2026-05-28T10:48:29.999Z</time>
      </trkpt>
      <trkpt lat="44.02958" lon="3.50836">
        <ele>1271</ele>
        <time>2026-05-28T10:48:30.999Z</time>
      </trkpt>
      <trkpt lat="44.02958" lon="3.50837">
        <ele>1271.3</ele>
        <time>2026-05-28T10:48:31.999Z</time>
      </trkpt>
      <trkpt lat="44.02959" lon="3.50837">
        <ele>1271.1</ele>
        <time>2026-05-28T10:48:32.999Z</time>
      </trkpt>
      <trkpt lat="44.02959" lon="3.50837">
        <ele>1270.7</ele>
        <time>2026-05-28T10:48:34.999Z</time>
      </trkpt>
      <trkpt lat="44.02959" lon="3.50837">
        <ele>1270.5</ele>
        <time>2026-05-28T10:48:35.999Z</time>
      </trkpt>
      <trkpt lat="44.02959" lon="3.50837">
        <ele>1270.3</ele>
        <time>2026-05-28T10:48:36.999Z</time>
      </trkpt>
      <trkpt lat="44.02959" lon="3.50837">
        <ele>1270</ele>
        <time>2026-05-28T10:48:37.999Z</time>
      </trkpt>
      <trkpt lat="44.02959" lon="3.50837">
        <ele>1270.5</ele>
        <time>2026-05-28T10:48:38.999Z</time>
      </trkpt>
      <trkpt lat="44.02959" lon="3.50837">
        <ele>1271.1</ele>
        <time>2026-05-28T10:48:39.999Z</time>
      </trkpt>
      <trkpt lat="44.02959" lon="3.50836">
        <ele>1271.7</ele>
        <time>2026-05-28T10:48:40.999Z</time>
      </trkpt>
      <trkpt lat="44.02959" lon="3.50836">
        <ele>1272</ele>
        <time>2026-05-28T10:48:41.999Z</time>
      </trkpt>
      <trkpt lat="44.02959" lon="3.50836">
        <ele>1272.8</ele>
        <time>2026-05-28T10:48:42.999Z</time>
      </trkpt>
      <trkpt lat="44.02959" lon="3.50836">
        <ele>1273</ele>
        <time>2026-05-28T10:48:43.999Z</time>
      </trkpt>
      <trkpt lat="44.02959" lon="3.50836">
        <ele>1273.2</ele>
        <time>2026-05-28T10:48:44.999Z</time>
      </trkpt>
      <trkpt lat="44.02959" lon="3.50836">
        <ele>1273.1</ele>
        <time>2026-05-28T10:48:45.999Z</time>
      </trkpt>
      <trkpt lat="44.02959" lon="3.50834">
        <ele>1273.1</ele>
        <time>2026-05-28T10:48:46.999Z</time>
      </trkpt>
      <trkpt lat="44.0296" lon="3.50832">
        <ele>1273.1</ele>
        <time>2026-05-28T10:48:47.999Z</time>
      </trkpt>
      <trkpt lat="44.0296" lon="3.5083">
        <ele>1273.1</ele>
        <time>2026-05-28T10:48:48.999Z</time>
      </trkpt>
      <trkpt lat="44.0296" lon="3.50828">
        <ele>1273.2</ele>
        <time>2026-05-28T10:48:49.999Z</time>
      </trkpt>
      <trkpt lat="44.0296" lon="3.50826">
        <ele>1273.2</ele>
        <time>2026-05-28T10:48:50.999Z</time>
      </trkpt>
      <trkpt lat="44.0296" lon="3.50824">
        <ele>1273.3</ele>
        <time>2026-05-28T10:48:51.999Z</time>
      </trkpt>
      <trkpt lat="44.0296" lon="3.50823">
        <ele>1273.6</ele>
        <time>2026-05-28T10:48:52.999Z</time>
      </trkpt>
      <trkpt lat="44.0296" lon="3.50822">
        <ele>1274.1</ele>
        <time>2026-05-28T10:48:53.999Z</time>
      </trkpt>
      <trkpt lat="44.0296" lon="3.50821">
        <ele>1274.7</ele>
        <time>2026-05-28T10:48:54.999Z</time>
      </trkpt>
      <trkpt lat="44.0296" lon="3.5082">
        <ele>1274.9</ele>
        <time>2026-05-28T10:48:55.999Z</time>
      </trkpt>
      <trkpt lat="44.0296" lon="3.5082">
        <ele>1275.3</ele>
        <time>2026-05-28T10:48:56.999Z</time>
      </trkpt>
      <trkpt lat="44.02961" lon="3.5082">
        <ele>1275.5</ele>
        <time>2026-05-28T10:48:57.999Z</time>
      </trkpt>
      <trkpt lat="44.02961" lon="3.50821">
        <ele>1275.2</ele>
        <time>2026-05-28T10:48:58.999Z</time>
      </trkpt>
      <trkpt lat="44.02961" lon="3.50823">
        <ele>1275</ele>
        <time>2026-05-28T10:48:59.999Z</time>
      </trkpt>
      <trkpt lat="44.02961" lon="3.50824">
        <ele>1275.6</ele>
        <time>2026-05-28T10:49:01.999Z</time>
      </trkpt>
      <trkpt lat="44.02961" lon="3.50824">
        <ele>1275.9</ele>
        <time>2026-05-28T10:49:02.999Z</time>
      </trkpt>
      <trkpt lat="44.02961" lon="3.50824">
        <ele>1276.3</ele>
        <time>2026-05-28T10:49:03.999Z</time>
      </trkpt>
      <trkpt lat="44.02961" lon="3.50824">
        <ele>1276.6</ele>
        <time>2026-05-28T10:49:04.999Z</time>
      </trkpt>
      <trkpt lat="44.02962" lon="3.50825">
        <ele>1277</ele>
        <time>2026-05-28T10:49:05.999Z</time>
      </trkpt>
      <trkpt lat="44.02962" lon="3.50828">
        <ele>1277.4</ele>
        <time>2026-05-28T10:49:06.999Z</time>
      </trkpt>
      <trkpt lat="44.02962" lon="3.50829">
        <ele>1273.5</ele>
        <time>2026-05-28T10:49:07.999Z</time>
      </trkpt>
      <trkpt lat="44.02963" lon="3.50829">
        <ele>1273.6</ele>
        <time>2026-05-28T10:49:08.999Z</time>
      </trkpt>
      <trkpt lat="44.02963" lon="3.5083">
        <ele>1273.7</ele>
        <time>2026-05-28T10:49:09.999Z</time>
      </trkpt>
      <trkpt lat="44.02962" lon="3.5083">
        <ele>1274.9</ele>
        <time>2026-05-28T10:49:10.999Z</time>
      </trkpt>
      <trkpt lat="44.02962" lon="3.50832">
        <ele>1275.2</ele>
        <time>2026-05-28T10:49:11.999Z</time>
      </trkpt>
      <trkpt lat="44.02962" lon="3.50834">
        <ele>1275.2</ele>
        <time>2026-05-28T10:49:12.999Z</time>
      </trkpt>
      <trkpt lat="44.02962" lon="3.50834">
        <ele>1274.5</ele>
        <time>2026-05-28T10:49:13.999Z</time>
      </trkpt>
      <trkpt lat="44.02962" lon="3.50834">
        <ele>1274.3</ele>
        <time>2026-05-28T10:49:14.999Z</time>
      </trkpt>
      <trkpt lat="44.02962" lon="3.50834">
        <ele>1274.1</ele>
        <time>2026-05-28T10:49:15.999Z</time>
      </trkpt>
      <trkpt lat="44.02962" lon="3.50834">
        <ele>1274.2</ele>
        <time>2026-05-28T10:49:16.999Z</time>
      </trkpt>
      <trkpt lat="44.02962" lon="3.50835">
        <ele>1274.3</ele>
        <time>2026-05-28T10:49:17.999Z</time>
      </trkpt>
      <trkpt lat="44.02963" lon="3.50836">
        <ele>1274.3</ele>
        <time>2026-05-28T10:49:18.999Z</time>
      </trkpt>
      <trkpt lat="44.02964" lon="3.50837">
        <ele>1274.3</ele>
        <time>2026-05-28T10:49:19.999Z</time>
      </trkpt>
      <trkpt lat="44.02964" lon="3.50837">
        <ele>1274</ele>
        <time>2026-05-28T10:49:20.999Z</time>
      </trkpt>
      <trkpt lat="44.02964" lon="3.50837">
        <ele>1273.8</ele>
        <time>2026-05-28T10:49:21.999Z</time>
      </trkpt>
      <trkpt lat="44.02965" lon="3.50837">
        <ele>1273.6</ele>
        <time>2026-05-28T10:49:22.999Z</time>
      </trkpt>
      <trkpt lat="44.02966" lon="3.50838">
        <ele>1273.3</ele>
        <time>2026-05-28T10:49:23.999Z</time>
      </trkpt>
      <trkpt lat="44.02966" lon="3.50839">
        <ele>1272.9</ele>
        <time>2026-05-28T10:49:24.999Z</time>
      </trkpt>
      <trkpt lat="44.02967" lon="3.5084">
        <ele>1272.6</ele>
        <time>2026-05-28T10:49:25.999Z</time>
      </trkpt>
      <trkpt lat="44.02968" lon="3.5084">
        <ele>1272.4</ele>
        <time>2026-05-28T10:49:26.999Z</time>
      </trkpt>
      <trkpt lat="44.02968" lon="3.50842">
        <ele>1272.1</ele>
        <time>2026-05-28T10:49:27.999Z</time>
      </trkpt>
      <trkpt lat="44.02969" lon="3.50842">
        <ele>1271.8</ele>
        <time>2026-05-28T10:49:28.999Z</time>
      </trkpt>
      <trkpt lat="44.0297" lon="3.50842">
        <ele>1271.8</ele>
        <time>2026-05-28T10:49:29.999Z</time>
      </trkpt>
      <trkpt lat="44.0297" lon="3.50841">
        <ele>1271.2</ele>
        <time>2026-05-28T10:49:30.999Z</time>
      </trkpt>
      <trkpt lat="44.0297" lon="3.50842">
        <ele>1270.8</ele>
        <time>2026-05-28T10:49:31.999Z</time>
      </trkpt>
      <trkpt lat="44.02971" lon="3.50841">
        <ele>1270.5</ele>
        <time>2026-05-28T10:49:32.999Z</time>
      </trkpt>
      <trkpt lat="44.02972" lon="3.50842">
        <ele>1270.3</ele>
        <time>2026-05-28T10:49:33.999Z</time>
      </trkpt>
      <trkpt lat="44.02973" lon="3.50842">
        <ele>1270.2</ele>
        <time>2026-05-28T10:49:34.999Z</time>
      </trkpt>
      <trkpt lat="44.02974" lon="3.50841">
        <ele>1270.4</ele>
        <time>2026-05-28T10:49:35.999Z</time>
      </trkpt>
      <trkpt lat="44.02976" lon="3.50842">
        <ele>1270.2</ele>
        <time>2026-05-28T10:49:36.999Z</time>
      </trkpt>
      <trkpt lat="44.02977" lon="3.50842">
        <ele>1270.5</ele>
        <time>2026-05-28T10:49:37.999Z</time>
      </trkpt>
      <trkpt lat="44.02978" lon="3.50842">
        <ele>1269.6</ele>
        <time>2026-05-28T10:49:38.999Z</time>
      </trkpt>
      <trkpt lat="44.02979" lon="3.50842">
        <ele>1269</ele>
        <time>2026-05-28T10:49:39.999Z</time>
      </trkpt>
      <trkpt lat="44.02979" lon="3.50842">
        <ele>1268.3</ele>
        <time>2026-05-28T10:49:40.999Z</time>
      </trkpt>
      <trkpt lat="44.0298" lon="3.50843">
        <ele>1268</ele>
        <time>2026-05-28T10:49:41.999Z</time>
      </trkpt>
      <trkpt lat="44.02982" lon="3.50842">
        <ele>1268.2</ele>
        <time>2026-05-28T10:49:42.999Z</time>
      </trkpt>
      <trkpt lat="44.02983" lon="3.50842">
        <ele>1268</ele>
        <time>2026-05-28T10:49:43.999Z</time>
      </trkpt>
      <trkpt lat="44.02983" lon="3.50843">
        <ele>1268.1</ele>
        <time>2026-05-28T10:49:44.999Z</time>
      </trkpt>
      <trkpt lat="44.02983" lon="3.50844">
        <ele>1268.3</ele>
        <time>2026-05-28T10:49:45.999Z</time>
      </trkpt>
      <trkpt lat="44.02983" lon="3.50843">
        <ele>1271.9</ele>
        <time>2026-05-28T10:49:46.999Z</time>
      </trkpt>
      <trkpt lat="44.02983" lon="3.50844">
        <ele>1272.2</ele>
        <time>2026-05-28T10:49:47.999Z</time>
      </trkpt>
      <trkpt lat="44.02983" lon="3.50844">
        <ele>1272.4</ele>
        <time>2026-05-28T10:49:48.999Z</time>
      </trkpt>
      <trkpt lat="44.02983" lon="3.50845">
        <ele>1272</ele>
        <time>2026-05-28T10:49:49.999Z</time>
      </trkpt>
      <trkpt lat="44.02983" lon="3.50845">
        <ele>1271.6</ele>
        <time>2026-05-28T10:49:50.999Z</time>
      </trkpt>
      <trkpt lat="44.02984" lon="3.50844">
        <ele>1271.4</ele>
        <time>2026-05-28T10:49:51.999Z</time>
      </trkpt>
      <trkpt lat="44.02985" lon="3.50843">
        <ele>1270.6</ele>
        <time>2026-05-28T10:49:52.999Z</time>
      </trkpt>
      <trkpt lat="44.02986" lon="3.50843">
        <ele>1270.2</ele>
        <time>2026-05-28T10:49:53.999Z</time>
      </trkpt>
      <trkpt lat="44.02986" lon="3.50843">
        <ele>1270.1</ele>
        <time>2026-05-28T10:49:54.999Z</time>
      </trkpt>
      <trkpt lat="44.02987" lon="3.50842">
        <ele>1269.8</ele>
        <time>2026-05-28T10:49:55.999Z</time>
      </trkpt>
      <trkpt lat="44.02986" lon="3.50843">
        <ele>1269.2</ele>
        <time>2026-05-28T10:49:56.999Z</time>
      </trkpt>
      <trkpt lat="44.02986" lon="3.50844">
        <ele>1269.3</ele>
        <time>2026-05-28T10:49:57.999Z</time>
      </trkpt>
      <trkpt lat="44.02987" lon="3.50843">
        <ele>1270.7</ele>
        <time>2026-05-28T10:49:58.999Z</time>
      </trkpt>
      <trkpt lat="44.02987" lon="3.50843">
        <ele>1270.8</ele>
        <time>2026-05-28T10:49:59.999Z</time>
      </trkpt>
      <trkpt lat="44.02987" lon="3.50843">
        <ele>1270.7</ele>
        <time>2026-05-28T10:50:00.999Z</time>
      </trkpt>
      <trkpt lat="44.02988" lon="3.50844">
        <ele>1269.6</ele>
        <time>2026-05-28T10:50:02.999Z</time>
      </trkpt>
      <trkpt lat="44.02988" lon="3.50844">
        <ele>1269.6</ele>
        <time>2026-05-28T10:50:03.999Z</time>
      </trkpt>
      <trkpt lat="44.02989" lon="3.50844">
        <ele>1270.1</ele>
        <time>2026-05-28T10:50:04.999Z</time>
      </trkpt>
      <trkpt lat="44.0299" lon="3.50844">
        <ele>1270.4</ele>
        <time>2026-05-28T10:50:05.999Z</time>
      </trkpt>
      <trkpt lat="44.02991" lon="3.50843">
        <ele>1270.6</ele>
        <time>2026-05-28T10:50:06.999Z</time>
      </trkpt>
      <trkpt lat="44.0299" lon="3.50843">
        <ele>1270.2</ele>
        <time>2026-05-28T10:50:07.999Z</time>
      </trkpt>
      <trkpt lat="44.0299" lon="3.50843">
        <ele>1270.2</ele>
        <time>2026-05-28T10:50:08.999Z</time>
      </trkpt>
      <trkpt lat="44.02991" lon="3.50843">
        <ele>1269.9</ele>
        <time>2026-05-28T10:50:09.999Z</time>
      </trkpt>
      <trkpt lat="44.02991" lon="3.50843">
        <ele>1269.5</ele>
        <time>2026-05-28T10:50:10.999Z</time>
      </trkpt>
      <trkpt lat="44.02992" lon="3.50843">
        <ele>1270</ele>
        <time>2026-05-28T10:50:11.999Z</time>
      </trkpt>
      <trkpt lat="44.02992" lon="3.50843">
        <ele>1270.1</ele>
        <time>2026-05-28T10:50:12.999Z</time>
      </trkpt>
      <trkpt lat="44.02992" lon="3.50843">
        <ele>1270.3</ele>
        <time>2026-05-28T10:50:13.999Z</time>
      </trkpt>
      <trkpt lat="44.02992" lon="3.50843">
        <ele>1270.1</ele>
        <time>2026-05-28T10:50:14.999Z</time>
      </trkpt>
      <trkpt lat="44.02992" lon="3.50843">
        <ele>1270.5</ele>
        <time>2026-05-28T10:50:15.999Z</time>
      </trkpt>
      <trkpt lat="44.02992" lon="3.50843">
        <ele>1270.9</ele>
        <time>2026-05-28T10:50:16.999Z</time>
      </trkpt>
      <trkpt lat="44.02993" lon="3.50843">
        <ele>1271.9</ele>
        <time>2026-05-28T10:50:17.999Z</time>
      </trkpt>
      <trkpt lat="44.02993" lon="3.50843">
        <ele>1271.5</ele>
        <time>2026-05-28T10:50:18.999Z</time>
      </trkpt>
      <trkpt lat="44.02993" lon="3.50843">
        <ele>1271</ele>
        <time>2026-05-28T10:50:19.999Z</time>
      </trkpt>
      <trkpt lat="44.02993" lon="3.50842">
        <ele>1270.2</ele>
        <time>2026-05-28T10:50:20.999Z</time>
      </trkpt>
      <trkpt lat="44.02993" lon="3.50842">
        <ele>1269.6</ele>
        <time>2026-05-28T10:50:21.999Z</time>
      </trkpt>
      <trkpt lat="44.02994" lon="3.50842">
        <ele>1269</ele>
        <time>2026-05-28T10:50:22.999Z</time>
      </trkpt>
      <trkpt lat="44.02994" lon="3.50842">
        <ele>1268.8</ele>
        <time>2026-05-28T10:50:23.999Z</time>
      </trkpt>
      <trkpt lat="44.02994" lon="3.50843">
        <ele>1268.7</ele>
        <time>2026-05-28T10:50:24.999Z</time>
      </trkpt>
      <trkpt lat="44.02995" lon="3.50844">
        <ele>1268.7</ele>
        <time>2026-05-28T10:50:25.999Z</time>
      </trkpt>
      <trkpt lat="44.02995" lon="3.50845">
        <ele>1268.6</ele>
        <time>2026-05-28T10:50:26.999Z</time>
      </trkpt>
      <trkpt lat="44.02996" lon="3.50845">
        <ele>1268.3</ele>
        <time>2026-05-28T10:50:27.999Z</time>
      </trkpt>
      <trkpt lat="44.02996" lon="3.50845">
        <ele>1268.8</ele>
        <time>2026-05-28T10:50:28.999Z</time>
      </trkpt>
      <trkpt lat="44.02996" lon="3.50845">
        <ele>1269.2</ele>
        <time>2026-05-28T10:50:29.999Z</time>
      </trkpt>
      <trkpt lat="44.02998" lon="3.50846">
        <ele>1269.8</ele>
        <time>2026-05-28T10:50:30.999Z</time>
      </trkpt>
      <trkpt lat="44.02999" lon="3.50846">
        <ele>1270</ele>
        <time>2026-05-28T10:50:31.999Z</time>
      </trkpt>
      <trkpt lat="44.03001" lon="3.50845">
        <ele>1270.5</ele>
        <time>2026-05-28T10:50:32.999Z</time>
      </trkpt>
      <trkpt lat="44.03002" lon="3.50845">
        <ele>1270.7</ele>
        <time>2026-05-28T10:50:33.999Z</time>
      </trkpt>
      <trkpt lat="44.03002" lon="3.50845">
        <ele>1270.9</ele>
        <time>2026-05-28T10:50:34.999Z</time>
      </trkpt>
      <trkpt lat="44.03002" lon="3.50845">
        <ele>1270.9</ele>
        <time>2026-05-28T10:50:35.999Z</time>
      </trkpt>
      <trkpt lat="44.03002" lon="3.50845">
        <ele>1271.3</ele>
        <time>2026-05-28T10:50:36.999Z</time>
      </trkpt>
      <trkpt lat="44.03002" lon="3.50845">
        <ele>1271.5</ele>
        <time>2026-05-28T10:50:37.999Z</time>
      </trkpt>
      <trkpt lat="44.03002" lon="3.50845">
        <ele>1271.8</ele>
        <time>2026-05-28T10:50:38.999Z</time>
      </trkpt>
      <trkpt lat="44.03002" lon="3.50845">
        <ele>1272.1</ele>
        <time>2026-05-28T10:50:39.999Z</time>
      </trkpt>
      <trkpt lat="44.03002" lon="3.50846">
        <ele>1272.5</ele>
        <time>2026-05-28T10:50:40.999Z</time>
      </trkpt>
      <trkpt lat="44.03002" lon="3.50846">
        <ele>1273</ele>
        <time>2026-05-28T10:50:41.999Z</time>
      </trkpt>
      <trkpt lat="44.03002" lon="3.50846">
        <ele>1272.9</ele>
        <time>2026-05-28T10:50:42.999Z</time>
      </trkpt>
      <trkpt lat="44.03003" lon="3.50846">
        <ele>1273.1</ele>
        <time>2026-05-28T10:50:43.999Z</time>
      </trkpt>
      <trkpt lat="44.03003" lon="3.50846">
        <ele>1273.4</ele>
        <time>2026-05-28T10:50:44.999Z</time>
      </trkpt>
      <trkpt lat="44.03003" lon="3.50846">
        <ele>1273.4</ele>
        <time>2026-05-28T10:50:45.999Z</time>
      </trkpt>
      <trkpt lat="44.03004" lon="3.50846">
        <ele>1273.3</ele>
        <time>2026-05-28T10:50:46.999Z</time>
      </trkpt>
      <trkpt lat="44.03004" lon="3.50847">
        <ele>1273.3</ele>
        <time>2026-05-28T10:50:47.999Z</time>
      </trkpt>
      <trkpt lat="44.03005" lon="3.50847">
        <ele>1273.4</ele>
        <time>2026-05-28T10:50:48.999Z</time>
      </trkpt>
      <trkpt lat="44.03005" lon="3.50847">
        <ele>1273.4</ele>
        <time>2026-05-28T10:50:49.999Z</time>
      </trkpt>
      <trkpt lat="44.03004" lon="3.50847">
        <ele>1273.3</ele>
        <time>2026-05-28T10:50:50.999Z</time>
      </trkpt>
      <trkpt lat="44.03005" lon="3.50848">
        <ele>1273.3</ele>
        <time>2026-05-28T10:50:51.999Z</time>
      </trkpt>
      <trkpt lat="44.03005" lon="3.50849">
        <ele>1273.1</ele>
        <time>2026-05-28T10:50:52.999Z</time>
      </trkpt>
      <trkpt lat="44.03005" lon="3.5085">
        <ele>1273.3</ele>
        <time>2026-05-28T10:50:53.999Z</time>
      </trkpt>
      <trkpt lat="44.03006" lon="3.5085">
        <ele>1273.3</ele>
        <time>2026-05-28T10:50:54.999Z</time>
      </trkpt>
      <trkpt lat="44.03007" lon="3.5085">
        <ele>1273.4</ele>
        <time>2026-05-28T10:50:55.999Z</time>
      </trkpt>
      <trkpt lat="44.03007" lon="3.5085">
        <ele>1273.6</ele>
        <time>2026-05-28T10:50:56.999Z</time>
      </trkpt>
      <trkpt lat="44.03008" lon="3.5085">
        <ele>1273.8</ele>
        <time>2026-05-28T10:50:57.999Z</time>
      </trkpt>
      <trkpt lat="44.03007" lon="3.50851">
        <ele>1273.6</ele>
        <time>2026-05-28T10:50:58.999Z</time>
      </trkpt>
      <trkpt lat="44.03008" lon="3.50852">
        <ele>1273.5</ele>
        <time>2026-05-28T10:50:59.999Z</time>
      </trkpt>
      <trkpt lat="44.03008" lon="3.50854">
        <ele>1273.2</ele>
        <time>2026-05-28T10:51:01.999Z</time>
      </trkpt>
      <trkpt lat="44.03008" lon="3.50855">
        <ele>1273.3</ele>
        <time>2026-05-28T10:51:02.999Z</time>
      </trkpt>
      <trkpt lat="44.03009" lon="3.50855">
        <ele>1273.5</ele>
        <time>2026-05-28T10:51:03.999Z</time>
      </trkpt>
      <trkpt lat="44.0301" lon="3.50856">
        <ele>1273.4</ele>
        <time>2026-05-28T10:51:04.999Z</time>
      </trkpt>
      <trkpt lat="44.0301" lon="3.50857">
        <ele>1273.3</ele>
        <time>2026-05-28T10:51:05.999Z</time>
      </trkpt>
      <trkpt lat="44.0301" lon="3.50857">
        <ele>1273</ele>
        <time>2026-05-28T10:51:06.999Z</time>
      </trkpt>
      <trkpt lat="44.0301" lon="3.50858">
        <ele>1272.7</ele>
        <time>2026-05-28T10:51:07.999Z</time>
      </trkpt>
      <trkpt lat="44.03011" lon="3.50859">
        <ele>1272.9</ele>
        <time>2026-05-28T10:51:08.999Z</time>
      </trkpt>
      <trkpt lat="44.03011" lon="3.50861">
        <ele>1272.7</ele>
        <time>2026-05-28T10:51:09.999Z</time>
      </trkpt>
      <trkpt lat="44.03011" lon="3.50862">
        <ele>1272.9</ele>
        <time>2026-05-28T10:51:10.999Z</time>
      </trkpt>
      <trkpt lat="44.03012" lon="3.50863">
        <ele>1272.6</ele>
        <time>2026-05-28T10:51:11.999Z</time>
      </trkpt>
      <trkpt lat="44.03012" lon="3.50863">
        <ele>1272.4</ele>
        <time>2026-05-28T10:51:12.999Z</time>
      </trkpt>
      <trkpt lat="44.03013" lon="3.50864">
        <ele>1272.2</ele>
        <time>2026-05-28T10:51:13.999Z</time>
      </trkpt>
      <trkpt lat="44.03014" lon="3.50864">
        <ele>1272.2</ele>
        <time>2026-05-28T10:51:14.999Z</time>
      </trkpt>
      <trkpt lat="44.03015" lon="3.50864">
        <ele>1272.1</ele>
        <time>2026-05-28T10:51:15.999Z</time>
      </trkpt>
      <trkpt lat="44.03016" lon="3.50865">
        <ele>1272.2</ele>
        <time>2026-05-28T10:51:16.999Z</time>
      </trkpt>
      <trkpt lat="44.03017" lon="3.50865">
        <ele>1272.1</ele>
        <time>2026-05-28T10:51:17.999Z</time>
      </trkpt>
      <trkpt lat="44.03017" lon="3.50865">
        <ele>1272.3</ele>
        <time>2026-05-28T10:51:18.999Z</time>
      </trkpt>
      <trkpt lat="44.03018" lon="3.50865">
        <ele>1271.9</ele>
        <time>2026-05-28T10:51:19.999Z</time>
      </trkpt>
      <trkpt lat="44.03019" lon="3.50865">
        <ele>1271.7</ele>
        <time>2026-05-28T10:51:20.999Z</time>
      </trkpt>
      <trkpt lat="44.0302" lon="3.50864">
        <ele>1271.4</ele>
        <time>2026-05-28T10:51:21.999Z</time>
      </trkpt>
      <trkpt lat="44.03021" lon="3.50864">
        <ele>1271.7</ele>
        <time>2026-05-28T10:51:22.999Z</time>
      </trkpt>
      <trkpt lat="44.03023" lon="3.50864">
        <ele>1271.8</ele>
        <time>2026-05-28T10:51:23.999Z</time>
      </trkpt>
      <trkpt lat="44.03024" lon="3.50864">
        <ele>1272</ele>
        <time>2026-05-28T10:51:24.999Z</time>
      </trkpt>
      <trkpt lat="44.03025" lon="3.50864">
        <ele>1271.7</ele>
        <time>2026-05-28T10:51:25.999Z</time>
      </trkpt>
      <trkpt lat="44.03026" lon="3.50863">
        <ele>1272.1</ele>
        <time>2026-05-28T10:51:26.999Z</time>
      </trkpt>
      <trkpt lat="44.03027" lon="3.50863">
        <ele>1272.3</ele>
        <time>2026-05-28T10:51:27.999Z</time>
      </trkpt>
      <trkpt lat="44.03028" lon="3.50863">
        <ele>1272.6</ele>
        <time>2026-05-28T10:51:28.999Z</time>
      </trkpt>
      <trkpt lat="44.03028" lon="3.50863">
        <ele>1272.9</ele>
        <time>2026-05-28T10:51:29.999Z</time>
      </trkpt>
      <trkpt lat="44.03028" lon="3.50862">
        <ele>1273.2</ele>
        <time>2026-05-28T10:51:30.999Z</time>
      </trkpt>
      <trkpt lat="44.03029" lon="3.50862">
        <ele>1272.9</ele>
        <time>2026-05-28T10:51:31.999Z</time>
      </trkpt>
      <trkpt lat="44.03029" lon="3.50863">
        <ele>1272.9</ele>
        <time>2026-05-28T10:51:32.999Z</time>
      </trkpt>
      <trkpt lat="44.03029" lon="3.50863">
        <ele>1272.8</ele>
        <time>2026-05-28T10:51:33.999Z</time>
      </trkpt>
      <trkpt lat="44.03029" lon="3.50864">
        <ele>1272.5</ele>
        <time>2026-05-28T10:51:34.999Z</time>
      </trkpt>
      <trkpt lat="44.03029" lon="3.50864">
        <ele>1272.8</ele>
        <time>2026-05-28T10:51:35.999Z</time>
      </trkpt>
      <trkpt lat="44.03029" lon="3.50864">
        <ele>1272.8</ele>
        <time>2026-05-28T10:51:36.999Z</time>
      </trkpt>
      <trkpt lat="44.03029" lon="3.50864">
        <ele>1272.6</ele>
        <time>2026-05-28T10:51:37.999Z</time>
      </trkpt>
      <trkpt lat="44.0303" lon="3.50864">
        <ele>1272.6</ele>
        <time>2026-05-28T10:51:38.999Z</time>
      </trkpt>
      <trkpt lat="44.0303" lon="3.50864">
        <ele>1272.7</ele>
        <time>2026-05-28T10:51:39.999Z</time>
      </trkpt>
      <trkpt lat="44.03031" lon="3.50864">
        <ele>1272.7</ele>
        <time>2026-05-28T10:51:40.999Z</time>
      </trkpt>
      <trkpt lat="44.03032" lon="3.50865">
        <ele>1273.1</ele>
        <time>2026-05-28T10:51:41.999Z</time>
      </trkpt>
      <trkpt lat="44.03032" lon="3.50865">
        <ele>1273.1</ele>
        <time>2026-05-28T10:51:42.999Z</time>
      </trkpt>
      <trkpt lat="44.03032" lon="3.50865">
        <ele>1273</ele>
        <time>2026-05-28T10:51:43.999Z</time>
      </trkpt>
      <trkpt lat="44.03032" lon="3.50865">
        <ele>1273.1</ele>
        <time>2026-05-28T10:51:44.999Z</time>
      </trkpt>
      <trkpt lat="44.03032" lon="3.50865">
        <ele>1273.1</ele>
        <time>2026-05-28T10:51:45.999Z</time>
      </trkpt>
      <trkpt lat="44.03032" lon="3.50865">
        <ele>1273</ele>
        <time>2026-05-28T10:51:46.999Z</time>
      </trkpt>
      <trkpt lat="44.03032" lon="3.50865">
        <ele>1272.8</ele>
        <time>2026-05-28T10:51:47.999Z</time>
      </trkpt>
      <trkpt lat="44.03032" lon="3.50865">
        <ele>1272.6</ele>
        <time>2026-05-28T10:51:48.999Z</time>
      </trkpt>
      <trkpt lat="44.03032" lon="3.50865">
        <ele>1272.6</ele>
        <time>2026-05-28T10:51:49.999Z</time>
      </trkpt>
      <trkpt lat="44.03032" lon="3.50866">
        <ele>1272.5</ele>
        <time>2026-05-28T10:51:50.999Z</time>
      </trkpt>
      <trkpt lat="44.03032" lon="3.50866">
        <ele>1272.4</ele>
        <time>2026-05-28T10:51:51.999Z</time>
      </trkpt>
      <trkpt lat="44.03033" lon="3.50866">
        <ele>1272</ele>
        <time>2026-05-28T10:51:53.999Z</time>
      </trkpt>
      <trkpt lat="44.03034" lon="3.50868">
        <ele>1272.1</ele>
        <time>2026-05-28T10:51:54.999Z</time>
      </trkpt>
      <trkpt lat="44.03034" lon="3.50869">
        <ele>1272</ele>
        <time>2026-05-28T10:51:55.999Z</time>
      </trkpt>
      <trkpt lat="44.03034" lon="3.5087">
        <ele>1272</ele>
        <time>2026-05-28T10:51:56.999Z</time>
      </trkpt>
      <trkpt lat="44.03035" lon="3.5087">
        <ele>1271.7</ele>
        <time>2026-05-28T10:51:57.999Z</time>
      </trkpt>
      <trkpt lat="44.03036" lon="3.50872">
        <ele>1271.1</ele>
        <time>2026-05-28T10:51:58.999Z</time>
      </trkpt>
      <trkpt lat="44.03036" lon="3.50872">
        <ele>1270.7</ele>
        <time>2026-05-28T10:51:59.999Z</time>
      </trkpt>
      <trkpt lat="44.03036" lon="3.50873">
        <ele>1270.8</ele>
        <time>2026-05-28T10:52:00.999Z</time>
      </trkpt>
      <trkpt lat="44.03037" lon="3.50874">
        <ele>1271.3</ele>
        <time>2026-05-28T10:52:01.999Z</time>
      </trkpt>
      <trkpt lat="44.03038" lon="3.50874">
        <ele>1271.6</ele>
        <time>2026-05-28T10:52:02.999Z</time>
      </trkpt>
      <trkpt lat="44.03038" lon="3.50875">
        <ele>1271.7</ele>
        <time>2026-05-28T10:52:03.999Z</time>
      </trkpt>
      <trkpt lat="44.03038" lon="3.50875">
        <ele>1271.7</ele>
        <time>2026-05-28T10:52:04.999Z</time>
      </trkpt>
      <trkpt lat="44.03038" lon="3.50875">
        <ele>1271.6</ele>
        <time>2026-05-28T10:52:05.999Z</time>
      </trkpt>
      <trkpt lat="44.03038" lon="3.50875">
        <ele>1272</ele>
        <time>2026-05-28T10:52:06.999Z</time>
      </trkpt>
      <trkpt lat="44.03038" lon="3.50875">
        <ele>1272.4</ele>
        <time>2026-05-28T10:52:07.999Z</time>
      </trkpt>
      <trkpt lat="44.03039" lon="3.50875">
        <ele>1272.5</ele>
        <time>2026-05-28T10:52:08.999Z</time>
      </trkpt>
      <trkpt lat="44.03038" lon="3.50875">
        <ele>1272.8</ele>
        <time>2026-05-28T10:52:09.999Z</time>
      </trkpt>
      <trkpt lat="44.03038" lon="3.50875">
        <ele>1273.2</ele>
        <time>2026-05-28T10:52:10.999Z</time>
      </trkpt>
      <trkpt lat="44.03037" lon="3.50875">
        <ele>1273.2</ele>
        <time>2026-05-28T10:52:11.999Z</time>
      </trkpt>
      <trkpt lat="44.03038" lon="3.50875">
        <ele>1273.1</ele>
        <time>2026-05-28T10:52:12.999Z</time>
      </trkpt>
      <trkpt lat="44.03037" lon="3.50875">
        <ele>1272.9</ele>
        <time>2026-05-28T10:52:13.999Z</time>
      </trkpt>
      <trkpt lat="44.03038" lon="3.50876">
        <ele>1272.7</ele>
        <time>2026-05-28T10:52:14.999Z</time>
      </trkpt>
      <trkpt lat="44.03038" lon="3.50877">
        <ele>1272.5</ele>
        <time>2026-05-28T10:52:15.999Z</time>
      </trkpt>
      <trkpt lat="44.0304" lon="3.50878">
        <ele>1273.2</ele>
        <time>2026-05-28T10:52:17.999Z</time>
      </trkpt>
      <trkpt lat="44.03041" lon="3.50878">
        <ele>1273</ele>
        <time>2026-05-28T10:52:18.999Z</time>
      </trkpt>
      <trkpt lat="44.03041" lon="3.50879">
        <ele>1272.9</ele>
        <time>2026-05-28T10:52:19.999Z</time>
      </trkpt>
      <trkpt lat="44.03041" lon="3.5088">
        <ele>1273</ele>
        <time>2026-05-28T10:52:20.999Z</time>
      </trkpt>
      <trkpt lat="44.03042" lon="3.50879">
        <ele>1272.9</ele>
        <time>2026-05-28T10:52:21.999Z</time>
      </trkpt>
      <trkpt lat="44.03043" lon="3.5088">
        <ele>1273.3</ele>
        <time>2026-05-28T10:52:22.999Z</time>
      </trkpt>
      <trkpt lat="44.03043" lon="3.5088">
        <ele>1273.1</ele>
        <time>2026-05-28T10:52:23.999Z</time>
      </trkpt>
      <trkpt lat="44.03043" lon="3.5088">
        <ele>1273.6</ele>
        <time>2026-05-28T10:52:24.999Z</time>
      </trkpt>
      <trkpt lat="44.03044" lon="3.50881">
        <ele>1273.4</ele>
        <time>2026-05-28T10:52:25.999Z</time>
      </trkpt>
      <trkpt lat="44.03044" lon="3.50881">
        <ele>1273.4</ele>
        <time>2026-05-28T10:52:26.999Z</time>
      </trkpt>
      <trkpt lat="44.03045" lon="3.50881">
        <ele>1273.3</ele>
        <time>2026-05-28T10:52:27.999Z</time>
      </trkpt>
      <trkpt lat="44.03046" lon="3.50881">
        <ele>1273.2</ele>
        <time>2026-05-28T10:52:28.999Z</time>
      </trkpt>
      <trkpt lat="44.03046" lon="3.50881">
        <ele>1272.8</ele>
        <time>2026-05-28T10:52:29.999Z</time>
      </trkpt>
      <trkpt lat="44.03046" lon="3.50882">
        <ele>1272.8</ele>
        <time>2026-05-28T10:52:30.999Z</time>
      </trkpt>
      <trkpt lat="44.03047" lon="3.50882">
        <ele>1272.9</ele>
        <time>2026-05-28T10:52:31.999Z</time>
      </trkpt>
      <trkpt lat="44.03048" lon="3.50882">
        <ele>1273.2</ele>
        <time>2026-05-28T10:52:32.999Z</time>
      </trkpt>
      <trkpt lat="44.03049" lon="3.50882">
        <ele>1273.4</ele>
        <time>2026-05-28T10:52:33.999Z</time>
      </trkpt>
      <trkpt lat="44.03051" lon="3.50882">
        <ele>1273.6</ele>
        <time>2026-05-28T10:52:34.999Z</time>
      </trkpt>
      <trkpt lat="44.03052" lon="3.50882">
        <ele>1273.9</ele>
        <time>2026-05-28T10:52:35.999Z</time>
      </trkpt>
      <trkpt lat="44.03053" lon="3.50882">
        <ele>1274.1</ele>
        <time>2026-05-28T10:52:36.999Z</time>
      </trkpt>
      <trkpt lat="44.03053" lon="3.50883">
        <ele>1274.4</ele>
        <time>2026-05-28T10:52:37.999Z</time>
      </trkpt>
      <trkpt lat="44.03053" lon="3.50883">
        <ele>1274.4</ele>
        <time>2026-05-28T10:52:38.999Z</time>
      </trkpt>
      <trkpt lat="44.03052" lon="3.50881">
        <ele>1274.8</ele>
        <time>2026-05-28T10:52:39.999Z</time>
      </trkpt>
      <trkpt lat="44.03052" lon="3.5088">
        <ele>1274.4</ele>
        <time>2026-05-28T10:52:40.999Z</time>
      </trkpt>
      <trkpt lat="44.03052" lon="3.5088">
        <ele>1274.7</ele>
        <time>2026-05-28T10:52:41.999Z</time>
      </trkpt>
      <trkpt lat="44.03052" lon="3.50879">
        <ele>1275.3</ele>
        <time>2026-05-28T10:52:42.999Z</time>
      </trkpt>
      <trkpt lat="44.03053" lon="3.50879">
        <ele>1275.9</ele>
        <time>2026-05-28T10:52:43.999Z</time>
      </trkpt>
      <trkpt lat="44.03053" lon="3.5088">
        <ele>1276.9</ele>
        <time>2026-05-28T10:52:44.999Z</time>
      </trkpt>
      <trkpt lat="44.03054" lon="3.50879">
        <ele>1277.6</ele>
        <time>2026-05-28T10:52:45.999Z</time>
      </trkpt>
      <trkpt lat="44.03054" lon="3.50879">
        <ele>1278.3</ele>
        <time>2026-05-28T10:52:46.999Z</time>
      </trkpt>
      <trkpt lat="44.03054" lon="3.50879">
        <ele>1278.4</ele>
        <time>2026-05-28T10:52:47.999Z</time>
      </trkpt>
      <trkpt lat="44.03054" lon="3.50879">
        <ele>1278.5</ele>
        <time>2026-05-28T10:52:48.999Z</time>
      </trkpt>
      <trkpt lat="44.03054" lon="3.50879">
        <ele>1278.4</ele>
        <time>2026-05-28T10:52:49.999Z</time>
      </trkpt>
      <trkpt lat="44.03054" lon="3.50879">
        <ele>1278.6</ele>
        <time>2026-05-28T10:52:50.999Z</time>
      </trkpt>
      <trkpt lat="44.03054" lon="3.50879">
        <ele>1278.8</ele>
        <time>2026-05-28T10:52:51.999Z</time>
      </trkpt>
      <trkpt lat="44.03054" lon="3.50879">
        <ele>1279.1</ele>
        <time>2026-05-28T10:52:52.999Z</time>
      </trkpt>
      <trkpt lat="44.03054" lon="3.5088">
        <ele>1279.2</ele>
        <time>2026-05-28T10:52:53.999Z</time>
      </trkpt>
      <trkpt lat="44.03054" lon="3.5088">
        <ele>1279.5</ele>
        <time>2026-05-28T10:52:54.999Z</time>
      </trkpt>
      <trkpt lat="44.03054" lon="3.5088">
        <ele>1279.8</ele>
        <time>2026-05-28T10:52:55.999Z</time>
      </trkpt>
      <trkpt lat="44.03054" lon="3.5088">
        <ele>1279.8</ele>
        <time>2026-05-28T10:52:56.999Z</time>
      </trkpt>
      <trkpt lat="44.03054" lon="3.50881">
        <ele>1279.9</ele>
        <time>2026-05-28T10:52:57.999Z</time>
      </trkpt>
      <trkpt lat="44.03054" lon="3.50882">
        <ele>1280.9</ele>
        <time>2026-05-28T10:52:59.999Z</time>
      </trkpt>
      <trkpt lat="44.03053" lon="3.50883">
        <ele>1281.2</ele>
        <time>2026-05-28T10:53:00.999Z</time>
      </trkpt>
      <trkpt lat="44.03052" lon="3.50884">
        <ele>1280.9</ele>
        <time>2026-05-28T10:53:01.999Z</time>
      </trkpt>
      <trkpt lat="44.03051" lon="3.50886">
        <ele>1280.6</ele>
        <time>2026-05-28T10:53:02.999Z</time>
      </trkpt>
      <trkpt lat="44.0305" lon="3.50885">
        <ele>1280.8</ele>
        <time>2026-05-28T10:53:03.999Z</time>
      </trkpt>
      <trkpt lat="44.03049" lon="3.50884">
        <ele>1280.9</ele>
        <time>2026-05-28T10:53:04.999Z</time>
      </trkpt>
      <trkpt lat="44.03049" lon="3.50884">
        <ele>1280.9</ele>
        <time>2026-05-28T10:53:05.999Z</time>
      </trkpt>
      <trkpt lat="44.03049" lon="3.50883">
        <ele>1281.5</ele>
        <time>2026-05-28T10:53:06.999Z</time>
      </trkpt>
      <trkpt lat="44.03049" lon="3.50882">
        <ele>1282</ele>
        <time>2026-05-28T10:53:07.999Z</time>
      </trkpt>
      <trkpt lat="44.03048" lon="3.50881">
        <ele>1282.5</ele>
        <time>2026-05-28T10:53:08.999Z</time>
      </trkpt>
      <trkpt lat="44.03048" lon="3.50881">
        <ele>1279.5</ele>
        <time>2026-05-28T10:53:09.999Z</time>
      </trkpt>
      <trkpt lat="44.03048" lon="3.50881">
        <ele>1279.7</ele>
        <time>2026-05-28T10:53:10.999Z</time>
      </trkpt>
      <trkpt lat="44.03048" lon="3.50881">
        <ele>1279.8</ele>
        <time>2026-05-28T10:53:11.999Z</time>
      </trkpt>
      <trkpt lat="44.03048" lon="3.50881">
        <ele>1280</ele>
        <time>2026-05-28T10:53:12.999Z</time>
      </trkpt>
      <trkpt lat="44.03048" lon="3.50881">
        <ele>1280</ele>
        <time>2026-05-28T10:53:13.999Z</time>
      </trkpt>
      <trkpt lat="44.03049" lon="3.50881">
        <ele>1280</ele>
        <time>2026-05-28T10:53:14.999Z</time>
      </trkpt>
      <trkpt lat="44.03049" lon="3.50881">
        <ele>1279.9</ele>
        <time>2026-05-28T10:53:15.999Z</time>
      </trkpt>
      <trkpt lat="44.03048" lon="3.50881">
        <ele>1279.9</ele>
        <time>2026-05-28T10:53:16.999Z</time>
      </trkpt>
      <trkpt lat="44.03048" lon="3.50881">
        <ele>1280.2</ele>
        <time>2026-05-28T10:53:17.999Z</time>
      </trkpt>
      <trkpt lat="44.03049" lon="3.5088">
        <ele>1279.5</ele>
        <time>2026-05-28T10:53:18.999Z</time>
      </trkpt>
      <trkpt lat="44.03049" lon="3.5088">
        <ele>1280</ele>
        <time>2026-05-28T10:53:19.999Z</time>
      </trkpt>
      <trkpt lat="44.0305" lon="3.5088">
        <ele>1279</ele>
        <time>2026-05-28T10:53:20.999Z</time>
      </trkpt>
      <trkpt lat="44.0305" lon="3.5088">
        <ele>1279.5</ele>
        <time>2026-05-28T10:53:21.999Z</time>
      </trkpt>
      <trkpt lat="44.0305" lon="3.5088">
        <ele>1279.7</ele>
        <time>2026-05-28T10:53:22.999Z</time>
      </trkpt>
      <trkpt lat="44.03051" lon="3.5088">
        <ele>1279.7</ele>
        <time>2026-05-28T10:53:23.999Z</time>
      </trkpt>
      <trkpt lat="44.03051" lon="3.50878">
        <ele>1279.4</ele>
        <time>2026-05-28T10:53:24.999Z</time>
      </trkpt>
      <trkpt lat="44.03051" lon="3.50877">
        <ele>1279.8</ele>
        <time>2026-05-28T10:53:25.999Z</time>
      </trkpt>
      <trkpt lat="44.03052" lon="3.50877">
        <ele>1279.3</ele>
        <time>2026-05-28T10:53:26.999Z</time>
      </trkpt>
      <trkpt lat="44.03052" lon="3.50875">
        <ele>1278.6</ele>
        <time>2026-05-28T10:53:27.999Z</time>
      </trkpt>
      <trkpt lat="44.03052" lon="3.50875">
        <ele>1278.2</ele>
        <time>2026-05-28T10:53:28.999Z</time>
      </trkpt>
      <trkpt lat="44.03053" lon="3.50875">
        <ele>1277.9</ele>
        <time>2026-05-28T10:53:29.999Z</time>
      </trkpt>
      <trkpt lat="44.03053" lon="3.50875">
        <ele>1277.2</ele>
        <time>2026-05-28T10:53:30.999Z</time>
      </trkpt>
      <trkpt lat="44.03053" lon="3.50875">
        <ele>1276.8</ele>
        <time>2026-05-28T10:53:31.999Z</time>
      </trkpt>
      <trkpt lat="44.03053" lon="3.50876">
        <ele>1276.4</ele>
        <time>2026-05-28T10:53:32.999Z</time>
      </trkpt>
      <trkpt lat="44.03053" lon="3.50876">
        <ele>1275.7</ele>
        <time>2026-05-28T10:53:33.999Z</time>
      </trkpt>
      <trkpt lat="44.03053" lon="3.50876">
        <ele>1275.7</ele>
        <time>2026-05-28T10:53:34.999Z</time>
      </trkpt>
      <trkpt lat="44.03053" lon="3.50876">
        <ele>1275.8</ele>
        <time>2026-05-28T10:53:35.999Z</time>
      </trkpt>
      <trkpt lat="44.03053" lon="3.50876">
        <ele>1276</ele>
        <time>2026-05-28T10:53:36.999Z</time>
      </trkpt>
      <trkpt lat="44.03053" lon="3.50876">
        <ele>1276.3</ele>
        <time>2026-05-28T10:53:37.999Z</time>
      </trkpt>
      <trkpt lat="44.03054" lon="3.50876">
        <ele>1276.9</ele>
        <time>2026-05-28T10:53:38.999Z</time>
      </trkpt>
      <trkpt lat="44.03055" lon="3.50878">
        <ele>1277.1</ele>
        <time>2026-05-28T10:53:39.999Z</time>
      </trkpt>
      <trkpt lat="44.03056" lon="3.50878">
        <ele>1277</ele>
        <time>2026-05-28T10:53:40.999Z</time>
      </trkpt>
      <trkpt lat="44.03056" lon="3.50879">
        <ele>1277.3</ele>
        <time>2026-05-28T10:53:41.999Z</time>
      </trkpt>
      <trkpt lat="44.03056" lon="3.50879">
        <ele>1277.5</ele>
        <time>2026-05-28T10:53:42.999Z</time>
      </trkpt>
      <trkpt lat="44.03056" lon="3.50879">
        <ele>1278.4</ele>
        <time>2026-05-28T10:53:43.999Z</time>
      </trkpt>
      <trkpt lat="44.03056" lon="3.50879">
        <ele>1278.8</ele>
        <time>2026-05-28T10:53:44.999Z</time>
      </trkpt>
      <trkpt lat="44.03056" lon="3.50879">
        <ele>1278.9</ele>
        <time>2026-05-28T10:53:45.999Z</time>
      </trkpt>
      <trkpt lat="44.03056" lon="3.50879">
        <ele>1279.4</ele>
        <time>2026-05-28T10:53:46.999Z</time>
      </trkpt>
      <trkpt lat="44.03056" lon="3.50879">
        <ele>1279.5</ele>
        <time>2026-05-28T10:53:47.999Z</time>
      </trkpt>
      <trkpt lat="44.03056" lon="3.50879">
        <ele>1280.3</ele>
        <time>2026-05-28T10:53:48.999Z</time>
      </trkpt>
      <trkpt lat="44.03056" lon="3.50879">
        <ele>1280.8</ele>
        <time>2026-05-28T10:53:49.999Z</time>
      </trkpt>
      <trkpt lat="44.03056" lon="3.50879">
        <ele>1281.5</ele>
        <time>2026-05-28T10:53:50.999Z</time>
      </trkpt>
      <trkpt lat="44.03056" lon="3.50879">
        <ele>1282.2</ele>
        <time>2026-05-28T10:53:51.999Z</time>
      </trkpt>
      <trkpt lat="44.03056" lon="3.50879">
        <ele>1282.7</ele>
        <time>2026-05-28T10:53:52.999Z</time>
      </trkpt>
      <trkpt lat="44.03056" lon="3.50879">
        <ele>1283.4</ele>
        <time>2026-05-28T10:53:53.999Z</time>
      </trkpt>
      <trkpt lat="44.03056" lon="3.50879">
        <ele>1284</ele>
        <time>2026-05-28T10:53:54.999Z</time>
      </trkpt>
      <trkpt lat="44.03056" lon="3.50879">
        <ele>1284.4</ele>
        <time>2026-05-28T10:53:55.999Z</time>
      </trkpt>
      <trkpt lat="44.03056" lon="3.50879">
        <ele>1285.1</ele>
        <time>2026-05-28T10:53:56.999Z</time>
      </trkpt>
      <trkpt lat="44.03056" lon="3.50879">
        <ele>1285.5</ele>
        <time>2026-05-28T10:53:57.999Z</time>
      </trkpt>
      <trkpt lat="44.03056" lon="3.50879">
        <ele>1286.1</ele>
        <time>2026-05-28T10:53:58.999Z</time>
      </trkpt>
      <trkpt lat="44.03056" lon="3.5088">
        <ele>1286.9</ele>
        <time>2026-05-28T10:53:59.999Z</time>
      </trkpt>
      <trkpt lat="44.03056" lon="3.5088">
        <ele>1287.4</ele>
        <time>2026-05-28T10:54:00.999Z</time>
      </trkpt>
      <trkpt lat="44.03056" lon="3.5088">
        <ele>1288</ele>
        <time>2026-05-28T10:54:01.999Z</time>
      </trkpt>
      <trkpt lat="44.03056" lon="3.5088">
        <ele>1288.2</ele>
        <time>2026-05-28T10:54:02.999Z</time>
      </trkpt>
      <trkpt lat="44.03056" lon="3.5088">
        <ele>1288.2</ele>
        <time>2026-05-28T10:54:03.999Z</time>
      </trkpt>
      <trkpt lat="44.03056" lon="3.5088">
        <ele>1288.3</ele>
        <time>2026-05-28T10:54:04.999Z</time>
      </trkpt>
      <trkpt lat="44.03056" lon="3.5088">
        <ele>1288.4</ele>
        <time>2026-05-28T10:54:05.999Z</time>
      </trkpt>
      <trkpt lat="44.03056" lon="3.5088">
        <ele>1288.8</ele>
        <time>2026-05-28T10:54:07.999Z</time>
      </trkpt>
      <trkpt lat="44.03056" lon="3.5088">
        <ele>1289</ele>
        <time>2026-05-28T10:54:08.999Z</time>
      </trkpt>
      <trkpt lat="44.03056" lon="3.5088">
        <ele>1289.2</ele>
        <time>2026-05-28T10:54:09.999Z</time>
      </trkpt>
      <trkpt lat="44.03056" lon="3.5088">
        <ele>1289.4</ele>
        <time>2026-05-28T10:54:10.999Z</time>
      </trkpt>
      <trkpt lat="44.03056" lon="3.5088">
        <ele>1289.6</ele>
        <time>2026-05-28T10:54:11.999Z</time>
      </trkpt>
      <trkpt lat="44.03056" lon="3.5088">
        <ele>1289.6</ele>
        <time>2026-05-28T10:54:12.999Z</time>
      </trkpt>
      <trkpt lat="44.03056" lon="3.5088">
        <ele>1289.7</ele>
        <time>2026-05-28T10:54:13.999Z</time>
      </trkpt>
      <trkpt lat="44.03056" lon="3.5088">
        <ele>1290.1</ele>
        <time>2026-05-28T10:54:14.999Z</time>
      </trkpt>
      <trkpt lat="44.03056" lon="3.5088">
        <ele>1290.1</ele>
        <time>2026-05-28T10:54:15.999Z</time>
      </trkpt>
      <trkpt lat="44.03056" lon="3.50879">
        <ele>1290.2</ele>
        <time>2026-05-28T10:54:16.999Z</time>
      </trkpt>
      <trkpt lat="44.03056" lon="3.50879">
        <ele>1290.4</ele>
        <time>2026-05-28T10:54:17.999Z</time>
      </trkpt>
      <trkpt lat="44.03056" lon="3.50879">
        <ele>1290.5</ele>
        <time>2026-05-28T10:54:18.999Z</time>
      </trkpt>
      <trkpt lat="44.03056" lon="3.5088">
        <ele>1290.3</ele>
        <time>2026-05-28T10:54:19.999Z</time>
      </trkpt>
      <trkpt lat="44.03056" lon="3.5088">
        <ele>1290.2</ele>
        <time>2026-05-28T10:54:20.999Z</time>
      </trkpt>
      <trkpt lat="44.03056" lon="3.5088">
        <ele>1290.2</ele>
        <time>2026-05-28T10:54:21.999Z</time>
      </trkpt>
      <trkpt lat="44.03056" lon="3.5088">
        <ele>1290.3</ele>
        <time>2026-05-28T10:54:22.999Z</time>
      </trkpt>
      <trkpt lat="44.03056" lon="3.5088">
        <ele>1290.2</ele>
        <time>2026-05-28T10:54:23.999Z</time>
      </trkpt>
      <trkpt lat="44.03056" lon="3.5088">
        <ele>1290.2</ele>
        <time>2026-05-28T10:54:24.999Z</time>
      </trkpt>
      <trkpt lat="44.03056" lon="3.5088">
        <ele>1290.2</ele>
        <time>2026-05-28T10:54:25.999Z</time>
      </trkpt>
      <trkpt lat="44.03056" lon="3.5088">
        <ele>1290.4</ele>
        <time>2026-05-28T10:54:26.999Z</time>
      </trkpt>
      <trkpt lat="44.03056" lon="3.5088">
        <ele>1290.5</ele>
        <time>2026-05-28T10:54:27.999Z</time>
      </trkpt>
      <trkpt lat="44.03056" lon="3.5088">
        <ele>1290.9</ele>
        <time>2026-05-28T10:54:28.999Z</time>
      </trkpt>
      <trkpt lat="44.03056" lon="3.5088">
        <ele>1291.3</ele>
        <time>2026-05-28T10:54:29.999Z</time>
      </trkpt>
      <trkpt lat="44.03056" lon="3.5088">
        <ele>1291.7</ele>
        <time>2026-05-28T10:54:30.999Z</time>
      </trkpt>
      <trkpt lat="44.03056" lon="3.5088">
        <ele>1291.7</ele>
        <time>2026-05-28T10:54:31.999Z</time>
      </trkpt>
      <trkpt lat="44.03056" lon="3.5088">
        <ele>1291.7</ele>
        <time>2026-05-28T10:54:32.999Z</time>
      </trkpt>
      <trkpt lat="44.03056" lon="3.5088">
        <ele>1291.7</ele>
        <time>2026-05-28T10:54:33.999Z</time>
      </trkpt>
      <trkpt lat="44.03056" lon="3.5088">
        <ele>1291.7</ele>
        <time>2026-05-28T10:54:34.999Z</time>
      </trkpt>
      <trkpt lat="44.03056" lon="3.5088">
        <ele>1291.7</ele>
        <time>2026-05-28T10:54:35.999Z</time>
      </trkpt>
      <trkpt lat="44.03056" lon="3.5088">
        <ele>1291.6</ele>
        <time>2026-05-28T10:54:36.999Z</time>
      </trkpt>
      <trkpt lat="44.03056" lon="3.5088">
        <ele>1291.6</ele>
        <time>2026-05-28T10:54:37.999Z</time>
      </trkpt>
      <trkpt lat="44.03056" lon="3.5088">
        <ele>1291.6</ele>
        <time>2026-05-28T10:54:38.999Z</time>
      </trkpt>
      <trkpt lat="44.03056" lon="3.5088">
        <ele>1291.9</ele>
        <time>2026-05-28T10:54:39.999Z</time>
      </trkpt>
      <trkpt lat="44.03056" lon="3.5088">
        <ele>1292.5</ele>
        <time>2026-05-28T10:54:41.000Z</time>
      </trkpt>
      <trkpt lat="44.03056" lon="3.5088">
        <ele>1292.6</ele>
        <time>2026-05-28T10:54:42.000Z</time>
      </trkpt>
      <trkpt lat="44.03056" lon="3.50881">
        <ele>1292.5</ele>
        <time>2026-05-28T10:54:43.000Z</time>
      </trkpt>
      <trkpt lat="44.03056" lon="3.50881">
        <ele>1292.6</ele>
        <time>2026-05-28T10:54:44.000Z</time>
      </trkpt>
      <trkpt lat="44.03056" lon="3.50881">
        <ele>1292.9</ele>
        <time>2026-05-28T10:54:45.000Z</time>
      </trkpt>
      <trkpt lat="44.03056" lon="3.50881">
        <ele>1293.2</ele>
        <time>2026-05-28T10:54:46.000Z</time>
      </trkpt>
      <trkpt lat="44.03056" lon="3.50881">
        <ele>1293.7</ele>
        <time>2026-05-28T10:54:47.000Z</time>
      </trkpt>
      <trkpt lat="44.03056" lon="3.50881">
        <ele>1294.1</ele>
        <time>2026-05-28T10:54:48.000Z</time>
      </trkpt>
      <trkpt lat="44.03056" lon="3.50881">
        <ele>1294.4</ele>
        <time>2026-05-28T10:54:49.000Z</time>
      </trkpt>
      <trkpt lat="44.03055" lon="3.50881">
        <ele>1294.5</ele>
        <time>2026-05-28T10:54:50.000Z</time>
      </trkpt>
      <trkpt lat="44.03055" lon="3.50881">
        <ele>1294.5</ele>
        <time>2026-05-28T10:54:51.000Z</time>
      </trkpt>
      <trkpt lat="44.03055" lon="3.50881">
        <ele>1294.5</ele>
        <time>2026-05-28T10:54:52.000Z</time>
      </trkpt>
      <trkpt lat="44.03055" lon="3.50881">
        <ele>1294.6</ele>
        <time>2026-05-28T10:54:53.000Z</time>
      </trkpt>
      <trkpt lat="44.03055" lon="3.50881">
        <ele>1294.6</ele>
        <time>2026-05-28T10:54:54.000Z</time>
      </trkpt>
      <trkpt lat="44.03055" lon="3.50881">
        <ele>1294.8</ele>
        <time>2026-05-28T10:54:55.000Z</time>
      </trkpt>
      <trkpt lat="44.03055" lon="3.50881">
        <ele>1295.3</ele>
        <time>2026-05-28T10:54:56.000Z</time>
      </trkpt>
      <trkpt lat="44.03055" lon="3.50881">
        <ele>1295.7</ele>
        <time>2026-05-28T10:54:57.000Z</time>
      </trkpt>
      <trkpt lat="44.03055" lon="3.50881">
        <ele>1296.3</ele>
        <time>2026-05-28T10:54:58.000Z</time>
      </trkpt>
      <trkpt lat="44.03054" lon="3.50881">
        <ele>1296.7</ele>
        <time>2026-05-28T10:54:59.000Z</time>
      </trkpt>
      <trkpt lat="44.03054" lon="3.50881">
        <ele>1296.9</ele>
        <time>2026-05-28T10:55:00.000Z</time>
      </trkpt>
      <trkpt lat="44.03054" lon="3.50881">
        <ele>1296.9</ele>
        <time>2026-05-28T10:55:01.000Z</time>
      </trkpt>
      <trkpt lat="44.03054" lon="3.50881">
        <ele>1297.3</ele>
        <time>2026-05-28T10:55:02.000Z</time>
      </trkpt>
      <trkpt lat="44.03054" lon="3.50881">
        <ele>1297.4</ele>
        <time>2026-05-28T10:55:03.000Z</time>
      </trkpt>
      <trkpt lat="44.03053" lon="3.50882">
        <ele>1297.5</ele>
        <time>2026-05-28T10:55:04.000Z</time>
      </trkpt>
      <trkpt lat="44.03053" lon="3.50883">
        <ele>1297.5</ele>
        <time>2026-05-28T10:55:05.000Z</time>
      </trkpt>
      <trkpt lat="44.03053" lon="3.50884">
        <ele>1297.5</ele>
        <time>2026-05-28T10:55:06.000Z</time>
      </trkpt>
      <trkpt lat="44.03052" lon="3.50885">
        <ele>1297.6</ele>
        <time>2026-05-28T10:55:07.000Z</time>
      </trkpt>
      <trkpt lat="44.03053" lon="3.50886">
        <ele>1297.7</ele>
        <time>2026-05-28T10:55:08.000Z</time>
      </trkpt>
      <trkpt lat="44.03053" lon="3.50887">
        <ele>1297.8</ele>
        <time>2026-05-28T10:55:09.000Z</time>
      </trkpt>
      <trkpt lat="44.03052" lon="3.50889">
        <ele>1298</ele>
        <time>2026-05-28T10:55:10.000Z</time>
      </trkpt>
      <trkpt lat="44.03052" lon="3.5089">
        <ele>1297.9</ele>
        <time>2026-05-28T10:55:11.000Z</time>
      </trkpt>
      <trkpt lat="44.03051" lon="3.5089">
        <ele>1297.7</ele>
        <time>2026-05-28T10:55:12.000Z</time>
      </trkpt>
      <trkpt lat="44.03051" lon="3.50891">
        <ele>1297.6</ele>
        <time>2026-05-28T10:55:13.000Z</time>
      </trkpt>
      <trkpt lat="44.03049" lon="3.50892">
        <ele>1297.2</ele>
        <time>2026-05-28T10:55:14.000Z</time>
      </trkpt>
      <trkpt lat="44.03049" lon="3.50893">
        <ele>1296.8</ele>
        <time>2026-05-28T10:55:15.000Z</time>
      </trkpt>
      <trkpt lat="44.03049" lon="3.50894">
        <ele>1296.5</ele>
        <time>2026-05-28T10:55:16.000Z</time>
      </trkpt>
      <trkpt lat="44.03049" lon="3.50894">
        <ele>1296.1</ele>
        <time>2026-05-28T10:55:17.000Z</time>
      </trkpt>
      <trkpt lat="44.03048" lon="3.50894">
        <ele>1295.7</ele>
        <time>2026-05-28T10:55:18.000Z</time>
      </trkpt>
      <trkpt lat="44.03048" lon="3.50895">
        <ele>1295.5</ele>
        <time>2026-05-28T10:55:19.000Z</time>
      </trkpt>
      <trkpt lat="44.03048" lon="3.50896">
        <ele>1295.3</ele>
        <time>2026-05-28T10:55:20.000Z</time>
      </trkpt>
      <trkpt lat="44.03047" lon="3.50896">
        <ele>1295.2</ele>
        <time>2026-05-28T10:55:21.000Z</time>
      </trkpt>
      <trkpt lat="44.03047" lon="3.50896">
        <ele>1294.5</ele>
        <time>2026-05-28T10:55:22.000Z</time>
      </trkpt>
      <trkpt lat="44.03046" lon="3.50897">
        <ele>1293.9</ele>
        <time>2026-05-28T10:55:23.000Z</time>
      </trkpt>
      <trkpt lat="44.03045" lon="3.50898">
        <ele>1293.3</ele>
        <time>2026-05-28T10:55:24.000Z</time>
      </trkpt>
      <trkpt lat="44.03044" lon="3.50899">
        <ele>1293.1</ele>
        <time>2026-05-28T10:55:25.000Z</time>
      </trkpt>
      <trkpt lat="44.03044" lon="3.50901">
        <ele>1292.9</ele>
        <time>2026-05-28T10:55:26.000Z</time>
      </trkpt>
      <trkpt lat="44.03043" lon="3.50902">
        <ele>1292.6</ele>
        <time>2026-05-28T10:55:27.000Z</time>
      </trkpt>
      <trkpt lat="44.03043" lon="3.50903">
        <ele>1292.2</ele>
        <time>2026-05-28T10:55:28.000Z</time>
      </trkpt>
      <trkpt lat="44.03043" lon="3.50904">
        <ele>1291.9</ele>
        <time>2026-05-28T10:55:29.000Z</time>
      </trkpt>
      <trkpt lat="44.03042" lon="3.50905">
        <ele>1292</ele>
        <time>2026-05-28T10:55:30.000Z</time>
      </trkpt>
      <trkpt lat="44.03042" lon="3.50905">
        <ele>1292.1</ele>
        <time>2026-05-28T10:55:31.000Z</time>
      </trkpt>
      <trkpt lat="44.03042" lon="3.50905">
        <ele>1292</ele>
        <time>2026-05-28T10:55:32.000Z</time>
      </trkpt>
      <trkpt lat="44.03041" lon="3.50906">
        <ele>1291.8</ele>
        <time>2026-05-28T10:55:33.000Z</time>
      </trkpt>
      <trkpt lat="44.03041" lon="3.50907">
        <ele>1291.6</ele>
        <time>2026-05-28T10:55:34.000Z</time>
      </trkpt>
      <trkpt lat="44.03041" lon="3.50908">
        <ele>1291.8</ele>
        <time>2026-05-28T10:55:35.000Z</time>
      </trkpt>
      <trkpt lat="44.03041" lon="3.50909">
        <ele>1292.3</ele>
        <time>2026-05-28T10:55:36.000Z</time>
      </trkpt>
      <trkpt lat="44.03041" lon="3.5091">
        <ele>1292.4</ele>
        <time>2026-05-28T10:55:37.000Z</time>
      </trkpt>
      <trkpt lat="44.03041" lon="3.50911">
        <ele>1292.5</ele>
        <time>2026-05-28T10:55:38.000Z</time>
      </trkpt>
      <trkpt lat="44.03041" lon="3.50912">
        <ele>1292.5</ele>
        <time>2026-05-28T10:55:39.000Z</time>
      </trkpt>
      <trkpt lat="44.03042" lon="3.50912">
        <ele>1292.9</ele>
        <time>2026-05-28T10:55:40.000Z</time>
      </trkpt>
      <trkpt lat="44.03042" lon="3.50913">
        <ele>1292.5</ele>
        <time>2026-05-28T10:55:41.000Z</time>
      </trkpt>
      <trkpt lat="44.03044" lon="3.50914">
        <ele>1291.9</ele>
        <time>2026-05-28T10:55:42.000Z</time>
      </trkpt>
      <trkpt lat="44.03044" lon="3.50915">
        <ele>1291.9</ele>
        <time>2026-05-28T10:55:43.000Z</time>
      </trkpt>
      <trkpt lat="44.03044" lon="3.50915">
        <ele>1292.4</ele>
        <time>2026-05-28T10:55:44.000Z</time>
      </trkpt>
      <trkpt lat="44.03044" lon="3.50914">
        <ele>1293</ele>
        <time>2026-05-28T10:55:45.000Z</time>
      </trkpt>
      <trkpt lat="44.03044" lon="3.50915">
        <ele>1293.2</ele>
        <time>2026-05-28T10:55:46.000Z</time>
      </trkpt>
      <trkpt lat="44.03045" lon="3.50915">
        <ele>1293.5</ele>
        <time>2026-05-28T10:55:47.000Z</time>
      </trkpt>
      <trkpt lat="44.03045" lon="3.50915">
        <ele>1294</ele>
        <time>2026-05-28T10:55:48.000Z</time>
      </trkpt>
      <trkpt lat="44.03046" lon="3.50915">
        <ele>1294.3</ele>
        <time>2026-05-28T10:55:49.000Z</time>
      </trkpt>
      <trkpt lat="44.03047" lon="3.50915">
        <ele>1294.2</ele>
        <time>2026-05-28T10:55:50.000Z</time>
      </trkpt>
      <trkpt lat="44.03048" lon="3.50915">
        <ele>1294.1</ele>
        <time>2026-05-28T10:55:51.000Z</time>
      </trkpt>
      <trkpt lat="44.0305" lon="3.50915">
        <ele>1293.9</ele>
        <time>2026-05-28T10:55:52.000Z</time>
      </trkpt>
      <trkpt lat="44.03052" lon="3.50915">
        <ele>1294</ele>
        <time>2026-05-28T10:55:53.000Z</time>
      </trkpt>
      <trkpt lat="44.03054" lon="3.50914">
        <ele>1294</ele>
        <time>2026-05-28T10:55:54.000Z</time>
      </trkpt>
      <trkpt lat="44.03055" lon="3.50912">
        <ele>1293.8</ele>
        <time>2026-05-28T10:55:55.000Z</time>
      </trkpt>
      <trkpt lat="44.03056" lon="3.50912">
        <ele>1293</ele>
        <time>2026-05-28T10:55:56.000Z</time>
      </trkpt>
      <trkpt lat="44.03057" lon="3.50911">
        <ele>1292.6</ele>
        <time>2026-05-28T10:55:57.000Z</time>
      </trkpt>
      <trkpt lat="44.03058" lon="3.5091">
        <ele>1292.5</ele>
        <time>2026-05-28T10:55:58.000Z</time>
      </trkpt>
      <trkpt lat="44.03059" lon="3.50908">
        <ele>1292.4</ele>
        <time>2026-05-28T10:55:59.000Z</time>
      </trkpt>
      <trkpt lat="44.0306" lon="3.50907">
        <ele>1291.8</ele>
        <time>2026-05-28T10:56:00.000Z</time>
      </trkpt>
      <trkpt lat="44.03061" lon="3.50907">
        <ele>1291.8</ele>
        <time>2026-05-28T10:56:01.000Z</time>
      </trkpt>
      <trkpt lat="44.03062" lon="3.50906">
        <ele>1292</ele>
        <time>2026-05-28T10:56:02.000Z</time>
      </trkpt>
      <trkpt lat="44.03062" lon="3.50906">
        <ele>1292</ele>
        <time>2026-05-28T10:56:03.000Z</time>
      </trkpt>
      <trkpt lat="44.03063" lon="3.50905">
        <ele>1292.3</ele>
        <time>2026-05-28T10:56:04.000Z</time>
      </trkpt>
      <trkpt lat="44.03063" lon="3.50903">
        <ele>1292.6</ele>
        <time>2026-05-28T10:56:05.000Z</time>
      </trkpt>
      <trkpt lat="44.03063" lon="3.50902">
        <ele>1292.3</ele>
        <time>2026-05-28T10:56:06.000Z</time>
      </trkpt>
      <trkpt lat="44.03063" lon="3.50902">
        <ele>1292.5</ele>
        <time>2026-05-28T10:56:07.000Z</time>
      </trkpt>
      <trkpt lat="44.03063" lon="3.50901">
        <ele>1292.3</ele>
        <time>2026-05-28T10:56:08.000Z</time>
      </trkpt>
      <trkpt lat="44.03063" lon="3.50902">
        <ele>1292.1</ele>
        <time>2026-05-28T10:56:09.000Z</time>
      </trkpt>
      <trkpt lat="44.03063" lon="3.50902">
        <ele>1292.1</ele>
        <time>2026-05-28T10:56:10.000Z</time>
      </trkpt>
      <trkpt lat="44.03063" lon="3.50902">
        <ele>1292.3</ele>
        <time>2026-05-28T10:56:11.000Z</time>
      </trkpt>
      <trkpt lat="44.03064" lon="3.50902">
        <ele>1292.4</ele>
        <time>2026-05-28T10:56:12.000Z</time>
      </trkpt>
      <trkpt lat="44.03065" lon="3.509">
        <ele>1292.9</ele>
        <time>2026-05-28T10:56:13.000Z</time>
      </trkpt>
      <trkpt lat="44.03066" lon="3.50899">
        <ele>1293.2</ele>
        <time>2026-05-28T10:56:14.000Z</time>
      </trkpt>
      <trkpt lat="44.03068" lon="3.50898">
        <ele>1293.6</ele>
        <time>2026-05-28T10:56:15.000Z</time>
      </trkpt>
      <trkpt lat="44.03069" lon="3.50896">
        <ele>1293.7</ele>
        <time>2026-05-28T10:56:16.000Z</time>
      </trkpt>
      <trkpt lat="44.0307" lon="3.50896">
        <ele>1293.5</ele>
        <time>2026-05-28T10:56:17.000Z</time>
      </trkpt>
      <trkpt lat="44.0307" lon="3.50895">
        <ele>1293.2</ele>
        <time>2026-05-28T10:56:18.000Z</time>
      </trkpt>
      <trkpt lat="44.03071" lon="3.50895">
        <ele>1293.3</ele>
        <time>2026-05-28T10:56:19.000Z</time>
      </trkpt>
      <trkpt lat="44.03071" lon="3.50894">
        <ele>1292.9</ele>
        <time>2026-05-28T10:56:20.000Z</time>
      </trkpt>
      <trkpt lat="44.03072" lon="3.50894">
        <ele>1292.8</ele>
        <time>2026-05-28T10:56:21.000Z</time>
      </trkpt>
      <trkpt lat="44.03072" lon="3.50893">
        <ele>1292.9</ele>
        <time>2026-05-28T10:56:22.000Z</time>
      </trkpt>
      <trkpt lat="44.03072" lon="3.50893">
        <ele>1293.4</ele>
        <time>2026-05-28T10:56:23.000Z</time>
      </trkpt>
      <trkpt lat="44.03072" lon="3.50893">
        <ele>1294.1</ele>
        <time>2026-05-28T10:56:24.000Z</time>
      </trkpt>
      <trkpt lat="44.03072" lon="3.50893">
        <ele>1294.1</ele>
        <time>2026-05-28T10:56:25.000Z</time>
      </trkpt>
      <trkpt lat="44.03073" lon="3.50894">
        <ele>1293.7</ele>
        <time>2026-05-28T10:56:26.000Z</time>
      </trkpt>
      <trkpt lat="44.03073" lon="3.50893">
        <ele>1293.5</ele>
        <time>2026-05-28T10:56:27.000Z</time>
      </trkpt>
      <trkpt lat="44.03074" lon="3.50893">
        <ele>1293.4</ele>
        <time>2026-05-28T10:56:28.000Z</time>
      </trkpt>
      <trkpt lat="44.03075" lon="3.50892">
        <ele>1293.5</ele>
        <time>2026-05-28T10:56:29.000Z</time>
      </trkpt>
      <trkpt lat="44.03077" lon="3.50891">
        <ele>1293.5</ele>
        <time>2026-05-28T10:56:30.000Z</time>
      </trkpt>
      <trkpt lat="44.03078" lon="3.5089">
        <ele>1293.4</ele>
        <time>2026-05-28T10:56:31.000Z</time>
      </trkpt>
      <trkpt lat="44.03078" lon="3.50889">
        <ele>1293</ele>
        <time>2026-05-28T10:56:32.000Z</time>
      </trkpt>
      <trkpt lat="44.03079" lon="3.50888">
        <ele>1292.8</ele>
        <time>2026-05-28T10:56:33.000Z</time>
      </trkpt>
      <trkpt lat="44.03079" lon="3.50887">
        <ele>1292.5</ele>
        <time>2026-05-28T10:56:34.000Z</time>
      </trkpt>
      <trkpt lat="44.03081" lon="3.50885">
        <ele>1292.1</ele>
        <time>2026-05-28T10:56:35.000Z</time>
      </trkpt>
      <trkpt lat="44.03081" lon="3.50883">
        <ele>1291.9</ele>
        <time>2026-05-28T10:56:36.000Z</time>
      </trkpt>
      <trkpt lat="44.03082" lon="3.50882">
        <ele>1291.5</ele>
        <time>2026-05-28T10:56:37.000Z</time>
      </trkpt>
      <trkpt lat="44.03082" lon="3.50881">
        <ele>1291.3</ele>
        <time>2026-05-28T10:56:38.000Z</time>
      </trkpt>
      <trkpt lat="44.03083" lon="3.5088">
        <ele>1291.4</ele>
        <time>2026-05-28T10:56:39.000Z</time>
      </trkpt>
      <trkpt lat="44.03083" lon="3.50879">
        <ele>1291.2</ele>
        <time>2026-05-28T10:56:40.000Z</time>
      </trkpt>
      <trkpt lat="44.03083" lon="3.50878">
        <ele>1290.9</ele>
        <time>2026-05-28T10:56:41.000Z</time>
      </trkpt>
      <trkpt lat="44.03083" lon="3.50877">
        <ele>1291</ele>
        <time>2026-05-28T10:56:42.000Z</time>
      </trkpt>
      <trkpt lat="44.03083" lon="3.50876">
        <ele>1291</ele>
        <time>2026-05-28T10:56:43.000Z</time>
      </trkpt>
      <trkpt lat="44.03083" lon="3.50873">
        <ele>1290.8</ele>
        <time>2026-05-28T10:56:44.000Z</time>
      </trkpt>
      <trkpt lat="44.03083" lon="3.50872">
        <ele>1291.2</ele>
        <time>2026-05-28T10:56:45.000Z</time>
      </trkpt>
      <trkpt lat="44.03083" lon="3.50871">
        <ele>1291.1</ele>
        <time>2026-05-28T10:56:46.000Z</time>
      </trkpt>
      <trkpt lat="44.03084" lon="3.5087">
        <ele>1291</ele>
        <time>2026-05-28T10:56:47.000Z</time>
      </trkpt>
      <trkpt lat="44.03084" lon="3.50868">
        <ele>1290.8</ele>
        <time>2026-05-28T10:56:48.000Z</time>
      </trkpt>
      <trkpt lat="44.03083" lon="3.50866">
        <ele>1290.7</ele>
        <time>2026-05-28T10:56:49.000Z</time>
      </trkpt>
      <trkpt lat="44.03083" lon="3.50864">
        <ele>1291.1</ele>
        <time>2026-05-28T10:56:50.000Z</time>
      </trkpt>
      <trkpt lat="44.03082" lon="3.50861">
        <ele>1291.3</ele>
        <time>2026-05-28T10:56:51.000Z</time>
      </trkpt>
      <trkpt lat="44.03081" lon="3.50859">
        <ele>1291.5</ele>
        <time>2026-05-28T10:56:52.000Z</time>
      </trkpt>
      <trkpt lat="44.03081" lon="3.50857">
        <ele>1291.5</ele>
        <time>2026-05-28T10:56:53.000Z</time>
      </trkpt>
      <trkpt lat="44.0308" lon="3.50856">
        <ele>1291.2</ele>
        <time>2026-05-28T10:56:54.000Z</time>
      </trkpt>
      <trkpt lat="44.03079" lon="3.50855">
        <ele>1291.5</ele>
        <time>2026-05-28T10:56:55.000Z</time>
      </trkpt>
      <trkpt lat="44.03078" lon="3.50853">
        <ele>1291.1</ele>
        <time>2026-05-28T10:56:56.000Z</time>
      </trkpt>
      <trkpt lat="44.03077" lon="3.50852">
        <ele>1291.3</ele>
        <time>2026-05-28T10:56:57.000Z</time>
      </trkpt>
      <trkpt lat="44.03076" lon="3.5085">
        <ele>1291.1</ele>
        <time>2026-05-28T10:56:58.000Z</time>
      </trkpt>
      <trkpt lat="44.03076" lon="3.50849">
        <ele>1290.9</ele>
        <time>2026-05-28T10:56:59.000Z</time>
      </trkpt>
      <trkpt lat="44.03075" lon="3.50848">
        <ele>1290.7</ele>
        <time>2026-05-28T10:57:00.000Z</time>
      </trkpt>
      <trkpt lat="44.03075" lon="3.50846">
        <ele>1290.6</ele>
        <time>2026-05-28T10:57:01.000Z</time>
      </trkpt>
      <trkpt lat="44.03074" lon="3.50845">
        <ele>1290.8</ele>
        <time>2026-05-28T10:57:02.000Z</time>
      </trkpt>
      <trkpt lat="44.03074" lon="3.50843">
        <ele>1290.9</ele>
        <time>2026-05-28T10:57:03.000Z</time>
      </trkpt>
      <trkpt lat="44.03074" lon="3.50842">
        <ele>1291.1</ele>
        <time>2026-05-28T10:57:04.000Z</time>
      </trkpt>
      <trkpt lat="44.03073" lon="3.50841">
        <ele>1291.5</ele>
        <time>2026-05-28T10:57:05.000Z</time>
      </trkpt>
      <trkpt lat="44.03072" lon="3.50839">
        <ele>1292.3</ele>
        <time>2026-05-28T10:57:06.000Z</time>
      </trkpt>
      <trkpt lat="44.03072" lon="3.50837">
        <ele>1292.4</ele>
        <time>2026-05-28T10:57:07.000Z</time>
      </trkpt>
      <trkpt lat="44.03072" lon="3.50837">
        <ele>1292.3</ele>
        <time>2026-05-28T10:57:08.000Z</time>
      </trkpt>
      <trkpt lat="44.03071" lon="3.50835">
        <ele>1292.5</ele>
        <time>2026-05-28T10:57:09.000Z</time>
      </trkpt>
      <trkpt lat="44.0307" lon="3.50833">
        <ele>1292.8</ele>
        <time>2026-05-28T10:57:10.000Z</time>
      </trkpt>
      <trkpt lat="44.03069" lon="3.50831">
        <ele>1292.7</ele>
        <time>2026-05-28T10:57:11.000Z</time>
      </trkpt>
      <trkpt lat="44.03068" lon="3.5083">
        <ele>1292.5</ele>
        <time>2026-05-28T10:57:12.000Z</time>
      </trkpt>
      <trkpt lat="44.03068" lon="3.50828">
        <ele>1292.4</ele>
        <time>2026-05-28T10:57:13.000Z</time>
      </trkpt>
      <trkpt lat="44.03067" lon="3.50826">
        <ele>1292.3</ele>
        <time>2026-05-28T10:57:14.000Z</time>
      </trkpt>
      <trkpt lat="44.03066" lon="3.50825">
        <ele>1292.3</ele>
        <time>2026-05-28T10:57:15.000Z</time>
      </trkpt>
      <trkpt lat="44.03066" lon="3.50824">
        <ele>1292.3</ele>
        <time>2026-05-28T10:57:16.000Z</time>
      </trkpt>
      <trkpt lat="44.03065" lon="3.50823">
        <ele>1292.4</ele>
        <time>2026-05-28T10:57:17.000Z</time>
      </trkpt>
      <trkpt lat="44.03065" lon="3.50821">
        <ele>1292.4</ele>
        <time>2026-05-28T10:57:18.000Z</time>
      </trkpt>
      <trkpt lat="44.03064" lon="3.5082">
        <ele>1292.3</ele>
        <time>2026-05-28T10:57:19.000Z</time>
      </trkpt>
      <trkpt lat="44.03064" lon="3.50818">
        <ele>1292.8</ele>
        <time>2026-05-28T10:57:20.000Z</time>
      </trkpt>
      <trkpt lat="44.03063" lon="3.50816">
        <ele>1293.3</ele>
        <time>2026-05-28T10:57:21.000Z</time>
      </trkpt>
      <trkpt lat="44.03063" lon="3.50815">
        <ele>1294.1</ele>
        <time>2026-05-28T10:57:22.000Z</time>
      </trkpt>
      <trkpt lat="44.03063" lon="3.50814">
        <ele>1295</ele>
        <time>2026-05-28T10:57:23.000Z</time>
      </trkpt>
      <trkpt lat="44.03063" lon="3.50813">
        <ele>1295.9</ele>
        <time>2026-05-28T10:57:24.000Z</time>
      </trkpt>
      <trkpt lat="44.03063" lon="3.50813">
        <ele>1295.9</ele>
        <time>2026-05-28T10:57:25.000Z</time>
      </trkpt>
      <trkpt lat="44.03062" lon="3.50811">
        <ele>1296.2</ele>
        <time>2026-05-28T10:57:26.000Z</time>
      </trkpt>
      <trkpt lat="44.03062" lon="3.5081">
        <ele>1295.4</ele>
        <time>2026-05-28T10:57:27.000Z</time>
      </trkpt>
      <trkpt lat="44.03062" lon="3.50809">
        <ele>1294.9</ele>
        <time>2026-05-28T10:57:28.000Z</time>
      </trkpt>
      <trkpt lat="44.03062" lon="3.50808">
        <ele>1294.5</ele>
        <time>2026-05-28T10:57:29.000Z</time>
      </trkpt>
      <trkpt lat="44.03061" lon="3.50807">
        <ele>1295.5</ele>
        <time>2026-05-28T10:57:30.000Z</time>
      </trkpt>
      <trkpt lat="44.03061" lon="3.50806">
        <ele>1296.6</ele>
        <time>2026-05-28T10:57:31.000Z</time>
      </trkpt>
      <trkpt lat="44.03061" lon="3.50805">
        <ele>1297.4</ele>
        <time>2026-05-28T10:57:32.000Z</time>
      </trkpt>
      <trkpt lat="44.03061" lon="3.50804">
        <ele>1297.9</ele>
        <time>2026-05-28T10:57:33.000Z</time>
      </trkpt>
      <trkpt lat="44.03062" lon="3.50804">
        <ele>1298</ele>
        <time>2026-05-28T10:57:34.000Z</time>
      </trkpt>
      <trkpt lat="44.03062" lon="3.50803">
        <ele>1298.1</ele>
        <time>2026-05-28T10:57:35.000Z</time>
      </trkpt>
      <trkpt lat="44.03061" lon="3.50802">
        <ele>1298.2</ele>
        <time>2026-05-28T10:57:36.000Z</time>
      </trkpt>
      <trkpt lat="44.03061" lon="3.50802">
        <ele>1298.7</ele>
        <time>2026-05-28T10:57:37.000Z</time>
      </trkpt>
      <trkpt lat="44.03061" lon="3.50802">
        <ele>1298.8</ele>
        <time>2026-05-28T10:57:38.000Z</time>
      </trkpt>
      <trkpt lat="44.03061" lon="3.50802">
        <ele>1299.3</ele>
        <time>2026-05-28T10:57:39.000Z</time>
      </trkpt>
      <trkpt lat="44.0306" lon="3.508">
        <ele>1300</ele>
        <time>2026-05-28T10:57:40.000Z</time>
      </trkpt>
      <trkpt lat="44.0306" lon="3.50799">
        <ele>1300.2</ele>
        <time>2026-05-28T10:57:41.000Z</time>
      </trkpt>
      <trkpt lat="44.03059" lon="3.50797">
        <ele>1299.7</ele>
        <time>2026-05-28T10:57:42.000Z</time>
      </trkpt>
      <trkpt lat="44.03059" lon="3.50796">
        <ele>1299.7</ele>
        <time>2026-05-28T10:57:43.000Z</time>
      </trkpt>
      <trkpt lat="44.03058" lon="3.50794">
        <ele>1299.5</ele>
        <time>2026-05-28T10:57:44.000Z</time>
      </trkpt>
      <trkpt lat="44.03058" lon="3.50793">
        <ele>1299.8</ele>
        <time>2026-05-28T10:57:45.000Z</time>
      </trkpt>
      <trkpt lat="44.03058" lon="3.50792">
        <ele>1300</ele>
        <time>2026-05-28T10:57:46.000Z</time>
      </trkpt>
      <trkpt lat="44.03058" lon="3.50789">
        <ele>1300.1</ele>
        <time>2026-05-28T10:57:47.000Z</time>
      </trkpt>
      <trkpt lat="44.03058" lon="3.50788">
        <ele>1300.3</ele>
        <time>2026-05-28T10:57:48.000Z</time>
      </trkpt>
      <trkpt lat="44.03058" lon="3.50787">
        <ele>1300.4</ele>
        <time>2026-05-28T10:57:49.000Z</time>
      </trkpt>
      <trkpt lat="44.03058" lon="3.50785">
        <ele>1300.7</ele>
        <time>2026-05-28T10:57:50.000Z</time>
      </trkpt>
      <trkpt lat="44.03058" lon="3.50784">
        <ele>1300.7</ele>
        <time>2026-05-28T10:57:51.000Z</time>
      </trkpt>
      <trkpt lat="44.03058" lon="3.50782">
        <ele>1301.1</ele>
        <time>2026-05-28T10:57:52.000Z</time>
      </trkpt>
      <trkpt lat="44.03058" lon="3.50782">
        <ele>1301.3</ele>
        <time>2026-05-28T10:57:53.000Z</time>
      </trkpt>
      <trkpt lat="44.03058" lon="3.50781">
        <ele>1301.5</ele>
        <time>2026-05-28T10:57:54.000Z</time>
      </trkpt>
      <trkpt lat="44.03058" lon="3.5078">
        <ele>1301.4</ele>
        <time>2026-05-28T10:57:55.000Z</time>
      </trkpt>
      <trkpt lat="44.03058" lon="3.50779">
        <ele>1301.4</ele>
        <time>2026-05-28T10:57:56.000Z</time>
      </trkpt>
      <trkpt lat="44.03058" lon="3.50778">
        <ele>1301.7</ele>
        <time>2026-05-28T10:57:57.000Z</time>
      </trkpt>
      <trkpt lat="44.03058" lon="3.50776">
        <ele>1301.9</ele>
        <time>2026-05-28T10:57:58.000Z</time>
      </trkpt>
      <trkpt lat="44.03059" lon="3.50775">
        <ele>1301.7</ele>
        <time>2026-05-28T10:57:59.000Z</time>
      </trkpt>
      <trkpt lat="44.03058" lon="3.50773">
        <ele>1301.4</ele>
        <time>2026-05-28T10:58:00.000Z</time>
      </trkpt>
      <trkpt lat="44.03058" lon="3.50772">
        <ele>1301.7</ele>
        <time>2026-05-28T10:58:01.000Z</time>
      </trkpt>
      <trkpt lat="44.03058" lon="3.5077">
        <ele>1302</ele>
        <time>2026-05-28T10:58:02.000Z</time>
      </trkpt>
      <trkpt lat="44.03058" lon="3.50768">
        <ele>1302.3</ele>
        <time>2026-05-28T10:58:03.000Z</time>
      </trkpt>
      <trkpt lat="44.03058" lon="3.50766">
        <ele>1302.4</ele>
        <time>2026-05-28T10:58:04.000Z</time>
      </trkpt>
      <trkpt lat="44.03058" lon="3.50764">
        <ele>1303.5</ele>
        <time>2026-05-28T10:58:05.000Z</time>
      </trkpt>
      <trkpt lat="44.03058" lon="3.50763">
        <ele>1303.9</ele>
        <time>2026-05-28T10:58:06.000Z</time>
      </trkpt>
      <trkpt lat="44.03058" lon="3.50762">
        <ele>1304.5</ele>
        <time>2026-05-28T10:58:07.000Z</time>
      </trkpt>
      <trkpt lat="44.03058" lon="3.5076">
        <ele>1304.6</ele>
        <time>2026-05-28T10:58:08.000Z</time>
      </trkpt>
      <trkpt lat="44.03057" lon="3.50758">
        <ele>1304.4</ele>
        <time>2026-05-28T10:58:09.000Z</time>
      </trkpt>
      <trkpt lat="44.03057" lon="3.50758">
        <ele>1304.7</ele>
        <time>2026-05-28T10:58:10.000Z</time>
      </trkpt>
      <trkpt lat="44.03056" lon="3.50757">
        <ele>1304.6</ele>
        <time>2026-05-28T10:58:11.000Z</time>
      </trkpt>
      <trkpt lat="44.03056" lon="3.50756">
        <ele>1305</ele>
        <time>2026-05-28T10:58:12.000Z</time>
      </trkpt>
      <trkpt lat="44.03056" lon="3.50755">
        <ele>1305.3</ele>
        <time>2026-05-28T10:58:13.000Z</time>
      </trkpt>
      <trkpt lat="44.03056" lon="3.50753">
        <ele>1305.2</ele>
        <time>2026-05-28T10:58:14.000Z</time>
      </trkpt>
      <trkpt lat="44.03055" lon="3.50752">
        <ele>1305.7</ele>
        <time>2026-05-28T10:58:15.000Z</time>
      </trkpt>
      <trkpt lat="44.03055" lon="3.50751">
        <ele>1306.1</ele>
        <time>2026-05-28T10:58:16.000Z</time>
      </trkpt>
      <trkpt lat="44.03055" lon="3.5075">
        <ele>1306.2</ele>
        <time>2026-05-28T10:58:17.000Z</time>
      </trkpt>
      <trkpt lat="44.03055" lon="3.50748">
        <ele>1306</ele>
        <time>2026-05-28T10:58:18.000Z</time>
      </trkpt>
      <trkpt lat="44.03055" lon="3.50747">
        <ele>1305.6</ele>
        <time>2026-05-28T10:58:19.000Z</time>
      </trkpt>
      <trkpt lat="44.03055" lon="3.50745">
        <ele>1305.7</ele>
        <time>2026-05-28T10:58:20.000Z</time>
      </trkpt>
      <trkpt lat="44.03054" lon="3.50743">
        <ele>1306.1</ele>
        <time>2026-05-28T10:58:21.000Z</time>
      </trkpt>
      <trkpt lat="44.03053" lon="3.50742">
        <ele>1305.7</ele>
        <time>2026-05-28T10:58:22.000Z</time>
      </trkpt>
      <trkpt lat="44.03052" lon="3.50742">
        <ele>1305.7</ele>
        <time>2026-05-28T10:58:23.000Z</time>
      </trkpt>
      <trkpt lat="44.03052" lon="3.50741">
        <ele>1305.5</ele>
        <time>2026-05-28T10:58:24.000Z</time>
      </trkpt>
      <trkpt lat="44.03052" lon="3.5074">
        <ele>1305.6</ele>
        <time>2026-05-28T10:58:25.000Z</time>
      </trkpt>
      <trkpt lat="44.03051" lon="3.50738">
        <ele>1306.1</ele>
        <time>2026-05-28T10:58:26.000Z</time>
      </trkpt>
      <trkpt lat="44.0305" lon="3.50736">
        <ele>1305.8</ele>
        <time>2026-05-28T10:58:27.000Z</time>
      </trkpt>
      <trkpt lat="44.03049" lon="3.50735">
        <ele>1306.2</ele>
        <time>2026-05-28T10:58:28.000Z</time>
      </trkpt>
      <trkpt lat="44.03049" lon="3.50734">
        <ele>1306.2</ele>
        <time>2026-05-28T10:58:29.000Z</time>
      </trkpt>
      <trkpt lat="44.03048" lon="3.50732">
        <ele>1306</ele>
        <time>2026-05-28T10:58:30.000Z</time>
      </trkpt>
      <trkpt lat="44.03047" lon="3.50731">
        <ele>1305.5</ele>
        <time>2026-05-28T10:58:31.000Z</time>
      </trkpt>
      <trkpt lat="44.03047" lon="3.5073">
        <ele>1304.9</ele>
        <time>2026-05-28T10:58:32.000Z</time>
      </trkpt>
      <trkpt lat="44.03046" lon="3.50729">
        <ele>1304.7</ele>
        <time>2026-05-28T10:58:33.000Z</time>
      </trkpt>
      <trkpt lat="44.03046" lon="3.50727">
        <ele>1304.3</ele>
        <time>2026-05-28T10:58:34.000Z</time>
      </trkpt>
      <trkpt lat="44.03047" lon="3.50725">
        <ele>1304.5</ele>
        <time>2026-05-28T10:58:35.000Z</time>
      </trkpt>
      <trkpt lat="44.03047" lon="3.50723">
        <ele>1304.4</ele>
        <time>2026-05-28T10:58:36.000Z</time>
      </trkpt>
      <trkpt lat="44.03048" lon="3.50721">
        <ele>1305.7</ele>
        <time>2026-05-28T10:58:37.000Z</time>
      </trkpt>
      <trkpt lat="44.03048" lon="3.5072">
        <ele>1306.4</ele>
        <time>2026-05-28T10:58:38.000Z</time>
      </trkpt>
      <trkpt lat="44.03049" lon="3.50719">
        <ele>1307.4</ele>
        <time>2026-05-28T10:58:39.000Z</time>
      </trkpt>
      <trkpt lat="44.03049" lon="3.50717">
        <ele>1307.8</ele>
        <time>2026-05-28T10:58:40.000Z</time>
      </trkpt>
      <trkpt lat="44.03049" lon="3.50716">
        <ele>1308.1</ele>
        <time>2026-05-28T10:58:41.000Z</time>
      </trkpt>
      <trkpt lat="44.03049" lon="3.50716">
        <ele>1308.3</ele>
        <time>2026-05-28T10:58:42.000Z</time>
      </trkpt>
      <trkpt lat="44.03049" lon="3.50716">
        <ele>1308.4</ele>
        <time>2026-05-28T10:58:43.000Z</time>
      </trkpt>
      <trkpt lat="44.0305" lon="3.50716">
        <ele>1308.3</ele>
        <time>2026-05-28T10:58:44.000Z</time>
      </trkpt>
      <trkpt lat="44.0305" lon="3.50714">
        <ele>1307.6</ele>
        <time>2026-05-28T10:58:45.000Z</time>
      </trkpt>
      <trkpt lat="44.0305" lon="3.50714">
        <ele>1308.1</ele>
        <time>2026-05-28T10:58:46.000Z</time>
      </trkpt>
      <trkpt lat="44.0305" lon="3.50714">
        <ele>1308.4</ele>
        <time>2026-05-28T10:58:47.000Z</time>
      </trkpt>
      <trkpt lat="44.0305" lon="3.50714">
        <ele>1308.3</ele>
        <time>2026-05-28T10:58:48.000Z</time>
      </trkpt>
      <trkpt lat="44.0305" lon="3.50714">
        <ele>1308.2</ele>
        <time>2026-05-28T10:58:49.000Z</time>
      </trkpt>
      <trkpt lat="44.0305" lon="3.50713">
        <ele>1308.3</ele>
        <time>2026-05-28T10:58:50.000Z</time>
      </trkpt>
      <trkpt lat="44.0305" lon="3.50713">
        <ele>1308.3</ele>
        <time>2026-05-28T10:58:51.000Z</time>
      </trkpt>
      <trkpt lat="44.0305" lon="3.50711">
        <ele>1308.6</ele>
        <time>2026-05-28T10:58:52.000Z</time>
      </trkpt>
      <trkpt lat="44.03048" lon="3.5071">
        <ele>1310</ele>
        <time>2026-05-28T10:58:53.000Z</time>
      </trkpt>
      <trkpt lat="44.03047" lon="3.50709">
        <ele>1310.8</ele>
        <time>2026-05-28T10:58:54.000Z</time>
      </trkpt>
      <trkpt lat="44.03046" lon="3.50707">
        <ele>1310.8</ele>
        <time>2026-05-28T10:58:55.000Z</time>
      </trkpt>
      <trkpt lat="44.03045" lon="3.50706">
        <ele>1310.6</ele>
        <time>2026-05-28T10:58:56.000Z</time>
      </trkpt>
      <trkpt lat="44.03045" lon="3.50704">
        <ele>1310.6</ele>
        <time>2026-05-28T10:58:57.000Z</time>
      </trkpt>
      <trkpt lat="44.03044" lon="3.50703">
        <ele>1310.8</ele>
        <time>2026-05-28T10:58:58.000Z</time>
      </trkpt>
      <trkpt lat="44.03043" lon="3.50702">
        <ele>1310.9</ele>
        <time>2026-05-28T10:58:59.000Z</time>
      </trkpt>
      <trkpt lat="44.03043" lon="3.50701">
        <ele>1310.9</ele>
        <time>2026-05-28T10:59:00.000Z</time>
      </trkpt>
      <trkpt lat="44.03042" lon="3.507">
        <ele>1311</ele>
        <time>2026-05-28T10:59:01.000Z</time>
      </trkpt>
      <trkpt lat="44.03041" lon="3.50699">
        <ele>1310.9</ele>
        <time>2026-05-28T10:59:02.000Z</time>
      </trkpt>
      <trkpt lat="44.03041" lon="3.50699">
        <ele>1310.9</ele>
        <time>2026-05-28T10:59:03.000Z</time>
      </trkpt>
      <trkpt lat="44.03041" lon="3.50699">
        <ele>1310.7</ele>
        <time>2026-05-28T10:59:04.000Z</time>
      </trkpt>
      <trkpt lat="44.0304" lon="3.50698">
        <ele>1310</ele>
        <time>2026-05-28T10:59:05.000Z</time>
      </trkpt>
      <trkpt lat="44.03039" lon="3.50696">
        <ele>1309.9</ele>
        <time>2026-05-28T10:59:06.000Z</time>
      </trkpt>
      <trkpt lat="44.03038" lon="3.50696">
        <ele>1310.4</ele>
        <time>2026-05-28T10:59:07.000Z</time>
      </trkpt>
      <trkpt lat="44.03037" lon="3.50695">
        <ele>1310.9</ele>
        <time>2026-05-28T10:59:08.000Z</time>
      </trkpt>
      <trkpt lat="44.03036" lon="3.50695">
        <ele>1311.6</ele>
        <time>2026-05-28T10:59:09.000Z</time>
      </trkpt>
      <trkpt lat="44.03035" lon="3.50694">
        <ele>1311.7</ele>
        <time>2026-05-28T10:59:10.000Z</time>
      </trkpt>
      <trkpt lat="44.03034" lon="3.50693">
        <ele>1311.7</ele>
        <time>2026-05-28T10:59:11.000Z</time>
      </trkpt>
      <trkpt lat="44.03034" lon="3.50692">
        <ele>1311.6</ele>
        <time>2026-05-28T10:59:12.000Z</time>
      </trkpt>
      <trkpt lat="44.03034" lon="3.50691">
        <ele>1311.5</ele>
        <time>2026-05-28T10:59:13.000Z</time>
      </trkpt>
      <trkpt lat="44.03033" lon="3.5069">
        <ele>1311.6</ele>
        <time>2026-05-28T10:59:14.000Z</time>
      </trkpt>
      <trkpt lat="44.03032" lon="3.50688">
        <ele>1311.8</ele>
        <time>2026-05-28T10:59:15.000Z</time>
      </trkpt>
      <trkpt lat="44.03032" lon="3.50688">
        <ele>1311.9</ele>
        <time>2026-05-28T10:59:16.000Z</time>
      </trkpt>
      <trkpt lat="44.0303" lon="3.50687">
        <ele>1312.2</ele>
        <time>2026-05-28T10:59:17.000Z</time>
      </trkpt>
      <trkpt lat="44.03029" lon="3.50685">
        <ele>1312.4</ele>
        <time>2026-05-28T10:59:18.000Z</time>
      </trkpt>
      <trkpt lat="44.03029" lon="3.50684">
        <ele>1312.8</ele>
        <time>2026-05-28T10:59:19.000Z</time>
      </trkpt>
      <trkpt lat="44.03029" lon="3.50683">
        <ele>1312.7</ele>
        <time>2026-05-28T10:59:20.000Z</time>
      </trkpt>
      <trkpt lat="44.03028" lon="3.50682">
        <ele>1312.4</ele>
        <time>2026-05-28T10:59:21.000Z</time>
      </trkpt>
      <trkpt lat="44.03028" lon="3.5068">
        <ele>1312.2</ele>
        <time>2026-05-28T10:59:22.000Z</time>
      </trkpt>
      <trkpt lat="44.03027" lon="3.50678">
        <ele>1312.6</ele>
        <time>2026-05-28T10:59:23.000Z</time>
      </trkpt>
      <trkpt lat="44.03026" lon="3.50677">
        <ele>1312.3</ele>
        <time>2026-05-28T10:59:24.000Z</time>
      </trkpt>
      <trkpt lat="44.03025" lon="3.50676">
        <ele>1311.9</ele>
        <time>2026-05-28T10:59:25.000Z</time>
      </trkpt>
      <trkpt lat="44.03024" lon="3.50674">
        <ele>1311.7</ele>
        <time>2026-05-28T10:59:26.000Z</time>
      </trkpt>
      <trkpt lat="44.03023" lon="3.50672">
        <ele>1311.9</ele>
        <time>2026-05-28T10:59:27.000Z</time>
      </trkpt>
      <trkpt lat="44.03022" lon="3.5067">
        <ele>1311.8</ele>
        <time>2026-05-28T10:59:28.000Z</time>
      </trkpt>
      <trkpt lat="44.03021" lon="3.50668">
        <ele>1311.2</ele>
        <time>2026-05-28T10:59:29.000Z</time>
      </trkpt>
      <trkpt lat="44.03021" lon="3.50666">
        <ele>1311.2</ele>
        <time>2026-05-28T10:59:30.000Z</time>
      </trkpt>
      <trkpt lat="44.03021" lon="3.50665">
        <ele>1310.8</ele>
        <time>2026-05-28T10:59:31.000Z</time>
      </trkpt>
      <trkpt lat="44.0302" lon="3.50664">
        <ele>1310.9</ele>
        <time>2026-05-28T10:59:32.000Z</time>
      </trkpt>
      <trkpt lat="44.0302" lon="3.50662">
        <ele>1311.3</ele>
        <time>2026-05-28T10:59:33.000Z</time>
      </trkpt>
      <trkpt lat="44.0302" lon="3.50662">
        <ele>1311.3</ele>
        <time>2026-05-28T10:59:34.000Z</time>
      </trkpt>
      <trkpt lat="44.0302" lon="3.5066">
        <ele>1311</ele>
        <time>2026-05-28T10:59:35.000Z</time>
      </trkpt>
      <trkpt lat="44.0302" lon="3.50658">
        <ele>1310.5</ele>
        <time>2026-05-28T10:59:36.000Z</time>
      </trkpt>
      <trkpt lat="44.03019" lon="3.50658">
        <ele>1310.3</ele>
        <time>2026-05-28T10:59:37.000Z</time>
      </trkpt>
      <trkpt lat="44.03019" lon="3.50657">
        <ele>1310.6</ele>
        <time>2026-05-28T10:59:38.000Z</time>
      </trkpt>
      <trkpt lat="44.03019" lon="3.50657">
        <ele>1310.7</ele>
        <time>2026-05-28T10:59:39.000Z</time>
      </trkpt>
      <trkpt lat="44.03018" lon="3.50656">
        <ele>1310.9</ele>
        <time>2026-05-28T10:59:40.000Z</time>
      </trkpt>
      <trkpt lat="44.03017" lon="3.50655">
        <ele>1310.9</ele>
        <time>2026-05-28T10:59:41.000Z</time>
      </trkpt>
      <trkpt lat="44.03016" lon="3.50653">
        <ele>1311</ele>
        <time>2026-05-28T10:59:42.000Z</time>
      </trkpt>
      <trkpt lat="44.03016" lon="3.50652">
        <ele>1311</ele>
        <time>2026-05-28T10:59:43.000Z</time>
      </trkpt>
      <trkpt lat="44.03016" lon="3.50651">
        <ele>1311</ele>
        <time>2026-05-28T10:59:44.000Z</time>
      </trkpt>
      <trkpt lat="44.03015" lon="3.5065">
        <ele>1311.1</ele>
        <time>2026-05-28T10:59:45.000Z</time>
      </trkpt>
      <trkpt lat="44.03014" lon="3.50649">
        <ele>1310.9</ele>
        <time>2026-05-28T10:59:46.000Z</time>
      </trkpt>
      <trkpt lat="44.03013" lon="3.50648">
        <ele>1310.6</ele>
        <time>2026-05-28T10:59:47.000Z</time>
      </trkpt>
      <trkpt lat="44.03013" lon="3.50646">
        <ele>1310.3</ele>
        <time>2026-05-28T10:59:48.000Z</time>
      </trkpt>
      <trkpt lat="44.03012" lon="3.50644">
        <ele>1310.1</ele>
        <time>2026-05-28T10:59:49.000Z</time>
      </trkpt>
      <trkpt lat="44.03011" lon="3.50643">
        <ele>1309.8</ele>
        <time>2026-05-28T10:59:50.000Z</time>
      </trkpt>
      <trkpt lat="44.03011" lon="3.50642">
        <ele>1309.3</ele>
        <time>2026-05-28T10:59:51.000Z</time>
      </trkpt>
      <trkpt lat="44.0301" lon="3.5064">
        <ele>1309</ele>
        <time>2026-05-28T10:59:52.000Z</time>
      </trkpt>
      <trkpt lat="44.03009" lon="3.50639">
        <ele>1309</ele>
        <time>2026-05-28T10:59:53.000Z</time>
      </trkpt>
      <trkpt lat="44.03009" lon="3.50639">
        <ele>1309.6</ele>
        <time>2026-05-28T10:59:54.000Z</time>
      </trkpt>
      <trkpt lat="44.03008" lon="3.50639">
        <ele>1310.4</ele>
        <time>2026-05-28T10:59:55.000Z</time>
      </trkpt>
      <trkpt lat="44.03008" lon="3.50638">
        <ele>1310.6</ele>
        <time>2026-05-28T10:59:56.000Z</time>
      </trkpt>
      <trkpt lat="44.03008" lon="3.50637">
        <ele>1310.5</ele>
        <time>2026-05-28T10:59:57.000Z</time>
      </trkpt>
      <trkpt lat="44.03008" lon="3.50636">
        <ele>1310.3</ele>
        <time>2026-05-28T10:59:58.000Z</time>
      </trkpt>
      <trkpt lat="44.03007" lon="3.50635">
        <ele>1310.3</ele>
        <time>2026-05-28T10:59:59.000Z</time>
      </trkpt>
      <trkpt lat="44.03007" lon="3.50633">
        <ele>1310</ele>
        <time>2026-05-28T11:00:00.000Z</time>
      </trkpt>
      <trkpt lat="44.03006" lon="3.50632">
        <ele>1310.2</ele>
        <time>2026-05-28T11:00:01.000Z</time>
      </trkpt>
      <trkpt lat="44.03005" lon="3.50631">
        <ele>1310.2</ele>
        <time>2026-05-28T11:00:02.000Z</time>
      </trkpt>
      <trkpt lat="44.03005" lon="3.5063">
        <ele>1310.2</ele>
        <time>2026-05-28T11:00:03.000Z</time>
      </trkpt>
      <trkpt lat="44.03004" lon="3.50629">
        <ele>1309.9</ele>
        <time>2026-05-28T11:00:04.000Z</time>
      </trkpt>
      <trkpt lat="44.03003" lon="3.50626">
        <ele>1309.6</ele>
        <time>2026-05-28T11:00:05.000Z</time>
      </trkpt>
      <trkpt lat="44.03002" lon="3.50624">
        <ele>1310.1</ele>
        <time>2026-05-28T11:00:06.000Z</time>
      </trkpt>
      <trkpt lat="44.03001" lon="3.50623">
        <ele>1310.1</ele>
        <time>2026-05-28T11:00:07.000Z</time>
      </trkpt>
      <trkpt lat="44.03" lon="3.50622">
        <ele>1310.2</ele>
        <time>2026-05-28T11:00:08.000Z</time>
      </trkpt>
      <trkpt lat="44.02999" lon="3.50621">
        <ele>1310.7</ele>
        <time>2026-05-28T11:00:09.000Z</time>
      </trkpt>
      <trkpt lat="44.02999" lon="3.5062">
        <ele>1310.7</ele>
        <time>2026-05-28T11:00:10.000Z</time>
      </trkpt>
      <trkpt lat="44.02998" lon="3.50619">
        <ele>1310.7</ele>
        <time>2026-05-28T11:00:11.000Z</time>
      </trkpt>
      <trkpt lat="44.02998" lon="3.50617">
        <ele>1310.8</ele>
        <time>2026-05-28T11:00:12.000Z</time>
      </trkpt>
      <trkpt lat="44.02998" lon="3.50615">
        <ele>1310.6</ele>
        <time>2026-05-28T11:00:13.000Z</time>
      </trkpt>
      <trkpt lat="44.02998" lon="3.50614">
        <ele>1310.4</ele>
        <time>2026-05-28T11:00:14.000Z</time>
      </trkpt>
      <trkpt lat="44.02998" lon="3.50613">
        <ele>1310.5</ele>
        <time>2026-05-28T11:00:15.000Z</time>
      </trkpt>
      <trkpt lat="44.02998" lon="3.50611">
        <ele>1310.6</ele>
        <time>2026-05-28T11:00:16.000Z</time>
      </trkpt>
      <trkpt lat="44.02998" lon="3.5061">
        <ele>1310.7</ele>
        <time>2026-05-28T11:00:17.000Z</time>
      </trkpt>
      <trkpt lat="44.02998" lon="3.50608">
        <ele>1310.8</ele>
        <time>2026-05-28T11:00:18.000Z</time>
      </trkpt>
      <trkpt lat="44.02998" lon="3.50606">
        <ele>1311</ele>
        <time>2026-05-28T11:00:19.000Z</time>
      </trkpt>
      <trkpt lat="44.02998" lon="3.50604">
        <ele>1310.8</ele>
        <time>2026-05-28T11:00:20.000Z</time>
      </trkpt>
      <trkpt lat="44.02999" lon="3.50603">
        <ele>1310.9</ele>
        <time>2026-05-28T11:00:21.000Z</time>
      </trkpt>
      <trkpt lat="44.02999" lon="3.50602">
        <ele>1311</ele>
        <time>2026-05-28T11:00:22.000Z</time>
      </trkpt>
      <trkpt lat="44.02998" lon="3.50601">
        <ele>1311.2</ele>
        <time>2026-05-28T11:00:23.000Z</time>
      </trkpt>
      <trkpt lat="44.02999" lon="3.506">
        <ele>1311.3</ele>
        <time>2026-05-28T11:00:24.000Z</time>
      </trkpt>
      <trkpt lat="44.02999" lon="3.50599">
        <ele>1311.7</ele>
        <time>2026-05-28T11:00:25.000Z</time>
      </trkpt>
      <trkpt lat="44.02999" lon="3.50597">
        <ele>1311.5</ele>
        <time>2026-05-28T11:00:26.000Z</time>
      </trkpt>
      <trkpt lat="44.02999" lon="3.50596">
        <ele>1311.4</ele>
        <time>2026-05-28T11:00:27.000Z</time>
      </trkpt>
      <trkpt lat="44.02999" lon="3.50595">
        <ele>1311.3</ele>
        <time>2026-05-28T11:00:28.000Z</time>
      </trkpt>
      <trkpt lat="44.02999" lon="3.50593">
        <ele>1311.5</ele>
        <time>2026-05-28T11:00:29.000Z</time>
      </trkpt>
      <trkpt lat="44.02999" lon="3.50592">
        <ele>1311.4</ele>
        <time>2026-05-28T11:00:30.000Z</time>
      </trkpt>
      <trkpt lat="44.03" lon="3.5059">
        <ele>1311.6</ele>
        <time>2026-05-28T11:00:31.000Z</time>
      </trkpt>
      <trkpt lat="44.03001" lon="3.50588">
        <ele>1311.6</ele>
        <time>2026-05-28T11:00:32.000Z</time>
      </trkpt>
      <trkpt lat="44.03001" lon="3.50587">
        <ele>1311.4</ele>
        <time>2026-05-28T11:00:33.000Z</time>
      </trkpt>
      <trkpt lat="44.03001" lon="3.50585">
        <ele>1311.4</ele>
        <time>2026-05-28T11:00:34.000Z</time>
      </trkpt>
      <trkpt lat="44.03002" lon="3.50584">
        <ele>1311.6</ele>
        <time>2026-05-28T11:00:35.000Z</time>
      </trkpt>
      <trkpt lat="44.03002" lon="3.50582">
        <ele>1311.7</ele>
        <time>2026-05-28T11:00:36.000Z</time>
      </trkpt>
      <trkpt lat="44.03002" lon="3.50581">
        <ele>1311.6</ele>
        <time>2026-05-28T11:00:37.000Z</time>
      </trkpt>
      <trkpt lat="44.03002" lon="3.5058">
        <ele>1311.9</ele>
        <time>2026-05-28T11:00:38.000Z</time>
      </trkpt>
      <trkpt lat="44.03003" lon="3.50579">
        <ele>1311.7</ele>
        <time>2026-05-28T11:00:39.000Z</time>
      </trkpt>
      <trkpt lat="44.03004" lon="3.50578">
        <ele>1311.9</ele>
        <time>2026-05-28T11:00:40.000Z</time>
      </trkpt>
      <trkpt lat="44.03005" lon="3.50577">
        <ele>1311.9</ele>
        <time>2026-05-28T11:00:41.000Z</time>
      </trkpt>
      <trkpt lat="44.03006" lon="3.50575">
        <ele>1311.5</ele>
        <time>2026-05-28T11:00:42.000Z</time>
      </trkpt>
      <trkpt lat="44.03007" lon="3.50574">
        <ele>1311.6</ele>
        <time>2026-05-28T11:00:43.000Z</time>
      </trkpt>
      <trkpt lat="44.03007" lon="3.50572">
        <ele>1311.8</ele>
        <time>2026-05-28T11:00:44.000Z</time>
      </trkpt>
      <trkpt lat="44.03007" lon="3.50571">
        <ele>1311.8</ele>
        <time>2026-05-28T11:00:45.000Z</time>
      </trkpt>
      <trkpt lat="44.03007" lon="3.5057">
        <ele>1312.2</ele>
        <time>2026-05-28T11:00:46.000Z</time>
      </trkpt>
      <trkpt lat="44.03008" lon="3.50569">
        <ele>1312.7</ele>
        <time>2026-05-28T11:00:47.000Z</time>
      </trkpt>
      <trkpt lat="44.03008" lon="3.50568">
        <ele>1313</ele>
        <time>2026-05-28T11:00:48.000Z</time>
      </trkpt>
      <trkpt lat="44.03008" lon="3.50566">
        <ele>1312.8</ele>
        <time>2026-05-28T11:00:49.000Z</time>
      </trkpt>
      <trkpt lat="44.03009" lon="3.50565">
        <ele>1313.2</ele>
        <time>2026-05-28T11:00:50.000Z</time>
      </trkpt>
      <trkpt lat="44.0301" lon="3.50564">
        <ele>1313.5</ele>
        <time>2026-05-28T11:00:51.000Z</time>
      </trkpt>
      <trkpt lat="44.03011" lon="3.50563">
        <ele>1313.9</ele>
        <time>2026-05-28T11:00:52.000Z</time>
      </trkpt>
      <trkpt lat="44.03012" lon="3.50562">
        <ele>1314.2</ele>
        <time>2026-05-28T11:00:53.000Z</time>
      </trkpt>
      <trkpt lat="44.03013" lon="3.5056">
        <ele>1314.5</ele>
        <time>2026-05-28T11:00:54.000Z</time>
      </trkpt>
      <trkpt lat="44.03014" lon="3.50559">
        <ele>1314.7</ele>
        <time>2026-05-28T11:00:55.000Z</time>
      </trkpt>
      <trkpt lat="44.03016" lon="3.50559">
        <ele>1314.5</ele>
        <time>2026-05-28T11:00:56.000Z</time>
      </trkpt>
      <trkpt lat="44.03017" lon="3.50558">
        <ele>1314.4</ele>
        <time>2026-05-28T11:00:57.000Z</time>
      </trkpt>
      <trkpt lat="44.03018" lon="3.50557">
        <ele>1314.6</ele>
        <time>2026-05-28T11:00:58.000Z</time>
      </trkpt>
      <trkpt lat="44.03018" lon="3.50556">
        <ele>1314.7</ele>
        <time>2026-05-28T11:00:59.000Z</time>
      </trkpt>
      <trkpt lat="44.03019" lon="3.50555">
        <ele>1314.4</ele>
        <time>2026-05-28T11:01:00.000Z</time>
      </trkpt>
      <trkpt lat="44.03019" lon="3.50553">
        <ele>1314.3</ele>
        <time>2026-05-28T11:01:01.000Z</time>
      </trkpt>
      <trkpt lat="44.0302" lon="3.50551">
        <ele>1313.4</ele>
        <time>2026-05-28T11:01:02.000Z</time>
      </trkpt>
      <trkpt lat="44.0302" lon="3.5055">
        <ele>1312.9</ele>
        <time>2026-05-28T11:01:03.000Z</time>
      </trkpt>
      <trkpt lat="44.03021" lon="3.50549">
        <ele>1313</ele>
        <time>2026-05-28T11:01:04.000Z</time>
      </trkpt>
      <trkpt lat="44.03022" lon="3.50548">
        <ele>1312.9</ele>
        <time>2026-05-28T11:01:05.000Z</time>
      </trkpt>
      <trkpt lat="44.03022" lon="3.50547">
        <ele>1312.9</ele>
        <time>2026-05-28T11:01:06.000Z</time>
      </trkpt>
      <trkpt lat="44.03023" lon="3.50546">
        <ele>1313.1</ele>
        <time>2026-05-28T11:01:07.000Z</time>
      </trkpt>
      <trkpt lat="44.03024" lon="3.50546">
        <ele>1312.8</ele>
        <time>2026-05-28T11:01:08.000Z</time>
      </trkpt>
      <trkpt lat="44.03025" lon="3.50545">
        <ele>1312.9</ele>
        <time>2026-05-28T11:01:09.000Z</time>
      </trkpt>
      <trkpt lat="44.03026" lon="3.50544">
        <ele>1312.4</ele>
        <time>2026-05-28T11:01:10.000Z</time>
      </trkpt>
      <trkpt lat="44.03027" lon="3.50544">
        <ele>1312.5</ele>
        <time>2026-05-28T11:01:11.000Z</time>
      </trkpt>
      <trkpt lat="44.03028" lon="3.50544">
        <ele>1312.4</ele>
        <time>2026-05-28T11:01:12.000Z</time>
      </trkpt>
      <trkpt lat="44.03029" lon="3.50543">
        <ele>1312.8</ele>
        <time>2026-05-28T11:01:13.000Z</time>
      </trkpt>
      <trkpt lat="44.0303" lon="3.50543">
        <ele>1313.1</ele>
        <time>2026-05-28T11:01:14.000Z</time>
      </trkpt>
      <trkpt lat="44.03031" lon="3.50542">
        <ele>1313.5</ele>
        <time>2026-05-28T11:01:15.000Z</time>
      </trkpt>
      <trkpt lat="44.03032" lon="3.50541">
        <ele>1313.4</ele>
        <time>2026-05-28T11:01:16.000Z</time>
      </trkpt>
      <trkpt lat="44.03033" lon="3.5054">
        <ele>1313.4</ele>
        <time>2026-05-28T11:01:17.000Z</time>
      </trkpt>
      <trkpt lat="44.03033" lon="3.50539">
        <ele>1313.3</ele>
        <time>2026-05-28T11:01:18.000Z</time>
      </trkpt>
      <trkpt lat="44.03034" lon="3.50538">
        <ele>1313.3</ele>
        <time>2026-05-28T11:01:19.000Z</time>
      </trkpt>
      <trkpt lat="44.03035" lon="3.50536">
        <ele>1313.1</ele>
        <time>2026-05-28T11:01:20.000Z</time>
      </trkpt>
      <trkpt lat="44.03036" lon="3.50535">
        <ele>1313.4</ele>
        <time>2026-05-28T11:01:21.000Z</time>
      </trkpt>
      <trkpt lat="44.03037" lon="3.50535">
        <ele>1313.3</ele>
        <time>2026-05-28T11:01:22.000Z</time>
      </trkpt>
      <trkpt lat="44.03038" lon="3.50534">
        <ele>1313.7</ele>
        <time>2026-05-28T11:01:23.000Z</time>
      </trkpt>
      <trkpt lat="44.03039" lon="3.50534">
        <ele>1314.3</ele>
        <time>2026-05-28T11:01:24.000Z</time>
      </trkpt>
      <trkpt lat="44.03039" lon="3.50533">
        <ele>1314.9</ele>
        <time>2026-05-28T11:01:25.000Z</time>
      </trkpt>
      <trkpt lat="44.03039" lon="3.50532">
        <ele>1315.3</ele>
        <time>2026-05-28T11:01:26.000Z</time>
      </trkpt>
      <trkpt lat="44.0304" lon="3.50531">
        <ele>1315.3</ele>
        <time>2026-05-28T11:01:27.000Z</time>
      </trkpt>
      <trkpt lat="44.03041" lon="3.5053">
        <ele>1315.5</ele>
        <time>2026-05-28T11:01:28.000Z</time>
      </trkpt>
      <trkpt lat="44.03043" lon="3.5053">
        <ele>1315.9</ele>
        <time>2026-05-28T11:01:29.000Z</time>
      </trkpt>
      <trkpt lat="44.03044" lon="3.50528">
        <ele>1315.5</ele>
        <time>2026-05-28T11:01:30.000Z</time>
      </trkpt>
      <trkpt lat="44.03046" lon="3.50527">
        <ele>1315.8</ele>
        <time>2026-05-28T11:01:31.000Z</time>
      </trkpt>
      <trkpt lat="44.03047" lon="3.50526">
        <ele>1316.4</ele>
        <time>2026-05-28T11:01:32.000Z</time>
      </trkpt>
      <trkpt lat="44.03047" lon="3.50526">
        <ele>1316.9</ele>
        <time>2026-05-28T11:01:33.000Z</time>
      </trkpt>
      <trkpt lat="44.03048" lon="3.50525">
        <ele>1317.5</ele>
        <time>2026-05-28T11:01:34.000Z</time>
      </trkpt>
      <trkpt lat="44.03049" lon="3.50525">
        <ele>1317.8</ele>
        <time>2026-05-28T11:01:35.000Z</time>
      </trkpt>
      <trkpt lat="44.0305" lon="3.50525">
        <ele>1318.4</ele>
        <time>2026-05-28T11:01:36.000Z</time>
      </trkpt>
      <trkpt lat="44.03051" lon="3.50523">
        <ele>1319.1</ele>
        <time>2026-05-28T11:01:37.000Z</time>
      </trkpt>
      <trkpt lat="44.03052" lon="3.50523">
        <ele>1319.5</ele>
        <time>2026-05-28T11:01:38.000Z</time>
      </trkpt>
      <trkpt lat="44.03053" lon="3.50522">
        <ele>1320.1</ele>
        <time>2026-05-28T11:01:39.000Z</time>
      </trkpt>
      <trkpt lat="44.03054" lon="3.5052">
        <ele>1320.3</ele>
        <time>2026-05-28T11:01:40.000Z</time>
      </trkpt>
      <trkpt lat="44.03054" lon="3.5052">
        <ele>1320.1</ele>
        <time>2026-05-28T11:01:41.000Z</time>
      </trkpt>
      <trkpt lat="44.03055" lon="3.50519">
        <ele>1319.9</ele>
        <time>2026-05-28T11:01:42.000Z</time>
      </trkpt>
      <trkpt lat="44.03056" lon="3.50518">
        <ele>1320</ele>
        <time>2026-05-28T11:01:43.000Z</time>
      </trkpt>
      <trkpt lat="44.03057" lon="3.50518">
        <ele>1319.8</ele>
        <time>2026-05-28T11:01:44.000Z</time>
      </trkpt>
      <trkpt lat="44.03058" lon="3.50517">
        <ele>1319.7</ele>
        <time>2026-05-28T11:01:45.000Z</time>
      </trkpt>
      <trkpt lat="44.0306" lon="3.50516">
        <ele>1319</ele>
        <time>2026-05-28T11:01:46.000Z</time>
      </trkpt>
      <trkpt lat="44.0306" lon="3.50517">
        <ele>1319.5</ele>
        <time>2026-05-28T11:01:47.000Z</time>
      </trkpt>
      <trkpt lat="44.03061" lon="3.50516">
        <ele>1320</ele>
        <time>2026-05-28T11:01:48.000Z</time>
      </trkpt>
      <trkpt lat="44.03061" lon="3.50516">
        <ele>1320.8</ele>
        <time>2026-05-28T11:01:49.000Z</time>
      </trkpt>
      <trkpt lat="44.03062" lon="3.50515">
        <ele>1321</ele>
        <time>2026-05-28T11:01:50.000Z</time>
      </trkpt>
      <trkpt lat="44.03063" lon="3.50514">
        <ele>1321.3</ele>
        <time>2026-05-28T11:01:51.000Z</time>
      </trkpt>
      <trkpt lat="44.03064" lon="3.50513">
        <ele>1322</ele>
        <time>2026-05-28T11:01:52.000Z</time>
      </trkpt>
      <trkpt lat="44.03065" lon="3.50512">
        <ele>1322.3</ele>
        <time>2026-05-28T11:01:53.000Z</time>
      </trkpt>
      <trkpt lat="44.03066" lon="3.50511">
        <ele>1322.3</ele>
        <time>2026-05-28T11:01:54.000Z</time>
      </trkpt>
      <trkpt lat="44.03067" lon="3.5051">
        <ele>1322.4</ele>
        <time>2026-05-28T11:01:55.000Z</time>
      </trkpt>
      <trkpt lat="44.03068" lon="3.50509">
        <ele>1322.2</ele>
        <time>2026-05-28T11:01:56.000Z</time>
      </trkpt>
      <trkpt lat="44.03069" lon="3.50509">
        <ele>1322.6</ele>
        <time>2026-05-28T11:01:57.000Z</time>
      </trkpt>
      <trkpt lat="44.03069" lon="3.50509">
        <ele>1322.6</ele>
        <time>2026-05-28T11:01:58.000Z</time>
      </trkpt>
      <trkpt lat="44.03069" lon="3.50509">
        <ele>1322.7</ele>
        <time>2026-05-28T11:01:59.000Z</time>
      </trkpt>
      <trkpt lat="44.0307" lon="3.50509">
        <ele>1322.8</ele>
        <time>2026-05-28T11:02:00.000Z</time>
      </trkpt>
      <trkpt lat="44.03071" lon="3.50508">
        <ele>1322.8</ele>
        <time>2026-05-28T11:02:01.000Z</time>
      </trkpt>
      <trkpt lat="44.03071" lon="3.50507">
        <ele>1322.9</ele>
        <time>2026-05-28T11:02:02.000Z</time>
      </trkpt>
      <trkpt lat="44.03071" lon="3.50507">
        <ele>1323</ele>
        <time>2026-05-28T11:02:03.000Z</time>
      </trkpt>
      <trkpt lat="44.03071" lon="3.50507">
        <ele>1323.2</ele>
        <time>2026-05-28T11:02:04.000Z</time>
      </trkpt>
      <trkpt lat="44.03072" lon="3.50506">
        <ele>1323.4</ele>
        <time>2026-05-28T11:02:05.000Z</time>
      </trkpt>
      <trkpt lat="44.03073" lon="3.50505">
        <ele>1323.5</ele>
        <time>2026-05-28T11:02:06.000Z</time>
      </trkpt>
      <trkpt lat="44.03074" lon="3.50502">
        <ele>1323.5</ele>
        <time>2026-05-28T11:02:07.000Z</time>
      </trkpt>
      <trkpt lat="44.03076" lon="3.50501">
        <ele>1323.7</ele>
        <time>2026-05-28T11:02:08.000Z</time>
      </trkpt>
      <trkpt lat="44.03078" lon="3.505">
        <ele>1323.9</ele>
        <time>2026-05-28T11:02:09.000Z</time>
      </trkpt>
      <trkpt lat="44.03079" lon="3.505">
        <ele>1324.1</ele>
        <time>2026-05-28T11:02:10.000Z</time>
      </trkpt>
      <trkpt lat="44.0308" lon="3.50499">
        <ele>1323.8</ele>
        <time>2026-05-28T11:02:11.000Z</time>
      </trkpt>
      <trkpt lat="44.03081" lon="3.50497">
        <ele>1323.2</ele>
        <time>2026-05-28T11:02:12.000Z</time>
      </trkpt>
      <trkpt lat="44.03081" lon="3.50496">
        <ele>1322.6</ele>
        <time>2026-05-28T11:02:13.000Z</time>
      </trkpt>
      <trkpt lat="44.03081" lon="3.50495">
        <ele>1322.2</ele>
        <time>2026-05-28T11:02:14.000Z</time>
      </trkpt>
      <trkpt lat="44.03082" lon="3.50494">
        <ele>1321.7</ele>
        <time>2026-05-28T11:02:15.000Z</time>
      </trkpt>
      <trkpt lat="44.03082" lon="3.50494">
        <ele>1321.6</ele>
        <time>2026-05-28T11:02:16.000Z</time>
      </trkpt>
      <trkpt lat="44.03082" lon="3.50494">
        <ele>1321.3</ele>
        <time>2026-05-28T11:02:17.000Z</time>
      </trkpt>
      <trkpt lat="44.03082" lon="3.50494">
        <ele>1321.1</ele>
        <time>2026-05-28T11:02:18.000Z</time>
      </trkpt>
      <trkpt lat="44.03082" lon="3.50493">
        <ele>1321.2</ele>
        <time>2026-05-28T11:02:19.000Z</time>
      </trkpt>
      <trkpt lat="44.03082" lon="3.50493">
        <ele>1320.9</ele>
        <time>2026-05-28T11:02:20.000Z</time>
      </trkpt>
      <trkpt lat="44.03082" lon="3.50493">
        <ele>1320.8</ele>
        <time>2026-05-28T11:02:21.000Z</time>
      </trkpt>
      <trkpt lat="44.03084" lon="3.50491">
        <ele>1320.4</ele>
        <time>2026-05-28T11:02:22.000Z</time>
      </trkpt>
      <trkpt lat="44.03086" lon="3.50489">
        <ele>1320.6</ele>
        <time>2026-05-28T11:02:23.000Z</time>
      </trkpt>
      <trkpt lat="44.03087" lon="3.50488">
        <ele>1320.5</ele>
        <time>2026-05-28T11:02:24.000Z</time>
      </trkpt>
      <trkpt lat="44.03088" lon="3.50487">
        <ele>1320.4</ele>
        <time>2026-05-28T11:02:25.000Z</time>
      </trkpt>
      <trkpt lat="44.0309" lon="3.50485">
        <ele>1320.8</ele>
        <time>2026-05-28T11:02:26.000Z</time>
      </trkpt>
      <trkpt lat="44.0309" lon="3.50484">
        <ele>1320.9</ele>
        <time>2026-05-28T11:02:27.000Z</time>
      </trkpt>
      <trkpt lat="44.03092" lon="3.50482">
        <ele>1320.8</ele>
        <time>2026-05-28T11:02:28.000Z</time>
      </trkpt>
      <trkpt lat="44.03093" lon="3.50481">
        <ele>1320.8</ele>
        <time>2026-05-28T11:02:29.000Z</time>
      </trkpt>
      <trkpt lat="44.03095" lon="3.5048">
        <ele>1321.1</ele>
        <time>2026-05-28T11:02:30.000Z</time>
      </trkpt>
      <trkpt lat="44.03096" lon="3.50479">
        <ele>1320.8</ele>
        <time>2026-05-28T11:02:31.000Z</time>
      </trkpt>
      <trkpt lat="44.03098" lon="3.50479">
        <ele>1321</ele>
        <time>2026-05-28T11:02:32.000Z</time>
      </trkpt>
      <trkpt lat="44.03099" lon="3.50478">
        <ele>1321.1</ele>
        <time>2026-05-28T11:02:33.000Z</time>
      </trkpt>
      <trkpt lat="44.03099" lon="3.50477">
        <ele>1321.5</ele>
        <time>2026-05-28T11:02:34.000Z</time>
      </trkpt>
      <trkpt lat="44.031" lon="3.50475">
        <ele>1322</ele>
        <time>2026-05-28T11:02:35.000Z</time>
      </trkpt>
      <trkpt lat="44.031" lon="3.50475">
        <ele>1321.3</ele>
        <time>2026-05-28T11:02:36.000Z</time>
      </trkpt>
      <trkpt lat="44.031" lon="3.50473">
        <ele>1321.1</ele>
        <time>2026-05-28T11:02:37.000Z</time>
      </trkpt>
      <trkpt lat="44.031" lon="3.50473">
        <ele>1320.9</ele>
        <time>2026-05-28T11:02:38.000Z</time>
      </trkpt>
      <trkpt lat="44.03101" lon="3.50472">
        <ele>1321</ele>
        <time>2026-05-28T11:02:39.000Z</time>
      </trkpt>
      <trkpt lat="44.03102" lon="3.50471">
        <ele>1320.8</ele>
        <time>2026-05-28T11:02:40.000Z</time>
      </trkpt>
      <trkpt lat="44.03103" lon="3.50469">
        <ele>1320.7</ele>
        <time>2026-05-28T11:02:41.000Z</time>
      </trkpt>
      <trkpt lat="44.03103" lon="3.50467">
        <ele>1320.5</ele>
        <time>2026-05-28T11:02:42.000Z</time>
      </trkpt>
      <trkpt lat="44.03103" lon="3.50466">
        <ele>1320</ele>
        <time>2026-05-28T11:02:43.000Z</time>
      </trkpt>
      <trkpt lat="44.03104" lon="3.50465">
        <ele>1319.7</ele>
        <time>2026-05-28T11:02:44.000Z</time>
      </trkpt>
      <trkpt lat="44.03106" lon="3.50464">
        <ele>1318.7</ele>
        <time>2026-05-28T11:02:45.000Z</time>
      </trkpt>
      <trkpt lat="44.03107" lon="3.50462">
        <ele>1318.3</ele>
        <time>2026-05-28T11:02:46.000Z</time>
      </trkpt>
      <trkpt lat="44.03108" lon="3.50462">
        <ele>1318.3</ele>
        <time>2026-05-28T11:02:47.000Z</time>
      </trkpt>
      <trkpt lat="44.03109" lon="3.50461">
        <ele>1318</ele>
        <time>2026-05-28T11:02:48.000Z</time>
      </trkpt>
      <trkpt lat="44.0311" lon="3.5046">
        <ele>1318.5</ele>
        <time>2026-05-28T11:02:49.000Z</time>
      </trkpt>
      <trkpt lat="44.0311" lon="3.5046">
        <ele>1319.2</ele>
        <time>2026-05-28T11:02:50.000Z</time>
      </trkpt>
      <trkpt lat="44.03111" lon="3.50459">
        <ele>1319.3</ele>
        <time>2026-05-28T11:02:51.000Z</time>
      </trkpt>
      <trkpt lat="44.0311" lon="3.50458">
        <ele>1319.5</ele>
        <time>2026-05-28T11:02:52.000Z</time>
      </trkpt>
      <trkpt lat="44.0311" lon="3.50458">
        <ele>1319.4</ele>
        <time>2026-05-28T11:02:53.000Z</time>
      </trkpt>
      <trkpt lat="44.0311" lon="3.50457">
        <ele>1319.2</ele>
        <time>2026-05-28T11:02:54.000Z</time>
      </trkpt>
      <trkpt lat="44.03111" lon="3.50457">
        <ele>1318.9</ele>
        <time>2026-05-28T11:02:55.000Z</time>
      </trkpt>
      <trkpt lat="44.03113" lon="3.50456">
        <ele>1318.7</ele>
        <time>2026-05-28T11:02:56.000Z</time>
      </trkpt>
      <trkpt lat="44.03114" lon="3.50454">
        <ele>1318.9</ele>
        <time>2026-05-28T11:02:57.000Z</time>
      </trkpt>
      <trkpt lat="44.03115" lon="3.50452">
        <ele>1318.8</ele>
        <time>2026-05-28T11:02:58.000Z</time>
      </trkpt>
      <trkpt lat="44.03116" lon="3.50451">
        <ele>1319</ele>
        <time>2026-05-28T11:02:59.000Z</time>
      </trkpt>
      <trkpt lat="44.03116" lon="3.5045">
        <ele>1318.9</ele>
        <time>2026-05-28T11:03:00.000Z</time>
      </trkpt>
      <trkpt lat="44.03117" lon="3.50449">
        <ele>1319</ele>
        <time>2026-05-28T11:03:01.000Z</time>
      </trkpt>
      <trkpt lat="44.03118" lon="3.50451">
        <ele>1319.1</ele>
        <time>2026-05-28T11:03:02.000Z</time>
      </trkpt>
      <trkpt lat="44.03118" lon="3.50451">
        <ele>1319.3</ele>
        <time>2026-05-28T11:03:03.000Z</time>
      </trkpt>
      <trkpt lat="44.03119" lon="3.50451">
        <ele>1319.5</ele>
        <time>2026-05-28T11:03:04.000Z</time>
      </trkpt>
      <trkpt lat="44.0312" lon="3.5045">
        <ele>1319.3</ele>
        <time>2026-05-28T11:03:05.000Z</time>
      </trkpt>
      <trkpt lat="44.03121" lon="3.50449">
        <ele>1319</ele>
        <time>2026-05-28T11:03:06.000Z</time>
      </trkpt>
      <trkpt lat="44.03121" lon="3.50448">
        <ele>1318.9</ele>
        <time>2026-05-28T11:03:07.000Z</time>
      </trkpt>
      <trkpt lat="44.03121" lon="3.50445">
        <ele>1318.3</ele>
        <time>2026-05-28T11:03:08.000Z</time>
      </trkpt>
      <trkpt lat="44.03122" lon="3.50444">
        <ele>1318</ele>
        <time>2026-05-28T11:03:09.000Z</time>
      </trkpt>
      <trkpt lat="44.03123" lon="3.50442">
        <ele>1318</ele>
        <time>2026-05-28T11:03:10.000Z</time>
      </trkpt>
      <trkpt lat="44.03123" lon="3.5044">
        <ele>1317.5</ele>
        <time>2026-05-28T11:03:11.000Z</time>
      </trkpt>
      <trkpt lat="44.03124" lon="3.50439">
        <ele>1317.5</ele>
        <time>2026-05-28T11:03:12.000Z</time>
      </trkpt>
      <trkpt lat="44.03124" lon="3.50438">
        <ele>1317.6</ele>
        <time>2026-05-28T11:03:13.000Z</time>
      </trkpt>
      <trkpt lat="44.03125" lon="3.50436">
        <ele>1318</ele>
        <time>2026-05-28T11:03:14.000Z</time>
      </trkpt>
      <trkpt lat="44.03126" lon="3.50436">
        <ele>1318.4</ele>
        <time>2026-05-28T11:03:15.000Z</time>
      </trkpt>
      <trkpt lat="44.03126" lon="3.50435">
        <ele>1318.7</ele>
        <time>2026-05-28T11:03:16.000Z</time>
      </trkpt>
      <trkpt lat="44.03127" lon="3.50434">
        <ele>1319</ele>
        <time>2026-05-28T11:03:17.000Z</time>
      </trkpt>
      <trkpt lat="44.03127" lon="3.50433">
        <ele>1319.7</ele>
        <time>2026-05-28T11:03:18.000Z</time>
      </trkpt>
      <trkpt lat="44.03128" lon="3.50431">
        <ele>1320.7</ele>
        <time>2026-05-28T11:03:19.000Z</time>
      </trkpt>
      <trkpt lat="44.03127" lon="3.50431">
        <ele>1321.4</ele>
        <time>2026-05-28T11:03:20.000Z</time>
      </trkpt>
      <trkpt lat="44.03127" lon="3.50431">
        <ele>1322.1</ele>
        <time>2026-05-28T11:03:21.000Z</time>
      </trkpt>
      <trkpt lat="44.03127" lon="3.5043">
        <ele>1322.5</ele>
        <time>2026-05-28T11:03:22.000Z</time>
      </trkpt>
      <trkpt lat="44.03127" lon="3.50429">
        <ele>1322.7</ele>
        <time>2026-05-28T11:03:23.000Z</time>
      </trkpt>
      <trkpt lat="44.03127" lon="3.50428">
        <ele>1322.9</ele>
        <time>2026-05-28T11:03:24.000Z</time>
      </trkpt>
      <trkpt lat="44.03127" lon="3.50427">
        <ele>1322.8</ele>
        <time>2026-05-28T11:03:25.000Z</time>
      </trkpt>
      <trkpt lat="44.03127" lon="3.50425">
        <ele>1322.9</ele>
        <time>2026-05-28T11:03:26.000Z</time>
      </trkpt>
      <trkpt lat="44.03127" lon="3.50425">
        <ele>1323.2</ele>
        <time>2026-05-28T11:03:27.000Z</time>
      </trkpt>
      <trkpt lat="44.03128" lon="3.50422">
        <ele>1323.4</ele>
        <time>2026-05-28T11:03:28.000Z</time>
      </trkpt>
      <trkpt lat="44.03128" lon="3.50421">
        <ele>1323.5</ele>
        <time>2026-05-28T11:03:29.000Z</time>
      </trkpt>
      <trkpt lat="44.03128" lon="3.50419">
        <ele>1324</ele>
        <time>2026-05-28T11:03:30.000Z</time>
      </trkpt>
      <trkpt lat="44.03127" lon="3.50417">
        <ele>1324.1</ele>
        <time>2026-05-28T11:03:31.000Z</time>
      </trkpt>
      <trkpt lat="44.03127" lon="3.50414">
        <ele>1324</ele>
        <time>2026-05-28T11:03:32.000Z</time>
      </trkpt>
      <trkpt lat="44.03127" lon="3.50413">
        <ele>1323.9</ele>
        <time>2026-05-28T11:03:33.000Z</time>
      </trkpt>
      <trkpt lat="44.03127" lon="3.50411">
        <ele>1323.9</ele>
        <time>2026-05-28T11:03:34.000Z</time>
      </trkpt>
      <trkpt lat="44.03126" lon="3.5041">
        <ele>1324.1</ele>
        <time>2026-05-28T11:03:35.000Z</time>
      </trkpt>
      <trkpt lat="44.03125" lon="3.50409">
        <ele>1324.4</ele>
        <time>2026-05-28T11:03:36.000Z</time>
      </trkpt>
      <trkpt lat="44.03125" lon="3.50407">
        <ele>1324.2</ele>
        <time>2026-05-28T11:03:37.000Z</time>
      </trkpt>
      <trkpt lat="44.03124" lon="3.50405">
        <ele>1324.3</ele>
        <time>2026-05-28T11:03:38.000Z</time>
      </trkpt>
      <trkpt lat="44.03124" lon="3.50404">
        <ele>1324.2</ele>
        <time>2026-05-28T11:03:39.000Z</time>
      </trkpt>
      <trkpt lat="44.03123" lon="3.50402">
        <ele>1324.1</ele>
        <time>2026-05-28T11:03:40.000Z</time>
      </trkpt>
      <trkpt lat="44.03123" lon="3.50401">
        <ele>1324</ele>
        <time>2026-05-28T11:03:41.000Z</time>
      </trkpt>
      <trkpt lat="44.03122" lon="3.50401">
        <ele>1323.8</ele>
        <time>2026-05-28T11:03:42.000Z</time>
      </trkpt>
      <trkpt lat="44.03122" lon="3.50399">
        <ele>1323.7</ele>
        <time>2026-05-28T11:03:43.000Z</time>
      </trkpt>
      <trkpt lat="44.03123" lon="3.50398">
        <ele>1323.8</ele>
        <time>2026-05-28T11:03:44.000Z</time>
      </trkpt>
      <trkpt lat="44.03123" lon="3.50396">
        <ele>1324.1</ele>
        <time>2026-05-28T11:03:45.000Z</time>
      </trkpt>
      <trkpt lat="44.03123" lon="3.50394">
        <ele>1324.1</ele>
        <time>2026-05-28T11:03:46.000Z</time>
      </trkpt>
      <trkpt lat="44.03122" lon="3.50393">
        <ele>1324.3</ele>
        <time>2026-05-28T11:03:47.000Z</time>
      </trkpt>
      <trkpt lat="44.03121" lon="3.50391">
        <ele>1324.2</ele>
        <time>2026-05-28T11:03:48.000Z</time>
      </trkpt>
      <trkpt lat="44.0312" lon="3.5039">
        <ele>1324.5</ele>
        <time>2026-05-28T11:03:49.000Z</time>
      </trkpt>
      <trkpt lat="44.03119" lon="3.50389">
        <ele>1324.8</ele>
        <time>2026-05-28T11:03:50.000Z</time>
      </trkpt>
      <trkpt lat="44.03119" lon="3.50388">
        <ele>1325.1</ele>
        <time>2026-05-28T11:03:51.000Z</time>
      </trkpt>
      <trkpt lat="44.03119" lon="3.50387">
        <ele>1325.5</ele>
        <time>2026-05-28T11:03:52.000Z</time>
      </trkpt>
      <trkpt lat="44.03119" lon="3.50386">
        <ele>1325.5</ele>
        <time>2026-05-28T11:03:53.000Z</time>
      </trkpt>
      <trkpt lat="44.03118" lon="3.50385">
        <ele>1326.1</ele>
        <time>2026-05-28T11:03:54.000Z</time>
      </trkpt>
      <trkpt lat="44.03118" lon="3.50384">
        <ele>1326.4</ele>
        <time>2026-05-28T11:03:55.000Z</time>
      </trkpt>
      <trkpt lat="44.03117" lon="3.50382">
        <ele>1326.7</ele>
        <time>2026-05-28T11:03:56.000Z</time>
      </trkpt>
      <trkpt lat="44.03117" lon="3.50381">
        <ele>1327</ele>
        <time>2026-05-28T11:03:57.000Z</time>
      </trkpt>
      <trkpt lat="44.03117" lon="3.50381">
        <ele>1327.3</ele>
        <time>2026-05-28T11:03:58.000Z</time>
      </trkpt>
      <trkpt lat="44.03117" lon="3.50379">
        <ele>1327.3</ele>
        <time>2026-05-28T11:03:59.000Z</time>
      </trkpt>
      <trkpt lat="44.03117" lon="3.50379">
        <ele>1327.3</ele>
        <time>2026-05-28T11:04:00.000Z</time>
      </trkpt>
      <trkpt lat="44.03117" lon="3.50378">
        <ele>1327.4</ele>
        <time>2026-05-28T11:04:01.000Z</time>
      </trkpt>
      <trkpt lat="44.03117" lon="3.50376">
        <ele>1327.7</ele>
        <time>2026-05-28T11:04:02.000Z</time>
      </trkpt>
      <trkpt lat="44.03118" lon="3.50374">
        <ele>1328</ele>
        <time>2026-05-28T11:04:03.000Z</time>
      </trkpt>
      <trkpt lat="44.03118" lon="3.50373">
        <ele>1327.9</ele>
        <time>2026-05-28T11:04:04.000Z</time>
      </trkpt>
      <trkpt lat="44.03118" lon="3.50371">
        <ele>1328.3</ele>
        <time>2026-05-28T11:04:05.000Z</time>
      </trkpt>
      <trkpt lat="44.03118" lon="3.5037">
        <ele>1328.6</ele>
        <time>2026-05-28T11:04:06.000Z</time>
      </trkpt>
      <trkpt lat="44.03118" lon="3.50369">
        <ele>1329</ele>
        <time>2026-05-28T11:04:07.000Z</time>
      </trkpt>
      <trkpt lat="44.03118" lon="3.50367">
        <ele>1329.5</ele>
        <time>2026-05-28T11:04:08.000Z</time>
      </trkpt>
      <trkpt lat="44.03119" lon="3.50365">
        <ele>1329.6</ele>
        <time>2026-05-28T11:04:09.000Z</time>
      </trkpt>
      <trkpt lat="44.03119" lon="3.50363">
        <ele>1329.6</ele>
        <time>2026-05-28T11:04:10.000Z</time>
      </trkpt>
      <trkpt lat="44.03119" lon="3.50361">
        <ele>1330</ele>
        <time>2026-05-28T11:04:11.000Z</time>
      </trkpt>
      <trkpt lat="44.0312" lon="3.5036">
        <ele>1329.8</ele>
        <time>2026-05-28T11:04:12.000Z</time>
      </trkpt>
      <trkpt lat="44.0312" lon="3.50358">
        <ele>1329.8</ele>
        <time>2026-05-28T11:04:13.000Z</time>
      </trkpt>
      <trkpt lat="44.0312" lon="3.50356">
        <ele>1329.9</ele>
        <time>2026-05-28T11:04:14.000Z</time>
      </trkpt>
      <trkpt lat="44.0312" lon="3.50355">
        <ele>1329.9</ele>
        <time>2026-05-28T11:04:15.000Z</time>
      </trkpt>
      <trkpt lat="44.0312" lon="3.50353">
        <ele>1330.3</ele>
        <time>2026-05-28T11:04:16.000Z</time>
      </trkpt>
      <trkpt lat="44.0312" lon="3.50352">
        <ele>1330.4</ele>
        <time>2026-05-28T11:04:17.000Z</time>
      </trkpt>
      <trkpt lat="44.0312" lon="3.50351">
        <ele>1329.9</ele>
        <time>2026-05-28T11:04:18.000Z</time>
      </trkpt>
      <trkpt lat="44.03119" lon="3.50351">
        <ele>1330</ele>
        <time>2026-05-28T11:04:19.000Z</time>
      </trkpt>
      <trkpt lat="44.03119" lon="3.5035">
        <ele>1330.1</ele>
        <time>2026-05-28T11:04:20.000Z</time>
      </trkpt>
      <trkpt lat="44.0312" lon="3.50348">
        <ele>1330.2</ele>
        <time>2026-05-28T11:04:21.000Z</time>
      </trkpt>
      <trkpt lat="44.0312" lon="3.50347">
        <ele>1330.2</ele>
        <time>2026-05-28T11:04:22.000Z</time>
      </trkpt>
      <trkpt lat="44.03121" lon="3.50345">
        <ele>1330.2</ele>
        <time>2026-05-28T11:04:23.000Z</time>
      </trkpt>
      <trkpt lat="44.03121" lon="3.50344">
        <ele>1330.4</ele>
        <time>2026-05-28T11:04:24.000Z</time>
      </trkpt>
      <trkpt lat="44.03122" lon="3.50343">
        <ele>1330.1</ele>
        <time>2026-05-28T11:04:25.000Z</time>
      </trkpt>
      <trkpt lat="44.03122" lon="3.50343">
        <ele>1330.2</ele>
        <time>2026-05-28T11:04:26.000Z</time>
      </trkpt>
      <trkpt lat="44.03123" lon="3.50342">
        <ele>1330.4</ele>
        <time>2026-05-28T11:04:27.000Z</time>
      </trkpt>
      <trkpt lat="44.03123" lon="3.50341">
        <ele>1330.3</ele>
        <time>2026-05-28T11:04:28.000Z</time>
      </trkpt>
      <trkpt lat="44.03124" lon="3.50341">
        <ele>1330.5</ele>
        <time>2026-05-28T11:04:29.000Z</time>
      </trkpt>
      <trkpt lat="44.03124" lon="3.5034">
        <ele>1330.7</ele>
        <time>2026-05-28T11:04:30.000Z</time>
      </trkpt>
      <trkpt lat="44.03125" lon="3.50339">
        <ele>1330.9</ele>
        <time>2026-05-28T11:04:31.000Z</time>
      </trkpt>
      <trkpt lat="44.03125" lon="3.50338">
        <ele>1330.9</ele>
        <time>2026-05-28T11:04:32.000Z</time>
      </trkpt>
      <trkpt lat="44.03126" lon="3.50337">
        <ele>1331.1</ele>
        <time>2026-05-28T11:04:33.000Z</time>
      </trkpt>
      <trkpt lat="44.03126" lon="3.50335">
        <ele>1330.8</ele>
        <time>2026-05-28T11:04:34.000Z</time>
      </trkpt>
      <trkpt lat="44.03126" lon="3.50334">
        <ele>1330.5</ele>
        <time>2026-05-28T11:04:35.000Z</time>
      </trkpt>
      <trkpt lat="44.03127" lon="3.50333">
        <ele>1330.6</ele>
        <time>2026-05-28T11:04:36.000Z</time>
      </trkpt>
      <trkpt lat="44.03128" lon="3.50332">
        <ele>1331.1</ele>
        <time>2026-05-28T11:04:37.000Z</time>
      </trkpt>
      <trkpt lat="44.03127" lon="3.50331">
        <ele>1331.4</ele>
        <time>2026-05-28T11:04:38.000Z</time>
      </trkpt>
      <trkpt lat="44.03128" lon="3.5033">
        <ele>1331.7</ele>
        <time>2026-05-28T11:04:39.000Z</time>
      </trkpt>
      <trkpt lat="44.03128" lon="3.5033">
        <ele>1332.2</ele>
        <time>2026-05-28T11:04:40.000Z</time>
      </trkpt>
      <trkpt lat="44.03129" lon="3.50329">
        <ele>1332.2</ele>
        <time>2026-05-28T11:04:41.000Z</time>
      </trkpt>
      <trkpt lat="44.03129" lon="3.50328">
        <ele>1332.2</ele>
        <time>2026-05-28T11:04:42.000Z</time>
      </trkpt>
      <trkpt lat="44.03131" lon="3.50327">
        <ele>1332</ele>
        <time>2026-05-28T11:04:43.000Z</time>
      </trkpt>
      <trkpt lat="44.03131" lon="3.50326">
        <ele>1332.3</ele>
        <time>2026-05-28T11:04:44.000Z</time>
      </trkpt>
      <trkpt lat="44.03132" lon="3.50325">
        <ele>1332</ele>
        <time>2026-05-28T11:04:45.000Z</time>
      </trkpt>
      <trkpt lat="44.03133" lon="3.50324">
        <ele>1331.8</ele>
        <time>2026-05-28T11:04:46.000Z</time>
      </trkpt>
      <trkpt lat="44.03134" lon="3.50323">
        <ele>1331.9</ele>
        <time>2026-05-28T11:04:47.000Z</time>
      </trkpt>
      <trkpt lat="44.03135" lon="3.50322">
        <ele>1332.1</ele>
        <time>2026-05-28T11:04:48.000Z</time>
      </trkpt>
      <trkpt lat="44.03136" lon="3.5032">
        <ele>1332.2</ele>
        <time>2026-05-28T11:04:49.000Z</time>
      </trkpt>
      <trkpt lat="44.03137" lon="3.5032">
        <ele>1332.7</ele>
        <time>2026-05-28T11:04:50.000Z</time>
      </trkpt>
      <trkpt lat="44.03138" lon="3.50319">
        <ele>1332.8</ele>
        <time>2026-05-28T11:04:51.000Z</time>
      </trkpt>
      <trkpt lat="44.03138" lon="3.50318">
        <ele>1333.1</ele>
        <time>2026-05-28T11:04:52.000Z</time>
      </trkpt>
      <trkpt lat="44.03139" lon="3.50318">
        <ele>1333.3</ele>
        <time>2026-05-28T11:04:53.000Z</time>
      </trkpt>
      <trkpt lat="44.03139" lon="3.50318">
        <ele>1333.4</ele>
        <time>2026-05-28T11:04:54.000Z</time>
      </trkpt>
      <trkpt lat="44.0314" lon="3.50317">
        <ele>1333.3</ele>
        <time>2026-05-28T11:04:55.000Z</time>
      </trkpt>
      <trkpt lat="44.03141" lon="3.50317">
        <ele>1333.7</ele>
        <time>2026-05-28T11:04:56.000Z</time>
      </trkpt>
      <trkpt lat="44.03142" lon="3.50316">
        <ele>1333.9</ele>
        <time>2026-05-28T11:04:57.000Z</time>
      </trkpt>
      <trkpt lat="44.03143" lon="3.50316">
        <ele>1334.1</ele>
        <time>2026-05-28T11:04:58.000Z</time>
      </trkpt>
      <trkpt lat="44.03144" lon="3.50317">
        <ele>1334.6</ele>
        <time>2026-05-28T11:04:59.000Z</time>
      </trkpt>
      <trkpt lat="44.03145" lon="3.50317">
        <ele>1334.7</ele>
        <time>2026-05-28T11:05:00.000Z</time>
      </trkpt>
      <trkpt lat="44.03145" lon="3.50317">
        <ele>1334.6</ele>
        <time>2026-05-28T11:05:01.000Z</time>
      </trkpt>
      <trkpt lat="44.03146" lon="3.50317">
        <ele>1334.6</ele>
        <time>2026-05-28T11:05:02.000Z</time>
      </trkpt>
      <trkpt lat="44.03147" lon="3.50316">
        <ele>1334.7</ele>
        <time>2026-05-28T11:05:03.000Z</time>
      </trkpt>
      <trkpt lat="44.03148" lon="3.50316">
        <ele>1334.9</ele>
        <time>2026-05-28T11:05:04.000Z</time>
      </trkpt>
      <trkpt lat="44.03149" lon="3.50315">
        <ele>1335.4</ele>
        <time>2026-05-28T11:05:05.000Z</time>
      </trkpt>
      <trkpt lat="44.03149" lon="3.50314">
        <ele>1335.7</ele>
        <time>2026-05-28T11:05:06.000Z</time>
      </trkpt>
      <trkpt lat="44.0315" lon="3.50314">
        <ele>1336</ele>
        <time>2026-05-28T11:05:07.000Z</time>
      </trkpt>
      <trkpt lat="44.03151" lon="3.50314">
        <ele>1336.1</ele>
        <time>2026-05-28T11:05:08.000Z</time>
      </trkpt>
      <trkpt lat="44.03152" lon="3.50313">
        <ele>1336.1</ele>
        <time>2026-05-28T11:05:09.000Z</time>
      </trkpt>
      <trkpt lat="44.03153" lon="3.50312">
        <ele>1336.2</ele>
        <time>2026-05-28T11:05:10.000Z</time>
      </trkpt>
      <trkpt lat="44.03154" lon="3.50312">
        <ele>1336</ele>
        <time>2026-05-28T11:05:11.000Z</time>
      </trkpt>
      <trkpt lat="44.03155" lon="3.50311">
        <ele>1335.9</ele>
        <time>2026-05-28T11:05:12.000Z</time>
      </trkpt>
      <trkpt lat="44.03156" lon="3.50311">
        <ele>1335.7</ele>
        <time>2026-05-28T11:05:13.000Z</time>
      </trkpt>
      <trkpt lat="44.03157" lon="3.5031">
        <ele>1335.7</ele>
        <time>2026-05-28T11:05:14.000Z</time>
      </trkpt>
      <trkpt lat="44.03158" lon="3.5031">
        <ele>1336.1</ele>
        <time>2026-05-28T11:05:15.000Z</time>
      </trkpt>
      <trkpt lat="44.03158" lon="3.50309">
        <ele>1336.8</ele>
        <time>2026-05-28T11:05:16.000Z</time>
      </trkpt>
      <trkpt lat="44.03159" lon="3.50308">
        <ele>1337.1</ele>
        <time>2026-05-28T11:05:17.000Z</time>
      </trkpt>
      <trkpt lat="44.0316" lon="3.50308">
        <ele>1337.4</ele>
        <time>2026-05-28T11:05:18.000Z</time>
      </trkpt>
      <trkpt lat="44.03161" lon="3.50307">
        <ele>1337.8</ele>
        <time>2026-05-28T11:05:19.000Z</time>
      </trkpt>
      <trkpt lat="44.03162" lon="3.50306">
        <ele>1338.2</ele>
        <time>2026-05-28T11:05:20.000Z</time>
      </trkpt>
      <trkpt lat="44.03163" lon="3.50305">
        <ele>1338</ele>
        <time>2026-05-28T11:05:21.000Z</time>
      </trkpt>
      <trkpt lat="44.03164" lon="3.50304">
        <ele>1337.9</ele>
        <time>2026-05-28T11:05:22.000Z</time>
      </trkpt>
      <trkpt lat="44.03163" lon="3.50304">
        <ele>1337.8</ele>
        <time>2026-05-28T11:05:23.000Z</time>
      </trkpt>
      <trkpt lat="44.03163" lon="3.50303">
        <ele>1338</ele>
        <time>2026-05-28T11:05:24.000Z</time>
      </trkpt>
      <trkpt lat="44.03163" lon="3.50302">
        <ele>1338.2</ele>
        <time>2026-05-28T11:05:25.000Z</time>
      </trkpt>
      <trkpt lat="44.03164" lon="3.503">
        <ele>1338.4</ele>
        <time>2026-05-28T11:05:26.000Z</time>
      </trkpt>
      <trkpt lat="44.03164" lon="3.503">
        <ele>1338.4</ele>
        <time>2026-05-28T11:05:27.000Z</time>
      </trkpt>
      <trkpt lat="44.03164" lon="3.50299">
        <ele>1338.2</ele>
        <time>2026-05-28T11:05:28.000Z</time>
      </trkpt>
      <trkpt lat="44.03165" lon="3.50298">
        <ele>1338.1</ele>
        <time>2026-05-28T11:05:29.000Z</time>
      </trkpt>
      <trkpt lat="44.03165" lon="3.50297">
        <ele>1338.3</ele>
        <time>2026-05-28T11:05:30.000Z</time>
      </trkpt>
      <trkpt lat="44.03165" lon="3.50296">
        <ele>1338.2</ele>
        <time>2026-05-28T11:05:31.000Z</time>
      </trkpt>
      <trkpt lat="44.03166" lon="3.50295">
        <ele>1338.2</ele>
        <time>2026-05-28T11:05:32.000Z</time>
      </trkpt>
      <trkpt lat="44.03167" lon="3.50294">
        <ele>1338.4</ele>
        <time>2026-05-28T11:05:33.000Z</time>
      </trkpt>
      <trkpt lat="44.03167" lon="3.50293">
        <ele>1338.4</ele>
        <time>2026-05-28T11:05:34.000Z</time>
      </trkpt>
      <trkpt lat="44.03167" lon="3.50291">
        <ele>1338.1</ele>
        <time>2026-05-28T11:05:35.000Z</time>
      </trkpt>
      <trkpt lat="44.03168" lon="3.50289">
        <ele>1337.9</ele>
        <time>2026-05-28T11:05:36.000Z</time>
      </trkpt>
      <trkpt lat="44.03168" lon="3.50288">
        <ele>1337.7</ele>
        <time>2026-05-28T11:05:37.000Z</time>
      </trkpt>
      <trkpt lat="44.03168" lon="3.50287">
        <ele>1337.4</ele>
        <time>2026-05-28T11:05:38.000Z</time>
      </trkpt>
      <trkpt lat="44.03168" lon="3.50286">
        <ele>1337.7</ele>
        <time>2026-05-28T11:05:39.000Z</time>
      </trkpt>
      <trkpt lat="44.03169" lon="3.50285">
        <ele>1338</ele>
        <time>2026-05-28T11:05:40.000Z</time>
      </trkpt>
      <trkpt lat="44.0317" lon="3.50284">
        <ele>1338</ele>
        <time>2026-05-28T11:05:41.000Z</time>
      </trkpt>
      <trkpt lat="44.03171" lon="3.50282">
        <ele>1337.9</ele>
        <time>2026-05-28T11:05:42.000Z</time>
      </trkpt>
      <trkpt lat="44.03171" lon="3.50281">
        <ele>1338.1</ele>
        <time>2026-05-28T11:05:43.000Z</time>
      </trkpt>
      <trkpt lat="44.03171" lon="3.5028">
        <ele>1338</ele>
        <time>2026-05-28T11:05:44.000Z</time>
      </trkpt>
      <trkpt lat="44.03172" lon="3.50279">
        <ele>1337.9</ele>
        <time>2026-05-28T11:05:45.000Z</time>
      </trkpt>
      <trkpt lat="44.03173" lon="3.50278">
        <ele>1337.5</ele>
        <time>2026-05-28T11:05:46.000Z</time>
      </trkpt>
      <trkpt lat="44.03173" lon="3.50277">
        <ele>1337.3</ele>
        <time>2026-05-28T11:05:47.000Z</time>
      </trkpt>
      <trkpt lat="44.03175" lon="3.50275">
        <ele>1337.2</ele>
        <time>2026-05-28T11:05:48.000Z</time>
      </trkpt>
      <trkpt lat="44.03175" lon="3.50274">
        <ele>1337.3</ele>
        <time>2026-05-28T11:05:49.000Z</time>
      </trkpt>
      <trkpt lat="44.03175" lon="3.50273">
        <ele>1337.4</ele>
        <time>2026-05-28T11:05:50.000Z</time>
      </trkpt>
      <trkpt lat="44.03175" lon="3.50272">
        <ele>1337.5</ele>
        <time>2026-05-28T11:05:51.000Z</time>
      </trkpt>
      <trkpt lat="44.03175" lon="3.50271">
        <ele>1337.7</ele>
        <time>2026-05-28T11:05:52.000Z</time>
      </trkpt>
      <trkpt lat="44.03175" lon="3.50269">
        <ele>1337.9</ele>
        <time>2026-05-28T11:05:53.000Z</time>
      </trkpt>
      <trkpt lat="44.03175" lon="3.50269">
        <ele>1337.9</ele>
        <time>2026-05-28T11:05:54.000Z</time>
      </trkpt>
      <trkpt lat="44.03175" lon="3.50267">
        <ele>1337.7</ele>
        <time>2026-05-28T11:05:55.000Z</time>
      </trkpt>
      <trkpt lat="44.03174" lon="3.50265">
        <ele>1337.6</ele>
        <time>2026-05-28T11:05:56.000Z</time>
      </trkpt>
      <trkpt lat="44.03174" lon="3.50264">
        <ele>1337.8</ele>
        <time>2026-05-28T11:05:57.000Z</time>
      </trkpt>
      <trkpt lat="44.03174" lon="3.50262">
        <ele>1338.1</ele>
        <time>2026-05-28T11:05:58.000Z</time>
      </trkpt>
      <trkpt lat="44.03174" lon="3.50261">
        <ele>1338.4</ele>
        <time>2026-05-28T11:05:59.000Z</time>
      </trkpt>
      <trkpt lat="44.03174" lon="3.5026">
        <ele>1338.5</ele>
        <time>2026-05-28T11:06:00.000Z</time>
      </trkpt>
      <trkpt lat="44.03173" lon="3.50258">
        <ele>1338.8</ele>
        <time>2026-05-28T11:06:01.000Z</time>
      </trkpt>
      <trkpt lat="44.03173" lon="3.50257">
        <ele>1338.4</ele>
        <time>2026-05-28T11:06:02.000Z</time>
      </trkpt>
      <trkpt lat="44.03172" lon="3.50254">
        <ele>1338.5</ele>
        <time>2026-05-28T11:06:03.000Z</time>
      </trkpt>
      <trkpt lat="44.03172" lon="3.50253">
        <ele>1338.3</ele>
        <time>2026-05-28T11:06:04.000Z</time>
      </trkpt>
      <trkpt lat="44.03173" lon="3.5025">
        <ele>1338.4</ele>
        <time>2026-05-28T11:06:05.000Z</time>
      </trkpt>
      <trkpt lat="44.03173" lon="3.50248">
        <ele>1338.2</ele>
        <time>2026-05-28T11:06:06.000Z</time>
      </trkpt>
      <trkpt lat="44.03173" lon="3.50248">
        <ele>1338.3</ele>
        <time>2026-05-28T11:06:07.000Z</time>
      </trkpt>
      <trkpt lat="44.03172" lon="3.50247">
        <ele>1338.1</ele>
        <time>2026-05-28T11:06:08.000Z</time>
      </trkpt>
      <trkpt lat="44.03171" lon="3.50246">
        <ele>1338.2</ele>
        <time>2026-05-28T11:06:09.000Z</time>
      </trkpt>
      <trkpt lat="44.03171" lon="3.50245">
        <ele>1338.2</ele>
        <time>2026-05-28T11:06:10.000Z</time>
      </trkpt>
      <trkpt lat="44.03171" lon="3.50244">
        <ele>1338.6</ele>
        <time>2026-05-28T11:06:11.000Z</time>
      </trkpt>
      <trkpt lat="44.03171" lon="3.50243">
        <ele>1338.8</ele>
        <time>2026-05-28T11:06:12.000Z</time>
      </trkpt>
      <trkpt lat="44.03171" lon="3.50241">
        <ele>1339</ele>
        <time>2026-05-28T11:06:13.000Z</time>
      </trkpt>
      <trkpt lat="44.03171" lon="3.50239">
        <ele>1339.8</ele>
        <time>2026-05-28T11:06:14.000Z</time>
      </trkpt>
      <trkpt lat="44.03171" lon="3.50237">
        <ele>1339.8</ele>
        <time>2026-05-28T11:06:15.000Z</time>
      </trkpt>
      <trkpt lat="44.03171" lon="3.50236">
        <ele>1339.7</ele>
        <time>2026-05-28T11:06:16.000Z</time>
      </trkpt>
      <trkpt lat="44.03171" lon="3.50235">
        <ele>1340.3</ele>
        <time>2026-05-28T11:06:17.000Z</time>
      </trkpt>
      <trkpt lat="44.0317" lon="3.50234">
        <ele>1341</ele>
        <time>2026-05-28T11:06:18.000Z</time>
      </trkpt>
      <trkpt lat="44.0317" lon="3.50233">
        <ele>1341.2</ele>
        <time>2026-05-28T11:06:19.000Z</time>
      </trkpt>
      <trkpt lat="44.03169" lon="3.50232">
        <ele>1341.5</ele>
        <time>2026-05-28T11:06:20.000Z</time>
      </trkpt>
      <trkpt lat="44.03169" lon="3.50231">
        <ele>1341.5</ele>
        <time>2026-05-28T11:06:21.000Z</time>
      </trkpt>
      <trkpt lat="44.03168" lon="3.5023">
        <ele>1341.4</ele>
        <time>2026-05-28T11:06:22.000Z</time>
      </trkpt>
      <trkpt lat="44.03168" lon="3.50228">
        <ele>1341.2</ele>
        <time>2026-05-28T11:06:23.000Z</time>
      </trkpt>
      <trkpt lat="44.03168" lon="3.50227">
        <ele>1341.1</ele>
        <time>2026-05-28T11:06:24.000Z</time>
      </trkpt>
      <trkpt lat="44.03168" lon="3.50225">
        <ele>1341.2</ele>
        <time>2026-05-28T11:06:25.000Z</time>
      </trkpt>
      <trkpt lat="44.03168" lon="3.50224">
        <ele>1341.5</ele>
        <time>2026-05-28T11:06:26.000Z</time>
      </trkpt>
      <trkpt lat="44.03168" lon="3.50224">
        <ele>1341.5</ele>
        <time>2026-05-28T11:06:27.000Z</time>
      </trkpt>
      <trkpt lat="44.03169" lon="3.50223">
        <ele>1341.4</ele>
        <time>2026-05-28T11:06:28.000Z</time>
      </trkpt>
      <trkpt lat="44.0317" lon="3.50222">
        <ele>1341.5</ele>
        <time>2026-05-28T11:06:29.000Z</time>
      </trkpt>
      <trkpt lat="44.03171" lon="3.50221">
        <ele>1341.7</ele>
        <time>2026-05-28T11:06:30.000Z</time>
      </trkpt>
      <trkpt lat="44.03171" lon="3.50221">
        <ele>1341.4</ele>
        <time>2026-05-28T11:06:31.000Z</time>
      </trkpt>
      <trkpt lat="44.03172" lon="3.5022">
        <ele>1341.6</ele>
        <time>2026-05-28T11:06:32.000Z</time>
      </trkpt>
      <trkpt lat="44.03173" lon="3.50221">
        <ele>1341.4</ele>
        <time>2026-05-28T11:06:33.000Z</time>
      </trkpt>
      <trkpt lat="44.03174" lon="3.50221">
        <ele>1341</ele>
        <time>2026-05-28T11:06:34.000Z</time>
      </trkpt>
      <trkpt lat="44.03174" lon="3.50221">
        <ele>1341.4</ele>
        <time>2026-05-28T11:06:35.000Z</time>
      </trkpt>
      <trkpt lat="44.03174" lon="3.50222">
        <ele>1341.2</ele>
        <time>2026-05-28T11:06:36.000Z</time>
      </trkpt>
      <trkpt lat="44.03175" lon="3.50222">
        <ele>1341.4</ele>
        <time>2026-05-28T11:06:37.000Z</time>
      </trkpt>
      <trkpt lat="44.03175" lon="3.50222">
        <ele>1341.8</ele>
        <time>2026-05-28T11:06:38.000Z</time>
      </trkpt>
      <trkpt lat="44.03175" lon="3.50222">
        <ele>1341.9</ele>
        <time>2026-05-28T11:06:39.000Z</time>
      </trkpt>
      <trkpt lat="44.03176" lon="3.50223">
        <ele>1342.1</ele>
        <time>2026-05-28T11:06:40.000Z</time>
      </trkpt>
      <trkpt lat="44.03177" lon="3.50224">
        <ele>1342</ele>
        <time>2026-05-28T11:06:41.000Z</time>
      </trkpt>
      <trkpt lat="44.03177" lon="3.50224">
        <ele>1342.5</ele>
        <time>2026-05-28T11:06:42.000Z</time>
      </trkpt>
      <trkpt lat="44.03178" lon="3.50225">
        <ele>1342.6</ele>
        <time>2026-05-28T11:06:43.000Z</time>
      </trkpt>
      <trkpt lat="44.03178" lon="3.50225">
        <ele>1342.5</ele>
        <time>2026-05-28T11:06:44.000Z</time>
      </trkpt>
      <trkpt lat="44.03179" lon="3.50226">
        <ele>1342.4</ele>
        <time>2026-05-28T11:06:45.000Z</time>
      </trkpt>
      <trkpt lat="44.0318" lon="3.50227">
        <ele>1341.8</ele>
        <time>2026-05-28T11:06:46.000Z</time>
      </trkpt>
      <trkpt lat="44.03181" lon="3.50229">
        <ele>1342</ele>
        <time>2026-05-28T11:06:47.000Z</time>
      </trkpt>
      <trkpt lat="44.03182" lon="3.50229">
        <ele>1342.2</ele>
        <time>2026-05-28T11:06:48.000Z</time>
      </trkpt>
      <trkpt lat="44.03183" lon="3.50231">
        <ele>1342.4</ele>
        <time>2026-05-28T11:06:49.000Z</time>
      </trkpt>
      <trkpt lat="44.03183" lon="3.50233">
        <ele>1342.5</ele>
        <time>2026-05-28T11:06:50.000Z</time>
      </trkpt>
      <trkpt lat="44.03184" lon="3.50235">
        <ele>1342.7</ele>
        <time>2026-05-28T11:06:51.000Z</time>
      </trkpt>
      <trkpt lat="44.03185" lon="3.50237">
        <ele>1342.5</ele>
        <time>2026-05-28T11:06:52.000Z</time>
      </trkpt>
      <trkpt lat="44.03185" lon="3.50238">
        <ele>1342.6</ele>
        <time>2026-05-28T11:06:53.000Z</time>
      </trkpt>
      <trkpt lat="44.03186" lon="3.5024">
        <ele>1342.7</ele>
        <time>2026-05-28T11:06:54.000Z</time>
      </trkpt>
      <trkpt lat="44.03186" lon="3.50241">
        <ele>1342.6</ele>
        <time>2026-05-28T11:06:55.000Z</time>
      </trkpt>
      <trkpt lat="44.03186" lon="3.50243">
        <ele>1342.4</ele>
        <time>2026-05-28T11:06:56.000Z</time>
      </trkpt>
      <trkpt lat="44.03187" lon="3.50245">
        <ele>1342.7</ele>
        <time>2026-05-28T11:06:57.000Z</time>
      </trkpt>
      <trkpt lat="44.03187" lon="3.50245">
        <ele>1342.9</ele>
        <time>2026-05-28T11:06:58.000Z</time>
      </trkpt>
      <trkpt lat="44.03188" lon="3.50247">
        <ele>1343</ele>
        <time>2026-05-28T11:06:59.000Z</time>
      </trkpt>
      <trkpt lat="44.03189" lon="3.50249">
        <ele>1343.7</ele>
        <time>2026-05-28T11:07:00.000Z</time>
      </trkpt>
      <trkpt lat="44.03189" lon="3.50251">
        <ele>1344</ele>
        <time>2026-05-28T11:07:01.000Z</time>
      </trkpt>
      <trkpt lat="44.03189" lon="3.50253">
        <ele>1344.7</ele>
        <time>2026-05-28T11:07:02.000Z</time>
      </trkpt>
      <trkpt lat="44.0319" lon="3.50253">
        <ele>1344.4</ele>
        <time>2026-05-28T11:07:03.000Z</time>
      </trkpt>
      <trkpt lat="44.0319" lon="3.50254">
        <ele>1344.7</ele>
        <time>2026-05-28T11:07:04.000Z</time>
      </trkpt>
      <trkpt lat="44.03191" lon="3.50256">
        <ele>1345</ele>
        <time>2026-05-28T11:07:05.000Z</time>
      </trkpt>
      <trkpt lat="44.03191" lon="3.50258">
        <ele>1345.2</ele>
        <time>2026-05-28T11:07:06.000Z</time>
      </trkpt>
      <trkpt lat="44.03192" lon="3.50259">
        <ele>1345.5</ele>
        <time>2026-05-28T11:07:07.000Z</time>
      </trkpt>
      <trkpt lat="44.03193" lon="3.5026">
        <ele>1345.6</ele>
        <time>2026-05-28T11:07:08.000Z</time>
      </trkpt>
      <trkpt lat="44.03193" lon="3.50261">
        <ele>1345.7</ele>
        <time>2026-05-28T11:07:09.000Z</time>
      </trkpt>
      <trkpt lat="44.03193" lon="3.50262">
        <ele>1345.8</ele>
        <time>2026-05-28T11:07:10.000Z</time>
      </trkpt>
      <trkpt lat="44.03193" lon="3.50264">
        <ele>1345.7</ele>
        <time>2026-05-28T11:07:11.000Z</time>
      </trkpt>
      <trkpt lat="44.03193" lon="3.50265">
        <ele>1345.5</ele>
        <time>2026-05-28T11:07:12.000Z</time>
      </trkpt>
      <trkpt lat="44.03193" lon="3.50265">
        <ele>1345.6</ele>
        <time>2026-05-28T11:07:13.000Z</time>
      </trkpt>
      <trkpt lat="44.03193" lon="3.50267">
        <ele>1345.9</ele>
        <time>2026-05-28T11:07:14.000Z</time>
      </trkpt>
      <trkpt lat="44.03193" lon="3.50268">
        <ele>1346.2</ele>
        <time>2026-05-28T11:07:15.000Z</time>
      </trkpt>
      <trkpt lat="44.03193" lon="3.5027">
        <ele>1346.3</ele>
        <time>2026-05-28T11:07:16.000Z</time>
      </trkpt>
      <trkpt lat="44.03193" lon="3.50272">
        <ele>1346.4</ele>
        <time>2026-05-28T11:07:17.000Z</time>
      </trkpt>
      <trkpt lat="44.03193" lon="3.50273">
        <ele>1346.3</ele>
        <time>2026-05-28T11:07:18.000Z</time>
      </trkpt>
      <trkpt lat="44.03193" lon="3.50275">
        <ele>1346.6</ele>
        <time>2026-05-28T11:07:19.000Z</time>
      </trkpt>
      <trkpt lat="44.03193" lon="3.50276">
        <ele>1346.9</ele>
        <time>2026-05-28T11:07:20.000Z</time>
      </trkpt>
      <trkpt lat="44.03193" lon="3.50278">
        <ele>1347.2</ele>
        <time>2026-05-28T11:07:21.000Z</time>
      </trkpt>
      <trkpt lat="44.03194" lon="3.50278">
        <ele>1347.4</ele>
        <time>2026-05-28T11:07:22.000Z</time>
      </trkpt>
      <trkpt lat="44.03194" lon="3.50279">
        <ele>1347.7</ele>
        <time>2026-05-28T11:07:23.000Z</time>
      </trkpt>
      <trkpt lat="44.03195" lon="3.5028">
        <ele>1348</ele>
        <time>2026-05-28T11:07:24.000Z</time>
      </trkpt>
      <trkpt lat="44.03195" lon="3.50282">
        <ele>1348</ele>
        <time>2026-05-28T11:07:25.000Z</time>
      </trkpt>
      <trkpt lat="44.03195" lon="3.50283">
        <ele>1348.2</ele>
        <time>2026-05-28T11:07:26.000Z</time>
      </trkpt>
      <trkpt lat="44.03195" lon="3.50283">
        <ele>1348.6</ele>
        <time>2026-05-28T11:07:27.000Z</time>
      </trkpt>
      <trkpt lat="44.03195" lon="3.50284">
        <ele>1348.6</ele>
        <time>2026-05-28T11:07:28.000Z</time>
      </trkpt>
      <trkpt lat="44.03196" lon="3.50285">
        <ele>1348.8</ele>
        <time>2026-05-28T11:07:29.000Z</time>
      </trkpt>
      <trkpt lat="44.03196" lon="3.50286">
        <ele>1348.7</ele>
        <time>2026-05-28T11:07:30.000Z</time>
      </trkpt>
      <trkpt lat="44.03197" lon="3.50287">
        <ele>1348.5</ele>
        <time>2026-05-28T11:07:31.000Z</time>
      </trkpt>
      <trkpt lat="44.03197" lon="3.50288">
        <ele>1348.7</ele>
        <time>2026-05-28T11:07:32.000Z</time>
      </trkpt>
      <trkpt lat="44.03197" lon="3.50289">
        <ele>1349.2</ele>
        <time>2026-05-28T11:07:33.000Z</time>
      </trkpt>
      <trkpt lat="44.03197" lon="3.50291">
        <ele>1349.2</ele>
        <time>2026-05-28T11:07:34.000Z</time>
      </trkpt>
      <trkpt lat="44.03197" lon="3.50293">
        <ele>1349.4</ele>
        <time>2026-05-28T11:07:35.000Z</time>
      </trkpt>
      <trkpt lat="44.03197" lon="3.50295">
        <ele>1349.5</ele>
        <time>2026-05-28T11:07:36.000Z</time>
      </trkpt>
      <trkpt lat="44.03196" lon="3.50297">
        <ele>1350.3</ele>
        <time>2026-05-28T11:07:37.000Z</time>
      </trkpt>
      <trkpt lat="44.03195" lon="3.503">
        <ele>1350.5</ele>
        <time>2026-05-28T11:07:38.000Z</time>
      </trkpt>
      <trkpt lat="44.03194" lon="3.50302">
        <ele>1350.5</ele>
        <time>2026-05-28T11:07:39.000Z</time>
      </trkpt>
      <trkpt lat="44.03194" lon="3.50303">
        <ele>1350.6</ele>
        <time>2026-05-28T11:07:40.000Z</time>
      </trkpt>
      <trkpt lat="44.03194" lon="3.50305">
        <ele>1350.6</ele>
        <time>2026-05-28T11:07:41.000Z</time>
      </trkpt>
      <trkpt lat="44.03194" lon="3.50307">
        <ele>1351.1</ele>
        <time>2026-05-28T11:07:42.000Z</time>
      </trkpt>
      <trkpt lat="44.03195" lon="3.50309">
        <ele>1351</ele>
        <time>2026-05-28T11:07:43.000Z</time>
      </trkpt>
      <trkpt lat="44.03195" lon="3.5031">
        <ele>1350.8</ele>
        <time>2026-05-28T11:07:44.000Z</time>
      </trkpt>
      <trkpt lat="44.03196" lon="3.50311">
        <ele>1350.9</ele>
        <time>2026-05-28T11:07:45.000Z</time>
      </trkpt>
      <trkpt lat="44.03197" lon="3.50311">
        <ele>1351.5</ele>
        <time>2026-05-28T11:07:46.000Z</time>
      </trkpt>
      <trkpt lat="44.03197" lon="3.50313">
        <ele>1351.5</ele>
        <time>2026-05-28T11:07:47.000Z</time>
      </trkpt>
      <trkpt lat="44.03198" lon="3.50313">
        <ele>1351.2</ele>
        <time>2026-05-28T11:07:48.000Z</time>
      </trkpt>
      <trkpt lat="44.03198" lon="3.50314">
        <ele>1351.6</ele>
        <time>2026-05-28T11:07:49.000Z</time>
      </trkpt>
      <trkpt lat="44.03199" lon="3.50315">
        <ele>1352.1</ele>
        <time>2026-05-28T11:07:50.000Z</time>
      </trkpt>
      <trkpt lat="44.03199" lon="3.50317">
        <ele>1352.3</ele>
        <time>2026-05-28T11:07:51.000Z</time>
      </trkpt>
      <trkpt lat="44.032" lon="3.50317">
        <ele>1352.6</ele>
        <time>2026-05-28T11:07:52.000Z</time>
      </trkpt>
      <trkpt lat="44.03201" lon="3.50318">
        <ele>1352.7</ele>
        <time>2026-05-28T11:07:53.000Z</time>
      </trkpt>
      <trkpt lat="44.03202" lon="3.50318">
        <ele>1352.8</ele>
        <time>2026-05-28T11:07:54.000Z</time>
      </trkpt>
      <trkpt lat="44.03203" lon="3.50319">
        <ele>1352.9</ele>
        <time>2026-05-28T11:07:55.000Z</time>
      </trkpt>
      <trkpt lat="44.03206" lon="3.50318">
        <ele>1352.5</ele>
        <time>2026-05-28T11:07:56.999Z</time>
      </trkpt>
      <trkpt lat="44.03207" lon="3.50318">
        <ele>1352.3</ele>
        <time>2026-05-28T11:07:57.999Z</time>
      </trkpt>
      <trkpt lat="44.03208" lon="3.50318">
        <ele>1352.1</ele>
        <time>2026-05-28T11:07:58.999Z</time>
      </trkpt>
      <trkpt lat="44.03209" lon="3.50317">
        <ele>1352.1</ele>
        <time>2026-05-28T11:07:59.999Z</time>
      </trkpt>
      <trkpt lat="44.0321" lon="3.50317">
        <ele>1352</ele>
        <time>2026-05-28T11:08:00.999Z</time>
      </trkpt>
      <trkpt lat="44.03211" lon="3.50316">
        <ele>1352.2</ele>
        <time>2026-05-28T11:08:01.999Z</time>
      </trkpt>
      <trkpt lat="44.03212" lon="3.50315">
        <ele>1352</ele>
        <time>2026-05-28T11:08:02.999Z</time>
      </trkpt>
      <trkpt lat="44.03213" lon="3.50315">
        <ele>1352.2</ele>
        <time>2026-05-28T11:08:03.999Z</time>
      </trkpt>
      <trkpt lat="44.03214" lon="3.50313">
        <ele>1352.4</ele>
        <time>2026-05-28T11:08:04.999Z</time>
      </trkpt>
      <trkpt lat="44.03215" lon="3.50312">
        <ele>1352.2</ele>
        <time>2026-05-28T11:08:05.999Z</time>
      </trkpt>
      <trkpt lat="44.03216" lon="3.5031">
        <ele>1352.2</ele>
        <time>2026-05-28T11:08:06.999Z</time>
      </trkpt>
      <trkpt lat="44.03217" lon="3.50309">
        <ele>1352</ele>
        <time>2026-05-28T11:08:07.999Z</time>
      </trkpt>
      <trkpt lat="44.03217" lon="3.50308">
        <ele>1352</ele>
        <time>2026-05-28T11:08:08.999Z</time>
      </trkpt>
      <trkpt lat="44.03218" lon="3.50307">
        <ele>1351.9</ele>
        <time>2026-05-28T11:08:09.999Z</time>
      </trkpt>
      <trkpt lat="44.03219" lon="3.50306">
        <ele>1352.1</ele>
        <time>2026-05-28T11:08:10.999Z</time>
      </trkpt>
      <trkpt lat="44.0322" lon="3.50305">
        <ele>1352.4</ele>
        <time>2026-05-28T11:08:11.999Z</time>
      </trkpt>
      <trkpt lat="44.03222" lon="3.50305">
        <ele>1352.5</ele>
        <time>2026-05-28T11:08:12.999Z</time>
      </trkpt>
      <trkpt lat="44.03223" lon="3.50305">
        <ele>1352.2</ele>
        <time>2026-05-28T11:08:13.999Z</time>
      </trkpt>
      <trkpt lat="44.03224" lon="3.50304">
        <ele>1352.2</ele>
        <time>2026-05-28T11:08:14.999Z</time>
      </trkpt>
      <trkpt lat="44.03225" lon="3.50303">
        <ele>1352.3</ele>
        <time>2026-05-28T11:08:15.999Z</time>
      </trkpt>
      <trkpt lat="44.03226" lon="3.50302">
        <ele>1352.1</ele>
        <time>2026-05-28T11:08:16.999Z</time>
      </trkpt>
      <trkpt lat="44.03227" lon="3.50302">
        <ele>1351.6</ele>
        <time>2026-05-28T11:08:17.999Z</time>
      </trkpt>
      <trkpt lat="44.03228" lon="3.50301">
        <ele>1351.7</ele>
        <time>2026-05-28T11:08:18.999Z</time>
      </trkpt>
      <trkpt lat="44.03229" lon="3.50301">
        <ele>1351.9</ele>
        <time>2026-05-28T11:08:19.999Z</time>
      </trkpt>
      <trkpt lat="44.03231" lon="3.50301">
        <ele>1351.6</ele>
        <time>2026-05-28T11:08:20.999Z</time>
      </trkpt>
      <trkpt lat="44.03232" lon="3.503">
        <ele>1351.5</ele>
        <time>2026-05-28T11:08:21.999Z</time>
      </trkpt>
      <trkpt lat="44.03233" lon="3.503">
        <ele>1351.7</ele>
        <time>2026-05-28T11:08:22.999Z</time>
      </trkpt>
      <trkpt lat="44.03233" lon="3.50299">
        <ele>1351.9</ele>
        <time>2026-05-28T11:08:23.999Z</time>
      </trkpt>
      <trkpt lat="44.03233" lon="3.50298">
        <ele>1351.9</ele>
        <time>2026-05-28T11:08:24.999Z</time>
      </trkpt>
      <trkpt lat="44.03234" lon="3.50296">
        <ele>1351.6</ele>
        <time>2026-05-28T11:08:25.999Z</time>
      </trkpt>
      <trkpt lat="44.03235" lon="3.50295">
        <ele>1351.2</ele>
        <time>2026-05-28T11:08:26.999Z</time>
      </trkpt>
      <trkpt lat="44.03236" lon="3.50294">
        <ele>1350.7</ele>
        <time>2026-05-28T11:08:27.999Z</time>
      </trkpt>
      <trkpt lat="44.03237" lon="3.50293">
        <ele>1350.2</ele>
        <time>2026-05-28T11:08:28.999Z</time>
      </trkpt>
      <trkpt lat="44.03237" lon="3.50292">
        <ele>1350</ele>
        <time>2026-05-28T11:08:29.999Z</time>
      </trkpt>
      <trkpt lat="44.03237" lon="3.50292">
        <ele>1349.7</ele>
        <time>2026-05-28T11:08:30.999Z</time>
      </trkpt>
      <trkpt lat="44.03238" lon="3.5029">
        <ele>1349.4</ele>
        <time>2026-05-28T11:08:31.999Z</time>
      </trkpt>
      <trkpt lat="44.03238" lon="3.50289">
        <ele>1349.5</ele>
        <time>2026-05-28T11:08:32.999Z</time>
      </trkpt>
      <trkpt lat="44.03239" lon="3.50287">
        <ele>1349.4</ele>
        <time>2026-05-28T11:08:33.999Z</time>
      </trkpt>
      <trkpt lat="44.03239" lon="3.50286">
        <ele>1349.4</ele>
        <time>2026-05-28T11:08:34.999Z</time>
      </trkpt>
      <trkpt lat="44.0324" lon="3.50284">
        <ele>1349.2</ele>
        <time>2026-05-28T11:08:35.999Z</time>
      </trkpt>
      <trkpt lat="44.03241" lon="3.50283">
        <ele>1349.2</ele>
        <time>2026-05-28T11:08:36.999Z</time>
      </trkpt>
      <trkpt lat="44.03242" lon="3.50282">
        <ele>1349.4</ele>
        <time>2026-05-28T11:08:37.999Z</time>
      </trkpt>
      <trkpt lat="44.03242" lon="3.50281">
        <ele>1349.5</ele>
        <time>2026-05-28T11:08:38.999Z</time>
      </trkpt>
      <trkpt lat="44.03243" lon="3.50279">
        <ele>1349.3</ele>
        <time>2026-05-28T11:08:39.999Z</time>
      </trkpt>
      <trkpt lat="44.03243" lon="3.50278">
        <ele>1349.4</ele>
        <time>2026-05-28T11:08:40.999Z</time>
      </trkpt>
      <trkpt lat="44.03244" lon="3.50278">
        <ele>1349.9</ele>
        <time>2026-05-28T11:08:41.999Z</time>
      </trkpt>
      <trkpt lat="44.03244" lon="3.50277">
        <ele>1350.2</ele>
        <time>2026-05-28T11:08:42.999Z</time>
      </trkpt>
      <trkpt lat="44.03244" lon="3.50275">
        <ele>1350.4</ele>
        <time>2026-05-28T11:08:43.999Z</time>
      </trkpt>
      <trkpt lat="44.03245" lon="3.50273">
        <ele>1350.5</ele>
        <time>2026-05-28T11:08:44.999Z</time>
      </trkpt>
      <trkpt lat="44.03246" lon="3.50272">
        <ele>1350.7</ele>
        <time>2026-05-28T11:08:45.999Z</time>
      </trkpt>
      <trkpt lat="44.03246" lon="3.50271">
        <ele>1350.9</ele>
        <time>2026-05-28T11:08:46.999Z</time>
      </trkpt>
      <trkpt lat="44.03246" lon="3.5027">
        <ele>1351</ele>
        <time>2026-05-28T11:08:47.999Z</time>
      </trkpt>
      <trkpt lat="44.03247" lon="3.50268">
        <ele>1350.7</ele>
        <time>2026-05-28T11:08:48.999Z</time>
      </trkpt>
      <trkpt lat="44.03247" lon="3.50267">
        <ele>1350.6</ele>
        <time>2026-05-28T11:08:49.999Z</time>
      </trkpt>
      <trkpt lat="44.03246" lon="3.50267">
        <ele>1350.9</ele>
        <time>2026-05-28T11:08:50.999Z</time>
      </trkpt>
      <trkpt lat="44.03245" lon="3.50266">
        <ele>1351.3</ele>
        <time>2026-05-28T11:08:51.999Z</time>
      </trkpt>
      <trkpt lat="44.03245" lon="3.50265">
        <ele>1351.7</ele>
        <time>2026-05-28T11:08:52.999Z</time>
      </trkpt>
      <trkpt lat="44.03246" lon="3.50264">
        <ele>1352.3</ele>
        <time>2026-05-28T11:08:53.999Z</time>
      </trkpt>
      <trkpt lat="44.03245" lon="3.50264">
        <ele>1352.6</ele>
        <time>2026-05-28T11:08:54.999Z</time>
      </trkpt>
      <trkpt lat="44.03245" lon="3.50264">
        <ele>1352.7</ele>
        <time>2026-05-28T11:08:55.999Z</time>
      </trkpt>
      <trkpt lat="44.03245" lon="3.50264">
        <ele>1352.8</ele>
        <time>2026-05-28T11:08:56.999Z</time>
      </trkpt>
      <trkpt lat="44.03245" lon="3.50264">
        <ele>1353</ele>
        <time>2026-05-28T11:08:57.999Z</time>
      </trkpt>
      <trkpt lat="44.03245" lon="3.50264">
        <ele>1353.1</ele>
        <time>2026-05-28T11:08:58.999Z</time>
      </trkpt>
      <trkpt lat="44.03245" lon="3.50264">
        <ele>1353.4</ele>
        <time>2026-05-28T11:08:59.999Z</time>
      </trkpt>
      <trkpt lat="44.03245" lon="3.50263">
        <ele>1353.4</ele>
        <time>2026-05-28T11:09:00.999Z</time>
      </trkpt>
      <trkpt lat="44.03245" lon="3.50263">
        <ele>1353.6</ele>
        <time>2026-05-28T11:09:01.999Z</time>
      </trkpt>
      <trkpt lat="44.03245" lon="3.50263">
        <ele>1353.9</ele>
        <time>2026-05-28T11:09:02.999Z</time>
      </trkpt>
      <trkpt lat="44.03245" lon="3.50263">
        <ele>1354.3</ele>
        <time>2026-05-28T11:09:03.999Z</time>
      </trkpt>
      <trkpt lat="44.03245" lon="3.50263">
        <ele>1354.5</ele>
        <time>2026-05-28T11:09:04.999Z</time>
      </trkpt>
      <trkpt lat="44.03245" lon="3.50263">
        <ele>1354.7</ele>
        <time>2026-05-28T11:09:05.999Z</time>
      </trkpt>
      <trkpt lat="44.03245" lon="3.50263">
        <ele>1354.6</ele>
        <time>2026-05-28T11:09:06.999Z</time>
      </trkpt>
      <trkpt lat="44.03246" lon="3.50262">
        <ele>1354.8</ele>
        <time>2026-05-28T11:09:07.999Z</time>
      </trkpt>
      <trkpt lat="44.03247" lon="3.5026">
        <ele>1354.8</ele>
        <time>2026-05-28T11:09:08.999Z</time>
      </trkpt>
      <trkpt lat="44.03247" lon="3.5026">
        <ele>1355.2</ele>
        <time>2026-05-28T11:09:09.999Z</time>
      </trkpt>
      <trkpt lat="44.03247" lon="3.5026">
        <ele>1355.1</ele>
        <time>2026-05-28T11:09:10.999Z</time>
      </trkpt>
      <trkpt lat="44.03247" lon="3.5026">
        <ele>1355.1</ele>
        <time>2026-05-28T11:09:11.999Z</time>
      </trkpt>
      <trkpt lat="44.03248" lon="3.50259">
        <ele>1355.3</ele>
        <time>2026-05-28T11:09:12.999Z</time>
      </trkpt>
      <trkpt lat="44.03248" lon="3.50259">
        <ele>1355.1</ele>
        <time>2026-05-28T11:09:13.999Z</time>
      </trkpt>
      <trkpt lat="44.03248" lon="3.50259">
        <ele>1354.8</ele>
        <time>2026-05-28T11:09:14.999Z</time>
      </trkpt>
      <trkpt lat="44.03249" lon="3.50259">
        <ele>1354.8</ele>
        <time>2026-05-28T11:09:15.999Z</time>
      </trkpt>
      <trkpt lat="44.0325" lon="3.5026">
        <ele>1355.1</ele>
        <time>2026-05-28T11:09:16.999Z</time>
      </trkpt>
      <trkpt lat="44.03251" lon="3.50261">
        <ele>1355.4</ele>
        <time>2026-05-28T11:09:17.999Z</time>
      </trkpt>
      <trkpt lat="44.03251" lon="3.50261">
        <ele>1355.9</ele>
        <time>2026-05-28T11:09:18.999Z</time>
      </trkpt>
      <trkpt lat="44.03252" lon="3.50262">
        <ele>1356</ele>
        <time>2026-05-28T11:09:19.999Z</time>
      </trkpt>
      <trkpt lat="44.03252" lon="3.50262">
        <ele>1356.1</ele>
        <time>2026-05-28T11:09:20.999Z</time>
      </trkpt>
      <trkpt lat="44.03253" lon="3.50262">
        <ele>1356.3</ele>
        <time>2026-05-28T11:09:21.999Z</time>
      </trkpt>
      <trkpt lat="44.03253" lon="3.50261">
        <ele>1356.4</ele>
        <time>2026-05-28T11:09:22.999Z</time>
      </trkpt>
      <trkpt lat="44.03253" lon="3.50261">
        <ele>1356.3</ele>
        <time>2026-05-28T11:09:23.999Z</time>
      </trkpt>
      <trkpt lat="44.03254" lon="3.5026">
        <ele>1356.2</ele>
        <time>2026-05-28T11:09:24.999Z</time>
      </trkpt>
      <trkpt lat="44.03254" lon="3.5026">
        <ele>1355.9</ele>
        <time>2026-05-28T11:09:25.999Z</time>
      </trkpt>
      <trkpt lat="44.03254" lon="3.50259">
        <ele>1355.8</ele>
        <time>2026-05-28T11:09:26.999Z</time>
      </trkpt>
      <trkpt lat="44.03254" lon="3.50259">
        <ele>1355.8</ele>
        <time>2026-05-28T11:09:27.999Z</time>
      </trkpt>
      <trkpt lat="44.03255" lon="3.50259">
        <ele>1355.8</ele>
        <time>2026-05-28T11:09:28.999Z</time>
      </trkpt>
      <trkpt lat="44.03255" lon="3.50258">
        <ele>1355.7</ele>
        <time>2026-05-28T11:09:29.999Z</time>
      </trkpt>
      <trkpt lat="44.03256" lon="3.50258">
        <ele>1355.7</ele>
        <time>2026-05-28T11:09:30.999Z</time>
      </trkpt>
      <trkpt lat="44.03256" lon="3.50258">
        <ele>1355.8</ele>
        <time>2026-05-28T11:09:31.999Z</time>
      </trkpt>
      <trkpt lat="44.03256" lon="3.50257">
        <ele>1356</ele>
        <time>2026-05-28T11:09:32.999Z</time>
      </trkpt>
      <trkpt lat="44.03256" lon="3.50257">
        <ele>1356.1</ele>
        <time>2026-05-28T11:09:33.999Z</time>
      </trkpt>
      <trkpt lat="44.03257" lon="3.50257">
        <ele>1356.3</ele>
        <time>2026-05-28T11:09:34.999Z</time>
      </trkpt>
      <trkpt lat="44.03257" lon="3.50257">
        <ele>1356.6</ele>
        <time>2026-05-28T11:09:35.999Z</time>
      </trkpt>
      <trkpt lat="44.03257" lon="3.50256">
        <ele>1357</ele>
        <time>2026-05-28T11:09:36.999Z</time>
      </trkpt>
      <trkpt lat="44.03259" lon="3.50255">
        <ele>1357.3</ele>
        <time>2026-05-28T11:09:37.999Z</time>
      </trkpt>
      <trkpt lat="44.0326" lon="3.50254">
        <ele>1357.7</ele>
        <time>2026-05-28T11:09:38.999Z</time>
      </trkpt>
      <trkpt lat="44.0326" lon="3.50254">
        <ele>1358.2</ele>
        <time>2026-05-28T11:09:39.999Z</time>
      </trkpt>
      <trkpt lat="44.03261" lon="3.50253">
        <ele>1358.4</ele>
        <time>2026-05-28T11:09:40.999Z</time>
      </trkpt>
      <trkpt lat="44.03261" lon="3.50253">
        <ele>1358.9</ele>
        <time>2026-05-28T11:09:41.999Z</time>
      </trkpt>
      <trkpt lat="44.03261" lon="3.50253">
        <ele>1359.4</ele>
        <time>2026-05-28T11:09:42.999Z</time>
      </trkpt>
      <trkpt lat="44.03262" lon="3.50254">
        <ele>1359.6</ele>
        <time>2026-05-28T11:09:43.999Z</time>
      </trkpt>
      <trkpt lat="44.03262" lon="3.50254">
        <ele>1359.9</ele>
        <time>2026-05-28T11:09:44.999Z</time>
      </trkpt>
      <trkpt lat="44.03262" lon="3.50254">
        <ele>1359.9</ele>
        <time>2026-05-28T11:09:45.999Z</time>
      </trkpt>
      <trkpt lat="44.03262" lon="3.50254">
        <ele>1359.9</ele>
        <time>2026-05-28T11:09:46.999Z</time>
      </trkpt>
      <trkpt lat="44.03263" lon="3.50254">
        <ele>1360</ele>
        <time>2026-05-28T11:09:47.999Z</time>
      </trkpt>
      <trkpt lat="44.03263" lon="3.50254">
        <ele>1360.2</ele>
        <time>2026-05-28T11:09:48.999Z</time>
      </trkpt>
      <trkpt lat="44.03264" lon="3.50255">
        <ele>1360.5</ele>
        <time>2026-05-28T11:09:49.999Z</time>
      </trkpt>
      <trkpt lat="44.03264" lon="3.50255">
        <ele>1360.5</ele>
        <time>2026-05-28T11:09:50.999Z</time>
      </trkpt>
      <trkpt lat="44.03265" lon="3.50255">
        <ele>1360.6</ele>
        <time>2026-05-28T11:09:51.999Z</time>
      </trkpt>
      <trkpt lat="44.03266" lon="3.50255">
        <ele>1360.7</ele>
        <time>2026-05-28T11:09:52.999Z</time>
      </trkpt>
      <trkpt lat="44.03267" lon="3.50255">
        <ele>1361</ele>
        <time>2026-05-28T11:09:53.999Z</time>
      </trkpt>
      <trkpt lat="44.03268" lon="3.50256">
        <ele>1361</ele>
        <time>2026-05-28T11:09:54.999Z</time>
      </trkpt>
      <trkpt lat="44.03268" lon="3.50256">
        <ele>1361.1</ele>
        <time>2026-05-28T11:09:55.999Z</time>
      </trkpt>
      <trkpt lat="44.03268" lon="3.50255">
        <ele>1361.2</ele>
        <time>2026-05-28T11:09:56.999Z</time>
      </trkpt>
      <trkpt lat="44.03268" lon="3.50255">
        <ele>1361.3</ele>
        <time>2026-05-28T11:09:57.999Z</time>
      </trkpt>
      <trkpt lat="44.03269" lon="3.50255">
        <ele>1361.2</ele>
        <time>2026-05-28T11:09:58.999Z</time>
      </trkpt>
      <trkpt lat="44.03269" lon="3.50255">
        <ele>1361</ele>
        <time>2026-05-28T11:09:59.999Z</time>
      </trkpt>
      <trkpt lat="44.03269" lon="3.50255">
        <ele>1360.7</ele>
        <time>2026-05-28T11:10:00.999Z</time>
      </trkpt>
      <trkpt lat="44.03269" lon="3.50255">
        <ele>1360.8</ele>
        <time>2026-05-28T11:10:01.999Z</time>
      </trkpt>
      <trkpt lat="44.03269" lon="3.50255">
        <ele>1360.7</ele>
        <time>2026-05-28T11:10:02.999Z</time>
      </trkpt>
      <trkpt lat="44.03269" lon="3.50255">
        <ele>1360.6</ele>
        <time>2026-05-28T11:10:03.999Z</time>
      </trkpt>
      <trkpt lat="44.03269" lon="3.50254">
        <ele>1360.4</ele>
        <time>2026-05-28T11:10:04.999Z</time>
      </trkpt>
      <trkpt lat="44.0327" lon="3.50254">
        <ele>1360.1</ele>
        <time>2026-05-28T11:10:05.999Z</time>
      </trkpt>
      <trkpt lat="44.03272" lon="3.50253">
        <ele>1360</ele>
        <time>2026-05-28T11:10:06.999Z</time>
      </trkpt>
      <trkpt lat="44.03274" lon="3.50252">
        <ele>1359.7</ele>
        <time>2026-05-28T11:10:07.999Z</time>
      </trkpt>
      <trkpt lat="44.03275" lon="3.5025">
        <ele>1359.5</ele>
        <time>2026-05-28T11:10:08.999Z</time>
      </trkpt>
      <trkpt lat="44.03276" lon="3.5025">
        <ele>1359.4</ele>
        <time>2026-05-28T11:10:09.999Z</time>
      </trkpt>
      <trkpt lat="44.03276" lon="3.5025">
        <ele>1359.4</ele>
        <time>2026-05-28T11:10:10.999Z</time>
      </trkpt>
      <trkpt lat="44.03276" lon="3.50249">
        <ele>1359.7</ele>
        <time>2026-05-28T11:10:11.999Z</time>
      </trkpt>
      <trkpt lat="44.03277" lon="3.50249">
        <ele>1360.1</ele>
        <time>2026-05-28T11:10:12.999Z</time>
      </trkpt>
      <trkpt lat="44.03277" lon="3.50249">
        <ele>1360.6</ele>
        <time>2026-05-28T11:10:13.999Z</time>
      </trkpt>
      <trkpt lat="44.03277" lon="3.50249">
        <ele>1361.1</ele>
        <time>2026-05-28T11:10:14.999Z</time>
      </trkpt>
      <trkpt lat="44.03278" lon="3.50248">
        <ele>1361.4</ele>
        <time>2026-05-28T11:10:15.999Z</time>
      </trkpt>
      <trkpt lat="44.03278" lon="3.50248">
        <ele>1361.9</ele>
        <time>2026-05-28T11:10:16.999Z</time>
      </trkpt>
      <trkpt lat="44.03278" lon="3.50248">
        <ele>1362.2</ele>
        <time>2026-05-28T11:10:17.999Z</time>
      </trkpt>
      <trkpt lat="44.03279" lon="3.50247">
        <ele>1362.7</ele>
        <time>2026-05-28T11:10:18.999Z</time>
      </trkpt>
      <trkpt lat="44.03279" lon="3.50247">
        <ele>1363.4</ele>
        <time>2026-05-28T11:10:19.999Z</time>
      </trkpt>
      <trkpt lat="44.03279" lon="3.50247">
        <ele>1363.9</ele>
        <time>2026-05-28T11:10:20.999Z</time>
      </trkpt>
      <trkpt lat="44.03279" lon="3.50247">
        <ele>1364.5</ele>
        <time>2026-05-28T11:10:21.999Z</time>
      </trkpt>
      <trkpt lat="44.0328" lon="3.50246">
        <ele>1365.3</ele>
        <time>2026-05-28T11:10:22.999Z</time>
      </trkpt>
      <trkpt lat="44.0328" lon="3.50246">
        <ele>1365.7</ele>
        <time>2026-05-28T11:10:23.999Z</time>
      </trkpt>
      <trkpt lat="44.0328" lon="3.50245">
        <ele>1366.6</ele>
        <time>2026-05-28T11:10:24.999Z</time>
      </trkpt>
      <trkpt lat="44.0328" lon="3.50246">
        <ele>1366.9</ele>
        <time>2026-05-28T11:10:25.999Z</time>
      </trkpt>
      <trkpt lat="44.03281" lon="3.50246">
        <ele>1367</ele>
        <time>2026-05-28T11:10:26.999Z</time>
      </trkpt>
      <trkpt lat="44.03281" lon="3.50246">
        <ele>1367.2</ele>
        <time>2026-05-28T11:10:27.999Z</time>
      </trkpt>
      <trkpt lat="44.03281" lon="3.50246">
        <ele>1367.3</ele>
        <time>2026-05-28T11:10:28.999Z</time>
      </trkpt>
      <trkpt lat="44.03281" lon="3.50245">
        <ele>1367.5</ele>
        <time>2026-05-28T11:10:29.999Z</time>
      </trkpt>
      <trkpt lat="44.03281" lon="3.50245">
        <ele>1367.6</ele>
        <time>2026-05-28T11:10:30.999Z</time>
      </trkpt>
      <trkpt lat="44.03281" lon="3.50245">
        <ele>1367.4</ele>
        <time>2026-05-28T11:10:31.999Z</time>
      </trkpt>
      <trkpt lat="44.03281" lon="3.50245">
        <ele>1367.1</ele>
        <time>2026-05-28T11:10:32.999Z</time>
      </trkpt>
      <trkpt lat="44.03282" lon="3.50245">
        <ele>1366.9</ele>
        <time>2026-05-28T11:10:33.999Z</time>
      </trkpt>
      <trkpt lat="44.03282" lon="3.50245">
        <ele>1366.6</ele>
        <time>2026-05-28T11:10:34.999Z</time>
      </trkpt>
      <trkpt lat="44.03284" lon="3.50244">
        <ele>1366.5</ele>
        <time>2026-05-28T11:10:35.999Z</time>
      </trkpt>
      <trkpt lat="44.03287" lon="3.50244">
        <ele>1366.2</ele>
        <time>2026-05-28T11:10:36.999Z</time>
      </trkpt>
      <trkpt lat="44.0329" lon="3.50245">
        <ele>1366</ele>
        <time>2026-05-28T11:10:37.999Z</time>
      </trkpt>
      <trkpt lat="44.03291" lon="3.50245">
        <ele>1366.1</ele>
        <time>2026-05-28T11:10:38.999Z</time>
      </trkpt>
      <trkpt lat="44.03292" lon="3.50245">
        <ele>1366.4</ele>
        <time>2026-05-28T11:10:39.999Z</time>
      </trkpt>
      <trkpt lat="44.03293" lon="3.50244">
        <ele>1366.2</ele>
        <time>2026-05-28T11:10:40.999Z</time>
      </trkpt>
      <trkpt lat="44.03294" lon="3.50242">
        <ele>1365.9</ele>
        <time>2026-05-28T11:10:41.999Z</time>
      </trkpt>
      <trkpt lat="44.03294" lon="3.50241">
        <ele>1366.1</ele>
        <time>2026-05-28T11:10:42.999Z</time>
      </trkpt>
      <trkpt lat="44.03295" lon="3.50241">
        <ele>1366.3</ele>
        <time>2026-05-28T11:10:43.999Z</time>
      </trkpt>
      <trkpt lat="44.03295" lon="3.5024">
        <ele>1366.5</ele>
        <time>2026-05-28T11:10:44.999Z</time>
      </trkpt>
      <trkpt lat="44.03296" lon="3.5024">
        <ele>1366.8</ele>
        <time>2026-05-28T11:10:45.999Z</time>
      </trkpt>
      <trkpt lat="44.03297" lon="3.5024">
        <ele>1367.2</ele>
        <time>2026-05-28T11:10:46.999Z</time>
      </trkpt>
      <trkpt lat="44.03298" lon="3.50239">
        <ele>1367.3</ele>
        <time>2026-05-28T11:10:47.999Z</time>
      </trkpt>
      <trkpt lat="44.03299" lon="3.50238">
        <ele>1367.4</ele>
        <time>2026-05-28T11:10:48.999Z</time>
      </trkpt>
      <trkpt lat="44.033" lon="3.50236">
        <ele>1367.4</ele>
        <time>2026-05-28T11:10:49.999Z</time>
      </trkpt>
      <trkpt lat="44.03301" lon="3.50235">
        <ele>1367.4</ele>
        <time>2026-05-28T11:10:50.999Z</time>
      </trkpt>
      <trkpt lat="44.03302" lon="3.50234">
        <ele>1367.8</ele>
        <time>2026-05-28T11:10:51.999Z</time>
      </trkpt>
      <trkpt lat="44.03303" lon="3.50233">
        <ele>1368.3</ele>
        <time>2026-05-28T11:10:52.999Z</time>
      </trkpt>
      <trkpt lat="44.03304" lon="3.50231">
        <ele>1368.9</ele>
        <time>2026-05-28T11:10:53.999Z</time>
      </trkpt>
      <trkpt lat="44.03305" lon="3.5023">
        <ele>1369.5</ele>
        <time>2026-05-28T11:10:54.999Z</time>
      </trkpt>
      <trkpt lat="44.03305" lon="3.5023">
        <ele>1370</ele>
        <time>2026-05-28T11:10:55.999Z</time>
      </trkpt>
      <trkpt lat="44.03306" lon="3.5023">
        <ele>1370.2</ele>
        <time>2026-05-28T11:10:56.999Z</time>
      </trkpt>
      <trkpt lat="44.03307" lon="3.5023">
        <ele>1370.4</ele>
        <time>2026-05-28T11:10:57.999Z</time>
      </trkpt>
      <trkpt lat="44.03308" lon="3.50231">
        <ele>1370.6</ele>
        <time>2026-05-28T11:10:58.999Z</time>
      </trkpt>
      <trkpt lat="44.03308" lon="3.50231">
        <ele>1370.8</ele>
        <time>2026-05-28T11:10:59.999Z</time>
      </trkpt>
      <trkpt lat="44.03309" lon="3.50231">
        <ele>1370.4</ele>
        <time>2026-05-28T11:11:00.999Z</time>
      </trkpt>
      <trkpt lat="44.0331" lon="3.50231">
        <ele>1370.4</ele>
        <time>2026-05-28T11:11:01.999Z</time>
      </trkpt>
      <trkpt lat="44.03311" lon="3.50232">
        <ele>1370.1</ele>
        <time>2026-05-28T11:11:03.999Z</time>
      </trkpt>
      <trkpt lat="44.03311" lon="3.50231">
        <ele>1370.5</ele>
        <time>2026-05-28T11:11:04.999Z</time>
      </trkpt>
      <trkpt lat="44.03312" lon="3.5023">
        <ele>1371.2</ele>
        <time>2026-05-28T11:11:05.999Z</time>
      </trkpt>
      <trkpt lat="44.03312" lon="3.50229">
        <ele>1371.7</ele>
        <time>2026-05-28T11:11:06.999Z</time>
      </trkpt>
      <trkpt lat="44.03312" lon="3.50228">
        <ele>1371.3</ele>
        <time>2026-05-28T11:11:07.999Z</time>
      </trkpt>
      <trkpt lat="44.03314" lon="3.50229">
        <ele>1371.2</ele>
        <time>2026-05-28T11:11:08.999Z</time>
      </trkpt>
      <trkpt lat="44.03315" lon="3.50229">
        <ele>1371.3</ele>
        <time>2026-05-28T11:11:09.999Z</time>
      </trkpt>
      <trkpt lat="44.03315" lon="3.50228">
        <ele>1371.3</ele>
        <time>2026-05-28T11:11:10.999Z</time>
      </trkpt>
      <trkpt lat="44.03316" lon="3.50227">
        <ele>1371.4</ele>
        <time>2026-05-28T11:11:11.999Z</time>
      </trkpt>
      <trkpt lat="44.03317" lon="3.50227">
        <ele>1370.8</ele>
        <time>2026-05-28T11:11:12.999Z</time>
      </trkpt>
      <trkpt lat="44.03317" lon="3.50226">
        <ele>1370.7</ele>
        <time>2026-05-28T11:11:13.999Z</time>
      </trkpt>
      <trkpt lat="44.03318" lon="3.50225">
        <ele>1370.4</ele>
        <time>2026-05-28T11:11:14.999Z</time>
      </trkpt>
      <trkpt lat="44.03319" lon="3.50224">
        <ele>1370.1</ele>
        <time>2026-05-28T11:11:15.999Z</time>
      </trkpt>
      <trkpt lat="44.03319" lon="3.50224">
        <ele>1369.7</ele>
        <time>2026-05-28T11:11:16.999Z</time>
      </trkpt>
      <trkpt lat="44.0332" lon="3.50224">
        <ele>1369.1</ele>
        <time>2026-05-28T11:11:17.999Z</time>
      </trkpt>
      <trkpt lat="44.03321" lon="3.50224">
        <ele>1368.5</ele>
        <time>2026-05-28T11:11:18.999Z</time>
      </trkpt>
      <trkpt lat="44.03322" lon="3.50224">
        <ele>1367.8</ele>
        <time>2026-05-28T11:11:19.999Z</time>
      </trkpt>
      <trkpt lat="44.03323" lon="3.50223">
        <ele>1367.4</ele>
        <time>2026-05-28T11:11:20.999Z</time>
      </trkpt>
      <trkpt lat="44.03323" lon="3.50224">
        <ele>1367.6</ele>
        <time>2026-05-28T11:11:21.999Z</time>
      </trkpt>
      <trkpt lat="44.03324" lon="3.50223">
        <ele>1367.4</ele>
        <time>2026-05-28T11:11:22.999Z</time>
      </trkpt>
      <trkpt lat="44.03324" lon="3.50224">
        <ele>1367.1</ele>
        <time>2026-05-28T11:11:23.999Z</time>
      </trkpt>
      <trkpt lat="44.03325" lon="3.50223">
        <ele>1367</ele>
        <time>2026-05-28T11:11:24.999Z</time>
      </trkpt>
      <trkpt lat="44.03325" lon="3.50223">
        <ele>1366.9</ele>
        <time>2026-05-28T11:11:25.999Z</time>
      </trkpt>
      <trkpt lat="44.03326" lon="3.50223">
        <ele>1366.7</ele>
        <time>2026-05-28T11:11:26.999Z</time>
      </trkpt>
      <trkpt lat="44.03326" lon="3.50223">
        <ele>1366.8</ele>
        <time>2026-05-28T11:11:27.999Z</time>
      </trkpt>
      <trkpt lat="44.03327" lon="3.50222">
        <ele>1366.5</ele>
        <time>2026-05-28T11:11:28.999Z</time>
      </trkpt>
      <trkpt lat="44.03329" lon="3.50221">
        <ele>1366.4</ele>
        <time>2026-05-28T11:11:29.999Z</time>
      </trkpt>
      <trkpt lat="44.0333" lon="3.5022">
        <ele>1366.5</ele>
        <time>2026-05-28T11:11:30.999Z</time>
      </trkpt>
      <trkpt lat="44.03331" lon="3.50219">
        <ele>1366.7</ele>
        <time>2026-05-28T11:11:31.999Z</time>
      </trkpt>
      <trkpt lat="44.03332" lon="3.50218">
        <ele>1367.1</ele>
        <time>2026-05-28T11:11:32.999Z</time>
      </trkpt>
      <trkpt lat="44.03333" lon="3.50216">
        <ele>1366.7</ele>
        <time>2026-05-28T11:11:33.999Z</time>
      </trkpt>
      <trkpt lat="44.03333" lon="3.50215">
        <ele>1366.5</ele>
        <time>2026-05-28T11:11:34.999Z</time>
      </trkpt>
      <trkpt lat="44.03333" lon="3.50214">
        <ele>1366.1</ele>
        <time>2026-05-28T11:11:35.999Z</time>
      </trkpt>
      <trkpt lat="44.03334" lon="3.50212">
        <ele>1365.8</ele>
        <time>2026-05-28T11:11:36.999Z</time>
      </trkpt>
      <trkpt lat="44.03335" lon="3.50212">
        <ele>1366.4</ele>
        <time>2026-05-28T11:11:37.999Z</time>
      </trkpt>
      <trkpt lat="44.03335" lon="3.50212">
        <ele>1366.1</ele>
        <time>2026-05-28T11:11:38.999Z</time>
      </trkpt>
      <trkpt lat="44.03335" lon="3.50214">
        <ele>1366.2</ele>
        <time>2026-05-28T11:11:39.999Z</time>
      </trkpt>
      <trkpt lat="44.03335" lon="3.50214">
        <ele>1366.3</ele>
        <time>2026-05-28T11:11:40.999Z</time>
      </trkpt>
      <trkpt lat="44.03336" lon="3.50214">
        <ele>1366.7</ele>
        <time>2026-05-28T11:11:41.999Z</time>
      </trkpt>
      <trkpt lat="44.03337" lon="3.50215">
        <ele>1367.4</ele>
        <time>2026-05-28T11:11:42.999Z</time>
      </trkpt>
      <trkpt lat="44.03338" lon="3.50215">
        <ele>1367.7</ele>
        <time>2026-05-28T11:11:43.999Z</time>
      </trkpt>
      <trkpt lat="44.03339" lon="3.50214">
        <ele>1367.9</ele>
        <time>2026-05-28T11:11:44.999Z</time>
      </trkpt>
      <trkpt lat="44.03341" lon="3.50214">
        <ele>1368.8</ele>
        <time>2026-05-28T11:11:45.999Z</time>
      </trkpt>
      <trkpt lat="44.03341" lon="3.50214">
        <ele>1369.4</ele>
        <time>2026-05-28T11:11:46.999Z</time>
      </trkpt>
      <trkpt lat="44.03342" lon="3.50215">
        <ele>1370</ele>
        <time>2026-05-28T11:11:47.999Z</time>
      </trkpt>
      <trkpt lat="44.03343" lon="3.50214">
        <ele>1370.4</ele>
        <time>2026-05-28T11:11:48.999Z</time>
      </trkpt>
      <trkpt lat="44.03343" lon="3.50214">
        <ele>1370.9</ele>
        <time>2026-05-28T11:11:49.999Z</time>
      </trkpt>
      <trkpt lat="44.03344" lon="3.50214">
        <ele>1370.9</ele>
        <time>2026-05-28T11:11:50.999Z</time>
      </trkpt>
      <trkpt lat="44.03345" lon="3.50215">
        <ele>1371.2</ele>
        <time>2026-05-28T11:11:51.999Z</time>
      </trkpt>
      <trkpt lat="44.03346" lon="3.50214">
        <ele>1371.9</ele>
        <time>2026-05-28T11:11:52.999Z</time>
      </trkpt>
      <trkpt lat="44.03346" lon="3.50214">
        <ele>1372.4</ele>
        <time>2026-05-28T11:11:53.999Z</time>
      </trkpt>
      <trkpt lat="44.03347" lon="3.50214">
        <ele>1373</ele>
        <time>2026-05-28T11:11:54.999Z</time>
      </trkpt>
      <trkpt lat="44.03349" lon="3.50214">
        <ele>1373.8</ele>
        <time>2026-05-28T11:11:55.999Z</time>
      </trkpt>
      <trkpt lat="44.03349" lon="3.50213">
        <ele>1373.5</ele>
        <time>2026-05-28T11:11:56.999Z</time>
      </trkpt>
      <trkpt lat="44.0335" lon="3.50213">
        <ele>1373.7</ele>
        <time>2026-05-28T11:11:57.999Z</time>
      </trkpt>
      <trkpt lat="44.03351" lon="3.50212">
        <ele>1373.9</ele>
        <time>2026-05-28T11:11:58.999Z</time>
      </trkpt>
      <trkpt lat="44.03352" lon="3.50213">
        <ele>1374.3</ele>
        <time>2026-05-28T11:11:59.999Z</time>
      </trkpt>
      <trkpt lat="44.03352" lon="3.50213">
        <ele>1375</ele>
        <time>2026-05-28T11:12:00.999Z</time>
      </trkpt>
      <trkpt lat="44.03352" lon="3.50212">
        <ele>1375.4</ele>
        <time>2026-05-28T11:12:01.999Z</time>
      </trkpt>
      <trkpt lat="44.03352" lon="3.50212">
        <ele>1376.1</ele>
        <time>2026-05-28T11:12:02.999Z</time>
      </trkpt>
      <trkpt lat="44.03352" lon="3.50212">
        <ele>1376.5</ele>
        <time>2026-05-28T11:12:03.999Z</time>
      </trkpt>
      <trkpt lat="44.03353" lon="3.50211">
        <ele>1376.5</ele>
        <time>2026-05-28T11:12:04.999Z</time>
      </trkpt>
      <trkpt lat="44.03353" lon="3.5021">
        <ele>1375.9</ele>
        <time>2026-05-28T11:12:05.999Z</time>
      </trkpt>
      <trkpt lat="44.03354" lon="3.50209">
        <ele>1375.5</ele>
        <time>2026-05-28T11:12:06.999Z</time>
      </trkpt>
      <trkpt lat="44.03355" lon="3.50208">
        <ele>1375.1</ele>
        <time>2026-05-28T11:12:07.999Z</time>
      </trkpt>
      <trkpt lat="44.03356" lon="3.50207">
        <ele>1375.2</ele>
        <time>2026-05-28T11:12:08.999Z</time>
      </trkpt>
      <trkpt lat="44.03358" lon="3.50207">
        <ele>1375.3</ele>
        <time>2026-05-28T11:12:09.999Z</time>
      </trkpt>
      <trkpt lat="44.03359" lon="3.50206">
        <ele>1375.3</ele>
        <time>2026-05-28T11:12:10.999Z</time>
      </trkpt>
      <trkpt lat="44.0336" lon="3.50206">
        <ele>1374.9</ele>
        <time>2026-05-28T11:12:11.999Z</time>
      </trkpt>
      <trkpt lat="44.03361" lon="3.50206">
        <ele>1374.8</ele>
        <time>2026-05-28T11:12:12.999Z</time>
      </trkpt>
      <trkpt lat="44.03363" lon="3.50206">
        <ele>1374.9</ele>
        <time>2026-05-28T11:12:13.999Z</time>
      </trkpt>
      <trkpt lat="44.03363" lon="3.50205">
        <ele>1375</ele>
        <time>2026-05-28T11:12:14.999Z</time>
      </trkpt>
      <trkpt lat="44.03364" lon="3.50205">
        <ele>1375.2</ele>
        <time>2026-05-28T11:12:15.999Z</time>
      </trkpt>
      <trkpt lat="44.03365" lon="3.50205">
        <ele>1375.9</ele>
        <time>2026-05-28T11:12:16.999Z</time>
      </trkpt>
      <trkpt lat="44.03366" lon="3.50204">
        <ele>1375.8</ele>
        <time>2026-05-28T11:12:17.999Z</time>
      </trkpt>
      <trkpt lat="44.03366" lon="3.50204">
        <ele>1376.2</ele>
        <time>2026-05-28T11:12:18.999Z</time>
      </trkpt>
      <trkpt lat="44.03367" lon="3.50205">
        <ele>1376.1</ele>
        <time>2026-05-28T11:12:19.999Z</time>
      </trkpt>
      <trkpt lat="44.03368" lon="3.50205">
        <ele>1375.6</ele>
        <time>2026-05-28T11:12:20.999Z</time>
      </trkpt>
      <trkpt lat="44.03369" lon="3.50205">
        <ele>1375.1</ele>
        <time>2026-05-28T11:12:21.999Z</time>
      </trkpt>
      <trkpt lat="44.0337" lon="3.50206">
        <ele>1375.3</ele>
        <time>2026-05-28T11:12:22.999Z</time>
      </trkpt>
      <trkpt lat="44.0337" lon="3.50207">
        <ele>1375</ele>
        <time>2026-05-28T11:12:23.999Z</time>
      </trkpt>
      <trkpt lat="44.03372" lon="3.50208">
        <ele>1375.1</ele>
        <time>2026-05-28T11:12:24.999Z</time>
      </trkpt>
      <trkpt lat="44.03372" lon="3.50208">
        <ele>1375</ele>
        <time>2026-05-28T11:12:25.999Z</time>
      </trkpt>
      <trkpt lat="44.03373" lon="3.50208">
        <ele>1375.2</ele>
        <time>2026-05-28T11:12:26.999Z</time>
      </trkpt>
      <trkpt lat="44.03373" lon="3.50207">
        <ele>1375.7</ele>
        <time>2026-05-28T11:12:28.999Z</time>
      </trkpt>
      <trkpt lat="44.03373" lon="3.50208">
        <ele>1376</ele>
        <time>2026-05-28T11:12:29.999Z</time>
      </trkpt>
      <trkpt lat="44.03373" lon="3.50208">
        <ele>1376.5</ele>
        <time>2026-05-28T11:12:30.999Z</time>
      </trkpt>
      <trkpt lat="44.03373" lon="3.50208">
        <ele>1376.7</ele>
        <time>2026-05-28T11:12:31.999Z</time>
      </trkpt>
      <trkpt lat="44.03373" lon="3.50208">
        <ele>1376.7</ele>
        <time>2026-05-28T11:12:32.999Z</time>
      </trkpt>
      <trkpt lat="44.03373" lon="3.50208">
        <ele>1376.9</ele>
        <time>2026-05-28T11:12:33.999Z</time>
      </trkpt>
      <trkpt lat="44.03373" lon="3.50208">
        <ele>1377.1</ele>
        <time>2026-05-28T11:12:34.999Z</time>
      </trkpt>
      <trkpt lat="44.03374" lon="3.50208">
        <ele>1376.8</ele>
        <time>2026-05-28T11:12:35.999Z</time>
      </trkpt>
      <trkpt lat="44.03374" lon="3.50208">
        <ele>1377</ele>
        <time>2026-05-28T11:12:36.999Z</time>
      </trkpt>
      <trkpt lat="44.03374" lon="3.50208">
        <ele>1377.2</ele>
        <time>2026-05-28T11:12:37.999Z</time>
      </trkpt>
      <trkpt lat="44.03374" lon="3.50208">
        <ele>1377</ele>
        <time>2026-05-28T11:12:38.999Z</time>
      </trkpt>
      <trkpt lat="44.03374" lon="3.50208">
        <ele>1377.2</ele>
        <time>2026-05-28T11:12:39.999Z</time>
      </trkpt>
      <trkpt lat="44.03374" lon="3.50209">
        <ele>1377.2</ele>
        <time>2026-05-28T11:12:40.999Z</time>
      </trkpt>
      <trkpt lat="44.03374" lon="3.50209">
        <ele>1377.4</ele>
        <time>2026-05-28T11:12:41.999Z</time>
      </trkpt>
      <trkpt lat="44.03375" lon="3.50209">
        <ele>1377.6</ele>
        <time>2026-05-28T11:12:42.999Z</time>
      </trkpt>
      <trkpt lat="44.03375" lon="3.50209">
        <ele>1377.5</ele>
        <time>2026-05-28T11:12:43.999Z</time>
      </trkpt>
      <trkpt lat="44.03375" lon="3.50209">
        <ele>1377.3</ele>
        <time>2026-05-28T11:12:44.999Z</time>
      </trkpt>
      <trkpt lat="44.03375" lon="3.50209">
        <ele>1377</ele>
        <time>2026-05-28T11:12:45.999Z</time>
      </trkpt>
      <trkpt lat="44.03376" lon="3.50209">
        <ele>1377.2</ele>
        <time>2026-05-28T11:12:46.999Z</time>
      </trkpt>
      <trkpt lat="44.03376" lon="3.50209">
        <ele>1377.2</ele>
        <time>2026-05-28T11:12:47.999Z</time>
      </trkpt>
      <trkpt lat="44.03376" lon="3.5021">
        <ele>1377.1</ele>
        <time>2026-05-28T11:12:48.999Z</time>
      </trkpt>
      <trkpt lat="44.03377" lon="3.5021">
        <ele>1376.9</ele>
        <time>2026-05-28T11:12:49.999Z</time>
      </trkpt>
      <trkpt lat="44.03378" lon="3.5021">
        <ele>1376.3</ele>
        <time>2026-05-28T11:12:50.999Z</time>
      </trkpt>
      <trkpt lat="44.0338" lon="3.50212">
        <ele>1375.8</ele>
        <time>2026-05-28T11:12:51.999Z</time>
      </trkpt>
      <trkpt lat="44.03382" lon="3.50213">
        <ele>1375.6</ele>
        <time>2026-05-28T11:12:52.999Z</time>
      </trkpt>
      <trkpt lat="44.03384" lon="3.50214">
        <ele>1375.3</ele>
        <time>2026-05-28T11:12:53.999Z</time>
      </trkpt>
      <trkpt lat="44.03386" lon="3.50216">
        <ele>1374.8</ele>
        <time>2026-05-28T11:12:54.999Z</time>
      </trkpt>
      <trkpt lat="44.03387" lon="3.50215">
        <ele>1374.7</ele>
        <time>2026-05-28T11:12:55.999Z</time>
      </trkpt>
      <trkpt lat="44.03387" lon="3.50215">
        <ele>1374.6</ele>
        <time>2026-05-28T11:12:56.999Z</time>
      </trkpt>
      <trkpt lat="44.03388" lon="3.50215">
        <ele>1375</ele>
        <time>2026-05-28T11:12:57.999Z</time>
      </trkpt>
      <trkpt lat="44.03388" lon="3.50215">
        <ele>1375.2</ele>
        <time>2026-05-28T11:12:58.999Z</time>
      </trkpt>
      <trkpt lat="44.03388" lon="3.50215">
        <ele>1375.4</ele>
        <time>2026-05-28T11:12:59.999Z</time>
      </trkpt>
      <trkpt lat="44.03388" lon="3.50215">
        <ele>1375.3</ele>
        <time>2026-05-28T11:13:00.999Z</time>
      </trkpt>
      <trkpt lat="44.03388" lon="3.50215">
        <ele>1375.3</ele>
        <time>2026-05-28T11:13:01.999Z</time>
      </trkpt>
      <trkpt lat="44.03388" lon="3.50215">
        <ele>1375.3</ele>
        <time>2026-05-28T11:13:02.999Z</time>
      </trkpt>
      <trkpt lat="44.03388" lon="3.50215">
        <ele>1375.3</ele>
        <time>2026-05-28T11:13:03.999Z</time>
      </trkpt>
      <trkpt lat="44.03388" lon="3.50215">
        <ele>1375.4</ele>
        <time>2026-05-28T11:13:04.999Z</time>
      </trkpt>
      <trkpt lat="44.03388" lon="3.50215">
        <ele>1375.5</ele>
        <time>2026-05-28T11:13:05.999Z</time>
      </trkpt>
      <trkpt lat="44.03388" lon="3.50215">
        <ele>1375.5</ele>
        <time>2026-05-28T11:13:06.999Z</time>
      </trkpt>
      <trkpt lat="44.03389" lon="3.50215">
        <ele>1375.6</ele>
        <time>2026-05-28T11:13:07.999Z</time>
      </trkpt>
      <trkpt lat="44.03389" lon="3.50215">
        <ele>1375.8</ele>
        <time>2026-05-28T11:13:08.999Z</time>
      </trkpt>
      <trkpt lat="44.03389" lon="3.50215">
        <ele>1376</ele>
        <time>2026-05-28T11:13:09.999Z</time>
      </trkpt>
      <trkpt lat="44.03389" lon="3.50215">
        <ele>1376.1</ele>
        <time>2026-05-28T11:13:10.999Z</time>
      </trkpt>
      <trkpt lat="44.03389" lon="3.50215">
        <ele>1375.9</ele>
        <time>2026-05-28T11:13:11.999Z</time>
      </trkpt>
      <trkpt lat="44.03389" lon="3.50215">
        <ele>1375.6</ele>
        <time>2026-05-28T11:13:12.999Z</time>
      </trkpt>
      <trkpt lat="44.03389" lon="3.50215">
        <ele>1375.3</ele>
        <time>2026-05-28T11:13:13.999Z</time>
      </trkpt>
      <trkpt lat="44.03389" lon="3.50216">
        <ele>1375.2</ele>
        <time>2026-05-28T11:13:14.999Z</time>
      </trkpt>
      <trkpt lat="44.03389" lon="3.50216">
        <ele>1375</ele>
        <time>2026-05-28T11:13:15.999Z</time>
      </trkpt>
      <trkpt lat="44.03389" lon="3.50216">
        <ele>1374.6</ele>
        <time>2026-05-28T11:13:16.999Z</time>
      </trkpt>
      <trkpt lat="44.0339" lon="3.50216">
        <ele>1374.5</ele>
        <time>2026-05-28T11:13:17.999Z</time>
      </trkpt>
      <trkpt lat="44.0339" lon="3.50216">
        <ele>1374.5</ele>
        <time>2026-05-28T11:13:18.999Z</time>
      </trkpt>
      <trkpt lat="44.0339" lon="3.50216">
        <ele>1374.6</ele>
        <time>2026-05-28T11:13:19.999Z</time>
      </trkpt>
      <trkpt lat="44.0339" lon="3.50216">
        <ele>1374.8</ele>
        <time>2026-05-28T11:13:20.999Z</time>
      </trkpt>
      <trkpt lat="44.0339" lon="3.50216">
        <ele>1374.8</ele>
        <time>2026-05-28T11:13:21.999Z</time>
      </trkpt>
      <trkpt lat="44.0339" lon="3.50216">
        <ele>1374.7</ele>
        <time>2026-05-28T11:13:22.999Z</time>
      </trkpt>
      <trkpt lat="44.0339" lon="3.50216">
        <ele>1374.8</ele>
        <time>2026-05-28T11:13:23.999Z</time>
      </trkpt>
      <trkpt lat="44.0339" lon="3.50216">
        <ele>1374.9</ele>
        <time>2026-05-28T11:13:24.999Z</time>
      </trkpt>
      <trkpt lat="44.0339" lon="3.50216">
        <ele>1375</ele>
        <time>2026-05-28T11:13:25.999Z</time>
      </trkpt>
      <trkpt lat="44.0339" lon="3.50216">
        <ele>1375.1</ele>
        <time>2026-05-28T11:13:26.999Z</time>
      </trkpt>
      <trkpt lat="44.0339" lon="3.50216">
        <ele>1375.2</ele>
        <time>2026-05-28T11:13:27.999Z</time>
      </trkpt>
      <trkpt lat="44.0339" lon="3.50216">
        <ele>1375.4</ele>
        <time>2026-05-28T11:13:28.999Z</time>
      </trkpt>
      <trkpt lat="44.0339" lon="3.50216">
        <ele>1375.6</ele>
        <time>2026-05-28T11:13:29.999Z</time>
      </trkpt>
      <trkpt lat="44.03391" lon="3.50216">
        <ele>1375.8</ele>
        <time>2026-05-28T11:13:30.999Z</time>
      </trkpt>
      <trkpt lat="44.03391" lon="3.50216">
        <ele>1375.8</ele>
        <time>2026-05-28T11:13:31.999Z</time>
      </trkpt>
      <trkpt lat="44.0339" lon="3.50216">
        <ele>1375.8</ele>
        <time>2026-05-28T11:13:32.999Z</time>
      </trkpt>
      <trkpt lat="44.0339" lon="3.50216">
        <ele>1375.8</ele>
        <time>2026-05-28T11:13:33.999Z</time>
      </trkpt>
      <trkpt lat="44.0339" lon="3.50216">
        <ele>1375.9</ele>
        <time>2026-05-28T11:13:34.999Z</time>
      </trkpt>
      <trkpt lat="44.0339" lon="3.50216">
        <ele>1376.2</ele>
        <time>2026-05-28T11:13:35.999Z</time>
      </trkpt>
      <trkpt lat="44.0339" lon="3.50216">
        <ele>1376.2</ele>
        <time>2026-05-28T11:13:36.999Z</time>
      </trkpt>
      <trkpt lat="44.0339" lon="3.50215">
        <ele>1376.2</ele>
        <time>2026-05-28T11:13:37.999Z</time>
      </trkpt>
      <trkpt lat="44.0339" lon="3.50215">
        <ele>1376.2</ele>
        <time>2026-05-28T11:13:38.999Z</time>
      </trkpt>
      <trkpt lat="44.0339" lon="3.50216">
        <ele>1376.4</ele>
        <time>2026-05-28T11:13:39.999Z</time>
      </trkpt>
      <trkpt lat="44.03391" lon="3.50216">
        <ele>1376.4</ele>
        <time>2026-05-28T11:13:40.999Z</time>
      </trkpt>
      <trkpt lat="44.03392" lon="3.50215">
        <ele>1376.3</ele>
        <time>2026-05-28T11:13:41.999Z</time>
      </trkpt>
      <trkpt lat="44.03392" lon="3.50214">
        <ele>1376.3</ele>
        <time>2026-05-28T11:13:42.999Z</time>
      </trkpt>
      <trkpt lat="44.03394" lon="3.50214">
        <ele>1376.2</ele>
        <time>2026-05-28T11:13:43.999Z</time>
      </trkpt>
      <trkpt lat="44.03395" lon="3.50214">
        <ele>1376.1</ele>
        <time>2026-05-28T11:13:44.999Z</time>
      </trkpt>
      <trkpt lat="44.03396" lon="3.50214">
        <ele>1375.9</ele>
        <time>2026-05-28T11:13:45.999Z</time>
      </trkpt>
      <trkpt lat="44.03397" lon="3.50214">
        <ele>1375.8</ele>
        <time>2026-05-28T11:13:46.999Z</time>
      </trkpt>
      <trkpt lat="44.03398" lon="3.50213">
        <ele>1376.2</ele>
        <time>2026-05-28T11:13:47.999Z</time>
      </trkpt>
      <trkpt lat="44.03398" lon="3.50213">
        <ele>1376.2</ele>
        <time>2026-05-28T11:13:48.999Z</time>
      </trkpt>
      <trkpt lat="44.03399" lon="3.50213">
        <ele>1376.3</ele>
        <time>2026-05-28T11:13:49.999Z</time>
      </trkpt>
      <trkpt lat="44.034" lon="3.50213">
        <ele>1376.7</ele>
        <time>2026-05-28T11:13:50.999Z</time>
      </trkpt>
      <trkpt lat="44.034" lon="3.50212">
        <ele>1376.8</ele>
        <time>2026-05-28T11:13:51.999Z</time>
      </trkpt>
      <trkpt lat="44.03401" lon="3.50212">
        <ele>1377</ele>
        <time>2026-05-28T11:13:52.999Z</time>
      </trkpt>
      <trkpt lat="44.03401" lon="3.50211">
        <ele>1377.2</ele>
        <time>2026-05-28T11:13:53.999Z</time>
      </trkpt>
      <trkpt lat="44.03402" lon="3.50211">
        <ele>1377.3</ele>
        <time>2026-05-28T11:13:54.999Z</time>
      </trkpt>
      <trkpt lat="44.03402" lon="3.50211">
        <ele>1377.7</ele>
        <time>2026-05-28T11:13:55.999Z</time>
      </trkpt>
      <trkpt lat="44.03402" lon="3.50211">
        <ele>1377.8</ele>
        <time>2026-05-28T11:13:56.999Z</time>
      </trkpt>
      <trkpt lat="44.03402" lon="3.50211">
        <ele>1378</ele>
        <time>2026-05-28T11:13:57.999Z</time>
      </trkpt>
      <trkpt lat="44.03402" lon="3.50211">
        <ele>1378.3</ele>
        <time>2026-05-28T11:13:58.999Z</time>
      </trkpt>
      <trkpt lat="44.03402" lon="3.50211">
        <ele>1378.4</ele>
        <time>2026-05-28T11:13:59.999Z</time>
      </trkpt>
      <trkpt lat="44.03402" lon="3.50211">
        <ele>1378.8</ele>
        <time>2026-05-28T11:14:00.999Z</time>
      </trkpt>
      <trkpt lat="44.03402" lon="3.50211">
        <ele>1379.3</ele>
        <time>2026-05-28T11:14:01.999Z</time>
      </trkpt>
      <trkpt lat="44.03402" lon="3.50211">
        <ele>1379.6</ele>
        <time>2026-05-28T11:14:02.999Z</time>
      </trkpt>
      <trkpt lat="44.03402" lon="3.50211">
        <ele>1380.2</ele>
        <time>2026-05-28T11:14:03.999Z</time>
      </trkpt>
      <trkpt lat="44.03402" lon="3.50211">
        <ele>1380.3</ele>
        <time>2026-05-28T11:14:04.999Z</time>
      </trkpt>
      <trkpt lat="44.03403" lon="3.50212">
        <ele>1380</ele>
        <time>2026-05-28T11:14:05.999Z</time>
      </trkpt>
      <trkpt lat="44.03404" lon="3.50213">
        <ele>1380</ele>
        <time>2026-05-28T11:14:06.999Z</time>
      </trkpt>
      <trkpt lat="44.03404" lon="3.50214">
        <ele>1380.1</ele>
        <time>2026-05-28T11:14:07.999Z</time>
      </trkpt>
      <trkpt lat="44.03406" lon="3.50215">
        <ele>1380.4</ele>
        <time>2026-05-28T11:14:08.999Z</time>
      </trkpt>
      <trkpt lat="44.03407" lon="3.50216">
        <ele>1380.4</ele>
        <time>2026-05-28T11:14:09.999Z</time>
      </trkpt>
      <trkpt lat="44.03408" lon="3.50216">
        <ele>1380.4</ele>
        <time>2026-05-28T11:14:10.999Z</time>
      </trkpt>
      <trkpt lat="44.03409" lon="3.50216">
        <ele>1380.6</ele>
        <time>2026-05-28T11:14:11.999Z</time>
      </trkpt>
      <trkpt lat="44.03411" lon="3.50216">
        <ele>1380.7</ele>
        <time>2026-05-28T11:14:12.999Z</time>
      </trkpt>
      <trkpt lat="44.03412" lon="3.50216">
        <ele>1381.1</ele>
        <time>2026-05-28T11:14:13.999Z</time>
      </trkpt>
      <trkpt lat="44.03413" lon="3.50217">
        <ele>1380.7</ele>
        <time>2026-05-28T11:14:14.999Z</time>
      </trkpt>
      <trkpt lat="44.03414" lon="3.50217">
        <ele>1380.7</ele>
        <time>2026-05-28T11:14:15.999Z</time>
      </trkpt>
      <trkpt lat="44.03414" lon="3.50218">
        <ele>1380.8</ele>
        <time>2026-05-28T11:14:16.999Z</time>
      </trkpt>
      <trkpt lat="44.03415" lon="3.50218">
        <ele>1380.8</ele>
        <time>2026-05-28T11:14:17.999Z</time>
      </trkpt>
      <trkpt lat="44.03416" lon="3.50219">
        <ele>1381</ele>
        <time>2026-05-28T11:14:18.999Z</time>
      </trkpt>
      <trkpt lat="44.03417" lon="3.50219">
        <ele>1381</ele>
        <time>2026-05-28T11:14:19.999Z</time>
      </trkpt>
      <trkpt lat="44.03418" lon="3.5022">
        <ele>1380.8</ele>
        <time>2026-05-28T11:14:20.999Z</time>
      </trkpt>
      <trkpt lat="44.03418" lon="3.5022">
        <ele>1380.9</ele>
        <time>2026-05-28T11:14:21.999Z</time>
      </trkpt>
      <trkpt lat="44.03419" lon="3.50221">
        <ele>1380.9</ele>
        <time>2026-05-28T11:14:22.999Z</time>
      </trkpt>
      <trkpt lat="44.0342" lon="3.50221">
        <ele>1381</ele>
        <time>2026-05-28T11:14:23.999Z</time>
      </trkpt>
      <trkpt lat="44.03421" lon="3.50221">
        <ele>1381</ele>
        <time>2026-05-28T11:14:24.999Z</time>
      </trkpt>
      <trkpt lat="44.03421" lon="3.50222">
        <ele>1381.3</ele>
        <time>2026-05-28T11:14:25.999Z</time>
      </trkpt>
      <trkpt lat="44.03422" lon="3.50223">
        <ele>1381.4</ele>
        <time>2026-05-28T11:14:26.999Z</time>
      </trkpt>
      <trkpt lat="44.03423" lon="3.50224">
        <ele>1381.5</ele>
        <time>2026-05-28T11:14:27.999Z</time>
      </trkpt>
      <trkpt lat="44.03424" lon="3.50224">
        <ele>1381.3</ele>
        <time>2026-05-28T11:14:28.999Z</time>
      </trkpt>
      <trkpt lat="44.03425" lon="3.50225">
        <ele>1381.2</ele>
        <time>2026-05-28T11:14:29.999Z</time>
      </trkpt>
      <trkpt lat="44.03426" lon="3.50225">
        <ele>1381.1</ele>
        <time>2026-05-28T11:14:30.999Z</time>
      </trkpt>
      <trkpt lat="44.03426" lon="3.50226">
        <ele>1381.3</ele>
        <time>2026-05-28T11:14:31.999Z</time>
      </trkpt>
      <trkpt lat="44.03427" lon="3.50226">
        <ele>1381.4</ele>
        <time>2026-05-28T11:14:32.999Z</time>
      </trkpt>
      <trkpt lat="44.03427" lon="3.50227">
        <ele>1381.5</ele>
        <time>2026-05-28T11:14:33.999Z</time>
      </trkpt>
      <trkpt lat="44.03428" lon="3.50228">
        <ele>1381.5</ele>
        <time>2026-05-28T11:14:34.999Z</time>
      </trkpt>
      <trkpt lat="44.03429" lon="3.50229">
        <ele>1381.8</ele>
        <time>2026-05-28T11:14:35.999Z</time>
      </trkpt>
      <trkpt lat="44.03429" lon="3.50231">
        <ele>1381.7</ele>
        <time>2026-05-28T11:14:36.999Z</time>
      </trkpt>
      <trkpt lat="44.03431" lon="3.50233">
        <ele>1381.9</ele>
        <time>2026-05-28T11:14:37.999Z</time>
      </trkpt>
      <trkpt lat="44.03432" lon="3.50235">
        <ele>1381.8</ele>
        <time>2026-05-28T11:14:38.999Z</time>
      </trkpt>
      <trkpt lat="44.03432" lon="3.50237">
        <ele>1381.7</ele>
        <time>2026-05-28T11:14:39.999Z</time>
      </trkpt>
      <trkpt lat="44.03432" lon="3.50239">
        <ele>1381.2</ele>
        <time>2026-05-28T11:14:40.999Z</time>
      </trkpt>
      <trkpt lat="44.03433" lon="3.50241">
        <ele>1380.9</ele>
        <time>2026-05-28T11:14:41.999Z</time>
      </trkpt>
      <trkpt lat="44.03434" lon="3.50242">
        <ele>1381</ele>
        <time>2026-05-28T11:14:42.999Z</time>
      </trkpt>
      <trkpt lat="44.03434" lon="3.50244">
        <ele>1380.7</ele>
        <time>2026-05-28T11:14:43.999Z</time>
      </trkpt>
      <trkpt lat="44.03436" lon="3.50246">
        <ele>1380.6</ele>
        <time>2026-05-28T11:14:44.999Z</time>
      </trkpt>
      <trkpt lat="44.03436" lon="3.50248">
        <ele>1380.3</ele>
        <time>2026-05-28T11:14:45.999Z</time>
      </trkpt>
      <trkpt lat="44.03437" lon="3.50249">
        <ele>1380</ele>
        <time>2026-05-28T11:14:46.999Z</time>
      </trkpt>
      <trkpt lat="44.03437" lon="3.5025">
        <ele>1380</ele>
        <time>2026-05-28T11:14:47.999Z</time>
      </trkpt>
      <trkpt lat="44.03437" lon="3.50253">
        <ele>1380.4</ele>
        <time>2026-05-28T11:14:48.999Z</time>
      </trkpt>
      <trkpt lat="44.03438" lon="3.50255">
        <ele>1380.7</ele>
        <time>2026-05-28T11:14:49.999Z</time>
      </trkpt>
      <trkpt lat="44.03439" lon="3.50258">
        <ele>1380.4</ele>
        <time>2026-05-28T11:14:50.999Z</time>
      </trkpt>
      <trkpt lat="44.0344" lon="3.50261">
        <ele>1380.5</ele>
        <time>2026-05-28T11:14:51.999Z</time>
      </trkpt>
      <trkpt lat="44.03441" lon="3.50264">
        <ele>1380.3</ele>
        <time>2026-05-28T11:14:52.999Z</time>
      </trkpt>
      <trkpt lat="44.03442" lon="3.50267">
        <ele>1380</ele>
        <time>2026-05-28T11:14:53.999Z</time>
      </trkpt>
      <trkpt lat="44.03443" lon="3.50268">
        <ele>1380.2</ele>
        <time>2026-05-28T11:14:54.999Z</time>
      </trkpt>
      <trkpt lat="44.03443" lon="3.50269">
        <ele>1379.6</ele>
        <time>2026-05-28T11:14:55.999Z</time>
      </trkpt>
      <trkpt lat="44.03444" lon="3.50268">
        <ele>1379.5</ele>
        <time>2026-05-28T11:14:56.999Z</time>
      </trkpt>
      <trkpt lat="44.03444" lon="3.50268">
        <ele>1379.4</ele>
        <time>2026-05-28T11:14:57.999Z</time>
      </trkpt>
      <trkpt lat="44.03444" lon="3.50267">
        <ele>1378.5</ele>
        <time>2026-05-28T11:14:58.999Z</time>
      </trkpt>
      <trkpt lat="44.03444" lon="3.50267">
        <ele>1378.6</ele>
        <time>2026-05-28T11:14:59.999Z</time>
      </trkpt>
      <trkpt lat="44.03444" lon="3.50267">
        <ele>1378.6</ele>
        <time>2026-05-28T11:15:00.999Z</time>
      </trkpt>
      <trkpt lat="44.03444" lon="3.50267">
        <ele>1378.6</ele>
        <time>2026-05-28T11:15:01.999Z</time>
      </trkpt>
      <trkpt lat="44.03444" lon="3.50267">
        <ele>1379.1</ele>
        <time>2026-05-28T11:15:02.999Z</time>
      </trkpt>
      <trkpt lat="44.03444" lon="3.50267">
        <ele>1379.5</ele>
        <time>2026-05-28T11:15:03.999Z</time>
      </trkpt>
      <trkpt lat="44.03445" lon="3.50269">
        <ele>1380</ele>
        <time>2026-05-28T11:15:04.999Z</time>
      </trkpt>
      <trkpt lat="44.03445" lon="3.50271">
        <ele>1380.2</ele>
        <time>2026-05-28T11:15:05.999Z</time>
      </trkpt>
      <trkpt lat="44.03447" lon="3.50272">
        <ele>1380.6</ele>
        <time>2026-05-28T11:15:06.999Z</time>
      </trkpt>
      <trkpt lat="44.03448" lon="3.50272">
        <ele>1380.5</ele>
        <time>2026-05-28T11:15:07.999Z</time>
      </trkpt>
      <trkpt lat="44.0345" lon="3.50272">
        <ele>1380.1</ele>
        <time>2026-05-28T11:15:08.999Z</time>
      </trkpt>
      <trkpt lat="44.03452" lon="3.50273">
        <ele>1379.9</ele>
        <time>2026-05-28T11:15:09.999Z</time>
      </trkpt>
      <trkpt lat="44.03453" lon="3.50274">
        <ele>1380.3</ele>
        <time>2026-05-28T11:15:10.999Z</time>
      </trkpt>
      <trkpt lat="44.03454" lon="3.50275">
        <ele>1381</ele>
        <time>2026-05-28T11:15:11.999Z</time>
      </trkpt>
      <trkpt lat="44.03455" lon="3.50276">
        <ele>1381.1</ele>
        <time>2026-05-28T11:15:12.999Z</time>
      </trkpt>
      <trkpt lat="44.03457" lon="3.50277">
        <ele>1381.1</ele>
        <time>2026-05-28T11:15:13.999Z</time>
      </trkpt>
      <trkpt lat="44.03457" lon="3.50278">
        <ele>1380.9</ele>
        <time>2026-05-28T11:15:14.999Z</time>
      </trkpt>
      <trkpt lat="44.03458" lon="3.50279">
        <ele>1381</ele>
        <time>2026-05-28T11:15:15.999Z</time>
      </trkpt>
      <trkpt lat="44.03458" lon="3.5028">
        <ele>1381.4</ele>
        <time>2026-05-28T11:15:16.999Z</time>
      </trkpt>
      <trkpt lat="44.03458" lon="3.5028">
        <ele>1381.8</ele>
        <time>2026-05-28T11:15:17.999Z</time>
      </trkpt>
      <trkpt lat="44.03457" lon="3.50279">
        <ele>1382.2</ele>
        <time>2026-05-28T11:15:18.999Z</time>
      </trkpt>
      <trkpt lat="44.03457" lon="3.50279">
        <ele>1381.3</ele>
        <time>2026-05-28T11:15:19.999Z</time>
      </trkpt>
      <trkpt lat="44.03457" lon="3.50279">
        <ele>1381.5</ele>
        <time>2026-05-28T11:15:20.999Z</time>
      </trkpt>
      <trkpt lat="44.03457" lon="3.50279">
        <ele>1382</ele>
        <time>2026-05-28T11:15:21.999Z</time>
      </trkpt>
      <trkpt lat="44.03457" lon="3.50279">
        <ele>1382.1</ele>
        <time>2026-05-28T11:15:22.999Z</time>
      </trkpt>
      <trkpt lat="44.03457" lon="3.50279">
        <ele>1382.2</ele>
        <time>2026-05-28T11:15:23.999Z</time>
      </trkpt>
      <trkpt lat="44.03457" lon="3.50279">
        <ele>1382.4</ele>
        <time>2026-05-28T11:15:24.999Z</time>
      </trkpt>
      <trkpt lat="44.03457" lon="3.5028">
        <ele>1382.6</ele>
        <time>2026-05-28T11:15:25.999Z</time>
      </trkpt>
      <trkpt lat="44.03458" lon="3.50282">
        <ele>1382.9</ele>
        <time>2026-05-28T11:15:26.999Z</time>
      </trkpt>
      <trkpt lat="44.03459" lon="3.50283">
        <ele>1383.1</ele>
        <time>2026-05-28T11:15:27.999Z</time>
      </trkpt>
      <trkpt lat="44.0346" lon="3.50284">
        <ele>1382.8</ele>
        <time>2026-05-28T11:15:28.999Z</time>
      </trkpt>
      <trkpt lat="44.03461" lon="3.50284">
        <ele>1382.6</ele>
        <time>2026-05-28T11:15:29.999Z</time>
      </trkpt>
      <trkpt lat="44.03462" lon="3.50285">
        <ele>1382.5</ele>
        <time>2026-05-28T11:15:30.999Z</time>
      </trkpt>
      <trkpt lat="44.03463" lon="3.50286">
        <ele>1382.3</ele>
        <time>2026-05-28T11:15:31.999Z</time>
      </trkpt>
      <trkpt lat="44.03465" lon="3.50287">
        <ele>1382</ele>
        <time>2026-05-28T11:15:32.999Z</time>
      </trkpt>
      <trkpt lat="44.03465" lon="3.50288">
        <ele>1381.7</ele>
        <time>2026-05-28T11:15:33.999Z</time>
      </trkpt>
      <trkpt lat="44.03466" lon="3.50288">
        <ele>1381.8</ele>
        <time>2026-05-28T11:15:34.999Z</time>
      </trkpt>
      <trkpt lat="44.03467" lon="3.50289">
        <ele>1381.6</ele>
        <time>2026-05-28T11:15:35.999Z</time>
      </trkpt>
      <trkpt lat="44.03469" lon="3.5029">
        <ele>1381.6</ele>
        <time>2026-05-28T11:15:36.999Z</time>
      </trkpt>
      <trkpt lat="44.03469" lon="3.50291">
        <ele>1381.4</ele>
        <time>2026-05-28T11:15:37.999Z</time>
      </trkpt>
      <trkpt lat="44.0347" lon="3.50292">
        <ele>1381.1</ele>
        <time>2026-05-28T11:15:38.999Z</time>
      </trkpt>
      <trkpt lat="44.03471" lon="3.50293">
        <ele>1381</ele>
        <time>2026-05-28T11:15:39.999Z</time>
      </trkpt>
      <trkpt lat="44.03471" lon="3.50293">
        <ele>1381.1</ele>
        <time>2026-05-28T11:15:40.999Z</time>
      </trkpt>
      <trkpt lat="44.03471" lon="3.50294">
        <ele>1381.2</ele>
        <time>2026-05-28T11:15:41.999Z</time>
      </trkpt>
      <trkpt lat="44.03471" lon="3.50294">
        <ele>1381.3</ele>
        <time>2026-05-28T11:15:42.999Z</time>
      </trkpt>
      <trkpt lat="44.03471" lon="3.50294">
        <ele>1381.4</ele>
        <time>2026-05-28T11:15:43.999Z</time>
      </trkpt>
      <trkpt lat="44.0347" lon="3.50294">
        <ele>1381.3</ele>
        <time>2026-05-28T11:15:44.999Z</time>
      </trkpt>
      <trkpt lat="44.0347" lon="3.50294">
        <ele>1381.6</ele>
        <time>2026-05-28T11:15:45.999Z</time>
      </trkpt>
      <trkpt lat="44.0347" lon="3.50293">
        <ele>1381.8</ele>
        <time>2026-05-28T11:15:46.999Z</time>
      </trkpt>
      <trkpt lat="44.0347" lon="3.50293">
        <ele>1381.7</ele>
        <time>2026-05-28T11:15:47.999Z</time>
      </trkpt>
      <trkpt lat="44.03471" lon="3.50294">
        <ele>1381.5</ele>
        <time>2026-05-28T11:15:48.999Z</time>
      </trkpt>
      <trkpt lat="44.03472" lon="3.50295">
        <ele>1381.5</ele>
        <time>2026-05-28T11:15:49.999Z</time>
      </trkpt>
      <trkpt lat="44.03474" lon="3.50295">
        <ele>1381.2</ele>
        <time>2026-05-28T11:15:50.999Z</time>
      </trkpt>
      <trkpt lat="44.03475" lon="3.50296">
        <ele>1381</ele>
        <time>2026-05-28T11:15:51.999Z</time>
      </trkpt>
      <trkpt lat="44.03476" lon="3.50298">
        <ele>1380.7</ele>
        <time>2026-05-28T11:15:52.999Z</time>
      </trkpt>
      <trkpt lat="44.03476" lon="3.50299">
        <ele>1380.5</ele>
        <time>2026-05-28T11:15:53.999Z</time>
      </trkpt>
      <trkpt lat="44.03477" lon="3.50301">
        <ele>1380.1</ele>
        <time>2026-05-28T11:15:54.999Z</time>
      </trkpt>
      <trkpt lat="44.03478" lon="3.50302">
        <ele>1379.8</ele>
        <time>2026-05-28T11:15:55.999Z</time>
      </trkpt>
      <trkpt lat="44.03478" lon="3.50303">
        <ele>1379.7</ele>
        <time>2026-05-28T11:15:56.999Z</time>
      </trkpt>
      <trkpt lat="44.03479" lon="3.50305">
        <ele>1379.6</ele>
        <time>2026-05-28T11:15:57.999Z</time>
      </trkpt>
      <trkpt lat="44.0348" lon="3.50307">
        <ele>1379.7</ele>
        <time>2026-05-28T11:15:58.999Z</time>
      </trkpt>
      <trkpt lat="44.03481" lon="3.50308">
        <ele>1379.9</ele>
        <time>2026-05-28T11:15:59.999Z</time>
      </trkpt>
      <trkpt lat="44.03482" lon="3.5031">
        <ele>1379.8</ele>
        <time>2026-05-28T11:16:00.999Z</time>
      </trkpt>
      <trkpt lat="44.03483" lon="3.50311">
        <ele>1379.6</ele>
        <time>2026-05-28T11:16:01.999Z</time>
      </trkpt>
      <trkpt lat="44.03484" lon="3.50311">
        <ele>1379.5</ele>
        <time>2026-05-28T11:16:02.999Z</time>
      </trkpt>
      <trkpt lat="44.03485" lon="3.50311">
        <ele>1379.3</ele>
        <time>2026-05-28T11:16:03.999Z</time>
      </trkpt>
      <trkpt lat="44.03486" lon="3.50311">
        <ele>1379.3</ele>
        <time>2026-05-28T11:16:04.999Z</time>
      </trkpt>
      <trkpt lat="44.03487" lon="3.50312">
        <ele>1379.2</ele>
        <time>2026-05-28T11:16:05.999Z</time>
      </trkpt>
      <trkpt lat="44.03489" lon="3.50313">
        <ele>1379.2</ele>
        <time>2026-05-28T11:16:06.999Z</time>
      </trkpt>
      <trkpt lat="44.0349" lon="3.50314">
        <ele>1379.1</ele>
        <time>2026-05-28T11:16:07.999Z</time>
      </trkpt>
      <trkpt lat="44.03491" lon="3.50314">
        <ele>1378.8</ele>
        <time>2026-05-28T11:16:08.999Z</time>
      </trkpt>
      <trkpt lat="44.03493" lon="3.50315">
        <ele>1378.8</ele>
        <time>2026-05-28T11:16:09.999Z</time>
      </trkpt>
      <trkpt lat="44.03494" lon="3.50316">
        <ele>1378.9</ele>
        <time>2026-05-28T11:16:10.999Z</time>
      </trkpt>
      <trkpt lat="44.03495" lon="3.50316">
        <ele>1378.9</ele>
        <time>2026-05-28T11:16:11.999Z</time>
      </trkpt>
      <trkpt lat="44.03496" lon="3.50317">
        <ele>1378.8</ele>
        <time>2026-05-28T11:16:12.999Z</time>
      </trkpt>
      <trkpt lat="44.03497" lon="3.50318">
        <ele>1378.6</ele>
        <time>2026-05-28T11:16:13.999Z</time>
      </trkpt>
      <trkpt lat="44.03498" lon="3.50319">
        <ele>1378.5</ele>
        <time>2026-05-28T11:16:14.999Z</time>
      </trkpt>
      <trkpt lat="44.03499" lon="3.5032">
        <ele>1378.1</ele>
        <time>2026-05-28T11:16:15.999Z</time>
      </trkpt>
      <trkpt lat="44.035" lon="3.50321">
        <ele>1378.1</ele>
        <time>2026-05-28T11:16:16.999Z</time>
      </trkpt>
      <trkpt lat="44.035" lon="3.50322">
        <ele>1378.2</ele>
        <time>2026-05-28T11:16:17.999Z</time>
      </trkpt>
      <trkpt lat="44.03501" lon="3.50323">
        <ele>1378.4</ele>
        <time>2026-05-28T11:16:18.999Z</time>
      </trkpt>
      <trkpt lat="44.03502" lon="3.50324">
        <ele>1378.5</ele>
        <time>2026-05-28T11:16:19.999Z</time>
      </trkpt>
      <trkpt lat="44.03502" lon="3.50325">
        <ele>1378.4</ele>
        <time>2026-05-28T11:16:20.999Z</time>
      </trkpt>
      <trkpt lat="44.03504" lon="3.50326">
        <ele>1378.2</ele>
        <time>2026-05-28T11:16:21.999Z</time>
      </trkpt>
      <trkpt lat="44.03505" lon="3.50327">
        <ele>1378</ele>
        <time>2026-05-28T11:16:22.999Z</time>
      </trkpt>
      <trkpt lat="44.03506" lon="3.50328">
        <ele>1377.6</ele>
        <time>2026-05-28T11:16:23.999Z</time>
      </trkpt>
      <trkpt lat="44.03507" lon="3.5033">
        <ele>1377.5</ele>
        <time>2026-05-28T11:16:24.999Z</time>
      </trkpt>
      <trkpt lat="44.03507" lon="3.5033">
        <ele>1377.2</ele>
        <time>2026-05-28T11:16:25.999Z</time>
      </trkpt>
      <trkpt lat="44.03508" lon="3.50332">
        <ele>1377.2</ele>
        <time>2026-05-28T11:16:26.999Z</time>
      </trkpt>
      <trkpt lat="44.03508" lon="3.50333">
        <ele>1377.1</ele>
        <time>2026-05-28T11:16:27.999Z</time>
      </trkpt>
      <trkpt lat="44.03508" lon="3.50333">
        <ele>1377.3</ele>
        <time>2026-05-28T11:16:28.999Z</time>
      </trkpt>
      <trkpt lat="44.03509" lon="3.50334">
        <ele>1377.4</ele>
        <time>2026-05-28T11:16:29.999Z</time>
      </trkpt>
      <trkpt lat="44.03509" lon="3.50335">
        <ele>1377.2</ele>
        <time>2026-05-28T11:16:30.999Z</time>
      </trkpt>
      <trkpt lat="44.03509" lon="3.50336">
        <ele>1377.4</ele>
        <time>2026-05-28T11:16:31.999Z</time>
      </trkpt>
      <trkpt lat="44.03509" lon="3.50338">
        <ele>1377.6</ele>
        <time>2026-05-28T11:16:32.999Z</time>
      </trkpt>
      <trkpt lat="44.03509" lon="3.50339">
        <ele>1377.9</ele>
        <time>2026-05-28T11:16:33.999Z</time>
      </trkpt>
      <trkpt lat="44.0351" lon="3.5034">
        <ele>1377.7</ele>
        <time>2026-05-28T11:16:34.999Z</time>
      </trkpt>
      <trkpt lat="44.0351" lon="3.50341">
        <ele>1377.8</ele>
        <time>2026-05-28T11:16:35.999Z</time>
      </trkpt>
      <trkpt lat="44.03511" lon="3.50343">
        <ele>1377.7</ele>
        <time>2026-05-28T11:16:36.999Z</time>
      </trkpt>
      <trkpt lat="44.03512" lon="3.50344">
        <ele>1377.3</ele>
        <time>2026-05-28T11:16:37.999Z</time>
      </trkpt>
      <trkpt lat="44.03512" lon="3.50346">
        <ele>1377.2</ele>
        <time>2026-05-28T11:16:38.999Z</time>
      </trkpt>
      <trkpt lat="44.03513" lon="3.50347">
        <ele>1377.1</ele>
        <time>2026-05-28T11:16:39.999Z</time>
      </trkpt>
      <trkpt lat="44.03514" lon="3.50348">
        <ele>1376.4</ele>
        <time>2026-05-28T11:16:40.999Z</time>
      </trkpt>
      <trkpt lat="44.03515" lon="3.50349">
        <ele>1376.3</ele>
        <time>2026-05-28T11:16:41.999Z</time>
      </trkpt>
      <trkpt lat="44.03516" lon="3.5035">
        <ele>1376.6</ele>
        <time>2026-05-28T11:16:42.999Z</time>
      </trkpt>
      <trkpt lat="44.03517" lon="3.5035">
        <ele>1376.8</ele>
        <time>2026-05-28T11:16:43.999Z</time>
      </trkpt>
      <trkpt lat="44.03517" lon="3.50351">
        <ele>1376.8</ele>
        <time>2026-05-28T11:16:44.999Z</time>
      </trkpt>
      <trkpt lat="44.03518" lon="3.50351">
        <ele>1376.7</ele>
        <time>2026-05-28T11:16:45.999Z</time>
      </trkpt>
      <trkpt lat="44.03518" lon="3.50351">
        <ele>1376.6</ele>
        <time>2026-05-28T11:16:46.999Z</time>
      </trkpt>
      <trkpt lat="44.03518" lon="3.5035">
        <ele>1376.6</ele>
        <time>2026-05-28T11:16:47.999Z</time>
      </trkpt>
      <trkpt lat="44.03518" lon="3.5035">
        <ele>1376.5</ele>
        <time>2026-05-28T11:16:48.999Z</time>
      </trkpt>
      <trkpt lat="44.03517" lon="3.5035">
        <ele>1376.5</ele>
        <time>2026-05-28T11:16:49.999Z</time>
      </trkpt>
      <trkpt lat="44.03517" lon="3.50351">
        <ele>1376.3</ele>
        <time>2026-05-28T11:16:50.999Z</time>
      </trkpt>
      <trkpt lat="44.03518" lon="3.5035">
        <ele>1375.9</ele>
        <time>2026-05-28T11:16:51.999Z</time>
      </trkpt>
      <trkpt lat="44.03518" lon="3.5035">
        <ele>1375.7</ele>
        <time>2026-05-28T11:16:52.999Z</time>
      </trkpt>
      <trkpt lat="44.03518" lon="3.5035">
        <ele>1375.5</ele>
        <time>2026-05-28T11:16:53.999Z</time>
      </trkpt>
      <trkpt lat="44.03518" lon="3.5035">
        <ele>1375.8</ele>
        <time>2026-05-28T11:16:54.999Z</time>
      </trkpt>
      <trkpt lat="44.03518" lon="3.5035">
        <ele>1375.7</ele>
        <time>2026-05-28T11:16:55.999Z</time>
      </trkpt>
      <trkpt lat="44.03518" lon="3.5035">
        <ele>1375.8</ele>
        <time>2026-05-28T11:16:56.999Z</time>
      </trkpt>
      <trkpt lat="44.03517" lon="3.5035">
        <ele>1375.8</ele>
        <time>2026-05-28T11:16:57.999Z</time>
      </trkpt>
      <trkpt lat="44.03517" lon="3.5035">
        <ele>1376.1</ele>
        <time>2026-05-28T11:16:58.999Z</time>
      </trkpt>
      <trkpt lat="44.03517" lon="3.5035">
        <ele>1376.2</ele>
        <time>2026-05-28T11:16:59.999Z</time>
      </trkpt>
      <trkpt lat="44.03517" lon="3.5035">
        <ele>1376.3</ele>
        <time>2026-05-28T11:17:00.999Z</time>
      </trkpt>
      <trkpt lat="44.03517" lon="3.5035">
        <ele>1376.2</ele>
        <time>2026-05-28T11:17:01.999Z</time>
      </trkpt>
      <trkpt lat="44.03517" lon="3.5035">
        <ele>1376.2</ele>
        <time>2026-05-28T11:17:02.999Z</time>
      </trkpt>
      <trkpt lat="44.03517" lon="3.5035">
        <ele>1376.4</ele>
        <time>2026-05-28T11:17:03.999Z</time>
      </trkpt>
      <trkpt lat="44.03517" lon="3.5035">
        <ele>1376.4</ele>
        <time>2026-05-28T11:17:04.999Z</time>
      </trkpt>
      <trkpt lat="44.03517" lon="3.5035">
        <ele>1376.3</ele>
        <time>2026-05-28T11:17:05.999Z</time>
      </trkpt>
      <trkpt lat="44.03517" lon="3.5035">
        <ele>1376.2</ele>
        <time>2026-05-28T11:17:06.999Z</time>
      </trkpt>
      <trkpt lat="44.03517" lon="3.5035">
        <ele>1376</ele>
        <time>2026-05-28T11:17:07.999Z</time>
      </trkpt>
      <trkpt lat="44.03517" lon="3.5035">
        <ele>1375.8</ele>
        <time>2026-05-28T11:17:08.999Z</time>
      </trkpt>
      <trkpt lat="44.03517" lon="3.5035">
        <ele>1375.7</ele>
        <time>2026-05-28T11:17:09.999Z</time>
      </trkpt>
      <trkpt lat="44.03517" lon="3.5035">
        <ele>1375.5</ele>
        <time>2026-05-28T11:17:10.999Z</time>
      </trkpt>
      <trkpt lat="44.03517" lon="3.5035">
        <ele>1375.4</ele>
        <time>2026-05-28T11:17:11.999Z</time>
      </trkpt>
      <trkpt lat="44.03517" lon="3.5035">
        <ele>1375.4</ele>
        <time>2026-05-28T11:17:12.999Z</time>
      </trkpt>
      <trkpt lat="44.03517" lon="3.5035">
        <ele>1375.4</ele>
        <time>2026-05-28T11:17:13.999Z</time>
      </trkpt>
      <trkpt lat="44.03517" lon="3.5035">
        <ele>1375.5</ele>
        <time>2026-05-28T11:17:14.999Z</time>
      </trkpt>
      <trkpt lat="44.03517" lon="3.5035">
        <ele>1375.5</ele>
        <time>2026-05-28T11:17:15.999Z</time>
      </trkpt>
      <trkpt lat="44.03517" lon="3.5035">
        <ele>1375.5</ele>
        <time>2026-05-28T11:17:16.999Z</time>
      </trkpt>
      <trkpt lat="44.03517" lon="3.5035">
        <ele>1375.6</ele>
        <time>2026-05-28T11:17:17.999Z</time>
      </trkpt>
      <trkpt lat="44.03517" lon="3.5035">
        <ele>1375.7</ele>
        <time>2026-05-28T11:17:18.999Z</time>
      </trkpt>
      <trkpt lat="44.03517" lon="3.5035">
        <ele>1376</ele>
        <time>2026-05-28T11:17:19.999Z</time>
      </trkpt>
      <trkpt lat="44.03517" lon="3.5035">
        <ele>1376.2</ele>
        <time>2026-05-28T11:17:20.999Z</time>
      </trkpt>
      <trkpt lat="44.03517" lon="3.5035">
        <ele>1376.5</ele>
        <time>2026-05-28T11:17:21.999Z</time>
      </trkpt>
      <trkpt lat="44.03517" lon="3.5035">
        <ele>1376.4</ele>
        <time>2026-05-28T11:17:22.999Z</time>
      </trkpt>
      <trkpt lat="44.03517" lon="3.5035">
        <ele>1376.4</ele>
        <time>2026-05-28T11:17:23.999Z</time>
      </trkpt>
      <trkpt lat="44.03517" lon="3.5035">
        <ele>1376.3</ele>
        <time>2026-05-28T11:17:24.999Z</time>
      </trkpt>
      <trkpt lat="44.03517" lon="3.5035">
        <ele>1376.6</ele>
        <time>2026-05-28T11:17:25.999Z</time>
      </trkpt>
      <trkpt lat="44.03517" lon="3.5035">
        <ele>1376.9</ele>
        <time>2026-05-28T11:17:26.999Z</time>
      </trkpt>
      <trkpt lat="44.03517" lon="3.5035">
        <ele>1377.1</ele>
        <time>2026-05-28T11:17:27.999Z</time>
      </trkpt>
      <trkpt lat="44.03517" lon="3.5035">
        <ele>1377.3</ele>
        <time>2026-05-28T11:17:28.999Z</time>
      </trkpt>
      <trkpt lat="44.03517" lon="3.5035">
        <ele>1377.3</ele>
        <time>2026-05-28T11:17:29.999Z</time>
      </trkpt>
      <trkpt lat="44.03517" lon="3.5035">
        <ele>1377.3</ele>
        <time>2026-05-28T11:17:30.999Z</time>
      </trkpt>
      <trkpt lat="44.03517" lon="3.5035">
        <ele>1377.1</ele>
        <time>2026-05-28T11:17:31.999Z</time>
      </trkpt>
      <trkpt lat="44.03517" lon="3.5035">
        <ele>1376.9</ele>
        <time>2026-05-28T11:17:32.999Z</time>
      </trkpt>
      <trkpt lat="44.03517" lon="3.5035">
        <ele>1376.9</ele>
        <time>2026-05-28T11:17:33.999Z</time>
      </trkpt>
      <trkpt lat="44.03517" lon="3.5035">
        <ele>1377</ele>
        <time>2026-05-28T11:17:34.999Z</time>
      </trkpt>
      <trkpt lat="44.03517" lon="3.50351">
        <ele>1377.1</ele>
        <time>2026-05-28T11:17:35.999Z</time>
      </trkpt>
      <trkpt lat="44.03517" lon="3.50351">
        <ele>1377</ele>
        <time>2026-05-28T11:17:36.999Z</time>
      </trkpt>
      <trkpt lat="44.03517" lon="3.50352">
        <ele>1376.8</ele>
        <time>2026-05-28T11:17:37.999Z</time>
      </trkpt>
      <trkpt lat="44.03518" lon="3.50353">
        <ele>1376.2</ele>
        <time>2026-05-28T11:17:38.999Z</time>
      </trkpt>
      <trkpt lat="44.03519" lon="3.50352">
        <ele>1375.6</ele>
        <time>2026-05-28T11:17:39.999Z</time>
      </trkpt>
      <trkpt lat="44.0352" lon="3.50351">
        <ele>1375.3</ele>
        <time>2026-05-28T11:17:40.999Z</time>
      </trkpt>
      <trkpt lat="44.03522" lon="3.50351">
        <ele>1375.3</ele>
        <time>2026-05-28T11:17:41.999Z</time>
      </trkpt>
      <trkpt lat="44.03523" lon="3.50351">
        <ele>1375.6</ele>
        <time>2026-05-28T11:17:42.999Z</time>
      </trkpt>
      <trkpt lat="44.03525" lon="3.50352">
        <ele>1375.6</ele>
        <time>2026-05-28T11:17:43.999Z</time>
      </trkpt>
      <trkpt lat="44.03527" lon="3.50353">
        <ele>1375.3</ele>
        <time>2026-05-28T11:17:44.999Z</time>
      </trkpt>
      <trkpt lat="44.03529" lon="3.50353">
        <ele>1375.2</ele>
        <time>2026-05-28T11:17:45.999Z</time>
      </trkpt>
      <trkpt lat="44.0353" lon="3.50354">
        <ele>1375.3</ele>
        <time>2026-05-28T11:17:46.999Z</time>
      </trkpt>
      <trkpt lat="44.03531" lon="3.50354">
        <ele>1375.4</ele>
        <time>2026-05-28T11:17:47.999Z</time>
      </trkpt>
      <trkpt lat="44.03532" lon="3.50353">
        <ele>1375.3</ele>
        <time>2026-05-28T11:17:48.999Z</time>
      </trkpt>
      <trkpt lat="44.03533" lon="3.50352">
        <ele>1375.2</ele>
        <time>2026-05-28T11:17:49.999Z</time>
      </trkpt>
      <trkpt lat="44.03534" lon="3.50351">
        <ele>1375.1</ele>
        <time>2026-05-28T11:17:50.999Z</time>
      </trkpt>
      <trkpt lat="44.03535" lon="3.50351">
        <ele>1374.8</ele>
        <time>2026-05-28T11:17:51.999Z</time>
      </trkpt>
      <trkpt lat="44.03536" lon="3.5035">
        <ele>1374.6</ele>
        <time>2026-05-28T11:17:52.999Z</time>
      </trkpt>
      <trkpt lat="44.03537" lon="3.50349">
        <ele>1374.2</ele>
        <time>2026-05-28T11:17:53.999Z</time>
      </trkpt>
      <trkpt lat="44.03538" lon="3.50349">
        <ele>1374.1</ele>
        <time>2026-05-28T11:17:54.999Z</time>
      </trkpt>
      <trkpt lat="44.03539" lon="3.50348">
        <ele>1374</ele>
        <time>2026-05-28T11:17:55.999Z</time>
      </trkpt>
      <trkpt lat="44.0354" lon="3.50348">
        <ele>1373.9</ele>
        <time>2026-05-28T11:17:56.999Z</time>
      </trkpt>
      <trkpt lat="44.03541" lon="3.50348">
        <ele>1374</ele>
        <time>2026-05-28T11:17:57.999Z</time>
      </trkpt>
      <trkpt lat="44.03542" lon="3.50348">
        <ele>1373.8</ele>
        <time>2026-05-28T11:17:58.999Z</time>
      </trkpt>
      <trkpt lat="44.03544" lon="3.50347">
        <ele>1373.7</ele>
        <time>2026-05-28T11:17:59.999Z</time>
      </trkpt>
      <trkpt lat="44.03545" lon="3.50347">
        <ele>1373.5</ele>
        <time>2026-05-28T11:18:00.999Z</time>
      </trkpt>
      <trkpt lat="44.03546" lon="3.50346">
        <ele>1373.3</ele>
        <time>2026-05-28T11:18:01.999Z</time>
      </trkpt>
      <trkpt lat="44.03547" lon="3.50346">
        <ele>1373.1</ele>
        <time>2026-05-28T11:18:02.999Z</time>
      </trkpt>
      <trkpt lat="44.03548" lon="3.50346">
        <ele>1372.9</ele>
        <time>2026-05-28T11:18:03.999Z</time>
      </trkpt>
      <trkpt lat="44.03549" lon="3.50345">
        <ele>1372.7</ele>
        <time>2026-05-28T11:18:04.999Z</time>
      </trkpt>
      <trkpt lat="44.0355" lon="3.50344">
        <ele>1372.4</ele>
        <time>2026-05-28T11:18:05.999Z</time>
      </trkpt>
      <trkpt lat="44.03551" lon="3.50344">
        <ele>1372.5</ele>
        <time>2026-05-28T11:18:06.999Z</time>
      </trkpt>
      <trkpt lat="44.0355" lon="3.50344">
        <ele>1372.9</ele>
        <time>2026-05-28T11:18:07.999Z</time>
      </trkpt>
      <trkpt lat="44.0355" lon="3.50344">
        <ele>1372.9</ele>
        <time>2026-05-28T11:18:08.999Z</time>
      </trkpt>
      <trkpt lat="44.0355" lon="3.50344">
        <ele>1372.8</ele>
        <time>2026-05-28T11:18:09.999Z</time>
      </trkpt>
      <trkpt lat="44.03551" lon="3.50344">
        <ele>1372.6</ele>
        <time>2026-05-28T11:18:10.999Z</time>
      </trkpt>
      <trkpt lat="44.03552" lon="3.50345">
        <ele>1372.5</ele>
        <time>2026-05-28T11:18:11.999Z</time>
      </trkpt>
      <trkpt lat="44.03553" lon="3.50346">
        <ele>1372.3</ele>
        <time>2026-05-28T11:18:12.999Z</time>
      </trkpt>
      <trkpt lat="44.03554" lon="3.50347">
        <ele>1372.1</ele>
        <time>2026-05-28T11:18:13.999Z</time>
      </trkpt>
      <trkpt lat="44.03555" lon="3.50348">
        <ele>1372.2</ele>
        <time>2026-05-28T11:18:14.999Z</time>
      </trkpt>
      <trkpt lat="44.03555" lon="3.50348">
        <ele>1372.4</ele>
        <time>2026-05-28T11:18:15.999Z</time>
      </trkpt>
      <trkpt lat="44.03556" lon="3.50348">
        <ele>1372.3</ele>
        <time>2026-05-28T11:18:16.999Z</time>
      </trkpt>
      <trkpt lat="44.03557" lon="3.50349">
        <ele>1372.3</ele>
        <time>2026-05-28T11:18:17.999Z</time>
      </trkpt>
      <trkpt lat="44.03559" lon="3.5035">
        <ele>1372.5</ele>
        <time>2026-05-28T11:18:18.999Z</time>
      </trkpt>
      <trkpt lat="44.0356" lon="3.50351">
        <ele>1372.3</ele>
        <time>2026-05-28T11:18:19.999Z</time>
      </trkpt>
      <trkpt lat="44.03561" lon="3.50351">
        <ele>1372.1</ele>
        <time>2026-05-28T11:18:20.999Z</time>
      </trkpt>
      <trkpt lat="44.03562" lon="3.50352">
        <ele>1372.2</ele>
        <time>2026-05-28T11:18:21.999Z</time>
      </trkpt>
      <trkpt lat="44.03563" lon="3.50352">
        <ele>1371.9</ele>
        <time>2026-05-28T11:18:22.999Z</time>
      </trkpt>
      <trkpt lat="44.03564" lon="3.50352">
        <ele>1371.4</ele>
        <time>2026-05-28T11:18:23.999Z</time>
      </trkpt>
      <trkpt lat="44.03565" lon="3.50352">
        <ele>1371.2</ele>
        <time>2026-05-28T11:18:24.999Z</time>
      </trkpt>
      <trkpt lat="44.03566" lon="3.50351">
        <ele>1370.8</ele>
        <time>2026-05-28T11:18:25.999Z</time>
      </trkpt>
      <trkpt lat="44.03567" lon="3.50351">
        <ele>1370.6</ele>
        <time>2026-05-28T11:18:26.999Z</time>
      </trkpt>
      <trkpt lat="44.03568" lon="3.50351">
        <ele>1370.5</ele>
        <time>2026-05-28T11:18:27.999Z</time>
      </trkpt>
      <trkpt lat="44.03569" lon="3.50352">
        <ele>1370.2</ele>
        <time>2026-05-28T11:18:28.999Z</time>
      </trkpt>
      <trkpt lat="44.0357" lon="3.50352">
        <ele>1369.8</ele>
        <time>2026-05-28T11:18:29.999Z</time>
      </trkpt>
      <trkpt lat="44.03571" lon="3.50353">
        <ele>1369.4</ele>
        <time>2026-05-28T11:18:30.999Z</time>
      </trkpt>
      <trkpt lat="44.03572" lon="3.50353">
        <ele>1369.3</ele>
        <time>2026-05-28T11:18:31.999Z</time>
      </trkpt>
      <trkpt lat="44.03572" lon="3.50353">
        <ele>1369.1</ele>
        <time>2026-05-28T11:18:32.999Z</time>
      </trkpt>
      <trkpt lat="44.03572" lon="3.50352">
        <ele>1368.6</ele>
        <time>2026-05-28T11:18:33.999Z</time>
      </trkpt>
      <trkpt lat="44.03571" lon="3.50352">
        <ele>1368.3</ele>
        <time>2026-05-28T11:18:34.999Z</time>
      </trkpt>
      <trkpt lat="44.03571" lon="3.50352">
        <ele>1368</ele>
        <time>2026-05-28T11:18:35.999Z</time>
      </trkpt>
      <trkpt lat="44.03572" lon="3.50352">
        <ele>1367.7</ele>
        <time>2026-05-28T11:18:36.999Z</time>
      </trkpt>
      <trkpt lat="44.03573" lon="3.50352">
        <ele>1367.3</ele>
        <time>2026-05-28T11:18:37.999Z</time>
      </trkpt>
      <trkpt lat="44.03574" lon="3.50352">
        <ele>1367</ele>
        <time>2026-05-28T11:18:38.999Z</time>
      </trkpt>
      <trkpt lat="44.03574" lon="3.50353">
        <ele>1366.9</ele>
        <time>2026-05-28T11:18:39.999Z</time>
      </trkpt>
      <trkpt lat="44.03575" lon="3.50354">
        <ele>1366.6</ele>
        <time>2026-05-28T11:18:40.999Z</time>
      </trkpt>
      <trkpt lat="44.03576" lon="3.50355">
        <ele>1366.7</ele>
        <time>2026-05-28T11:18:41.999Z</time>
      </trkpt>
      <trkpt lat="44.03577" lon="3.50356">
        <ele>1366.7</ele>
        <time>2026-05-28T11:18:42.999Z</time>
      </trkpt>
      <trkpt lat="44.03577" lon="3.50356">
        <ele>1366.5</ele>
        <time>2026-05-28T11:18:43.999Z</time>
      </trkpt>
      <trkpt lat="44.03578" lon="3.50356">
        <ele>1366.3</ele>
        <time>2026-05-28T11:18:44.999Z</time>
      </trkpt>
      <trkpt lat="44.03579" lon="3.50356">
        <ele>1366.3</ele>
        <time>2026-05-28T11:18:45.999Z</time>
      </trkpt>
      <trkpt lat="44.0358" lon="3.50356">
        <ele>1366.6</ele>
        <time>2026-05-28T11:18:46.999Z</time>
      </trkpt>
      <trkpt lat="44.03582" lon="3.50356">
        <ele>1366.7</ele>
        <time>2026-05-28T11:18:47.999Z</time>
      </trkpt>
      <trkpt lat="44.03584" lon="3.50356">
        <ele>1367</ele>
        <time>2026-05-28T11:18:48.999Z</time>
      </trkpt>
      <trkpt lat="44.03585" lon="3.50358">
        <ele>1367.2</ele>
        <time>2026-05-28T11:18:49.999Z</time>
      </trkpt>
      <trkpt lat="44.03587" lon="3.50359">
        <ele>1367.3</ele>
        <time>2026-05-28T11:18:50.999Z</time>
      </trkpt>
      <trkpt lat="44.03588" lon="3.50359">
        <ele>1367.4</ele>
        <time>2026-05-28T11:18:51.999Z</time>
      </trkpt>
      <trkpt lat="44.03589" lon="3.50359">
        <ele>1367.3</ele>
        <time>2026-05-28T11:18:52.999Z</time>
      </trkpt>
      <trkpt lat="44.0359" lon="3.50359">
        <ele>1367.1</ele>
        <time>2026-05-28T11:18:53.999Z</time>
      </trkpt>
      <trkpt lat="44.03591" lon="3.50358">
        <ele>1366.4</ele>
        <time>2026-05-28T11:18:54.999Z</time>
      </trkpt>
      <trkpt lat="44.03591" lon="3.50358">
        <ele>1366.5</ele>
        <time>2026-05-28T11:18:55.999Z</time>
      </trkpt>
      <trkpt lat="44.03592" lon="3.50357">
        <ele>1366.4</ele>
        <time>2026-05-28T11:18:56.999Z</time>
      </trkpt>
      <trkpt lat="44.03592" lon="3.50357">
        <ele>1366.9</ele>
        <time>2026-05-28T11:18:57.999Z</time>
      </trkpt>
      <trkpt lat="44.03592" lon="3.50357">
        <ele>1366.5</ele>
        <time>2026-05-28T11:18:58.999Z</time>
      </trkpt>
      <trkpt lat="44.03594" lon="3.50358">
        <ele>1366</ele>
        <time>2026-05-28T11:18:59.999Z</time>
      </trkpt>
      <trkpt lat="44.03595" lon="3.50358">
        <ele>1365.5</ele>
        <time>2026-05-28T11:19:00.999Z</time>
      </trkpt>
      <trkpt lat="44.03596" lon="3.50359">
        <ele>1365.3</ele>
        <time>2026-05-28T11:19:01.999Z</time>
      </trkpt>
      <trkpt lat="44.03597" lon="3.50359">
        <ele>1364.8</ele>
        <time>2026-05-28T11:19:02.999Z</time>
      </trkpt>
      <trkpt lat="44.03597" lon="3.50359">
        <ele>1364.6</ele>
        <time>2026-05-28T11:19:03.999Z</time>
      </trkpt>
      <trkpt lat="44.03598" lon="3.50359">
        <ele>1364.6</ele>
        <time>2026-05-28T11:19:04.999Z</time>
      </trkpt>
      <trkpt lat="44.03599" lon="3.5036">
        <ele>1364.9</ele>
        <time>2026-05-28T11:19:05.999Z</time>
      </trkpt>
      <trkpt lat="44.03599" lon="3.50361">
        <ele>1365.3</ele>
        <time>2026-05-28T11:19:06.999Z</time>
      </trkpt>
      <trkpt lat="44.036" lon="3.50363">
        <ele>1364.9</ele>
        <time>2026-05-28T11:19:07.999Z</time>
      </trkpt>
      <trkpt lat="44.03601" lon="3.50363">
        <ele>1364.4</ele>
        <time>2026-05-28T11:19:08.999Z</time>
      </trkpt>
      <trkpt lat="44.03602" lon="3.50365">
        <ele>1364.5</ele>
        <time>2026-05-28T11:19:09.999Z</time>
      </trkpt>
      <trkpt lat="44.03604" lon="3.50368">
        <ele>1364.6</ele>
        <time>2026-05-28T11:19:10.999Z</time>
      </trkpt>
      <trkpt lat="44.03606" lon="3.5037">
        <ele>1364.1</ele>
        <time>2026-05-28T11:19:11.999Z</time>
      </trkpt>
      <trkpt lat="44.03608" lon="3.50371">
        <ele>1362.7</ele>
        <time>2026-05-28T11:19:12.999Z</time>
      </trkpt>
      <trkpt lat="44.03609" lon="3.50372">
        <ele>1362.5</ele>
        <time>2026-05-28T11:19:13.999Z</time>
      </trkpt>
      <trkpt lat="44.03611" lon="3.50373">
        <ele>1362.4</ele>
        <time>2026-05-28T11:19:14.999Z</time>
      </trkpt>
      <trkpt lat="44.03614" lon="3.50373">
        <ele>1362.5</ele>
        <time>2026-05-28T11:19:15.999Z</time>
      </trkpt>
      <trkpt lat="44.03616" lon="3.50373">
        <ele>1363.1</ele>
        <time>2026-05-28T11:19:16.999Z</time>
      </trkpt>
      <trkpt lat="44.03618" lon="3.50374">
        <ele>1363</ele>
        <time>2026-05-28T11:19:17.999Z</time>
      </trkpt>
      <trkpt lat="44.03619" lon="3.50375">
        <ele>1362.9</ele>
        <time>2026-05-28T11:19:18.999Z</time>
      </trkpt>
      <trkpt lat="44.03621" lon="3.50375">
        <ele>1362.6</ele>
        <time>2026-05-28T11:19:19.999Z</time>
      </trkpt>
      <trkpt lat="44.03622" lon="3.50375">
        <ele>1362.4</ele>
        <time>2026-05-28T11:19:20.999Z</time>
      </trkpt>
      <trkpt lat="44.03623" lon="3.50375">
        <ele>1362.1</ele>
        <time>2026-05-28T11:19:21.999Z</time>
      </trkpt>
      <trkpt lat="44.03625" lon="3.50376">
        <ele>1361.7</ele>
        <time>2026-05-28T11:19:22.999Z</time>
      </trkpt>
      <trkpt lat="44.03626" lon="3.50378">
        <ele>1361.5</ele>
        <time>2026-05-28T11:19:23.999Z</time>
      </trkpt>
      <trkpt lat="44.03627" lon="3.50379">
        <ele>1361.5</ele>
        <time>2026-05-28T11:19:24.999Z</time>
      </trkpt>
      <trkpt lat="44.03628" lon="3.50379">
        <ele>1361.9</ele>
        <time>2026-05-28T11:19:25.999Z</time>
      </trkpt>
      <trkpt lat="44.0363" lon="3.5038">
        <ele>1362.5</ele>
        <time>2026-05-28T11:19:26.999Z</time>
      </trkpt>
      <trkpt lat="44.0363" lon="3.5038">
        <ele>1362.5</ele>
        <time>2026-05-28T11:19:27.999Z</time>
      </trkpt>
      <trkpt lat="44.03631" lon="3.5038">
        <ele>1362.2</ele>
        <time>2026-05-28T11:19:28.999Z</time>
      </trkpt>
      <trkpt lat="44.03632" lon="3.50381">
        <ele>1361.7</ele>
        <time>2026-05-28T11:19:29.999Z</time>
      </trkpt>
      <trkpt lat="44.03634" lon="3.5038">
        <ele>1361.6</ele>
        <time>2026-05-28T11:19:30.999Z</time>
      </trkpt>
      <trkpt lat="44.03636" lon="3.5038">
        <ele>1361.3</ele>
        <time>2026-05-28T11:19:31.999Z</time>
      </trkpt>
      <trkpt lat="44.03637" lon="3.50379">
        <ele>1361.4</ele>
        <time>2026-05-28T11:19:32.999Z</time>
      </trkpt>
      <trkpt lat="44.03639" lon="3.5038">
        <ele>1361.9</ele>
        <time>2026-05-28T11:19:33.999Z</time>
      </trkpt>
      <trkpt lat="44.0364" lon="3.5038">
        <ele>1361.8</ele>
        <time>2026-05-28T11:19:34.999Z</time>
      </trkpt>
      <trkpt lat="44.03641" lon="3.50381">
        <ele>1361.8</ele>
        <time>2026-05-28T11:19:35.999Z</time>
      </trkpt>
      <trkpt lat="44.03642" lon="3.50383">
        <ele>1361.7</ele>
        <time>2026-05-28T11:19:36.999Z</time>
      </trkpt>
      <trkpt lat="44.03643" lon="3.50384">
        <ele>1361.3</ele>
        <time>2026-05-28T11:19:37.999Z</time>
      </trkpt>
      <trkpt lat="44.03644" lon="3.50386">
        <ele>1360.8</ele>
        <time>2026-05-28T11:19:38.999Z</time>
      </trkpt>
      <trkpt lat="44.03645" lon="3.50387">
        <ele>1359.7</ele>
        <time>2026-05-28T11:19:39.999Z</time>
      </trkpt>
      <trkpt lat="44.03646" lon="3.50387">
        <ele>1359.4</ele>
        <time>2026-05-28T11:19:40.999Z</time>
      </trkpt>
      <trkpt lat="44.03647" lon="3.50387">
        <ele>1358.7</ele>
        <time>2026-05-28T11:19:41.999Z</time>
      </trkpt>
      <trkpt lat="44.03648" lon="3.50387">
        <ele>1358.3</ele>
        <time>2026-05-28T11:19:42.999Z</time>
      </trkpt>
      <trkpt lat="44.03649" lon="3.50388">
        <ele>1358</ele>
        <time>2026-05-28T11:19:43.999Z</time>
      </trkpt>
      <trkpt lat="44.0365" lon="3.5039">
        <ele>1357.8</ele>
        <time>2026-05-28T11:19:44.999Z</time>
      </trkpt>
      <trkpt lat="44.03651" lon="3.50392">
        <ele>1357.7</ele>
        <time>2026-05-28T11:19:45.999Z</time>
      </trkpt>
      <trkpt lat="44.03652" lon="3.50393">
        <ele>1358</ele>
        <time>2026-05-28T11:19:46.999Z</time>
      </trkpt>
      <trkpt lat="44.03653" lon="3.50393">
        <ele>1358.2</ele>
        <time>2026-05-28T11:19:47.999Z</time>
      </trkpt>
      <trkpt lat="44.03655" lon="3.50394">
        <ele>1358.2</ele>
        <time>2026-05-28T11:19:48.999Z</time>
      </trkpt>
      <trkpt lat="44.03657" lon="3.50394">
        <ele>1358.4</ele>
        <time>2026-05-28T11:19:49.999Z</time>
      </trkpt>
      <trkpt lat="44.03658" lon="3.50394">
        <ele>1358.4</ele>
        <time>2026-05-28T11:19:50.999Z</time>
      </trkpt>
      <trkpt lat="44.03659" lon="3.50395">
        <ele>1358</ele>
        <time>2026-05-28T11:19:51.999Z</time>
      </trkpt>
      <trkpt lat="44.0366" lon="3.50397">
        <ele>1357.6</ele>
        <time>2026-05-28T11:19:52.999Z</time>
      </trkpt>
      <trkpt lat="44.0366" lon="3.50399">
        <ele>1357.9</ele>
        <time>2026-05-28T11:19:54.000Z</time>
      </trkpt>
      <trkpt lat="44.0366" lon="3.50399">
        <ele>1358.2</ele>
        <time>2026-05-28T11:19:55.000Z</time>
      </trkpt>
      <trkpt lat="44.0366" lon="3.50399">
        <ele>1358.2</ele>
        <time>2026-05-28T11:19:56.000Z</time>
      </trkpt>
      <trkpt lat="44.0366" lon="3.50399">
        <ele>1358</ele>
        <time>2026-05-28T11:19:57.000Z</time>
      </trkpt>
      <trkpt lat="44.0366" lon="3.50399">
        <ele>1357.2</ele>
        <time>2026-05-28T11:19:58.000Z</time>
      </trkpt>
      <trkpt lat="44.0366" lon="3.50399">
        <ele>1356.7</ele>
        <time>2026-05-28T11:19:59.000Z</time>
      </trkpt>
      <trkpt lat="44.0366" lon="3.50399">
        <ele>1356.6</ele>
        <time>2026-05-28T11:20:00.000Z</time>
      </trkpt>
      <trkpt lat="44.03659" lon="3.50399">
        <ele>1356.3</ele>
        <time>2026-05-28T11:20:01.000Z</time>
      </trkpt>
      <trkpt lat="44.03659" lon="3.50399">
        <ele>1356</ele>
        <time>2026-05-28T11:20:02.000Z</time>
      </trkpt>
      <trkpt lat="44.03659" lon="3.50398">
        <ele>1356</ele>
        <time>2026-05-28T11:20:03.000Z</time>
      </trkpt>
      <trkpt lat="44.03659" lon="3.50398">
        <ele>1355.8</ele>
        <time>2026-05-28T11:20:04.000Z</time>
      </trkpt>
      <trkpt lat="44.03659" lon="3.50398">
        <ele>1355.6</ele>
        <time>2026-05-28T11:20:05.000Z</time>
      </trkpt>
      <trkpt lat="44.03659" lon="3.50398">
        <ele>1355.5</ele>
        <time>2026-05-28T11:20:06.000Z</time>
      </trkpt>
      <trkpt lat="44.03659" lon="3.50398">
        <ele>1355.7</ele>
        <time>2026-05-28T11:20:07.000Z</time>
      </trkpt>
      <trkpt lat="44.03659" lon="3.50398">
        <ele>1355.8</ele>
        <time>2026-05-28T11:20:08.000Z</time>
      </trkpt>
      <trkpt lat="44.03659" lon="3.50398">
        <ele>1356</ele>
        <time>2026-05-28T11:20:09.000Z</time>
      </trkpt>
      <trkpt lat="44.03659" lon="3.50398">
        <ele>1356</ele>
        <time>2026-05-28T11:20:10.000Z</time>
      </trkpt>
      <trkpt lat="44.03659" lon="3.50398">
        <ele>1355.9</ele>
        <time>2026-05-28T11:20:11.000Z</time>
      </trkpt>
      <trkpt lat="44.03659" lon="3.50398">
        <ele>1355.8</ele>
        <time>2026-05-28T11:20:12.000Z</time>
      </trkpt>
      <trkpt lat="44.03659" lon="3.50398">
        <ele>1355.8</ele>
        <time>2026-05-28T11:20:13.000Z</time>
      </trkpt>
      <trkpt lat="44.03659" lon="3.50398">
        <ele>1355.9</ele>
        <time>2026-05-28T11:20:14.000Z</time>
      </trkpt>
      <trkpt lat="44.03659" lon="3.50398">
        <ele>1355.8</ele>
        <time>2026-05-28T11:20:15.000Z</time>
      </trkpt>
      <trkpt lat="44.03659" lon="3.50398">
        <ele>1355.7</ele>
        <time>2026-05-28T11:20:16.000Z</time>
      </trkpt>
      <trkpt lat="44.03659" lon="3.50398">
        <ele>1355.4</ele>
        <time>2026-05-28T11:20:17.000Z</time>
      </trkpt>
      <trkpt lat="44.0366" lon="3.50399">
        <ele>1355.1</ele>
        <time>2026-05-28T11:20:18.000Z</time>
      </trkpt>
      <trkpt lat="44.0366" lon="3.504">
        <ele>1354.8</ele>
        <time>2026-05-28T11:20:19.000Z</time>
      </trkpt>
      <trkpt lat="44.03661" lon="3.50401">
        <ele>1354.8</ele>
        <time>2026-05-28T11:20:20.000Z</time>
      </trkpt>
      <trkpt lat="44.03662" lon="3.50401">
        <ele>1355.2</ele>
        <time>2026-05-28T11:20:21.000Z</time>
      </trkpt>
      <trkpt lat="44.03663" lon="3.50401">
        <ele>1355.2</ele>
        <time>2026-05-28T11:20:22.000Z</time>
      </trkpt>
      <trkpt lat="44.03663" lon="3.504">
        <ele>1355.4</ele>
        <time>2026-05-28T11:20:23.000Z</time>
      </trkpt>
      <trkpt lat="44.03663" lon="3.504">
        <ele>1355.7</ele>
        <time>2026-05-28T11:20:24.000Z</time>
      </trkpt>
      <trkpt lat="44.03663" lon="3.504">
        <ele>1355.5</ele>
        <time>2026-05-28T11:20:25.000Z</time>
      </trkpt>
      <trkpt lat="44.03663" lon="3.504">
        <ele>1355.7</ele>
        <time>2026-05-28T11:20:26.000Z</time>
      </trkpt>
      <trkpt lat="44.03663" lon="3.504">
        <ele>1355.7</ele>
        <time>2026-05-28T11:20:27.000Z</time>
      </trkpt>
      <trkpt lat="44.03663" lon="3.50401">
        <ele>1355.8</ele>
        <time>2026-05-28T11:20:28.000Z</time>
      </trkpt>
      <trkpt lat="44.03663" lon="3.50401">
        <ele>1355.8</ele>
        <time>2026-05-28T11:20:29.000Z</time>
      </trkpt>
      <trkpt lat="44.03663" lon="3.50401">
        <ele>1355.8</ele>
        <time>2026-05-28T11:20:30.000Z</time>
      </trkpt>
      <trkpt lat="44.03663" lon="3.50401">
        <ele>1355.8</ele>
        <time>2026-05-28T11:20:31.000Z</time>
      </trkpt>
      <trkpt lat="44.03663" lon="3.50401">
        <ele>1355.8</ele>
        <time>2026-05-28T11:20:32.000Z</time>
      </trkpt>
      <trkpt lat="44.03664" lon="3.50402">
        <ele>1355.4</ele>
        <time>2026-05-28T11:20:33.000Z</time>
      </trkpt>
      <trkpt lat="44.03665" lon="3.50404">
        <ele>1355.2</ele>
        <time>2026-05-28T11:20:34.000Z</time>
      </trkpt>
      <trkpt lat="44.03666" lon="3.50406">
        <ele>1355.2</ele>
        <time>2026-05-28T11:20:35.000Z</time>
      </trkpt>
      <trkpt lat="44.03666" lon="3.50407">
        <ele>1355.3</ele>
        <time>2026-05-28T11:20:36.000Z</time>
      </trkpt>
      <trkpt lat="44.03667" lon="3.50409">
        <ele>1355.2</ele>
        <time>2026-05-28T11:20:37.000Z</time>
      </trkpt>
      <trkpt lat="44.03668" lon="3.5041">
        <ele>1355.1</ele>
        <time>2026-05-28T11:20:38.000Z</time>
      </trkpt>
      <trkpt lat="44.03668" lon="3.50411">
        <ele>1355</ele>
        <time>2026-05-28T11:20:39.000Z</time>
      </trkpt>
      <trkpt lat="44.03668" lon="3.50412">
        <ele>1355.1</ele>
        <time>2026-05-28T11:20:40.000Z</time>
      </trkpt>
      <trkpt lat="44.03668" lon="3.50412">
        <ele>1355.1</ele>
        <time>2026-05-28T11:20:41.000Z</time>
      </trkpt>
      <trkpt lat="44.03668" lon="3.50412">
        <ele>1354.9</ele>
        <time>2026-05-28T11:20:42.000Z</time>
      </trkpt>
      <trkpt lat="44.03668" lon="3.50411">
        <ele>1355</ele>
        <time>2026-05-28T11:20:43.000Z</time>
      </trkpt>
      <trkpt lat="44.03668" lon="3.50411">
        <ele>1354.5</ele>
        <time>2026-05-28T11:20:44.000Z</time>
      </trkpt>
      <trkpt lat="44.03669" lon="3.50412">
        <ele>1354.5</ele>
        <time>2026-05-28T11:20:45.000Z</time>
      </trkpt>
      <trkpt lat="44.0367" lon="3.50412">
        <ele>1354.6</ele>
        <time>2026-05-28T11:20:46.000Z</time>
      </trkpt>
      <trkpt lat="44.03671" lon="3.50413">
        <ele>1354.5</ele>
        <time>2026-05-28T11:20:47.000Z</time>
      </trkpt>
      <trkpt lat="44.03672" lon="3.50413">
        <ele>1354.4</ele>
        <time>2026-05-28T11:20:48.000Z</time>
      </trkpt>
      <trkpt lat="44.03673" lon="3.50413">
        <ele>1354.2</ele>
        <time>2026-05-28T11:20:49.000Z</time>
      </trkpt>
      <trkpt lat="44.03675" lon="3.50414">
        <ele>1354.3</ele>
        <time>2026-05-28T11:20:50.000Z</time>
      </trkpt>
      <trkpt lat="44.03677" lon="3.50414">
        <ele>1354.2</ele>
        <time>2026-05-28T11:20:51.000Z</time>
      </trkpt>
      <trkpt lat="44.03679" lon="3.50415">
        <ele>1354.4</ele>
        <time>2026-05-28T11:20:52.000Z</time>
      </trkpt>
      <trkpt lat="44.0368" lon="3.50416">
        <ele>1354.7</ele>
        <time>2026-05-28T11:20:53.000Z</time>
      </trkpt>
      <trkpt lat="44.03682" lon="3.50416">
        <ele>1354.2</ele>
        <time>2026-05-28T11:20:54.000Z</time>
      </trkpt>
      <trkpt lat="44.03683" lon="3.50416">
        <ele>1353.5</ele>
        <time>2026-05-28T11:20:55.000Z</time>
      </trkpt>
      <trkpt lat="44.03684" lon="3.50417">
        <ele>1353.2</ele>
        <time>2026-05-28T11:20:56.000Z</time>
      </trkpt>
      <trkpt lat="44.03684" lon="3.50418">
        <ele>1353.1</ele>
        <time>2026-05-28T11:20:57.000Z</time>
      </trkpt>
      <trkpt lat="44.03685" lon="3.50418">
        <ele>1352.7</ele>
        <time>2026-05-28T11:20:58.000Z</time>
      </trkpt>
      <trkpt lat="44.03685" lon="3.50419">
        <ele>1352.7</ele>
        <time>2026-05-28T11:20:59.000Z</time>
      </trkpt>
      <trkpt lat="44.03686" lon="3.5042">
        <ele>1352.6</ele>
        <time>2026-05-28T11:21:00.000Z</time>
      </trkpt>
      <trkpt lat="44.03687" lon="3.5042">
        <ele>1352.8</ele>
        <time>2026-05-28T11:21:01.000Z</time>
      </trkpt>
      <trkpt lat="44.03688" lon="3.50421">
        <ele>1352.5</ele>
        <time>2026-05-28T11:21:02.000Z</time>
      </trkpt>
      <trkpt lat="44.03689" lon="3.50421">
        <ele>1352.1</ele>
        <time>2026-05-28T11:21:03.000Z</time>
      </trkpt>
      <trkpt lat="44.03691" lon="3.50422">
        <ele>1351.7</ele>
        <time>2026-05-28T11:21:04.000Z</time>
      </trkpt>
      <trkpt lat="44.03692" lon="3.50422">
        <ele>1351.3</ele>
        <time>2026-05-28T11:21:05.000Z</time>
      </trkpt>
      <trkpt lat="44.03693" lon="3.50421">
        <ele>1350.8</ele>
        <time>2026-05-28T11:21:06.000Z</time>
      </trkpt>
      <trkpt lat="44.03693" lon="3.50422">
        <ele>1350.7</ele>
        <time>2026-05-28T11:21:07.000Z</time>
      </trkpt>
      <trkpt lat="44.03694" lon="3.50422">
        <ele>1350.6</ele>
        <time>2026-05-28T11:21:08.000Z</time>
      </trkpt>
      <trkpt lat="44.03695" lon="3.50423">
        <ele>1350.6</ele>
        <time>2026-05-28T11:21:09.000Z</time>
      </trkpt>
      <trkpt lat="44.03696" lon="3.50424">
        <ele>1350.3</ele>
        <time>2026-05-28T11:21:10.000Z</time>
      </trkpt>
      <trkpt lat="44.03698" lon="3.50426">
        <ele>1349.9</ele>
        <time>2026-05-28T11:21:11.000Z</time>
      </trkpt>
      <trkpt lat="44.03699" lon="3.50427">
        <ele>1349.6</ele>
        <time>2026-05-28T11:21:12.000Z</time>
      </trkpt>
      <trkpt lat="44.037" lon="3.50428">
        <ele>1349.8</ele>
        <time>2026-05-28T11:21:13.000Z</time>
      </trkpt>
      <trkpt lat="44.03702" lon="3.50429">
        <ele>1349.7</ele>
        <time>2026-05-28T11:21:14.000Z</time>
      </trkpt>
      <trkpt lat="44.03703" lon="3.50431">
        <ele>1349.7</ele>
        <time>2026-05-28T11:21:15.000Z</time>
      </trkpt>
      <trkpt lat="44.03704" lon="3.50432">
        <ele>1349.7</ele>
        <time>2026-05-28T11:21:16.000Z</time>
      </trkpt>
      <trkpt lat="44.03705" lon="3.50433">
        <ele>1349.6</ele>
        <time>2026-05-28T11:21:17.000Z</time>
      </trkpt>
      <trkpt lat="44.03706" lon="3.50434">
        <ele>1349.2</ele>
        <time>2026-05-28T11:21:18.000Z</time>
      </trkpt>
      <trkpt lat="44.03706" lon="3.50436">
        <ele>1348.8</ele>
        <time>2026-05-28T11:21:19.000Z</time>
      </trkpt>
      <trkpt lat="44.03707" lon="3.50438">
        <ele>1348.6</ele>
        <time>2026-05-28T11:21:20.000Z</time>
      </trkpt>
      <trkpt lat="44.03707" lon="3.50439">
        <ele>1348.2</ele>
        <time>2026-05-28T11:21:21.000Z</time>
      </trkpt>
      <trkpt lat="44.03707" lon="3.50441">
        <ele>1347.6</ele>
        <time>2026-05-28T11:21:22.000Z</time>
      </trkpt>
      <trkpt lat="44.03708" lon="3.50443">
        <ele>1347.3</ele>
        <time>2026-05-28T11:21:23.000Z</time>
      </trkpt>
      <trkpt lat="44.03709" lon="3.50445">
        <ele>1347</ele>
        <time>2026-05-28T11:21:24.000Z</time>
      </trkpt>
      <trkpt lat="44.03709" lon="3.50447">
        <ele>1347</ele>
        <time>2026-05-28T11:21:25.000Z</time>
      </trkpt>
      <trkpt lat="44.0371" lon="3.50449">
        <ele>1346.9</ele>
        <time>2026-05-28T11:21:26.000Z</time>
      </trkpt>
      <trkpt lat="44.0371" lon="3.50451">
        <ele>1346.9</ele>
        <time>2026-05-28T11:21:27.000Z</time>
      </trkpt>
      <trkpt lat="44.03711" lon="3.50453">
        <ele>1346.7</ele>
        <time>2026-05-28T11:21:28.000Z</time>
      </trkpt>
      <trkpt lat="44.03711" lon="3.50455">
        <ele>1346.8</ele>
        <time>2026-05-28T11:21:29.000Z</time>
      </trkpt>
      <trkpt lat="44.03711" lon="3.50457">
        <ele>1347</ele>
        <time>2026-05-28T11:21:30.000Z</time>
      </trkpt>
      <trkpt lat="44.03712" lon="3.50459">
        <ele>1347</ele>
        <time>2026-05-28T11:21:31.000Z</time>
      </trkpt>
      <trkpt lat="44.03712" lon="3.5046">
        <ele>1347</ele>
        <time>2026-05-28T11:21:32.000Z</time>
      </trkpt>
      <trkpt lat="44.03713" lon="3.50461">
        <ele>1346.7</ele>
        <time>2026-05-28T11:21:33.000Z</time>
      </trkpt>
      <trkpt lat="44.03713" lon="3.50463">
        <ele>1346.5</ele>
        <time>2026-05-28T11:21:34.000Z</time>
      </trkpt>
      <trkpt lat="44.03713" lon="3.50464">
        <ele>1346</ele>
        <time>2026-05-28T11:21:35.000Z</time>
      </trkpt>
      <trkpt lat="44.03713" lon="3.50465">
        <ele>1345.5</ele>
        <time>2026-05-28T11:21:36.000Z</time>
      </trkpt>
      <trkpt lat="44.03713" lon="3.50467">
        <ele>1345.1</ele>
        <time>2026-05-28T11:21:37.000Z</time>
      </trkpt>
      <trkpt lat="44.03714" lon="3.50468">
        <ele>1344.8</ele>
        <time>2026-05-28T11:21:38.000Z</time>
      </trkpt>
      <trkpt lat="44.03714" lon="3.5047">
        <ele>1344.5</ele>
        <time>2026-05-28T11:21:39.000Z</time>
      </trkpt>
      <trkpt lat="44.03715" lon="3.50472">
        <ele>1344.5</ele>
        <time>2026-05-28T11:21:40.000Z</time>
      </trkpt>
      <trkpt lat="44.03716" lon="3.50473">
        <ele>1344.2</ele>
        <time>2026-05-28T11:21:41.000Z</time>
      </trkpt>
      <trkpt lat="44.03717" lon="3.50473">
        <ele>1344.2</ele>
        <time>2026-05-28T11:21:42.000Z</time>
      </trkpt>
      <trkpt lat="44.03717" lon="3.50474">
        <ele>1344</ele>
        <time>2026-05-28T11:21:43.000Z</time>
      </trkpt>
      <trkpt lat="44.03717" lon="3.50475">
        <ele>1344.1</ele>
        <time>2026-05-28T11:21:44.000Z</time>
      </trkpt>
      <trkpt lat="44.03718" lon="3.50477">
        <ele>1343.8</ele>
        <time>2026-05-28T11:21:45.000Z</time>
      </trkpt>
      <trkpt lat="44.03718" lon="3.50479">
        <ele>1343.7</ele>
        <time>2026-05-28T11:21:46.000Z</time>
      </trkpt>
      <trkpt lat="44.03718" lon="3.5048">
        <ele>1343.6</ele>
        <time>2026-05-28T11:21:47.000Z</time>
      </trkpt>
      <trkpt lat="44.03719" lon="3.50482">
        <ele>1343.6</ele>
        <time>2026-05-28T11:21:48.000Z</time>
      </trkpt>
      <trkpt lat="44.0372" lon="3.50484">
        <ele>1343.4</ele>
        <time>2026-05-28T11:21:49.000Z</time>
      </trkpt>
      <trkpt lat="44.03721" lon="3.50486">
        <ele>1343.2</ele>
        <time>2026-05-28T11:21:50.000Z</time>
      </trkpt>
      <trkpt lat="44.03722" lon="3.50488">
        <ele>1342.9</ele>
        <time>2026-05-28T11:21:51.000Z</time>
      </trkpt>
      <trkpt lat="44.03723" lon="3.50491">
        <ele>1342.8</ele>
        <time>2026-05-28T11:21:52.000Z</time>
      </trkpt>
      <trkpt lat="44.03724" lon="3.50493">
        <ele>1343.1</ele>
        <time>2026-05-28T11:21:53.000Z</time>
      </trkpt>
      <trkpt lat="44.03724" lon="3.50495">
        <ele>1342.8</ele>
        <time>2026-05-28T11:21:54.000Z</time>
      </trkpt>
      <trkpt lat="44.03725" lon="3.50498">
        <ele>1342.8</ele>
        <time>2026-05-28T11:21:55.000Z</time>
      </trkpt>
      <trkpt lat="44.03724" lon="3.505">
        <ele>1342.3</ele>
        <time>2026-05-28T11:21:56.000Z</time>
      </trkpt>
      <trkpt lat="44.03724" lon="3.50502">
        <ele>1341.7</ele>
        <time>2026-05-28T11:21:57.000Z</time>
      </trkpt>
      <trkpt lat="44.03724" lon="3.50504">
        <ele>1340.9</ele>
        <time>2026-05-28T11:21:58.000Z</time>
      </trkpt>
      <trkpt lat="44.03724" lon="3.50507">
        <ele>1340.7</ele>
        <time>2026-05-28T11:21:59.000Z</time>
      </trkpt>
      <trkpt lat="44.03723" lon="3.50509">
        <ele>1340.7</ele>
        <time>2026-05-28T11:22:00.000Z</time>
      </trkpt>
      <trkpt lat="44.03723" lon="3.50511">
        <ele>1340.7</ele>
        <time>2026-05-28T11:22:01.000Z</time>
      </trkpt>
      <trkpt lat="44.03723" lon="3.50513">
        <ele>1340.6</ele>
        <time>2026-05-28T11:22:02.000Z</time>
      </trkpt>
      <trkpt lat="44.03722" lon="3.50515">
        <ele>1340.7</ele>
        <time>2026-05-28T11:22:03.000Z</time>
      </trkpt>
      <trkpt lat="44.03721" lon="3.50518">
        <ele>1340.9</ele>
        <time>2026-05-28T11:22:04.000Z</time>
      </trkpt>
      <trkpt lat="44.0372" lon="3.5052">
        <ele>1340.4</ele>
        <time>2026-05-28T11:22:05.000Z</time>
      </trkpt>
      <trkpt lat="44.0372" lon="3.50522">
        <ele>1340.4</ele>
        <time>2026-05-28T11:22:06.000Z</time>
      </trkpt>
      <trkpt lat="44.03719" lon="3.50522">
        <ele>1340.3</ele>
        <time>2026-05-28T11:22:07.000Z</time>
      </trkpt>
      <trkpt lat="44.03718" lon="3.50522">
        <ele>1340.2</ele>
        <time>2026-05-28T11:22:08.000Z</time>
      </trkpt>
      <trkpt lat="44.03717" lon="3.50523">
        <ele>1340.1</ele>
        <time>2026-05-28T11:22:09.000Z</time>
      </trkpt>
      <trkpt lat="44.03717" lon="3.50523">
        <ele>1340.2</ele>
        <time>2026-05-28T11:22:10.000Z</time>
      </trkpt>
      <trkpt lat="44.03716" lon="3.50525">
        <ele>1340.2</ele>
        <time>2026-05-28T11:22:11.000Z</time>
      </trkpt>
      <trkpt lat="44.03716" lon="3.50527">
        <ele>1340.2</ele>
        <time>2026-05-28T11:22:12.000Z</time>
      </trkpt>
      <trkpt lat="44.03716" lon="3.50529">
        <ele>1340</ele>
        <time>2026-05-28T11:22:13.000Z</time>
      </trkpt>
      <trkpt lat="44.03716" lon="3.50531">
        <ele>1340.3</ele>
        <time>2026-05-28T11:22:14.000Z</time>
      </trkpt>
      <trkpt lat="44.03716" lon="3.50534">
        <ele>1340.3</ele>
        <time>2026-05-28T11:22:15.000Z</time>
      </trkpt>
      <trkpt lat="44.03715" lon="3.50536">
        <ele>1340.5</ele>
        <time>2026-05-28T11:22:16.000Z</time>
      </trkpt>
      <trkpt lat="44.03715" lon="3.50538">
        <ele>1340.9</ele>
        <time>2026-05-28T11:22:17.000Z</time>
      </trkpt>
      <trkpt lat="44.03715" lon="3.50539">
        <ele>1340.8</ele>
        <time>2026-05-28T11:22:18.000Z</time>
      </trkpt>
      <trkpt lat="44.03715" lon="3.50541">
        <ele>1340.8</ele>
        <time>2026-05-28T11:22:19.000Z</time>
      </trkpt>
      <trkpt lat="44.03716" lon="3.50542">
        <ele>1340.4</ele>
        <time>2026-05-28T11:22:20.000Z</time>
      </trkpt>
      <trkpt lat="44.03716" lon="3.50544">
        <ele>1340.3</ele>
        <time>2026-05-28T11:22:21.000Z</time>
      </trkpt>
      <trkpt lat="44.03716" lon="3.50546">
        <ele>1340.5</ele>
        <time>2026-05-28T11:22:22.000Z</time>
      </trkpt>
      <trkpt lat="44.03717" lon="3.50548">
        <ele>1340.4</ele>
        <time>2026-05-28T11:22:23.000Z</time>
      </trkpt>
      <trkpt lat="44.03718" lon="3.50549">
        <ele>1340.4</ele>
        <time>2026-05-28T11:22:24.000Z</time>
      </trkpt>
      <trkpt lat="44.03719" lon="3.50549">
        <ele>1340.1</ele>
        <time>2026-05-28T11:22:25.000Z</time>
      </trkpt>
      <trkpt lat="44.03719" lon="3.5055">
        <ele>1339.6</ele>
        <time>2026-05-28T11:22:26.000Z</time>
      </trkpt>
      <trkpt lat="44.03719" lon="3.50552">
        <ele>1339</ele>
        <time>2026-05-28T11:22:27.000Z</time>
      </trkpt>
      <trkpt lat="44.03719" lon="3.50553">
        <ele>1338.7</ele>
        <time>2026-05-28T11:22:28.000Z</time>
      </trkpt>
      <trkpt lat="44.0372" lon="3.50554">
        <ele>1338</ele>
        <time>2026-05-28T11:22:29.000Z</time>
      </trkpt>
      <trkpt lat="44.0372" lon="3.50555">
        <ele>1337.3</ele>
        <time>2026-05-28T11:22:30.000Z</time>
      </trkpt>
      <trkpt lat="44.03721" lon="3.50557">
        <ele>1336.7</ele>
        <time>2026-05-28T11:22:31.000Z</time>
      </trkpt>
      <trkpt lat="44.03721" lon="3.50559">
        <ele>1335.9</ele>
        <time>2026-05-28T11:22:32.000Z</time>
      </trkpt>
      <trkpt lat="44.03721" lon="3.50561">
        <ele>1335.4</ele>
        <time>2026-05-28T11:22:33.000Z</time>
      </trkpt>
      <trkpt lat="44.03722" lon="3.50563">
        <ele>1335.2</ele>
        <time>2026-05-28T11:22:34.000Z</time>
      </trkpt>
      <trkpt lat="44.03722" lon="3.50564">
        <ele>1335.7</ele>
        <time>2026-05-28T11:22:35.000Z</time>
      </trkpt>
      <trkpt lat="44.03723" lon="3.50566">
        <ele>1336</ele>
        <time>2026-05-28T11:22:36.000Z</time>
      </trkpt>
      <trkpt lat="44.03723" lon="3.50568">
        <ele>1336.3</ele>
        <time>2026-05-28T11:22:37.000Z</time>
      </trkpt>
      <trkpt lat="44.03723" lon="3.5057">
        <ele>1336.4</ele>
        <time>2026-05-28T11:22:38.000Z</time>
      </trkpt>
      <trkpt lat="44.03723" lon="3.50571">
        <ele>1336</ele>
        <time>2026-05-28T11:22:39.000Z</time>
      </trkpt>
      <trkpt lat="44.03722" lon="3.50573">
        <ele>1336.1</ele>
        <time>2026-05-28T11:22:40.000Z</time>
      </trkpt>
      <trkpt lat="44.03723" lon="3.50575">
        <ele>1335.8</ele>
        <time>2026-05-28T11:22:41.000Z</time>
      </trkpt>
      <trkpt lat="44.03723" lon="3.50577">
        <ele>1335.5</ele>
        <time>2026-05-28T11:22:42.000Z</time>
      </trkpt>
      <trkpt lat="44.03724" lon="3.50579">
        <ele>1335.1</ele>
        <time>2026-05-28T11:22:43.000Z</time>
      </trkpt>
      <trkpt lat="44.03725" lon="3.5058">
        <ele>1334.7</ele>
        <time>2026-05-28T11:22:44.000Z</time>
      </trkpt>
      <trkpt lat="44.03725" lon="3.50582">
        <ele>1334</ele>
        <time>2026-05-28T11:22:45.000Z</time>
      </trkpt>
      <trkpt lat="44.03726" lon="3.50584">
        <ele>1333.4</ele>
        <time>2026-05-28T11:22:46.000Z</time>
      </trkpt>
      <trkpt lat="44.03727" lon="3.50585">
        <ele>1332.9</ele>
        <time>2026-05-28T11:22:47.000Z</time>
      </trkpt>
      <trkpt lat="44.03728" lon="3.50587">
        <ele>1332.9</ele>
        <time>2026-05-28T11:22:48.000Z</time>
      </trkpt>
      <trkpt lat="44.03728" lon="3.50588">
        <ele>1333.2</ele>
        <time>2026-05-28T11:22:49.000Z</time>
      </trkpt>
      <trkpt lat="44.03729" lon="3.5059">
        <ele>1333.2</ele>
        <time>2026-05-28T11:22:50.000Z</time>
      </trkpt>
      <trkpt lat="44.03731" lon="3.50591">
        <ele>1333</ele>
        <time>2026-05-28T11:22:51.000Z</time>
      </trkpt>
      <trkpt lat="44.03732" lon="3.50592">
        <ele>1332.9</ele>
        <time>2026-05-28T11:22:52.000Z</time>
      </trkpt>
      <trkpt lat="44.03734" lon="3.50594">
        <ele>1333.2</ele>
        <time>2026-05-28T11:22:53.000Z</time>
      </trkpt>
      <trkpt lat="44.03735" lon="3.50595">
        <ele>1333</ele>
        <time>2026-05-28T11:22:54.000Z</time>
      </trkpt>
      <trkpt lat="44.03735" lon="3.50597">
        <ele>1332.4</ele>
        <time>2026-05-28T11:22:55.000Z</time>
      </trkpt>
      <trkpt lat="44.03737" lon="3.50598">
        <ele>1332.1</ele>
        <time>2026-05-28T11:22:56.000Z</time>
      </trkpt>
      <trkpt lat="44.03738" lon="3.50599">
        <ele>1331.8</ele>
        <time>2026-05-28T11:22:57.000Z</time>
      </trkpt>
      <trkpt lat="44.03738" lon="3.506">
        <ele>1331.5</ele>
        <time>2026-05-28T11:22:58.000Z</time>
      </trkpt>
      <trkpt lat="44.03739" lon="3.506">
        <ele>1331.1</ele>
        <time>2026-05-28T11:22:59.000Z</time>
      </trkpt>
      <trkpt lat="44.0374" lon="3.50601">
        <ele>1329.8</ele>
        <time>2026-05-28T11:23:00.000Z</time>
      </trkpt>
      <trkpt lat="44.03741" lon="3.50602">
        <ele>1328.8</ele>
        <time>2026-05-28T11:23:01.000Z</time>
      </trkpt>
      <trkpt lat="44.03742" lon="3.50603">
        <ele>1328.7</ele>
        <time>2026-05-28T11:23:02.000Z</time>
      </trkpt>
      <trkpt lat="44.03743" lon="3.50605">
        <ele>1328.3</ele>
        <time>2026-05-28T11:23:03.000Z</time>
      </trkpt>
      <trkpt lat="44.03743" lon="3.50606">
        <ele>1327.7</ele>
        <time>2026-05-28T11:23:04.000Z</time>
      </trkpt>
      <trkpt lat="44.03744" lon="3.50608">
        <ele>1327.6</ele>
        <time>2026-05-28T11:23:05.000Z</time>
      </trkpt>
      <trkpt lat="44.03744" lon="3.5061">
        <ele>1327.2</ele>
        <time>2026-05-28T11:23:06.000Z</time>
      </trkpt>
      <trkpt lat="44.03745" lon="3.50612">
        <ele>1326.6</ele>
        <time>2026-05-28T11:23:07.000Z</time>
      </trkpt>
      <trkpt lat="44.03746" lon="3.50613">
        <ele>1326.4</ele>
        <time>2026-05-28T11:23:08.000Z</time>
      </trkpt>
      <trkpt lat="44.03746" lon="3.50614">
        <ele>1326.3</ele>
        <time>2026-05-28T11:23:09.000Z</time>
      </trkpt>
      <trkpt lat="44.03746" lon="3.50616">
        <ele>1326.6</ele>
        <time>2026-05-28T11:23:10.000Z</time>
      </trkpt>
      <trkpt lat="44.03746" lon="3.50617">
        <ele>1326.7</ele>
        <time>2026-05-28T11:23:11.000Z</time>
      </trkpt>
      <trkpt lat="44.03747" lon="3.50618">
        <ele>1326.7</ele>
        <time>2026-05-28T11:23:12.000Z</time>
      </trkpt>
      <trkpt lat="44.03749" lon="3.50619">
        <ele>1326.9</ele>
        <time>2026-05-28T11:23:13.000Z</time>
      </trkpt>
      <trkpt lat="44.0375" lon="3.5062">
        <ele>1327</ele>
        <time>2026-05-28T11:23:14.000Z</time>
      </trkpt>
      <trkpt lat="44.03752" lon="3.50621">
        <ele>1327.3</ele>
        <time>2026-05-28T11:23:15.000Z</time>
      </trkpt>
      <trkpt lat="44.03754" lon="3.50621">
        <ele>1327.4</ele>
        <time>2026-05-28T11:23:16.000Z</time>
      </trkpt>
      <trkpt lat="44.03755" lon="3.50621">
        <ele>1327.5</ele>
        <time>2026-05-28T11:23:17.000Z</time>
      </trkpt>
      <trkpt lat="44.03756" lon="3.50622">
        <ele>1327.7</ele>
        <time>2026-05-28T11:23:18.000Z</time>
      </trkpt>
      <trkpt lat="44.03757" lon="3.50622">
        <ele>1327.9</ele>
        <time>2026-05-28T11:23:19.000Z</time>
      </trkpt>
      <trkpt lat="44.03758" lon="3.50622">
        <ele>1327.9</ele>
        <time>2026-05-28T11:23:20.000Z</time>
      </trkpt>
      <trkpt lat="44.0376" lon="3.50622">
        <ele>1327.9</ele>
        <time>2026-05-28T11:23:21.000Z</time>
      </trkpt>
      <trkpt lat="44.03761" lon="3.50622">
        <ele>1327.6</ele>
        <time>2026-05-28T11:23:22.000Z</time>
      </trkpt>
      <trkpt lat="44.03763" lon="3.50622">
        <ele>1327.5</ele>
        <time>2026-05-28T11:23:23.000Z</time>
      </trkpt>
      <trkpt lat="44.03764" lon="3.50623">
        <ele>1327.4</ele>
        <time>2026-05-28T11:23:24.000Z</time>
      </trkpt>
      <trkpt lat="44.03766" lon="3.50623">
        <ele>1327.4</ele>
        <time>2026-05-28T11:23:25.000Z</time>
      </trkpt>
      <trkpt lat="44.03768" lon="3.50623">
        <ele>1327.6</ele>
        <time>2026-05-28T11:23:26.000Z</time>
      </trkpt>
      <trkpt lat="44.03769" lon="3.50623">
        <ele>1327.8</ele>
        <time>2026-05-28T11:23:27.000Z</time>
      </trkpt>
      <trkpt lat="44.0377" lon="3.50622">
        <ele>1327.8</ele>
        <time>2026-05-28T11:23:28.000Z</time>
      </trkpt>
      <trkpt lat="44.03771" lon="3.50622">
        <ele>1327.5</ele>
        <time>2026-05-28T11:23:29.000Z</time>
      </trkpt>
      <trkpt lat="44.03772" lon="3.50622">
        <ele>1327.1</ele>
        <time>2026-05-28T11:23:30.000Z</time>
      </trkpt>
      <trkpt lat="44.03772" lon="3.50623">
        <ele>1326.9</ele>
        <time>2026-05-28T11:23:31.000Z</time>
      </trkpt>
      <trkpt lat="44.03774" lon="3.50622">
        <ele>1326.7</ele>
        <time>2026-05-28T11:23:32.000Z</time>
      </trkpt>
      <trkpt lat="44.03775" lon="3.50621">
        <ele>1326.5</ele>
        <time>2026-05-28T11:23:33.000Z</time>
      </trkpt>
      <trkpt lat="44.03777" lon="3.50621">
        <ele>1326.4</ele>
        <time>2026-05-28T11:23:34.000Z</time>
      </trkpt>
      <trkpt lat="44.03779" lon="3.5062">
        <ele>1326.4</ele>
        <time>2026-05-28T11:23:35.000Z</time>
      </trkpt>
      <trkpt lat="44.0378" lon="3.5062">
        <ele>1326.4</ele>
        <time>2026-05-28T11:23:36.000Z</time>
      </trkpt>
      <trkpt lat="44.03781" lon="3.5062">
        <ele>1326.4</ele>
        <time>2026-05-28T11:23:37.000Z</time>
      </trkpt>
      <trkpt lat="44.03781" lon="3.5062">
        <ele>1326.2</ele>
        <time>2026-05-28T11:23:38.000Z</time>
      </trkpt>
      <trkpt lat="44.03782" lon="3.5062">
        <ele>1326.2</ele>
        <time>2026-05-28T11:23:39.000Z</time>
      </trkpt>
      <trkpt lat="44.03783" lon="3.5062">
        <ele>1326.2</ele>
        <time>2026-05-28T11:23:40.000Z</time>
      </trkpt>
      <trkpt lat="44.03785" lon="3.50619">
        <ele>1326.5</ele>
        <time>2026-05-28T11:23:41.000Z</time>
      </trkpt>
      <trkpt lat="44.03786" lon="3.50618">
        <ele>1326.5</ele>
        <time>2026-05-28T11:23:42.000Z</time>
      </trkpt>
      <trkpt lat="44.03787" lon="3.50618">
        <ele>1326.5</ele>
        <time>2026-05-28T11:23:43.000Z</time>
      </trkpt>
      <trkpt lat="44.03788" lon="3.50618">
        <ele>1326.7</ele>
        <time>2026-05-28T11:23:44.000Z</time>
      </trkpt>
      <trkpt lat="44.03788" lon="3.50618">
        <ele>1326.8</ele>
        <time>2026-05-28T11:23:45.000Z</time>
      </trkpt>
      <trkpt lat="44.03788" lon="3.50619">
        <ele>1326.8</ele>
        <time>2026-05-28T11:23:46.000Z</time>
      </trkpt>
      <trkpt lat="44.03789" lon="3.5062">
        <ele>1327.1</ele>
        <time>2026-05-28T11:23:47.000Z</time>
      </trkpt>
      <trkpt lat="44.03789" lon="3.5062">
        <ele>1326.7</ele>
        <time>2026-05-28T11:23:48.000Z</time>
      </trkpt>
      <trkpt lat="44.0379" lon="3.5062">
        <ele>1326.3</ele>
        <time>2026-05-28T11:23:49.000Z</time>
      </trkpt>
      <trkpt lat="44.03791" lon="3.50621">
        <ele>1325.9</ele>
        <time>2026-05-28T11:23:50.000Z</time>
      </trkpt>
      <trkpt lat="44.03792" lon="3.50621">
        <ele>1325.5</ele>
        <time>2026-05-28T11:23:51.000Z</time>
      </trkpt>
      <trkpt lat="44.03794" lon="3.50621">
        <ele>1325.1</ele>
        <time>2026-05-28T11:23:52.000Z</time>
      </trkpt>
      <trkpt lat="44.03795" lon="3.50621">
        <ele>1324.9</ele>
        <time>2026-05-28T11:23:53.000Z</time>
      </trkpt>
      <trkpt lat="44.03796" lon="3.50621">
        <ele>1325.1</ele>
        <time>2026-05-28T11:23:54.000Z</time>
      </trkpt>
      <trkpt lat="44.03797" lon="3.50621">
        <ele>1325</ele>
        <time>2026-05-28T11:23:55.000Z</time>
      </trkpt>
      <trkpt lat="44.03798" lon="3.50621">
        <ele>1325</ele>
        <time>2026-05-28T11:23:56.000Z</time>
      </trkpt>
      <trkpt lat="44.03799" lon="3.50622">
        <ele>1324.9</ele>
        <time>2026-05-28T11:23:57.000Z</time>
      </trkpt>
      <trkpt lat="44.03799" lon="3.50622">
        <ele>1324.9</ele>
        <time>2026-05-28T11:23:58.000Z</time>
      </trkpt>
      <trkpt lat="44.038" lon="3.50623">
        <ele>1325</ele>
        <time>2026-05-28T11:23:59.000Z</time>
      </trkpt>
      <trkpt lat="44.03801" lon="3.50624">
        <ele>1325.1</ele>
        <time>2026-05-28T11:24:00.000Z</time>
      </trkpt>
      <trkpt lat="44.03802" lon="3.50625">
        <ele>1325.2</ele>
        <time>2026-05-28T11:24:01.000Z</time>
      </trkpt>
      <trkpt lat="44.03802" lon="3.50626">
        <ele>1325.4</ele>
        <time>2026-05-28T11:24:02.000Z</time>
      </trkpt>
      <trkpt lat="44.03803" lon="3.50627">
        <ele>1325.6</ele>
        <time>2026-05-28T11:24:03.000Z</time>
      </trkpt>
      <trkpt lat="44.03804" lon="3.50628">
        <ele>1325.7</ele>
        <time>2026-05-28T11:24:04.000Z</time>
      </trkpt>
      <trkpt lat="44.03804" lon="3.50629">
        <ele>1326</ele>
        <time>2026-05-28T11:24:05.000Z</time>
      </trkpt>
      <trkpt lat="44.03805" lon="3.50629">
        <ele>1326.2</ele>
        <time>2026-05-28T11:24:06.000Z</time>
      </trkpt>
      <trkpt lat="44.03805" lon="3.5063">
        <ele>1326.1</ele>
        <time>2026-05-28T11:24:07.000Z</time>
      </trkpt>
      <trkpt lat="44.03806" lon="3.50632">
        <ele>1326.2</ele>
        <time>2026-05-28T11:24:08.000Z</time>
      </trkpt>
      <trkpt lat="44.03806" lon="3.50633">
        <ele>1325.9</ele>
        <time>2026-05-28T11:24:09.000Z</time>
      </trkpt>
      <trkpt lat="44.03807" lon="3.50634">
        <ele>1325.9</ele>
        <time>2026-05-28T11:24:10.000Z</time>
      </trkpt>
      <trkpt lat="44.03807" lon="3.50635">
        <ele>1325.9</ele>
        <time>2026-05-28T11:24:11.000Z</time>
      </trkpt>
      <trkpt lat="44.03808" lon="3.50636">
        <ele>1325.9</ele>
        <time>2026-05-28T11:24:12.000Z</time>
      </trkpt>
      <trkpt lat="44.03808" lon="3.50637">
        <ele>1326.2</ele>
        <time>2026-05-28T11:24:13.000Z</time>
      </trkpt>
      <trkpt lat="44.03808" lon="3.50637">
        <ele>1326.1</ele>
        <time>2026-05-28T11:24:14.000Z</time>
      </trkpt>
      <trkpt lat="44.03808" lon="3.50638">
        <ele>1326.1</ele>
        <time>2026-05-28T11:24:15.000Z</time>
      </trkpt>
      <trkpt lat="44.03809" lon="3.50639">
        <ele>1326.1</ele>
        <time>2026-05-28T11:24:16.000Z</time>
      </trkpt>
      <trkpt lat="44.0381" lon="3.5064">
        <ele>1326.4</ele>
        <time>2026-05-28T11:24:17.000Z</time>
      </trkpt>
      <trkpt lat="44.0381" lon="3.50641">
        <ele>1326.1</ele>
        <time>2026-05-28T11:24:18.000Z</time>
      </trkpt>
      <trkpt lat="44.03811" lon="3.50642">
        <ele>1325.9</ele>
        <time>2026-05-28T11:24:19.000Z</time>
      </trkpt>
      <trkpt lat="44.03812" lon="3.50642">
        <ele>1326.1</ele>
        <time>2026-05-28T11:24:20.000Z</time>
      </trkpt>
      <trkpt lat="44.03813" lon="3.50642">
        <ele>1326.2</ele>
        <time>2026-05-28T11:24:21.000Z</time>
      </trkpt>
      <trkpt lat="44.03813" lon="3.50643">
        <ele>1326.4</ele>
        <time>2026-05-28T11:24:22.000Z</time>
      </trkpt>
      <trkpt lat="44.03813" lon="3.50644">
        <ele>1326.6</ele>
        <time>2026-05-28T11:24:23.000Z</time>
      </trkpt>
      <trkpt lat="44.03814" lon="3.50645">
        <ele>1326.6</ele>
        <time>2026-05-28T11:24:24.000Z</time>
      </trkpt>
      <trkpt lat="44.03815" lon="3.50645">
        <ele>1326.6</ele>
        <time>2026-05-28T11:24:25.000Z</time>
      </trkpt>
      <trkpt lat="44.03816" lon="3.50646">
        <ele>1326.7</ele>
        <time>2026-05-28T11:24:26.000Z</time>
      </trkpt>
      <trkpt lat="44.03817" lon="3.50646">
        <ele>1326.5</ele>
        <time>2026-05-28T11:24:27.000Z</time>
      </trkpt>
      <trkpt lat="44.03817" lon="3.50647">
        <ele>1326.6</ele>
        <time>2026-05-28T11:24:28.000Z</time>
      </trkpt>
      <trkpt lat="44.03818" lon="3.50647">
        <ele>1326.4</ele>
        <time>2026-05-28T11:24:29.000Z</time>
      </trkpt>
      <trkpt lat="44.03818" lon="3.50647">
        <ele>1326.4</ele>
        <time>2026-05-28T11:24:30.000Z</time>
      </trkpt>
      <trkpt lat="44.03819" lon="3.50647">
        <ele>1326.4</ele>
        <time>2026-05-28T11:24:31.000Z</time>
      </trkpt>
      <trkpt lat="44.03819" lon="3.50647">
        <ele>1326.2</ele>
        <time>2026-05-28T11:24:32.000Z</time>
      </trkpt>
      <trkpt lat="44.0382" lon="3.50647">
        <ele>1326.1</ele>
        <time>2026-05-28T11:24:33.000Z</time>
      </trkpt>
      <trkpt lat="44.03821" lon="3.50647">
        <ele>1325.9</ele>
        <time>2026-05-28T11:24:34.000Z</time>
      </trkpt>
      <trkpt lat="44.03821" lon="3.50648">
        <ele>1325.9</ele>
        <time>2026-05-28T11:24:35.000Z</time>
      </trkpt>
      <trkpt lat="44.03822" lon="3.50648">
        <ele>1325.7</ele>
        <time>2026-05-28T11:24:36.000Z</time>
      </trkpt>
      <trkpt lat="44.03822" lon="3.50649">
        <ele>1325.9</ele>
        <time>2026-05-28T11:24:37.000Z</time>
      </trkpt>
      <trkpt lat="44.03822" lon="3.50651">
        <ele>1325.8</ele>
        <time>2026-05-28T11:24:38.000Z</time>
      </trkpt>
      <trkpt lat="44.03822" lon="3.50651">
        <ele>1325.8</ele>
        <time>2026-05-28T11:24:39.000Z</time>
      </trkpt>
      <trkpt lat="44.03822" lon="3.50651">
        <ele>1325.5</ele>
        <time>2026-05-28T11:24:40.000Z</time>
      </trkpt>
      <trkpt lat="44.03822" lon="3.50651">
        <ele>1325.5</ele>
        <time>2026-05-28T11:24:41.000Z</time>
      </trkpt>
      <trkpt lat="44.03822" lon="3.50651">
        <ele>1325.5</ele>
        <time>2026-05-28T11:24:42.000Z</time>
      </trkpt>
      <trkpt lat="44.03821" lon="3.50651">
        <ele>1325.7</ele>
        <time>2026-05-28T11:24:43.000Z</time>
      </trkpt>
      <trkpt lat="44.03821" lon="3.50651">
        <ele>1325.7</ele>
        <time>2026-05-28T11:24:44.000Z</time>
      </trkpt>
      <trkpt lat="44.03821" lon="3.50651">
        <ele>1325.7</ele>
        <time>2026-05-28T11:24:45.000Z</time>
      </trkpt>
      <trkpt lat="44.03821" lon="3.50651">
        <ele>1325.4</ele>
        <time>2026-05-28T11:24:46.000Z</time>
      </trkpt>
      <trkpt lat="44.03821" lon="3.50651">
        <ele>1325.3</ele>
        <time>2026-05-28T11:24:47.000Z</time>
      </trkpt>
      <trkpt lat="44.03821" lon="3.50651">
        <ele>1325.3</ele>
        <time>2026-05-28T11:24:48.000Z</time>
      </trkpt>
      <trkpt lat="44.03821" lon="3.50651">
        <ele>1325.4</ele>
        <time>2026-05-28T11:24:49.000Z</time>
      </trkpt>
      <trkpt lat="44.03821" lon="3.50651">
        <ele>1325.6</ele>
        <time>2026-05-28T11:24:50.000Z</time>
      </trkpt>
      <trkpt lat="44.03821" lon="3.50651">
        <ele>1325.7</ele>
        <time>2026-05-28T11:24:51.000Z</time>
      </trkpt>
      <trkpt lat="44.03821" lon="3.50651">
        <ele>1325.5</ele>
        <time>2026-05-28T11:24:52.000Z</time>
      </trkpt>
      <trkpt lat="44.03821" lon="3.50651">
        <ele>1325.5</ele>
        <time>2026-05-28T11:24:53.000Z</time>
      </trkpt>
      <trkpt lat="44.03821" lon="3.5065">
        <ele>1325.5</ele>
        <time>2026-05-28T11:24:54.000Z</time>
      </trkpt>
      <trkpt lat="44.03821" lon="3.5065">
        <ele>1325.3</ele>
        <time>2026-05-28T11:24:55.000Z</time>
      </trkpt>
      <trkpt lat="44.03821" lon="3.5065">
        <ele>1325.2</ele>
        <time>2026-05-28T11:24:56.000Z</time>
      </trkpt>
      <trkpt lat="44.03821" lon="3.5065">
        <ele>1325.1</ele>
        <time>2026-05-28T11:24:57.000Z</time>
      </trkpt>
      <trkpt lat="44.03821" lon="3.5065">
        <ele>1325.1</ele>
        <time>2026-05-28T11:24:58.000Z</time>
      </trkpt>
      <trkpt lat="44.03821" lon="3.5065">
        <ele>1325</ele>
        <time>2026-05-28T11:24:59.000Z</time>
      </trkpt>
      <trkpt lat="44.03821" lon="3.5065">
        <ele>1324.8</ele>
        <time>2026-05-28T11:25:00.000Z</time>
      </trkpt>
      <trkpt lat="44.03821" lon="3.5065">
        <ele>1324.7</ele>
        <time>2026-05-28T11:25:01.000Z</time>
      </trkpt>
      <trkpt lat="44.03821" lon="3.5065">
        <ele>1324.6</ele>
        <time>2026-05-28T11:25:02.000Z</time>
      </trkpt>
      <trkpt lat="44.03821" lon="3.5065">
        <ele>1324.7</ele>
        <time>2026-05-28T11:25:03.000Z</time>
      </trkpt>
      <trkpt lat="44.03821" lon="3.5065">
        <ele>1324.7</ele>
        <time>2026-05-28T11:25:04.000Z</time>
      </trkpt>
      <trkpt lat="44.03821" lon="3.5065">
        <ele>1324.7</ele>
        <time>2026-05-28T11:25:05.000Z</time>
      </trkpt>
      <trkpt lat="44.03821" lon="3.5065">
        <ele>1324.7</ele>
        <time>2026-05-28T11:25:06.000Z</time>
      </trkpt>
      <trkpt lat="44.03821" lon="3.5065">
        <ele>1324.8</ele>
        <time>2026-05-28T11:25:07.000Z</time>
      </trkpt>
      <trkpt lat="44.03821" lon="3.5065">
        <ele>1324.9</ele>
        <time>2026-05-28T11:25:08.000Z</time>
      </trkpt>
      <trkpt lat="44.03821" lon="3.5065">
        <ele>1324.8</ele>
        <time>2026-05-28T11:25:09.000Z</time>
      </trkpt>
      <trkpt lat="44.03821" lon="3.5065">
        <ele>1324.8</ele>
        <time>2026-05-28T11:25:10.000Z</time>
      </trkpt>
      <trkpt lat="44.03821" lon="3.5065">
        <ele>1324.7</ele>
        <time>2026-05-28T11:25:11.000Z</time>
      </trkpt>
      <trkpt lat="44.03821" lon="3.5065">
        <ele>1324.6</ele>
        <time>2026-05-28T11:25:12.000Z</time>
      </trkpt>
      <trkpt lat="44.03821" lon="3.5065">
        <ele>1324.6</ele>
        <time>2026-05-28T11:25:13.000Z</time>
      </trkpt>
      <trkpt lat="44.03821" lon="3.5065">
        <ele>1324.5</ele>
        <time>2026-05-28T11:25:14.000Z</time>
      </trkpt>
      <trkpt lat="44.03821" lon="3.5065">
        <ele>1324.4</ele>
        <time>2026-05-28T11:25:15.000Z</time>
      </trkpt>
      <trkpt lat="44.03821" lon="3.5065">
        <ele>1324.2</ele>
        <time>2026-05-28T11:25:16.000Z</time>
      </trkpt>
      <trkpt lat="44.03821" lon="3.5065">
        <ele>1324.1</ele>
        <time>2026-05-28T11:25:17.000Z</time>
      </trkpt>
      <trkpt lat="44.03821" lon="3.5065">
        <ele>1324.2</ele>
        <time>2026-05-28T11:25:18.000Z</time>
      </trkpt>
      <trkpt lat="44.03821" lon="3.5065">
        <ele>1324.2</ele>
        <time>2026-05-28T11:25:19.000Z</time>
      </trkpt>
      <trkpt lat="44.03821" lon="3.5065">
        <ele>1324.3</ele>
        <time>2026-05-28T11:25:20.000Z</time>
      </trkpt>
      <trkpt lat="44.03821" lon="3.50651">
        <ele>1324.5</ele>
        <time>2026-05-28T11:25:21.000Z</time>
      </trkpt>
      <trkpt lat="44.03822" lon="3.50651">
        <ele>1324.6</ele>
        <time>2026-05-28T11:25:22.000Z</time>
      </trkpt>
      <trkpt lat="44.03823" lon="3.50651">
        <ele>1324.9</ele>
        <time>2026-05-28T11:25:23.000Z</time>
      </trkpt>
      <trkpt lat="44.03823" lon="3.50651">
        <ele>1325</ele>
        <time>2026-05-28T11:25:24.000Z</time>
      </trkpt>
      <trkpt lat="44.03823" lon="3.50651">
        <ele>1325.1</ele>
        <time>2026-05-28T11:25:25.000Z</time>
      </trkpt>
      <trkpt lat="44.03823" lon="3.50651">
        <ele>1325.2</ele>
        <time>2026-05-28T11:25:26.000Z</time>
      </trkpt>
      <trkpt lat="44.03823" lon="3.50651">
        <ele>1325.3</ele>
        <time>2026-05-28T11:25:27.000Z</time>
      </trkpt>
      <trkpt lat="44.03823" lon="3.50651">
        <ele>1325.2</ele>
        <time>2026-05-28T11:25:28.000Z</time>
      </trkpt>
      <trkpt lat="44.03823" lon="3.50651">
        <ele>1325</ele>
        <time>2026-05-28T11:25:29.000Z</time>
      </trkpt>
      <trkpt lat="44.03823" lon="3.50651">
        <ele>1324.9</ele>
        <time>2026-05-28T11:25:30.000Z</time>
      </trkpt>
      <trkpt lat="44.03823" lon="3.50651">
        <ele>1324.8</ele>
        <time>2026-05-28T11:25:31.000Z</time>
      </trkpt>
      <trkpt lat="44.03823" lon="3.50651">
        <ele>1324.7</ele>
        <time>2026-05-28T11:25:32.000Z</time>
      </trkpt>
      <trkpt lat="44.03823" lon="3.50652">
        <ele>1324.8</ele>
        <time>2026-05-28T11:25:33.000Z</time>
      </trkpt>
      <trkpt lat="44.03823" lon="3.50652">
        <ele>1324.7</ele>
        <time>2026-05-28T11:25:34.000Z</time>
      </trkpt>
      <trkpt lat="44.03823" lon="3.50652">
        <ele>1324.6</ele>
        <time>2026-05-28T11:25:35.000Z</time>
      </trkpt>
      <trkpt lat="44.03823" lon="3.50652">
        <ele>1324.4</ele>
        <time>2026-05-28T11:25:36.000Z</time>
      </trkpt>
      <trkpt lat="44.03823" lon="3.50651">
        <ele>1324.2</ele>
        <time>2026-05-28T11:25:37.000Z</time>
      </trkpt>
      <trkpt lat="44.03823" lon="3.50651">
        <ele>1324.1</ele>
        <time>2026-05-28T11:25:38.000Z</time>
      </trkpt>
      <trkpt lat="44.03823" lon="3.50651">
        <ele>1324.1</ele>
        <time>2026-05-28T11:25:39.000Z</time>
      </trkpt>
      <trkpt lat="44.03823" lon="3.50651">
        <ele>1324</ele>
        <time>2026-05-28T11:25:40.000Z</time>
      </trkpt>
      <trkpt lat="44.03823" lon="3.50651">
        <ele>1324</ele>
        <time>2026-05-28T11:25:41.000Z</time>
      </trkpt>
      <trkpt lat="44.03823" lon="3.50651">
        <ele>1324.1</ele>
        <time>2026-05-28T11:25:42.000Z</time>
      </trkpt>
      <trkpt lat="44.03823" lon="3.50651">
        <ele>1324.5</ele>
        <time>2026-05-28T11:25:43.000Z</time>
      </trkpt>
      <trkpt lat="44.03823" lon="3.50651">
        <ele>1324.7</ele>
        <time>2026-05-28T11:25:44.000Z</time>
      </trkpt>
      <trkpt lat="44.03823" lon="3.50651">
        <ele>1325</ele>
        <time>2026-05-28T11:25:45.000Z</time>
      </trkpt>
      <trkpt lat="44.03823" lon="3.50651">
        <ele>1325.2</ele>
        <time>2026-05-28T11:25:46.000Z</time>
      </trkpt>
      <trkpt lat="44.03823" lon="3.50651">
        <ele>1325.3</ele>
        <time>2026-05-28T11:25:47.000Z</time>
      </trkpt>
      <trkpt lat="44.03823" lon="3.50651">
        <ele>1325.6</ele>
        <time>2026-05-28T11:25:48.000Z</time>
      </trkpt>
      <trkpt lat="44.03823" lon="3.50651">
        <ele>1325.7</ele>
        <time>2026-05-28T11:25:49.000Z</time>
      </trkpt>
      <trkpt lat="44.03823" lon="3.50651">
        <ele>1325.7</ele>
        <time>2026-05-28T11:25:50.000Z</time>
      </trkpt>
      <trkpt lat="44.03823" lon="3.50651">
        <ele>1325.7</ele>
        <time>2026-05-28T11:25:51.000Z</time>
      </trkpt>
      <trkpt lat="44.03823" lon="3.50651">
        <ele>1325.9</ele>
        <time>2026-05-28T11:25:52.000Z</time>
      </trkpt>
      <trkpt lat="44.03823" lon="3.50651">
        <ele>1326.1</ele>
        <time>2026-05-28T11:25:53.000Z</time>
      </trkpt>
      <trkpt lat="44.03823" lon="3.50651">
        <ele>1326.2</ele>
        <time>2026-05-28T11:25:54.000Z</time>
      </trkpt>
      <trkpt lat="44.03823" lon="3.50652">
        <ele>1326</ele>
        <time>2026-05-28T11:25:55.000Z</time>
      </trkpt>
      <trkpt lat="44.03823" lon="3.50652">
        <ele>1325.9</ele>
        <time>2026-05-28T11:25:56.000Z</time>
      </trkpt>
      <trkpt lat="44.03823" lon="3.50652">
        <ele>1326.2</ele>
        <time>2026-05-28T11:25:57.000Z</time>
      </trkpt>
      <trkpt lat="44.03824" lon="3.50652">
        <ele>1326.6</ele>
        <time>2026-05-28T11:25:58.000Z</time>
      </trkpt>
      <trkpt lat="44.03824" lon="3.50652">
        <ele>1326.7</ele>
        <time>2026-05-28T11:25:59.000Z</time>
      </trkpt>
      <trkpt lat="44.03824" lon="3.50652">
        <ele>1326.8</ele>
        <time>2026-05-28T11:26:00.000Z</time>
      </trkpt>
      <trkpt lat="44.03824" lon="3.50652">
        <ele>1326.6</ele>
        <time>2026-05-28T11:26:01.000Z</time>
      </trkpt>
      <trkpt lat="44.03824" lon="3.50652">
        <ele>1326.8</ele>
        <time>2026-05-28T11:26:02.000Z</time>
      </trkpt>
      <trkpt lat="44.03824" lon="3.50652">
        <ele>1326.7</ele>
        <time>2026-05-28T11:26:03.000Z</time>
      </trkpt>
      <trkpt lat="44.03824" lon="3.50652">
        <ele>1326.6</ele>
        <time>2026-05-28T11:26:04.000Z</time>
      </trkpt>
      <trkpt lat="44.03824" lon="3.50652">
        <ele>1326.7</ele>
        <time>2026-05-28T11:26:05.000Z</time>
      </trkpt>
      <trkpt lat="44.03824" lon="3.50652">
        <ele>1326.5</ele>
        <time>2026-05-28T11:26:06.000Z</time>
      </trkpt>
      <trkpt lat="44.03824" lon="3.50652">
        <ele>1326.3</ele>
        <time>2026-05-28T11:26:07.000Z</time>
      </trkpt>
      <trkpt lat="44.03824" lon="3.50652">
        <ele>1326</ele>
        <time>2026-05-28T11:26:08.000Z</time>
      </trkpt>
      <trkpt lat="44.03824" lon="3.50652">
        <ele>1325.7</ele>
        <time>2026-05-28T11:26:09.000Z</time>
      </trkpt>
      <trkpt lat="44.03824" lon="3.50652">
        <ele>1325.4</ele>
        <time>2026-05-28T11:26:10.000Z</time>
      </trkpt>
      <trkpt lat="44.03824" lon="3.50652">
        <ele>1325.1</ele>
        <time>2026-05-28T11:26:11.000Z</time>
      </trkpt>
      <trkpt lat="44.03825" lon="3.50652">
        <ele>1325.1</ele>
        <time>2026-05-28T11:26:12.000Z</time>
      </trkpt>
      <trkpt lat="44.03826" lon="3.50652">
        <ele>1324.9</ele>
        <time>2026-05-28T11:26:13.000Z</time>
      </trkpt>
      <trkpt lat="44.03826" lon="3.50652">
        <ele>1324.9</ele>
        <time>2026-05-28T11:26:14.000Z</time>
      </trkpt>
      <trkpt lat="44.03826" lon="3.50652">
        <ele>1324.9</ele>
        <time>2026-05-28T11:26:15.000Z</time>
      </trkpt>
      <trkpt lat="44.03826" lon="3.50652">
        <ele>1325</ele>
        <time>2026-05-28T11:26:16.000Z</time>
      </trkpt>
      <trkpt lat="44.03826" lon="3.50652">
        <ele>1325.2</ele>
        <time>2026-05-28T11:26:17.000Z</time>
      </trkpt>
      <trkpt lat="44.03826" lon="3.50652">
        <ele>1325.3</ele>
        <time>2026-05-28T11:26:18.000Z</time>
      </trkpt>
      <trkpt lat="44.03826" lon="3.50652">
        <ele>1325.2</ele>
        <time>2026-05-28T11:26:19.000Z</time>
      </trkpt>
      <trkpt lat="44.03826" lon="3.50652">
        <ele>1325.1</ele>
        <time>2026-05-28T11:26:20.000Z</time>
      </trkpt>
      <trkpt lat="44.03826" lon="3.50653">
        <ele>1325.1</ele>
        <time>2026-05-28T11:26:21.000Z</time>
      </trkpt>
      <trkpt lat="44.03826" lon="3.50652">
        <ele>1325</ele>
        <time>2026-05-28T11:26:22.000Z</time>
      </trkpt>
      <trkpt lat="44.03826" lon="3.50652">
        <ele>1324.8</ele>
        <time>2026-05-28T11:26:23.000Z</time>
      </trkpt>
      <trkpt lat="44.03826" lon="3.50652">
        <ele>1324.8</ele>
        <time>2026-05-28T11:26:24.000Z</time>
      </trkpt>
      <trkpt lat="44.03826" lon="3.50652">
        <ele>1324.9</ele>
        <time>2026-05-28T11:26:25.000Z</time>
      </trkpt>
      <trkpt lat="44.03827" lon="3.50651">
        <ele>1324.9</ele>
        <time>2026-05-28T11:26:26.000Z</time>
      </trkpt>
      <trkpt lat="44.03827" lon="3.50651">
        <ele>1324.7</ele>
        <time>2026-05-28T11:26:27.000Z</time>
      </trkpt>
      <trkpt lat="44.03827" lon="3.50651">
        <ele>1324.5</ele>
        <time>2026-05-28T11:26:28.000Z</time>
      </trkpt>
      <trkpt lat="44.03827" lon="3.50651">
        <ele>1324.2</ele>
        <time>2026-05-28T11:26:29.000Z</time>
      </trkpt>
      <trkpt lat="44.03828" lon="3.5065">
        <ele>1323.9</ele>
        <time>2026-05-28T11:26:30.000Z</time>
      </trkpt>
      <trkpt lat="44.0383" lon="3.50649">
        <ele>1323.8</ele>
        <time>2026-05-28T11:26:31.000Z</time>
      </trkpt>
      <trkpt lat="44.03831" lon="3.50649">
        <ele>1323.8</ele>
        <time>2026-05-28T11:26:32.000Z</time>
      </trkpt>
      <trkpt lat="44.03831" lon="3.50649">
        <ele>1323.7</ele>
        <time>2026-05-28T11:26:33.000Z</time>
      </trkpt>
      <trkpt lat="44.03832" lon="3.50649">
        <ele>1323.7</ele>
        <time>2026-05-28T11:26:34.000Z</time>
      </trkpt>
      <trkpt lat="44.03832" lon="3.50649">
        <ele>1323.8</ele>
        <time>2026-05-28T11:26:35.000Z</time>
      </trkpt>
      <trkpt lat="44.03833" lon="3.50649">
        <ele>1323.6</ele>
        <time>2026-05-28T11:26:36.000Z</time>
      </trkpt>
      <trkpt lat="44.03833" lon="3.50649">
        <ele>1323.4</ele>
        <time>2026-05-28T11:26:37.000Z</time>
      </trkpt>
      <trkpt lat="44.03834" lon="3.50649">
        <ele>1323.4</ele>
        <time>2026-05-28T11:26:38.000Z</time>
      </trkpt>
      <trkpt lat="44.03835" lon="3.50648">
        <ele>1323.3</ele>
        <time>2026-05-28T11:26:39.000Z</time>
      </trkpt>
      <trkpt lat="44.03835" lon="3.50647">
        <ele>1323.2</ele>
        <time>2026-05-28T11:26:40.000Z</time>
      </trkpt>
      <trkpt lat="44.03836" lon="3.50646">
        <ele>1323</ele>
        <time>2026-05-28T11:26:41.000Z</time>
      </trkpt>
      <trkpt lat="44.03836" lon="3.50646">
        <ele>1323.1</ele>
        <time>2026-05-28T11:26:42.000Z</time>
      </trkpt>
      <trkpt lat="44.03837" lon="3.50645">
        <ele>1323.2</ele>
        <time>2026-05-28T11:26:43.000Z</time>
      </trkpt>
      <trkpt lat="44.03838" lon="3.50644">
        <ele>1323.2</ele>
        <time>2026-05-28T11:26:44.000Z</time>
      </trkpt>
      <trkpt lat="44.03838" lon="3.50644">
        <ele>1323.3</ele>
        <time>2026-05-28T11:26:45.000Z</time>
      </trkpt>
      <trkpt lat="44.03839" lon="3.50644">
        <ele>1323.3</ele>
        <time>2026-05-28T11:26:46.000Z</time>
      </trkpt>
      <trkpt lat="44.03839" lon="3.50644">
        <ele>1323.1</ele>
        <time>2026-05-28T11:26:47.000Z</time>
      </trkpt>
      <trkpt lat="44.0384" lon="3.50643">
        <ele>1323</ele>
        <time>2026-05-28T11:26:48.000Z</time>
      </trkpt>
      <trkpt lat="44.0384" lon="3.50644">
        <ele>1322.7</ele>
        <time>2026-05-28T11:26:49.000Z</time>
      </trkpt>
      <trkpt lat="44.0384" lon="3.50644">
        <ele>1322.7</ele>
        <time>2026-05-28T11:26:50.000Z</time>
      </trkpt>
      <trkpt lat="44.03841" lon="3.50645">
        <ele>1322.6</ele>
        <time>2026-05-28T11:26:51.000Z</time>
      </trkpt>
      <trkpt lat="44.03841" lon="3.50645">
        <ele>1322.3</ele>
        <time>2026-05-28T11:26:52.000Z</time>
      </trkpt>
      <trkpt lat="44.03842" lon="3.50645">
        <ele>1322.1</ele>
        <time>2026-05-28T11:26:53.000Z</time>
      </trkpt>
      <trkpt lat="44.03843" lon="3.50645">
        <ele>1321.8</ele>
        <time>2026-05-28T11:26:54.000Z</time>
      </trkpt>
      <trkpt lat="44.03844" lon="3.50645">
        <ele>1321.6</ele>
        <time>2026-05-28T11:26:55.000Z</time>
      </trkpt>
      <trkpt lat="44.03844" lon="3.50645">
        <ele>1321.6</ele>
        <time>2026-05-28T11:26:56.000Z</time>
      </trkpt>
      <trkpt lat="44.03845" lon="3.50644">
        <ele>1321.6</ele>
        <time>2026-05-28T11:26:57.000Z</time>
      </trkpt>
      <trkpt lat="44.03845" lon="3.50643">
        <ele>1321.4</ele>
        <time>2026-05-28T11:26:58.000Z</time>
      </trkpt>
      <trkpt lat="44.03846" lon="3.50643">
        <ele>1321.2</ele>
        <time>2026-05-28T11:26:59.000Z</time>
      </trkpt>
      <trkpt lat="44.03846" lon="3.50642">
        <ele>1321.1</ele>
        <time>2026-05-28T11:27:00.000Z</time>
      </trkpt>
      <trkpt lat="44.03846" lon="3.50642">
        <ele>1321.1</ele>
        <time>2026-05-28T11:27:01.000Z</time>
      </trkpt>
      <trkpt lat="44.03847" lon="3.50642">
        <ele>1321.1</ele>
        <time>2026-05-28T11:27:02.000Z</time>
      </trkpt>
      <trkpt lat="44.03848" lon="3.50642">
        <ele>1320.8</ele>
        <time>2026-05-28T11:27:03.000Z</time>
      </trkpt>
      <trkpt lat="44.03849" lon="3.50641">
        <ele>1320.7</ele>
        <time>2026-05-28T11:27:04.000Z</time>
      </trkpt>
      <trkpt lat="44.0385" lon="3.5064">
        <ele>1320.8</ele>
        <time>2026-05-28T11:27:05.000Z</time>
      </trkpt>
      <trkpt lat="44.0385" lon="3.50639">
        <ele>1320.6</ele>
        <time>2026-05-28T11:27:06.000Z</time>
      </trkpt>
      <trkpt lat="44.03851" lon="3.50639">
        <ele>1320.6</ele>
        <time>2026-05-28T11:27:07.000Z</time>
      </trkpt>
      <trkpt lat="44.03851" lon="3.50639">
        <ele>1320.5</ele>
        <time>2026-05-28T11:27:08.000Z</time>
      </trkpt>
      <trkpt lat="44.03851" lon="3.50639">
        <ele>1320.4</ele>
        <time>2026-05-28T11:27:09.000Z</time>
      </trkpt>
      <trkpt lat="44.03852" lon="3.50639">
        <ele>1320.2</ele>
        <time>2026-05-28T11:27:10.000Z</time>
      </trkpt>
      <trkpt lat="44.03852" lon="3.50639">
        <ele>1320</ele>
        <time>2026-05-28T11:27:11.000Z</time>
      </trkpt>
      <trkpt lat="44.03852" lon="3.50638">
        <ele>1319.8</ele>
        <time>2026-05-28T11:27:12.000Z</time>
      </trkpt>
      <trkpt lat="44.03852" lon="3.50637">
        <ele>1319.4</ele>
        <time>2026-05-28T11:27:13.000Z</time>
      </trkpt>
      <trkpt lat="44.03853" lon="3.50635">
        <ele>1319.2</ele>
        <time>2026-05-28T11:27:14.000Z</time>
      </trkpt>
      <trkpt lat="44.03854" lon="3.50635">
        <ele>1319.1</ele>
        <time>2026-05-28T11:27:15.000Z</time>
      </trkpt>
      <trkpt lat="44.03856" lon="3.50636">
        <ele>1319</ele>
        <time>2026-05-28T11:27:16.000Z</time>
      </trkpt>
      <trkpt lat="44.03857" lon="3.50636">
        <ele>1318.9</ele>
        <time>2026-05-28T11:27:17.000Z</time>
      </trkpt>
      <trkpt lat="44.03858" lon="3.50635">
        <ele>1318.5</ele>
        <time>2026-05-28T11:27:18.000Z</time>
      </trkpt>
      <trkpt lat="44.03859" lon="3.50635">
        <ele>1317.8</ele>
        <time>2026-05-28T11:27:19.000Z</time>
      </trkpt>
      <trkpt lat="44.0386" lon="3.50636">
        <ele>1317.3</ele>
        <time>2026-05-28T11:27:20.000Z</time>
      </trkpt>
      <trkpt lat="44.03861" lon="3.50636">
        <ele>1317</ele>
        <time>2026-05-28T11:27:21.000Z</time>
      </trkpt>
      <trkpt lat="44.03862" lon="3.50636">
        <ele>1316.5</ele>
        <time>2026-05-28T11:27:22.000Z</time>
      </trkpt>
      <trkpt lat="44.03863" lon="3.50637">
        <ele>1316.2</ele>
        <time>2026-05-28T11:27:23.000Z</time>
      </trkpt>
      <trkpt lat="44.03863" lon="3.50637">
        <ele>1316.1</ele>
        <time>2026-05-28T11:27:24.000Z</time>
      </trkpt>
      <trkpt lat="44.03865" lon="3.50636">
        <ele>1315.7</ele>
        <time>2026-05-28T11:27:25.000Z</time>
      </trkpt>
      <trkpt lat="44.03866" lon="3.50637">
        <ele>1315.4</ele>
        <time>2026-05-28T11:27:26.000Z</time>
      </trkpt>
      <trkpt lat="44.03867" lon="3.50637">
        <ele>1315.4</ele>
        <time>2026-05-28T11:27:27.000Z</time>
      </trkpt>
      <trkpt lat="44.03867" lon="3.50637">
        <ele>1315.2</ele>
        <time>2026-05-28T11:27:28.000Z</time>
      </trkpt>
      <trkpt lat="44.03868" lon="3.50636">
        <ele>1315.1</ele>
        <time>2026-05-28T11:27:29.000Z</time>
      </trkpt>
      <trkpt lat="44.03869" lon="3.50635">
        <ele>1315.5</ele>
        <time>2026-05-28T11:27:30.000Z</time>
      </trkpt>
      <trkpt lat="44.03869" lon="3.50635">
        <ele>1315.6</ele>
        <time>2026-05-28T11:27:31.000Z</time>
      </trkpt>
      <trkpt lat="44.03868" lon="3.50634">
        <ele>1315.5</ele>
        <time>2026-05-28T11:27:32.000Z</time>
      </trkpt>
      <trkpt lat="44.03868" lon="3.50634">
        <ele>1315.8</ele>
        <time>2026-05-28T11:27:33.000Z</time>
      </trkpt>
      <trkpt lat="44.03868" lon="3.50634">
        <ele>1315.9</ele>
        <time>2026-05-28T11:27:34.000Z</time>
      </trkpt>
      <trkpt lat="44.03868" lon="3.50634">
        <ele>1315.7</ele>
        <time>2026-05-28T11:27:35.000Z</time>
      </trkpt>
      <trkpt lat="44.03869" lon="3.50635">
        <ele>1315.5</ele>
        <time>2026-05-28T11:27:36.000Z</time>
      </trkpt>
      <trkpt lat="44.0387" lon="3.50636">
        <ele>1315.4</ele>
        <time>2026-05-28T11:27:37.000Z</time>
      </trkpt>
      <trkpt lat="44.03872" lon="3.50635">
        <ele>1315.2</ele>
        <time>2026-05-28T11:27:38.000Z</time>
      </trkpt>
      <trkpt lat="44.03873" lon="3.50635">
        <ele>1315.1</ele>
        <time>2026-05-28T11:27:39.000Z</time>
      </trkpt>
      <trkpt lat="44.03873" lon="3.50635">
        <ele>1314.6</ele>
        <time>2026-05-28T11:27:40.000Z</time>
      </trkpt>
      <trkpt lat="44.03874" lon="3.50636">
        <ele>1314.5</ele>
        <time>2026-05-28T11:27:41.000Z</time>
      </trkpt>
      <trkpt lat="44.03875" lon="3.50636">
        <ele>1314.6</ele>
        <time>2026-05-28T11:27:42.000Z</time>
      </trkpt>
      <trkpt lat="44.03877" lon="3.50636">
        <ele>1314.4</ele>
        <time>2026-05-28T11:27:43.000Z</time>
      </trkpt>
      <trkpt lat="44.03878" lon="3.50636">
        <ele>1314.1</ele>
        <time>2026-05-28T11:27:44.000Z</time>
      </trkpt>
      <trkpt lat="44.03878" lon="3.50636">
        <ele>1313.6</ele>
        <time>2026-05-28T11:27:45.000Z</time>
      </trkpt>
      <trkpt lat="44.03879" lon="3.50635">
        <ele>1313.4</ele>
        <time>2026-05-28T11:27:46.000Z</time>
      </trkpt>
      <trkpt lat="44.03881" lon="3.50634">
        <ele>1313</ele>
        <time>2026-05-28T11:27:47.000Z</time>
      </trkpt>
      <trkpt lat="44.03882" lon="3.50633">
        <ele>1313.2</ele>
        <time>2026-05-28T11:27:48.000Z</time>
      </trkpt>
      <trkpt lat="44.03883" lon="3.50633">
        <ele>1312.9</ele>
        <time>2026-05-28T11:27:49.000Z</time>
      </trkpt>
      <trkpt lat="44.03885" lon="3.50632">
        <ele>1312.7</ele>
        <time>2026-05-28T11:27:50.000Z</time>
      </trkpt>
      <trkpt lat="44.03886" lon="3.50632">
        <ele>1312.8</ele>
        <time>2026-05-28T11:27:51.000Z</time>
      </trkpt>
      <trkpt lat="44.03887" lon="3.50632">
        <ele>1312.7</ele>
        <time>2026-05-28T11:27:52.000Z</time>
      </trkpt>
      <trkpt lat="44.03887" lon="3.50631">
        <ele>1312.6</ele>
        <time>2026-05-28T11:27:53.000Z</time>
      </trkpt>
      <trkpt lat="44.03887" lon="3.50631">
        <ele>1312.5</ele>
        <time>2026-05-28T11:27:54.000Z</time>
      </trkpt>
      <trkpt lat="44.03887" lon="3.50631">
        <ele>1312.9</ele>
        <time>2026-05-28T11:27:55.000Z</time>
      </trkpt>
      <trkpt lat="44.03887" lon="3.50631">
        <ele>1312.5</ele>
        <time>2026-05-28T11:27:56.000Z</time>
      </trkpt>
      <trkpt lat="44.03887" lon="3.50631">
        <ele>1312</ele>
        <time>2026-05-28T11:27:57.000Z</time>
      </trkpt>
      <trkpt lat="44.03887" lon="3.50631">
        <ele>1311.8</ele>
        <time>2026-05-28T11:27:58.000Z</time>
      </trkpt>
      <trkpt lat="44.03887" lon="3.5063">
        <ele>1311.7</ele>
        <time>2026-05-28T11:27:59.000Z</time>
      </trkpt>
      <trkpt lat="44.03888" lon="3.50629">
        <ele>1311.7</ele>
        <time>2026-05-28T11:28:00.000Z</time>
      </trkpt>
      <trkpt lat="44.03889" lon="3.50628">
        <ele>1311.4</ele>
        <time>2026-05-28T11:28:01.000Z</time>
      </trkpt>
      <trkpt lat="44.0389" lon="3.50627">
        <ele>1311.4</ele>
        <time>2026-05-28T11:28:02.000Z</time>
      </trkpt>
      <trkpt lat="44.03891" lon="3.50626">
        <ele>1311.6</ele>
        <time>2026-05-28T11:28:03.000Z</time>
      </trkpt>
      <trkpt lat="44.0389" lon="3.50626">
        <ele>1311.9</ele>
        <time>2026-05-28T11:28:04.000Z</time>
      </trkpt>
      <trkpt lat="44.0389" lon="3.50624">
        <ele>1311.7</ele>
        <time>2026-05-28T11:28:05.000Z</time>
      </trkpt>
      <trkpt lat="44.03891" lon="3.50623">
        <ele>1311.6</ele>
        <time>2026-05-28T11:28:06.000Z</time>
      </trkpt>
      <trkpt lat="44.03891" lon="3.50622">
        <ele>1311.3</ele>
        <time>2026-05-28T11:28:07.000Z</time>
      </trkpt>
      <trkpt lat="44.03891" lon="3.50622">
        <ele>1310.8</ele>
        <time>2026-05-28T11:28:08.000Z</time>
      </trkpt>
      <trkpt lat="44.03891" lon="3.50621">
        <ele>1310.8</ele>
        <time>2026-05-28T11:28:09.000Z</time>
      </trkpt>
      <trkpt lat="44.03891" lon="3.50621">
        <ele>1310.8</ele>
        <time>2026-05-28T11:28:10.000Z</time>
      </trkpt>
      <trkpt lat="44.03892" lon="3.50621">
        <ele>1311</ele>
        <time>2026-05-28T11:28:11.000Z</time>
      </trkpt>
      <trkpt lat="44.03892" lon="3.50621">
        <ele>1311.1</ele>
        <time>2026-05-28T11:28:12.000Z</time>
      </trkpt>
      <trkpt lat="44.03893" lon="3.50621">
        <ele>1311.1</ele>
        <time>2026-05-28T11:28:13.000Z</time>
      </trkpt>
      <trkpt lat="44.03894" lon="3.5062">
        <ele>1310.7</ele>
        <time>2026-05-28T11:28:14.000Z</time>
      </trkpt>
      <trkpt lat="44.03894" lon="3.50619">
        <ele>1310.4</ele>
        <time>2026-05-28T11:28:15.000Z</time>
      </trkpt>
      <trkpt lat="44.03895" lon="3.50618">
        <ele>1310.2</ele>
        <time>2026-05-28T11:28:16.000Z</time>
      </trkpt>
      <trkpt lat="44.03895" lon="3.50618">
        <ele>1310.2</ele>
        <time>2026-05-28T11:28:17.000Z</time>
      </trkpt>
      <trkpt lat="44.03896" lon="3.50618">
        <ele>1310.3</ele>
        <time>2026-05-28T11:28:18.000Z</time>
      </trkpt>
      <trkpt lat="44.03895" lon="3.50618">
        <ele>1310.2</ele>
        <time>2026-05-28T11:28:19.000Z</time>
      </trkpt>
      <trkpt lat="44.03895" lon="3.50618">
        <ele>1310.1</ele>
        <time>2026-05-28T11:28:20.000Z</time>
      </trkpt>
      <trkpt lat="44.03895" lon="3.50618">
        <ele>1310</ele>
        <time>2026-05-28T11:28:21.000Z</time>
      </trkpt>
      <trkpt lat="44.03895" lon="3.50618">
        <ele>1310.7</ele>
        <time>2026-05-28T11:28:22.000Z</time>
      </trkpt>
      <trkpt lat="44.03895" lon="3.50618">
        <ele>1310.8</ele>
        <time>2026-05-28T11:28:23.000Z</time>
      </trkpt>
      <trkpt lat="44.03895" lon="3.50618">
        <ele>1310.7</ele>
        <time>2026-05-28T11:28:24.000Z</time>
      </trkpt>
      <trkpt lat="44.03896" lon="3.50618">
        <ele>1310.4</ele>
        <time>2026-05-28T11:28:25.000Z</time>
      </trkpt>
      <trkpt lat="44.03897" lon="3.50617">
        <ele>1310</ele>
        <time>2026-05-28T11:28:26.000Z</time>
      </trkpt>
      <trkpt lat="44.03898" lon="3.50617">
        <ele>1309.7</ele>
        <time>2026-05-28T11:28:27.000Z</time>
      </trkpt>
      <trkpt lat="44.03899" lon="3.50617">
        <ele>1309.7</ele>
        <time>2026-05-28T11:28:28.000Z</time>
      </trkpt>
      <trkpt lat="44.039" lon="3.50617">
        <ele>1309.6</ele>
        <time>2026-05-28T11:28:29.000Z</time>
      </trkpt>
      <trkpt lat="44.039" lon="3.50617">
        <ele>1309.6</ele>
        <time>2026-05-28T11:28:30.000Z</time>
      </trkpt>
      <trkpt lat="44.03901" lon="3.50617">
        <ele>1309.6</ele>
        <time>2026-05-28T11:28:31.000Z</time>
      </trkpt>
      <trkpt lat="44.03903" lon="3.50618">
        <ele>1309.6</ele>
        <time>2026-05-28T11:28:32.000Z</time>
      </trkpt>
      <trkpt lat="44.03904" lon="3.50619">
        <ele>1309.6</ele>
        <time>2026-05-28T11:28:33.000Z</time>
      </trkpt>
      <trkpt lat="44.03905" lon="3.50619">
        <ele>1309.8</ele>
        <time>2026-05-28T11:28:34.000Z</time>
      </trkpt>
      <trkpt lat="44.03906" lon="3.50619">
        <ele>1310.1</ele>
        <time>2026-05-28T11:28:35.000Z</time>
      </trkpt>
      <trkpt lat="44.03907" lon="3.5062">
        <ele>1310.1</ele>
        <time>2026-05-28T11:28:36.000Z</time>
      </trkpt>
      <trkpt lat="44.03908" lon="3.5062">
        <ele>1310.2</ele>
        <time>2026-05-28T11:28:37.000Z</time>
      </trkpt>
      <trkpt lat="44.03909" lon="3.50621">
        <ele>1310.3</ele>
        <time>2026-05-28T11:28:38.000Z</time>
      </trkpt>
      <trkpt lat="44.0391" lon="3.50621">
        <ele>1310.3</ele>
        <time>2026-05-28T11:28:39.000Z</time>
      </trkpt>
      <trkpt lat="44.03911" lon="3.50621">
        <ele>1310.3</ele>
        <time>2026-05-28T11:28:40.000Z</time>
      </trkpt>
      <trkpt lat="44.03912" lon="3.50619">
        <ele>1310.3</ele>
        <time>2026-05-28T11:28:41.000Z</time>
      </trkpt>
      <trkpt lat="44.03914" lon="3.50618">
        <ele>1310.3</ele>
        <time>2026-05-28T11:28:42.000Z</time>
      </trkpt>
      <trkpt lat="44.03914" lon="3.50618">
        <ele>1310.1</ele>
        <time>2026-05-28T11:28:43.000Z</time>
      </trkpt>
      <trkpt lat="44.03915" lon="3.50617">
        <ele>1310.1</ele>
        <time>2026-05-28T11:28:44.000Z</time>
      </trkpt>
      <trkpt lat="44.03917" lon="3.50616">
        <ele>1310</ele>
        <time>2026-05-28T11:28:45.000Z</time>
      </trkpt>
      <trkpt lat="44.03918" lon="3.50615">
        <ele>1309.9</ele>
        <time>2026-05-28T11:28:46.000Z</time>
      </trkpt>
      <trkpt lat="44.03919" lon="3.50614">
        <ele>1309.9</ele>
        <time>2026-05-28T11:28:47.000Z</time>
      </trkpt>
      <trkpt lat="44.0392" lon="3.50614">
        <ele>1309.8</ele>
        <time>2026-05-28T11:28:48.000Z</time>
      </trkpt>
      <trkpt lat="44.03921" lon="3.50613">
        <ele>1309.8</ele>
        <time>2026-05-28T11:28:49.000Z</time>
      </trkpt>
      <trkpt lat="44.03923" lon="3.50613">
        <ele>1309.8</ele>
        <time>2026-05-28T11:28:50.000Z</time>
      </trkpt>
      <trkpt lat="44.03924" lon="3.50612">
        <ele>1309.8</ele>
        <time>2026-05-28T11:28:51.000Z</time>
      </trkpt>
      <trkpt lat="44.03925" lon="3.50611">
        <ele>1309.9</ele>
        <time>2026-05-28T11:28:52.000Z</time>
      </trkpt>
      <trkpt lat="44.03925" lon="3.50611">
        <ele>1309.9</ele>
        <time>2026-05-28T11:28:53.000Z</time>
      </trkpt>
      <trkpt lat="44.03926" lon="3.5061">
        <ele>1310</ele>
        <time>2026-05-28T11:28:54.000Z</time>
      </trkpt>
      <trkpt lat="44.03927" lon="3.5061">
        <ele>1309.8</ele>
        <time>2026-05-28T11:28:55.000Z</time>
      </trkpt>
      <trkpt lat="44.03928" lon="3.50609">
        <ele>1309.8</ele>
        <time>2026-05-28T11:28:56.000Z</time>
      </trkpt>
      <trkpt lat="44.03929" lon="3.50608">
        <ele>1309.9</ele>
        <time>2026-05-28T11:28:57.000Z</time>
      </trkpt>
      <trkpt lat="44.0393" lon="3.50608">
        <ele>1310.1</ele>
        <time>2026-05-28T11:28:58.000Z</time>
      </trkpt>
      <trkpt lat="44.03931" lon="3.50607">
        <ele>1310.2</ele>
        <time>2026-05-28T11:28:59.000Z</time>
      </trkpt>
      <trkpt lat="44.03931" lon="3.50607">
        <ele>1310.5</ele>
        <time>2026-05-28T11:29:00.000Z</time>
      </trkpt>
      <trkpt lat="44.03932" lon="3.50607">
        <ele>1310.4</ele>
        <time>2026-05-28T11:29:01.000Z</time>
      </trkpt>
      <trkpt lat="44.03933" lon="3.50607">
        <ele>1310.5</ele>
        <time>2026-05-28T11:29:02.000Z</time>
      </trkpt>
      <trkpt lat="44.03934" lon="3.50607">
        <ele>1310.6</ele>
        <time>2026-05-28T11:29:03.000Z</time>
      </trkpt>
      <trkpt lat="44.03936" lon="3.50606">
        <ele>1310.9</ele>
        <time>2026-05-28T11:29:04.000Z</time>
      </trkpt>
      <trkpt lat="44.03936" lon="3.50606">
        <ele>1311.1</ele>
        <time>2026-05-28T11:29:05.000Z</time>
      </trkpt>
      <trkpt lat="44.03937" lon="3.50606">
        <ele>1311.5</ele>
        <time>2026-05-28T11:29:06.000Z</time>
      </trkpt>
      <trkpt lat="44.03938" lon="3.50606">
        <ele>1311.7</ele>
        <time>2026-05-28T11:29:07.000Z</time>
      </trkpt>
      <trkpt lat="44.0394" lon="3.50606">
        <ele>1311.9</ele>
        <time>2026-05-28T11:29:08.000Z</time>
      </trkpt>
      <trkpt lat="44.03941" lon="3.50607">
        <ele>1312</ele>
        <time>2026-05-28T11:29:09.000Z</time>
      </trkpt>
      <trkpt lat="44.03942" lon="3.50606">
        <ele>1311.9</ele>
        <time>2026-05-28T11:29:10.000Z</time>
      </trkpt>
      <trkpt lat="44.03943" lon="3.50607">
        <ele>1311.9</ele>
        <time>2026-05-28T11:29:11.000Z</time>
      </trkpt>
      <trkpt lat="44.03944" lon="3.50607">
        <ele>1312</ele>
        <time>2026-05-28T11:29:12.000Z</time>
      </trkpt>
      <trkpt lat="44.03945" lon="3.50607">
        <ele>1312</ele>
        <time>2026-05-28T11:29:13.000Z</time>
      </trkpt>
      <trkpt lat="44.03946" lon="3.50607">
        <ele>1311.9</ele>
        <time>2026-05-28T11:29:14.000Z</time>
      </trkpt>
      <trkpt lat="44.03948" lon="3.50607">
        <ele>1312</ele>
        <time>2026-05-28T11:29:15.000Z</time>
      </trkpt>
      <trkpt lat="44.0395" lon="3.50608">
        <ele>1311.9</ele>
        <time>2026-05-28T11:29:16.000Z</time>
      </trkpt>
      <trkpt lat="44.03951" lon="3.50608">
        <ele>1312.1</ele>
        <time>2026-05-28T11:29:17.000Z</time>
      </trkpt>
      <trkpt lat="44.03952" lon="3.50609">
        <ele>1312.1</ele>
        <time>2026-05-28T11:29:18.000Z</time>
      </trkpt>
      <trkpt lat="44.03954" lon="3.50609">
        <ele>1312.1</ele>
        <time>2026-05-28T11:29:19.000Z</time>
      </trkpt>
      <trkpt lat="44.03955" lon="3.5061">
        <ele>1312.2</ele>
        <time>2026-05-28T11:29:20.000Z</time>
      </trkpt>
      <trkpt lat="44.03956" lon="3.5061">
        <ele>1312</ele>
        <time>2026-05-28T11:29:21.000Z</time>
      </trkpt>
      <trkpt lat="44.03957" lon="3.50611">
        <ele>1312.3</ele>
        <time>2026-05-28T11:29:22.000Z</time>
      </trkpt>
      <trkpt lat="44.03957" lon="3.50611">
        <ele>1312.4</ele>
        <time>2026-05-28T11:29:23.000Z</time>
      </trkpt>
      <trkpt lat="44.03958" lon="3.50612">
        <ele>1312.4</ele>
        <time>2026-05-28T11:29:24.000Z</time>
      </trkpt>
      <trkpt lat="44.03959" lon="3.50614">
        <ele>1312.5</ele>
        <time>2026-05-28T11:29:25.000Z</time>
      </trkpt>
      <trkpt lat="44.03961" lon="3.50615">
        <ele>1312.3</ele>
        <time>2026-05-28T11:29:26.000Z</time>
      </trkpt>
      <trkpt lat="44.03962" lon="3.50616">
        <ele>1312</ele>
        <time>2026-05-28T11:29:27.000Z</time>
      </trkpt>
      <trkpt lat="44.03964" lon="3.50616">
        <ele>1312</ele>
        <time>2026-05-28T11:29:28.000Z</time>
      </trkpt>
      <trkpt lat="44.03964" lon="3.50617">
        <ele>1312</ele>
        <time>2026-05-28T11:29:29.000Z</time>
      </trkpt>
      <trkpt lat="44.03965" lon="3.50619">
        <ele>1312</ele>
        <time>2026-05-28T11:29:30.000Z</time>
      </trkpt>
      <trkpt lat="44.03966" lon="3.5062">
        <ele>1311.9</ele>
        <time>2026-05-28T11:29:31.000Z</time>
      </trkpt>
      <trkpt lat="44.03967" lon="3.50621">
        <ele>1312</ele>
        <time>2026-05-28T11:29:32.000Z</time>
      </trkpt>
      <trkpt lat="44.03968" lon="3.50622">
        <ele>1311.9</ele>
        <time>2026-05-28T11:29:33.000Z</time>
      </trkpt>
      <trkpt lat="44.03969" lon="3.50622">
        <ele>1311.9</ele>
        <time>2026-05-28T11:29:34.000Z</time>
      </trkpt>
      <trkpt lat="44.0397" lon="3.50622">
        <ele>1312.1</ele>
        <time>2026-05-28T11:29:35.000Z</time>
      </trkpt>
      <trkpt lat="44.0397" lon="3.50622">
        <ele>1312.2</ele>
        <time>2026-05-28T11:29:36.000Z</time>
      </trkpt>
      <trkpt lat="44.03972" lon="3.50623">
        <ele>1311.9</ele>
        <time>2026-05-28T11:29:37.000Z</time>
      </trkpt>
      <trkpt lat="44.03973" lon="3.50624">
        <ele>1311.9</ele>
        <time>2026-05-28T11:29:38.000Z</time>
      </trkpt>
      <trkpt lat="44.03974" lon="3.50625">
        <ele>1312.2</ele>
        <time>2026-05-28T11:29:39.000Z</time>
      </trkpt>
      <trkpt lat="44.03975" lon="3.50625">
        <ele>1312.1</ele>
        <time>2026-05-28T11:29:40.000Z</time>
      </trkpt>
      <trkpt lat="44.03976" lon="3.50626">
        <ele>1312.2</ele>
        <time>2026-05-28T11:29:41.000Z</time>
      </trkpt>
      <trkpt lat="44.03977" lon="3.50627">
        <ele>1312.2</ele>
        <time>2026-05-28T11:29:42.000Z</time>
      </trkpt>
      <trkpt lat="44.03978" lon="3.50628">
        <ele>1312.3</ele>
        <time>2026-05-28T11:29:43.000Z</time>
      </trkpt>
      <trkpt lat="44.03979" lon="3.50628">
        <ele>1312.4</ele>
        <time>2026-05-28T11:29:44.000Z</time>
      </trkpt>
      <trkpt lat="44.0398" lon="3.50628">
        <ele>1312.3</ele>
        <time>2026-05-28T11:29:45.000Z</time>
      </trkpt>
      <trkpt lat="44.03981" lon="3.50627">
        <ele>1312.4</ele>
        <time>2026-05-28T11:29:46.000Z</time>
      </trkpt>
      <trkpt lat="44.03981" lon="3.50627">
        <ele>1312.6</ele>
        <time>2026-05-28T11:29:47.000Z</time>
      </trkpt>
      <trkpt lat="44.03982" lon="3.50628">
        <ele>1312.8</ele>
        <time>2026-05-28T11:29:48.000Z</time>
      </trkpt>
      <trkpt lat="44.03983" lon="3.50628">
        <ele>1312.9</ele>
        <time>2026-05-28T11:29:49.000Z</time>
      </trkpt>
      <trkpt lat="44.03985" lon="3.50628">
        <ele>1313.1</ele>
        <time>2026-05-28T11:29:50.000Z</time>
      </trkpt>
      <trkpt lat="44.03986" lon="3.50627">
        <ele>1313.3</ele>
        <time>2026-05-28T11:29:51.000Z</time>
      </trkpt>
      <trkpt lat="44.03987" lon="3.50627">
        <ele>1313.5</ele>
        <time>2026-05-28T11:29:52.000Z</time>
      </trkpt>
      <trkpt lat="44.03988" lon="3.50626">
        <ele>1313.9</ele>
        <time>2026-05-28T11:29:53.000Z</time>
      </trkpt>
      <trkpt lat="44.03988" lon="3.50626">
        <ele>1314.1</ele>
        <time>2026-05-28T11:29:54.000Z</time>
      </trkpt>
      <trkpt lat="44.03988" lon="3.50626">
        <ele>1314.2</ele>
        <time>2026-05-28T11:29:55.000Z</time>
      </trkpt>
      <trkpt lat="44.03988" lon="3.50625">
        <ele>1314.2</ele>
        <time>2026-05-28T11:29:56.000Z</time>
      </trkpt>
      <trkpt lat="44.03989" lon="3.50625">
        <ele>1314.5</ele>
        <time>2026-05-28T11:29:57.000Z</time>
      </trkpt>
      <trkpt lat="44.03989" lon="3.50624">
        <ele>1314.5</ele>
        <time>2026-05-28T11:29:58.000Z</time>
      </trkpt>
      <trkpt lat="44.0399" lon="3.50623">
        <ele>1314.4</ele>
        <time>2026-05-28T11:29:59.000Z</time>
      </trkpt>
      <trkpt lat="44.0399" lon="3.50622">
        <ele>1314.1</ele>
        <time>2026-05-28T11:30:00.000Z</time>
      </trkpt>
      <trkpt lat="44.0399" lon="3.50621">
        <ele>1314.3</ele>
        <time>2026-05-28T11:30:01.000Z</time>
      </trkpt>
      <trkpt lat="44.03991" lon="3.5062">
        <ele>1314.7</ele>
        <time>2026-05-28T11:30:02.000Z</time>
      </trkpt>
      <trkpt lat="44.03991" lon="3.50619">
        <ele>1314.8</ele>
        <time>2026-05-28T11:30:03.000Z</time>
      </trkpt>
      <trkpt lat="44.03992" lon="3.50619">
        <ele>1315</ele>
        <time>2026-05-28T11:30:04.000Z</time>
      </trkpt>
      <trkpt lat="44.03992" lon="3.50618">
        <ele>1314.9</ele>
        <time>2026-05-28T11:30:05.000Z</time>
      </trkpt>
      <trkpt lat="44.03992" lon="3.50616">
        <ele>1314.8</ele>
        <time>2026-05-28T11:30:06.000Z</time>
      </trkpt>
      <trkpt lat="44.03992" lon="3.50615">
        <ele>1314.9</ele>
        <time>2026-05-28T11:30:07.000Z</time>
      </trkpt>
      <trkpt lat="44.03992" lon="3.50614">
        <ele>1314.6</ele>
        <time>2026-05-28T11:30:08.000Z</time>
      </trkpt>
      <trkpt lat="44.03992" lon="3.50613">
        <ele>1314.7</ele>
        <time>2026-05-28T11:30:09.000Z</time>
      </trkpt>
      <trkpt lat="44.03992" lon="3.50612">
        <ele>1314.4</ele>
        <time>2026-05-28T11:30:10.000Z</time>
      </trkpt>
      <trkpt lat="44.03993" lon="3.50611">
        <ele>1314.5</ele>
        <time>2026-05-28T11:30:11.000Z</time>
      </trkpt>
      <trkpt lat="44.03993" lon="3.50609">
        <ele>1314.6</ele>
        <time>2026-05-28T11:30:12.000Z</time>
      </trkpt>
      <trkpt lat="44.03993" lon="3.50607">
        <ele>1314.7</ele>
        <time>2026-05-28T11:30:13.000Z</time>
      </trkpt>
      <trkpt lat="44.03993" lon="3.50607">
        <ele>1314.7</ele>
        <time>2026-05-28T11:30:14.000Z</time>
      </trkpt>
      <trkpt lat="44.03993" lon="3.50606">
        <ele>1314.8</ele>
        <time>2026-05-28T11:30:15.000Z</time>
      </trkpt>
      <trkpt lat="44.03993" lon="3.50604">
        <ele>1314.6</ele>
        <time>2026-05-28T11:30:16.000Z</time>
      </trkpt>
      <trkpt lat="44.03992" lon="3.50603">
        <ele>1314.7</ele>
        <time>2026-05-28T11:30:17.000Z</time>
      </trkpt>
      <trkpt lat="44.03992" lon="3.50602">
        <ele>1314.8</ele>
        <time>2026-05-28T11:30:18.000Z</time>
      </trkpt>
      <trkpt lat="44.03992" lon="3.506">
        <ele>1315.1</ele>
        <time>2026-05-28T11:30:19.000Z</time>
      </trkpt>
      <trkpt lat="44.03992" lon="3.50599">
        <ele>1315.3</ele>
        <time>2026-05-28T11:30:20.000Z</time>
      </trkpt>
      <trkpt lat="44.03992" lon="3.50598">
        <ele>1315.5</ele>
        <time>2026-05-28T11:30:21.000Z</time>
      </trkpt>
      <trkpt lat="44.03991" lon="3.50596">
        <ele>1315.5</ele>
        <time>2026-05-28T11:30:22.000Z</time>
      </trkpt>
      <trkpt lat="44.03991" lon="3.50595">
        <ele>1315.5</ele>
        <time>2026-05-28T11:30:23.000Z</time>
      </trkpt>
      <trkpt lat="44.03991" lon="3.50594">
        <ele>1315.7</ele>
        <time>2026-05-28T11:30:24.000Z</time>
      </trkpt>
      <trkpt lat="44.03991" lon="3.50592">
        <ele>1316</ele>
        <time>2026-05-28T11:30:25.000Z</time>
      </trkpt>
      <trkpt lat="44.0399" lon="3.50591">
        <ele>1315.9</ele>
        <time>2026-05-28T11:30:26.000Z</time>
      </trkpt>
      <trkpt lat="44.03991" lon="3.5059">
        <ele>1315.8</ele>
        <time>2026-05-28T11:30:27.000Z</time>
      </trkpt>
      <trkpt lat="44.0399" lon="3.50589">
        <ele>1315.9</ele>
        <time>2026-05-28T11:30:28.000Z</time>
      </trkpt>
      <trkpt lat="44.0399" lon="3.50587">
        <ele>1315.9</ele>
        <time>2026-05-28T11:30:29.000Z</time>
      </trkpt>
      <trkpt lat="44.0399" lon="3.50586">
        <ele>1316.2</ele>
        <time>2026-05-28T11:30:30.000Z</time>
      </trkpt>
      <trkpt lat="44.0399" lon="3.50584">
        <ele>1316.3</ele>
        <time>2026-05-28T11:30:31.000Z</time>
      </trkpt>
      <trkpt lat="44.03991" lon="3.50583">
        <ele>1316.4</ele>
        <time>2026-05-28T11:30:32.000Z</time>
      </trkpt>
      <trkpt lat="44.03991" lon="3.50582">
        <ele>1316.4</ele>
        <time>2026-05-28T11:30:33.000Z</time>
      </trkpt>
      <trkpt lat="44.03991" lon="3.50581">
        <ele>1316.2</ele>
        <time>2026-05-28T11:30:34.000Z</time>
      </trkpt>
      <trkpt lat="44.03991" lon="3.5058">
        <ele>1316.1</ele>
        <time>2026-05-28T11:30:35.000Z</time>
      </trkpt>
      <trkpt lat="44.03991" lon="3.50579">
        <ele>1316</ele>
        <time>2026-05-28T11:30:36.000Z</time>
      </trkpt>
      <trkpt lat="44.03991" lon="3.50578">
        <ele>1315.8</ele>
        <time>2026-05-28T11:30:37.000Z</time>
      </trkpt>
      <trkpt lat="44.03991" lon="3.50577">
        <ele>1315.8</ele>
        <time>2026-05-28T11:30:38.000Z</time>
      </trkpt>
      <trkpt lat="44.03992" lon="3.50577">
        <ele>1315.8</ele>
        <time>2026-05-28T11:30:39.000Z</time>
      </trkpt>
      <trkpt lat="44.03992" lon="3.50577">
        <ele>1315.9</ele>
        <time>2026-05-28T11:30:40.000Z</time>
      </trkpt>
      <trkpt lat="44.03993" lon="3.50576">
        <ele>1315.8</ele>
        <time>2026-05-28T11:30:41.000Z</time>
      </trkpt>
      <trkpt lat="44.03993" lon="3.50575">
        <ele>1315.8</ele>
        <time>2026-05-28T11:30:42.000Z</time>
      </trkpt>
      <trkpt lat="44.03994" lon="3.50573">
        <ele>1316</ele>
        <time>2026-05-28T11:30:43.000Z</time>
      </trkpt>
      <trkpt lat="44.03995" lon="3.50572">
        <ele>1316.2</ele>
        <time>2026-05-28T11:30:44.000Z</time>
      </trkpt>
      <trkpt lat="44.03995" lon="3.50572">
        <ele>1316.3</ele>
        <time>2026-05-28T11:30:45.000Z</time>
      </trkpt>
      <trkpt lat="44.03996" lon="3.50571">
        <ele>1316.5</ele>
        <time>2026-05-28T11:30:46.000Z</time>
      </trkpt>
      <trkpt lat="44.03996" lon="3.5057">
        <ele>1316.5</ele>
        <time>2026-05-28T11:30:47.000Z</time>
      </trkpt>
      <trkpt lat="44.03997" lon="3.50569">
        <ele>1316.9</ele>
        <time>2026-05-28T11:30:48.000Z</time>
      </trkpt>
      <trkpt lat="44.03997" lon="3.50569">
        <ele>1317</ele>
        <time>2026-05-28T11:30:49.000Z</time>
      </trkpt>
      <trkpt lat="44.03998" lon="3.50568">
        <ele>1317.3</ele>
        <time>2026-05-28T11:30:50.000Z</time>
      </trkpt>
      <trkpt lat="44.03999" lon="3.50568">
        <ele>1317.2</ele>
        <time>2026-05-28T11:30:51.000Z</time>
      </trkpt>
      <trkpt lat="44.03999" lon="3.50568">
        <ele>1317.2</ele>
        <time>2026-05-28T11:30:52.000Z</time>
      </trkpt>
      <trkpt lat="44.04" lon="3.50567">
        <ele>1317.2</ele>
        <time>2026-05-28T11:30:53.000Z</time>
      </trkpt>
      <trkpt lat="44.04001" lon="3.50567">
        <ele>1317</ele>
        <time>2026-05-28T11:30:54.000Z</time>
      </trkpt>
      <trkpt lat="44.04002" lon="3.50565">
        <ele>1316.7</ele>
        <time>2026-05-28T11:30:55.000Z</time>
      </trkpt>
      <trkpt lat="44.04003" lon="3.50565">
        <ele>1316.7</ele>
        <time>2026-05-28T11:30:56.000Z</time>
      </trkpt>
      <trkpt lat="44.04003" lon="3.50564">
        <ele>1316.7</ele>
        <time>2026-05-28T11:30:57.000Z</time>
      </trkpt>
      <trkpt lat="44.04004" lon="3.50563">
        <ele>1316.8</ele>
        <time>2026-05-28T11:30:58.000Z</time>
      </trkpt>
      <trkpt lat="44.04005" lon="3.50562">
        <ele>1316.9</ele>
        <time>2026-05-28T11:30:59.000Z</time>
      </trkpt>
      <trkpt lat="44.04006" lon="3.50562">
        <ele>1316.9</ele>
        <time>2026-05-28T11:31:00.000Z</time>
      </trkpt>
      <trkpt lat="44.04007" lon="3.50561">
        <ele>1317.2</ele>
        <time>2026-05-28T11:31:01.000Z</time>
      </trkpt>
      <trkpt lat="44.04008" lon="3.5056">
        <ele>1317.2</ele>
        <time>2026-05-28T11:31:02.000Z</time>
      </trkpt>
      <trkpt lat="44.04009" lon="3.50559">
        <ele>1317.3</ele>
        <time>2026-05-28T11:31:03.000Z</time>
      </trkpt>
      <trkpt lat="44.0401" lon="3.50558">
        <ele>1317.5</ele>
        <time>2026-05-28T11:31:04.000Z</time>
      </trkpt>
      <trkpt lat="44.0401" lon="3.50557">
        <ele>1317.6</ele>
        <time>2026-05-28T11:31:05.000Z</time>
      </trkpt>
      <trkpt lat="44.04011" lon="3.50557">
        <ele>1317.4</ele>
        <time>2026-05-28T11:31:06.000Z</time>
      </trkpt>
      <trkpt lat="44.04011" lon="3.50557">
        <ele>1317.3</ele>
        <time>2026-05-28T11:31:07.000Z</time>
      </trkpt>
      <trkpt lat="44.04012" lon="3.50556">
        <ele>1317.1</ele>
        <time>2026-05-28T11:31:08.000Z</time>
      </trkpt>
      <trkpt lat="44.04013" lon="3.50555">
        <ele>1317.2</ele>
        <time>2026-05-28T11:31:09.000Z</time>
      </trkpt>
      <trkpt lat="44.04014" lon="3.50553">
        <ele>1317</ele>
        <time>2026-05-28T11:31:10.000Z</time>
      </trkpt>
      <trkpt lat="44.04015" lon="3.50552">
        <ele>1316.9</ele>
        <time>2026-05-28T11:31:11.000Z</time>
      </trkpt>
      <trkpt lat="44.04016" lon="3.50552">
        <ele>1316.8</ele>
        <time>2026-05-28T11:31:12.000Z</time>
      </trkpt>
      <trkpt lat="44.04017" lon="3.50551">
        <ele>1316.8</ele>
        <time>2026-05-28T11:31:13.000Z</time>
      </trkpt>
      <trkpt lat="44.04018" lon="3.5055">
        <ele>1316.9</ele>
        <time>2026-05-28T11:31:14.000Z</time>
      </trkpt>
      <trkpt lat="44.04019" lon="3.50549">
        <ele>1317</ele>
        <time>2026-05-28T11:31:15.000Z</time>
      </trkpt>
      <trkpt lat="44.04019" lon="3.50548">
        <ele>1316.9</ele>
        <time>2026-05-28T11:31:16.000Z</time>
      </trkpt>
      <trkpt lat="44.0402" lon="3.50547">
        <ele>1317</ele>
        <time>2026-05-28T11:31:17.000Z</time>
      </trkpt>
      <trkpt lat="44.04022" lon="3.50546">
        <ele>1317.2</ele>
        <time>2026-05-28T11:31:18.000Z</time>
      </trkpt>
      <trkpt lat="44.04022" lon="3.50545">
        <ele>1317.2</ele>
        <time>2026-05-28T11:31:19.000Z</time>
      </trkpt>
      <trkpt lat="44.04022" lon="3.50544">
        <ele>1317</ele>
        <time>2026-05-28T11:31:20.000Z</time>
      </trkpt>
      <trkpt lat="44.04023" lon="3.50543">
        <ele>1316.8</ele>
        <time>2026-05-28T11:31:21.000Z</time>
      </trkpt>
      <trkpt lat="44.04024" lon="3.50541">
        <ele>1316.4</ele>
        <time>2026-05-28T11:31:22.000Z</time>
      </trkpt>
      <trkpt lat="44.04024" lon="3.50541">
        <ele>1316.3</ele>
        <time>2026-05-28T11:31:23.000Z</time>
      </trkpt>
      <trkpt lat="44.04025" lon="3.5054">
        <ele>1316.1</ele>
        <time>2026-05-28T11:31:24.000Z</time>
      </trkpt>
      <trkpt lat="44.04025" lon="3.5054">
        <ele>1315.9</ele>
        <time>2026-05-28T11:31:25.000Z</time>
      </trkpt>
      <trkpt lat="44.04025" lon="3.50539">
        <ele>1315.6</ele>
        <time>2026-05-28T11:31:26.000Z</time>
      </trkpt>
      <trkpt lat="44.04025" lon="3.50538">
        <ele>1315.4</ele>
        <time>2026-05-28T11:31:27.000Z</time>
      </trkpt>
      <trkpt lat="44.04026" lon="3.50535">
        <ele>1315.3</ele>
        <time>2026-05-28T11:31:28.000Z</time>
      </trkpt>
      <trkpt lat="44.04026" lon="3.50534">
        <ele>1315.3</ele>
        <time>2026-05-28T11:31:29.000Z</time>
      </trkpt>
      <trkpt lat="44.04027" lon="3.50533">
        <ele>1315.2</ele>
        <time>2026-05-28T11:31:30.000Z</time>
      </trkpt>
      <trkpt lat="44.04028" lon="3.50532">
        <ele>1315</ele>
        <time>2026-05-28T11:31:31.000Z</time>
      </trkpt>
      <trkpt lat="44.04029" lon="3.50531">
        <ele>1315</ele>
        <time>2026-05-28T11:31:32.000Z</time>
      </trkpt>
      <trkpt lat="44.04031" lon="3.5053">
        <ele>1315.1</ele>
        <time>2026-05-28T11:31:33.000Z</time>
      </trkpt>
      <trkpt lat="44.04032" lon="3.50529">
        <ele>1315.3</ele>
        <time>2026-05-28T11:31:34.000Z</time>
      </trkpt>
      <trkpt lat="44.04033" lon="3.50527">
        <ele>1315.3</ele>
        <time>2026-05-28T11:31:35.000Z</time>
      </trkpt>
      <trkpt lat="44.04034" lon="3.50526">
        <ele>1315.4</ele>
        <time>2026-05-28T11:31:36.000Z</time>
      </trkpt>
      <trkpt lat="44.04034" lon="3.50525">
        <ele>1315.1</ele>
        <time>2026-05-28T11:31:37.000Z</time>
      </trkpt>
      <trkpt lat="44.04035" lon="3.50525">
        <ele>1314.8</ele>
        <time>2026-05-28T11:31:38.000Z</time>
      </trkpt>
      <trkpt lat="44.04036" lon="3.50524">
        <ele>1314.6</ele>
        <time>2026-05-28T11:31:39.000Z</time>
      </trkpt>
      <trkpt lat="44.04036" lon="3.50523">
        <ele>1314.3</ele>
        <time>2026-05-28T11:31:40.000Z</time>
      </trkpt>
      <trkpt lat="44.04037" lon="3.50521">
        <ele>1314.4</ele>
        <time>2026-05-28T11:31:41.000Z</time>
      </trkpt>
      <trkpt lat="44.04038" lon="3.50519">
        <ele>1314.6</ele>
        <time>2026-05-28T11:31:42.000Z</time>
      </trkpt>
      <trkpt lat="44.04038" lon="3.50517">
        <ele>1314.3</ele>
        <time>2026-05-28T11:31:43.000Z</time>
      </trkpt>
      <trkpt lat="44.04039" lon="3.50516">
        <ele>1314.1</ele>
        <time>2026-05-28T11:31:44.000Z</time>
      </trkpt>
      <trkpt lat="44.04039" lon="3.50516">
        <ele>1313.9</ele>
        <time>2026-05-28T11:31:45.000Z</time>
      </trkpt>
      <trkpt lat="44.04039" lon="3.50515">
        <ele>1313.6</ele>
        <time>2026-05-28T11:31:46.000Z</time>
      </trkpt>
      <trkpt lat="44.04041" lon="3.50515">
        <ele>1313.7</ele>
        <time>2026-05-28T11:31:47.000Z</time>
      </trkpt>
      <trkpt lat="44.04042" lon="3.50514">
        <ele>1313.8</ele>
        <time>2026-05-28T11:31:48.000Z</time>
      </trkpt>
      <trkpt lat="44.04044" lon="3.50513">
        <ele>1314</ele>
        <time>2026-05-28T11:31:49.000Z</time>
      </trkpt>
      <trkpt lat="44.04044" lon="3.50512">
        <ele>1313.9</ele>
        <time>2026-05-28T11:31:50.000Z</time>
      </trkpt>
      <trkpt lat="44.04045" lon="3.50512">
        <ele>1313.7</ele>
        <time>2026-05-28T11:31:51.000Z</time>
      </trkpt>
      <trkpt lat="44.04046" lon="3.50511">
        <ele>1313.9</ele>
        <time>2026-05-28T11:31:52.000Z</time>
      </trkpt>
      <trkpt lat="44.04048" lon="3.5051">
        <ele>1314</ele>
        <time>2026-05-28T11:31:53.000Z</time>
      </trkpt>
      <trkpt lat="44.04048" lon="3.50508">
        <ele>1313.9</ele>
        <time>2026-05-28T11:31:54.000Z</time>
      </trkpt>
      <trkpt lat="44.04049" lon="3.50507">
        <ele>1314.2</ele>
        <time>2026-05-28T11:31:55.000Z</time>
      </trkpt>
      <trkpt lat="44.04049" lon="3.50505">
        <ele>1314</ele>
        <time>2026-05-28T11:31:56.000Z</time>
      </trkpt>
      <trkpt lat="44.0405" lon="3.50504">
        <ele>1313.9</ele>
        <time>2026-05-28T11:31:57.000Z</time>
      </trkpt>
      <trkpt lat="44.04051" lon="3.50503">
        <ele>1313.8</ele>
        <time>2026-05-28T11:31:58.000Z</time>
      </trkpt>
      <trkpt lat="44.04052" lon="3.50502">
        <ele>1313.4</ele>
        <time>2026-05-28T11:31:59.000Z</time>
      </trkpt>
      <trkpt lat="44.04053" lon="3.505">
        <ele>1313.3</ele>
        <time>2026-05-28T11:32:00.000Z</time>
      </trkpt>
      <trkpt lat="44.04055" lon="3.50499">
        <ele>1313.3</ele>
        <time>2026-05-28T11:32:01.000Z</time>
      </trkpt>
      <trkpt lat="44.04056" lon="3.50498">
        <ele>1313.2</ele>
        <time>2026-05-28T11:32:02.000Z</time>
      </trkpt>
      <trkpt lat="44.04057" lon="3.50497">
        <ele>1313.4</ele>
        <time>2026-05-28T11:32:03.000Z</time>
      </trkpt>
      <trkpt lat="44.04058" lon="3.50496">
        <ele>1313.5</ele>
        <time>2026-05-28T11:32:04.000Z</time>
      </trkpt>
      <trkpt lat="44.04059" lon="3.50496">
        <ele>1313.9</ele>
        <time>2026-05-28T11:32:05.000Z</time>
      </trkpt>
      <trkpt lat="44.0406" lon="3.50495">
        <ele>1314</ele>
        <time>2026-05-28T11:32:06.000Z</time>
      </trkpt>
      <trkpt lat="44.04061" lon="3.50494">
        <ele>1314.5</ele>
        <time>2026-05-28T11:32:07.000Z</time>
      </trkpt>
      <trkpt lat="44.04062" lon="3.50494">
        <ele>1314.4</ele>
        <time>2026-05-28T11:32:08.000Z</time>
      </trkpt>
      <trkpt lat="44.04063" lon="3.50493">
        <ele>1314.1</ele>
        <time>2026-05-28T11:32:09.000Z</time>
      </trkpt>
      <trkpt lat="44.04064" lon="3.50492">
        <ele>1314</ele>
        <time>2026-05-28T11:32:10.000Z</time>
      </trkpt>
      <trkpt lat="44.04065" lon="3.50491">
        <ele>1313.7</ele>
        <time>2026-05-28T11:32:11.000Z</time>
      </trkpt>
      <trkpt lat="44.04066" lon="3.5049">
        <ele>1313.8</ele>
        <time>2026-05-28T11:32:12.000Z</time>
      </trkpt>
      <trkpt lat="44.04068" lon="3.5049">
        <ele>1313.7</ele>
        <time>2026-05-28T11:32:13.000Z</time>
      </trkpt>
      <trkpt lat="44.04069" lon="3.50489">
        <ele>1313.7</ele>
        <time>2026-05-28T11:32:14.000Z</time>
      </trkpt>
      <trkpt lat="44.04071" lon="3.50488">
        <ele>1313.8</ele>
        <time>2026-05-28T11:32:15.000Z</time>
      </trkpt>
      <trkpt lat="44.04072" lon="3.50488">
        <ele>1314</ele>
        <time>2026-05-28T11:32:16.000Z</time>
      </trkpt>
      <trkpt lat="44.04073" lon="3.50487">
        <ele>1314.1</ele>
        <time>2026-05-28T11:32:17.000Z</time>
      </trkpt>
      <trkpt lat="44.04075" lon="3.50487">
        <ele>1314.2</ele>
        <time>2026-05-28T11:32:18.999Z</time>
      </trkpt>
      <trkpt lat="44.04076" lon="3.50487">
        <ele>1314.2</ele>
        <time>2026-05-28T11:32:19.999Z</time>
      </trkpt>
      <trkpt lat="44.04077" lon="3.50487">
        <ele>1314.2</ele>
        <time>2026-05-28T11:32:20.999Z</time>
      </trkpt>
      <trkpt lat="44.04078" lon="3.50486">
        <ele>1314.4</ele>
        <time>2026-05-28T11:32:21.999Z</time>
      </trkpt>
      <trkpt lat="44.04079" lon="3.50486">
        <ele>1314.2</ele>
        <time>2026-05-28T11:32:22.999Z</time>
      </trkpt>
      <trkpt lat="44.0408" lon="3.50485">
        <ele>1314.4</ele>
        <time>2026-05-28T11:32:23.999Z</time>
      </trkpt>
      <trkpt lat="44.04081" lon="3.50484">
        <ele>1314.1</ele>
        <time>2026-05-28T11:32:24.999Z</time>
      </trkpt>
      <trkpt lat="44.04081" lon="3.50484">
        <ele>1314</ele>
        <time>2026-05-28T11:32:25.999Z</time>
      </trkpt>
      <trkpt lat="44.04082" lon="3.50483">
        <ele>1314</ele>
        <time>2026-05-28T11:32:26.999Z</time>
      </trkpt>
      <trkpt lat="44.04083" lon="3.50483">
        <ele>1314.1</ele>
        <time>2026-05-28T11:32:27.999Z</time>
      </trkpt>
      <trkpt lat="44.04083" lon="3.50483">
        <ele>1314.4</ele>
        <time>2026-05-28T11:32:28.999Z</time>
      </trkpt>
      <trkpt lat="44.04083" lon="3.50483">
        <ele>1314.1</ele>
        <time>2026-05-28T11:32:29.999Z</time>
      </trkpt>
      <trkpt lat="44.04084" lon="3.50483">
        <ele>1314.6</ele>
        <time>2026-05-28T11:32:30.999Z</time>
      </trkpt>
      <trkpt lat="44.04086" lon="3.50483">
        <ele>1314.8</ele>
        <time>2026-05-28T11:32:31.999Z</time>
      </trkpt>
      <trkpt lat="44.04087" lon="3.50483">
        <ele>1315.2</ele>
        <time>2026-05-28T11:32:32.999Z</time>
      </trkpt>
      <trkpt lat="44.04088" lon="3.50482">
        <ele>1315.4</ele>
        <time>2026-05-28T11:32:33.999Z</time>
      </trkpt>
      <trkpt lat="44.04088" lon="3.50482">
        <ele>1315.7</ele>
        <time>2026-05-28T11:32:34.999Z</time>
      </trkpt>
      <trkpt lat="44.04087" lon="3.50482">
        <ele>1315.9</ele>
        <time>2026-05-28T11:32:35.999Z</time>
      </trkpt>
      <trkpt lat="44.04088" lon="3.50483">
        <ele>1315.9</ele>
        <time>2026-05-28T11:32:36.999Z</time>
      </trkpt>
      <trkpt lat="44.04089" lon="3.50483">
        <ele>1315.8</ele>
        <time>2026-05-28T11:32:37.999Z</time>
      </trkpt>
      <trkpt lat="44.0409" lon="3.50484">
        <ele>1316</ele>
        <time>2026-05-28T11:32:38.999Z</time>
      </trkpt>
      <trkpt lat="44.04091" lon="3.50484">
        <ele>1316</ele>
        <time>2026-05-28T11:32:39.999Z</time>
      </trkpt>
      <trkpt lat="44.04091" lon="3.50484">
        <ele>1316.1</ele>
        <time>2026-05-28T11:32:40.999Z</time>
      </trkpt>
      <trkpt lat="44.04093" lon="3.50484">
        <ele>1316</ele>
        <time>2026-05-28T11:32:41.999Z</time>
      </trkpt>
      <trkpt lat="44.04094" lon="3.50485">
        <ele>1315.9</ele>
        <time>2026-05-28T11:32:42.999Z</time>
      </trkpt>
      <trkpt lat="44.04095" lon="3.50485">
        <ele>1315.9</ele>
        <time>2026-05-28T11:32:43.999Z</time>
      </trkpt>
      <trkpt lat="44.04095" lon="3.50485">
        <ele>1315.9</ele>
        <time>2026-05-28T11:32:44.999Z</time>
      </trkpt>
      <trkpt lat="44.04095" lon="3.50485">
        <ele>1316.2</ele>
        <time>2026-05-28T11:32:45.999Z</time>
      </trkpt>
      <trkpt lat="44.04095" lon="3.50485">
        <ele>1316.3</ele>
        <time>2026-05-28T11:32:46.999Z</time>
      </trkpt>
      <trkpt lat="44.04095" lon="3.50485">
        <ele>1316.3</ele>
        <time>2026-05-28T11:32:47.999Z</time>
      </trkpt>
      <trkpt lat="44.04095" lon="3.50485">
        <ele>1316.3</ele>
        <time>2026-05-28T11:32:48.999Z</time>
      </trkpt>
      <trkpt lat="44.04095" lon="3.50485">
        <ele>1316.4</ele>
        <time>2026-05-28T11:32:49.999Z</time>
      </trkpt>
      <trkpt lat="44.04095" lon="3.50485">
        <ele>1316.5</ele>
        <time>2026-05-28T11:32:50.999Z</time>
      </trkpt>
      <trkpt lat="44.04095" lon="3.50485">
        <ele>1316.5</ele>
        <time>2026-05-28T11:32:51.999Z</time>
      </trkpt>
      <trkpt lat="44.04095" lon="3.50485">
        <ele>1316.6</ele>
        <time>2026-05-28T11:32:52.999Z</time>
      </trkpt>
      <trkpt lat="44.04095" lon="3.50485">
        <ele>1316.5</ele>
        <time>2026-05-28T11:32:53.999Z</time>
      </trkpt>
      <trkpt lat="44.04095" lon="3.50485">
        <ele>1316.3</ele>
        <time>2026-05-28T11:32:54.999Z</time>
      </trkpt>
      <trkpt lat="44.04095" lon="3.50485">
        <ele>1316.6</ele>
        <time>2026-05-28T11:32:55.999Z</time>
      </trkpt>
      <trkpt lat="44.04095" lon="3.50485">
        <ele>1316.6</ele>
        <time>2026-05-28T11:32:56.999Z</time>
      </trkpt>
      <trkpt lat="44.04095" lon="3.50485">
        <ele>1316.5</ele>
        <time>2026-05-28T11:32:57.999Z</time>
      </trkpt>
      <trkpt lat="44.04095" lon="3.50485">
        <ele>1316.2</ele>
        <time>2026-05-28T11:32:58.999Z</time>
      </trkpt>
      <trkpt lat="44.04095" lon="3.50485">
        <ele>1316.2</ele>
        <time>2026-05-28T11:32:59.999Z</time>
      </trkpt>
      <trkpt lat="44.04095" lon="3.50485">
        <ele>1316.4</ele>
        <time>2026-05-28T11:33:00.999Z</time>
      </trkpt>
      <trkpt lat="44.04095" lon="3.50485">
        <ele>1316.6</ele>
        <time>2026-05-28T11:33:01.999Z</time>
      </trkpt>
      <trkpt lat="44.04095" lon="3.50485">
        <ele>1316.6</ele>
        <time>2026-05-28T11:33:02.999Z</time>
      </trkpt>
      <trkpt lat="44.04095" lon="3.50485">
        <ele>1316.6</ele>
        <time>2026-05-28T11:33:03.999Z</time>
      </trkpt>
      <trkpt lat="44.04096" lon="3.50485">
        <ele>1316.8</ele>
        <time>2026-05-28T11:33:04.999Z</time>
      </trkpt>
      <trkpt lat="44.04096" lon="3.50485">
        <ele>1317.1</ele>
        <time>2026-05-28T11:33:05.999Z</time>
      </trkpt>
      <trkpt lat="44.04096" lon="3.50485">
        <ele>1317.2</ele>
        <time>2026-05-28T11:33:06.999Z</time>
      </trkpt>
      <trkpt lat="44.04096" lon="3.50485">
        <ele>1317.3</ele>
        <time>2026-05-28T11:33:07.999Z</time>
      </trkpt>
      <trkpt lat="44.04096" lon="3.50485">
        <ele>1317.2</ele>
        <time>2026-05-28T11:33:08.999Z</time>
      </trkpt>
      <trkpt lat="44.04096" lon="3.50485">
        <ele>1317.1</ele>
        <time>2026-05-28T11:33:09.999Z</time>
      </trkpt>
      <trkpt lat="44.04097" lon="3.50485">
        <ele>1317.1</ele>
        <time>2026-05-28T11:33:10.999Z</time>
      </trkpt>
      <trkpt lat="44.04098" lon="3.50484">
        <ele>1317.1</ele>
        <time>2026-05-28T11:33:11.999Z</time>
      </trkpt>
      <trkpt lat="44.04099" lon="3.50485">
        <ele>1316.8</ele>
        <time>2026-05-28T11:33:12.999Z</time>
      </trkpt>
      <trkpt lat="44.041" lon="3.50485">
        <ele>1316.5</ele>
        <time>2026-05-28T11:33:13.999Z</time>
      </trkpt>
      <trkpt lat="44.041" lon="3.50485">
        <ele>1316.6</ele>
        <time>2026-05-28T11:33:14.999Z</time>
      </trkpt>
      <trkpt lat="44.04102" lon="3.50486">
        <ele>1316.5</ele>
        <time>2026-05-28T11:33:15.999Z</time>
      </trkpt>
      <trkpt lat="44.04101" lon="3.50485">
        <ele>1315.9</ele>
        <time>2026-05-28T11:33:16.999Z</time>
      </trkpt>
      <trkpt lat="44.04101" lon="3.50485">
        <ele>1315.7</ele>
        <time>2026-05-28T11:33:17.999Z</time>
      </trkpt>
      <trkpt lat="44.04101" lon="3.50485">
        <ele>1315.3</ele>
        <time>2026-05-28T11:33:18.999Z</time>
      </trkpt>
      <trkpt lat="44.04102" lon="3.50485">
        <ele>1315.4</ele>
        <time>2026-05-28T11:33:19.999Z</time>
      </trkpt>
      <trkpt lat="44.04103" lon="3.50486">
        <ele>1315.2</ele>
        <time>2026-05-28T11:33:20.999Z</time>
      </trkpt>
      <trkpt lat="44.04103" lon="3.50486">
        <ele>1315.1</ele>
        <time>2026-05-28T11:33:21.999Z</time>
      </trkpt>
      <trkpt lat="44.04104" lon="3.50486">
        <ele>1315.3</ele>
        <time>2026-05-28T11:33:22.999Z</time>
      </trkpt>
      <trkpt lat="44.04105" lon="3.50487">
        <ele>1315.4</ele>
        <time>2026-05-28T11:33:23.999Z</time>
      </trkpt>
      <trkpt lat="44.04105" lon="3.50486">
        <ele>1315.3</ele>
        <time>2026-05-28T11:33:24.999Z</time>
      </trkpt>
      <trkpt lat="44.04107" lon="3.50486">
        <ele>1315.5</ele>
        <time>2026-05-28T11:33:25.999Z</time>
      </trkpt>
      <trkpt lat="44.04108" lon="3.50485">
        <ele>1315.3</ele>
        <time>2026-05-28T11:33:26.999Z</time>
      </trkpt>
      <trkpt lat="44.04109" lon="3.50484">
        <ele>1314.9</ele>
        <time>2026-05-28T11:33:27.999Z</time>
      </trkpt>
      <trkpt lat="44.0411" lon="3.50484">
        <ele>1314.7</ele>
        <time>2026-05-28T11:33:28.999Z</time>
      </trkpt>
      <trkpt lat="44.04111" lon="3.50483">
        <ele>1315.2</ele>
        <time>2026-05-28T11:33:29.999Z</time>
      </trkpt>
      <trkpt lat="44.04112" lon="3.50483">
        <ele>1315.3</ele>
        <time>2026-05-28T11:33:30.999Z</time>
      </trkpt>
      <trkpt lat="44.04114" lon="3.50482">
        <ele>1315.5</ele>
        <time>2026-05-28T11:33:31.999Z</time>
      </trkpt>
      <trkpt lat="44.04115" lon="3.50481">
        <ele>1315.1</ele>
        <time>2026-05-28T11:33:32.999Z</time>
      </trkpt>
      <trkpt lat="44.04115" lon="3.50481">
        <ele>1315.2</ele>
        <time>2026-05-28T11:33:33.999Z</time>
      </trkpt>
      <trkpt lat="44.04116" lon="3.5048">
        <ele>1315.4</ele>
        <time>2026-05-28T11:33:34.999Z</time>
      </trkpt>
      <trkpt lat="44.04117" lon="3.50481">
        <ele>1315.5</ele>
        <time>2026-05-28T11:33:35.999Z</time>
      </trkpt>
      <trkpt lat="44.04118" lon="3.50481">
        <ele>1315.8</ele>
        <time>2026-05-28T11:33:36.999Z</time>
      </trkpt>
      <trkpt lat="44.04119" lon="3.50482">
        <ele>1316.2</ele>
        <time>2026-05-28T11:33:37.999Z</time>
      </trkpt>
      <trkpt lat="44.04121" lon="3.50482">
        <ele>1316</ele>
        <time>2026-05-28T11:33:38.999Z</time>
      </trkpt>
      <trkpt lat="44.04122" lon="3.50484">
        <ele>1315.9</ele>
        <time>2026-05-28T11:33:39.999Z</time>
      </trkpt>
      <trkpt lat="44.04123" lon="3.50485">
        <ele>1315.8</ele>
        <time>2026-05-28T11:33:40.999Z</time>
      </trkpt>
      <trkpt lat="44.04124" lon="3.50486">
        <ele>1316.6</ele>
        <time>2026-05-28T11:33:41.999Z</time>
      </trkpt>
      <trkpt lat="44.04125" lon="3.50488">
        <ele>1317.3</ele>
        <time>2026-05-28T11:33:42.999Z</time>
      </trkpt>
      <trkpt lat="44.04125" lon="3.50489">
        <ele>1317.8</ele>
        <time>2026-05-28T11:33:43.999Z</time>
      </trkpt>
      <trkpt lat="44.04126" lon="3.5049">
        <ele>1318.3</ele>
        <time>2026-05-28T11:33:44.999Z</time>
      </trkpt>
      <trkpt lat="44.04127" lon="3.50491">
        <ele>1318</ele>
        <time>2026-05-28T11:33:45.999Z</time>
      </trkpt>
      <trkpt lat="44.04128" lon="3.50492">
        <ele>1317.7</ele>
        <time>2026-05-28T11:33:46.999Z</time>
      </trkpt>
      <trkpt lat="44.04128" lon="3.50493">
        <ele>1317.3</ele>
        <time>2026-05-28T11:33:47.999Z</time>
      </trkpt>
      <trkpt lat="44.04128" lon="3.50493">
        <ele>1316.6</ele>
        <time>2026-05-28T11:33:48.999Z</time>
      </trkpt>
      <trkpt lat="44.04129" lon="3.50494">
        <ele>1316.3</ele>
        <time>2026-05-28T11:33:49.999Z</time>
      </trkpt>
      <trkpt lat="44.0413" lon="3.50495">
        <ele>1316.2</ele>
        <time>2026-05-28T11:33:50.999Z</time>
      </trkpt>
      <trkpt lat="44.04131" lon="3.50497">
        <ele>1316.4</ele>
        <time>2026-05-28T11:33:51.999Z</time>
      </trkpt>
      <trkpt lat="44.04132" lon="3.50499">
        <ele>1316.8</ele>
        <time>2026-05-28T11:33:52.999Z</time>
      </trkpt>
      <trkpt lat="44.04133" lon="3.50503">
        <ele>1317</ele>
        <time>2026-05-28T11:33:54.999Z</time>
      </trkpt>
      <trkpt lat="44.04132" lon="3.50503">
        <ele>1317</ele>
        <time>2026-05-28T11:33:55.999Z</time>
      </trkpt>
      <trkpt lat="44.04131" lon="3.50503">
        <ele>1317</ele>
        <time>2026-05-28T11:33:56.999Z</time>
      </trkpt>
      <trkpt lat="44.04131" lon="3.50503">
        <ele>1317.1</ele>
        <time>2026-05-28T11:33:57.999Z</time>
      </trkpt>
      <trkpt lat="44.0413" lon="3.50502">
        <ele>1316.2</ele>
        <time>2026-05-28T11:33:58.999Z</time>
      </trkpt>
      <trkpt lat="44.0413" lon="3.505">
        <ele>1316.7</ele>
        <time>2026-05-28T11:33:59.999Z</time>
      </trkpt>
      <trkpt lat="44.0413" lon="3.505">
        <ele>1316.5</ele>
        <time>2026-05-28T11:34:00.999Z</time>
      </trkpt>
      <trkpt lat="44.0413" lon="3.505">
        <ele>1316.2</ele>
        <time>2026-05-28T11:34:01.999Z</time>
      </trkpt>
      <trkpt lat="44.0413" lon="3.505">
        <ele>1316.5</ele>
        <time>2026-05-28T11:34:02.999Z</time>
      </trkpt>
      <trkpt lat="44.04131" lon="3.505">
        <ele>1316.5</ele>
        <time>2026-05-28T11:34:03.999Z</time>
      </trkpt>
      <trkpt lat="44.04131" lon="3.505">
        <ele>1316.2</ele>
        <time>2026-05-28T11:34:04.999Z</time>
      </trkpt>
      <trkpt lat="44.04131" lon="3.505">
        <ele>1315.9</ele>
        <time>2026-05-28T11:34:05.999Z</time>
      </trkpt>
      <trkpt lat="44.04131" lon="3.505">
        <ele>1315.5</ele>
        <time>2026-05-28T11:34:06.999Z</time>
      </trkpt>
      <trkpt lat="44.04132" lon="3.505">
        <ele>1315.5</ele>
        <time>2026-05-28T11:34:07.999Z</time>
      </trkpt>
      <trkpt lat="44.04132" lon="3.50501">
        <ele>1315.6</ele>
        <time>2026-05-28T11:34:08.999Z</time>
      </trkpt>
      <trkpt lat="44.04133" lon="3.50501">
        <ele>1315.7</ele>
        <time>2026-05-28T11:34:09.999Z</time>
      </trkpt>
      <trkpt lat="44.04133" lon="3.50501">
        <ele>1315.8</ele>
        <time>2026-05-28T11:34:10.999Z</time>
      </trkpt>
      <trkpt lat="44.04134" lon="3.50501">
        <ele>1315.6</ele>
        <time>2026-05-28T11:34:11.999Z</time>
      </trkpt>
      <trkpt lat="44.04134" lon="3.505">
        <ele>1315.8</ele>
        <time>2026-05-28T11:34:12.999Z</time>
      </trkpt>
      <trkpt lat="44.04133" lon="3.50499">
        <ele>1316.1</ele>
        <time>2026-05-28T11:34:13.999Z</time>
      </trkpt>
      <trkpt lat="44.04132" lon="3.50498">
        <ele>1316.3</ele>
        <time>2026-05-28T11:34:14.999Z</time>
      </trkpt>
      <trkpt lat="44.04132" lon="3.50497">
        <ele>1316.5</ele>
        <time>2026-05-28T11:34:15.999Z</time>
      </trkpt>
      <trkpt lat="44.04132" lon="3.50497">
        <ele>1317</ele>
        <time>2026-05-28T11:34:16.999Z</time>
      </trkpt>
      <trkpt lat="44.04132" lon="3.50497">
        <ele>1317</ele>
        <time>2026-05-28T11:34:17.999Z</time>
      </trkpt>
      <trkpt lat="44.04132" lon="3.50497">
        <ele>1317.5</ele>
        <time>2026-05-28T11:34:18.999Z</time>
      </trkpt>
      <trkpt lat="44.04132" lon="3.50497">
        <ele>1317</ele>
        <time>2026-05-28T11:34:19.999Z</time>
      </trkpt>
      <trkpt lat="44.04132" lon="3.50497">
        <ele>1317</ele>
        <time>2026-05-28T11:34:20.999Z</time>
      </trkpt>
      <trkpt lat="44.04132" lon="3.50497">
        <ele>1317</ele>
        <time>2026-05-28T11:34:21.999Z</time>
      </trkpt>
      <trkpt lat="44.04132" lon="3.50497">
        <ele>1317.2</ele>
        <time>2026-05-28T11:34:22.999Z</time>
      </trkpt>
      <trkpt lat="44.04132" lon="3.50497">
        <ele>1317.1</ele>
        <time>2026-05-28T11:34:23.999Z</time>
      </trkpt>
      <trkpt lat="44.04132" lon="3.50497">
        <ele>1316.9</ele>
        <time>2026-05-28T11:34:24.999Z</time>
      </trkpt>
      <trkpt lat="44.04132" lon="3.50497">
        <ele>1316.8</ele>
        <time>2026-05-28T11:34:25.999Z</time>
      </trkpt>
      <trkpt lat="44.04132" lon="3.50497">
        <ele>1316.7</ele>
        <time>2026-05-28T11:34:26.999Z</time>
      </trkpt>
      <trkpt lat="44.04132" lon="3.50497">
        <ele>1316.7</ele>
        <time>2026-05-28T11:34:27.999Z</time>
      </trkpt>
      <trkpt lat="44.04132" lon="3.50497">
        <ele>1316.7</ele>
        <time>2026-05-28T11:34:28.999Z</time>
      </trkpt>
      <trkpt lat="44.04132" lon="3.50497">
        <ele>1316.6</ele>
        <time>2026-05-28T11:34:29.999Z</time>
      </trkpt>
      <trkpt lat="44.04132" lon="3.50497">
        <ele>1316.5</ele>
        <time>2026-05-28T11:34:30.999Z</time>
      </trkpt>
      <trkpt lat="44.04132" lon="3.50497">
        <ele>1316.2</ele>
        <time>2026-05-28T11:34:31.999Z</time>
      </trkpt>
      <trkpt lat="44.04132" lon="3.50497">
        <ele>1315.8</ele>
        <time>2026-05-28T11:34:32.999Z</time>
      </trkpt>
      <trkpt lat="44.04132" lon="3.50497">
        <ele>1315.8</ele>
        <time>2026-05-28T11:34:33.999Z</time>
      </trkpt>
      <trkpt lat="44.04132" lon="3.50498">
        <ele>1315.8</ele>
        <time>2026-05-28T11:34:34.999Z</time>
      </trkpt>
      <trkpt lat="44.04132" lon="3.50498">
        <ele>1315.8</ele>
        <time>2026-05-28T11:34:35.999Z</time>
      </trkpt>
      <trkpt lat="44.04132" lon="3.50498">
        <ele>1315.4</ele>
        <time>2026-05-28T11:34:36.999Z</time>
      </trkpt>
      <trkpt lat="44.04132" lon="3.50498">
        <ele>1315.2</ele>
        <time>2026-05-28T11:34:37.999Z</time>
      </trkpt>
      <trkpt lat="44.04132" lon="3.50498">
        <ele>1315.2</ele>
        <time>2026-05-28T11:34:38.999Z</time>
      </trkpt>
      <trkpt lat="44.04133" lon="3.50499">
        <ele>1315.3</ele>
        <time>2026-05-28T11:34:39.999Z</time>
      </trkpt>
      <trkpt lat="44.04133" lon="3.505">
        <ele>1315.4</ele>
        <time>2026-05-28T11:34:40.999Z</time>
      </trkpt>
      <trkpt lat="44.04133" lon="3.50501">
        <ele>1315.4</ele>
        <time>2026-05-28T11:34:41.999Z</time>
      </trkpt>
      <trkpt lat="44.04134" lon="3.50502">
        <ele>1315.5</ele>
        <time>2026-05-28T11:34:42.999Z</time>
      </trkpt>
      <trkpt lat="44.04134" lon="3.50504">
        <ele>1315.3</ele>
        <time>2026-05-28T11:34:43.999Z</time>
      </trkpt>
      <trkpt lat="44.04135" lon="3.50505">
        <ele>1315.4</ele>
        <time>2026-05-28T11:34:44.999Z</time>
      </trkpt>
      <trkpt lat="44.04136" lon="3.50506">
        <ele>1315.7</ele>
        <time>2026-05-28T11:34:45.999Z</time>
      </trkpt>
      <trkpt lat="44.04137" lon="3.50506">
        <ele>1315.7</ele>
        <time>2026-05-28T11:34:46.999Z</time>
      </trkpt>
      <trkpt lat="44.04137" lon="3.50507">
        <ele>1315.8</ele>
        <time>2026-05-28T11:34:47.999Z</time>
      </trkpt>
      <trkpt lat="44.04138" lon="3.50507">
        <ele>1315.9</ele>
        <time>2026-05-28T11:34:48.999Z</time>
      </trkpt>
      <trkpt lat="44.04139" lon="3.50508">
        <ele>1315.7</ele>
        <time>2026-05-28T11:34:49.999Z</time>
      </trkpt>
      <trkpt lat="44.04139" lon="3.50508">
        <ele>1315.4</ele>
        <time>2026-05-28T11:34:50.999Z</time>
      </trkpt>
      <trkpt lat="44.0414" lon="3.50509">
        <ele>1314.9</ele>
        <time>2026-05-28T11:34:51.999Z</time>
      </trkpt>
      <trkpt lat="44.04142" lon="3.5051">
        <ele>1314.9</ele>
        <time>2026-05-28T11:34:52.999Z</time>
      </trkpt>
      <trkpt lat="44.04143" lon="3.50511">
        <ele>1314.9</ele>
        <time>2026-05-28T11:34:53.999Z</time>
      </trkpt>
      <trkpt lat="44.04145" lon="3.50512">
        <ele>1315</ele>
        <time>2026-05-28T11:34:54.999Z</time>
      </trkpt>
      <trkpt lat="44.04147" lon="3.50512">
        <ele>1314.8</ele>
        <time>2026-05-28T11:34:55.999Z</time>
      </trkpt>
      <trkpt lat="44.04148" lon="3.50513">
        <ele>1315.1</ele>
        <time>2026-05-28T11:34:56.999Z</time>
      </trkpt>
      <trkpt lat="44.04149" lon="3.50514">
        <ele>1315.1</ele>
        <time>2026-05-28T11:34:57.999Z</time>
      </trkpt>
      <trkpt lat="44.0415" lon="3.50514">
        <ele>1315.2</ele>
        <time>2026-05-28T11:34:58.999Z</time>
      </trkpt>
      <trkpt lat="44.04151" lon="3.50514">
        <ele>1314.9</ele>
        <time>2026-05-28T11:34:59.999Z</time>
      </trkpt>
      <trkpt lat="44.04152" lon="3.50514">
        <ele>1314.6</ele>
        <time>2026-05-28T11:35:00.999Z</time>
      </trkpt>
      <trkpt lat="44.04152" lon="3.50515">
        <ele>1314.6</ele>
        <time>2026-05-28T11:35:01.999Z</time>
      </trkpt>
      <trkpt lat="44.04153" lon="3.50516">
        <ele>1314.7</ele>
        <time>2026-05-28T11:35:02.999Z</time>
      </trkpt>
      <trkpt lat="44.04154" lon="3.50517">
        <ele>1314.8</ele>
        <time>2026-05-28T11:35:03.999Z</time>
      </trkpt>
      <trkpt lat="44.04155" lon="3.50517">
        <ele>1314.6</ele>
        <time>2026-05-28T11:35:04.999Z</time>
      </trkpt>
      <trkpt lat="44.04156" lon="3.50517">
        <ele>1314.5</ele>
        <time>2026-05-28T11:35:05.999Z</time>
      </trkpt>
      <trkpt lat="44.04156" lon="3.50517">
        <ele>1314.6</ele>
        <time>2026-05-28T11:35:06.999Z</time>
      </trkpt>
      <trkpt lat="44.04158" lon="3.50518">
        <ele>1314.5</ele>
        <time>2026-05-28T11:35:07.999Z</time>
      </trkpt>
      <trkpt lat="44.04159" lon="3.50519">
        <ele>1314.5</ele>
        <time>2026-05-28T11:35:08.999Z</time>
      </trkpt>
      <trkpt lat="44.04162" lon="3.50519">
        <ele>1314.5</ele>
        <time>2026-05-28T11:35:09.999Z</time>
      </trkpt>
      <trkpt lat="44.04163" lon="3.50519">
        <ele>1314.3</ele>
        <time>2026-05-28T11:35:10.999Z</time>
      </trkpt>
      <trkpt lat="44.04165" lon="3.5052">
        <ele>1314.1</ele>
        <time>2026-05-28T11:35:11.999Z</time>
      </trkpt>
      <trkpt lat="44.04165" lon="3.5052">
        <ele>1314.1</ele>
        <time>2026-05-28T11:35:12.999Z</time>
      </trkpt>
      <trkpt lat="44.04166" lon="3.50521">
        <ele>1314.2</ele>
        <time>2026-05-28T11:35:13.999Z</time>
      </trkpt>
      <trkpt lat="44.04167" lon="3.50521">
        <ele>1314.3</ele>
        <time>2026-05-28T11:35:14.999Z</time>
      </trkpt>
      <trkpt lat="44.04168" lon="3.50522">
        <ele>1314</ele>
        <time>2026-05-28T11:35:15.999Z</time>
      </trkpt>
      <trkpt lat="44.04169" lon="3.50522">
        <ele>1314.3</ele>
        <time>2026-05-28T11:35:16.999Z</time>
      </trkpt>
      <trkpt lat="44.04171" lon="3.50523">
        <ele>1314.3</ele>
        <time>2026-05-28T11:35:17.999Z</time>
      </trkpt>
      <trkpt lat="44.04172" lon="3.50523">
        <ele>1314.3</ele>
        <time>2026-05-28T11:35:18.999Z</time>
      </trkpt>
      <trkpt lat="44.04173" lon="3.50523">
        <ele>1314.1</ele>
        <time>2026-05-28T11:35:19.999Z</time>
      </trkpt>
      <trkpt lat="44.04173" lon="3.50523">
        <ele>1313.9</ele>
        <time>2026-05-28T11:35:20.999Z</time>
      </trkpt>
      <trkpt lat="44.04174" lon="3.50524">
        <ele>1313.9</ele>
        <time>2026-05-28T11:35:21.999Z</time>
      </trkpt>
      <trkpt lat="44.04175" lon="3.50525">
        <ele>1314</ele>
        <time>2026-05-28T11:35:22.999Z</time>
      </trkpt>
      <trkpt lat="44.04177" lon="3.50525">
        <ele>1314.4</ele>
        <time>2026-05-28T11:35:23.999Z</time>
      </trkpt>
      <trkpt lat="44.04179" lon="3.50525">
        <ele>1314.6</ele>
        <time>2026-05-28T11:35:24.999Z</time>
      </trkpt>
      <trkpt lat="44.0418" lon="3.50525">
        <ele>1314.8</ele>
        <time>2026-05-28T11:35:25.999Z</time>
      </trkpt>
      <trkpt lat="44.04181" lon="3.50525">
        <ele>1314.7</ele>
        <time>2026-05-28T11:35:26.999Z</time>
      </trkpt>
      <trkpt lat="44.04182" lon="3.50525">
        <ele>1314.5</ele>
        <time>2026-05-28T11:35:27.999Z</time>
      </trkpt>
      <trkpt lat="44.04183" lon="3.50525">
        <ele>1314.4</ele>
        <time>2026-05-28T11:35:28.999Z</time>
      </trkpt>
      <trkpt lat="44.04183" lon="3.50525">
        <ele>1314</ele>
        <time>2026-05-28T11:35:29.999Z</time>
      </trkpt>
      <trkpt lat="44.04183" lon="3.50524">
        <ele>1313.9</ele>
        <time>2026-05-28T11:35:30.999Z</time>
      </trkpt>
      <trkpt lat="44.04183" lon="3.50525">
        <ele>1314.1</ele>
        <time>2026-05-28T11:35:31.999Z</time>
      </trkpt>
      <trkpt lat="44.04183" lon="3.50525">
        <ele>1314.1</ele>
        <time>2026-05-28T11:35:32.999Z</time>
      </trkpt>
      <trkpt lat="44.04183" lon="3.50525">
        <ele>1314.1</ele>
        <time>2026-05-28T11:35:33.999Z</time>
      </trkpt>
      <trkpt lat="44.04184" lon="3.50525">
        <ele>1314.1</ele>
        <time>2026-05-28T11:35:34.999Z</time>
      </trkpt>
      <trkpt lat="44.04184" lon="3.50525">
        <ele>1314.1</ele>
        <time>2026-05-28T11:35:35.999Z</time>
      </trkpt>
      <trkpt lat="44.04184" lon="3.50525">
        <ele>1314.4</ele>
        <time>2026-05-28T11:35:36.999Z</time>
      </trkpt>
      <trkpt lat="44.04184" lon="3.50525">
        <ele>1314.5</ele>
        <time>2026-05-28T11:35:37.999Z</time>
      </trkpt>
      <trkpt lat="44.04184" lon="3.50525">
        <ele>1314.7</ele>
        <time>2026-05-28T11:35:38.999Z</time>
      </trkpt>
      <trkpt lat="44.04184" lon="3.50524">
        <ele>1314.7</ele>
        <time>2026-05-28T11:35:39.999Z</time>
      </trkpt>
      <trkpt lat="44.04184" lon="3.50524">
        <ele>1315.1</ele>
        <time>2026-05-28T11:35:40.999Z</time>
      </trkpt>
      <trkpt lat="44.04184" lon="3.50524">
        <ele>1315.1</ele>
        <time>2026-05-28T11:35:41.999Z</time>
      </trkpt>
      <trkpt lat="44.04184" lon="3.50524">
        <ele>1315.1</ele>
        <time>2026-05-28T11:35:42.999Z</time>
      </trkpt>
      <trkpt lat="44.04184" lon="3.50525">
        <ele>1315.1</ele>
        <time>2026-05-28T11:35:43.999Z</time>
      </trkpt>
      <trkpt lat="44.04184" lon="3.50525">
        <ele>1315</ele>
        <time>2026-05-28T11:35:44.999Z</time>
      </trkpt>
      <trkpt lat="44.04184" lon="3.50525">
        <ele>1314.9</ele>
        <time>2026-05-28T11:35:45.999Z</time>
      </trkpt>
      <trkpt lat="44.04184" lon="3.50524">
        <ele>1314.9</ele>
        <time>2026-05-28T11:35:46.999Z</time>
      </trkpt>
      <trkpt lat="44.04184" lon="3.50524">
        <ele>1314.9</ele>
        <time>2026-05-28T11:35:47.999Z</time>
      </trkpt>
      <trkpt lat="44.04184" lon="3.50524">
        <ele>1315.2</ele>
        <time>2026-05-28T11:35:48.999Z</time>
      </trkpt>
      <trkpt lat="44.04184" lon="3.50524">
        <ele>1315.6</ele>
        <time>2026-05-28T11:35:49.999Z</time>
      </trkpt>
      <trkpt lat="44.04184" lon="3.50524">
        <ele>1315.5</ele>
        <time>2026-05-28T11:35:50.999Z</time>
      </trkpt>
      <trkpt lat="44.04184" lon="3.50524">
        <ele>1315.4</ele>
        <time>2026-05-28T11:35:51.999Z</time>
      </trkpt>
      <trkpt lat="44.04185" lon="3.50524">
        <ele>1315.4</ele>
        <time>2026-05-28T11:35:52.999Z</time>
      </trkpt>
      <trkpt lat="44.04185" lon="3.50524">
        <ele>1315.6</ele>
        <time>2026-05-28T11:35:53.999Z</time>
      </trkpt>
      <trkpt lat="44.04185" lon="3.50524">
        <ele>1315.6</ele>
        <time>2026-05-28T11:35:54.999Z</time>
      </trkpt>
      <trkpt lat="44.04185" lon="3.50524">
        <ele>1315.6</ele>
        <time>2026-05-28T11:35:55.999Z</time>
      </trkpt>
      <trkpt lat="44.04185" lon="3.50524">
        <ele>1315.4</ele>
        <time>2026-05-28T11:35:56.999Z</time>
      </trkpt>
      <trkpt lat="44.04185" lon="3.50524">
        <ele>1315</ele>
        <time>2026-05-28T11:35:57.999Z</time>
      </trkpt>
      <trkpt lat="44.04185" lon="3.50525">
        <ele>1315</ele>
        <time>2026-05-28T11:35:58.999Z</time>
      </trkpt>
      <trkpt lat="44.04185" lon="3.50526">
        <ele>1315.6</ele>
        <time>2026-05-28T11:35:59.999Z</time>
      </trkpt>
      <trkpt lat="44.04185" lon="3.50529">
        <ele>1316.2</ele>
        <time>2026-05-28T11:36:00.999Z</time>
      </trkpt>
      <trkpt lat="44.04185" lon="3.5053">
        <ele>1316.6</ele>
        <time>2026-05-28T11:36:01.999Z</time>
      </trkpt>
      <trkpt lat="44.04184" lon="3.50531">
        <ele>1317.1</ele>
        <time>2026-05-28T11:36:02.999Z</time>
      </trkpt>
      <trkpt lat="44.04185" lon="3.50533">
        <ele>1317.4</ele>
        <time>2026-05-28T11:36:03.999Z</time>
      </trkpt>
      <trkpt lat="44.04185" lon="3.50534">
        <ele>1317.3</ele>
        <time>2026-05-28T11:36:04.999Z</time>
      </trkpt>
      <trkpt lat="44.04185" lon="3.50534">
        <ele>1317.4</ele>
        <time>2026-05-28T11:36:05.999Z</time>
      </trkpt>
      <trkpt lat="44.04186" lon="3.50535">
        <ele>1316.9</ele>
        <time>2026-05-28T11:36:06.999Z</time>
      </trkpt>
      <trkpt lat="44.04186" lon="3.50535">
        <ele>1316.4</ele>
        <time>2026-05-28T11:36:07.999Z</time>
      </trkpt>
      <trkpt lat="44.04187" lon="3.50534">
        <ele>1316.3</ele>
        <time>2026-05-28T11:36:08.999Z</time>
      </trkpt>
      <trkpt lat="44.04187" lon="3.50534">
        <ele>1316.6</ele>
        <time>2026-05-28T11:36:09.999Z</time>
      </trkpt>
      <trkpt lat="44.04188" lon="3.50534">
        <ele>1316.7</ele>
        <time>2026-05-28T11:36:10.999Z</time>
      </trkpt>
      <trkpt lat="44.04188" lon="3.50535">
        <ele>1316.7</ele>
        <time>2026-05-28T11:36:11.999Z</time>
      </trkpt>
      <trkpt lat="44.04189" lon="3.50535">
        <ele>1316.6</ele>
        <time>2026-05-28T11:36:12.999Z</time>
      </trkpt>
      <trkpt lat="44.0419" lon="3.50535">
        <ele>1316.6</ele>
        <time>2026-05-28T11:36:13.999Z</time>
      </trkpt>
      <trkpt lat="44.0419" lon="3.50536">
        <ele>1316.5</ele>
        <time>2026-05-28T11:36:14.999Z</time>
      </trkpt>
      <trkpt lat="44.04191" lon="3.50537">
        <ele>1316.2</ele>
        <time>2026-05-28T11:36:15.999Z</time>
      </trkpt>
      <trkpt lat="44.04191" lon="3.50538">
        <ele>1315.7</ele>
        <time>2026-05-28T11:36:16.999Z</time>
      </trkpt>
      <trkpt lat="44.04192" lon="3.50538">
        <ele>1315.4</ele>
        <time>2026-05-28T11:36:17.999Z</time>
      </trkpt>
      <trkpt lat="44.04192" lon="3.50539">
        <ele>1315.4</ele>
        <time>2026-05-28T11:36:18.999Z</time>
      </trkpt>
      <trkpt lat="44.04193" lon="3.50541">
        <ele>1315.6</ele>
        <time>2026-05-28T11:36:19.999Z</time>
      </trkpt>
      <trkpt lat="44.04194" lon="3.50541">
        <ele>1315.7</ele>
        <time>2026-05-28T11:36:20.999Z</time>
      </trkpt>
      <trkpt lat="44.04195" lon="3.50541">
        <ele>1315.5</ele>
        <time>2026-05-28T11:36:21.999Z</time>
      </trkpt>
      <trkpt lat="44.04195" lon="3.50541">
        <ele>1315.5</ele>
        <time>2026-05-28T11:36:22.999Z</time>
      </trkpt>
      <trkpt lat="44.04196" lon="3.50541">
        <ele>1315.8</ele>
        <time>2026-05-28T11:36:23.999Z</time>
      </trkpt>
      <trkpt lat="44.04196" lon="3.50542">
        <ele>1316</ele>
        <time>2026-05-28T11:36:24.999Z</time>
      </trkpt>
      <trkpt lat="44.04197" lon="3.50542">
        <ele>1316.5</ele>
        <time>2026-05-28T11:36:25.999Z</time>
      </trkpt>
      <trkpt lat="44.04198" lon="3.50543">
        <ele>1316.5</ele>
        <time>2026-05-28T11:36:26.999Z</time>
      </trkpt>
      <trkpt lat="44.04198" lon="3.50543">
        <ele>1316.4</ele>
        <time>2026-05-28T11:36:27.999Z</time>
      </trkpt>
      <trkpt lat="44.04199" lon="3.50544">
        <ele>1316.1</ele>
        <time>2026-05-28T11:36:28.999Z</time>
      </trkpt>
      <trkpt lat="44.04199" lon="3.50545">
        <ele>1316</ele>
        <time>2026-05-28T11:36:29.999Z</time>
      </trkpt>
      <trkpt lat="44.042" lon="3.50546">
        <ele>1316.3</ele>
        <time>2026-05-28T11:36:30.999Z</time>
      </trkpt>
      <trkpt lat="44.04201" lon="3.50548">
        <ele>1316.4</ele>
        <time>2026-05-28T11:36:31.999Z</time>
      </trkpt>
      <trkpt lat="44.04201" lon="3.50549">
        <ele>1316.6</ele>
        <time>2026-05-28T11:36:32.999Z</time>
      </trkpt>
      <trkpt lat="44.04202" lon="3.5055">
        <ele>1316.8</ele>
        <time>2026-05-28T11:36:33.999Z</time>
      </trkpt>
      <trkpt lat="44.04203" lon="3.50551">
        <ele>1317</ele>
        <time>2026-05-28T11:36:34.999Z</time>
      </trkpt>
      <trkpt lat="44.04203" lon="3.50551">
        <ele>1316.8</ele>
        <time>2026-05-28T11:36:35.999Z</time>
      </trkpt>
      <trkpt lat="44.04204" lon="3.50553">
        <ele>1316.8</ele>
        <time>2026-05-28T11:36:36.999Z</time>
      </trkpt>
      <trkpt lat="44.04204" lon="3.50554">
        <ele>1316.5</ele>
        <time>2026-05-28T11:36:37.999Z</time>
      </trkpt>
      <trkpt lat="44.04205" lon="3.50556">
        <ele>1316.4</ele>
        <time>2026-05-28T11:36:38.999Z</time>
      </trkpt>
      <trkpt lat="44.04205" lon="3.50556">
        <ele>1316.4</ele>
        <time>2026-05-28T11:36:39.999Z</time>
      </trkpt>
      <trkpt lat="44.04206" lon="3.50557">
        <ele>1316.4</ele>
        <time>2026-05-28T11:36:40.999Z</time>
      </trkpt>
      <trkpt lat="44.04207" lon="3.50558">
        <ele>1316.6</ele>
        <time>2026-05-28T11:36:41.999Z</time>
      </trkpt>
      <trkpt lat="44.04207" lon="3.50559">
        <ele>1316.9</ele>
        <time>2026-05-28T11:36:42.999Z</time>
      </trkpt>
      <trkpt lat="44.04208" lon="3.5056">
        <ele>1316.8</ele>
        <time>2026-05-28T11:36:43.999Z</time>
      </trkpt>
      <trkpt lat="44.04208" lon="3.50561">
        <ele>1316.9</ele>
        <time>2026-05-28T11:36:44.999Z</time>
      </trkpt>
      <trkpt lat="44.04209" lon="3.50562">
        <ele>1316.7</ele>
        <time>2026-05-28T11:36:45.999Z</time>
      </trkpt>
      <trkpt lat="44.04209" lon="3.50563">
        <ele>1316.3</ele>
        <time>2026-05-28T11:36:46.999Z</time>
      </trkpt>
      <trkpt lat="44.0421" lon="3.50564">
        <ele>1316.2</ele>
        <time>2026-05-28T11:36:47.999Z</time>
      </trkpt>
      <trkpt lat="44.0421" lon="3.50565">
        <ele>1316.3</ele>
        <time>2026-05-28T11:36:48.999Z</time>
      </trkpt>
      <trkpt lat="44.04211" lon="3.50566">
        <ele>1316.3</ele>
        <time>2026-05-28T11:36:49.999Z</time>
      </trkpt>
      <trkpt lat="44.04212" lon="3.50568">
        <ele>1316.2</ele>
        <time>2026-05-28T11:36:50.999Z</time>
      </trkpt>
      <trkpt lat="44.04213" lon="3.50568">
        <ele>1316.3</ele>
        <time>2026-05-28T11:36:51.999Z</time>
      </trkpt>
      <trkpt lat="44.04213" lon="3.50569">
        <ele>1316.1</ele>
        <time>2026-05-28T11:36:52.999Z</time>
      </trkpt>
      <trkpt lat="44.04214" lon="3.5057">
        <ele>1316.1</ele>
        <time>2026-05-28T11:36:53.999Z</time>
      </trkpt>
      <trkpt lat="44.04214" lon="3.50571">
        <ele>1316.4</ele>
        <time>2026-05-28T11:36:54.999Z</time>
      </trkpt>
      <trkpt lat="44.04215" lon="3.50573">
        <ele>1316.7</ele>
        <time>2026-05-28T11:36:55.999Z</time>
      </trkpt>
      <trkpt lat="44.04216" lon="3.50574">
        <ele>1317</ele>
        <time>2026-05-28T11:36:56.999Z</time>
      </trkpt>
      <trkpt lat="44.04216" lon="3.50575">
        <ele>1317.3</ele>
        <time>2026-05-28T11:36:57.999Z</time>
      </trkpt>
      <trkpt lat="44.04217" lon="3.50576">
        <ele>1317.2</ele>
        <time>2026-05-28T11:36:58.999Z</time>
      </trkpt>
      <trkpt lat="44.04217" lon="3.50577">
        <ele>1317.3</ele>
        <time>2026-05-28T11:36:59.999Z</time>
      </trkpt>
      <trkpt lat="44.04218" lon="3.50578">
        <ele>1317.5</ele>
        <time>2026-05-28T11:37:00.999Z</time>
      </trkpt>
      <trkpt lat="44.04219" lon="3.50579">
        <ele>1317.6</ele>
        <time>2026-05-28T11:37:01.999Z</time>
      </trkpt>
      <trkpt lat="44.04219" lon="3.5058">
        <ele>1317.7</ele>
        <time>2026-05-28T11:37:02.999Z</time>
      </trkpt>
      <trkpt lat="44.0422" lon="3.50581">
        <ele>1317.6</ele>
        <time>2026-05-28T11:37:03.999Z</time>
      </trkpt>
      <trkpt lat="44.04221" lon="3.50583">
        <ele>1317.6</ele>
        <time>2026-05-28T11:37:04.999Z</time>
      </trkpt>
      <trkpt lat="44.04221" lon="3.50584">
        <ele>1317.3</ele>
        <time>2026-05-28T11:37:05.999Z</time>
      </trkpt>
      <trkpt lat="44.04222" lon="3.50585">
        <ele>1317.1</ele>
        <time>2026-05-28T11:37:06.999Z</time>
      </trkpt>
      <trkpt lat="44.04222" lon="3.50586">
        <ele>1317.2</ele>
        <time>2026-05-28T11:37:07.999Z</time>
      </trkpt>
      <trkpt lat="44.04223" lon="3.50587">
        <ele>1317.4</ele>
        <time>2026-05-28T11:37:08.999Z</time>
      </trkpt>
      <trkpt lat="44.04224" lon="3.50588">
        <ele>1317.5</ele>
        <time>2026-05-28T11:37:09.999Z</time>
      </trkpt>
      <trkpt lat="44.04225" lon="3.50589">
        <ele>1317.6</ele>
        <time>2026-05-28T11:37:10.999Z</time>
      </trkpt>
      <trkpt lat="44.04225" lon="3.5059">
        <ele>1317.9</ele>
        <time>2026-05-28T11:37:11.999Z</time>
      </trkpt>
      <trkpt lat="44.04226" lon="3.50591">
        <ele>1318.3</ele>
        <time>2026-05-28T11:37:12.999Z</time>
      </trkpt>
      <trkpt lat="44.04226" lon="3.50593">
        <ele>1318.9</ele>
        <time>2026-05-28T11:37:13.999Z</time>
      </trkpt>
      <trkpt lat="44.04226" lon="3.50594">
        <ele>1319.3</ele>
        <time>2026-05-28T11:37:14.999Z</time>
      </trkpt>
      <trkpt lat="44.04227" lon="3.50596">
        <ele>1319.3</ele>
        <time>2026-05-28T11:37:15.999Z</time>
      </trkpt>
      <trkpt lat="44.04228" lon="3.50597">
        <ele>1319.4</ele>
        <time>2026-05-28T11:37:16.999Z</time>
      </trkpt>
      <trkpt lat="44.04228" lon="3.50598">
        <ele>1319.6</ele>
        <time>2026-05-28T11:37:17.999Z</time>
      </trkpt>
      <trkpt lat="44.04229" lon="3.50599">
        <ele>1320.1</ele>
        <time>2026-05-28T11:37:18.999Z</time>
      </trkpt>
      <trkpt lat="44.0423" lon="3.506">
        <ele>1319.9</ele>
        <time>2026-05-28T11:37:19.999Z</time>
      </trkpt>
      <trkpt lat="44.04231" lon="3.506">
        <ele>1319.9</ele>
        <time>2026-05-28T11:37:20.999Z</time>
      </trkpt>
      <trkpt lat="44.04231" lon="3.50601">
        <ele>1319.6</ele>
        <time>2026-05-28T11:37:21.999Z</time>
      </trkpt>
      <trkpt lat="44.04233" lon="3.50602">
        <ele>1319.7</ele>
        <time>2026-05-28T11:37:22.999Z</time>
      </trkpt>
      <trkpt lat="44.04234" lon="3.50603">
        <ele>1320</ele>
        <time>2026-05-28T11:37:23.999Z</time>
      </trkpt>
      <trkpt lat="44.04234" lon="3.50604">
        <ele>1320.6</ele>
        <time>2026-05-28T11:37:24.999Z</time>
      </trkpt>
      <trkpt lat="44.04235" lon="3.50605">
        <ele>1320.9</ele>
        <time>2026-05-28T11:37:25.999Z</time>
      </trkpt>
      <trkpt lat="44.04235" lon="3.50606">
        <ele>1321.1</ele>
        <time>2026-05-28T11:37:26.999Z</time>
      </trkpt>
      <trkpt lat="44.04235" lon="3.50608">
        <ele>1321.1</ele>
        <time>2026-05-28T11:37:27.999Z</time>
      </trkpt>
      <trkpt lat="44.04236" lon="3.50609">
        <ele>1321.2</ele>
        <time>2026-05-28T11:37:28.999Z</time>
      </trkpt>
      <trkpt lat="44.04237" lon="3.50609">
        <ele>1320.9</ele>
        <time>2026-05-28T11:37:29.999Z</time>
      </trkpt>
      <trkpt lat="44.04238" lon="3.5061">
        <ele>1320.9</ele>
        <time>2026-05-28T11:37:30.999Z</time>
      </trkpt>
      <trkpt lat="44.04239" lon="3.50611">
        <ele>1320.9</ele>
        <time>2026-05-28T11:37:31.999Z</time>
      </trkpt>
      <trkpt lat="44.04239" lon="3.50613">
        <ele>1321.2</ele>
        <time>2026-05-28T11:37:32.999Z</time>
      </trkpt>
      <trkpt lat="44.0424" lon="3.50614">
        <ele>1321.4</ele>
        <time>2026-05-28T11:37:33.999Z</time>
      </trkpt>
      <trkpt lat="44.0424" lon="3.50615">
        <ele>1321.5</ele>
        <time>2026-05-28T11:37:34.999Z</time>
      </trkpt>
      <trkpt lat="44.04241" lon="3.50616">
        <ele>1321.8</ele>
        <time>2026-05-28T11:37:35.999Z</time>
      </trkpt>
      <trkpt lat="44.04241" lon="3.50616">
        <ele>1322</ele>
        <time>2026-05-28T11:37:36.999Z</time>
      </trkpt>
      <trkpt lat="44.04242" lon="3.50616">
        <ele>1322.2</ele>
        <time>2026-05-28T11:37:37.999Z</time>
      </trkpt>
      <trkpt lat="44.04242" lon="3.50616">
        <ele>1322</ele>
        <time>2026-05-28T11:37:38.999Z</time>
      </trkpt>
      <trkpt lat="44.04243" lon="3.50616">
        <ele>1321.8</ele>
        <time>2026-05-28T11:37:39.999Z</time>
      </trkpt>
      <trkpt lat="44.04243" lon="3.50617">
        <ele>1321.6</ele>
        <time>2026-05-28T11:37:40.999Z</time>
      </trkpt>
      <trkpt lat="44.04243" lon="3.50619">
        <ele>1321.2</ele>
        <time>2026-05-28T11:37:41.999Z</time>
      </trkpt>
      <trkpt lat="44.04243" lon="3.5062">
        <ele>1320.8</ele>
        <time>2026-05-28T11:37:42.999Z</time>
      </trkpt>
      <trkpt lat="44.04244" lon="3.5062">
        <ele>1320.7</ele>
        <time>2026-05-28T11:37:43.999Z</time>
      </trkpt>
      <trkpt lat="44.04244" lon="3.50621">
        <ele>1320.9</ele>
        <time>2026-05-28T11:37:44.999Z</time>
      </trkpt>
      <trkpt lat="44.04245" lon="3.50621">
        <ele>1320.6</ele>
        <time>2026-05-28T11:37:45.999Z</time>
      </trkpt>
      <trkpt lat="44.04246" lon="3.50621">
        <ele>1320.6</ele>
        <time>2026-05-28T11:37:46.999Z</time>
      </trkpt>
      <trkpt lat="44.04246" lon="3.50621">
        <ele>1320.8</ele>
        <time>2026-05-28T11:37:47.999Z</time>
      </trkpt>
      <trkpt lat="44.04246" lon="3.50622">
        <ele>1320.8</ele>
        <time>2026-05-28T11:37:48.999Z</time>
      </trkpt>
      <trkpt lat="44.04246" lon="3.50622">
        <ele>1320.9</ele>
        <time>2026-05-28T11:37:49.999Z</time>
      </trkpt>
      <trkpt lat="44.04246" lon="3.50622">
        <ele>1321</ele>
        <time>2026-05-28T11:37:50.999Z</time>
      </trkpt>
      <trkpt lat="44.04246" lon="3.50622">
        <ele>1321.1</ele>
        <time>2026-05-28T11:37:51.999Z</time>
      </trkpt>
      <trkpt lat="44.04246" lon="3.50622">
        <ele>1321.4</ele>
        <time>2026-05-28T11:37:52.999Z</time>
      </trkpt>
      <trkpt lat="44.04246" lon="3.50622">
        <ele>1321.7</ele>
        <time>2026-05-28T11:37:53.999Z</time>
      </trkpt>
      <trkpt lat="44.04246" lon="3.50622">
        <ele>1321.8</ele>
        <time>2026-05-28T11:37:54.999Z</time>
      </trkpt>
      <trkpt lat="44.04246" lon="3.50622">
        <ele>1321.6</ele>
        <time>2026-05-28T11:37:55.999Z</time>
      </trkpt>
      <trkpt lat="44.04245" lon="3.50622">
        <ele>1321.4</ele>
        <time>2026-05-28T11:37:56.999Z</time>
      </trkpt>
      <trkpt lat="44.04245" lon="3.50622">
        <ele>1321.5</ele>
        <time>2026-05-28T11:37:57.999Z</time>
      </trkpt>
      <trkpt lat="44.04246" lon="3.50622">
        <ele>1321.1</ele>
        <time>2026-05-28T11:37:58.999Z</time>
      </trkpt>
      <trkpt lat="44.04246" lon="3.50622">
        <ele>1321.1</ele>
        <time>2026-05-28T11:37:59.999Z</time>
      </trkpt>
      <trkpt lat="44.04246" lon="3.50622">
        <ele>1321</ele>
        <time>2026-05-28T11:38:00.999Z</time>
      </trkpt>
      <trkpt lat="44.04246" lon="3.50622">
        <ele>1321.1</ele>
        <time>2026-05-28T11:38:01.999Z</time>
      </trkpt>
      <trkpt lat="44.04246" lon="3.50622">
        <ele>1321.4</ele>
        <time>2026-05-28T11:38:02.999Z</time>
      </trkpt>
      <trkpt lat="44.04246" lon="3.50622">
        <ele>1321.4</ele>
        <time>2026-05-28T11:38:03.999Z</time>
      </trkpt>
      <trkpt lat="44.04246" lon="3.50622">
        <ele>1321.6</ele>
        <time>2026-05-28T11:38:04.999Z</time>
      </trkpt>
      <trkpt lat="44.04246" lon="3.50622">
        <ele>1321.6</ele>
        <time>2026-05-28T11:38:05.999Z</time>
      </trkpt>
      <trkpt lat="44.04246" lon="3.50622">
        <ele>1322</ele>
        <time>2026-05-28T11:38:06.999Z</time>
      </trkpt>
      <trkpt lat="44.04246" lon="3.50622">
        <ele>1322.1</ele>
        <time>2026-05-28T11:38:07.999Z</time>
      </trkpt>
      <trkpt lat="44.04246" lon="3.50622">
        <ele>1321.8</ele>
        <time>2026-05-28T11:38:08.999Z</time>
      </trkpt>
      <trkpt lat="44.04246" lon="3.50622">
        <ele>1321.7</ele>
        <time>2026-05-28T11:38:09.999Z</time>
      </trkpt>
      <trkpt lat="44.04246" lon="3.50622">
        <ele>1321.5</ele>
        <time>2026-05-28T11:38:10.999Z</time>
      </trkpt>
      <trkpt lat="44.04246" lon="3.50623">
        <ele>1321.3</ele>
        <time>2026-05-28T11:38:11.999Z</time>
      </trkpt>
      <trkpt lat="44.04246" lon="3.50624">
        <ele>1321.1</ele>
        <time>2026-05-28T11:38:12.999Z</time>
      </trkpt>
      <trkpt lat="44.04247" lon="3.50624">
        <ele>1321</ele>
        <time>2026-05-28T11:38:13.999Z</time>
      </trkpt>
      <trkpt lat="44.04248" lon="3.50625">
        <ele>1320.8</ele>
        <time>2026-05-28T11:38:14.999Z</time>
      </trkpt>
      <trkpt lat="44.04249" lon="3.50627">
        <ele>1320.6</ele>
        <time>2026-05-28T11:38:15.999Z</time>
      </trkpt>
      <trkpt lat="44.0425" lon="3.50627">
        <ele>1320.5</ele>
        <time>2026-05-28T11:38:16.999Z</time>
      </trkpt>
      <trkpt lat="44.0425" lon="3.50628">
        <ele>1320.7</ele>
        <time>2026-05-28T11:38:17.999Z</time>
      </trkpt>
      <trkpt lat="44.04251" lon="3.50628">
        <ele>1321.1</ele>
        <time>2026-05-28T11:38:18.999Z</time>
      </trkpt>
      <trkpt lat="44.04251" lon="3.50628">
        <ele>1321.3</ele>
        <time>2026-05-28T11:38:19.999Z</time>
      </trkpt>
      <trkpt lat="44.04252" lon="3.50628">
        <ele>1321.8</ele>
        <time>2026-05-28T11:38:20.999Z</time>
      </trkpt>
      <trkpt lat="44.04253" lon="3.50628">
        <ele>1321.9</ele>
        <time>2026-05-28T11:38:21.999Z</time>
      </trkpt>
      <trkpt lat="44.04253" lon="3.50628">
        <ele>1322.1</ele>
        <time>2026-05-28T11:38:22.999Z</time>
      </trkpt>
      <trkpt lat="44.04254" lon="3.50628">
        <ele>1322.4</ele>
        <time>2026-05-28T11:38:23.999Z</time>
      </trkpt>
      <trkpt lat="44.04254" lon="3.50627">
        <ele>1322.2</ele>
        <time>2026-05-28T11:38:24.999Z</time>
      </trkpt>
      <trkpt lat="44.04254" lon="3.50627">
        <ele>1322.4</ele>
        <time>2026-05-28T11:38:25.999Z</time>
      </trkpt>
      <trkpt lat="44.04253" lon="3.50627">
        <ele>1322</ele>
        <time>2026-05-28T11:38:26.999Z</time>
      </trkpt>
      <trkpt lat="44.04253" lon="3.50628">
        <ele>1321.2</ele>
        <time>2026-05-28T11:38:27.999Z</time>
      </trkpt>
      <trkpt lat="44.04254" lon="3.50628">
        <ele>1321.3</ele>
        <time>2026-05-28T11:38:28.999Z</time>
      </trkpt>
      <trkpt lat="44.04255" lon="3.50629">
        <ele>1321.1</ele>
        <time>2026-05-28T11:38:29.999Z</time>
      </trkpt>
      <trkpt lat="44.04256" lon="3.50632">
        <ele>1320.6</ele>
        <time>2026-05-28T11:38:31.999Z</time>
      </trkpt>
      <trkpt lat="44.04256" lon="3.50634">
        <ele>1320.8</ele>
        <time>2026-05-28T11:38:32.999Z</time>
      </trkpt>
      <trkpt lat="44.04256" lon="3.50635">
        <ele>1321</ele>
        <time>2026-05-28T11:38:33.999Z</time>
      </trkpt>
      <trkpt lat="44.04257" lon="3.50635">
        <ele>1321.2</ele>
        <time>2026-05-28T11:38:34.999Z</time>
      </trkpt>
      <trkpt lat="44.04258" lon="3.50636">
        <ele>1321.5</ele>
        <time>2026-05-28T11:38:35.999Z</time>
      </trkpt>
      <trkpt lat="44.04259" lon="3.50636">
        <ele>1321.6</ele>
        <time>2026-05-28T11:38:36.999Z</time>
      </trkpt>
      <trkpt lat="44.04259" lon="3.50637">
        <ele>1321.7</ele>
        <time>2026-05-28T11:38:37.999Z</time>
      </trkpt>
      <trkpt lat="44.0426" lon="3.50637">
        <ele>1321.6</ele>
        <time>2026-05-28T11:38:38.999Z</time>
      </trkpt>
      <trkpt lat="44.04261" lon="3.50637">
        <ele>1321.5</ele>
        <time>2026-05-28T11:38:39.999Z</time>
      </trkpt>
      <trkpt lat="44.04262" lon="3.50638">
        <ele>1321.6</ele>
        <time>2026-05-28T11:38:40.999Z</time>
      </trkpt>
      <trkpt lat="44.04263" lon="3.50638">
        <ele>1321.5</ele>
        <time>2026-05-28T11:38:41.999Z</time>
      </trkpt>
      <trkpt lat="44.04263" lon="3.5064">
        <ele>1321.7</ele>
        <time>2026-05-28T11:38:42.999Z</time>
      </trkpt>
      <trkpt lat="44.04264" lon="3.50641">
        <ele>1321.9</ele>
        <time>2026-05-28T11:38:43.999Z</time>
      </trkpt>
      <trkpt lat="44.04264" lon="3.50641">
        <ele>1322.3</ele>
        <time>2026-05-28T11:38:44.999Z</time>
      </trkpt>
      <trkpt lat="44.04265" lon="3.50641">
        <ele>1322.2</ele>
        <time>2026-05-28T11:38:45.999Z</time>
      </trkpt>
      <trkpt lat="44.04266" lon="3.50641">
        <ele>1322.2</ele>
        <time>2026-05-28T11:38:46.999Z</time>
      </trkpt>
      <trkpt lat="44.04266" lon="3.50642">
        <ele>1322</ele>
        <time>2026-05-28T11:38:47.999Z</time>
      </trkpt>
      <trkpt lat="44.04268" lon="3.50644">
        <ele>1322</ele>
        <time>2026-05-28T11:38:48.999Z</time>
      </trkpt>
      <trkpt lat="44.04268" lon="3.50644">
        <ele>1322.1</ele>
        <time>2026-05-28T11:38:49.999Z</time>
      </trkpt>
      <trkpt lat="44.04269" lon="3.50645">
        <ele>1321.7</ele>
        <time>2026-05-28T11:38:50.999Z</time>
      </trkpt>
      <trkpt lat="44.0427" lon="3.50645">
        <ele>1321.4</ele>
        <time>2026-05-28T11:38:51.999Z</time>
      </trkpt>
      <trkpt lat="44.04271" lon="3.50645">
        <ele>1321.3</ele>
        <time>2026-05-28T11:38:52.999Z</time>
      </trkpt>
      <trkpt lat="44.04272" lon="3.50645">
        <ele>1321.3</ele>
        <time>2026-05-28T11:38:53.999Z</time>
      </trkpt>
      <trkpt lat="44.04272" lon="3.50645">
        <ele>1321.1</ele>
        <time>2026-05-28T11:38:54.999Z</time>
      </trkpt>
      <trkpt lat="44.04272" lon="3.50645">
        <ele>1320.9</ele>
        <time>2026-05-28T11:38:55.999Z</time>
      </trkpt>
      <trkpt lat="44.04273" lon="3.50646">
        <ele>1321.3</ele>
        <time>2026-05-28T11:38:56.999Z</time>
      </trkpt>
      <trkpt lat="44.04273" lon="3.50647">
        <ele>1321.4</ele>
        <time>2026-05-28T11:38:57.999Z</time>
      </trkpt>
      <trkpt lat="44.04274" lon="3.50647">
        <ele>1321.1</ele>
        <time>2026-05-28T11:38:58.999Z</time>
      </trkpt>
      <trkpt lat="44.04274" lon="3.50648">
        <ele>1320.9</ele>
        <time>2026-05-28T11:38:59.999Z</time>
      </trkpt>
      <trkpt lat="44.04275" lon="3.50648">
        <ele>1320.4</ele>
        <time>2026-05-28T11:39:00.999Z</time>
      </trkpt>
      <trkpt lat="44.04276" lon="3.50649">
        <ele>1319.9</ele>
        <time>2026-05-28T11:39:01.999Z</time>
      </trkpt>
      <trkpt lat="44.04277" lon="3.5065">
        <ele>1319.5</ele>
        <time>2026-05-28T11:39:02.999Z</time>
      </trkpt>
      <trkpt lat="44.04278" lon="3.50651">
        <ele>1319.5</ele>
        <time>2026-05-28T11:39:03.999Z</time>
      </trkpt>
      <trkpt lat="44.0428" lon="3.50652">
        <ele>1319.6</ele>
        <time>2026-05-28T11:39:04.999Z</time>
      </trkpt>
      <trkpt lat="44.04281" lon="3.50652">
        <ele>1319.5</ele>
        <time>2026-05-28T11:39:05.999Z</time>
      </trkpt>
      <trkpt lat="44.04282" lon="3.50653">
        <ele>1319.4</ele>
        <time>2026-05-28T11:39:06.999Z</time>
      </trkpt>
      <trkpt lat="44.04283" lon="3.50653">
        <ele>1319.2</ele>
        <time>2026-05-28T11:39:07.999Z</time>
      </trkpt>
      <trkpt lat="44.04283" lon="3.50654">
        <ele>1318.9</ele>
        <time>2026-05-28T11:39:08.999Z</time>
      </trkpt>
      <trkpt lat="44.04285" lon="3.50655">
        <ele>1319</ele>
        <time>2026-05-28T11:39:09.999Z</time>
      </trkpt>
      <trkpt lat="44.04286" lon="3.50657">
        <ele>1319.1</ele>
        <time>2026-05-28T11:39:10.999Z</time>
      </trkpt>
      <trkpt lat="44.04287" lon="3.50657">
        <ele>1319.1</ele>
        <time>2026-05-28T11:39:11.999Z</time>
      </trkpt>
      <trkpt lat="44.04288" lon="3.50657">
        <ele>1319.2</ele>
        <time>2026-05-28T11:39:12.999Z</time>
      </trkpt>
      <trkpt lat="44.04289" lon="3.50658">
        <ele>1318.9</ele>
        <time>2026-05-28T11:39:13.999Z</time>
      </trkpt>
      <trkpt lat="44.0429" lon="3.50658">
        <ele>1319.2</ele>
        <time>2026-05-28T11:39:14.999Z</time>
      </trkpt>
      <trkpt lat="44.04291" lon="3.50659">
        <ele>1319.3</ele>
        <time>2026-05-28T11:39:15.999Z</time>
      </trkpt>
      <trkpt lat="44.04292" lon="3.5066">
        <ele>1319.5</ele>
        <time>2026-05-28T11:39:16.999Z</time>
      </trkpt>
      <trkpt lat="44.04293" lon="3.50661">
        <ele>1319.7</ele>
        <time>2026-05-28T11:39:17.999Z</time>
      </trkpt>
      <trkpt lat="44.04295" lon="3.50662">
        <ele>1319.6</ele>
        <time>2026-05-28T11:39:18.999Z</time>
      </trkpt>
      <trkpt lat="44.04296" lon="3.50663">
        <ele>1319.5</ele>
        <time>2026-05-28T11:39:19.999Z</time>
      </trkpt>
      <trkpt lat="44.04297" lon="3.50664">
        <ele>1319.4</ele>
        <time>2026-05-28T11:39:20.999Z</time>
      </trkpt>
      <trkpt lat="44.04299" lon="3.50664">
        <ele>1319.4</ele>
        <time>2026-05-28T11:39:21.999Z</time>
      </trkpt>
      <trkpt lat="44.04299" lon="3.50665">
        <ele>1319.5</ele>
        <time>2026-05-28T11:39:22.999Z</time>
      </trkpt>
      <trkpt lat="44.043" lon="3.50666">
        <ele>1319.9</ele>
        <time>2026-05-28T11:39:23.999Z</time>
      </trkpt>
      <trkpt lat="44.04301" lon="3.50667">
        <ele>1319.9</ele>
        <time>2026-05-28T11:39:24.999Z</time>
      </trkpt>
      <trkpt lat="44.04302" lon="3.50667">
        <ele>1319.8</ele>
        <time>2026-05-28T11:39:25.999Z</time>
      </trkpt>
      <trkpt lat="44.04303" lon="3.50669">
        <ele>1319.9</ele>
        <time>2026-05-28T11:39:26.999Z</time>
      </trkpt>
      <trkpt lat="44.04304" lon="3.5067">
        <ele>1319.8</ele>
        <time>2026-05-28T11:39:27.999Z</time>
      </trkpt>
      <trkpt lat="44.04306" lon="3.5067">
        <ele>1320.1</ele>
        <time>2026-05-28T11:39:28.999Z</time>
      </trkpt>
      <trkpt lat="44.04308" lon="3.50671">
        <ele>1319.9</ele>
        <time>2026-05-28T11:39:29.999Z</time>
      </trkpt>
      <trkpt lat="44.04309" lon="3.50673">
        <ele>1319.9</ele>
        <time>2026-05-28T11:39:30.999Z</time>
      </trkpt>
      <trkpt lat="44.0431" lon="3.50673">
        <ele>1319.5</ele>
        <time>2026-05-28T11:39:31.999Z</time>
      </trkpt>
      <trkpt lat="44.04311" lon="3.50673">
        <ele>1319.3</ele>
        <time>2026-05-28T11:39:32.999Z</time>
      </trkpt>
      <trkpt lat="44.04311" lon="3.50673">
        <ele>1319.2</ele>
        <time>2026-05-28T11:39:33.999Z</time>
      </trkpt>
      <trkpt lat="44.04312" lon="3.50674">
        <ele>1318.8</ele>
        <time>2026-05-28T11:39:34.999Z</time>
      </trkpt>
      <trkpt lat="44.04314" lon="3.50676">
        <ele>1318.5</ele>
        <time>2026-05-28T11:39:35.999Z</time>
      </trkpt>
      <trkpt lat="44.04315" lon="3.50677">
        <ele>1318.2</ele>
        <time>2026-05-28T11:39:36.999Z</time>
      </trkpt>
      <trkpt lat="44.04316" lon="3.50677">
        <ele>1317.8</ele>
        <time>2026-05-28T11:39:37.999Z</time>
      </trkpt>
      <trkpt lat="44.04317" lon="3.50678">
        <ele>1317.7</ele>
        <time>2026-05-28T11:39:38.999Z</time>
      </trkpt>
      <trkpt lat="44.04318" lon="3.50678">
        <ele>1317.8</ele>
        <time>2026-05-28T11:39:39.999Z</time>
      </trkpt>
      <trkpt lat="44.04318" lon="3.50678">
        <ele>1317.6</ele>
        <time>2026-05-28T11:39:40.999Z</time>
      </trkpt>
      <trkpt lat="44.04319" lon="3.50679">
        <ele>1317.8</ele>
        <time>2026-05-28T11:39:41.999Z</time>
      </trkpt>
      <trkpt lat="44.0432" lon="3.50679">
        <ele>1317.5</ele>
        <time>2026-05-28T11:39:42.999Z</time>
      </trkpt>
      <trkpt lat="44.0432" lon="3.5068">
        <ele>1317.7</ele>
        <time>2026-05-28T11:39:43.999Z</time>
      </trkpt>
      <trkpt lat="44.04321" lon="3.5068">
        <ele>1317.7</ele>
        <time>2026-05-28T11:39:44.999Z</time>
      </trkpt>
      <trkpt lat="44.0432" lon="3.50681">
        <ele>1317.8</ele>
        <time>2026-05-28T11:39:45.999Z</time>
      </trkpt>
      <trkpt lat="44.04321" lon="3.50681">
        <ele>1317.8</ele>
        <time>2026-05-28T11:39:46.999Z</time>
      </trkpt>
      <trkpt lat="44.04321" lon="3.50682">
        <ele>1317.9</ele>
        <time>2026-05-28T11:39:47.999Z</time>
      </trkpt>
      <trkpt lat="44.04322" lon="3.50682">
        <ele>1317.9</ele>
        <time>2026-05-28T11:39:48.999Z</time>
      </trkpt>
      <trkpt lat="44.04322" lon="3.50682">
        <ele>1317.6</ele>
        <time>2026-05-28T11:39:49.999Z</time>
      </trkpt>
      <trkpt lat="44.04322" lon="3.50682">
        <ele>1317.4</ele>
        <time>2026-05-28T11:39:50.999Z</time>
      </trkpt>
      <trkpt lat="44.04323" lon="3.50682">
        <ele>1317.5</ele>
        <time>2026-05-28T11:39:51.999Z</time>
      </trkpt>
      <trkpt lat="44.04324" lon="3.50683">
        <ele>1317.6</ele>
        <time>2026-05-28T11:39:52.999Z</time>
      </trkpt>
      <trkpt lat="44.04324" lon="3.50684">
        <ele>1317.9</ele>
        <time>2026-05-28T11:39:53.999Z</time>
      </trkpt>
      <trkpt lat="44.04325" lon="3.50684">
        <ele>1317.8</ele>
        <time>2026-05-28T11:39:54.999Z</time>
      </trkpt>
      <trkpt lat="44.04324" lon="3.50683">
        <ele>1317.6</ele>
        <time>2026-05-28T11:39:55.999Z</time>
      </trkpt>
      <trkpt lat="44.04324" lon="3.50683">
        <ele>1318.3</ele>
        <time>2026-05-28T11:39:56.999Z</time>
      </trkpt>
      <trkpt lat="44.04324" lon="3.50684">
        <ele>1318.5</ele>
        <time>2026-05-28T11:39:57.999Z</time>
      </trkpt>
      <trkpt lat="44.04324" lon="3.50684">
        <ele>1318.7</ele>
        <time>2026-05-28T11:39:58.999Z</time>
      </trkpt>
      <trkpt lat="44.04324" lon="3.50684">
        <ele>1318.8</ele>
        <time>2026-05-28T11:39:59.999Z</time>
      </trkpt>
      <trkpt lat="44.04325" lon="3.50684">
        <ele>1319.1</ele>
        <time>2026-05-28T11:40:00.999Z</time>
      </trkpt>
      <trkpt lat="44.04325" lon="3.50684">
        <ele>1319.2</ele>
        <time>2026-05-28T11:40:01.999Z</time>
      </trkpt>
      <trkpt lat="44.04325" lon="3.50684">
        <ele>1319.2</ele>
        <time>2026-05-28T11:40:02.999Z</time>
      </trkpt>
      <trkpt lat="44.04325" lon="3.50684">
        <ele>1319.4</ele>
        <time>2026-05-28T11:40:03.999Z</time>
      </trkpt>
      <trkpt lat="44.04325" lon="3.50684">
        <ele>1319.4</ele>
        <time>2026-05-28T11:40:04.999Z</time>
      </trkpt>
      <trkpt lat="44.04325" lon="3.50684">
        <ele>1319.2</ele>
        <time>2026-05-28T11:40:05.999Z</time>
      </trkpt>
      <trkpt lat="44.04325" lon="3.50684">
        <ele>1319</ele>
        <time>2026-05-28T11:40:06.999Z</time>
      </trkpt>
      <trkpt lat="44.04325" lon="3.50684">
        <ele>1319.1</ele>
        <time>2026-05-28T11:40:07.999Z</time>
      </trkpt>
      <trkpt lat="44.04325" lon="3.50684">
        <ele>1319.2</ele>
        <time>2026-05-28T11:40:08.999Z</time>
      </trkpt>
      <trkpt lat="44.04325" lon="3.50685">
        <ele>1319.2</ele>
        <time>2026-05-28T11:40:09.999Z</time>
      </trkpt>
      <trkpt lat="44.04325" lon="3.50685">
        <ele>1319.2</ele>
        <time>2026-05-28T11:40:10.999Z</time>
      </trkpt>
      <trkpt lat="44.04325" lon="3.50685">
        <ele>1319</ele>
        <time>2026-05-28T11:40:11.999Z</time>
      </trkpt>
      <trkpt lat="44.04325" lon="3.50685">
        <ele>1318.6</ele>
        <time>2026-05-28T11:40:12.999Z</time>
      </trkpt>
      <trkpt lat="44.04325" lon="3.50685">
        <ele>1318.5</ele>
        <time>2026-05-28T11:40:13.999Z</time>
      </trkpt>
      <trkpt lat="44.04325" lon="3.50685">
        <ele>1318.6</ele>
        <time>2026-05-28T11:40:14.999Z</time>
      </trkpt>
      <trkpt lat="44.04325" lon="3.50685">
        <ele>1318.6</ele>
        <time>2026-05-28T11:40:15.999Z</time>
      </trkpt>
      <trkpt lat="44.04325" lon="3.50685">
        <ele>1318.7</ele>
        <time>2026-05-28T11:40:16.999Z</time>
      </trkpt>
      <trkpt lat="44.04325" lon="3.50685">
        <ele>1318.8</ele>
        <time>2026-05-28T11:40:17.999Z</time>
      </trkpt>
      <trkpt lat="44.04325" lon="3.50685">
        <ele>1319</ele>
        <time>2026-05-28T11:40:18.999Z</time>
      </trkpt>
      <trkpt lat="44.04325" lon="3.50685">
        <ele>1319.1</ele>
        <time>2026-05-28T11:40:19.999Z</time>
      </trkpt>
      <trkpt lat="44.04325" lon="3.50685">
        <ele>1319</ele>
        <time>2026-05-28T11:40:20.999Z</time>
      </trkpt>
      <trkpt lat="44.04325" lon="3.50686">
        <ele>1319</ele>
        <time>2026-05-28T11:40:21.999Z</time>
      </trkpt>
      <trkpt lat="44.04325" lon="3.50686">
        <ele>1318.7</ele>
        <time>2026-05-28T11:40:22.999Z</time>
      </trkpt>
      <trkpt lat="44.04325" lon="3.50687">
        <ele>1318.5</ele>
        <time>2026-05-28T11:40:23.999Z</time>
      </trkpt>
      <trkpt lat="44.04325" lon="3.50688">
        <ele>1318.6</ele>
        <time>2026-05-28T11:40:24.999Z</time>
      </trkpt>
      <trkpt lat="44.04325" lon="3.50689">
        <ele>1318.7</ele>
        <time>2026-05-28T11:40:25.999Z</time>
      </trkpt>
      <trkpt lat="44.04325" lon="3.50689">
        <ele>1319.1</ele>
        <time>2026-05-28T11:40:26.999Z</time>
      </trkpt>
      <trkpt lat="44.04325" lon="3.50689">
        <ele>1318.6</ele>
        <time>2026-05-28T11:40:27.999Z</time>
      </trkpt>
      <trkpt lat="44.04325" lon="3.50689">
        <ele>1318.5</ele>
        <time>2026-05-28T11:40:28.999Z</time>
      </trkpt>
      <trkpt lat="44.04325" lon="3.50689">
        <ele>1318.5</ele>
        <time>2026-05-28T11:40:29.999Z</time>
      </trkpt>
      <trkpt lat="44.04325" lon="3.50689">
        <ele>1318.4</ele>
        <time>2026-05-28T11:40:30.999Z</time>
      </trkpt>
      <trkpt lat="44.04325" lon="3.50689">
        <ele>1318.1</ele>
        <time>2026-05-28T11:40:31.999Z</time>
      </trkpt>
      <trkpt lat="44.04325" lon="3.50689">
        <ele>1317.8</ele>
        <time>2026-05-28T11:40:32.999Z</time>
      </trkpt>
      <trkpt lat="44.04325" lon="3.50689">
        <ele>1317.6</ele>
        <time>2026-05-28T11:40:33.999Z</time>
      </trkpt>
      <trkpt lat="44.04325" lon="3.50689">
        <ele>1317.2</ele>
        <time>2026-05-28T11:40:34.999Z</time>
      </trkpt>
      <trkpt lat="44.04325" lon="3.50689">
        <ele>1317.1</ele>
        <time>2026-05-28T11:40:35.999Z</time>
      </trkpt>
      <trkpt lat="44.04325" lon="3.50689">
        <ele>1317.1</ele>
        <time>2026-05-28T11:40:36.999Z</time>
      </trkpt>
      <trkpt lat="44.04325" lon="3.50688">
        <ele>1317.2</ele>
        <time>2026-05-28T11:40:37.999Z</time>
      </trkpt>
      <trkpt lat="44.04326" lon="3.50688">
        <ele>1317.4</ele>
        <time>2026-05-28T11:40:38.999Z</time>
      </trkpt>
      <trkpt lat="44.04327" lon="3.50687">
        <ele>1317.6</ele>
        <time>2026-05-28T11:40:39.999Z</time>
      </trkpt>
      <trkpt lat="44.04329" lon="3.50688">
        <ele>1317.5</ele>
        <time>2026-05-28T11:40:40.999Z</time>
      </trkpt>
      <trkpt lat="44.0433" lon="3.50688">
        <ele>1317.6</ele>
        <time>2026-05-28T11:40:41.999Z</time>
      </trkpt>
      <trkpt lat="44.04331" lon="3.50689">
        <ele>1317.2</ele>
        <time>2026-05-28T11:40:42.999Z</time>
      </trkpt>
      <trkpt lat="44.04332" lon="3.50691">
        <ele>1317.3</ele>
        <time>2026-05-28T11:40:43.999Z</time>
      </trkpt>
      <trkpt lat="44.04332" lon="3.50692">
        <ele>1317.8</ele>
        <time>2026-05-28T11:40:44.999Z</time>
      </trkpt>
      <trkpt lat="44.04332" lon="3.50693">
        <ele>1317.9</ele>
        <time>2026-05-28T11:40:45.999Z</time>
      </trkpt>
      <trkpt lat="44.04331" lon="3.50693">
        <ele>1317.8</ele>
        <time>2026-05-28T11:40:46.999Z</time>
      </trkpt>
      <trkpt lat="44.04331" lon="3.50692">
        <ele>1317.7</ele>
        <time>2026-05-28T11:40:47.999Z</time>
      </trkpt>
      <trkpt lat="44.04331" lon="3.50692">
        <ele>1317.8</ele>
        <time>2026-05-28T11:40:48.999Z</time>
      </trkpt>
      <trkpt lat="44.04331" lon="3.50692">
        <ele>1317.8</ele>
        <time>2026-05-28T11:40:49.999Z</time>
      </trkpt>
      <trkpt lat="44.04331" lon="3.50692">
        <ele>1317.8</ele>
        <time>2026-05-28T11:40:50.999Z</time>
      </trkpt>
      <trkpt lat="44.04331" lon="3.50692">
        <ele>1317.9</ele>
        <time>2026-05-28T11:40:51.999Z</time>
      </trkpt>
      <trkpt lat="44.04331" lon="3.50692">
        <ele>1317.9</ele>
        <time>2026-05-28T11:40:52.999Z</time>
      </trkpt>
      <trkpt lat="44.04331" lon="3.50692">
        <ele>1317.9</ele>
        <time>2026-05-28T11:40:53.999Z</time>
      </trkpt>
      <trkpt lat="44.04331" lon="3.50692">
        <ele>1317.9</ele>
        <time>2026-05-28T11:40:54.999Z</time>
      </trkpt>
      <trkpt lat="44.04331" lon="3.50692">
        <ele>1317.7</ele>
        <time>2026-05-28T11:40:55.999Z</time>
      </trkpt>
      <trkpt lat="44.04331" lon="3.50692">
        <ele>1317.7</ele>
        <time>2026-05-28T11:40:56.999Z</time>
      </trkpt>
      <trkpt lat="44.04331" lon="3.50692">
        <ele>1317.6</ele>
        <time>2026-05-28T11:40:57.999Z</time>
      </trkpt>
      <trkpt lat="44.04331" lon="3.50692">
        <ele>1317.7</ele>
        <time>2026-05-28T11:40:58.999Z</time>
      </trkpt>
      <trkpt lat="44.04331" lon="3.50692">
        <ele>1317.9</ele>
        <time>2026-05-28T11:40:59.999Z</time>
      </trkpt>
      <trkpt lat="44.04331" lon="3.50692">
        <ele>1318</ele>
        <time>2026-05-28T11:41:00.999Z</time>
      </trkpt>
      <trkpt lat="44.04331" lon="3.50692">
        <ele>1318</ele>
        <time>2026-05-28T11:41:01.999Z</time>
      </trkpt>
      <trkpt lat="44.04331" lon="3.50692">
        <ele>1318.1</ele>
        <time>2026-05-28T11:41:02.999Z</time>
      </trkpt>
      <trkpt lat="44.04332" lon="3.50691">
        <ele>1318.2</ele>
        <time>2026-05-28T11:41:03.999Z</time>
      </trkpt>
      <trkpt lat="44.04333" lon="3.5069">
        <ele>1318.3</ele>
        <time>2026-05-28T11:41:04.999Z</time>
      </trkpt>
      <trkpt lat="44.04334" lon="3.5069">
        <ele>1318.3</ele>
        <time>2026-05-28T11:41:05.999Z</time>
      </trkpt>
      <trkpt lat="44.04335" lon="3.50691">
        <ele>1318.3</ele>
        <time>2026-05-28T11:41:06.999Z</time>
      </trkpt>
      <trkpt lat="44.04336" lon="3.50692">
        <ele>1318.3</ele>
        <time>2026-05-28T11:41:07.999Z</time>
      </trkpt>
      <trkpt lat="44.04337" lon="3.50694">
        <ele>1318.3</ele>
        <time>2026-05-28T11:41:08.999Z</time>
      </trkpt>
      <trkpt lat="44.04338" lon="3.50694">
        <ele>1318.2</ele>
        <time>2026-05-28T11:41:09.999Z</time>
      </trkpt>
      <trkpt lat="44.04339" lon="3.50695">
        <ele>1318.1</ele>
        <time>2026-05-28T11:41:10.999Z</time>
      </trkpt>
      <trkpt lat="44.04339" lon="3.50695">
        <ele>1318.1</ele>
        <time>2026-05-28T11:41:11.999Z</time>
      </trkpt>
      <trkpt lat="44.04339" lon="3.50695">
        <ele>1318</ele>
        <time>2026-05-28T11:41:12.999Z</time>
      </trkpt>
      <trkpt lat="44.04338" lon="3.50696">
        <ele>1318.1</ele>
        <time>2026-05-28T11:41:13.999Z</time>
      </trkpt>
      <trkpt lat="44.04338" lon="3.50697">
        <ele>1318.2</ele>
        <time>2026-05-28T11:41:14.999Z</time>
      </trkpt>
      <trkpt lat="44.04338" lon="3.50697">
        <ele>1318.2</ele>
        <time>2026-05-28T11:41:15.999Z</time>
      </trkpt>
      <trkpt lat="44.04338" lon="3.50697">
        <ele>1318.4</ele>
        <time>2026-05-28T11:41:16.999Z</time>
      </trkpt>
      <trkpt lat="44.04338" lon="3.50697">
        <ele>1318.6</ele>
        <time>2026-05-28T11:41:17.999Z</time>
      </trkpt>
      <trkpt lat="44.04338" lon="3.50697">
        <ele>1318.8</ele>
        <time>2026-05-28T11:41:18.999Z</time>
      </trkpt>
      <trkpt lat="44.04338" lon="3.50697">
        <ele>1318.9</ele>
        <time>2026-05-28T11:41:19.999Z</time>
      </trkpt>
      <trkpt lat="44.04338" lon="3.50697">
        <ele>1318.9</ele>
        <time>2026-05-28T11:41:20.999Z</time>
      </trkpt>
      <trkpt lat="44.04338" lon="3.50697">
        <ele>1318.8</ele>
        <time>2026-05-28T11:41:21.999Z</time>
      </trkpt>
      <trkpt lat="44.04338" lon="3.50697">
        <ele>1318.8</ele>
        <time>2026-05-28T11:41:22.999Z</time>
      </trkpt>
      <trkpt lat="44.04339" lon="3.50696">
        <ele>1318.9</ele>
        <time>2026-05-28T11:41:23.999Z</time>
      </trkpt>
      <trkpt lat="44.0434" lon="3.50696">
        <ele>1319.1</ele>
        <time>2026-05-28T11:41:24.999Z</time>
      </trkpt>
      <trkpt lat="44.04342" lon="3.50697">
        <ele>1319.1</ele>
        <time>2026-05-28T11:41:25.999Z</time>
      </trkpt>
      <trkpt lat="44.04343" lon="3.50698">
        <ele>1319.1</ele>
        <time>2026-05-28T11:41:26.999Z</time>
      </trkpt>
      <trkpt lat="44.04345" lon="3.50698">
        <ele>1318.9</ele>
        <time>2026-05-28T11:41:27.999Z</time>
      </trkpt>
      <trkpt lat="44.04347" lon="3.50699">
        <ele>1319</ele>
        <time>2026-05-28T11:41:28.999Z</time>
      </trkpt>
      <trkpt lat="44.04348" lon="3.50699">
        <ele>1318.7</ele>
        <time>2026-05-28T11:41:29.999Z</time>
      </trkpt>
      <trkpt lat="44.0435" lon="3.507">
        <ele>1318.6</ele>
        <time>2026-05-28T11:41:30.999Z</time>
      </trkpt>
      <trkpt lat="44.04351" lon="3.50701">
        <ele>1318.5</ele>
        <time>2026-05-28T11:41:31.999Z</time>
      </trkpt>
      <trkpt lat="44.04353" lon="3.50703">
        <ele>1318.2</ele>
        <time>2026-05-28T11:41:32.999Z</time>
      </trkpt>
      <trkpt lat="44.04354" lon="3.50704">
        <ele>1318.1</ele>
        <time>2026-05-28T11:41:33.999Z</time>
      </trkpt>
      <trkpt lat="44.04355" lon="3.50705">
        <ele>1318.2</ele>
        <time>2026-05-28T11:41:34.999Z</time>
      </trkpt>
      <trkpt lat="44.04356" lon="3.50706">
        <ele>1318.1</ele>
        <time>2026-05-28T11:41:35.999Z</time>
      </trkpt>
      <trkpt lat="44.04357" lon="3.50707">
        <ele>1318</ele>
        <time>2026-05-28T11:41:36.999Z</time>
      </trkpt>
      <trkpt lat="44.04359" lon="3.50708">
        <ele>1318.2</ele>
        <time>2026-05-28T11:41:37.999Z</time>
      </trkpt>
      <trkpt lat="44.0436" lon="3.50709">
        <ele>1318.7</ele>
        <time>2026-05-28T11:41:38.999Z</time>
      </trkpt>
      <trkpt lat="44.04361" lon="3.5071">
        <ele>1319</ele>
        <time>2026-05-28T11:41:39.999Z</time>
      </trkpt>
      <trkpt lat="44.04363" lon="3.5071">
        <ele>1319.3</ele>
        <time>2026-05-28T11:41:40.999Z</time>
      </trkpt>
      <trkpt lat="44.04364" lon="3.50711">
        <ele>1319.3</ele>
        <time>2026-05-28T11:41:41.999Z</time>
      </trkpt>
      <trkpt lat="44.04366" lon="3.50712">
        <ele>1319</ele>
        <time>2026-05-28T11:41:42.999Z</time>
      </trkpt>
      <trkpt lat="44.04367" lon="3.50713">
        <ele>1319</ele>
        <time>2026-05-28T11:41:43.999Z</time>
      </trkpt>
      <trkpt lat="44.04368" lon="3.50714">
        <ele>1319</ele>
        <time>2026-05-28T11:41:44.999Z</time>
      </trkpt>
      <trkpt lat="44.04369" lon="3.50715">
        <ele>1318.5</ele>
        <time>2026-05-28T11:41:45.999Z</time>
      </trkpt>
      <trkpt lat="44.0437" lon="3.50717">
        <ele>1318.5</ele>
        <time>2026-05-28T11:41:46.999Z</time>
      </trkpt>
      <trkpt lat="44.04371" lon="3.50718">
        <ele>1318.3</ele>
        <time>2026-05-28T11:41:47.999Z</time>
      </trkpt>
      <trkpt lat="44.04372" lon="3.5072">
        <ele>1318.4</ele>
        <time>2026-05-28T11:41:48.999Z</time>
      </trkpt>
      <trkpt lat="44.04373" lon="3.50721">
        <ele>1318.3</ele>
        <time>2026-05-28T11:41:49.999Z</time>
      </trkpt>
      <trkpt lat="44.04374" lon="3.50723">
        <ele>1318.3</ele>
        <time>2026-05-28T11:41:50.999Z</time>
      </trkpt>
      <trkpt lat="44.04375" lon="3.50724">
        <ele>1318.3</ele>
        <time>2026-05-28T11:41:51.999Z</time>
      </trkpt>
      <trkpt lat="44.04376" lon="3.50725">
        <ele>1318.3</ele>
        <time>2026-05-28T11:41:52.999Z</time>
      </trkpt>
      <trkpt lat="44.04378" lon="3.50726">
        <ele>1318.4</ele>
        <time>2026-05-28T11:41:53.999Z</time>
      </trkpt>
      <trkpt lat="44.04379" lon="3.50726">
        <ele>1318.2</ele>
        <time>2026-05-28T11:41:54.999Z</time>
      </trkpt>
      <trkpt lat="44.0438" lon="3.50727">
        <ele>1318.2</ele>
        <time>2026-05-28T11:41:55.999Z</time>
      </trkpt>
      <trkpt lat="44.04381" lon="3.50727">
        <ele>1318.1</ele>
        <time>2026-05-28T11:41:56.999Z</time>
      </trkpt>
      <trkpt lat="44.04382" lon="3.50728">
        <ele>1318.1</ele>
        <time>2026-05-28T11:41:57.999Z</time>
      </trkpt>
      <trkpt lat="44.04383" lon="3.50729">
        <ele>1317.6</ele>
        <time>2026-05-28T11:41:58.999Z</time>
      </trkpt>
      <trkpt lat="44.04384" lon="3.5073">
        <ele>1317.4</ele>
        <time>2026-05-28T11:41:59.999Z</time>
      </trkpt>
      <trkpt lat="44.04386" lon="3.5073">
        <ele>1317.2</ele>
        <time>2026-05-28T11:42:00.999Z</time>
      </trkpt>
      <trkpt lat="44.04387" lon="3.5073">
        <ele>1316.5</ele>
        <time>2026-05-28T11:42:01.999Z</time>
      </trkpt>
      <trkpt lat="44.04388" lon="3.50731">
        <ele>1316.6</ele>
        <time>2026-05-28T11:42:02.999Z</time>
      </trkpt>
      <trkpt lat="44.0439" lon="3.50731">
        <ele>1316.8</ele>
        <time>2026-05-28T11:42:03.999Z</time>
      </trkpt>
      <trkpt lat="44.04391" lon="3.50732">
        <ele>1317</ele>
        <time>2026-05-28T11:42:04.999Z</time>
      </trkpt>
      <trkpt lat="44.04393" lon="3.50733">
        <ele>1317.1</ele>
        <time>2026-05-28T11:42:05.999Z</time>
      </trkpt>
      <trkpt lat="44.04394" lon="3.50734">
        <ele>1317</ele>
        <time>2026-05-28T11:42:06.999Z</time>
      </trkpt>
      <trkpt lat="44.04395" lon="3.50735">
        <ele>1316.6</ele>
        <time>2026-05-28T11:42:07.999Z</time>
      </trkpt>
      <trkpt lat="44.04396" lon="3.50736">
        <ele>1316.2</ele>
        <time>2026-05-28T11:42:08.999Z</time>
      </trkpt>
      <trkpt lat="44.04397" lon="3.50737">
        <ele>1316</ele>
        <time>2026-05-28T11:42:09.999Z</time>
      </trkpt>
      <trkpt lat="44.04398" lon="3.50738">
        <ele>1315.7</ele>
        <time>2026-05-28T11:42:10.999Z</time>
      </trkpt>
      <trkpt lat="44.04399" lon="3.50739">
        <ele>1315.4</ele>
        <time>2026-05-28T11:42:11.999Z</time>
      </trkpt>
      <trkpt lat="44.044" lon="3.50739">
        <ele>1314.6</ele>
        <time>2026-05-28T11:42:12.999Z</time>
      </trkpt>
      <trkpt lat="44.04401" lon="3.5074">
        <ele>1314.1</ele>
        <time>2026-05-28T11:42:13.999Z</time>
      </trkpt>
      <trkpt lat="44.04402" lon="3.5074">
        <ele>1313.7</ele>
        <time>2026-05-28T11:42:14.999Z</time>
      </trkpt>
      <trkpt lat="44.04403" lon="3.50741">
        <ele>1313.5</ele>
        <time>2026-05-28T11:42:15.999Z</time>
      </trkpt>
      <trkpt lat="44.04405" lon="3.50741">
        <ele>1313.7</ele>
        <time>2026-05-28T11:42:16.999Z</time>
      </trkpt>
      <trkpt lat="44.04406" lon="3.50742">
        <ele>1313.7</ele>
        <time>2026-05-28T11:42:17.999Z</time>
      </trkpt>
      <trkpt lat="44.04407" lon="3.50743">
        <ele>1313.5</ele>
        <time>2026-05-28T11:42:18.999Z</time>
      </trkpt>
      <trkpt lat="44.04408" lon="3.50744">
        <ele>1313.3</ele>
        <time>2026-05-28T11:42:19.999Z</time>
      </trkpt>
      <trkpt lat="44.0441" lon="3.50744">
        <ele>1313.2</ele>
        <time>2026-05-28T11:42:20.999Z</time>
      </trkpt>
      <trkpt lat="44.04411" lon="3.50744">
        <ele>1313.1</ele>
        <time>2026-05-28T11:42:21.999Z</time>
      </trkpt>
      <trkpt lat="44.04412" lon="3.50745">
        <ele>1313.1</ele>
        <time>2026-05-28T11:42:22.999Z</time>
      </trkpt>
      <trkpt lat="44.04413" lon="3.50746">
        <ele>1313.9</ele>
        <time>2026-05-28T11:42:23.999Z</time>
      </trkpt>
      <trkpt lat="44.04413" lon="3.50747">
        <ele>1314.5</ele>
        <time>2026-05-28T11:42:24.999Z</time>
      </trkpt>
      <trkpt lat="44.04413" lon="3.50748">
        <ele>1314.5</ele>
        <time>2026-05-28T11:42:25.999Z</time>
      </trkpt>
      <trkpt lat="44.04413" lon="3.50747">
        <ele>1314.6</ele>
        <time>2026-05-28T11:42:26.999Z</time>
      </trkpt>
      <trkpt lat="44.04413" lon="3.50746">
        <ele>1314.7</ele>
        <time>2026-05-28T11:42:27.999Z</time>
      </trkpt>
      <trkpt lat="44.04413" lon="3.50746">
        <ele>1314.8</ele>
        <time>2026-05-28T11:42:28.999Z</time>
      </trkpt>
      <trkpt lat="44.04413" lon="3.50746">
        <ele>1315.1</ele>
        <time>2026-05-28T11:42:29.999Z</time>
      </trkpt>
      <trkpt lat="44.04413" lon="3.50746">
        <ele>1315.4</ele>
        <time>2026-05-28T11:42:30.999Z</time>
      </trkpt>
      <trkpt lat="44.04413" lon="3.50746">
        <ele>1315.7</ele>
        <time>2026-05-28T11:42:31.999Z</time>
      </trkpt>
      <trkpt lat="44.04413" lon="3.50746">
        <ele>1316.1</ele>
        <time>2026-05-28T11:42:32.999Z</time>
      </trkpt>
      <trkpt lat="44.04413" lon="3.50746">
        <ele>1316.4</ele>
        <time>2026-05-28T11:42:33.999Z</time>
      </trkpt>
      <trkpt lat="44.04413" lon="3.50746">
        <ele>1316.4</ele>
        <time>2026-05-28T11:42:34.999Z</time>
      </trkpt>
      <trkpt lat="44.04413" lon="3.50746">
        <ele>1316.5</ele>
        <time>2026-05-28T11:42:35.999Z</time>
      </trkpt>
      <trkpt lat="44.04414" lon="3.50746">
        <ele>1316.7</ele>
        <time>2026-05-28T11:42:36.999Z</time>
      </trkpt>
      <trkpt lat="44.04416" lon="3.50746">
        <ele>1316.7</ele>
        <time>2026-05-28T11:42:37.999Z</time>
      </trkpt>
      <trkpt lat="44.04418" lon="3.50747">
        <ele>1316.5</ele>
        <time>2026-05-28T11:42:38.999Z</time>
      </trkpt>
      <trkpt lat="44.04419" lon="3.50747">
        <ele>1316.2</ele>
        <time>2026-05-28T11:42:39.999Z</time>
      </trkpt>
      <trkpt lat="44.04421" lon="3.50747">
        <ele>1315.9</ele>
        <time>2026-05-28T11:42:40.999Z</time>
      </trkpt>
      <trkpt lat="44.04423" lon="3.50748">
        <ele>1315.7</ele>
        <time>2026-05-28T11:42:41.999Z</time>
      </trkpt>
      <trkpt lat="44.04425" lon="3.50748">
        <ele>1315.5</ele>
        <time>2026-05-28T11:42:42.999Z</time>
      </trkpt>
      <trkpt lat="44.04426" lon="3.50748">
        <ele>1315.3</ele>
        <time>2026-05-28T11:42:43.999Z</time>
      </trkpt>
      <trkpt lat="44.04427" lon="3.50748">
        <ele>1315.5</ele>
        <time>2026-05-28T11:42:44.999Z</time>
      </trkpt>
      <trkpt lat="44.04429" lon="3.50749">
        <ele>1315.6</ele>
        <time>2026-05-28T11:42:45.999Z</time>
      </trkpt>
      <trkpt lat="44.0443" lon="3.50749">
        <ele>1315.4</ele>
        <time>2026-05-28T11:42:46.999Z</time>
      </trkpt>
      <trkpt lat="44.04431" lon="3.50749">
        <ele>1315</ele>
        <time>2026-05-28T11:42:47.999Z</time>
      </trkpt>
      <trkpt lat="44.04432" lon="3.50748">
        <ele>1314.6</ele>
        <time>2026-05-28T11:42:48.999Z</time>
      </trkpt>
      <trkpt lat="44.04434" lon="3.50749">
        <ele>1314.6</ele>
        <time>2026-05-28T11:42:49.999Z</time>
      </trkpt>
      <trkpt lat="44.04435" lon="3.50749">
        <ele>1314.5</ele>
        <time>2026-05-28T11:42:50.999Z</time>
      </trkpt>
      <trkpt lat="44.04437" lon="3.50749">
        <ele>1314.6</ele>
        <time>2026-05-28T11:42:51.999Z</time>
      </trkpt>
      <trkpt lat="44.04438" lon="3.50749">
        <ele>1314.8</ele>
        <time>2026-05-28T11:42:52.999Z</time>
      </trkpt>
      <trkpt lat="44.0444" lon="3.5075">
        <ele>1314.7</ele>
        <time>2026-05-28T11:42:53.999Z</time>
      </trkpt>
      <trkpt lat="44.04442" lon="3.5075">
        <ele>1314.8</ele>
        <time>2026-05-28T11:42:54.999Z</time>
      </trkpt>
      <trkpt lat="44.04444" lon="3.5075">
        <ele>1314.8</ele>
        <time>2026-05-28T11:42:55.999Z</time>
      </trkpt>
      <trkpt lat="44.04445" lon="3.50751">
        <ele>1314.8</ele>
        <time>2026-05-28T11:42:56.999Z</time>
      </trkpt>
      <trkpt lat="44.04446" lon="3.50751">
        <ele>1314.7</ele>
        <time>2026-05-28T11:42:57.999Z</time>
      </trkpt>
      <trkpt lat="44.04447" lon="3.50752">
        <ele>1314.5</ele>
        <time>2026-05-28T11:42:59.999Z</time>
      </trkpt>
      <trkpt lat="44.04449" lon="3.50752">
        <ele>1314.5</ele>
        <time>2026-05-28T11:43:00.999Z</time>
      </trkpt>
      <trkpt lat="44.04449" lon="3.50753">
        <ele>1314.7</ele>
        <time>2026-05-28T11:43:01.999Z</time>
      </trkpt>
      <trkpt lat="44.04451" lon="3.50754">
        <ele>1314.7</ele>
        <time>2026-05-28T11:43:02.999Z</time>
      </trkpt>
      <trkpt lat="44.04452" lon="3.50757">
        <ele>1314.4</ele>
        <time>2026-05-28T11:43:03.999Z</time>
      </trkpt>
      <trkpt lat="44.04453" lon="3.50758">
        <ele>1313.8</ele>
        <time>2026-05-28T11:43:04.999Z</time>
      </trkpt>
      <trkpt lat="44.04454" lon="3.50759">
        <ele>1313.6</ele>
        <time>2026-05-28T11:43:05.999Z</time>
      </trkpt>
      <trkpt lat="44.04456" lon="3.50759">
        <ele>1313.7</ele>
        <time>2026-05-28T11:43:06.999Z</time>
      </trkpt>
      <trkpt lat="44.04457" lon="3.50758">
        <ele>1313.6</ele>
        <time>2026-05-28T11:43:07.999Z</time>
      </trkpt>
      <trkpt lat="44.04458" lon="3.50758">
        <ele>1313.6</ele>
        <time>2026-05-28T11:43:08.999Z</time>
      </trkpt>
      <trkpt lat="44.04459" lon="3.50758">
        <ele>1314</ele>
        <time>2026-05-28T11:43:09.999Z</time>
      </trkpt>
      <trkpt lat="44.04461" lon="3.50758">
        <ele>1314.4</ele>
        <time>2026-05-28T11:43:10.999Z</time>
      </trkpt>
      <trkpt lat="44.04462" lon="3.50757">
        <ele>1313.9</ele>
        <time>2026-05-28T11:43:11.999Z</time>
      </trkpt>
      <trkpt lat="44.04463" lon="3.50757">
        <ele>1313.9</ele>
        <time>2026-05-28T11:43:12.999Z</time>
      </trkpt>
      <trkpt lat="44.04464" lon="3.50758">
        <ele>1314</ele>
        <time>2026-05-28T11:43:13.999Z</time>
      </trkpt>
      <trkpt lat="44.04466" lon="3.50759">
        <ele>1314.3</ele>
        <time>2026-05-28T11:43:14.999Z</time>
      </trkpt>
      <trkpt lat="44.04466" lon="3.50758">
        <ele>1314.2</ele>
        <time>2026-05-28T11:43:15.999Z</time>
      </trkpt>
      <trkpt lat="44.04467" lon="3.50758">
        <ele>1314.1</ele>
        <time>2026-05-28T11:43:16.999Z</time>
      </trkpt>
      <trkpt lat="44.04468" lon="3.50758">
        <ele>1314.3</ele>
        <time>2026-05-28T11:43:17.999Z</time>
      </trkpt>
      <trkpt lat="44.04469" lon="3.50758">
        <ele>1314.2</ele>
        <time>2026-05-28T11:43:18.999Z</time>
      </trkpt>
      <trkpt lat="44.0447" lon="3.50758">
        <ele>1314</ele>
        <time>2026-05-28T11:43:19.999Z</time>
      </trkpt>
      <trkpt lat="44.04472" lon="3.50758">
        <ele>1313.6</ele>
        <time>2026-05-28T11:43:20.999Z</time>
      </trkpt>
      <trkpt lat="44.04473" lon="3.50758">
        <ele>1313.5</ele>
        <time>2026-05-28T11:43:21.999Z</time>
      </trkpt>
      <trkpt lat="44.04475" lon="3.50759">
        <ele>1313.8</ele>
        <time>2026-05-28T11:43:22.999Z</time>
      </trkpt>
      <trkpt lat="44.04476" lon="3.50759">
        <ele>1313.8</ele>
        <time>2026-05-28T11:43:23.999Z</time>
      </trkpt>
      <trkpt lat="44.04478" lon="3.50757">
        <ele>1313.6</ele>
        <time>2026-05-28T11:43:24.999Z</time>
      </trkpt>
      <trkpt lat="44.04479" lon="3.50756">
        <ele>1313.9</ele>
        <time>2026-05-28T11:43:25.999Z</time>
      </trkpt>
      <trkpt lat="44.0448" lon="3.50756">
        <ele>1314.2</ele>
        <time>2026-05-28T11:43:26.999Z</time>
      </trkpt>
      <trkpt lat="44.04482" lon="3.50757">
        <ele>1314.4</ele>
        <time>2026-05-28T11:43:27.999Z</time>
      </trkpt>
      <trkpt lat="44.04483" lon="3.50758">
        <ele>1314.5</ele>
        <time>2026-05-28T11:43:28.999Z</time>
      </trkpt>
      <trkpt lat="44.04484" lon="3.50757">
        <ele>1314.3</ele>
        <time>2026-05-28T11:43:29.999Z</time>
      </trkpt>
      <trkpt lat="44.04485" lon="3.50756">
        <ele>1314</ele>
        <time>2026-05-28T11:43:30.999Z</time>
      </trkpt>
      <trkpt lat="44.04486" lon="3.50755">
        <ele>1313.8</ele>
        <time>2026-05-28T11:43:31.999Z</time>
      </trkpt>
      <trkpt lat="44.04488" lon="3.50755">
        <ele>1313.6</ele>
        <time>2026-05-28T11:43:32.999Z</time>
      </trkpt>
      <trkpt lat="44.04489" lon="3.50755">
        <ele>1313.9</ele>
        <time>2026-05-28T11:43:33.999Z</time>
      </trkpt>
      <trkpt lat="44.04491" lon="3.50754">
        <ele>1313.8</ele>
        <time>2026-05-28T11:43:34.999Z</time>
      </trkpt>
      <trkpt lat="44.04492" lon="3.50753">
        <ele>1313.7</ele>
        <time>2026-05-28T11:43:35.999Z</time>
      </trkpt>
      <trkpt lat="44.04493" lon="3.50752">
        <ele>1313.3</ele>
        <time>2026-05-28T11:43:36.999Z</time>
      </trkpt>
      <trkpt lat="44.04494" lon="3.50752">
        <ele>1313.2</ele>
        <time>2026-05-28T11:43:37.999Z</time>
      </trkpt>
      <trkpt lat="44.04495" lon="3.50751">
        <ele>1313.1</ele>
        <time>2026-05-28T11:43:38.999Z</time>
      </trkpt>
      <trkpt lat="44.04496" lon="3.50752">
        <ele>1313.9</ele>
        <time>2026-05-28T11:43:39.999Z</time>
      </trkpt>
      <trkpt lat="44.04497" lon="3.50751">
        <ele>1314.1</ele>
        <time>2026-05-28T11:43:40.999Z</time>
      </trkpt>
      <trkpt lat="44.04498" lon="3.5075">
        <ele>1314.2</ele>
        <time>2026-05-28T11:43:41.999Z</time>
      </trkpt>
      <trkpt lat="44.04498" lon="3.50749">
        <ele>1314</ele>
        <time>2026-05-28T11:43:42.999Z</time>
      </trkpt>
      <trkpt lat="44.045" lon="3.50749">
        <ele>1313.7</ele>
        <time>2026-05-28T11:43:43.999Z</time>
      </trkpt>
      <trkpt lat="44.04502" lon="3.50748">
        <ele>1313.8</ele>
        <time>2026-05-28T11:43:44.999Z</time>
      </trkpt>
      <trkpt lat="44.04504" lon="3.5075">
        <ele>1314</ele>
        <time>2026-05-28T11:43:45.999Z</time>
      </trkpt>
      <trkpt lat="44.04505" lon="3.50751">
        <ele>1313.8</ele>
        <time>2026-05-28T11:43:46.999Z</time>
      </trkpt>
      <trkpt lat="44.04506" lon="3.50752">
        <ele>1314.1</ele>
        <time>2026-05-28T11:43:47.999Z</time>
      </trkpt>
      <trkpt lat="44.04508" lon="3.50752">
        <ele>1313.8</ele>
        <time>2026-05-28T11:43:48.999Z</time>
      </trkpt>
      <trkpt lat="44.04509" lon="3.50752">
        <ele>1313.9</ele>
        <time>2026-05-28T11:43:49.999Z</time>
      </trkpt>
      <trkpt lat="44.0451" lon="3.50752">
        <ele>1313.7</ele>
        <time>2026-05-28T11:43:50.999Z</time>
      </trkpt>
      <trkpt lat="44.04511" lon="3.50753">
        <ele>1313.6</ele>
        <time>2026-05-28T11:43:51.999Z</time>
      </trkpt>
      <trkpt lat="44.04511" lon="3.50753">
        <ele>1313.4</ele>
        <time>2026-05-28T11:43:52.999Z</time>
      </trkpt>
      <trkpt lat="44.04511" lon="3.50752">
        <ele>1313.2</ele>
        <time>2026-05-28T11:43:53.999Z</time>
      </trkpt>
      <trkpt lat="44.04511" lon="3.50753">
        <ele>1313.4</ele>
        <time>2026-05-28T11:43:54.999Z</time>
      </trkpt>
      <trkpt lat="44.04512" lon="3.50752">
        <ele>1314.6</ele>
        <time>2026-05-28T11:43:55.999Z</time>
      </trkpt>
      <trkpt lat="44.04513" lon="3.50752">
        <ele>1314.6</ele>
        <time>2026-05-28T11:43:56.999Z</time>
      </trkpt>
      <trkpt lat="44.04513" lon="3.50752">
        <ele>1315</ele>
        <time>2026-05-28T11:43:57.999Z</time>
      </trkpt>
      <trkpt lat="44.04514" lon="3.50751">
        <ele>1315.3</ele>
        <time>2026-05-28T11:43:58.999Z</time>
      </trkpt>
      <trkpt lat="44.04514" lon="3.50751">
        <ele>1315.7</ele>
        <time>2026-05-28T11:43:59.999Z</time>
      </trkpt>
      <trkpt lat="44.04514" lon="3.50751">
        <ele>1316.1</ele>
        <time>2026-05-28T11:44:00.999Z</time>
      </trkpt>
      <trkpt lat="44.04515" lon="3.50751">
        <ele>1316.4</ele>
        <time>2026-05-28T11:44:01.999Z</time>
      </trkpt>
      <trkpt lat="44.04515" lon="3.50751">
        <ele>1316.5</ele>
        <time>2026-05-28T11:44:02.999Z</time>
      </trkpt>
      <trkpt lat="44.04515" lon="3.50752">
        <ele>1316.6</ele>
        <time>2026-05-28T11:44:04.000Z</time>
      </trkpt>
      <trkpt lat="44.04515" lon="3.50752">
        <ele>1316.8</ele>
        <time>2026-05-28T11:44:05.000Z</time>
      </trkpt>
      <trkpt lat="44.04515" lon="3.50751">
        <ele>1317</ele>
        <time>2026-05-28T11:44:06.000Z</time>
      </trkpt>
      <trkpt lat="44.04515" lon="3.50751">
        <ele>1317.3</ele>
        <time>2026-05-28T11:44:07.000Z</time>
      </trkpt>
      <trkpt lat="44.04515" lon="3.50751">
        <ele>1317.6</ele>
        <time>2026-05-28T11:44:08.000Z</time>
      </trkpt>
      <trkpt lat="44.04515" lon="3.50751">
        <ele>1317.8</ele>
        <time>2026-05-28T11:44:09.000Z</time>
      </trkpt>
      <trkpt lat="44.04515" lon="3.50751">
        <ele>1317.7</ele>
        <time>2026-05-28T11:44:10.000Z</time>
      </trkpt>
      <trkpt lat="44.04515" lon="3.50751">
        <ele>1318</ele>
        <time>2026-05-28T11:44:11.000Z</time>
      </trkpt>
      <trkpt lat="44.04515" lon="3.5075">
        <ele>1318.3</ele>
        <time>2026-05-28T11:44:12.000Z</time>
      </trkpt>
      <trkpt lat="44.04516" lon="3.5075">
        <ele>1318.4</ele>
        <time>2026-05-28T11:44:13.000Z</time>
      </trkpt>
      <trkpt lat="44.04516" lon="3.5075">
        <ele>1318.8</ele>
        <time>2026-05-28T11:44:14.000Z</time>
      </trkpt>
      <trkpt lat="44.04516" lon="3.5075">
        <ele>1319.3</ele>
        <time>2026-05-28T11:44:15.000Z</time>
      </trkpt>
      <trkpt lat="44.04516" lon="3.5075">
        <ele>1319.5</ele>
        <time>2026-05-28T11:44:16.000Z</time>
      </trkpt>
      <trkpt lat="44.04517" lon="3.5075">
        <ele>1319.7</ele>
        <time>2026-05-28T11:44:17.000Z</time>
      </trkpt>
      <trkpt lat="44.04518" lon="3.50748">
        <ele>1319.6</ele>
        <time>2026-05-28T11:44:18.000Z</time>
      </trkpt>
      <trkpt lat="44.04519" lon="3.50747">
        <ele>1319.7</ele>
        <time>2026-05-28T11:44:19.000Z</time>
      </trkpt>
      <trkpt lat="44.04519" lon="3.50746">
        <ele>1320</ele>
        <time>2026-05-28T11:44:20.000Z</time>
      </trkpt>
      <trkpt lat="44.04519" lon="3.50746">
        <ele>1320.2</ele>
        <time>2026-05-28T11:44:21.000Z</time>
      </trkpt>
      <trkpt lat="44.04519" lon="3.50745">
        <ele>1320.1</ele>
        <time>2026-05-28T11:44:22.000Z</time>
      </trkpt>
      <trkpt lat="44.04519" lon="3.50745">
        <ele>1320.3</ele>
        <time>2026-05-28T11:44:23.000Z</time>
      </trkpt>
      <trkpt lat="44.0452" lon="3.50745">
        <ele>1320.7</ele>
        <time>2026-05-28T11:44:24.000Z</time>
      </trkpt>
      <trkpt lat="44.0452" lon="3.50745">
        <ele>1321.1</ele>
        <time>2026-05-28T11:44:25.000Z</time>
      </trkpt>
      <trkpt lat="44.04521" lon="3.50744">
        <ele>1321.6</ele>
        <time>2026-05-28T11:44:26.000Z</time>
      </trkpt>
      <trkpt lat="44.04521" lon="3.50745">
        <ele>1322</ele>
        <time>2026-05-28T11:44:27.000Z</time>
      </trkpt>
      <trkpt lat="44.04521" lon="3.50745">
        <ele>1322.4</ele>
        <time>2026-05-28T11:44:28.000Z</time>
      </trkpt>
      <trkpt lat="44.04522" lon="3.50745">
        <ele>1323</ele>
        <time>2026-05-28T11:44:29.000Z</time>
      </trkpt>
      <trkpt lat="44.04523" lon="3.50744">
        <ele>1323.6</ele>
        <time>2026-05-28T11:44:30.000Z</time>
      </trkpt>
      <trkpt lat="44.04524" lon="3.50743">
        <ele>1324.1</ele>
        <time>2026-05-28T11:44:31.000Z</time>
      </trkpt>
      <trkpt lat="44.04525" lon="3.50742">
        <ele>1324.5</ele>
        <time>2026-05-28T11:44:32.000Z</time>
      </trkpt>
      <trkpt lat="44.04526" lon="3.5074">
        <ele>1325</ele>
        <time>2026-05-28T11:44:33.000Z</time>
      </trkpt>
      <trkpt lat="44.04527" lon="3.50739">
        <ele>1325.3</ele>
        <time>2026-05-28T11:44:34.000Z</time>
      </trkpt>
      <trkpt lat="44.04528" lon="3.50737">
        <ele>1325.5</ele>
        <time>2026-05-28T11:44:35.000Z</time>
      </trkpt>
      <trkpt lat="44.04529" lon="3.50736">
        <ele>1325.9</ele>
        <time>2026-05-28T11:44:36.000Z</time>
      </trkpt>
      <trkpt lat="44.04529" lon="3.50736">
        <ele>1326</ele>
        <time>2026-05-28T11:44:37.000Z</time>
      </trkpt>
      <trkpt lat="44.04531" lon="3.50736">
        <ele>1325.9</ele>
        <time>2026-05-28T11:44:38.000Z</time>
      </trkpt>
      <trkpt lat="44.04534" lon="3.50737">
        <ele>1324.9</ele>
        <time>2026-05-28T11:44:39.000Z</time>
      </trkpt>
      <trkpt lat="44.04536" lon="3.50738">
        <ele>1324.9</ele>
        <time>2026-05-28T11:44:40.000Z</time>
      </trkpt>
      <trkpt lat="44.04537" lon="3.50739">
        <ele>1324.7</ele>
        <time>2026-05-28T11:44:41.000Z</time>
      </trkpt>
      <trkpt lat="44.04539" lon="3.50741">
        <ele>1324.6</ele>
        <time>2026-05-28T11:44:42.000Z</time>
      </trkpt>
      <trkpt lat="44.04539" lon="3.50741">
        <ele>1324.6</ele>
        <time>2026-05-28T11:44:43.000Z</time>
      </trkpt>
      <trkpt lat="44.04539" lon="3.50741">
        <ele>1324.1</ele>
        <time>2026-05-28T11:44:44.000Z</time>
      </trkpt>
      <trkpt lat="44.04539" lon="3.50741">
        <ele>1324.4</ele>
        <time>2026-05-28T11:44:45.000Z</time>
      </trkpt>
      <trkpt lat="44.04539" lon="3.50741">
        <ele>1324</ele>
        <time>2026-05-28T11:44:46.000Z</time>
      </trkpt>
      <trkpt lat="44.04539" lon="3.50741">
        <ele>1323.7</ele>
        <time>2026-05-28T11:44:47.000Z</time>
      </trkpt>
      <trkpt lat="44.0454" lon="3.50741">
        <ele>1323.6</ele>
        <time>2026-05-28T11:44:48.000Z</time>
      </trkpt>
      <trkpt lat="44.0454" lon="3.50741">
        <ele>1323.4</ele>
        <time>2026-05-28T11:44:49.000Z</time>
      </trkpt>
      <trkpt lat="44.0454" lon="3.50742">
        <ele>1323.1</ele>
        <time>2026-05-28T11:44:50.000Z</time>
      </trkpt>
      <trkpt lat="44.0454" lon="3.50742">
        <ele>1322.9</ele>
        <time>2026-05-28T11:44:51.000Z</time>
      </trkpt>
      <trkpt lat="44.0454" lon="3.50742">
        <ele>1322.6</ele>
        <time>2026-05-28T11:44:52.000Z</time>
      </trkpt>
      <trkpt lat="44.0454" lon="3.50742">
        <ele>1322.4</ele>
        <time>2026-05-28T11:44:53.000Z</time>
      </trkpt>
      <trkpt lat="44.0454" lon="3.50743">
        <ele>1322.2</ele>
        <time>2026-05-28T11:44:54.000Z</time>
      </trkpt>
      <trkpt lat="44.04541" lon="3.50745">
        <ele>1321.7</ele>
        <time>2026-05-28T11:44:55.000Z</time>
      </trkpt>
      <trkpt lat="44.04542" lon="3.50747">
        <ele>1321.6</ele>
        <time>2026-05-28T11:44:56.000Z</time>
      </trkpt>
      <trkpt lat="44.04543" lon="3.50749">
        <ele>1321.6</ele>
        <time>2026-05-28T11:44:57.000Z</time>
      </trkpt>
      <trkpt lat="44.04544" lon="3.50752">
        <ele>1321.6</ele>
        <time>2026-05-28T11:44:58.000Z</time>
      </trkpt>
      <trkpt lat="44.04545" lon="3.50754">
        <ele>1321.6</ele>
        <time>2026-05-28T11:44:59.000Z</time>
      </trkpt>
      <trkpt lat="44.04546" lon="3.50756">
        <ele>1321.3</ele>
        <time>2026-05-28T11:45:00.000Z</time>
      </trkpt>
      <trkpt lat="44.04546" lon="3.50758">
        <ele>1321.4</ele>
        <time>2026-05-28T11:45:01.000Z</time>
      </trkpt>
      <trkpt lat="44.04546" lon="3.50759">
        <ele>1321.6</ele>
        <time>2026-05-28T11:45:02.000Z</time>
      </trkpt>
      <trkpt lat="44.04546" lon="3.5076">
        <ele>1321.8</ele>
        <time>2026-05-28T11:45:03.000Z</time>
      </trkpt>
      <trkpt lat="44.04547" lon="3.50762">
        <ele>1322</ele>
        <time>2026-05-28T11:45:05.000Z</time>
      </trkpt>
      <trkpt lat="44.04548" lon="3.50764">
        <ele>1321.6</ele>
        <time>2026-05-28T11:45:06.000Z</time>
      </trkpt>
      <trkpt lat="44.04547" lon="3.50766">
        <ele>1321.4</ele>
        <time>2026-05-28T11:45:07.000Z</time>
      </trkpt>
      <trkpt lat="44.04547" lon="3.50767">
        <ele>1321.3</ele>
        <time>2026-05-28T11:45:08.000Z</time>
      </trkpt>
      <trkpt lat="44.04547" lon="3.50768">
        <ele>1320.8</ele>
        <time>2026-05-28T11:45:09.000Z</time>
      </trkpt>
      <trkpt lat="44.04547" lon="3.5077">
        <ele>1320.2</ele>
        <time>2026-05-28T11:45:10.000Z</time>
      </trkpt>
      <trkpt lat="44.04548" lon="3.50771">
        <ele>1319.6</ele>
        <time>2026-05-28T11:45:11.000Z</time>
      </trkpt>
      <trkpt lat="44.04548" lon="3.50772">
        <ele>1319.4</ele>
        <time>2026-05-28T11:45:12.000Z</time>
      </trkpt>
      <trkpt lat="44.04548" lon="3.50773">
        <ele>1318.9</ele>
        <time>2026-05-28T11:45:13.000Z</time>
      </trkpt>
      <trkpt lat="44.04548" lon="3.50775">
        <ele>1318.6</ele>
        <time>2026-05-28T11:45:14.000Z</time>
      </trkpt>
      <trkpt lat="44.04548" lon="3.50775">
        <ele>1317.2</ele>
        <time>2026-05-28T11:45:15.000Z</time>
      </trkpt>
      <trkpt lat="44.04547" lon="3.50775">
        <ele>1316.6</ele>
        <time>2026-05-28T11:45:16.000Z</time>
      </trkpt>
      <trkpt lat="44.04547" lon="3.50775">
        <ele>1316.4</ele>
        <time>2026-05-28T11:45:17.000Z</time>
      </trkpt>
      <trkpt lat="44.04548" lon="3.50775">
        <ele>1315.8</ele>
        <time>2026-05-28T11:45:18.000Z</time>
      </trkpt>
      <trkpt lat="44.04548" lon="3.50775">
        <ele>1315</ele>
        <time>2026-05-28T11:45:19.000Z</time>
      </trkpt>
      <trkpt lat="44.04548" lon="3.50776">
        <ele>1314.4</ele>
        <time>2026-05-28T11:45:20.000Z</time>
      </trkpt>
      <trkpt lat="44.04549" lon="3.50776">
        <ele>1314.1</ele>
        <time>2026-05-28T11:45:21.000Z</time>
      </trkpt>
      <trkpt lat="44.04549" lon="3.50776">
        <ele>1314.1</ele>
        <time>2026-05-28T11:45:22.000Z</time>
      </trkpt>
      <trkpt lat="44.04549" lon="3.50775">
        <ele>1314.4</ele>
        <time>2026-05-28T11:45:23.000Z</time>
      </trkpt>
      <trkpt lat="44.04549" lon="3.50775">
        <ele>1314.7</ele>
        <time>2026-05-28T11:45:24.000Z</time>
      </trkpt>
      <trkpt lat="44.04548" lon="3.50775">
        <ele>1314.7</ele>
        <time>2026-05-28T11:45:25.000Z</time>
      </trkpt>
      <trkpt lat="44.04547" lon="3.50775">
        <ele>1314.8</ele>
        <time>2026-05-28T11:45:26.000Z</time>
      </trkpt>
      <trkpt lat="44.04548" lon="3.50776">
        <ele>1315</ele>
        <time>2026-05-28T11:45:27.000Z</time>
      </trkpt>
      <trkpt lat="44.04548" lon="3.50776">
        <ele>1315.1</ele>
        <time>2026-05-28T11:45:28.000Z</time>
      </trkpt>
      <trkpt lat="44.04548" lon="3.50777">
        <ele>1315.4</ele>
        <time>2026-05-28T11:45:29.000Z</time>
      </trkpt>
      <trkpt lat="44.04548" lon="3.50778">
        <ele>1316.4</ele>
        <time>2026-05-28T11:45:30.000Z</time>
      </trkpt>
      <trkpt lat="44.04548" lon="3.50778">
        <ele>1316.7</ele>
        <time>2026-05-28T11:45:31.000Z</time>
      </trkpt>
      <trkpt lat="44.04547" lon="3.50778">
        <ele>1316.7</ele>
        <time>2026-05-28T11:45:32.000Z</time>
      </trkpt>
      <trkpt lat="44.04547" lon="3.50778">
        <ele>1316.8</ele>
        <time>2026-05-28T11:45:33.000Z</time>
      </trkpt>
      <trkpt lat="44.04546" lon="3.50778">
        <ele>1316.9</ele>
        <time>2026-05-28T11:45:34.000Z</time>
      </trkpt>
      <trkpt lat="44.04544" lon="3.5078">
        <ele>1316.8</ele>
        <time>2026-05-28T11:45:35.000Z</time>
      </trkpt>
      <trkpt lat="44.04543" lon="3.50781">
        <ele>1316.7</ele>
        <time>2026-05-28T11:45:36.000Z</time>
      </trkpt>
      <trkpt lat="44.04543" lon="3.50781">
        <ele>1316.5</ele>
        <time>2026-05-28T11:45:37.000Z</time>
      </trkpt>
      <trkpt lat="44.04542" lon="3.50782">
        <ele>1316.4</ele>
        <time>2026-05-28T11:45:38.000Z</time>
      </trkpt>
      <trkpt lat="44.04541" lon="3.50783">
        <ele>1316.5</ele>
        <time>2026-05-28T11:45:39.000Z</time>
      </trkpt>
      <trkpt lat="44.04539" lon="3.50786">
        <ele>1316.6</ele>
        <time>2026-05-28T11:45:40.000Z</time>
      </trkpt>
      <trkpt lat="44.04538" lon="3.50789">
        <ele>1316.5</ele>
        <time>2026-05-28T11:45:41.000Z</time>
      </trkpt>
      <trkpt lat="44.04537" lon="3.50792">
        <ele>1316.3</ele>
        <time>2026-05-28T11:45:42.000Z</time>
      </trkpt>
      <trkpt lat="44.04536" lon="3.50794">
        <ele>1316.3</ele>
        <time>2026-05-28T11:45:43.000Z</time>
      </trkpt>
      <trkpt lat="44.04536" lon="3.50797">
        <ele>1316.6</ele>
        <time>2026-05-28T11:45:44.000Z</time>
      </trkpt>
      <trkpt lat="44.04536" lon="3.50797">
        <ele>1317.8</ele>
        <time>2026-05-28T11:45:45.000Z</time>
      </trkpt>
      <trkpt lat="44.04536" lon="3.50798">
        <ele>1317.8</ele>
        <time>2026-05-28T11:45:46.000Z</time>
      </trkpt>
      <trkpt lat="44.04535" lon="3.50798">
        <ele>1318.1</ele>
        <time>2026-05-28T11:45:47.000Z</time>
      </trkpt>
      <trkpt lat="44.04535" lon="3.50799">
        <ele>1318.2</ele>
        <time>2026-05-28T11:45:48.000Z</time>
      </trkpt>
      <trkpt lat="44.04535" lon="3.50799">
        <ele>1317.8</ele>
        <time>2026-05-28T11:45:49.000Z</time>
      </trkpt>
      <trkpt lat="44.04535" lon="3.50802">
        <ele>1318.4</ele>
        <time>2026-05-28T11:45:50.000Z</time>
      </trkpt>
      <trkpt lat="44.04534" lon="3.50804">
        <ele>1318.8</ele>
        <time>2026-05-28T11:45:51.000Z</time>
      </trkpt>
      <trkpt lat="44.04534" lon="3.50806">
        <ele>1319.1</ele>
        <time>2026-05-28T11:45:52.000Z</time>
      </trkpt>
      <trkpt lat="44.04533" lon="3.50807">
        <ele>1318.6</ele>
        <time>2026-05-28T11:45:53.000Z</time>
      </trkpt>
      <trkpt lat="44.04532" lon="3.50809">
        <ele>1318.6</ele>
        <time>2026-05-28T11:45:54.000Z</time>
      </trkpt>
      <trkpt lat="44.04531" lon="3.50812">
        <ele>1318.1</ele>
        <time>2026-05-28T11:45:55.000Z</time>
      </trkpt>
      <trkpt lat="44.0453" lon="3.50814">
        <ele>1317.6</ele>
        <time>2026-05-28T11:45:56.000Z</time>
      </trkpt>
      <trkpt lat="44.04529" lon="3.50815">
        <ele>1317.9</ele>
        <time>2026-05-28T11:45:57.000Z</time>
      </trkpt>
      <trkpt lat="44.04528" lon="3.50817">
        <ele>1317.3</ele>
        <time>2026-05-28T11:45:58.000Z</time>
      </trkpt>
      <trkpt lat="44.04528" lon="3.50818">
        <ele>1317.2</ele>
        <time>2026-05-28T11:45:59.000Z</time>
      </trkpt>
      <trkpt lat="44.04527" lon="3.50819">
        <ele>1317.3</ele>
        <time>2026-05-28T11:46:00.000Z</time>
      </trkpt>
      <trkpt lat="44.04527" lon="3.50819">
        <ele>1317.4</ele>
        <time>2026-05-28T11:46:01.000Z</time>
      </trkpt>
      <trkpt lat="44.04526" lon="3.50818">
        <ele>1317.3</ele>
        <time>2026-05-28T11:46:02.000Z</time>
      </trkpt>
      <trkpt lat="44.04525" lon="3.50816">
        <ele>1316.6</ele>
        <time>2026-05-28T11:46:03.000Z</time>
      </trkpt>
      <trkpt lat="44.04525" lon="3.50815">
        <ele>1316.8</ele>
        <time>2026-05-28T11:46:04.000Z</time>
      </trkpt>
      <trkpt lat="44.04524" lon="3.50814">
        <ele>1317</ele>
        <time>2026-05-28T11:46:05.000Z</time>
      </trkpt>
      <trkpt lat="44.04524" lon="3.50813">
        <ele>1316.5</ele>
        <time>2026-05-28T11:46:06.000Z</time>
      </trkpt>
      <trkpt lat="44.04523" lon="3.50811">
        <ele>1316.5</ele>
        <time>2026-05-28T11:46:07.000Z</time>
      </trkpt>
      <trkpt lat="44.04523" lon="3.50811">
        <ele>1316.3</ele>
        <time>2026-05-28T11:46:08.000Z</time>
      </trkpt>
      <trkpt lat="44.04523" lon="3.5081">
        <ele>1316.8</ele>
        <time>2026-05-28T11:46:09.000Z</time>
      </trkpt>
      <trkpt lat="44.04523" lon="3.50811">
        <ele>1316.8</ele>
        <time>2026-05-28T11:46:10.000Z</time>
      </trkpt>
      <trkpt lat="44.04522" lon="3.5081">
        <ele>1316.4</ele>
        <time>2026-05-28T11:46:11.000Z</time>
      </trkpt>
      <trkpt lat="44.04522" lon="3.5081">
        <ele>1316.2</ele>
        <time>2026-05-28T11:46:12.000Z</time>
      </trkpt>
      <trkpt lat="44.04522" lon="3.5081">
        <ele>1316.2</ele>
        <time>2026-05-28T11:46:13.000Z</time>
      </trkpt>
      <trkpt lat="44.04522" lon="3.5081">
        <ele>1316.6</ele>
        <time>2026-05-28T11:46:14.000Z</time>
      </trkpt>
      <trkpt lat="44.04521" lon="3.5081">
        <ele>1316.8</ele>
        <time>2026-05-28T11:46:15.000Z</time>
      </trkpt>
      <trkpt lat="44.04521" lon="3.5081">
        <ele>1317</ele>
        <time>2026-05-28T11:46:16.000Z</time>
      </trkpt>
      <trkpt lat="44.04521" lon="3.5081">
        <ele>1316.9</ele>
        <time>2026-05-28T11:46:17.000Z</time>
      </trkpt>
      <trkpt lat="44.04521" lon="3.5081">
        <ele>1316.5</ele>
        <time>2026-05-28T11:46:18.000Z</time>
      </trkpt>
      <trkpt lat="44.0452" lon="3.5081">
        <ele>1316.1</ele>
        <time>2026-05-28T11:46:19.000Z</time>
      </trkpt>
      <trkpt lat="44.04519" lon="3.50809">
        <ele>1316</ele>
        <time>2026-05-28T11:46:20.000Z</time>
      </trkpt>
      <trkpt lat="44.04517" lon="3.50809">
        <ele>1315.9</ele>
        <time>2026-05-28T11:46:21.000Z</time>
      </trkpt>
      <trkpt lat="44.04515" lon="3.50808">
        <ele>1315.4</ele>
        <time>2026-05-28T11:46:22.000Z</time>
      </trkpt>
      <trkpt lat="44.04514" lon="3.50808">
        <ele>1315.5</ele>
        <time>2026-05-28T11:46:23.000Z</time>
      </trkpt>
      <trkpt lat="44.04512" lon="3.50808">
        <ele>1315.8</ele>
        <time>2026-05-28T11:46:24.000Z</time>
      </trkpt>
      <trkpt lat="44.0451" lon="3.50809">
        <ele>1315.8</ele>
        <time>2026-05-28T11:46:25.000Z</time>
      </trkpt>
      <trkpt lat="44.04509" lon="3.5081">
        <ele>1315.7</ele>
        <time>2026-05-28T11:46:26.000Z</time>
      </trkpt>
      <trkpt lat="44.04508" lon="3.5081">
        <ele>1315.7</ele>
        <time>2026-05-28T11:46:27.000Z</time>
      </trkpt>
      <trkpt lat="44.04506" lon="3.50809">
        <ele>1315.8</ele>
        <time>2026-05-28T11:46:28.000Z</time>
      </trkpt>
      <trkpt lat="44.04505" lon="3.50809">
        <ele>1316.2</ele>
        <time>2026-05-28T11:46:29.000Z</time>
      </trkpt>
      <trkpt lat="44.04503" lon="3.50809">
        <ele>1316.3</ele>
        <time>2026-05-28T11:46:30.000Z</time>
      </trkpt>
      <trkpt lat="44.04501" lon="3.50808">
        <ele>1316.4</ele>
        <time>2026-05-28T11:46:31.000Z</time>
      </trkpt>
      <trkpt lat="44.04499" lon="3.50807">
        <ele>1316.2</ele>
        <time>2026-05-28T11:46:32.000Z</time>
      </trkpt>
      <trkpt lat="44.04497" lon="3.50805">
        <ele>1316</ele>
        <time>2026-05-28T11:46:33.000Z</time>
      </trkpt>
      <trkpt lat="44.04496" lon="3.50805">
        <ele>1316</ele>
        <time>2026-05-28T11:46:34.000Z</time>
      </trkpt>
      <trkpt lat="44.04494" lon="3.50806">
        <ele>1315.7</ele>
        <time>2026-05-28T11:46:35.000Z</time>
      </trkpt>
      <trkpt lat="44.04493" lon="3.50807">
        <ele>1315.9</ele>
        <time>2026-05-28T11:46:36.000Z</time>
      </trkpt>
      <trkpt lat="44.04492" lon="3.50808">
        <ele>1316</ele>
        <time>2026-05-28T11:46:37.000Z</time>
      </trkpt>
      <trkpt lat="44.04491" lon="3.50808">
        <ele>1315.8</ele>
        <time>2026-05-28T11:46:38.000Z</time>
      </trkpt>
      <trkpt lat="44.04489" lon="3.50808">
        <ele>1315.9</ele>
        <time>2026-05-28T11:46:39.000Z</time>
      </trkpt>
      <trkpt lat="44.04489" lon="3.50809">
        <ele>1315.8</ele>
        <time>2026-05-28T11:46:40.000Z</time>
      </trkpt>
      <trkpt lat="44.04488" lon="3.5081">
        <ele>1315.9</ele>
        <time>2026-05-28T11:46:41.000Z</time>
      </trkpt>
      <trkpt lat="44.04487" lon="3.50811">
        <ele>1315.8</ele>
        <time>2026-05-28T11:46:42.000Z</time>
      </trkpt>
      <trkpt lat="44.04486" lon="3.50812">
        <ele>1315.7</ele>
        <time>2026-05-28T11:46:43.000Z</time>
      </trkpt>
      <trkpt lat="44.04485" lon="3.50812">
        <ele>1315.5</ele>
        <time>2026-05-28T11:46:44.000Z</time>
      </trkpt>
      <trkpt lat="44.04484" lon="3.50813">
        <ele>1315.4</ele>
        <time>2026-05-28T11:46:45.000Z</time>
      </trkpt>
      <trkpt lat="44.04483" lon="3.50814">
        <ele>1315.3</ele>
        <time>2026-05-28T11:46:46.000Z</time>
      </trkpt>
      <trkpt lat="44.04482" lon="3.50814">
        <ele>1315.3</ele>
        <time>2026-05-28T11:46:47.000Z</time>
      </trkpt>
      <trkpt lat="44.04481" lon="3.50815">
        <ele>1315.5</ele>
        <time>2026-05-28T11:46:48.000Z</time>
      </trkpt>
      <trkpt lat="44.0448" lon="3.50816">
        <ele>1315.1</ele>
        <time>2026-05-28T11:46:49.000Z</time>
      </trkpt>
      <trkpt lat="44.04478" lon="3.50817">
        <ele>1314.8</ele>
        <time>2026-05-28T11:46:50.000Z</time>
      </trkpt>
      <trkpt lat="44.04477" lon="3.50818">
        <ele>1315.3</ele>
        <time>2026-05-28T11:46:51.000Z</time>
      </trkpt>
      <trkpt lat="44.04476" lon="3.50819">
        <ele>1315.3</ele>
        <time>2026-05-28T11:46:52.000Z</time>
      </trkpt>
      <trkpt lat="44.04475" lon="3.50819">
        <ele>1315.4</ele>
        <time>2026-05-28T11:46:53.000Z</time>
      </trkpt>
      <trkpt lat="44.04474" lon="3.50819">
        <ele>1315.6</ele>
        <time>2026-05-28T11:46:54.000Z</time>
      </trkpt>
      <trkpt lat="44.04473" lon="3.50819">
        <ele>1315.7</ele>
        <time>2026-05-28T11:46:55.000Z</time>
      </trkpt>
      <trkpt lat="44.04472" lon="3.50819">
        <ele>1315.5</ele>
        <time>2026-05-28T11:46:56.000Z</time>
      </trkpt>
      <trkpt lat="44.04471" lon="3.50819">
        <ele>1315.7</ele>
        <time>2026-05-28T11:46:57.000Z</time>
      </trkpt>
      <trkpt lat="44.0447" lon="3.5082">
        <ele>1315.2</ele>
        <time>2026-05-28T11:46:58.000Z</time>
      </trkpt>
      <trkpt lat="44.04469" lon="3.50819">
        <ele>1315</ele>
        <time>2026-05-28T11:46:59.000Z</time>
      </trkpt>
      <trkpt lat="44.04468" lon="3.50819">
        <ele>1315.5</ele>
        <time>2026-05-28T11:47:00.000Z</time>
      </trkpt>
      <trkpt lat="44.04467" lon="3.50819">
        <ele>1315.3</ele>
        <time>2026-05-28T11:47:01.000Z</time>
      </trkpt>
      <trkpt lat="44.04466" lon="3.50819">
        <ele>1315</ele>
        <time>2026-05-28T11:47:02.000Z</time>
      </trkpt>
      <trkpt lat="44.04464" lon="3.5082">
        <ele>1314.9</ele>
        <time>2026-05-28T11:47:03.000Z</time>
      </trkpt>
      <trkpt lat="44.04464" lon="3.50821">
        <ele>1314.3</ele>
        <time>2026-05-28T11:47:04.000Z</time>
      </trkpt>
      <trkpt lat="44.04464" lon="3.50822">
        <ele>1314</ele>
        <time>2026-05-28T11:47:05.000Z</time>
      </trkpt>
      <trkpt lat="44.04462" lon="3.50823">
        <ele>1313.7</ele>
        <time>2026-05-28T11:47:06.000Z</time>
      </trkpt>
      <trkpt lat="44.04462" lon="3.50825">
        <ele>1313.6</ele>
        <time>2026-05-28T11:47:07.000Z</time>
      </trkpt>
      <trkpt lat="44.04462" lon="3.50825">
        <ele>1313.5</ele>
        <time>2026-05-28T11:47:08.000Z</time>
      </trkpt>
      <trkpt lat="44.04461" lon="3.50827">
        <ele>1313.5</ele>
        <time>2026-05-28T11:47:09.000Z</time>
      </trkpt>
      <trkpt lat="44.04461" lon="3.50828">
        <ele>1313.5</ele>
        <time>2026-05-28T11:47:10.000Z</time>
      </trkpt>
      <trkpt lat="44.0446" lon="3.50829">
        <ele>1313.6</ele>
        <time>2026-05-28T11:47:11.000Z</time>
      </trkpt>
      <trkpt lat="44.04458" lon="3.5083">
        <ele>1313.6</ele>
        <time>2026-05-28T11:47:12.000Z</time>
      </trkpt>
      <trkpt lat="44.04457" lon="3.50831">
        <ele>1313.4</ele>
        <time>2026-05-28T11:47:13.000Z</time>
      </trkpt>
      <trkpt lat="44.04456" lon="3.50831">
        <ele>1313.6</ele>
        <time>2026-05-28T11:47:14.000Z</time>
      </trkpt>
      <trkpt lat="44.04454" lon="3.50832">
        <ele>1314.1</ele>
        <time>2026-05-28T11:47:15.000Z</time>
      </trkpt>
      <trkpt lat="44.04452" lon="3.50833">
        <ele>1314.1</ele>
        <time>2026-05-28T11:47:16.000Z</time>
      </trkpt>
      <trkpt lat="44.04451" lon="3.50833">
        <ele>1314.1</ele>
        <time>2026-05-28T11:47:17.000Z</time>
      </trkpt>
      <trkpt lat="44.04449" lon="3.50834">
        <ele>1313.7</ele>
        <time>2026-05-28T11:47:18.000Z</time>
      </trkpt>
      <trkpt lat="44.04448" lon="3.50834">
        <ele>1313.8</ele>
        <time>2026-05-28T11:47:19.000Z</time>
      </trkpt>
      <trkpt lat="44.04448" lon="3.50833">
        <ele>1313.6</ele>
        <time>2026-05-28T11:47:20.000Z</time>
      </trkpt>
      <trkpt lat="44.04447" lon="3.50833">
        <ele>1313.3</ele>
        <time>2026-05-28T11:47:21.000Z</time>
      </trkpt>
      <trkpt lat="44.04446" lon="3.50833">
        <ele>1314</ele>
        <time>2026-05-28T11:47:22.000Z</time>
      </trkpt>
      <trkpt lat="44.04445" lon="3.50833">
        <ele>1314.2</ele>
        <time>2026-05-28T11:47:23.000Z</time>
      </trkpt>
      <trkpt lat="44.04443" lon="3.50835">
        <ele>1314.3</ele>
        <time>2026-05-28T11:47:24.000Z</time>
      </trkpt>
      <trkpt lat="44.04443" lon="3.50835">
        <ele>1314.2</ele>
        <time>2026-05-28T11:47:25.000Z</time>
      </trkpt>
      <trkpt lat="44.04442" lon="3.50837">
        <ele>1314.1</ele>
        <time>2026-05-28T11:47:26.000Z</time>
      </trkpt>
      <trkpt lat="44.0444" lon="3.50838">
        <ele>1314.1</ele>
        <time>2026-05-28T11:47:27.000Z</time>
      </trkpt>
      <trkpt lat="44.04439" lon="3.5084">
        <ele>1314.3</ele>
        <time>2026-05-28T11:47:28.000Z</time>
      </trkpt>
      <trkpt lat="44.04438" lon="3.50842">
        <ele>1314.4</ele>
        <time>2026-05-28T11:47:29.000Z</time>
      </trkpt>
      <trkpt lat="44.04437" lon="3.50842">
        <ele>1314.7</ele>
        <time>2026-05-28T11:47:30.000Z</time>
      </trkpt>
      <trkpt lat="44.04436" lon="3.50843">
        <ele>1314.5</ele>
        <time>2026-05-28T11:47:31.000Z</time>
      </trkpt>
      <trkpt lat="44.04435" lon="3.50843">
        <ele>1313.9</ele>
        <time>2026-05-28T11:47:32.000Z</time>
      </trkpt>
      <trkpt lat="44.04435" lon="3.50844">
        <ele>1314.1</ele>
        <time>2026-05-28T11:47:33.000Z</time>
      </trkpt>
      <trkpt lat="44.04435" lon="3.50844">
        <ele>1313.7</ele>
        <time>2026-05-28T11:47:34.000Z</time>
      </trkpt>
      <trkpt lat="44.04435" lon="3.50845">
        <ele>1313.3</ele>
        <time>2026-05-28T11:47:35.000Z</time>
      </trkpt>
      <trkpt lat="44.04435" lon="3.50845">
        <ele>1313.2</ele>
        <time>2026-05-28T11:47:36.000Z</time>
      </trkpt>
      <trkpt lat="44.04434" lon="3.50845">
        <ele>1313</ele>
        <time>2026-05-28T11:47:37.000Z</time>
      </trkpt>
      <trkpt lat="44.04433" lon="3.50846">
        <ele>1312.8</ele>
        <time>2026-05-28T11:47:38.000Z</time>
      </trkpt>
      <trkpt lat="44.04432" lon="3.50847">
        <ele>1312.6</ele>
        <time>2026-05-28T11:47:39.000Z</time>
      </trkpt>
      <trkpt lat="44.04432" lon="3.50848">
        <ele>1312.8</ele>
        <time>2026-05-28T11:47:40.000Z</time>
      </trkpt>
      <trkpt lat="44.04431" lon="3.50848">
        <ele>1312.8</ele>
        <time>2026-05-28T11:47:41.000Z</time>
      </trkpt>
      <trkpt lat="44.04431" lon="3.50849">
        <ele>1312.9</ele>
        <time>2026-05-28T11:47:42.000Z</time>
      </trkpt>
      <trkpt lat="44.04431" lon="3.50849">
        <ele>1313</ele>
        <time>2026-05-28T11:47:43.000Z</time>
      </trkpt>
      <trkpt lat="44.0443" lon="3.50849">
        <ele>1312.9</ele>
        <time>2026-05-28T11:47:44.000Z</time>
      </trkpt>
      <trkpt lat="44.0443" lon="3.50849">
        <ele>1313.2</ele>
        <time>2026-05-28T11:47:45.000Z</time>
      </trkpt>
      <trkpt lat="44.04428" lon="3.5085">
        <ele>1313.2</ele>
        <time>2026-05-28T11:47:46.000Z</time>
      </trkpt>
      <trkpt lat="44.04426" lon="3.50851">
        <ele>1313</ele>
        <time>2026-05-28T11:47:47.000Z</time>
      </trkpt>
      <trkpt lat="44.04424" lon="3.50853">
        <ele>1313.1</ele>
        <time>2026-05-28T11:47:48.000Z</time>
      </trkpt>
      <trkpt lat="44.04422" lon="3.50854">
        <ele>1313.4</ele>
        <time>2026-05-28T11:47:49.000Z</time>
      </trkpt>
      <trkpt lat="44.0442" lon="3.50855">
        <ele>1313.5</ele>
        <time>2026-05-28T11:47:50.000Z</time>
      </trkpt>
      <trkpt lat="44.04418" lon="3.50856">
        <ele>1313.7</ele>
        <time>2026-05-28T11:47:51.000Z</time>
      </trkpt>
      <trkpt lat="44.04417" lon="3.50857">
        <ele>1313.8</ele>
        <time>2026-05-28T11:47:52.000Z</time>
      </trkpt>
      <trkpt lat="44.04415" lon="3.50858">
        <ele>1314.3</ele>
        <time>2026-05-28T11:47:53.000Z</time>
      </trkpt>
      <trkpt lat="44.04414" lon="3.50858">
        <ele>1314.5</ele>
        <time>2026-05-28T11:47:54.000Z</time>
      </trkpt>
      <trkpt lat="44.04414" lon="3.5086">
        <ele>1314.5</ele>
        <time>2026-05-28T11:47:55.000Z</time>
      </trkpt>
      <trkpt lat="44.04413" lon="3.50862">
        <ele>1314.6</ele>
        <time>2026-05-28T11:47:56.000Z</time>
      </trkpt>
      <trkpt lat="44.04412" lon="3.50863">
        <ele>1314.9</ele>
        <time>2026-05-28T11:47:57.000Z</time>
      </trkpt>
      <trkpt lat="44.04412" lon="3.50864">
        <ele>1315.2</ele>
        <time>2026-05-28T11:47:58.000Z</time>
      </trkpt>
      <trkpt lat="44.04411" lon="3.50865">
        <ele>1315.3</ele>
        <time>2026-05-28T11:47:59.000Z</time>
      </trkpt>
      <trkpt lat="44.0441" lon="3.50867">
        <ele>1315.5</ele>
        <time>2026-05-28T11:48:00.000Z</time>
      </trkpt>
      <trkpt lat="44.04409" lon="3.50869">
        <ele>1315.4</ele>
        <time>2026-05-28T11:48:01.000Z</time>
      </trkpt>
      <trkpt lat="44.04408" lon="3.5087">
        <ele>1315.7</ele>
        <time>2026-05-28T11:48:02.000Z</time>
      </trkpt>
      <trkpt lat="44.04407" lon="3.50871">
        <ele>1316.1</ele>
        <time>2026-05-28T11:48:03.000Z</time>
      </trkpt>
      <trkpt lat="44.04406" lon="3.50873">
        <ele>1316.4</ele>
        <time>2026-05-28T11:48:04.000Z</time>
      </trkpt>
      <trkpt lat="44.04405" lon="3.50874">
        <ele>1317</ele>
        <time>2026-05-28T11:48:05.000Z</time>
      </trkpt>
      <trkpt lat="44.04405" lon="3.50876">
        <ele>1317.1</ele>
        <time>2026-05-28T11:48:06.000Z</time>
      </trkpt>
      <trkpt lat="44.04406" lon="3.50877">
        <ele>1317.1</ele>
        <time>2026-05-28T11:48:07.000Z</time>
      </trkpt>
      <trkpt lat="44.04406" lon="3.50878">
        <ele>1317.3</ele>
        <time>2026-05-28T11:48:08.000Z</time>
      </trkpt>
      <trkpt lat="44.04405" lon="3.50878">
        <ele>1317.8</ele>
        <time>2026-05-28T11:48:09.000Z</time>
      </trkpt>
      <trkpt lat="44.04404" lon="3.50878">
        <ele>1317.9</ele>
        <time>2026-05-28T11:48:10.000Z</time>
      </trkpt>
      <trkpt lat="44.04404" lon="3.50878">
        <ele>1318</ele>
        <time>2026-05-28T11:48:11.000Z</time>
      </trkpt>
      <trkpt lat="44.04403" lon="3.50879">
        <ele>1318.1</ele>
        <time>2026-05-28T11:48:12.000Z</time>
      </trkpt>
      <trkpt lat="44.04401" lon="3.5088">
        <ele>1318.4</ele>
        <time>2026-05-28T11:48:13.000Z</time>
      </trkpt>
      <trkpt lat="44.044" lon="3.50882">
        <ele>1318.5</ele>
        <time>2026-05-28T11:48:14.000Z</time>
      </trkpt>
      <trkpt lat="44.04399" lon="3.50883">
        <ele>1318.6</ele>
        <time>2026-05-28T11:48:15.000Z</time>
      </trkpt>
      <trkpt lat="44.04398" lon="3.50884">
        <ele>1318.6</ele>
        <time>2026-05-28T11:48:16.000Z</time>
      </trkpt>
      <trkpt lat="44.04397" lon="3.50886">
        <ele>1318.8</ele>
        <time>2026-05-28T11:48:17.000Z</time>
      </trkpt>
      <trkpt lat="44.04397" lon="3.50887">
        <ele>1319.1</ele>
        <time>2026-05-28T11:48:18.000Z</time>
      </trkpt>
      <trkpt lat="44.04396" lon="3.50887">
        <ele>1319.1</ele>
        <time>2026-05-28T11:48:19.000Z</time>
      </trkpt>
      <trkpt lat="44.04395" lon="3.50887">
        <ele>1319.1</ele>
        <time>2026-05-28T11:48:20.000Z</time>
      </trkpt>
      <trkpt lat="44.04394" lon="3.50889">
        <ele>1319</ele>
        <time>2026-05-28T11:48:21.000Z</time>
      </trkpt>
      <trkpt lat="44.04392" lon="3.50889">
        <ele>1319</ele>
        <time>2026-05-28T11:48:22.000Z</time>
      </trkpt>
      <trkpt lat="44.04392" lon="3.5089">
        <ele>1319</ele>
        <time>2026-05-28T11:48:23.000Z</time>
      </trkpt>
      <trkpt lat="44.04391" lon="3.50891">
        <ele>1318.8</ele>
        <time>2026-05-28T11:48:24.000Z</time>
      </trkpt>
      <trkpt lat="44.0439" lon="3.50892">
        <ele>1318.7</ele>
        <time>2026-05-28T11:48:25.000Z</time>
      </trkpt>
      <trkpt lat="44.0439" lon="3.50892">
        <ele>1318.7</ele>
        <time>2026-05-28T11:48:26.000Z</time>
      </trkpt>
      <trkpt lat="44.04389" lon="3.50892">
        <ele>1318.7</ele>
        <time>2026-05-28T11:48:27.000Z</time>
      </trkpt>
      <trkpt lat="44.04388" lon="3.50893">
        <ele>1318.6</ele>
        <time>2026-05-28T11:48:28.000Z</time>
      </trkpt>
      <trkpt lat="44.04386" lon="3.50894">
        <ele>1318.8</ele>
        <time>2026-05-28T11:48:29.000Z</time>
      </trkpt>
      <trkpt lat="44.04385" lon="3.50895">
        <ele>1319.1</ele>
        <time>2026-05-28T11:48:30.000Z</time>
      </trkpt>
      <trkpt lat="44.04384" lon="3.50896">
        <ele>1319.1</ele>
        <time>2026-05-28T11:48:31.000Z</time>
      </trkpt>
      <trkpt lat="44.04384" lon="3.50896">
        <ele>1318.8</ele>
        <time>2026-05-28T11:48:32.000Z</time>
      </trkpt>
      <trkpt lat="44.04384" lon="3.50897">
        <ele>1318.9</ele>
        <time>2026-05-28T11:48:33.000Z</time>
      </trkpt>
      <trkpt lat="44.04383" lon="3.50896">
        <ele>1319</ele>
        <time>2026-05-28T11:48:34.000Z</time>
      </trkpt>
      <trkpt lat="44.04383" lon="3.50896">
        <ele>1318.7</ele>
        <time>2026-05-28T11:48:35.000Z</time>
      </trkpt>
      <trkpt lat="44.04383" lon="3.50896">
        <ele>1318.3</ele>
        <time>2026-05-28T11:48:36.000Z</time>
      </trkpt>
      <trkpt lat="44.04383" lon="3.50896">
        <ele>1318.4</ele>
        <time>2026-05-28T11:48:37.000Z</time>
      </trkpt>
      <trkpt lat="44.04383" lon="3.50896">
        <ele>1318.8</ele>
        <time>2026-05-28T11:48:38.000Z</time>
      </trkpt>
      <trkpt lat="44.04383" lon="3.50896">
        <ele>1318.9</ele>
        <time>2026-05-28T11:48:39.000Z</time>
      </trkpt>
      <trkpt lat="44.04383" lon="3.50896">
        <ele>1318.3</ele>
        <time>2026-05-28T11:48:40.000Z</time>
      </trkpt>
      <trkpt lat="44.04383" lon="3.50897">
        <ele>1318.1</ele>
        <time>2026-05-28T11:48:41.000Z</time>
      </trkpt>
      <trkpt lat="44.04383" lon="3.50897">
        <ele>1317.9</ele>
        <time>2026-05-28T11:48:43.000Z</time>
      </trkpt>
      <trkpt lat="44.04383" lon="3.50897">
        <ele>1317.8</ele>
        <time>2026-05-28T11:48:44.000Z</time>
      </trkpt>
      <trkpt lat="44.04383" lon="3.50897">
        <ele>1317.9</ele>
        <time>2026-05-28T11:48:45.000Z</time>
      </trkpt>
      <trkpt lat="44.04383" lon="3.50897">
        <ele>1317.9</ele>
        <time>2026-05-28T11:48:46.000Z</time>
      </trkpt>
      <trkpt lat="44.04383" lon="3.50897">
        <ele>1318</ele>
        <time>2026-05-28T11:48:47.000Z</time>
      </trkpt>
      <trkpt lat="44.04382" lon="3.50897">
        <ele>1318.4</ele>
        <time>2026-05-28T11:48:48.000Z</time>
      </trkpt>
      <trkpt lat="44.04382" lon="3.50897">
        <ele>1318.6</ele>
        <time>2026-05-28T11:48:49.000Z</time>
      </trkpt>
      <trkpt lat="44.04382" lon="3.50898">
        <ele>1319</ele>
        <time>2026-05-28T11:48:50.000Z</time>
      </trkpt>
      <trkpt lat="44.04382" lon="3.50898">
        <ele>1319.2</ele>
        <time>2026-05-28T11:48:51.000Z</time>
      </trkpt>
      <trkpt lat="44.0438" lon="3.50899">
        <ele>1319.2</ele>
        <time>2026-05-28T11:48:52.000Z</time>
      </trkpt>
      <trkpt lat="44.04378" lon="3.50899">
        <ele>1319.4</ele>
        <time>2026-05-28T11:48:53.000Z</time>
      </trkpt>
      <trkpt lat="44.04378" lon="3.509">
        <ele>1319.5</ele>
        <time>2026-05-28T11:48:54.000Z</time>
      </trkpt>
      <trkpt lat="44.04377" lon="3.509">
        <ele>1320</ele>
        <time>2026-05-28T11:48:55.000Z</time>
      </trkpt>
      <trkpt lat="44.04377" lon="3.50901">
        <ele>1320.5</ele>
        <time>2026-05-28T11:48:56.000Z</time>
      </trkpt>
      <trkpt lat="44.04377" lon="3.50901">
        <ele>1320.4</ele>
        <time>2026-05-28T11:48:57.000Z</time>
      </trkpt>
      <trkpt lat="44.04377" lon="3.50902">
        <ele>1320</ele>
        <time>2026-05-28T11:48:58.000Z</time>
      </trkpt>
      <trkpt lat="44.04376" lon="3.50903">
        <ele>1320</ele>
        <time>2026-05-28T11:48:59.000Z</time>
      </trkpt>
      <trkpt lat="44.04376" lon="3.50903">
        <ele>1320.1</ele>
        <time>2026-05-28T11:49:00.000Z</time>
      </trkpt>
      <trkpt lat="44.04374" lon="3.50905">
        <ele>1320</ele>
        <time>2026-05-28T11:49:01.000Z</time>
      </trkpt>
      <trkpt lat="44.04373" lon="3.50906">
        <ele>1320.1</ele>
        <time>2026-05-28T11:49:02.000Z</time>
      </trkpt>
      <trkpt lat="44.04371" lon="3.50908">
        <ele>1320.1</ele>
        <time>2026-05-28T11:49:03.000Z</time>
      </trkpt>
      <trkpt lat="44.04371" lon="3.50909">
        <ele>1320.6</ele>
        <time>2026-05-28T11:49:04.000Z</time>
      </trkpt>
      <trkpt lat="44.04369" lon="3.5091">
        <ele>1320.7</ele>
        <time>2026-05-28T11:49:05.000Z</time>
      </trkpt>
      <trkpt lat="44.04369" lon="3.50911">
        <ele>1320.7</ele>
        <time>2026-05-28T11:49:06.000Z</time>
      </trkpt>
      <trkpt lat="44.04369" lon="3.50911">
        <ele>1320.7</ele>
        <time>2026-05-28T11:49:07.000Z</time>
      </trkpt>
      <trkpt lat="44.04368" lon="3.50912">
        <ele>1320.8</ele>
        <time>2026-05-28T11:49:08.000Z</time>
      </trkpt>
      <trkpt lat="44.04367" lon="3.50915">
        <ele>1320.8</ele>
        <time>2026-05-28T11:49:09.000Z</time>
      </trkpt>
      <trkpt lat="44.04367" lon="3.50917">
        <ele>1320.8</ele>
        <time>2026-05-28T11:49:10.000Z</time>
      </trkpt>
      <trkpt lat="44.04366" lon="3.50917">
        <ele>1320.9</ele>
        <time>2026-05-28T11:49:11.000Z</time>
      </trkpt>
      <trkpt lat="44.04365" lon="3.50917">
        <ele>1320.7</ele>
        <time>2026-05-28T11:49:12.000Z</time>
      </trkpt>
      <trkpt lat="44.04363" lon="3.50919">
        <ele>1321</ele>
        <time>2026-05-28T11:49:13.000Z</time>
      </trkpt>
      <trkpt lat="44.04361" lon="3.50921">
        <ele>1321.2</ele>
        <time>2026-05-28T11:49:14.000Z</time>
      </trkpt>
      <trkpt lat="44.04359" lon="3.50921">
        <ele>1320.9</ele>
        <time>2026-05-28T11:49:15.000Z</time>
      </trkpt>
      <trkpt lat="44.04357" lon="3.50922">
        <ele>1320.7</ele>
        <time>2026-05-28T11:49:16.000Z</time>
      </trkpt>
      <trkpt lat="44.04356" lon="3.50923">
        <ele>1320.4</ele>
        <time>2026-05-28T11:49:17.000Z</time>
      </trkpt>
      <trkpt lat="44.04354" lon="3.50925">
        <ele>1320.1</ele>
        <time>2026-05-28T11:49:18.000Z</time>
      </trkpt>
      <trkpt lat="44.04353" lon="3.50927">
        <ele>1320.2</ele>
        <time>2026-05-28T11:49:19.000Z</time>
      </trkpt>
      <trkpt lat="44.04351" lon="3.50929">
        <ele>1320.6</ele>
        <time>2026-05-28T11:49:20.000Z</time>
      </trkpt>
      <trkpt lat="44.0435" lon="3.50931">
        <ele>1320.8</ele>
        <time>2026-05-28T11:49:21.000Z</time>
      </trkpt>
      <trkpt lat="44.04349" lon="3.50932">
        <ele>1320.7</ele>
        <time>2026-05-28T11:49:22.000Z</time>
      </trkpt>
      <trkpt lat="44.04349" lon="3.50933">
        <ele>1321</ele>
        <time>2026-05-28T11:49:23.000Z</time>
      </trkpt>
      <trkpt lat="44.04349" lon="3.50934">
        <ele>1321.1</ele>
        <time>2026-05-28T11:49:24.000Z</time>
      </trkpt>
      <trkpt lat="44.04348" lon="3.50935">
        <ele>1321.1</ele>
        <time>2026-05-28T11:49:25.000Z</time>
      </trkpt>
      <trkpt lat="44.04347" lon="3.50936">
        <ele>1321.1</ele>
        <time>2026-05-28T11:49:26.000Z</time>
      </trkpt>
      <trkpt lat="44.04345" lon="3.50938">
        <ele>1320.9</ele>
        <time>2026-05-28T11:49:27.000Z</time>
      </trkpt>
      <trkpt lat="44.04344" lon="3.50939">
        <ele>1320.5</ele>
        <time>2026-05-28T11:49:28.000Z</time>
      </trkpt>
      <trkpt lat="44.04343" lon="3.50939">
        <ele>1320</ele>
        <time>2026-05-28T11:49:29.000Z</time>
      </trkpt>
      <trkpt lat="44.04342" lon="3.50938">
        <ele>1320</ele>
        <time>2026-05-28T11:49:30.000Z</time>
      </trkpt>
      <trkpt lat="44.04341" lon="3.50938">
        <ele>1320.2</ele>
        <time>2026-05-28T11:49:31.000Z</time>
      </trkpt>
      <trkpt lat="44.04341" lon="3.50939">
        <ele>1320.3</ele>
        <time>2026-05-28T11:49:32.000Z</time>
      </trkpt>
      <trkpt lat="44.0434" lon="3.5094">
        <ele>1320.4</ele>
        <time>2026-05-28T11:49:33.000Z</time>
      </trkpt>
      <trkpt lat="44.04339" lon="3.5094">
        <ele>1320.7</ele>
        <time>2026-05-28T11:49:34.000Z</time>
      </trkpt>
      <trkpt lat="44.04339" lon="3.50941">
        <ele>1320.9</ele>
        <time>2026-05-28T11:49:35.000Z</time>
      </trkpt>
      <trkpt lat="44.04338" lon="3.50942">
        <ele>1321</ele>
        <time>2026-05-28T11:49:36.000Z</time>
      </trkpt>
      <trkpt lat="44.04338" lon="3.50943">
        <ele>1320.6</ele>
        <time>2026-05-28T11:49:37.000Z</time>
      </trkpt>
      <trkpt lat="44.04337" lon="3.50944">
        <ele>1320.3</ele>
        <time>2026-05-28T11:49:38.000Z</time>
      </trkpt>
      <trkpt lat="44.04337" lon="3.50945">
        <ele>1320.2</ele>
        <time>2026-05-28T11:49:39.000Z</time>
      </trkpt>
      <trkpt lat="44.04337" lon="3.50945">
        <ele>1320.5</ele>
        <time>2026-05-28T11:49:40.000Z</time>
      </trkpt>
      <trkpt lat="44.04336" lon="3.50946">
        <ele>1320.7</ele>
        <time>2026-05-28T11:49:41.000Z</time>
      </trkpt>
      <trkpt lat="44.04336" lon="3.50946">
        <ele>1321</ele>
        <time>2026-05-28T11:49:42.000Z</time>
      </trkpt>
      <trkpt lat="44.04336" lon="3.50946">
        <ele>1321.1</ele>
        <time>2026-05-28T11:49:43.000Z</time>
      </trkpt>
      <trkpt lat="44.04336" lon="3.50946">
        <ele>1320.9</ele>
        <time>2026-05-28T11:49:44.000Z</time>
      </trkpt>
      <trkpt lat="44.04336" lon="3.50946">
        <ele>1321</ele>
        <time>2026-05-28T11:49:45.000Z</time>
      </trkpt>
      <trkpt lat="44.04336" lon="3.50946">
        <ele>1321.4</ele>
        <time>2026-05-28T11:49:46.000Z</time>
      </trkpt>
      <trkpt lat="44.04336" lon="3.50946">
        <ele>1321.2</ele>
        <time>2026-05-28T11:49:47.000Z</time>
      </trkpt>
      <trkpt lat="44.04336" lon="3.50945">
        <ele>1321.2</ele>
        <time>2026-05-28T11:49:48.000Z</time>
      </trkpt>
      <trkpt lat="44.04336" lon="3.50944">
        <ele>1321.1</ele>
        <time>2026-05-28T11:49:49.000Z</time>
      </trkpt>
      <trkpt lat="44.04336" lon="3.50944">
        <ele>1320.9</ele>
        <time>2026-05-28T11:49:50.000Z</time>
      </trkpt>
      <trkpt lat="44.04336" lon="3.50944">
        <ele>1320.8</ele>
        <time>2026-05-28T11:49:51.000Z</time>
      </trkpt>
      <trkpt lat="44.04336" lon="3.50944">
        <ele>1320.5</ele>
        <time>2026-05-28T11:49:52.000Z</time>
      </trkpt>
      <trkpt lat="44.04336" lon="3.50943">
        <ele>1320.6</ele>
        <time>2026-05-28T11:49:53.000Z</time>
      </trkpt>
      <trkpt lat="44.04336" lon="3.50943">
        <ele>1320.7</ele>
        <time>2026-05-28T11:49:54.000Z</time>
      </trkpt>
      <trkpt lat="44.04336" lon="3.50943">
        <ele>1320.6</ele>
        <time>2026-05-28T11:49:55.000Z</time>
      </trkpt>
      <trkpt lat="44.04336" lon="3.50943">
        <ele>1320.4</ele>
        <time>2026-05-28T11:49:56.000Z</time>
      </trkpt>
      <trkpt lat="44.04336" lon="3.50943">
        <ele>1320.2</ele>
        <time>2026-05-28T11:49:57.000Z</time>
      </trkpt>
      <trkpt lat="44.04336" lon="3.50943">
        <ele>1320.1</ele>
        <time>2026-05-28T11:49:58.000Z</time>
      </trkpt>
      <trkpt lat="44.04336" lon="3.50943">
        <ele>1320.1</ele>
        <time>2026-05-28T11:49:59.000Z</time>
      </trkpt>
      <trkpt lat="44.04336" lon="3.50943">
        <ele>1320.4</ele>
        <time>2026-05-28T11:50:00.000Z</time>
      </trkpt>
      <trkpt lat="44.04335" lon="3.50943">
        <ele>1321</ele>
        <time>2026-05-28T11:50:01.000Z</time>
      </trkpt>
      <trkpt lat="44.04335" lon="3.50942">
        <ele>1321.5</ele>
        <time>2026-05-28T11:50:02.000Z</time>
      </trkpt>
      <trkpt lat="44.04335" lon="3.50942">
        <ele>1321.6</ele>
        <time>2026-05-28T11:50:03.000Z</time>
      </trkpt>
      <trkpt lat="44.04335" lon="3.50942">
        <ele>1322</ele>
        <time>2026-05-28T11:50:04.000Z</time>
      </trkpt>
      <trkpt lat="44.04335" lon="3.50942">
        <ele>1322.4</ele>
        <time>2026-05-28T11:50:05.000Z</time>
      </trkpt>
      <trkpt lat="44.04335" lon="3.50942">
        <ele>1322.7</ele>
        <time>2026-05-28T11:50:06.000Z</time>
      </trkpt>
      <trkpt lat="44.04335" lon="3.50942">
        <ele>1322.8</ele>
        <time>2026-05-28T11:50:07.000Z</time>
      </trkpt>
      <trkpt lat="44.04335" lon="3.50942">
        <ele>1322.7</ele>
        <time>2026-05-28T11:50:08.000Z</time>
      </trkpt>
      <trkpt lat="44.04334" lon="3.50942">
        <ele>1322.5</ele>
        <time>2026-05-28T11:50:09.000Z</time>
      </trkpt>
      <trkpt lat="44.04333" lon="3.50943">
        <ele>1322.5</ele>
        <time>2026-05-28T11:50:10.000Z</time>
      </trkpt>
      <trkpt lat="44.04332" lon="3.50943">
        <ele>1322.8</ele>
        <time>2026-05-28T11:50:11.000Z</time>
      </trkpt>
      <trkpt lat="44.04331" lon="3.50942">
        <ele>1322.4</ele>
        <time>2026-05-28T11:50:12.000Z</time>
      </trkpt>
      <trkpt lat="44.0433" lon="3.50942">
        <ele>1322.1</ele>
        <time>2026-05-28T11:50:13.000Z</time>
      </trkpt>
      <trkpt lat="44.0433" lon="3.50941">
        <ele>1321.7</ele>
        <time>2026-05-28T11:50:14.000Z</time>
      </trkpt>
      <trkpt lat="44.04329" lon="3.50941">
        <ele>1321.5</ele>
        <time>2026-05-28T11:50:15.000Z</time>
      </trkpt>
      <trkpt lat="44.04329" lon="3.5094">
        <ele>1321.4</ele>
        <time>2026-05-28T11:50:16.000Z</time>
      </trkpt>
      <trkpt lat="44.04328" lon="3.5094">
        <ele>1321.9</ele>
        <time>2026-05-28T11:50:17.000Z</time>
      </trkpt>
      <trkpt lat="44.04327" lon="3.50939">
        <ele>1322</ele>
        <time>2026-05-28T11:50:18.000Z</time>
      </trkpt>
      <trkpt lat="44.04326" lon="3.50938">
        <ele>1321.8</ele>
        <time>2026-05-28T11:50:19.000Z</time>
      </trkpt>
      <trkpt lat="44.04326" lon="3.50939">
        <ele>1321.6</ele>
        <time>2026-05-28T11:50:20.000Z</time>
      </trkpt>
      <trkpt lat="44.04326" lon="3.50937">
        <ele>1321.5</ele>
        <time>2026-05-28T11:50:21.000Z</time>
      </trkpt>
      <trkpt lat="44.04326" lon="3.50937">
        <ele>1321.4</ele>
        <time>2026-05-28T11:50:22.000Z</time>
      </trkpt>
      <trkpt lat="44.04326" lon="3.50935">
        <ele>1321.4</ele>
        <time>2026-05-28T11:50:23.000Z</time>
      </trkpt>
      <trkpt lat="44.04326" lon="3.50933">
        <ele>1321.2</ele>
        <time>2026-05-28T11:50:24.000Z</time>
      </trkpt>
      <trkpt lat="44.04326" lon="3.50932">
        <ele>1321.1</ele>
        <time>2026-05-28T11:50:25.000Z</time>
      </trkpt>
      <trkpt lat="44.04326" lon="3.50931">
        <ele>1321.1</ele>
        <time>2026-05-28T11:50:26.000Z</time>
      </trkpt>
      <trkpt lat="44.04326" lon="3.50931">
        <ele>1321.4</ele>
        <time>2026-05-28T11:50:27.000Z</time>
      </trkpt>
      <trkpt lat="44.04326" lon="3.50931">
        <ele>1321.4</ele>
        <time>2026-05-28T11:50:28.000Z</time>
      </trkpt>
      <trkpt lat="44.04326" lon="3.50929">
        <ele>1321.2</ele>
        <time>2026-05-28T11:50:29.000Z</time>
      </trkpt>
      <trkpt lat="44.04326" lon="3.50928">
        <ele>1321.2</ele>
        <time>2026-05-28T11:50:30.000Z</time>
      </trkpt>
      <trkpt lat="44.04326" lon="3.50927">
        <ele>1320.9</ele>
        <time>2026-05-28T11:50:31.000Z</time>
      </trkpt>
      <trkpt lat="44.04327" lon="3.50926">
        <ele>1320.7</ele>
        <time>2026-05-28T11:50:32.000Z</time>
      </trkpt>
      <trkpt lat="44.04326" lon="3.50924">
        <ele>1320.5</ele>
        <time>2026-05-28T11:50:33.000Z</time>
      </trkpt>
      <trkpt lat="44.04326" lon="3.50923">
        <ele>1320.1</ele>
        <time>2026-05-28T11:50:34.000Z</time>
      </trkpt>
      <trkpt lat="44.04325" lon="3.50923">
        <ele>1319.9</ele>
        <time>2026-05-28T11:50:35.000Z</time>
      </trkpt>
      <trkpt lat="44.04325" lon="3.50923">
        <ele>1319.7</ele>
        <time>2026-05-28T11:50:36.000Z</time>
      </trkpt>
      <trkpt lat="44.04324" lon="3.50923">
        <ele>1319.6</ele>
        <time>2026-05-28T11:50:37.000Z</time>
      </trkpt>
      <trkpt lat="44.04324" lon="3.50923">
        <ele>1319.4</ele>
        <time>2026-05-28T11:50:38.000Z</time>
      </trkpt>
      <trkpt lat="44.04324" lon="3.50923">
        <ele>1319.1</ele>
        <time>2026-05-28T11:50:39.000Z</time>
      </trkpt>
      <trkpt lat="44.04325" lon="3.50921">
        <ele>1319.2</ele>
        <time>2026-05-28T11:50:40.000Z</time>
      </trkpt>
      <trkpt lat="44.04326" lon="3.5092">
        <ele>1319.3</ele>
        <time>2026-05-28T11:50:41.000Z</time>
      </trkpt>
      <trkpt lat="44.04327" lon="3.5092">
        <ele>1319.5</ele>
        <time>2026-05-28T11:50:42.000Z</time>
      </trkpt>
      <trkpt lat="44.04327" lon="3.5092">
        <ele>1319.6</ele>
        <time>2026-05-28T11:50:43.000Z</time>
      </trkpt>
      <trkpt lat="44.04327" lon="3.5092">
        <ele>1319.6</ele>
        <time>2026-05-28T11:50:44.000Z</time>
      </trkpt>
      <trkpt lat="44.04327" lon="3.5092">
        <ele>1319.9</ele>
        <time>2026-05-28T11:50:45.000Z</time>
      </trkpt>
      <trkpt lat="44.04327" lon="3.5092">
        <ele>1320</ele>
        <time>2026-05-28T11:50:46.000Z</time>
      </trkpt>
      <trkpt lat="44.04327" lon="3.5092">
        <ele>1319.5</ele>
        <time>2026-05-28T11:50:47.000Z</time>
      </trkpt>
      <trkpt lat="44.04327" lon="3.5092">
        <ele>1319.7</ele>
        <time>2026-05-28T11:50:48.000Z</time>
      </trkpt>
      <trkpt lat="44.04327" lon="3.5092">
        <ele>1319.8</ele>
        <time>2026-05-28T11:50:49.000Z</time>
      </trkpt>
      <trkpt lat="44.04326" lon="3.50921">
        <ele>1319.5</ele>
        <time>2026-05-28T11:50:50.000Z</time>
      </trkpt>
      <trkpt lat="44.04326" lon="3.50921">
        <ele>1319.3</ele>
        <time>2026-05-28T11:50:51.000Z</time>
      </trkpt>
      <trkpt lat="44.04326" lon="3.50921">
        <ele>1319.2</ele>
        <time>2026-05-28T11:50:52.000Z</time>
      </trkpt>
      <trkpt lat="44.04326" lon="3.50921">
        <ele>1319.4</ele>
        <time>2026-05-28T11:50:53.000Z</time>
      </trkpt>
      <trkpt lat="44.04326" lon="3.50921">
        <ele>1319.8</ele>
        <time>2026-05-28T11:50:54.000Z</time>
      </trkpt>
      <trkpt lat="44.04326" lon="3.50921">
        <ele>1319.7</ele>
        <time>2026-05-28T11:50:55.000Z</time>
      </trkpt>
      <trkpt lat="44.04326" lon="3.50921">
        <ele>1319.1</ele>
        <time>2026-05-28T11:50:56.000Z</time>
      </trkpt>
      <trkpt lat="44.04326" lon="3.50921">
        <ele>1318.8</ele>
        <time>2026-05-28T11:50:57.000Z</time>
      </trkpt>
      <trkpt lat="44.04326" lon="3.50921">
        <ele>1318.7</ele>
        <time>2026-05-28T11:50:58.000Z</time>
      </trkpt>
      <trkpt lat="44.04326" lon="3.50921">
        <ele>1318.3</ele>
        <time>2026-05-28T11:50:59.000Z</time>
      </trkpt>
      <trkpt lat="44.04326" lon="3.50922">
        <ele>1318.5</ele>
        <time>2026-05-28T11:51:00.000Z</time>
      </trkpt>
      <trkpt lat="44.04326" lon="3.50922">
        <ele>1318.8</ele>
        <time>2026-05-28T11:51:01.000Z</time>
      </trkpt>
      <trkpt lat="44.04326" lon="3.50922">
        <ele>1319</ele>
        <time>2026-05-28T11:51:02.000Z</time>
      </trkpt>
      <trkpt lat="44.04326" lon="3.50922">
        <ele>1318.8</ele>
        <time>2026-05-28T11:51:03.000Z</time>
      </trkpt>
      <trkpt lat="44.04326" lon="3.50922">
        <ele>1318.7</ele>
        <time>2026-05-28T11:51:04.000Z</time>
      </trkpt>
      <trkpt lat="44.04326" lon="3.50922">
        <ele>1318.8</ele>
        <time>2026-05-28T11:51:05.000Z</time>
      </trkpt>
      <trkpt lat="44.04326" lon="3.50922">
        <ele>1318.8</ele>
        <time>2026-05-28T11:51:06.000Z</time>
      </trkpt>
      <trkpt lat="44.04325" lon="3.50921">
        <ele>1318.9</ele>
        <time>2026-05-28T11:51:07.000Z</time>
      </trkpt>
      <trkpt lat="44.04325" lon="3.50921">
        <ele>1318.9</ele>
        <time>2026-05-28T11:51:08.000Z</time>
      </trkpt>
      <trkpt lat="44.04325" lon="3.50922">
        <ele>1318.7</ele>
        <time>2026-05-28T11:51:09.000Z</time>
      </trkpt>
      <trkpt lat="44.04325" lon="3.50922">
        <ele>1318.5</ele>
        <time>2026-05-28T11:51:10.000Z</time>
      </trkpt>
      <trkpt lat="44.04325" lon="3.50922">
        <ele>1318.5</ele>
        <time>2026-05-28T11:51:11.000Z</time>
      </trkpt>
      <trkpt lat="44.04325" lon="3.50922">
        <ele>1318.6</ele>
        <time>2026-05-28T11:51:12.000Z</time>
      </trkpt>
      <trkpt lat="44.04326" lon="3.50921">
        <ele>1318.9</ele>
        <time>2026-05-28T11:51:13.000Z</time>
      </trkpt>
      <trkpt lat="44.04326" lon="3.50921">
        <ele>1319.3</ele>
        <time>2026-05-28T11:51:14.000Z</time>
      </trkpt>
      <trkpt lat="44.04326" lon="3.50921">
        <ele>1319.5</ele>
        <time>2026-05-28T11:51:15.000Z</time>
      </trkpt>
      <trkpt lat="44.04326" lon="3.50921">
        <ele>1319.4</ele>
        <time>2026-05-28T11:51:16.000Z</time>
      </trkpt>
      <trkpt lat="44.04326" lon="3.50921">
        <ele>1319.3</ele>
        <time>2026-05-28T11:51:17.000Z</time>
      </trkpt>
      <trkpt lat="44.04326" lon="3.50921">
        <ele>1319.1</ele>
        <time>2026-05-28T11:51:18.000Z</time>
      </trkpt>
      <trkpt lat="44.04326" lon="3.50921">
        <ele>1319.1</ele>
        <time>2026-05-28T11:51:19.000Z</time>
      </trkpt>
      <trkpt lat="44.04326" lon="3.50922">
        <ele>1318.9</ele>
        <time>2026-05-28T11:51:20.000Z</time>
      </trkpt>
      <trkpt lat="44.04326" lon="3.50922">
        <ele>1319</ele>
        <time>2026-05-28T11:51:21.000Z</time>
      </trkpt>
      <trkpt lat="44.04326" lon="3.50922">
        <ele>1319.1</ele>
        <time>2026-05-28T11:51:22.000Z</time>
      </trkpt>
      <trkpt lat="44.04326" lon="3.50922">
        <ele>1319.1</ele>
        <time>2026-05-28T11:51:23.000Z</time>
      </trkpt>
      <trkpt lat="44.04326" lon="3.50922">
        <ele>1318.9</ele>
        <time>2026-05-28T11:51:24.000Z</time>
      </trkpt>
      <trkpt lat="44.04326" lon="3.50922">
        <ele>1318.7</ele>
        <time>2026-05-28T11:51:25.000Z</time>
      </trkpt>
      <trkpt lat="44.04326" lon="3.50922">
        <ele>1318.4</ele>
        <time>2026-05-28T11:51:26.000Z</time>
      </trkpt>
      <trkpt lat="44.04326" lon="3.50922">
        <ele>1318</ele>
        <time>2026-05-28T11:51:27.000Z</time>
      </trkpt>
      <trkpt lat="44.04326" lon="3.50922">
        <ele>1317.9</ele>
        <time>2026-05-28T11:51:28.000Z</time>
      </trkpt>
      <trkpt lat="44.04326" lon="3.50922">
        <ele>1317.8</ele>
        <time>2026-05-28T11:51:29.000Z</time>
      </trkpt>
      <trkpt lat="44.04326" lon="3.50921">
        <ele>1317.7</ele>
        <time>2026-05-28T11:51:30.000Z</time>
      </trkpt>
      <trkpt lat="44.04326" lon="3.50921">
        <ele>1317.9</ele>
        <time>2026-05-28T11:51:32.000Z</time>
      </trkpt>
      <trkpt lat="44.04326" lon="3.50921">
        <ele>1317.9</ele>
        <time>2026-05-28T11:51:33.000Z</time>
      </trkpt>
      <trkpt lat="44.04326" lon="3.5092">
        <ele>1318</ele>
        <time>2026-05-28T11:51:34.000Z</time>
      </trkpt>
      <trkpt lat="44.04326" lon="3.5092">
        <ele>1318.1</ele>
        <time>2026-05-28T11:51:35.000Z</time>
      </trkpt>
      <trkpt lat="44.04326" lon="3.5092">
        <ele>1318.1</ele>
        <time>2026-05-28T11:51:36.000Z</time>
      </trkpt>
      <trkpt lat="44.04326" lon="3.5092">
        <ele>1318.1</ele>
        <time>2026-05-28T11:51:37.000Z</time>
      </trkpt>
      <trkpt lat="44.04326" lon="3.5092">
        <ele>1318.1</ele>
        <time>2026-05-28T11:51:38.000Z</time>
      </trkpt>
      <trkpt lat="44.04327" lon="3.5092">
        <ele>1318.1</ele>
        <time>2026-05-28T11:51:39.000Z</time>
      </trkpt>
      <trkpt lat="44.04326" lon="3.5092">
        <ele>1318.3</ele>
        <time>2026-05-28T11:51:40.000Z</time>
      </trkpt>
      <trkpt lat="44.04327" lon="3.50922">
        <ele>1318.2</ele>
        <time>2026-05-28T11:51:41.000Z</time>
      </trkpt>
      <trkpt lat="44.04326" lon="3.50921">
        <ele>1317.7</ele>
        <time>2026-05-28T11:51:42.000Z</time>
      </trkpt>
      <trkpt lat="44.04326" lon="3.50921">
        <ele>1317.7</ele>
        <time>2026-05-28T11:51:43.000Z</time>
      </trkpt>
      <trkpt lat="44.04326" lon="3.50921">
        <ele>1317.9</ele>
        <time>2026-05-28T11:51:44.000Z</time>
      </trkpt>
      <trkpt lat="44.04326" lon="3.50921">
        <ele>1318.1</ele>
        <time>2026-05-28T11:51:45.000Z</time>
      </trkpt>
      <trkpt lat="44.04326" lon="3.50921">
        <ele>1318.1</ele>
        <time>2026-05-28T11:51:46.000Z</time>
      </trkpt>
      <trkpt lat="44.04326" lon="3.50921">
        <ele>1318</ele>
        <time>2026-05-28T11:51:47.000Z</time>
      </trkpt>
      <trkpt lat="44.04326" lon="3.50921">
        <ele>1318.1</ele>
        <time>2026-05-28T11:51:48.000Z</time>
      </trkpt>
      <trkpt lat="44.04326" lon="3.50921">
        <ele>1317.7</ele>
        <time>2026-05-28T11:51:49.000Z</time>
      </trkpt>
      <trkpt lat="44.04326" lon="3.50921">
        <ele>1317.4</ele>
        <time>2026-05-28T11:51:50.000Z</time>
      </trkpt>
      <trkpt lat="44.04326" lon="3.50921">
        <ele>1317.1</ele>
        <time>2026-05-28T11:51:51.000Z</time>
      </trkpt>
      <trkpt lat="44.04326" lon="3.50921">
        <ele>1317</ele>
        <time>2026-05-28T11:51:52.000Z</time>
      </trkpt>
      <trkpt lat="44.04326" lon="3.50921">
        <ele>1316.5</ele>
        <time>2026-05-28T11:51:53.000Z</time>
      </trkpt>
      <trkpt lat="44.04326" lon="3.50921">
        <ele>1316.3</ele>
        <time>2026-05-28T11:51:54.000Z</time>
      </trkpt>
      <trkpt lat="44.04326" lon="3.50921">
        <ele>1316.1</ele>
        <time>2026-05-28T11:51:55.000Z</time>
      </trkpt>
      <trkpt lat="44.04326" lon="3.50921">
        <ele>1316.4</ele>
        <time>2026-05-28T11:51:56.000Z</time>
      </trkpt>
      <trkpt lat="44.04326" lon="3.50921">
        <ele>1316.5</ele>
        <time>2026-05-28T11:51:57.000Z</time>
      </trkpt>
      <trkpt lat="44.04326" lon="3.50921">
        <ele>1316.6</ele>
        <time>2026-05-28T11:51:58.000Z</time>
      </trkpt>
      <trkpt lat="44.04326" lon="3.50921">
        <ele>1316.6</ele>
        <time>2026-05-28T11:51:59.000Z</time>
      </trkpt>
      <trkpt lat="44.04326" lon="3.50921">
        <ele>1316.5</ele>
        <time>2026-05-28T11:52:00.000Z</time>
      </trkpt>
      <trkpt lat="44.04326" lon="3.50921">
        <ele>1316.6</ele>
        <time>2026-05-28T11:52:01.000Z</time>
      </trkpt>
      <trkpt lat="44.04326" lon="3.50921">
        <ele>1316.5</ele>
        <time>2026-05-28T11:52:02.000Z</time>
      </trkpt>
      <trkpt lat="44.04326" lon="3.50921">
        <ele>1316.6</ele>
        <time>2026-05-28T11:52:03.000Z</time>
      </trkpt>
      <trkpt lat="44.04326" lon="3.50921">
        <ele>1316.7</ele>
        <time>2026-05-28T11:52:04.000Z</time>
      </trkpt>
      <trkpt lat="44.04326" lon="3.50921">
        <ele>1317</ele>
        <time>2026-05-28T11:52:05.000Z</time>
      </trkpt>
      <trkpt lat="44.04326" lon="3.50921">
        <ele>1316.7</ele>
        <time>2026-05-28T11:52:06.000Z</time>
      </trkpt>
      <trkpt lat="44.04326" lon="3.50921">
        <ele>1316.4</ele>
        <time>2026-05-28T11:52:07.000Z</time>
      </trkpt>
      <trkpt lat="44.04326" lon="3.50921">
        <ele>1316.5</ele>
        <time>2026-05-28T11:52:08.000Z</time>
      </trkpt>
      <trkpt lat="44.04326" lon="3.50921">
        <ele>1316.6</ele>
        <time>2026-05-28T11:52:09.000Z</time>
      </trkpt>
      <trkpt lat="44.04326" lon="3.50921">
        <ele>1317.1</ele>
        <time>2026-05-28T11:52:10.000Z</time>
      </trkpt>
      <trkpt lat="44.04326" lon="3.50921">
        <ele>1317.5</ele>
        <time>2026-05-28T11:52:11.000Z</time>
      </trkpt>
      <trkpt lat="44.04326" lon="3.50921">
        <ele>1317.7</ele>
        <time>2026-05-28T11:52:12.000Z</time>
      </trkpt>
      <trkpt lat="44.04326" lon="3.50921">
        <ele>1317.7</ele>
        <time>2026-05-28T11:52:13.000Z</time>
      </trkpt>
      <trkpt lat="44.04326" lon="3.50921">
        <ele>1317.5</ele>
        <time>2026-05-28T11:52:14.000Z</time>
      </trkpt>
      <trkpt lat="44.04326" lon="3.50921">
        <ele>1317.5</ele>
        <time>2026-05-28T11:52:15.000Z</time>
      </trkpt>
      <trkpt lat="44.04326" lon="3.50921">
        <ele>1317.4</ele>
        <time>2026-05-28T11:52:16.000Z</time>
      </trkpt>
      <trkpt lat="44.04326" lon="3.50921">
        <ele>1317.4</ele>
        <time>2026-05-28T11:52:17.000Z</time>
      </trkpt>
      <trkpt lat="44.04326" lon="3.50921">
        <ele>1317.4</ele>
        <time>2026-05-28T11:52:18.000Z</time>
      </trkpt>
      <trkpt lat="44.04326" lon="3.50921">
        <ele>1317.4</ele>
        <time>2026-05-28T11:52:19.000Z</time>
      </trkpt>
      <trkpt lat="44.04326" lon="3.50921">
        <ele>1317.4</ele>
        <time>2026-05-28T11:52:20.000Z</time>
      </trkpt>
      <trkpt lat="44.04326" lon="3.50921">
        <ele>1317.4</ele>
        <time>2026-05-28T11:52:21.000Z</time>
      </trkpt>
      <trkpt lat="44.04326" lon="3.50921">
        <ele>1317.6</ele>
        <time>2026-05-28T11:52:22.000Z</time>
      </trkpt>
      <trkpt lat="44.04326" lon="3.50921">
        <ele>1317.6</ele>
        <time>2026-05-28T11:52:23.000Z</time>
      </trkpt>
      <trkpt lat="44.04326" lon="3.50921">
        <ele>1317.6</ele>
        <time>2026-05-28T11:52:24.000Z</time>
      </trkpt>
      <trkpt lat="44.04326" lon="3.50921">
        <ele>1317.7</ele>
        <time>2026-05-28T11:52:25.000Z</time>
      </trkpt>
      <trkpt lat="44.04326" lon="3.50921">
        <ele>1317.7</ele>
        <time>2026-05-28T11:52:26.000Z</time>
      </trkpt>
      <trkpt lat="44.04326" lon="3.50921">
        <ele>1317.6</ele>
        <time>2026-05-28T11:52:27.000Z</time>
      </trkpt>
      <trkpt lat="44.04326" lon="3.50921">
        <ele>1317.5</ele>
        <time>2026-05-28T11:52:28.000Z</time>
      </trkpt>
      <trkpt lat="44.04326" lon="3.50922">
        <ele>1317.5</ele>
        <time>2026-05-28T11:52:29.000Z</time>
      </trkpt>
      <trkpt lat="44.04326" lon="3.50922">
        <ele>1317.8</ele>
        <time>2026-05-28T11:52:30.000Z</time>
      </trkpt>
      <trkpt lat="44.04326" lon="3.50922">
        <ele>1317.9</ele>
        <time>2026-05-28T11:52:31.000Z</time>
      </trkpt>
      <trkpt lat="44.04326" lon="3.50922">
        <ele>1318</ele>
        <time>2026-05-28T11:52:32.000Z</time>
      </trkpt>
      <trkpt lat="44.04325" lon="3.50922">
        <ele>1318.1</ele>
        <time>2026-05-28T11:52:33.000Z</time>
      </trkpt>
      <trkpt lat="44.04325" lon="3.50922">
        <ele>1318.3</ele>
        <time>2026-05-28T11:52:34.000Z</time>
      </trkpt>
      <trkpt lat="44.04325" lon="3.50922">
        <ele>1318.3</ele>
        <time>2026-05-28T11:52:35.000Z</time>
      </trkpt>
      <trkpt lat="44.04325" lon="3.50921">
        <ele>1318.2</ele>
        <time>2026-05-28T11:52:36.000Z</time>
      </trkpt>
      <trkpt lat="44.04325" lon="3.50921">
        <ele>1318</ele>
        <time>2026-05-28T11:52:37.000Z</time>
      </trkpt>
      <trkpt lat="44.04325" lon="3.50921">
        <ele>1318.2</ele>
        <time>2026-05-28T11:52:39.000Z</time>
      </trkpt>
      <trkpt lat="44.04325" lon="3.50921">
        <ele>1318.2</ele>
        <time>2026-05-28T11:52:40.000Z</time>
      </trkpt>
      <trkpt lat="44.04325" lon="3.50921">
        <ele>1318.1</ele>
        <time>2026-05-28T11:52:41.000Z</time>
      </trkpt>
      <trkpt lat="44.04325" lon="3.50921">
        <ele>1318.1</ele>
        <time>2026-05-28T11:52:42.000Z</time>
      </trkpt>
      <trkpt lat="44.04325" lon="3.50921">
        <ele>1318.1</ele>
        <time>2026-05-28T11:52:43.000Z</time>
      </trkpt>
      <trkpt lat="44.04325" lon="3.50921">
        <ele>1318.1</ele>
        <time>2026-05-28T11:52:44.000Z</time>
      </trkpt>
      <trkpt lat="44.04325" lon="3.50921">
        <ele>1318.2</ele>
        <time>2026-05-28T11:52:45.000Z</time>
      </trkpt>
      <trkpt lat="44.04325" lon="3.50921">
        <ele>1318.1</ele>
        <time>2026-05-28T11:52:46.000Z</time>
      </trkpt>
      <trkpt lat="44.04325" lon="3.50921">
        <ele>1318.2</ele>
        <time>2026-05-28T11:52:47.000Z</time>
      </trkpt>
      <trkpt lat="44.04325" lon="3.50921">
        <ele>1318.2</ele>
        <time>2026-05-28T11:52:48.000Z</time>
      </trkpt>
      <trkpt lat="44.04325" lon="3.50921">
        <ele>1318.1</ele>
        <time>2026-05-28T11:52:49.000Z</time>
      </trkpt>
      <trkpt lat="44.04325" lon="3.50921">
        <ele>1318</ele>
        <time>2026-05-28T11:52:50.000Z</time>
      </trkpt>
      <trkpt lat="44.04325" lon="3.50921">
        <ele>1318.2</ele>
        <time>2026-05-28T11:52:51.000Z</time>
      </trkpt>
      <trkpt lat="44.04325" lon="3.50921">
        <ele>1318</ele>
        <time>2026-05-28T11:52:52.000Z</time>
      </trkpt>
      <trkpt lat="44.04325" lon="3.50921">
        <ele>1317.9</ele>
        <time>2026-05-28T11:52:53.000Z</time>
      </trkpt>
      <trkpt lat="44.04325" lon="3.50921">
        <ele>1318.3</ele>
        <time>2026-05-28T11:52:54.000Z</time>
      </trkpt>
      <trkpt lat="44.04325" lon="3.50921">
        <ele>1318.5</ele>
        <time>2026-05-28T11:52:55.000Z</time>
      </trkpt>
      <trkpt lat="44.04325" lon="3.50921">
        <ele>1318.3</ele>
        <time>2026-05-28T11:52:56.000Z</time>
      </trkpt>
      <trkpt lat="44.04325" lon="3.50921">
        <ele>1318.2</ele>
        <time>2026-05-28T11:52:57.000Z</time>
      </trkpt>
      <trkpt lat="44.04325" lon="3.50921">
        <ele>1318.3</ele>
        <time>2026-05-28T11:52:58.000Z</time>
      </trkpt>
      <trkpt lat="44.04325" lon="3.50921">
        <ele>1318.2</ele>
        <time>2026-05-28T11:52:59.000Z</time>
      </trkpt>
      <trkpt lat="44.04325" lon="3.50921">
        <ele>1318</ele>
        <time>2026-05-28T11:53:00.000Z</time>
      </trkpt>
      <trkpt lat="44.04325" lon="3.50921">
        <ele>1318</ele>
        <time>2026-05-28T11:53:01.000Z</time>
      </trkpt>
      <trkpt lat="44.04325" lon="3.50921">
        <ele>1317.9</ele>
        <time>2026-05-28T11:53:02.000Z</time>
      </trkpt>
      <trkpt lat="44.04325" lon="3.50921">
        <ele>1317.8</ele>
        <time>2026-05-28T11:53:03.000Z</time>
      </trkpt>
      <trkpt lat="44.04325" lon="3.50921">
        <ele>1317.8</ele>
        <time>2026-05-28T11:53:05.000Z</time>
      </trkpt>
      <trkpt lat="44.04325" lon="3.50921">
        <ele>1317.9</ele>
        <time>2026-05-28T11:53:06.000Z</time>
      </trkpt>
      <trkpt lat="44.04325" lon="3.50921">
        <ele>1318</ele>
        <time>2026-05-28T11:53:07.000Z</time>
      </trkpt>
      <trkpt lat="44.04325" lon="3.50921">
        <ele>1318.2</ele>
        <time>2026-05-28T11:53:08.000Z</time>
      </trkpt>
      <trkpt lat="44.04325" lon="3.50921">
        <ele>1318.2</ele>
        <time>2026-05-28T11:53:09.000Z</time>
      </trkpt>
      <trkpt lat="44.04325" lon="3.50921">
        <ele>1318.2</ele>
        <time>2026-05-28T11:53:10.000Z</time>
      </trkpt>
      <trkpt lat="44.04325" lon="3.50921">
        <ele>1318.1</ele>
        <time>2026-05-28T11:53:11.000Z</time>
      </trkpt>
      <trkpt lat="44.04325" lon="3.50921">
        <ele>1318.1</ele>
        <time>2026-05-28T11:53:12.000Z</time>
      </trkpt>
      <trkpt lat="44.04326" lon="3.50921">
        <ele>1318.1</ele>
        <time>2026-05-28T11:53:13.000Z</time>
      </trkpt>
      <trkpt lat="44.04326" lon="3.50921">
        <ele>1317.9</ele>
        <time>2026-05-28T11:53:14.000Z</time>
      </trkpt>
      <trkpt lat="44.04325" lon="3.50921">
        <ele>1317.8</ele>
        <time>2026-05-28T11:53:15.000Z</time>
      </trkpt>
      <trkpt lat="44.04325" lon="3.50921">
        <ele>1317.7</ele>
        <time>2026-05-28T11:53:16.000Z</time>
      </trkpt>
      <trkpt lat="44.04325" lon="3.50921">
        <ele>1317.6</ele>
        <time>2026-05-28T11:53:17.000Z</time>
      </trkpt>
      <trkpt lat="44.04325" lon="3.50921">
        <ele>1317.5</ele>
        <time>2026-05-28T11:53:18.000Z</time>
      </trkpt>
      <trkpt lat="44.04325" lon="3.50921">
        <ele>1317.5</ele>
        <time>2026-05-28T11:53:19.000Z</time>
      </trkpt>
      <trkpt lat="44.04325" lon="3.50921">
        <ele>1317.6</ele>
        <time>2026-05-28T11:53:20.000Z</time>
      </trkpt>
      <trkpt lat="44.04325" lon="3.50921">
        <ele>1317.7</ele>
        <time>2026-05-28T11:53:21.000Z</time>
      </trkpt>
      <trkpt lat="44.04325" lon="3.50921">
        <ele>1317.8</ele>
        <time>2026-05-28T11:53:22.000Z</time>
      </trkpt>
      <trkpt lat="44.04325" lon="3.50921">
        <ele>1317.7</ele>
        <time>2026-05-28T11:53:23.000Z</time>
      </trkpt>
      <trkpt lat="44.04325" lon="3.50921">
        <ele>1317.7</ele>
        <time>2026-05-28T11:53:24.000Z</time>
      </trkpt>
      <trkpt lat="44.04325" lon="3.50921">
        <ele>1317.8</ele>
        <time>2026-05-28T11:53:25.000Z</time>
      </trkpt>
      <trkpt lat="44.04325" lon="3.50921">
        <ele>1317.8</ele>
        <time>2026-05-28T11:53:26.000Z</time>
      </trkpt>
      <trkpt lat="44.04325" lon="3.50921">
        <ele>1317.5</ele>
        <time>2026-05-28T11:53:27.000Z</time>
      </trkpt>
      <trkpt lat="44.04325" lon="3.50921">
        <ele>1317.3</ele>
        <time>2026-05-28T11:53:28.000Z</time>
      </trkpt>
      <trkpt lat="44.04325" lon="3.50921">
        <ele>1317.4</ele>
        <time>2026-05-28T11:53:29.000Z</time>
      </trkpt>
      <trkpt lat="44.04325" lon="3.50921">
        <ele>1317.1</ele>
        <time>2026-05-28T11:53:30.000Z</time>
      </trkpt>
      <trkpt lat="44.04325" lon="3.5092">
        <ele>1317.2</ele>
        <time>2026-05-28T11:53:31.000Z</time>
      </trkpt>
      <trkpt lat="44.04325" lon="3.50921">
        <ele>1316.6</ele>
        <time>2026-05-28T11:53:32.000Z</time>
      </trkpt>
      <trkpt lat="44.04326" lon="3.50922">
        <ele>1316.5</ele>
        <time>2026-05-28T11:53:33.000Z</time>
      </trkpt>
      <trkpt lat="44.04326" lon="3.50922">
        <ele>1316.5</ele>
        <time>2026-05-28T11:53:34.000Z</time>
      </trkpt>
      <trkpt lat="44.04326" lon="3.50922">
        <ele>1316.3</ele>
        <time>2026-05-28T11:53:35.000Z</time>
      </trkpt>
      <trkpt lat="44.04326" lon="3.50922">
        <ele>1316.3</ele>
        <time>2026-05-28T11:53:36.000Z</time>
      </trkpt>
      <trkpt lat="44.04326" lon="3.50922">
        <ele>1316.2</ele>
        <time>2026-05-28T11:53:37.000Z</time>
      </trkpt>
      <trkpt lat="44.04326" lon="3.50922">
        <ele>1316.3</ele>
        <time>2026-05-28T11:53:38.000Z</time>
      </trkpt>
      <trkpt lat="44.04326" lon="3.50922">
        <ele>1316.3</ele>
        <time>2026-05-28T11:53:39.000Z</time>
      </trkpt>
      <trkpt lat="44.04326" lon="3.50922">
        <ele>1316.5</ele>
        <time>2026-05-28T11:53:40.000Z</time>
      </trkpt>
      <trkpt lat="44.04326" lon="3.50922">
        <ele>1316.4</ele>
        <time>2026-05-28T11:53:41.000Z</time>
      </trkpt>
      <trkpt lat="44.04326" lon="3.50922">
        <ele>1316.4</ele>
        <time>2026-05-28T11:53:42.000Z</time>
      </trkpt>
      <trkpt lat="44.04326" lon="3.50922">
        <ele>1316.5</ele>
        <time>2026-05-28T11:53:43.000Z</time>
      </trkpt>
      <trkpt lat="44.04326" lon="3.50922">
        <ele>1316.7</ele>
        <time>2026-05-28T11:53:44.000Z</time>
      </trkpt>
      <trkpt lat="44.04326" lon="3.50922">
        <ele>1316.9</ele>
        <time>2026-05-28T11:53:45.000Z</time>
      </trkpt>
      <trkpt lat="44.04326" lon="3.50922">
        <ele>1317</ele>
        <time>2026-05-28T11:53:46.000Z</time>
      </trkpt>
      <trkpt lat="44.04326" lon="3.50922">
        <ele>1317</ele>
        <time>2026-05-28T11:53:47.000Z</time>
      </trkpt>
      <trkpt lat="44.04326" lon="3.50922">
        <ele>1317.2</ele>
        <time>2026-05-28T11:53:48.000Z</time>
      </trkpt>
      <trkpt lat="44.04326" lon="3.50922">
        <ele>1317.3</ele>
        <time>2026-05-28T11:53:49.000Z</time>
      </trkpt>
      <trkpt lat="44.04326" lon="3.50922">
        <ele>1317.2</ele>
        <time>2026-05-28T11:53:50.000Z</time>
      </trkpt>
      <trkpt lat="44.04326" lon="3.50922">
        <ele>1317.3</ele>
        <time>2026-05-28T11:53:51.000Z</time>
      </trkpt>
      <trkpt lat="44.04326" lon="3.50922">
        <ele>1317.2</ele>
        <time>2026-05-28T11:53:52.000Z</time>
      </trkpt>
      <trkpt lat="44.04326" lon="3.50922">
        <ele>1317.2</ele>
        <time>2026-05-28T11:53:53.000Z</time>
      </trkpt>
      <trkpt lat="44.04326" lon="3.50922">
        <ele>1316.9</ele>
        <time>2026-05-28T11:53:54.000Z</time>
      </trkpt>
      <trkpt lat="44.04327" lon="3.50922">
        <ele>1316.6</ele>
        <time>2026-05-28T11:53:55.000Z</time>
      </trkpt>
      <trkpt lat="44.04326" lon="3.50922">
        <ele>1316.8</ele>
        <time>2026-05-28T11:53:56.000Z</time>
      </trkpt>
      <trkpt lat="44.04326" lon="3.50922">
        <ele>1317.1</ele>
        <time>2026-05-28T11:53:57.000Z</time>
      </trkpt>
      <trkpt lat="44.04326" lon="3.50922">
        <ele>1317.3</ele>
        <time>2026-05-28T11:53:58.000Z</time>
      </trkpt>
      <trkpt lat="44.04326" lon="3.50922">
        <ele>1317.4</ele>
        <time>2026-05-28T11:53:59.000Z</time>
      </trkpt>
      <trkpt lat="44.04326" lon="3.50922">
        <ele>1317.6</ele>
        <time>2026-05-28T11:54:00.000Z</time>
      </trkpt>
      <trkpt lat="44.04326" lon="3.50922">
        <ele>1317.4</ele>
        <time>2026-05-28T11:54:01.000Z</time>
      </trkpt>
      <trkpt lat="44.04326" lon="3.50922">
        <ele>1317.9</ele>
        <time>2026-05-28T11:54:02.000Z</time>
      </trkpt>
      <trkpt lat="44.04325" lon="3.50923">
        <ele>1317.8</ele>
        <time>2026-05-28T11:54:03.000Z</time>
      </trkpt>
      <trkpt lat="44.04325" lon="3.50923">
        <ele>1317.8</ele>
        <time>2026-05-28T11:54:04.000Z</time>
      </trkpt>
      <trkpt lat="44.04325" lon="3.50924">
        <ele>1318</ele>
        <time>2026-05-28T11:54:05.000Z</time>
      </trkpt>
      <trkpt lat="44.04325" lon="3.50923">
        <ele>1317.9</ele>
        <time>2026-05-28T11:54:06.000Z</time>
      </trkpt>
      <trkpt lat="44.04325" lon="3.50923">
        <ele>1318</ele>
        <time>2026-05-28T11:54:07.000Z</time>
      </trkpt>
      <trkpt lat="44.04325" lon="3.50923">
        <ele>1318</ele>
        <time>2026-05-28T11:54:08.000Z</time>
      </trkpt>
      <trkpt lat="44.04325" lon="3.50923">
        <ele>1317.7</ele>
        <time>2026-05-28T11:54:09.000Z</time>
      </trkpt>
      <trkpt lat="44.04325" lon="3.50923">
        <ele>1317.6</ele>
        <time>2026-05-28T11:54:10.000Z</time>
      </trkpt>
      <trkpt lat="44.04324" lon="3.50923">
        <ele>1317.3</ele>
        <time>2026-05-28T11:54:11.000Z</time>
      </trkpt>
      <trkpt lat="44.04324" lon="3.50923">
        <ele>1317.5</ele>
        <time>2026-05-28T11:54:12.000Z</time>
      </trkpt>
      <trkpt lat="44.04324" lon="3.50922">
        <ele>1317.5</ele>
        <time>2026-05-28T11:54:13.000Z</time>
      </trkpt>
      <trkpt lat="44.04324" lon="3.50923">
        <ele>1317.4</ele>
        <time>2026-05-28T11:54:14.000Z</time>
      </trkpt>
      <trkpt lat="44.04324" lon="3.50923">
        <ele>1317.3</ele>
        <time>2026-05-28T11:54:15.000Z</time>
      </trkpt>
      <trkpt lat="44.04325" lon="3.50924">
        <ele>1317.3</ele>
        <time>2026-05-28T11:54:16.000Z</time>
      </trkpt>
      <trkpt lat="44.04326" lon="3.50925">
        <ele>1317.4</ele>
        <time>2026-05-28T11:54:17.000Z</time>
      </trkpt>
      <trkpt lat="44.04326" lon="3.50925">
        <ele>1317.8</ele>
        <time>2026-05-28T11:54:18.000Z</time>
      </trkpt>
      <trkpt lat="44.04327" lon="3.50925">
        <ele>1318</ele>
        <time>2026-05-28T11:54:19.000Z</time>
      </trkpt>
      <trkpt lat="44.04327" lon="3.50925">
        <ele>1317.8</ele>
        <time>2026-05-28T11:54:20.000Z</time>
      </trkpt>
      <trkpt lat="44.04327" lon="3.50925">
        <ele>1317.8</ele>
        <time>2026-05-28T11:54:21.000Z</time>
      </trkpt>
      <trkpt lat="44.04327" lon="3.50925">
        <ele>1317.3</ele>
        <time>2026-05-28T11:54:22.000Z</time>
      </trkpt>
      <trkpt lat="44.04327" lon="3.50925">
        <ele>1317.5</ele>
        <time>2026-05-28T11:54:23.000Z</time>
      </trkpt>
      <trkpt lat="44.04327" lon="3.50925">
        <ele>1317.5</ele>
        <time>2026-05-28T11:54:24.000Z</time>
      </trkpt>
      <trkpt lat="44.04327" lon="3.50924">
        <ele>1317.6</ele>
        <time>2026-05-28T11:54:25.000Z</time>
      </trkpt>
      <trkpt lat="44.04327" lon="3.50923">
        <ele>1317.9</ele>
        <time>2026-05-28T11:54:26.000Z</time>
      </trkpt>
      <trkpt lat="44.04326" lon="3.50923">
        <ele>1318</ele>
        <time>2026-05-28T11:54:27.000Z</time>
      </trkpt>
      <trkpt lat="44.04327" lon="3.50923">
        <ele>1318.2</ele>
        <time>2026-05-28T11:54:28.000Z</time>
      </trkpt>
      <trkpt lat="44.04327" lon="3.50923">
        <ele>1318</ele>
        <time>2026-05-28T11:54:29.000Z</time>
      </trkpt>
      <trkpt lat="44.04327" lon="3.50923">
        <ele>1318</ele>
        <time>2026-05-28T11:54:30.000Z</time>
      </trkpt>
      <trkpt lat="44.04327" lon="3.50923">
        <ele>1317.5</ele>
        <time>2026-05-28T11:54:31.000Z</time>
      </trkpt>
      <trkpt lat="44.04327" lon="3.50923">
        <ele>1317.5</ele>
        <time>2026-05-28T11:54:32.000Z</time>
      </trkpt>
      <trkpt lat="44.04328" lon="3.50922">
        <ele>1317.5</ele>
        <time>2026-05-28T11:54:33.000Z</time>
      </trkpt>
      <trkpt lat="44.04327" lon="3.50922">
        <ele>1317.4</ele>
        <time>2026-05-28T11:54:34.000Z</time>
      </trkpt>
      <trkpt lat="44.04328" lon="3.50922">
        <ele>1317.5</ele>
        <time>2026-05-28T11:54:35.000Z</time>
      </trkpt>
      <trkpt lat="44.04328" lon="3.50922">
        <ele>1317.5</ele>
        <time>2026-05-28T11:54:36.000Z</time>
      </trkpt>
      <trkpt lat="44.04328" lon="3.50922">
        <ele>1317.6</ele>
        <time>2026-05-28T11:54:37.000Z</time>
      </trkpt>
      <trkpt lat="44.04328" lon="3.50922">
        <ele>1317.5</ele>
        <time>2026-05-28T11:54:38.000Z</time>
      </trkpt>
      <trkpt lat="44.04328" lon="3.50922">
        <ele>1317.5</ele>
        <time>2026-05-28T11:54:39.000Z</time>
      </trkpt>
      <trkpt lat="44.04328" lon="3.50922">
        <ele>1317.6</ele>
        <time>2026-05-28T11:54:40.000Z</time>
      </trkpt>
      <trkpt lat="44.04328" lon="3.50922">
        <ele>1317.6</ele>
        <time>2026-05-28T11:54:41.000Z</time>
      </trkpt>
      <trkpt lat="44.04328" lon="3.50922">
        <ele>1317.6</ele>
        <time>2026-05-28T11:54:42.000Z</time>
      </trkpt>
      <trkpt lat="44.04328" lon="3.50922">
        <ele>1317.6</ele>
        <time>2026-05-28T11:54:43.000Z</time>
      </trkpt>
      <trkpt lat="44.04328" lon="3.50922">
        <ele>1317.6</ele>
        <time>2026-05-28T11:54:44.000Z</time>
      </trkpt>
      <trkpt lat="44.04328" lon="3.50922">
        <ele>1317.6</ele>
        <time>2026-05-28T11:54:45.000Z</time>
      </trkpt>
      <trkpt lat="44.04327" lon="3.50922">
        <ele>1317.6</ele>
        <time>2026-05-28T11:54:47.000Z</time>
      </trkpt>
      <trkpt lat="44.04328" lon="3.50922">
        <ele>1317.6</ele>
        <time>2026-05-28T11:54:48.000Z</time>
      </trkpt>
      <trkpt lat="44.04328" lon="3.50922">
        <ele>1317.6</ele>
        <time>2026-05-28T11:54:49.000Z</time>
      </trkpt>
      <trkpt lat="44.04327" lon="3.50922">
        <ele>1317.6</ele>
        <time>2026-05-28T11:54:50.000Z</time>
      </trkpt>
      <trkpt lat="44.04327" lon="3.50923">
        <ele>1317.6</ele>
        <time>2026-05-28T11:54:51.000Z</time>
      </trkpt>
      <trkpt lat="44.04327" lon="3.50922">
        <ele>1317.4</ele>
        <time>2026-05-28T11:54:52.000Z</time>
      </trkpt>
      <trkpt lat="44.04327" lon="3.50922">
        <ele>1317.5</ele>
        <time>2026-05-28T11:54:53.000Z</time>
      </trkpt>
      <trkpt lat="44.04327" lon="3.50922">
        <ele>1317.5</ele>
        <time>2026-05-28T11:54:54.000Z</time>
      </trkpt>
      <trkpt lat="44.04327" lon="3.50922">
        <ele>1317.6</ele>
        <time>2026-05-28T11:54:55.000Z</time>
      </trkpt>
      <trkpt lat="44.04327" lon="3.50922">
        <ele>1317.5</ele>
        <time>2026-05-28T11:54:56.000Z</time>
      </trkpt>
      <trkpt lat="44.04327" lon="3.50922">
        <ele>1317.9</ele>
        <time>2026-05-28T11:54:57.000Z</time>
      </trkpt>
      <trkpt lat="44.04327" lon="3.50922">
        <ele>1318</ele>
        <time>2026-05-28T11:54:58.000Z</time>
      </trkpt>
      <trkpt lat="44.04327" lon="3.50922">
        <ele>1317.9</ele>
        <time>2026-05-28T11:54:59.000Z</time>
      </trkpt>
      <trkpt lat="44.04327" lon="3.50922">
        <ele>1318.1</ele>
        <time>2026-05-28T11:55:00.000Z</time>
      </trkpt>
      <trkpt lat="44.04327" lon="3.50922">
        <ele>1318</ele>
        <time>2026-05-28T11:55:01.000Z</time>
      </trkpt>
      <trkpt lat="44.04327" lon="3.50921">
        <ele>1317.9</ele>
        <time>2026-05-28T11:55:02.000Z</time>
      </trkpt>
      <trkpt lat="44.04327" lon="3.50921">
        <ele>1318.1</ele>
        <time>2026-05-28T11:55:03.000Z</time>
      </trkpt>
      <trkpt lat="44.04327" lon="3.50921">
        <ele>1318.4</ele>
        <time>2026-05-28T11:55:04.000Z</time>
      </trkpt>
      <trkpt lat="44.04327" lon="3.50921">
        <ele>1318.4</ele>
        <time>2026-05-28T11:55:05.000Z</time>
      </trkpt>
      <trkpt lat="44.04327" lon="3.50921">
        <ele>1318.6</ele>
        <time>2026-05-28T11:55:06.000Z</time>
      </trkpt>
      <trkpt lat="44.04327" lon="3.50921">
        <ele>1318.7</ele>
        <time>2026-05-28T11:55:07.000Z</time>
      </trkpt>
      <trkpt lat="44.04327" lon="3.50921">
        <ele>1318.5</ele>
        <time>2026-05-28T11:55:08.000Z</time>
      </trkpt>
      <trkpt lat="44.04327" lon="3.50921">
        <ele>1318.2</ele>
        <time>2026-05-28T11:55:09.000Z</time>
      </trkpt>
      <trkpt lat="44.04327" lon="3.50921">
        <ele>1318.2</ele>
        <time>2026-05-28T11:55:10.000Z</time>
      </trkpt>
      <trkpt lat="44.04327" lon="3.50921">
        <ele>1318</ele>
        <time>2026-05-28T11:55:11.000Z</time>
      </trkpt>
      <trkpt lat="44.04327" lon="3.50921">
        <ele>1317.9</ele>
        <time>2026-05-28T11:55:12.000Z</time>
      </trkpt>
      <trkpt lat="44.04327" lon="3.50921">
        <ele>1317.6</ele>
        <time>2026-05-28T11:55:13.000Z</time>
      </trkpt>
      <trkpt lat="44.04327" lon="3.5092">
        <ele>1317.7</ele>
        <time>2026-05-28T11:55:14.000Z</time>
      </trkpt>
      <trkpt lat="44.04327" lon="3.50921">
        <ele>1317.7</ele>
        <time>2026-05-28T11:55:16.000Z</time>
      </trkpt>
      <trkpt lat="44.04327" lon="3.50921">
        <ele>1317.5</ele>
        <time>2026-05-28T11:55:17.000Z</time>
      </trkpt>
      <trkpt lat="44.04326" lon="3.50921">
        <ele>1317.3</ele>
        <time>2026-05-28T11:55:18.000Z</time>
      </trkpt>
      <trkpt lat="44.04326" lon="3.50921">
        <ele>1317</ele>
        <time>2026-05-28T11:55:19.000Z</time>
      </trkpt>
      <trkpt lat="44.04325" lon="3.50921">
        <ele>1316.9</ele>
        <time>2026-05-28T11:55:20.000Z</time>
      </trkpt>
      <trkpt lat="44.04325" lon="3.50921">
        <ele>1317</ele>
        <time>2026-05-28T11:55:21.000Z</time>
      </trkpt>
      <trkpt lat="44.04325" lon="3.50921">
        <ele>1316.8</ele>
        <time>2026-05-28T11:55:22.000Z</time>
      </trkpt>
      <trkpt lat="44.04325" lon="3.50921">
        <ele>1316.5</ele>
        <time>2026-05-28T11:55:23.000Z</time>
      </trkpt>
      <trkpt lat="44.04325" lon="3.50921">
        <ele>1316.7</ele>
        <time>2026-05-28T11:55:24.000Z</time>
      </trkpt>
      <trkpt lat="44.04325" lon="3.5092">
        <ele>1316.4</ele>
        <time>2026-05-28T11:55:25.000Z</time>
      </trkpt>
      <trkpt lat="44.04324" lon="3.5092">
        <ele>1316.5</ele>
        <time>2026-05-28T11:55:26.000Z</time>
      </trkpt>
      <trkpt lat="44.04323" lon="3.5092">
        <ele>1316.6</ele>
        <time>2026-05-28T11:55:27.000Z</time>
      </trkpt>
      <trkpt lat="44.04323" lon="3.50921">
        <ele>1316.5</ele>
        <time>2026-05-28T11:55:28.000Z</time>
      </trkpt>
      <trkpt lat="44.04322" lon="3.50921">
        <ele>1316.6</ele>
        <time>2026-05-28T11:55:29.000Z</time>
      </trkpt>
      <trkpt lat="44.04322" lon="3.50921">
        <ele>1316.6</ele>
        <time>2026-05-28T11:55:30.000Z</time>
      </trkpt>
      <trkpt lat="44.04322" lon="3.50921">
        <ele>1316.6</ele>
        <time>2026-05-28T11:55:31.000Z</time>
      </trkpt>
      <trkpt lat="44.04322" lon="3.50921">
        <ele>1316.6</ele>
        <time>2026-05-28T11:55:32.000Z</time>
      </trkpt>
      <trkpt lat="44.04322" lon="3.50921">
        <ele>1316.5</ele>
        <time>2026-05-28T11:55:33.000Z</time>
      </trkpt>
      <trkpt lat="44.04322" lon="3.50921">
        <ele>1316.5</ele>
        <time>2026-05-28T11:55:34.000Z</time>
      </trkpt>
      <trkpt lat="44.04322" lon="3.50921">
        <ele>1316.7</ele>
        <time>2026-05-28T11:55:35.000Z</time>
      </trkpt>
      <trkpt lat="44.04322" lon="3.50921">
        <ele>1316.5</ele>
        <time>2026-05-28T11:55:36.000Z</time>
      </trkpt>
      <trkpt lat="44.04322" lon="3.50921">
        <ele>1316.4</ele>
        <time>2026-05-28T11:55:37.000Z</time>
      </trkpt>
      <trkpt lat="44.04322" lon="3.50921">
        <ele>1316.6</ele>
        <time>2026-05-28T11:55:38.000Z</time>
      </trkpt>
      <trkpt lat="44.04322" lon="3.50921">
        <ele>1316.6</ele>
        <time>2026-05-28T11:55:39.000Z</time>
      </trkpt>
      <trkpt lat="44.04322" lon="3.50921">
        <ele>1316.6</ele>
        <time>2026-05-28T11:55:40.000Z</time>
      </trkpt>
      <trkpt lat="44.04322" lon="3.50921">
        <ele>1316.6</ele>
        <time>2026-05-28T11:55:41.000Z</time>
      </trkpt>
      <trkpt lat="44.04322" lon="3.50921">
        <ele>1316.7</ele>
        <time>2026-05-28T11:55:42.000Z</time>
      </trkpt>
      <trkpt lat="44.04322" lon="3.50921">
        <ele>1316.6</ele>
        <time>2026-05-28T11:55:43.000Z</time>
      </trkpt>
      <trkpt lat="44.04322" lon="3.50921">
        <ele>1316.7</ele>
        <time>2026-05-28T11:55:44.000Z</time>
      </trkpt>
      <trkpt lat="44.04322" lon="3.50921">
        <ele>1316.4</ele>
        <time>2026-05-28T11:55:45.000Z</time>
      </trkpt>
      <trkpt lat="44.04322" lon="3.50921">
        <ele>1316.2</ele>
        <time>2026-05-28T11:55:46.000Z</time>
      </trkpt>
      <trkpt lat="44.04322" lon="3.50921">
        <ele>1316.2</ele>
        <time>2026-05-28T11:55:47.000Z</time>
      </trkpt>
      <trkpt lat="44.04322" lon="3.50921">
        <ele>1316.2</ele>
        <time>2026-05-28T11:55:48.000Z</time>
      </trkpt>
      <trkpt lat="44.04322" lon="3.50921">
        <ele>1316.2</ele>
        <time>2026-05-28T11:55:49.000Z</time>
      </trkpt>
      <trkpt lat="44.04322" lon="3.50921">
        <ele>1316.1</ele>
        <time>2026-05-28T11:55:50.000Z</time>
      </trkpt>
      <trkpt lat="44.04322" lon="3.50921">
        <ele>1316</ele>
        <time>2026-05-28T11:55:51.000Z</time>
      </trkpt>
      <trkpt lat="44.04322" lon="3.50921">
        <ele>1315.9</ele>
        <time>2026-05-28T11:55:52.000Z</time>
      </trkpt>
      <trkpt lat="44.04322" lon="3.50921">
        <ele>1315.8</ele>
        <time>2026-05-28T11:55:53.000Z</time>
      </trkpt>
      <trkpt lat="44.04322" lon="3.50921">
        <ele>1315.8</ele>
        <time>2026-05-28T11:55:54.000Z</time>
      </trkpt>
      <trkpt lat="44.04322" lon="3.50921">
        <ele>1315.7</ele>
        <time>2026-05-28T11:55:55.000Z</time>
      </trkpt>
      <trkpt lat="44.04322" lon="3.50921">
        <ele>1315.7</ele>
        <time>2026-05-28T11:55:56.000Z</time>
      </trkpt>
      <trkpt lat="44.04322" lon="3.50921">
        <ele>1315.7</ele>
        <time>2026-05-28T11:55:57.000Z</time>
      </trkpt>
      <trkpt lat="44.04322" lon="3.50921">
        <ele>1315.6</ele>
        <time>2026-05-28T11:55:58.000Z</time>
      </trkpt>
      <trkpt lat="44.04322" lon="3.50921">
        <ele>1315.5</ele>
        <time>2026-05-28T11:55:59.000Z</time>
      </trkpt>
      <trkpt lat="44.04322" lon="3.50921">
        <ele>1315.6</ele>
        <time>2026-05-28T11:56:00.000Z</time>
      </trkpt>
      <trkpt lat="44.04322" lon="3.50921">
        <ele>1315.5</ele>
        <time>2026-05-28T11:56:01.000Z</time>
      </trkpt>
      <trkpt lat="44.04322" lon="3.50921">
        <ele>1315.3</ele>
        <time>2026-05-28T11:56:02.000Z</time>
      </trkpt>
      <trkpt lat="44.04322" lon="3.50921">
        <ele>1315.2</ele>
        <time>2026-05-28T11:56:03.000Z</time>
      </trkpt>
      <trkpt lat="44.04322" lon="3.50921">
        <ele>1315</ele>
        <time>2026-05-28T11:56:04.000Z</time>
      </trkpt>
      <trkpt lat="44.04322" lon="3.50921">
        <ele>1314.9</ele>
        <time>2026-05-28T11:56:05.000Z</time>
      </trkpt>
      <trkpt lat="44.04322" lon="3.50921">
        <ele>1314.9</ele>
        <time>2026-05-28T11:56:06.000Z</time>
      </trkpt>
      <trkpt lat="44.04322" lon="3.50921">
        <ele>1314.8</ele>
        <time>2026-05-28T11:56:07.000Z</time>
      </trkpt>
      <trkpt lat="44.04322" lon="3.50921">
        <ele>1314.8</ele>
        <time>2026-05-28T11:56:08.000Z</time>
      </trkpt>
      <trkpt lat="44.04322" lon="3.50921">
        <ele>1314.8</ele>
        <time>2026-05-28T11:56:09.000Z</time>
      </trkpt>
      <trkpt lat="44.04322" lon="3.50921">
        <ele>1314.9</ele>
        <time>2026-05-28T11:56:10.000Z</time>
      </trkpt>
      <trkpt lat="44.04322" lon="3.50921">
        <ele>1314.7</ele>
        <time>2026-05-28T11:56:11.000Z</time>
      </trkpt>
      <trkpt lat="44.04322" lon="3.50921">
        <ele>1314.9</ele>
        <time>2026-05-28T11:56:12.000Z</time>
      </trkpt>
      <trkpt lat="44.04322" lon="3.50921">
        <ele>1315.1</ele>
        <time>2026-05-28T11:56:13.999Z</time>
      </trkpt>
      <trkpt lat="44.04322" lon="3.50921">
        <ele>1315.4</ele>
        <time>2026-05-28T11:56:14.999Z</time>
      </trkpt>
      <trkpt lat="44.04322" lon="3.50921">
        <ele>1315.3</ele>
        <time>2026-05-28T11:56:15.999Z</time>
      </trkpt>
      <trkpt lat="44.04322" lon="3.50921">
        <ele>1315.4</ele>
        <time>2026-05-28T11:56:16.999Z</time>
      </trkpt>
      <trkpt lat="44.04322" lon="3.50921">
        <ele>1315.5</ele>
        <time>2026-05-28T11:56:17.999Z</time>
      </trkpt>
      <trkpt lat="44.04322" lon="3.50921">
        <ele>1315.6</ele>
        <time>2026-05-28T11:56:18.999Z</time>
      </trkpt>
      <trkpt lat="44.04322" lon="3.50921">
        <ele>1315.8</ele>
        <time>2026-05-28T11:56:19.999Z</time>
      </trkpt>
      <trkpt lat="44.04322" lon="3.50921">
        <ele>1316</ele>
        <time>2026-05-28T11:56:20.999Z</time>
      </trkpt>
      <trkpt lat="44.04322" lon="3.50921">
        <ele>1316</ele>
        <time>2026-05-28T11:56:21.999Z</time>
      </trkpt>
      <trkpt lat="44.04322" lon="3.50921">
        <ele>1315.9</ele>
        <time>2026-05-28T11:56:22.999Z</time>
      </trkpt>
      <trkpt lat="44.04322" lon="3.50922">
        <ele>1316</ele>
        <time>2026-05-28T11:56:23.999Z</time>
      </trkpt>
      <trkpt lat="44.04322" lon="3.50922">
        <ele>1315.8</ele>
        <time>2026-05-28T11:56:24.999Z</time>
      </trkpt>
      <trkpt lat="44.04322" lon="3.50922">
        <ele>1316</ele>
        <time>2026-05-28T11:56:25.999Z</time>
      </trkpt>
      <trkpt lat="44.04322" lon="3.50921">
        <ele>1316.3</ele>
        <time>2026-05-28T11:56:26.999Z</time>
      </trkpt>
      <trkpt lat="44.04322" lon="3.50921">
        <ele>1316.3</ele>
        <time>2026-05-28T11:56:27.999Z</time>
      </trkpt>
      <trkpt lat="44.04322" lon="3.50921">
        <ele>1316</ele>
        <time>2026-05-28T11:56:28.999Z</time>
      </trkpt>
      <trkpt lat="44.04322" lon="3.50921">
        <ele>1316.1</ele>
        <time>2026-05-28T11:56:29.999Z</time>
      </trkpt>
      <trkpt lat="44.04322" lon="3.50921">
        <ele>1315.8</ele>
        <time>2026-05-28T11:56:30.999Z</time>
      </trkpt>
      <trkpt lat="44.04322" lon="3.50921">
        <ele>1316</ele>
        <time>2026-05-28T11:56:31.999Z</time>
      </trkpt>
      <trkpt lat="44.04322" lon="3.50921">
        <ele>1315.6</ele>
        <time>2026-05-28T11:56:32.999Z</time>
      </trkpt>
      <trkpt lat="44.04322" lon="3.50921">
        <ele>1315.5</ele>
        <time>2026-05-28T11:56:33.999Z</time>
      </trkpt>
      <trkpt lat="44.04322" lon="3.50921">
        <ele>1315.8</ele>
        <time>2026-05-28T11:56:34.999Z</time>
      </trkpt>
      <trkpt lat="44.04323" lon="3.50921">
        <ele>1316</ele>
        <time>2026-05-28T11:56:35.999Z</time>
      </trkpt>
      <trkpt lat="44.04323" lon="3.50921">
        <ele>1315.9</ele>
        <time>2026-05-28T11:56:36.999Z</time>
      </trkpt>
      <trkpt lat="44.04323" lon="3.50921">
        <ele>1315.5</ele>
        <time>2026-05-28T11:56:37.999Z</time>
      </trkpt>
      <trkpt lat="44.04323" lon="3.50921">
        <ele>1315.1</ele>
        <time>2026-05-28T11:56:38.999Z</time>
      </trkpt>
      <trkpt lat="44.04323" lon="3.50921">
        <ele>1314.8</ele>
        <time>2026-05-28T11:56:39.999Z</time>
      </trkpt>
      <trkpt lat="44.04323" lon="3.5092">
        <ele>1314.7</ele>
        <time>2026-05-28T11:56:40.999Z</time>
      </trkpt>
      <trkpt lat="44.04323" lon="3.5092">
        <ele>1314.5</ele>
        <time>2026-05-28T11:56:41.999Z</time>
      </trkpt>
      <trkpt lat="44.04323" lon="3.5092">
        <ele>1314.6</ele>
        <time>2026-05-28T11:56:42.999Z</time>
      </trkpt>
      <trkpt lat="44.04323" lon="3.50921">
        <ele>1314.7</ele>
        <time>2026-05-28T11:56:43.999Z</time>
      </trkpt>
      <trkpt lat="44.04323" lon="3.50921">
        <ele>1314.6</ele>
        <time>2026-05-28T11:56:44.999Z</time>
      </trkpt>
      <trkpt lat="44.04324" lon="3.50921">
        <ele>1314.5</ele>
        <time>2026-05-28T11:56:45.999Z</time>
      </trkpt>
      <trkpt lat="44.04324" lon="3.50921">
        <ele>1314.6</ele>
        <time>2026-05-28T11:56:46.999Z</time>
      </trkpt>
      <trkpt lat="44.04324" lon="3.50921">
        <ele>1314.7</ele>
        <time>2026-05-28T11:56:47.999Z</time>
      </trkpt>
      <trkpt lat="44.04324" lon="3.5092">
        <ele>1314.7</ele>
        <time>2026-05-28T11:56:48.999Z</time>
      </trkpt>
      <trkpt lat="44.04324" lon="3.5092">
        <ele>1314.6</ele>
        <time>2026-05-28T11:56:49.999Z</time>
      </trkpt>
      <trkpt lat="44.04324" lon="3.5092">
        <ele>1314.5</ele>
        <time>2026-05-28T11:56:50.999Z</time>
      </trkpt>
      <trkpt lat="44.04324" lon="3.5092">
        <ele>1314.4</ele>
        <time>2026-05-28T11:56:51.999Z</time>
      </trkpt>
      <trkpt lat="44.04324" lon="3.5092">
        <ele>1314.4</ele>
        <time>2026-05-28T11:56:52.999Z</time>
      </trkpt>
      <trkpt lat="44.04324" lon="3.5092">
        <ele>1314.6</ele>
        <time>2026-05-28T11:56:53.999Z</time>
      </trkpt>
      <trkpt lat="44.04324" lon="3.5092">
        <ele>1314.9</ele>
        <time>2026-05-28T11:56:54.999Z</time>
      </trkpt>
      <trkpt lat="44.04324" lon="3.5092">
        <ele>1315</ele>
        <time>2026-05-28T11:56:55.999Z</time>
      </trkpt>
      <trkpt lat="44.04324" lon="3.5092">
        <ele>1315.1</ele>
        <time>2026-05-28T11:56:56.999Z</time>
      </trkpt>
      <trkpt lat="44.04324" lon="3.5092">
        <ele>1315.3</ele>
        <time>2026-05-28T11:56:57.999Z</time>
      </trkpt>
      <trkpt lat="44.04324" lon="3.50921">
        <ele>1315.4</ele>
        <time>2026-05-28T11:56:58.999Z</time>
      </trkpt>
      <trkpt lat="44.04324" lon="3.50921">
        <ele>1315.6</ele>
        <time>2026-05-28T11:56:59.999Z</time>
      </trkpt>
      <trkpt lat="44.04324" lon="3.50921">
        <ele>1315.6</ele>
        <time>2026-05-28T11:57:00.999Z</time>
      </trkpt>
      <trkpt lat="44.04324" lon="3.50921">
        <ele>1315.6</ele>
        <time>2026-05-28T11:57:01.999Z</time>
      </trkpt>
      <trkpt lat="44.04324" lon="3.50921">
        <ele>1315.7</ele>
        <time>2026-05-28T11:57:02.999Z</time>
      </trkpt>
      <trkpt lat="44.04324" lon="3.50921">
        <ele>1315.6</ele>
        <time>2026-05-28T11:57:03.999Z</time>
      </trkpt>
      <trkpt lat="44.04323" lon="3.50922">
        <ele>1315.6</ele>
        <time>2026-05-28T11:57:04.999Z</time>
      </trkpt>
      <trkpt lat="44.04323" lon="3.50922">
        <ele>1315.8</ele>
        <time>2026-05-28T11:57:05.999Z</time>
      </trkpt>
      <trkpt lat="44.04323" lon="3.50922">
        <ele>1315.8</ele>
        <time>2026-05-28T11:57:06.999Z</time>
      </trkpt>
      <trkpt lat="44.04323" lon="3.50922">
        <ele>1315.8</ele>
        <time>2026-05-28T11:57:07.999Z</time>
      </trkpt>
      <trkpt lat="44.04323" lon="3.50922">
        <ele>1316</ele>
        <time>2026-05-28T11:57:08.999Z</time>
      </trkpt>
      <trkpt lat="44.04323" lon="3.50922">
        <ele>1316.1</ele>
        <time>2026-05-28T11:57:09.999Z</time>
      </trkpt>
      <trkpt lat="44.04323" lon="3.50922">
        <ele>1316.2</ele>
        <time>2026-05-28T11:57:10.999Z</time>
      </trkpt>
      <trkpt lat="44.04323" lon="3.50922">
        <ele>1316.3</ele>
        <time>2026-05-28T11:57:11.999Z</time>
      </trkpt>
      <trkpt lat="44.04323" lon="3.50922">
        <ele>1316.6</ele>
        <time>2026-05-28T11:57:12.999Z</time>
      </trkpt>
      <trkpt lat="44.04323" lon="3.50922">
        <ele>1317</ele>
        <time>2026-05-28T11:57:13.999Z</time>
      </trkpt>
      <trkpt lat="44.04323" lon="3.50922">
        <ele>1317.5</ele>
        <time>2026-05-28T11:57:14.999Z</time>
      </trkpt>
      <trkpt lat="44.04323" lon="3.50922">
        <ele>1317.7</ele>
        <time>2026-05-28T11:57:15.999Z</time>
      </trkpt>
      <trkpt lat="44.04323" lon="3.50922">
        <ele>1317.9</ele>
        <time>2026-05-28T11:57:16.999Z</time>
      </trkpt>
      <trkpt lat="44.04324" lon="3.50921">
        <ele>1317.9</ele>
        <time>2026-05-28T11:57:17.999Z</time>
      </trkpt>
      <trkpt lat="44.04324" lon="3.5092">
        <ele>1318</ele>
        <time>2026-05-28T11:57:18.999Z</time>
      </trkpt>
      <trkpt lat="44.04324" lon="3.50919">
        <ele>1317.7</ele>
        <time>2026-05-28T11:57:19.999Z</time>
      </trkpt>
      <trkpt lat="44.04324" lon="3.50918">
        <ele>1317.8</ele>
        <time>2026-05-28T11:57:20.999Z</time>
      </trkpt>
      <trkpt lat="44.04324" lon="3.50917">
        <ele>1317.9</ele>
        <time>2026-05-28T11:57:21.999Z</time>
      </trkpt>
      <trkpt lat="44.04324" lon="3.50915">
        <ele>1317.8</ele>
        <time>2026-05-28T11:57:22.999Z</time>
      </trkpt>
      <trkpt lat="44.04324" lon="3.50913">
        <ele>1318</ele>
        <time>2026-05-28T11:57:23.999Z</time>
      </trkpt>
      <trkpt lat="44.04324" lon="3.50911">
        <ele>1317.7</ele>
        <time>2026-05-28T11:57:24.999Z</time>
      </trkpt>
      <trkpt lat="44.04323" lon="3.50908">
        <ele>1317.7</ele>
        <time>2026-05-28T11:57:25.999Z</time>
      </trkpt>
      <trkpt lat="44.04323" lon="3.50906">
        <ele>1317.8</ele>
        <time>2026-05-28T11:57:26.999Z</time>
      </trkpt>
      <trkpt lat="44.04323" lon="3.50905">
        <ele>1317.8</ele>
        <time>2026-05-28T11:57:27.999Z</time>
      </trkpt>
      <trkpt lat="44.04323" lon="3.50904">
        <ele>1318</ele>
        <time>2026-05-28T11:57:28.999Z</time>
      </trkpt>
      <trkpt lat="44.04324" lon="3.50903">
        <ele>1318.1</ele>
        <time>2026-05-28T11:57:29.999Z</time>
      </trkpt>
      <trkpt lat="44.04324" lon="3.50904">
        <ele>1318.3</ele>
        <time>2026-05-28T11:57:30.999Z</time>
      </trkpt>
      <trkpt lat="44.04324" lon="3.50904">
        <ele>1318.4</ele>
        <time>2026-05-28T11:57:31.999Z</time>
      </trkpt>
      <trkpt lat="44.04324" lon="3.50904">
        <ele>1315.9</ele>
        <time>2026-05-28T11:57:32.999Z</time>
      </trkpt>
      <trkpt lat="44.04324" lon="3.50904">
        <ele>1316.2</ele>
        <time>2026-05-28T11:57:33.999Z</time>
      </trkpt>
      <trkpt lat="44.04324" lon="3.50904">
        <ele>1316.5</ele>
        <time>2026-05-28T11:57:34.999Z</time>
      </trkpt>
      <trkpt lat="44.04324" lon="3.50904">
        <ele>1316.7</ele>
        <time>2026-05-28T11:57:35.999Z</time>
      </trkpt>
      <trkpt lat="44.04324" lon="3.50904">
        <ele>1316.8</ele>
        <time>2026-05-28T11:57:36.999Z</time>
      </trkpt>
      <trkpt lat="44.04324" lon="3.50905">
        <ele>1316.5</ele>
        <time>2026-05-28T11:57:37.999Z</time>
      </trkpt>
      <trkpt lat="44.04324" lon="3.50905">
        <ele>1316.3</ele>
        <time>2026-05-28T11:57:38.999Z</time>
      </trkpt>
      <trkpt lat="44.04324" lon="3.50908">
        <ele>1316.3</ele>
        <time>2026-05-28T11:57:39.999Z</time>
      </trkpt>
      <trkpt lat="44.04324" lon="3.50911">
        <ele>1316.3</ele>
        <time>2026-05-28T11:57:40.999Z</time>
      </trkpt>
      <trkpt lat="44.04324" lon="3.50912">
        <ele>1316.4</ele>
        <time>2026-05-28T11:57:41.999Z</time>
      </trkpt>
      <trkpt lat="44.04324" lon="3.50914">
        <ele>1316.4</ele>
        <time>2026-05-28T11:57:42.999Z</time>
      </trkpt>
      <trkpt lat="44.04324" lon="3.50916">
        <ele>1316.2</ele>
        <time>2026-05-28T11:57:43.999Z</time>
      </trkpt>
      <trkpt lat="44.04324" lon="3.50918">
        <ele>1316.2</ele>
        <time>2026-05-28T11:57:44.999Z</time>
      </trkpt>
      <trkpt lat="44.04324" lon="3.50918">
        <ele>1316.1</ele>
        <time>2026-05-28T11:57:45.999Z</time>
      </trkpt>
      <trkpt lat="44.04323" lon="3.5092">
        <ele>1316.3</ele>
        <time>2026-05-28T11:57:46.999Z</time>
      </trkpt>
      <trkpt lat="44.04323" lon="3.50921">
        <ele>1316</ele>
        <time>2026-05-28T11:57:47.999Z</time>
      </trkpt>
      <trkpt lat="44.04322" lon="3.50921">
        <ele>1315.9</ele>
        <time>2026-05-28T11:57:48.999Z</time>
      </trkpt>
      <trkpt lat="44.04322" lon="3.50921">
        <ele>1316.1</ele>
        <time>2026-05-28T11:57:49.999Z</time>
      </trkpt>
      <trkpt lat="44.04322" lon="3.50921">
        <ele>1315.9</ele>
        <time>2026-05-28T11:57:50.999Z</time>
      </trkpt>
      <trkpt lat="44.04322" lon="3.50921">
        <ele>1316.1</ele>
        <time>2026-05-28T11:57:51.999Z</time>
      </trkpt>
      <trkpt lat="44.04322" lon="3.50921">
        <ele>1316.3</ele>
        <time>2026-05-28T11:57:52.999Z</time>
      </trkpt>
      <trkpt lat="44.04322" lon="3.50922">
        <ele>1316.3</ele>
        <time>2026-05-28T11:57:53.999Z</time>
      </trkpt>
      <trkpt lat="44.04321" lon="3.5092">
        <ele>1316.6</ele>
        <time>2026-05-28T11:57:54.999Z</time>
      </trkpt>
      <trkpt lat="44.04321" lon="3.50919">
        <ele>1317.1</ele>
        <time>2026-05-28T11:57:55.999Z</time>
      </trkpt>
      <trkpt lat="44.0432" lon="3.50919">
        <ele>1317.1</ele>
        <time>2026-05-28T11:57:56.999Z</time>
      </trkpt>
      <trkpt lat="44.0432" lon="3.50919">
        <ele>1317.4</ele>
        <time>2026-05-28T11:57:57.999Z</time>
      </trkpt>
      <trkpt lat="44.0432" lon="3.50919">
        <ele>1317.5</ele>
        <time>2026-05-28T11:57:58.999Z</time>
      </trkpt>
      <trkpt lat="44.0432" lon="3.5092">
        <ele>1317.6</ele>
        <time>2026-05-28T11:57:59.999Z</time>
      </trkpt>
      <trkpt lat="44.0432" lon="3.5092">
        <ele>1317.7</ele>
        <time>2026-05-28T11:58:00.999Z</time>
      </trkpt>
      <trkpt lat="44.0432" lon="3.5092">
        <ele>1317.7</ele>
        <time>2026-05-28T11:58:01.999Z</time>
      </trkpt>
      <trkpt lat="44.0432" lon="3.5092">
        <ele>1317.7</ele>
        <time>2026-05-28T11:58:02.999Z</time>
      </trkpt>
      <trkpt lat="44.0432" lon="3.5092">
        <ele>1317.3</ele>
        <time>2026-05-28T11:58:03.999Z</time>
      </trkpt>
      <trkpt lat="44.0432" lon="3.5092">
        <ele>1317.2</ele>
        <time>2026-05-28T11:58:04.999Z</time>
      </trkpt>
      <trkpt lat="44.0432" lon="3.5092">
        <ele>1317.2</ele>
        <time>2026-05-28T11:58:05.999Z</time>
      </trkpt>
      <trkpt lat="44.0432" lon="3.5092">
        <ele>1316.8</ele>
        <time>2026-05-28T11:58:06.999Z</time>
      </trkpt>
      <trkpt lat="44.0432" lon="3.5092">
        <ele>1316.9</ele>
        <time>2026-05-28T11:58:07.999Z</time>
      </trkpt>
      <trkpt lat="44.0432" lon="3.5092">
        <ele>1316.5</ele>
        <time>2026-05-28T11:58:08.999Z</time>
      </trkpt>
      <trkpt lat="44.0432" lon="3.50921">
        <ele>1316.1</ele>
        <time>2026-05-28T11:58:09.999Z</time>
      </trkpt>
      <trkpt lat="44.0432" lon="3.50921">
        <ele>1316.1</ele>
        <time>2026-05-28T11:58:10.999Z</time>
      </trkpt>
      <trkpt lat="44.0432" lon="3.50921">
        <ele>1316.5</ele>
        <time>2026-05-28T11:58:11.999Z</time>
      </trkpt>
      <trkpt lat="44.0432" lon="3.50921">
        <ele>1316.7</ele>
        <time>2026-05-28T11:58:12.999Z</time>
      </trkpt>
      <trkpt lat="44.0432" lon="3.50921">
        <ele>1316.8</ele>
        <time>2026-05-28T11:58:13.999Z</time>
      </trkpt>
      <trkpt lat="44.0432" lon="3.50921">
        <ele>1317.1</ele>
        <time>2026-05-28T11:58:14.999Z</time>
      </trkpt>
      <trkpt lat="44.0432" lon="3.50921">
        <ele>1317</ele>
        <time>2026-05-28T11:58:15.999Z</time>
      </trkpt>
      <trkpt lat="44.0432" lon="3.50921">
        <ele>1316.9</ele>
        <time>2026-05-28T11:58:16.999Z</time>
      </trkpt>
      <trkpt lat="44.0432" lon="3.50921">
        <ele>1317.1</ele>
        <time>2026-05-28T11:58:17.999Z</time>
      </trkpt>
      <trkpt lat="44.0432" lon="3.50921">
        <ele>1317.2</ele>
        <time>2026-05-28T11:58:18.999Z</time>
      </trkpt>
      <trkpt lat="44.0432" lon="3.50921">
        <ele>1317</ele>
        <time>2026-05-28T11:58:19.999Z</time>
      </trkpt>
      <trkpt lat="44.0432" lon="3.50921">
        <ele>1316.4</ele>
        <time>2026-05-28T11:58:20.999Z</time>
      </trkpt>
      <trkpt lat="44.0432" lon="3.50921">
        <ele>1316.2</ele>
        <time>2026-05-28T11:58:21.999Z</time>
      </trkpt>
      <trkpt lat="44.0432" lon="3.50921">
        <ele>1316.1</ele>
        <time>2026-05-28T11:58:22.999Z</time>
      </trkpt>
      <trkpt lat="44.0432" lon="3.50921">
        <ele>1316.3</ele>
        <time>2026-05-28T11:58:23.999Z</time>
      </trkpt>
      <trkpt lat="44.0432" lon="3.50921">
        <ele>1316.3</ele>
        <time>2026-05-28T11:58:24.999Z</time>
      </trkpt>
      <trkpt lat="44.0432" lon="3.50921">
        <ele>1316.2</ele>
        <time>2026-05-28T11:58:25.999Z</time>
      </trkpt>
      <trkpt lat="44.0432" lon="3.50921">
        <ele>1316.2</ele>
        <time>2026-05-28T11:58:26.999Z</time>
      </trkpt>
      <trkpt lat="44.0432" lon="3.50921">
        <ele>1316.1</ele>
        <time>2026-05-28T11:58:27.999Z</time>
      </trkpt>
      <trkpt lat="44.0432" lon="3.50921">
        <ele>1315.8</ele>
        <time>2026-05-28T11:58:28.999Z</time>
      </trkpt>
      <trkpt lat="44.0432" lon="3.50921">
        <ele>1315.7</ele>
        <time>2026-05-28T11:58:29.999Z</time>
      </trkpt>
      <trkpt lat="44.0432" lon="3.50921">
        <ele>1315.9</ele>
        <time>2026-05-28T11:58:30.999Z</time>
      </trkpt>
      <trkpt lat="44.0432" lon="3.50921">
        <ele>1315.8</ele>
        <time>2026-05-28T11:58:31.999Z</time>
      </trkpt>
      <trkpt lat="44.0432" lon="3.50921">
        <ele>1315.9</ele>
        <time>2026-05-28T11:58:32.999Z</time>
      </trkpt>
      <trkpt lat="44.0432" lon="3.50922">
        <ele>1315.7</ele>
        <time>2026-05-28T11:58:33.999Z</time>
      </trkpt>
      <trkpt lat="44.0432" lon="3.50922">
        <ele>1315.7</ele>
        <time>2026-05-28T11:58:34.999Z</time>
      </trkpt>
      <trkpt lat="44.0432" lon="3.50922">
        <ele>1315.8</ele>
        <time>2026-05-28T11:58:35.999Z</time>
      </trkpt>
      <trkpt lat="44.04321" lon="3.50922">
        <ele>1316</ele>
        <time>2026-05-28T11:58:36.999Z</time>
      </trkpt>
      <trkpt lat="44.04321" lon="3.50922">
        <ele>1316.2</ele>
        <time>2026-05-28T11:58:37.999Z</time>
      </trkpt>
      <trkpt lat="44.04321" lon="3.50922">
        <ele>1316.3</ele>
        <time>2026-05-28T11:58:38.999Z</time>
      </trkpt>
      <trkpt lat="44.04321" lon="3.50922">
        <ele>1316.4</ele>
        <time>2026-05-28T11:58:39.999Z</time>
      </trkpt>
      <trkpt lat="44.04321" lon="3.50922">
        <ele>1316.3</ele>
        <time>2026-05-28T11:58:40.999Z</time>
      </trkpt>
      <trkpt lat="44.04321" lon="3.50922">
        <ele>1316.2</ele>
        <time>2026-05-28T11:58:41.999Z</time>
      </trkpt>
      <trkpt lat="44.04321" lon="3.50922">
        <ele>1316.8</ele>
        <time>2026-05-28T11:58:42.999Z</time>
      </trkpt>
      <trkpt lat="44.04321" lon="3.50922">
        <ele>1317</ele>
        <time>2026-05-28T11:58:43.999Z</time>
      </trkpt>
      <trkpt lat="44.04321" lon="3.50923">
        <ele>1317.2</ele>
        <time>2026-05-28T11:58:44.999Z</time>
      </trkpt>
      <trkpt lat="44.04321" lon="3.50923">
        <ele>1317.2</ele>
        <time>2026-05-28T11:58:45.999Z</time>
      </trkpt>
      <trkpt lat="44.04321" lon="3.50923">
        <ele>1317.1</ele>
        <time>2026-05-28T11:58:46.999Z</time>
      </trkpt>
      <trkpt lat="44.04321" lon="3.50923">
        <ele>1316.9</ele>
        <time>2026-05-28T11:58:47.999Z</time>
      </trkpt>
      <trkpt lat="44.04321" lon="3.50923">
        <ele>1316.9</ele>
        <time>2026-05-28T11:58:48.999Z</time>
      </trkpt>
      <trkpt lat="44.04321" lon="3.50923">
        <ele>1316.9</ele>
        <time>2026-05-28T11:58:49.999Z</time>
      </trkpt>
      <trkpt lat="44.04321" lon="3.50923">
        <ele>1316.9</ele>
        <time>2026-05-28T11:58:50.999Z</time>
      </trkpt>
      <trkpt lat="44.04321" lon="3.50923">
        <ele>1317</ele>
        <time>2026-05-28T11:58:51.999Z</time>
      </trkpt>
      <trkpt lat="44.04321" lon="3.50923">
        <ele>1316.8</ele>
        <time>2026-05-28T11:58:52.999Z</time>
      </trkpt>
      <trkpt lat="44.04321" lon="3.50923">
        <ele>1316.9</ele>
        <time>2026-05-28T11:58:53.999Z</time>
      </trkpt>
      <trkpt lat="44.04321" lon="3.50923">
        <ele>1316.7</ele>
        <time>2026-05-28T11:58:54.999Z</time>
      </trkpt>
      <trkpt lat="44.04321" lon="3.50923">
        <ele>1316.7</ele>
        <time>2026-05-28T11:58:55.999Z</time>
      </trkpt>
      <trkpt lat="44.04321" lon="3.50923">
        <ele>1316.6</ele>
        <time>2026-05-28T11:58:56.999Z</time>
      </trkpt>
      <trkpt lat="44.04321" lon="3.50923">
        <ele>1316.4</ele>
        <time>2026-05-28T11:58:57.999Z</time>
      </trkpt>
      <trkpt lat="44.04321" lon="3.50924">
        <ele>1316.2</ele>
        <time>2026-05-28T11:58:58.999Z</time>
      </trkpt>
      <trkpt lat="44.04321" lon="3.50924">
        <ele>1316.2</ele>
        <time>2026-05-28T11:58:59.999Z</time>
      </trkpt>
      <trkpt lat="44.04321" lon="3.50924">
        <ele>1316.1</ele>
        <time>2026-05-28T11:59:00.999Z</time>
      </trkpt>
      <trkpt lat="44.04321" lon="3.50924">
        <ele>1316.1</ele>
        <time>2026-05-28T11:59:01.999Z</time>
      </trkpt>
      <trkpt lat="44.04321" lon="3.50924">
        <ele>1316.1</ele>
        <time>2026-05-28T11:59:02.999Z</time>
      </trkpt>
      <trkpt lat="44.04321" lon="3.50924">
        <ele>1315.9</ele>
        <time>2026-05-28T11:59:03.999Z</time>
      </trkpt>
      <trkpt lat="44.04322" lon="3.50924">
        <ele>1315.5</ele>
        <time>2026-05-28T11:59:04.999Z</time>
      </trkpt>
      <trkpt lat="44.04322" lon="3.50924">
        <ele>1315.3</ele>
        <time>2026-05-28T11:59:05.999Z</time>
      </trkpt>
      <trkpt lat="44.04322" lon="3.50925">
        <ele>1315</ele>
        <time>2026-05-28T11:59:06.999Z</time>
      </trkpt>
      <trkpt lat="44.04322" lon="3.50925">
        <ele>1314.9</ele>
        <time>2026-05-28T11:59:07.999Z</time>
      </trkpt>
      <trkpt lat="44.04322" lon="3.50925">
        <ele>1315</ele>
        <time>2026-05-28T11:59:08.999Z</time>
      </trkpt>
      <trkpt lat="44.04322" lon="3.50925">
        <ele>1315.1</ele>
        <time>2026-05-28T11:59:09.999Z</time>
      </trkpt>
      <trkpt lat="44.04322" lon="3.50925">
        <ele>1315.2</ele>
        <time>2026-05-28T11:59:10.999Z</time>
      </trkpt>
      <trkpt lat="44.04322" lon="3.50925">
        <ele>1315</ele>
        <time>2026-05-28T11:59:11.999Z</time>
      </trkpt>
      <trkpt lat="44.04322" lon="3.50925">
        <ele>1315.1</ele>
        <time>2026-05-28T11:59:12.999Z</time>
      </trkpt>
      <trkpt lat="44.04322" lon="3.50925">
        <ele>1315.2</ele>
        <time>2026-05-28T11:59:13.999Z</time>
      </trkpt>
      <trkpt lat="44.04322" lon="3.50925">
        <ele>1315.2</ele>
        <time>2026-05-28T11:59:14.999Z</time>
      </trkpt>
      <trkpt lat="44.04322" lon="3.50925">
        <ele>1315</ele>
        <time>2026-05-28T11:59:15.999Z</time>
      </trkpt>
      <trkpt lat="44.04322" lon="3.50925">
        <ele>1314.8</ele>
        <time>2026-05-28T11:59:16.999Z</time>
      </trkpt>
      <trkpt lat="44.04322" lon="3.50925">
        <ele>1314.8</ele>
        <time>2026-05-28T11:59:17.999Z</time>
      </trkpt>
      <trkpt lat="44.04322" lon="3.50925">
        <ele>1314.7</ele>
        <time>2026-05-28T11:59:18.999Z</time>
      </trkpt>
      <trkpt lat="44.04322" lon="3.50925">
        <ele>1314.5</ele>
        <time>2026-05-28T11:59:19.999Z</time>
      </trkpt>
      <trkpt lat="44.04322" lon="3.50925">
        <ele>1314.6</ele>
        <time>2026-05-28T11:59:20.999Z</time>
      </trkpt>
      <trkpt lat="44.04322" lon="3.50925">
        <ele>1314.3</ele>
        <time>2026-05-28T11:59:21.999Z</time>
      </trkpt>
      <trkpt lat="44.04322" lon="3.50925">
        <ele>1314.2</ele>
        <time>2026-05-28T11:59:22.999Z</time>
      </trkpt>
      <trkpt lat="44.04322" lon="3.50924">
        <ele>1314.4</ele>
        <time>2026-05-28T11:59:23.999Z</time>
      </trkpt>
      <trkpt lat="44.04322" lon="3.50924">
        <ele>1314.4</ele>
        <time>2026-05-28T11:59:24.999Z</time>
      </trkpt>
      <trkpt lat="44.04322" lon="3.50924">
        <ele>1314.4</ele>
        <time>2026-05-28T11:59:25.999Z</time>
      </trkpt>
      <trkpt lat="44.04322" lon="3.50924">
        <ele>1314.2</ele>
        <time>2026-05-28T11:59:26.999Z</time>
      </trkpt>
      <trkpt lat="44.04322" lon="3.50924">
        <ele>1314.5</ele>
        <time>2026-05-28T11:59:27.999Z</time>
      </trkpt>
      <trkpt lat="44.04322" lon="3.50924">
        <ele>1314.7</ele>
        <time>2026-05-28T11:59:28.999Z</time>
      </trkpt>
      <trkpt lat="44.04322" lon="3.50924">
        <ele>1314.5</ele>
        <time>2026-05-28T11:59:29.999Z</time>
      </trkpt>
      <trkpt lat="44.04322" lon="3.50924">
        <ele>1314.5</ele>
        <time>2026-05-28T11:59:30.999Z</time>
      </trkpt>
      <trkpt lat="44.04322" lon="3.50924">
        <ele>1314.2</ele>
        <time>2026-05-28T11:59:31.999Z</time>
      </trkpt>
      <trkpt lat="44.04322" lon="3.50924">
        <ele>1314.1</ele>
        <time>2026-05-28T11:59:32.999Z</time>
      </trkpt>
      <trkpt lat="44.04322" lon="3.50924">
        <ele>1313.8</ele>
        <time>2026-05-28T11:59:33.999Z</time>
      </trkpt>
      <trkpt lat="44.04322" lon="3.50924">
        <ele>1313.7</ele>
        <time>2026-05-28T11:59:34.999Z</time>
      </trkpt>
      <trkpt lat="44.04322" lon="3.50924">
        <ele>1313.6</ele>
        <time>2026-05-28T11:59:35.999Z</time>
      </trkpt>
      <trkpt lat="44.04322" lon="3.50924">
        <ele>1313.8</ele>
        <time>2026-05-28T11:59:36.999Z</time>
      </trkpt>
      <trkpt lat="44.04322" lon="3.50924">
        <ele>1314.3</ele>
        <time>2026-05-28T11:59:37.999Z</time>
      </trkpt>
      <trkpt lat="44.04322" lon="3.50924">
        <ele>1314.6</ele>
        <time>2026-05-28T11:59:38.999Z</time>
      </trkpt>
      <trkpt lat="44.04322" lon="3.50924">
        <ele>1314.4</ele>
        <time>2026-05-28T11:59:39.999Z</time>
      </trkpt>
      <trkpt lat="44.04322" lon="3.50925">
        <ele>1314.5</ele>
        <time>2026-05-28T11:59:40.999Z</time>
      </trkpt>
      <trkpt lat="44.04322" lon="3.50925">
        <ele>1314.3</ele>
        <time>2026-05-28T11:59:41.999Z</time>
      </trkpt>
      <trkpt lat="44.04323" lon="3.50925">
        <ele>1314</ele>
        <time>2026-05-28T11:59:42.999Z</time>
      </trkpt>
      <trkpt lat="44.04323" lon="3.50925">
        <ele>1313.7</ele>
        <time>2026-05-28T11:59:43.999Z</time>
      </trkpt>
      <trkpt lat="44.04323" lon="3.50925">
        <ele>1313.6</ele>
        <time>2026-05-28T11:59:44.999Z</time>
      </trkpt>
      <trkpt lat="44.04323" lon="3.50925">
        <ele>1313.5</ele>
        <time>2026-05-28T11:59:45.999Z</time>
      </trkpt>
      <trkpt lat="44.04323" lon="3.50924">
        <ele>1313.4</ele>
        <time>2026-05-28T11:59:46.999Z</time>
      </trkpt>
      <trkpt lat="44.04323" lon="3.50924">
        <ele>1313.3</ele>
        <time>2026-05-28T11:59:47.999Z</time>
      </trkpt>
      <trkpt lat="44.04323" lon="3.50924">
        <ele>1313.1</ele>
        <time>2026-05-28T11:59:48.999Z</time>
      </trkpt>
      <trkpt lat="44.04323" lon="3.50924">
        <ele>1312.9</ele>
        <time>2026-05-28T11:59:49.999Z</time>
      </trkpt>
      <trkpt lat="44.04323" lon="3.50924">
        <ele>1313.1</ele>
        <time>2026-05-28T11:59:50.999Z</time>
      </trkpt>
      <trkpt lat="44.04323" lon="3.50924">
        <ele>1313</ele>
        <time>2026-05-28T11:59:51.999Z</time>
      </trkpt>
      <trkpt lat="44.04323" lon="3.50924">
        <ele>1312.8</ele>
        <time>2026-05-28T11:59:52.999Z</time>
      </trkpt>
      <trkpt lat="44.04323" lon="3.50924">
        <ele>1312.6</ele>
        <time>2026-05-28T11:59:53.999Z</time>
      </trkpt>
      <trkpt lat="44.04323" lon="3.50924">
        <ele>1312.7</ele>
        <time>2026-05-28T11:59:54.999Z</time>
      </trkpt>
      <trkpt lat="44.04323" lon="3.50925">
        <ele>1312.8</ele>
        <time>2026-05-28T11:59:55.999Z</time>
      </trkpt>
      <trkpt lat="44.04323" lon="3.50925">
        <ele>1313</ele>
        <time>2026-05-28T11:59:56.999Z</time>
      </trkpt>
      <trkpt lat="44.04323" lon="3.50925">
        <ele>1313.2</ele>
        <time>2026-05-28T11:59:57.999Z</time>
      </trkpt>
      <trkpt lat="44.04323" lon="3.50925">
        <ele>1313.4</ele>
        <time>2026-05-28T11:59:58.999Z</time>
      </trkpt>
      <trkpt lat="44.04323" lon="3.50924">
        <ele>1313.5</ele>
        <time>2026-05-28T11:59:59.999Z</time>
      </trkpt>
      <trkpt lat="44.04323" lon="3.50924">
        <ele>1313.7</ele>
        <time>2026-05-28T12:00:00.999Z</time>
      </trkpt>
      <trkpt lat="44.04323" lon="3.50924">
        <ele>1314</ele>
        <time>2026-05-28T12:00:01.999Z</time>
      </trkpt>
      <trkpt lat="44.04323" lon="3.50925">
        <ele>1314.3</ele>
        <time>2026-05-28T12:00:02.999Z</time>
      </trkpt>
      <trkpt lat="44.04323" lon="3.50926">
        <ele>1314.5</ele>
        <time>2026-05-28T12:00:03.999Z</time>
      </trkpt>
      <trkpt lat="44.04323" lon="3.50926">
        <ele>1314.7</ele>
        <time>2026-05-28T12:00:04.999Z</time>
      </trkpt>
      <trkpt lat="44.04323" lon="3.50926">
        <ele>1314.9</ele>
        <time>2026-05-28T12:00:05.999Z</time>
      </trkpt>
      <trkpt lat="44.04323" lon="3.50926">
        <ele>1314.9</ele>
        <time>2026-05-28T12:00:06.999Z</time>
      </trkpt>
      <trkpt lat="44.04323" lon="3.50926">
        <ele>1315</ele>
        <time>2026-05-28T12:00:07.999Z</time>
      </trkpt>
      <trkpt lat="44.04323" lon="3.50926">
        <ele>1315.4</ele>
        <time>2026-05-28T12:00:08.999Z</time>
      </trkpt>
      <trkpt lat="44.04324" lon="3.50925">
        <ele>1315.6</ele>
        <time>2026-05-28T12:00:09.999Z</time>
      </trkpt>
      <trkpt lat="44.04324" lon="3.50925">
        <ele>1315.8</ele>
        <time>2026-05-28T12:00:10.999Z</time>
      </trkpt>
      <trkpt lat="44.04324" lon="3.50924">
        <ele>1316.5</ele>
        <time>2026-05-28T12:00:11.999Z</time>
      </trkpt>
      <trkpt lat="44.04323" lon="3.50923">
        <ele>1317.3</ele>
        <time>2026-05-28T12:00:12.999Z</time>
      </trkpt>
      <trkpt lat="44.04323" lon="3.50923">
        <ele>1317.8</ele>
        <time>2026-05-28T12:00:13.999Z</time>
      </trkpt>
      <trkpt lat="44.04323" lon="3.50923">
        <ele>1318.1</ele>
        <time>2026-05-28T12:00:14.999Z</time>
      </trkpt>
      <trkpt lat="44.04323" lon="3.50922">
        <ele>1318.2</ele>
        <time>2026-05-28T12:00:15.999Z</time>
      </trkpt>
      <trkpt lat="44.04322" lon="3.50922">
        <ele>1318.2</ele>
        <time>2026-05-28T12:00:16.999Z</time>
      </trkpt>
      <trkpt lat="44.04322" lon="3.50922">
        <ele>1317.6</ele>
        <time>2026-05-28T12:00:17.999Z</time>
      </trkpt>
      <trkpt lat="44.04322" lon="3.50922">
        <ele>1317.4</ele>
        <time>2026-05-28T12:00:18.999Z</time>
      </trkpt>
      <trkpt lat="44.04322" lon="3.50922">
        <ele>1317.4</ele>
        <time>2026-05-28T12:00:19.999Z</time>
      </trkpt>
      <trkpt lat="44.04322" lon="3.50922">
        <ele>1317.6</ele>
        <time>2026-05-28T12:00:20.999Z</time>
      </trkpt>
      <trkpt lat="44.04322" lon="3.50922">
        <ele>1317.9</ele>
        <time>2026-05-28T12:00:21.999Z</time>
      </trkpt>
      <trkpt lat="44.04322" lon="3.50922">
        <ele>1318</ele>
        <time>2026-05-28T12:00:22.999Z</time>
      </trkpt>
      <trkpt lat="44.04322" lon="3.50923">
        <ele>1318</ele>
        <time>2026-05-28T12:00:23.999Z</time>
      </trkpt>
      <trkpt lat="44.04322" lon="3.50923">
        <ele>1318.1</ele>
        <time>2026-05-28T12:00:24.999Z</time>
      </trkpt>
      <trkpt lat="44.04322" lon="3.50923">
        <ele>1318.3</ele>
        <time>2026-05-28T12:00:25.999Z</time>
      </trkpt>
      <trkpt lat="44.04322" lon="3.50923">
        <ele>1318.3</ele>
        <time>2026-05-28T12:00:26.999Z</time>
      </trkpt>
      <trkpt lat="44.04322" lon="3.50923">
        <ele>1318.4</ele>
        <time>2026-05-28T12:00:27.999Z</time>
      </trkpt>
      <trkpt lat="44.04322" lon="3.50923">
        <ele>1318.3</ele>
        <time>2026-05-28T12:00:28.999Z</time>
      </trkpt>
      <trkpt lat="44.04322" lon="3.50923">
        <ele>1318.5</ele>
        <time>2026-05-28T12:00:29.999Z</time>
      </trkpt>
      <trkpt lat="44.04322" lon="3.50923">
        <ele>1318.8</ele>
        <time>2026-05-28T12:00:30.999Z</time>
      </trkpt>
      <trkpt lat="44.04322" lon="3.50923">
        <ele>1319</ele>
        <time>2026-05-28T12:00:31.999Z</time>
      </trkpt>
      <trkpt lat="44.04322" lon="3.50923">
        <ele>1319.4</ele>
        <time>2026-05-28T12:00:32.999Z</time>
      </trkpt>
      <trkpt lat="44.04322" lon="3.50923">
        <ele>1319.3</ele>
        <time>2026-05-28T12:00:33.999Z</time>
      </trkpt>
      <trkpt lat="44.04322" lon="3.50923">
        <ele>1319.4</ele>
        <time>2026-05-28T12:00:34.999Z</time>
      </trkpt>
      <trkpt lat="44.04322" lon="3.50923">
        <ele>1318.8</ele>
        <time>2026-05-28T12:00:35.999Z</time>
      </trkpt>
      <trkpt lat="44.04323" lon="3.50923">
        <ele>1318.5</ele>
        <time>2026-05-28T12:00:36.999Z</time>
      </trkpt>
      <trkpt lat="44.04323" lon="3.50923">
        <ele>1318.5</ele>
        <time>2026-05-28T12:00:37.999Z</time>
      </trkpt>
      <trkpt lat="44.04323" lon="3.50923">
        <ele>1318.3</ele>
        <time>2026-05-28T12:00:38.999Z</time>
      </trkpt>
      <trkpt lat="44.04323" lon="3.50923">
        <ele>1318.5</ele>
        <time>2026-05-28T12:00:39.999Z</time>
      </trkpt>
      <trkpt lat="44.04323" lon="3.50923">
        <ele>1317.9</ele>
        <time>2026-05-28T12:00:40.999Z</time>
      </trkpt>
      <trkpt lat="44.04323" lon="3.50923">
        <ele>1317.3</ele>
        <time>2026-05-28T12:00:41.999Z</time>
      </trkpt>
      <trkpt lat="44.04323" lon="3.50923">
        <ele>1316.9</ele>
        <time>2026-05-28T12:00:42.999Z</time>
      </trkpt>
      <trkpt lat="44.04323" lon="3.50923">
        <ele>1316.4</ele>
        <time>2026-05-28T12:00:43.999Z</time>
      </trkpt>
      <trkpt lat="44.04323" lon="3.50923">
        <ele>1316.2</ele>
        <time>2026-05-28T12:00:44.999Z</time>
      </trkpt>
      <trkpt lat="44.04323" lon="3.50924">
        <ele>1315.6</ele>
        <time>2026-05-28T12:00:45.999Z</time>
      </trkpt>
      <trkpt lat="44.04323" lon="3.50924">
        <ele>1315.2</ele>
        <time>2026-05-28T12:00:46.999Z</time>
      </trkpt>
      <trkpt lat="44.04323" lon="3.50924">
        <ele>1314.6</ele>
        <time>2026-05-28T12:00:47.999Z</time>
      </trkpt>
      <trkpt lat="44.04323" lon="3.50924">
        <ele>1314.2</ele>
        <time>2026-05-28T12:00:48.999Z</time>
      </trkpt>
      <trkpt lat="44.04323" lon="3.50924">
        <ele>1314.2</ele>
        <time>2026-05-28T12:00:49.999Z</time>
      </trkpt>
      <trkpt lat="44.04323" lon="3.50924">
        <ele>1314.4</ele>
        <time>2026-05-28T12:00:50.999Z</time>
      </trkpt>
      <trkpt lat="44.04323" lon="3.50924">
        <ele>1314.4</ele>
        <time>2026-05-28T12:00:51.999Z</time>
      </trkpt>
      <trkpt lat="44.04323" lon="3.50924">
        <ele>1314.4</ele>
        <time>2026-05-28T12:00:52.999Z</time>
      </trkpt>
      <trkpt lat="44.04323" lon="3.50924">
        <ele>1314.5</ele>
        <time>2026-05-28T12:00:53.999Z</time>
      </trkpt>
      <trkpt lat="44.04323" lon="3.50924">
        <ele>1314.5</ele>
        <time>2026-05-28T12:00:54.999Z</time>
      </trkpt>
      <trkpt lat="44.04323" lon="3.50924">
        <ele>1314.8</ele>
        <time>2026-05-28T12:00:55.999Z</time>
      </trkpt>
      <trkpt lat="44.04323" lon="3.50924">
        <ele>1314.7</ele>
        <time>2026-05-28T12:00:56.999Z</time>
      </trkpt>
      <trkpt lat="44.04323" lon="3.50925">
        <ele>1314.8</ele>
        <time>2026-05-28T12:00:57.999Z</time>
      </trkpt>
      <trkpt lat="44.04323" lon="3.50925">
        <ele>1314.8</ele>
        <time>2026-05-28T12:00:58.999Z</time>
      </trkpt>
      <trkpt lat="44.04323" lon="3.50925">
        <ele>1314.5</ele>
        <time>2026-05-28T12:00:59.999Z</time>
      </trkpt>
      <trkpt lat="44.04323" lon="3.50925">
        <ele>1314.5</ele>
        <time>2026-05-28T12:01:00.999Z</time>
      </trkpt>
      <trkpt lat="44.04323" lon="3.50925">
        <ele>1314.4</ele>
        <time>2026-05-28T12:01:01.999Z</time>
      </trkpt>
      <trkpt lat="44.04323" lon="3.50925">
        <ele>1314.4</ele>
        <time>2026-05-28T12:01:02.999Z</time>
      </trkpt>
      <trkpt lat="44.04323" lon="3.50925">
        <ele>1314.4</ele>
        <time>2026-05-28T12:01:03.999Z</time>
      </trkpt>
      <trkpt lat="44.04323" lon="3.50925">
        <ele>1314.2</ele>
        <time>2026-05-28T12:01:04.999Z</time>
      </trkpt>
      <trkpt lat="44.04323" lon="3.50925">
        <ele>1314.2</ele>
        <time>2026-05-28T12:01:05.999Z</time>
      </trkpt>
      <trkpt lat="44.04323" lon="3.50925">
        <ele>1314.5</ele>
        <time>2026-05-28T12:01:06.999Z</time>
      </trkpt>
      <trkpt lat="44.04323" lon="3.50924">
        <ele>1314.7</ele>
        <time>2026-05-28T12:01:07.999Z</time>
      </trkpt>
      <trkpt lat="44.04323" lon="3.50924">
        <ele>1314.8</ele>
        <time>2026-05-28T12:01:08.999Z</time>
      </trkpt>
      <trkpt lat="44.04323" lon="3.50924">
        <ele>1314.7</ele>
        <time>2026-05-28T12:01:09.999Z</time>
      </trkpt>
      <trkpt lat="44.04323" lon="3.50924">
        <ele>1314.7</ele>
        <time>2026-05-28T12:01:10.999Z</time>
      </trkpt>
      <trkpt lat="44.04323" lon="3.50924">
        <ele>1314.8</ele>
        <time>2026-05-28T12:01:11.999Z</time>
      </trkpt>
      <trkpt lat="44.04323" lon="3.50924">
        <ele>1314.9</ele>
        <time>2026-05-28T12:01:12.999Z</time>
      </trkpt>
      <trkpt lat="44.04323" lon="3.50924">
        <ele>1315</ele>
        <time>2026-05-28T12:01:13.999Z</time>
      </trkpt>
      <trkpt lat="44.04323" lon="3.50924">
        <ele>1314.8</ele>
        <time>2026-05-28T12:01:14.999Z</time>
      </trkpt>
      <trkpt lat="44.04323" lon="3.50924">
        <ele>1314.7</ele>
        <time>2026-05-28T12:01:15.999Z</time>
      </trkpt>
      <trkpt lat="44.04324" lon="3.50925">
        <ele>1314.6</ele>
        <time>2026-05-28T12:01:16.999Z</time>
      </trkpt>
      <trkpt lat="44.04323" lon="3.50925">
        <ele>1314.4</ele>
        <time>2026-05-28T12:01:17.999Z</time>
      </trkpt>
      <trkpt lat="44.04323" lon="3.50925">
        <ele>1314.3</ele>
        <time>2026-05-28T12:01:18.999Z</time>
      </trkpt>
      <trkpt lat="44.04323" lon="3.50925">
        <ele>1314.3</ele>
        <time>2026-05-28T12:01:19.999Z</time>
      </trkpt>
      <trkpt lat="44.04323" lon="3.50925">
        <ele>1313.9</ele>
        <time>2026-05-28T12:01:20.999Z</time>
      </trkpt>
      <trkpt lat="44.04323" lon="3.50925">
        <ele>1313.8</ele>
        <time>2026-05-28T12:01:21.999Z</time>
      </trkpt>
      <trkpt lat="44.04323" lon="3.50925">
        <ele>1313.7</ele>
        <time>2026-05-28T12:01:22.999Z</time>
      </trkpt>
      <trkpt lat="44.04323" lon="3.50925">
        <ele>1313.5</ele>
        <time>2026-05-28T12:01:23.999Z</time>
      </trkpt>
      <trkpt lat="44.04323" lon="3.50925">
        <ele>1313.4</ele>
        <time>2026-05-28T12:01:24.999Z</time>
      </trkpt>
      <trkpt lat="44.04323" lon="3.50925">
        <ele>1313.3</ele>
        <time>2026-05-28T12:01:25.999Z</time>
      </trkpt>
      <trkpt lat="44.04323" lon="3.50925">
        <ele>1313.2</ele>
        <time>2026-05-28T12:01:26.999Z</time>
      </trkpt>
      <trkpt lat="44.04323" lon="3.50925">
        <ele>1313</ele>
        <time>2026-05-28T12:01:27.999Z</time>
      </trkpt>
      <trkpt lat="44.04323" lon="3.50925">
        <ele>1313</ele>
        <time>2026-05-28T12:01:28.999Z</time>
      </trkpt>
      <trkpt lat="44.04323" lon="3.50925">
        <ele>1313</ele>
        <time>2026-05-28T12:01:29.999Z</time>
      </trkpt>
      <trkpt lat="44.04323" lon="3.50925">
        <ele>1312.9</ele>
        <time>2026-05-28T12:01:30.999Z</time>
      </trkpt>
      <trkpt lat="44.04323" lon="3.50925">
        <ele>1313</ele>
        <time>2026-05-28T12:01:31.999Z</time>
      </trkpt>
      <trkpt lat="44.04323" lon="3.50925">
        <ele>1312.8</ele>
        <time>2026-05-28T12:01:32.999Z</time>
      </trkpt>
      <trkpt lat="44.04323" lon="3.50925">
        <ele>1312.7</ele>
        <time>2026-05-28T12:01:33.999Z</time>
      </trkpt>
      <trkpt lat="44.04323" lon="3.50925">
        <ele>1312.6</ele>
        <time>2026-05-28T12:01:34.999Z</time>
      </trkpt>
      <trkpt lat="44.04323" lon="3.50925">
        <ele>1312.6</ele>
        <time>2026-05-28T12:01:35.999Z</time>
      </trkpt>
      <trkpt lat="44.04323" lon="3.50925">
        <ele>1312.2</ele>
        <time>2026-05-28T12:01:36.999Z</time>
      </trkpt>
      <trkpt lat="44.04323" lon="3.50925">
        <ele>1312.1</ele>
        <time>2026-05-28T12:01:37.999Z</time>
      </trkpt>
      <trkpt lat="44.04324" lon="3.50925">
        <ele>1312</ele>
        <time>2026-05-28T12:01:38.999Z</time>
      </trkpt>
      <trkpt lat="44.04324" lon="3.50925">
        <ele>1311.8</ele>
        <time>2026-05-28T12:01:39.999Z</time>
      </trkpt>
      <trkpt lat="44.04324" lon="3.50926">
        <ele>1311.6</ele>
        <time>2026-05-28T12:01:40.999Z</time>
      </trkpt>
      <trkpt lat="44.04324" lon="3.50926">
        <ele>1311.9</ele>
        <time>2026-05-28T12:01:41.999Z</time>
      </trkpt>
      <trkpt lat="44.04324" lon="3.50926">
        <ele>1311.9</ele>
        <time>2026-05-28T12:01:42.999Z</time>
      </trkpt>
      <trkpt lat="44.04324" lon="3.50926">
        <ele>1312.2</ele>
        <time>2026-05-28T12:01:43.999Z</time>
      </trkpt>
      <trkpt lat="44.04324" lon="3.50926">
        <ele>1312.4</ele>
        <time>2026-05-28T12:01:44.999Z</time>
      </trkpt>
      <trkpt lat="44.04324" lon="3.50926">
        <ele>1312.5</ele>
        <time>2026-05-28T12:01:45.999Z</time>
      </trkpt>
      <trkpt lat="44.04324" lon="3.50926">
        <ele>1312.5</ele>
        <time>2026-05-28T12:01:46.999Z</time>
      </trkpt>
      <trkpt lat="44.04324" lon="3.50926">
        <ele>1312.5</ele>
        <time>2026-05-28T12:01:47.999Z</time>
      </trkpt>
      <trkpt lat="44.04324" lon="3.50926">
        <ele>1312.4</ele>
        <time>2026-05-28T12:01:48.999Z</time>
      </trkpt>
      <trkpt lat="44.04324" lon="3.50926">
        <ele>1312.3</ele>
        <time>2026-05-28T12:01:49.999Z</time>
      </trkpt>
      <trkpt lat="44.04324" lon="3.50926">
        <ele>1312.4</ele>
        <time>2026-05-28T12:01:50.999Z</time>
      </trkpt>
      <trkpt lat="44.04324" lon="3.50926">
        <ele>1312.4</ele>
        <time>2026-05-28T12:01:51.999Z</time>
      </trkpt>
      <trkpt lat="44.04324" lon="3.50926">
        <ele>1312.5</ele>
        <time>2026-05-28T12:01:52.999Z</time>
      </trkpt>
      <trkpt lat="44.04324" lon="3.50926">
        <ele>1312.7</ele>
        <time>2026-05-28T12:01:53.999Z</time>
      </trkpt>
      <trkpt lat="44.04324" lon="3.50926">
        <ele>1312.7</ele>
        <time>2026-05-28T12:01:54.999Z</time>
      </trkpt>
      <trkpt lat="44.04324" lon="3.50926">
        <ele>1312.7</ele>
        <time>2026-05-28T12:01:55.999Z</time>
      </trkpt>
      <trkpt lat="44.04324" lon="3.50926">
        <ele>1312.6</ele>
        <time>2026-05-28T12:01:56.999Z</time>
      </trkpt>
      <trkpt lat="44.04324" lon="3.50926">
        <ele>1312.5</ele>
        <time>2026-05-28T12:01:57.999Z</time>
      </trkpt>
      <trkpt lat="44.04324" lon="3.50926">
        <ele>1312.4</ele>
        <time>2026-05-28T12:01:58.999Z</time>
      </trkpt>
      <trkpt lat="44.04324" lon="3.50926">
        <ele>1312.3</ele>
        <time>2026-05-28T12:01:59.999Z</time>
      </trkpt>
      <trkpt lat="44.04324" lon="3.50926">
        <ele>1312.1</ele>
        <time>2026-05-28T12:02:00.999Z</time>
      </trkpt>
      <trkpt lat="44.04324" lon="3.50926">
        <ele>1312</ele>
        <time>2026-05-28T12:02:01.999Z</time>
      </trkpt>
      <trkpt lat="44.04324" lon="3.50926">
        <ele>1312</ele>
        <time>2026-05-28T12:02:02.999Z</time>
      </trkpt>
      <trkpt lat="44.04324" lon="3.50926">
        <ele>1311.8</ele>
        <time>2026-05-28T12:02:03.999Z</time>
      </trkpt>
      <trkpt lat="44.04324" lon="3.50926">
        <ele>1311.9</ele>
        <time>2026-05-28T12:02:04.999Z</time>
      </trkpt>
      <trkpt lat="44.04325" lon="3.50926">
        <ele>1311.7</ele>
        <time>2026-05-28T12:02:05.999Z</time>
      </trkpt>
      <trkpt lat="44.04325" lon="3.50926">
        <ele>1311.6</ele>
        <time>2026-05-28T12:02:06.999Z</time>
      </trkpt>
      <trkpt lat="44.04325" lon="3.50926">
        <ele>1311.6</ele>
        <time>2026-05-28T12:02:07.999Z</time>
      </trkpt>
      <trkpt lat="44.04325" lon="3.50927">
        <ele>1311.7</ele>
        <time>2026-05-28T12:02:08.999Z</time>
      </trkpt>
      <trkpt lat="44.04325" lon="3.50927">
        <ele>1311.6</ele>
        <time>2026-05-28T12:02:09.999Z</time>
      </trkpt>
      <trkpt lat="44.04325" lon="3.50927">
        <ele>1311.3</ele>
        <time>2026-05-28T12:02:10.999Z</time>
      </trkpt>
      <trkpt lat="44.04325" lon="3.50927">
        <ele>1311.1</ele>
        <time>2026-05-28T12:02:11.999Z</time>
      </trkpt>
      <trkpt lat="44.04325" lon="3.50927">
        <ele>1311</ele>
        <time>2026-05-28T12:02:12.999Z</time>
      </trkpt>
      <trkpt lat="44.04325" lon="3.50927">
        <ele>1310.9</ele>
        <time>2026-05-28T12:02:13.999Z</time>
      </trkpt>
      <trkpt lat="44.04325" lon="3.50927">
        <ele>1310.8</ele>
        <time>2026-05-28T12:02:14.999Z</time>
      </trkpt>
      <trkpt lat="44.04325" lon="3.50927">
        <ele>1310.7</ele>
        <time>2026-05-28T12:02:15.999Z</time>
      </trkpt>
      <trkpt lat="44.04325" lon="3.50927">
        <ele>1310.5</ele>
        <time>2026-05-28T12:02:16.999Z</time>
      </trkpt>
      <trkpt lat="44.04325" lon="3.50927">
        <ele>1310.5</ele>
        <time>2026-05-28T12:02:17.999Z</time>
      </trkpt>
      <trkpt lat="44.04325" lon="3.50928">
        <ele>1310.5</ele>
        <time>2026-05-28T12:02:18.999Z</time>
      </trkpt>
      <trkpt lat="44.04325" lon="3.50928">
        <ele>1310.4</ele>
        <time>2026-05-28T12:02:19.999Z</time>
      </trkpt>
      <trkpt lat="44.04325" lon="3.50928">
        <ele>1310.4</ele>
        <time>2026-05-28T12:02:20.999Z</time>
      </trkpt>
      <trkpt lat="44.04325" lon="3.50928">
        <ele>1310.5</ele>
        <time>2026-05-28T12:02:21.999Z</time>
      </trkpt>
      <trkpt lat="44.04325" lon="3.50928">
        <ele>1310.7</ele>
        <time>2026-05-28T12:02:22.999Z</time>
      </trkpt>
      <trkpt lat="44.04325" lon="3.50928">
        <ele>1310.7</ele>
        <time>2026-05-28T12:02:23.999Z</time>
      </trkpt>
      <trkpt lat="44.04325" lon="3.50928">
        <ele>1310.7</ele>
        <time>2026-05-28T12:02:24.999Z</time>
      </trkpt>
      <trkpt lat="44.04325" lon="3.50928">
        <ele>1310.8</ele>
        <time>2026-05-28T12:02:25.999Z</time>
      </trkpt>
      <trkpt lat="44.04325" lon="3.50928">
        <ele>1310.8</ele>
        <time>2026-05-28T12:02:26.999Z</time>
      </trkpt>
      <trkpt lat="44.04325" lon="3.50928">
        <ele>1310.5</ele>
        <time>2026-05-28T12:02:27.999Z</time>
      </trkpt>
      <trkpt lat="44.04325" lon="3.50928">
        <ele>1310.3</ele>
        <time>2026-05-28T12:02:28.999Z</time>
      </trkpt>
      <trkpt lat="44.04325" lon="3.50928">
        <ele>1310.2</ele>
        <time>2026-05-28T12:02:29.999Z</time>
      </trkpt>
      <trkpt lat="44.04325" lon="3.50928">
        <ele>1310.1</ele>
        <time>2026-05-28T12:02:30.999Z</time>
      </trkpt>
      <trkpt lat="44.04325" lon="3.50929">
        <ele>1310</ele>
        <time>2026-05-28T12:02:31.999Z</time>
      </trkpt>
      <trkpt lat="44.04325" lon="3.50929">
        <ele>1310.1</ele>
        <time>2026-05-28T12:02:32.999Z</time>
      </trkpt>
      <trkpt lat="44.04325" lon="3.50929">
        <ele>1310.2</ele>
        <time>2026-05-28T12:02:33.999Z</time>
      </trkpt>
      <trkpt lat="44.04325" lon="3.50929">
        <ele>1310.4</ele>
        <time>2026-05-28T12:02:34.999Z</time>
      </trkpt>
      <trkpt lat="44.04325" lon="3.50929">
        <ele>1310.4</ele>
        <time>2026-05-28T12:02:35.999Z</time>
      </trkpt>
      <trkpt lat="44.04325" lon="3.50929">
        <ele>1310.4</ele>
        <time>2026-05-28T12:02:36.999Z</time>
      </trkpt>
      <trkpt lat="44.04325" lon="3.50929">
        <ele>1310.5</ele>
        <time>2026-05-28T12:02:37.999Z</time>
      </trkpt>
      <trkpt lat="44.04325" lon="3.50929">
        <ele>1310.7</ele>
        <time>2026-05-28T12:02:38.999Z</time>
      </trkpt>
      <trkpt lat="44.04325" lon="3.50929">
        <ele>1310.7</ele>
        <time>2026-05-28T12:02:39.999Z</time>
      </trkpt>
      <trkpt lat="44.04325" lon="3.50929">
        <ele>1310.8</ele>
        <time>2026-05-28T12:02:40.999Z</time>
      </trkpt>
      <trkpt lat="44.04325" lon="3.50929">
        <ele>1310.8</ele>
        <time>2026-05-28T12:02:41.999Z</time>
      </trkpt>
      <trkpt lat="44.04325" lon="3.50929">
        <ele>1310.7</ele>
        <time>2026-05-28T12:02:42.999Z</time>
      </trkpt>
      <trkpt lat="44.04325" lon="3.50929">
        <ele>1310.6</ele>
        <time>2026-05-28T12:02:43.999Z</time>
      </trkpt>
      <trkpt lat="44.04325" lon="3.50929">
        <ele>1310.8</ele>
        <time>2026-05-28T12:02:44.999Z</time>
      </trkpt>
      <trkpt lat="44.04325" lon="3.50929">
        <ele>1311</ele>
        <time>2026-05-28T12:02:45.999Z</time>
      </trkpt>
      <trkpt lat="44.04325" lon="3.50929">
        <ele>1311.1</ele>
        <time>2026-05-28T12:02:46.999Z</time>
      </trkpt>
      <trkpt lat="44.04325" lon="3.50929">
        <ele>1311.3</ele>
        <time>2026-05-28T12:02:47.999Z</time>
      </trkpt>
      <trkpt lat="44.04325" lon="3.50929">
        <ele>1311.4</ele>
        <time>2026-05-28T12:02:48.999Z</time>
      </trkpt>
      <trkpt lat="44.04326" lon="3.50929">
        <ele>1311.6</ele>
        <time>2026-05-28T12:02:49.999Z</time>
      </trkpt>
      <trkpt lat="44.04326" lon="3.50929">
        <ele>1311.7</ele>
        <time>2026-05-28T12:02:50.999Z</time>
      </trkpt>
      <trkpt lat="44.04326" lon="3.50929">
        <ele>1311.8</ele>
        <time>2026-05-28T12:02:51.999Z</time>
      </trkpt>
      <trkpt lat="44.04326" lon="3.50928">
        <ele>1311.9</ele>
        <time>2026-05-28T12:02:52.999Z</time>
      </trkpt>
      <trkpt lat="44.04326" lon="3.50928">
        <ele>1311.8</ele>
        <time>2026-05-28T12:02:53.999Z</time>
      </trkpt>
      <trkpt lat="44.04326" lon="3.50928">
        <ele>1311.6</ele>
        <time>2026-05-28T12:02:54.999Z</time>
      </trkpt>
      <trkpt lat="44.04326" lon="3.50928">
        <ele>1311.6</ele>
        <time>2026-05-28T12:02:55.999Z</time>
      </trkpt>
      <trkpt lat="44.04326" lon="3.50928">
        <ele>1311.6</ele>
        <time>2026-05-28T12:02:56.999Z</time>
      </trkpt>
      <trkpt lat="44.04326" lon="3.50928">
        <ele>1311.6</ele>
        <time>2026-05-28T12:02:57.999Z</time>
      </trkpt>
      <trkpt lat="44.04326" lon="3.50927">
        <ele>1311.6</ele>
        <time>2026-05-28T12:02:58.999Z</time>
      </trkpt>
      <trkpt lat="44.04326" lon="3.50927">
        <ele>1311.5</ele>
        <time>2026-05-28T12:02:59.999Z</time>
      </trkpt>
      <trkpt lat="44.04326" lon="3.50927">
        <ele>1311.3</ele>
        <time>2026-05-28T12:03:00.999Z</time>
      </trkpt>
      <trkpt lat="44.04325" lon="3.50927">
        <ele>1311.1</ele>
        <time>2026-05-28T12:03:01.999Z</time>
      </trkpt>
      <trkpt lat="44.04325" lon="3.50927">
        <ele>1310.7</ele>
        <time>2026-05-28T12:03:02.999Z</time>
      </trkpt>
      <trkpt lat="44.04325" lon="3.50927">
        <ele>1310.7</ele>
        <time>2026-05-28T12:03:03.999Z</time>
      </trkpt>
      <trkpt lat="44.04325" lon="3.50926">
        <ele>1310.9</ele>
        <time>2026-05-28T12:03:04.999Z</time>
      </trkpt>
      <trkpt lat="44.04325" lon="3.50926">
        <ele>1311</ele>
        <time>2026-05-28T12:03:05.999Z</time>
      </trkpt>
      <trkpt lat="44.04325" lon="3.50926">
        <ele>1310.9</ele>
        <time>2026-05-28T12:03:06.999Z</time>
      </trkpt>
      <trkpt lat="44.04326" lon="3.50926">
        <ele>1311</ele>
        <time>2026-05-28T12:03:07.999Z</time>
      </trkpt>
      <trkpt lat="44.04326" lon="3.50926">
        <ele>1311</ele>
        <time>2026-05-28T12:03:08.999Z</time>
      </trkpt>
      <trkpt lat="44.04326" lon="3.50926">
        <ele>1311.2</ele>
        <time>2026-05-28T12:03:09.999Z</time>
      </trkpt>
      <trkpt lat="44.04326" lon="3.50926">
        <ele>1311.3</ele>
        <time>2026-05-28T12:03:10.999Z</time>
      </trkpt>
      <trkpt lat="44.04326" lon="3.50926">
        <ele>1311.3</ele>
        <time>2026-05-28T12:03:11.999Z</time>
      </trkpt>
      <trkpt lat="44.04326" lon="3.50926">
        <ele>1311.2</ele>
        <time>2026-05-28T12:03:12.999Z</time>
      </trkpt>
      <trkpt lat="44.04326" lon="3.50926">
        <ele>1311.1</ele>
        <time>2026-05-28T12:03:13.999Z</time>
      </trkpt>
      <trkpt lat="44.04326" lon="3.50925">
        <ele>1310.8</ele>
        <time>2026-05-28T12:03:14.999Z</time>
      </trkpt>
      <trkpt lat="44.04326" lon="3.50926">
        <ele>1310.7</ele>
        <time>2026-05-28T12:03:15.999Z</time>
      </trkpt>
      <trkpt lat="44.04326" lon="3.50926">
        <ele>1310.7</ele>
        <time>2026-05-28T12:03:16.999Z</time>
      </trkpt>
      <trkpt lat="44.04326" lon="3.50926">
        <ele>1311</ele>
        <time>2026-05-28T12:03:17.999Z</time>
      </trkpt>
      <trkpt lat="44.04326" lon="3.50926">
        <ele>1310.9</ele>
        <time>2026-05-28T12:03:18.999Z</time>
      </trkpt>
      <trkpt lat="44.04326" lon="3.50926">
        <ele>1310.8</ele>
        <time>2026-05-28T12:03:19.999Z</time>
      </trkpt>
      <trkpt lat="44.04326" lon="3.50926">
        <ele>1310.8</ele>
        <time>2026-05-28T12:03:20.999Z</time>
      </trkpt>
      <trkpt lat="44.04326" lon="3.50926">
        <ele>1311</ele>
        <time>2026-05-28T12:03:21.999Z</time>
      </trkpt>
      <trkpt lat="44.04326" lon="3.50926">
        <ele>1311.3</ele>
        <time>2026-05-28T12:03:22.999Z</time>
      </trkpt>
      <trkpt lat="44.04326" lon="3.50926">
        <ele>1311.6</ele>
        <time>2026-05-28T12:03:23.999Z</time>
      </trkpt>
      <trkpt lat="44.04326" lon="3.50926">
        <ele>1311.7</ele>
        <time>2026-05-28T12:03:24.999Z</time>
      </trkpt>
      <trkpt lat="44.04326" lon="3.50926">
        <ele>1311.8</ele>
        <time>2026-05-28T12:03:25.999Z</time>
      </trkpt>
      <trkpt lat="44.04326" lon="3.50926">
        <ele>1311.9</ele>
        <time>2026-05-28T12:03:26.999Z</time>
      </trkpt>
      <trkpt lat="44.04326" lon="3.50926">
        <ele>1312.1</ele>
        <time>2026-05-28T12:03:27.999Z</time>
      </trkpt>
      <trkpt lat="44.04325" lon="3.50926">
        <ele>1312.2</ele>
        <time>2026-05-28T12:03:28.999Z</time>
      </trkpt>
      <trkpt lat="44.04325" lon="3.50926">
        <ele>1312.5</ele>
        <time>2026-05-28T12:03:29.999Z</time>
      </trkpt>
      <trkpt lat="44.04325" lon="3.50926">
        <ele>1312.6</ele>
        <time>2026-05-28T12:03:30.999Z</time>
      </trkpt>
      <trkpt lat="44.04325" lon="3.50926">
        <ele>1312.7</ele>
        <time>2026-05-28T12:03:31.999Z</time>
      </trkpt>
      <trkpt lat="44.04325" lon="3.50926">
        <ele>1312.8</ele>
        <time>2026-05-28T12:03:32.999Z</time>
      </trkpt>
      <trkpt lat="44.04325" lon="3.50926">
        <ele>1312.9</ele>
        <time>2026-05-28T12:03:33.999Z</time>
      </trkpt>
      <trkpt lat="44.04325" lon="3.50926">
        <ele>1313.2</ele>
        <time>2026-05-28T12:03:34.999Z</time>
      </trkpt>
      <trkpt lat="44.04325" lon="3.50926">
        <ele>1313.5</ele>
        <time>2026-05-28T12:03:35.999Z</time>
      </trkpt>
      <trkpt lat="44.04325" lon="3.50926">
        <ele>1313.6</ele>
        <time>2026-05-28T12:03:36.999Z</time>
      </trkpt>
      <trkpt lat="44.04325" lon="3.50926">
        <ele>1313.6</ele>
        <time>2026-05-28T12:03:37.999Z</time>
      </trkpt>
      <trkpt lat="44.04325" lon="3.50926">
        <ele>1313.7</ele>
        <time>2026-05-28T12:03:38.999Z</time>
      </trkpt>
      <trkpt lat="44.04325" lon="3.50926">
        <ele>1313.6</ele>
        <time>2026-05-28T12:03:39.999Z</time>
      </trkpt>
      <trkpt lat="44.04325" lon="3.50926">
        <ele>1313.7</ele>
        <time>2026-05-28T12:03:40.999Z</time>
      </trkpt>
      <trkpt lat="44.04325" lon="3.50926">
        <ele>1313.7</ele>
        <time>2026-05-28T12:03:41.999Z</time>
      </trkpt>
      <trkpt lat="44.04325" lon="3.50926">
        <ele>1313.6</ele>
        <time>2026-05-28T12:03:42.999Z</time>
      </trkpt>
      <trkpt lat="44.04325" lon="3.50926">
        <ele>1313.7</ele>
        <time>2026-05-28T12:03:43.999Z</time>
      </trkpt>
      <trkpt lat="44.04325" lon="3.50926">
        <ele>1313.5</ele>
        <time>2026-05-28T12:03:44.999Z</time>
      </trkpt>
      <trkpt lat="44.04325" lon="3.50926">
        <ele>1313.7</ele>
        <time>2026-05-28T12:03:45.999Z</time>
      </trkpt>
      <trkpt lat="44.04325" lon="3.50926">
        <ele>1313.5</ele>
        <time>2026-05-28T12:03:46.999Z</time>
      </trkpt>
      <trkpt lat="44.04325" lon="3.50926">
        <ele>1313.5</ele>
        <time>2026-05-28T12:03:47.999Z</time>
      </trkpt>
      <trkpt lat="44.04325" lon="3.50926">
        <ele>1313.5</ele>
        <time>2026-05-28T12:03:48.999Z</time>
      </trkpt>
      <trkpt lat="44.04325" lon="3.50926">
        <ele>1313.6</ele>
        <time>2026-05-28T12:03:49.999Z</time>
      </trkpt>
      <trkpt lat="44.04325" lon="3.50926">
        <ele>1313.6</ele>
        <time>2026-05-28T12:03:50.999Z</time>
      </trkpt>
      <trkpt lat="44.04325" lon="3.50926">
        <ele>1313.7</ele>
        <time>2026-05-28T12:03:51.999Z</time>
      </trkpt>
      <trkpt lat="44.04325" lon="3.50926">
        <ele>1313.8</ele>
        <time>2026-05-28T12:03:52.999Z</time>
      </trkpt>
      <trkpt lat="44.04325" lon="3.50926">
        <ele>1313.7</ele>
        <time>2026-05-28T12:03:53.999Z</time>
      </trkpt>
      <trkpt lat="44.04325" lon="3.50926">
        <ele>1313.9</ele>
        <time>2026-05-28T12:03:54.999Z</time>
      </trkpt>
      <trkpt lat="44.04325" lon="3.50926">
        <ele>1314</ele>
        <time>2026-05-28T12:03:55.999Z</time>
      </trkpt>
      <trkpt lat="44.04325" lon="3.50926">
        <ele>1314.3</ele>
        <time>2026-05-28T12:03:56.999Z</time>
      </trkpt>
      <trkpt lat="44.04325" lon="3.50926">
        <ele>1314.5</ele>
        <time>2026-05-28T12:03:57.999Z</time>
      </trkpt>
      <trkpt lat="44.04325" lon="3.50926">
        <ele>1314.4</ele>
        <time>2026-05-28T12:03:58.999Z</time>
      </trkpt>
      <trkpt lat="44.04325" lon="3.50926">
        <ele>1314.5</ele>
        <time>2026-05-28T12:03:59.999Z</time>
      </trkpt>
      <trkpt lat="44.04325" lon="3.50926">
        <ele>1314.5</ele>
        <time>2026-05-28T12:04:00.999Z</time>
      </trkpt>
      <trkpt lat="44.04325" lon="3.50926">
        <ele>1314.5</ele>
        <time>2026-05-28T12:04:01.999Z</time>
      </trkpt>
      <trkpt lat="44.04325" lon="3.50926">
        <ele>1314.5</ele>
        <time>2026-05-28T12:04:02.999Z</time>
      </trkpt>
      <trkpt lat="44.04325" lon="3.50926">
        <ele>1314.7</ele>
        <time>2026-05-28T12:04:03.999Z</time>
      </trkpt>
      <trkpt lat="44.04325" lon="3.50926">
        <ele>1314.8</ele>
        <time>2026-05-28T12:04:04.999Z</time>
      </trkpt>
      <trkpt lat="44.04325" lon="3.50926">
        <ele>1314.9</ele>
        <time>2026-05-28T12:04:05.999Z</time>
      </trkpt>
      <trkpt lat="44.04325" lon="3.50926">
        <ele>1315</ele>
        <time>2026-05-28T12:04:06.999Z</time>
      </trkpt>
      <trkpt lat="44.04325" lon="3.50926">
        <ele>1314.9</ele>
        <time>2026-05-28T12:04:07.999Z</time>
      </trkpt>
      <trkpt lat="44.04325" lon="3.50926">
        <ele>1314.9</ele>
        <time>2026-05-28T12:04:08.999Z</time>
      </trkpt>
      <trkpt lat="44.04325" lon="3.50926">
        <ele>1314.7</ele>
        <time>2026-05-28T12:04:09.999Z</time>
      </trkpt>
      <trkpt lat="44.04325" lon="3.50926">
        <ele>1314.8</ele>
        <time>2026-05-28T12:04:10.999Z</time>
      </trkpt>
      <trkpt lat="44.04325" lon="3.50926">
        <ele>1314.8</ele>
        <time>2026-05-28T12:04:11.999Z</time>
      </trkpt>
      <trkpt lat="44.04325" lon="3.50926">
        <ele>1314.6</ele>
        <time>2026-05-28T12:04:12.999Z</time>
      </trkpt>
      <trkpt lat="44.04325" lon="3.50926">
        <ele>1314.3</ele>
        <time>2026-05-28T12:04:13.999Z</time>
      </trkpt>
      <trkpt lat="44.04325" lon="3.50926">
        <ele>1314.2</ele>
        <time>2026-05-28T12:04:14.999Z</time>
      </trkpt>
      <trkpt lat="44.04325" lon="3.50926">
        <ele>1314.2</ele>
        <time>2026-05-28T12:04:15.999Z</time>
      </trkpt>
      <trkpt lat="44.04326" lon="3.50926">
        <ele>1314.2</ele>
        <time>2026-05-28T12:04:16.999Z</time>
      </trkpt>
      <trkpt lat="44.04326" lon="3.50926">
        <ele>1314.1</ele>
        <time>2026-05-28T12:04:17.999Z</time>
      </trkpt>
      <trkpt lat="44.04326" lon="3.50926">
        <ele>1314</ele>
        <time>2026-05-28T12:04:18.999Z</time>
      </trkpt>
      <trkpt lat="44.04326" lon="3.50926">
        <ele>1313.9</ele>
        <time>2026-05-28T12:04:19.999Z</time>
      </trkpt>
      <trkpt lat="44.04326" lon="3.50926">
        <ele>1313.8</ele>
        <time>2026-05-28T12:04:20.999Z</time>
      </trkpt>
      <trkpt lat="44.04326" lon="3.50926">
        <ele>1314</ele>
        <time>2026-05-28T12:04:21.999Z</time>
      </trkpt>
      <trkpt lat="44.04325" lon="3.50926">
        <ele>1314</ele>
        <time>2026-05-28T12:04:22.999Z</time>
      </trkpt>
      <trkpt lat="44.04324" lon="3.50926">
        <ele>1313.8</ele>
        <time>2026-05-28T12:04:23.999Z</time>
      </trkpt>
      <trkpt lat="44.04324" lon="3.50926">
        <ele>1313.9</ele>
        <time>2026-05-28T12:04:24.999Z</time>
      </trkpt>
      <trkpt lat="44.04324" lon="3.50926">
        <ele>1313.9</ele>
        <time>2026-05-28T12:04:25.999Z</time>
      </trkpt>
      <trkpt lat="44.04324" lon="3.50926">
        <ele>1314.1</ele>
        <time>2026-05-28T12:04:26.999Z</time>
      </trkpt>
      <trkpt lat="44.04324" lon="3.50926">
        <ele>1314</ele>
        <time>2026-05-28T12:04:27.999Z</time>
      </trkpt>
      <trkpt lat="44.04324" lon="3.50926">
        <ele>1314</ele>
        <time>2026-05-28T12:04:28.999Z</time>
      </trkpt>
      <trkpt lat="44.04324" lon="3.50926">
        <ele>1314.3</ele>
        <time>2026-05-28T12:04:29.999Z</time>
      </trkpt>
      <trkpt lat="44.04324" lon="3.50926">
        <ele>1314.5</ele>
        <time>2026-05-28T12:04:30.999Z</time>
      </trkpt>
      <trkpt lat="44.04324" lon="3.50926">
        <ele>1314.8</ele>
        <time>2026-05-28T12:04:31.999Z</time>
      </trkpt>
      <trkpt lat="44.04324" lon="3.50925">
        <ele>1315.2</ele>
        <time>2026-05-28T12:04:32.999Z</time>
      </trkpt>
      <trkpt lat="44.04324" lon="3.50925">
        <ele>1315.4</ele>
        <time>2026-05-28T12:04:33.999Z</time>
      </trkpt>
      <trkpt lat="44.04324" lon="3.50925">
        <ele>1315.5</ele>
        <time>2026-05-28T12:04:34.999Z</time>
      </trkpt>
      <trkpt lat="44.04324" lon="3.50925">
        <ele>1315.6</ele>
        <time>2026-05-28T12:04:35.999Z</time>
      </trkpt>
      <trkpt lat="44.04324" lon="3.50925">
        <ele>1315.5</ele>
        <time>2026-05-28T12:04:36.999Z</time>
      </trkpt>
      <trkpt lat="44.04324" lon="3.50925">
        <ele>1315.6</ele>
        <time>2026-05-28T12:04:37.999Z</time>
      </trkpt>
      <trkpt lat="44.04324" lon="3.50925">
        <ele>1315.9</ele>
        <time>2026-05-28T12:04:38.999Z</time>
      </trkpt>
      <trkpt lat="44.04324" lon="3.50925">
        <ele>1316.4</ele>
        <time>2026-05-28T12:04:39.999Z</time>
      </trkpt>
      <trkpt lat="44.04324" lon="3.50925">
        <ele>1316.7</ele>
        <time>2026-05-28T12:04:40.999Z</time>
      </trkpt>
      <trkpt lat="44.04324" lon="3.50925">
        <ele>1317.2</ele>
        <time>2026-05-28T12:04:41.999Z</time>
      </trkpt>
      <trkpt lat="44.04324" lon="3.50924">
        <ele>1316.9</ele>
        <time>2026-05-28T12:04:42.999Z</time>
      </trkpt>
      <trkpt lat="44.04324" lon="3.50924">
        <ele>1316.8</ele>
        <time>2026-05-28T12:04:43.999Z</time>
      </trkpt>
      <trkpt lat="44.04324" lon="3.50924">
        <ele>1316.5</ele>
        <time>2026-05-28T12:04:44.999Z</time>
      </trkpt>
      <trkpt lat="44.04324" lon="3.50923">
        <ele>1316.3</ele>
        <time>2026-05-28T12:04:45.999Z</time>
      </trkpt>
      <trkpt lat="44.04324" lon="3.50923">
        <ele>1315.7</ele>
        <time>2026-05-28T12:04:46.999Z</time>
      </trkpt>
      <trkpt lat="44.04324" lon="3.50923">
        <ele>1315.1</ele>
        <time>2026-05-28T12:04:47.999Z</time>
      </trkpt>
      <trkpt lat="44.04324" lon="3.50924">
        <ele>1314.7</ele>
        <time>2026-05-28T12:04:48.999Z</time>
      </trkpt>
      <trkpt lat="44.04324" lon="3.50924">
        <ele>1314.5</ele>
        <time>2026-05-28T12:04:49.999Z</time>
      </trkpt>
      <trkpt lat="44.04324" lon="3.50924">
        <ele>1314.5</ele>
        <time>2026-05-28T12:04:50.999Z</time>
      </trkpt>
      <trkpt lat="44.04324" lon="3.50924">
        <ele>1314.3</ele>
        <time>2026-05-28T12:04:51.999Z</time>
      </trkpt>
      <trkpt lat="44.04324" lon="3.50924">
        <ele>1313.8</ele>
        <time>2026-05-28T12:04:52.999Z</time>
      </trkpt>
      <trkpt lat="44.04324" lon="3.50924">
        <ele>1313.2</ele>
        <time>2026-05-28T12:04:53.999Z</time>
      </trkpt>
      <trkpt lat="44.04324" lon="3.50924">
        <ele>1312.8</ele>
        <time>2026-05-28T12:04:54.999Z</time>
      </trkpt>
      <trkpt lat="44.04324" lon="3.50924">
        <ele>1312.4</ele>
        <time>2026-05-28T12:04:55.999Z</time>
      </trkpt>
      <trkpt lat="44.04324" lon="3.50924">
        <ele>1312</ele>
        <time>2026-05-28T12:04:56.999Z</time>
      </trkpt>
      <trkpt lat="44.04324" lon="3.50924">
        <ele>1312</ele>
        <time>2026-05-28T12:04:57.999Z</time>
      </trkpt>
      <trkpt lat="44.04324" lon="3.50924">
        <ele>1312</ele>
        <time>2026-05-28T12:04:58.999Z</time>
      </trkpt>
      <trkpt lat="44.04324" lon="3.50924">
        <ele>1311.4</ele>
        <time>2026-05-28T12:04:59.999Z</time>
      </trkpt>
      <trkpt lat="44.04324" lon="3.50925">
        <ele>1310.9</ele>
        <time>2026-05-28T12:05:00.999Z</time>
      </trkpt>
      <trkpt lat="44.04324" lon="3.50925">
        <ele>1310.7</ele>
        <time>2026-05-28T12:05:01.999Z</time>
      </trkpt>
      <trkpt lat="44.04324" lon="3.50925">
        <ele>1310.3</ele>
        <time>2026-05-28T12:05:02.999Z</time>
      </trkpt>
      <trkpt lat="44.04324" lon="3.50925">
        <ele>1310.3</ele>
        <time>2026-05-28T12:05:03.999Z</time>
      </trkpt>
      <trkpt lat="44.04324" lon="3.50925">
        <ele>1310.2</ele>
        <time>2026-05-28T12:05:04.999Z</time>
      </trkpt>
      <trkpt lat="44.04324" lon="3.50925">
        <ele>1310</ele>
        <time>2026-05-28T12:05:05.999Z</time>
      </trkpt>
      <trkpt lat="44.04324" lon="3.50925">
        <ele>1309.9</ele>
        <time>2026-05-28T12:05:06.999Z</time>
      </trkpt>
      <trkpt lat="44.04324" lon="3.50925">
        <ele>1309.7</ele>
        <time>2026-05-28T12:05:07.999Z</time>
      </trkpt>
      <trkpt lat="44.04324" lon="3.50925">
        <ele>1309.7</ele>
        <time>2026-05-28T12:05:08.999Z</time>
      </trkpt>
      <trkpt lat="44.04324" lon="3.50925">
        <ele>1309.8</ele>
        <time>2026-05-28T12:05:09.999Z</time>
      </trkpt>
      <trkpt lat="44.04324" lon="3.50925">
        <ele>1309.9</ele>
        <time>2026-05-28T12:05:10.999Z</time>
      </trkpt>
      <trkpt lat="44.04324" lon="3.50925">
        <ele>1309.7</ele>
        <time>2026-05-28T12:05:11.999Z</time>
      </trkpt>
      <trkpt lat="44.04324" lon="3.50925">
        <ele>1309.6</ele>
        <time>2026-05-28T12:05:12.999Z</time>
      </trkpt>
      <trkpt lat="44.04324" lon="3.50925">
        <ele>1309.4</ele>
        <time>2026-05-28T12:05:13.999Z</time>
      </trkpt>
      <trkpt lat="44.04324" lon="3.50925">
        <ele>1309.3</ele>
        <time>2026-05-28T12:05:14.999Z</time>
      </trkpt>
      <trkpt lat="44.04324" lon="3.50925">
        <ele>1309.6</ele>
        <time>2026-05-28T12:05:15.999Z</time>
      </trkpt>
      <trkpt lat="44.04324" lon="3.50925">
        <ele>1309.9</ele>
        <time>2026-05-28T12:05:16.999Z</time>
      </trkpt>
      <trkpt lat="44.04324" lon="3.50925">
        <ele>1310</ele>
        <time>2026-05-28T12:05:17.999Z</time>
      </trkpt>
      <trkpt lat="44.04324" lon="3.50925">
        <ele>1309.9</ele>
        <time>2026-05-28T12:05:18.999Z</time>
      </trkpt>
      <trkpt lat="44.04324" lon="3.50925">
        <ele>1309.9</ele>
        <time>2026-05-28T12:05:19.999Z</time>
      </trkpt>
      <trkpt lat="44.04324" lon="3.50925">
        <ele>1309.8</ele>
        <time>2026-05-28T12:05:20.999Z</time>
      </trkpt>
      <trkpt lat="44.04324" lon="3.50925">
        <ele>1309.7</ele>
        <time>2026-05-28T12:05:21.999Z</time>
      </trkpt>
      <trkpt lat="44.04324" lon="3.50925">
        <ele>1309.7</ele>
        <time>2026-05-28T12:05:22.999Z</time>
      </trkpt>
      <trkpt lat="44.04324" lon="3.50925">
        <ele>1309.6</ele>
        <time>2026-05-28T12:05:23.999Z</time>
      </trkpt>
      <trkpt lat="44.04324" lon="3.50925">
        <ele>1309.4</ele>
        <time>2026-05-28T12:05:24.999Z</time>
      </trkpt>
      <trkpt lat="44.04324" lon="3.50925">
        <ele>1309.3</ele>
        <time>2026-05-28T12:05:25.999Z</time>
      </trkpt>
      <trkpt lat="44.04324" lon="3.50925">
        <ele>1309.2</ele>
        <time>2026-05-28T12:05:26.999Z</time>
      </trkpt>
      <trkpt lat="44.04325" lon="3.50925">
        <ele>1308.8</ele>
        <time>2026-05-28T12:05:27.999Z</time>
      </trkpt>
      <trkpt lat="44.04325" lon="3.50925">
        <ele>1308.4</ele>
        <time>2026-05-28T12:05:28.999Z</time>
      </trkpt>
      <trkpt lat="44.04325" lon="3.50926">
        <ele>1307.8</ele>
        <time>2026-05-28T12:05:29.999Z</time>
      </trkpt>
      <trkpt lat="44.04325" lon="3.50926">
        <ele>1307.4</ele>
        <time>2026-05-28T12:05:30.999Z</time>
      </trkpt>
      <trkpt lat="44.04325" lon="3.50926">
        <ele>1307.4</ele>
        <time>2026-05-28T12:05:31.999Z</time>
      </trkpt>
      <trkpt lat="44.04325" lon="3.50926">
        <ele>1307.2</ele>
        <time>2026-05-28T12:05:32.999Z</time>
      </trkpt>
      <trkpt lat="44.04325" lon="3.50926">
        <ele>1307.2</ele>
        <time>2026-05-28T12:05:33.999Z</time>
      </trkpt>
      <trkpt lat="44.04325" lon="3.50926">
        <ele>1307.1</ele>
        <time>2026-05-28T12:05:34.999Z</time>
      </trkpt>
      <trkpt lat="44.04325" lon="3.50926">
        <ele>1307</ele>
        <time>2026-05-28T12:05:35.999Z</time>
      </trkpt>
      <trkpt lat="44.04325" lon="3.50926">
        <ele>1307.1</ele>
        <time>2026-05-28T12:05:36.999Z</time>
      </trkpt>
      <trkpt lat="44.04325" lon="3.50926">
        <ele>1307</ele>
        <time>2026-05-28T12:05:37.999Z</time>
      </trkpt>
      <trkpt lat="44.04325" lon="3.50926">
        <ele>1307.1</ele>
        <time>2026-05-28T12:05:38.999Z</time>
      </trkpt>
      <trkpt lat="44.04325" lon="3.50926">
        <ele>1307.2</ele>
        <time>2026-05-28T12:05:39.999Z</time>
      </trkpt>
      <trkpt lat="44.04325" lon="3.50926">
        <ele>1307.1</ele>
        <time>2026-05-28T12:05:40.999Z</time>
      </trkpt>
      <trkpt lat="44.04325" lon="3.50926">
        <ele>1307</ele>
        <time>2026-05-28T12:05:41.999Z</time>
      </trkpt>
      <trkpt lat="44.04325" lon="3.50926">
        <ele>1307.1</ele>
        <time>2026-05-28T12:05:42.999Z</time>
      </trkpt>
      <trkpt lat="44.04325" lon="3.50925">
        <ele>1307.3</ele>
        <time>2026-05-28T12:05:43.999Z</time>
      </trkpt>
      <trkpt lat="44.04325" lon="3.50925">
        <ele>1307.2</ele>
        <time>2026-05-28T12:05:44.999Z</time>
      </trkpt>
      <trkpt lat="44.04325" lon="3.50925">
        <ele>1307.2</ele>
        <time>2026-05-28T12:05:45.999Z</time>
      </trkpt>
      <trkpt lat="44.04325" lon="3.50925">
        <ele>1307.2</ele>
        <time>2026-05-28T12:05:46.999Z</time>
      </trkpt>
      <trkpt lat="44.04325" lon="3.50925">
        <ele>1307.1</ele>
        <time>2026-05-28T12:05:47.999Z</time>
      </trkpt>
      <trkpt lat="44.04325" lon="3.50925">
        <ele>1307.1</ele>
        <time>2026-05-28T12:05:48.999Z</time>
      </trkpt>
      <trkpt lat="44.04325" lon="3.50925">
        <ele>1307</ele>
        <time>2026-05-28T12:05:49.999Z</time>
      </trkpt>
      <trkpt lat="44.04325" lon="3.50925">
        <ele>1306.8</ele>
        <time>2026-05-28T12:05:50.999Z</time>
      </trkpt>
      <trkpt lat="44.04325" lon="3.50925">
        <ele>1306.5</ele>
        <time>2026-05-28T12:05:51.999Z</time>
      </trkpt>
      <trkpt lat="44.04325" lon="3.50925">
        <ele>1306.3</ele>
        <time>2026-05-28T12:05:52.999Z</time>
      </trkpt>
      <trkpt lat="44.04325" lon="3.50925">
        <ele>1306.2</ele>
        <time>2026-05-28T12:05:53.999Z</time>
      </trkpt>
      <trkpt lat="44.04325" lon="3.50925">
        <ele>1306</ele>
        <time>2026-05-28T12:05:54.999Z</time>
      </trkpt>
      <trkpt lat="44.04325" lon="3.50925">
        <ele>1306</ele>
        <time>2026-05-28T12:05:55.999Z</time>
      </trkpt>
      <trkpt lat="44.04325" lon="3.50925">
        <ele>1306</ele>
        <time>2026-05-28T12:05:56.999Z</time>
      </trkpt>
      <trkpt lat="44.04325" lon="3.50925">
        <ele>1306</ele>
        <time>2026-05-28T12:05:57.999Z</time>
      </trkpt>
      <trkpt lat="44.04325" lon="3.50925">
        <ele>1305.8</ele>
        <time>2026-05-28T12:05:58.999Z</time>
      </trkpt>
      <trkpt lat="44.04325" lon="3.50924">
        <ele>1305.7</ele>
        <time>2026-05-28T12:05:59.999Z</time>
      </trkpt>
      <trkpt lat="44.04325" lon="3.50924">
        <ele>1305.5</ele>
        <time>2026-05-28T12:06:00.999Z</time>
      </trkpt>
      <trkpt lat="44.04325" lon="3.50924">
        <ele>1305.3</ele>
        <time>2026-05-28T12:06:01.999Z</time>
      </trkpt>
      <trkpt lat="44.04325" lon="3.50924">
        <ele>1305.2</ele>
        <time>2026-05-28T12:06:02.999Z</time>
      </trkpt>
      <trkpt lat="44.04325" lon="3.50924">
        <ele>1305.2</ele>
        <time>2026-05-28T12:06:03.999Z</time>
      </trkpt>
      <trkpt lat="44.04325" lon="3.50924">
        <ele>1305</ele>
        <time>2026-05-28T12:06:04.999Z</time>
      </trkpt>
      <trkpt lat="44.04325" lon="3.50924">
        <ele>1304.8</ele>
        <time>2026-05-28T12:06:05.999Z</time>
      </trkpt>
      <trkpt lat="44.04325" lon="3.50925">
        <ele>1304.5</ele>
        <time>2026-05-28T12:06:06.999Z</time>
      </trkpt>
      <trkpt lat="44.04325" lon="3.50925">
        <ele>1304.3</ele>
        <time>2026-05-28T12:06:07.999Z</time>
      </trkpt>
      <trkpt lat="44.04325" lon="3.50925">
        <ele>1304.2</ele>
        <time>2026-05-28T12:06:08.999Z</time>
      </trkpt>
      <trkpt lat="44.04325" lon="3.50925">
        <ele>1304.1</ele>
        <time>2026-05-28T12:06:09.999Z</time>
      </trkpt>
      <trkpt lat="44.04325" lon="3.50925">
        <ele>1303.9</ele>
        <time>2026-05-28T12:06:10.999Z</time>
      </trkpt>
      <trkpt lat="44.04325" lon="3.50925">
        <ele>1303.8</ele>
        <time>2026-05-28T12:06:11.999Z</time>
      </trkpt>
      <trkpt lat="44.04325" lon="3.50924">
        <ele>1303.7</ele>
        <time>2026-05-28T12:06:12.999Z</time>
      </trkpt>
      <trkpt lat="44.04325" lon="3.50924">
        <ele>1303.7</ele>
        <time>2026-05-28T12:06:13.999Z</time>
      </trkpt>
      <trkpt lat="44.04325" lon="3.50924">
        <ele>1303.6</ele>
        <time>2026-05-28T12:06:14.999Z</time>
      </trkpt>
      <trkpt lat="44.04325" lon="3.50924">
        <ele>1303.7</ele>
        <time>2026-05-28T12:06:15.999Z</time>
      </trkpt>
      <trkpt lat="44.04325" lon="3.50924">
        <ele>1303.8</ele>
        <time>2026-05-28T12:06:16.999Z</time>
      </trkpt>
      <trkpt lat="44.04325" lon="3.50924">
        <ele>1303.8</ele>
        <time>2026-05-28T12:06:17.999Z</time>
      </trkpt>
      <trkpt lat="44.04325" lon="3.50924">
        <ele>1303.6</ele>
        <time>2026-05-28T12:06:18.999Z</time>
      </trkpt>
      <trkpt lat="44.04325" lon="3.50925">
        <ele>1303.4</ele>
        <time>2026-05-28T12:06:19.999Z</time>
      </trkpt>
      <trkpt lat="44.04325" lon="3.50925">
        <ele>1303.2</ele>
        <time>2026-05-28T12:06:20.999Z</time>
      </trkpt>
      <trkpt lat="44.04325" lon="3.50925">
        <ele>1303.1</ele>
        <time>2026-05-28T12:06:21.999Z</time>
      </trkpt>
      <trkpt lat="44.04325" lon="3.50925">
        <ele>1303.1</ele>
        <time>2026-05-28T12:06:22.999Z</time>
      </trkpt>
      <trkpt lat="44.04325" lon="3.50925">
        <ele>1303.7</ele>
        <time>2026-05-28T12:06:23.999Z</time>
      </trkpt>
      <trkpt lat="44.04325" lon="3.50925">
        <ele>1303.6</ele>
        <time>2026-05-28T12:06:24.999Z</time>
      </trkpt>
      <trkpt lat="44.04325" lon="3.50925">
        <ele>1303.5</ele>
        <time>2026-05-28T12:06:25.999Z</time>
      </trkpt>
      <trkpt lat="44.04325" lon="3.50925">
        <ele>1303.2</ele>
        <time>2026-05-28T12:06:26.999Z</time>
      </trkpt>
      <trkpt lat="44.04325" lon="3.50925">
        <ele>1303.1</ele>
        <time>2026-05-28T12:06:27.999Z</time>
      </trkpt>
      <trkpt lat="44.04325" lon="3.50925">
        <ele>1303</ele>
        <time>2026-05-28T12:06:28.999Z</time>
      </trkpt>
      <trkpt lat="44.04325" lon="3.50925">
        <ele>1303.1</ele>
        <time>2026-05-28T12:06:29.999Z</time>
      </trkpt>
      <trkpt lat="44.04325" lon="3.50925">
        <ele>1303.9</ele>
        <time>2026-05-28T12:06:30.999Z</time>
      </trkpt>
      <trkpt lat="44.04325" lon="3.50925">
        <ele>1304.4</ele>
        <time>2026-05-28T12:06:31.999Z</time>
      </trkpt>
      <trkpt lat="44.04325" lon="3.50925">
        <ele>1304.1</ele>
        <time>2026-05-28T12:06:32.999Z</time>
      </trkpt>
      <trkpt lat="44.04325" lon="3.50925">
        <ele>1304.1</ele>
        <time>2026-05-28T12:06:33.999Z</time>
      </trkpt>
      <trkpt lat="44.04325" lon="3.50926">
        <ele>1304</ele>
        <time>2026-05-28T12:06:34.999Z</time>
      </trkpt>
      <trkpt lat="44.04325" lon="3.50926">
        <ele>1304.2</ele>
        <time>2026-05-28T12:06:35.999Z</time>
      </trkpt>
      <trkpt lat="44.04326" lon="3.50926">
        <ele>1304.3</ele>
        <time>2026-05-28T12:06:36.999Z</time>
      </trkpt>
      <trkpt lat="44.04325" lon="3.50924">
        <ele>1304.2</ele>
        <time>2026-05-28T12:06:37.999Z</time>
      </trkpt>
      <trkpt lat="44.04325" lon="3.50924">
        <ele>1304.1</ele>
        <time>2026-05-28T12:06:38.999Z</time>
      </trkpt>
      <trkpt lat="44.04325" lon="3.50924">
        <ele>1303.9</ele>
        <time>2026-05-28T12:06:39.999Z</time>
      </trkpt>
      <trkpt lat="44.04325" lon="3.50924">
        <ele>1304</ele>
        <time>2026-05-28T12:06:40.999Z</time>
      </trkpt>
      <trkpt lat="44.04325" lon="3.50924">
        <ele>1303.7</ele>
        <time>2026-05-28T12:06:41.999Z</time>
      </trkpt>
      <trkpt lat="44.04325" lon="3.50924">
        <ele>1303.6</ele>
        <time>2026-05-28T12:06:42.999Z</time>
      </trkpt>
      <trkpt lat="44.04325" lon="3.50925">
        <ele>1303.5</ele>
        <time>2026-05-28T12:06:43.999Z</time>
      </trkpt>
      <trkpt lat="44.04325" lon="3.50925">
        <ele>1303.8</ele>
        <time>2026-05-28T12:06:44.999Z</time>
      </trkpt>
      <trkpt lat="44.04325" lon="3.50925">
        <ele>1304.1</ele>
        <time>2026-05-28T12:06:45.999Z</time>
      </trkpt>
      <trkpt lat="44.04325" lon="3.50925">
        <ele>1304.1</ele>
        <time>2026-05-28T12:06:46.999Z</time>
      </trkpt>
      <trkpt lat="44.04325" lon="3.50925">
        <ele>1304.1</ele>
        <time>2026-05-28T12:06:47.999Z</time>
      </trkpt>
      <trkpt lat="44.04325" lon="3.50926">
        <ele>1303.9</ele>
        <time>2026-05-28T12:06:48.999Z</time>
      </trkpt>
      <trkpt lat="44.04325" lon="3.50926">
        <ele>1303.9</ele>
        <time>2026-05-28T12:06:49.999Z</time>
      </trkpt>
      <trkpt lat="44.04325" lon="3.50926">
        <ele>1303.8</ele>
        <time>2026-05-28T12:06:50.999Z</time>
      </trkpt>
      <trkpt lat="44.04325" lon="3.50926">
        <ele>1303.8</ele>
        <time>2026-05-28T12:06:51.999Z</time>
      </trkpt>
      <trkpt lat="44.04325" lon="3.50926">
        <ele>1303.7</ele>
        <time>2026-05-28T12:06:52.999Z</time>
      </trkpt>
      <trkpt lat="44.04325" lon="3.50926">
        <ele>1303.9</ele>
        <time>2026-05-28T12:06:53.999Z</time>
      </trkpt>
      <trkpt lat="44.04325" lon="3.50926">
        <ele>1304.3</ele>
        <time>2026-05-28T12:06:54.999Z</time>
      </trkpt>
      <trkpt lat="44.04325" lon="3.50927">
        <ele>1304.3</ele>
        <time>2026-05-28T12:06:55.999Z</time>
      </trkpt>
      <trkpt lat="44.04325" lon="3.50926">
        <ele>1304.4</ele>
        <time>2026-05-28T12:06:56.999Z</time>
      </trkpt>
      <trkpt lat="44.04325" lon="3.50927">
        <ele>1304.3</ele>
        <time>2026-05-28T12:06:57.999Z</time>
      </trkpt>
      <trkpt lat="44.04325" lon="3.50927">
        <ele>1304.3</ele>
        <time>2026-05-28T12:06:58.999Z</time>
      </trkpt>
      <trkpt lat="44.04325" lon="3.50927">
        <ele>1304.2</ele>
        <time>2026-05-28T12:06:59.999Z</time>
      </trkpt>
      <trkpt lat="44.04325" lon="3.50927">
        <ele>1303.9</ele>
        <time>2026-05-28T12:07:00.999Z</time>
      </trkpt>
      <trkpt lat="44.04325" lon="3.50927">
        <ele>1303.6</ele>
        <time>2026-05-28T12:07:01.999Z</time>
      </trkpt>
      <trkpt lat="44.04325" lon="3.50927">
        <ele>1303.4</ele>
        <time>2026-05-28T12:07:02.999Z</time>
      </trkpt>
      <trkpt lat="44.04325" lon="3.50927">
        <ele>1303.3</ele>
        <time>2026-05-28T12:07:03.999Z</time>
      </trkpt>
      <trkpt lat="44.04325" lon="3.50927">
        <ele>1303.1</ele>
        <time>2026-05-28T12:07:04.999Z</time>
      </trkpt>
      <trkpt lat="44.04325" lon="3.50927">
        <ele>1303</ele>
        <time>2026-05-28T12:07:05.999Z</time>
      </trkpt>
      <trkpt lat="44.04325" lon="3.50926">
        <ele>1303</ele>
        <time>2026-05-28T12:07:06.999Z</time>
      </trkpt>
      <trkpt lat="44.04325" lon="3.50926">
        <ele>1303.1</ele>
        <time>2026-05-28T12:07:07.999Z</time>
      </trkpt>
      <trkpt lat="44.04325" lon="3.50926">
        <ele>1302.9</ele>
        <time>2026-05-28T12:07:08.999Z</time>
      </trkpt>
      <trkpt lat="44.04325" lon="3.50926">
        <ele>1302.7</ele>
        <time>2026-05-28T12:07:09.999Z</time>
      </trkpt>
      <trkpt lat="44.04325" lon="3.50926">
        <ele>1302.3</ele>
        <time>2026-05-28T12:07:10.999Z</time>
      </trkpt>
      <trkpt lat="44.04324" lon="3.50927">
        <ele>1302.4</ele>
        <time>2026-05-28T12:07:11.999Z</time>
      </trkpt>
      <trkpt lat="44.04324" lon="3.50927">
        <ele>1302.3</ele>
        <time>2026-05-28T12:07:12.999Z</time>
      </trkpt>
      <trkpt lat="44.04324" lon="3.50927">
        <ele>1302.1</ele>
        <time>2026-05-28T12:07:13.999Z</time>
      </trkpt>
      <trkpt lat="44.04324" lon="3.50927">
        <ele>1302.1</ele>
        <time>2026-05-28T12:07:14.999Z</time>
      </trkpt>
      <trkpt lat="44.04324" lon="3.50927">
        <ele>1302.1</ele>
        <time>2026-05-28T12:07:15.999Z</time>
      </trkpt>
      <trkpt lat="44.04324" lon="3.50927">
        <ele>1302.4</ele>
        <time>2026-05-28T12:07:16.999Z</time>
      </trkpt>
      <trkpt lat="44.04324" lon="3.50927">
        <ele>1302.7</ele>
        <time>2026-05-28T12:07:17.999Z</time>
      </trkpt>
      <trkpt lat="44.04324" lon="3.50927">
        <ele>1302.8</ele>
        <time>2026-05-28T12:07:18.999Z</time>
      </trkpt>
      <trkpt lat="44.04324" lon="3.50927">
        <ele>1302.8</ele>
        <time>2026-05-28T12:07:19.999Z</time>
      </trkpt>
      <trkpt lat="44.04324" lon="3.50927">
        <ele>1303</ele>
        <time>2026-05-28T12:07:20.999Z</time>
      </trkpt>
      <trkpt lat="44.04324" lon="3.50927">
        <ele>1303.4</ele>
        <time>2026-05-28T12:07:21.999Z</time>
      </trkpt>
      <trkpt lat="44.04324" lon="3.50927">
        <ele>1303.7</ele>
        <time>2026-05-28T12:07:22.999Z</time>
      </trkpt>
      <trkpt lat="44.04324" lon="3.50928">
        <ele>1303.6</ele>
        <time>2026-05-28T12:07:23.999Z</time>
      </trkpt>
      <trkpt lat="44.04324" lon="3.50928">
        <ele>1303.8</ele>
        <time>2026-05-28T12:07:24.999Z</time>
      </trkpt>
      <trkpt lat="44.04324" lon="3.50928">
        <ele>1303.7</ele>
        <time>2026-05-28T12:07:25.999Z</time>
      </trkpt>
      <trkpt lat="44.04323" lon="3.50928">
        <ele>1303.7</ele>
        <time>2026-05-28T12:07:26.999Z</time>
      </trkpt>
      <trkpt lat="44.04323" lon="3.50928">
        <ele>1303.7</ele>
        <time>2026-05-28T12:07:27.999Z</time>
      </trkpt>
      <trkpt lat="44.04323" lon="3.50929">
        <ele>1303.7</ele>
        <time>2026-05-28T12:07:28.999Z</time>
      </trkpt>
      <trkpt lat="44.04323" lon="3.50929">
        <ele>1303.5</ele>
        <time>2026-05-28T12:07:29.999Z</time>
      </trkpt>
      <trkpt lat="44.04323" lon="3.50929">
        <ele>1303.6</ele>
        <time>2026-05-28T12:07:30.999Z</time>
      </trkpt>
      <trkpt lat="44.04324" lon="3.50929">
        <ele>1303.5</ele>
        <time>2026-05-28T12:07:31.999Z</time>
      </trkpt>
      <trkpt lat="44.04323" lon="3.50929">
        <ele>1303.7</ele>
        <time>2026-05-28T12:07:32.999Z</time>
      </trkpt>
      <trkpt lat="44.04323" lon="3.50929">
        <ele>1303.8</ele>
        <time>2026-05-28T12:07:33.999Z</time>
      </trkpt>
      <trkpt lat="44.04324" lon="3.50929">
        <ele>1304.1</ele>
        <time>2026-05-28T12:07:34.999Z</time>
      </trkpt>
      <trkpt lat="44.04324" lon="3.50929">
        <ele>1304.2</ele>
        <time>2026-05-28T12:07:35.999Z</time>
      </trkpt>
      <trkpt lat="44.04324" lon="3.50928">
        <ele>1304.2</ele>
        <time>2026-05-28T12:07:36.999Z</time>
      </trkpt>
      <trkpt lat="44.04324" lon="3.50927">
        <ele>1304.1</ele>
        <time>2026-05-28T12:07:37.999Z</time>
      </trkpt>
      <trkpt lat="44.04324" lon="3.50926">
        <ele>1304</ele>
        <time>2026-05-28T12:07:38.999Z</time>
      </trkpt>
      <trkpt lat="44.04324" lon="3.50926">
        <ele>1303.9</ele>
        <time>2026-05-28T12:07:39.999Z</time>
      </trkpt>
      <trkpt lat="44.04324" lon="3.50926">
        <ele>1303.9</ele>
        <time>2026-05-28T12:07:40.999Z</time>
      </trkpt>
      <trkpt lat="44.04323" lon="3.50926">
        <ele>1303.9</ele>
        <time>2026-05-28T12:07:41.999Z</time>
      </trkpt>
      <trkpt lat="44.04323" lon="3.50926">
        <ele>1303.8</ele>
        <time>2026-05-28T12:07:42.999Z</time>
      </trkpt>
      <trkpt lat="44.04323" lon="3.50926">
        <ele>1303.9</ele>
        <time>2026-05-28T12:07:43.999Z</time>
      </trkpt>
      <trkpt lat="44.04323" lon="3.50926">
        <ele>1304</ele>
        <time>2026-05-28T12:07:44.999Z</time>
      </trkpt>
      <trkpt lat="44.04323" lon="3.50926">
        <ele>1304</ele>
        <time>2026-05-28T12:07:45.999Z</time>
      </trkpt>
      <trkpt lat="44.04323" lon="3.50927">
        <ele>1304.1</ele>
        <time>2026-05-28T12:07:46.999Z</time>
      </trkpt>
      <trkpt lat="44.04323" lon="3.50927">
        <ele>1304.4</ele>
        <time>2026-05-28T12:07:47.999Z</time>
      </trkpt>
      <trkpt lat="44.04323" lon="3.50927">
        <ele>1304.6</ele>
        <time>2026-05-28T12:07:48.999Z</time>
      </trkpt>
      <trkpt lat="44.04323" lon="3.50927">
        <ele>1304.7</ele>
        <time>2026-05-28T12:07:49.999Z</time>
      </trkpt>
      <trkpt lat="44.04323" lon="3.50927">
        <ele>1305.4</ele>
        <time>2026-05-28T12:07:50.999Z</time>
      </trkpt>
      <trkpt lat="44.04324" lon="3.50927">
        <ele>1305.7</ele>
        <time>2026-05-28T12:07:51.999Z</time>
      </trkpt>
      <trkpt lat="44.04323" lon="3.50927">
        <ele>1305.9</ele>
        <time>2026-05-28T12:07:52.999Z</time>
      </trkpt>
      <trkpt lat="44.04324" lon="3.50927">
        <ele>1305.9</ele>
        <time>2026-05-28T12:07:53.999Z</time>
      </trkpt>
      <trkpt lat="44.04324" lon="3.50927">
        <ele>1305.7</ele>
        <time>2026-05-28T12:07:54.999Z</time>
      </trkpt>
      <trkpt lat="44.04324" lon="3.50928">
        <ele>1305.4</ele>
        <time>2026-05-28T12:07:55.999Z</time>
      </trkpt>
      <trkpt lat="44.04324" lon="3.50929">
        <ele>1305.1</ele>
        <time>2026-05-28T12:07:56.999Z</time>
      </trkpt>
      <trkpt lat="44.04324" lon="3.5093">
        <ele>1305</ele>
        <time>2026-05-28T12:07:57.999Z</time>
      </trkpt>
      <trkpt lat="44.04325" lon="3.5093">
        <ele>1304.9</ele>
        <time>2026-05-28T12:07:58.999Z</time>
      </trkpt>
      <trkpt lat="44.04325" lon="3.5093">
        <ele>1304.8</ele>
        <time>2026-05-28T12:07:59.999Z</time>
      </trkpt>
      <trkpt lat="44.04325" lon="3.5093">
        <ele>1304.9</ele>
        <time>2026-05-28T12:08:01.000Z</time>
      </trkpt>
      <trkpt lat="44.04325" lon="3.50931">
        <ele>1305.6</ele>
        <time>2026-05-28T12:08:02.000Z</time>
      </trkpt>
      <trkpt lat="44.04325" lon="3.50931">
        <ele>1306</ele>
        <time>2026-05-28T12:08:03.000Z</time>
      </trkpt>
      <trkpt lat="44.04325" lon="3.50932">
        <ele>1306.1</ele>
        <time>2026-05-28T12:08:04.000Z</time>
      </trkpt>
      <trkpt lat="44.04324" lon="3.50931">
        <ele>1306.3</ele>
        <time>2026-05-28T12:08:05.000Z</time>
      </trkpt>
      <trkpt lat="44.04324" lon="3.50931">
        <ele>1306.4</ele>
        <time>2026-05-28T12:08:06.000Z</time>
      </trkpt>
      <trkpt lat="44.04324" lon="3.50931">
        <ele>1306.5</ele>
        <time>2026-05-28T12:08:07.000Z</time>
      </trkpt>
      <trkpt lat="44.04324" lon="3.50931">
        <ele>1306.8</ele>
        <time>2026-05-28T12:08:08.000Z</time>
      </trkpt>
      <trkpt lat="44.04324" lon="3.50931">
        <ele>1307.4</ele>
        <time>2026-05-28T12:08:09.000Z</time>
      </trkpt>
      <trkpt lat="44.04324" lon="3.50931">
        <ele>1307.6</ele>
        <time>2026-05-28T12:08:10.000Z</time>
      </trkpt>
      <trkpt lat="44.04324" lon="3.50931">
        <ele>1307.7</ele>
        <time>2026-05-28T12:08:11.000Z</time>
      </trkpt>
      <trkpt lat="44.04324" lon="3.50931">
        <ele>1307.8</ele>
        <time>2026-05-28T12:08:12.000Z</time>
      </trkpt>
      <trkpt lat="44.04324" lon="3.50931">
        <ele>1307.7</ele>
        <time>2026-05-28T12:08:13.000Z</time>
      </trkpt>
      <trkpt lat="44.04324" lon="3.50931">
        <ele>1307.5</ele>
        <time>2026-05-28T12:08:14.000Z</time>
      </trkpt>
      <trkpt lat="44.04324" lon="3.50931">
        <ele>1307.3</ele>
        <time>2026-05-28T12:08:15.000Z</time>
      </trkpt>
      <trkpt lat="44.04324" lon="3.50931">
        <ele>1307.5</ele>
        <time>2026-05-28T12:08:16.000Z</time>
      </trkpt>
      <trkpt lat="44.04325" lon="3.50931">
        <ele>1307.3</ele>
        <time>2026-05-28T12:08:17.000Z</time>
      </trkpt>
      <trkpt lat="44.04325" lon="3.50931">
        <ele>1307.6</ele>
        <time>2026-05-28T12:08:18.000Z</time>
      </trkpt>
      <trkpt lat="44.04325" lon="3.50931">
        <ele>1307.9</ele>
        <time>2026-05-28T12:08:19.000Z</time>
      </trkpt>
      <trkpt lat="44.04325" lon="3.50931">
        <ele>1308.5</ele>
        <time>2026-05-28T12:08:20.000Z</time>
      </trkpt>
      <trkpt lat="44.04325" lon="3.50931">
        <ele>1309</ele>
        <time>2026-05-28T12:08:21.000Z</time>
      </trkpt>
      <trkpt lat="44.04325" lon="3.50931">
        <ele>1309.1</ele>
        <time>2026-05-28T12:08:22.000Z</time>
      </trkpt>
      <trkpt lat="44.04324" lon="3.50931">
        <ele>1308.7</ele>
        <time>2026-05-28T12:08:23.000Z</time>
      </trkpt>
      <trkpt lat="44.04324" lon="3.50931">
        <ele>1308.1</ele>
        <time>2026-05-28T12:08:24.000Z</time>
      </trkpt>
      <trkpt lat="44.04324" lon="3.50931">
        <ele>1308.6</ele>
        <time>2026-05-28T12:08:25.000Z</time>
      </trkpt>
      <trkpt lat="44.04324" lon="3.5093">
        <ele>1308.8</ele>
        <time>2026-05-28T12:08:26.000Z</time>
      </trkpt>
      <trkpt lat="44.04324" lon="3.5093">
        <ele>1308.7</ele>
        <time>2026-05-28T12:08:27.000Z</time>
      </trkpt>
      <trkpt lat="44.04324" lon="3.5093">
        <ele>1308.7</ele>
        <time>2026-05-28T12:08:28.000Z</time>
      </trkpt>
      <trkpt lat="44.04324" lon="3.50929">
        <ele>1308.7</ele>
        <time>2026-05-28T12:08:29.000Z</time>
      </trkpt>
      <trkpt lat="44.04324" lon="3.50929">
        <ele>1308.6</ele>
        <time>2026-05-28T12:08:30.000Z</time>
      </trkpt>
      <trkpt lat="44.04323" lon="3.50928">
        <ele>1308.6</ele>
        <time>2026-05-28T12:08:31.000Z</time>
      </trkpt>
      <trkpt lat="44.04323" lon="3.50928">
        <ele>1308.2</ele>
        <time>2026-05-28T12:08:32.000Z</time>
      </trkpt>
      <trkpt lat="44.04322" lon="3.50928">
        <ele>1307.9</ele>
        <time>2026-05-28T12:08:33.000Z</time>
      </trkpt>
      <trkpt lat="44.04322" lon="3.50928">
        <ele>1307.6</ele>
        <time>2026-05-28T12:08:34.000Z</time>
      </trkpt>
      <trkpt lat="44.04322" lon="3.50927">
        <ele>1307.7</ele>
        <time>2026-05-28T12:08:35.000Z</time>
      </trkpt>
      <trkpt lat="44.04322" lon="3.50927">
        <ele>1307.3</ele>
        <time>2026-05-28T12:08:36.000Z</time>
      </trkpt>
      <trkpt lat="44.04322" lon="3.50927">
        <ele>1306.9</ele>
        <time>2026-05-28T12:08:37.000Z</time>
      </trkpt>
      <trkpt lat="44.04322" lon="3.50926">
        <ele>1307.1</ele>
        <time>2026-05-28T12:08:38.000Z</time>
      </trkpt>
      <trkpt lat="44.04322" lon="3.50927">
        <ele>1307.2</ele>
        <time>2026-05-28T12:08:39.000Z</time>
      </trkpt>
      <trkpt lat="44.04322" lon="3.50927">
        <ele>1307.3</ele>
        <time>2026-05-28T12:08:40.000Z</time>
      </trkpt>
      <trkpt lat="44.04322" lon="3.50927">
        <ele>1307.7</ele>
        <time>2026-05-28T12:08:41.000Z</time>
      </trkpt>
      <trkpt lat="44.04322" lon="3.50927">
        <ele>1308.1</ele>
        <time>2026-05-28T12:08:42.000Z</time>
      </trkpt>
      <trkpt lat="44.04323" lon="3.50927">
        <ele>1308.2</ele>
        <time>2026-05-28T12:08:43.000Z</time>
      </trkpt>
      <trkpt lat="44.04323" lon="3.50927">
        <ele>1308.4</ele>
        <time>2026-05-28T12:08:44.000Z</time>
      </trkpt>
      <trkpt lat="44.04323" lon="3.50927">
        <ele>1308.6</ele>
        <time>2026-05-28T12:08:45.000Z</time>
      </trkpt>
      <trkpt lat="44.04323" lon="3.50926">
        <ele>1309</ele>
        <time>2026-05-28T12:08:46.000Z</time>
      </trkpt>
      <trkpt lat="44.04323" lon="3.50926">
        <ele>1309.5</ele>
        <time>2026-05-28T12:08:47.000Z</time>
      </trkpt>
      <trkpt lat="44.04323" lon="3.50927">
        <ele>1310.2</ele>
        <time>2026-05-28T12:08:48.000Z</time>
      </trkpt>
      <trkpt lat="44.04323" lon="3.50927">
        <ele>1310.4</ele>
        <time>2026-05-28T12:08:49.000Z</time>
      </trkpt>
      <trkpt lat="44.04323" lon="3.50927">
        <ele>1310.8</ele>
        <time>2026-05-28T12:08:50.000Z</time>
      </trkpt>
      <trkpt lat="44.04323" lon="3.50926">
        <ele>1311</ele>
        <time>2026-05-28T12:08:51.000Z</time>
      </trkpt>
      <trkpt lat="44.04323" lon="3.50926">
        <ele>1311.3</ele>
        <time>2026-05-28T12:08:52.000Z</time>
      </trkpt>
      <trkpt lat="44.04323" lon="3.50926">
        <ele>1311.7</ele>
        <time>2026-05-28T12:08:53.000Z</time>
      </trkpt>
      <trkpt lat="44.04323" lon="3.50926">
        <ele>1312.2</ele>
        <time>2026-05-28T12:08:54.000Z</time>
      </trkpt>
      <trkpt lat="44.04323" lon="3.50925">
        <ele>1312.4</ele>
        <time>2026-05-28T12:08:55.000Z</time>
      </trkpt>
      <trkpt lat="44.04323" lon="3.50925">
        <ele>1312.3</ele>
        <time>2026-05-28T12:08:56.000Z</time>
      </trkpt>
      <trkpt lat="44.04323" lon="3.50925">
        <ele>1312.1</ele>
        <time>2026-05-28T12:08:57.000Z</time>
      </trkpt>
      <trkpt lat="44.04323" lon="3.50925">
        <ele>1312</ele>
        <time>2026-05-28T12:08:58.000Z</time>
      </trkpt>
      <trkpt lat="44.04323" lon="3.50925">
        <ele>1311.8</ele>
        <time>2026-05-28T12:08:59.000Z</time>
      </trkpt>
      <trkpt lat="44.04323" lon="3.50925">
        <ele>1311.2</ele>
        <time>2026-05-28T12:09:00.000Z</time>
      </trkpt>
      <trkpt lat="44.04323" lon="3.50925">
        <ele>1311</ele>
        <time>2026-05-28T12:09:01.000Z</time>
      </trkpt>
      <trkpt lat="44.04323" lon="3.50925">
        <ele>1311.3</ele>
        <time>2026-05-28T12:09:02.000Z</time>
      </trkpt>
      <trkpt lat="44.04323" lon="3.50925">
        <ele>1311.4</ele>
        <time>2026-05-28T12:09:03.000Z</time>
      </trkpt>
      <trkpt lat="44.04323" lon="3.50925">
        <ele>1311.4</ele>
        <time>2026-05-28T12:09:04.000Z</time>
      </trkpt>
      <trkpt lat="44.04323" lon="3.50925">
        <ele>1311.4</ele>
        <time>2026-05-28T12:09:05.000Z</time>
      </trkpt>
      <trkpt lat="44.04323" lon="3.50924">
        <ele>1311.4</ele>
        <time>2026-05-28T12:09:06.000Z</time>
      </trkpt>
      <trkpt lat="44.04323" lon="3.50924">
        <ele>1311.5</ele>
        <time>2026-05-28T12:09:07.000Z</time>
      </trkpt>
      <trkpt lat="44.04322" lon="3.50923">
        <ele>1311.5</ele>
        <time>2026-05-28T12:09:08.000Z</time>
      </trkpt>
      <trkpt lat="44.04321" lon="3.50923">
        <ele>1311.5</ele>
        <time>2026-05-28T12:09:09.000Z</time>
      </trkpt>
      <trkpt lat="44.04321" lon="3.50922">
        <ele>1311.3</ele>
        <time>2026-05-28T12:09:10.000Z</time>
      </trkpt>
      <trkpt lat="44.0432" lon="3.50921">
        <ele>1311.1</ele>
        <time>2026-05-28T12:09:11.000Z</time>
      </trkpt>
      <trkpt lat="44.0432" lon="3.50921">
        <ele>1310.9</ele>
        <time>2026-05-28T12:09:12.000Z</time>
      </trkpt>
      <trkpt lat="44.0432" lon="3.50921">
        <ele>1310.9</ele>
        <time>2026-05-28T12:09:13.000Z</time>
      </trkpt>
      <trkpt lat="44.0432" lon="3.50921">
        <ele>1310.9</ele>
        <time>2026-05-28T12:09:14.000Z</time>
      </trkpt>
      <trkpt lat="44.0432" lon="3.50921">
        <ele>1310.9</ele>
        <time>2026-05-28T12:09:15.000Z</time>
      </trkpt>
      <trkpt lat="44.0432" lon="3.50921">
        <ele>1310.9</ele>
        <time>2026-05-28T12:09:16.000Z</time>
      </trkpt>
      <trkpt lat="44.0432" lon="3.50921">
        <ele>1310.9</ele>
        <time>2026-05-28T12:09:17.000Z</time>
      </trkpt>
      <trkpt lat="44.0432" lon="3.50921">
        <ele>1310.9</ele>
        <time>2026-05-28T12:09:18.000Z</time>
      </trkpt>
      <trkpt lat="44.0432" lon="3.50921">
        <ele>1311</ele>
        <time>2026-05-28T12:09:19.000Z</time>
      </trkpt>
      <trkpt lat="44.0432" lon="3.50921">
        <ele>1311.1</ele>
        <time>2026-05-28T12:09:20.000Z</time>
      </trkpt>
      <trkpt lat="44.0432" lon="3.50921">
        <ele>1311.1</ele>
        <time>2026-05-28T12:09:21.000Z</time>
      </trkpt>
      <trkpt lat="44.0432" lon="3.50922">
        <ele>1310.9</ele>
        <time>2026-05-28T12:09:22.000Z</time>
      </trkpt>
      <trkpt lat="44.04321" lon="3.50923">
        <ele>1310.9</ele>
        <time>2026-05-28T12:09:23.000Z</time>
      </trkpt>
      <trkpt lat="44.0432" lon="3.50923">
        <ele>1311.2</ele>
        <time>2026-05-28T12:09:24.000Z</time>
      </trkpt>
      <trkpt lat="44.0432" lon="3.50924">
        <ele>1311.4</ele>
        <time>2026-05-28T12:09:25.000Z</time>
      </trkpt>
      <trkpt lat="44.0432" lon="3.50924">
        <ele>1311.7</ele>
        <time>2026-05-28T12:09:26.000Z</time>
      </trkpt>
      <trkpt lat="44.0432" lon="3.50924">
        <ele>1311.7</ele>
        <time>2026-05-28T12:09:27.000Z</time>
      </trkpt>
      <trkpt lat="44.0432" lon="3.50924">
        <ele>1311.7</ele>
        <time>2026-05-28T12:09:28.000Z</time>
      </trkpt>
      <trkpt lat="44.04319" lon="3.50923">
        <ele>1312.1</ele>
        <time>2026-05-28T12:09:29.000Z</time>
      </trkpt>
      <trkpt lat="44.04319" lon="3.50924">
        <ele>1312.5</ele>
        <time>2026-05-28T12:09:30.000Z</time>
      </trkpt>
      <trkpt lat="44.04319" lon="3.50924">
        <ele>1312.4</ele>
        <time>2026-05-28T12:09:31.000Z</time>
      </trkpt>
      <trkpt lat="44.04318" lon="3.50924">
        <ele>1312.1</ele>
        <time>2026-05-28T12:09:32.000Z</time>
      </trkpt>
      <trkpt lat="44.04319" lon="3.50925">
        <ele>1311.8</ele>
        <time>2026-05-28T12:09:33.000Z</time>
      </trkpt>
      <trkpt lat="44.04319" lon="3.50925">
        <ele>1311.6</ele>
        <time>2026-05-28T12:09:34.000Z</time>
      </trkpt>
      <trkpt lat="44.04319" lon="3.50926">
        <ele>1311.5</ele>
        <time>2026-05-28T12:09:35.000Z</time>
      </trkpt>
      <trkpt lat="44.0432" lon="3.50925">
        <ele>1311.2</ele>
        <time>2026-05-28T12:09:36.000Z</time>
      </trkpt>
      <trkpt lat="44.04321" lon="3.50924">
        <ele>1311.1</ele>
        <time>2026-05-28T12:09:37.000Z</time>
      </trkpt>
      <trkpt lat="44.04321" lon="3.50925">
        <ele>1311</ele>
        <time>2026-05-28T12:09:38.000Z</time>
      </trkpt>
      <trkpt lat="44.04322" lon="3.50924">
        <ele>1311.1</ele>
        <time>2026-05-28T12:09:39.000Z</time>
      </trkpt>
      <trkpt lat="44.04322" lon="3.50925">
        <ele>1311.2</ele>
        <time>2026-05-28T12:09:40.000Z</time>
      </trkpt>
      <trkpt lat="44.04322" lon="3.50925">
        <ele>1311</ele>
        <time>2026-05-28T12:09:41.000Z</time>
      </trkpt>
      <trkpt lat="44.04322" lon="3.50925">
        <ele>1310.9</ele>
        <time>2026-05-28T12:09:42.000Z</time>
      </trkpt>
      <trkpt lat="44.04322" lon="3.50925">
        <ele>1311.1</ele>
        <time>2026-05-28T12:09:43.000Z</time>
      </trkpt>
      <trkpt lat="44.04322" lon="3.50925">
        <ele>1310.8</ele>
        <time>2026-05-28T12:09:44.000Z</time>
      </trkpt>
      <trkpt lat="44.04322" lon="3.50924">
        <ele>1310.6</ele>
        <time>2026-05-28T12:09:45.000Z</time>
      </trkpt>
      <trkpt lat="44.04322" lon="3.50924">
        <ele>1310.7</ele>
        <time>2026-05-28T12:09:46.000Z</time>
      </trkpt>
      <trkpt lat="44.04322" lon="3.50924">
        <ele>1310.9</ele>
        <time>2026-05-28T12:09:47.000Z</time>
      </trkpt>
      <trkpt lat="44.04322" lon="3.50924">
        <ele>1310.9</ele>
        <time>2026-05-28T12:09:48.000Z</time>
      </trkpt>
      <trkpt lat="44.04322" lon="3.50924">
        <ele>1311.2</ele>
        <time>2026-05-28T12:09:49.000Z</time>
      </trkpt>
      <trkpt lat="44.04322" lon="3.50924">
        <ele>1311.3</ele>
        <time>2026-05-28T12:09:50.000Z</time>
      </trkpt>
      <trkpt lat="44.04322" lon="3.50924">
        <ele>1311.6</ele>
        <time>2026-05-28T12:09:51.000Z</time>
      </trkpt>
      <trkpt lat="44.04322" lon="3.50924">
        <ele>1311.7</ele>
        <time>2026-05-28T12:09:52.000Z</time>
      </trkpt>
      <trkpt lat="44.04322" lon="3.50924">
        <ele>1311.7</ele>
        <time>2026-05-28T12:09:53.000Z</time>
      </trkpt>
      <trkpt lat="44.04322" lon="3.50924">
        <ele>1311.7</ele>
        <time>2026-05-28T12:09:54.000Z</time>
      </trkpt>
      <trkpt lat="44.04322" lon="3.50924">
        <ele>1311.7</ele>
        <time>2026-05-28T12:09:55.000Z</time>
      </trkpt>
      <trkpt lat="44.04322" lon="3.50924">
        <ele>1311.8</ele>
        <time>2026-05-28T12:09:56.000Z</time>
      </trkpt>
      <trkpt lat="44.04322" lon="3.50924">
        <ele>1311.7</ele>
        <time>2026-05-28T12:09:57.000Z</time>
      </trkpt>
      <trkpt lat="44.04322" lon="3.50923">
        <ele>1311.6</ele>
        <time>2026-05-28T12:09:58.000Z</time>
      </trkpt>
      <trkpt lat="44.04321" lon="3.50923">
        <ele>1311.5</ele>
        <time>2026-05-28T12:09:59.000Z</time>
      </trkpt>
      <trkpt lat="44.04321" lon="3.50923">
        <ele>1311.4</ele>
        <time>2026-05-28T12:10:00.000Z</time>
      </trkpt>
      <trkpt lat="44.04321" lon="3.50923">
        <ele>1311.3</ele>
        <time>2026-05-28T12:10:01.000Z</time>
      </trkpt>
      <trkpt lat="44.04321" lon="3.50923">
        <ele>1311.4</ele>
        <time>2026-05-28T12:10:02.000Z</time>
      </trkpt>
      <trkpt lat="44.04321" lon="3.50922">
        <ele>1311.7</ele>
        <time>2026-05-28T12:10:03.000Z</time>
      </trkpt>
      <trkpt lat="44.04321" lon="3.50921">
        <ele>1311.9</ele>
        <time>2026-05-28T12:10:04.000Z</time>
      </trkpt>
      <trkpt lat="44.04321" lon="3.50921">
        <ele>1312.3</ele>
        <time>2026-05-28T12:10:05.000Z</time>
      </trkpt>
      <trkpt lat="44.04321" lon="3.50921">
        <ele>1312.6</ele>
        <time>2026-05-28T12:10:06.000Z</time>
      </trkpt>
      <trkpt lat="44.04321" lon="3.50921">
        <ele>1312.7</ele>
        <time>2026-05-28T12:10:07.000Z</time>
      </trkpt>
      <trkpt lat="44.04321" lon="3.50921">
        <ele>1312.5</ele>
        <time>2026-05-28T12:10:08.000Z</time>
      </trkpt>
      <trkpt lat="44.04321" lon="3.50921">
        <ele>1312.4</ele>
        <time>2026-05-28T12:10:09.000Z</time>
      </trkpt>
      <trkpt lat="44.04321" lon="3.50921">
        <ele>1312.3</ele>
        <time>2026-05-28T12:10:10.000Z</time>
      </trkpt>
      <trkpt lat="44.0432" lon="3.50921">
        <ele>1312.4</ele>
        <time>2026-05-28T12:10:11.000Z</time>
      </trkpt>
      <trkpt lat="44.0432" lon="3.5092">
        <ele>1312.4</ele>
        <time>2026-05-28T12:10:12.000Z</time>
      </trkpt>
      <trkpt lat="44.0432" lon="3.5092">
        <ele>1312.3</ele>
        <time>2026-05-28T12:10:13.000Z</time>
      </trkpt>
      <trkpt lat="44.0432" lon="3.5092">
        <ele>1312.2</ele>
        <time>2026-05-28T12:10:14.000Z</time>
      </trkpt>
      <trkpt lat="44.0432" lon="3.5092">
        <ele>1312.1</ele>
        <time>2026-05-28T12:10:15.000Z</time>
      </trkpt>
      <trkpt lat="44.0432" lon="3.5092">
        <ele>1312.1</ele>
        <time>2026-05-28T12:10:16.000Z</time>
      </trkpt>
      <trkpt lat="44.0432" lon="3.5092">
        <ele>1312.2</ele>
        <time>2026-05-28T12:10:17.000Z</time>
      </trkpt>
      <trkpt lat="44.0432" lon="3.5092">
        <ele>1312.3</ele>
        <time>2026-05-28T12:10:18.000Z</time>
      </trkpt>
      <trkpt lat="44.0432" lon="3.50921">
        <ele>1312.3</ele>
        <time>2026-05-28T12:10:19.000Z</time>
      </trkpt>
      <trkpt lat="44.0432" lon="3.50921">
        <ele>1312.4</ele>
        <time>2026-05-28T12:10:20.000Z</time>
      </trkpt>
      <trkpt lat="44.0432" lon="3.50921">
        <ele>1312.3</ele>
        <time>2026-05-28T12:10:21.000Z</time>
      </trkpt>
      <trkpt lat="44.0432" lon="3.50921">
        <ele>1312.2</ele>
        <time>2026-05-28T12:10:22.000Z</time>
      </trkpt>
      <trkpt lat="44.0432" lon="3.50921">
        <ele>1311.7</ele>
        <time>2026-05-28T12:10:23.000Z</time>
      </trkpt>
      <trkpt lat="44.0432" lon="3.50921">
        <ele>1311.6</ele>
        <time>2026-05-28T12:10:24.000Z</time>
      </trkpt>
      <trkpt lat="44.0432" lon="3.50921">
        <ele>1311.5</ele>
        <time>2026-05-28T12:10:25.000Z</time>
      </trkpt>
      <trkpt lat="44.0432" lon="3.50921">
        <ele>1311.2</ele>
        <time>2026-05-28T12:10:26.000Z</time>
      </trkpt>
      <trkpt lat="44.0432" lon="3.50922">
        <ele>1310.9</ele>
        <time>2026-05-28T12:10:27.000Z</time>
      </trkpt>
      <trkpt lat="44.0432" lon="3.50922">
        <ele>1310.8</ele>
        <time>2026-05-28T12:10:28.000Z</time>
      </trkpt>
      <trkpt lat="44.0432" lon="3.50922">
        <ele>1310.5</ele>
        <time>2026-05-28T12:10:29.000Z</time>
      </trkpt>
      <trkpt lat="44.0432" lon="3.50922">
        <ele>1310.3</ele>
        <time>2026-05-28T12:10:30.000Z</time>
      </trkpt>
      <trkpt lat="44.0432" lon="3.50922">
        <ele>1309.9</ele>
        <time>2026-05-28T12:10:31.000Z</time>
      </trkpt>
      <trkpt lat="44.0432" lon="3.50922">
        <ele>1309.7</ele>
        <time>2026-05-28T12:10:32.000Z</time>
      </trkpt>
      <trkpt lat="44.0432" lon="3.50922">
        <ele>1309.7</ele>
        <time>2026-05-28T12:10:33.000Z</time>
      </trkpt>
      <trkpt lat="44.0432" lon="3.50922">
        <ele>1309.8</ele>
        <time>2026-05-28T12:10:34.000Z</time>
      </trkpt>
      <trkpt lat="44.0432" lon="3.50922">
        <ele>1310.1</ele>
        <time>2026-05-28T12:10:35.000Z</time>
      </trkpt>
      <trkpt lat="44.0432" lon="3.50922">
        <ele>1310.2</ele>
        <time>2026-05-28T12:10:36.000Z</time>
      </trkpt>
      <trkpt lat="44.0432" lon="3.50923">
        <ele>1310.1</ele>
        <time>2026-05-28T12:10:37.000Z</time>
      </trkpt>
      <trkpt lat="44.0432" lon="3.50923">
        <ele>1310.3</ele>
        <time>2026-05-28T12:10:38.000Z</time>
      </trkpt>
      <trkpt lat="44.04321" lon="3.50923">
        <ele>1310.5</ele>
        <time>2026-05-28T12:10:39.000Z</time>
      </trkpt>
      <trkpt lat="44.04321" lon="3.50923">
        <ele>1310.8</ele>
        <time>2026-05-28T12:10:40.000Z</time>
      </trkpt>
      <trkpt lat="44.04321" lon="3.50923">
        <ele>1311</ele>
        <time>2026-05-28T12:10:41.000Z</time>
      </trkpt>
      <trkpt lat="44.04321" lon="3.50923">
        <ele>1310.9</ele>
        <time>2026-05-28T12:10:42.000Z</time>
      </trkpt>
      <trkpt lat="44.04321" lon="3.50923">
        <ele>1310.8</ele>
        <time>2026-05-28T12:10:43.000Z</time>
      </trkpt>
      <trkpt lat="44.04321" lon="3.50923">
        <ele>1310.9</ele>
        <time>2026-05-28T12:10:44.000Z</time>
      </trkpt>
      <trkpt lat="44.04321" lon="3.50923">
        <ele>1311.1</ele>
        <time>2026-05-28T12:10:45.000Z</time>
      </trkpt>
      <trkpt lat="44.04321" lon="3.50923">
        <ele>1311.4</ele>
        <time>2026-05-28T12:10:46.000Z</time>
      </trkpt>
      <trkpt lat="44.04321" lon="3.50923">
        <ele>1311.4</ele>
        <time>2026-05-28T12:10:47.000Z</time>
      </trkpt>
      <trkpt lat="44.04321" lon="3.50923">
        <ele>1311.5</ele>
        <time>2026-05-28T12:10:48.000Z</time>
      </trkpt>
      <trkpt lat="44.04321" lon="3.50923">
        <ele>1311.7</ele>
        <time>2026-05-28T12:10:49.000Z</time>
      </trkpt>
      <trkpt lat="44.04321" lon="3.50923">
        <ele>1311.7</ele>
        <time>2026-05-28T12:10:50.000Z</time>
      </trkpt>
      <trkpt lat="44.04321" lon="3.50923">
        <ele>1311.6</ele>
        <time>2026-05-28T12:10:51.000Z</time>
      </trkpt>
      <trkpt lat="44.04321" lon="3.50923">
        <ele>1311.5</ele>
        <time>2026-05-28T12:10:52.000Z</time>
      </trkpt>
      <trkpt lat="44.04321" lon="3.50923">
        <ele>1311.5</ele>
        <time>2026-05-28T12:10:53.000Z</time>
      </trkpt>
      <trkpt lat="44.04321" lon="3.50923">
        <ele>1311.6</ele>
        <time>2026-05-28T12:10:54.000Z</time>
      </trkpt>
      <trkpt lat="44.04321" lon="3.50923">
        <ele>1311.6</ele>
        <time>2026-05-28T12:10:55.000Z</time>
      </trkpt>
      <trkpt lat="44.04321" lon="3.50923">
        <ele>1311.5</ele>
        <time>2026-05-28T12:10:56.000Z</time>
      </trkpt>
      <trkpt lat="44.04321" lon="3.50923">
        <ele>1311.4</ele>
        <time>2026-05-28T12:10:57.000Z</time>
      </trkpt>
      <trkpt lat="44.04321" lon="3.50923">
        <ele>1311.1</ele>
        <time>2026-05-28T12:10:58.000Z</time>
      </trkpt>
      <trkpt lat="44.04321" lon="3.50923">
        <ele>1311.2</ele>
        <time>2026-05-28T12:10:59.000Z</time>
      </trkpt>
      <trkpt lat="44.04321" lon="3.50923">
        <ele>1311.1</ele>
        <time>2026-05-28T12:11:00.000Z</time>
      </trkpt>
      <trkpt lat="44.04321" lon="3.50923">
        <ele>1311.1</ele>
        <time>2026-05-28T12:11:01.000Z</time>
      </trkpt>
      <trkpt lat="44.04321" lon="3.50923">
        <ele>1311</ele>
        <time>2026-05-28T12:11:02.000Z</time>
      </trkpt>
      <trkpt lat="44.04321" lon="3.50923">
        <ele>1310.9</ele>
        <time>2026-05-28T12:11:03.000Z</time>
      </trkpt>
      <trkpt lat="44.04321" lon="3.50923">
        <ele>1310.6</ele>
        <time>2026-05-28T12:11:04.000Z</time>
      </trkpt>
      <trkpt lat="44.04321" lon="3.50923">
        <ele>1310.4</ele>
        <time>2026-05-28T12:11:05.000Z</time>
      </trkpt>
      <trkpt lat="44.04321" lon="3.50923">
        <ele>1310.2</ele>
        <time>2026-05-28T12:11:06.000Z</time>
      </trkpt>
      <trkpt lat="44.04321" lon="3.50923">
        <ele>1310</ele>
        <time>2026-05-28T12:11:07.000Z</time>
      </trkpt>
      <trkpt lat="44.04321" lon="3.50923">
        <ele>1310</ele>
        <time>2026-05-28T12:11:08.000Z</time>
      </trkpt>
      <trkpt lat="44.04321" lon="3.50924">
        <ele>1310</ele>
        <time>2026-05-28T12:11:09.000Z</time>
      </trkpt>
      <trkpt lat="44.04321" lon="3.50924">
        <ele>1309.9</ele>
        <time>2026-05-28T12:11:10.000Z</time>
      </trkpt>
      <trkpt lat="44.04321" lon="3.50925">
        <ele>1310.2</ele>
        <time>2026-05-28T12:11:11.000Z</time>
      </trkpt>
      <trkpt lat="44.04321" lon="3.50925">
        <ele>1310.4</ele>
        <time>2026-05-28T12:11:12.000Z</time>
      </trkpt>
      <trkpt lat="44.04322" lon="3.50925">
        <ele>1310.6</ele>
        <time>2026-05-28T12:11:13.000Z</time>
      </trkpt>
      <trkpt lat="44.04322" lon="3.50925">
        <ele>1310.6</ele>
        <time>2026-05-28T12:11:14.000Z</time>
      </trkpt>
      <trkpt lat="44.04322" lon="3.50925">
        <ele>1310.6</ele>
        <time>2026-05-28T12:11:15.000Z</time>
      </trkpt>
      <trkpt lat="44.04322" lon="3.50925">
        <ele>1310.7</ele>
        <time>2026-05-28T12:11:16.000Z</time>
      </trkpt>
      <trkpt lat="44.04322" lon="3.50925">
        <ele>1310.8</ele>
        <time>2026-05-28T12:11:17.000Z</time>
      </trkpt>
      <trkpt lat="44.04322" lon="3.50925">
        <ele>1310.9</ele>
        <time>2026-05-28T12:11:18.000Z</time>
      </trkpt>
      <trkpt lat="44.04322" lon="3.50925">
        <ele>1310.8</ele>
        <time>2026-05-28T12:11:19.000Z</time>
      </trkpt>
      <trkpt lat="44.04322" lon="3.50925">
        <ele>1310.5</ele>
        <time>2026-05-28T12:11:20.000Z</time>
      </trkpt>
      <trkpt lat="44.04322" lon="3.50925">
        <ele>1310.7</ele>
        <time>2026-05-28T12:11:21.000Z</time>
      </trkpt>
      <trkpt lat="44.04322" lon="3.50925">
        <ele>1310.7</ele>
        <time>2026-05-28T12:11:22.000Z</time>
      </trkpt>
      <trkpt lat="44.04322" lon="3.50925">
        <ele>1310.9</ele>
        <time>2026-05-28T12:11:23.000Z</time>
      </trkpt>
      <trkpt lat="44.04322" lon="3.50925">
        <ele>1311.2</ele>
        <time>2026-05-28T12:11:24.000Z</time>
      </trkpt>
      <trkpt lat="44.04322" lon="3.50925">
        <ele>1311.5</ele>
        <time>2026-05-28T12:11:25.000Z</time>
      </trkpt>
      <trkpt lat="44.04322" lon="3.50925">
        <ele>1311.7</ele>
        <time>2026-05-28T12:11:26.000Z</time>
      </trkpt>
      <trkpt lat="44.04322" lon="3.50925">
        <ele>1311.7</ele>
        <time>2026-05-28T12:11:27.000Z</time>
      </trkpt>
      <trkpt lat="44.04322" lon="3.50925">
        <ele>1311.8</ele>
        <time>2026-05-28T12:11:28.000Z</time>
      </trkpt>
      <trkpt lat="44.04322" lon="3.50925">
        <ele>1312</ele>
        <time>2026-05-28T12:11:29.000Z</time>
      </trkpt>
      <trkpt lat="44.04322" lon="3.50924">
        <ele>1311.8</ele>
        <time>2026-05-28T12:11:30.000Z</time>
      </trkpt>
      <trkpt lat="44.04322" lon="3.50924">
        <ele>1311.6</ele>
        <time>2026-05-28T12:11:31.000Z</time>
      </trkpt>
      <trkpt lat="44.04322" lon="3.50924">
        <ele>1311.5</ele>
        <time>2026-05-28T12:11:32.000Z</time>
      </trkpt>
      <trkpt lat="44.04322" lon="3.50924">
        <ele>1311.4</ele>
        <time>2026-05-28T12:11:33.000Z</time>
      </trkpt>
      <trkpt lat="44.04322" lon="3.50924">
        <ele>1311.5</ele>
        <time>2026-05-28T12:11:34.000Z</time>
      </trkpt>
      <trkpt lat="44.04322" lon="3.50924">
        <ele>1311.6</ele>
        <time>2026-05-28T12:11:35.000Z</time>
      </trkpt>
      <trkpt lat="44.04322" lon="3.50924">
        <ele>1311.7</ele>
        <time>2026-05-28T12:11:36.000Z</time>
      </trkpt>
      <trkpt lat="44.04322" lon="3.50924">
        <ele>1311.5</ele>
        <time>2026-05-28T12:11:37.000Z</time>
      </trkpt>
      <trkpt lat="44.04322" lon="3.50924">
        <ele>1311.4</ele>
        <time>2026-05-28T12:11:38.000Z</time>
      </trkpt>
      <trkpt lat="44.04322" lon="3.50924">
        <ele>1311.4</ele>
        <time>2026-05-28T12:11:39.000Z</time>
      </trkpt>
      <trkpt lat="44.04322" lon="3.50924">
        <ele>1311.4</ele>
        <time>2026-05-28T12:11:40.000Z</time>
      </trkpt>
      <trkpt lat="44.04322" lon="3.50924">
        <ele>1311.3</ele>
        <time>2026-05-28T12:11:41.000Z</time>
      </trkpt>
      <trkpt lat="44.04322" lon="3.50924">
        <ele>1311.1</ele>
        <time>2026-05-28T12:11:42.000Z</time>
      </trkpt>
      <trkpt lat="44.04322" lon="3.50924">
        <ele>1311</ele>
        <time>2026-05-28T12:11:43.000Z</time>
      </trkpt>
      <trkpt lat="44.04322" lon="3.50924">
        <ele>1310.9</ele>
        <time>2026-05-28T12:11:44.000Z</time>
      </trkpt>
      <trkpt lat="44.04322" lon="3.50924">
        <ele>1310.7</ele>
        <time>2026-05-28T12:11:45.000Z</time>
      </trkpt>
      <trkpt lat="44.04322" lon="3.50924">
        <ele>1310.4</ele>
        <time>2026-05-28T12:11:46.000Z</time>
      </trkpt>
      <trkpt lat="44.04322" lon="3.50924">
        <ele>1310.1</ele>
        <time>2026-05-28T12:11:47.000Z</time>
      </trkpt>
      <trkpt lat="44.04322" lon="3.50924">
        <ele>1309.6</ele>
        <time>2026-05-28T12:11:48.000Z</time>
      </trkpt>
      <trkpt lat="44.04322" lon="3.50924">
        <ele>1309.6</ele>
        <time>2026-05-28T12:11:49.000Z</time>
      </trkpt>
      <trkpt lat="44.04322" lon="3.50924">
        <ele>1309.3</ele>
        <time>2026-05-28T12:11:50.000Z</time>
      </trkpt>
      <trkpt lat="44.04322" lon="3.50924">
        <ele>1309</ele>
        <time>2026-05-28T12:11:51.000Z</time>
      </trkpt>
      <trkpt lat="44.04322" lon="3.50925">
        <ele>1308.7</ele>
        <time>2026-05-28T12:11:52.000Z</time>
      </trkpt>
      <trkpt lat="44.04322" lon="3.50925">
        <ele>1308.5</ele>
        <time>2026-05-28T12:11:53.000Z</time>
      </trkpt>
      <trkpt lat="44.04322" lon="3.50925">
        <ele>1308.2</ele>
        <time>2026-05-28T12:11:54.000Z</time>
      </trkpt>
      <trkpt lat="44.04322" lon="3.50924">
        <ele>1308</ele>
        <time>2026-05-28T12:11:55.000Z</time>
      </trkpt>
      <trkpt lat="44.04321" lon="3.50924">
        <ele>1307.6</ele>
        <time>2026-05-28T12:11:56.000Z</time>
      </trkpt>
      <trkpt lat="44.04321" lon="3.50924">
        <ele>1307.4</ele>
        <time>2026-05-28T12:11:57.000Z</time>
      </trkpt>
      <trkpt lat="44.04321" lon="3.50924">
        <ele>1307</ele>
        <time>2026-05-28T12:11:58.000Z</time>
      </trkpt>
      <trkpt lat="44.04321" lon="3.50924">
        <ele>1306.8</ele>
        <time>2026-05-28T12:11:59.000Z</time>
      </trkpt>
      <trkpt lat="44.04321" lon="3.50924">
        <ele>1306.7</ele>
        <time>2026-05-28T12:12:00.000Z</time>
      </trkpt>
      <trkpt lat="44.04321" lon="3.50924">
        <ele>1306.6</ele>
        <time>2026-05-28T12:12:01.000Z</time>
      </trkpt>
      <trkpt lat="44.04321" lon="3.50924">
        <ele>1306.8</ele>
        <time>2026-05-28T12:12:02.000Z</time>
      </trkpt>
      <trkpt lat="44.04321" lon="3.50924">
        <ele>1307</ele>
        <time>2026-05-28T12:12:03.000Z</time>
      </trkpt>
      <trkpt lat="44.04321" lon="3.50924">
        <ele>1307.1</ele>
        <time>2026-05-28T12:12:04.000Z</time>
      </trkpt>
      <trkpt lat="44.04321" lon="3.50924">
        <ele>1306.5</ele>
        <time>2026-05-28T12:12:05.000Z</time>
      </trkpt>
      <trkpt lat="44.04321" lon="3.50924">
        <ele>1306.5</ele>
        <time>2026-05-28T12:12:06.000Z</time>
      </trkpt>
      <trkpt lat="44.04321" lon="3.50924">
        <ele>1306.8</ele>
        <time>2026-05-28T12:12:07.000Z</time>
      </trkpt>
      <trkpt lat="44.04321" lon="3.50924">
        <ele>1306.9</ele>
        <time>2026-05-28T12:12:08.000Z</time>
      </trkpt>
      <trkpt lat="44.04321" lon="3.50925">
        <ele>1307.2</ele>
        <time>2026-05-28T12:12:09.000Z</time>
      </trkpt>
      <trkpt lat="44.04321" lon="3.50925">
        <ele>1307.7</ele>
        <time>2026-05-28T12:12:10.000Z</time>
      </trkpt>
      <trkpt lat="44.04321" lon="3.50925">
        <ele>1307.9</ele>
        <time>2026-05-28T12:12:11.000Z</time>
      </trkpt>
      <trkpt lat="44.04321" lon="3.50925">
        <ele>1308.5</ele>
        <time>2026-05-28T12:12:12.000Z</time>
      </trkpt>
      <trkpt lat="44.04321" lon="3.50925">
        <ele>1308.9</ele>
        <time>2026-05-28T12:12:13.000Z</time>
      </trkpt>
      <trkpt lat="44.0432" lon="3.50927">
        <ele>1309.2</ele>
        <time>2026-05-28T12:12:14.000Z</time>
      </trkpt>
      <trkpt lat="44.0432" lon="3.50927">
        <ele>1309.4</ele>
        <time>2026-05-28T12:12:15.000Z</time>
      </trkpt>
      <trkpt lat="44.04321" lon="3.50928">
        <ele>1309.4</ele>
        <time>2026-05-28T12:12:16.000Z</time>
      </trkpt>
      <trkpt lat="44.04321" lon="3.50928">
        <ele>1309.6</ele>
        <time>2026-05-28T12:12:17.000Z</time>
      </trkpt>
      <trkpt lat="44.04321" lon="3.50927">
        <ele>1309.3</ele>
        <time>2026-05-28T12:12:18.000Z</time>
      </trkpt>
      <trkpt lat="44.04321" lon="3.50927">
        <ele>1309.2</ele>
        <time>2026-05-28T12:12:19.000Z</time>
      </trkpt>
      <trkpt lat="44.04321" lon="3.50927">
        <ele>1309.3</ele>
        <time>2026-05-28T12:12:20.000Z</time>
      </trkpt>
      <trkpt lat="44.04321" lon="3.50928">
        <ele>1309.4</ele>
        <time>2026-05-28T12:12:21.000Z</time>
      </trkpt>
      <trkpt lat="44.04321" lon="3.50928">
        <ele>1309.5</ele>
        <time>2026-05-28T12:12:22.000Z</time>
      </trkpt>
      <trkpt lat="44.04321" lon="3.50928">
        <ele>1309.2</ele>
        <time>2026-05-28T12:12:23.000Z</time>
      </trkpt>
      <trkpt lat="44.04321" lon="3.50929">
        <ele>1309.2</ele>
        <time>2026-05-28T12:12:24.000Z</time>
      </trkpt>
      <trkpt lat="44.0432" lon="3.50929">
        <ele>1309</ele>
        <time>2026-05-28T12:12:25.000Z</time>
      </trkpt>
      <trkpt lat="44.0432" lon="3.50929">
        <ele>1308.9</ele>
        <time>2026-05-28T12:12:26.000Z</time>
      </trkpt>
      <trkpt lat="44.0432" lon="3.50929">
        <ele>1308.4</ele>
        <time>2026-05-28T12:12:27.000Z</time>
      </trkpt>
      <trkpt lat="44.04321" lon="3.50929">
        <ele>1308.1</ele>
        <time>2026-05-28T12:12:28.000Z</time>
      </trkpt>
      <trkpt lat="44.0432" lon="3.50928">
        <ele>1307.9</ele>
        <time>2026-05-28T12:12:29.000Z</time>
      </trkpt>
      <trkpt lat="44.04321" lon="3.50928">
        <ele>1307.9</ele>
        <time>2026-05-28T12:12:30.000Z</time>
      </trkpt>
      <trkpt lat="44.04321" lon="3.50929">
        <ele>1308</ele>
        <time>2026-05-28T12:12:31.000Z</time>
      </trkpt>
      <trkpt lat="44.0432" lon="3.50928">
        <ele>1308.1</ele>
        <time>2026-05-28T12:12:32.000Z</time>
      </trkpt>
      <trkpt lat="44.0432" lon="3.50928">
        <ele>1308.3</ele>
        <time>2026-05-28T12:12:33.000Z</time>
      </trkpt>
      <trkpt lat="44.0432" lon="3.50928">
        <ele>1308.4</ele>
        <time>2026-05-28T12:12:34.000Z</time>
      </trkpt>
      <trkpt lat="44.04321" lon="3.50928">
        <ele>1308.1</ele>
        <time>2026-05-28T12:12:35.000Z</time>
      </trkpt>
      <trkpt lat="44.0432" lon="3.50928">
        <ele>1308.3</ele>
        <time>2026-05-28T12:12:36.000Z</time>
      </trkpt>
      <trkpt lat="44.04321" lon="3.50928">
        <ele>1308.3</ele>
        <time>2026-05-28T12:12:37.000Z</time>
      </trkpt>
      <trkpt lat="44.04321" lon="3.50928">
        <ele>1308.2</ele>
        <time>2026-05-28T12:12:38.000Z</time>
      </trkpt>
      <trkpt lat="44.04321" lon="3.50928">
        <ele>1308.2</ele>
        <time>2026-05-28T12:12:39.000Z</time>
      </trkpt>
      <trkpt lat="44.04321" lon="3.50928">
        <ele>1307.8</ele>
        <time>2026-05-28T12:12:40.000Z</time>
      </trkpt>
      <trkpt lat="44.04321" lon="3.50928">
        <ele>1307.7</ele>
        <time>2026-05-28T12:12:41.000Z</time>
      </trkpt>
      <trkpt lat="44.04321" lon="3.50929">
        <ele>1307.8</ele>
        <time>2026-05-28T12:12:42.000Z</time>
      </trkpt>
      <trkpt lat="44.04321" lon="3.50928">
        <ele>1308</ele>
        <time>2026-05-28T12:12:43.000Z</time>
      </trkpt>
      <trkpt lat="44.04321" lon="3.50928">
        <ele>1308</ele>
        <time>2026-05-28T12:12:44.000Z</time>
      </trkpt>
      <trkpt lat="44.04321" lon="3.50928">
        <ele>1308.4</ele>
        <time>2026-05-28T12:12:45.000Z</time>
      </trkpt>
      <trkpt lat="44.04321" lon="3.50928">
        <ele>1308.6</ele>
        <time>2026-05-28T12:12:46.000Z</time>
      </trkpt>
      <trkpt lat="44.04321" lon="3.50929">
        <ele>1309.1</ele>
        <time>2026-05-28T12:12:47.000Z</time>
      </trkpt>
      <trkpt lat="44.04321" lon="3.50929">
        <ele>1309.5</ele>
        <time>2026-05-28T12:12:48.000Z</time>
      </trkpt>
      <trkpt lat="44.04321" lon="3.50928">
        <ele>1309.5</ele>
        <time>2026-05-28T12:12:49.000Z</time>
      </trkpt>
      <trkpt lat="44.04321" lon="3.50928">
        <ele>1309.4</ele>
        <time>2026-05-28T12:12:50.000Z</time>
      </trkpt>
      <trkpt lat="44.04321" lon="3.50928">
        <ele>1309.2</ele>
        <time>2026-05-28T12:12:51.000Z</time>
      </trkpt>
      <trkpt lat="44.04321" lon="3.50928">
        <ele>1309.3</ele>
        <time>2026-05-28T12:12:52.000Z</time>
      </trkpt>
      <trkpt lat="44.04321" lon="3.50928">
        <ele>1309.4</ele>
        <time>2026-05-28T12:12:53.000Z</time>
      </trkpt>
      <trkpt lat="44.04321" lon="3.50928">
        <ele>1309.5</ele>
        <time>2026-05-28T12:12:54.000Z</time>
      </trkpt>
      <trkpt lat="44.04321" lon="3.50928">
        <ele>1309.5</ele>
        <time>2026-05-28T12:12:55.000Z</time>
      </trkpt>
      <trkpt lat="44.04321" lon="3.50928">
        <ele>1309.3</ele>
        <time>2026-05-28T12:12:56.000Z</time>
      </trkpt>
      <trkpt lat="44.04321" lon="3.50928">
        <ele>1309</ele>
        <time>2026-05-28T12:12:57.000Z</time>
      </trkpt>
      <trkpt lat="44.04321" lon="3.50928">
        <ele>1308.7</ele>
        <time>2026-05-28T12:12:58.000Z</time>
      </trkpt>
      <trkpt lat="44.04321" lon="3.50928">
        <ele>1308.7</ele>
        <time>2026-05-28T12:12:59.000Z</time>
      </trkpt>
      <trkpt lat="44.04321" lon="3.50928">
        <ele>1308.7</ele>
        <time>2026-05-28T12:13:00.000Z</time>
      </trkpt>
      <trkpt lat="44.04321" lon="3.50928">
        <ele>1308.6</ele>
        <time>2026-05-28T12:13:01.000Z</time>
      </trkpt>
      <trkpt lat="44.04321" lon="3.50928">
        <ele>1308.3</ele>
        <time>2026-05-28T12:13:02.000Z</time>
      </trkpt>
      <trkpt lat="44.04321" lon="3.50928">
        <ele>1308.1</ele>
        <time>2026-05-28T12:13:03.000Z</time>
      </trkpt>
      <trkpt lat="44.04321" lon="3.50928">
        <ele>1308</ele>
        <time>2026-05-28T12:13:04.000Z</time>
      </trkpt>
      <trkpt lat="44.04321" lon="3.50928">
        <ele>1308.2</ele>
        <time>2026-05-28T12:13:05.000Z</time>
      </trkpt>
      <trkpt lat="44.04321" lon="3.50928">
        <ele>1308.2</ele>
        <time>2026-05-28T12:13:06.000Z</time>
      </trkpt>
      <trkpt lat="44.04322" lon="3.50928">
        <ele>1308.5</ele>
        <time>2026-05-28T12:13:07.000Z</time>
      </trkpt>
      <trkpt lat="44.04321" lon="3.50928">
        <ele>1308.8</ele>
        <time>2026-05-28T12:13:08.000Z</time>
      </trkpt>
      <trkpt lat="44.04321" lon="3.50928">
        <ele>1309</ele>
        <time>2026-05-28T12:13:09.000Z</time>
      </trkpt>
      <trkpt lat="44.04322" lon="3.50928">
        <ele>1309.3</ele>
        <time>2026-05-28T12:13:10.000Z</time>
      </trkpt>
      <trkpt lat="44.04322" lon="3.50928">
        <ele>1309.6</ele>
        <time>2026-05-28T12:13:11.000Z</time>
      </trkpt>
      <trkpt lat="44.04322" lon="3.50928">
        <ele>1309.8</ele>
        <time>2026-05-28T12:13:12.000Z</time>
      </trkpt>
      <trkpt lat="44.04322" lon="3.50928">
        <ele>1309.9</ele>
        <time>2026-05-28T12:13:13.000Z</time>
      </trkpt>
      <trkpt lat="44.04322" lon="3.50928">
        <ele>1310.1</ele>
        <time>2026-05-28T12:13:14.000Z</time>
      </trkpt>
      <trkpt lat="44.04322" lon="3.50928">
        <ele>1310.2</ele>
        <time>2026-05-28T12:13:15.000Z</time>
      </trkpt>
      <trkpt lat="44.04322" lon="3.50928">
        <ele>1310.2</ele>
        <time>2026-05-28T12:13:16.000Z</time>
      </trkpt>
      <trkpt lat="44.04322" lon="3.50928">
        <ele>1310.2</ele>
        <time>2026-05-28T12:13:17.000Z</time>
      </trkpt>
      <trkpt lat="44.04322" lon="3.50928">
        <ele>1310.2</ele>
        <time>2026-05-28T12:13:18.000Z</time>
      </trkpt>
      <trkpt lat="44.04322" lon="3.50928">
        <ele>1309.9</ele>
        <time>2026-05-28T12:13:19.000Z</time>
      </trkpt>
      <trkpt lat="44.04322" lon="3.50928">
        <ele>1309.4</ele>
        <time>2026-05-28T12:13:20.000Z</time>
      </trkpt>
      <trkpt lat="44.04322" lon="3.50928">
        <ele>1309.3</ele>
        <time>2026-05-28T12:13:21.000Z</time>
      </trkpt>
      <trkpt lat="44.04322" lon="3.50928">
        <ele>1309.2</ele>
        <time>2026-05-28T12:13:22.000Z</time>
      </trkpt>
      <trkpt lat="44.04322" lon="3.50928">
        <ele>1308.9</ele>
        <time>2026-05-28T12:13:23.000Z</time>
      </trkpt>
      <trkpt lat="44.04322" lon="3.50928">
        <ele>1308.4</ele>
        <time>2026-05-28T12:13:24.000Z</time>
      </trkpt>
      <trkpt lat="44.04321" lon="3.50928">
        <ele>1308.2</ele>
        <time>2026-05-28T12:13:25.000Z</time>
      </trkpt>
      <trkpt lat="44.04321" lon="3.50928">
        <ele>1307.8</ele>
        <time>2026-05-28T12:13:26.000Z</time>
      </trkpt>
      <trkpt lat="44.04321" lon="3.50927">
        <ele>1307.8</ele>
        <time>2026-05-28T12:13:27.000Z</time>
      </trkpt>
      <trkpt lat="44.04321" lon="3.50927">
        <ele>1307.6</ele>
        <time>2026-05-28T12:13:28.000Z</time>
      </trkpt>
      <trkpt lat="44.04321" lon="3.50927">
        <ele>1307.3</ele>
        <time>2026-05-28T12:13:29.000Z</time>
      </trkpt>
      <trkpt lat="44.04321" lon="3.50927">
        <ele>1306.9</ele>
        <time>2026-05-28T12:13:30.000Z</time>
      </trkpt>
      <trkpt lat="44.04321" lon="3.50927">
        <ele>1307</ele>
        <time>2026-05-28T12:13:31.000Z</time>
      </trkpt>
      <trkpt lat="44.04321" lon="3.50927">
        <ele>1307.2</ele>
        <time>2026-05-28T12:13:32.000Z</time>
      </trkpt>
      <trkpt lat="44.04321" lon="3.50927">
        <ele>1307.2</ele>
        <time>2026-05-28T12:13:33.000Z</time>
      </trkpt>
      <trkpt lat="44.04321" lon="3.50927">
        <ele>1307.3</ele>
        <time>2026-05-28T12:13:34.000Z</time>
      </trkpt>
      <trkpt lat="44.04321" lon="3.50928">
        <ele>1307.4</ele>
        <time>2026-05-28T12:13:35.000Z</time>
      </trkpt>
      <trkpt lat="44.04321" lon="3.50928">
        <ele>1307.5</ele>
        <time>2026-05-28T12:13:36.000Z</time>
      </trkpt>
      <trkpt lat="44.04321" lon="3.50928">
        <ele>1307.6</ele>
        <time>2026-05-28T12:13:37.000Z</time>
      </trkpt>
      <trkpt lat="44.04321" lon="3.50928">
        <ele>1307.8</ele>
        <time>2026-05-28T12:13:38.000Z</time>
      </trkpt>
      <trkpt lat="44.04321" lon="3.50928">
        <ele>1308.1</ele>
        <time>2026-05-28T12:13:39.000Z</time>
      </trkpt>
      <trkpt lat="44.04321" lon="3.50928">
        <ele>1308.1</ele>
        <time>2026-05-28T12:13:40.000Z</time>
      </trkpt>
      <trkpt lat="44.04321" lon="3.50928">
        <ele>1308.4</ele>
        <time>2026-05-28T12:13:41.000Z</time>
      </trkpt>
      <trkpt lat="44.04321" lon="3.50928">
        <ele>1308.3</ele>
        <time>2026-05-28T12:13:42.000Z</time>
      </trkpt>
      <trkpt lat="44.04321" lon="3.50928">
        <ele>1308.6</ele>
        <time>2026-05-28T12:13:43.000Z</time>
      </trkpt>
      <trkpt lat="44.04321" lon="3.50928">
        <ele>1308.8</ele>
        <time>2026-05-28T12:13:44.000Z</time>
      </trkpt>
      <trkpt lat="44.04321" lon="3.50928">
        <ele>1308.7</ele>
        <time>2026-05-28T12:13:45.000Z</time>
      </trkpt>
      <trkpt lat="44.04321" lon="3.50928">
        <ele>1308.8</ele>
        <time>2026-05-28T12:13:46.000Z</time>
      </trkpt>
      <trkpt lat="44.04321" lon="3.50927">
        <ele>1308.9</ele>
        <time>2026-05-28T12:13:47.000Z</time>
      </trkpt>
      <trkpt lat="44.04321" lon="3.50927">
        <ele>1308.7</ele>
        <time>2026-05-28T12:13:48.000Z</time>
      </trkpt>
      <trkpt lat="44.04321" lon="3.50927">
        <ele>1308.5</ele>
        <time>2026-05-28T12:13:49.000Z</time>
      </trkpt>
      <trkpt lat="44.04321" lon="3.50927">
        <ele>1308.7</ele>
        <time>2026-05-28T12:13:50.000Z</time>
      </trkpt>
      <trkpt lat="44.04321" lon="3.50927">
        <ele>1308.7</ele>
        <time>2026-05-28T12:13:51.000Z</time>
      </trkpt>
      <trkpt lat="44.04321" lon="3.50927">
        <ele>1308.6</ele>
        <time>2026-05-28T12:13:52.000Z</time>
      </trkpt>
      <trkpt lat="44.04321" lon="3.50928">
        <ele>1308.5</ele>
        <time>2026-05-28T12:13:53.000Z</time>
      </trkpt>
      <trkpt lat="44.04321" lon="3.50928">
        <ele>1308.3</ele>
        <time>2026-05-28T12:13:54.000Z</time>
      </trkpt>
      <trkpt lat="44.04321" lon="3.50928">
        <ele>1308.1</ele>
        <time>2026-05-28T12:13:55.000Z</time>
      </trkpt>
      <trkpt lat="44.04321" lon="3.50927">
        <ele>1308.1</ele>
        <time>2026-05-28T12:13:56.000Z</time>
      </trkpt>
      <trkpt lat="44.04321" lon="3.50927">
        <ele>1307.9</ele>
        <time>2026-05-28T12:13:57.000Z</time>
      </trkpt>
      <trkpt lat="44.04321" lon="3.50928">
        <ele>1307.8</ele>
        <time>2026-05-28T12:13:58.000Z</time>
      </trkpt>
      <trkpt lat="44.04322" lon="3.50928">
        <ele>1307.9</ele>
        <time>2026-05-28T12:13:59.000Z</time>
      </trkpt>
      <trkpt lat="44.04322" lon="3.50928">
        <ele>1307.9</ele>
        <time>2026-05-28T12:14:00.000Z</time>
      </trkpt>
      <trkpt lat="44.04322" lon="3.50928">
        <ele>1308.1</ele>
        <time>2026-05-28T12:14:01.000Z</time>
      </trkpt>
      <trkpt lat="44.04322" lon="3.50928">
        <ele>1308.1</ele>
        <time>2026-05-28T12:14:02.000Z</time>
      </trkpt>
      <trkpt lat="44.04322" lon="3.50928">
        <ele>1308.2</ele>
        <time>2026-05-28T12:14:03.000Z</time>
      </trkpt>
      <trkpt lat="44.04322" lon="3.50927">
        <ele>1308</ele>
        <time>2026-05-28T12:14:04.000Z</time>
      </trkpt>
      <trkpt lat="44.04322" lon="3.50927">
        <ele>1308</ele>
        <time>2026-05-28T12:14:05.000Z</time>
      </trkpt>
      <trkpt lat="44.04322" lon="3.50927">
        <ele>1307.9</ele>
        <time>2026-05-28T12:14:06.000Z</time>
      </trkpt>
      <trkpt lat="44.04322" lon="3.50927">
        <ele>1308</ele>
        <time>2026-05-28T12:14:07.000Z</time>
      </trkpt>
      <trkpt lat="44.04322" lon="3.50927">
        <ele>1307.9</ele>
        <time>2026-05-28T12:14:08.000Z</time>
      </trkpt>
      <trkpt lat="44.04322" lon="3.50926">
        <ele>1307.9</ele>
        <time>2026-05-28T12:14:09.000Z</time>
      </trkpt>
      <trkpt lat="44.04322" lon="3.50926">
        <ele>1307.9</ele>
        <time>2026-05-28T12:14:10.000Z</time>
      </trkpt>
      <trkpt lat="44.04322" lon="3.50926">
        <ele>1308</ele>
        <time>2026-05-28T12:14:11.000Z</time>
      </trkpt>
      <trkpt lat="44.04322" lon="3.50926">
        <ele>1308.1</ele>
        <time>2026-05-28T12:14:12.000Z</time>
      </trkpt>
      <trkpt lat="44.04322" lon="3.50926">
        <ele>1308.1</ele>
        <time>2026-05-28T12:14:13.000Z</time>
      </trkpt>
      <trkpt lat="44.04322" lon="3.50926">
        <ele>1308.2</ele>
        <time>2026-05-28T12:14:14.000Z</time>
      </trkpt>
      <trkpt lat="44.04322" lon="3.50926">
        <ele>1308.2</ele>
        <time>2026-05-28T12:14:15.000Z</time>
      </trkpt>
      <trkpt lat="44.04322" lon="3.50926">
        <ele>1308.1</ele>
        <time>2026-05-28T12:14:16.000Z</time>
      </trkpt>
      <trkpt lat="44.04322" lon="3.50926">
        <ele>1308</ele>
        <time>2026-05-28T12:14:17.000Z</time>
      </trkpt>
      <trkpt lat="44.04322" lon="3.50926">
        <ele>1308.2</ele>
        <time>2026-05-28T12:14:18.000Z</time>
      </trkpt>
      <trkpt lat="44.04323" lon="3.50926">
        <ele>1308.4</ele>
        <time>2026-05-28T12:14:19.000Z</time>
      </trkpt>
      <trkpt lat="44.04323" lon="3.50926">
        <ele>1308.3</ele>
        <time>2026-05-28T12:14:20.000Z</time>
      </trkpt>
      <trkpt lat="44.04323" lon="3.50926">
        <ele>1308.1</ele>
        <time>2026-05-28T12:14:21.000Z</time>
      </trkpt>
      <trkpt lat="44.04323" lon="3.50927">
        <ele>1307.9</ele>
        <time>2026-05-28T12:14:22.000Z</time>
      </trkpt>
      <trkpt lat="44.04323" lon="3.50927">
        <ele>1308</ele>
        <time>2026-05-28T12:14:23.000Z</time>
      </trkpt>
      <trkpt lat="44.04323" lon="3.50929">
        <ele>1308.1</ele>
        <time>2026-05-28T12:14:24.000Z</time>
      </trkpt>
      <trkpt lat="44.04324" lon="3.50929">
        <ele>1308.6</ele>
        <time>2026-05-28T12:14:25.000Z</time>
      </trkpt>
      <trkpt lat="44.04324" lon="3.5093">
        <ele>1308.7</ele>
        <time>2026-05-28T12:14:26.000Z</time>
      </trkpt>
      <trkpt lat="44.04324" lon="3.50931">
        <ele>1308.8</ele>
        <time>2026-05-28T12:14:27.000Z</time>
      </trkpt>
      <trkpt lat="44.04324" lon="3.50931">
        <ele>1308.4</ele>
        <time>2026-05-28T12:14:28.000Z</time>
      </trkpt>
      <trkpt lat="44.04324" lon="3.50931">
        <ele>1308.7</ele>
        <time>2026-05-28T12:14:29.000Z</time>
      </trkpt>
      <trkpt lat="44.04324" lon="3.50931">
        <ele>1309</ele>
        <time>2026-05-28T12:14:30.000Z</time>
      </trkpt>
      <trkpt lat="44.04324" lon="3.50931">
        <ele>1309.1</ele>
        <time>2026-05-28T12:14:31.000Z</time>
      </trkpt>
      <trkpt lat="44.04324" lon="3.50931">
        <ele>1309.2</ele>
        <time>2026-05-28T12:14:32.000Z</time>
      </trkpt>
      <trkpt lat="44.04324" lon="3.50931">
        <ele>1309.6</ele>
        <time>2026-05-28T12:14:33.000Z</time>
      </trkpt>
      <trkpt lat="44.04324" lon="3.50931">
        <ele>1309.6</ele>
        <time>2026-05-28T12:14:34.000Z</time>
      </trkpt>
      <trkpt lat="44.04324" lon="3.50931">
        <ele>1309.5</ele>
        <time>2026-05-28T12:14:35.000Z</time>
      </trkpt>
      <trkpt lat="44.04325" lon="3.50931">
        <ele>1309.3</ele>
        <time>2026-05-28T12:14:36.000Z</time>
      </trkpt>
      <trkpt lat="44.04325" lon="3.50931">
        <ele>1309.5</ele>
        <time>2026-05-28T12:14:37.000Z</time>
      </trkpt>
      <trkpt lat="44.04325" lon="3.50932">
        <ele>1309.8</ele>
        <time>2026-05-28T12:14:38.000Z</time>
      </trkpt>
      <trkpt lat="44.04325" lon="3.50932">
        <ele>1309.9</ele>
        <time>2026-05-28T12:14:39.000Z</time>
      </trkpt>
      <trkpt lat="44.04325" lon="3.50932">
        <ele>1310.1</ele>
        <time>2026-05-28T12:14:40.000Z</time>
      </trkpt>
      <trkpt lat="44.04325" lon="3.50932">
        <ele>1310.2</ele>
        <time>2026-05-28T12:14:41.000Z</time>
      </trkpt>
      <trkpt lat="44.04325" lon="3.50932">
        <ele>1310.2</ele>
        <time>2026-05-28T12:14:42.000Z</time>
      </trkpt>
      <trkpt lat="44.04325" lon="3.50932">
        <ele>1310.3</ele>
        <time>2026-05-28T12:14:43.000Z</time>
      </trkpt>
      <trkpt lat="44.04325" lon="3.50932">
        <ele>1310.1</ele>
        <time>2026-05-28T12:14:44.000Z</time>
      </trkpt>
      <trkpt lat="44.04325" lon="3.50933">
        <ele>1309.8</ele>
        <time>2026-05-28T12:14:45.000Z</time>
      </trkpt>
      <trkpt lat="44.04325" lon="3.50933">
        <ele>1309.9</ele>
        <time>2026-05-28T12:14:46.000Z</time>
      </trkpt>
      <trkpt lat="44.04325" lon="3.50933">
        <ele>1309.7</ele>
        <time>2026-05-28T12:14:47.000Z</time>
      </trkpt>
      <trkpt lat="44.04325" lon="3.50933">
        <ele>1309.6</ele>
        <time>2026-05-28T12:14:48.000Z</time>
      </trkpt>
      <trkpt lat="44.04325" lon="3.50933">
        <ele>1309.6</ele>
        <time>2026-05-28T12:14:49.000Z</time>
      </trkpt>
      <trkpt lat="44.04325" lon="3.50933">
        <ele>1309.5</ele>
        <time>2026-05-28T12:14:50.000Z</time>
      </trkpt>
      <trkpt lat="44.04325" lon="3.50933">
        <ele>1309.6</ele>
        <time>2026-05-28T12:14:51.000Z</time>
      </trkpt>
      <trkpt lat="44.04325" lon="3.50932">
        <ele>1309.6</ele>
        <time>2026-05-28T12:14:52.000Z</time>
      </trkpt>
      <trkpt lat="44.04325" lon="3.50932">
        <ele>1309.7</ele>
        <time>2026-05-28T12:14:53.000Z</time>
      </trkpt>
      <trkpt lat="44.04325" lon="3.50932">
        <ele>1309.6</ele>
        <time>2026-05-28T12:14:54.000Z</time>
      </trkpt>
      <trkpt lat="44.04325" lon="3.50932">
        <ele>1309.9</ele>
        <time>2026-05-28T12:14:55.000Z</time>
      </trkpt>
      <trkpt lat="44.04325" lon="3.50932">
        <ele>1310.2</ele>
        <time>2026-05-28T12:14:56.000Z</time>
      </trkpt>
      <trkpt lat="44.04325" lon="3.50932">
        <ele>1310.4</ele>
        <time>2026-05-28T12:14:57.000Z</time>
      </trkpt>
      <trkpt lat="44.04325" lon="3.50931">
        <ele>1310.4</ele>
        <time>2026-05-28T12:14:58.000Z</time>
      </trkpt>
      <trkpt lat="44.04325" lon="3.50931">
        <ele>1310.8</ele>
        <time>2026-05-28T12:14:59.000Z</time>
      </trkpt>
      <trkpt lat="44.04325" lon="3.50931">
        <ele>1311.4</ele>
        <time>2026-05-28T12:15:00.000Z</time>
      </trkpt>
      <trkpt lat="44.04325" lon="3.50931">
        <ele>1311.4</ele>
        <time>2026-05-28T12:15:01.000Z</time>
      </trkpt>
      <trkpt lat="44.04325" lon="3.50931">
        <ele>1311.5</ele>
        <time>2026-05-28T12:15:02.000Z</time>
      </trkpt>
      <trkpt lat="44.04325" lon="3.50931">
        <ele>1311.5</ele>
        <time>2026-05-28T12:15:03.000Z</time>
      </trkpt>
      <trkpt lat="44.04325" lon="3.5093">
        <ele>1311.5</ele>
        <time>2026-05-28T12:15:04.000Z</time>
      </trkpt>
      <trkpt lat="44.04325" lon="3.5093">
        <ele>1311.5</ele>
        <time>2026-05-28T12:15:05.000Z</time>
      </trkpt>
      <trkpt lat="44.04325" lon="3.5093">
        <ele>1311.4</ele>
        <time>2026-05-28T12:15:06.000Z</time>
      </trkpt>
      <trkpt lat="44.04325" lon="3.5093">
        <ele>1311.3</ele>
        <time>2026-05-28T12:15:07.000Z</time>
      </trkpt>
      <trkpt lat="44.04325" lon="3.5093">
        <ele>1311.4</ele>
        <time>2026-05-28T12:15:08.000Z</time>
      </trkpt>
      <trkpt lat="44.04325" lon="3.5093">
        <ele>1311.5</ele>
        <time>2026-05-28T12:15:09.000Z</time>
      </trkpt>
      <trkpt lat="44.04325" lon="3.5093">
        <ele>1311.9</ele>
        <time>2026-05-28T12:15:10.000Z</time>
      </trkpt>
      <trkpt lat="44.04325" lon="3.5093">
        <ele>1311.8</ele>
        <time>2026-05-28T12:15:11.000Z</time>
      </trkpt>
      <trkpt lat="44.04325" lon="3.5093">
        <ele>1311.9</ele>
        <time>2026-05-28T12:15:12.000Z</time>
      </trkpt>
      <trkpt lat="44.04325" lon="3.5093">
        <ele>1312</ele>
        <time>2026-05-28T12:15:13.000Z</time>
      </trkpt>
      <trkpt lat="44.04325" lon="3.5093">
        <ele>1312.1</ele>
        <time>2026-05-28T12:15:14.000Z</time>
      </trkpt>
      <trkpt lat="44.04325" lon="3.5093">
        <ele>1311.9</ele>
        <time>2026-05-28T12:15:15.000Z</time>
      </trkpt>
      <trkpt lat="44.04325" lon="3.5093">
        <ele>1311.7</ele>
        <time>2026-05-28T12:15:16.000Z</time>
      </trkpt>
      <trkpt lat="44.04325" lon="3.5093">
        <ele>1311.8</ele>
        <time>2026-05-28T12:15:17.000Z</time>
      </trkpt>
      <trkpt lat="44.04325" lon="3.5093">
        <ele>1311.7</ele>
        <time>2026-05-28T12:15:18.000Z</time>
      </trkpt>
      <trkpt lat="44.04325" lon="3.5093">
        <ele>1311.9</ele>
        <time>2026-05-28T12:15:19.000Z</time>
      </trkpt>
      <trkpt lat="44.04325" lon="3.5093">
        <ele>1312.1</ele>
        <time>2026-05-28T12:15:20.000Z</time>
      </trkpt>
      <trkpt lat="44.04325" lon="3.5093">
        <ele>1312.2</ele>
        <time>2026-05-28T12:15:21.000Z</time>
      </trkpt>
      <trkpt lat="44.04325" lon="3.5093">
        <ele>1312.2</ele>
        <time>2026-05-28T12:15:22.000Z</time>
      </trkpt>
      <trkpt lat="44.04325" lon="3.5093">
        <ele>1312.1</ele>
        <time>2026-05-28T12:15:23.000Z</time>
      </trkpt>
      <trkpt lat="44.04325" lon="3.5093">
        <ele>1312.1</ele>
        <time>2026-05-28T12:15:24.000Z</time>
      </trkpt>
      <trkpt lat="44.04325" lon="3.5093">
        <ele>1312</ele>
        <time>2026-05-28T12:15:25.000Z</time>
      </trkpt>
      <trkpt lat="44.04325" lon="3.5093">
        <ele>1312.2</ele>
        <time>2026-05-28T12:15:26.000Z</time>
      </trkpt>
      <trkpt lat="44.04325" lon="3.5093">
        <ele>1312</ele>
        <time>2026-05-28T12:15:27.000Z</time>
      </trkpt>
      <trkpt lat="44.04325" lon="3.5093">
        <ele>1312.1</ele>
        <time>2026-05-28T12:15:28.000Z</time>
      </trkpt>
      <trkpt lat="44.04325" lon="3.5093">
        <ele>1312.1</ele>
        <time>2026-05-28T12:15:29.000Z</time>
      </trkpt>
      <trkpt lat="44.04325" lon="3.5093">
        <ele>1312.6</ele>
        <time>2026-05-28T12:15:30.000Z</time>
      </trkpt>
      <trkpt lat="44.04325" lon="3.50931">
        <ele>1312.2</ele>
        <time>2026-05-28T12:15:31.000Z</time>
      </trkpt>
      <trkpt lat="44.04325" lon="3.50931">
        <ele>1312.4</ele>
        <time>2026-05-28T12:15:32.000Z</time>
      </trkpt>
      <trkpt lat="44.04325" lon="3.50931">
        <ele>1312.2</ele>
        <time>2026-05-28T12:15:33.000Z</time>
      </trkpt>
      <trkpt lat="44.04325" lon="3.50931">
        <ele>1312</ele>
        <time>2026-05-28T12:15:34.000Z</time>
      </trkpt>
      <trkpt lat="44.04325" lon="3.5093">
        <ele>1312.2</ele>
        <time>2026-05-28T12:15:35.000Z</time>
      </trkpt>
      <trkpt lat="44.04324" lon="3.5093">
        <ele>1313</ele>
        <time>2026-05-28T12:15:36.000Z</time>
      </trkpt>
      <trkpt lat="44.04324" lon="3.5093">
        <ele>1312.9</ele>
        <time>2026-05-28T12:15:37.000Z</time>
      </trkpt>
      <trkpt lat="44.04324" lon="3.5093">
        <ele>1313.1</ele>
        <time>2026-05-28T12:15:38.000Z</time>
      </trkpt>
      <trkpt lat="44.04324" lon="3.5093">
        <ele>1313.5</ele>
        <time>2026-05-28T12:15:39.000Z</time>
      </trkpt>
      <trkpt lat="44.04325" lon="3.5093">
        <ele>1313.4</ele>
        <time>2026-05-28T12:15:40.000Z</time>
      </trkpt>
      <trkpt lat="44.04324" lon="3.50929">
        <ele>1313.5</ele>
        <time>2026-05-28T12:15:41.000Z</time>
      </trkpt>
      <trkpt lat="44.04324" lon="3.50929">
        <ele>1313.6</ele>
        <time>2026-05-28T12:15:42.000Z</time>
      </trkpt>
      <trkpt lat="44.04324" lon="3.50929">
        <ele>1313.6</ele>
        <time>2026-05-28T12:15:43.000Z</time>
      </trkpt>
      <trkpt lat="44.04324" lon="3.50929">
        <ele>1313.3</ele>
        <time>2026-05-28T12:15:44.000Z</time>
      </trkpt>
      <trkpt lat="44.04324" lon="3.50929">
        <ele>1313.2</ele>
        <time>2026-05-28T12:15:45.000Z</time>
      </trkpt>
      <trkpt lat="44.04324" lon="3.50929">
        <ele>1313.3</ele>
        <time>2026-05-28T12:15:46.000Z</time>
      </trkpt>
      <trkpt lat="44.04324" lon="3.50929">
        <ele>1313.7</ele>
        <time>2026-05-28T12:15:47.000Z</time>
      </trkpt>
      <trkpt lat="44.04324" lon="3.50929">
        <ele>1314</ele>
        <time>2026-05-28T12:15:48.000Z</time>
      </trkpt>
      <trkpt lat="44.04324" lon="3.50929">
        <ele>1314.7</ele>
        <time>2026-05-28T12:15:49.000Z</time>
      </trkpt>
      <trkpt lat="44.04324" lon="3.50929">
        <ele>1315.3</ele>
        <time>2026-05-28T12:15:50.000Z</time>
      </trkpt>
      <trkpt lat="44.04324" lon="3.50929">
        <ele>1315.8</ele>
        <time>2026-05-28T12:15:51.000Z</time>
      </trkpt>
      <trkpt lat="44.04324" lon="3.50929">
        <ele>1316.7</ele>
        <time>2026-05-28T12:15:52.000Z</time>
      </trkpt>
      <trkpt lat="44.04324" lon="3.50929">
        <ele>1316.8</ele>
        <time>2026-05-28T12:15:53.000Z</time>
      </trkpt>
      <trkpt lat="44.04324" lon="3.50929">
        <ele>1316.9</ele>
        <time>2026-05-28T12:15:54.000Z</time>
      </trkpt>
      <trkpt lat="44.04324" lon="3.50929">
        <ele>1317.2</ele>
        <time>2026-05-28T12:15:55.000Z</time>
      </trkpt>
      <trkpt lat="44.04324" lon="3.50929">
        <ele>1317.4</ele>
        <time>2026-05-28T12:15:56.000Z</time>
      </trkpt>
      <trkpt lat="44.04324" lon="3.50929">
        <ele>1317.5</ele>
        <time>2026-05-28T12:15:57.000Z</time>
      </trkpt>
      <trkpt lat="44.04324" lon="3.50928">
        <ele>1317.5</ele>
        <time>2026-05-28T12:15:58.000Z</time>
      </trkpt>
      <trkpt lat="44.04324" lon="3.50928">
        <ele>1317.3</ele>
        <time>2026-05-28T12:15:59.000Z</time>
      </trkpt>
      <trkpt lat="44.04324" lon="3.50928">
        <ele>1317.2</ele>
        <time>2026-05-28T12:16:00.000Z</time>
      </trkpt>
      <trkpt lat="44.04324" lon="3.50928">
        <ele>1316.8</ele>
        <time>2026-05-28T12:16:01.000Z</time>
      </trkpt>
      <trkpt lat="44.04324" lon="3.50928">
        <ele>1317</ele>
        <time>2026-05-28T12:16:02.000Z</time>
      </trkpt>
      <trkpt lat="44.04324" lon="3.50928">
        <ele>1317.1</ele>
        <time>2026-05-28T12:16:03.000Z</time>
      </trkpt>
      <trkpt lat="44.04324" lon="3.50928">
        <ele>1317.1</ele>
        <time>2026-05-28T12:16:04.000Z</time>
      </trkpt>
      <trkpt lat="44.04324" lon="3.50928">
        <ele>1316.9</ele>
        <time>2026-05-28T12:16:05.000Z</time>
      </trkpt>
      <trkpt lat="44.04324" lon="3.50928">
        <ele>1316.5</ele>
        <time>2026-05-28T12:16:06.000Z</time>
      </trkpt>
      <trkpt lat="44.04324" lon="3.50928">
        <ele>1316</ele>
        <time>2026-05-28T12:16:07.000Z</time>
      </trkpt>
      <trkpt lat="44.04324" lon="3.50928">
        <ele>1315.9</ele>
        <time>2026-05-28T12:16:08.000Z</time>
      </trkpt>
      <trkpt lat="44.04324" lon="3.50928">
        <ele>1315.7</ele>
        <time>2026-05-28T12:16:09.000Z</time>
      </trkpt>
      <trkpt lat="44.04324" lon="3.50928">
        <ele>1315.4</ele>
        <time>2026-05-28T12:16:10.000Z</time>
      </trkpt>
      <trkpt lat="44.04324" lon="3.50928">
        <ele>1315.5</ele>
        <time>2026-05-28T12:16:11.000Z</time>
      </trkpt>
      <trkpt lat="44.04324" lon="3.50928">
        <ele>1315.4</ele>
        <time>2026-05-28T12:16:12.000Z</time>
      </trkpt>
      <trkpt lat="44.04324" lon="3.50928">
        <ele>1315.5</ele>
        <time>2026-05-28T12:16:13.000Z</time>
      </trkpt>
      <trkpt lat="44.04324" lon="3.50927">
        <ele>1315.5</ele>
        <time>2026-05-28T12:16:14.000Z</time>
      </trkpt>
      <trkpt lat="44.04324" lon="3.50927">
        <ele>1315.6</ele>
        <time>2026-05-28T12:16:15.000Z</time>
      </trkpt>
      <trkpt lat="44.04324" lon="3.50927">
        <ele>1315.6</ele>
        <time>2026-05-28T12:16:16.000Z</time>
      </trkpt>
      <trkpt lat="44.04324" lon="3.50927">
        <ele>1315</ele>
        <time>2026-05-28T12:16:17.000Z</time>
      </trkpt>
      <trkpt lat="44.04324" lon="3.50927">
        <ele>1314.5</ele>
        <time>2026-05-28T12:16:18.000Z</time>
      </trkpt>
      <trkpt lat="44.04324" lon="3.50927">
        <ele>1314.4</ele>
        <time>2026-05-28T12:16:19.000Z</time>
      </trkpt>
      <trkpt lat="44.04324" lon="3.50927">
        <ele>1314.5</ele>
        <time>2026-05-28T12:16:20.000Z</time>
      </trkpt>
      <trkpt lat="44.04324" lon="3.50927">
        <ele>1314.6</ele>
        <time>2026-05-28T12:16:21.000Z</time>
      </trkpt>
      <trkpt lat="44.04324" lon="3.50928">
        <ele>1314.7</ele>
        <time>2026-05-28T12:16:22.000Z</time>
      </trkpt>
      <trkpt lat="44.04324" lon="3.50928">
        <ele>1314.6</ele>
        <time>2026-05-28T12:16:23.000Z</time>
      </trkpt>
      <trkpt lat="44.04324" lon="3.50928">
        <ele>1314.5</ele>
        <time>2026-05-28T12:16:24.000Z</time>
      </trkpt>
      <trkpt lat="44.04323" lon="3.50928">
        <ele>1314.4</ele>
        <time>2026-05-28T12:16:25.000Z</time>
      </trkpt>
      <trkpt lat="44.04323" lon="3.50928">
        <ele>1314.4</ele>
        <time>2026-05-28T12:16:26.000Z</time>
      </trkpt>
      <trkpt lat="44.04323" lon="3.50928">
        <ele>1314.5</ele>
        <time>2026-05-28T12:16:27.000Z</time>
      </trkpt>
      <trkpt lat="44.04323" lon="3.50929">
        <ele>1314.3</ele>
        <time>2026-05-28T12:16:28.000Z</time>
      </trkpt>
      <trkpt lat="44.04323" lon="3.50929">
        <ele>1314.1</ele>
        <time>2026-05-28T12:16:29.000Z</time>
      </trkpt>
      <trkpt lat="44.04323" lon="3.50929">
        <ele>1313.8</ele>
        <time>2026-05-28T12:16:30.000Z</time>
      </trkpt>
      <trkpt lat="44.04324" lon="3.50929">
        <ele>1313.7</ele>
        <time>2026-05-28T12:16:31.000Z</time>
      </trkpt>
      <trkpt lat="44.04324" lon="3.5093">
        <ele>1313.7</ele>
        <time>2026-05-28T12:16:32.000Z</time>
      </trkpt>
      <trkpt lat="44.04324" lon="3.5093">
        <ele>1313.6</ele>
        <time>2026-05-28T12:16:33.000Z</time>
      </trkpt>
      <trkpt lat="44.04324" lon="3.50931">
        <ele>1313.8</ele>
        <time>2026-05-28T12:16:34.000Z</time>
      </trkpt>
      <trkpt lat="44.04325" lon="3.50932">
        <ele>1313.6</ele>
        <time>2026-05-28T12:16:35.000Z</time>
      </trkpt>
      <trkpt lat="44.04327" lon="3.50933">
        <ele>1313.4</ele>
        <time>2026-05-28T12:16:36.000Z</time>
      </trkpt>
      <trkpt lat="44.04328" lon="3.50934">
        <ele>1313.3</ele>
        <time>2026-05-28T12:16:37.000Z</time>
      </trkpt>
      <trkpt lat="44.04329" lon="3.50935">
        <ele>1312.9</ele>
        <time>2026-05-28T12:16:38.000Z</time>
      </trkpt>
      <trkpt lat="44.0433" lon="3.50935">
        <ele>1312.7</ele>
        <time>2026-05-28T12:16:39.000Z</time>
      </trkpt>
      <trkpt lat="44.04331" lon="3.50936">
        <ele>1312.7</ele>
        <time>2026-05-28T12:16:40.000Z</time>
      </trkpt>
      <trkpt lat="44.04331" lon="3.50937">
        <ele>1312</ele>
        <time>2026-05-28T12:16:41.000Z</time>
      </trkpt>
      <trkpt lat="44.04332" lon="3.50937">
        <ele>1311.7</ele>
        <time>2026-05-28T12:16:42.000Z</time>
      </trkpt>
      <trkpt lat="44.04332" lon="3.50937">
        <ele>1311.5</ele>
        <time>2026-05-28T12:16:43.000Z</time>
      </trkpt>
      <trkpt lat="44.04332" lon="3.50937">
        <ele>1311.9</ele>
        <time>2026-05-28T12:16:44.000Z</time>
      </trkpt>
      <trkpt lat="44.04332" lon="3.50938">
        <ele>1312.3</ele>
        <time>2026-05-28T12:16:45.000Z</time>
      </trkpt>
      <trkpt lat="44.04332" lon="3.50939">
        <ele>1312.6</ele>
        <time>2026-05-28T12:16:46.000Z</time>
      </trkpt>
      <trkpt lat="44.04332" lon="3.50941">
        <ele>1312.6</ele>
        <time>2026-05-28T12:16:47.000Z</time>
      </trkpt>
      <trkpt lat="44.04333" lon="3.50941">
        <ele>1312.6</ele>
        <time>2026-05-28T12:16:48.000Z</time>
      </trkpt>
      <trkpt lat="44.04334" lon="3.50943">
        <ele>1312.6</ele>
        <time>2026-05-28T12:16:49.000Z</time>
      </trkpt>
      <trkpt lat="44.04335" lon="3.50944">
        <ele>1312.5</ele>
        <time>2026-05-28T12:16:50.000Z</time>
      </trkpt>
      <trkpt lat="44.04335" lon="3.50944">
        <ele>1312.8</ele>
        <time>2026-05-28T12:16:51.000Z</time>
      </trkpt>
      <trkpt lat="44.04335" lon="3.50944">
        <ele>1313.1</ele>
        <time>2026-05-28T12:16:52.000Z</time>
      </trkpt>
      <trkpt lat="44.04335" lon="3.50945">
        <ele>1313.2</ele>
        <time>2026-05-28T12:16:53.000Z</time>
      </trkpt>
      <trkpt lat="44.04336" lon="3.50946">
        <ele>1313.1</ele>
        <time>2026-05-28T12:16:54.000Z</time>
      </trkpt>
      <trkpt lat="44.04335" lon="3.50947">
        <ele>1313.5</ele>
        <time>2026-05-28T12:16:55.000Z</time>
      </trkpt>
      <trkpt lat="44.04334" lon="3.50948">
        <ele>1313.5</ele>
        <time>2026-05-28T12:16:56.000Z</time>
      </trkpt>
      <trkpt lat="44.04333" lon="3.50949">
        <ele>1313.3</ele>
        <time>2026-05-28T12:16:57.000Z</time>
      </trkpt>
      <trkpt lat="44.04333" lon="3.5095">
        <ele>1313.5</ele>
        <time>2026-05-28T12:16:58.000Z</time>
      </trkpt>
      <trkpt lat="44.04333" lon="3.50951">
        <ele>1313.7</ele>
        <time>2026-05-28T12:16:59.000Z</time>
      </trkpt>
      <trkpt lat="44.04333" lon="3.50953">
        <ele>1314.1</ele>
        <time>2026-05-28T12:17:00.000Z</time>
      </trkpt>
      <trkpt lat="44.04332" lon="3.50954">
        <ele>1314.4</ele>
        <time>2026-05-28T12:17:01.000Z</time>
      </trkpt>
      <trkpt lat="44.04332" lon="3.50955">
        <ele>1314.4</ele>
        <time>2026-05-28T12:17:02.000Z</time>
      </trkpt>
      <trkpt lat="44.04331" lon="3.50955">
        <ele>1314.5</ele>
        <time>2026-05-28T12:17:03.000Z</time>
      </trkpt>
      <trkpt lat="44.0433" lon="3.50956">
        <ele>1314.7</ele>
        <time>2026-05-28T12:17:04.000Z</time>
      </trkpt>
      <trkpt lat="44.04328" lon="3.50957">
        <ele>1314.8</ele>
        <time>2026-05-28T12:17:05.000Z</time>
      </trkpt>
      <trkpt lat="44.04327" lon="3.50958">
        <ele>1314.7</ele>
        <time>2026-05-28T12:17:06.000Z</time>
      </trkpt>
      <trkpt lat="44.04327" lon="3.50958">
        <ele>1314.9</ele>
        <time>2026-05-28T12:17:07.000Z</time>
      </trkpt>
      <trkpt lat="44.04326" lon="3.50958">
        <ele>1314.5</ele>
        <time>2026-05-28T12:17:08.000Z</time>
      </trkpt>
      <trkpt lat="44.04324" lon="3.50959">
        <ele>1314.4</ele>
        <time>2026-05-28T12:17:09.000Z</time>
      </trkpt>
      <trkpt lat="44.04322" lon="3.50959">
        <ele>1314.7</ele>
        <time>2026-05-28T12:17:10.000Z</time>
      </trkpt>
      <trkpt lat="44.04321" lon="3.50961">
        <ele>1314.7</ele>
        <time>2026-05-28T12:17:11.000Z</time>
      </trkpt>
      <trkpt lat="44.04321" lon="3.50961">
        <ele>1314.6</ele>
        <time>2026-05-28T12:17:12.000Z</time>
      </trkpt>
      <trkpt lat="44.0432" lon="3.50963">
        <ele>1314.5</ele>
        <time>2026-05-28T12:17:13.000Z</time>
      </trkpt>
      <trkpt lat="44.0432" lon="3.50964">
        <ele>1314</ele>
        <time>2026-05-28T12:17:14.000Z</time>
      </trkpt>
      <trkpt lat="44.04319" lon="3.50966">
        <ele>1313.5</ele>
        <time>2026-05-28T12:17:15.000Z</time>
      </trkpt>
      <trkpt lat="44.04319" lon="3.50968">
        <ele>1313.1</ele>
        <time>2026-05-28T12:17:16.000Z</time>
      </trkpt>
      <trkpt lat="44.04319" lon="3.50969">
        <ele>1312.6</ele>
        <time>2026-05-28T12:17:17.000Z</time>
      </trkpt>
      <trkpt lat="44.04319" lon="3.5097">
        <ele>1312.7</ele>
        <time>2026-05-28T12:17:18.000Z</time>
      </trkpt>
      <trkpt lat="44.04318" lon="3.5097">
        <ele>1312.7</ele>
        <time>2026-05-28T12:17:19.000Z</time>
      </trkpt>
      <trkpt lat="44.04317" lon="3.5097">
        <ele>1312.5</ele>
        <time>2026-05-28T12:17:20.000Z</time>
      </trkpt>
      <trkpt lat="44.04316" lon="3.5097">
        <ele>1312.1</ele>
        <time>2026-05-28T12:17:21.000Z</time>
      </trkpt>
      <trkpt lat="44.04315" lon="3.50971">
        <ele>1312</ele>
        <time>2026-05-28T12:17:22.000Z</time>
      </trkpt>
      <trkpt lat="44.04314" lon="3.50971">
        <ele>1312.2</ele>
        <time>2026-05-28T12:17:23.000Z</time>
      </trkpt>
      <trkpt lat="44.04313" lon="3.50972">
        <ele>1312.4</ele>
        <time>2026-05-28T12:17:24.000Z</time>
      </trkpt>
      <trkpt lat="44.04312" lon="3.50973">
        <ele>1312.7</ele>
        <time>2026-05-28T12:17:25.000Z</time>
      </trkpt>
      <trkpt lat="44.04311" lon="3.50974">
        <ele>1312.9</ele>
        <time>2026-05-28T12:17:26.000Z</time>
      </trkpt>
      <trkpt lat="44.0431" lon="3.50975">
        <ele>1312.8</ele>
        <time>2026-05-28T12:17:27.000Z</time>
      </trkpt>
      <trkpt lat="44.04308" lon="3.50976">
        <ele>1312.9</ele>
        <time>2026-05-28T12:17:28.000Z</time>
      </trkpt>
      <trkpt lat="44.04308" lon="3.50978">
        <ele>1313.2</ele>
        <time>2026-05-28T12:17:29.000Z</time>
      </trkpt>
      <trkpt lat="44.04306" lon="3.50979">
        <ele>1313.8</ele>
        <time>2026-05-28T12:17:30.000Z</time>
      </trkpt>
      <trkpt lat="44.04305" lon="3.5098">
        <ele>1314.3</ele>
        <time>2026-05-28T12:17:31.000Z</time>
      </trkpt>
      <trkpt lat="44.04304" lon="3.50981">
        <ele>1314.1</ele>
        <time>2026-05-28T12:17:32.000Z</time>
      </trkpt>
      <trkpt lat="44.04304" lon="3.50981">
        <ele>1313.9</ele>
        <time>2026-05-28T12:17:33.000Z</time>
      </trkpt>
      <trkpt lat="44.04303" lon="3.50982">
        <ele>1314.2</ele>
        <time>2026-05-28T12:17:34.000Z</time>
      </trkpt>
      <trkpt lat="44.04302" lon="3.50983">
        <ele>1314.6</ele>
        <time>2026-05-28T12:17:35.000Z</time>
      </trkpt>
      <trkpt lat="44.04301" lon="3.50983">
        <ele>1314.9</ele>
        <time>2026-05-28T12:17:36.000Z</time>
      </trkpt>
      <trkpt lat="44.043" lon="3.50983">
        <ele>1315.2</ele>
        <time>2026-05-28T12:17:37.000Z</time>
      </trkpt>
      <trkpt lat="44.04299" lon="3.50983">
        <ele>1315.3</ele>
        <time>2026-05-28T12:17:38.000Z</time>
      </trkpt>
      <trkpt lat="44.04298" lon="3.50984">
        <ele>1315.4</ele>
        <time>2026-05-28T12:17:39.000Z</time>
      </trkpt>
      <trkpt lat="44.04297" lon="3.50985">
        <ele>1315.9</ele>
        <time>2026-05-28T12:17:40.000Z</time>
      </trkpt>
      <trkpt lat="44.04296" lon="3.50986">
        <ele>1315.9</ele>
        <time>2026-05-28T12:17:41.000Z</time>
      </trkpt>
      <trkpt lat="44.04295" lon="3.50987">
        <ele>1315.7</ele>
        <time>2026-05-28T12:17:42.000Z</time>
      </trkpt>
      <trkpt lat="44.04294" lon="3.50988">
        <ele>1315.6</ele>
        <time>2026-05-28T12:17:43.000Z</time>
      </trkpt>
      <trkpt lat="44.04293" lon="3.5099">
        <ele>1315.5</ele>
        <time>2026-05-28T12:17:44.000Z</time>
      </trkpt>
      <trkpt lat="44.04293" lon="3.50991">
        <ele>1315.2</ele>
        <time>2026-05-28T12:17:45.000Z</time>
      </trkpt>
      <trkpt lat="44.04292" lon="3.50992">
        <ele>1315.2</ele>
        <time>2026-05-28T12:17:46.000Z</time>
      </trkpt>
      <trkpt lat="44.04292" lon="3.50993">
        <ele>1315.4</ele>
        <time>2026-05-28T12:17:47.000Z</time>
      </trkpt>
      <trkpt lat="44.04291" lon="3.50994">
        <ele>1315.4</ele>
        <time>2026-05-28T12:17:48.000Z</time>
      </trkpt>
      <trkpt lat="44.04292" lon="3.50995">
        <ele>1315.7</ele>
        <time>2026-05-28T12:17:49.000Z</time>
      </trkpt>
      <trkpt lat="44.04292" lon="3.50996">
        <ele>1315.6</ele>
        <time>2026-05-28T12:17:50.000Z</time>
      </trkpt>
      <trkpt lat="44.04291" lon="3.50996">
        <ele>1315</ele>
        <time>2026-05-28T12:17:51.000Z</time>
      </trkpt>
      <trkpt lat="44.0429" lon="3.50997">
        <ele>1314.9</ele>
        <time>2026-05-28T12:17:52.000Z</time>
      </trkpt>
      <trkpt lat="44.0429" lon="3.50997">
        <ele>1314.9</ele>
        <time>2026-05-28T12:17:53.000Z</time>
      </trkpt>
      <trkpt lat="44.04289" lon="3.50997">
        <ele>1315.2</ele>
        <time>2026-05-28T12:17:54.000Z</time>
      </trkpt>
      <trkpt lat="44.04288" lon="3.50997">
        <ele>1315.5</ele>
        <time>2026-05-28T12:17:55.000Z</time>
      </trkpt>
      <trkpt lat="44.04288" lon="3.50997">
        <ele>1315.6</ele>
        <time>2026-05-28T12:17:56.000Z</time>
      </trkpt>
      <trkpt lat="44.04288" lon="3.50997">
        <ele>1316.1</ele>
        <time>2026-05-28T12:17:57.000Z</time>
      </trkpt>
      <trkpt lat="44.04287" lon="3.50997">
        <ele>1316.4</ele>
        <time>2026-05-28T12:17:58.000Z</time>
      </trkpt>
      <trkpt lat="44.04285" lon="3.50997">
        <ele>1316.6</ele>
        <time>2026-05-28T12:17:59.000Z</time>
      </trkpt>
      <trkpt lat="44.04283" lon="3.50997">
        <ele>1317.3</ele>
        <time>2026-05-28T12:18:00.000Z</time>
      </trkpt>
      <trkpt lat="44.04281" lon="3.50998">
        <ele>1317.8</ele>
        <time>2026-05-28T12:18:01.000Z</time>
      </trkpt>
      <trkpt lat="44.0428" lon="3.50999">
        <ele>1317.8</ele>
        <time>2026-05-28T12:18:02.000Z</time>
      </trkpt>
      <trkpt lat="44.04279" lon="3.51">
        <ele>1317.7</ele>
        <time>2026-05-28T12:18:03.000Z</time>
      </trkpt>
      <trkpt lat="44.04279" lon="3.51002">
        <ele>1317.2</ele>
        <time>2026-05-28T12:18:04.000Z</time>
      </trkpt>
      <trkpt lat="44.04278" lon="3.51004">
        <ele>1316.3</ele>
        <time>2026-05-28T12:18:05.000Z</time>
      </trkpt>
      <trkpt lat="44.04278" lon="3.51005">
        <ele>1315.3</ele>
        <time>2026-05-28T12:18:06.000Z</time>
      </trkpt>
      <trkpt lat="44.04277" lon="3.51006">
        <ele>1314.8</ele>
        <time>2026-05-28T12:18:07.000Z</time>
      </trkpt>
      <trkpt lat="44.04276" lon="3.51007">
        <ele>1314.8</ele>
        <time>2026-05-28T12:18:08.000Z</time>
      </trkpt>
      <trkpt lat="44.04275" lon="3.51008">
        <ele>1314.7</ele>
        <time>2026-05-28T12:18:09.000Z</time>
      </trkpt>
      <trkpt lat="44.04275" lon="3.51009">
        <ele>1314.9</ele>
        <time>2026-05-28T12:18:10.000Z</time>
      </trkpt>
      <trkpt lat="44.04274" lon="3.5101">
        <ele>1315.1</ele>
        <time>2026-05-28T12:18:11.000Z</time>
      </trkpt>
      <trkpt lat="44.04274" lon="3.51011">
        <ele>1314.9</ele>
        <time>2026-05-28T12:18:12.000Z</time>
      </trkpt>
      <trkpt lat="44.04273" lon="3.51012">
        <ele>1314.6</ele>
        <time>2026-05-28T12:18:13.000Z</time>
      </trkpt>
      <trkpt lat="44.04272" lon="3.51013">
        <ele>1314.5</ele>
        <time>2026-05-28T12:18:14.000Z</time>
      </trkpt>
      <trkpt lat="44.04271" lon="3.51014">
        <ele>1314.5</ele>
        <time>2026-05-28T12:18:15.000Z</time>
      </trkpt>
      <trkpt lat="44.0427" lon="3.51016">
        <ele>1314.4</ele>
        <time>2026-05-28T12:18:16.000Z</time>
      </trkpt>
      <trkpt lat="44.04269" lon="3.51017">
        <ele>1313.9</ele>
        <time>2026-05-28T12:18:17.000Z</time>
      </trkpt>
      <trkpt lat="44.04268" lon="3.51017">
        <ele>1313.5</ele>
        <time>2026-05-28T12:18:18.000Z</time>
      </trkpt>
      <trkpt lat="44.04267" lon="3.51018">
        <ele>1313.1</ele>
        <time>2026-05-28T12:18:19.000Z</time>
      </trkpt>
      <trkpt lat="44.04267" lon="3.51018">
        <ele>1313</ele>
        <time>2026-05-28T12:18:20.000Z</time>
      </trkpt>
      <trkpt lat="44.04266" lon="3.5102">
        <ele>1312.7</ele>
        <time>2026-05-28T12:18:21.000Z</time>
      </trkpt>
      <trkpt lat="44.04266" lon="3.5102">
        <ele>1312.8</ele>
        <time>2026-05-28T12:18:22.000Z</time>
      </trkpt>
      <trkpt lat="44.04265" lon="3.5102">
        <ele>1312.9</ele>
        <time>2026-05-28T12:18:23.000Z</time>
      </trkpt>
      <trkpt lat="44.04264" lon="3.51019">
        <ele>1312.6</ele>
        <time>2026-05-28T12:18:24.000Z</time>
      </trkpt>
      <trkpt lat="44.04263" lon="3.51019">
        <ele>1311.8</ele>
        <time>2026-05-28T12:18:25.000Z</time>
      </trkpt>
      <trkpt lat="44.04262" lon="3.51019">
        <ele>1311.4</ele>
        <time>2026-05-28T12:18:26.000Z</time>
      </trkpt>
      <trkpt lat="44.04261" lon="3.51019">
        <ele>1311.1</ele>
        <time>2026-05-28T12:18:27.000Z</time>
      </trkpt>
      <trkpt lat="44.04259" lon="3.5102">
        <ele>1311.1</ele>
        <time>2026-05-28T12:18:28.000Z</time>
      </trkpt>
      <trkpt lat="44.04258" lon="3.51021">
        <ele>1311.2</ele>
        <time>2026-05-28T12:18:29.000Z</time>
      </trkpt>
      <trkpt lat="44.04257" lon="3.51022">
        <ele>1311.1</ele>
        <time>2026-05-28T12:18:30.000Z</time>
      </trkpt>
      <trkpt lat="44.04257" lon="3.51022">
        <ele>1311.2</ele>
        <time>2026-05-28T12:18:31.000Z</time>
      </trkpt>
      <trkpt lat="44.04256" lon="3.51021">
        <ele>1310.9</ele>
        <time>2026-05-28T12:18:32.000Z</time>
      </trkpt>
      <trkpt lat="44.04255" lon="3.51021">
        <ele>1310.6</ele>
        <time>2026-05-28T12:18:33.000Z</time>
      </trkpt>
      <trkpt lat="44.04254" lon="3.51021">
        <ele>1310.1</ele>
        <time>2026-05-28T12:18:34.000Z</time>
      </trkpt>
      <trkpt lat="44.04252" lon="3.51021">
        <ele>1309.6</ele>
        <time>2026-05-28T12:18:35.000Z</time>
      </trkpt>
      <trkpt lat="44.0425" lon="3.51021">
        <ele>1309.4</ele>
        <time>2026-05-28T12:18:36.000Z</time>
      </trkpt>
      <trkpt lat="44.0425" lon="3.51023">
        <ele>1309</ele>
        <time>2026-05-28T12:18:37.000Z</time>
      </trkpt>
      <trkpt lat="44.04249" lon="3.51023">
        <ele>1308.7</ele>
        <time>2026-05-28T12:18:38.000Z</time>
      </trkpt>
      <trkpt lat="44.04248" lon="3.51024">
        <ele>1308.8</ele>
        <time>2026-05-28T12:18:39.000Z</time>
      </trkpt>
      <trkpt lat="44.04248" lon="3.51025">
        <ele>1309.1</ele>
        <time>2026-05-28T12:18:40.000Z</time>
      </trkpt>
      <trkpt lat="44.04248" lon="3.51027">
        <ele>1309.2</ele>
        <time>2026-05-28T12:18:41.000Z</time>
      </trkpt>
      <trkpt lat="44.04247" lon="3.51028">
        <ele>1309</ele>
        <time>2026-05-28T12:18:42.000Z</time>
      </trkpt>
      <trkpt lat="44.04246" lon="3.51029">
        <ele>1308.8</ele>
        <time>2026-05-28T12:18:43.000Z</time>
      </trkpt>
      <trkpt lat="44.04246" lon="3.51029">
        <ele>1309.2</ele>
        <time>2026-05-28T12:18:44.000Z</time>
      </trkpt>
      <trkpt lat="44.04244" lon="3.5103">
        <ele>1309.2</ele>
        <time>2026-05-28T12:18:45.000Z</time>
      </trkpt>
      <trkpt lat="44.04243" lon="3.5103">
        <ele>1309.2</ele>
        <time>2026-05-28T12:18:46.000Z</time>
      </trkpt>
      <trkpt lat="44.04242" lon="3.5103">
        <ele>1309.5</ele>
        <time>2026-05-28T12:18:47.000Z</time>
      </trkpt>
      <trkpt lat="44.04241" lon="3.51031">
        <ele>1309.8</ele>
        <time>2026-05-28T12:18:48.000Z</time>
      </trkpt>
      <trkpt lat="44.0424" lon="3.51031">
        <ele>1309.9</ele>
        <time>2026-05-28T12:18:49.000Z</time>
      </trkpt>
      <trkpt lat="44.0424" lon="3.51032">
        <ele>1310.1</ele>
        <time>2026-05-28T12:18:50.000Z</time>
      </trkpt>
      <trkpt lat="44.04239" lon="3.51033">
        <ele>1309.8</ele>
        <time>2026-05-28T12:18:51.000Z</time>
      </trkpt>
      <trkpt lat="44.04238" lon="3.51033">
        <ele>1309.6</ele>
        <time>2026-05-28T12:18:52.000Z</time>
      </trkpt>
      <trkpt lat="44.04238" lon="3.51033">
        <ele>1309.4</ele>
        <time>2026-05-28T12:18:53.000Z</time>
      </trkpt>
      <trkpt lat="44.04237" lon="3.51033">
        <ele>1309.4</ele>
        <time>2026-05-28T12:18:54.000Z</time>
      </trkpt>
      <trkpt lat="44.04235" lon="3.51033">
        <ele>1309.7</ele>
        <time>2026-05-28T12:18:55.000Z</time>
      </trkpt>
      <trkpt lat="44.04234" lon="3.51034">
        <ele>1309.9</ele>
        <time>2026-05-28T12:18:56.000Z</time>
      </trkpt>
      <trkpt lat="44.04233" lon="3.51034">
        <ele>1310</ele>
        <time>2026-05-28T12:18:57.000Z</time>
      </trkpt>
      <trkpt lat="44.04232" lon="3.51035">
        <ele>1309.8</ele>
        <time>2026-05-28T12:18:58.000Z</time>
      </trkpt>
      <trkpt lat="44.04231" lon="3.51036">
        <ele>1310</ele>
        <time>2026-05-28T12:18:59.000Z</time>
      </trkpt>
      <trkpt lat="44.0423" lon="3.51036">
        <ele>1310.4</ele>
        <time>2026-05-28T12:19:00.000Z</time>
      </trkpt>
      <trkpt lat="44.04229" lon="3.51037">
        <ele>1310.5</ele>
        <time>2026-05-28T12:19:01.000Z</time>
      </trkpt>
      <trkpt lat="44.04228" lon="3.51038">
        <ele>1310.7</ele>
        <time>2026-05-28T12:19:02.000Z</time>
      </trkpt>
      <trkpt lat="44.04227" lon="3.51039">
        <ele>1310.7</ele>
        <time>2026-05-28T12:19:03.000Z</time>
      </trkpt>
      <trkpt lat="44.04226" lon="3.51038">
        <ele>1310.9</ele>
        <time>2026-05-28T12:19:04.000Z</time>
      </trkpt>
      <trkpt lat="44.04225" lon="3.51039">
        <ele>1310.9</ele>
        <time>2026-05-28T12:19:05.000Z</time>
      </trkpt>
      <trkpt lat="44.04224" lon="3.51039">
        <ele>1310.6</ele>
        <time>2026-05-28T12:19:06.000Z</time>
      </trkpt>
      <trkpt lat="44.04223" lon="3.5104">
        <ele>1310.2</ele>
        <time>2026-05-28T12:19:07.000Z</time>
      </trkpt>
      <trkpt lat="44.04222" lon="3.51041">
        <ele>1310.4</ele>
        <time>2026-05-28T12:19:08.000Z</time>
      </trkpt>
      <trkpt lat="44.04221" lon="3.51041">
        <ele>1310</ele>
        <time>2026-05-28T12:19:09.000Z</time>
      </trkpt>
      <trkpt lat="44.0422" lon="3.51042">
        <ele>1309.7</ele>
        <time>2026-05-28T12:19:10.000Z</time>
      </trkpt>
      <trkpt lat="44.04219" lon="3.51042">
        <ele>1309.5</ele>
        <time>2026-05-28T12:19:11.000Z</time>
      </trkpt>
      <trkpt lat="44.04219" lon="3.51042">
        <ele>1309.3</ele>
        <time>2026-05-28T12:19:12.000Z</time>
      </trkpt>
      <trkpt lat="44.04218" lon="3.51042">
        <ele>1309.4</ele>
        <time>2026-05-28T12:19:13.000Z</time>
      </trkpt>
      <trkpt lat="44.04217" lon="3.51043">
        <ele>1309.7</ele>
        <time>2026-05-28T12:19:14.000Z</time>
      </trkpt>
      <trkpt lat="44.04217" lon="3.51043">
        <ele>1309.5</ele>
        <time>2026-05-28T12:19:15.000Z</time>
      </trkpt>
      <trkpt lat="44.04216" lon="3.51045">
        <ele>1309.4</ele>
        <time>2026-05-28T12:19:16.000Z</time>
      </trkpt>
      <trkpt lat="44.04215" lon="3.51047">
        <ele>1308.9</ele>
        <time>2026-05-28T12:19:17.000Z</time>
      </trkpt>
      <trkpt lat="44.04214" lon="3.51048">
        <ele>1308.6</ele>
        <time>2026-05-28T12:19:18.000Z</time>
      </trkpt>
      <trkpt lat="44.04213" lon="3.51049">
        <ele>1308.3</ele>
        <time>2026-05-28T12:19:19.000Z</time>
      </trkpt>
      <trkpt lat="44.04213" lon="3.51049">
        <ele>1308.5</ele>
        <time>2026-05-28T12:19:20.000Z</time>
      </trkpt>
      <trkpt lat="44.04212" lon="3.5105">
        <ele>1308.4</ele>
        <time>2026-05-28T12:19:21.000Z</time>
      </trkpt>
      <trkpt lat="44.04211" lon="3.51051">
        <ele>1307.9</ele>
        <time>2026-05-28T12:19:22.000Z</time>
      </trkpt>
      <trkpt lat="44.0421" lon="3.51051">
        <ele>1307.7</ele>
        <time>2026-05-28T12:19:23.000Z</time>
      </trkpt>
      <trkpt lat="44.0421" lon="3.51051">
        <ele>1307.2</ele>
        <time>2026-05-28T12:19:24.000Z</time>
      </trkpt>
      <trkpt lat="44.04209" lon="3.5105">
        <ele>1307</ele>
        <time>2026-05-28T12:19:25.000Z</time>
      </trkpt>
      <trkpt lat="44.04209" lon="3.5105">
        <ele>1306.9</ele>
        <time>2026-05-28T12:19:26.000Z</time>
      </trkpt>
      <trkpt lat="44.04208" lon="3.5105">
        <ele>1306.9</ele>
        <time>2026-05-28T12:19:27.000Z</time>
      </trkpt>
      <trkpt lat="44.04208" lon="3.5105">
        <ele>1306.7</ele>
        <time>2026-05-28T12:19:28.000Z</time>
      </trkpt>
      <trkpt lat="44.04207" lon="3.51049">
        <ele>1306.1</ele>
        <time>2026-05-28T12:19:29.000Z</time>
      </trkpt>
      <trkpt lat="44.04205" lon="3.51049">
        <ele>1306.3</ele>
        <time>2026-05-28T12:19:30.000Z</time>
      </trkpt>
      <trkpt lat="44.04204" lon="3.5105">
        <ele>1306.6</ele>
        <time>2026-05-28T12:19:31.000Z</time>
      </trkpt>
      <trkpt lat="44.04203" lon="3.51051">
        <ele>1306.5</ele>
        <time>2026-05-28T12:19:32.000Z</time>
      </trkpt>
      <trkpt lat="44.04202" lon="3.51051">
        <ele>1306.7</ele>
        <time>2026-05-28T12:19:33.000Z</time>
      </trkpt>
      <trkpt lat="44.04201" lon="3.51052">
        <ele>1306.7</ele>
        <time>2026-05-28T12:19:34.000Z</time>
      </trkpt>
      <trkpt lat="44.042" lon="3.51052">
        <ele>1306.5</ele>
        <time>2026-05-28T12:19:35.000Z</time>
      </trkpt>
      <trkpt lat="44.042" lon="3.51051">
        <ele>1306.2</ele>
        <time>2026-05-28T12:19:36.000Z</time>
      </trkpt>
      <trkpt lat="44.04199" lon="3.51049">
        <ele>1306.1</ele>
        <time>2026-05-28T12:19:37.000Z</time>
      </trkpt>
      <trkpt lat="44.04197" lon="3.51049">
        <ele>1305.9</ele>
        <time>2026-05-28T12:19:38.000Z</time>
      </trkpt>
      <trkpt lat="44.04197" lon="3.51048">
        <ele>1305.9</ele>
        <time>2026-05-28T12:19:39.000Z</time>
      </trkpt>
      <trkpt lat="44.04196" lon="3.51047">
        <ele>1305.8</ele>
        <time>2026-05-28T12:19:40.000Z</time>
      </trkpt>
      <trkpt lat="44.04195" lon="3.51047">
        <ele>1305.7</ele>
        <time>2026-05-28T12:19:41.000Z</time>
      </trkpt>
      <trkpt lat="44.04195" lon="3.51046">
        <ele>1305.4</ele>
        <time>2026-05-28T12:19:42.000Z</time>
      </trkpt>
      <trkpt lat="44.04195" lon="3.51045">
        <ele>1305.2</ele>
        <time>2026-05-28T12:19:43.000Z</time>
      </trkpt>
      <trkpt lat="44.04194" lon="3.51044">
        <ele>1305.1</ele>
        <time>2026-05-28T12:19:44.000Z</time>
      </trkpt>
      <trkpt lat="44.04194" lon="3.51043">
        <ele>1305.3</ele>
        <time>2026-05-28T12:19:45.000Z</time>
      </trkpt>
      <trkpt lat="44.04194" lon="3.51042">
        <ele>1305.5</ele>
        <time>2026-05-28T12:19:46.000Z</time>
      </trkpt>
      <trkpt lat="44.04193" lon="3.51042">
        <ele>1305.4</ele>
        <time>2026-05-28T12:19:47.000Z</time>
      </trkpt>
      <trkpt lat="44.04193" lon="3.51041">
        <ele>1305.5</ele>
        <time>2026-05-28T12:19:48.000Z</time>
      </trkpt>
      <trkpt lat="44.04192" lon="3.5104">
        <ele>1305.4</ele>
        <time>2026-05-28T12:19:49.000Z</time>
      </trkpt>
      <trkpt lat="44.04191" lon="3.51039">
        <ele>1305.2</ele>
        <time>2026-05-28T12:19:50.000Z</time>
      </trkpt>
      <trkpt lat="44.0419" lon="3.51038">
        <ele>1304.9</ele>
        <time>2026-05-28T12:19:51.000Z</time>
      </trkpt>
      <trkpt lat="44.04189" lon="3.51038">
        <ele>1304.4</ele>
        <time>2026-05-28T12:19:52.000Z</time>
      </trkpt>
      <trkpt lat="44.04188" lon="3.51038">
        <ele>1304</ele>
        <time>2026-05-28T12:19:53.000Z</time>
      </trkpt>
      <trkpt lat="44.04187" lon="3.51038">
        <ele>1303.3</ele>
        <time>2026-05-28T12:19:54.000Z</time>
      </trkpt>
      <trkpt lat="44.04186" lon="3.51037">
        <ele>1303.4</ele>
        <time>2026-05-28T12:19:55.000Z</time>
      </trkpt>
      <trkpt lat="44.04185" lon="3.51038">
        <ele>1303.1</ele>
        <time>2026-05-28T12:19:56.000Z</time>
      </trkpt>
      <trkpt lat="44.04185" lon="3.51038">
        <ele>1302.8</ele>
        <time>2026-05-28T12:19:57.000Z</time>
      </trkpt>
      <trkpt lat="44.04184" lon="3.51038">
        <ele>1302.3</ele>
        <time>2026-05-28T12:19:58.000Z</time>
      </trkpt>
      <trkpt lat="44.04183" lon="3.51039">
        <ele>1301.8</ele>
        <time>2026-05-28T12:19:59.000Z</time>
      </trkpt>
      <trkpt lat="44.04183" lon="3.5104">
        <ele>1301.4</ele>
        <time>2026-05-28T12:20:00.000Z</time>
      </trkpt>
      <trkpt lat="44.04182" lon="3.5104">
        <ele>1300.6</ele>
        <time>2026-05-28T12:20:01.000Z</time>
      </trkpt>
      <trkpt lat="44.04182" lon="3.51041">
        <ele>1299.9</ele>
        <time>2026-05-28T12:20:02.000Z</time>
      </trkpt>
      <trkpt lat="44.04181" lon="3.51042">
        <ele>1298.7</ele>
        <time>2026-05-28T12:20:03.999Z</time>
      </trkpt>
      <trkpt lat="44.0418" lon="3.51042">
        <ele>1298.7</ele>
        <time>2026-05-28T12:20:04.999Z</time>
      </trkpt>
      <trkpt lat="44.04179" lon="3.51043">
        <ele>1298.3</ele>
        <time>2026-05-28T12:20:05.999Z</time>
      </trkpt>
      <trkpt lat="44.04179" lon="3.51044">
        <ele>1297.8</ele>
        <time>2026-05-28T12:20:06.999Z</time>
      </trkpt>
      <trkpt lat="44.04178" lon="3.51045">
        <ele>1297.2</ele>
        <time>2026-05-28T12:20:07.999Z</time>
      </trkpt>
      <trkpt lat="44.04178" lon="3.51045">
        <ele>1297</ele>
        <time>2026-05-28T12:20:08.999Z</time>
      </trkpt>
      <trkpt lat="44.04177" lon="3.51046">
        <ele>1296.5</ele>
        <time>2026-05-28T12:20:09.999Z</time>
      </trkpt>
      <trkpt lat="44.04176" lon="3.51046">
        <ele>1296.8</ele>
        <time>2026-05-28T12:20:10.999Z</time>
      </trkpt>
      <trkpt lat="44.04175" lon="3.51047">
        <ele>1296.8</ele>
        <time>2026-05-28T12:20:11.999Z</time>
      </trkpt>
      <trkpt lat="44.04174" lon="3.51048">
        <ele>1297.3</ele>
        <time>2026-05-28T12:20:12.999Z</time>
      </trkpt>
      <trkpt lat="44.04172" lon="3.51049">
        <ele>1297.8</ele>
        <time>2026-05-28T12:20:13.999Z</time>
      </trkpt>
      <trkpt lat="44.04171" lon="3.5105">
        <ele>1298</ele>
        <time>2026-05-28T12:20:14.999Z</time>
      </trkpt>
      <trkpt lat="44.0417" lon="3.5105">
        <ele>1298</ele>
        <time>2026-05-28T12:20:15.999Z</time>
      </trkpt>
      <trkpt lat="44.04169" lon="3.5105">
        <ele>1297.4</ele>
        <time>2026-05-28T12:20:16.999Z</time>
      </trkpt>
      <trkpt lat="44.04168" lon="3.5105">
        <ele>1297.1</ele>
        <time>2026-05-28T12:20:17.999Z</time>
      </trkpt>
      <trkpt lat="44.04167" lon="3.5105">
        <ele>1296.6</ele>
        <time>2026-05-28T12:20:18.999Z</time>
      </trkpt>
      <trkpt lat="44.04166" lon="3.5105">
        <ele>1296.3</ele>
        <time>2026-05-28T12:20:19.999Z</time>
      </trkpt>
      <trkpt lat="44.04165" lon="3.5105">
        <ele>1296.4</ele>
        <time>2026-05-28T12:20:20.999Z</time>
      </trkpt>
      <trkpt lat="44.04164" lon="3.5105">
        <ele>1296.6</ele>
        <time>2026-05-28T12:20:21.999Z</time>
      </trkpt>
      <trkpt lat="44.04164" lon="3.51051">
        <ele>1296</ele>
        <time>2026-05-28T12:20:22.999Z</time>
      </trkpt>
      <trkpt lat="44.04164" lon="3.51052">
        <ele>1295.4</ele>
        <time>2026-05-28T12:20:23.999Z</time>
      </trkpt>
      <trkpt lat="44.04163" lon="3.51052">
        <ele>1296</ele>
        <time>2026-05-28T12:20:24.999Z</time>
      </trkpt>
      <trkpt lat="44.04162" lon="3.51053">
        <ele>1296.7</ele>
        <time>2026-05-28T12:20:25.999Z</time>
      </trkpt>
      <trkpt lat="44.04161" lon="3.51052">
        <ele>1296.5</ele>
        <time>2026-05-28T12:20:26.999Z</time>
      </trkpt>
      <trkpt lat="44.0416" lon="3.51053">
        <ele>1296.2</ele>
        <time>2026-05-28T12:20:27.999Z</time>
      </trkpt>
      <trkpt lat="44.04159" lon="3.51054">
        <ele>1296.5</ele>
        <time>2026-05-28T12:20:28.999Z</time>
      </trkpt>
      <trkpt lat="44.04158" lon="3.51053">
        <ele>1296.9</ele>
        <time>2026-05-28T12:20:29.999Z</time>
      </trkpt>
      <trkpt lat="44.04158" lon="3.51052">
        <ele>1297.3</ele>
        <time>2026-05-28T12:20:30.999Z</time>
      </trkpt>
      <trkpt lat="44.04158" lon="3.51052">
        <ele>1297.6</ele>
        <time>2026-05-28T12:20:31.999Z</time>
      </trkpt>
      <trkpt lat="44.04157" lon="3.51052">
        <ele>1297.4</ele>
        <time>2026-05-28T12:20:32.999Z</time>
      </trkpt>
      <trkpt lat="44.04158" lon="3.51053">
        <ele>1297</ele>
        <time>2026-05-28T12:20:33.999Z</time>
      </trkpt>
      <trkpt lat="44.04158" lon="3.51052">
        <ele>1296.3</ele>
        <time>2026-05-28T12:20:34.999Z</time>
      </trkpt>
      <trkpt lat="44.04158" lon="3.51052">
        <ele>1296.7</ele>
        <time>2026-05-28T12:20:35.999Z</time>
      </trkpt>
      <trkpt lat="44.04158" lon="3.51052">
        <ele>1297.2</ele>
        <time>2026-05-28T12:20:36.999Z</time>
      </trkpt>
      <trkpt lat="44.04158" lon="3.51052">
        <ele>1297.5</ele>
        <time>2026-05-28T12:20:37.999Z</time>
      </trkpt>
      <trkpt lat="44.04157" lon="3.51052">
        <ele>1298.2</ele>
        <time>2026-05-28T12:20:38.999Z</time>
      </trkpt>
      <trkpt lat="44.04157" lon="3.51053">
        <ele>1298.4</ele>
        <time>2026-05-28T12:20:39.999Z</time>
      </trkpt>
      <trkpt lat="44.04156" lon="3.51053">
        <ele>1299</ele>
        <time>2026-05-28T12:20:40.999Z</time>
      </trkpt>
      <trkpt lat="44.04156" lon="3.51053">
        <ele>1299.3</ele>
        <time>2026-05-28T12:20:41.999Z</time>
      </trkpt>
      <trkpt lat="44.04155" lon="3.51053">
        <ele>1299.7</ele>
        <time>2026-05-28T12:20:42.999Z</time>
      </trkpt>
      <trkpt lat="44.04155" lon="3.51053">
        <ele>1299.6</ele>
        <time>2026-05-28T12:20:43.999Z</time>
      </trkpt>
      <trkpt lat="44.04154" lon="3.51053">
        <ele>1299.8</ele>
        <time>2026-05-28T12:20:44.999Z</time>
      </trkpt>
      <trkpt lat="44.04153" lon="3.51052">
        <ele>1300.5</ele>
        <time>2026-05-28T12:20:45.999Z</time>
      </trkpt>
      <trkpt lat="44.04152" lon="3.51051">
        <ele>1300.7</ele>
        <time>2026-05-28T12:20:46.999Z</time>
      </trkpt>
      <trkpt lat="44.04151" lon="3.51051">
        <ele>1300.8</ele>
        <time>2026-05-28T12:20:47.999Z</time>
      </trkpt>
      <trkpt lat="44.0415" lon="3.5105">
        <ele>1301.1</ele>
        <time>2026-05-28T12:20:48.999Z</time>
      </trkpt>
      <trkpt lat="44.04149" lon="3.51051">
        <ele>1301.1</ele>
        <time>2026-05-28T12:20:49.999Z</time>
      </trkpt>
      <trkpt lat="44.04149" lon="3.51051">
        <ele>1301.1</ele>
        <time>2026-05-28T12:20:50.999Z</time>
      </trkpt>
      <trkpt lat="44.04148" lon="3.51051">
        <ele>1301.3</ele>
        <time>2026-05-28T12:20:51.999Z</time>
      </trkpt>
      <trkpt lat="44.04145" lon="3.51049">
        <ele>1301.5</ele>
        <time>2026-05-28T12:20:53.999Z</time>
      </trkpt>
      <trkpt lat="44.04145" lon="3.51049">
        <ele>1302</ele>
        <time>2026-05-28T12:20:54.999Z</time>
      </trkpt>
      <trkpt lat="44.04143" lon="3.51048">
        <ele>1301.8</ele>
        <time>2026-05-28T12:20:55.999Z</time>
      </trkpt>
      <trkpt lat="44.04142" lon="3.51048">
        <ele>1301.2</ele>
        <time>2026-05-28T12:20:56.999Z</time>
      </trkpt>
      <trkpt lat="44.04142" lon="3.51047">
        <ele>1300.4</ele>
        <time>2026-05-28T12:20:57.999Z</time>
      </trkpt>
      <trkpt lat="44.04141" lon="3.51046">
        <ele>1300</ele>
        <time>2026-05-28T12:20:58.999Z</time>
      </trkpt>
      <trkpt lat="44.04141" lon="3.51046">
        <ele>1299.8</ele>
        <time>2026-05-28T12:20:59.999Z</time>
      </trkpt>
      <trkpt lat="44.0414" lon="3.51046">
        <ele>1299.5</ele>
        <time>2026-05-28T12:21:00.999Z</time>
      </trkpt>
      <trkpt lat="44.04139" lon="3.51046">
        <ele>1299.2</ele>
        <time>2026-05-28T12:21:01.999Z</time>
      </trkpt>
      <trkpt lat="44.04138" lon="3.51047">
        <ele>1298.9</ele>
        <time>2026-05-28T12:21:02.999Z</time>
      </trkpt>
      <trkpt lat="44.04137" lon="3.51047">
        <ele>1298.7</ele>
        <time>2026-05-28T12:21:03.999Z</time>
      </trkpt>
      <trkpt lat="44.04136" lon="3.51047">
        <ele>1298.4</ele>
        <time>2026-05-28T12:21:04.999Z</time>
      </trkpt>
      <trkpt lat="44.04136" lon="3.51046">
        <ele>1298.2</ele>
        <time>2026-05-28T12:21:05.999Z</time>
      </trkpt>
      <trkpt lat="44.04135" lon="3.51045">
        <ele>1298.6</ele>
        <time>2026-05-28T12:21:06.999Z</time>
      </trkpt>
      <trkpt lat="44.04134" lon="3.51044">
        <ele>1298.4</ele>
        <time>2026-05-28T12:21:07.999Z</time>
      </trkpt>
      <trkpt lat="44.04132" lon="3.51043">
        <ele>1298.6</ele>
        <time>2026-05-28T12:21:08.999Z</time>
      </trkpt>
      <trkpt lat="44.04131" lon="3.51043">
        <ele>1298.6</ele>
        <time>2026-05-28T12:21:09.999Z</time>
      </trkpt>
      <trkpt lat="44.0413" lon="3.51042">
        <ele>1299</ele>
        <time>2026-05-28T12:21:10.999Z</time>
      </trkpt>
      <trkpt lat="44.04129" lon="3.51042">
        <ele>1299.2</ele>
        <time>2026-05-28T12:21:11.999Z</time>
      </trkpt>
      <trkpt lat="44.04129" lon="3.51042">
        <ele>1299.2</ele>
        <time>2026-05-28T12:21:12.999Z</time>
      </trkpt>
      <trkpt lat="44.04129" lon="3.51041">
        <ele>1299.4</ele>
        <time>2026-05-28T12:21:13.999Z</time>
      </trkpt>
      <trkpt lat="44.04128" lon="3.51041">
        <ele>1299.6</ele>
        <time>2026-05-28T12:21:14.999Z</time>
      </trkpt>
      <trkpt lat="44.04128" lon="3.5104">
        <ele>1299.8</ele>
        <time>2026-05-28T12:21:15.999Z</time>
      </trkpt>
      <trkpt lat="44.04127" lon="3.51038">
        <ele>1300.1</ele>
        <time>2026-05-28T12:21:16.999Z</time>
      </trkpt>
      <trkpt lat="44.04127" lon="3.51038">
        <ele>1300.4</ele>
        <time>2026-05-28T12:21:17.999Z</time>
      </trkpt>
      <trkpt lat="44.04126" lon="3.51036">
        <ele>1300.6</ele>
        <time>2026-05-28T12:21:18.999Z</time>
      </trkpt>
      <trkpt lat="44.04126" lon="3.51036">
        <ele>1300.7</ele>
        <time>2026-05-28T12:21:19.999Z</time>
      </trkpt>
      <trkpt lat="44.04125" lon="3.51036">
        <ele>1300.4</ele>
        <time>2026-05-28T12:21:20.999Z</time>
      </trkpt>
      <trkpt lat="44.04124" lon="3.51035">
        <ele>1300.5</ele>
        <time>2026-05-28T12:21:21.999Z</time>
      </trkpt>
      <trkpt lat="44.04124" lon="3.51035">
        <ele>1300.5</ele>
        <time>2026-05-28T12:21:22.999Z</time>
      </trkpt>
      <trkpt lat="44.04123" lon="3.51034">
        <ele>1301</ele>
        <time>2026-05-28T12:21:23.999Z</time>
      </trkpt>
      <trkpt lat="44.04123" lon="3.51034">
        <ele>1301.2</ele>
        <time>2026-05-28T12:21:24.999Z</time>
      </trkpt>
      <trkpt lat="44.04123" lon="3.51034">
        <ele>1300.7</ele>
        <time>2026-05-28T12:21:25.999Z</time>
      </trkpt>
      <trkpt lat="44.04123" lon="3.51035">
        <ele>1300.5</ele>
        <time>2026-05-28T12:21:26.999Z</time>
      </trkpt>
      <trkpt lat="44.04123" lon="3.51035">
        <ele>1300.6</ele>
        <time>2026-05-28T12:21:27.999Z</time>
      </trkpt>
      <trkpt lat="44.04123" lon="3.51036">
        <ele>1300.8</ele>
        <time>2026-05-28T12:21:28.999Z</time>
      </trkpt>
      <trkpt lat="44.04123" lon="3.51036">
        <ele>1301.3</ele>
        <time>2026-05-28T12:21:29.999Z</time>
      </trkpt>
      <trkpt lat="44.04122" lon="3.51036">
        <ele>1301.5</ele>
        <time>2026-05-28T12:21:30.999Z</time>
      </trkpt>
      <trkpt lat="44.04121" lon="3.51036">
        <ele>1301.6</ele>
        <time>2026-05-28T12:21:31.999Z</time>
      </trkpt>
      <trkpt lat="44.0412" lon="3.51036">
        <ele>1302</ele>
        <time>2026-05-28T12:21:32.999Z</time>
      </trkpt>
      <trkpt lat="44.04119" lon="3.51035">
        <ele>1302.1</ele>
        <time>2026-05-28T12:21:33.999Z</time>
      </trkpt>
      <trkpt lat="44.04117" lon="3.51035">
        <ele>1302.2</ele>
        <time>2026-05-28T12:21:34.999Z</time>
      </trkpt>
      <trkpt lat="44.04117" lon="3.51035">
        <ele>1302.3</ele>
        <time>2026-05-28T12:21:35.999Z</time>
      </trkpt>
      <trkpt lat="44.04116" lon="3.51035">
        <ele>1302.6</ele>
        <time>2026-05-28T12:21:36.999Z</time>
      </trkpt>
      <trkpt lat="44.04114" lon="3.51036">
        <ele>1303.3</ele>
        <time>2026-05-28T12:21:37.999Z</time>
      </trkpt>
      <trkpt lat="44.04114" lon="3.51035">
        <ele>1303.9</ele>
        <time>2026-05-28T12:21:38.999Z</time>
      </trkpt>
      <trkpt lat="44.04113" lon="3.51036">
        <ele>1304.3</ele>
        <time>2026-05-28T12:21:39.999Z</time>
      </trkpt>
      <trkpt lat="44.04112" lon="3.51036">
        <ele>1304.8</ele>
        <time>2026-05-28T12:21:40.999Z</time>
      </trkpt>
      <trkpt lat="44.04111" lon="3.51035">
        <ele>1305.2</ele>
        <time>2026-05-28T12:21:41.999Z</time>
      </trkpt>
      <trkpt lat="44.0411" lon="3.51035">
        <ele>1305.3</ele>
        <time>2026-05-28T12:21:42.999Z</time>
      </trkpt>
      <trkpt lat="44.04109" lon="3.51035">
        <ele>1305.8</ele>
        <time>2026-05-28T12:21:43.999Z</time>
      </trkpt>
      <trkpt lat="44.04108" lon="3.51035">
        <ele>1306.4</ele>
        <time>2026-05-28T12:21:44.999Z</time>
      </trkpt>
      <trkpt lat="44.04107" lon="3.51035">
        <ele>1306.5</ele>
        <time>2026-05-28T12:21:45.999Z</time>
      </trkpt>
      <trkpt lat="44.04106" lon="3.51035">
        <ele>1306.7</ele>
        <time>2026-05-28T12:21:46.999Z</time>
      </trkpt>
      <trkpt lat="44.04105" lon="3.51035">
        <ele>1307.4</ele>
        <time>2026-05-28T12:21:47.999Z</time>
      </trkpt>
      <trkpt lat="44.04104" lon="3.51035">
        <ele>1307.4</ele>
        <time>2026-05-28T12:21:48.999Z</time>
      </trkpt>
      <trkpt lat="44.04104" lon="3.51034">
        <ele>1307.8</ele>
        <time>2026-05-28T12:21:49.999Z</time>
      </trkpt>
      <trkpt lat="44.04103" lon="3.51034">
        <ele>1308.8</ele>
        <time>2026-05-28T12:21:50.999Z</time>
      </trkpt>
      <trkpt lat="44.04103" lon="3.51034">
        <ele>1309.3</ele>
        <time>2026-05-28T12:21:51.999Z</time>
      </trkpt>
      <trkpt lat="44.04102" lon="3.51034">
        <ele>1309.4</ele>
        <time>2026-05-28T12:21:52.999Z</time>
      </trkpt>
      <trkpt lat="44.04101" lon="3.51034">
        <ele>1309.8</ele>
        <time>2026-05-28T12:21:53.999Z</time>
      </trkpt>
      <trkpt lat="44.04101" lon="3.51033">
        <ele>1310</ele>
        <time>2026-05-28T12:21:54.999Z</time>
      </trkpt>
      <trkpt lat="44.041" lon="3.51032">
        <ele>1310.2</ele>
        <time>2026-05-28T12:21:55.999Z</time>
      </trkpt>
      <trkpt lat="44.04099" lon="3.51032">
        <ele>1310.9</ele>
        <time>2026-05-28T12:21:56.999Z</time>
      </trkpt>
      <trkpt lat="44.04098" lon="3.51032">
        <ele>1310.8</ele>
        <time>2026-05-28T12:21:57.999Z</time>
      </trkpt>
      <trkpt lat="44.04098" lon="3.51032">
        <ele>1310.9</ele>
        <time>2026-05-28T12:21:58.999Z</time>
      </trkpt>
      <trkpt lat="44.04097" lon="3.51032">
        <ele>1310.8</ele>
        <time>2026-05-28T12:21:59.999Z</time>
      </trkpt>
      <trkpt lat="44.04097" lon="3.51032">
        <ele>1310.9</ele>
        <time>2026-05-28T12:22:00.999Z</time>
      </trkpt>
      <trkpt lat="44.04097" lon="3.51032">
        <ele>1310.8</ele>
        <time>2026-05-28T12:22:01.999Z</time>
      </trkpt>
      <trkpt lat="44.04097" lon="3.51033">
        <ele>1310.7</ele>
        <time>2026-05-28T12:22:02.999Z</time>
      </trkpt>
      <trkpt lat="44.04097" lon="3.51032">
        <ele>1310.9</ele>
        <time>2026-05-28T12:22:03.999Z</time>
      </trkpt>
      <trkpt lat="44.04097" lon="3.51031">
        <ele>1311.1</ele>
        <time>2026-05-28T12:22:04.999Z</time>
      </trkpt>
      <trkpt lat="44.04097" lon="3.5103">
        <ele>1311.3</ele>
        <time>2026-05-28T12:22:05.999Z</time>
      </trkpt>
      <trkpt lat="44.04096" lon="3.51029">
        <ele>1311.7</ele>
        <time>2026-05-28T12:22:06.999Z</time>
      </trkpt>
      <trkpt lat="44.04095" lon="3.51027">
        <ele>1311.7</ele>
        <time>2026-05-28T12:22:07.999Z</time>
      </trkpt>
      <trkpt lat="44.04095" lon="3.51026">
        <ele>1311.6</ele>
        <time>2026-05-28T12:22:08.999Z</time>
      </trkpt>
      <trkpt lat="44.04094" lon="3.51025">
        <ele>1311.6</ele>
        <time>2026-05-28T12:22:09.999Z</time>
      </trkpt>
      <trkpt lat="44.04093" lon="3.51024">
        <ele>1311.5</ele>
        <time>2026-05-28T12:22:10.999Z</time>
      </trkpt>
      <trkpt lat="44.04092" lon="3.51023">
        <ele>1311.6</ele>
        <time>2026-05-28T12:22:11.999Z</time>
      </trkpt>
      <trkpt lat="44.04092" lon="3.51021">
        <ele>1311.7</ele>
        <time>2026-05-28T12:22:12.999Z</time>
      </trkpt>
      <trkpt lat="44.0409" lon="3.5102">
        <ele>1312</ele>
        <time>2026-05-28T12:22:13.999Z</time>
      </trkpt>
      <trkpt lat="44.0409" lon="3.51019">
        <ele>1312.5</ele>
        <time>2026-05-28T12:22:14.999Z</time>
      </trkpt>
      <trkpt lat="44.04089" lon="3.51019">
        <ele>1312.8</ele>
        <time>2026-05-28T12:22:15.999Z</time>
      </trkpt>
      <trkpt lat="44.04088" lon="3.51018">
        <ele>1313.3</ele>
        <time>2026-05-28T12:22:16.999Z</time>
      </trkpt>
      <trkpt lat="44.04087" lon="3.51017">
        <ele>1313.5</ele>
        <time>2026-05-28T12:22:17.999Z</time>
      </trkpt>
      <trkpt lat="44.04086" lon="3.51017">
        <ele>1313.7</ele>
        <time>2026-05-28T12:22:18.999Z</time>
      </trkpt>
      <trkpt lat="44.04085" lon="3.51016">
        <ele>1313.8</ele>
        <time>2026-05-28T12:22:19.999Z</time>
      </trkpt>
      <trkpt lat="44.04084" lon="3.51016">
        <ele>1314</ele>
        <time>2026-05-28T12:22:20.999Z</time>
      </trkpt>
      <trkpt lat="44.04083" lon="3.51016">
        <ele>1314</ele>
        <time>2026-05-28T12:22:21.999Z</time>
      </trkpt>
      <trkpt lat="44.04083" lon="3.51015">
        <ele>1314.1</ele>
        <time>2026-05-28T12:22:22.999Z</time>
      </trkpt>
      <trkpt lat="44.04082" lon="3.51015">
        <ele>1314.1</ele>
        <time>2026-05-28T12:22:23.999Z</time>
      </trkpt>
      <trkpt lat="44.04081" lon="3.51014">
        <ele>1314.4</ele>
        <time>2026-05-28T12:22:24.999Z</time>
      </trkpt>
      <trkpt lat="44.0408" lon="3.51013">
        <ele>1315</ele>
        <time>2026-05-28T12:22:25.999Z</time>
      </trkpt>
      <trkpt lat="44.04079" lon="3.51012">
        <ele>1315.7</ele>
        <time>2026-05-28T12:22:26.999Z</time>
      </trkpt>
      <trkpt lat="44.04078" lon="3.5101">
        <ele>1316</ele>
        <time>2026-05-28T12:22:27.999Z</time>
      </trkpt>
      <trkpt lat="44.04077" lon="3.51009">
        <ele>1316.2</ele>
        <time>2026-05-28T12:22:28.999Z</time>
      </trkpt>
      <trkpt lat="44.04076" lon="3.51009">
        <ele>1316.7</ele>
        <time>2026-05-28T12:22:29.999Z</time>
      </trkpt>
      <trkpt lat="44.04076" lon="3.51008">
        <ele>1316.7</ele>
        <time>2026-05-28T12:22:30.999Z</time>
      </trkpt>
      <trkpt lat="44.04076" lon="3.51007">
        <ele>1316.7</ele>
        <time>2026-05-28T12:22:31.999Z</time>
      </trkpt>
      <trkpt lat="44.04075" lon="3.51007">
        <ele>1316.7</ele>
        <time>2026-05-28T12:22:32.999Z</time>
      </trkpt>
      <trkpt lat="44.04074" lon="3.51006">
        <ele>1316.7</ele>
        <time>2026-05-28T12:22:33.999Z</time>
      </trkpt>
      <trkpt lat="44.04073" lon="3.51006">
        <ele>1316.7</ele>
        <time>2026-05-28T12:22:34.999Z</time>
      </trkpt>
      <trkpt lat="44.04072" lon="3.51005">
        <ele>1316.8</ele>
        <time>2026-05-28T12:22:35.999Z</time>
      </trkpt>
      <trkpt lat="44.04071" lon="3.51005">
        <ele>1316.7</ele>
        <time>2026-05-28T12:22:36.999Z</time>
      </trkpt>
      <trkpt lat="44.0407" lon="3.51004">
        <ele>1316.6</ele>
        <time>2026-05-28T12:22:37.999Z</time>
      </trkpt>
      <trkpt lat="44.0407" lon="3.51004">
        <ele>1316.7</ele>
        <time>2026-05-28T12:22:38.999Z</time>
      </trkpt>
      <trkpt lat="44.04069" lon="3.51002">
        <ele>1316.4</ele>
        <time>2026-05-28T12:22:39.999Z</time>
      </trkpt>
      <trkpt lat="44.04069" lon="3.51001">
        <ele>1316.1</ele>
        <time>2026-05-28T12:22:40.999Z</time>
      </trkpt>
      <trkpt lat="44.04067" lon="3.51">
        <ele>1316</ele>
        <time>2026-05-28T12:22:41.999Z</time>
      </trkpt>
      <trkpt lat="44.04066" lon="3.50999">
        <ele>1316</ele>
        <time>2026-05-28T12:22:42.999Z</time>
      </trkpt>
      <trkpt lat="44.04065" lon="3.50998">
        <ele>1315.7</ele>
        <time>2026-05-28T12:22:43.999Z</time>
      </trkpt>
      <trkpt lat="44.04065" lon="3.50997">
        <ele>1315.4</ele>
        <time>2026-05-28T12:22:44.999Z</time>
      </trkpt>
      <trkpt lat="44.04064" lon="3.50997">
        <ele>1314.9</ele>
        <time>2026-05-28T12:22:45.999Z</time>
      </trkpt>
      <trkpt lat="44.04063" lon="3.50996">
        <ele>1314.7</ele>
        <time>2026-05-28T12:22:46.999Z</time>
      </trkpt>
      <trkpt lat="44.04062" lon="3.50996">
        <ele>1314.4</ele>
        <time>2026-05-28T12:22:47.999Z</time>
      </trkpt>
      <trkpt lat="44.04061" lon="3.50995">
        <ele>1314</ele>
        <time>2026-05-28T12:22:48.999Z</time>
      </trkpt>
      <trkpt lat="44.0406" lon="3.50994">
        <ele>1314</ele>
        <time>2026-05-28T12:22:49.999Z</time>
      </trkpt>
      <trkpt lat="44.04059" lon="3.50993">
        <ele>1314.1</ele>
        <time>2026-05-28T12:22:50.999Z</time>
      </trkpt>
      <trkpt lat="44.04058" lon="3.50993">
        <ele>1314.1</ele>
        <time>2026-05-28T12:22:51.999Z</time>
      </trkpt>
      <trkpt lat="44.04058" lon="3.50993">
        <ele>1314.3</ele>
        <time>2026-05-28T12:22:52.999Z</time>
      </trkpt>
      <trkpt lat="44.04057" lon="3.50993">
        <ele>1314.3</ele>
        <time>2026-05-28T12:22:53.999Z</time>
      </trkpt>
      <trkpt lat="44.04056" lon="3.50993">
        <ele>1314.3</ele>
        <time>2026-05-28T12:22:54.999Z</time>
      </trkpt>
      <trkpt lat="44.04055" lon="3.50993">
        <ele>1314.5</ele>
        <time>2026-05-28T12:22:55.999Z</time>
      </trkpt>
      <trkpt lat="44.04054" lon="3.50993">
        <ele>1314.8</ele>
        <time>2026-05-28T12:22:56.999Z</time>
      </trkpt>
      <trkpt lat="44.04053" lon="3.50993">
        <ele>1314.8</ele>
        <time>2026-05-28T12:22:57.999Z</time>
      </trkpt>
      <trkpt lat="44.04052" lon="3.50993">
        <ele>1314.8</ele>
        <time>2026-05-28T12:22:58.999Z</time>
      </trkpt>
      <trkpt lat="44.04051" lon="3.50994">
        <ele>1315</ele>
        <time>2026-05-28T12:22:59.999Z</time>
      </trkpt>
      <trkpt lat="44.04049" lon="3.50994">
        <ele>1315.1</ele>
        <time>2026-05-28T12:23:00.999Z</time>
      </trkpt>
      <trkpt lat="44.04049" lon="3.50995">
        <ele>1315.4</ele>
        <time>2026-05-28T12:23:01.999Z</time>
      </trkpt>
      <trkpt lat="44.04048" lon="3.50996">
        <ele>1315.3</ele>
        <time>2026-05-28T12:23:02.999Z</time>
      </trkpt>
      <trkpt lat="44.04048" lon="3.50997">
        <ele>1315.6</ele>
        <time>2026-05-28T12:23:03.999Z</time>
      </trkpt>
      <trkpt lat="44.04047" lon="3.50997">
        <ele>1315.3</ele>
        <time>2026-05-28T12:23:04.999Z</time>
      </trkpt>
      <trkpt lat="44.04046" lon="3.50997">
        <ele>1314.8</ele>
        <time>2026-05-28T12:23:05.999Z</time>
      </trkpt>
      <trkpt lat="44.04045" lon="3.50997">
        <ele>1314.6</ele>
        <time>2026-05-28T12:23:06.999Z</time>
      </trkpt>
      <trkpt lat="44.04044" lon="3.50997">
        <ele>1314.9</ele>
        <time>2026-05-28T12:23:07.999Z</time>
      </trkpt>
      <trkpt lat="44.04043" lon="3.50998">
        <ele>1315.4</ele>
        <time>2026-05-28T12:23:08.999Z</time>
      </trkpt>
      <trkpt lat="44.04042" lon="3.50998">
        <ele>1315.5</ele>
        <time>2026-05-28T12:23:09.999Z</time>
      </trkpt>
      <trkpt lat="44.04041" lon="3.50999">
        <ele>1315.5</ele>
        <time>2026-05-28T12:23:10.999Z</time>
      </trkpt>
      <trkpt lat="44.0404" lon="3.51">
        <ele>1316.1</ele>
        <time>2026-05-28T12:23:11.999Z</time>
      </trkpt>
      <trkpt lat="44.04039" lon="3.50999">
        <ele>1316.2</ele>
        <time>2026-05-28T12:23:12.999Z</time>
      </trkpt>
      <trkpt lat="44.04038" lon="3.50999">
        <ele>1316.1</ele>
        <time>2026-05-28T12:23:13.999Z</time>
      </trkpt>
      <trkpt lat="44.04037" lon="3.51">
        <ele>1316</ele>
        <time>2026-05-28T12:23:14.999Z</time>
      </trkpt>
      <trkpt lat="44.04036" lon="3.51">
        <ele>1316.3</ele>
        <time>2026-05-28T12:23:15.999Z</time>
      </trkpt>
      <trkpt lat="44.04035" lon="3.51001">
        <ele>1316.7</ele>
        <time>2026-05-28T12:23:16.999Z</time>
      </trkpt>
      <trkpt lat="44.04034" lon="3.51002">
        <ele>1316.5</ele>
        <time>2026-05-28T12:23:17.999Z</time>
      </trkpt>
      <trkpt lat="44.04033" lon="3.51002">
        <ele>1316.3</ele>
        <time>2026-05-28T12:23:18.999Z</time>
      </trkpt>
      <trkpt lat="44.04032" lon="3.51002">
        <ele>1316.2</ele>
        <time>2026-05-28T12:23:19.999Z</time>
      </trkpt>
      <trkpt lat="44.04032" lon="3.51003">
        <ele>1316.1</ele>
        <time>2026-05-28T12:23:20.999Z</time>
      </trkpt>
      <trkpt lat="44.04031" lon="3.51004">
        <ele>1316.2</ele>
        <time>2026-05-28T12:23:21.999Z</time>
      </trkpt>
      <trkpt lat="44.0403" lon="3.51005">
        <ele>1316.4</ele>
        <time>2026-05-28T12:23:22.999Z</time>
      </trkpt>
      <trkpt lat="44.0403" lon="3.51005">
        <ele>1316.9</ele>
        <time>2026-05-28T12:23:23.999Z</time>
      </trkpt>
      <trkpt lat="44.04029" lon="3.51005">
        <ele>1317.1</ele>
        <time>2026-05-28T12:23:24.999Z</time>
      </trkpt>
      <trkpt lat="44.04028" lon="3.51005">
        <ele>1316.9</ele>
        <time>2026-05-28T12:23:25.999Z</time>
      </trkpt>
      <trkpt lat="44.04028" lon="3.51007">
        <ele>1316.6</ele>
        <time>2026-05-28T12:23:26.999Z</time>
      </trkpt>
      <trkpt lat="44.04027" lon="3.51008">
        <ele>1316.3</ele>
        <time>2026-05-28T12:23:27.999Z</time>
      </trkpt>
      <trkpt lat="44.04026" lon="3.51009">
        <ele>1316.8</ele>
        <time>2026-05-28T12:23:28.999Z</time>
      </trkpt>
      <trkpt lat="44.04025" lon="3.5101">
        <ele>1317.1</ele>
        <time>2026-05-28T12:23:29.999Z</time>
      </trkpt>
      <trkpt lat="44.04025" lon="3.51011">
        <ele>1317.4</ele>
        <time>2026-05-28T12:23:30.999Z</time>
      </trkpt>
      <trkpt lat="44.04024" lon="3.51011">
        <ele>1317.9</ele>
        <time>2026-05-28T12:23:31.999Z</time>
      </trkpt>
      <trkpt lat="44.04023" lon="3.51011">
        <ele>1318.1</ele>
        <time>2026-05-28T12:23:32.999Z</time>
      </trkpt>
      <trkpt lat="44.04023" lon="3.51011">
        <ele>1318.4</ele>
        <time>2026-05-28T12:23:33.999Z</time>
      </trkpt>
      <trkpt lat="44.04023" lon="3.51012">
        <ele>1318.5</ele>
        <time>2026-05-28T12:23:34.999Z</time>
      </trkpt>
      <trkpt lat="44.04023" lon="3.51012">
        <ele>1318.8</ele>
        <time>2026-05-28T12:23:35.999Z</time>
      </trkpt>
      <trkpt lat="44.04023" lon="3.51012">
        <ele>1318.9</ele>
        <time>2026-05-28T12:23:36.999Z</time>
      </trkpt>
      <trkpt lat="44.04023" lon="3.51013">
        <ele>1318.8</ele>
        <time>2026-05-28T12:23:37.999Z</time>
      </trkpt>
      <trkpt lat="44.04023" lon="3.51013">
        <ele>1318.9</ele>
        <time>2026-05-28T12:23:38.999Z</time>
      </trkpt>
      <trkpt lat="44.04023" lon="3.51013">
        <ele>1318.5</ele>
        <time>2026-05-28T12:23:39.999Z</time>
      </trkpt>
      <trkpt lat="44.04023" lon="3.51013">
        <ele>1318.3</ele>
        <time>2026-05-28T12:23:40.999Z</time>
      </trkpt>
      <trkpt lat="44.04023" lon="3.51013">
        <ele>1318.3</ele>
        <time>2026-05-28T12:23:41.999Z</time>
      </trkpt>
      <trkpt lat="44.04023" lon="3.51013">
        <ele>1318.4</ele>
        <time>2026-05-28T12:23:42.999Z</time>
      </trkpt>
      <trkpt lat="44.04023" lon="3.51013">
        <ele>1318.5</ele>
        <time>2026-05-28T12:23:43.999Z</time>
      </trkpt>
      <trkpt lat="44.04023" lon="3.51014">
        <ele>1318.6</ele>
        <time>2026-05-28T12:23:44.999Z</time>
      </trkpt>
      <trkpt lat="44.04022" lon="3.51014">
        <ele>1318.7</ele>
        <time>2026-05-28T12:23:45.999Z</time>
      </trkpt>
      <trkpt lat="44.04022" lon="3.51015">
        <ele>1318.8</ele>
        <time>2026-05-28T12:23:46.999Z</time>
      </trkpt>
      <trkpt lat="44.04021" lon="3.51017">
        <ele>1318.6</ele>
        <time>2026-05-28T12:23:47.999Z</time>
      </trkpt>
      <trkpt lat="44.04021" lon="3.51018">
        <ele>1318.7</ele>
        <time>2026-05-28T12:23:48.999Z</time>
      </trkpt>
      <trkpt lat="44.04021" lon="3.5102">
        <ele>1318.7</ele>
        <time>2026-05-28T12:23:49.999Z</time>
      </trkpt>
      <trkpt lat="44.04019" lon="3.51021">
        <ele>1318.6</ele>
        <time>2026-05-28T12:23:50.999Z</time>
      </trkpt>
      <trkpt lat="44.04018" lon="3.51022">
        <ele>1318.6</ele>
        <time>2026-05-28T12:23:51.999Z</time>
      </trkpt>
      <trkpt lat="44.04016" lon="3.51023">
        <ele>1318.3</ele>
        <time>2026-05-28T12:23:52.999Z</time>
      </trkpt>
      <trkpt lat="44.04015" lon="3.51024">
        <ele>1318</ele>
        <time>2026-05-28T12:23:53.999Z</time>
      </trkpt>
      <trkpt lat="44.04015" lon="3.51025">
        <ele>1318</ele>
        <time>2026-05-28T12:23:54.999Z</time>
      </trkpt>
      <trkpt lat="44.04014" lon="3.51027">
        <ele>1318.2</ele>
        <time>2026-05-28T12:23:55.999Z</time>
      </trkpt>
      <trkpt lat="44.04014" lon="3.51028">
        <ele>1318.3</ele>
        <time>2026-05-28T12:23:56.999Z</time>
      </trkpt>
      <trkpt lat="44.04013" lon="3.5103">
        <ele>1318.7</ele>
        <time>2026-05-28T12:23:57.999Z</time>
      </trkpt>
      <trkpt lat="44.04013" lon="3.51031">
        <ele>1318.4</ele>
        <time>2026-05-28T12:23:58.999Z</time>
      </trkpt>
      <trkpt lat="44.04013" lon="3.51032">
        <ele>1318.3</ele>
        <time>2026-05-28T12:23:59.999Z</time>
      </trkpt>
      <trkpt lat="44.04013" lon="3.51033">
        <ele>1318.3</ele>
        <time>2026-05-28T12:24:00.999Z</time>
      </trkpt>
      <trkpt lat="44.04012" lon="3.51034">
        <ele>1318.1</ele>
        <time>2026-05-28T12:24:01.999Z</time>
      </trkpt>
      <trkpt lat="44.04012" lon="3.51036">
        <ele>1318.3</ele>
        <time>2026-05-28T12:24:02.999Z</time>
      </trkpt>
      <trkpt lat="44.04012" lon="3.51038">
        <ele>1318.9</ele>
        <time>2026-05-28T12:24:03.999Z</time>
      </trkpt>
      <trkpt lat="44.04012" lon="3.51038">
        <ele>1319.4</ele>
        <time>2026-05-28T12:24:04.999Z</time>
      </trkpt>
      <trkpt lat="44.04012" lon="3.51039">
        <ele>1319.4</ele>
        <time>2026-05-28T12:24:05.999Z</time>
      </trkpt>
      <trkpt lat="44.04012" lon="3.5104">
        <ele>1319.3</ele>
        <time>2026-05-28T12:24:06.999Z</time>
      </trkpt>
      <trkpt lat="44.04011" lon="3.51042">
        <ele>1319.3</ele>
        <time>2026-05-28T12:24:07.999Z</time>
      </trkpt>
      <trkpt lat="44.04011" lon="3.51044">
        <ele>1319</ele>
        <time>2026-05-28T12:24:08.999Z</time>
      </trkpt>
      <trkpt lat="44.04011" lon="3.51045">
        <ele>1318.7</ele>
        <time>2026-05-28T12:24:09.999Z</time>
      </trkpt>
      <trkpt lat="44.0401" lon="3.51047">
        <ele>1318.4</ele>
        <time>2026-05-28T12:24:10.999Z</time>
      </trkpt>
      <trkpt lat="44.0401" lon="3.51049">
        <ele>1317.9</ele>
        <time>2026-05-28T12:24:11.999Z</time>
      </trkpt>
      <trkpt lat="44.0401" lon="3.51051">
        <ele>1317.9</ele>
        <time>2026-05-28T12:24:12.999Z</time>
      </trkpt>
      <trkpt lat="44.04009" lon="3.51052">
        <ele>1318</ele>
        <time>2026-05-28T12:24:13.999Z</time>
      </trkpt>
      <trkpt lat="44.04009" lon="3.51054">
        <ele>1317.9</ele>
        <time>2026-05-28T12:24:14.999Z</time>
      </trkpt>
      <trkpt lat="44.04009" lon="3.51055">
        <ele>1317.8</ele>
        <time>2026-05-28T12:24:15.999Z</time>
      </trkpt>
      <trkpt lat="44.04009" lon="3.51057">
        <ele>1317.5</ele>
        <time>2026-05-28T12:24:16.999Z</time>
      </trkpt>
      <trkpt lat="44.04009" lon="3.51058">
        <ele>1317.4</ele>
        <time>2026-05-28T12:24:17.999Z</time>
      </trkpt>
      <trkpt lat="44.04009" lon="3.5106">
        <ele>1317.6</ele>
        <time>2026-05-28T12:24:18.999Z</time>
      </trkpt>
      <trkpt lat="44.04009" lon="3.51062">
        <ele>1317.7</ele>
        <time>2026-05-28T12:24:19.999Z</time>
      </trkpt>
      <trkpt lat="44.04009" lon="3.51063">
        <ele>1317.9</ele>
        <time>2026-05-28T12:24:20.999Z</time>
      </trkpt>
      <trkpt lat="44.04009" lon="3.51064">
        <ele>1317.8</ele>
        <time>2026-05-28T12:24:21.999Z</time>
      </trkpt>
      <trkpt lat="44.04009" lon="3.51065">
        <ele>1317.6</ele>
        <time>2026-05-28T12:24:22.999Z</time>
      </trkpt>
      <trkpt lat="44.04008" lon="3.51066">
        <ele>1317.3</ele>
        <time>2026-05-28T12:24:23.999Z</time>
      </trkpt>
      <trkpt lat="44.04007" lon="3.51067">
        <ele>1316.9</ele>
        <time>2026-05-28T12:24:24.999Z</time>
      </trkpt>
      <trkpt lat="44.04006" lon="3.51068">
        <ele>1316.6</ele>
        <time>2026-05-28T12:24:25.999Z</time>
      </trkpt>
      <trkpt lat="44.04005" lon="3.5107">
        <ele>1316.3</ele>
        <time>2026-05-28T12:24:26.999Z</time>
      </trkpt>
      <trkpt lat="44.04004" lon="3.51072">
        <ele>1316.1</ele>
        <time>2026-05-28T12:24:27.999Z</time>
      </trkpt>
      <trkpt lat="44.04004" lon="3.51073">
        <ele>1315.6</ele>
        <time>2026-05-28T12:24:28.999Z</time>
      </trkpt>
      <trkpt lat="44.04003" lon="3.51075">
        <ele>1315.3</ele>
        <time>2026-05-28T12:24:29.999Z</time>
      </trkpt>
      <trkpt lat="44.04002" lon="3.51076">
        <ele>1315.1</ele>
        <time>2026-05-28T12:24:30.999Z</time>
      </trkpt>
      <trkpt lat="44.04002" lon="3.51076">
        <ele>1315.2</ele>
        <time>2026-05-28T12:24:31.999Z</time>
      </trkpt>
      <trkpt lat="44.04001" lon="3.51077">
        <ele>1315.4</ele>
        <time>2026-05-28T12:24:32.999Z</time>
      </trkpt>
      <trkpt lat="44.04001" lon="3.51078">
        <ele>1315.5</ele>
        <time>2026-05-28T12:24:33.999Z</time>
      </trkpt>
      <trkpt lat="44.04" lon="3.51078">
        <ele>1315.4</ele>
        <time>2026-05-28T12:24:34.999Z</time>
      </trkpt>
      <trkpt lat="44.04" lon="3.51078">
        <ele>1315</ele>
        <time>2026-05-28T12:24:35.999Z</time>
      </trkpt>
      <trkpt lat="44.03999" lon="3.51079">
        <ele>1314.7</ele>
        <time>2026-05-28T12:24:36.999Z</time>
      </trkpt>
      <trkpt lat="44.03998" lon="3.51081">
        <ele>1314.7</ele>
        <time>2026-05-28T12:24:37.999Z</time>
      </trkpt>
      <trkpt lat="44.03997" lon="3.51082">
        <ele>1314.8</ele>
        <time>2026-05-28T12:24:38.999Z</time>
      </trkpt>
      <trkpt lat="44.03997" lon="3.51084">
        <ele>1314.7</ele>
        <time>2026-05-28T12:24:39.999Z</time>
      </trkpt>
      <trkpt lat="44.03996" lon="3.51084">
        <ele>1314.6</ele>
        <time>2026-05-28T12:24:40.999Z</time>
      </trkpt>
      <trkpt lat="44.03995" lon="3.51085">
        <ele>1314.2</ele>
        <time>2026-05-28T12:24:41.999Z</time>
      </trkpt>
      <trkpt lat="44.03995" lon="3.51086">
        <ele>1314</ele>
        <time>2026-05-28T12:24:42.999Z</time>
      </trkpt>
      <trkpt lat="44.03995" lon="3.51087">
        <ele>1313.6</ele>
        <time>2026-05-28T12:24:43.999Z</time>
      </trkpt>
      <trkpt lat="44.03994" lon="3.51088">
        <ele>1312.9</ele>
        <time>2026-05-28T12:24:44.999Z</time>
      </trkpt>
      <trkpt lat="44.03994" lon="3.51089">
        <ele>1312.4</ele>
        <time>2026-05-28T12:24:45.999Z</time>
      </trkpt>
      <trkpt lat="44.03994" lon="3.5109">
        <ele>1312.1</ele>
        <time>2026-05-28T12:24:46.999Z</time>
      </trkpt>
      <trkpt lat="44.03994" lon="3.51091">
        <ele>1312.4</ele>
        <time>2026-05-28T12:24:47.999Z</time>
      </trkpt>
      <trkpt lat="44.03994" lon="3.51093">
        <ele>1312.6</ele>
        <time>2026-05-28T12:24:48.999Z</time>
      </trkpt>
      <trkpt lat="44.03993" lon="3.51094">
        <ele>1312.5</ele>
        <time>2026-05-28T12:24:49.999Z</time>
      </trkpt>
      <trkpt lat="44.03993" lon="3.51096">
        <ele>1312.2</ele>
        <time>2026-05-28T12:24:50.999Z</time>
      </trkpt>
      <trkpt lat="44.03993" lon="3.51098">
        <ele>1311.7</ele>
        <time>2026-05-28T12:24:51.999Z</time>
      </trkpt>
      <trkpt lat="44.03993" lon="3.51099">
        <ele>1311.4</ele>
        <time>2026-05-28T12:24:52.999Z</time>
      </trkpt>
      <trkpt lat="44.03993" lon="3.511">
        <ele>1311.4</ele>
        <time>2026-05-28T12:24:53.999Z</time>
      </trkpt>
      <trkpt lat="44.03992" lon="3.51101">
        <ele>1311.5</ele>
        <time>2026-05-28T12:24:54.999Z</time>
      </trkpt>
      <trkpt lat="44.03992" lon="3.51102">
        <ele>1311.4</ele>
        <time>2026-05-28T12:24:55.999Z</time>
      </trkpt>
      <trkpt lat="44.03992" lon="3.51104">
        <ele>1311.1</ele>
        <time>2026-05-28T12:24:56.999Z</time>
      </trkpt>
      <trkpt lat="44.03992" lon="3.51105">
        <ele>1310.9</ele>
        <time>2026-05-28T12:24:57.999Z</time>
      </trkpt>
      <trkpt lat="44.03991" lon="3.51105">
        <ele>1310.4</ele>
        <time>2026-05-28T12:24:58.999Z</time>
      </trkpt>
      <trkpt lat="44.0399" lon="3.51106">
        <ele>1310.1</ele>
        <time>2026-05-28T12:24:59.999Z</time>
      </trkpt>
      <trkpt lat="44.0399" lon="3.51107">
        <ele>1310.2</ele>
        <time>2026-05-28T12:25:00.999Z</time>
      </trkpt>
      <trkpt lat="44.03989" lon="3.51109">
        <ele>1310.2</ele>
        <time>2026-05-28T12:25:01.999Z</time>
      </trkpt>
      <trkpt lat="44.03988" lon="3.51112">
        <ele>1309.5</ele>
        <time>2026-05-28T12:25:02.999Z</time>
      </trkpt>
      <trkpt lat="44.03987" lon="3.51113">
        <ele>1309</ele>
        <time>2026-05-28T12:25:03.999Z</time>
      </trkpt>
      <trkpt lat="44.03986" lon="3.51113">
        <ele>1308.7</ele>
        <time>2026-05-28T12:25:04.999Z</time>
      </trkpt>
      <trkpt lat="44.03985" lon="3.51113">
        <ele>1308.5</ele>
        <time>2026-05-28T12:25:05.999Z</time>
      </trkpt>
      <trkpt lat="44.03984" lon="3.51113">
        <ele>1308.1</ele>
        <time>2026-05-28T12:25:06.999Z</time>
      </trkpt>
      <trkpt lat="44.03983" lon="3.51113">
        <ele>1307.9</ele>
        <time>2026-05-28T12:25:07.999Z</time>
      </trkpt>
      <trkpt lat="44.03982" lon="3.51113">
        <ele>1307.7</ele>
        <time>2026-05-28T12:25:08.999Z</time>
      </trkpt>
      <trkpt lat="44.03981" lon="3.51112">
        <ele>1307.7</ele>
        <time>2026-05-28T12:25:09.999Z</time>
      </trkpt>
      <trkpt lat="44.03981" lon="3.51113">
        <ele>1307.6</ele>
        <time>2026-05-28T12:25:10.999Z</time>
      </trkpt>
      <trkpt lat="44.0398" lon="3.51113">
        <ele>1307.3</ele>
        <time>2026-05-28T12:25:11.999Z</time>
      </trkpt>
      <trkpt lat="44.03979" lon="3.51114">
        <ele>1307.1</ele>
        <time>2026-05-28T12:25:12.999Z</time>
      </trkpt>
      <trkpt lat="44.03978" lon="3.51114">
        <ele>1306.9</ele>
        <time>2026-05-28T12:25:13.999Z</time>
      </trkpt>
      <trkpt lat="44.03978" lon="3.51114">
        <ele>1306.4</ele>
        <time>2026-05-28T12:25:14.999Z</time>
      </trkpt>
      <trkpt lat="44.03977" lon="3.51115">
        <ele>1306.3</ele>
        <time>2026-05-28T12:25:15.999Z</time>
      </trkpt>
      <trkpt lat="44.03977" lon="3.51116">
        <ele>1306.5</ele>
        <time>2026-05-28T12:25:16.999Z</time>
      </trkpt>
      <trkpt lat="44.03977" lon="3.51117">
        <ele>1306.5</ele>
        <time>2026-05-28T12:25:17.999Z</time>
      </trkpt>
      <trkpt lat="44.03978" lon="3.51117">
        <ele>1306.3</ele>
        <time>2026-05-28T12:25:18.999Z</time>
      </trkpt>
      <trkpt lat="44.03978" lon="3.51118">
        <ele>1306</ele>
        <time>2026-05-28T12:25:19.999Z</time>
      </trkpt>
      <trkpt lat="44.03977" lon="3.51119">
        <ele>1305.9</ele>
        <time>2026-05-28T12:25:20.999Z</time>
      </trkpt>
      <trkpt lat="44.03976" lon="3.5112">
        <ele>1306</ele>
        <time>2026-05-28T12:25:21.999Z</time>
      </trkpt>
      <trkpt lat="44.03975" lon="3.51121">
        <ele>1306.2</ele>
        <time>2026-05-28T12:25:22.999Z</time>
      </trkpt>
      <trkpt lat="44.03974" lon="3.51124">
        <ele>1306.5</ele>
        <time>2026-05-28T12:25:23.999Z</time>
      </trkpt>
      <trkpt lat="44.03974" lon="3.51126">
        <ele>1306.5</ele>
        <time>2026-05-28T12:25:24.999Z</time>
      </trkpt>
      <trkpt lat="44.03973" lon="3.51127">
        <ele>1306.1</ele>
        <time>2026-05-28T12:25:25.999Z</time>
      </trkpt>
      <trkpt lat="44.03973" lon="3.51129">
        <ele>1305.5</ele>
        <time>2026-05-28T12:25:26.999Z</time>
      </trkpt>
      <trkpt lat="44.03973" lon="3.5113">
        <ele>1304.9</ele>
        <time>2026-05-28T12:25:27.999Z</time>
      </trkpt>
      <trkpt lat="44.03974" lon="3.51132">
        <ele>1304.4</ele>
        <time>2026-05-28T12:25:28.999Z</time>
      </trkpt>
      <trkpt lat="44.03974" lon="3.51134">
        <ele>1304.3</ele>
        <time>2026-05-28T12:25:29.999Z</time>
      </trkpt>
      <trkpt lat="44.03974" lon="3.51137">
        <ele>1304.3</ele>
        <time>2026-05-28T12:25:30.999Z</time>
      </trkpt>
      <trkpt lat="44.03975" lon="3.51139">
        <ele>1304.3</ele>
        <time>2026-05-28T12:25:31.999Z</time>
      </trkpt>
      <trkpt lat="44.03975" lon="3.51141">
        <ele>1303.7</ele>
        <time>2026-05-28T12:25:32.999Z</time>
      </trkpt>
      <trkpt lat="44.03975" lon="3.51142">
        <ele>1303.5</ele>
        <time>2026-05-28T12:25:33.999Z</time>
      </trkpt>
      <trkpt lat="44.03976" lon="3.51144">
        <ele>1302.9</ele>
        <time>2026-05-28T12:25:34.999Z</time>
      </trkpt>
      <trkpt lat="44.03976" lon="3.51145">
        <ele>1302.9</ele>
        <time>2026-05-28T12:25:35.999Z</time>
      </trkpt>
      <trkpt lat="44.03976" lon="3.51146">
        <ele>1302.6</ele>
        <time>2026-05-28T12:25:36.999Z</time>
      </trkpt>
      <trkpt lat="44.03976" lon="3.51147">
        <ele>1302.4</ele>
        <time>2026-05-28T12:25:37.999Z</time>
      </trkpt>
      <trkpt lat="44.03976" lon="3.51148">
        <ele>1302.5</ele>
        <time>2026-05-28T12:25:38.999Z</time>
      </trkpt>
      <trkpt lat="44.03976" lon="3.5115">
        <ele>1302.4</ele>
        <time>2026-05-28T12:25:39.999Z</time>
      </trkpt>
      <trkpt lat="44.03976" lon="3.51152">
        <ele>1302.5</ele>
        <time>2026-05-28T12:25:40.999Z</time>
      </trkpt>
      <trkpt lat="44.03976" lon="3.51154">
        <ele>1302.6</ele>
        <time>2026-05-28T12:25:41.999Z</time>
      </trkpt>
      <trkpt lat="44.03976" lon="3.51155">
        <ele>1302.5</ele>
        <time>2026-05-28T12:25:42.999Z</time>
      </trkpt>
      <trkpt lat="44.03975" lon="3.51156">
        <ele>1302.6</ele>
        <time>2026-05-28T12:25:43.999Z</time>
      </trkpt>
      <trkpt lat="44.03975" lon="3.51156">
        <ele>1302.6</ele>
        <time>2026-05-28T12:25:44.999Z</time>
      </trkpt>
      <trkpt lat="44.03975" lon="3.51158">
        <ele>1302.2</ele>
        <time>2026-05-28T12:25:45.999Z</time>
      </trkpt>
      <trkpt lat="44.03976" lon="3.5116">
        <ele>1302.2</ele>
        <time>2026-05-28T12:25:46.999Z</time>
      </trkpt>
      <trkpt lat="44.03976" lon="3.51162">
        <ele>1301.8</ele>
        <time>2026-05-28T12:25:47.999Z</time>
      </trkpt>
      <trkpt lat="44.03977" lon="3.51164">
        <ele>1301.5</ele>
        <time>2026-05-28T12:25:48.999Z</time>
      </trkpt>
      <trkpt lat="44.03977" lon="3.51166">
        <ele>1301.2</ele>
        <time>2026-05-28T12:25:49.999Z</time>
      </trkpt>
      <trkpt lat="44.03978" lon="3.51167">
        <ele>1300.8</ele>
        <time>2026-05-28T12:25:50.999Z</time>
      </trkpt>
      <trkpt lat="44.03977" lon="3.51168">
        <ele>1300.8</ele>
        <time>2026-05-28T12:25:51.999Z</time>
      </trkpt>
      <trkpt lat="44.03977" lon="3.51169">
        <ele>1300.8</ele>
        <time>2026-05-28T12:25:52.999Z</time>
      </trkpt>
      <trkpt lat="44.03977" lon="3.5117">
        <ele>1300.4</ele>
        <time>2026-05-28T12:25:53.999Z</time>
      </trkpt>
      <trkpt lat="44.03977" lon="3.51172">
        <ele>1300.4</ele>
        <time>2026-05-28T12:25:54.999Z</time>
      </trkpt>
      <trkpt lat="44.03976" lon="3.51173">
        <ele>1300.3</ele>
        <time>2026-05-28T12:25:55.999Z</time>
      </trkpt>
      <trkpt lat="44.03976" lon="3.51175">
        <ele>1300.6</ele>
        <time>2026-05-28T12:25:56.999Z</time>
      </trkpt>
      <trkpt lat="44.03975" lon="3.51177">
        <ele>1300.7</ele>
        <time>2026-05-28T12:25:57.999Z</time>
      </trkpt>
      <trkpt lat="44.03975" lon="3.51179">
        <ele>1300.8</ele>
        <time>2026-05-28T12:25:58.999Z</time>
      </trkpt>
      <trkpt lat="44.03975" lon="3.5118">
        <ele>1300.5</ele>
        <time>2026-05-28T12:25:59.999Z</time>
      </trkpt>
      <trkpt lat="44.03974" lon="3.51182">
        <ele>1300.3</ele>
        <time>2026-05-28T12:26:00.999Z</time>
      </trkpt>
      <trkpt lat="44.03974" lon="3.51183">
        <ele>1300.6</ele>
        <time>2026-05-28T12:26:01.999Z</time>
      </trkpt>
      <trkpt lat="44.03973" lon="3.51184">
        <ele>1300.5</ele>
        <time>2026-05-28T12:26:02.999Z</time>
      </trkpt>
      <trkpt lat="44.03973" lon="3.51186">
        <ele>1300.3</ele>
        <time>2026-05-28T12:26:03.999Z</time>
      </trkpt>
      <trkpt lat="44.03972" lon="3.51188">
        <ele>1300.1</ele>
        <time>2026-05-28T12:26:04.999Z</time>
      </trkpt>
      <trkpt lat="44.03972" lon="3.5119">
        <ele>1299.9</ele>
        <time>2026-05-28T12:26:05.999Z</time>
      </trkpt>
      <trkpt lat="44.03972" lon="3.51192">
        <ele>1299.5</ele>
        <time>2026-05-28T12:26:06.999Z</time>
      </trkpt>
      <trkpt lat="44.03971" lon="3.51194">
        <ele>1299.2</ele>
        <time>2026-05-28T12:26:07.999Z</time>
      </trkpt>
      <trkpt lat="44.03971" lon="3.51195">
        <ele>1298.9</ele>
        <time>2026-05-28T12:26:08.999Z</time>
      </trkpt>
      <trkpt lat="44.03971" lon="3.51197">
        <ele>1298.8</ele>
        <time>2026-05-28T12:26:09.999Z</time>
      </trkpt>
      <trkpt lat="44.03971" lon="3.51199">
        <ele>1298.8</ele>
        <time>2026-05-28T12:26:10.999Z</time>
      </trkpt>
      <trkpt lat="44.0397" lon="3.51201">
        <ele>1299</ele>
        <time>2026-05-28T12:26:11.999Z</time>
      </trkpt>
      <trkpt lat="44.0397" lon="3.51203">
        <ele>1299</ele>
        <time>2026-05-28T12:26:12.999Z</time>
      </trkpt>
      <trkpt lat="44.0397" lon="3.51205">
        <ele>1299.2</ele>
        <time>2026-05-28T12:26:13.999Z</time>
      </trkpt>
      <trkpt lat="44.0397" lon="3.51206">
        <ele>1299.2</ele>
        <time>2026-05-28T12:26:14.999Z</time>
      </trkpt>
      <trkpt lat="44.03969" lon="3.51208">
        <ele>1299.3</ele>
        <time>2026-05-28T12:26:15.999Z</time>
      </trkpt>
      <trkpt lat="44.03969" lon="3.5121">
        <ele>1299</ele>
        <time>2026-05-28T12:26:16.999Z</time>
      </trkpt>
      <trkpt lat="44.03969" lon="3.51211">
        <ele>1299</ele>
        <time>2026-05-28T12:26:17.999Z</time>
      </trkpt>
      <trkpt lat="44.03968" lon="3.51212">
        <ele>1298.7</ele>
        <time>2026-05-28T12:26:18.999Z</time>
      </trkpt>
      <trkpt lat="44.03968" lon="3.51214">
        <ele>1298.5</ele>
        <time>2026-05-28T12:26:19.999Z</time>
      </trkpt>
      <trkpt lat="44.03969" lon="3.51215">
        <ele>1298.4</ele>
        <time>2026-05-28T12:26:20.999Z</time>
      </trkpt>
      <trkpt lat="44.03969" lon="3.51217">
        <ele>1298.5</ele>
        <time>2026-05-28T12:26:21.999Z</time>
      </trkpt>
      <trkpt lat="44.03969" lon="3.51219">
        <ele>1298.6</ele>
        <time>2026-05-28T12:26:22.999Z</time>
      </trkpt>
      <trkpt lat="44.03969" lon="3.51221">
        <ele>1298.5</ele>
        <time>2026-05-28T12:26:23.999Z</time>
      </trkpt>
      <trkpt lat="44.03969" lon="3.51224">
        <ele>1298.4</ele>
        <time>2026-05-28T12:26:24.999Z</time>
      </trkpt>
      <trkpt lat="44.03969" lon="3.51226">
        <ele>1298</ele>
        <time>2026-05-28T12:26:25.999Z</time>
      </trkpt>
      <trkpt lat="44.03969" lon="3.51227">
        <ele>1297.8</ele>
        <time>2026-05-28T12:26:26.999Z</time>
      </trkpt>
      <trkpt lat="44.03969" lon="3.51228">
        <ele>1297.5</ele>
        <time>2026-05-28T12:26:27.999Z</time>
      </trkpt>
      <trkpt lat="44.03969" lon="3.51229">
        <ele>1297.2</ele>
        <time>2026-05-28T12:26:28.999Z</time>
      </trkpt>
      <trkpt lat="44.03968" lon="3.51231">
        <ele>1297.1</ele>
        <time>2026-05-28T12:26:29.999Z</time>
      </trkpt>
      <trkpt lat="44.03969" lon="3.51233">
        <ele>1297.2</ele>
        <time>2026-05-28T12:26:30.999Z</time>
      </trkpt>
      <trkpt lat="44.03969" lon="3.51235">
        <ele>1297.5</ele>
        <time>2026-05-28T12:26:31.999Z</time>
      </trkpt>
      <trkpt lat="44.03969" lon="3.51236">
        <ele>1297.3</ele>
        <time>2026-05-28T12:26:32.999Z</time>
      </trkpt>
      <trkpt lat="44.0397" lon="3.51238">
        <ele>1297</ele>
        <time>2026-05-28T12:26:33.999Z</time>
      </trkpt>
      <trkpt lat="44.0397" lon="3.51239">
        <ele>1296.7</ele>
        <time>2026-05-28T12:26:34.999Z</time>
      </trkpt>
      <trkpt lat="44.0397" lon="3.5124">
        <ele>1296.1</ele>
        <time>2026-05-28T12:26:35.999Z</time>
      </trkpt>
      <trkpt lat="44.0397" lon="3.51241">
        <ele>1295.5</ele>
        <time>2026-05-28T12:26:36.999Z</time>
      </trkpt>
      <trkpt lat="44.03971" lon="3.51242">
        <ele>1295.1</ele>
        <time>2026-05-28T12:26:37.999Z</time>
      </trkpt>
      <trkpt lat="44.0397" lon="3.51244">
        <ele>1294.8</ele>
        <time>2026-05-28T12:26:38.999Z</time>
      </trkpt>
      <trkpt lat="44.0397" lon="3.51245">
        <ele>1294.8</ele>
        <time>2026-05-28T12:26:39.999Z</time>
      </trkpt>
      <trkpt lat="44.03969" lon="3.51248">
        <ele>1295.2</ele>
        <time>2026-05-28T12:26:40.999Z</time>
      </trkpt>
      <trkpt lat="44.0397" lon="3.51249">
        <ele>1295.2</ele>
        <time>2026-05-28T12:26:41.999Z</time>
      </trkpt>
      <trkpt lat="44.0397" lon="3.51251">
        <ele>1295.2</ele>
        <time>2026-05-28T12:26:42.999Z</time>
      </trkpt>
      <trkpt lat="44.03969" lon="3.51252">
        <ele>1295</ele>
        <time>2026-05-28T12:26:43.999Z</time>
      </trkpt>
      <trkpt lat="44.03969" lon="3.51254">
        <ele>1294.5</ele>
        <time>2026-05-28T12:26:44.999Z</time>
      </trkpt>
      <trkpt lat="44.03969" lon="3.51256">
        <ele>1294.1</ele>
        <time>2026-05-28T12:26:45.999Z</time>
      </trkpt>
      <trkpt lat="44.03969" lon="3.51257">
        <ele>1294</ele>
        <time>2026-05-28T12:26:46.999Z</time>
      </trkpt>
      <trkpt lat="44.03969" lon="3.51259">
        <ele>1293.9</ele>
        <time>2026-05-28T12:26:47.999Z</time>
      </trkpt>
      <trkpt lat="44.03969" lon="3.51261">
        <ele>1294</ele>
        <time>2026-05-28T12:26:48.999Z</time>
      </trkpt>
      <trkpt lat="44.03969" lon="3.51264">
        <ele>1294.3</ele>
        <time>2026-05-28T12:26:49.999Z</time>
      </trkpt>
      <trkpt lat="44.03969" lon="3.51266">
        <ele>1294.5</ele>
        <time>2026-05-28T12:26:50.999Z</time>
      </trkpt>
      <trkpt lat="44.0397" lon="3.51268">
        <ele>1294.8</ele>
        <time>2026-05-28T12:26:51.999Z</time>
      </trkpt>
      <trkpt lat="44.0397" lon="3.5127">
        <ele>1294.8</ele>
        <time>2026-05-28T12:26:52.999Z</time>
      </trkpt>
      <trkpt lat="44.03971" lon="3.51271">
        <ele>1294.5</ele>
        <time>2026-05-28T12:26:53.999Z</time>
      </trkpt>
      <trkpt lat="44.03971" lon="3.51272">
        <ele>1294.3</ele>
        <time>2026-05-28T12:26:54.999Z</time>
      </trkpt>
      <trkpt lat="44.03971" lon="3.51273">
        <ele>1294</ele>
        <time>2026-05-28T12:26:55.999Z</time>
      </trkpt>
      <trkpt lat="44.03971" lon="3.51273">
        <ele>1294</ele>
        <time>2026-05-28T12:26:56.999Z</time>
      </trkpt>
      <trkpt lat="44.0397" lon="3.51274">
        <ele>1293.9</ele>
        <time>2026-05-28T12:26:57.999Z</time>
      </trkpt>
      <trkpt lat="44.0397" lon="3.51275">
        <ele>1294.1</ele>
        <time>2026-05-28T12:26:58.999Z</time>
      </trkpt>
      <trkpt lat="44.0397" lon="3.51276">
        <ele>1293.9</ele>
        <time>2026-05-28T12:26:59.999Z</time>
      </trkpt>
      <trkpt lat="44.03969" lon="3.51277">
        <ele>1293.9</ele>
        <time>2026-05-28T12:27:00.999Z</time>
      </trkpt>
      <trkpt lat="44.03969" lon="3.51277">
        <ele>1293.9</ele>
        <time>2026-05-28T12:27:01.999Z</time>
      </trkpt>
      <trkpt lat="44.03969" lon="3.51279">
        <ele>1293.5</ele>
        <time>2026-05-28T12:27:02.999Z</time>
      </trkpt>
      <trkpt lat="44.03969" lon="3.5128">
        <ele>1293.2</ele>
        <time>2026-05-28T12:27:03.999Z</time>
      </trkpt>
      <trkpt lat="44.03969" lon="3.51282">
        <ele>1292.9</ele>
        <time>2026-05-28T12:27:04.999Z</time>
      </trkpt>
      <trkpt lat="44.0397" lon="3.51283">
        <ele>1292.8</ele>
        <time>2026-05-28T12:27:05.999Z</time>
      </trkpt>
      <trkpt lat="44.0397" lon="3.51285">
        <ele>1292.9</ele>
        <time>2026-05-28T12:27:06.999Z</time>
      </trkpt>
      <trkpt lat="44.03971" lon="3.51286">
        <ele>1292.9</ele>
        <time>2026-05-28T12:27:07.999Z</time>
      </trkpt>
      <trkpt lat="44.03971" lon="3.51287">
        <ele>1293</ele>
        <time>2026-05-28T12:27:08.999Z</time>
      </trkpt>
      <trkpt lat="44.03972" lon="3.51288">
        <ele>1293</ele>
        <time>2026-05-28T12:27:09.999Z</time>
      </trkpt>
      <trkpt lat="44.03972" lon="3.51289">
        <ele>1292.3</ele>
        <time>2026-05-28T12:27:10.999Z</time>
      </trkpt>
      <trkpt lat="44.03972" lon="3.51291">
        <ele>1292.4</ele>
        <time>2026-05-28T12:27:11.999Z</time>
      </trkpt>
      <trkpt lat="44.03972" lon="3.51292">
        <ele>1292.5</ele>
        <time>2026-05-28T12:27:12.999Z</time>
      </trkpt>
      <trkpt lat="44.03971" lon="3.51294">
        <ele>1292.1</ele>
        <time>2026-05-28T12:27:13.999Z</time>
      </trkpt>
      <trkpt lat="44.03971" lon="3.51295">
        <ele>1291.8</ele>
        <time>2026-05-28T12:27:14.999Z</time>
      </trkpt>
      <trkpt lat="44.03971" lon="3.51297">
        <ele>1291.8</ele>
        <time>2026-05-28T12:27:15.999Z</time>
      </trkpt>
      <trkpt lat="44.03972" lon="3.51298">
        <ele>1291.6</ele>
        <time>2026-05-28T12:27:16.999Z</time>
      </trkpt>
      <trkpt lat="44.03972" lon="3.51299">
        <ele>1291.4</ele>
        <time>2026-05-28T12:27:17.999Z</time>
      </trkpt>
      <trkpt lat="44.03972" lon="3.51299">
        <ele>1291</ele>
        <time>2026-05-28T12:27:18.999Z</time>
      </trkpt>
      <trkpt lat="44.03971" lon="3.51299">
        <ele>1290.7</ele>
        <time>2026-05-28T12:27:19.999Z</time>
      </trkpt>
      <trkpt lat="44.0397" lon="3.51299">
        <ele>1290.5</ele>
        <time>2026-05-28T12:27:20.999Z</time>
      </trkpt>
      <trkpt lat="44.0397" lon="3.51298">
        <ele>1289.6</ele>
        <time>2026-05-28T12:27:21.999Z</time>
      </trkpt>
      <trkpt lat="44.0397" lon="3.51298">
        <ele>1289.3</ele>
        <time>2026-05-28T12:27:22.999Z</time>
      </trkpt>
      <trkpt lat="44.03969" lon="3.51298">
        <ele>1289.3</ele>
        <time>2026-05-28T12:27:23.999Z</time>
      </trkpt>
      <trkpt lat="44.03969" lon="3.51299">
        <ele>1289.3</ele>
        <time>2026-05-28T12:27:24.999Z</time>
      </trkpt>
      <trkpt lat="44.03969" lon="3.51299">
        <ele>1289.1</ele>
        <time>2026-05-28T12:27:25.999Z</time>
      </trkpt>
      <trkpt lat="44.03968" lon="3.513">
        <ele>1289.1</ele>
        <time>2026-05-28T12:27:26.999Z</time>
      </trkpt>
      <trkpt lat="44.03968" lon="3.51301">
        <ele>1288.9</ele>
        <time>2026-05-28T12:27:27.999Z</time>
      </trkpt>
      <trkpt lat="44.03968" lon="3.51301">
        <ele>1289.3</ele>
        <time>2026-05-28T12:27:28.999Z</time>
      </trkpt>
      <trkpt lat="44.03968" lon="3.51303">
        <ele>1289.9</ele>
        <time>2026-05-28T12:27:29.999Z</time>
      </trkpt>
      <trkpt lat="44.03969" lon="3.51302">
        <ele>1289.9</ele>
        <time>2026-05-28T12:27:30.999Z</time>
      </trkpt>
      <trkpt lat="44.03969" lon="3.51302">
        <ele>1289.9</ele>
        <time>2026-05-28T12:27:31.999Z</time>
      </trkpt>
      <trkpt lat="44.0397" lon="3.51302">
        <ele>1289.8</ele>
        <time>2026-05-28T12:27:32.999Z</time>
      </trkpt>
      <trkpt lat="44.0397" lon="3.51302">
        <ele>1290</ele>
        <time>2026-05-28T12:27:33.999Z</time>
      </trkpt>
      <trkpt lat="44.0397" lon="3.51302">
        <ele>1290.2</ele>
        <time>2026-05-28T12:27:34.999Z</time>
      </trkpt>
      <trkpt lat="44.0397" lon="3.51302">
        <ele>1290.4</ele>
        <time>2026-05-28T12:27:35.999Z</time>
      </trkpt>
      <trkpt lat="44.0397" lon="3.51303">
        <ele>1290.7</ele>
        <time>2026-05-28T12:27:36.999Z</time>
      </trkpt>
      <trkpt lat="44.0397" lon="3.51303">
        <ele>1290.9</ele>
        <time>2026-05-28T12:27:37.999Z</time>
      </trkpt>
      <trkpt lat="44.0397" lon="3.51303">
        <ele>1291.2</ele>
        <time>2026-05-28T12:27:38.999Z</time>
      </trkpt>
      <trkpt lat="44.0397" lon="3.51303">
        <ele>1291.6</ele>
        <time>2026-05-28T12:27:39.999Z</time>
      </trkpt>
      <trkpt lat="44.03969" lon="3.51303">
        <ele>1291.5</ele>
        <time>2026-05-28T12:27:40.999Z</time>
      </trkpt>
      <trkpt lat="44.03969" lon="3.51303">
        <ele>1291.2</ele>
        <time>2026-05-28T12:27:41.999Z</time>
      </trkpt>
      <trkpt lat="44.03969" lon="3.51303">
        <ele>1291.1</ele>
        <time>2026-05-28T12:27:42.999Z</time>
      </trkpt>
      <trkpt lat="44.03969" lon="3.51303">
        <ele>1290.9</ele>
        <time>2026-05-28T12:27:43.999Z</time>
      </trkpt>
      <trkpt lat="44.03969" lon="3.51304">
        <ele>1290.5</ele>
        <time>2026-05-28T12:27:44.999Z</time>
      </trkpt>
      <trkpt lat="44.03969" lon="3.51305">
        <ele>1290.3</ele>
        <time>2026-05-28T12:27:45.999Z</time>
      </trkpt>
      <trkpt lat="44.03969" lon="3.51307">
        <ele>1290.3</ele>
        <time>2026-05-28T12:27:46.999Z</time>
      </trkpt>
      <trkpt lat="44.03969" lon="3.51309">
        <ele>1290.5</ele>
        <time>2026-05-28T12:27:47.999Z</time>
      </trkpt>
      <trkpt lat="44.03968" lon="3.51311">
        <ele>1290.1</ele>
        <time>2026-05-28T12:27:48.999Z</time>
      </trkpt>
      <trkpt lat="44.03968" lon="3.51313">
        <ele>1289.7</ele>
        <time>2026-05-28T12:27:49.999Z</time>
      </trkpt>
      <trkpt lat="44.03968" lon="3.51314">
        <ele>1289.3</ele>
        <time>2026-05-28T12:27:50.999Z</time>
      </trkpt>
      <trkpt lat="44.03968" lon="3.51315">
        <ele>1289.1</ele>
        <time>2026-05-28T12:27:51.999Z</time>
      </trkpt>
      <trkpt lat="44.03968" lon="3.51318">
        <ele>1288.7</ele>
        <time>2026-05-28T12:27:52.999Z</time>
      </trkpt>
      <trkpt lat="44.03967" lon="3.5132">
        <ele>1288.8</ele>
        <time>2026-05-28T12:27:53.999Z</time>
      </trkpt>
      <trkpt lat="44.03966" lon="3.51321">
        <ele>1289.1</ele>
        <time>2026-05-28T12:27:54.999Z</time>
      </trkpt>
      <trkpt lat="44.03966" lon="3.51323">
        <ele>1289.1</ele>
        <time>2026-05-28T12:27:55.999Z</time>
      </trkpt>
      <trkpt lat="44.03965" lon="3.51324">
        <ele>1288.9</ele>
        <time>2026-05-28T12:27:56.999Z</time>
      </trkpt>
      <trkpt lat="44.03965" lon="3.51324">
        <ele>1288.6</ele>
        <time>2026-05-28T12:27:57.999Z</time>
      </trkpt>
      <trkpt lat="44.03964" lon="3.51326">
        <ele>1288.3</ele>
        <time>2026-05-28T12:27:58.999Z</time>
      </trkpt>
      <trkpt lat="44.03963" lon="3.51328">
        <ele>1288</ele>
        <time>2026-05-28T12:27:59.999Z</time>
      </trkpt>
      <trkpt lat="44.03962" lon="3.51329">
        <ele>1287.5</ele>
        <time>2026-05-28T12:28:00.999Z</time>
      </trkpt>
      <trkpt lat="44.03962" lon="3.5133">
        <ele>1287.2</ele>
        <time>2026-05-28T12:28:01.999Z</time>
      </trkpt>
      <trkpt lat="44.03961" lon="3.51331">
        <ele>1287</ele>
        <time>2026-05-28T12:28:02.999Z</time>
      </trkpt>
      <trkpt lat="44.03961" lon="3.51332">
        <ele>1287</ele>
        <time>2026-05-28T12:28:03.999Z</time>
      </trkpt>
      <trkpt lat="44.03961" lon="3.51334">
        <ele>1287.1</ele>
        <time>2026-05-28T12:28:04.999Z</time>
      </trkpt>
      <trkpt lat="44.03961" lon="3.51335">
        <ele>1287.3</ele>
        <time>2026-05-28T12:28:05.999Z</time>
      </trkpt>
      <trkpt lat="44.03961" lon="3.51337">
        <ele>1287.3</ele>
        <time>2026-05-28T12:28:06.999Z</time>
      </trkpt>
      <trkpt lat="44.03961" lon="3.51338">
        <ele>1287.2</ele>
        <time>2026-05-28T12:28:07.999Z</time>
      </trkpt>
      <trkpt lat="44.0396" lon="3.5134">
        <ele>1287.2</ele>
        <time>2026-05-28T12:28:08.999Z</time>
      </trkpt>
      <trkpt lat="44.0396" lon="3.51341">
        <ele>1287.2</ele>
        <time>2026-05-28T12:28:09.999Z</time>
      </trkpt>
      <trkpt lat="44.0396" lon="3.51343">
        <ele>1287.2</ele>
        <time>2026-05-28T12:28:10.999Z</time>
      </trkpt>
      <trkpt lat="44.0396" lon="3.51345">
        <ele>1287.5</ele>
        <time>2026-05-28T12:28:11.999Z</time>
      </trkpt>
      <trkpt lat="44.0396" lon="3.51346">
        <ele>1287.9</ele>
        <time>2026-05-28T12:28:12.999Z</time>
      </trkpt>
      <trkpt lat="44.03961" lon="3.51347">
        <ele>1288.2</ele>
        <time>2026-05-28T12:28:13.999Z</time>
      </trkpt>
      <trkpt lat="44.03961" lon="3.51348">
        <ele>1288.5</ele>
        <time>2026-05-28T12:28:14.999Z</time>
      </trkpt>
      <trkpt lat="44.03961" lon="3.51348">
        <ele>1288.6</ele>
        <time>2026-05-28T12:28:15.999Z</time>
      </trkpt>
      <trkpt lat="44.03961" lon="3.51348">
        <ele>1288.9</ele>
        <time>2026-05-28T12:28:16.999Z</time>
      </trkpt>
      <trkpt lat="44.03961" lon="3.51348">
        <ele>1288.6</ele>
        <time>2026-05-28T12:28:17.999Z</time>
      </trkpt>
      <trkpt lat="44.03961" lon="3.51348">
        <ele>1288.8</ele>
        <time>2026-05-28T12:28:18.999Z</time>
      </trkpt>
      <trkpt lat="44.03961" lon="3.51348">
        <ele>1289.1</ele>
        <time>2026-05-28T12:28:19.999Z</time>
      </trkpt>
      <trkpt lat="44.03961" lon="3.51348">
        <ele>1289.4</ele>
        <time>2026-05-28T12:28:20.999Z</time>
      </trkpt>
      <trkpt lat="44.03961" lon="3.51348">
        <ele>1289.8</ele>
        <time>2026-05-28T12:28:21.999Z</time>
      </trkpt>
      <trkpt lat="44.03961" lon="3.51349">
        <ele>1289.8</ele>
        <time>2026-05-28T12:28:22.999Z</time>
      </trkpt>
      <trkpt lat="44.0396" lon="3.5135">
        <ele>1289.7</ele>
        <time>2026-05-28T12:28:23.999Z</time>
      </trkpt>
      <trkpt lat="44.0396" lon="3.51353">
        <ele>1289.8</ele>
        <time>2026-05-28T12:28:24.999Z</time>
      </trkpt>
      <trkpt lat="44.03959" lon="3.51355">
        <ele>1289.9</ele>
        <time>2026-05-28T12:28:25.999Z</time>
      </trkpt>
      <trkpt lat="44.03959" lon="3.51357">
        <ele>1289.6</ele>
        <time>2026-05-28T12:28:26.999Z</time>
      </trkpt>
      <trkpt lat="44.03959" lon="3.51359">
        <ele>1289.4</ele>
        <time>2026-05-28T12:28:27.999Z</time>
      </trkpt>
      <trkpt lat="44.03959" lon="3.51361">
        <ele>1288.8</ele>
        <time>2026-05-28T12:28:28.999Z</time>
      </trkpt>
      <trkpt lat="44.03958" lon="3.51363">
        <ele>1288.6</ele>
        <time>2026-05-28T12:28:29.999Z</time>
      </trkpt>
      <trkpt lat="44.03957" lon="3.51365">
        <ele>1288.4</ele>
        <time>2026-05-28T12:28:30.999Z</time>
      </trkpt>
      <trkpt lat="44.03956" lon="3.51367">
        <ele>1288.3</ele>
        <time>2026-05-28T12:28:31.999Z</time>
      </trkpt>
      <trkpt lat="44.03955" lon="3.51369">
        <ele>1288.3</ele>
        <time>2026-05-28T12:28:32.999Z</time>
      </trkpt>
      <trkpt lat="44.03955" lon="3.51371">
        <ele>1288</ele>
        <time>2026-05-28T12:28:33.999Z</time>
      </trkpt>
      <trkpt lat="44.03955" lon="3.51373">
        <ele>1287.6</ele>
        <time>2026-05-28T12:28:34.999Z</time>
      </trkpt>
      <trkpt lat="44.03955" lon="3.51375">
        <ele>1287.6</ele>
        <time>2026-05-28T12:28:35.999Z</time>
      </trkpt>
      <trkpt lat="44.03955" lon="3.51376">
        <ele>1287.8</ele>
        <time>2026-05-28T12:28:36.999Z</time>
      </trkpt>
      <trkpt lat="44.03954" lon="3.51377">
        <ele>1287.9</ele>
        <time>2026-05-28T12:28:37.999Z</time>
      </trkpt>
      <trkpt lat="44.03954" lon="3.51378">
        <ele>1287.6</ele>
        <time>2026-05-28T12:28:38.999Z</time>
      </trkpt>
      <trkpt lat="44.03954" lon="3.5138">
        <ele>1287.7</ele>
        <time>2026-05-28T12:28:39.999Z</time>
      </trkpt>
      <trkpt lat="44.03953" lon="3.5138">
        <ele>1287.8</ele>
        <time>2026-05-28T12:28:40.999Z</time>
      </trkpt>
      <trkpt lat="44.03952" lon="3.51382">
        <ele>1287.6</ele>
        <time>2026-05-28T12:28:41.999Z</time>
      </trkpt>
      <trkpt lat="44.03951" lon="3.51383">
        <ele>1287.9</ele>
        <time>2026-05-28T12:28:42.999Z</time>
      </trkpt>
      <trkpt lat="44.03951" lon="3.51385">
        <ele>1287.9</ele>
        <time>2026-05-28T12:28:43.999Z</time>
      </trkpt>
      <trkpt lat="44.03951" lon="3.51387">
        <ele>1288.2</ele>
        <time>2026-05-28T12:28:44.999Z</time>
      </trkpt>
      <trkpt lat="44.03951" lon="3.51389">
        <ele>1288.6</ele>
        <time>2026-05-28T12:28:45.999Z</time>
      </trkpt>
      <trkpt lat="44.03951" lon="3.5139">
        <ele>1288.7</ele>
        <time>2026-05-28T12:28:46.999Z</time>
      </trkpt>
      <trkpt lat="44.03951" lon="3.51392">
        <ele>1288.6</ele>
        <time>2026-05-28T12:28:47.999Z</time>
      </trkpt>
      <trkpt lat="44.03951" lon="3.51393">
        <ele>1288.3</ele>
        <time>2026-05-28T12:28:48.999Z</time>
      </trkpt>
      <trkpt lat="44.03951" lon="3.51394">
        <ele>1288</ele>
        <time>2026-05-28T12:28:49.999Z</time>
      </trkpt>
      <trkpt lat="44.03951" lon="3.51396">
        <ele>1288.1</ele>
        <time>2026-05-28T12:28:50.999Z</time>
      </trkpt>
      <trkpt lat="44.03952" lon="3.51397">
        <ele>1287.9</ele>
        <time>2026-05-28T12:28:51.999Z</time>
      </trkpt>
      <trkpt lat="44.03952" lon="3.51398">
        <ele>1288.7</ele>
        <time>2026-05-28T12:28:52.999Z</time>
      </trkpt>
      <trkpt lat="44.03952" lon="3.51399">
        <ele>1288.6</ele>
        <time>2026-05-28T12:28:53.999Z</time>
      </trkpt>
      <trkpt lat="44.03952" lon="3.51401">
        <ele>1288.2</ele>
        <time>2026-05-28T12:28:54.999Z</time>
      </trkpt>
      <trkpt lat="44.03952" lon="3.51402">
        <ele>1288.2</ele>
        <time>2026-05-28T12:28:55.999Z</time>
      </trkpt>
      <trkpt lat="44.03951" lon="3.51404">
        <ele>1288.1</ele>
        <time>2026-05-28T12:28:56.999Z</time>
      </trkpt>
      <trkpt lat="44.0395" lon="3.51406">
        <ele>1288</ele>
        <time>2026-05-28T12:28:57.999Z</time>
      </trkpt>
      <trkpt lat="44.03949" lon="3.51407">
        <ele>1288</ele>
        <time>2026-05-28T12:28:58.999Z</time>
      </trkpt>
      <trkpt lat="44.03948" lon="3.51408">
        <ele>1287.7</ele>
        <time>2026-05-28T12:28:59.999Z</time>
      </trkpt>
      <trkpt lat="44.03948" lon="3.51409">
        <ele>1287.3</ele>
        <time>2026-05-28T12:29:00.999Z</time>
      </trkpt>
      <trkpt lat="44.03947" lon="3.5141">
        <ele>1286.7</ele>
        <time>2026-05-28T12:29:01.999Z</time>
      </trkpt>
      <trkpt lat="44.03946" lon="3.51412">
        <ele>1286.3</ele>
        <time>2026-05-28T12:29:02.999Z</time>
      </trkpt>
      <trkpt lat="44.03945" lon="3.51414">
        <ele>1286.3</ele>
        <time>2026-05-28T12:29:03.999Z</time>
      </trkpt>
      <trkpt lat="44.03944" lon="3.51416">
        <ele>1286.3</ele>
        <time>2026-05-28T12:29:04.999Z</time>
      </trkpt>
      <trkpt lat="44.03943" lon="3.51417">
        <ele>1285.9</ele>
        <time>2026-05-28T12:29:05.999Z</time>
      </trkpt>
      <trkpt lat="44.03943" lon="3.51418">
        <ele>1285.4</ele>
        <time>2026-05-28T12:29:06.999Z</time>
      </trkpt>
      <trkpt lat="44.03942" lon="3.51418">
        <ele>1285.1</ele>
        <time>2026-05-28T12:29:07.999Z</time>
      </trkpt>
      <trkpt lat="44.03942" lon="3.51418">
        <ele>1284.7</ele>
        <time>2026-05-28T12:29:08.999Z</time>
      </trkpt>
      <trkpt lat="44.03941" lon="3.5142">
        <ele>1284.4</ele>
        <time>2026-05-28T12:29:09.999Z</time>
      </trkpt>
      <trkpt lat="44.0394" lon="3.51421">
        <ele>1284.3</ele>
        <time>2026-05-28T12:29:10.999Z</time>
      </trkpt>
      <trkpt lat="44.03939" lon="3.51422">
        <ele>1284.4</ele>
        <time>2026-05-28T12:29:11.999Z</time>
      </trkpt>
      <trkpt lat="44.03939" lon="3.51423">
        <ele>1284.7</ele>
        <time>2026-05-28T12:29:12.999Z</time>
      </trkpt>
      <trkpt lat="44.03938" lon="3.51424">
        <ele>1284.6</ele>
        <time>2026-05-28T12:29:13.999Z</time>
      </trkpt>
      <trkpt lat="44.03937" lon="3.51425">
        <ele>1284.4</ele>
        <time>2026-05-28T12:29:14.999Z</time>
      </trkpt>
      <trkpt lat="44.03936" lon="3.51426">
        <ele>1284.3</ele>
        <time>2026-05-28T12:29:15.999Z</time>
      </trkpt>
      <trkpt lat="44.03935" lon="3.51427">
        <ele>1284.3</ele>
        <time>2026-05-28T12:29:16.999Z</time>
      </trkpt>
      <trkpt lat="44.03934" lon="3.51429">
        <ele>1284.7</ele>
        <time>2026-05-28T12:29:17.999Z</time>
      </trkpt>
      <trkpt lat="44.03934" lon="3.5143">
        <ele>1285.1</ele>
        <time>2026-05-28T12:29:18.999Z</time>
      </trkpt>
      <trkpt lat="44.03932" lon="3.51433">
        <ele>1285.3</ele>
        <time>2026-05-28T12:29:19.999Z</time>
      </trkpt>
      <trkpt lat="44.03931" lon="3.51435">
        <ele>1285.3</ele>
        <time>2026-05-28T12:29:20.999Z</time>
      </trkpt>
      <trkpt lat="44.0393" lon="3.51437">
        <ele>1284.8</ele>
        <time>2026-05-28T12:29:21.999Z</time>
      </trkpt>
      <trkpt lat="44.03929" lon="3.51439">
        <ele>1284.6</ele>
        <time>2026-05-28T12:29:22.999Z</time>
      </trkpt>
      <trkpt lat="44.03928" lon="3.5144">
        <ele>1284.6</ele>
        <time>2026-05-28T12:29:23.999Z</time>
      </trkpt>
      <trkpt lat="44.03927" lon="3.51441">
        <ele>1284.7</ele>
        <time>2026-05-28T12:29:24.999Z</time>
      </trkpt>
      <trkpt lat="44.03927" lon="3.51442">
        <ele>1284.7</ele>
        <time>2026-05-28T12:29:25.999Z</time>
      </trkpt>
      <trkpt lat="44.03927" lon="3.51443">
        <ele>1284.4</ele>
        <time>2026-05-28T12:29:26.999Z</time>
      </trkpt>
      <trkpt lat="44.03926" lon="3.51445">
        <ele>1284.5</ele>
        <time>2026-05-28T12:29:27.999Z</time>
      </trkpt>
      <trkpt lat="44.03925" lon="3.51447">
        <ele>1284.6</ele>
        <time>2026-05-28T12:29:28.999Z</time>
      </trkpt>
      <trkpt lat="44.03923" lon="3.51449">
        <ele>1284.5</ele>
        <time>2026-05-28T12:29:29.999Z</time>
      </trkpt>
      <trkpt lat="44.03921" lon="3.51451">
        <ele>1284.4</ele>
        <time>2026-05-28T12:29:30.999Z</time>
      </trkpt>
      <trkpt lat="44.0392" lon="3.51453">
        <ele>1284.6</ele>
        <time>2026-05-28T12:29:31.999Z</time>
      </trkpt>
      <trkpt lat="44.0392" lon="3.51454">
        <ele>1284.4</ele>
        <time>2026-05-28T12:29:32.999Z</time>
      </trkpt>
      <trkpt lat="44.0392" lon="3.51455">
        <ele>1284.5</ele>
        <time>2026-05-28T12:29:33.999Z</time>
      </trkpt>
      <trkpt lat="44.0392" lon="3.51456">
        <ele>1284.4</ele>
        <time>2026-05-28T12:29:34.999Z</time>
      </trkpt>
      <trkpt lat="44.03919" lon="3.51458">
        <ele>1284.4</ele>
        <time>2026-05-28T12:29:35.999Z</time>
      </trkpt>
      <trkpt lat="44.03918" lon="3.51459">
        <ele>1284.6</ele>
        <time>2026-05-28T12:29:36.999Z</time>
      </trkpt>
      <trkpt lat="44.03917" lon="3.5146">
        <ele>1285.1</ele>
        <time>2026-05-28T12:29:37.999Z</time>
      </trkpt>
      <trkpt lat="44.03916" lon="3.51461">
        <ele>1285.2</ele>
        <time>2026-05-28T12:29:38.999Z</time>
      </trkpt>
      <trkpt lat="44.03915" lon="3.51462">
        <ele>1285.4</ele>
        <time>2026-05-28T12:29:39.999Z</time>
      </trkpt>
      <trkpt lat="44.03914" lon="3.51463">
        <ele>1285.4</ele>
        <time>2026-05-28T12:29:40.999Z</time>
      </trkpt>
      <trkpt lat="44.03913" lon="3.51464">
        <ele>1285.4</ele>
        <time>2026-05-28T12:29:41.999Z</time>
      </trkpt>
      <trkpt lat="44.03913" lon="3.51465">
        <ele>1285.4</ele>
        <time>2026-05-28T12:29:42.999Z</time>
      </trkpt>
      <trkpt lat="44.03912" lon="3.51466">
        <ele>1284.9</ele>
        <time>2026-05-28T12:29:43.999Z</time>
      </trkpt>
      <trkpt lat="44.03911" lon="3.51468">
        <ele>1284.4</ele>
        <time>2026-05-28T12:29:44.999Z</time>
      </trkpt>
      <trkpt lat="44.0391" lon="3.51469">
        <ele>1284.3</ele>
        <time>2026-05-28T12:29:45.999Z</time>
      </trkpt>
      <trkpt lat="44.03909" lon="3.51471">
        <ele>1284.2</ele>
        <time>2026-05-28T12:29:46.999Z</time>
      </trkpt>
      <trkpt lat="44.03909" lon="3.51473">
        <ele>1284.1</ele>
        <time>2026-05-28T12:29:47.999Z</time>
      </trkpt>
      <trkpt lat="44.03908" lon="3.51474">
        <ele>1284</ele>
        <time>2026-05-28T12:29:48.999Z</time>
      </trkpt>
      <trkpt lat="44.03907" lon="3.51476">
        <ele>1283.8</ele>
        <time>2026-05-28T12:29:49.999Z</time>
      </trkpt>
      <trkpt lat="44.03907" lon="3.51477">
        <ele>1283.8</ele>
        <time>2026-05-28T12:29:50.999Z</time>
      </trkpt>
      <trkpt lat="44.03907" lon="3.51478">
        <ele>1283.8</ele>
        <time>2026-05-28T12:29:51.999Z</time>
      </trkpt>
      <trkpt lat="44.03907" lon="3.51479">
        <ele>1283.8</ele>
        <time>2026-05-28T12:29:52.999Z</time>
      </trkpt>
      <trkpt lat="44.03906" lon="3.51481">
        <ele>1284</ele>
        <time>2026-05-28T12:29:53.999Z</time>
      </trkpt>
      <trkpt lat="44.03906" lon="3.51481">
        <ele>1284.7</ele>
        <time>2026-05-28T12:29:54.999Z</time>
      </trkpt>
      <trkpt lat="44.03905" lon="3.51483">
        <ele>1284.7</ele>
        <time>2026-05-28T12:29:55.999Z</time>
      </trkpt>
      <trkpt lat="44.03905" lon="3.51485">
        <ele>1285</ele>
        <time>2026-05-28T12:29:56.999Z</time>
      </trkpt>
      <trkpt lat="44.03904" lon="3.51486">
        <ele>1285.1</ele>
        <time>2026-05-28T12:29:57.999Z</time>
      </trkpt>
      <trkpt lat="44.03904" lon="3.51487">
        <ele>1285.4</ele>
        <time>2026-05-28T12:29:58.999Z</time>
      </trkpt>
      <trkpt lat="44.03903" lon="3.51488">
        <ele>1285.4</ele>
        <time>2026-05-28T12:29:59.999Z</time>
      </trkpt>
      <trkpt lat="44.03902" lon="3.51489">
        <ele>1285.4</ele>
        <time>2026-05-28T12:30:00.999Z</time>
      </trkpt>
      <trkpt lat="44.03901" lon="3.5149">
        <ele>1285.1</ele>
        <time>2026-05-28T12:30:01.999Z</time>
      </trkpt>
      <trkpt lat="44.039" lon="3.51491">
        <ele>1285</ele>
        <time>2026-05-28T12:30:02.999Z</time>
      </trkpt>
      <trkpt lat="44.03899" lon="3.51493">
        <ele>1285</ele>
        <time>2026-05-28T12:30:03.999Z</time>
      </trkpt>
      <trkpt lat="44.03898" lon="3.51494">
        <ele>1284.6</ele>
        <time>2026-05-28T12:30:04.999Z</time>
      </trkpt>
      <trkpt lat="44.03898" lon="3.51495">
        <ele>1284.6</ele>
        <time>2026-05-28T12:30:05.999Z</time>
      </trkpt>
      <trkpt lat="44.03896" lon="3.51495">
        <ele>1284.5</ele>
        <time>2026-05-28T12:30:06.999Z</time>
      </trkpt>
      <trkpt lat="44.03895" lon="3.51496">
        <ele>1284.3</ele>
        <time>2026-05-28T12:30:07.999Z</time>
      </trkpt>
      <trkpt lat="44.03894" lon="3.51496">
        <ele>1284.1</ele>
        <time>2026-05-28T12:30:08.999Z</time>
      </trkpt>
      <trkpt lat="44.03894" lon="3.51497">
        <ele>1284</ele>
        <time>2026-05-28T12:30:09.999Z</time>
      </trkpt>
      <trkpt lat="44.03894" lon="3.51498">
        <ele>1284.2</ele>
        <time>2026-05-28T12:30:10.999Z</time>
      </trkpt>
      <trkpt lat="44.03893" lon="3.515">
        <ele>1284.3</ele>
        <time>2026-05-28T12:30:11.999Z</time>
      </trkpt>
      <trkpt lat="44.03892" lon="3.51502">
        <ele>1284.7</ele>
        <time>2026-05-28T12:30:12.999Z</time>
      </trkpt>
      <trkpt lat="44.03891" lon="3.51503">
        <ele>1285.3</ele>
        <time>2026-05-28T12:30:13.999Z</time>
      </trkpt>
      <trkpt lat="44.0389" lon="3.51505">
        <ele>1285.5</ele>
        <time>2026-05-28T12:30:14.999Z</time>
      </trkpt>
      <trkpt lat="44.03889" lon="3.51507">
        <ele>1285.5</ele>
        <time>2026-05-28T12:30:15.999Z</time>
      </trkpt>
      <trkpt lat="44.03889" lon="3.51507">
        <ele>1285.8</ele>
        <time>2026-05-28T12:30:16.999Z</time>
      </trkpt>
      <trkpt lat="44.03889" lon="3.51508">
        <ele>1286</ele>
        <time>2026-05-28T12:30:17.999Z</time>
      </trkpt>
      <trkpt lat="44.03888" lon="3.5151">
        <ele>1286.1</ele>
        <time>2026-05-28T12:30:18.999Z</time>
      </trkpt>
      <trkpt lat="44.03887" lon="3.51511">
        <ele>1286.5</ele>
        <time>2026-05-28T12:30:19.999Z</time>
      </trkpt>
      <trkpt lat="44.03887" lon="3.51512">
        <ele>1286.4</ele>
        <time>2026-05-28T12:30:20.999Z</time>
      </trkpt>
      <trkpt lat="44.03887" lon="3.51512">
        <ele>1286.5</ele>
        <time>2026-05-28T12:30:21.999Z</time>
      </trkpt>
      <trkpt lat="44.03886" lon="3.51513">
        <ele>1286.6</ele>
        <time>2026-05-28T12:30:22.999Z</time>
      </trkpt>
      <trkpt lat="44.03885" lon="3.51513">
        <ele>1286.9</ele>
        <time>2026-05-28T12:30:23.999Z</time>
      </trkpt>
      <trkpt lat="44.03884" lon="3.51515">
        <ele>1286.7</ele>
        <time>2026-05-28T12:30:24.999Z</time>
      </trkpt>
      <trkpt lat="44.03883" lon="3.51516">
        <ele>1286.9</ele>
        <time>2026-05-28T12:30:25.999Z</time>
      </trkpt>
      <trkpt lat="44.03882" lon="3.51517">
        <ele>1287.1</ele>
        <time>2026-05-28T12:30:26.999Z</time>
      </trkpt>
      <trkpt lat="44.03882" lon="3.51518">
        <ele>1287.2</ele>
        <time>2026-05-28T12:30:27.999Z</time>
      </trkpt>
      <trkpt lat="44.03881" lon="3.51518">
        <ele>1287.3</ele>
        <time>2026-05-28T12:30:28.999Z</time>
      </trkpt>
      <trkpt lat="44.03881" lon="3.5152">
        <ele>1287.2</ele>
        <time>2026-05-28T12:30:29.999Z</time>
      </trkpt>
      <trkpt lat="44.0388" lon="3.51521">
        <ele>1287.3</ele>
        <time>2026-05-28T12:30:30.999Z</time>
      </trkpt>
      <trkpt lat="44.03878" lon="3.51522">
        <ele>1287.3</ele>
        <time>2026-05-28T12:30:31.999Z</time>
      </trkpt>
      <trkpt lat="44.03878" lon="3.51522">
        <ele>1287.4</ele>
        <time>2026-05-28T12:30:32.999Z</time>
      </trkpt>
      <trkpt lat="44.03877" lon="3.51523">
        <ele>1287.8</ele>
        <time>2026-05-28T12:30:33.999Z</time>
      </trkpt>
      <trkpt lat="44.03876" lon="3.51524">
        <ele>1288.1</ele>
        <time>2026-05-28T12:30:34.999Z</time>
      </trkpt>
      <trkpt lat="44.03875" lon="3.51525">
        <ele>1288.3</ele>
        <time>2026-05-28T12:30:35.999Z</time>
      </trkpt>
      <trkpt lat="44.03874" lon="3.51526">
        <ele>1288.4</ele>
        <time>2026-05-28T12:30:36.999Z</time>
      </trkpt>
      <trkpt lat="44.03873" lon="3.51527">
        <ele>1288.3</ele>
        <time>2026-05-28T12:30:37.999Z</time>
      </trkpt>
      <trkpt lat="44.03872" lon="3.51528">
        <ele>1288.1</ele>
        <time>2026-05-28T12:30:38.999Z</time>
      </trkpt>
      <trkpt lat="44.03871" lon="3.51529">
        <ele>1288.2</ele>
        <time>2026-05-28T12:30:39.999Z</time>
      </trkpt>
      <trkpt lat="44.0387" lon="3.5153">
        <ele>1288.3</ele>
        <time>2026-05-28T12:30:40.999Z</time>
      </trkpt>
      <trkpt lat="44.03869" lon="3.5153">
        <ele>1288.4</ele>
        <time>2026-05-28T12:30:41.999Z</time>
      </trkpt>
      <trkpt lat="44.03869" lon="3.51531">
        <ele>1288.6</ele>
        <time>2026-05-28T12:30:42.999Z</time>
      </trkpt>
      <trkpt lat="44.03869" lon="3.51532">
        <ele>1288.4</ele>
        <time>2026-05-28T12:30:43.999Z</time>
      </trkpt>
      <trkpt lat="44.03869" lon="3.51534">
        <ele>1288.1</ele>
        <time>2026-05-28T12:30:44.999Z</time>
      </trkpt>
      <trkpt lat="44.03868" lon="3.51535">
        <ele>1288</ele>
        <time>2026-05-28T12:30:45.999Z</time>
      </trkpt>
      <trkpt lat="44.03868" lon="3.51536">
        <ele>1288</ele>
        <time>2026-05-28T12:30:46.999Z</time>
      </trkpt>
      <trkpt lat="44.03868" lon="3.51538">
        <ele>1288</ele>
        <time>2026-05-28T12:30:47.999Z</time>
      </trkpt>
      <trkpt lat="44.03867" lon="3.51538">
        <ele>1287.9</ele>
        <time>2026-05-28T12:30:48.999Z</time>
      </trkpt>
      <trkpt lat="44.03867" lon="3.5154">
        <ele>1287.9</ele>
        <time>2026-05-28T12:30:49.999Z</time>
      </trkpt>
      <trkpt lat="44.03866" lon="3.51541">
        <ele>1287.8</ele>
        <time>2026-05-28T12:30:50.999Z</time>
      </trkpt>
      <trkpt lat="44.03865" lon="3.51543">
        <ele>1287.7</ele>
        <time>2026-05-28T12:30:51.999Z</time>
      </trkpt>
      <trkpt lat="44.03864" lon="3.51544">
        <ele>1287.8</ele>
        <time>2026-05-28T12:30:52.999Z</time>
      </trkpt>
      <trkpt lat="44.03863" lon="3.51544">
        <ele>1288</ele>
        <time>2026-05-28T12:30:53.999Z</time>
      </trkpt>
      <trkpt lat="44.03863" lon="3.51545">
        <ele>1288.5</ele>
        <time>2026-05-28T12:30:54.999Z</time>
      </trkpt>
      <trkpt lat="44.03862" lon="3.51546">
        <ele>1288.9</ele>
        <time>2026-05-28T12:30:55.999Z</time>
      </trkpt>
      <trkpt lat="44.03862" lon="3.51546">
        <ele>1289.1</ele>
        <time>2026-05-28T12:30:56.999Z</time>
      </trkpt>
      <trkpt lat="44.03861" lon="3.51547">
        <ele>1289.3</ele>
        <time>2026-05-28T12:30:57.999Z</time>
      </trkpt>
      <trkpt lat="44.03861" lon="3.51549">
        <ele>1289.1</ele>
        <time>2026-05-28T12:30:58.999Z</time>
      </trkpt>
      <trkpt lat="44.03861" lon="3.5155">
        <ele>1288.8</ele>
        <time>2026-05-28T12:30:59.999Z</time>
      </trkpt>
      <trkpt lat="44.0386" lon="3.51552">
        <ele>1288.8</ele>
        <time>2026-05-28T12:31:00.999Z</time>
      </trkpt>
      <trkpt lat="44.0386" lon="3.51553">
        <ele>1288.9</ele>
        <time>2026-05-28T12:31:01.999Z</time>
      </trkpt>
      <trkpt lat="44.03859" lon="3.51554">
        <ele>1288.9</ele>
        <time>2026-05-28T12:31:02.999Z</time>
      </trkpt>
      <trkpt lat="44.03858" lon="3.51555">
        <ele>1289</ele>
        <time>2026-05-28T12:31:03.999Z</time>
      </trkpt>
      <trkpt lat="44.03857" lon="3.51556">
        <ele>1289.1</ele>
        <time>2026-05-28T12:31:04.999Z</time>
      </trkpt>
      <trkpt lat="44.03856" lon="3.51557">
        <ele>1289</ele>
        <time>2026-05-28T12:31:05.999Z</time>
      </trkpt>
      <trkpt lat="44.03855" lon="3.51558">
        <ele>1289.1</ele>
        <time>2026-05-28T12:31:06.999Z</time>
      </trkpt>
      <trkpt lat="44.03854" lon="3.51559">
        <ele>1288.9</ele>
        <time>2026-05-28T12:31:07.999Z</time>
      </trkpt>
      <trkpt lat="44.03854" lon="3.51561">
        <ele>1288.8</ele>
        <time>2026-05-28T12:31:08.999Z</time>
      </trkpt>
      <trkpt lat="44.03853" lon="3.51563">
        <ele>1288.7</ele>
        <time>2026-05-28T12:31:09.999Z</time>
      </trkpt>
      <trkpt lat="44.03852" lon="3.51564">
        <ele>1288.8</ele>
        <time>2026-05-28T12:31:10.999Z</time>
      </trkpt>
      <trkpt lat="44.03851" lon="3.51566">
        <ele>1289</ele>
        <time>2026-05-28T12:31:11.999Z</time>
      </trkpt>
      <trkpt lat="44.0385" lon="3.51567">
        <ele>1289.2</ele>
        <time>2026-05-28T12:31:12.999Z</time>
      </trkpt>
      <trkpt lat="44.03849" lon="3.51568">
        <ele>1289.3</ele>
        <time>2026-05-28T12:31:13.999Z</time>
      </trkpt>
      <trkpt lat="44.03848" lon="3.51569">
        <ele>1289.3</ele>
        <time>2026-05-28T12:31:14.999Z</time>
      </trkpt>
      <trkpt lat="44.03847" lon="3.5157">
        <ele>1289</ele>
        <time>2026-05-28T12:31:15.999Z</time>
      </trkpt>
      <trkpt lat="44.03846" lon="3.51571">
        <ele>1288.6</ele>
        <time>2026-05-28T12:31:16.999Z</time>
      </trkpt>
      <trkpt lat="44.03845" lon="3.51571">
        <ele>1288.5</ele>
        <time>2026-05-28T12:31:17.999Z</time>
      </trkpt>
      <trkpt lat="44.03844" lon="3.51572">
        <ele>1288.6</ele>
        <time>2026-05-28T12:31:18.999Z</time>
      </trkpt>
      <trkpt lat="44.03844" lon="3.51573">
        <ele>1288.6</ele>
        <time>2026-05-28T12:31:19.999Z</time>
      </trkpt>
      <trkpt lat="44.03843" lon="3.51574">
        <ele>1288.9</ele>
        <time>2026-05-28T12:31:20.999Z</time>
      </trkpt>
      <trkpt lat="44.03842" lon="3.51575">
        <ele>1288.7</ele>
        <time>2026-05-28T12:31:21.999Z</time>
      </trkpt>
      <trkpt lat="44.03841" lon="3.51576">
        <ele>1288.6</ele>
        <time>2026-05-28T12:31:22.999Z</time>
      </trkpt>
      <trkpt lat="44.03841" lon="3.51577">
        <ele>1288.4</ele>
        <time>2026-05-28T12:31:23.999Z</time>
      </trkpt>
      <trkpt lat="44.0384" lon="3.51579">
        <ele>1288.4</ele>
        <time>2026-05-28T12:31:24.999Z</time>
      </trkpt>
      <trkpt lat="44.03839" lon="3.51581">
        <ele>1289</ele>
        <time>2026-05-28T12:31:25.999Z</time>
      </trkpt>
      <trkpt lat="44.03838" lon="3.51583">
        <ele>1289.7</ele>
        <time>2026-05-28T12:31:27.000Z</time>
      </trkpt>
      <trkpt lat="44.03837" lon="3.51585">
        <ele>1290.4</ele>
        <time>2026-05-28T12:31:28.000Z</time>
      </trkpt>
      <trkpt lat="44.03837" lon="3.51587">
        <ele>1290.6</ele>
        <time>2026-05-28T12:31:29.000Z</time>
      </trkpt>
      <trkpt lat="44.03835" lon="3.51587">
        <ele>1290</ele>
        <time>2026-05-28T12:31:30.000Z</time>
      </trkpt>
      <trkpt lat="44.03833" lon="3.51587">
        <ele>1288.8</ele>
        <time>2026-05-28T12:31:31.000Z</time>
      </trkpt>
      <trkpt lat="44.03833" lon="3.51588">
        <ele>1288.6</ele>
        <time>2026-05-28T12:31:32.000Z</time>
      </trkpt>
      <trkpt lat="44.03833" lon="3.51589">
        <ele>1289</ele>
        <time>2026-05-28T12:31:33.000Z</time>
      </trkpt>
      <trkpt lat="44.03832" lon="3.5159">
        <ele>1289.2</ele>
        <time>2026-05-28T12:31:34.000Z</time>
      </trkpt>
      <trkpt lat="44.03832" lon="3.51591">
        <ele>1289.5</ele>
        <time>2026-05-28T12:31:35.000Z</time>
      </trkpt>
      <trkpt lat="44.03831" lon="3.51592">
        <ele>1289.6</ele>
        <time>2026-05-28T12:31:36.000Z</time>
      </trkpt>
      <trkpt lat="44.03831" lon="3.51593">
        <ele>1289.2</ele>
        <time>2026-05-28T12:31:37.000Z</time>
      </trkpt>
      <trkpt lat="44.0383" lon="3.51595">
        <ele>1289.4</ele>
        <time>2026-05-28T12:31:38.000Z</time>
      </trkpt>
      <trkpt lat="44.03829" lon="3.51597">
        <ele>1289.4</ele>
        <time>2026-05-28T12:31:39.000Z</time>
      </trkpt>
      <trkpt lat="44.03829" lon="3.51598">
        <ele>1289.3</ele>
        <time>2026-05-28T12:31:40.000Z</time>
      </trkpt>
      <trkpt lat="44.03829" lon="3.51599">
        <ele>1289</ele>
        <time>2026-05-28T12:31:41.000Z</time>
      </trkpt>
      <trkpt lat="44.03827" lon="3.516">
        <ele>1288.9</ele>
        <time>2026-05-28T12:31:42.000Z</time>
      </trkpt>
      <trkpt lat="44.03826" lon="3.51601">
        <ele>1288.4</ele>
        <time>2026-05-28T12:31:43.000Z</time>
      </trkpt>
      <trkpt lat="44.03825" lon="3.51602">
        <ele>1288.3</ele>
        <time>2026-05-28T12:31:44.000Z</time>
      </trkpt>
      <trkpt lat="44.03825" lon="3.51603">
        <ele>1288.9</ele>
        <time>2026-05-28T12:31:45.000Z</time>
      </trkpt>
      <trkpt lat="44.03824" lon="3.51604">
        <ele>1289.2</ele>
        <time>2026-05-28T12:31:46.000Z</time>
      </trkpt>
      <trkpt lat="44.03824" lon="3.51606">
        <ele>1289.2</ele>
        <time>2026-05-28T12:31:47.000Z</time>
      </trkpt>
      <trkpt lat="44.03823" lon="3.51608">
        <ele>1289.5</ele>
        <time>2026-05-28T12:31:48.000Z</time>
      </trkpt>
      <trkpt lat="44.03822" lon="3.51609">
        <ele>1289.4</ele>
        <time>2026-05-28T12:31:49.000Z</time>
      </trkpt>
      <trkpt lat="44.03822" lon="3.51611">
        <ele>1289.5</ele>
        <time>2026-05-28T12:31:50.000Z</time>
      </trkpt>
      <trkpt lat="44.03821" lon="3.51612">
        <ele>1289</ele>
        <time>2026-05-28T12:31:51.000Z</time>
      </trkpt>
      <trkpt lat="44.0382" lon="3.51613">
        <ele>1289</ele>
        <time>2026-05-28T12:31:52.000Z</time>
      </trkpt>
      <trkpt lat="44.0382" lon="3.51614">
        <ele>1288.9</ele>
        <time>2026-05-28T12:31:53.000Z</time>
      </trkpt>
      <trkpt lat="44.03819" lon="3.51615">
        <ele>1289.5</ele>
        <time>2026-05-28T12:31:54.000Z</time>
      </trkpt>
      <trkpt lat="44.03819" lon="3.51616">
        <ele>1289.9</ele>
        <time>2026-05-28T12:31:55.000Z</time>
      </trkpt>
      <trkpt lat="44.03818" lon="3.51618">
        <ele>1289.8</ele>
        <time>2026-05-28T12:31:56.000Z</time>
      </trkpt>
      <trkpt lat="44.03817" lon="3.51619">
        <ele>1289.5</ele>
        <time>2026-05-28T12:31:57.000Z</time>
      </trkpt>
      <trkpt lat="44.03816" lon="3.51621">
        <ele>1289.6</ele>
        <time>2026-05-28T12:31:58.000Z</time>
      </trkpt>
      <trkpt lat="44.03816" lon="3.51622">
        <ele>1289.8</ele>
        <time>2026-05-28T12:31:59.000Z</time>
      </trkpt>
      <trkpt lat="44.03815" lon="3.51623">
        <ele>1290</ele>
        <time>2026-05-28T12:32:00.000Z</time>
      </trkpt>
      <trkpt lat="44.03815" lon="3.51624">
        <ele>1290.2</ele>
        <time>2026-05-28T12:32:01.000Z</time>
      </trkpt>
      <trkpt lat="44.03814" lon="3.51625">
        <ele>1290.2</ele>
        <time>2026-05-28T12:32:02.000Z</time>
      </trkpt>
      <trkpt lat="44.03813" lon="3.51627">
        <ele>1290.4</ele>
        <time>2026-05-28T12:32:03.000Z</time>
      </trkpt>
      <trkpt lat="44.03813" lon="3.51628">
        <ele>1290.4</ele>
        <time>2026-05-28T12:32:04.000Z</time>
      </trkpt>
      <trkpt lat="44.03812" lon="3.5163">
        <ele>1290.6</ele>
        <time>2026-05-28T12:32:05.000Z</time>
      </trkpt>
      <trkpt lat="44.03811" lon="3.51631">
        <ele>1290.9</ele>
        <time>2026-05-28T12:32:06.000Z</time>
      </trkpt>
      <trkpt lat="44.0381" lon="3.51632">
        <ele>1290.6</ele>
        <time>2026-05-28T12:32:07.000Z</time>
      </trkpt>
      <trkpt lat="44.03809" lon="3.51633">
        <ele>1290.4</ele>
        <time>2026-05-28T12:32:08.000Z</time>
      </trkpt>
      <trkpt lat="44.03809" lon="3.51635">
        <ele>1290.5</ele>
        <time>2026-05-28T12:32:09.000Z</time>
      </trkpt>
      <trkpt lat="44.03808" lon="3.51636">
        <ele>1290.6</ele>
        <time>2026-05-28T12:32:10.000Z</time>
      </trkpt>
      <trkpt lat="44.03808" lon="3.51637">
        <ele>1290.3</ele>
        <time>2026-05-28T12:32:11.000Z</time>
      </trkpt>
      <trkpt lat="44.03807" lon="3.51638">
        <ele>1290.3</ele>
        <time>2026-05-28T12:32:12.000Z</time>
      </trkpt>
      <trkpt lat="44.03807" lon="3.5164">
        <ele>1290.3</ele>
        <time>2026-05-28T12:32:13.000Z</time>
      </trkpt>
      <trkpt lat="44.03806" lon="3.51642">
        <ele>1290.5</ele>
        <time>2026-05-28T12:32:14.000Z</time>
      </trkpt>
      <trkpt lat="44.03806" lon="3.51643">
        <ele>1290.6</ele>
        <time>2026-05-28T12:32:15.000Z</time>
      </trkpt>
      <trkpt lat="44.03805" lon="3.51645">
        <ele>1290.9</ele>
        <time>2026-05-28T12:32:16.000Z</time>
      </trkpt>
      <trkpt lat="44.03805" lon="3.51646">
        <ele>1291.3</ele>
        <time>2026-05-28T12:32:17.000Z</time>
      </trkpt>
      <trkpt lat="44.03804" lon="3.51648">
        <ele>1291.3</ele>
        <time>2026-05-28T12:32:18.000Z</time>
      </trkpt>
      <trkpt lat="44.03803" lon="3.51649">
        <ele>1291.2</ele>
        <time>2026-05-28T12:32:19.000Z</time>
      </trkpt>
      <trkpt lat="44.03802" lon="3.51651">
        <ele>1291.4</ele>
        <time>2026-05-28T12:32:20.000Z</time>
      </trkpt>
      <trkpt lat="44.03802" lon="3.51652">
        <ele>1291.4</ele>
        <time>2026-05-28T12:32:21.000Z</time>
      </trkpt>
      <trkpt lat="44.03801" lon="3.51654">
        <ele>1291.6</ele>
        <time>2026-05-28T12:32:22.000Z</time>
      </trkpt>
      <trkpt lat="44.038" lon="3.51655">
        <ele>1292</ele>
        <time>2026-05-28T12:32:23.000Z</time>
      </trkpt>
      <trkpt lat="44.03799" lon="3.51656">
        <ele>1292.6</ele>
        <time>2026-05-28T12:32:24.000Z</time>
      </trkpt>
      <trkpt lat="44.03799" lon="3.51658">
        <ele>1293.1</ele>
        <time>2026-05-28T12:32:25.000Z</time>
      </trkpt>
      <trkpt lat="44.03798" lon="3.51659">
        <ele>1293.3</ele>
        <time>2026-05-28T12:32:26.000Z</time>
      </trkpt>
      <trkpt lat="44.03798" lon="3.5166">
        <ele>1293.1</ele>
        <time>2026-05-28T12:32:27.000Z</time>
      </trkpt>
      <trkpt lat="44.03797" lon="3.51661">
        <ele>1292.9</ele>
        <time>2026-05-28T12:32:28.000Z</time>
      </trkpt>
      <trkpt lat="44.03797" lon="3.51662">
        <ele>1292.6</ele>
        <time>2026-05-28T12:32:29.000Z</time>
      </trkpt>
      <trkpt lat="44.03796" lon="3.51663">
        <ele>1292.5</ele>
        <time>2026-05-28T12:32:30.000Z</time>
      </trkpt>
      <trkpt lat="44.03795" lon="3.51665">
        <ele>1292.7</ele>
        <time>2026-05-28T12:32:31.000Z</time>
      </trkpt>
      <trkpt lat="44.03795" lon="3.51667">
        <ele>1292.9</ele>
        <time>2026-05-28T12:32:32.000Z</time>
      </trkpt>
      <trkpt lat="44.03794" lon="3.51669">
        <ele>1293.1</ele>
        <time>2026-05-28T12:32:33.000Z</time>
      </trkpt>
      <trkpt lat="44.03794" lon="3.5167">
        <ele>1293.3</ele>
        <time>2026-05-28T12:32:34.000Z</time>
      </trkpt>
      <trkpt lat="44.03793" lon="3.51672">
        <ele>1293.5</ele>
        <time>2026-05-28T12:32:35.000Z</time>
      </trkpt>
      <trkpt lat="44.03792" lon="3.51672">
        <ele>1293.2</ele>
        <time>2026-05-28T12:32:36.000Z</time>
      </trkpt>
      <trkpt lat="44.03792" lon="3.51673">
        <ele>1292.9</ele>
        <time>2026-05-28T12:32:37.000Z</time>
      </trkpt>
      <trkpt lat="44.03791" lon="3.51675">
        <ele>1292.8</ele>
        <time>2026-05-28T12:32:38.000Z</time>
      </trkpt>
      <trkpt lat="44.0379" lon="3.51676">
        <ele>1292.9</ele>
        <time>2026-05-28T12:32:39.000Z</time>
      </trkpt>
      <trkpt lat="44.0379" lon="3.51678">
        <ele>1292.9</ele>
        <time>2026-05-28T12:32:40.000Z</time>
      </trkpt>
      <trkpt lat="44.03789" lon="3.51679">
        <ele>1292.9</ele>
        <time>2026-05-28T12:32:41.000Z</time>
      </trkpt>
      <trkpt lat="44.03788" lon="3.51681">
        <ele>1292.7</ele>
        <time>2026-05-28T12:32:42.000Z</time>
      </trkpt>
      <trkpt lat="44.03788" lon="3.51683">
        <ele>1293</ele>
        <time>2026-05-28T12:32:43.000Z</time>
      </trkpt>
      <trkpt lat="44.03787" lon="3.51684">
        <ele>1292.8</ele>
        <time>2026-05-28T12:32:44.000Z</time>
      </trkpt>
      <trkpt lat="44.03786" lon="3.51684">
        <ele>1292.5</ele>
        <time>2026-05-28T12:32:45.000Z</time>
      </trkpt>
      <trkpt lat="44.03786" lon="3.51685">
        <ele>1292.1</ele>
        <time>2026-05-28T12:32:46.000Z</time>
      </trkpt>
      <trkpt lat="44.03786" lon="3.51687">
        <ele>1291.9</ele>
        <time>2026-05-28T12:32:47.000Z</time>
      </trkpt>
      <trkpt lat="44.03785" lon="3.51687">
        <ele>1291.6</ele>
        <time>2026-05-28T12:32:48.000Z</time>
      </trkpt>
      <trkpt lat="44.03783" lon="3.51689">
        <ele>1291.2</ele>
        <time>2026-05-28T12:32:49.000Z</time>
      </trkpt>
      <trkpt lat="44.03782" lon="3.5169">
        <ele>1290.9</ele>
        <time>2026-05-28T12:32:50.000Z</time>
      </trkpt>
      <trkpt lat="44.03781" lon="3.51691">
        <ele>1290.8</ele>
        <time>2026-05-28T12:32:51.000Z</time>
      </trkpt>
      <trkpt lat="44.03781" lon="3.51692">
        <ele>1290.2</ele>
        <time>2026-05-28T12:32:52.000Z</time>
      </trkpt>
      <trkpt lat="44.03781" lon="3.51692">
        <ele>1289.7</ele>
        <time>2026-05-28T12:32:53.000Z</time>
      </trkpt>
      <trkpt lat="44.0378" lon="3.51693">
        <ele>1289.5</ele>
        <time>2026-05-28T12:32:54.000Z</time>
      </trkpt>
      <trkpt lat="44.03779" lon="3.51694">
        <ele>1289.4</ele>
        <time>2026-05-28T12:32:55.000Z</time>
      </trkpt>
      <trkpt lat="44.03779" lon="3.51695">
        <ele>1289.4</ele>
        <time>2026-05-28T12:32:56.000Z</time>
      </trkpt>
      <trkpt lat="44.03778" lon="3.51695">
        <ele>1289.2</ele>
        <time>2026-05-28T12:32:57.000Z</time>
      </trkpt>
      <trkpt lat="44.03777" lon="3.51696">
        <ele>1289</ele>
        <time>2026-05-28T12:32:58.000Z</time>
      </trkpt>
      <trkpt lat="44.03777" lon="3.51698">
        <ele>1288.6</ele>
        <time>2026-05-28T12:32:59.000Z</time>
      </trkpt>
      <trkpt lat="44.03776" lon="3.51698">
        <ele>1288.8</ele>
        <time>2026-05-28T12:33:00.000Z</time>
      </trkpt>
      <trkpt lat="44.03775" lon="3.51699">
        <ele>1288.8</ele>
        <time>2026-05-28T12:33:01.000Z</time>
      </trkpt>
      <trkpt lat="44.03775" lon="3.517">
        <ele>1288.5</ele>
        <time>2026-05-28T12:33:02.000Z</time>
      </trkpt>
      <trkpt lat="44.03774" lon="3.517">
        <ele>1287.9</ele>
        <time>2026-05-28T12:33:03.000Z</time>
      </trkpt>
      <trkpt lat="44.03773" lon="3.51702">
        <ele>1287.5</ele>
        <time>2026-05-28T12:33:04.000Z</time>
      </trkpt>
      <trkpt lat="44.03772" lon="3.51703">
        <ele>1287.6</ele>
        <time>2026-05-28T12:33:05.000Z</time>
      </trkpt>
      <trkpt lat="44.03771" lon="3.51703">
        <ele>1287.7</ele>
        <time>2026-05-28T12:33:06.000Z</time>
      </trkpt>
      <trkpt lat="44.03769" lon="3.51705">
        <ele>1287.8</ele>
        <time>2026-05-28T12:33:07.000Z</time>
      </trkpt>
      <trkpt lat="44.03769" lon="3.51706">
        <ele>1287.6</ele>
        <time>2026-05-28T12:33:08.000Z</time>
      </trkpt>
      <trkpt lat="44.03768" lon="3.51708">
        <ele>1287.8</ele>
        <time>2026-05-28T12:33:09.000Z</time>
      </trkpt>
      <trkpt lat="44.03768" lon="3.5171">
        <ele>1288</ele>
        <time>2026-05-28T12:33:10.000Z</time>
      </trkpt>
      <trkpt lat="44.03766" lon="3.51712">
        <ele>1288.2</ele>
        <time>2026-05-28T12:33:11.000Z</time>
      </trkpt>
      <trkpt lat="44.03766" lon="3.51714">
        <ele>1288.4</ele>
        <time>2026-05-28T12:33:12.000Z</time>
      </trkpt>
      <trkpt lat="44.03765" lon="3.51715">
        <ele>1288</ele>
        <time>2026-05-28T12:33:13.000Z</time>
      </trkpt>
      <trkpt lat="44.03764" lon="3.51717">
        <ele>1288.2</ele>
        <time>2026-05-28T12:33:14.000Z</time>
      </trkpt>
      <trkpt lat="44.03763" lon="3.51719">
        <ele>1287.9</ele>
        <time>2026-05-28T12:33:15.000Z</time>
      </trkpt>
      <trkpt lat="44.03763" lon="3.51719">
        <ele>1287.7</ele>
        <time>2026-05-28T12:33:16.000Z</time>
      </trkpt>
      <trkpt lat="44.03763" lon="3.51721">
        <ele>1287.7</ele>
        <time>2026-05-28T12:33:17.000Z</time>
      </trkpt>
      <trkpt lat="44.03762" lon="3.51722">
        <ele>1287.7</ele>
        <time>2026-05-28T12:33:18.000Z</time>
      </trkpt>
      <trkpt lat="44.03762" lon="3.51724">
        <ele>1287.8</ele>
        <time>2026-05-28T12:33:19.000Z</time>
      </trkpt>
      <trkpt lat="44.03761" lon="3.51726">
        <ele>1287.7</ele>
        <time>2026-05-28T12:33:20.000Z</time>
      </trkpt>
      <trkpt lat="44.0376" lon="3.51728">
        <ele>1287.8</ele>
        <time>2026-05-28T12:33:21.000Z</time>
      </trkpt>
      <trkpt lat="44.03759" lon="3.51729">
        <ele>1287.7</ele>
        <time>2026-05-28T12:33:22.000Z</time>
      </trkpt>
      <trkpt lat="44.03759" lon="3.5173">
        <ele>1287.6</ele>
        <time>2026-05-28T12:33:23.000Z</time>
      </trkpt>
      <trkpt lat="44.03758" lon="3.51731">
        <ele>1287.8</ele>
        <time>2026-05-28T12:33:24.000Z</time>
      </trkpt>
      <trkpt lat="44.03757" lon="3.51732">
        <ele>1287.8</ele>
        <time>2026-05-28T12:33:25.000Z</time>
      </trkpt>
      <trkpt lat="44.03756" lon="3.51733">
        <ele>1287.8</ele>
        <time>2026-05-28T12:33:26.000Z</time>
      </trkpt>
      <trkpt lat="44.03754" lon="3.51734">
        <ele>1287.9</ele>
        <time>2026-05-28T12:33:27.000Z</time>
      </trkpt>
      <trkpt lat="44.03753" lon="3.51735">
        <ele>1288</ele>
        <time>2026-05-28T12:33:28.000Z</time>
      </trkpt>
      <trkpt lat="44.03752" lon="3.51737">
        <ele>1288.3</ele>
        <time>2026-05-28T12:33:29.000Z</time>
      </trkpt>
      <trkpt lat="44.03752" lon="3.51738">
        <ele>1288.5</ele>
        <time>2026-05-28T12:33:30.000Z</time>
      </trkpt>
      <trkpt lat="44.03751" lon="3.51739">
        <ele>1288.6</ele>
        <time>2026-05-28T12:33:31.000Z</time>
      </trkpt>
      <trkpt lat="44.03751" lon="3.51741">
        <ele>1288.5</ele>
        <time>2026-05-28T12:33:32.000Z</time>
      </trkpt>
      <trkpt lat="44.03751" lon="3.51742">
        <ele>1288.6</ele>
        <time>2026-05-28T12:33:33.000Z</time>
      </trkpt>
      <trkpt lat="44.0375" lon="3.51744">
        <ele>1288.7</ele>
        <time>2026-05-28T12:33:34.000Z</time>
      </trkpt>
      <trkpt lat="44.03749" lon="3.51745">
        <ele>1288.6</ele>
        <time>2026-05-28T12:33:35.000Z</time>
      </trkpt>
      <trkpt lat="44.03748" lon="3.51747">
        <ele>1288.3</ele>
        <time>2026-05-28T12:33:36.000Z</time>
      </trkpt>
      <trkpt lat="44.03748" lon="3.51748">
        <ele>1288</ele>
        <time>2026-05-28T12:33:37.000Z</time>
      </trkpt>
      <trkpt lat="44.03747" lon="3.5175">
        <ele>1287.5</ele>
        <time>2026-05-28T12:33:38.000Z</time>
      </trkpt>
      <trkpt lat="44.03746" lon="3.51751">
        <ele>1287.1</ele>
        <time>2026-05-28T12:33:39.000Z</time>
      </trkpt>
      <trkpt lat="44.03745" lon="3.51752">
        <ele>1286.6</ele>
        <time>2026-05-28T12:33:40.000Z</time>
      </trkpt>
      <trkpt lat="44.03745" lon="3.51753">
        <ele>1286.3</ele>
        <time>2026-05-28T12:33:41.000Z</time>
      </trkpt>
      <trkpt lat="44.03744" lon="3.51755">
        <ele>1286.3</ele>
        <time>2026-05-28T12:33:42.000Z</time>
      </trkpt>
      <trkpt lat="44.03744" lon="3.51756">
        <ele>1286.4</ele>
        <time>2026-05-28T12:33:43.000Z</time>
      </trkpt>
      <trkpt lat="44.03743" lon="3.51758">
        <ele>1286.6</ele>
        <time>2026-05-28T12:33:44.000Z</time>
      </trkpt>
      <trkpt lat="44.03743" lon="3.5176">
        <ele>1286.6</ele>
        <time>2026-05-28T12:33:45.000Z</time>
      </trkpt>
      <trkpt lat="44.03743" lon="3.51762">
        <ele>1286.6</ele>
        <time>2026-05-28T12:33:46.000Z</time>
      </trkpt>
      <trkpt lat="44.03742" lon="3.51763">
        <ele>1286.7</ele>
        <time>2026-05-28T12:33:47.000Z</time>
      </trkpt>
      <trkpt lat="44.03742" lon="3.51764">
        <ele>1286.6</ele>
        <time>2026-05-28T12:33:48.000Z</time>
      </trkpt>
      <trkpt lat="44.03742" lon="3.51765">
        <ele>1286.9</ele>
        <time>2026-05-28T12:33:49.000Z</time>
      </trkpt>
      <trkpt lat="44.03742" lon="3.51767">
        <ele>1287.1</ele>
        <time>2026-05-28T12:33:50.000Z</time>
      </trkpt>
      <trkpt lat="44.03742" lon="3.51768">
        <ele>1287</ele>
        <time>2026-05-28T12:33:51.000Z</time>
      </trkpt>
      <trkpt lat="44.03742" lon="3.5177">
        <ele>1286.9</ele>
        <time>2026-05-28T12:33:52.000Z</time>
      </trkpt>
      <trkpt lat="44.03742" lon="3.51772">
        <ele>1286.8</ele>
        <time>2026-05-28T12:33:53.000Z</time>
      </trkpt>
      <trkpt lat="44.03742" lon="3.51773">
        <ele>1286.8</ele>
        <time>2026-05-28T12:33:54.000Z</time>
      </trkpt>
      <trkpt lat="44.03741" lon="3.51774">
        <ele>1286.8</ele>
        <time>2026-05-28T12:33:55.000Z</time>
      </trkpt>
      <trkpt lat="44.03741" lon="3.51775">
        <ele>1286.8</ele>
        <time>2026-05-28T12:33:56.000Z</time>
      </trkpt>
      <trkpt lat="44.03741" lon="3.51777">
        <ele>1286.7</ele>
        <time>2026-05-28T12:33:57.000Z</time>
      </trkpt>
      <trkpt lat="44.0374" lon="3.51779">
        <ele>1286.6</ele>
        <time>2026-05-28T12:33:58.000Z</time>
      </trkpt>
      <trkpt lat="44.0374" lon="3.51781">
        <ele>1286.4</ele>
        <time>2026-05-28T12:33:59.000Z</time>
      </trkpt>
      <trkpt lat="44.03739" lon="3.51782">
        <ele>1286.5</ele>
        <time>2026-05-28T12:34:00.000Z</time>
      </trkpt>
      <trkpt lat="44.03739" lon="3.51784">
        <ele>1286.6</ele>
        <time>2026-05-28T12:34:01.000Z</time>
      </trkpt>
      <trkpt lat="44.03738" lon="3.51785">
        <ele>1286.7</ele>
        <time>2026-05-28T12:34:02.000Z</time>
      </trkpt>
      <trkpt lat="44.03738" lon="3.51786">
        <ele>1286.4</ele>
        <time>2026-05-28T12:34:03.000Z</time>
      </trkpt>
      <trkpt lat="44.03737" lon="3.51787">
        <ele>1286.6</ele>
        <time>2026-05-28T12:34:04.000Z</time>
      </trkpt>
      <trkpt lat="44.03736" lon="3.5179">
        <ele>1286.7</ele>
        <time>2026-05-28T12:34:05.000Z</time>
      </trkpt>
      <trkpt lat="44.03736" lon="3.51792">
        <ele>1286.9</ele>
        <time>2026-05-28T12:34:06.000Z</time>
      </trkpt>
      <trkpt lat="44.03736" lon="3.51793">
        <ele>1287.2</ele>
        <time>2026-05-28T12:34:07.000Z</time>
      </trkpt>
      <trkpt lat="44.03735" lon="3.51795">
        <ele>1287.3</ele>
        <time>2026-05-28T12:34:08.000Z</time>
      </trkpt>
      <trkpt lat="44.03735" lon="3.51796">
        <ele>1287.6</ele>
        <time>2026-05-28T12:34:09.000Z</time>
      </trkpt>
      <trkpt lat="44.03735" lon="3.51797">
        <ele>1287.6</ele>
        <time>2026-05-28T12:34:10.000Z</time>
      </trkpt>
      <trkpt lat="44.03735" lon="3.51798">
        <ele>1287.8</ele>
        <time>2026-05-28T12:34:11.000Z</time>
      </trkpt>
      <trkpt lat="44.03735" lon="3.51799">
        <ele>1288</ele>
        <time>2026-05-28T12:34:12.000Z</time>
      </trkpt>
      <trkpt lat="44.03734" lon="3.51801">
        <ele>1288</ele>
        <time>2026-05-28T12:34:13.000Z</time>
      </trkpt>
      <trkpt lat="44.03734" lon="3.51801">
        <ele>1287.9</ele>
        <time>2026-05-28T12:34:14.000Z</time>
      </trkpt>
      <trkpt lat="44.03734" lon="3.51802">
        <ele>1287.9</ele>
        <time>2026-05-28T12:34:15.000Z</time>
      </trkpt>
      <trkpt lat="44.03733" lon="3.51804">
        <ele>1288.2</ele>
        <time>2026-05-28T12:34:16.000Z</time>
      </trkpt>
      <trkpt lat="44.03733" lon="3.51806">
        <ele>1288.4</ele>
        <time>2026-05-28T12:34:17.000Z</time>
      </trkpt>
      <trkpt lat="44.03732" lon="3.51808">
        <ele>1288.5</ele>
        <time>2026-05-28T12:34:18.000Z</time>
      </trkpt>
      <trkpt lat="44.03731" lon="3.5181">
        <ele>1288.8</ele>
        <time>2026-05-28T12:34:19.000Z</time>
      </trkpt>
      <trkpt lat="44.0373" lon="3.51811">
        <ele>1288.9</ele>
        <time>2026-05-28T12:34:20.000Z</time>
      </trkpt>
      <trkpt lat="44.0373" lon="3.51813">
        <ele>1289</ele>
        <time>2026-05-28T12:34:21.000Z</time>
      </trkpt>
      <trkpt lat="44.0373" lon="3.51814">
        <ele>1289.1</ele>
        <time>2026-05-28T12:34:22.000Z</time>
      </trkpt>
      <trkpt lat="44.03729" lon="3.51815">
        <ele>1289.2</ele>
        <time>2026-05-28T12:34:23.000Z</time>
      </trkpt>
      <trkpt lat="44.03729" lon="3.51817">
        <ele>1289.2</ele>
        <time>2026-05-28T12:34:24.000Z</time>
      </trkpt>
      <trkpt lat="44.03728" lon="3.51818">
        <ele>1289.1</ele>
        <time>2026-05-28T12:34:25.000Z</time>
      </trkpt>
      <trkpt lat="44.03728" lon="3.51819">
        <ele>1289.5</ele>
        <time>2026-05-28T12:34:26.000Z</time>
      </trkpt>
      <trkpt lat="44.03727" lon="3.51821">
        <ele>1289.9</ele>
        <time>2026-05-28T12:34:27.000Z</time>
      </trkpt>
      <trkpt lat="44.03727" lon="3.51823">
        <ele>1290.4</ele>
        <time>2026-05-28T12:34:28.000Z</time>
      </trkpt>
      <trkpt lat="44.03727" lon="3.51825">
        <ele>1290.4</ele>
        <time>2026-05-28T12:34:29.000Z</time>
      </trkpt>
      <trkpt lat="44.03727" lon="3.51827">
        <ele>1290.1</ele>
        <time>2026-05-28T12:34:30.000Z</time>
      </trkpt>
      <trkpt lat="44.03726" lon="3.51828">
        <ele>1289.8</ele>
        <time>2026-05-28T12:34:31.000Z</time>
      </trkpt>
      <trkpt lat="44.03725" lon="3.51829">
        <ele>1289.9</ele>
        <time>2026-05-28T12:34:32.000Z</time>
      </trkpt>
      <trkpt lat="44.03725" lon="3.5183">
        <ele>1290.1</ele>
        <time>2026-05-28T12:34:33.000Z</time>
      </trkpt>
      <trkpt lat="44.03723" lon="3.51831">
        <ele>1290.2</ele>
        <time>2026-05-28T12:34:34.000Z</time>
      </trkpt>
      <trkpt lat="44.03722" lon="3.51833">
        <ele>1290.5</ele>
        <time>2026-05-28T12:34:35.000Z</time>
      </trkpt>
      <trkpt lat="44.03722" lon="3.51835">
        <ele>1290.8</ele>
        <time>2026-05-28T12:34:36.000Z</time>
      </trkpt>
      <trkpt lat="44.03721" lon="3.51836">
        <ele>1291.2</ele>
        <time>2026-05-28T12:34:37.000Z</time>
      </trkpt>
      <trkpt lat="44.03721" lon="3.51837">
        <ele>1291.4</ele>
        <time>2026-05-28T12:34:38.000Z</time>
      </trkpt>
      <trkpt lat="44.03721" lon="3.51838">
        <ele>1291.4</ele>
        <time>2026-05-28T12:34:39.000Z</time>
      </trkpt>
      <trkpt lat="44.0372" lon="3.51839">
        <ele>1291.6</ele>
        <time>2026-05-28T12:34:40.000Z</time>
      </trkpt>
      <trkpt lat="44.0372" lon="3.51841">
        <ele>1291.7</ele>
        <time>2026-05-28T12:34:41.000Z</time>
      </trkpt>
      <trkpt lat="44.03719" lon="3.51841">
        <ele>1291.6</ele>
        <time>2026-05-28T12:34:42.000Z</time>
      </trkpt>
      <trkpt lat="44.03718" lon="3.51843">
        <ele>1291.6</ele>
        <time>2026-05-28T12:34:43.000Z</time>
      </trkpt>
      <trkpt lat="44.03717" lon="3.51843">
        <ele>1291.2</ele>
        <time>2026-05-28T12:34:44.000Z</time>
      </trkpt>
      <trkpt lat="44.03717" lon="3.51845">
        <ele>1290.9</ele>
        <time>2026-05-28T12:34:45.000Z</time>
      </trkpt>
      <trkpt lat="44.03717" lon="3.51846">
        <ele>1291</ele>
        <time>2026-05-28T12:34:46.000Z</time>
      </trkpt>
      <trkpt lat="44.03717" lon="3.51848">
        <ele>1291.1</ele>
        <time>2026-05-28T12:34:47.000Z</time>
      </trkpt>
      <trkpt lat="44.03717" lon="3.51849">
        <ele>1291.3</ele>
        <time>2026-05-28T12:34:48.000Z</time>
      </trkpt>
      <trkpt lat="44.03716" lon="3.51851">
        <ele>1291.6</ele>
        <time>2026-05-28T12:34:49.000Z</time>
      </trkpt>
      <trkpt lat="44.03715" lon="3.51852">
        <ele>1292</ele>
        <time>2026-05-28T12:34:50.000Z</time>
      </trkpt>
      <trkpt lat="44.03715" lon="3.51854">
        <ele>1292</ele>
        <time>2026-05-28T12:34:51.000Z</time>
      </trkpt>
      <trkpt lat="44.03714" lon="3.51855">
        <ele>1291.9</ele>
        <time>2026-05-28T12:34:52.000Z</time>
      </trkpt>
      <trkpt lat="44.03714" lon="3.51856">
        <ele>1291.9</ele>
        <time>2026-05-28T12:34:53.000Z</time>
      </trkpt>
      <trkpt lat="44.03713" lon="3.51858">
        <ele>1291.9</ele>
        <time>2026-05-28T12:34:54.000Z</time>
      </trkpt>
      <trkpt lat="44.03712" lon="3.51859">
        <ele>1291.7</ele>
        <time>2026-05-28T12:34:55.000Z</time>
      </trkpt>
      <trkpt lat="44.03711" lon="3.51861">
        <ele>1291.7</ele>
        <time>2026-05-28T12:34:56.000Z</time>
      </trkpt>
      <trkpt lat="44.03711" lon="3.51863">
        <ele>1291.7</ele>
        <time>2026-05-28T12:34:57.000Z</time>
      </trkpt>
      <trkpt lat="44.0371" lon="3.51863">
        <ele>1291.4</ele>
        <time>2026-05-28T12:34:58.000Z</time>
      </trkpt>
      <trkpt lat="44.03709" lon="3.51865">
        <ele>1291</ele>
        <time>2026-05-28T12:34:59.000Z</time>
      </trkpt>
      <trkpt lat="44.03709" lon="3.51866">
        <ele>1291.2</ele>
        <time>2026-05-28T12:35:00.000Z</time>
      </trkpt>
      <trkpt lat="44.03708" lon="3.51867">
        <ele>1291.2</ele>
        <time>2026-05-28T12:35:01.000Z</time>
      </trkpt>
      <trkpt lat="44.03707" lon="3.51868">
        <ele>1291.5</ele>
        <time>2026-05-28T12:35:02.000Z</time>
      </trkpt>
      <trkpt lat="44.03706" lon="3.51869">
        <ele>1291.5</ele>
        <time>2026-05-28T12:35:03.000Z</time>
      </trkpt>
      <trkpt lat="44.03705" lon="3.51871">
        <ele>1291.6</ele>
        <time>2026-05-28T12:35:04.000Z</time>
      </trkpt>
      <trkpt lat="44.03705" lon="3.51872">
        <ele>1291.4</ele>
        <time>2026-05-28T12:35:05.000Z</time>
      </trkpt>
      <trkpt lat="44.03705" lon="3.51873">
        <ele>1291.5</ele>
        <time>2026-05-28T12:35:06.000Z</time>
      </trkpt>
      <trkpt lat="44.03704" lon="3.51873">
        <ele>1291.6</ele>
        <time>2026-05-28T12:35:07.000Z</time>
      </trkpt>
      <trkpt lat="44.03703" lon="3.51874">
        <ele>1291.6</ele>
        <time>2026-05-28T12:35:08.000Z</time>
      </trkpt>
      <trkpt lat="44.03702" lon="3.51875">
        <ele>1291.6</ele>
        <time>2026-05-28T12:35:09.000Z</time>
      </trkpt>
      <trkpt lat="44.03701" lon="3.51878">
        <ele>1291.7</ele>
        <time>2026-05-28T12:35:10.000Z</time>
      </trkpt>
      <trkpt lat="44.03699" lon="3.51879">
        <ele>1291.6</ele>
        <time>2026-05-28T12:35:11.000Z</time>
      </trkpt>
      <trkpt lat="44.03698" lon="3.5188">
        <ele>1291.3</ele>
        <time>2026-05-28T12:35:12.000Z</time>
      </trkpt>
      <trkpt lat="44.03697" lon="3.51881">
        <ele>1291.2</ele>
        <time>2026-05-28T12:35:13.000Z</time>
      </trkpt>
      <trkpt lat="44.03697" lon="3.51881">
        <ele>1291.3</ele>
        <time>2026-05-28T12:35:14.000Z</time>
      </trkpt>
      <trkpt lat="44.03696" lon="3.51882">
        <ele>1291.4</ele>
        <time>2026-05-28T12:35:15.000Z</time>
      </trkpt>
      <trkpt lat="44.03695" lon="3.51883">
        <ele>1291.5</ele>
        <time>2026-05-28T12:35:16.000Z</time>
      </trkpt>
      <trkpt lat="44.03694" lon="3.51884">
        <ele>1291.7</ele>
        <time>2026-05-28T12:35:17.000Z</time>
      </trkpt>
      <trkpt lat="44.03693" lon="3.51885">
        <ele>1291.8</ele>
        <time>2026-05-28T12:35:18.000Z</time>
      </trkpt>
      <trkpt lat="44.03692" lon="3.51887">
        <ele>1291.9</ele>
        <time>2026-05-28T12:35:19.000Z</time>
      </trkpt>
      <trkpt lat="44.03692" lon="3.51888">
        <ele>1291.9</ele>
        <time>2026-05-28T12:35:20.000Z</time>
      </trkpt>
      <trkpt lat="44.03691" lon="3.51888">
        <ele>1291.9</ele>
        <time>2026-05-28T12:35:21.000Z</time>
      </trkpt>
      <trkpt lat="44.0369" lon="3.51889">
        <ele>1292</ele>
        <time>2026-05-28T12:35:22.000Z</time>
      </trkpt>
      <trkpt lat="44.03688" lon="3.51889">
        <ele>1291.6</ele>
        <time>2026-05-28T12:35:23.000Z</time>
      </trkpt>
      <trkpt lat="44.03687" lon="3.5189">
        <ele>1291.6</ele>
        <time>2026-05-28T12:35:24.000Z</time>
      </trkpt>
      <trkpt lat="44.03686" lon="3.51891">
        <ele>1291.6</ele>
        <time>2026-05-28T12:35:25.000Z</time>
      </trkpt>
      <trkpt lat="44.03686" lon="3.51892">
        <ele>1291.2</ele>
        <time>2026-05-28T12:35:26.000Z</time>
      </trkpt>
      <trkpt lat="44.03685" lon="3.51893">
        <ele>1291</ele>
        <time>2026-05-28T12:35:27.000Z</time>
      </trkpt>
      <trkpt lat="44.03684" lon="3.51894">
        <ele>1291.2</ele>
        <time>2026-05-28T12:35:28.000Z</time>
      </trkpt>
      <trkpt lat="44.03683" lon="3.51896">
        <ele>1291.4</ele>
        <time>2026-05-28T12:35:29.000Z</time>
      </trkpt>
      <trkpt lat="44.03682" lon="3.51898">
        <ele>1291.5</ele>
        <time>2026-05-28T12:35:30.000Z</time>
      </trkpt>
      <trkpt lat="44.03682" lon="3.519">
        <ele>1291.7</ele>
        <time>2026-05-28T12:35:31.000Z</time>
      </trkpt>
      <trkpt lat="44.0368" lon="3.51901">
        <ele>1292</ele>
        <time>2026-05-28T12:35:32.000Z</time>
      </trkpt>
      <trkpt lat="44.0368" lon="3.51901">
        <ele>1292</ele>
        <time>2026-05-28T12:35:33.000Z</time>
      </trkpt>
      <trkpt lat="44.03679" lon="3.51902">
        <ele>1291.7</ele>
        <time>2026-05-28T12:35:34.000Z</time>
      </trkpt>
      <trkpt lat="44.03679" lon="3.51903">
        <ele>1292.1</ele>
        <time>2026-05-28T12:35:35.000Z</time>
      </trkpt>
      <trkpt lat="44.03677" lon="3.51905">
        <ele>1291.9</ele>
        <time>2026-05-28T12:35:36.000Z</time>
      </trkpt>
      <trkpt lat="44.03676" lon="3.51907">
        <ele>1292.2</ele>
        <time>2026-05-28T12:35:37.000Z</time>
      </trkpt>
      <trkpt lat="44.03676" lon="3.51909">
        <ele>1292.3</ele>
        <time>2026-05-28T12:35:38.000Z</time>
      </trkpt>
      <trkpt lat="44.03675" lon="3.5191">
        <ele>1292.2</ele>
        <time>2026-05-28T12:35:39.000Z</time>
      </trkpt>
      <trkpt lat="44.03675" lon="3.51911">
        <ele>1292.2</ele>
        <time>2026-05-28T12:35:40.000Z</time>
      </trkpt>
      <trkpt lat="44.03675" lon="3.51912">
        <ele>1292.3</ele>
        <time>2026-05-28T12:35:41.000Z</time>
      </trkpt>
      <trkpt lat="44.03674" lon="3.51912">
        <ele>1292</ele>
        <time>2026-05-28T12:35:42.000Z</time>
      </trkpt>
      <trkpt lat="44.03674" lon="3.51913">
        <ele>1291.9</ele>
        <time>2026-05-28T12:35:43.000Z</time>
      </trkpt>
      <trkpt lat="44.03673" lon="3.51914">
        <ele>1292</ele>
        <time>2026-05-28T12:35:44.000Z</time>
      </trkpt>
      <trkpt lat="44.03672" lon="3.51915">
        <ele>1292.3</ele>
        <time>2026-05-28T12:35:45.000Z</time>
      </trkpt>
      <trkpt lat="44.03672" lon="3.51917">
        <ele>1292.3</ele>
        <time>2026-05-28T12:35:46.000Z</time>
      </trkpt>
      <trkpt lat="44.03672" lon="3.51918">
        <ele>1291.9</ele>
        <time>2026-05-28T12:35:47.000Z</time>
      </trkpt>
      <trkpt lat="44.03671" lon="3.51919">
        <ele>1291.6</ele>
        <time>2026-05-28T12:35:48.000Z</time>
      </trkpt>
      <trkpt lat="44.0367" lon="3.5192">
        <ele>1291.5</ele>
        <time>2026-05-28T12:35:49.000Z</time>
      </trkpt>
      <trkpt lat="44.0367" lon="3.51921">
        <ele>1291.9</ele>
        <time>2026-05-28T12:35:50.000Z</time>
      </trkpt>
      <trkpt lat="44.03669" lon="3.51923">
        <ele>1292.1</ele>
        <time>2026-05-28T12:35:51.000Z</time>
      </trkpt>
      <trkpt lat="44.03668" lon="3.51924">
        <ele>1292</ele>
        <time>2026-05-28T12:35:52.000Z</time>
      </trkpt>
      <trkpt lat="44.03668" lon="3.51925">
        <ele>1291.5</ele>
        <time>2026-05-28T12:35:53.000Z</time>
      </trkpt>
      <trkpt lat="44.03667" lon="3.51925">
        <ele>1290.8</ele>
        <time>2026-05-28T12:35:54.000Z</time>
      </trkpt>
      <trkpt lat="44.03666" lon="3.51926">
        <ele>1290.3</ele>
        <time>2026-05-28T12:35:55.000Z</time>
      </trkpt>
      <trkpt lat="44.03665" lon="3.51926">
        <ele>1290</ele>
        <time>2026-05-28T12:35:56.000Z</time>
      </trkpt>
      <trkpt lat="44.03664" lon="3.51928">
        <ele>1290.1</ele>
        <time>2026-05-28T12:35:57.000Z</time>
      </trkpt>
      <trkpt lat="44.03663" lon="3.51929">
        <ele>1290.4</ele>
        <time>2026-05-28T12:35:58.000Z</time>
      </trkpt>
      <trkpt lat="44.03662" lon="3.5193">
        <ele>1290.4</ele>
        <time>2026-05-28T12:35:59.000Z</time>
      </trkpt>
      <trkpt lat="44.03661" lon="3.51931">
        <ele>1290.3</ele>
        <time>2026-05-28T12:36:00.000Z</time>
      </trkpt>
      <trkpt lat="44.0366" lon="3.51933">
        <ele>1290</ele>
        <time>2026-05-28T12:36:01.000Z</time>
      </trkpt>
      <trkpt lat="44.03659" lon="3.51934">
        <ele>1289.9</ele>
        <time>2026-05-28T12:36:02.000Z</time>
      </trkpt>
      <trkpt lat="44.03659" lon="3.51936">
        <ele>1290.2</ele>
        <time>2026-05-28T12:36:03.000Z</time>
      </trkpt>
      <trkpt lat="44.03658" lon="3.51937">
        <ele>1290.6</ele>
        <time>2026-05-28T12:36:04.000Z</time>
      </trkpt>
      <trkpt lat="44.03657" lon="3.51939">
        <ele>1290.9</ele>
        <time>2026-05-28T12:36:05.000Z</time>
      </trkpt>
      <trkpt lat="44.03656" lon="3.5194">
        <ele>1290.6</ele>
        <time>2026-05-28T12:36:06.000Z</time>
      </trkpt>
      <trkpt lat="44.03656" lon="3.51941">
        <ele>1290.7</ele>
        <time>2026-05-28T12:36:07.000Z</time>
      </trkpt>
      <trkpt lat="44.03655" lon="3.51943">
        <ele>1290.8</ele>
        <time>2026-05-28T12:36:08.000Z</time>
      </trkpt>
      <trkpt lat="44.03654" lon="3.51944">
        <ele>1290.8</ele>
        <time>2026-05-28T12:36:09.000Z</time>
      </trkpt>
      <trkpt lat="44.03654" lon="3.51945">
        <ele>1290.8</ele>
        <time>2026-05-28T12:36:10.000Z</time>
      </trkpt>
      <trkpt lat="44.03653" lon="3.51945">
        <ele>1290.2</ele>
        <time>2026-05-28T12:36:11.000Z</time>
      </trkpt>
      <trkpt lat="44.03652" lon="3.51946">
        <ele>1289.5</ele>
        <time>2026-05-28T12:36:12.000Z</time>
      </trkpt>
      <trkpt lat="44.03651" lon="3.51947">
        <ele>1289.2</ele>
        <time>2026-05-28T12:36:13.000Z</time>
      </trkpt>
      <trkpt lat="44.03651" lon="3.51948">
        <ele>1289</ele>
        <time>2026-05-28T12:36:14.000Z</time>
      </trkpt>
      <trkpt lat="44.0365" lon="3.51949">
        <ele>1288.8</ele>
        <time>2026-05-28T12:36:15.000Z</time>
      </trkpt>
      <trkpt lat="44.03649" lon="3.5195">
        <ele>1288.9</ele>
        <time>2026-05-28T12:36:16.000Z</time>
      </trkpt>
      <trkpt lat="44.03648" lon="3.51951">
        <ele>1288.8</ele>
        <time>2026-05-28T12:36:17.000Z</time>
      </trkpt>
      <trkpt lat="44.03647" lon="3.51951">
        <ele>1288.8</ele>
        <time>2026-05-28T12:36:18.000Z</time>
      </trkpt>
      <trkpt lat="44.03647" lon="3.51952">
        <ele>1288.7</ele>
        <time>2026-05-28T12:36:19.000Z</time>
      </trkpt>
      <trkpt lat="44.03645" lon="3.51953">
        <ele>1288.6</ele>
        <time>2026-05-28T12:36:20.000Z</time>
      </trkpt>
      <trkpt lat="44.03644" lon="3.51953">
        <ele>1288.6</ele>
        <time>2026-05-28T12:36:21.000Z</time>
      </trkpt>
      <trkpt lat="44.03643" lon="3.51954">
        <ele>1288.4</ele>
        <time>2026-05-28T12:36:22.000Z</time>
      </trkpt>
      <trkpt lat="44.03642" lon="3.51956">
        <ele>1288.1</ele>
        <time>2026-05-28T12:36:23.000Z</time>
      </trkpt>
      <trkpt lat="44.03641" lon="3.51957">
        <ele>1288.3</ele>
        <time>2026-05-28T12:36:24.000Z</time>
      </trkpt>
      <trkpt lat="44.0364" lon="3.51957">
        <ele>1287.7</ele>
        <time>2026-05-28T12:36:25.000Z</time>
      </trkpt>
      <trkpt lat="44.03639" lon="3.51958">
        <ele>1287.2</ele>
        <time>2026-05-28T12:36:26.000Z</time>
      </trkpt>
      <trkpt lat="44.03638" lon="3.51959">
        <ele>1287.1</ele>
        <time>2026-05-28T12:36:27.000Z</time>
      </trkpt>
      <trkpt lat="44.03637" lon="3.5196">
        <ele>1286.9</ele>
        <time>2026-05-28T12:36:28.000Z</time>
      </trkpt>
      <trkpt lat="44.03637" lon="3.51961">
        <ele>1286.7</ele>
        <time>2026-05-28T12:36:29.000Z</time>
      </trkpt>
      <trkpt lat="44.03636" lon="3.51961">
        <ele>1286.5</ele>
        <time>2026-05-28T12:36:30.000Z</time>
      </trkpt>
      <trkpt lat="44.03636" lon="3.51962">
        <ele>1286.5</ele>
        <time>2026-05-28T12:36:31.000Z</time>
      </trkpt>
      <trkpt lat="44.03635" lon="3.51962">
        <ele>1286.6</ele>
        <time>2026-05-28T12:36:32.000Z</time>
      </trkpt>
      <trkpt lat="44.03634" lon="3.51964">
        <ele>1286.7</ele>
        <time>2026-05-28T12:36:33.000Z</time>
      </trkpt>
      <trkpt lat="44.03633" lon="3.51965">
        <ele>1286.7</ele>
        <time>2026-05-28T12:36:34.000Z</time>
      </trkpt>
      <trkpt lat="44.03632" lon="3.51967">
        <ele>1286.8</ele>
        <time>2026-05-28T12:36:35.000Z</time>
      </trkpt>
      <trkpt lat="44.03631" lon="3.51968">
        <ele>1287.2</ele>
        <time>2026-05-28T12:36:36.000Z</time>
      </trkpt>
      <trkpt lat="44.03631" lon="3.5197">
        <ele>1287.3</ele>
        <time>2026-05-28T12:36:37.000Z</time>
      </trkpt>
      <trkpt lat="44.0363" lon="3.51972">
        <ele>1287.6</ele>
        <time>2026-05-28T12:36:38.000Z</time>
      </trkpt>
      <trkpt lat="44.03628" lon="3.51973">
        <ele>1288</ele>
        <time>2026-05-28T12:36:39.000Z</time>
      </trkpt>
      <trkpt lat="44.03627" lon="3.51975">
        <ele>1288.2</ele>
        <time>2026-05-28T12:36:40.000Z</time>
      </trkpt>
      <trkpt lat="44.03627" lon="3.51976">
        <ele>1288.5</ele>
        <time>2026-05-28T12:36:41.000Z</time>
      </trkpt>
      <trkpt lat="44.03626" lon="3.51978">
        <ele>1289.3</ele>
        <time>2026-05-28T12:36:42.000Z</time>
      </trkpt>
      <trkpt lat="44.03625" lon="3.5198">
        <ele>1289.9</ele>
        <time>2026-05-28T12:36:43.000Z</time>
      </trkpt>
      <trkpt lat="44.03624" lon="3.51981">
        <ele>1290.1</ele>
        <time>2026-05-28T12:36:44.000Z</time>
      </trkpt>
      <trkpt lat="44.03623" lon="3.51982">
        <ele>1290.1</ele>
        <time>2026-05-28T12:36:45.000Z</time>
      </trkpt>
      <trkpt lat="44.03623" lon="3.51983">
        <ele>1290.3</ele>
        <time>2026-05-28T12:36:46.000Z</time>
      </trkpt>
      <trkpt lat="44.03622" lon="3.51984">
        <ele>1290.4</ele>
        <time>2026-05-28T12:36:47.000Z</time>
      </trkpt>
      <trkpt lat="44.03622" lon="3.51986">
        <ele>1290.6</ele>
        <time>2026-05-28T12:36:48.000Z</time>
      </trkpt>
      <trkpt lat="44.03621" lon="3.51987">
        <ele>1290.9</ele>
        <time>2026-05-28T12:36:49.000Z</time>
      </trkpt>
      <trkpt lat="44.03621" lon="3.51989">
        <ele>1291.2</ele>
        <time>2026-05-28T12:36:50.000Z</time>
      </trkpt>
      <trkpt lat="44.0362" lon="3.51989">
        <ele>1291.2</ele>
        <time>2026-05-28T12:36:51.000Z</time>
      </trkpt>
      <trkpt lat="44.03619" lon="3.51989">
        <ele>1291</ele>
        <time>2026-05-28T12:36:52.000Z</time>
      </trkpt>
      <trkpt lat="44.03619" lon="3.5199">
        <ele>1291.1</ele>
        <time>2026-05-28T12:36:53.000Z</time>
      </trkpt>
      <trkpt lat="44.03619" lon="3.51991">
        <ele>1291.5</ele>
        <time>2026-05-28T12:36:54.000Z</time>
      </trkpt>
      <trkpt lat="44.03618" lon="3.51992">
        <ele>1291.1</ele>
        <time>2026-05-28T12:36:55.000Z</time>
      </trkpt>
      <trkpt lat="44.03618" lon="3.51993">
        <ele>1291</ele>
        <time>2026-05-28T12:36:56.000Z</time>
      </trkpt>
      <trkpt lat="44.03616" lon="3.51994">
        <ele>1291.1</ele>
        <time>2026-05-28T12:36:57.000Z</time>
      </trkpt>
      <trkpt lat="44.03615" lon="3.51994">
        <ele>1291.2</ele>
        <time>2026-05-28T12:36:58.000Z</time>
      </trkpt>
      <trkpt lat="44.03614" lon="3.51996">
        <ele>1291.3</ele>
        <time>2026-05-28T12:36:59.000Z</time>
      </trkpt>
      <trkpt lat="44.03614" lon="3.51996">
        <ele>1291.5</ele>
        <time>2026-05-28T12:37:00.000Z</time>
      </trkpt>
      <trkpt lat="44.03613" lon="3.51998">
        <ele>1292</ele>
        <time>2026-05-28T12:37:01.000Z</time>
      </trkpt>
      <trkpt lat="44.03612" lon="3.51999">
        <ele>1292.2</ele>
        <time>2026-05-28T12:37:02.000Z</time>
      </trkpt>
      <trkpt lat="44.03611" lon="3.52">
        <ele>1292.3</ele>
        <time>2026-05-28T12:37:03.000Z</time>
      </trkpt>
      <trkpt lat="44.0361" lon="3.52002">
        <ele>1292.5</ele>
        <time>2026-05-28T12:37:04.000Z</time>
      </trkpt>
      <trkpt lat="44.03609" lon="3.52002">
        <ele>1292.5</ele>
        <time>2026-05-28T12:37:05.000Z</time>
      </trkpt>
      <trkpt lat="44.03608" lon="3.52004">
        <ele>1292.4</ele>
        <time>2026-05-28T12:37:06.000Z</time>
      </trkpt>
      <trkpt lat="44.03608" lon="3.52004">
        <ele>1292.4</ele>
        <time>2026-05-28T12:37:07.000Z</time>
      </trkpt>
      <trkpt lat="44.03608" lon="3.52005">
        <ele>1292.2</ele>
        <time>2026-05-28T12:37:08.000Z</time>
      </trkpt>
      <trkpt lat="44.03607" lon="3.52007">
        <ele>1292.1</ele>
        <time>2026-05-28T12:37:09.000Z</time>
      </trkpt>
      <trkpt lat="44.03607" lon="3.52008">
        <ele>1292.1</ele>
        <time>2026-05-28T12:37:10.000Z</time>
      </trkpt>
      <trkpt lat="44.03606" lon="3.52009">
        <ele>1291.6</ele>
        <time>2026-05-28T12:37:11.000Z</time>
      </trkpt>
      <trkpt lat="44.03605" lon="3.52012">
        <ele>1291.7</ele>
        <time>2026-05-28T12:37:12.000Z</time>
      </trkpt>
      <trkpt lat="44.03603" lon="3.52014">
        <ele>1292</ele>
        <time>2026-05-28T12:37:13.000Z</time>
      </trkpt>
      <trkpt lat="44.03603" lon="3.52014">
        <ele>1292.3</ele>
        <time>2026-05-28T12:37:14.000Z</time>
      </trkpt>
      <trkpt lat="44.03602" lon="3.52016">
        <ele>1292.8</ele>
        <time>2026-05-28T12:37:15.000Z</time>
      </trkpt>
      <trkpt lat="44.03602" lon="3.52017">
        <ele>1292.5</ele>
        <time>2026-05-28T12:37:16.000Z</time>
      </trkpt>
      <trkpt lat="44.03601" lon="3.52017">
        <ele>1292.6</ele>
        <time>2026-05-28T12:37:17.000Z</time>
      </trkpt>
      <trkpt lat="44.03601" lon="3.52018">
        <ele>1292.6</ele>
        <time>2026-05-28T12:37:18.000Z</time>
      </trkpt>
      <trkpt lat="44.036" lon="3.52019">
        <ele>1292.7</ele>
        <time>2026-05-28T12:37:19.000Z</time>
      </trkpt>
      <trkpt lat="44.03599" lon="3.52019">
        <ele>1292.6</ele>
        <time>2026-05-28T12:37:20.000Z</time>
      </trkpt>
      <trkpt lat="44.03599" lon="3.52019">
        <ele>1292.3</ele>
        <time>2026-05-28T12:37:21.000Z</time>
      </trkpt>
      <trkpt lat="44.03598" lon="3.5202">
        <ele>1291.7</ele>
        <time>2026-05-28T12:37:22.000Z</time>
      </trkpt>
      <trkpt lat="44.03597" lon="3.5202">
        <ele>1291.6</ele>
        <time>2026-05-28T12:37:23.000Z</time>
      </trkpt>
      <trkpt lat="44.03596" lon="3.5202">
        <ele>1291.5</ele>
        <time>2026-05-28T12:37:24.000Z</time>
      </trkpt>
      <trkpt lat="44.03595" lon="3.5202">
        <ele>1291.5</ele>
        <time>2026-05-28T12:37:25.000Z</time>
      </trkpt>
      <trkpt lat="44.03595" lon="3.52021">
        <ele>1291.6</ele>
        <time>2026-05-28T12:37:26.000Z</time>
      </trkpt>
      <trkpt lat="44.03594" lon="3.52022">
        <ele>1291.8</ele>
        <time>2026-05-28T12:37:27.000Z</time>
      </trkpt>
      <trkpt lat="44.03593" lon="3.52023">
        <ele>1292</ele>
        <time>2026-05-28T12:37:28.000Z</time>
      </trkpt>
      <trkpt lat="44.03592" lon="3.52024">
        <ele>1292.2</ele>
        <time>2026-05-28T12:37:29.000Z</time>
      </trkpt>
      <trkpt lat="44.03591" lon="3.52025">
        <ele>1292.8</ele>
        <time>2026-05-28T12:37:30.000Z</time>
      </trkpt>
      <trkpt lat="44.0359" lon="3.52026">
        <ele>1293.2</ele>
        <time>2026-05-28T12:37:31.000Z</time>
      </trkpt>
      <trkpt lat="44.03589" lon="3.52026">
        <ele>1293.4</ele>
        <time>2026-05-28T12:37:32.000Z</time>
      </trkpt>
      <trkpt lat="44.03589" lon="3.52027">
        <ele>1293.7</ele>
        <time>2026-05-28T12:37:33.000Z</time>
      </trkpt>
      <trkpt lat="44.03587" lon="3.52026">
        <ele>1293.4</ele>
        <time>2026-05-28T12:37:34.000Z</time>
      </trkpt>
      <trkpt lat="44.03587" lon="3.52026">
        <ele>1293.3</ele>
        <time>2026-05-28T12:37:35.000Z</time>
      </trkpt>
      <trkpt lat="44.03586" lon="3.52025">
        <ele>1293.3</ele>
        <time>2026-05-28T12:37:36.000Z</time>
      </trkpt>
      <trkpt lat="44.03585" lon="3.52026">
        <ele>1293.4</ele>
        <time>2026-05-28T12:37:37.000Z</time>
      </trkpt>
      <trkpt lat="44.03583" lon="3.52027">
        <ele>1293.2</ele>
        <time>2026-05-28T12:37:38.000Z</time>
      </trkpt>
      <trkpt lat="44.03582" lon="3.52028">
        <ele>1293.3</ele>
        <time>2026-05-28T12:37:39.000Z</time>
      </trkpt>
      <trkpt lat="44.03582" lon="3.52029">
        <ele>1293.1</ele>
        <time>2026-05-28T12:37:40.000Z</time>
      </trkpt>
      <trkpt lat="44.0358" lon="3.5203">
        <ele>1293.3</ele>
        <time>2026-05-28T12:37:41.000Z</time>
      </trkpt>
      <trkpt lat="44.03579" lon="3.5203">
        <ele>1293.7</ele>
        <time>2026-05-28T12:37:42.000Z</time>
      </trkpt>
      <trkpt lat="44.03578" lon="3.5203">
        <ele>1294</ele>
        <time>2026-05-28T12:37:43.000Z</time>
      </trkpt>
      <trkpt lat="44.03576" lon="3.5203">
        <ele>1294.5</ele>
        <time>2026-05-28T12:37:44.000Z</time>
      </trkpt>
      <trkpt lat="44.03575" lon="3.52031">
        <ele>1294.4</ele>
        <time>2026-05-28T12:37:45.000Z</time>
      </trkpt>
      <trkpt lat="44.03574" lon="3.52031">
        <ele>1294.4</ele>
        <time>2026-05-28T12:37:46.000Z</time>
      </trkpt>
      <trkpt lat="44.03573" lon="3.52031">
        <ele>1294.5</ele>
        <time>2026-05-28T12:37:47.000Z</time>
      </trkpt>
      <trkpt lat="44.03573" lon="3.52031">
        <ele>1294.5</ele>
        <time>2026-05-28T12:37:48.000Z</time>
      </trkpt>
      <trkpt lat="44.03571" lon="3.52031">
        <ele>1294.6</ele>
        <time>2026-05-28T12:37:49.000Z</time>
      </trkpt>
      <trkpt lat="44.03571" lon="3.52031">
        <ele>1294.8</ele>
        <time>2026-05-28T12:37:50.000Z</time>
      </trkpt>
      <trkpt lat="44.0357" lon="3.5203">
        <ele>1295</ele>
        <time>2026-05-28T12:37:51.000Z</time>
      </trkpt>
      <trkpt lat="44.03569" lon="3.52031">
        <ele>1295</ele>
        <time>2026-05-28T12:37:52.000Z</time>
      </trkpt>
      <trkpt lat="44.03567" lon="3.52031">
        <ele>1294.7</ele>
        <time>2026-05-28T12:37:53.000Z</time>
      </trkpt>
      <trkpt lat="44.03566" lon="3.52031">
        <ele>1294.2</ele>
        <time>2026-05-28T12:37:54.000Z</time>
      </trkpt>
      <trkpt lat="44.03565" lon="3.52031">
        <ele>1293.8</ele>
        <time>2026-05-28T12:37:55.000Z</time>
      </trkpt>
      <trkpt lat="44.03564" lon="3.5203">
        <ele>1293.3</ele>
        <time>2026-05-28T12:37:56.000Z</time>
      </trkpt>
      <trkpt lat="44.03563" lon="3.52031">
        <ele>1293.3</ele>
        <time>2026-05-28T12:37:57.000Z</time>
      </trkpt>
      <trkpt lat="44.03562" lon="3.52031">
        <ele>1293.4</ele>
        <time>2026-05-28T12:37:58.000Z</time>
      </trkpt>
      <trkpt lat="44.03562" lon="3.52031">
        <ele>1293.2</ele>
        <time>2026-05-28T12:37:59.000Z</time>
      </trkpt>
      <trkpt lat="44.0356" lon="3.52031">
        <ele>1293.3</ele>
        <time>2026-05-28T12:38:00.000Z</time>
      </trkpt>
      <trkpt lat="44.0356" lon="3.52031">
        <ele>1293.3</ele>
        <time>2026-05-28T12:38:01.000Z</time>
      </trkpt>
      <trkpt lat="44.03559" lon="3.52032">
        <ele>1293.5</ele>
        <time>2026-05-28T12:38:02.000Z</time>
      </trkpt>
      <trkpt lat="44.03558" lon="3.52032">
        <ele>1293.4</ele>
        <time>2026-05-28T12:38:03.000Z</time>
      </trkpt>
      <trkpt lat="44.03557" lon="3.52032">
        <ele>1293</ele>
        <time>2026-05-28T12:38:04.000Z</time>
      </trkpt>
      <trkpt lat="44.03556" lon="3.52033">
        <ele>1293.5</ele>
        <time>2026-05-28T12:38:05.000Z</time>
      </trkpt>
      <trkpt lat="44.03556" lon="3.52033">
        <ele>1293.6</ele>
        <time>2026-05-28T12:38:06.000Z</time>
      </trkpt>
      <trkpt lat="44.03555" lon="3.52033">
        <ele>1293.5</ele>
        <time>2026-05-28T12:38:07.000Z</time>
      </trkpt>
      <trkpt lat="44.03553" lon="3.52034">
        <ele>1293.2</ele>
        <time>2026-05-28T12:38:08.000Z</time>
      </trkpt>
      <trkpt lat="44.03552" lon="3.52034">
        <ele>1293.2</ele>
        <time>2026-05-28T12:38:09.000Z</time>
      </trkpt>
      <trkpt lat="44.03552" lon="3.52034">
        <ele>1293.4</ele>
        <time>2026-05-28T12:38:10.000Z</time>
      </trkpt>
      <trkpt lat="44.03551" lon="3.52034">
        <ele>1293.6</ele>
        <time>2026-05-28T12:38:11.000Z</time>
      </trkpt>
      <trkpt lat="44.0355" lon="3.52034">
        <ele>1294</ele>
        <time>2026-05-28T12:38:12.000Z</time>
      </trkpt>
      <trkpt lat="44.03549" lon="3.52034">
        <ele>1293.9</ele>
        <time>2026-05-28T12:38:13.000Z</time>
      </trkpt>
      <trkpt lat="44.03548" lon="3.52033">
        <ele>1293.7</ele>
        <time>2026-05-28T12:38:14.000Z</time>
      </trkpt>
      <trkpt lat="44.03546" lon="3.52033">
        <ele>1293.7</ele>
        <time>2026-05-28T12:38:15.000Z</time>
      </trkpt>
      <trkpt lat="44.03546" lon="3.52033">
        <ele>1293.5</ele>
        <time>2026-05-28T12:38:16.000Z</time>
      </trkpt>
      <trkpt lat="44.03544" lon="3.52033">
        <ele>1293.4</ele>
        <time>2026-05-28T12:38:17.000Z</time>
      </trkpt>
      <trkpt lat="44.03543" lon="3.52035">
        <ele>1293.7</ele>
        <time>2026-05-28T12:38:18.000Z</time>
      </trkpt>
      <trkpt lat="44.03542" lon="3.52035">
        <ele>1293.5</ele>
        <time>2026-05-28T12:38:19.000Z</time>
      </trkpt>
      <trkpt lat="44.03541" lon="3.52035">
        <ele>1293.9</ele>
        <time>2026-05-28T12:38:20.000Z</time>
      </trkpt>
      <trkpt lat="44.03539" lon="3.52035">
        <ele>1294.1</ele>
        <time>2026-05-28T12:38:21.000Z</time>
      </trkpt>
      <trkpt lat="44.03539" lon="3.52035">
        <ele>1293.9</ele>
        <time>2026-05-28T12:38:22.000Z</time>
      </trkpt>
      <trkpt lat="44.03538" lon="3.52036">
        <ele>1293.8</ele>
        <time>2026-05-28T12:38:23.000Z</time>
      </trkpt>
      <trkpt lat="44.03537" lon="3.52036">
        <ele>1293.7</ele>
        <time>2026-05-28T12:38:25.000Z</time>
      </trkpt>
      <trkpt lat="44.03536" lon="3.52036">
        <ele>1293.8</ele>
        <time>2026-05-28T12:38:26.000Z</time>
      </trkpt>
      <trkpt lat="44.03535" lon="3.52036">
        <ele>1294.2</ele>
        <time>2026-05-28T12:38:27.000Z</time>
      </trkpt>
      <trkpt lat="44.03534" lon="3.52037">
        <ele>1294.1</ele>
        <time>2026-05-28T12:38:28.000Z</time>
      </trkpt>
      <trkpt lat="44.03532" lon="3.52036">
        <ele>1293.9</ele>
        <time>2026-05-28T12:38:29.000Z</time>
      </trkpt>
      <trkpt lat="44.03531" lon="3.52036">
        <ele>1294</ele>
        <time>2026-05-28T12:38:30.000Z</time>
      </trkpt>
      <trkpt lat="44.0353" lon="3.52037">
        <ele>1294.4</ele>
        <time>2026-05-28T12:38:31.000Z</time>
      </trkpt>
      <trkpt lat="44.03528" lon="3.52037">
        <ele>1294.5</ele>
        <time>2026-05-28T12:38:32.000Z</time>
      </trkpt>
      <trkpt lat="44.03526" lon="3.52037">
        <ele>1294.6</ele>
        <time>2026-05-28T12:38:33.000Z</time>
      </trkpt>
      <trkpt lat="44.03525" lon="3.52036">
        <ele>1294.5</ele>
        <time>2026-05-28T12:38:34.000Z</time>
      </trkpt>
      <trkpt lat="44.03523" lon="3.52037">
        <ele>1295.3</ele>
        <time>2026-05-28T12:38:35.000Z</time>
      </trkpt>
      <trkpt lat="44.03521" lon="3.52036">
        <ele>1295.9</ele>
        <time>2026-05-28T12:38:36.000Z</time>
      </trkpt>
      <trkpt lat="44.0352" lon="3.52037">
        <ele>1296.2</ele>
        <time>2026-05-28T12:38:37.000Z</time>
      </trkpt>
      <trkpt lat="44.03519" lon="3.52037">
        <ele>1296.4</ele>
        <time>2026-05-28T12:38:38.000Z</time>
      </trkpt>
      <trkpt lat="44.03518" lon="3.52038">
        <ele>1296.9</ele>
        <time>2026-05-28T12:38:39.000Z</time>
      </trkpt>
      <trkpt lat="44.03516" lon="3.52038">
        <ele>1296.8</ele>
        <time>2026-05-28T12:38:40.000Z</time>
      </trkpt>
      <trkpt lat="44.03516" lon="3.52038">
        <ele>1297.1</ele>
        <time>2026-05-28T12:38:41.000Z</time>
      </trkpt>
      <trkpt lat="44.03514" lon="3.52038">
        <ele>1297.3</ele>
        <time>2026-05-28T12:38:42.000Z</time>
      </trkpt>
      <trkpt lat="44.03513" lon="3.52038">
        <ele>1298</ele>
        <time>2026-05-28T12:38:43.000Z</time>
      </trkpt>
      <trkpt lat="44.03512" lon="3.52038">
        <ele>1298.1</ele>
        <time>2026-05-28T12:38:44.000Z</time>
      </trkpt>
      <trkpt lat="44.03511" lon="3.52037">
        <ele>1298.2</ele>
        <time>2026-05-28T12:38:45.000Z</time>
      </trkpt>
      <trkpt lat="44.0351" lon="3.52037">
        <ele>1297.9</ele>
        <time>2026-05-28T12:38:46.000Z</time>
      </trkpt>
      <trkpt lat="44.0351" lon="3.52036">
        <ele>1298</ele>
        <time>2026-05-28T12:38:47.000Z</time>
      </trkpt>
      <trkpt lat="44.03509" lon="3.52036">
        <ele>1297.6</ele>
        <time>2026-05-28T12:38:48.000Z</time>
      </trkpt>
      <trkpt lat="44.03508" lon="3.52036">
        <ele>1297.8</ele>
        <time>2026-05-28T12:38:49.000Z</time>
      </trkpt>
      <trkpt lat="44.03506" lon="3.52036">
        <ele>1298</ele>
        <time>2026-05-28T12:38:50.000Z</time>
      </trkpt>
      <trkpt lat="44.03505" lon="3.52037">
        <ele>1297.8</ele>
        <time>2026-05-28T12:38:51.000Z</time>
      </trkpt>
      <trkpt lat="44.03504" lon="3.52037">
        <ele>1298</ele>
        <time>2026-05-28T12:38:52.000Z</time>
      </trkpt>
      <trkpt lat="44.03503" lon="3.52037">
        <ele>1297.9</ele>
        <time>2026-05-28T12:38:53.000Z</time>
      </trkpt>
      <trkpt lat="44.03501" lon="3.52037">
        <ele>1298.4</ele>
        <time>2026-05-28T12:38:54.000Z</time>
      </trkpt>
      <trkpt lat="44.035" lon="3.52038">
        <ele>1298.4</ele>
        <time>2026-05-28T12:38:55.000Z</time>
      </trkpt>
      <trkpt lat="44.03499" lon="3.52039">
        <ele>1298.4</ele>
        <time>2026-05-28T12:38:56.000Z</time>
      </trkpt>
      <trkpt lat="44.03498" lon="3.5204">
        <ele>1298.6</ele>
        <time>2026-05-28T12:38:57.000Z</time>
      </trkpt>
      <trkpt lat="44.03497" lon="3.52041">
        <ele>1298.7</ele>
        <time>2026-05-28T12:38:58.000Z</time>
      </trkpt>
      <trkpt lat="44.03496" lon="3.52043">
        <ele>1298.6</ele>
        <time>2026-05-28T12:38:59.000Z</time>
      </trkpt>
      <trkpt lat="44.03495" lon="3.52043">
        <ele>1298.3</ele>
        <time>2026-05-28T12:39:00.000Z</time>
      </trkpt>
      <trkpt lat="44.03494" lon="3.52044">
        <ele>1298.3</ele>
        <time>2026-05-28T12:39:01.000Z</time>
      </trkpt>
      <trkpt lat="44.03493" lon="3.52043">
        <ele>1298.3</ele>
        <time>2026-05-28T12:39:02.000Z</time>
      </trkpt>
      <trkpt lat="44.03492" lon="3.52044">
        <ele>1297.7</ele>
        <time>2026-05-28T12:39:03.000Z</time>
      </trkpt>
      <trkpt lat="44.03491" lon="3.52043">
        <ele>1297.5</ele>
        <time>2026-05-28T12:39:04.000Z</time>
      </trkpt>
      <trkpt lat="44.0349" lon="3.52043">
        <ele>1298.3</ele>
        <time>2026-05-28T12:39:05.000Z</time>
      </trkpt>
      <trkpt lat="44.03489" lon="3.52043">
        <ele>1297.5</ele>
        <time>2026-05-28T12:39:06.000Z</time>
      </trkpt>
      <trkpt lat="44.03488" lon="3.52042">
        <ele>1297.4</ele>
        <time>2026-05-28T12:39:07.000Z</time>
      </trkpt>
      <trkpt lat="44.03487" lon="3.5204">
        <ele>1297.3</ele>
        <time>2026-05-28T12:39:08.000Z</time>
      </trkpt>
      <trkpt lat="44.03487" lon="3.5204">
        <ele>1297.3</ele>
        <time>2026-05-28T12:39:09.000Z</time>
      </trkpt>
      <trkpt lat="44.03486" lon="3.5204">
        <ele>1297.1</ele>
        <time>2026-05-28T12:39:10.000Z</time>
      </trkpt>
      <trkpt lat="44.03486" lon="3.5204">
        <ele>1297</ele>
        <time>2026-05-28T12:39:11.000Z</time>
      </trkpt>
      <trkpt lat="44.03486" lon="3.5204">
        <ele>1296.8</ele>
        <time>2026-05-28T12:39:12.000Z</time>
      </trkpt>
      <trkpt lat="44.03486" lon="3.5204">
        <ele>1296.7</ele>
        <time>2026-05-28T12:39:13.000Z</time>
      </trkpt>
      <trkpt lat="44.03485" lon="3.5204">
        <ele>1296.4</ele>
        <time>2026-05-28T12:39:14.000Z</time>
      </trkpt>
      <trkpt lat="44.03485" lon="3.5204">
        <ele>1296.6</ele>
        <time>2026-05-28T12:39:15.000Z</time>
      </trkpt>
      <trkpt lat="44.03485" lon="3.5204">
        <ele>1296.8</ele>
        <time>2026-05-28T12:39:16.000Z</time>
      </trkpt>
      <trkpt lat="44.03485" lon="3.5204">
        <ele>1296.7</ele>
        <time>2026-05-28T12:39:17.000Z</time>
      </trkpt>
      <trkpt lat="44.03484" lon="3.5204">
        <ele>1296.3</ele>
        <time>2026-05-28T12:39:18.000Z</time>
      </trkpt>
      <trkpt lat="44.03482" lon="3.52041">
        <ele>1296.4</ele>
        <time>2026-05-28T12:39:19.000Z</time>
      </trkpt>
      <trkpt lat="44.0348" lon="3.52042">
        <ele>1296.7</ele>
        <time>2026-05-28T12:39:20.000Z</time>
      </trkpt>
      <trkpt lat="44.03478" lon="3.52041">
        <ele>1296.9</ele>
        <time>2026-05-28T12:39:21.000Z</time>
      </trkpt>
      <trkpt lat="44.03476" lon="3.52041">
        <ele>1297.3</ele>
        <time>2026-05-28T12:39:22.000Z</time>
      </trkpt>
      <trkpt lat="44.03475" lon="3.52041">
        <ele>1297.3</ele>
        <time>2026-05-28T12:39:23.000Z</time>
      </trkpt>
      <trkpt lat="44.03475" lon="3.52041">
        <ele>1297.3</ele>
        <time>2026-05-28T12:39:24.000Z</time>
      </trkpt>
      <trkpt lat="44.03472" lon="3.52042">
        <ele>1296.8</ele>
        <time>2026-05-28T12:39:25.000Z</time>
      </trkpt>
      <trkpt lat="44.03471" lon="3.52042">
        <ele>1296.3</ele>
        <time>2026-05-28T12:39:26.000Z</time>
      </trkpt>
      <trkpt lat="44.03469" lon="3.52042">
        <ele>1295.7</ele>
        <time>2026-05-28T12:39:27.000Z</time>
      </trkpt>
      <trkpt lat="44.03469" lon="3.52041">
        <ele>1295.2</ele>
        <time>2026-05-28T12:39:28.000Z</time>
      </trkpt>
      <trkpt lat="44.03466" lon="3.52041">
        <ele>1295.1</ele>
        <time>2026-05-28T12:39:29.000Z</time>
      </trkpt>
      <trkpt lat="44.03465" lon="3.52041">
        <ele>1294.9</ele>
        <time>2026-05-28T12:39:30.000Z</time>
      </trkpt>
      <trkpt lat="44.03463" lon="3.52041">
        <ele>1295.1</ele>
        <time>2026-05-28T12:39:31.000Z</time>
      </trkpt>
      <trkpt lat="44.03461" lon="3.5204">
        <ele>1295.2</ele>
        <time>2026-05-28T12:39:32.000Z</time>
      </trkpt>
      <trkpt lat="44.03459" lon="3.5204">
        <ele>1295.8</ele>
        <time>2026-05-28T12:39:33.000Z</time>
      </trkpt>
      <trkpt lat="44.03458" lon="3.52041">
        <ele>1296.4</ele>
        <time>2026-05-28T12:39:34.000Z</time>
      </trkpt>
      <trkpt lat="44.03456" lon="3.52042">
        <ele>1296.8</ele>
        <time>2026-05-28T12:39:35.000Z</time>
      </trkpt>
      <trkpt lat="44.03454" lon="3.52042">
        <ele>1297.3</ele>
        <time>2026-05-28T12:39:36.000Z</time>
      </trkpt>
      <trkpt lat="44.03453" lon="3.52043">
        <ele>1297.7</ele>
        <time>2026-05-28T12:39:37.000Z</time>
      </trkpt>
      <trkpt lat="44.03452" lon="3.52044">
        <ele>1297.4</ele>
        <time>2026-05-28T12:39:38.000Z</time>
      </trkpt>
      <trkpt lat="44.03451" lon="3.52044">
        <ele>1297.6</ele>
        <time>2026-05-28T12:39:39.000Z</time>
      </trkpt>
      <trkpt lat="44.03449" lon="3.52044">
        <ele>1297.3</ele>
        <time>2026-05-28T12:39:40.000Z</time>
      </trkpt>
      <trkpt lat="44.03447" lon="3.52044">
        <ele>1296.8</ele>
        <time>2026-05-28T12:39:41.000Z</time>
      </trkpt>
      <trkpt lat="44.03447" lon="3.52044">
        <ele>1296.9</ele>
        <time>2026-05-28T12:39:42.000Z</time>
      </trkpt>
      <trkpt lat="44.03446" lon="3.52045">
        <ele>1297</ele>
        <time>2026-05-28T12:39:43.000Z</time>
      </trkpt>
      <trkpt lat="44.03444" lon="3.52045">
        <ele>1296.6</ele>
        <time>2026-05-28T12:39:44.000Z</time>
      </trkpt>
      <trkpt lat="44.03443" lon="3.52045">
        <ele>1296.8</ele>
        <time>2026-05-28T12:39:45.000Z</time>
      </trkpt>
      <trkpt lat="44.03441" lon="3.52046">
        <ele>1296.7</ele>
        <time>2026-05-28T12:39:46.000Z</time>
      </trkpt>
      <trkpt lat="44.03441" lon="3.52046">
        <ele>1297.3</ele>
        <time>2026-05-28T12:39:47.000Z</time>
      </trkpt>
      <trkpt lat="44.03441" lon="3.52046">
        <ele>1297.4</ele>
        <time>2026-05-28T12:39:48.000Z</time>
      </trkpt>
      <trkpt lat="44.03441" lon="3.52046">
        <ele>1297.5</ele>
        <time>2026-05-28T12:39:49.000Z</time>
      </trkpt>
      <trkpt lat="44.0344" lon="3.52046">
        <ele>1297.3</ele>
        <time>2026-05-28T12:39:50.000Z</time>
      </trkpt>
      <trkpt lat="44.03439" lon="3.52045">
        <ele>1296.9</ele>
        <time>2026-05-28T12:39:51.000Z</time>
      </trkpt>
      <trkpt lat="44.03438" lon="3.52045">
        <ele>1296.9</ele>
        <time>2026-05-28T12:39:52.000Z</time>
      </trkpt>
      <trkpt lat="44.03436" lon="3.52044">
        <ele>1296.8</ele>
        <time>2026-05-28T12:39:53.000Z</time>
      </trkpt>
      <trkpt lat="44.03435" lon="3.52046">
        <ele>1296.9</ele>
        <time>2026-05-28T12:39:54.000Z</time>
      </trkpt>
      <trkpt lat="44.03434" lon="3.52046">
        <ele>1297.2</ele>
        <time>2026-05-28T12:39:55.000Z</time>
      </trkpt>
      <trkpt lat="44.03432" lon="3.52046">
        <ele>1297.3</ele>
        <time>2026-05-28T12:39:56.000Z</time>
      </trkpt>
      <trkpt lat="44.03431" lon="3.52046">
        <ele>1297.3</ele>
        <time>2026-05-28T12:39:57.000Z</time>
      </trkpt>
      <trkpt lat="44.03429" lon="3.52046">
        <ele>1297.6</ele>
        <time>2026-05-28T12:39:58.000Z</time>
      </trkpt>
      <trkpt lat="44.03429" lon="3.52046">
        <ele>1297.6</ele>
        <time>2026-05-28T12:39:59.000Z</time>
      </trkpt>
      <trkpt lat="44.03428" lon="3.52046">
        <ele>1297.4</ele>
        <time>2026-05-28T12:40:00.000Z</time>
      </trkpt>
      <trkpt lat="44.03427" lon="3.52046">
        <ele>1297.7</ele>
        <time>2026-05-28T12:40:01.000Z</time>
      </trkpt>
      <trkpt lat="44.03426" lon="3.52047">
        <ele>1298</ele>
        <time>2026-05-28T12:40:02.000Z</time>
      </trkpt>
      <trkpt lat="44.03426" lon="3.52047">
        <ele>1298.5</ele>
        <time>2026-05-28T12:40:03.000Z</time>
      </trkpt>
      <trkpt lat="44.03425" lon="3.52047">
        <ele>1298.3</ele>
        <time>2026-05-28T12:40:04.000Z</time>
      </trkpt>
      <trkpt lat="44.03424" lon="3.52046">
        <ele>1298.4</ele>
        <time>2026-05-28T12:40:05.000Z</time>
      </trkpt>
      <trkpt lat="44.03423" lon="3.52047">
        <ele>1298.3</ele>
        <time>2026-05-28T12:40:06.000Z</time>
      </trkpt>
      <trkpt lat="44.03422" lon="3.52048">
        <ele>1298.3</ele>
        <time>2026-05-28T12:40:07.000Z</time>
      </trkpt>
      <trkpt lat="44.03421" lon="3.52048">
        <ele>1297.6</ele>
        <time>2026-05-28T12:40:08.000Z</time>
      </trkpt>
      <trkpt lat="44.0342" lon="3.52048">
        <ele>1297.3</ele>
        <time>2026-05-28T12:40:09.000Z</time>
      </trkpt>
      <trkpt lat="44.03419" lon="3.52049">
        <ele>1297.4</ele>
        <time>2026-05-28T12:40:10.000Z</time>
      </trkpt>
      <trkpt lat="44.03417" lon="3.52049">
        <ele>1297.6</ele>
        <time>2026-05-28T12:40:11.000Z</time>
      </trkpt>
      <trkpt lat="44.03416" lon="3.5205">
        <ele>1297.6</ele>
        <time>2026-05-28T12:40:12.000Z</time>
      </trkpt>
      <trkpt lat="44.03415" lon="3.5205">
        <ele>1297.3</ele>
        <time>2026-05-28T12:40:13.000Z</time>
      </trkpt>
      <trkpt lat="44.03413" lon="3.5205">
        <ele>1297.3</ele>
        <time>2026-05-28T12:40:14.000Z</time>
      </trkpt>
      <trkpt lat="44.03412" lon="3.5205">
        <ele>1296.9</ele>
        <time>2026-05-28T12:40:15.000Z</time>
      </trkpt>
      <trkpt lat="44.0341" lon="3.5205">
        <ele>1297</ele>
        <time>2026-05-28T12:40:16.000Z</time>
      </trkpt>
      <trkpt lat="44.03409" lon="3.5205">
        <ele>1296.6</ele>
        <time>2026-05-28T12:40:17.000Z</time>
      </trkpt>
      <trkpt lat="44.03408" lon="3.52049">
        <ele>1296.1</ele>
        <time>2026-05-28T12:40:18.000Z</time>
      </trkpt>
      <trkpt lat="44.03406" lon="3.52049">
        <ele>1295.2</ele>
        <time>2026-05-28T12:40:19.000Z</time>
      </trkpt>
      <trkpt lat="44.03405" lon="3.5205">
        <ele>1294.7</ele>
        <time>2026-05-28T12:40:20.000Z</time>
      </trkpt>
      <trkpt lat="44.03403" lon="3.5205">
        <ele>1294.5</ele>
        <time>2026-05-28T12:40:21.000Z</time>
      </trkpt>
      <trkpt lat="44.03401" lon="3.52051">
        <ele>1295.2</ele>
        <time>2026-05-28T12:40:22.000Z</time>
      </trkpt>
      <trkpt lat="44.034" lon="3.5205">
        <ele>1295.3</ele>
        <time>2026-05-28T12:40:23.000Z</time>
      </trkpt>
      <trkpt lat="44.03399" lon="3.52051">
        <ele>1295.6</ele>
        <time>2026-05-28T12:40:24.000Z</time>
      </trkpt>
      <trkpt lat="44.03397" lon="3.52052">
        <ele>1296.2</ele>
        <time>2026-05-28T12:40:25.000Z</time>
      </trkpt>
      <trkpt lat="44.03396" lon="3.52053">
        <ele>1297</ele>
        <time>2026-05-28T12:40:26.000Z</time>
      </trkpt>
      <trkpt lat="44.03394" lon="3.52054">
        <ele>1297.2</ele>
        <time>2026-05-28T12:40:27.000Z</time>
      </trkpt>
      <trkpt lat="44.03392" lon="3.52055">
        <ele>1297.9</ele>
        <time>2026-05-28T12:40:28.000Z</time>
      </trkpt>
      <trkpt lat="44.0339" lon="3.52055">
        <ele>1298.4</ele>
        <time>2026-05-28T12:40:29.000Z</time>
      </trkpt>
      <trkpt lat="44.03389" lon="3.52055">
        <ele>1298.5</ele>
        <time>2026-05-28T12:40:30.000Z</time>
      </trkpt>
      <trkpt lat="44.03388" lon="3.52053">
        <ele>1298.5</ele>
        <time>2026-05-28T12:40:31.000Z</time>
      </trkpt>
      <trkpt lat="44.03387" lon="3.52053">
        <ele>1298</ele>
        <time>2026-05-28T12:40:32.000Z</time>
      </trkpt>
      <trkpt lat="44.03387" lon="3.52053">
        <ele>1297.9</ele>
        <time>2026-05-28T12:40:33.000Z</time>
      </trkpt>
      <trkpt lat="44.03387" lon="3.52053">
        <ele>1298.6</ele>
        <time>2026-05-28T12:40:34.000Z</time>
      </trkpt>
      <trkpt lat="44.03385" lon="3.52052">
        <ele>1298.6</ele>
        <time>2026-05-28T12:40:35.000Z</time>
      </trkpt>
      <trkpt lat="44.03384" lon="3.52052">
        <ele>1297.8</ele>
        <time>2026-05-28T12:40:36.000Z</time>
      </trkpt>
      <trkpt lat="44.03382" lon="3.52052">
        <ele>1297.3</ele>
        <time>2026-05-28T12:40:37.000Z</time>
      </trkpt>
      <trkpt lat="44.03381" lon="3.52053">
        <ele>1296.9</ele>
        <time>2026-05-28T12:40:38.000Z</time>
      </trkpt>
      <trkpt lat="44.03379" lon="3.52053">
        <ele>1297</ele>
        <time>2026-05-28T12:40:39.000Z</time>
      </trkpt>
      <trkpt lat="44.03378" lon="3.52053">
        <ele>1296.7</ele>
        <time>2026-05-28T12:40:40.000Z</time>
      </trkpt>
      <trkpt lat="44.03376" lon="3.52054">
        <ele>1296.1</ele>
        <time>2026-05-28T12:40:41.000Z</time>
      </trkpt>
      <trkpt lat="44.03375" lon="3.52053">
        <ele>1296.4</ele>
        <time>2026-05-28T12:40:42.000Z</time>
      </trkpt>
      <trkpt lat="44.03374" lon="3.52053">
        <ele>1296.5</ele>
        <time>2026-05-28T12:40:43.000Z</time>
      </trkpt>
      <trkpt lat="44.03373" lon="3.52052">
        <ele>1297.2</ele>
        <time>2026-05-28T12:40:44.000Z</time>
      </trkpt>
      <trkpt lat="44.03372" lon="3.52053">
        <ele>1296.9</ele>
        <time>2026-05-28T12:40:45.000Z</time>
      </trkpt>
      <trkpt lat="44.03371" lon="3.52053">
        <ele>1297.4</ele>
        <time>2026-05-28T12:40:46.000Z</time>
      </trkpt>
      <trkpt lat="44.0337" lon="3.52054">
        <ele>1297.7</ele>
        <time>2026-05-28T12:40:47.000Z</time>
      </trkpt>
      <trkpt lat="44.03369" lon="3.52055">
        <ele>1297.3</ele>
        <time>2026-05-28T12:40:48.000Z</time>
      </trkpt>
      <trkpt lat="44.03367" lon="3.52056">
        <ele>1297</ele>
        <time>2026-05-28T12:40:49.000Z</time>
      </trkpt>
      <trkpt lat="44.03367" lon="3.52056">
        <ele>1296.6</ele>
        <time>2026-05-28T12:40:50.000Z</time>
      </trkpt>
      <trkpt lat="44.03365" lon="3.52057">
        <ele>1296.5</ele>
        <time>2026-05-28T12:40:51.000Z</time>
      </trkpt>
      <trkpt lat="44.03364" lon="3.52058">
        <ele>1296.6</ele>
        <time>2026-05-28T12:40:52.000Z</time>
      </trkpt>
      <trkpt lat="44.03362" lon="3.5206">
        <ele>1297.1</ele>
        <time>2026-05-28T12:40:53.000Z</time>
      </trkpt>
      <trkpt lat="44.03361" lon="3.5206">
        <ele>1297.4</ele>
        <time>2026-05-28T12:40:54.000Z</time>
      </trkpt>
      <trkpt lat="44.03359" lon="3.5206">
        <ele>1297.1</ele>
        <time>2026-05-28T12:40:55.000Z</time>
      </trkpt>
      <trkpt lat="44.03358" lon="3.5206">
        <ele>1296.5</ele>
        <time>2026-05-28T12:40:56.000Z</time>
      </trkpt>
      <trkpt lat="44.03358" lon="3.52059">
        <ele>1296.5</ele>
        <time>2026-05-28T12:40:57.000Z</time>
      </trkpt>
      <trkpt lat="44.03357" lon="3.52059">
        <ele>1297.1</ele>
        <time>2026-05-28T12:40:58.000Z</time>
      </trkpt>
      <trkpt lat="44.03356" lon="3.52061">
        <ele>1297.3</ele>
        <time>2026-05-28T12:40:59.000Z</time>
      </trkpt>
      <trkpt lat="44.03354" lon="3.52062">
        <ele>1297.9</ele>
        <time>2026-05-28T12:41:00.000Z</time>
      </trkpt>
      <trkpt lat="44.03353" lon="3.52063">
        <ele>1298.4</ele>
        <time>2026-05-28T12:41:01.000Z</time>
      </trkpt>
      <trkpt lat="44.03352" lon="3.52063">
        <ele>1298.8</ele>
        <time>2026-05-28T12:41:02.000Z</time>
      </trkpt>
      <trkpt lat="44.0335" lon="3.52063">
        <ele>1298.7</ele>
        <time>2026-05-28T12:41:03.000Z</time>
      </trkpt>
      <trkpt lat="44.0335" lon="3.52063">
        <ele>1298.4</ele>
        <time>2026-05-28T12:41:04.000Z</time>
      </trkpt>
      <trkpt lat="44.03349" lon="3.52062">
        <ele>1298.4</ele>
        <time>2026-05-28T12:41:05.000Z</time>
      </trkpt>
      <trkpt lat="44.03348" lon="3.52062">
        <ele>1298.2</ele>
        <time>2026-05-28T12:41:06.000Z</time>
      </trkpt>
      <trkpt lat="44.03346" lon="3.52062">
        <ele>1298.3</ele>
        <time>2026-05-28T12:41:07.000Z</time>
      </trkpt>
      <trkpt lat="44.03346" lon="3.52062">
        <ele>1298.6</ele>
        <time>2026-05-28T12:41:08.000Z</time>
      </trkpt>
      <trkpt lat="44.03345" lon="3.52062">
        <ele>1298.8</ele>
        <time>2026-05-28T12:41:09.000Z</time>
      </trkpt>
      <trkpt lat="44.03344" lon="3.52062">
        <ele>1298.2</ele>
        <time>2026-05-28T12:41:10.000Z</time>
      </trkpt>
      <trkpt lat="44.03342" lon="3.52062">
        <ele>1297.6</ele>
        <time>2026-05-28T12:41:11.000Z</time>
      </trkpt>
      <trkpt lat="44.03341" lon="3.52061">
        <ele>1298.2</ele>
        <time>2026-05-28T12:41:12.000Z</time>
      </trkpt>
      <trkpt lat="44.0334" lon="3.52061">
        <ele>1298.5</ele>
        <time>2026-05-28T12:41:13.000Z</time>
      </trkpt>
      <trkpt lat="44.03338" lon="3.52061">
        <ele>1299.2</ele>
        <time>2026-05-28T12:41:14.000Z</time>
      </trkpt>
      <trkpt lat="44.03337" lon="3.52061">
        <ele>1299.8</ele>
        <time>2026-05-28T12:41:15.000Z</time>
      </trkpt>
      <trkpt lat="44.03335" lon="3.52061">
        <ele>1300</ele>
        <time>2026-05-28T12:41:16.000Z</time>
      </trkpt>
      <trkpt lat="44.03334" lon="3.52062">
        <ele>1300.3</ele>
        <time>2026-05-28T12:41:17.000Z</time>
      </trkpt>
      <trkpt lat="44.03332" lon="3.52062">
        <ele>1300.4</ele>
        <time>2026-05-28T12:41:18.000Z</time>
      </trkpt>
      <trkpt lat="44.03331" lon="3.52062">
        <ele>1300.7</ele>
        <time>2026-05-28T12:41:19.000Z</time>
      </trkpt>
      <trkpt lat="44.0333" lon="3.52062">
        <ele>1300.4</ele>
        <time>2026-05-28T12:41:20.000Z</time>
      </trkpt>
      <trkpt lat="44.03329" lon="3.52062">
        <ele>1300</ele>
        <time>2026-05-28T12:41:21.000Z</time>
      </trkpt>
      <trkpt lat="44.03328" lon="3.52062">
        <ele>1299.8</ele>
        <time>2026-05-28T12:41:22.000Z</time>
      </trkpt>
      <trkpt lat="44.03328" lon="3.52062">
        <ele>1299.5</ele>
        <time>2026-05-28T12:41:23.000Z</time>
      </trkpt>
      <trkpt lat="44.03327" lon="3.52063">
        <ele>1299.7</ele>
        <time>2026-05-28T12:41:24.000Z</time>
      </trkpt>
      <trkpt lat="44.03326" lon="3.52064">
        <ele>1299.7</ele>
        <time>2026-05-28T12:41:25.000Z</time>
      </trkpt>
      <trkpt lat="44.03325" lon="3.52064">
        <ele>1299.4</ele>
        <time>2026-05-28T12:41:26.000Z</time>
      </trkpt>
      <trkpt lat="44.03325" lon="3.52064">
        <ele>1298.7</ele>
        <time>2026-05-28T12:41:27.000Z</time>
      </trkpt>
      <trkpt lat="44.03323" lon="3.52064">
        <ele>1298.3</ele>
        <time>2026-05-28T12:41:28.000Z</time>
      </trkpt>
      <trkpt lat="44.03322" lon="3.52064">
        <ele>1298.2</ele>
        <time>2026-05-28T12:41:29.000Z</time>
      </trkpt>
      <trkpt lat="44.03321" lon="3.52065">
        <ele>1298</ele>
        <time>2026-05-28T12:41:30.000Z</time>
      </trkpt>
      <trkpt lat="44.03321" lon="3.52066">
        <ele>1298</ele>
        <time>2026-05-28T12:41:31.000Z</time>
      </trkpt>
      <trkpt lat="44.0332" lon="3.52065">
        <ele>1297.1</ele>
        <time>2026-05-28T12:41:32.000Z</time>
      </trkpt>
      <trkpt lat="44.03319" lon="3.52065">
        <ele>1296.8</ele>
        <time>2026-05-28T12:41:33.000Z</time>
      </trkpt>
      <trkpt lat="44.03318" lon="3.52065">
        <ele>1296.2</ele>
        <time>2026-05-28T12:41:34.000Z</time>
      </trkpt>
      <trkpt lat="44.03316" lon="3.52063">
        <ele>1296.2</ele>
        <time>2026-05-28T12:41:35.000Z</time>
      </trkpt>
      <trkpt lat="44.03315" lon="3.52062">
        <ele>1296.5</ele>
        <time>2026-05-28T12:41:36.000Z</time>
      </trkpt>
      <trkpt lat="44.03313" lon="3.52062">
        <ele>1296.6</ele>
        <time>2026-05-28T12:41:37.000Z</time>
      </trkpt>
      <trkpt lat="44.03312" lon="3.52061">
        <ele>1297.2</ele>
        <time>2026-05-28T12:41:38.000Z</time>
      </trkpt>
      <trkpt lat="44.03311" lon="3.5206">
        <ele>1297.4</ele>
        <time>2026-05-28T12:41:39.000Z</time>
      </trkpt>
      <trkpt lat="44.0331" lon="3.52059">
        <ele>1296.8</ele>
        <time>2026-05-28T12:41:40.000Z</time>
      </trkpt>
      <trkpt lat="44.03309" lon="3.52059">
        <ele>1296.5</ele>
        <time>2026-05-28T12:41:41.000Z</time>
      </trkpt>
      <trkpt lat="44.03307" lon="3.52058">
        <ele>1296.2</ele>
        <time>2026-05-28T12:41:42.000Z</time>
      </trkpt>
      <trkpt lat="44.03306" lon="3.52058">
        <ele>1295.7</ele>
        <time>2026-05-28T12:41:43.000Z</time>
      </trkpt>
      <trkpt lat="44.03304" lon="3.52056">
        <ele>1295</ele>
        <time>2026-05-28T12:41:44.000Z</time>
      </trkpt>
      <trkpt lat="44.03303" lon="3.52055">
        <ele>1295.5</ele>
        <time>2026-05-28T12:41:45.000Z</time>
      </trkpt>
      <trkpt lat="44.03302" lon="3.52055">
        <ele>1295.6</ele>
        <time>2026-05-28T12:41:46.000Z</time>
      </trkpt>
      <trkpt lat="44.03301" lon="3.52055">
        <ele>1295.9</ele>
        <time>2026-05-28T12:41:47.000Z</time>
      </trkpt>
      <trkpt lat="44.033" lon="3.52055">
        <ele>1296.6</ele>
        <time>2026-05-28T12:41:48.000Z</time>
      </trkpt>
      <trkpt lat="44.03298" lon="3.52056">
        <ele>1296.5</ele>
        <time>2026-05-28T12:41:49.000Z</time>
      </trkpt>
      <trkpt lat="44.03297" lon="3.52056">
        <ele>1297</ele>
        <time>2026-05-28T12:41:50.000Z</time>
      </trkpt>
      <trkpt lat="44.03295" lon="3.52055">
        <ele>1297.6</ele>
        <time>2026-05-28T12:41:51.000Z</time>
      </trkpt>
      <trkpt lat="44.03294" lon="3.52056">
        <ele>1297.1</ele>
        <time>2026-05-28T12:41:52.000Z</time>
      </trkpt>
      <trkpt lat="44.03293" lon="3.52056">
        <ele>1297.6</ele>
        <time>2026-05-28T12:41:53.000Z</time>
      </trkpt>
      <trkpt lat="44.03292" lon="3.52057">
        <ele>1298</ele>
        <time>2026-05-28T12:41:54.000Z</time>
      </trkpt>
      <trkpt lat="44.03291" lon="3.52057">
        <ele>1298.3</ele>
        <time>2026-05-28T12:41:55.000Z</time>
      </trkpt>
      <trkpt lat="44.0329" lon="3.52058">
        <ele>1299.2</ele>
        <time>2026-05-28T12:41:56.000Z</time>
      </trkpt>
      <trkpt lat="44.03289" lon="3.52059">
        <ele>1299.4</ele>
        <time>2026-05-28T12:41:57.000Z</time>
      </trkpt>
      <trkpt lat="44.03288" lon="3.52059">
        <ele>1299.4</ele>
        <time>2026-05-28T12:41:58.000Z</time>
      </trkpt>
      <trkpt lat="44.03286" lon="3.52058">
        <ele>1299.6</ele>
        <time>2026-05-28T12:41:59.000Z</time>
      </trkpt>
      <trkpt lat="44.03285" lon="3.52058">
        <ele>1299</ele>
        <time>2026-05-28T12:42:00.000Z</time>
      </trkpt>
      <trkpt lat="44.03283" lon="3.52058">
        <ele>1298.9</ele>
        <time>2026-05-28T12:42:01.000Z</time>
      </trkpt>
      <trkpt lat="44.03283" lon="3.52058">
        <ele>1299.2</ele>
        <time>2026-05-28T12:42:02.000Z</time>
      </trkpt>
      <trkpt lat="44.03282" lon="3.52058">
        <ele>1299.6</ele>
        <time>2026-05-28T12:42:03.000Z</time>
      </trkpt>
      <trkpt lat="44.03281" lon="3.52058">
        <ele>1300.1</ele>
        <time>2026-05-28T12:42:04.000Z</time>
      </trkpt>
      <trkpt lat="44.03281" lon="3.52059">
        <ele>1300</ele>
        <time>2026-05-28T12:42:05.000Z</time>
      </trkpt>
      <trkpt lat="44.03281" lon="3.52059">
        <ele>1300.5</ele>
        <time>2026-05-28T12:42:06.000Z</time>
      </trkpt>
      <trkpt lat="44.0328" lon="3.52059">
        <ele>1301</ele>
        <time>2026-05-28T12:42:07.000Z</time>
      </trkpt>
      <trkpt lat="44.0328" lon="3.52059">
        <ele>1301.5</ele>
        <time>2026-05-28T12:42:08.000Z</time>
      </trkpt>
      <trkpt lat="44.03279" lon="3.52059">
        <ele>1301.7</ele>
        <time>2026-05-28T12:42:09.000Z</time>
      </trkpt>
      <trkpt lat="44.03279" lon="3.52059">
        <ele>1301.5</ele>
        <time>2026-05-28T12:42:10.000Z</time>
      </trkpt>
      <trkpt lat="44.03278" lon="3.52059">
        <ele>1301.4</ele>
        <time>2026-05-28T12:42:11.000Z</time>
      </trkpt>
      <trkpt lat="44.03276" lon="3.5206">
        <ele>1301.2</ele>
        <time>2026-05-28T12:42:12.000Z</time>
      </trkpt>
      <trkpt lat="44.03275" lon="3.52061">
        <ele>1301.3</ele>
        <time>2026-05-28T12:42:13.000Z</time>
      </trkpt>
      <trkpt lat="44.03274" lon="3.52061">
        <ele>1301.7</ele>
        <time>2026-05-28T12:42:14.000Z</time>
      </trkpt>
      <trkpt lat="44.03273" lon="3.52062">
        <ele>1302</ele>
        <time>2026-05-28T12:42:15.000Z</time>
      </trkpt>
      <trkpt lat="44.03272" lon="3.52062">
        <ele>1302.1</ele>
        <time>2026-05-28T12:42:16.000Z</time>
      </trkpt>
      <trkpt lat="44.03271" lon="3.52063">
        <ele>1302.1</ele>
        <time>2026-05-28T12:42:17.000Z</time>
      </trkpt>
      <trkpt lat="44.03269" lon="3.52064">
        <ele>1302.5</ele>
        <time>2026-05-28T12:42:18.000Z</time>
      </trkpt>
      <trkpt lat="44.03268" lon="3.52064">
        <ele>1302.4</ele>
        <time>2026-05-28T12:42:19.000Z</time>
      </trkpt>
      <trkpt lat="44.03267" lon="3.52064">
        <ele>1302.7</ele>
        <time>2026-05-28T12:42:20.000Z</time>
      </trkpt>
      <trkpt lat="44.03266" lon="3.52064">
        <ele>1303.1</ele>
        <time>2026-05-28T12:42:21.000Z</time>
      </trkpt>
      <trkpt lat="44.03266" lon="3.52064">
        <ele>1303.5</ele>
        <time>2026-05-28T12:42:22.000Z</time>
      </trkpt>
      <trkpt lat="44.03265" lon="3.52063">
        <ele>1303.7</ele>
        <time>2026-05-28T12:42:23.000Z</time>
      </trkpt>
      <trkpt lat="44.03264" lon="3.52062">
        <ele>1303.7</ele>
        <time>2026-05-28T12:42:24.000Z</time>
      </trkpt>
      <trkpt lat="44.03263" lon="3.52061">
        <ele>1303.8</ele>
        <time>2026-05-28T12:42:25.000Z</time>
      </trkpt>
      <trkpt lat="44.03263" lon="3.52061">
        <ele>1304.1</ele>
        <time>2026-05-28T12:42:26.000Z</time>
      </trkpt>
      <trkpt lat="44.03262" lon="3.52061">
        <ele>1304</ele>
        <time>2026-05-28T12:42:27.000Z</time>
      </trkpt>
      <trkpt lat="44.03261" lon="3.52061">
        <ele>1304</ele>
        <time>2026-05-28T12:42:28.000Z</time>
      </trkpt>
      <trkpt lat="44.03259" lon="3.52061">
        <ele>1304.3</ele>
        <time>2026-05-28T12:42:29.000Z</time>
      </trkpt>
      <trkpt lat="44.03257" lon="3.52061">
        <ele>1304.7</ele>
        <time>2026-05-28T12:42:31.000Z</time>
      </trkpt>
      <trkpt lat="44.03256" lon="3.52061">
        <ele>1304.6</ele>
        <time>2026-05-28T12:42:32.000Z</time>
      </trkpt>
      <trkpt lat="44.03255" lon="3.52061">
        <ele>1304.5</ele>
        <time>2026-05-28T12:42:33.000Z</time>
      </trkpt>
      <trkpt lat="44.03254" lon="3.52061">
        <ele>1304.9</ele>
        <time>2026-05-28T12:42:34.000Z</time>
      </trkpt>
      <trkpt lat="44.03252" lon="3.52061">
        <ele>1305.3</ele>
        <time>2026-05-28T12:42:35.000Z</time>
      </trkpt>
      <trkpt lat="44.03251" lon="3.52062">
        <ele>1306.5</ele>
        <time>2026-05-28T12:42:36.000Z</time>
      </trkpt>
      <trkpt lat="44.0325" lon="3.52062">
        <ele>1307</ele>
        <time>2026-05-28T12:42:37.000Z</time>
      </trkpt>
      <trkpt lat="44.03249" lon="3.52062">
        <ele>1307</ele>
        <time>2026-05-28T12:42:38.000Z</time>
      </trkpt>
      <trkpt lat="44.03248" lon="3.52062">
        <ele>1307.3</ele>
        <time>2026-05-28T12:42:39.000Z</time>
      </trkpt>
      <trkpt lat="44.03247" lon="3.52062">
        <ele>1307.7</ele>
        <time>2026-05-28T12:42:40.000Z</time>
      </trkpt>
      <trkpt lat="44.03246" lon="3.52062">
        <ele>1307.9</ele>
        <time>2026-05-28T12:42:41.000Z</time>
      </trkpt>
      <trkpt lat="44.03244" lon="3.52063">
        <ele>1308.1</ele>
        <time>2026-05-28T12:42:42.000Z</time>
      </trkpt>
      <trkpt lat="44.03243" lon="3.52064">
        <ele>1308.1</ele>
        <time>2026-05-28T12:42:43.000Z</time>
      </trkpt>
      <trkpt lat="44.03242" lon="3.52064">
        <ele>1308.3</ele>
        <time>2026-05-28T12:42:44.000Z</time>
      </trkpt>
      <trkpt lat="44.03241" lon="3.52065">
        <ele>1309.1</ele>
        <time>2026-05-28T12:42:45.000Z</time>
      </trkpt>
      <trkpt lat="44.0324" lon="3.52065">
        <ele>1309.6</ele>
        <time>2026-05-28T12:42:46.000Z</time>
      </trkpt>
      <trkpt lat="44.0324" lon="3.52065">
        <ele>1310.4</ele>
        <time>2026-05-28T12:42:47.000Z</time>
      </trkpt>
      <trkpt lat="44.03239" lon="3.52064">
        <ele>1310.6</ele>
        <time>2026-05-28T12:42:48.000Z</time>
      </trkpt>
      <trkpt lat="44.03237" lon="3.52064">
        <ele>1311.3</ele>
        <time>2026-05-28T12:42:49.000Z</time>
      </trkpt>
      <trkpt lat="44.03235" lon="3.52064">
        <ele>1312.2</ele>
        <time>2026-05-28T12:42:50.000Z</time>
      </trkpt>
      <trkpt lat="44.03234" lon="3.52065">
        <ele>1311.5</ele>
        <time>2026-05-28T12:42:52.000Z</time>
      </trkpt>
      <trkpt lat="44.03232" lon="3.52064">
        <ele>1311.1</ele>
        <time>2026-05-28T12:42:53.000Z</time>
      </trkpt>
      <trkpt lat="44.0323" lon="3.52063">
        <ele>1311.3</ele>
        <time>2026-05-28T12:42:54.000Z</time>
      </trkpt>
      <trkpt lat="44.03228" lon="3.52062">
        <ele>1310.6</ele>
        <time>2026-05-28T12:42:55.000Z</time>
      </trkpt>
      <trkpt lat="44.03227" lon="3.52061">
        <ele>1310.7</ele>
        <time>2026-05-28T12:42:56.000Z</time>
      </trkpt>
      <trkpt lat="44.03227" lon="3.52061">
        <ele>1310.2</ele>
        <time>2026-05-28T12:42:57.000Z</time>
      </trkpt>
      <trkpt lat="44.03225" lon="3.5206">
        <ele>1309.6</ele>
        <time>2026-05-28T12:42:58.000Z</time>
      </trkpt>
      <trkpt lat="44.03225" lon="3.5206">
        <ele>1309.4</ele>
        <time>2026-05-28T12:42:59.000Z</time>
      </trkpt>
      <trkpt lat="44.03223" lon="3.52058">
        <ele>1309.1</ele>
        <time>2026-05-28T12:43:00.000Z</time>
      </trkpt>
      <trkpt lat="44.03222" lon="3.52058">
        <ele>1309.1</ele>
        <time>2026-05-28T12:43:01.000Z</time>
      </trkpt>
      <trkpt lat="44.03221" lon="3.52056">
        <ele>1308.8</ele>
        <time>2026-05-28T12:43:02.000Z</time>
      </trkpt>
      <trkpt lat="44.03219" lon="3.52055">
        <ele>1309.3</ele>
        <time>2026-05-28T12:43:03.000Z</time>
      </trkpt>
      <trkpt lat="44.03215" lon="3.52054">
        <ele>1309.8</ele>
        <time>2026-05-28T12:43:04.999Z</time>
      </trkpt>
      <trkpt lat="44.03213" lon="3.52053">
        <ele>1309.9</ele>
        <time>2026-05-28T12:43:05.999Z</time>
      </trkpt>
      <trkpt lat="44.03211" lon="3.52053">
        <ele>1309.9</ele>
        <time>2026-05-28T12:43:06.999Z</time>
      </trkpt>
      <trkpt lat="44.03209" lon="3.52052">
        <ele>1309.3</ele>
        <time>2026-05-28T12:43:07.999Z</time>
      </trkpt>
      <trkpt lat="44.03208" lon="3.52053">
        <ele>1310.2</ele>
        <time>2026-05-28T12:43:08.999Z</time>
      </trkpt>
      <trkpt lat="44.03207" lon="3.52053">
        <ele>1310.8</ele>
        <time>2026-05-28T12:43:09.999Z</time>
      </trkpt>
      <trkpt lat="44.03206" lon="3.52053">
        <ele>1310.7</ele>
        <time>2026-05-28T12:43:10.999Z</time>
      </trkpt>
      <trkpt lat="44.03206" lon="3.52054">
        <ele>1310.6</ele>
        <time>2026-05-28T12:43:11.999Z</time>
      </trkpt>
      <trkpt lat="44.03205" lon="3.52054">
        <ele>1311.1</ele>
        <time>2026-05-28T12:43:12.999Z</time>
      </trkpt>
      <trkpt lat="44.03204" lon="3.52055">
        <ele>1311</ele>
        <time>2026-05-28T12:43:13.999Z</time>
      </trkpt>
      <trkpt lat="44.03203" lon="3.52055">
        <ele>1311</ele>
        <time>2026-05-28T12:43:14.999Z</time>
      </trkpt>
      <trkpt lat="44.03202" lon="3.52054">
        <ele>1310.8</ele>
        <time>2026-05-28T12:43:15.999Z</time>
      </trkpt>
      <trkpt lat="44.03201" lon="3.52053">
        <ele>1310.6</ele>
        <time>2026-05-28T12:43:16.999Z</time>
      </trkpt>
      <trkpt lat="44.03199" lon="3.52053">
        <ele>1310.8</ele>
        <time>2026-05-28T12:43:17.999Z</time>
      </trkpt>
      <trkpt lat="44.03198" lon="3.52054">
        <ele>1310.2</ele>
        <time>2026-05-28T12:43:18.999Z</time>
      </trkpt>
      <trkpt lat="44.03197" lon="3.52054">
        <ele>1309.7</ele>
        <time>2026-05-28T12:43:19.999Z</time>
      </trkpt>
      <trkpt lat="44.03196" lon="3.52054">
        <ele>1310.2</ele>
        <time>2026-05-28T12:43:20.999Z</time>
      </trkpt>
      <trkpt lat="44.03196" lon="3.52055">
        <ele>1310.8</ele>
        <time>2026-05-28T12:43:21.999Z</time>
      </trkpt>
      <trkpt lat="44.03194" lon="3.52054">
        <ele>1311.7</ele>
        <time>2026-05-28T12:43:22.999Z</time>
      </trkpt>
      <trkpt lat="44.03193" lon="3.52054">
        <ele>1312</ele>
        <time>2026-05-28T12:43:23.999Z</time>
      </trkpt>
      <trkpt lat="44.03192" lon="3.52053">
        <ele>1312.1</ele>
        <time>2026-05-28T12:43:24.999Z</time>
      </trkpt>
      <trkpt lat="44.03191" lon="3.52054">
        <ele>1311.9</ele>
        <time>2026-05-28T12:43:25.999Z</time>
      </trkpt>
      <trkpt lat="44.0319" lon="3.52054">
        <ele>1311.5</ele>
        <time>2026-05-28T12:43:26.999Z</time>
      </trkpt>
      <trkpt lat="44.03188" lon="3.52053">
        <ele>1312</ele>
        <time>2026-05-28T12:43:27.999Z</time>
      </trkpt>
      <trkpt lat="44.03186" lon="3.52053">
        <ele>1312.3</ele>
        <time>2026-05-28T12:43:28.999Z</time>
      </trkpt>
      <trkpt lat="44.03185" lon="3.52053">
        <ele>1312.3</ele>
        <time>2026-05-28T12:43:29.999Z</time>
      </trkpt>
      <trkpt lat="44.03184" lon="3.52053">
        <ele>1312.9</ele>
        <time>2026-05-28T12:43:30.999Z</time>
      </trkpt>
      <trkpt lat="44.03184" lon="3.52053">
        <ele>1313</ele>
        <time>2026-05-28T12:43:31.999Z</time>
      </trkpt>
      <trkpt lat="44.03183" lon="3.52054">
        <ele>1314.1</ele>
        <time>2026-05-28T12:43:32.999Z</time>
      </trkpt>
      <trkpt lat="44.03182" lon="3.52054">
        <ele>1314.8</ele>
        <time>2026-05-28T12:43:33.999Z</time>
      </trkpt>
      <trkpt lat="44.03181" lon="3.52054">
        <ele>1314.5</ele>
        <time>2026-05-28T12:43:34.999Z</time>
      </trkpt>
      <trkpt lat="44.0318" lon="3.52054">
        <ele>1314.7</ele>
        <time>2026-05-28T12:43:35.999Z</time>
      </trkpt>
      <trkpt lat="44.03178" lon="3.52055">
        <ele>1314.9</ele>
        <time>2026-05-28T12:43:36.999Z</time>
      </trkpt>
      <trkpt lat="44.03177" lon="3.52055">
        <ele>1314.4</ele>
        <time>2026-05-28T12:43:37.999Z</time>
      </trkpt>
      <trkpt lat="44.03176" lon="3.52056">
        <ele>1314.4</ele>
        <time>2026-05-28T12:43:38.999Z</time>
      </trkpt>
      <trkpt lat="44.03175" lon="3.52057">
        <ele>1314.1</ele>
        <time>2026-05-28T12:43:39.999Z</time>
      </trkpt>
      <trkpt lat="44.03174" lon="3.52057">
        <ele>1314.4</ele>
        <time>2026-05-28T12:43:40.999Z</time>
      </trkpt>
      <trkpt lat="44.03173" lon="3.52056">
        <ele>1315.1</ele>
        <time>2026-05-28T12:43:41.999Z</time>
      </trkpt>
      <trkpt lat="44.03172" lon="3.52055">
        <ele>1315</ele>
        <time>2026-05-28T12:43:42.999Z</time>
      </trkpt>
      <trkpt lat="44.03171" lon="3.52054">
        <ele>1314.6</ele>
        <time>2026-05-28T12:43:43.999Z</time>
      </trkpt>
      <trkpt lat="44.0317" lon="3.52053">
        <ele>1314.9</ele>
        <time>2026-05-28T12:43:44.999Z</time>
      </trkpt>
      <trkpt lat="44.03169" lon="3.52052">
        <ele>1314.9</ele>
        <time>2026-05-28T12:43:45.999Z</time>
      </trkpt>
      <trkpt lat="44.03168" lon="3.52052">
        <ele>1315.1</ele>
        <time>2026-05-28T12:43:46.999Z</time>
      </trkpt>
      <trkpt lat="44.03168" lon="3.52051">
        <ele>1314.5</ele>
        <time>2026-05-28T12:43:47.999Z</time>
      </trkpt>
      <trkpt lat="44.03166" lon="3.52051">
        <ele>1314.2</ele>
        <time>2026-05-28T12:43:48.999Z</time>
      </trkpt>
      <trkpt lat="44.03165" lon="3.52051">
        <ele>1314.3</ele>
        <time>2026-05-28T12:43:49.999Z</time>
      </trkpt>
      <trkpt lat="44.03163" lon="3.52051">
        <ele>1314.6</ele>
        <time>2026-05-28T12:43:50.999Z</time>
      </trkpt>
      <trkpt lat="44.03162" lon="3.52052">
        <ele>1314.8</ele>
        <time>2026-05-28T12:43:51.999Z</time>
      </trkpt>
      <trkpt lat="44.03161" lon="3.52053">
        <ele>1315.3</ele>
        <time>2026-05-28T12:43:52.999Z</time>
      </trkpt>
      <trkpt lat="44.0316" lon="3.52053">
        <ele>1315.9</ele>
        <time>2026-05-28T12:43:53.999Z</time>
      </trkpt>
      <trkpt lat="44.03159" lon="3.52052">
        <ele>1316.4</ele>
        <time>2026-05-28T12:43:54.999Z</time>
      </trkpt>
      <trkpt lat="44.03158" lon="3.52052">
        <ele>1316.2</ele>
        <time>2026-05-28T12:43:55.999Z</time>
      </trkpt>
      <trkpt lat="44.03157" lon="3.52052">
        <ele>1316.4</ele>
        <time>2026-05-28T12:43:56.999Z</time>
      </trkpt>
      <trkpt lat="44.03156" lon="3.52051">
        <ele>1315.9</ele>
        <time>2026-05-28T12:43:57.999Z</time>
      </trkpt>
      <trkpt lat="44.03155" lon="3.52051">
        <ele>1315.5</ele>
        <time>2026-05-28T12:43:58.999Z</time>
      </trkpt>
      <trkpt lat="44.03154" lon="3.52052">
        <ele>1314.8</ele>
        <time>2026-05-28T12:43:59.999Z</time>
      </trkpt>
      <trkpt lat="44.03154" lon="3.52052">
        <ele>1314.6</ele>
        <time>2026-05-28T12:44:00.999Z</time>
      </trkpt>
      <trkpt lat="44.03153" lon="3.52053">
        <ele>1314.1</ele>
        <time>2026-05-28T12:44:01.999Z</time>
      </trkpt>
      <trkpt lat="44.03152" lon="3.52054">
        <ele>1313.8</ele>
        <time>2026-05-28T12:44:02.999Z</time>
      </trkpt>
      <trkpt lat="44.03151" lon="3.52055">
        <ele>1313.6</ele>
        <time>2026-05-28T12:44:03.999Z</time>
      </trkpt>
      <trkpt lat="44.0315" lon="3.52055">
        <ele>1313.1</ele>
        <time>2026-05-28T12:44:04.999Z</time>
      </trkpt>
      <trkpt lat="44.03148" lon="3.52056">
        <ele>1312.3</ele>
        <time>2026-05-28T12:44:05.999Z</time>
      </trkpt>
      <trkpt lat="44.03147" lon="3.52056">
        <ele>1312</ele>
        <time>2026-05-28T12:44:06.999Z</time>
      </trkpt>
      <trkpt lat="44.03145" lon="3.52056">
        <ele>1312.2</ele>
        <time>2026-05-28T12:44:07.999Z</time>
      </trkpt>
      <trkpt lat="44.03144" lon="3.52057">
        <ele>1312.2</ele>
        <time>2026-05-28T12:44:08.999Z</time>
      </trkpt>
      <trkpt lat="44.03143" lon="3.52058">
        <ele>1312</ele>
        <time>2026-05-28T12:44:09.999Z</time>
      </trkpt>
      <trkpt lat="44.03142" lon="3.52059">
        <ele>1311.7</ele>
        <time>2026-05-28T12:44:10.999Z</time>
      </trkpt>
      <trkpt lat="44.03141" lon="3.52059">
        <ele>1312.2</ele>
        <time>2026-05-28T12:44:11.999Z</time>
      </trkpt>
      <trkpt lat="44.0314" lon="3.5206">
        <ele>1311.9</ele>
        <time>2026-05-28T12:44:12.999Z</time>
      </trkpt>
      <trkpt lat="44.03139" lon="3.52061">
        <ele>1312.1</ele>
        <time>2026-05-28T12:44:13.999Z</time>
      </trkpt>
      <trkpt lat="44.03138" lon="3.52061">
        <ele>1311.9</ele>
        <time>2026-05-28T12:44:14.999Z</time>
      </trkpt>
      <trkpt lat="44.03136" lon="3.52061">
        <ele>1311.9</ele>
        <time>2026-05-28T12:44:15.999Z</time>
      </trkpt>
      <trkpt lat="44.03134" lon="3.52062">
        <ele>1312.5</ele>
        <time>2026-05-28T12:44:16.999Z</time>
      </trkpt>
      <trkpt lat="44.03133" lon="3.52063">
        <ele>1312.6</ele>
        <time>2026-05-28T12:44:17.999Z</time>
      </trkpt>
      <trkpt lat="44.03132" lon="3.52064">
        <ele>1312.6</ele>
        <time>2026-05-28T12:44:18.999Z</time>
      </trkpt>
      <trkpt lat="44.0313" lon="3.52064">
        <ele>1312.7</ele>
        <time>2026-05-28T12:44:19.999Z</time>
      </trkpt>
      <trkpt lat="44.0313" lon="3.52064">
        <ele>1311.7</ele>
        <time>2026-05-28T12:44:20.999Z</time>
      </trkpt>
      <trkpt lat="44.03129" lon="3.52066">
        <ele>1311.8</ele>
        <time>2026-05-28T12:44:21.999Z</time>
      </trkpt>
      <trkpt lat="44.03127" lon="3.52066">
        <ele>1311.4</ele>
        <time>2026-05-28T12:44:22.999Z</time>
      </trkpt>
      <trkpt lat="44.03126" lon="3.52067">
        <ele>1311.6</ele>
        <time>2026-05-28T12:44:23.999Z</time>
      </trkpt>
      <trkpt lat="44.03125" lon="3.52067">
        <ele>1311</ele>
        <time>2026-05-28T12:44:24.999Z</time>
      </trkpt>
      <trkpt lat="44.03124" lon="3.52067">
        <ele>1310.5</ele>
        <time>2026-05-28T12:44:25.999Z</time>
      </trkpt>
      <trkpt lat="44.03123" lon="3.52068">
        <ele>1309.9</ele>
        <time>2026-05-28T12:44:26.999Z</time>
      </trkpt>
      <trkpt lat="44.03122" lon="3.52068">
        <ele>1310</ele>
        <time>2026-05-28T12:44:27.999Z</time>
      </trkpt>
      <trkpt lat="44.03122" lon="3.52068">
        <ele>1309.4</ele>
        <time>2026-05-28T12:44:28.999Z</time>
      </trkpt>
      <trkpt lat="44.03121" lon="3.52068">
        <ele>1309.5</ele>
        <time>2026-05-28T12:44:29.999Z</time>
      </trkpt>
      <trkpt lat="44.0312" lon="3.52068">
        <ele>1309.1</ele>
        <time>2026-05-28T12:44:30.999Z</time>
      </trkpt>
      <trkpt lat="44.03119" lon="3.52069">
        <ele>1308.8</ele>
        <time>2026-05-28T12:44:31.999Z</time>
      </trkpt>
      <trkpt lat="44.03118" lon="3.52069">
        <ele>1307.9</ele>
        <time>2026-05-28T12:44:32.999Z</time>
      </trkpt>
      <trkpt lat="44.03118" lon="3.52069">
        <ele>1308.7</ele>
        <time>2026-05-28T12:44:33.999Z</time>
      </trkpt>
      <trkpt lat="44.03117" lon="3.52069">
        <ele>1309.9</ele>
        <time>2026-05-28T12:44:34.999Z</time>
      </trkpt>
      <trkpt lat="44.03116" lon="3.5207">
        <ele>1310.5</ele>
        <time>2026-05-28T12:44:35.999Z</time>
      </trkpt>
      <trkpt lat="44.03115" lon="3.5207">
        <ele>1310.5</ele>
        <time>2026-05-28T12:44:36.999Z</time>
      </trkpt>
      <trkpt lat="44.03114" lon="3.52071">
        <ele>1311</ele>
        <time>2026-05-28T12:44:37.999Z</time>
      </trkpt>
      <trkpt lat="44.03112" lon="3.52071">
        <ele>1311.2</ele>
        <time>2026-05-28T12:44:38.999Z</time>
      </trkpt>
      <trkpt lat="44.03111" lon="3.52072">
        <ele>1310.7</ele>
        <time>2026-05-28T12:44:39.999Z</time>
      </trkpt>
      <trkpt lat="44.03111" lon="3.52072">
        <ele>1310.3</ele>
        <time>2026-05-28T12:44:40.999Z</time>
      </trkpt>
      <trkpt lat="44.0311" lon="3.52072">
        <ele>1310.6</ele>
        <time>2026-05-28T12:44:41.999Z</time>
      </trkpt>
      <trkpt lat="44.03109" lon="3.52071">
        <ele>1309.3</ele>
        <time>2026-05-28T12:44:42.999Z</time>
      </trkpt>
      <trkpt lat="44.03108" lon="3.52071">
        <ele>1309.1</ele>
        <time>2026-05-28T12:44:43.999Z</time>
      </trkpt>
      <trkpt lat="44.03107" lon="3.52071">
        <ele>1309.1</ele>
        <time>2026-05-28T12:44:44.999Z</time>
      </trkpt>
      <trkpt lat="44.03106" lon="3.52071">
        <ele>1309.5</ele>
        <time>2026-05-28T12:44:45.999Z</time>
      </trkpt>
      <trkpt lat="44.03105" lon="3.52071">
        <ele>1309.5</ele>
        <time>2026-05-28T12:44:46.999Z</time>
      </trkpt>
      <trkpt lat="44.03103" lon="3.52072">
        <ele>1309.9</ele>
        <time>2026-05-28T12:44:47.999Z</time>
      </trkpt>
      <trkpt lat="44.03102" lon="3.52073">
        <ele>1309.8</ele>
        <time>2026-05-28T12:44:48.999Z</time>
      </trkpt>
      <trkpt lat="44.03101" lon="3.52073">
        <ele>1310</ele>
        <time>2026-05-28T12:44:49.999Z</time>
      </trkpt>
      <trkpt lat="44.03101" lon="3.52074">
        <ele>1309.7</ele>
        <time>2026-05-28T12:44:50.999Z</time>
      </trkpt>
      <trkpt lat="44.031" lon="3.52074">
        <ele>1309.6</ele>
        <time>2026-05-28T12:44:51.999Z</time>
      </trkpt>
      <trkpt lat="44.03099" lon="3.52073">
        <ele>1309.2</ele>
        <time>2026-05-28T12:44:52.999Z</time>
      </trkpt>
      <trkpt lat="44.03097" lon="3.52074">
        <ele>1308.8</ele>
        <time>2026-05-28T12:44:53.999Z</time>
      </trkpt>
      <trkpt lat="44.03096" lon="3.52074">
        <ele>1309.4</ele>
        <time>2026-05-28T12:44:54.999Z</time>
      </trkpt>
      <trkpt lat="44.03095" lon="3.52075">
        <ele>1309.2</ele>
        <time>2026-05-28T12:44:55.999Z</time>
      </trkpt>
      <trkpt lat="44.03094" lon="3.52076">
        <ele>1309.1</ele>
        <time>2026-05-28T12:44:56.999Z</time>
      </trkpt>
      <trkpt lat="44.03092" lon="3.52076">
        <ele>1309.6</ele>
        <time>2026-05-28T12:44:57.999Z</time>
      </trkpt>
      <trkpt lat="44.03091" lon="3.52076">
        <ele>1309.9</ele>
        <time>2026-05-28T12:44:58.999Z</time>
      </trkpt>
      <trkpt lat="44.03089" lon="3.52076">
        <ele>1309.5</ele>
        <time>2026-05-28T12:44:59.999Z</time>
      </trkpt>
      <trkpt lat="44.03088" lon="3.52076">
        <ele>1309.4</ele>
        <time>2026-05-28T12:45:00.999Z</time>
      </trkpt>
      <trkpt lat="44.03086" lon="3.52076">
        <ele>1308.8</ele>
        <time>2026-05-28T12:45:01.999Z</time>
      </trkpt>
      <trkpt lat="44.03086" lon="3.52075">
        <ele>1308.5</ele>
        <time>2026-05-28T12:45:02.999Z</time>
      </trkpt>
      <trkpt lat="44.03085" lon="3.52075">
        <ele>1308.6</ele>
        <time>2026-05-28T12:45:03.999Z</time>
      </trkpt>
      <trkpt lat="44.03085" lon="3.52076">
        <ele>1309</ele>
        <time>2026-05-28T12:45:04.999Z</time>
      </trkpt>
      <trkpt lat="44.03084" lon="3.52076">
        <ele>1309.6</ele>
        <time>2026-05-28T12:45:05.999Z</time>
      </trkpt>
      <trkpt lat="44.03084" lon="3.52076">
        <ele>1309.8</ele>
        <time>2026-05-28T12:45:06.999Z</time>
      </trkpt>
      <trkpt lat="44.03083" lon="3.52076">
        <ele>1309.8</ele>
        <time>2026-05-28T12:45:07.999Z</time>
      </trkpt>
      <trkpt lat="44.03082" lon="3.52076">
        <ele>1310.1</ele>
        <time>2026-05-28T12:45:08.999Z</time>
      </trkpt>
      <trkpt lat="44.0308" lon="3.52076">
        <ele>1310.5</ele>
        <time>2026-05-28T12:45:09.999Z</time>
      </trkpt>
      <trkpt lat="44.03078" lon="3.52077">
        <ele>1311.4</ele>
        <time>2026-05-28T12:45:10.999Z</time>
      </trkpt>
      <trkpt lat="44.03076" lon="3.52078">
        <ele>1312.4</ele>
        <time>2026-05-28T12:45:11.999Z</time>
      </trkpt>
      <trkpt lat="44.03075" lon="3.52079">
        <ele>1312.6</ele>
        <time>2026-05-28T12:45:12.999Z</time>
      </trkpt>
      <trkpt lat="44.03073" lon="3.52079">
        <ele>1312.8</ele>
        <time>2026-05-28T12:45:13.999Z</time>
      </trkpt>
      <trkpt lat="44.03072" lon="3.52079">
        <ele>1313.1</ele>
        <time>2026-05-28T12:45:14.999Z</time>
      </trkpt>
      <trkpt lat="44.03071" lon="3.52079">
        <ele>1313.1</ele>
        <time>2026-05-28T12:45:15.999Z</time>
      </trkpt>
      <trkpt lat="44.0307" lon="3.52079">
        <ele>1313.6</ele>
        <time>2026-05-28T12:45:16.999Z</time>
      </trkpt>
      <trkpt lat="44.03069" lon="3.52079">
        <ele>1313.5</ele>
        <time>2026-05-28T12:45:17.999Z</time>
      </trkpt>
      <trkpt lat="44.03067" lon="3.52081">
        <ele>1313.5</ele>
        <time>2026-05-28T12:45:19.999Z</time>
      </trkpt>
      <trkpt lat="44.03067" lon="3.52082">
        <ele>1313.4</ele>
        <time>2026-05-28T12:45:20.999Z</time>
      </trkpt>
      <trkpt lat="44.03066" lon="3.52083">
        <ele>1313.5</ele>
        <time>2026-05-28T12:45:21.999Z</time>
      </trkpt>
      <trkpt lat="44.03065" lon="3.52084">
        <ele>1313.1</ele>
        <time>2026-05-28T12:45:22.999Z</time>
      </trkpt>
      <trkpt lat="44.03064" lon="3.52084">
        <ele>1312.9</ele>
        <time>2026-05-28T12:45:23.999Z</time>
      </trkpt>
      <trkpt lat="44.03063" lon="3.52084">
        <ele>1312.6</ele>
        <time>2026-05-28T12:45:24.999Z</time>
      </trkpt>
      <trkpt lat="44.03062" lon="3.52084">
        <ele>1312.8</ele>
        <time>2026-05-28T12:45:25.999Z</time>
      </trkpt>
      <trkpt lat="44.0306" lon="3.52085">
        <ele>1312.9</ele>
        <time>2026-05-28T12:45:26.999Z</time>
      </trkpt>
      <trkpt lat="44.03059" lon="3.52087">
        <ele>1312.7</ele>
        <time>2026-05-28T12:45:27.999Z</time>
      </trkpt>
      <trkpt lat="44.03059" lon="3.52088">
        <ele>1312.4</ele>
        <time>2026-05-28T12:45:28.999Z</time>
      </trkpt>
      <trkpt lat="44.03058" lon="3.52088">
        <ele>1312</ele>
        <time>2026-05-28T12:45:29.999Z</time>
      </trkpt>
      <trkpt lat="44.03057" lon="3.52088">
        <ele>1311.9</ele>
        <time>2026-05-28T12:45:30.999Z</time>
      </trkpt>
      <trkpt lat="44.03056" lon="3.52088">
        <ele>1312.1</ele>
        <time>2026-05-28T12:45:31.999Z</time>
      </trkpt>
      <trkpt lat="44.03055" lon="3.52088">
        <ele>1312.4</ele>
        <time>2026-05-28T12:45:32.999Z</time>
      </trkpt>
      <trkpt lat="44.03054" lon="3.52089">
        <ele>1312.5</ele>
        <time>2026-05-28T12:45:33.999Z</time>
      </trkpt>
      <trkpt lat="44.03053" lon="3.52088">
        <ele>1312</ele>
        <time>2026-05-28T12:45:34.999Z</time>
      </trkpt>
      <trkpt lat="44.03052" lon="3.52089">
        <ele>1311.6</ele>
        <time>2026-05-28T12:45:35.999Z</time>
      </trkpt>
      <trkpt lat="44.03051" lon="3.52089">
        <ele>1311.3</ele>
        <time>2026-05-28T12:45:36.999Z</time>
      </trkpt>
      <trkpt lat="44.03051" lon="3.52089">
        <ele>1311.7</ele>
        <time>2026-05-28T12:45:37.999Z</time>
      </trkpt>
      <trkpt lat="44.03051" lon="3.52089">
        <ele>1312</ele>
        <time>2026-05-28T12:45:38.999Z</time>
      </trkpt>
      <trkpt lat="44.03049" lon="3.52089">
        <ele>1312.5</ele>
        <time>2026-05-28T12:45:39.999Z</time>
      </trkpt>
      <trkpt lat="44.03048" lon="3.5209">
        <ele>1312.5</ele>
        <time>2026-05-28T12:45:40.999Z</time>
      </trkpt>
      <trkpt lat="44.03046" lon="3.5209">
        <ele>1313</ele>
        <time>2026-05-28T12:45:41.999Z</time>
      </trkpt>
      <trkpt lat="44.03044" lon="3.52091">
        <ele>1313.2</ele>
        <time>2026-05-28T12:45:42.999Z</time>
      </trkpt>
      <trkpt lat="44.03043" lon="3.52091">
        <ele>1312.9</ele>
        <time>2026-05-28T12:45:43.999Z</time>
      </trkpt>
      <trkpt lat="44.03042" lon="3.52091">
        <ele>1312.9</ele>
        <time>2026-05-28T12:45:44.999Z</time>
      </trkpt>
      <trkpt lat="44.03041" lon="3.5209">
        <ele>1313.3</ele>
        <time>2026-05-28T12:45:45.999Z</time>
      </trkpt>
      <trkpt lat="44.0304" lon="3.52091">
        <ele>1313.3</ele>
        <time>2026-05-28T12:45:46.999Z</time>
      </trkpt>
      <trkpt lat="44.03039" lon="3.52091">
        <ele>1313.5</ele>
        <time>2026-05-28T12:45:47.999Z</time>
      </trkpt>
      <trkpt lat="44.03038" lon="3.52091">
        <ele>1313.7</ele>
        <time>2026-05-28T12:45:48.999Z</time>
      </trkpt>
      <trkpt lat="44.03037" lon="3.52092">
        <ele>1313.6</ele>
        <time>2026-05-28T12:45:49.999Z</time>
      </trkpt>
      <trkpt lat="44.03036" lon="3.52092">
        <ele>1313.4</ele>
        <time>2026-05-28T12:45:50.999Z</time>
      </trkpt>
      <trkpt lat="44.03035" lon="3.52091">
        <ele>1313.2</ele>
        <time>2026-05-28T12:45:51.999Z</time>
      </trkpt>
      <trkpt lat="44.03034" lon="3.52092">
        <ele>1313</ele>
        <time>2026-05-28T12:45:52.999Z</time>
      </trkpt>
      <trkpt lat="44.03033" lon="3.52092">
        <ele>1312.9</ele>
        <time>2026-05-28T12:45:53.999Z</time>
      </trkpt>
      <trkpt lat="44.03032" lon="3.52092">
        <ele>1312.5</ele>
        <time>2026-05-28T12:45:54.999Z</time>
      </trkpt>
      <trkpt lat="44.03031" lon="3.52092">
        <ele>1312.3</ele>
        <time>2026-05-28T12:45:55.999Z</time>
      </trkpt>
      <trkpt lat="44.03029" lon="3.52091">
        <ele>1312.6</ele>
        <time>2026-05-28T12:45:56.999Z</time>
      </trkpt>
      <trkpt lat="44.03028" lon="3.52091">
        <ele>1312.9</ele>
        <time>2026-05-28T12:45:57.999Z</time>
      </trkpt>
      <trkpt lat="44.03027" lon="3.52091">
        <ele>1313</ele>
        <time>2026-05-28T12:45:58.999Z</time>
      </trkpt>
      <trkpt lat="44.03026" lon="3.5209">
        <ele>1312.5</ele>
        <time>2026-05-28T12:45:59.999Z</time>
      </trkpt>
      <trkpt lat="44.03025" lon="3.5209">
        <ele>1312.5</ele>
        <time>2026-05-28T12:46:00.999Z</time>
      </trkpt>
      <trkpt lat="44.03024" lon="3.52089">
        <ele>1312.5</ele>
        <time>2026-05-28T12:46:01.999Z</time>
      </trkpt>
      <trkpt lat="44.03023" lon="3.52088">
        <ele>1312.5</ele>
        <time>2026-05-28T12:46:02.999Z</time>
      </trkpt>
      <trkpt lat="44.03022" lon="3.52088">
        <ele>1312.4</ele>
        <time>2026-05-28T12:46:03.999Z</time>
      </trkpt>
      <trkpt lat="44.0302" lon="3.52088">
        <ele>1312.6</ele>
        <time>2026-05-28T12:46:04.999Z</time>
      </trkpt>
      <trkpt lat="44.03018" lon="3.52089">
        <ele>1312.8</ele>
        <time>2026-05-28T12:46:05.999Z</time>
      </trkpt>
      <trkpt lat="44.03018" lon="3.52088">
        <ele>1312.7</ele>
        <time>2026-05-28T12:46:06.999Z</time>
      </trkpt>
      <trkpt lat="44.03017" lon="3.52087">
        <ele>1312.6</ele>
        <time>2026-05-28T12:46:07.999Z</time>
      </trkpt>
      <trkpt lat="44.03016" lon="3.52086">
        <ele>1312.6</ele>
        <time>2026-05-28T12:46:08.999Z</time>
      </trkpt>
      <trkpt lat="44.03015" lon="3.52086">
        <ele>1312.9</ele>
        <time>2026-05-28T12:46:09.999Z</time>
      </trkpt>
      <trkpt lat="44.03014" lon="3.52084">
        <ele>1313.1</ele>
        <time>2026-05-28T12:46:10.999Z</time>
      </trkpt>
      <trkpt lat="44.03012" lon="3.52083">
        <ele>1313</ele>
        <time>2026-05-28T12:46:11.999Z</time>
      </trkpt>
      <trkpt lat="44.03011" lon="3.52083">
        <ele>1313.4</ele>
        <time>2026-05-28T12:46:12.999Z</time>
      </trkpt>
      <trkpt lat="44.0301" lon="3.52082">
        <ele>1313.7</ele>
        <time>2026-05-28T12:46:13.999Z</time>
      </trkpt>
      <trkpt lat="44.03009" lon="3.52082">
        <ele>1314.4</ele>
        <time>2026-05-28T12:46:14.999Z</time>
      </trkpt>
      <trkpt lat="44.03008" lon="3.52082">
        <ele>1314.9</ele>
        <time>2026-05-28T12:46:15.999Z</time>
      </trkpt>
      <trkpt lat="44.03007" lon="3.52082">
        <ele>1315.7</ele>
        <time>2026-05-28T12:46:16.999Z</time>
      </trkpt>
      <trkpt lat="44.03006" lon="3.52082">
        <ele>1316.1</ele>
        <time>2026-05-28T12:46:17.999Z</time>
      </trkpt>
      <trkpt lat="44.03004" lon="3.52081">
        <ele>1315.9</ele>
        <time>2026-05-28T12:46:18.999Z</time>
      </trkpt>
      <trkpt lat="44.03003" lon="3.52081">
        <ele>1315.5</ele>
        <time>2026-05-28T12:46:19.999Z</time>
      </trkpt>
      <trkpt lat="44.03002" lon="3.52081">
        <ele>1315.6</ele>
        <time>2026-05-28T12:46:20.999Z</time>
      </trkpt>
      <trkpt lat="44.03" lon="3.52081">
        <ele>1315.6</ele>
        <time>2026-05-28T12:46:21.999Z</time>
      </trkpt>
      <trkpt lat="44.03" lon="3.52081">
        <ele>1315.9</ele>
        <time>2026-05-28T12:46:22.999Z</time>
      </trkpt>
      <trkpt lat="44.02999" lon="3.5208">
        <ele>1315.4</ele>
        <time>2026-05-28T12:46:23.999Z</time>
      </trkpt>
      <trkpt lat="44.02997" lon="3.52079">
        <ele>1315.6</ele>
        <time>2026-05-28T12:46:24.999Z</time>
      </trkpt>
      <trkpt lat="44.02996" lon="3.52078">
        <ele>1315.6</ele>
        <time>2026-05-28T12:46:25.999Z</time>
      </trkpt>
      <trkpt lat="44.02995" lon="3.52076">
        <ele>1316</ele>
        <time>2026-05-28T12:46:26.999Z</time>
      </trkpt>
      <trkpt lat="44.02993" lon="3.52075">
        <ele>1316.1</ele>
        <time>2026-05-28T12:46:27.999Z</time>
      </trkpt>
      <trkpt lat="44.02992" lon="3.52073">
        <ele>1316.4</ele>
        <time>2026-05-28T12:46:28.999Z</time>
      </trkpt>
      <trkpt lat="44.02991" lon="3.52072">
        <ele>1316.9</ele>
        <time>2026-05-28T12:46:29.999Z</time>
      </trkpt>
      <trkpt lat="44.0299" lon="3.52072">
        <ele>1316.6</ele>
        <time>2026-05-28T12:46:30.999Z</time>
      </trkpt>
      <trkpt lat="44.02989" lon="3.52071">
        <ele>1316.4</ele>
        <time>2026-05-28T12:46:31.999Z</time>
      </trkpt>
      <trkpt lat="44.02989" lon="3.5207">
        <ele>1316.1</ele>
        <time>2026-05-28T12:46:32.999Z</time>
      </trkpt>
      <trkpt lat="44.02988" lon="3.52068">
        <ele>1316.4</ele>
        <time>2026-05-28T12:46:33.999Z</time>
      </trkpt>
      <trkpt lat="44.02987" lon="3.52068">
        <ele>1316.3</ele>
        <time>2026-05-28T12:46:34.999Z</time>
      </trkpt>
      <trkpt lat="44.02987" lon="3.52067">
        <ele>1316.2</ele>
        <time>2026-05-28T12:46:35.999Z</time>
      </trkpt>
      <trkpt lat="44.02986" lon="3.52067">
        <ele>1316.2</ele>
        <time>2026-05-28T12:46:36.999Z</time>
      </trkpt>
      <trkpt lat="44.02985" lon="3.52066">
        <ele>1316.1</ele>
        <time>2026-05-28T12:46:37.999Z</time>
      </trkpt>
      <trkpt lat="44.02984" lon="3.52066">
        <ele>1316.2</ele>
        <time>2026-05-28T12:46:38.999Z</time>
      </trkpt>
      <trkpt lat="44.02984" lon="3.52067">
        <ele>1315.4</ele>
        <time>2026-05-28T12:46:39.999Z</time>
      </trkpt>
      <trkpt lat="44.02983" lon="3.52067">
        <ele>1314.8</ele>
        <time>2026-05-28T12:46:40.999Z</time>
      </trkpt>
      <trkpt lat="44.02982" lon="3.52066">
        <ele>1314.6</ele>
        <time>2026-05-28T12:46:41.999Z</time>
      </trkpt>
      <trkpt lat="44.02981" lon="3.52065">
        <ele>1314.4</ele>
        <time>2026-05-28T12:46:42.999Z</time>
      </trkpt>
      <trkpt lat="44.0298" lon="3.52064">
        <ele>1314.3</ele>
        <time>2026-05-28T12:46:43.999Z</time>
      </trkpt>
      <trkpt lat="44.02979" lon="3.52063">
        <ele>1314.4</ele>
        <time>2026-05-28T12:46:44.999Z</time>
      </trkpt>
      <trkpt lat="44.02977" lon="3.52062">
        <ele>1314.4</ele>
        <time>2026-05-28T12:46:45.999Z</time>
      </trkpt>
      <trkpt lat="44.02976" lon="3.52061">
        <ele>1314.5</ele>
        <time>2026-05-28T12:46:46.999Z</time>
      </trkpt>
      <trkpt lat="44.02975" lon="3.52061">
        <ele>1314.6</ele>
        <time>2026-05-28T12:46:47.999Z</time>
      </trkpt>
      <trkpt lat="44.02974" lon="3.5206">
        <ele>1314.7</ele>
        <time>2026-05-28T12:46:48.999Z</time>
      </trkpt>
      <trkpt lat="44.02973" lon="3.52059">
        <ele>1314.7</ele>
        <time>2026-05-28T12:46:49.999Z</time>
      </trkpt>
      <trkpt lat="44.02972" lon="3.5206">
        <ele>1314.2</ele>
        <time>2026-05-28T12:46:50.999Z</time>
      </trkpt>
      <trkpt lat="44.02971" lon="3.5206">
        <ele>1313.6</ele>
        <time>2026-05-28T12:46:51.999Z</time>
      </trkpt>
      <trkpt lat="44.0297" lon="3.5206">
        <ele>1313.4</ele>
        <time>2026-05-28T12:46:52.999Z</time>
      </trkpt>
      <trkpt lat="44.02968" lon="3.52059">
        <ele>1313.3</ele>
        <time>2026-05-28T12:46:53.999Z</time>
      </trkpt>
      <trkpt lat="44.02968" lon="3.52058">
        <ele>1313.5</ele>
        <time>2026-05-28T12:46:54.999Z</time>
      </trkpt>
      <trkpt lat="44.02967" lon="3.52058">
        <ele>1313</ele>
        <time>2026-05-28T12:46:55.999Z</time>
      </trkpt>
      <trkpt lat="44.02965" lon="3.52057">
        <ele>1313.1</ele>
        <time>2026-05-28T12:46:56.999Z</time>
      </trkpt>
      <trkpt lat="44.02964" lon="3.52055">
        <ele>1313.6</ele>
        <time>2026-05-28T12:46:57.999Z</time>
      </trkpt>
      <trkpt lat="44.02963" lon="3.52055">
        <ele>1313.1</ele>
        <time>2026-05-28T12:46:58.999Z</time>
      </trkpt>
      <trkpt lat="44.02961" lon="3.52056">
        <ele>1313.6</ele>
        <time>2026-05-28T12:46:59.999Z</time>
      </trkpt>
      <trkpt lat="44.02961" lon="3.52056">
        <ele>1314.2</ele>
        <time>2026-05-28T12:47:00.999Z</time>
      </trkpt>
      <trkpt lat="44.0296" lon="3.52055">
        <ele>1314.3</ele>
        <time>2026-05-28T12:47:01.999Z</time>
      </trkpt>
      <trkpt lat="44.0296" lon="3.52055">
        <ele>1314.4</ele>
        <time>2026-05-28T12:47:02.999Z</time>
      </trkpt>
      <trkpt lat="44.02959" lon="3.52053">
        <ele>1314.6</ele>
        <time>2026-05-28T12:47:03.999Z</time>
      </trkpt>
      <trkpt lat="44.02959" lon="3.52053">
        <ele>1314.9</ele>
        <time>2026-05-28T12:47:04.999Z</time>
      </trkpt>
      <trkpt lat="44.02959" lon="3.52053">
        <ele>1314.4</ele>
        <time>2026-05-28T12:47:05.999Z</time>
      </trkpt>
      <trkpt lat="44.02958" lon="3.52053">
        <ele>1313.8</ele>
        <time>2026-05-28T12:47:06.999Z</time>
      </trkpt>
      <trkpt lat="44.02957" lon="3.52053">
        <ele>1313.8</ele>
        <time>2026-05-28T12:47:07.999Z</time>
      </trkpt>
      <trkpt lat="44.02955" lon="3.52053">
        <ele>1313.9</ele>
        <time>2026-05-28T12:47:08.999Z</time>
      </trkpt>
      <trkpt lat="44.02954" lon="3.52054">
        <ele>1313.6</ele>
        <time>2026-05-28T12:47:09.999Z</time>
      </trkpt>
      <trkpt lat="44.02953" lon="3.52055">
        <ele>1313.6</ele>
        <time>2026-05-28T12:47:10.999Z</time>
      </trkpt>
      <trkpt lat="44.02952" lon="3.52054">
        <ele>1312.9</ele>
        <time>2026-05-28T12:47:11.999Z</time>
      </trkpt>
      <trkpt lat="44.0295" lon="3.52055">
        <ele>1312.9</ele>
        <time>2026-05-28T12:47:12.999Z</time>
      </trkpt>
      <trkpt lat="44.02949" lon="3.52054">
        <ele>1313.2</ele>
        <time>2026-05-28T12:47:13.999Z</time>
      </trkpt>
      <trkpt lat="44.02948" lon="3.52053">
        <ele>1313.4</ele>
        <time>2026-05-28T12:47:14.999Z</time>
      </trkpt>
      <trkpt lat="44.02946" lon="3.52053">
        <ele>1313.5</ele>
        <time>2026-05-28T12:47:15.999Z</time>
      </trkpt>
      <trkpt lat="44.02944" lon="3.52054">
        <ele>1314.4</ele>
        <time>2026-05-28T12:47:16.999Z</time>
      </trkpt>
      <trkpt lat="44.02943" lon="3.52053">
        <ele>1314.5</ele>
        <time>2026-05-28T12:47:17.999Z</time>
      </trkpt>
      <trkpt lat="44.02942" lon="3.52054">
        <ele>1314.2</ele>
        <time>2026-05-28T12:47:18.999Z</time>
      </trkpt>
      <trkpt lat="44.0294" lon="3.52054">
        <ele>1314.6</ele>
        <time>2026-05-28T12:47:19.999Z</time>
      </trkpt>
      <trkpt lat="44.02939" lon="3.52054">
        <ele>1314.9</ele>
        <time>2026-05-28T12:47:20.999Z</time>
      </trkpt>
      <trkpt lat="44.02937" lon="3.52054">
        <ele>1314.8</ele>
        <time>2026-05-28T12:47:21.999Z</time>
      </trkpt>
      <trkpt lat="44.02936" lon="3.52054">
        <ele>1315.3</ele>
        <time>2026-05-28T12:47:22.999Z</time>
      </trkpt>
      <trkpt lat="44.02934" lon="3.52054">
        <ele>1314.8</ele>
        <time>2026-05-28T12:47:23.999Z</time>
      </trkpt>
      <trkpt lat="44.02933" lon="3.52054">
        <ele>1314.6</ele>
        <time>2026-05-28T12:47:24.999Z</time>
      </trkpt>
      <trkpt lat="44.02932" lon="3.52055">
        <ele>1314.5</ele>
        <time>2026-05-28T12:47:25.999Z</time>
      </trkpt>
      <trkpt lat="44.0293" lon="3.52055">
        <ele>1315.3</ele>
        <time>2026-05-28T12:47:26.999Z</time>
      </trkpt>
      <trkpt lat="44.02929" lon="3.52056">
        <ele>1315.5</ele>
        <time>2026-05-28T12:47:27.999Z</time>
      </trkpt>
      <trkpt lat="44.02928" lon="3.52057">
        <ele>1315.2</ele>
        <time>2026-05-28T12:47:28.999Z</time>
      </trkpt>
      <trkpt lat="44.02927" lon="3.52058">
        <ele>1314.8</ele>
        <time>2026-05-28T12:47:29.999Z</time>
      </trkpt>
      <trkpt lat="44.02927" lon="3.52058">
        <ele>1314</ele>
        <time>2026-05-28T12:47:30.999Z</time>
      </trkpt>
      <trkpt lat="44.02926" lon="3.52058">
        <ele>1313.8</ele>
        <time>2026-05-28T12:47:31.999Z</time>
      </trkpt>
      <trkpt lat="44.02925" lon="3.52058">
        <ele>1314</ele>
        <time>2026-05-28T12:47:32.999Z</time>
      </trkpt>
      <trkpt lat="44.02924" lon="3.52059">
        <ele>1314.1</ele>
        <time>2026-05-28T12:47:33.999Z</time>
      </trkpt>
      <trkpt lat="44.02923" lon="3.52059">
        <ele>1313.5</ele>
        <time>2026-05-28T12:47:34.999Z</time>
      </trkpt>
      <trkpt lat="44.02922" lon="3.52059">
        <ele>1312.9</ele>
        <time>2026-05-28T12:47:35.999Z</time>
      </trkpt>
      <trkpt lat="44.02921" lon="3.52059">
        <ele>1312.3</ele>
        <time>2026-05-28T12:47:36.999Z</time>
      </trkpt>
      <trkpt lat="44.0292" lon="3.52059">
        <ele>1312.5</ele>
        <time>2026-05-28T12:47:37.999Z</time>
      </trkpt>
      <trkpt lat="44.02918" lon="3.52059">
        <ele>1312.3</ele>
        <time>2026-05-28T12:47:38.999Z</time>
      </trkpt>
      <trkpt lat="44.02917" lon="3.5206">
        <ele>1312.3</ele>
        <time>2026-05-28T12:47:39.999Z</time>
      </trkpt>
      <trkpt lat="44.02917" lon="3.5206">
        <ele>1312.4</ele>
        <time>2026-05-28T12:47:40.999Z</time>
      </trkpt>
      <trkpt lat="44.02916" lon="3.5206">
        <ele>1313.3</ele>
        <time>2026-05-28T12:47:41.999Z</time>
      </trkpt>
      <trkpt lat="44.02915" lon="3.52061">
        <ele>1314</ele>
        <time>2026-05-28T12:47:42.999Z</time>
      </trkpt>
      <trkpt lat="44.02914" lon="3.52061">
        <ele>1314.3</ele>
        <time>2026-05-28T12:47:43.999Z</time>
      </trkpt>
      <trkpt lat="44.02913" lon="3.52062">
        <ele>1314.4</ele>
        <time>2026-05-28T12:47:44.999Z</time>
      </trkpt>
      <trkpt lat="44.02912" lon="3.52063">
        <ele>1314.5</ele>
        <time>2026-05-28T12:47:45.999Z</time>
      </trkpt>
      <trkpt lat="44.02912" lon="3.52065">
        <ele>1314.4</ele>
        <time>2026-05-28T12:47:46.999Z</time>
      </trkpt>
      <trkpt lat="44.02912" lon="3.52067">
        <ele>1314.8</ele>
        <time>2026-05-28T12:47:47.999Z</time>
      </trkpt>
      <trkpt lat="44.02911" lon="3.52068">
        <ele>1315.4</ele>
        <time>2026-05-28T12:47:48.999Z</time>
      </trkpt>
      <trkpt lat="44.02911" lon="3.52069">
        <ele>1315.6</ele>
        <time>2026-05-28T12:47:49.999Z</time>
      </trkpt>
      <trkpt lat="44.0291" lon="3.5207">
        <ele>1316</ele>
        <time>2026-05-28T12:47:50.999Z</time>
      </trkpt>
      <trkpt lat="44.0291" lon="3.52072">
        <ele>1316.3</ele>
        <time>2026-05-28T12:47:51.999Z</time>
      </trkpt>
      <trkpt lat="44.02909" lon="3.52072">
        <ele>1316.1</ele>
        <time>2026-05-28T12:47:52.999Z</time>
      </trkpt>
      <trkpt lat="44.02909" lon="3.52072">
        <ele>1315.8</ele>
        <time>2026-05-28T12:47:53.999Z</time>
      </trkpt>
      <trkpt lat="44.02909" lon="3.52073">
        <ele>1316</ele>
        <time>2026-05-28T12:47:54.999Z</time>
      </trkpt>
      <trkpt lat="44.02909" lon="3.52074">
        <ele>1316.5</ele>
        <time>2026-05-28T12:47:55.999Z</time>
      </trkpt>
      <trkpt lat="44.02908" lon="3.52077">
        <ele>1317.6</ele>
        <time>2026-05-28T12:47:56.999Z</time>
      </trkpt>
      <trkpt lat="44.02907" lon="3.52078">
        <ele>1318.1</ele>
        <time>2026-05-28T12:47:57.999Z</time>
      </trkpt>
      <trkpt lat="44.02907" lon="3.52079">
        <ele>1318.8</ele>
        <time>2026-05-28T12:47:58.999Z</time>
      </trkpt>
      <trkpt lat="44.02907" lon="3.5208">
        <ele>1319.5</ele>
        <time>2026-05-28T12:47:59.999Z</time>
      </trkpt>
      <trkpt lat="44.02906" lon="3.5208">
        <ele>1319.8</ele>
        <time>2026-05-28T12:48:00.999Z</time>
      </trkpt>
      <trkpt lat="44.02906" lon="3.5208">
        <ele>1320.2</ele>
        <time>2026-05-28T12:48:01.999Z</time>
      </trkpt>
      <trkpt lat="44.02905" lon="3.52081">
        <ele>1320.8</ele>
        <time>2026-05-28T12:48:02.999Z</time>
      </trkpt>
      <trkpt lat="44.02905" lon="3.5208">
        <ele>1321.4</ele>
        <time>2026-05-28T12:48:03.999Z</time>
      </trkpt>
      <trkpt lat="44.02905" lon="3.52081">
        <ele>1321.3</ele>
        <time>2026-05-28T12:48:04.999Z</time>
      </trkpt>
      <trkpt lat="44.02904" lon="3.52081">
        <ele>1321.5</ele>
        <time>2026-05-28T12:48:05.999Z</time>
      </trkpt>
      <trkpt lat="44.02905" lon="3.5208">
        <ele>1321.9</ele>
        <time>2026-05-28T12:48:07.999Z</time>
      </trkpt>
      <trkpt lat="44.02905" lon="3.5208">
        <ele>1321.1</ele>
        <time>2026-05-28T12:48:08.999Z</time>
      </trkpt>
      <trkpt lat="44.02905" lon="3.5208">
        <ele>1321.2</ele>
        <time>2026-05-28T12:48:09.999Z</time>
      </trkpt>
      <trkpt lat="44.02905" lon="3.5208">
        <ele>1321.5</ele>
        <time>2026-05-28T12:48:10.999Z</time>
      </trkpt>
      <trkpt lat="44.02905" lon="3.5208">
        <ele>1321.8</ele>
        <time>2026-05-28T12:48:11.999Z</time>
      </trkpt>
      <trkpt lat="44.02905" lon="3.5208">
        <ele>1321.7</ele>
        <time>2026-05-28T12:48:12.999Z</time>
      </trkpt>
      <trkpt lat="44.02905" lon="3.52079">
        <ele>1321.2</ele>
        <time>2026-05-28T12:48:13.999Z</time>
      </trkpt>
      <trkpt lat="44.02904" lon="3.52079">
        <ele>1320.9</ele>
        <time>2026-05-28T12:48:14.999Z</time>
      </trkpt>
      <trkpt lat="44.02904" lon="3.52079">
        <ele>1320.8</ele>
        <time>2026-05-28T12:48:15.999Z</time>
      </trkpt>
      <trkpt lat="44.02904" lon="3.52079">
        <ele>1320.5</ele>
        <time>2026-05-28T12:48:17.999Z</time>
      </trkpt>
      <trkpt lat="44.02904" lon="3.52079">
        <ele>1320.5</ele>
        <time>2026-05-28T12:48:18.999Z</time>
      </trkpt>
      <trkpt lat="44.02905" lon="3.52079">
        <ele>1320.3</ele>
        <time>2026-05-28T12:48:19.999Z</time>
      </trkpt>
      <trkpt lat="44.02905" lon="3.52079">
        <ele>1320.4</ele>
        <time>2026-05-28T12:48:20.999Z</time>
      </trkpt>
      <trkpt lat="44.02905" lon="3.52078">
        <ele>1320.5</ele>
        <time>2026-05-28T12:48:21.999Z</time>
      </trkpt>
      <trkpt lat="44.02905" lon="3.52078">
        <ele>1320.4</ele>
        <time>2026-05-28T12:48:22.999Z</time>
      </trkpt>
      <trkpt lat="44.02905" lon="3.52078">
        <ele>1320.3</ele>
        <time>2026-05-28T12:48:23.999Z</time>
      </trkpt>
      <trkpt lat="44.02905" lon="3.52078">
        <ele>1321.3</ele>
        <time>2026-05-28T12:48:24.999Z</time>
      </trkpt>
      <trkpt lat="44.02906" lon="3.52079">
        <ele>1321.9</ele>
        <time>2026-05-28T12:48:25.999Z</time>
      </trkpt>
      <trkpt lat="44.02905" lon="3.5208">
        <ele>1322.1</ele>
        <time>2026-05-28T12:48:26.999Z</time>
      </trkpt>
      <trkpt lat="44.02904" lon="3.52081">
        <ele>1322.2</ele>
        <time>2026-05-28T12:48:27.999Z</time>
      </trkpt>
      <trkpt lat="44.02906" lon="3.52078">
        <ele>1321.7</ele>
        <time>2026-05-28T12:48:28.999Z</time>
      </trkpt>
      <trkpt lat="44.02908" lon="3.52076">
        <ele>1321.1</ele>
        <time>2026-05-28T12:48:29.999Z</time>
      </trkpt>
      <trkpt lat="44.02909" lon="3.52074">
        <ele>1320.5</ele>
        <time>2026-05-28T12:48:30.999Z</time>
      </trkpt>
      <trkpt lat="44.0291" lon="3.52073">
        <ele>1319.8</ele>
        <time>2026-05-28T12:48:31.999Z</time>
      </trkpt>
      <trkpt lat="44.0291" lon="3.52073">
        <ele>1319.4</ele>
        <time>2026-05-28T12:48:32.999Z</time>
      </trkpt>
      <trkpt lat="44.0291" lon="3.52073">
        <ele>1318.6</ele>
        <time>2026-05-28T12:48:33.999Z</time>
      </trkpt>
      <trkpt lat="44.0291" lon="3.52073">
        <ele>1318.3</ele>
        <time>2026-05-28T12:48:34.999Z</time>
      </trkpt>
      <trkpt lat="44.0291" lon="3.52073">
        <ele>1317.9</ele>
        <time>2026-05-28T12:48:35.999Z</time>
      </trkpt>
      <trkpt lat="44.0291" lon="3.52074">
        <ele>1317.7</ele>
        <time>2026-05-28T12:48:36.999Z</time>
      </trkpt>
      <trkpt lat="44.0291" lon="3.52075">
        <ele>1317.4</ele>
        <time>2026-05-28T12:48:37.999Z</time>
      </trkpt>
      <trkpt lat="44.0291" lon="3.52075">
        <ele>1316.7</ele>
        <time>2026-05-28T12:48:38.999Z</time>
      </trkpt>
      <trkpt lat="44.0291" lon="3.52075">
        <ele>1316.2</ele>
        <time>2026-05-28T12:48:39.999Z</time>
      </trkpt>
      <trkpt lat="44.0291" lon="3.52075">
        <ele>1315.7</ele>
        <time>2026-05-28T12:48:40.999Z</time>
      </trkpt>
      <trkpt lat="44.0291" lon="3.52075">
        <ele>1315.2</ele>
        <time>2026-05-28T12:48:41.999Z</time>
      </trkpt>
      <trkpt lat="44.0291" lon="3.52075">
        <ele>1314.6</ele>
        <time>2026-05-28T12:48:42.999Z</time>
      </trkpt>
      <trkpt lat="44.0291" lon="3.52075">
        <ele>1314.7</ele>
        <time>2026-05-28T12:48:43.999Z</time>
      </trkpt>
      <trkpt lat="44.0291" lon="3.52075">
        <ele>1314.9</ele>
        <time>2026-05-28T12:48:44.999Z</time>
      </trkpt>
      <trkpt lat="44.02909" lon="3.52075">
        <ele>1314.9</ele>
        <time>2026-05-28T12:48:45.999Z</time>
      </trkpt>
      <trkpt lat="44.02909" lon="3.52075">
        <ele>1314.8</ele>
        <time>2026-05-28T12:48:46.999Z</time>
      </trkpt>
      <trkpt lat="44.02909" lon="3.52075">
        <ele>1314.9</ele>
        <time>2026-05-28T12:48:47.999Z</time>
      </trkpt>
      <trkpt lat="44.02909" lon="3.52075">
        <ele>1314.8</ele>
        <time>2026-05-28T12:48:48.999Z</time>
      </trkpt>
      <trkpt lat="44.02909" lon="3.52075">
        <ele>1314.7</ele>
        <time>2026-05-28T12:48:49.999Z</time>
      </trkpt>
      <trkpt lat="44.02909" lon="3.52075">
        <ele>1314.6</ele>
        <time>2026-05-28T12:48:50.999Z</time>
      </trkpt>
      <trkpt lat="44.02909" lon="3.52075">
        <ele>1314.7</ele>
        <time>2026-05-28T12:48:51.999Z</time>
      </trkpt>
      <trkpt lat="44.02909" lon="3.52075">
        <ele>1314.6</ele>
        <time>2026-05-28T12:48:52.999Z</time>
      </trkpt>
      <trkpt lat="44.02909" lon="3.52075">
        <ele>1314.7</ele>
        <time>2026-05-28T12:48:53.999Z</time>
      </trkpt>
      <trkpt lat="44.02908" lon="3.52075">
        <ele>1314.8</ele>
        <time>2026-05-28T12:48:54.999Z</time>
      </trkpt>
      <trkpt lat="44.02908" lon="3.52075">
        <ele>1314.7</ele>
        <time>2026-05-28T12:48:55.999Z</time>
      </trkpt>
      <trkpt lat="44.02908" lon="3.52075">
        <ele>1314.7</ele>
        <time>2026-05-28T12:48:56.999Z</time>
      </trkpt>
      <trkpt lat="44.02908" lon="3.52075">
        <ele>1314.5</ele>
        <time>2026-05-28T12:48:57.999Z</time>
      </trkpt>
      <trkpt lat="44.02908" lon="3.52075">
        <ele>1314.4</ele>
        <time>2026-05-28T12:48:58.999Z</time>
      </trkpt>
      <trkpt lat="44.02907" lon="3.52075">
        <ele>1314.5</ele>
        <time>2026-05-28T12:48:59.999Z</time>
      </trkpt>
      <trkpt lat="44.02907" lon="3.52075">
        <ele>1314.6</ele>
        <time>2026-05-28T12:49:00.999Z</time>
      </trkpt>
      <trkpt lat="44.02907" lon="3.52075">
        <ele>1314.7</ele>
        <time>2026-05-28T12:49:01.999Z</time>
      </trkpt>
      <trkpt lat="44.02907" lon="3.52075">
        <ele>1314.8</ele>
        <time>2026-05-28T12:49:02.999Z</time>
      </trkpt>
      <trkpt lat="44.02907" lon="3.52074">
        <ele>1314.8</ele>
        <time>2026-05-28T12:49:03.999Z</time>
      </trkpt>
      <trkpt lat="44.02907" lon="3.52074">
        <ele>1314.9</ele>
        <time>2026-05-28T12:49:04.999Z</time>
      </trkpt>
      <trkpt lat="44.02907" lon="3.52074">
        <ele>1315.2</ele>
        <time>2026-05-28T12:49:05.999Z</time>
      </trkpt>
      <trkpt lat="44.02907" lon="3.52074">
        <ele>1315.5</ele>
        <time>2026-05-28T12:49:06.999Z</time>
      </trkpt>
      <trkpt lat="44.02907" lon="3.52074">
        <ele>1315.7</ele>
        <time>2026-05-28T12:49:07.999Z</time>
      </trkpt>
      <trkpt lat="44.02907" lon="3.52075">
        <ele>1315.7</ele>
        <time>2026-05-28T12:49:08.999Z</time>
      </trkpt>
      <trkpt lat="44.02907" lon="3.52075">
        <ele>1315.3</ele>
        <time>2026-05-28T12:49:09.999Z</time>
      </trkpt>
      <trkpt lat="44.02907" lon="3.52075">
        <ele>1314.9</ele>
        <time>2026-05-28T12:49:10.999Z</time>
      </trkpt>
      <trkpt lat="44.02907" lon="3.52075">
        <ele>1314.4</ele>
        <time>2026-05-28T12:49:11.999Z</time>
      </trkpt>
      <trkpt lat="44.02907" lon="3.52075">
        <ele>1314.3</ele>
        <time>2026-05-28T12:49:12.999Z</time>
      </trkpt>
      <trkpt lat="44.02907" lon="3.52075">
        <ele>1314.2</ele>
        <time>2026-05-28T12:49:13.999Z</time>
      </trkpt>
      <trkpt lat="44.02907" lon="3.52075">
        <ele>1314.4</ele>
        <time>2026-05-28T12:49:14.999Z</time>
      </trkpt>
      <trkpt lat="44.02907" lon="3.52075">
        <ele>1315.1</ele>
        <time>2026-05-28T12:49:15.999Z</time>
      </trkpt>
      <trkpt lat="44.02907" lon="3.52075">
        <ele>1315.2</ele>
        <time>2026-05-28T12:49:16.999Z</time>
      </trkpt>
      <trkpt lat="44.02906" lon="3.52075">
        <ele>1315</ele>
        <time>2026-05-28T12:49:17.999Z</time>
      </trkpt>
      <trkpt lat="44.02906" lon="3.52075">
        <ele>1314.9</ele>
        <time>2026-05-28T12:49:18.999Z</time>
      </trkpt>
      <trkpt lat="44.02906" lon="3.52075">
        <ele>1314.7</ele>
        <time>2026-05-28T12:49:19.999Z</time>
      </trkpt>
      <trkpt lat="44.02907" lon="3.52075">
        <ele>1314.8</ele>
        <time>2026-05-28T12:49:20.999Z</time>
      </trkpt>
      <trkpt lat="44.02907" lon="3.52075">
        <ele>1314.6</ele>
        <time>2026-05-28T12:49:21.999Z</time>
      </trkpt>
      <trkpt lat="44.02906" lon="3.52076">
        <ele>1314.5</ele>
        <time>2026-05-28T12:49:22.999Z</time>
      </trkpt>
      <trkpt lat="44.02906" lon="3.52076">
        <ele>1314.8</ele>
        <time>2026-05-28T12:49:23.999Z</time>
      </trkpt>
      <trkpt lat="44.02906" lon="3.52076">
        <ele>1314.8</ele>
        <time>2026-05-28T12:49:24.999Z</time>
      </trkpt>
      <trkpt lat="44.02906" lon="3.52076">
        <ele>1314.9</ele>
        <time>2026-05-28T12:49:25.999Z</time>
      </trkpt>
      <trkpt lat="44.02906" lon="3.52076">
        <ele>1315.1</ele>
        <time>2026-05-28T12:49:26.999Z</time>
      </trkpt>
      <trkpt lat="44.02907" lon="3.52077">
        <ele>1315.2</ele>
        <time>2026-05-28T12:49:27.999Z</time>
      </trkpt>
      <trkpt lat="44.02906" lon="3.52077">
        <ele>1315.2</ele>
        <time>2026-05-28T12:49:28.999Z</time>
      </trkpt>
      <trkpt lat="44.02906" lon="3.52077">
        <ele>1315.3</ele>
        <time>2026-05-28T12:49:29.999Z</time>
      </trkpt>
      <trkpt lat="44.02906" lon="3.52077">
        <ele>1315.3</ele>
        <time>2026-05-28T12:49:30.999Z</time>
      </trkpt>
      <trkpt lat="44.02906" lon="3.52077">
        <ele>1315.1</ele>
        <time>2026-05-28T12:49:31.999Z</time>
      </trkpt>
      <trkpt lat="44.02906" lon="3.52077">
        <ele>1314.9</ele>
        <time>2026-05-28T12:49:32.999Z</time>
      </trkpt>
      <trkpt lat="44.02906" lon="3.52078">
        <ele>1315.5</ele>
        <time>2026-05-28T12:49:33.999Z</time>
      </trkpt>
      <trkpt lat="44.02906" lon="3.52078">
        <ele>1315.7</ele>
        <time>2026-05-28T12:49:34.999Z</time>
      </trkpt>
      <trkpt lat="44.02906" lon="3.52077">
        <ele>1315.7</ele>
        <time>2026-05-28T12:49:35.999Z</time>
      </trkpt>
      <trkpt lat="44.02906" lon="3.52077">
        <ele>1315.8</ele>
        <time>2026-05-28T12:49:36.999Z</time>
      </trkpt>
      <trkpt lat="44.02907" lon="3.52076">
        <ele>1315.6</ele>
        <time>2026-05-28T12:49:37.999Z</time>
      </trkpt>
      <trkpt lat="44.02906" lon="3.52076">
        <ele>1315.5</ele>
        <time>2026-05-28T12:49:38.999Z</time>
      </trkpt>
      <trkpt lat="44.02906" lon="3.52075">
        <ele>1315.4</ele>
        <time>2026-05-28T12:49:39.999Z</time>
      </trkpt>
      <trkpt lat="44.02905" lon="3.52075">
        <ele>1315.3</ele>
        <time>2026-05-28T12:49:40.999Z</time>
      </trkpt>
      <trkpt lat="44.02905" lon="3.52074">
        <ele>1315.3</ele>
        <time>2026-05-28T12:49:41.999Z</time>
      </trkpt>
      <trkpt lat="44.02905" lon="3.52074">
        <ele>1315.2</ele>
        <time>2026-05-28T12:49:42.999Z</time>
      </trkpt>
      <trkpt lat="44.02904" lon="3.52074">
        <ele>1315.8</ele>
        <time>2026-05-28T12:49:43.999Z</time>
      </trkpt>
      <trkpt lat="44.02904" lon="3.52074">
        <ele>1316.3</ele>
        <time>2026-05-28T12:49:44.999Z</time>
      </trkpt>
      <trkpt lat="44.02904" lon="3.52073">
        <ele>1316.6</ele>
        <time>2026-05-28T12:49:45.999Z</time>
      </trkpt>
      <trkpt lat="44.02904" lon="3.52073">
        <ele>1317.3</ele>
        <time>2026-05-28T12:49:46.999Z</time>
      </trkpt>
      <trkpt lat="44.02904" lon="3.52072">
        <ele>1317.7</ele>
        <time>2026-05-28T12:49:47.999Z</time>
      </trkpt>
      <trkpt lat="44.02904" lon="3.52072">
        <ele>1317.5</ele>
        <time>2026-05-28T12:49:48.999Z</time>
      </trkpt>
      <trkpt lat="44.02904" lon="3.52072">
        <ele>1317.4</ele>
        <time>2026-05-28T12:49:49.999Z</time>
      </trkpt>
      <trkpt lat="44.02904" lon="3.52072">
        <ele>1317.4</ele>
        <time>2026-05-28T12:49:50.999Z</time>
      </trkpt>
      <trkpt lat="44.02904" lon="3.52072">
        <ele>1317.7</ele>
        <time>2026-05-28T12:49:51.999Z</time>
      </trkpt>
      <trkpt lat="44.02904" lon="3.52072">
        <ele>1317.4</ele>
        <time>2026-05-28T12:49:52.999Z</time>
      </trkpt>
      <trkpt lat="44.02904" lon="3.52072">
        <ele>1317.1</ele>
        <time>2026-05-28T12:49:53.999Z</time>
      </trkpt>
      <trkpt lat="44.02904" lon="3.52071">
        <ele>1317</ele>
        <time>2026-05-28T12:49:54.999Z</time>
      </trkpt>
      <trkpt lat="44.02904" lon="3.5207">
        <ele>1316.7</ele>
        <time>2026-05-28T12:49:55.999Z</time>
      </trkpt>
      <trkpt lat="44.02902" lon="3.5207">
        <ele>1316.1</ele>
        <time>2026-05-28T12:49:56.999Z</time>
      </trkpt>
      <trkpt lat="44.02902" lon="3.5207">
        <ele>1316.1</ele>
        <time>2026-05-28T12:49:57.999Z</time>
      </trkpt>
      <trkpt lat="44.029" lon="3.52069">
        <ele>1316.3</ele>
        <time>2026-05-28T12:49:58.999Z</time>
      </trkpt>
      <trkpt lat="44.02899" lon="3.52069">
        <ele>1316.8</ele>
        <time>2026-05-28T12:49:59.999Z</time>
      </trkpt>
      <trkpt lat="44.02899" lon="3.52069">
        <ele>1317.6</ele>
        <time>2026-05-28T12:50:00.999Z</time>
      </trkpt>
      <trkpt lat="44.02898" lon="3.5207">
        <ele>1317.8</ele>
        <time>2026-05-28T12:50:01.999Z</time>
      </trkpt>
      <trkpt lat="44.02898" lon="3.52069">
        <ele>1318.2</ele>
        <time>2026-05-28T12:50:02.999Z</time>
      </trkpt>
      <trkpt lat="44.02898" lon="3.52069">
        <ele>1318.5</ele>
        <time>2026-05-28T12:50:03.999Z</time>
      </trkpt>
      <trkpt lat="44.02897" lon="3.52068">
        <ele>1318.9</ele>
        <time>2026-05-28T12:50:04.999Z</time>
      </trkpt>
      <trkpt lat="44.02897" lon="3.52068">
        <ele>1319.4</ele>
        <time>2026-05-28T12:50:05.999Z</time>
      </trkpt>
      <trkpt lat="44.02897" lon="3.52066">
        <ele>1319.5</ele>
        <time>2026-05-28T12:50:06.999Z</time>
      </trkpt>
      <trkpt lat="44.02896" lon="3.52067">
        <ele>1319.5</ele>
        <time>2026-05-28T12:50:07.999Z</time>
      </trkpt>
      <trkpt lat="44.02896" lon="3.52067">
        <ele>1319.3</ele>
        <time>2026-05-28T12:50:08.999Z</time>
      </trkpt>
      <trkpt lat="44.02894" lon="3.52066">
        <ele>1318.8</ele>
        <time>2026-05-28T12:50:09.999Z</time>
      </trkpt>
      <trkpt lat="44.02893" lon="3.52066">
        <ele>1318.9</ele>
        <time>2026-05-28T12:50:10.999Z</time>
      </trkpt>
      <trkpt lat="44.02892" lon="3.52067">
        <ele>1318.7</ele>
        <time>2026-05-28T12:50:11.999Z</time>
      </trkpt>
      <trkpt lat="44.02891" lon="3.52066">
        <ele>1318.6</ele>
        <time>2026-05-28T12:50:12.999Z</time>
      </trkpt>
      <trkpt lat="44.0289" lon="3.52064">
        <ele>1318.3</ele>
        <time>2026-05-28T12:50:13.999Z</time>
      </trkpt>
      <trkpt lat="44.02889" lon="3.52064">
        <ele>1318.4</ele>
        <time>2026-05-28T12:50:14.999Z</time>
      </trkpt>
      <trkpt lat="44.02888" lon="3.52063">
        <ele>1318.4</ele>
        <time>2026-05-28T12:50:15.999Z</time>
      </trkpt>
      <trkpt lat="44.02887" lon="3.52061">
        <ele>1318.9</ele>
        <time>2026-05-28T12:50:16.999Z</time>
      </trkpt>
      <trkpt lat="44.02887" lon="3.52061">
        <ele>1319.6</ele>
        <time>2026-05-28T12:50:17.999Z</time>
      </trkpt>
      <trkpt lat="44.02886" lon="3.5206">
        <ele>1320.1</ele>
        <time>2026-05-28T12:50:18.999Z</time>
      </trkpt>
      <trkpt lat="44.02885" lon="3.52059">
        <ele>1320.6</ele>
        <time>2026-05-28T12:50:19.999Z</time>
      </trkpt>
      <trkpt lat="44.02885" lon="3.52059">
        <ele>1321</ele>
        <time>2026-05-28T12:50:20.999Z</time>
      </trkpt>
      <trkpt lat="44.02884" lon="3.52059">
        <ele>1321.4</ele>
        <time>2026-05-28T12:50:21.999Z</time>
      </trkpt>
      <trkpt lat="44.02883" lon="3.52059">
        <ele>1321.8</ele>
        <time>2026-05-28T12:50:22.999Z</time>
      </trkpt>
      <trkpt lat="44.02883" lon="3.52058">
        <ele>1322.6</ele>
        <time>2026-05-28T12:50:23.999Z</time>
      </trkpt>
      <trkpt lat="44.02882" lon="3.52058">
        <ele>1323</ele>
        <time>2026-05-28T12:50:24.999Z</time>
      </trkpt>
      <trkpt lat="44.02882" lon="3.52058">
        <ele>1323.3</ele>
        <time>2026-05-28T12:50:25.999Z</time>
      </trkpt>
      <trkpt lat="44.02882" lon="3.52058">
        <ele>1323.7</ele>
        <time>2026-05-28T12:50:26.999Z</time>
      </trkpt>
      <trkpt lat="44.02882" lon="3.52058">
        <ele>1323.6</ele>
        <time>2026-05-28T12:50:27.999Z</time>
      </trkpt>
      <trkpt lat="44.02882" lon="3.52058">
        <ele>1323.7</ele>
        <time>2026-05-28T12:50:28.999Z</time>
      </trkpt>
      <trkpt lat="44.02882" lon="3.52058">
        <ele>1323.2</ele>
        <time>2026-05-28T12:50:29.999Z</time>
      </trkpt>
      <trkpt lat="44.02882" lon="3.52058">
        <ele>1323</ele>
        <time>2026-05-28T12:50:30.999Z</time>
      </trkpt>
      <trkpt lat="44.02882" lon="3.52058">
        <ele>1323</ele>
        <time>2026-05-28T12:50:31.999Z</time>
      </trkpt>
      <trkpt lat="44.02882" lon="3.52058">
        <ele>1323.5</ele>
        <time>2026-05-28T12:50:32.999Z</time>
      </trkpt>
      <trkpt lat="44.02882" lon="3.52058">
        <ele>1323.7</ele>
        <time>2026-05-28T12:50:33.999Z</time>
      </trkpt>
      <trkpt lat="44.02881" lon="3.52058">
        <ele>1323.8</ele>
        <time>2026-05-28T12:50:34.999Z</time>
      </trkpt>
      <trkpt lat="44.02879" lon="3.52057">
        <ele>1324.3</ele>
        <time>2026-05-28T12:50:35.999Z</time>
      </trkpt>
      <trkpt lat="44.02878" lon="3.52058">
        <ele>1324.5</ele>
        <time>2026-05-28T12:50:36.999Z</time>
      </trkpt>
      <trkpt lat="44.02878" lon="3.52057">
        <ele>1324.7</ele>
        <time>2026-05-28T12:50:37.999Z</time>
      </trkpt>
      <trkpt lat="44.02878" lon="3.52057">
        <ele>1324.8</ele>
        <time>2026-05-28T12:50:38.999Z</time>
      </trkpt>
      <trkpt lat="44.02878" lon="3.52057">
        <ele>1325.2</ele>
        <time>2026-05-28T12:50:39.999Z</time>
      </trkpt>
      <trkpt lat="44.02877" lon="3.52057">
        <ele>1325.5</ele>
        <time>2026-05-28T12:50:40.999Z</time>
      </trkpt>
      <trkpt lat="44.02877" lon="3.52057">
        <ele>1325.7</ele>
        <time>2026-05-28T12:50:41.999Z</time>
      </trkpt>
      <trkpt lat="44.02877" lon="3.52056">
        <ele>1326.3</ele>
        <time>2026-05-28T12:50:42.999Z</time>
      </trkpt>
      <trkpt lat="44.02877" lon="3.52056">
        <ele>1326.7</ele>
        <time>2026-05-28T12:50:43.999Z</time>
      </trkpt>
      <trkpt lat="44.02877" lon="3.52056">
        <ele>1326.9</ele>
        <time>2026-05-28T12:50:44.999Z</time>
      </trkpt>
      <trkpt lat="44.02876" lon="3.52055">
        <ele>1327.2</ele>
        <time>2026-05-28T12:50:45.999Z</time>
      </trkpt>
      <trkpt lat="44.02875" lon="3.52054">
        <ele>1327.4</ele>
        <time>2026-05-28T12:50:46.999Z</time>
      </trkpt>
      <trkpt lat="44.02874" lon="3.52053">
        <ele>1327.3</ele>
        <time>2026-05-28T12:50:47.999Z</time>
      </trkpt>
      <trkpt lat="44.02874" lon="3.52053">
        <ele>1327</ele>
        <time>2026-05-28T12:50:48.999Z</time>
      </trkpt>
      <trkpt lat="44.02872" lon="3.52051">
        <ele>1327.2</ele>
        <time>2026-05-28T12:50:49.999Z</time>
      </trkpt>
      <trkpt lat="44.02871" lon="3.52051">
        <ele>1327.1</ele>
        <time>2026-05-28T12:50:50.999Z</time>
      </trkpt>
      <trkpt lat="44.0287" lon="3.5205">
        <ele>1327.4</ele>
        <time>2026-05-28T12:50:51.999Z</time>
      </trkpt>
      <trkpt lat="44.02869" lon="3.5205">
        <ele>1327.6</ele>
        <time>2026-05-28T12:50:52.999Z</time>
      </trkpt>
      <trkpt lat="44.02869" lon="3.52049">
        <ele>1327.7</ele>
        <time>2026-05-28T12:50:53.999Z</time>
      </trkpt>
      <trkpt lat="44.02869" lon="3.52049">
        <ele>1327.9</ele>
        <time>2026-05-28T12:50:54.999Z</time>
      </trkpt>
      <trkpt lat="44.02868" lon="3.52049">
        <ele>1328.1</ele>
        <time>2026-05-28T12:50:55.999Z</time>
      </trkpt>
      <trkpt lat="44.02868" lon="3.52049">
        <ele>1328.4</ele>
        <time>2026-05-28T12:50:56.999Z</time>
      </trkpt>
      <trkpt lat="44.02868" lon="3.52048">
        <ele>1328.5</ele>
        <time>2026-05-28T12:50:57.999Z</time>
      </trkpt>
      <trkpt lat="44.02867" lon="3.52048">
        <ele>1328.2</ele>
        <time>2026-05-28T12:50:58.999Z</time>
      </trkpt>
      <trkpt lat="44.02866" lon="3.52046">
        <ele>1328.3</ele>
        <time>2026-05-28T12:50:59.999Z</time>
      </trkpt>
      <trkpt lat="44.02865" lon="3.52046">
        <ele>1328.3</ele>
        <time>2026-05-28T12:51:00.999Z</time>
      </trkpt>
      <trkpt lat="44.02865" lon="3.52046">
        <ele>1328.5</ele>
        <time>2026-05-28T12:51:01.999Z</time>
      </trkpt>
      <trkpt lat="44.02864" lon="3.52046">
        <ele>1328.3</ele>
        <time>2026-05-28T12:51:02.999Z</time>
      </trkpt>
      <trkpt lat="44.02862" lon="3.52046">
        <ele>1328.4</ele>
        <time>2026-05-28T12:51:03.999Z</time>
      </trkpt>
      <trkpt lat="44.02861" lon="3.52046">
        <ele>1328.4</ele>
        <time>2026-05-28T12:51:04.999Z</time>
      </trkpt>
      <trkpt lat="44.02861" lon="3.52046">
        <ele>1328.7</ele>
        <time>2026-05-28T12:51:05.999Z</time>
      </trkpt>
      <trkpt lat="44.0286" lon="3.52046">
        <ele>1328.8</ele>
        <time>2026-05-28T12:51:06.999Z</time>
      </trkpt>
      <trkpt lat="44.0286" lon="3.52045">
        <ele>1329.1</ele>
        <time>2026-05-28T12:51:07.999Z</time>
      </trkpt>
      <trkpt lat="44.0286" lon="3.52045">
        <ele>1329.2</ele>
        <time>2026-05-28T12:51:08.999Z</time>
      </trkpt>
      <trkpt lat="44.0286" lon="3.52045">
        <ele>1329.5</ele>
        <time>2026-05-28T12:51:09.999Z</time>
      </trkpt>
      <trkpt lat="44.0286" lon="3.52045">
        <ele>1329.4</ele>
        <time>2026-05-28T12:51:10.999Z</time>
      </trkpt>
      <trkpt lat="44.0286" lon="3.52044">
        <ele>1329.5</ele>
        <time>2026-05-28T12:51:11.999Z</time>
      </trkpt>
      <trkpt lat="44.0286" lon="3.52044">
        <ele>1329.3</ele>
        <time>2026-05-28T12:51:12.999Z</time>
      </trkpt>
      <trkpt lat="44.0286" lon="3.52044">
        <ele>1329.1</ele>
        <time>2026-05-28T12:51:13.999Z</time>
      </trkpt>
      <trkpt lat="44.0286" lon="3.52044">
        <ele>1329.3</ele>
        <time>2026-05-28T12:51:14.999Z</time>
      </trkpt>
      <trkpt lat="44.0286" lon="3.52043">
        <ele>1329.4</ele>
        <time>2026-05-28T12:51:15.999Z</time>
      </trkpt>
      <trkpt lat="44.02859" lon="3.52043">
        <ele>1329.4</ele>
        <time>2026-05-28T12:51:16.999Z</time>
      </trkpt>
      <trkpt lat="44.02859" lon="3.52043">
        <ele>1329.5</ele>
        <time>2026-05-28T12:51:17.999Z</time>
      </trkpt>
      <trkpt lat="44.02859" lon="3.52042">
        <ele>1329.7</ele>
        <time>2026-05-28T12:51:18.999Z</time>
      </trkpt>
      <trkpt lat="44.02857" lon="3.5204">
        <ele>1329.6</ele>
        <time>2026-05-28T12:51:19.999Z</time>
      </trkpt>
      <trkpt lat="44.02855" lon="3.52039">
        <ele>1330.2</ele>
        <time>2026-05-28T12:51:20.999Z</time>
      </trkpt>
      <trkpt lat="44.02853" lon="3.52038">
        <ele>1330.9</ele>
        <time>2026-05-28T12:51:21.999Z</time>
      </trkpt>
      <trkpt lat="44.02853" lon="3.52038">
        <ele>1330.3</ele>
        <time>2026-05-28T12:51:22.999Z</time>
      </trkpt>
      <trkpt lat="44.02852" lon="3.52037">
        <ele>1330.2</ele>
        <time>2026-05-28T12:51:23.999Z</time>
      </trkpt>
      <trkpt lat="44.02852" lon="3.52037">
        <ele>1330.2</ele>
        <time>2026-05-28T12:51:24.999Z</time>
      </trkpt>
      <trkpt lat="44.02852" lon="3.52037">
        <ele>1330.3</ele>
        <time>2026-05-28T12:51:25.999Z</time>
      </trkpt>
      <trkpt lat="44.02852" lon="3.52036">
        <ele>1330.1</ele>
        <time>2026-05-28T12:51:26.999Z</time>
      </trkpt>
      <trkpt lat="44.02852" lon="3.52036">
        <ele>1330.3</ele>
        <time>2026-05-28T12:51:27.999Z</time>
      </trkpt>
      <trkpt lat="44.02851" lon="3.52036">
        <ele>1330.7</ele>
        <time>2026-05-28T12:51:28.999Z</time>
      </trkpt>
      <trkpt lat="44.02851" lon="3.52036">
        <ele>1330.6</ele>
        <time>2026-05-28T12:51:29.999Z</time>
      </trkpt>
      <trkpt lat="44.02851" lon="3.52036">
        <ele>1331</ele>
        <time>2026-05-28T12:51:30.999Z</time>
      </trkpt>
      <trkpt lat="44.0285" lon="3.52034">
        <ele>1331.1</ele>
        <time>2026-05-28T12:51:31.999Z</time>
      </trkpt>
      <trkpt lat="44.0285" lon="3.52032">
        <ele>1331.4</ele>
        <time>2026-05-28T12:51:32.999Z</time>
      </trkpt>
      <trkpt lat="44.02849" lon="3.52032">
        <ele>1331.5</ele>
        <time>2026-05-28T12:51:33.999Z</time>
      </trkpt>
      <trkpt lat="44.02846" lon="3.5203">
        <ele>1331.2</ele>
        <time>2026-05-28T12:51:34.999Z</time>
      </trkpt>
      <trkpt lat="44.02845" lon="3.5203">
        <ele>1330.9</ele>
        <time>2026-05-28T12:51:35.999Z</time>
      </trkpt>
      <trkpt lat="44.02844" lon="3.52029">
        <ele>1330.9</ele>
        <time>2026-05-28T12:51:36.999Z</time>
      </trkpt>
      <trkpt lat="44.02843" lon="3.52028">
        <ele>1331.2</ele>
        <time>2026-05-28T12:51:37.999Z</time>
      </trkpt>
      <trkpt lat="44.02842" lon="3.52027">
        <ele>1331.5</ele>
        <time>2026-05-28T12:51:38.999Z</time>
      </trkpt>
      <trkpt lat="44.02841" lon="3.52027">
        <ele>1331.1</ele>
        <time>2026-05-28T12:51:39.999Z</time>
      </trkpt>
      <trkpt lat="44.02839" lon="3.52026">
        <ele>1331.1</ele>
        <time>2026-05-28T12:51:40.999Z</time>
      </trkpt>
      <trkpt lat="44.02838" lon="3.52026">
        <ele>1330.9</ele>
        <time>2026-05-28T12:51:41.999Z</time>
      </trkpt>
      <trkpt lat="44.02838" lon="3.52025">
        <ele>1330.7</ele>
        <time>2026-05-28T12:51:42.999Z</time>
      </trkpt>
      <trkpt lat="44.02837" lon="3.52024">
        <ele>1331</ele>
        <time>2026-05-28T12:51:43.999Z</time>
      </trkpt>
      <trkpt lat="44.02837" lon="3.52023">
        <ele>1331.2</ele>
        <time>2026-05-28T12:51:44.999Z</time>
      </trkpt>
      <trkpt lat="44.02837" lon="3.52023">
        <ele>1332.1</ele>
        <time>2026-05-28T12:51:45.999Z</time>
      </trkpt>
      <trkpt lat="44.02836" lon="3.52022">
        <ele>1332</ele>
        <time>2026-05-28T12:51:46.999Z</time>
      </trkpt>
      <trkpt lat="44.02834" lon="3.5202">
        <ele>1331.8</ele>
        <time>2026-05-28T12:51:47.999Z</time>
      </trkpt>
      <trkpt lat="44.02833" lon="3.52019">
        <ele>1331.8</ele>
        <time>2026-05-28T12:51:48.999Z</time>
      </trkpt>
      <trkpt lat="44.02832" lon="3.52019">
        <ele>1331.7</ele>
        <time>2026-05-28T12:51:49.999Z</time>
      </trkpt>
      <trkpt lat="44.02831" lon="3.52018">
        <ele>1331.9</ele>
        <time>2026-05-28T12:51:50.999Z</time>
      </trkpt>
      <trkpt lat="44.0283" lon="3.52018">
        <ele>1331.9</ele>
        <time>2026-05-28T12:51:51.999Z</time>
      </trkpt>
      <trkpt lat="44.02829" lon="3.52017">
        <ele>1332</ele>
        <time>2026-05-28T12:51:52.999Z</time>
      </trkpt>
      <trkpt lat="44.02829" lon="3.52017">
        <ele>1332</ele>
        <time>2026-05-28T12:51:53.999Z</time>
      </trkpt>
      <trkpt lat="44.02828" lon="3.52017">
        <ele>1332.2</ele>
        <time>2026-05-28T12:51:54.999Z</time>
      </trkpt>
      <trkpt lat="44.02827" lon="3.52017">
        <ele>1332.5</ele>
        <time>2026-05-28T12:51:55.999Z</time>
      </trkpt>
      <trkpt lat="44.02827" lon="3.52016">
        <ele>1332.6</ele>
        <time>2026-05-28T12:51:56.999Z</time>
      </trkpt>
      <trkpt lat="44.02827" lon="3.52016">
        <ele>1332.6</ele>
        <time>2026-05-28T12:51:57.999Z</time>
      </trkpt>
      <trkpt lat="44.02827" lon="3.52016">
        <ele>1332.6</ele>
        <time>2026-05-28T12:51:58.999Z</time>
      </trkpt>
      <trkpt lat="44.02827" lon="3.52016">
        <ele>1333</ele>
        <time>2026-05-28T12:51:59.999Z</time>
      </trkpt>
      <trkpt lat="44.02827" lon="3.52017">
        <ele>1332.9</ele>
        <time>2026-05-28T12:52:00.999Z</time>
      </trkpt>
      <trkpt lat="44.02826" lon="3.52017">
        <ele>1333.3</ele>
        <time>2026-05-28T12:52:01.999Z</time>
      </trkpt>
      <trkpt lat="44.02825" lon="3.52017">
        <ele>1333.6</ele>
        <time>2026-05-28T12:52:02.999Z</time>
      </trkpt>
      <trkpt lat="44.02825" lon="3.52016">
        <ele>1334.1</ele>
        <time>2026-05-28T12:52:03.999Z</time>
      </trkpt>
      <trkpt lat="44.02824" lon="3.52016">
        <ele>1334.5</ele>
        <time>2026-05-28T12:52:04.999Z</time>
      </trkpt>
      <trkpt lat="44.02824" lon="3.52016">
        <ele>1335.2</ele>
        <time>2026-05-28T12:52:05.999Z</time>
      </trkpt>
      <trkpt lat="44.02823" lon="3.52015">
        <ele>1335.3</ele>
        <time>2026-05-28T12:52:06.999Z</time>
      </trkpt>
      <trkpt lat="44.02822" lon="3.52014">
        <ele>1335</ele>
        <time>2026-05-28T12:52:07.999Z</time>
      </trkpt>
      <trkpt lat="44.02822" lon="3.52013">
        <ele>1335.1</ele>
        <time>2026-05-28T12:52:08.999Z</time>
      </trkpt>
      <trkpt lat="44.02822" lon="3.52012">
        <ele>1335.1</ele>
        <time>2026-05-28T12:52:09.999Z</time>
      </trkpt>
      <trkpt lat="44.02822" lon="3.5201">
        <ele>1335.7</ele>
        <time>2026-05-28T12:52:10.999Z</time>
      </trkpt>
      <trkpt lat="44.02821" lon="3.5201">
        <ele>1336.2</ele>
        <time>2026-05-28T12:52:11.999Z</time>
      </trkpt>
      <trkpt lat="44.02821" lon="3.5201">
        <ele>1336.3</ele>
        <time>2026-05-28T12:52:12.999Z</time>
      </trkpt>
      <trkpt lat="44.02821" lon="3.52009">
        <ele>1336.2</ele>
        <time>2026-05-28T12:52:13.999Z</time>
      </trkpt>
      <trkpt lat="44.02821" lon="3.52009">
        <ele>1336.3</ele>
        <time>2026-05-28T12:52:14.999Z</time>
      </trkpt>
      <trkpt lat="44.02821" lon="3.52009">
        <ele>1336</ele>
        <time>2026-05-28T12:52:15.999Z</time>
      </trkpt>
      <trkpt lat="44.02821" lon="3.52009">
        <ele>1335.9</ele>
        <time>2026-05-28T12:52:16.999Z</time>
      </trkpt>
      <trkpt lat="44.02821" lon="3.52008">
        <ele>1335.8</ele>
        <time>2026-05-28T12:52:17.999Z</time>
      </trkpt>
      <trkpt lat="44.0282" lon="3.52008">
        <ele>1335.8</ele>
        <time>2026-05-28T12:52:18.999Z</time>
      </trkpt>
      <trkpt lat="44.0282" lon="3.52006">
        <ele>1335.7</ele>
        <time>2026-05-28T12:52:19.999Z</time>
      </trkpt>
      <trkpt lat="44.0282" lon="3.52005">
        <ele>1336</ele>
        <time>2026-05-28T12:52:20.999Z</time>
      </trkpt>
      <trkpt lat="44.02819" lon="3.52004">
        <ele>1336.3</ele>
        <time>2026-05-28T12:52:21.999Z</time>
      </trkpt>
      <trkpt lat="44.02819" lon="3.52003">
        <ele>1336.7</ele>
        <time>2026-05-28T12:52:22.999Z</time>
      </trkpt>
      <trkpt lat="44.02819" lon="3.52001">
        <ele>1337.4</ele>
        <time>2026-05-28T12:52:23.999Z</time>
      </trkpt>
      <trkpt lat="44.02818" lon="3.52">
        <ele>1337.9</ele>
        <time>2026-05-28T12:52:24.999Z</time>
      </trkpt>
      <trkpt lat="44.02818" lon="3.52">
        <ele>1338</ele>
        <time>2026-05-28T12:52:25.999Z</time>
      </trkpt>
      <trkpt lat="44.02818" lon="3.52">
        <ele>1338.8</ele>
        <time>2026-05-28T12:52:26.999Z</time>
      </trkpt>
      <trkpt lat="44.02818" lon="3.52">
        <ele>1338.9</ele>
        <time>2026-05-28T12:52:27.999Z</time>
      </trkpt>
      <trkpt lat="44.02818" lon="3.52">
        <ele>1338.9</ele>
        <time>2026-05-28T12:52:28.999Z</time>
      </trkpt>
      <trkpt lat="44.02818" lon="3.51999">
        <ele>1338.7</ele>
        <time>2026-05-28T12:52:29.999Z</time>
      </trkpt>
      <trkpt lat="44.02818" lon="3.51999">
        <ele>1339</ele>
        <time>2026-05-28T12:52:30.999Z</time>
      </trkpt>
      <trkpt lat="44.02818" lon="3.51998">
        <ele>1339.2</ele>
        <time>2026-05-28T12:52:31.999Z</time>
      </trkpt>
      <trkpt lat="44.02818" lon="3.51998">
        <ele>1339.4</ele>
        <time>2026-05-28T12:52:32.999Z</time>
      </trkpt>
      <trkpt lat="44.02817" lon="3.51998">
        <ele>1339.5</ele>
        <time>2026-05-28T12:52:33.999Z</time>
      </trkpt>
      <trkpt lat="44.02817" lon="3.51998">
        <ele>1339.6</ele>
        <time>2026-05-28T12:52:34.999Z</time>
      </trkpt>
      <trkpt lat="44.02817" lon="3.51997">
        <ele>1339.6</ele>
        <time>2026-05-28T12:52:35.999Z</time>
      </trkpt>
      <trkpt lat="44.02817" lon="3.51997">
        <ele>1339.6</ele>
        <time>2026-05-28T12:52:36.999Z</time>
      </trkpt>
      <trkpt lat="44.02817" lon="3.51997">
        <ele>1340</ele>
        <time>2026-05-28T12:52:37.999Z</time>
      </trkpt>
      <trkpt lat="44.02816" lon="3.51995">
        <ele>1340.3</ele>
        <time>2026-05-28T12:52:38.999Z</time>
      </trkpt>
      <trkpt lat="44.02816" lon="3.51994">
        <ele>1340.7</ele>
        <time>2026-05-28T12:52:39.999Z</time>
      </trkpt>
      <trkpt lat="44.02816" lon="3.51993">
        <ele>1340.5</ele>
        <time>2026-05-28T12:52:40.999Z</time>
      </trkpt>
      <trkpt lat="44.02815" lon="3.51993">
        <ele>1340.8</ele>
        <time>2026-05-28T12:52:41.999Z</time>
      </trkpt>
      <trkpt lat="44.02815" lon="3.51992">
        <ele>1340.8</ele>
        <time>2026-05-28T12:52:42.999Z</time>
      </trkpt>
      <trkpt lat="44.02815" lon="3.51992">
        <ele>1341.1</ele>
        <time>2026-05-28T12:52:43.999Z</time>
      </trkpt>
      <trkpt lat="44.02815" lon="3.51992">
        <ele>1341.4</ele>
        <time>2026-05-28T12:52:44.999Z</time>
      </trkpt>
      <trkpt lat="44.02815" lon="3.51992">
        <ele>1341.6</ele>
        <time>2026-05-28T12:52:45.999Z</time>
      </trkpt>
      <trkpt lat="44.02815" lon="3.51991">
        <ele>1341.9</ele>
        <time>2026-05-28T12:52:46.999Z</time>
      </trkpt>
      <trkpt lat="44.02815" lon="3.51991">
        <ele>1342.1</ele>
        <time>2026-05-28T12:52:47.999Z</time>
      </trkpt>
      <trkpt lat="44.02815" lon="3.51991">
        <ele>1342.5</ele>
        <time>2026-05-28T12:52:48.999Z</time>
      </trkpt>
      <trkpt lat="44.02815" lon="3.51991">
        <ele>1342.4</ele>
        <time>2026-05-28T12:52:49.999Z</time>
      </trkpt>
      <trkpt lat="44.02815" lon="3.5199">
        <ele>1342.5</ele>
        <time>2026-05-28T12:52:50.999Z</time>
      </trkpt>
      <trkpt lat="44.02815" lon="3.5199">
        <ele>1341.9</ele>
        <time>2026-05-28T12:52:51.999Z</time>
      </trkpt>
      <trkpt lat="44.02815" lon="3.5199">
        <ele>1341.4</ele>
        <time>2026-05-28T12:52:52.999Z</time>
      </trkpt>
      <trkpt lat="44.02814" lon="3.51989">
        <ele>1341.6</ele>
        <time>2026-05-28T12:52:53.999Z</time>
      </trkpt>
      <trkpt lat="44.02814" lon="3.51989">
        <ele>1341.5</ele>
        <time>2026-05-28T12:52:54.999Z</time>
      </trkpt>
      <trkpt lat="44.02814" lon="3.51989">
        <ele>1341.6</ele>
        <time>2026-05-28T12:52:55.999Z</time>
      </trkpt>
      <trkpt lat="44.02814" lon="3.51989">
        <ele>1341.4</ele>
        <time>2026-05-28T12:52:56.999Z</time>
      </trkpt>
      <trkpt lat="44.02814" lon="3.51988">
        <ele>1341.2</ele>
        <time>2026-05-28T12:52:57.999Z</time>
      </trkpt>
      <trkpt lat="44.02811" lon="3.51985">
        <ele>1341.2</ele>
        <time>2026-05-28T12:52:58.999Z</time>
      </trkpt>
      <trkpt lat="44.0281" lon="3.51983">
        <ele>1341.4</ele>
        <time>2026-05-28T12:52:59.999Z</time>
      </trkpt>
      <trkpt lat="44.02809" lon="3.51983">
        <ele>1341.8</ele>
        <time>2026-05-28T12:53:00.999Z</time>
      </trkpt>
      <trkpt lat="44.02809" lon="3.51982">
        <ele>1341.7</ele>
        <time>2026-05-28T12:53:01.999Z</time>
      </trkpt>
      <trkpt lat="44.02809" lon="3.51982">
        <ele>1341.7</ele>
        <time>2026-05-28T12:53:02.999Z</time>
      </trkpt>
      <trkpt lat="44.02809" lon="3.5198">
        <ele>1341.6</ele>
        <time>2026-05-28T12:53:03.999Z</time>
      </trkpt>
      <trkpt lat="44.02808" lon="3.51978">
        <ele>1341.4</ele>
        <time>2026-05-28T12:53:04.999Z</time>
      </trkpt>
      <trkpt lat="44.02808" lon="3.51977">
        <ele>1341.5</ele>
        <time>2026-05-28T12:53:05.999Z</time>
      </trkpt>
      <trkpt lat="44.02808" lon="3.51975">
        <ele>1342</ele>
        <time>2026-05-28T12:53:06.999Z</time>
      </trkpt>
      <trkpt lat="44.02806" lon="3.51972">
        <ele>1342.9</ele>
        <time>2026-05-28T12:53:07.999Z</time>
      </trkpt>
      <trkpt lat="44.02806" lon="3.5197">
        <ele>1343.3</ele>
        <time>2026-05-28T12:53:08.999Z</time>
      </trkpt>
      <trkpt lat="44.02804" lon="3.51968">
        <ele>1343.4</ele>
        <time>2026-05-28T12:53:09.999Z</time>
      </trkpt>
      <trkpt lat="44.02803" lon="3.51966">
        <ele>1343.8</ele>
        <time>2026-05-28T12:53:10.999Z</time>
      </trkpt>
      <trkpt lat="44.02802" lon="3.51965">
        <ele>1343.9</ele>
        <time>2026-05-28T12:53:11.999Z</time>
      </trkpt>
      <trkpt lat="44.02802" lon="3.51962">
        <ele>1343.9</ele>
        <time>2026-05-28T12:53:12.999Z</time>
      </trkpt>
      <trkpt lat="44.02802" lon="3.5196">
        <ele>1344.3</ele>
        <time>2026-05-28T12:53:13.999Z</time>
      </trkpt>
      <trkpt lat="44.028" lon="3.51959">
        <ele>1344.7</ele>
        <time>2026-05-28T12:53:14.999Z</time>
      </trkpt>
      <trkpt lat="44.028" lon="3.51959">
        <ele>1345.4</ele>
        <time>2026-05-28T12:53:15.999Z</time>
      </trkpt>
      <trkpt lat="44.02799" lon="3.51958">
        <ele>1346.2</ele>
        <time>2026-05-28T12:53:16.999Z</time>
      </trkpt>
      <trkpt lat="44.02799" lon="3.51957">
        <ele>1347</ele>
        <time>2026-05-28T12:53:17.999Z</time>
      </trkpt>
      <trkpt lat="44.02799" lon="3.51956">
        <ele>1347.5</ele>
        <time>2026-05-28T12:53:18.999Z</time>
      </trkpt>
      <trkpt lat="44.02798" lon="3.51956">
        <ele>1347.6</ele>
        <time>2026-05-28T12:53:19.999Z</time>
      </trkpt>
      <trkpt lat="44.02798" lon="3.51954">
        <ele>1347.6</ele>
        <time>2026-05-28T12:53:20.999Z</time>
      </trkpt>
      <trkpt lat="44.02797" lon="3.51952">
        <ele>1347.8</ele>
        <time>2026-05-28T12:53:21.999Z</time>
      </trkpt>
      <trkpt lat="44.02797" lon="3.5195">
        <ele>1347.9</ele>
        <time>2026-05-28T12:53:22.999Z</time>
      </trkpt>
      <trkpt lat="44.02796" lon="3.51948">
        <ele>1347.7</ele>
        <time>2026-05-28T12:53:23.999Z</time>
      </trkpt>
      <trkpt lat="44.02796" lon="3.51946">
        <ele>1347.3</ele>
        <time>2026-05-28T12:53:24.999Z</time>
      </trkpt>
      <trkpt lat="44.02796" lon="3.51945">
        <ele>1347.2</ele>
        <time>2026-05-28T12:53:25.999Z</time>
      </trkpt>
      <trkpt lat="44.02796" lon="3.51944">
        <ele>1347.1</ele>
        <time>2026-05-28T12:53:26.999Z</time>
      </trkpt>
      <trkpt lat="44.02796" lon="3.51943">
        <ele>1347.2</ele>
        <time>2026-05-28T12:53:27.999Z</time>
      </trkpt>
      <trkpt lat="44.02796" lon="3.51942">
        <ele>1347.6</ele>
        <time>2026-05-28T12:53:28.999Z</time>
      </trkpt>
      <trkpt lat="44.02796" lon="3.51942">
        <ele>1347.7</ele>
        <time>2026-05-28T12:53:29.999Z</time>
      </trkpt>
      <trkpt lat="44.02796" lon="3.51941">
        <ele>1347.5</ele>
        <time>2026-05-28T12:53:30.999Z</time>
      </trkpt>
      <trkpt lat="44.02795" lon="3.5194">
        <ele>1347.9</ele>
        <time>2026-05-28T12:53:31.999Z</time>
      </trkpt>
      <trkpt lat="44.02795" lon="3.51939">
        <ele>1347.8</ele>
        <time>2026-05-28T12:53:32.999Z</time>
      </trkpt>
      <trkpt lat="44.02795" lon="3.51938">
        <ele>1347.4</ele>
        <time>2026-05-28T12:53:33.999Z</time>
      </trkpt>
      <trkpt lat="44.02794" lon="3.51937">
        <ele>1347.3</ele>
        <time>2026-05-28T12:53:34.999Z</time>
      </trkpt>
      <trkpt lat="44.02792" lon="3.51935">
        <ele>1347.2</ele>
        <time>2026-05-28T12:53:35.999Z</time>
      </trkpt>
      <trkpt lat="44.02792" lon="3.51933">
        <ele>1346.8</ele>
        <time>2026-05-28T12:53:36.999Z</time>
      </trkpt>
      <trkpt lat="44.02791" lon="3.51932">
        <ele>1347</ele>
        <time>2026-05-28T12:53:37.999Z</time>
      </trkpt>
      <trkpt lat="44.02791" lon="3.5193">
        <ele>1346.7</ele>
        <time>2026-05-28T12:53:38.999Z</time>
      </trkpt>
      <trkpt lat="44.02791" lon="3.51929">
        <ele>1346.4</ele>
        <time>2026-05-28T12:53:39.999Z</time>
      </trkpt>
      <trkpt lat="44.0279" lon="3.51928">
        <ele>1345.7</ele>
        <time>2026-05-28T12:53:40.999Z</time>
      </trkpt>
      <trkpt lat="44.0279" lon="3.51927">
        <ele>1345.3</ele>
        <time>2026-05-28T12:53:41.999Z</time>
      </trkpt>
      <trkpt lat="44.0279" lon="3.51927">
        <ele>1345</ele>
        <time>2026-05-28T12:53:42.999Z</time>
      </trkpt>
      <trkpt lat="44.02789" lon="3.51926">
        <ele>1345.1</ele>
        <time>2026-05-28T12:53:43.999Z</time>
      </trkpt>
      <trkpt lat="44.0279" lon="3.51924">
        <ele>1345.6</ele>
        <time>2026-05-28T12:53:44.999Z</time>
      </trkpt>
      <trkpt lat="44.0279" lon="3.51922">
        <ele>1345.7</ele>
        <time>2026-05-28T12:53:45.999Z</time>
      </trkpt>
      <trkpt lat="44.02789" lon="3.5192">
        <ele>1346.3</ele>
        <time>2026-05-28T12:53:46.999Z</time>
      </trkpt>
      <trkpt lat="44.02789" lon="3.51919">
        <ele>1346.5</ele>
        <time>2026-05-28T12:53:47.999Z</time>
      </trkpt>
      <trkpt lat="44.02789" lon="3.51919">
        <ele>1347</ele>
        <time>2026-05-28T12:53:48.999Z</time>
      </trkpt>
      <trkpt lat="44.02789" lon="3.51918">
        <ele>1347.3</ele>
        <time>2026-05-28T12:53:49.999Z</time>
      </trkpt>
      <trkpt lat="44.02789" lon="3.51917">
        <ele>1347.5</ele>
        <time>2026-05-28T12:53:50.999Z</time>
      </trkpt>
      <trkpt lat="44.02789" lon="3.51916">
        <ele>1347.2</ele>
        <time>2026-05-28T12:53:51.999Z</time>
      </trkpt>
      <trkpt lat="44.02789" lon="3.51915">
        <ele>1347.2</ele>
        <time>2026-05-28T12:53:52.999Z</time>
      </trkpt>
      <trkpt lat="44.02789" lon="3.51914">
        <ele>1347.2</ele>
        <time>2026-05-28T12:53:53.999Z</time>
      </trkpt>
      <trkpt lat="44.02791" lon="3.51913">
        <ele>1347</ele>
        <time>2026-05-28T12:53:54.999Z</time>
      </trkpt>
      <trkpt lat="44.02791" lon="3.51911">
        <ele>1347.3</ele>
        <time>2026-05-28T12:53:55.999Z</time>
      </trkpt>
      <trkpt lat="44.02792" lon="3.51908">
        <ele>1347.9</ele>
        <time>2026-05-28T12:53:56.999Z</time>
      </trkpt>
      <trkpt lat="44.02792" lon="3.51906">
        <ele>1347.9</ele>
        <time>2026-05-28T12:53:57.999Z</time>
      </trkpt>
      <trkpt lat="44.02793" lon="3.51904">
        <ele>1347.5</ele>
        <time>2026-05-28T12:53:58.999Z</time>
      </trkpt>
      <trkpt lat="44.02793" lon="3.51903">
        <ele>1347.6</ele>
        <time>2026-05-28T12:53:59.999Z</time>
      </trkpt>
      <trkpt lat="44.02794" lon="3.51901">
        <ele>1347.9</ele>
        <time>2026-05-28T12:54:00.999Z</time>
      </trkpt>
      <trkpt lat="44.02795" lon="3.51899">
        <ele>1348.2</ele>
        <time>2026-05-28T12:54:01.999Z</time>
      </trkpt>
      <trkpt lat="44.02796" lon="3.51898">
        <ele>1348.3</ele>
        <time>2026-05-28T12:54:02.999Z</time>
      </trkpt>
      <trkpt lat="44.02797" lon="3.51898">
        <ele>1348.7</ele>
        <time>2026-05-28T12:54:03.999Z</time>
      </trkpt>
      <trkpt lat="44.02798" lon="3.51897">
        <ele>1348.8</ele>
        <time>2026-05-28T12:54:04.999Z</time>
      </trkpt>
      <trkpt lat="44.02798" lon="3.51896">
        <ele>1349</ele>
        <time>2026-05-28T12:54:05.999Z</time>
      </trkpt>
      <trkpt lat="44.02799" lon="3.51895">
        <ele>1349.3</ele>
        <time>2026-05-28T12:54:06.999Z</time>
      </trkpt>
      <trkpt lat="44.028" lon="3.51893">
        <ele>1349.5</ele>
        <time>2026-05-28T12:54:07.999Z</time>
      </trkpt>
      <trkpt lat="44.028" lon="3.51892">
        <ele>1349.2</ele>
        <time>2026-05-28T12:54:08.999Z</time>
      </trkpt>
      <trkpt lat="44.02801" lon="3.51891">
        <ele>1349.2</ele>
        <time>2026-05-28T12:54:09.999Z</time>
      </trkpt>
      <trkpt lat="44.02801" lon="3.51889">
        <ele>1349.3</ele>
        <time>2026-05-28T12:54:10.999Z</time>
      </trkpt>
      <trkpt lat="44.02801" lon="3.51888">
        <ele>1349.1</ele>
        <time>2026-05-28T12:54:11.999Z</time>
      </trkpt>
      <trkpt lat="44.02801" lon="3.51887">
        <ele>1348.9</ele>
        <time>2026-05-28T12:54:12.999Z</time>
      </trkpt>
      <trkpt lat="44.02801" lon="3.51885">
        <ele>1349.1</ele>
        <time>2026-05-28T12:54:13.999Z</time>
      </trkpt>
      <trkpt lat="44.02801" lon="3.51884">
        <ele>1349.3</ele>
        <time>2026-05-28T12:54:14.999Z</time>
      </trkpt>
      <trkpt lat="44.02802" lon="3.51883">
        <ele>1349.6</ele>
        <time>2026-05-28T12:54:15.999Z</time>
      </trkpt>
      <trkpt lat="44.02803" lon="3.51882">
        <ele>1349.7</ele>
        <time>2026-05-28T12:54:16.999Z</time>
      </trkpt>
      <trkpt lat="44.02803" lon="3.51881">
        <ele>1349.9</ele>
        <time>2026-05-28T12:54:17.999Z</time>
      </trkpt>
      <trkpt lat="44.02803" lon="3.5188">
        <ele>1350</ele>
        <time>2026-05-28T12:54:18.999Z</time>
      </trkpt>
      <trkpt lat="44.02803" lon="3.51878">
        <ele>1350.1</ele>
        <time>2026-05-28T12:54:19.999Z</time>
      </trkpt>
      <trkpt lat="44.02804" lon="3.51876">
        <ele>1350.2</ele>
        <time>2026-05-28T12:54:20.999Z</time>
      </trkpt>
      <trkpt lat="44.02805" lon="3.51874">
        <ele>1350.1</ele>
        <time>2026-05-28T12:54:21.999Z</time>
      </trkpt>
      <trkpt lat="44.02805" lon="3.51873">
        <ele>1350</ele>
        <time>2026-05-28T12:54:22.999Z</time>
      </trkpt>
      <trkpt lat="44.02806" lon="3.51872">
        <ele>1349.4</ele>
        <time>2026-05-28T12:54:23.999Z</time>
      </trkpt>
      <trkpt lat="44.02807" lon="3.51871">
        <ele>1349.4</ele>
        <time>2026-05-28T12:54:24.999Z</time>
      </trkpt>
      <trkpt lat="44.02808" lon="3.5187">
        <ele>1349</ele>
        <time>2026-05-28T12:54:25.999Z</time>
      </trkpt>
      <trkpt lat="44.02809" lon="3.51869">
        <ele>1349</ele>
        <time>2026-05-28T12:54:26.999Z</time>
      </trkpt>
      <trkpt lat="44.0281" lon="3.51867">
        <ele>1349.3</ele>
        <time>2026-05-28T12:54:27.999Z</time>
      </trkpt>
      <trkpt lat="44.02811" lon="3.51865">
        <ele>1350</ele>
        <time>2026-05-28T12:54:28.999Z</time>
      </trkpt>
      <trkpt lat="44.02812" lon="3.51865">
        <ele>1350</ele>
        <time>2026-05-28T12:54:29.999Z</time>
      </trkpt>
      <trkpt lat="44.02812" lon="3.51864">
        <ele>1350</ele>
        <time>2026-05-28T12:54:30.999Z</time>
      </trkpt>
      <trkpt lat="44.02812" lon="3.51864">
        <ele>1349.9</ele>
        <time>2026-05-28T12:54:31.999Z</time>
      </trkpt>
      <trkpt lat="44.02812" lon="3.51862">
        <ele>1349.9</ele>
        <time>2026-05-28T12:54:32.999Z</time>
      </trkpt>
      <trkpt lat="44.02812" lon="3.51861">
        <ele>1350</ele>
        <time>2026-05-28T12:54:33.999Z</time>
      </trkpt>
      <trkpt lat="44.02812" lon="3.5186">
        <ele>1349.8</ele>
        <time>2026-05-28T12:54:34.999Z</time>
      </trkpt>
      <trkpt lat="44.02812" lon="3.51859">
        <ele>1349.6</ele>
        <time>2026-05-28T12:54:35.999Z</time>
      </trkpt>
      <trkpt lat="44.02813" lon="3.51858">
        <ele>1349.7</ele>
        <time>2026-05-28T12:54:36.999Z</time>
      </trkpt>
      <trkpt lat="44.02813" lon="3.51858">
        <ele>1349.7</ele>
        <time>2026-05-28T12:54:37.999Z</time>
      </trkpt>
      <trkpt lat="44.02813" lon="3.51858">
        <ele>1349.9</ele>
        <time>2026-05-28T12:54:38.999Z</time>
      </trkpt>
      <trkpt lat="44.02813" lon="3.51858">
        <ele>1349.9</ele>
        <time>2026-05-28T12:54:39.999Z</time>
      </trkpt>
      <trkpt lat="44.02813" lon="3.51856">
        <ele>1349.9</ele>
        <time>2026-05-28T12:54:40.999Z</time>
      </trkpt>
      <trkpt lat="44.02813" lon="3.51855">
        <ele>1350.3</ele>
        <time>2026-05-28T12:54:41.999Z</time>
      </trkpt>
      <trkpt lat="44.02813" lon="3.51854">
        <ele>1350.8</ele>
        <time>2026-05-28T12:54:42.999Z</time>
      </trkpt>
      <trkpt lat="44.02813" lon="3.51853">
        <ele>1350.3</ele>
        <time>2026-05-28T12:54:43.999Z</time>
      </trkpt>
      <trkpt lat="44.02814" lon="3.51851">
        <ele>1350.8</ele>
        <time>2026-05-28T12:54:44.999Z</time>
      </trkpt>
      <trkpt lat="44.02814" lon="3.5185">
        <ele>1351.3</ele>
        <time>2026-05-28T12:54:45.999Z</time>
      </trkpt>
      <trkpt lat="44.02815" lon="3.51848">
        <ele>1351.2</ele>
        <time>2026-05-28T12:54:46.999Z</time>
      </trkpt>
      <trkpt lat="44.02815" lon="3.51848">
        <ele>1350.8</ele>
        <time>2026-05-28T12:54:47.999Z</time>
      </trkpt>
      <trkpt lat="44.02816" lon="3.51847">
        <ele>1350.5</ele>
        <time>2026-05-28T12:54:48.999Z</time>
      </trkpt>
      <trkpt lat="44.02817" lon="3.51847">
        <ele>1350.4</ele>
        <time>2026-05-28T12:54:49.999Z</time>
      </trkpt>
      <trkpt lat="44.02818" lon="3.51847">
        <ele>1350.1</ele>
        <time>2026-05-28T12:54:50.999Z</time>
      </trkpt>
      <trkpt lat="44.02819" lon="3.51846">
        <ele>1350</ele>
        <time>2026-05-28T12:54:51.999Z</time>
      </trkpt>
      <trkpt lat="44.02819" lon="3.51846">
        <ele>1350.1</ele>
        <time>2026-05-28T12:54:52.999Z</time>
      </trkpt>
      <trkpt lat="44.0282" lon="3.51845">
        <ele>1350.5</ele>
        <time>2026-05-28T12:54:53.999Z</time>
      </trkpt>
      <trkpt lat="44.0282" lon="3.51843">
        <ele>1350.8</ele>
        <time>2026-05-28T12:54:54.999Z</time>
      </trkpt>
      <trkpt lat="44.0282" lon="3.51841">
        <ele>1350.5</ele>
        <time>2026-05-28T12:54:55.999Z</time>
      </trkpt>
      <trkpt lat="44.02821" lon="3.51841">
        <ele>1350.2</ele>
        <time>2026-05-28T12:54:56.999Z</time>
      </trkpt>
      <trkpt lat="44.02821" lon="3.51841">
        <ele>1349.8</ele>
        <time>2026-05-28T12:54:57.999Z</time>
      </trkpt>
      <trkpt lat="44.02822" lon="3.5184">
        <ele>1349.5</ele>
        <time>2026-05-28T12:54:58.999Z</time>
      </trkpt>
      <trkpt lat="44.02823" lon="3.51839">
        <ele>1349.6</ele>
        <time>2026-05-28T12:54:59.999Z</time>
      </trkpt>
      <trkpt lat="44.02824" lon="3.51839">
        <ele>1349.7</ele>
        <time>2026-05-28T12:55:00.999Z</time>
      </trkpt>
      <trkpt lat="44.02824" lon="3.51838">
        <ele>1349.3</ele>
        <time>2026-05-28T12:55:02.000Z</time>
      </trkpt>
      <trkpt lat="44.02824" lon="3.51837">
        <ele>1349</ele>
        <time>2026-05-28T12:55:03.000Z</time>
      </trkpt>
      <trkpt lat="44.02825" lon="3.51836">
        <ele>1349.1</ele>
        <time>2026-05-28T12:55:04.000Z</time>
      </trkpt>
      <trkpt lat="44.02826" lon="3.51836">
        <ele>1348.7</ele>
        <time>2026-05-28T12:55:05.000Z</time>
      </trkpt>
      <trkpt lat="44.02826" lon="3.51835">
        <ele>1348.5</ele>
        <time>2026-05-28T12:55:06.000Z</time>
      </trkpt>
      <trkpt lat="44.02826" lon="3.51835">
        <ele>1348.2</ele>
        <time>2026-05-28T12:55:07.000Z</time>
      </trkpt>
      <trkpt lat="44.02827" lon="3.51834">
        <ele>1348.2</ele>
        <time>2026-05-28T12:55:08.000Z</time>
      </trkpt>
      <trkpt lat="44.02827" lon="3.51834">
        <ele>1348.3</ele>
        <time>2026-05-28T12:55:09.000Z</time>
      </trkpt>
      <trkpt lat="44.02827" lon="3.51833">
        <ele>1348.9</ele>
        <time>2026-05-28T12:55:10.000Z</time>
      </trkpt>
      <trkpt lat="44.02828" lon="3.51833">
        <ele>1349.4</ele>
        <time>2026-05-28T12:55:11.000Z</time>
      </trkpt>
      <trkpt lat="44.02828" lon="3.51833">
        <ele>1349.8</ele>
        <time>2026-05-28T12:55:12.000Z</time>
      </trkpt>
      <trkpt lat="44.02828" lon="3.51833">
        <ele>1350.1</ele>
        <time>2026-05-28T12:55:13.000Z</time>
      </trkpt>
      <trkpt lat="44.02828" lon="3.51833">
        <ele>1350.3</ele>
        <time>2026-05-28T12:55:14.000Z</time>
      </trkpt>
      <trkpt lat="44.02828" lon="3.51833">
        <ele>1350.3</ele>
        <time>2026-05-28T12:55:15.000Z</time>
      </trkpt>
      <trkpt lat="44.02828" lon="3.51833">
        <ele>1350.1</ele>
        <time>2026-05-28T12:55:16.000Z</time>
      </trkpt>
      <trkpt lat="44.02828" lon="3.51833">
        <ele>1349.9</ele>
        <time>2026-05-28T12:55:17.000Z</time>
      </trkpt>
      <trkpt lat="44.02828" lon="3.51833">
        <ele>1349.9</ele>
        <time>2026-05-28T12:55:18.000Z</time>
      </trkpt>
      <trkpt lat="44.02828" lon="3.51833">
        <ele>1350</ele>
        <time>2026-05-28T12:55:19.000Z</time>
      </trkpt>
      <trkpt lat="44.02827" lon="3.51833">
        <ele>1349.9</ele>
        <time>2026-05-28T12:55:20.000Z</time>
      </trkpt>
      <trkpt lat="44.02827" lon="3.51832">
        <ele>1349.8</ele>
        <time>2026-05-28T12:55:21.000Z</time>
      </trkpt>
      <trkpt lat="44.02827" lon="3.51832">
        <ele>1350.2</ele>
        <time>2026-05-28T12:55:22.000Z</time>
      </trkpt>
      <trkpt lat="44.02827" lon="3.51832">
        <ele>1350.3</ele>
        <time>2026-05-28T12:55:23.000Z</time>
      </trkpt>
      <trkpt lat="44.02827" lon="3.51832">
        <ele>1350.4</ele>
        <time>2026-05-28T12:55:24.000Z</time>
      </trkpt>
      <trkpt lat="44.02827" lon="3.51832">
        <ele>1350.5</ele>
        <time>2026-05-28T12:55:25.000Z</time>
      </trkpt>
      <trkpt lat="44.02827" lon="3.51832">
        <ele>1350.5</ele>
        <time>2026-05-28T12:55:26.000Z</time>
      </trkpt>
      <trkpt lat="44.02827" lon="3.51832">
        <ele>1350.5</ele>
        <time>2026-05-28T12:55:27.000Z</time>
      </trkpt>
      <trkpt lat="44.02827" lon="3.51832">
        <ele>1350.6</ele>
        <time>2026-05-28T12:55:28.000Z</time>
      </trkpt>
      <trkpt lat="44.02827" lon="3.51832">
        <ele>1350.6</ele>
        <time>2026-05-28T12:55:29.000Z</time>
      </trkpt>
      <trkpt lat="44.02827" lon="3.51832">
        <ele>1350.7</ele>
        <time>2026-05-28T12:55:30.000Z</time>
      </trkpt>
      <trkpt lat="44.02827" lon="3.51832">
        <ele>1350.5</ele>
        <time>2026-05-28T12:55:31.000Z</time>
      </trkpt>
      <trkpt lat="44.02827" lon="3.51832">
        <ele>1350.4</ele>
        <time>2026-05-28T12:55:32.000Z</time>
      </trkpt>
      <trkpt lat="44.02827" lon="3.51832">
        <ele>1350.5</ele>
        <time>2026-05-28T12:55:33.000Z</time>
      </trkpt>
      <trkpt lat="44.02827" lon="3.51832">
        <ele>1350.1</ele>
        <time>2026-05-28T12:55:34.000Z</time>
      </trkpt>
      <trkpt lat="44.02827" lon="3.51832">
        <ele>1349.9</ele>
        <time>2026-05-28T12:55:35.000Z</time>
      </trkpt>
      <trkpt lat="44.02826" lon="3.51832">
        <ele>1349.5</ele>
        <time>2026-05-28T12:55:36.000Z</time>
      </trkpt>
      <trkpt lat="44.02826" lon="3.51831">
        <ele>1349.4</ele>
        <time>2026-05-28T12:55:37.000Z</time>
      </trkpt>
      <trkpt lat="44.02826" lon="3.51831">
        <ele>1349.3</ele>
        <time>2026-05-28T12:55:38.000Z</time>
      </trkpt>
      <trkpt lat="44.02825" lon="3.51831">
        <ele>1349</ele>
        <time>2026-05-28T12:55:39.000Z</time>
      </trkpt>
      <trkpt lat="44.02825" lon="3.51831">
        <ele>1349</ele>
        <time>2026-05-28T12:55:40.000Z</time>
      </trkpt>
      <trkpt lat="44.02824" lon="3.51831">
        <ele>1349.3</ele>
        <time>2026-05-28T12:55:41.000Z</time>
      </trkpt>
      <trkpt lat="44.02823" lon="3.5183">
        <ele>1349.6</ele>
        <time>2026-05-28T12:55:42.000Z</time>
      </trkpt>
      <trkpt lat="44.02822" lon="3.51829">
        <ele>1349.8</ele>
        <time>2026-05-28T12:55:43.000Z</time>
      </trkpt>
      <trkpt lat="44.02822" lon="3.51829">
        <ele>1349.9</ele>
        <time>2026-05-28T12:55:44.000Z</time>
      </trkpt>
      <trkpt lat="44.02821" lon="3.51829">
        <ele>1350.3</ele>
        <time>2026-05-28T12:55:45.000Z</time>
      </trkpt>
      <trkpt lat="44.02819" lon="3.51829">
        <ele>1350.5</ele>
        <time>2026-05-28T12:55:46.000Z</time>
      </trkpt>
      <trkpt lat="44.02818" lon="3.51829">
        <ele>1350.4</ele>
        <time>2026-05-28T12:55:47.000Z</time>
      </trkpt>
      <trkpt lat="44.02818" lon="3.51829">
        <ele>1350.3</ele>
        <time>2026-05-28T12:55:48.000Z</time>
      </trkpt>
      <trkpt lat="44.02817" lon="3.51829">
        <ele>1350.2</ele>
        <time>2026-05-28T12:55:49.000Z</time>
      </trkpt>
      <trkpt lat="44.02816" lon="3.51828">
        <ele>1350.1</ele>
        <time>2026-05-28T12:55:50.000Z</time>
      </trkpt>
      <trkpt lat="44.02814" lon="3.51828">
        <ele>1350.4</ele>
        <time>2026-05-28T12:55:51.000Z</time>
      </trkpt>
      <trkpt lat="44.02812" lon="3.51828">
        <ele>1350.6</ele>
        <time>2026-05-28T12:55:52.000Z</time>
      </trkpt>
      <trkpt lat="44.02812" lon="3.51828">
        <ele>1350.9</ele>
        <time>2026-05-28T12:55:53.000Z</time>
      </trkpt>
      <trkpt lat="44.02811" lon="3.51828">
        <ele>1351</ele>
        <time>2026-05-28T12:55:54.000Z</time>
      </trkpt>
      <trkpt lat="44.0281" lon="3.51828">
        <ele>1351</ele>
        <time>2026-05-28T12:55:55.000Z</time>
      </trkpt>
      <trkpt lat="44.02809" lon="3.51828">
        <ele>1351.1</ele>
        <time>2026-05-28T12:55:56.000Z</time>
      </trkpt>
      <trkpt lat="44.02808" lon="3.51826">
        <ele>1351.2</ele>
        <time>2026-05-28T12:55:57.000Z</time>
      </trkpt>
      <trkpt lat="44.02807" lon="3.51825">
        <ele>1351.2</ele>
        <time>2026-05-28T12:55:58.000Z</time>
      </trkpt>
      <trkpt lat="44.02806" lon="3.51824">
        <ele>1351.7</ele>
        <time>2026-05-28T12:55:59.000Z</time>
      </trkpt>
      <trkpt lat="44.02805" lon="3.51823">
        <ele>1351.7</ele>
        <time>2026-05-28T12:56:00.000Z</time>
      </trkpt>
      <trkpt lat="44.02803" lon="3.51823">
        <ele>1351.6</ele>
        <time>2026-05-28T12:56:01.000Z</time>
      </trkpt>
      <trkpt lat="44.02802" lon="3.51822">
        <ele>1351.6</ele>
        <time>2026-05-28T12:56:02.000Z</time>
      </trkpt>
      <trkpt lat="44.028" lon="3.51823">
        <ele>1351.6</ele>
        <time>2026-05-28T12:56:03.000Z</time>
      </trkpt>
      <trkpt lat="44.028" lon="3.51823">
        <ele>1351.6</ele>
        <time>2026-05-28T12:56:04.000Z</time>
      </trkpt>
      <trkpt lat="44.02799" lon="3.51823">
        <ele>1351.3</ele>
        <time>2026-05-28T12:56:05.000Z</time>
      </trkpt>
      <trkpt lat="44.02798" lon="3.51823">
        <ele>1351.4</ele>
        <time>2026-05-28T12:56:06.000Z</time>
      </trkpt>
      <trkpt lat="44.02798" lon="3.51823">
        <ele>1351.3</ele>
        <time>2026-05-28T12:56:07.000Z</time>
      </trkpt>
      <trkpt lat="44.02797" lon="3.51823">
        <ele>1351.3</ele>
        <time>2026-05-28T12:56:08.000Z</time>
      </trkpt>
      <trkpt lat="44.02796" lon="3.51823">
        <ele>1351.3</ele>
        <time>2026-05-28T12:56:09.000Z</time>
      </trkpt>
      <trkpt lat="44.02795" lon="3.51823">
        <ele>1351.5</ele>
        <time>2026-05-28T12:56:10.000Z</time>
      </trkpt>
      <trkpt lat="44.02794" lon="3.51823">
        <ele>1351.7</ele>
        <time>2026-05-28T12:56:11.000Z</time>
      </trkpt>
      <trkpt lat="44.02793" lon="3.51822">
        <ele>1352</ele>
        <time>2026-05-28T12:56:12.000Z</time>
      </trkpt>
      <trkpt lat="44.02792" lon="3.51821">
        <ele>1352.2</ele>
        <time>2026-05-28T12:56:13.000Z</time>
      </trkpt>
      <trkpt lat="44.0279" lon="3.51821">
        <ele>1352.5</ele>
        <time>2026-05-28T12:56:14.000Z</time>
      </trkpt>
      <trkpt lat="44.02789" lon="3.51821">
        <ele>1352.7</ele>
        <time>2026-05-28T12:56:15.000Z</time>
      </trkpt>
      <trkpt lat="44.02788" lon="3.51821">
        <ele>1352.8</ele>
        <time>2026-05-28T12:56:16.000Z</time>
      </trkpt>
      <trkpt lat="44.02788" lon="3.5182">
        <ele>1352.7</ele>
        <time>2026-05-28T12:56:17.000Z</time>
      </trkpt>
      <trkpt lat="44.02786" lon="3.51819">
        <ele>1352.6</ele>
        <time>2026-05-28T12:56:18.000Z</time>
      </trkpt>
      <trkpt lat="44.02785" lon="3.51818">
        <ele>1352.4</ele>
        <time>2026-05-28T12:56:19.000Z</time>
      </trkpt>
      <trkpt lat="44.02784" lon="3.51817">
        <ele>1352.5</ele>
        <time>2026-05-28T12:56:20.000Z</time>
      </trkpt>
      <trkpt lat="44.02784" lon="3.51816">
        <ele>1352.6</ele>
        <time>2026-05-28T12:56:21.000Z</time>
      </trkpt>
      <trkpt lat="44.02784" lon="3.51816">
        <ele>1352.2</ele>
        <time>2026-05-28T12:56:22.000Z</time>
      </trkpt>
      <trkpt lat="44.02783" lon="3.51815">
        <ele>1351.5</ele>
        <time>2026-05-28T12:56:23.000Z</time>
      </trkpt>
      <trkpt lat="44.02782" lon="3.51815">
        <ele>1350.8</ele>
        <time>2026-05-28T12:56:24.000Z</time>
      </trkpt>
      <trkpt lat="44.02781" lon="3.51814">
        <ele>1350.6</ele>
        <time>2026-05-28T12:56:25.000Z</time>
      </trkpt>
      <trkpt lat="44.0278" lon="3.51814">
        <ele>1350.6</ele>
        <time>2026-05-28T12:56:26.000Z</time>
      </trkpt>
      <trkpt lat="44.02779" lon="3.51813">
        <ele>1350.4</ele>
        <time>2026-05-28T12:56:27.000Z</time>
      </trkpt>
      <trkpt lat="44.02778" lon="3.51812">
        <ele>1350.2</ele>
        <time>2026-05-28T12:56:28.000Z</time>
      </trkpt>
      <trkpt lat="44.02777" lon="3.51811">
        <ele>1350.2</ele>
        <time>2026-05-28T12:56:29.000Z</time>
      </trkpt>
      <trkpt lat="44.02777" lon="3.5181">
        <ele>1349.7</ele>
        <time>2026-05-28T12:56:30.000Z</time>
      </trkpt>
      <trkpt lat="44.02775" lon="3.51809">
        <ele>1349.9</ele>
        <time>2026-05-28T12:56:31.000Z</time>
      </trkpt>
      <trkpt lat="44.02774" lon="3.51809">
        <ele>1349.8</ele>
        <time>2026-05-28T12:56:32.000Z</time>
      </trkpt>
      <trkpt lat="44.02774" lon="3.51808">
        <ele>1349.7</ele>
        <time>2026-05-28T12:56:33.000Z</time>
      </trkpt>
      <trkpt lat="44.02772" lon="3.51808">
        <ele>1349.8</ele>
        <time>2026-05-28T12:56:34.000Z</time>
      </trkpt>
      <trkpt lat="44.02771" lon="3.51807">
        <ele>1350.1</ele>
        <time>2026-05-28T12:56:35.000Z</time>
      </trkpt>
      <trkpt lat="44.0277" lon="3.51807">
        <ele>1350.4</ele>
        <time>2026-05-28T12:56:36.000Z</time>
      </trkpt>
      <trkpt lat="44.02769" lon="3.51806">
        <ele>1350.3</ele>
        <time>2026-05-28T12:56:37.000Z</time>
      </trkpt>
      <trkpt lat="44.02769" lon="3.51806">
        <ele>1350.5</ele>
        <time>2026-05-28T12:56:38.000Z</time>
      </trkpt>
      <trkpt lat="44.02769" lon="3.51805">
        <ele>1350.4</ele>
        <time>2026-05-28T12:56:39.000Z</time>
      </trkpt>
      <trkpt lat="44.02768" lon="3.51804">
        <ele>1350.3</ele>
        <time>2026-05-28T12:56:40.000Z</time>
      </trkpt>
      <trkpt lat="44.02767" lon="3.51804">
        <ele>1350.5</ele>
        <time>2026-05-28T12:56:41.000Z</time>
      </trkpt>
      <trkpt lat="44.02766" lon="3.51803">
        <ele>1350.5</ele>
        <time>2026-05-28T12:56:42.000Z</time>
      </trkpt>
      <trkpt lat="44.02765" lon="3.51803">
        <ele>1350.7</ele>
        <time>2026-05-28T12:56:43.000Z</time>
      </trkpt>
      <trkpt lat="44.02764" lon="3.51803">
        <ele>1350.9</ele>
        <time>2026-05-28T12:56:44.000Z</time>
      </trkpt>
      <trkpt lat="44.02764" lon="3.51803">
        <ele>1351</ele>
        <time>2026-05-28T12:56:45.000Z</time>
      </trkpt>
      <trkpt lat="44.02763" lon="3.51803">
        <ele>1351.1</ele>
        <time>2026-05-28T12:56:46.000Z</time>
      </trkpt>
      <trkpt lat="44.02762" lon="3.51801">
        <ele>1351.2</ele>
        <time>2026-05-28T12:56:47.000Z</time>
      </trkpt>
      <trkpt lat="44.02761" lon="3.51799">
        <ele>1351.8</ele>
        <time>2026-05-28T12:56:48.000Z</time>
      </trkpt>
      <trkpt lat="44.0276" lon="3.51798">
        <ele>1351.8</ele>
        <time>2026-05-28T12:56:49.000Z</time>
      </trkpt>
      <trkpt lat="44.0276" lon="3.51797">
        <ele>1351.5</ele>
        <time>2026-05-28T12:56:50.000Z</time>
      </trkpt>
      <trkpt lat="44.02759" lon="3.51795">
        <ele>1351.6</ele>
        <time>2026-05-28T12:56:51.000Z</time>
      </trkpt>
      <trkpt lat="44.02759" lon="3.51794">
        <ele>1351.8</ele>
        <time>2026-05-28T12:56:52.000Z</time>
      </trkpt>
      <trkpt lat="44.02758" lon="3.51794">
        <ele>1351.8</ele>
        <time>2026-05-28T12:56:53.000Z</time>
      </trkpt>
      <trkpt lat="44.02758" lon="3.51793">
        <ele>1352.1</ele>
        <time>2026-05-28T12:56:54.000Z</time>
      </trkpt>
      <trkpt lat="44.02758" lon="3.51791">
        <ele>1351.8</ele>
        <time>2026-05-28T12:56:55.000Z</time>
      </trkpt>
      <trkpt lat="44.02757" lon="3.5179">
        <ele>1351.4</ele>
        <time>2026-05-28T12:56:56.000Z</time>
      </trkpt>
      <trkpt lat="44.02757" lon="3.51788">
        <ele>1350.9</ele>
        <time>2026-05-28T12:56:57.000Z</time>
      </trkpt>
      <trkpt lat="44.02756" lon="3.51786">
        <ele>1350.9</ele>
        <time>2026-05-28T12:56:58.000Z</time>
      </trkpt>
      <trkpt lat="44.02756" lon="3.51785">
        <ele>1350.9</ele>
        <time>2026-05-28T12:56:59.000Z</time>
      </trkpt>
      <trkpt lat="44.02756" lon="3.51783">
        <ele>1350.7</ele>
        <time>2026-05-28T12:57:00.000Z</time>
      </trkpt>
      <trkpt lat="44.02756" lon="3.51782">
        <ele>1350.9</ele>
        <time>2026-05-28T12:57:01.000Z</time>
      </trkpt>
      <trkpt lat="44.02755" lon="3.51781">
        <ele>1350.8</ele>
        <time>2026-05-28T12:57:02.000Z</time>
      </trkpt>
      <trkpt lat="44.02754" lon="3.51779">
        <ele>1350.7</ele>
        <time>2026-05-28T12:57:03.000Z</time>
      </trkpt>
      <trkpt lat="44.02753" lon="3.51778">
        <ele>1350.9</ele>
        <time>2026-05-28T12:57:04.000Z</time>
      </trkpt>
      <trkpt lat="44.02753" lon="3.51777">
        <ele>1351.2</ele>
        <time>2026-05-28T12:57:05.000Z</time>
      </trkpt>
      <trkpt lat="44.02753" lon="3.51775">
        <ele>1351.2</ele>
        <time>2026-05-28T12:57:06.000Z</time>
      </trkpt>
      <trkpt lat="44.02753" lon="3.51775">
        <ele>1351.5</ele>
        <time>2026-05-28T12:57:07.000Z</time>
      </trkpt>
      <trkpt lat="44.02752" lon="3.51773">
        <ele>1351.7</ele>
        <time>2026-05-28T12:57:08.000Z</time>
      </trkpt>
      <trkpt lat="44.02752" lon="3.51772">
        <ele>1351.4</ele>
        <time>2026-05-28T12:57:09.000Z</time>
      </trkpt>
      <trkpt lat="44.02752" lon="3.51769">
        <ele>1351.8</ele>
        <time>2026-05-28T12:57:10.000Z</time>
      </trkpt>
      <trkpt lat="44.02752" lon="3.51768">
        <ele>1351.8</ele>
        <time>2026-05-28T12:57:11.000Z</time>
      </trkpt>
      <trkpt lat="44.02752" lon="3.51767">
        <ele>1351.7</ele>
        <time>2026-05-28T12:57:12.000Z</time>
      </trkpt>
      <trkpt lat="44.02752" lon="3.51766">
        <ele>1351.6</ele>
        <time>2026-05-28T12:57:13.000Z</time>
      </trkpt>
      <trkpt lat="44.02752" lon="3.51764">
        <ele>1351.5</ele>
        <time>2026-05-28T12:57:14.000Z</time>
      </trkpt>
      <trkpt lat="44.02752" lon="3.51762">
        <ele>1351.3</ele>
        <time>2026-05-28T12:57:15.000Z</time>
      </trkpt>
      <trkpt lat="44.02751" lon="3.5176">
        <ele>1351.4</ele>
        <time>2026-05-28T12:57:16.000Z</time>
      </trkpt>
      <trkpt lat="44.02751" lon="3.51758">
        <ele>1351.4</ele>
        <time>2026-05-28T12:57:17.000Z</time>
      </trkpt>
      <trkpt lat="44.02751" lon="3.51757">
        <ele>1351.3</ele>
        <time>2026-05-28T12:57:18.000Z</time>
      </trkpt>
      <trkpt lat="44.02751" lon="3.51756">
        <ele>1351.5</ele>
        <time>2026-05-28T12:57:19.000Z</time>
      </trkpt>
      <trkpt lat="44.0275" lon="3.51754">
        <ele>1351.7</ele>
        <time>2026-05-28T12:57:20.000Z</time>
      </trkpt>
      <trkpt lat="44.02749" lon="3.51752">
        <ele>1352.4</ele>
        <time>2026-05-28T12:57:21.000Z</time>
      </trkpt>
      <trkpt lat="44.02748" lon="3.5175">
        <ele>1352.7</ele>
        <time>2026-05-28T12:57:22.000Z</time>
      </trkpt>
      <trkpt lat="44.02747" lon="3.51749">
        <ele>1352.6</ele>
        <time>2026-05-28T12:57:23.000Z</time>
      </trkpt>
      <trkpt lat="44.02747" lon="3.51748">
        <ele>1352.3</ele>
        <time>2026-05-28T12:57:24.000Z</time>
      </trkpt>
      <trkpt lat="44.02746" lon="3.51746">
        <ele>1352.1</ele>
        <time>2026-05-28T12:57:25.000Z</time>
      </trkpt>
      <trkpt lat="44.02745" lon="3.51745">
        <ele>1352.4</ele>
        <time>2026-05-28T12:57:26.000Z</time>
      </trkpt>
      <trkpt lat="44.02743" lon="3.51744">
        <ele>1353.3</ele>
        <time>2026-05-28T12:57:27.000Z</time>
      </trkpt>
      <trkpt lat="44.02742" lon="3.51743">
        <ele>1353.6</ele>
        <time>2026-05-28T12:57:28.000Z</time>
      </trkpt>
      <trkpt lat="44.02742" lon="3.51742">
        <ele>1353.6</ele>
        <time>2026-05-28T12:57:29.000Z</time>
      </trkpt>
      <trkpt lat="44.02742" lon="3.51741">
        <ele>1353.8</ele>
        <time>2026-05-28T12:57:30.000Z</time>
      </trkpt>
      <trkpt lat="44.02741" lon="3.51741">
        <ele>1354</ele>
        <time>2026-05-28T12:57:31.000Z</time>
      </trkpt>
      <trkpt lat="44.02741" lon="3.5174">
        <ele>1354.4</ele>
        <time>2026-05-28T12:57:32.000Z</time>
      </trkpt>
      <trkpt lat="44.0274" lon="3.51738">
        <ele>1354.7</ele>
        <time>2026-05-28T12:57:33.000Z</time>
      </trkpt>
      <trkpt lat="44.0274" lon="3.51736">
        <ele>1355</ele>
        <time>2026-05-28T12:57:34.000Z</time>
      </trkpt>
      <trkpt lat="44.02739" lon="3.51735">
        <ele>1354.7</ele>
        <time>2026-05-28T12:57:35.000Z</time>
      </trkpt>
      <trkpt lat="44.02739" lon="3.51734">
        <ele>1354.2</ele>
        <time>2026-05-28T12:57:36.000Z</time>
      </trkpt>
      <trkpt lat="44.02739" lon="3.51734">
        <ele>1354.1</ele>
        <time>2026-05-28T12:57:37.000Z</time>
      </trkpt>
      <trkpt lat="44.02739" lon="3.51732">
        <ele>1353.8</ele>
        <time>2026-05-28T12:57:38.000Z</time>
      </trkpt>
      <trkpt lat="44.02738" lon="3.51731">
        <ele>1353.9</ele>
        <time>2026-05-28T12:57:39.000Z</time>
      </trkpt>
      <trkpt lat="44.02737" lon="3.51729">
        <ele>1353.9</ele>
        <time>2026-05-28T12:57:40.000Z</time>
      </trkpt>
      <trkpt lat="44.02736" lon="3.51728">
        <ele>1354.3</ele>
        <time>2026-05-28T12:57:41.000Z</time>
      </trkpt>
      <trkpt lat="44.02735" lon="3.51727">
        <ele>1354.6</ele>
        <time>2026-05-28T12:57:42.000Z</time>
      </trkpt>
      <trkpt lat="44.02735" lon="3.51725">
        <ele>1354.9</ele>
        <time>2026-05-28T12:57:43.000Z</time>
      </trkpt>
      <trkpt lat="44.02734" lon="3.51724">
        <ele>1355.1</ele>
        <time>2026-05-28T12:57:44.000Z</time>
      </trkpt>
      <trkpt lat="44.02734" lon="3.51723">
        <ele>1355.4</ele>
        <time>2026-05-28T12:57:45.000Z</time>
      </trkpt>
      <trkpt lat="44.02734" lon="3.51722">
        <ele>1355.2</ele>
        <time>2026-05-28T12:57:46.000Z</time>
      </trkpt>
      <trkpt lat="44.02733" lon="3.5172">
        <ele>1355</ele>
        <time>2026-05-28T12:57:47.000Z</time>
      </trkpt>
      <trkpt lat="44.02733" lon="3.51719">
        <ele>1354.6</ele>
        <time>2026-05-28T12:57:48.000Z</time>
      </trkpt>
      <trkpt lat="44.02733" lon="3.51717">
        <ele>1354.6</ele>
        <time>2026-05-28T12:57:49.000Z</time>
      </trkpt>
      <trkpt lat="44.02732" lon="3.51716">
        <ele>1354.7</ele>
        <time>2026-05-28T12:57:50.000Z</time>
      </trkpt>
      <trkpt lat="44.02732" lon="3.51715">
        <ele>1354.7</ele>
        <time>2026-05-28T12:57:51.000Z</time>
      </trkpt>
      <trkpt lat="44.02732" lon="3.51713">
        <ele>1354.9</ele>
        <time>2026-05-28T12:57:52.000Z</time>
      </trkpt>
      <trkpt lat="44.02731" lon="3.51712">
        <ele>1355.6</ele>
        <time>2026-05-28T12:57:53.000Z</time>
      </trkpt>
      <trkpt lat="44.02731" lon="3.5171">
        <ele>1356.2</ele>
        <time>2026-05-28T12:57:54.000Z</time>
      </trkpt>
      <trkpt lat="44.0273" lon="3.51709">
        <ele>1356.2</ele>
        <time>2026-05-28T12:57:55.000Z</time>
      </trkpt>
      <trkpt lat="44.02729" lon="3.51708">
        <ele>1356.4</ele>
        <time>2026-05-28T12:57:56.000Z</time>
      </trkpt>
      <trkpt lat="44.02728" lon="3.51707">
        <ele>1356.4</ele>
        <time>2026-05-28T12:57:57.000Z</time>
      </trkpt>
      <trkpt lat="44.02728" lon="3.51706">
        <ele>1356.3</ele>
        <time>2026-05-28T12:57:58.000Z</time>
      </trkpt>
      <trkpt lat="44.02727" lon="3.51706">
        <ele>1356</ele>
        <time>2026-05-28T12:57:59.000Z</time>
      </trkpt>
      <trkpt lat="44.02727" lon="3.51705">
        <ele>1355.9</ele>
        <time>2026-05-28T12:58:00.000Z</time>
      </trkpt>
      <trkpt lat="44.02727" lon="3.51703">
        <ele>1356.3</ele>
        <time>2026-05-28T12:58:01.000Z</time>
      </trkpt>
      <trkpt lat="44.02726" lon="3.51702">
        <ele>1356.5</ele>
        <time>2026-05-28T12:58:02.000Z</time>
      </trkpt>
      <trkpt lat="44.02726" lon="3.51701">
        <ele>1356.5</ele>
        <time>2026-05-28T12:58:03.000Z</time>
      </trkpt>
      <trkpt lat="44.02725" lon="3.51699">
        <ele>1356.5</ele>
        <time>2026-05-28T12:58:04.000Z</time>
      </trkpt>
      <trkpt lat="44.02725" lon="3.51697">
        <ele>1356.4</ele>
        <time>2026-05-28T12:58:05.000Z</time>
      </trkpt>
      <trkpt lat="44.02725" lon="3.51695">
        <ele>1356.4</ele>
        <time>2026-05-28T12:58:06.000Z</time>
      </trkpt>
      <trkpt lat="44.02724" lon="3.51694">
        <ele>1356.5</ele>
        <time>2026-05-28T12:58:07.000Z</time>
      </trkpt>
      <trkpt lat="44.02724" lon="3.51692">
        <ele>1356.6</ele>
        <time>2026-05-28T12:58:08.000Z</time>
      </trkpt>
      <trkpt lat="44.02724" lon="3.51691">
        <ele>1356.5</ele>
        <time>2026-05-28T12:58:09.000Z</time>
      </trkpt>
      <trkpt lat="44.02724" lon="3.51689">
        <ele>1356.1</ele>
        <time>2026-05-28T12:58:10.000Z</time>
      </trkpt>
      <trkpt lat="44.02723" lon="3.51688">
        <ele>1355.9</ele>
        <time>2026-05-28T12:58:11.000Z</time>
      </trkpt>
      <trkpt lat="44.02723" lon="3.51687">
        <ele>1355.9</ele>
        <time>2026-05-28T12:58:12.000Z</time>
      </trkpt>
      <trkpt lat="44.02723" lon="3.51686">
        <ele>1355.9</ele>
        <time>2026-05-28T12:58:13.000Z</time>
      </trkpt>
      <trkpt lat="44.02722" lon="3.51685">
        <ele>1356</ele>
        <time>2026-05-28T12:58:14.000Z</time>
      </trkpt>
      <trkpt lat="44.02722" lon="3.51683">
        <ele>1356.2</ele>
        <time>2026-05-28T12:58:15.000Z</time>
      </trkpt>
      <trkpt lat="44.02722" lon="3.51682">
        <ele>1356.1</ele>
        <time>2026-05-28T12:58:16.000Z</time>
      </trkpt>
      <trkpt lat="44.02721" lon="3.51681">
        <ele>1356.1</ele>
        <time>2026-05-28T12:58:17.000Z</time>
      </trkpt>
      <trkpt lat="44.02721" lon="3.5168">
        <ele>1356</ele>
        <time>2026-05-28T12:58:18.000Z</time>
      </trkpt>
      <trkpt lat="44.02719" lon="3.51678">
        <ele>1356</ele>
        <time>2026-05-28T12:58:19.000Z</time>
      </trkpt>
      <trkpt lat="44.02719" lon="3.51677">
        <ele>1356.3</ele>
        <time>2026-05-28T12:58:20.000Z</time>
      </trkpt>
      <trkpt lat="44.02718" lon="3.51676">
        <ele>1356.7</ele>
        <time>2026-05-28T12:58:21.000Z</time>
      </trkpt>
      <trkpt lat="44.02717" lon="3.51674">
        <ele>1356.8</ele>
        <time>2026-05-28T12:58:22.000Z</time>
      </trkpt>
      <trkpt lat="44.02716" lon="3.51673">
        <ele>1357.2</ele>
        <time>2026-05-28T12:58:23.000Z</time>
      </trkpt>
      <trkpt lat="44.02715" lon="3.51671">
        <ele>1357.3</ele>
        <time>2026-05-28T12:58:24.000Z</time>
      </trkpt>
      <trkpt lat="44.02715" lon="3.51669">
        <ele>1357</ele>
        <time>2026-05-28T12:58:25.000Z</time>
      </trkpt>
      <trkpt lat="44.02714" lon="3.51668">
        <ele>1357.1</ele>
        <time>2026-05-28T12:58:26.000Z</time>
      </trkpt>
      <trkpt lat="44.02714" lon="3.51666">
        <ele>1357</ele>
        <time>2026-05-28T12:58:27.000Z</time>
      </trkpt>
      <trkpt lat="44.02713" lon="3.51665">
        <ele>1357.2</ele>
        <time>2026-05-28T12:58:28.000Z</time>
      </trkpt>
      <trkpt lat="44.02712" lon="3.51664">
        <ele>1357.5</ele>
        <time>2026-05-28T12:58:29.000Z</time>
      </trkpt>
      <trkpt lat="44.02711" lon="3.51663">
        <ele>1357.6</ele>
        <time>2026-05-28T12:58:30.000Z</time>
      </trkpt>
      <trkpt lat="44.0271" lon="3.51662">
        <ele>1358</ele>
        <time>2026-05-28T12:58:31.000Z</time>
      </trkpt>
      <trkpt lat="44.02709" lon="3.51662">
        <ele>1358.5</ele>
        <time>2026-05-28T12:58:32.000Z</time>
      </trkpt>
      <trkpt lat="44.02708" lon="3.51661">
        <ele>1359</ele>
        <time>2026-05-28T12:58:33.000Z</time>
      </trkpt>
      <trkpt lat="44.02708" lon="3.51659">
        <ele>1358.2</ele>
        <time>2026-05-28T12:58:34.000Z</time>
      </trkpt>
      <trkpt lat="44.02707" lon="3.51658">
        <ele>1358.4</ele>
        <time>2026-05-28T12:58:35.000Z</time>
      </trkpt>
      <trkpt lat="44.02707" lon="3.51658">
        <ele>1357.8</ele>
        <time>2026-05-28T12:58:36.000Z</time>
      </trkpt>
      <trkpt lat="44.02707" lon="3.51657">
        <ele>1357.4</ele>
        <time>2026-05-28T12:58:37.000Z</time>
      </trkpt>
      <trkpt lat="44.02707" lon="3.51656">
        <ele>1356.8</ele>
        <time>2026-05-28T12:58:38.000Z</time>
      </trkpt>
      <trkpt lat="44.02707" lon="3.51656">
        <ele>1355.9</ele>
        <time>2026-05-28T12:58:39.000Z</time>
      </trkpt>
      <trkpt lat="44.02706" lon="3.51656">
        <ele>1355.5</ele>
        <time>2026-05-28T12:58:40.000Z</time>
      </trkpt>
      <trkpt lat="44.02704" lon="3.51655">
        <ele>1355.2</ele>
        <time>2026-05-28T12:58:41.000Z</time>
      </trkpt>
      <trkpt lat="44.02703" lon="3.51655">
        <ele>1354.8</ele>
        <time>2026-05-28T12:58:42.000Z</time>
      </trkpt>
      <trkpt lat="44.02702" lon="3.51654">
        <ele>1354.6</ele>
        <time>2026-05-28T12:58:43.000Z</time>
      </trkpt>
      <trkpt lat="44.02702" lon="3.51654">
        <ele>1354.4</ele>
        <time>2026-05-28T12:58:44.000Z</time>
      </trkpt>
      <trkpt lat="44.02701" lon="3.51653">
        <ele>1354.4</ele>
        <time>2026-05-28T12:58:45.000Z</time>
      </trkpt>
      <trkpt lat="44.027" lon="3.51653">
        <ele>1354.1</ele>
        <time>2026-05-28T12:58:46.000Z</time>
      </trkpt>
      <trkpt lat="44.027" lon="3.51652">
        <ele>1354.1</ele>
        <time>2026-05-28T12:58:47.000Z</time>
      </trkpt>
      <trkpt lat="44.02699" lon="3.51651">
        <ele>1354.2</ele>
        <time>2026-05-28T12:58:48.000Z</time>
      </trkpt>
      <trkpt lat="44.02699" lon="3.51649">
        <ele>1354</ele>
        <time>2026-05-28T12:58:49.000Z</time>
      </trkpt>
      <trkpt lat="44.02699" lon="3.51648">
        <ele>1353.9</ele>
        <time>2026-05-28T12:58:50.000Z</time>
      </trkpt>
      <trkpt lat="44.02699" lon="3.51648">
        <ele>1353.9</ele>
        <time>2026-05-28T12:58:51.000Z</time>
      </trkpt>
      <trkpt lat="44.02698" lon="3.51648">
        <ele>1353.8</ele>
        <time>2026-05-28T12:58:52.000Z</time>
      </trkpt>
      <trkpt lat="44.02697" lon="3.51648">
        <ele>1353.7</ele>
        <time>2026-05-28T12:58:53.000Z</time>
      </trkpt>
      <trkpt lat="44.02695" lon="3.51649">
        <ele>1353.9</ele>
        <time>2026-05-28T12:58:54.000Z</time>
      </trkpt>
      <trkpt lat="44.02694" lon="3.51649">
        <ele>1353.9</ele>
        <time>2026-05-28T12:58:55.000Z</time>
      </trkpt>
      <trkpt lat="44.02693" lon="3.51648">
        <ele>1353.8</ele>
        <time>2026-05-28T12:58:56.000Z</time>
      </trkpt>
      <trkpt lat="44.02693" lon="3.51647">
        <ele>1353.6</ele>
        <time>2026-05-28T12:58:57.000Z</time>
      </trkpt>
      <trkpt lat="44.02692" lon="3.51646">
        <ele>1353.5</ele>
        <time>2026-05-28T12:58:58.000Z</time>
      </trkpt>
      <trkpt lat="44.02692" lon="3.51644">
        <ele>1353.1</ele>
        <time>2026-05-28T12:58:59.000Z</time>
      </trkpt>
      <trkpt lat="44.02691" lon="3.51643">
        <ele>1353.2</ele>
        <time>2026-05-28T12:59:00.000Z</time>
      </trkpt>
      <trkpt lat="44.0269" lon="3.51641">
        <ele>1353.3</ele>
        <time>2026-05-28T12:59:01.000Z</time>
      </trkpt>
      <trkpt lat="44.02689" lon="3.5164">
        <ele>1353</ele>
        <time>2026-05-28T12:59:02.000Z</time>
      </trkpt>
      <trkpt lat="44.02688" lon="3.51639">
        <ele>1352.7</ele>
        <time>2026-05-28T12:59:03.000Z</time>
      </trkpt>
      <trkpt lat="44.02687" lon="3.51639">
        <ele>1352.3</ele>
        <time>2026-05-28T12:59:04.000Z</time>
      </trkpt>
      <trkpt lat="44.02687" lon="3.51638">
        <ele>1352</ele>
        <time>2026-05-28T12:59:05.000Z</time>
      </trkpt>
      <trkpt lat="44.02685" lon="3.51638">
        <ele>1351.5</ele>
        <time>2026-05-28T12:59:06.000Z</time>
      </trkpt>
      <trkpt lat="44.02685" lon="3.51637">
        <ele>1351.6</ele>
        <time>2026-05-28T12:59:07.000Z</time>
      </trkpt>
      <trkpt lat="44.02684" lon="3.51637">
        <ele>1351.7</ele>
        <time>2026-05-28T12:59:08.000Z</time>
      </trkpt>
      <trkpt lat="44.02684" lon="3.51636">
        <ele>1351.8</ele>
        <time>2026-05-28T12:59:10.000Z</time>
      </trkpt>
      <trkpt lat="44.02683" lon="3.51636">
        <ele>1352.2</ele>
        <time>2026-05-28T12:59:11.000Z</time>
      </trkpt>
      <trkpt lat="44.02682" lon="3.51635">
        <ele>1352.3</ele>
        <time>2026-05-28T12:59:12.000Z</time>
      </trkpt>
      <trkpt lat="44.0268" lon="3.51633">
        <ele>1352.3</ele>
        <time>2026-05-28T12:59:13.000Z</time>
      </trkpt>
      <trkpt lat="44.02678" lon="3.51631">
        <ele>1351.7</ele>
        <time>2026-05-28T12:59:14.000Z</time>
      </trkpt>
      <trkpt lat="44.02677" lon="3.5163">
        <ele>1351.2</ele>
        <time>2026-05-28T12:59:15.000Z</time>
      </trkpt>
      <trkpt lat="44.02676" lon="3.51628">
        <ele>1350.8</ele>
        <time>2026-05-28T12:59:16.000Z</time>
      </trkpt>
      <trkpt lat="44.02675" lon="3.51626">
        <ele>1351.2</ele>
        <time>2026-05-28T12:59:17.000Z</time>
      </trkpt>
      <trkpt lat="44.02673" lon="3.51626">
        <ele>1351.4</ele>
        <time>2026-05-28T12:59:18.000Z</time>
      </trkpt>
      <trkpt lat="44.02672" lon="3.51625">
        <ele>1351.5</ele>
        <time>2026-05-28T12:59:19.000Z</time>
      </trkpt>
      <trkpt lat="44.02672" lon="3.51624">
        <ele>1351.4</ele>
        <time>2026-05-28T12:59:20.000Z</time>
      </trkpt>
      <trkpt lat="44.0267" lon="3.51623">
        <ele>1350.9</ele>
        <time>2026-05-28T12:59:21.000Z</time>
      </trkpt>
      <trkpt lat="44.02669" lon="3.51623">
        <ele>1350.8</ele>
        <time>2026-05-28T12:59:22.000Z</time>
      </trkpt>
      <trkpt lat="44.02668" lon="3.51623">
        <ele>1351.3</ele>
        <time>2026-05-28T12:59:23.000Z</time>
      </trkpt>
      <trkpt lat="44.02667" lon="3.51622">
        <ele>1352</ele>
        <time>2026-05-28T12:59:24.000Z</time>
      </trkpt>
      <trkpt lat="44.02665" lon="3.51622">
        <ele>1351.9</ele>
        <time>2026-05-28T12:59:25.000Z</time>
      </trkpt>
      <trkpt lat="44.02664" lon="3.51621">
        <ele>1351.8</ele>
        <time>2026-05-28T12:59:26.000Z</time>
      </trkpt>
      <trkpt lat="44.02664" lon="3.5162">
        <ele>1351.5</ele>
        <time>2026-05-28T12:59:27.000Z</time>
      </trkpt>
      <trkpt lat="44.02663" lon="3.51619">
        <ele>1351.6</ele>
        <time>2026-05-28T12:59:28.000Z</time>
      </trkpt>
      <trkpt lat="44.02662" lon="3.51618">
        <ele>1351.6</ele>
        <time>2026-05-28T12:59:29.000Z</time>
      </trkpt>
      <trkpt lat="44.02661" lon="3.51618">
        <ele>1351.5</ele>
        <time>2026-05-28T12:59:30.000Z</time>
      </trkpt>
      <trkpt lat="44.0266" lon="3.51618">
        <ele>1351.4</ele>
        <time>2026-05-28T12:59:31.000Z</time>
      </trkpt>
      <trkpt lat="44.0266" lon="3.51617">
        <ele>1351.1</ele>
        <time>2026-05-28T12:59:32.000Z</time>
      </trkpt>
      <trkpt lat="44.02659" lon="3.51615">
        <ele>1350.9</ele>
        <time>2026-05-28T12:59:33.000Z</time>
      </trkpt>
      <trkpt lat="44.02659" lon="3.51615">
        <ele>1350.2</ele>
        <time>2026-05-28T12:59:34.000Z</time>
      </trkpt>
      <trkpt lat="44.02658" lon="3.51614">
        <ele>1349.8</ele>
        <time>2026-05-28T12:59:35.000Z</time>
      </trkpt>
      <trkpt lat="44.02657" lon="3.51613">
        <ele>1349.3</ele>
        <time>2026-05-28T12:59:36.000Z</time>
      </trkpt>
      <trkpt lat="44.02656" lon="3.51612">
        <ele>1348.9</ele>
        <time>2026-05-28T12:59:37.000Z</time>
      </trkpt>
      <trkpt lat="44.02655" lon="3.51612">
        <ele>1348.8</ele>
        <time>2026-05-28T12:59:38.000Z</time>
      </trkpt>
      <trkpt lat="44.02654" lon="3.51611">
        <ele>1348.6</ele>
        <time>2026-05-28T12:59:39.000Z</time>
      </trkpt>
      <trkpt lat="44.02654" lon="3.5161">
        <ele>1348.5</ele>
        <time>2026-05-28T12:59:40.000Z</time>
      </trkpt>
      <trkpt lat="44.02653" lon="3.51608">
        <ele>1348.4</ele>
        <time>2026-05-28T12:59:41.000Z</time>
      </trkpt>
      <trkpt lat="44.02653" lon="3.51606">
        <ele>1347.9</ele>
        <time>2026-05-28T12:59:42.000Z</time>
      </trkpt>
      <trkpt lat="44.02653" lon="3.51605">
        <ele>1347.5</ele>
        <time>2026-05-28T12:59:43.000Z</time>
      </trkpt>
      <trkpt lat="44.02652" lon="3.51604">
        <ele>1347.3</ele>
        <time>2026-05-28T12:59:44.000Z</time>
      </trkpt>
      <trkpt lat="44.02652" lon="3.51604">
        <ele>1347.1</ele>
        <time>2026-05-28T12:59:45.000Z</time>
      </trkpt>
      <trkpt lat="44.02651" lon="3.51604">
        <ele>1346.4</ele>
        <time>2026-05-28T12:59:46.000Z</time>
      </trkpt>
      <trkpt lat="44.02651" lon="3.51603">
        <ele>1345.5</ele>
        <time>2026-05-28T12:59:47.000Z</time>
      </trkpt>
      <trkpt lat="44.0265" lon="3.51603">
        <ele>1344.9</ele>
        <time>2026-05-28T12:59:48.000Z</time>
      </trkpt>
      <trkpt lat="44.02649" lon="3.51602">
        <ele>1344.5</ele>
        <time>2026-05-28T12:59:49.000Z</time>
      </trkpt>
      <trkpt lat="44.02649" lon="3.51601">
        <ele>1343</ele>
        <time>2026-05-28T12:59:50.000Z</time>
      </trkpt>
      <trkpt lat="44.02648" lon="3.51599">
        <ele>1342.3</ele>
        <time>2026-05-28T12:59:51.000Z</time>
      </trkpt>
      <trkpt lat="44.02648" lon="3.51597">
        <ele>1341.9</ele>
        <time>2026-05-28T12:59:52.000Z</time>
      </trkpt>
      <trkpt lat="44.02647" lon="3.51595">
        <ele>1341.6</ele>
        <time>2026-05-28T12:59:53.000Z</time>
      </trkpt>
      <trkpt lat="44.02647" lon="3.51593">
        <ele>1341.7</ele>
        <time>2026-05-28T12:59:54.000Z</time>
      </trkpt>
      <trkpt lat="44.02646" lon="3.51592">
        <ele>1341.8</ele>
        <time>2026-05-28T12:59:55.000Z</time>
      </trkpt>
      <trkpt lat="44.02646" lon="3.5159">
        <ele>1341.3</ele>
        <time>2026-05-28T12:59:56.000Z</time>
      </trkpt>
      <trkpt lat="44.02646" lon="3.51588">
        <ele>1341</ele>
        <time>2026-05-28T12:59:57.000Z</time>
      </trkpt>
      <trkpt lat="44.02646" lon="3.51587">
        <ele>1340.5</ele>
        <time>2026-05-28T12:59:58.000Z</time>
      </trkpt>
      <trkpt lat="44.02646" lon="3.51585">
        <ele>1340.2</ele>
        <time>2026-05-28T12:59:59.000Z</time>
      </trkpt>
      <trkpt lat="44.02646" lon="3.51583">
        <ele>1340.4</ele>
        <time>2026-05-28T13:00:00.000Z</time>
      </trkpt>
      <trkpt lat="44.02645" lon="3.51581">
        <ele>1340.3</ele>
        <time>2026-05-28T13:00:01.000Z</time>
      </trkpt>
      <trkpt lat="44.02645" lon="3.51579">
        <ele>1340.1</ele>
        <time>2026-05-28T13:00:02.000Z</time>
      </trkpt>
      <trkpt lat="44.02645" lon="3.51577">
        <ele>1340.4</ele>
        <time>2026-05-28T13:00:03.000Z</time>
      </trkpt>
      <trkpt lat="44.02645" lon="3.51576">
        <ele>1340.2</ele>
        <time>2026-05-28T13:00:04.000Z</time>
      </trkpt>
      <trkpt lat="44.02644" lon="3.51574">
        <ele>1340.1</ele>
        <time>2026-05-28T13:00:05.000Z</time>
      </trkpt>
      <trkpt lat="44.02644" lon="3.51574">
        <ele>1340.1</ele>
        <time>2026-05-28T13:00:06.000Z</time>
      </trkpt>
      <trkpt lat="44.02642" lon="3.51572">
        <ele>1340</ele>
        <time>2026-05-28T13:00:07.000Z</time>
      </trkpt>
      <trkpt lat="44.02641" lon="3.51569">
        <ele>1340.2</ele>
        <time>2026-05-28T13:00:08.000Z</time>
      </trkpt>
      <trkpt lat="44.0264" lon="3.51567">
        <ele>1340.7</ele>
        <time>2026-05-28T13:00:09.000Z</time>
      </trkpt>
      <trkpt lat="44.02639" lon="3.51566">
        <ele>1341.3</ele>
        <time>2026-05-28T13:00:10.000Z</time>
      </trkpt>
      <trkpt lat="44.02639" lon="3.51565">
        <ele>1340.9</ele>
        <time>2026-05-28T13:00:11.000Z</time>
      </trkpt>
      <trkpt lat="44.02638" lon="3.51564">
        <ele>1341.1</ele>
        <time>2026-05-28T13:00:12.000Z</time>
      </trkpt>
      <trkpt lat="44.02638" lon="3.51563">
        <ele>1341.2</ele>
        <time>2026-05-28T13:00:13.000Z</time>
      </trkpt>
      <trkpt lat="44.02637" lon="3.51562">
        <ele>1341.4</ele>
        <time>2026-05-28T13:00:14.000Z</time>
      </trkpt>
      <trkpt lat="44.02636" lon="3.51561">
        <ele>1341.6</ele>
        <time>2026-05-28T13:00:15.000Z</time>
      </trkpt>
      <trkpt lat="44.02634" lon="3.51559">
        <ele>1341.8</ele>
        <time>2026-05-28T13:00:16.000Z</time>
      </trkpt>
      <trkpt lat="44.02633" lon="3.51556">
        <ele>1341.9</ele>
        <time>2026-05-28T13:00:17.000Z</time>
      </trkpt>
      <trkpt lat="44.02632" lon="3.51556">
        <ele>1341.9</ele>
        <time>2026-05-28T13:00:18.000Z</time>
      </trkpt>
      <trkpt lat="44.02631" lon="3.51555">
        <ele>1341.7</ele>
        <time>2026-05-28T13:00:19.000Z</time>
      </trkpt>
      <trkpt lat="44.02631" lon="3.51554">
        <ele>1341.5</ele>
        <time>2026-05-28T13:00:20.000Z</time>
      </trkpt>
      <trkpt lat="44.0263" lon="3.51553">
        <ele>1341.3</ele>
        <time>2026-05-28T13:00:21.000Z</time>
      </trkpt>
      <trkpt lat="44.02629" lon="3.51553">
        <ele>1341.1</ele>
        <time>2026-05-28T13:00:22.000Z</time>
      </trkpt>
      <trkpt lat="44.02628" lon="3.51553">
        <ele>1340.8</ele>
        <time>2026-05-28T13:00:23.000Z</time>
      </trkpt>
      <trkpt lat="44.02627" lon="3.51553">
        <ele>1340.8</ele>
        <time>2026-05-28T13:00:24.000Z</time>
      </trkpt>
      <trkpt lat="44.02626" lon="3.51552">
        <ele>1340.6</ele>
        <time>2026-05-28T13:00:25.000Z</time>
      </trkpt>
      <trkpt lat="44.02625" lon="3.51553">
        <ele>1340.1</ele>
        <time>2026-05-28T13:00:26.000Z</time>
      </trkpt>
      <trkpt lat="44.02624" lon="3.51552">
        <ele>1340.3</ele>
        <time>2026-05-28T13:00:27.000Z</time>
      </trkpt>
      <trkpt lat="44.02622" lon="3.51552">
        <ele>1339.6</ele>
        <time>2026-05-28T13:00:28.000Z</time>
      </trkpt>
      <trkpt lat="44.02621" lon="3.51553">
        <ele>1339.2</ele>
        <time>2026-05-28T13:00:29.000Z</time>
      </trkpt>
      <trkpt lat="44.0262" lon="3.51552">
        <ele>1339.3</ele>
        <time>2026-05-28T13:00:30.000Z</time>
      </trkpt>
      <trkpt lat="44.0262" lon="3.5155">
        <ele>1339.4</ele>
        <time>2026-05-28T13:00:31.000Z</time>
      </trkpt>
      <trkpt lat="44.02619" lon="3.51548">
        <ele>1339.6</ele>
        <time>2026-05-28T13:00:32.000Z</time>
      </trkpt>
      <trkpt lat="44.02619" lon="3.51546">
        <ele>1339.9</ele>
        <time>2026-05-28T13:00:33.000Z</time>
      </trkpt>
      <trkpt lat="44.02618" lon="3.51545">
        <ele>1340</ele>
        <time>2026-05-28T13:00:34.000Z</time>
      </trkpt>
      <trkpt lat="44.02618" lon="3.51543">
        <ele>1340.2</ele>
        <time>2026-05-28T13:00:35.000Z</time>
      </trkpt>
      <trkpt lat="44.02617" lon="3.51541">
        <ele>1340.4</ele>
        <time>2026-05-28T13:00:36.000Z</time>
      </trkpt>
      <trkpt lat="44.02617" lon="3.5154">
        <ele>1340.2</ele>
        <time>2026-05-28T13:00:37.000Z</time>
      </trkpt>
      <trkpt lat="44.02616" lon="3.51539">
        <ele>1340.4</ele>
        <time>2026-05-28T13:00:38.000Z</time>
      </trkpt>
      <trkpt lat="44.02616" lon="3.51538">
        <ele>1340.2</ele>
        <time>2026-05-28T13:00:39.000Z</time>
      </trkpt>
      <trkpt lat="44.02615" lon="3.51537">
        <ele>1340.3</ele>
        <time>2026-05-28T13:00:40.000Z</time>
      </trkpt>
      <trkpt lat="44.02613" lon="3.51537">
        <ele>1339.8</ele>
        <time>2026-05-28T13:00:41.000Z</time>
      </trkpt>
      <trkpt lat="44.02612" lon="3.51536">
        <ele>1339.2</ele>
        <time>2026-05-28T13:00:42.000Z</time>
      </trkpt>
      <trkpt lat="44.02611" lon="3.51535">
        <ele>1338.4</ele>
        <time>2026-05-28T13:00:43.000Z</time>
      </trkpt>
      <trkpt lat="44.0261" lon="3.51534">
        <ele>1338.4</ele>
        <time>2026-05-28T13:00:44.000Z</time>
      </trkpt>
      <trkpt lat="44.02609" lon="3.51533">
        <ele>1337.9</ele>
        <time>2026-05-28T13:00:45.000Z</time>
      </trkpt>
      <trkpt lat="44.02608" lon="3.51532">
        <ele>1338</ele>
        <time>2026-05-28T13:00:46.000Z</time>
      </trkpt>
      <trkpt lat="44.02607" lon="3.51531">
        <ele>1338.4</ele>
        <time>2026-05-28T13:00:47.000Z</time>
      </trkpt>
      <trkpt lat="44.02606" lon="3.51529">
        <ele>1338.9</ele>
        <time>2026-05-28T13:00:48.000Z</time>
      </trkpt>
      <trkpt lat="44.02606" lon="3.51527">
        <ele>1338.9</ele>
        <time>2026-05-28T13:00:49.000Z</time>
      </trkpt>
      <trkpt lat="44.02605" lon="3.51525">
        <ele>1339</ele>
        <time>2026-05-28T13:00:50.000Z</time>
      </trkpt>
      <trkpt lat="44.02605" lon="3.51524">
        <ele>1339.1</ele>
        <time>2026-05-28T13:00:51.000Z</time>
      </trkpt>
      <trkpt lat="44.02604" lon="3.51523">
        <ele>1339.3</ele>
        <time>2026-05-28T13:00:52.000Z</time>
      </trkpt>
      <trkpt lat="44.02604" lon="3.51522">
        <ele>1339.4</ele>
        <time>2026-05-28T13:00:53.000Z</time>
      </trkpt>
      <trkpt lat="44.02603" lon="3.51521">
        <ele>1339.2</ele>
        <time>2026-05-28T13:00:54.000Z</time>
      </trkpt>
      <trkpt lat="44.02603" lon="3.5152">
        <ele>1338.6</ele>
        <time>2026-05-28T13:00:55.000Z</time>
      </trkpt>
      <trkpt lat="44.02602" lon="3.51519">
        <ele>1338.5</ele>
        <time>2026-05-28T13:00:56.000Z</time>
      </trkpt>
      <trkpt lat="44.02602" lon="3.51518">
        <ele>1338.3</ele>
        <time>2026-05-28T13:00:57.000Z</time>
      </trkpt>
      <trkpt lat="44.02602" lon="3.51517">
        <ele>1337.9</ele>
        <time>2026-05-28T13:00:58.000Z</time>
      </trkpt>
      <trkpt lat="44.02601" lon="3.51516">
        <ele>1338</ele>
        <time>2026-05-28T13:00:59.000Z</time>
      </trkpt>
      <trkpt lat="44.02599" lon="3.51514">
        <ele>1338.3</ele>
        <time>2026-05-28T13:01:00.000Z</time>
      </trkpt>
      <trkpt lat="44.02598" lon="3.51512">
        <ele>1338.6</ele>
        <time>2026-05-28T13:01:01.000Z</time>
      </trkpt>
      <trkpt lat="44.02597" lon="3.51511">
        <ele>1338.7</ele>
        <time>2026-05-28T13:01:02.000Z</time>
      </trkpt>
      <trkpt lat="44.02597" lon="3.51509">
        <ele>1338.7</ele>
        <time>2026-05-28T13:01:03.000Z</time>
      </trkpt>
      <trkpt lat="44.02596" lon="3.51507">
        <ele>1338.4</ele>
        <time>2026-05-28T13:01:04.000Z</time>
      </trkpt>
      <trkpt lat="44.02596" lon="3.51506">
        <ele>1338.6</ele>
        <time>2026-05-28T13:01:05.000Z</time>
      </trkpt>
      <trkpt lat="44.02595" lon="3.51505">
        <ele>1338.4</ele>
        <time>2026-05-28T13:01:06.000Z</time>
      </trkpt>
      <trkpt lat="44.02595" lon="3.51505">
        <ele>1338</ele>
        <time>2026-05-28T13:01:07.000Z</time>
      </trkpt>
      <trkpt lat="44.02593" lon="3.51504">
        <ele>1337.6</ele>
        <time>2026-05-28T13:01:08.000Z</time>
      </trkpt>
      <trkpt lat="44.02592" lon="3.51504">
        <ele>1337.6</ele>
        <time>2026-05-28T13:01:09.000Z</time>
      </trkpt>
      <trkpt lat="44.02591" lon="3.51504">
        <ele>1337.7</ele>
        <time>2026-05-28T13:01:10.000Z</time>
      </trkpt>
      <trkpt lat="44.0259" lon="3.51504">
        <ele>1337.8</ele>
        <time>2026-05-28T13:01:11.000Z</time>
      </trkpt>
      <trkpt lat="44.02589" lon="3.51505">
        <ele>1337.6</ele>
        <time>2026-05-28T13:01:12.000Z</time>
      </trkpt>
      <trkpt lat="44.02588" lon="3.51505">
        <ele>1337.2</ele>
        <time>2026-05-28T13:01:13.000Z</time>
      </trkpt>
      <trkpt lat="44.02588" lon="3.51506">
        <ele>1336.7</ele>
        <time>2026-05-28T13:01:14.000Z</time>
      </trkpt>
      <trkpt lat="44.02587" lon="3.51506">
        <ele>1336.8</ele>
        <time>2026-05-28T13:01:15.000Z</time>
      </trkpt>
      <trkpt lat="44.02585" lon="3.51506">
        <ele>1336.9</ele>
        <time>2026-05-28T13:01:16.000Z</time>
      </trkpt>
      <trkpt lat="44.02584" lon="3.51506">
        <ele>1337.2</ele>
        <time>2026-05-28T13:01:17.000Z</time>
      </trkpt>
      <trkpt lat="44.02582" lon="3.51506">
        <ele>1337.3</ele>
        <time>2026-05-28T13:01:18.000Z</time>
      </trkpt>
      <trkpt lat="44.02581" lon="3.51506">
        <ele>1337.2</ele>
        <time>2026-05-28T13:01:19.000Z</time>
      </trkpt>
      <trkpt lat="44.0258" lon="3.51505">
        <ele>1337.7</ele>
        <time>2026-05-28T13:01:20.000Z</time>
      </trkpt>
      <trkpt lat="44.02579" lon="3.51506">
        <ele>1337.5</ele>
        <time>2026-05-28T13:01:21.000Z</time>
      </trkpt>
      <trkpt lat="44.02578" lon="3.51506">
        <ele>1337.6</ele>
        <time>2026-05-28T13:01:22.000Z</time>
      </trkpt>
      <trkpt lat="44.02576" lon="3.51507">
        <ele>1337.3</ele>
        <time>2026-05-28T13:01:23.000Z</time>
      </trkpt>
      <trkpt lat="44.02576" lon="3.51507">
        <ele>1337.7</ele>
        <time>2026-05-28T13:01:24.000Z</time>
      </trkpt>
      <trkpt lat="44.02574" lon="3.51507">
        <ele>1338.1</ele>
        <time>2026-05-28T13:01:25.000Z</time>
      </trkpt>
      <trkpt lat="44.02574" lon="3.51508">
        <ele>1338.5</ele>
        <time>2026-05-28T13:01:26.000Z</time>
      </trkpt>
      <trkpt lat="44.02573" lon="3.51508">
        <ele>1338.8</ele>
        <time>2026-05-28T13:01:27.000Z</time>
      </trkpt>
      <trkpt lat="44.02572" lon="3.51509">
        <ele>1338.8</ele>
        <time>2026-05-28T13:01:28.000Z</time>
      </trkpt>
      <trkpt lat="44.02572" lon="3.51509">
        <ele>1338.8</ele>
        <time>2026-05-28T13:01:29.000Z</time>
      </trkpt>
      <trkpt lat="44.02572" lon="3.51509">
        <ele>1339.2</ele>
        <time>2026-05-28T13:01:30.000Z</time>
      </trkpt>
      <trkpt lat="44.02572" lon="3.51509">
        <ele>1339.1</ele>
        <time>2026-05-28T13:01:31.000Z</time>
      </trkpt>
      <trkpt lat="44.02571" lon="3.51509">
        <ele>1338.7</ele>
        <time>2026-05-28T13:01:32.000Z</time>
      </trkpt>
      <trkpt lat="44.02571" lon="3.51509">
        <ele>1338.2</ele>
        <time>2026-05-28T13:01:33.000Z</time>
      </trkpt>
      <trkpt lat="44.02571" lon="3.51509">
        <ele>1337.7</ele>
        <time>2026-05-28T13:01:34.000Z</time>
      </trkpt>
      <trkpt lat="44.02569" lon="3.51509">
        <ele>1337.1</ele>
        <time>2026-05-28T13:01:35.000Z</time>
      </trkpt>
      <trkpt lat="44.02568" lon="3.51509">
        <ele>1336.8</ele>
        <time>2026-05-28T13:01:36.000Z</time>
      </trkpt>
      <trkpt lat="44.02567" lon="3.51509">
        <ele>1336.6</ele>
        <time>2026-05-28T13:01:37.000Z</time>
      </trkpt>
      <trkpt lat="44.02567" lon="3.51509">
        <ele>1336.3</ele>
        <time>2026-05-28T13:01:38.000Z</time>
      </trkpt>
      <trkpt lat="44.02566" lon="3.51509">
        <ele>1336.1</ele>
        <time>2026-05-28T13:01:39.000Z</time>
      </trkpt>
      <trkpt lat="44.02565" lon="3.5151">
        <ele>1335.8</ele>
        <time>2026-05-28T13:01:40.000Z</time>
      </trkpt>
      <trkpt lat="44.02564" lon="3.51512">
        <ele>1335.8</ele>
        <time>2026-05-28T13:01:41.000Z</time>
      </trkpt>
      <trkpt lat="44.02563" lon="3.51512">
        <ele>1335.6</ele>
        <time>2026-05-28T13:01:42.000Z</time>
      </trkpt>
      <trkpt lat="44.02563" lon="3.51512">
        <ele>1335.1</ele>
        <time>2026-05-28T13:01:43.000Z</time>
      </trkpt>
      <trkpt lat="44.02563" lon="3.51512">
        <ele>1334.8</ele>
        <time>2026-05-28T13:01:44.000Z</time>
      </trkpt>
      <trkpt lat="44.02562" lon="3.51513">
        <ele>1334.5</ele>
        <time>2026-05-28T13:01:45.000Z</time>
      </trkpt>
      <trkpt lat="44.02562" lon="3.51513">
        <ele>1334.4</ele>
        <time>2026-05-28T13:01:46.000Z</time>
      </trkpt>
      <trkpt lat="44.02561" lon="3.51514">
        <ele>1334.4</ele>
        <time>2026-05-28T13:01:47.000Z</time>
      </trkpt>
      <trkpt lat="44.02561" lon="3.51514">
        <ele>1334.2</ele>
        <time>2026-05-28T13:01:48.000Z</time>
      </trkpt>
      <trkpt lat="44.02559" lon="3.51516">
        <ele>1334</ele>
        <time>2026-05-28T13:01:49.000Z</time>
      </trkpt>
      <trkpt lat="44.02557" lon="3.51517">
        <ele>1333.9</ele>
        <time>2026-05-28T13:01:50.000Z</time>
      </trkpt>
      <trkpt lat="44.02555" lon="3.51518">
        <ele>1333.8</ele>
        <time>2026-05-28T13:01:51.000Z</time>
      </trkpt>
      <trkpt lat="44.02553" lon="3.51518">
        <ele>1334</ele>
        <time>2026-05-28T13:01:52.000Z</time>
      </trkpt>
      <trkpt lat="44.02551" lon="3.51518">
        <ele>1334.2</ele>
        <time>2026-05-28T13:01:53.000Z</time>
      </trkpt>
      <trkpt lat="44.02549" lon="3.51519">
        <ele>1334.7</ele>
        <time>2026-05-28T13:01:54.000Z</time>
      </trkpt>
      <trkpt lat="44.02547" lon="3.51521">
        <ele>1335.1</ele>
        <time>2026-05-28T13:01:55.000Z</time>
      </trkpt>
      <trkpt lat="44.02545" lon="3.51522">
        <ele>1336.1</ele>
        <time>2026-05-28T13:01:56.000Z</time>
      </trkpt>
      <trkpt lat="44.02544" lon="3.51523">
        <ele>1336.8</ele>
        <time>2026-05-28T13:01:57.000Z</time>
      </trkpt>
      <trkpt lat="44.02544" lon="3.51524">
        <ele>1337</ele>
        <time>2026-05-28T13:01:58.000Z</time>
      </trkpt>
      <trkpt lat="44.02543" lon="3.51524">
        <ele>1337.1</ele>
        <time>2026-05-28T13:01:59.000Z</time>
      </trkpt>
      <trkpt lat="44.02542" lon="3.51524">
        <ele>1337.4</ele>
        <time>2026-05-28T13:02:00.000Z</time>
      </trkpt>
      <trkpt lat="44.02541" lon="3.51524">
        <ele>1337.7</ele>
        <time>2026-05-28T13:02:01.000Z</time>
      </trkpt>
      <trkpt lat="44.02539" lon="3.51525">
        <ele>1338</ele>
        <time>2026-05-28T13:02:02.000Z</time>
      </trkpt>
      <trkpt lat="44.02538" lon="3.51526">
        <ele>1338.1</ele>
        <time>2026-05-28T13:02:03.000Z</time>
      </trkpt>
      <trkpt lat="44.02537" lon="3.51526">
        <ele>1338.6</ele>
        <time>2026-05-28T13:02:04.000Z</time>
      </trkpt>
      <trkpt lat="44.02536" lon="3.51527">
        <ele>1339.3</ele>
        <time>2026-05-28T13:02:05.000Z</time>
      </trkpt>
      <trkpt lat="44.02533" lon="3.51528">
        <ele>1340.3</ele>
        <time>2026-05-28T13:02:06.000Z</time>
      </trkpt>
      <trkpt lat="44.02532" lon="3.51528">
        <ele>1340.8</ele>
        <time>2026-05-28T13:02:07.000Z</time>
      </trkpt>
      <trkpt lat="44.02531" lon="3.51528">
        <ele>1341.1</ele>
        <time>2026-05-28T13:02:08.000Z</time>
      </trkpt>
      <trkpt lat="44.02529" lon="3.51528">
        <ele>1341.1</ele>
        <time>2026-05-28T13:02:09.000Z</time>
      </trkpt>
      <trkpt lat="44.02528" lon="3.51528">
        <ele>1340.8</ele>
        <time>2026-05-28T13:02:10.000Z</time>
      </trkpt>
      <trkpt lat="44.02527" lon="3.51528">
        <ele>1340.7</ele>
        <time>2026-05-28T13:02:11.000Z</time>
      </trkpt>
      <trkpt lat="44.02526" lon="3.51528">
        <ele>1340.7</ele>
        <time>2026-05-28T13:02:12.000Z</time>
      </trkpt>
      <trkpt lat="44.02524" lon="3.51528">
        <ele>1340.2</ele>
        <time>2026-05-28T13:02:13.000Z</time>
      </trkpt>
      <trkpt lat="44.02523" lon="3.51528">
        <ele>1340.1</ele>
        <time>2026-05-28T13:02:14.000Z</time>
      </trkpt>
      <trkpt lat="44.02522" lon="3.51527">
        <ele>1340</ele>
        <time>2026-05-28T13:02:15.000Z</time>
      </trkpt>
      <trkpt lat="44.02521" lon="3.51527">
        <ele>1339.7</ele>
        <time>2026-05-28T13:02:16.000Z</time>
      </trkpt>
      <trkpt lat="44.02521" lon="3.51527">
        <ele>1339.3</ele>
        <time>2026-05-28T13:02:17.000Z</time>
      </trkpt>
      <trkpt lat="44.0252" lon="3.51527">
        <ele>1339.5</ele>
        <time>2026-05-28T13:02:18.000Z</time>
      </trkpt>
      <trkpt lat="44.02519" lon="3.51528">
        <ele>1339.6</ele>
        <time>2026-05-28T13:02:19.000Z</time>
      </trkpt>
      <trkpt lat="44.02517" lon="3.51528">
        <ele>1339.8</ele>
        <time>2026-05-28T13:02:20.000Z</time>
      </trkpt>
      <trkpt lat="44.02516" lon="3.51529">
        <ele>1339.4</ele>
        <time>2026-05-28T13:02:21.000Z</time>
      </trkpt>
      <trkpt lat="44.02515" lon="3.5153">
        <ele>1339.4</ele>
        <time>2026-05-28T13:02:22.000Z</time>
      </trkpt>
      <trkpt lat="44.02514" lon="3.5153">
        <ele>1339.1</ele>
        <time>2026-05-28T13:02:23.000Z</time>
      </trkpt>
      <trkpt lat="44.02513" lon="3.5153">
        <ele>1338.9</ele>
        <time>2026-05-28T13:02:24.000Z</time>
      </trkpt>
      <trkpt lat="44.02512" lon="3.5153">
        <ele>1338.6</ele>
        <time>2026-05-28T13:02:25.000Z</time>
      </trkpt>
      <trkpt lat="44.02511" lon="3.5153">
        <ele>1338.3</ele>
        <time>2026-05-28T13:02:26.000Z</time>
      </trkpt>
      <trkpt lat="44.0251" lon="3.5153">
        <ele>1338.5</ele>
        <time>2026-05-28T13:02:27.000Z</time>
      </trkpt>
      <trkpt lat="44.02508" lon="3.51529">
        <ele>1338.5</ele>
        <time>2026-05-28T13:02:28.000Z</time>
      </trkpt>
      <trkpt lat="44.02507" lon="3.51529">
        <ele>1338.6</ele>
        <time>2026-05-28T13:02:29.000Z</time>
      </trkpt>
      <trkpt lat="44.02506" lon="3.51529">
        <ele>1338.8</ele>
        <time>2026-05-28T13:02:30.000Z</time>
      </trkpt>
      <trkpt lat="44.02504" lon="3.5153">
        <ele>1339.2</ele>
        <time>2026-05-28T13:02:31.000Z</time>
      </trkpt>
      <trkpt lat="44.02503" lon="3.5153">
        <ele>1339.3</ele>
        <time>2026-05-28T13:02:32.000Z</time>
      </trkpt>
      <trkpt lat="44.02503" lon="3.51529">
        <ele>1339.1</ele>
        <time>2026-05-28T13:02:33.000Z</time>
      </trkpt>
      <trkpt lat="44.02502" lon="3.51528">
        <ele>1338.7</ele>
        <time>2026-05-28T13:02:34.000Z</time>
      </trkpt>
      <trkpt lat="44.02502" lon="3.51527">
        <ele>1338.4</ele>
        <time>2026-05-28T13:02:35.000Z</time>
      </trkpt>
      <trkpt lat="44.02501" lon="3.51527">
        <ele>1338.1</ele>
        <time>2026-05-28T13:02:36.000Z</time>
      </trkpt>
      <trkpt lat="44.02501" lon="3.51526">
        <ele>1338.4</ele>
        <time>2026-05-28T13:02:37.000Z</time>
      </trkpt>
      <trkpt lat="44.025" lon="3.51525">
        <ele>1338</ele>
        <time>2026-05-28T13:02:38.000Z</time>
      </trkpt>
      <trkpt lat="44.025" lon="3.51524">
        <ele>1337.9</ele>
        <time>2026-05-28T13:02:39.000Z</time>
      </trkpt>
      <trkpt lat="44.025" lon="3.51522">
        <ele>1337.8</ele>
        <time>2026-05-28T13:02:40.000Z</time>
      </trkpt>
      <trkpt lat="44.02501" lon="3.51522">
        <ele>1337.1</ele>
        <time>2026-05-28T13:02:41.000Z</time>
      </trkpt>
      <trkpt lat="44.02501" lon="3.51521">
        <ele>1336.5</ele>
        <time>2026-05-28T13:02:42.000Z</time>
      </trkpt>
      <trkpt lat="44.02503" lon="3.5152">
        <ele>1336</ele>
        <time>2026-05-28T13:02:43.000Z</time>
      </trkpt>
      <trkpt lat="44.02504" lon="3.51519">
        <ele>1335.5</ele>
        <time>2026-05-28T13:02:44.000Z</time>
      </trkpt>
      <trkpt lat="44.02506" lon="3.51518">
        <ele>1334.9</ele>
        <time>2026-05-28T13:02:45.000Z</time>
      </trkpt>
      <trkpt lat="44.02507" lon="3.51517">
        <ele>1334.6</ele>
        <time>2026-05-28T13:02:46.000Z</time>
      </trkpt>
      <trkpt lat="44.02508" lon="3.51516">
        <ele>1334.3</ele>
        <time>2026-05-28T13:02:47.000Z</time>
      </trkpt>
      <trkpt lat="44.02508" lon="3.51516">
        <ele>1334.1</ele>
        <time>2026-05-28T13:02:48.000Z</time>
      </trkpt>
      <trkpt lat="44.02509" lon="3.51516">
        <ele>1333.8</ele>
        <time>2026-05-28T13:02:49.000Z</time>
      </trkpt>
      <trkpt lat="44.02511" lon="3.51515">
        <ele>1333.5</ele>
        <time>2026-05-28T13:02:50.000Z</time>
      </trkpt>
      <trkpt lat="44.02512" lon="3.51514">
        <ele>1333</ele>
        <time>2026-05-28T13:02:51.000Z</time>
      </trkpt>
      <trkpt lat="44.02513" lon="3.51514">
        <ele>1332.4</ele>
        <time>2026-05-28T13:02:52.000Z</time>
      </trkpt>
      <trkpt lat="44.02515" lon="3.51513">
        <ele>1332.2</ele>
        <time>2026-05-28T13:02:53.000Z</time>
      </trkpt>
      <trkpt lat="44.02516" lon="3.51512">
        <ele>1332.1</ele>
        <time>2026-05-28T13:02:54.000Z</time>
      </trkpt>
      <trkpt lat="44.02517" lon="3.51512">
        <ele>1331.8</ele>
        <time>2026-05-28T13:02:55.000Z</time>
      </trkpt>
      <trkpt lat="44.02519" lon="3.51513">
        <ele>1331.4</ele>
        <time>2026-05-28T13:02:56.000Z</time>
      </trkpt>
      <trkpt lat="44.0252" lon="3.51513">
        <ele>1331.2</ele>
        <time>2026-05-28T13:02:57.000Z</time>
      </trkpt>
      <trkpt lat="44.02522" lon="3.51513">
        <ele>1331</ele>
        <time>2026-05-28T13:02:58.000Z</time>
      </trkpt>
      <trkpt lat="44.02523" lon="3.51512">
        <ele>1331.5</ele>
        <time>2026-05-28T13:02:59.000Z</time>
      </trkpt>
      <trkpt lat="44.02524" lon="3.51512">
        <ele>1331.5</ele>
        <time>2026-05-28T13:03:00.000Z</time>
      </trkpt>
      <trkpt lat="44.02525" lon="3.51511">
        <ele>1331.7</ele>
        <time>2026-05-28T13:03:01.000Z</time>
      </trkpt>
      <trkpt lat="44.02526" lon="3.5151">
        <ele>1331.7</ele>
        <time>2026-05-28T13:03:02.000Z</time>
      </trkpt>
      <trkpt lat="44.02528" lon="3.51509">
        <ele>1331.7</ele>
        <time>2026-05-28T13:03:03.000Z</time>
      </trkpt>
      <trkpt lat="44.02529" lon="3.51509">
        <ele>1331.8</ele>
        <time>2026-05-28T13:03:04.000Z</time>
      </trkpt>
      <trkpt lat="44.0253" lon="3.51509">
        <ele>1331.6</ele>
        <time>2026-05-28T13:03:05.000Z</time>
      </trkpt>
      <trkpt lat="44.0253" lon="3.51509">
        <ele>1331.5</ele>
        <time>2026-05-28T13:03:06.000Z</time>
      </trkpt>
      <trkpt lat="44.02531" lon="3.51509">
        <ele>1331.4</ele>
        <time>2026-05-28T13:03:07.000Z</time>
      </trkpt>
      <trkpt lat="44.02532" lon="3.51509">
        <ele>1331.5</ele>
        <time>2026-05-28T13:03:08.000Z</time>
      </trkpt>
      <trkpt lat="44.02534" lon="3.51507">
        <ele>1331.4</ele>
        <time>2026-05-28T13:03:09.000Z</time>
      </trkpt>
      <trkpt lat="44.02535" lon="3.51507">
        <ele>1331.1</ele>
        <time>2026-05-28T13:03:10.000Z</time>
      </trkpt>
      <trkpt lat="44.02536" lon="3.51506">
        <ele>1330.6</ele>
        <time>2026-05-28T13:03:11.000Z</time>
      </trkpt>
      <trkpt lat="44.02537" lon="3.51505">
        <ele>1330.3</ele>
        <time>2026-05-28T13:03:12.000Z</time>
      </trkpt>
      <trkpt lat="44.02538" lon="3.51505">
        <ele>1330.1</ele>
        <time>2026-05-28T13:03:13.000Z</time>
      </trkpt>
      <trkpt lat="44.02539" lon="3.51504">
        <ele>1329.8</ele>
        <time>2026-05-28T13:03:14.000Z</time>
      </trkpt>
      <trkpt lat="44.0254" lon="3.51504">
        <ele>1329.6</ele>
        <time>2026-05-28T13:03:15.000Z</time>
      </trkpt>
      <trkpt lat="44.02541" lon="3.51504">
        <ele>1329.7</ele>
        <time>2026-05-28T13:03:16.000Z</time>
      </trkpt>
      <trkpt lat="44.02542" lon="3.51504">
        <ele>1329.7</ele>
        <time>2026-05-28T13:03:17.000Z</time>
      </trkpt>
      <trkpt lat="44.02544" lon="3.51503">
        <ele>1329.7</ele>
        <time>2026-05-28T13:03:18.000Z</time>
      </trkpt>
      <trkpt lat="44.02544" lon="3.51502">
        <ele>1329.7</ele>
        <time>2026-05-28T13:03:19.000Z</time>
      </trkpt>
      <trkpt lat="44.02545" lon="3.515">
        <ele>1329.9</ele>
        <time>2026-05-28T13:03:20.000Z</time>
      </trkpt>
      <trkpt lat="44.02545" lon="3.51499">
        <ele>1329.9</ele>
        <time>2026-05-28T13:03:21.000Z</time>
      </trkpt>
      <trkpt lat="44.02545" lon="3.51497">
        <ele>1330</ele>
        <time>2026-05-28T13:03:22.000Z</time>
      </trkpt>
      <trkpt lat="44.02545" lon="3.51496">
        <ele>1330.3</ele>
        <time>2026-05-28T13:03:23.000Z</time>
      </trkpt>
      <trkpt lat="44.02544" lon="3.51494">
        <ele>1330.6</ele>
        <time>2026-05-28T13:03:24.000Z</time>
      </trkpt>
      <trkpt lat="44.02544" lon="3.51493">
        <ele>1330.8</ele>
        <time>2026-05-28T13:03:25.000Z</time>
      </trkpt>
      <trkpt lat="44.02544" lon="3.51492">
        <ele>1331.3</ele>
        <time>2026-05-28T13:03:26.000Z</time>
      </trkpt>
      <trkpt lat="44.02544" lon="3.5149">
        <ele>1331.9</ele>
        <time>2026-05-28T13:03:27.000Z</time>
      </trkpt>
      <trkpt lat="44.02544" lon="3.51488">
        <ele>1332.5</ele>
        <time>2026-05-28T13:03:28.000Z</time>
      </trkpt>
      <trkpt lat="44.02544" lon="3.51487">
        <ele>1332.4</ele>
        <time>2026-05-28T13:03:29.000Z</time>
      </trkpt>
      <trkpt lat="44.02544" lon="3.51485">
        <ele>1332.4</ele>
        <time>2026-05-28T13:03:30.000Z</time>
      </trkpt>
      <trkpt lat="44.02544" lon="3.51484">
        <ele>1332.6</ele>
        <time>2026-05-28T13:03:31.000Z</time>
      </trkpt>
      <trkpt lat="44.02544" lon="3.51485">
        <ele>1331.5</ele>
        <time>2026-05-28T13:03:32.000Z</time>
      </trkpt>
      <trkpt lat="44.02543" lon="3.51486">
        <ele>1331.4</ele>
        <time>2026-05-28T13:03:33.000Z</time>
      </trkpt>
      <trkpt lat="44.02542" lon="3.51486">
        <ele>1330.9</ele>
        <time>2026-05-28T13:03:34.000Z</time>
      </trkpt>
      <trkpt lat="44.02541" lon="3.51486">
        <ele>1330.3</ele>
        <time>2026-05-28T13:03:35.000Z</time>
      </trkpt>
      <trkpt lat="44.02541" lon="3.51486">
        <ele>1329.7</ele>
        <time>2026-05-28T13:03:36.000Z</time>
      </trkpt>
      <trkpt lat="44.02541" lon="3.51487">
        <ele>1328.7</ele>
        <time>2026-05-28T13:03:37.000Z</time>
      </trkpt>
      <trkpt lat="44.0254" lon="3.51487">
        <ele>1328.4</ele>
        <time>2026-05-28T13:03:38.000Z</time>
      </trkpt>
      <trkpt lat="44.0254" lon="3.51488">
        <ele>1328</ele>
        <time>2026-05-28T13:03:39.000Z</time>
      </trkpt>
      <trkpt lat="44.02539" lon="3.51488">
        <ele>1327.8</ele>
        <time>2026-05-28T13:03:40.000Z</time>
      </trkpt>
      <trkpt lat="44.02538" lon="3.51488">
        <ele>1328.1</ele>
        <time>2026-05-28T13:03:41.000Z</time>
      </trkpt>
      <trkpt lat="44.02537" lon="3.51489">
        <ele>1328.4</ele>
        <time>2026-05-28T13:03:42.000Z</time>
      </trkpt>
      <trkpt lat="44.02535" lon="3.51488">
        <ele>1328.4</ele>
        <time>2026-05-28T13:03:43.000Z</time>
      </trkpt>
      <trkpt lat="44.02534" lon="3.51488">
        <ele>1328.6</ele>
        <time>2026-05-28T13:03:44.000Z</time>
      </trkpt>
      <trkpt lat="44.02533" lon="3.51488">
        <ele>1328.6</ele>
        <time>2026-05-28T13:03:45.000Z</time>
      </trkpt>
      <trkpt lat="44.02532" lon="3.51488">
        <ele>1328.5</ele>
        <time>2026-05-28T13:03:46.000Z</time>
      </trkpt>
      <trkpt lat="44.02531" lon="3.51488">
        <ele>1328.1</ele>
        <time>2026-05-28T13:03:47.000Z</time>
      </trkpt>
      <trkpt lat="44.0253" lon="3.51488">
        <ele>1327.8</ele>
        <time>2026-05-28T13:03:48.000Z</time>
      </trkpt>
      <trkpt lat="44.02529" lon="3.51488">
        <ele>1327.7</ele>
        <time>2026-05-28T13:03:49.000Z</time>
      </trkpt>
      <trkpt lat="44.02528" lon="3.51488">
        <ele>1327.7</ele>
        <time>2026-05-28T13:03:50.000Z</time>
      </trkpt>
      <trkpt lat="44.02527" lon="3.51488">
        <ele>1327.7</ele>
        <time>2026-05-28T13:03:51.000Z</time>
      </trkpt>
      <trkpt lat="44.02526" lon="3.51488">
        <ele>1327.6</ele>
        <time>2026-05-28T13:03:52.000Z</time>
      </trkpt>
      <trkpt lat="44.02525" lon="3.51489">
        <ele>1327.5</ele>
        <time>2026-05-28T13:03:53.000Z</time>
      </trkpt>
      <trkpt lat="44.02524" lon="3.51488">
        <ele>1327.5</ele>
        <time>2026-05-28T13:03:54.000Z</time>
      </trkpt>
      <trkpt lat="44.02524" lon="3.51489">
        <ele>1327.5</ele>
        <time>2026-05-28T13:03:55.000Z</time>
      </trkpt>
      <trkpt lat="44.02523" lon="3.5149">
        <ele>1328.2</ele>
        <time>2026-05-28T13:03:56.000Z</time>
      </trkpt>
      <trkpt lat="44.02522" lon="3.5149">
        <ele>1327.7</ele>
        <time>2026-05-28T13:03:57.000Z</time>
      </trkpt>
      <trkpt lat="44.02521" lon="3.51491">
        <ele>1327.5</ele>
        <time>2026-05-28T13:03:58.000Z</time>
      </trkpt>
      <trkpt lat="44.0252" lon="3.51491">
        <ele>1327.3</ele>
        <time>2026-05-28T13:03:59.000Z</time>
      </trkpt>
      <trkpt lat="44.02519" lon="3.51492">
        <ele>1327</ele>
        <time>2026-05-28T13:04:00.000Z</time>
      </trkpt>
      <trkpt lat="44.02518" lon="3.51492">
        <ele>1326.4</ele>
        <time>2026-05-28T13:04:01.000Z</time>
      </trkpt>
      <trkpt lat="44.02517" lon="3.51492">
        <ele>1326.2</ele>
        <time>2026-05-28T13:04:02.000Z</time>
      </trkpt>
      <trkpt lat="44.02516" lon="3.51492">
        <ele>1326.2</ele>
        <time>2026-05-28T13:04:03.000Z</time>
      </trkpt>
      <trkpt lat="44.02516" lon="3.51492">
        <ele>1326</ele>
        <time>2026-05-28T13:04:04.000Z</time>
      </trkpt>
      <trkpt lat="44.02515" lon="3.51492">
        <ele>1325.9</ele>
        <time>2026-05-28T13:04:05.000Z</time>
      </trkpt>
      <trkpt lat="44.02514" lon="3.51492">
        <ele>1326.1</ele>
        <time>2026-05-28T13:04:06.000Z</time>
      </trkpt>
      <trkpt lat="44.02513" lon="3.51492">
        <ele>1326.2</ele>
        <time>2026-05-28T13:04:07.000Z</time>
      </trkpt>
      <trkpt lat="44.02512" lon="3.51492">
        <ele>1326.3</ele>
        <time>2026-05-28T13:04:08.000Z</time>
      </trkpt>
      <trkpt lat="44.02511" lon="3.51492">
        <ele>1326.5</ele>
        <time>2026-05-28T13:04:09.000Z</time>
      </trkpt>
      <trkpt lat="44.02509" lon="3.51492">
        <ele>1326.6</ele>
        <time>2026-05-28T13:04:10.000Z</time>
      </trkpt>
      <trkpt lat="44.02508" lon="3.51491">
        <ele>1326.8</ele>
        <time>2026-05-28T13:04:11.000Z</time>
      </trkpt>
      <trkpt lat="44.02507" lon="3.5149">
        <ele>1326.9</ele>
        <time>2026-05-28T13:04:12.000Z</time>
      </trkpt>
      <trkpt lat="44.02506" lon="3.51489">
        <ele>1327.2</ele>
        <time>2026-05-28T13:04:13.000Z</time>
      </trkpt>
      <trkpt lat="44.02505" lon="3.51488">
        <ele>1327</ele>
        <time>2026-05-28T13:04:14.000Z</time>
      </trkpt>
      <trkpt lat="44.02504" lon="3.51487">
        <ele>1326.8</ele>
        <time>2026-05-28T13:04:15.000Z</time>
      </trkpt>
      <trkpt lat="44.02503" lon="3.51486">
        <ele>1326.6</ele>
        <time>2026-05-28T13:04:16.000Z</time>
      </trkpt>
      <trkpt lat="44.02502" lon="3.51486">
        <ele>1326.5</ele>
        <time>2026-05-28T13:04:17.000Z</time>
      </trkpt>
      <trkpt lat="44.02501" lon="3.51487">
        <ele>1326.2</ele>
        <time>2026-05-28T13:04:18.000Z</time>
      </trkpt>
      <trkpt lat="44.025" lon="3.51488">
        <ele>1326.1</ele>
        <time>2026-05-28T13:04:19.000Z</time>
      </trkpt>
      <trkpt lat="44.02499" lon="3.51488">
        <ele>1326</ele>
        <time>2026-05-28T13:04:20.000Z</time>
      </trkpt>
      <trkpt lat="44.02498" lon="3.51488">
        <ele>1326.1</ele>
        <time>2026-05-28T13:04:21.000Z</time>
      </trkpt>
      <trkpt lat="44.02497" lon="3.51488">
        <ele>1326.1</ele>
        <time>2026-05-28T13:04:22.000Z</time>
      </trkpt>
      <trkpt lat="44.02496" lon="3.51489">
        <ele>1326</ele>
        <time>2026-05-28T13:04:23.000Z</time>
      </trkpt>
      <trkpt lat="44.02495" lon="3.51489">
        <ele>1325.6</ele>
        <time>2026-05-28T13:04:24.000Z</time>
      </trkpt>
      <trkpt lat="44.02494" lon="3.51489">
        <ele>1325.5</ele>
        <time>2026-05-28T13:04:25.000Z</time>
      </trkpt>
      <trkpt lat="44.02493" lon="3.51489">
        <ele>1325.5</ele>
        <time>2026-05-28T13:04:26.000Z</time>
      </trkpt>
      <trkpt lat="44.02493" lon="3.51489">
        <ele>1325.5</ele>
        <time>2026-05-28T13:04:27.000Z</time>
      </trkpt>
      <trkpt lat="44.02492" lon="3.5149">
        <ele>1325.1</ele>
        <time>2026-05-28T13:04:28.000Z</time>
      </trkpt>
      <trkpt lat="44.02491" lon="3.5149">
        <ele>1324.9</ele>
        <time>2026-05-28T13:04:29.000Z</time>
      </trkpt>
      <trkpt lat="44.0249" lon="3.51492">
        <ele>1324.9</ele>
        <time>2026-05-28T13:04:30.000Z</time>
      </trkpt>
      <trkpt lat="44.02489" lon="3.51493">
        <ele>1324.8</ele>
        <time>2026-05-28T13:04:31.000Z</time>
      </trkpt>
      <trkpt lat="44.02489" lon="3.51494">
        <ele>1324.6</ele>
        <time>2026-05-28T13:04:32.000Z</time>
      </trkpt>
      <trkpt lat="44.02488" lon="3.51495">
        <ele>1324.4</ele>
        <time>2026-05-28T13:04:33.000Z</time>
      </trkpt>
      <trkpt lat="44.02488" lon="3.51496">
        <ele>1324.4</ele>
        <time>2026-05-28T13:04:34.000Z</time>
      </trkpt>
      <trkpt lat="44.02488" lon="3.51496">
        <ele>1324.6</ele>
        <time>2026-05-28T13:04:35.000Z</time>
      </trkpt>
      <trkpt lat="44.02487" lon="3.51497">
        <ele>1324.8</ele>
        <time>2026-05-28T13:04:36.000Z</time>
      </trkpt>
      <trkpt lat="44.02487" lon="3.51498">
        <ele>1324.9</ele>
        <time>2026-05-28T13:04:37.000Z</time>
      </trkpt>
      <trkpt lat="44.02486" lon="3.51498">
        <ele>1325.1</ele>
        <time>2026-05-28T13:04:38.000Z</time>
      </trkpt>
      <trkpt lat="44.02487" lon="3.51498">
        <ele>1325.3</ele>
        <time>2026-05-28T13:04:39.000Z</time>
      </trkpt>
      <trkpt lat="44.02487" lon="3.51498">
        <ele>1325.4</ele>
        <time>2026-05-28T13:04:40.000Z</time>
      </trkpt>
      <trkpt lat="44.02487" lon="3.51498">
        <ele>1325.3</ele>
        <time>2026-05-28T13:04:41.000Z</time>
      </trkpt>
      <trkpt lat="44.02487" lon="3.51498">
        <ele>1325.3</ele>
        <time>2026-05-28T13:04:42.000Z</time>
      </trkpt>
      <trkpt lat="44.02487" lon="3.51498">
        <ele>1325.1</ele>
        <time>2026-05-28T13:04:43.000Z</time>
      </trkpt>
      <trkpt lat="44.02487" lon="3.51499">
        <ele>1325.1</ele>
        <time>2026-05-28T13:04:44.000Z</time>
      </trkpt>
      <trkpt lat="44.02487" lon="3.51499">
        <ele>1324.8</ele>
        <time>2026-05-28T13:04:45.000Z</time>
      </trkpt>
      <trkpt lat="44.02487" lon="3.51499">
        <ele>1324.6</ele>
        <time>2026-05-28T13:04:46.000Z</time>
      </trkpt>
      <trkpt lat="44.02487" lon="3.51499">
        <ele>1324.7</ele>
        <time>2026-05-28T13:04:47.000Z</time>
      </trkpt>
      <trkpt lat="44.02486" lon="3.51499">
        <ele>1324.5</ele>
        <time>2026-05-28T13:04:48.000Z</time>
      </trkpt>
      <trkpt lat="44.02485" lon="3.51499">
        <ele>1324.4</ele>
        <time>2026-05-28T13:04:49.000Z</time>
      </trkpt>
      <trkpt lat="44.02483" lon="3.515">
        <ele>1324.7</ele>
        <time>2026-05-28T13:04:50.000Z</time>
      </trkpt>
      <trkpt lat="44.02482" lon="3.51501">
        <ele>1324.9</ele>
        <time>2026-05-28T13:04:51.000Z</time>
      </trkpt>
      <trkpt lat="44.02481" lon="3.51502">
        <ele>1325</ele>
        <time>2026-05-28T13:04:52.000Z</time>
      </trkpt>
      <trkpt lat="44.0248" lon="3.51504">
        <ele>1325.2</ele>
        <time>2026-05-28T13:04:53.000Z</time>
      </trkpt>
      <trkpt lat="44.02479" lon="3.51506">
        <ele>1325.1</ele>
        <time>2026-05-28T13:04:54.000Z</time>
      </trkpt>
      <trkpt lat="44.02479" lon="3.51507">
        <ele>1325.2</ele>
        <time>2026-05-28T13:04:55.000Z</time>
      </trkpt>
      <trkpt lat="44.02478" lon="3.51509">
        <ele>1325.3</ele>
        <time>2026-05-28T13:04:56.000Z</time>
      </trkpt>
      <trkpt lat="44.02477" lon="3.5151">
        <ele>1325.5</ele>
        <time>2026-05-28T13:04:57.000Z</time>
      </trkpt>
      <trkpt lat="44.02476" lon="3.5151">
        <ele>1325.6</ele>
        <time>2026-05-28T13:04:58.000Z</time>
      </trkpt>
      <trkpt lat="44.02475" lon="3.51511">
        <ele>1325.5</ele>
        <time>2026-05-28T13:04:59.000Z</time>
      </trkpt>
      <trkpt lat="44.02474" lon="3.51511">
        <ele>1325.6</ele>
        <time>2026-05-28T13:05:00.000Z</time>
      </trkpt>
      <trkpt lat="44.02473" lon="3.51512">
        <ele>1325.6</ele>
        <time>2026-05-28T13:05:01.000Z</time>
      </trkpt>
      <trkpt lat="44.02472" lon="3.51512">
        <ele>1325.7</ele>
        <time>2026-05-28T13:05:02.000Z</time>
      </trkpt>
      <trkpt lat="44.02471" lon="3.51511">
        <ele>1325.8</ele>
        <time>2026-05-28T13:05:03.000Z</time>
      </trkpt>
      <trkpt lat="44.0247" lon="3.5151">
        <ele>1325.9</ele>
        <time>2026-05-28T13:05:04.000Z</time>
      </trkpt>
      <trkpt lat="44.02469" lon="3.5151">
        <ele>1326</ele>
        <time>2026-05-28T13:05:05.000Z</time>
      </trkpt>
      <trkpt lat="44.02468" lon="3.51509">
        <ele>1326.1</ele>
        <time>2026-05-28T13:05:06.000Z</time>
      </trkpt>
      <trkpt lat="44.02467" lon="3.51508">
        <ele>1326.2</ele>
        <time>2026-05-28T13:05:07.000Z</time>
      </trkpt>
      <trkpt lat="44.02464" lon="3.51505">
        <ele>1326.2</ele>
        <time>2026-05-28T13:05:09.000Z</time>
      </trkpt>
      <trkpt lat="44.02464" lon="3.51503">
        <ele>1326.2</ele>
        <time>2026-05-28T13:05:10.000Z</time>
      </trkpt>
      <trkpt lat="44.02464" lon="3.51501">
        <ele>1325.8</ele>
        <time>2026-05-28T13:05:11.000Z</time>
      </trkpt>
      <trkpt lat="44.02464" lon="3.51499">
        <ele>1325.7</ele>
        <time>2026-05-28T13:05:12.000Z</time>
      </trkpt>
      <trkpt lat="44.02465" lon="3.51496">
        <ele>1324.7</ele>
        <time>2026-05-28T13:05:13.000Z</time>
      </trkpt>
      <trkpt lat="44.02465" lon="3.51494">
        <ele>1324.9</ele>
        <time>2026-05-28T13:05:14.000Z</time>
      </trkpt>
      <trkpt lat="44.02465" lon="3.51492">
        <ele>1324.7</ele>
        <time>2026-05-28T13:05:15.000Z</time>
      </trkpt>
      <trkpt lat="44.02467" lon="3.51492">
        <ele>1323.6</ele>
        <time>2026-05-28T13:05:16.000Z</time>
      </trkpt>
      <trkpt lat="44.02468" lon="3.51491">
        <ele>1322.8</ele>
        <time>2026-05-28T13:05:17.000Z</time>
      </trkpt>
      <trkpt lat="44.02469" lon="3.51489">
        <ele>1322.7</ele>
        <time>2026-05-28T13:05:18.000Z</time>
      </trkpt>
      <trkpt lat="44.0247" lon="3.51488">
        <ele>1322.8</ele>
        <time>2026-05-28T13:05:19.000Z</time>
      </trkpt>
      <trkpt lat="44.0247" lon="3.51487">
        <ele>1322.8</ele>
        <time>2026-05-28T13:05:20.000Z</time>
      </trkpt>
      <trkpt lat="44.02471" lon="3.51486">
        <ele>1323.1</ele>
        <time>2026-05-28T13:05:21.000Z</time>
      </trkpt>
      <trkpt lat="44.02472" lon="3.51484">
        <ele>1323</ele>
        <time>2026-05-28T13:05:22.000Z</time>
      </trkpt>
      <trkpt lat="44.02472" lon="3.51483">
        <ele>1322.7</ele>
        <time>2026-05-28T13:05:23.000Z</time>
      </trkpt>
      <trkpt lat="44.02473" lon="3.51481">
        <ele>1322.6</ele>
        <time>2026-05-28T13:05:24.000Z</time>
      </trkpt>
      <trkpt lat="44.02473" lon="3.5148">
        <ele>1322.4</ele>
        <time>2026-05-28T13:05:25.000Z</time>
      </trkpt>
      <trkpt lat="44.02474" lon="3.51479">
        <ele>1322</ele>
        <time>2026-05-28T13:05:26.000Z</time>
      </trkpt>
      <trkpt lat="44.02475" lon="3.51479">
        <ele>1321.7</ele>
        <time>2026-05-28T13:05:27.000Z</time>
      </trkpt>
      <trkpt lat="44.02475" lon="3.51478">
        <ele>1321.2</ele>
        <time>2026-05-28T13:05:28.000Z</time>
      </trkpt>
      <trkpt lat="44.02476" lon="3.51476">
        <ele>1321.2</ele>
        <time>2026-05-28T13:05:29.000Z</time>
      </trkpt>
      <trkpt lat="44.02476" lon="3.51476">
        <ele>1321.2</ele>
        <time>2026-05-28T13:05:30.000Z</time>
      </trkpt>
      <trkpt lat="44.02477" lon="3.51475">
        <ele>1321.8</ele>
        <time>2026-05-28T13:05:31.000Z</time>
      </trkpt>
      <trkpt lat="44.02478" lon="3.51473">
        <ele>1321.9</ele>
        <time>2026-05-28T13:05:32.000Z</time>
      </trkpt>
      <trkpt lat="44.02479" lon="3.51472">
        <ele>1322</ele>
        <time>2026-05-28T13:05:33.000Z</time>
      </trkpt>
      <trkpt lat="44.02479" lon="3.51469">
        <ele>1322.3</ele>
        <time>2026-05-28T13:05:34.000Z</time>
      </trkpt>
      <trkpt lat="44.02479" lon="3.51468">
        <ele>1322.2</ele>
        <time>2026-05-28T13:05:35.000Z</time>
      </trkpt>
      <trkpt lat="44.02479" lon="3.51465">
        <ele>1321.8</ele>
        <time>2026-05-28T13:05:36.000Z</time>
      </trkpt>
      <trkpt lat="44.0248" lon="3.51464">
        <ele>1321.6</ele>
        <time>2026-05-28T13:05:37.000Z</time>
      </trkpt>
      <trkpt lat="44.0248" lon="3.51462">
        <ele>1321.6</ele>
        <time>2026-05-28T13:05:38.000Z</time>
      </trkpt>
      <trkpt lat="44.0248" lon="3.51461">
        <ele>1321.7</ele>
        <time>2026-05-28T13:05:39.000Z</time>
      </trkpt>
      <trkpt lat="44.0248" lon="3.5146">
        <ele>1321.7</ele>
        <time>2026-05-28T13:05:40.000Z</time>
      </trkpt>
      <trkpt lat="44.02479" lon="3.51459">
        <ele>1321.5</ele>
        <time>2026-05-28T13:05:41.000Z</time>
      </trkpt>
      <trkpt lat="44.02479" lon="3.51457">
        <ele>1321.6</ele>
        <time>2026-05-28T13:05:42.000Z</time>
      </trkpt>
      <trkpt lat="44.0248" lon="3.51456">
        <ele>1320.9</ele>
        <time>2026-05-28T13:05:43.000Z</time>
      </trkpt>
      <trkpt lat="44.0248" lon="3.51455">
        <ele>1320.3</ele>
        <time>2026-05-28T13:05:44.000Z</time>
      </trkpt>
      <trkpt lat="44.0248" lon="3.51453">
        <ele>1320.4</ele>
        <time>2026-05-28T13:05:45.000Z</time>
      </trkpt>
      <trkpt lat="44.0248" lon="3.51451">
        <ele>1320.4</ele>
        <time>2026-05-28T13:05:46.000Z</time>
      </trkpt>
      <trkpt lat="44.02479" lon="3.51449">
        <ele>1320.2</ele>
        <time>2026-05-28T13:05:47.000Z</time>
      </trkpt>
      <trkpt lat="44.02478" lon="3.51447">
        <ele>1319.9</ele>
        <time>2026-05-28T13:05:48.000Z</time>
      </trkpt>
      <trkpt lat="44.02477" lon="3.51446">
        <ele>1319.8</ele>
        <time>2026-05-28T13:05:49.000Z</time>
      </trkpt>
      <trkpt lat="44.02476" lon="3.51444">
        <ele>1319.8</ele>
        <time>2026-05-28T13:05:50.000Z</time>
      </trkpt>
      <trkpt lat="44.02476" lon="3.51443">
        <ele>1320.1</ele>
        <time>2026-05-28T13:05:51.000Z</time>
      </trkpt>
      <trkpt lat="44.02476" lon="3.51441">
        <ele>1319.6</ele>
        <time>2026-05-28T13:05:52.000Z</time>
      </trkpt>
      <trkpt lat="44.02476" lon="3.51439">
        <ele>1319.1</ele>
        <time>2026-05-28T13:05:53.000Z</time>
      </trkpt>
      <trkpt lat="44.02476" lon="3.51437">
        <ele>1319.2</ele>
        <time>2026-05-28T13:05:54.000Z</time>
      </trkpt>
      <trkpt lat="44.02475" lon="3.51435">
        <ele>1319.2</ele>
        <time>2026-05-28T13:05:55.000Z</time>
      </trkpt>
      <trkpt lat="44.02474" lon="3.51434">
        <ele>1319.3</ele>
        <time>2026-05-28T13:05:56.000Z</time>
      </trkpt>
      <trkpt lat="44.02474" lon="3.51431">
        <ele>1319.5</ele>
        <time>2026-05-28T13:05:57.000Z</time>
      </trkpt>
      <trkpt lat="44.02474" lon="3.51428">
        <ele>1319.5</ele>
        <time>2026-05-28T13:05:58.000Z</time>
      </trkpt>
      <trkpt lat="44.02473" lon="3.51426">
        <ele>1319.3</ele>
        <time>2026-05-28T13:05:59.000Z</time>
      </trkpt>
      <trkpt lat="44.02473" lon="3.51424">
        <ele>1319.3</ele>
        <time>2026-05-28T13:06:00.000Z</time>
      </trkpt>
      <trkpt lat="44.02473" lon="3.51424">
        <ele>1320</ele>
        <time>2026-05-28T13:06:01.000Z</time>
      </trkpt>
      <trkpt lat="44.02473" lon="3.51424">
        <ele>1319.9</ele>
        <time>2026-05-28T13:06:02.000Z</time>
      </trkpt>
      <trkpt lat="44.02473" lon="3.51423">
        <ele>1319.8</ele>
        <time>2026-05-28T13:06:03.000Z</time>
      </trkpt>
      <trkpt lat="44.02473" lon="3.51422">
        <ele>1319.9</ele>
        <time>2026-05-28T13:06:04.000Z</time>
      </trkpt>
      <trkpt lat="44.02473" lon="3.51421">
        <ele>1319.8</ele>
        <time>2026-05-28T13:06:05.000Z</time>
      </trkpt>
      <trkpt lat="44.02473" lon="3.51419">
        <ele>1319.8</ele>
        <time>2026-05-28T13:06:06.000Z</time>
      </trkpt>
      <trkpt lat="44.02473" lon="3.51419">
        <ele>1319.7</ele>
        <time>2026-05-28T13:06:07.000Z</time>
      </trkpt>
      <trkpt lat="44.02473" lon="3.51419">
        <ele>1319.7</ele>
        <time>2026-05-28T13:06:08.000Z</time>
      </trkpt>
      <trkpt lat="44.02473" lon="3.51419">
        <ele>1319.5</ele>
        <time>2026-05-28T13:06:09.000Z</time>
      </trkpt>
      <trkpt lat="44.02474" lon="3.51418">
        <ele>1319.6</ele>
        <time>2026-05-28T13:06:10.000Z</time>
      </trkpt>
      <trkpt lat="44.02473" lon="3.51418">
        <ele>1319.7</ele>
        <time>2026-05-28T13:06:11.000Z</time>
      </trkpt>
      <trkpt lat="44.02473" lon="3.51418">
        <ele>1319.5</ele>
        <time>2026-05-28T13:06:12.000Z</time>
      </trkpt>
      <trkpt lat="44.02473" lon="3.51418">
        <ele>1319.6</ele>
        <time>2026-05-28T13:06:13.000Z</time>
      </trkpt>
      <trkpt lat="44.02473" lon="3.51418">
        <ele>1319.7</ele>
        <time>2026-05-28T13:06:14.000Z</time>
      </trkpt>
      <trkpt lat="44.02473" lon="3.51417">
        <ele>1319.7</ele>
        <time>2026-05-28T13:06:15.000Z</time>
      </trkpt>
      <trkpt lat="44.02473" lon="3.51417">
        <ele>1319.9</ele>
        <time>2026-05-28T13:06:16.000Z</time>
      </trkpt>
      <trkpt lat="44.02473" lon="3.51416">
        <ele>1319.9</ele>
        <time>2026-05-28T13:06:17.000Z</time>
      </trkpt>
      <trkpt lat="44.02473" lon="3.51416">
        <ele>1319.8</ele>
        <time>2026-05-28T13:06:18.000Z</time>
      </trkpt>
      <trkpt lat="44.02473" lon="3.51415">
        <ele>1319.4</ele>
        <time>2026-05-28T13:06:19.000Z</time>
      </trkpt>
      <trkpt lat="44.02472" lon="3.51415">
        <ele>1319.9</ele>
        <time>2026-05-28T13:06:20.000Z</time>
      </trkpt>
      <trkpt lat="44.02472" lon="3.51415">
        <ele>1319.7</ele>
        <time>2026-05-28T13:06:21.000Z</time>
      </trkpt>
      <trkpt lat="44.02472" lon="3.51414">
        <ele>1319.7</ele>
        <time>2026-05-28T13:06:22.000Z</time>
      </trkpt>
      <trkpt lat="44.02472" lon="3.51414">
        <ele>1320</ele>
        <time>2026-05-28T13:06:23.000Z</time>
      </trkpt>
      <trkpt lat="44.02472" lon="3.51414">
        <ele>1320.2</ele>
        <time>2026-05-28T13:06:24.000Z</time>
      </trkpt>
      <trkpt lat="44.02471" lon="3.51413">
        <ele>1320.1</ele>
        <time>2026-05-28T13:06:25.000Z</time>
      </trkpt>
      <trkpt lat="44.02471" lon="3.51413">
        <ele>1319.6</ele>
        <time>2026-05-28T13:06:26.000Z</time>
      </trkpt>
      <trkpt lat="44.02471" lon="3.51412">
        <ele>1319.4</ele>
        <time>2026-05-28T13:06:27.000Z</time>
      </trkpt>
      <trkpt lat="44.0247" lon="3.51412">
        <ele>1319.3</ele>
        <time>2026-05-28T13:06:28.000Z</time>
      </trkpt>
      <trkpt lat="44.0247" lon="3.51411">
        <ele>1319.3</ele>
        <time>2026-05-28T13:06:29.000Z</time>
      </trkpt>
      <trkpt lat="44.0247" lon="3.51411">
        <ele>1318.9</ele>
        <time>2026-05-28T13:06:30.000Z</time>
      </trkpt>
      <trkpt lat="44.02469" lon="3.5141">
        <ele>1318.7</ele>
        <time>2026-05-28T13:06:31.000Z</time>
      </trkpt>
      <trkpt lat="44.02468" lon="3.51408">
        <ele>1319.2</ele>
        <time>2026-05-28T13:06:32.000Z</time>
      </trkpt>
      <trkpt lat="44.02464" lon="3.51403">
        <ele>1318.9</ele>
        <time>2026-05-28T13:06:33.000Z</time>
      </trkpt>
      <trkpt lat="44.02461" lon="3.51401">
        <ele>1319.2</ele>
        <time>2026-05-28T13:06:34.000Z</time>
      </trkpt>
      <trkpt lat="44.02458" lon="3.51397">
        <ele>1319.7</ele>
        <time>2026-05-28T13:06:35.000Z</time>
      </trkpt>
      <trkpt lat="44.02456" lon="3.51392">
        <ele>1320.1</ele>
        <time>2026-05-28T13:06:36.000Z</time>
      </trkpt>
      <trkpt lat="44.02453" lon="3.51389">
        <ele>1319.7</ele>
        <time>2026-05-28T13:06:37.000Z</time>
      </trkpt>
      <trkpt lat="44.0245" lon="3.51382">
        <ele>1319</ele>
        <time>2026-05-28T13:06:38.999Z</time>
      </trkpt>
      <trkpt lat="44.02448" lon="3.51381">
        <ele>1318.5</ele>
        <time>2026-05-28T13:06:39.999Z</time>
      </trkpt>
      <trkpt lat="44.02447" lon="3.51379">
        <ele>1318.4</ele>
        <time>2026-05-28T13:06:40.999Z</time>
      </trkpt>
      <trkpt lat="44.02445" lon="3.51377">
        <ele>1318.5</ele>
        <time>2026-05-28T13:06:41.999Z</time>
      </trkpt>
      <trkpt lat="44.02443" lon="3.51376">
        <ele>1318.2</ele>
        <time>2026-05-28T13:06:42.999Z</time>
      </trkpt>
      <trkpt lat="44.02442" lon="3.51374">
        <ele>1318.1</ele>
        <time>2026-05-28T13:06:43.999Z</time>
      </trkpt>
      <trkpt lat="44.02441" lon="3.51374">
        <ele>1318.6</ele>
        <time>2026-05-28T13:06:44.999Z</time>
      </trkpt>
      <trkpt lat="44.02441" lon="3.51373">
        <ele>1318.5</ele>
        <time>2026-05-28T13:06:45.999Z</time>
      </trkpt>
      <trkpt lat="44.02441" lon="3.51373">
        <ele>1318.6</ele>
        <time>2026-05-28T13:06:46.999Z</time>
      </trkpt>
      <trkpt lat="44.0244" lon="3.51373">
        <ele>1318.8</ele>
        <time>2026-05-28T13:06:47.999Z</time>
      </trkpt>
      <trkpt lat="44.0244" lon="3.51373">
        <ele>1318.5</ele>
        <time>2026-05-28T13:06:48.999Z</time>
      </trkpt>
      <trkpt lat="44.0244" lon="3.51372">
        <ele>1318.3</ele>
        <time>2026-05-28T13:06:49.999Z</time>
      </trkpt>
      <trkpt lat="44.0244" lon="3.51372">
        <ele>1318.2</ele>
        <time>2026-05-28T13:06:50.999Z</time>
      </trkpt>
      <trkpt lat="44.0244" lon="3.51372">
        <ele>1318.1</ele>
        <time>2026-05-28T13:06:51.999Z</time>
      </trkpt>
      <trkpt lat="44.02439" lon="3.51371">
        <ele>1318.2</ele>
        <time>2026-05-28T13:06:52.999Z</time>
      </trkpt>
      <trkpt lat="44.02439" lon="3.51371">
        <ele>1318.6</ele>
        <time>2026-05-28T13:06:53.999Z</time>
      </trkpt>
      <trkpt lat="44.02439" lon="3.51371">
        <ele>1318.5</ele>
        <time>2026-05-28T13:06:54.999Z</time>
      </trkpt>
      <trkpt lat="44.02439" lon="3.51371">
        <ele>1318.3</ele>
        <time>2026-05-28T13:06:55.999Z</time>
      </trkpt>
      <trkpt lat="44.02438" lon="3.5137">
        <ele>1317.7</ele>
        <time>2026-05-28T13:06:56.999Z</time>
      </trkpt>
      <trkpt lat="44.02438" lon="3.5137">
        <ele>1317.6</ele>
        <time>2026-05-28T13:06:57.999Z</time>
      </trkpt>
      <trkpt lat="44.02438" lon="3.5137">
        <ele>1317.6</ele>
        <time>2026-05-28T13:06:58.999Z</time>
      </trkpt>
      <trkpt lat="44.02437" lon="3.5137">
        <ele>1317.7</ele>
        <time>2026-05-28T13:06:59.999Z</time>
      </trkpt>
      <trkpt lat="44.02437" lon="3.51369">
        <ele>1317.7</ele>
        <time>2026-05-28T13:07:00.999Z</time>
      </trkpt>
      <trkpt lat="44.02436" lon="3.51369">
        <ele>1317.7</ele>
        <time>2026-05-28T13:07:01.999Z</time>
      </trkpt>
      <trkpt lat="44.02436" lon="3.51369">
        <ele>1317.6</ele>
        <time>2026-05-28T13:07:02.999Z</time>
      </trkpt>
      <trkpt lat="44.02436" lon="3.51369">
        <ele>1317.7</ele>
        <time>2026-05-28T13:07:03.999Z</time>
      </trkpt>
      <trkpt lat="44.02435" lon="3.51369">
        <ele>1317.4</ele>
        <time>2026-05-28T13:07:04.999Z</time>
      </trkpt>
      <trkpt lat="44.02435" lon="3.51369">
        <ele>1316.8</ele>
        <time>2026-05-28T13:07:05.999Z</time>
      </trkpt>
      <trkpt lat="44.02434" lon="3.51368">
        <ele>1316.8</ele>
        <time>2026-05-28T13:07:06.999Z</time>
      </trkpt>
      <trkpt lat="44.02432" lon="3.51367">
        <ele>1316.8</ele>
        <time>2026-05-28T13:07:07.999Z</time>
      </trkpt>
      <trkpt lat="44.02431" lon="3.51366">
        <ele>1316.7</ele>
        <time>2026-05-28T13:07:08.999Z</time>
      </trkpt>
      <trkpt lat="44.0243" lon="3.51366">
        <ele>1317</ele>
        <time>2026-05-28T13:07:09.999Z</time>
      </trkpt>
      <trkpt lat="44.02429" lon="3.51365">
        <ele>1317</ele>
        <time>2026-05-28T13:07:10.999Z</time>
      </trkpt>
      <trkpt lat="44.02429" lon="3.51364">
        <ele>1316.8</ele>
        <time>2026-05-28T13:07:11.999Z</time>
      </trkpt>
      <trkpt lat="44.02428" lon="3.51364">
        <ele>1316.9</ele>
        <time>2026-05-28T13:07:12.999Z</time>
      </trkpt>
      <trkpt lat="44.02428" lon="3.51364">
        <ele>1316.9</ele>
        <time>2026-05-28T13:07:13.999Z</time>
      </trkpt>
      <trkpt lat="44.02427" lon="3.51364">
        <ele>1316.7</ele>
        <time>2026-05-28T13:07:14.999Z</time>
      </trkpt>
      <trkpt lat="44.02424" lon="3.51361">
        <ele>1316.8</ele>
        <time>2026-05-28T13:07:15.999Z</time>
      </trkpt>
      <trkpt lat="44.0242" lon="3.51358">
        <ele>1316.9</ele>
        <time>2026-05-28T13:07:16.999Z</time>
      </trkpt>
      <trkpt lat="44.02417" lon="3.51355">
        <ele>1317.1</ele>
        <time>2026-05-28T13:07:17.999Z</time>
      </trkpt>
      <trkpt lat="44.02415" lon="3.51354">
        <ele>1316.9</ele>
        <time>2026-05-28T13:07:18.999Z</time>
      </trkpt>
      <trkpt lat="44.02413" lon="3.51352">
        <ele>1316.8</ele>
        <time>2026-05-28T13:07:19.999Z</time>
      </trkpt>
      <trkpt lat="44.02411" lon="3.51351">
        <ele>1316.7</ele>
        <time>2026-05-28T13:07:20.999Z</time>
      </trkpt>
      <trkpt lat="44.0241" lon="3.51349">
        <ele>1316.4</ele>
        <time>2026-05-28T13:07:21.999Z</time>
      </trkpt>
      <trkpt lat="44.02408" lon="3.51347">
        <ele>1316.2</ele>
        <time>2026-05-28T13:07:22.999Z</time>
      </trkpt>
      <trkpt lat="44.02406" lon="3.51345">
        <ele>1316.1</ele>
        <time>2026-05-28T13:07:23.999Z</time>
      </trkpt>
      <trkpt lat="44.02405" lon="3.51343">
        <ele>1316.1</ele>
        <time>2026-05-28T13:07:24.999Z</time>
      </trkpt>
      <trkpt lat="44.02403" lon="3.51342">
        <ele>1316</ele>
        <time>2026-05-28T13:07:25.999Z</time>
      </trkpt>
      <trkpt lat="44.02402" lon="3.5134">
        <ele>1315.9</ele>
        <time>2026-05-28T13:07:26.999Z</time>
      </trkpt>
      <trkpt lat="44.02401" lon="3.51339">
        <ele>1315.8</ele>
        <time>2026-05-28T13:07:27.999Z</time>
      </trkpt>
      <trkpt lat="44.02399" lon="3.51338">
        <ele>1315.7</ele>
        <time>2026-05-28T13:07:28.999Z</time>
      </trkpt>
      <trkpt lat="44.02398" lon="3.51337">
        <ele>1315.9</ele>
        <time>2026-05-28T13:07:29.999Z</time>
      </trkpt>
      <trkpt lat="44.02397" lon="3.51336">
        <ele>1315.4</ele>
        <time>2026-05-28T13:07:30.999Z</time>
      </trkpt>
      <trkpt lat="44.02396" lon="3.51336">
        <ele>1315.4</ele>
        <time>2026-05-28T13:07:31.999Z</time>
      </trkpt>
      <trkpt lat="44.02394" lon="3.51335">
        <ele>1315.3</ele>
        <time>2026-05-28T13:07:32.999Z</time>
      </trkpt>
      <trkpt lat="44.02393" lon="3.51334">
        <ele>1314.7</ele>
        <time>2026-05-28T13:07:33.999Z</time>
      </trkpt>
      <trkpt lat="44.02393" lon="3.51333">
        <ele>1314.3</ele>
        <time>2026-05-28T13:07:34.999Z</time>
      </trkpt>
      <trkpt lat="44.02392" lon="3.51332">
        <ele>1314.1</ele>
        <time>2026-05-28T13:07:35.999Z</time>
      </trkpt>
      <trkpt lat="44.02391" lon="3.51331">
        <ele>1313.9</ele>
        <time>2026-05-28T13:07:36.999Z</time>
      </trkpt>
      <trkpt lat="44.0239" lon="3.51329">
        <ele>1314</ele>
        <time>2026-05-28T13:07:37.999Z</time>
      </trkpt>
      <trkpt lat="44.02389" lon="3.51328">
        <ele>1313.7</ele>
        <time>2026-05-28T13:07:38.999Z</time>
      </trkpt>
      <trkpt lat="44.02388" lon="3.51327">
        <ele>1312.9</ele>
        <time>2026-05-28T13:07:39.999Z</time>
      </trkpt>
      <trkpt lat="44.02387" lon="3.51327">
        <ele>1312.9</ele>
        <time>2026-05-28T13:07:40.999Z</time>
      </trkpt>
      <trkpt lat="44.02386" lon="3.51326">
        <ele>1312.6</ele>
        <time>2026-05-28T13:07:41.999Z</time>
      </trkpt>
      <trkpt lat="44.02385" lon="3.51325">
        <ele>1312.3</ele>
        <time>2026-05-28T13:07:42.999Z</time>
      </trkpt>
      <trkpt lat="44.02384" lon="3.51324">
        <ele>1312.2</ele>
        <time>2026-05-28T13:07:43.999Z</time>
      </trkpt>
      <trkpt lat="44.02383" lon="3.51322">
        <ele>1311.9</ele>
        <time>2026-05-28T13:07:44.999Z</time>
      </trkpt>
      <trkpt lat="44.02383" lon="3.51321">
        <ele>1311.6</ele>
        <time>2026-05-28T13:07:45.999Z</time>
      </trkpt>
      <trkpt lat="44.02382" lon="3.5132">
        <ele>1311.5</ele>
        <time>2026-05-28T13:07:46.999Z</time>
      </trkpt>
      <trkpt lat="44.02381" lon="3.51318">
        <ele>1311.8</ele>
        <time>2026-05-28T13:07:47.999Z</time>
      </trkpt>
      <trkpt lat="44.02381" lon="3.51318">
        <ele>1311.6</ele>
        <time>2026-05-28T13:07:48.999Z</time>
      </trkpt>
      <trkpt lat="44.0238" lon="3.51317">
        <ele>1311.3</ele>
        <time>2026-05-28T13:07:49.999Z</time>
      </trkpt>
      <trkpt lat="44.02379" lon="3.51317">
        <ele>1310.9</ele>
        <time>2026-05-28T13:07:50.999Z</time>
      </trkpt>
      <trkpt lat="44.02378" lon="3.51317">
        <ele>1310.9</ele>
        <time>2026-05-28T13:07:51.999Z</time>
      </trkpt>
      <trkpt lat="44.02377" lon="3.51317">
        <ele>1310.6</ele>
        <time>2026-05-28T13:07:52.999Z</time>
      </trkpt>
      <trkpt lat="44.02377" lon="3.51318">
        <ele>1309.9</ele>
        <time>2026-05-28T13:07:53.999Z</time>
      </trkpt>
      <trkpt lat="44.02376" lon="3.51318">
        <ele>1309.2</ele>
        <time>2026-05-28T13:07:54.999Z</time>
      </trkpt>
      <trkpt lat="44.02376" lon="3.51317">
        <ele>1308.6</ele>
        <time>2026-05-28T13:07:55.999Z</time>
      </trkpt>
      <trkpt lat="44.02375" lon="3.51316">
        <ele>1308.3</ele>
        <time>2026-05-28T13:07:56.999Z</time>
      </trkpt>
      <trkpt lat="44.02374" lon="3.51315">
        <ele>1307.8</ele>
        <time>2026-05-28T13:07:57.999Z</time>
      </trkpt>
      <trkpt lat="44.02373" lon="3.51314">
        <ele>1307</ele>
        <time>2026-05-28T13:07:58.999Z</time>
      </trkpt>
      <trkpt lat="44.02371" lon="3.51314">
        <ele>1306</ele>
        <time>2026-05-28T13:07:59.999Z</time>
      </trkpt>
      <trkpt lat="44.0237" lon="3.51314">
        <ele>1307</ele>
        <time>2026-05-28T13:08:00.999Z</time>
      </trkpt>
      <trkpt lat="44.02369" lon="3.51313">
        <ele>1306.7</ele>
        <time>2026-05-28T13:08:01.999Z</time>
      </trkpt>
      <trkpt lat="44.02368" lon="3.51313">
        <ele>1306.5</ele>
        <time>2026-05-28T13:08:02.999Z</time>
      </trkpt>
      <trkpt lat="44.02367" lon="3.5131">
        <ele>1306.1</ele>
        <time>2026-05-28T13:08:03.999Z</time>
      </trkpt>
      <trkpt lat="44.02366" lon="3.5131">
        <ele>1305.9</ele>
        <time>2026-05-28T13:08:04.999Z</time>
      </trkpt>
      <trkpt lat="44.02364" lon="3.51308">
        <ele>1306.3</ele>
        <time>2026-05-28T13:08:05.999Z</time>
      </trkpt>
      <trkpt lat="44.02362" lon="3.51307">
        <ele>1306.5</ele>
        <time>2026-05-28T13:08:06.999Z</time>
      </trkpt>
      <trkpt lat="44.02361" lon="3.51305">
        <ele>1306.4</ele>
        <time>2026-05-28T13:08:07.999Z</time>
      </trkpt>
      <trkpt lat="44.02361" lon="3.51303">
        <ele>1306.3</ele>
        <time>2026-05-28T13:08:08.999Z</time>
      </trkpt>
      <trkpt lat="44.0236" lon="3.51303">
        <ele>1306.4</ele>
        <time>2026-05-28T13:08:09.999Z</time>
      </trkpt>
      <trkpt lat="44.02359" lon="3.51302">
        <ele>1306.9</ele>
        <time>2026-05-28T13:08:10.999Z</time>
      </trkpt>
      <trkpt lat="44.02359" lon="3.513">
        <ele>1307.2</ele>
        <time>2026-05-28T13:08:11.999Z</time>
      </trkpt>
      <trkpt lat="44.02359" lon="3.51299">
        <ele>1307.3</ele>
        <time>2026-05-28T13:08:12.999Z</time>
      </trkpt>
      <trkpt lat="44.02358" lon="3.51298">
        <ele>1307.2</ele>
        <time>2026-05-28T13:08:13.999Z</time>
      </trkpt>
      <trkpt lat="44.02357" lon="3.51297">
        <ele>1306.6</ele>
        <time>2026-05-28T13:08:14.999Z</time>
      </trkpt>
      <trkpt lat="44.02357" lon="3.51296">
        <ele>1306</ele>
        <time>2026-05-28T13:08:15.999Z</time>
      </trkpt>
      <trkpt lat="44.02356" lon="3.51296">
        <ele>1306.1</ele>
        <time>2026-05-28T13:08:16.999Z</time>
      </trkpt>
      <trkpt lat="44.02355" lon="3.51295">
        <ele>1305.5</ele>
        <time>2026-05-28T13:08:17.999Z</time>
      </trkpt>
      <trkpt lat="44.02355" lon="3.51294">
        <ele>1304.9</ele>
        <time>2026-05-28T13:08:18.999Z</time>
      </trkpt>
      <trkpt lat="44.02354" lon="3.51292">
        <ele>1304.3</ele>
        <time>2026-05-28T13:08:19.999Z</time>
      </trkpt>
      <trkpt lat="44.02354" lon="3.5129">
        <ele>1304.1</ele>
        <time>2026-05-28T13:08:20.999Z</time>
      </trkpt>
      <trkpt lat="44.02353" lon="3.51288">
        <ele>1303.8</ele>
        <time>2026-05-28T13:08:21.999Z</time>
      </trkpt>
      <trkpt lat="44.02352" lon="3.51287">
        <ele>1303.4</ele>
        <time>2026-05-28T13:08:22.999Z</time>
      </trkpt>
      <trkpt lat="44.02351" lon="3.51285">
        <ele>1303.7</ele>
        <time>2026-05-28T13:08:23.999Z</time>
      </trkpt>
      <trkpt lat="44.0235" lon="3.51285">
        <ele>1303.9</ele>
        <time>2026-05-28T13:08:24.999Z</time>
      </trkpt>
      <trkpt lat="44.02349" lon="3.51283">
        <ele>1303.5</ele>
        <time>2026-05-28T13:08:25.999Z</time>
      </trkpt>
      <trkpt lat="44.02348" lon="3.51282">
        <ele>1303.6</ele>
        <time>2026-05-28T13:08:26.999Z</time>
      </trkpt>
      <trkpt lat="44.02347" lon="3.51281">
        <ele>1303.6</ele>
        <time>2026-05-28T13:08:27.999Z</time>
      </trkpt>
      <trkpt lat="44.02346" lon="3.5128">
        <ele>1304.1</ele>
        <time>2026-05-28T13:08:28.999Z</time>
      </trkpt>
      <trkpt lat="44.02346" lon="3.5128">
        <ele>1303.9</ele>
        <time>2026-05-28T13:08:29.999Z</time>
      </trkpt>
      <trkpt lat="44.02345" lon="3.51279">
        <ele>1303.9</ele>
        <time>2026-05-28T13:08:30.999Z</time>
      </trkpt>
      <trkpt lat="44.02343" lon="3.51278">
        <ele>1303.8</ele>
        <time>2026-05-28T13:08:31.999Z</time>
      </trkpt>
      <trkpt lat="44.02342" lon="3.51276">
        <ele>1303.5</ele>
        <time>2026-05-28T13:08:32.999Z</time>
      </trkpt>
      <trkpt lat="44.02341" lon="3.51275">
        <ele>1303.2</ele>
        <time>2026-05-28T13:08:33.999Z</time>
      </trkpt>
      <trkpt lat="44.02341" lon="3.51273">
        <ele>1302.5</ele>
        <time>2026-05-28T13:08:34.999Z</time>
      </trkpt>
      <trkpt lat="44.0234" lon="3.51272">
        <ele>1302.6</ele>
        <time>2026-05-28T13:08:35.999Z</time>
      </trkpt>
      <trkpt lat="44.02339" lon="3.51272">
        <ele>1302.3</ele>
        <time>2026-05-28T13:08:36.999Z</time>
      </trkpt>
      <trkpt lat="44.02338" lon="3.51272">
        <ele>1302</ele>
        <time>2026-05-28T13:08:37.999Z</time>
      </trkpt>
      <trkpt lat="44.02336" lon="3.51272">
        <ele>1302</ele>
        <time>2026-05-28T13:08:38.999Z</time>
      </trkpt>
      <trkpt lat="44.02335" lon="3.51272">
        <ele>1301.8</ele>
        <time>2026-05-28T13:08:39.999Z</time>
      </trkpt>
      <trkpt lat="44.02334" lon="3.51272">
        <ele>1301.9</ele>
        <time>2026-05-28T13:08:40.999Z</time>
      </trkpt>
      <trkpt lat="44.02333" lon="3.51271">
        <ele>1301.7</ele>
        <time>2026-05-28T13:08:41.999Z</time>
      </trkpt>
      <trkpt lat="44.02331" lon="3.5127">
        <ele>1301.7</ele>
        <time>2026-05-28T13:08:42.999Z</time>
      </trkpt>
      <trkpt lat="44.0233" lon="3.51269">
        <ele>1301.8</ele>
        <time>2026-05-28T13:08:43.999Z</time>
      </trkpt>
      <trkpt lat="44.02328" lon="3.51269">
        <ele>1301.3</ele>
        <time>2026-05-28T13:08:44.999Z</time>
      </trkpt>
      <trkpt lat="44.02327" lon="3.51269">
        <ele>1300.9</ele>
        <time>2026-05-28T13:08:45.999Z</time>
      </trkpt>
      <trkpt lat="44.02326" lon="3.51269">
        <ele>1300.8</ele>
        <time>2026-05-28T13:08:46.999Z</time>
      </trkpt>
      <trkpt lat="44.02325" lon="3.51269">
        <ele>1301.2</ele>
        <time>2026-05-28T13:08:47.999Z</time>
      </trkpt>
      <trkpt lat="44.02323" lon="3.5127">
        <ele>1301.6</ele>
        <time>2026-05-28T13:08:48.999Z</time>
      </trkpt>
      <trkpt lat="44.02322" lon="3.51272">
        <ele>1301.4</ele>
        <time>2026-05-28T13:08:49.999Z</time>
      </trkpt>
      <trkpt lat="44.02321" lon="3.51274">
        <ele>1301</ele>
        <time>2026-05-28T13:08:50.999Z</time>
      </trkpt>
      <trkpt lat="44.0232" lon="3.51276">
        <ele>1301.3</ele>
        <time>2026-05-28T13:08:51.999Z</time>
      </trkpt>
      <trkpt lat="44.0232" lon="3.51278">
        <ele>1301.9</ele>
        <time>2026-05-28T13:08:52.999Z</time>
      </trkpt>
      <trkpt lat="44.02321" lon="3.51281">
        <ele>1301.6</ele>
        <time>2026-05-28T13:08:53.999Z</time>
      </trkpt>
      <trkpt lat="44.02321" lon="3.51283">
        <ele>1300.9</ele>
        <time>2026-05-28T13:08:54.999Z</time>
      </trkpt>
      <trkpt lat="44.02322" lon="3.51286">
        <ele>1300.3</ele>
        <time>2026-05-28T13:08:55.999Z</time>
      </trkpt>
      <trkpt lat="44.02323" lon="3.51288">
        <ele>1299.9</ele>
        <time>2026-05-28T13:08:56.999Z</time>
      </trkpt>
      <trkpt lat="44.02323" lon="3.51291">
        <ele>1299.7</ele>
        <time>2026-05-28T13:08:57.999Z</time>
      </trkpt>
      <trkpt lat="44.02324" lon="3.51294">
        <ele>1299.6</ele>
        <time>2026-05-28T13:08:58.999Z</time>
      </trkpt>
      <trkpt lat="44.02325" lon="3.51295">
        <ele>1299.3</ele>
        <time>2026-05-28T13:08:59.999Z</time>
      </trkpt>
      <trkpt lat="44.02326" lon="3.51296">
        <ele>1299.3</ele>
        <time>2026-05-28T13:09:00.999Z</time>
      </trkpt>
      <trkpt lat="44.02328" lon="3.51297">
        <ele>1299.4</ele>
        <time>2026-05-28T13:09:01.999Z</time>
      </trkpt>
      <trkpt lat="44.02329" lon="3.51298">
        <ele>1299.6</ele>
        <time>2026-05-28T13:09:02.999Z</time>
      </trkpt>
      <trkpt lat="44.0233" lon="3.51299">
        <ele>1299.6</ele>
        <time>2026-05-28T13:09:03.999Z</time>
      </trkpt>
      <trkpt lat="44.02331" lon="3.513">
        <ele>1299.7</ele>
        <time>2026-05-28T13:09:04.999Z</time>
      </trkpt>
      <trkpt lat="44.02331" lon="3.51301">
        <ele>1299.6</ele>
        <time>2026-05-28T13:09:05.999Z</time>
      </trkpt>
      <trkpt lat="44.02332" lon="3.51302">
        <ele>1299</ele>
        <time>2026-05-28T13:09:06.999Z</time>
      </trkpt>
      <trkpt lat="44.02333" lon="3.51303">
        <ele>1298.6</ele>
        <time>2026-05-28T13:09:07.999Z</time>
      </trkpt>
      <trkpt lat="44.02333" lon="3.51304">
        <ele>1298.3</ele>
        <time>2026-05-28T13:09:08.999Z</time>
      </trkpt>
      <trkpt lat="44.02333" lon="3.51304">
        <ele>1298.3</ele>
        <time>2026-05-28T13:09:09.999Z</time>
      </trkpt>
      <trkpt lat="44.02334" lon="3.51304">
        <ele>1298.4</ele>
        <time>2026-05-28T13:09:10.999Z</time>
      </trkpt>
      <trkpt lat="44.02334" lon="3.51305">
        <ele>1298.3</ele>
        <time>2026-05-28T13:09:11.999Z</time>
      </trkpt>
      <trkpt lat="44.02335" lon="3.51306">
        <ele>1298</ele>
        <time>2026-05-28T13:09:12.999Z</time>
      </trkpt>
      <trkpt lat="44.02337" lon="3.51307">
        <ele>1297.9</ele>
        <time>2026-05-28T13:09:13.999Z</time>
      </trkpt>
      <trkpt lat="44.02338" lon="3.51308">
        <ele>1297.6</ele>
        <time>2026-05-28T13:09:14.999Z</time>
      </trkpt>
      <trkpt lat="44.02339" lon="3.51309">
        <ele>1297.6</ele>
        <time>2026-05-28T13:09:15.999Z</time>
      </trkpt>
      <trkpt lat="44.02339" lon="3.5131">
        <ele>1297.2</ele>
        <time>2026-05-28T13:09:16.999Z</time>
      </trkpt>
      <trkpt lat="44.02341" lon="3.5131">
        <ele>1296.6</ele>
        <time>2026-05-28T13:09:17.999Z</time>
      </trkpt>
      <trkpt lat="44.02342" lon="3.51312">
        <ele>1296.3</ele>
        <time>2026-05-28T13:09:18.999Z</time>
      </trkpt>
      <trkpt lat="44.02342" lon="3.51313">
        <ele>1296.1</ele>
        <time>2026-05-28T13:09:19.999Z</time>
      </trkpt>
      <trkpt lat="44.02343" lon="3.51314">
        <ele>1295.8</ele>
        <time>2026-05-28T13:09:20.999Z</time>
      </trkpt>
      <trkpt lat="44.02343" lon="3.51315">
        <ele>1295.8</ele>
        <time>2026-05-28T13:09:21.999Z</time>
      </trkpt>
      <trkpt lat="44.02345" lon="3.51316">
        <ele>1295.6</ele>
        <time>2026-05-28T13:09:22.999Z</time>
      </trkpt>
      <trkpt lat="44.02346" lon="3.51318">
        <ele>1295.6</ele>
        <time>2026-05-28T13:09:23.999Z</time>
      </trkpt>
      <trkpt lat="44.02347" lon="3.5132">
        <ele>1295.9</ele>
        <time>2026-05-28T13:09:24.999Z</time>
      </trkpt>
      <trkpt lat="44.02349" lon="3.5132">
        <ele>1296</ele>
        <time>2026-05-28T13:09:25.999Z</time>
      </trkpt>
      <trkpt lat="44.02349" lon="3.51322">
        <ele>1296.1</ele>
        <time>2026-05-28T13:09:26.999Z</time>
      </trkpt>
      <trkpt lat="44.0235" lon="3.51325">
        <ele>1296.2</ele>
        <time>2026-05-28T13:09:27.999Z</time>
      </trkpt>
      <trkpt lat="44.02351" lon="3.51327">
        <ele>1296.2</ele>
        <time>2026-05-28T13:09:28.999Z</time>
      </trkpt>
      <trkpt lat="44.02351" lon="3.51328">
        <ele>1296.6</ele>
        <time>2026-05-28T13:09:29.999Z</time>
      </trkpt>
      <trkpt lat="44.02352" lon="3.5133">
        <ele>1297</ele>
        <time>2026-05-28T13:09:30.999Z</time>
      </trkpt>
      <trkpt lat="44.02352" lon="3.51332">
        <ele>1297</ele>
        <time>2026-05-28T13:09:31.999Z</time>
      </trkpt>
      <trkpt lat="44.02353" lon="3.51333">
        <ele>1297.2</ele>
        <time>2026-05-28T13:09:32.999Z</time>
      </trkpt>
      <trkpt lat="44.02354" lon="3.51335">
        <ele>1297.2</ele>
        <time>2026-05-28T13:09:33.999Z</time>
      </trkpt>
      <trkpt lat="44.02355" lon="3.51335">
        <ele>1296.8</ele>
        <time>2026-05-28T13:09:34.999Z</time>
      </trkpt>
      <trkpt lat="44.02355" lon="3.51335">
        <ele>1296.8</ele>
        <time>2026-05-28T13:09:35.999Z</time>
      </trkpt>
      <trkpt lat="44.02356" lon="3.51336">
        <ele>1296.6</ele>
        <time>2026-05-28T13:09:36.999Z</time>
      </trkpt>
      <trkpt lat="44.02356" lon="3.51337">
        <ele>1296.4</ele>
        <time>2026-05-28T13:09:37.999Z</time>
      </trkpt>
      <trkpt lat="44.02356" lon="3.51339">
        <ele>1296.7</ele>
        <time>2026-05-28T13:09:38.999Z</time>
      </trkpt>
      <trkpt lat="44.02357" lon="3.5134">
        <ele>1297.1</ele>
        <time>2026-05-28T13:09:39.999Z</time>
      </trkpt>
      <trkpt lat="44.02357" lon="3.51342">
        <ele>1297.3</ele>
        <time>2026-05-28T13:09:40.999Z</time>
      </trkpt>
      <trkpt lat="44.02357" lon="3.51342">
        <ele>1296.7</ele>
        <time>2026-05-28T13:09:41.999Z</time>
      </trkpt>
      <trkpt lat="44.02358" lon="3.51343">
        <ele>1296.5</ele>
        <time>2026-05-28T13:09:42.999Z</time>
      </trkpt>
      <trkpt lat="44.02359" lon="3.51343">
        <ele>1296.3</ele>
        <time>2026-05-28T13:09:43.999Z</time>
      </trkpt>
      <trkpt lat="44.0236" lon="3.51344">
        <ele>1296.3</ele>
        <time>2026-05-28T13:09:44.999Z</time>
      </trkpt>
      <trkpt lat="44.0236" lon="3.51346">
        <ele>1296.7</ele>
        <time>2026-05-28T13:09:45.999Z</time>
      </trkpt>
      <trkpt lat="44.0236" lon="3.51347">
        <ele>1297</ele>
        <time>2026-05-28T13:09:46.999Z</time>
      </trkpt>
      <trkpt lat="44.02361" lon="3.51349">
        <ele>1296.7</ele>
        <time>2026-05-28T13:09:47.999Z</time>
      </trkpt>
      <trkpt lat="44.02361" lon="3.5135">
        <ele>1296</ele>
        <time>2026-05-28T13:09:48.999Z</time>
      </trkpt>
      <trkpt lat="44.02361" lon="3.51351">
        <ele>1295.5</ele>
        <time>2026-05-28T13:09:49.999Z</time>
      </trkpt>
      <trkpt lat="44.02361" lon="3.51352">
        <ele>1294.7</ele>
        <time>2026-05-28T13:09:50.999Z</time>
      </trkpt>
      <trkpt lat="44.02361" lon="3.51354">
        <ele>1294</ele>
        <time>2026-05-28T13:09:51.999Z</time>
      </trkpt>
      <trkpt lat="44.02361" lon="3.51355">
        <ele>1293.4</ele>
        <time>2026-05-28T13:09:52.999Z</time>
      </trkpt>
      <trkpt lat="44.02361" lon="3.51354">
        <ele>1292.6</ele>
        <time>2026-05-28T13:09:53.999Z</time>
      </trkpt>
      <trkpt lat="44.02362" lon="3.51354">
        <ele>1291.9</ele>
        <time>2026-05-28T13:09:54.999Z</time>
      </trkpt>
      <trkpt lat="44.02362" lon="3.51355">
        <ele>1291.4</ele>
        <time>2026-05-28T13:09:55.999Z</time>
      </trkpt>
      <trkpt lat="44.02362" lon="3.51355">
        <ele>1291.2</ele>
        <time>2026-05-28T13:09:56.999Z</time>
      </trkpt>
      <trkpt lat="44.02362" lon="3.51356">
        <ele>1290.6</ele>
        <time>2026-05-28T13:09:57.999Z</time>
      </trkpt>
      <trkpt lat="44.02362" lon="3.51357">
        <ele>1290</ele>
        <time>2026-05-28T13:09:58.999Z</time>
      </trkpt>
      <trkpt lat="44.02362" lon="3.5136">
        <ele>1289.5</ele>
        <time>2026-05-28T13:09:59.999Z</time>
      </trkpt>
      <trkpt lat="44.02362" lon="3.51361">
        <ele>1289.8</ele>
        <time>2026-05-28T13:10:00.999Z</time>
      </trkpt>
      <trkpt lat="44.02361" lon="3.51363">
        <ele>1290.4</ele>
        <time>2026-05-28T13:10:01.999Z</time>
      </trkpt>
      <trkpt lat="44.02361" lon="3.51364">
        <ele>1289.8</ele>
        <time>2026-05-28T13:10:02.999Z</time>
      </trkpt>
      <trkpt lat="44.02362" lon="3.51367">
        <ele>1290</ele>
        <time>2026-05-28T13:10:03.999Z</time>
      </trkpt>
      <trkpt lat="44.02362" lon="3.5137">
        <ele>1290.4</ele>
        <time>2026-05-28T13:10:04.999Z</time>
      </trkpt>
      <trkpt lat="44.02363" lon="3.51373">
        <ele>1290.5</ele>
        <time>2026-05-28T13:10:05.999Z</time>
      </trkpt>
      <trkpt lat="44.02363" lon="3.51376">
        <ele>1291</ele>
        <time>2026-05-28T13:10:06.999Z</time>
      </trkpt>
      <trkpt lat="44.02363" lon="3.51378">
        <ele>1290.7</ele>
        <time>2026-05-28T13:10:07.999Z</time>
      </trkpt>
      <trkpt lat="44.02363" lon="3.51379">
        <ele>1290.6</ele>
        <time>2026-05-28T13:10:08.999Z</time>
      </trkpt>
      <trkpt lat="44.02363" lon="3.5138">
        <ele>1290.3</ele>
        <time>2026-05-28T13:10:09.999Z</time>
      </trkpt>
      <trkpt lat="44.02363" lon="3.5138">
        <ele>1290.4</ele>
        <time>2026-05-28T13:10:10.999Z</time>
      </trkpt>
      <trkpt lat="44.02362" lon="3.51381">
        <ele>1290.5</ele>
        <time>2026-05-28T13:10:11.999Z</time>
      </trkpt>
      <trkpt lat="44.02361" lon="3.51381">
        <ele>1290.4</ele>
        <time>2026-05-28T13:10:12.999Z</time>
      </trkpt>
      <trkpt lat="44.0236" lon="3.51382">
        <ele>1290.4</ele>
        <time>2026-05-28T13:10:13.999Z</time>
      </trkpt>
      <trkpt lat="44.02359" lon="3.51384">
        <ele>1290.2</ele>
        <time>2026-05-28T13:10:14.999Z</time>
      </trkpt>
      <trkpt lat="44.02358" lon="3.51385">
        <ele>1290.3</ele>
        <time>2026-05-28T13:10:15.999Z</time>
      </trkpt>
      <trkpt lat="44.02358" lon="3.51385">
        <ele>1290.1</ele>
        <time>2026-05-28T13:10:16.999Z</time>
      </trkpt>
      <trkpt lat="44.02356" lon="3.51385">
        <ele>1290.2</ele>
        <time>2026-05-28T13:10:17.999Z</time>
      </trkpt>
      <trkpt lat="44.02355" lon="3.51385">
        <ele>1290.3</ele>
        <time>2026-05-28T13:10:18.999Z</time>
      </trkpt>
      <trkpt lat="44.02354" lon="3.51386">
        <ele>1290.4</ele>
        <time>2026-05-28T13:10:19.999Z</time>
      </trkpt>
      <trkpt lat="44.02352" lon="3.51388">
        <ele>1291.4</ele>
        <time>2026-05-28T13:10:20.999Z</time>
      </trkpt>
      <trkpt lat="44.0235" lon="3.51391">
        <ele>1292.5</ele>
        <time>2026-05-28T13:10:21.999Z</time>
      </trkpt>
      <trkpt lat="44.02349" lon="3.51393">
        <ele>1292.7</ele>
        <time>2026-05-28T13:10:22.999Z</time>
      </trkpt>
      <trkpt lat="44.02348" lon="3.51394">
        <ele>1292.8</ele>
        <time>2026-05-28T13:10:23.999Z</time>
      </trkpt>
      <trkpt lat="44.02348" lon="3.51396">
        <ele>1292.8</ele>
        <time>2026-05-28T13:10:24.999Z</time>
      </trkpt>
      <trkpt lat="44.02348" lon="3.51397">
        <ele>1292.7</ele>
        <time>2026-05-28T13:10:25.999Z</time>
      </trkpt>
      <trkpt lat="44.02347" lon="3.51399">
        <ele>1293</ele>
        <time>2026-05-28T13:10:26.999Z</time>
      </trkpt>
      <trkpt lat="44.02346" lon="3.514">
        <ele>1293.4</ele>
        <time>2026-05-28T13:10:27.999Z</time>
      </trkpt>
      <trkpt lat="44.02345" lon="3.514">
        <ele>1294.1</ele>
        <time>2026-05-28T13:10:28.999Z</time>
      </trkpt>
      <trkpt lat="44.02345" lon="3.514">
        <ele>1294</ele>
        <time>2026-05-28T13:10:29.999Z</time>
      </trkpt>
      <trkpt lat="44.02344" lon="3.51401">
        <ele>1293.6</ele>
        <time>2026-05-28T13:10:30.999Z</time>
      </trkpt>
      <trkpt lat="44.02344" lon="3.51403">
        <ele>1293</ele>
        <time>2026-05-28T13:10:31.999Z</time>
      </trkpt>
      <trkpt lat="44.02343" lon="3.51404">
        <ele>1293.3</ele>
        <time>2026-05-28T13:10:32.999Z</time>
      </trkpt>
      <trkpt lat="44.02342" lon="3.51403">
        <ele>1294</ele>
        <time>2026-05-28T13:10:33.999Z</time>
      </trkpt>
      <trkpt lat="44.02341" lon="3.51403">
        <ele>1295</ele>
        <time>2026-05-28T13:10:34.999Z</time>
      </trkpt>
      <trkpt lat="44.0234" lon="3.51405">
        <ele>1295.3</ele>
        <time>2026-05-28T13:10:35.999Z</time>
      </trkpt>
      <trkpt lat="44.0234" lon="3.51405">
        <ele>1295.4</ele>
        <time>2026-05-28T13:10:36.999Z</time>
      </trkpt>
      <trkpt lat="44.02339" lon="3.51406">
        <ele>1295.4</ele>
        <time>2026-05-28T13:10:37.999Z</time>
      </trkpt>
      <trkpt lat="44.02338" lon="3.51406">
        <ele>1295.2</ele>
        <time>2026-05-28T13:10:38.999Z</time>
      </trkpt>
      <trkpt lat="44.02337" lon="3.51407">
        <ele>1294.6</ele>
        <time>2026-05-28T13:10:39.999Z</time>
      </trkpt>
      <trkpt lat="44.02337" lon="3.51408">
        <ele>1294.4</ele>
        <time>2026-05-28T13:10:40.999Z</time>
      </trkpt>
      <trkpt lat="44.02336" lon="3.5141">
        <ele>1294.3</ele>
        <time>2026-05-28T13:10:41.999Z</time>
      </trkpt>
      <trkpt lat="44.02335" lon="3.5141">
        <ele>1294.2</ele>
        <time>2026-05-28T13:10:42.999Z</time>
      </trkpt>
      <trkpt lat="44.02334" lon="3.5141">
        <ele>1294.2</ele>
        <time>2026-05-28T13:10:43.999Z</time>
      </trkpt>
      <trkpt lat="44.02332" lon="3.5141">
        <ele>1294.1</ele>
        <time>2026-05-28T13:10:44.999Z</time>
      </trkpt>
      <trkpt lat="44.0233" lon="3.51411">
        <ele>1294.8</ele>
        <time>2026-05-28T13:10:45.999Z</time>
      </trkpt>
      <trkpt lat="44.02329" lon="3.51412">
        <ele>1294.4</ele>
        <time>2026-05-28T13:10:46.999Z</time>
      </trkpt>
      <trkpt lat="44.02327" lon="3.5141">
        <ele>1294.6</ele>
        <time>2026-05-28T13:10:47.999Z</time>
      </trkpt>
      <trkpt lat="44.02325" lon="3.5141">
        <ele>1294.7</ele>
        <time>2026-05-28T13:10:48.999Z</time>
      </trkpt>
      <trkpt lat="44.02323" lon="3.5141">
        <ele>1294.9</ele>
        <time>2026-05-28T13:10:49.999Z</time>
      </trkpt>
      <trkpt lat="44.02322" lon="3.51409">
        <ele>1295.5</ele>
        <time>2026-05-28T13:10:50.999Z</time>
      </trkpt>
      <trkpt lat="44.02322" lon="3.51408">
        <ele>1294.9</ele>
        <time>2026-05-28T13:10:51.999Z</time>
      </trkpt>
      <trkpt lat="44.02322" lon="3.51407">
        <ele>1294.3</ele>
        <time>2026-05-28T13:10:52.999Z</time>
      </trkpt>
      <trkpt lat="44.02322" lon="3.51406">
        <ele>1295.4</ele>
        <time>2026-05-28T13:10:53.999Z</time>
      </trkpt>
      <trkpt lat="44.02322" lon="3.51406">
        <ele>1295.3</ele>
        <time>2026-05-28T13:10:54.999Z</time>
      </trkpt>
      <trkpt lat="44.02322" lon="3.51405">
        <ele>1296.3</ele>
        <time>2026-05-28T13:10:55.999Z</time>
      </trkpt>
      <trkpt lat="44.02322" lon="3.51405">
        <ele>1297.1</ele>
        <time>2026-05-28T13:10:56.999Z</time>
      </trkpt>
      <trkpt lat="44.02322" lon="3.51405">
        <ele>1297.5</ele>
        <time>2026-05-28T13:10:57.999Z</time>
      </trkpt>
      <trkpt lat="44.02322" lon="3.51404">
        <ele>1297.8</ele>
        <time>2026-05-28T13:10:58.999Z</time>
      </trkpt>
      <trkpt lat="44.02322" lon="3.51404">
        <ele>1298</ele>
        <time>2026-05-28T13:10:59.999Z</time>
      </trkpt>
      <trkpt lat="44.02322" lon="3.51403">
        <ele>1298.1</ele>
        <time>2026-05-28T13:11:00.999Z</time>
      </trkpt>
      <trkpt lat="44.02322" lon="3.51403">
        <ele>1298.2</ele>
        <time>2026-05-28T13:11:01.999Z</time>
      </trkpt>
      <trkpt lat="44.02322" lon="3.51403">
        <ele>1298.4</ele>
        <time>2026-05-28T13:11:02.999Z</time>
      </trkpt>
      <trkpt lat="44.02322" lon="3.51403">
        <ele>1298.4</ele>
        <time>2026-05-28T13:11:03.999Z</time>
      </trkpt>
      <trkpt lat="44.02322" lon="3.51402">
        <ele>1298.2</ele>
        <time>2026-05-28T13:11:04.999Z</time>
      </trkpt>
      <trkpt lat="44.02322" lon="3.51402">
        <ele>1298.3</ele>
        <time>2026-05-28T13:11:05.999Z</time>
      </trkpt>
      <trkpt lat="44.02322" lon="3.51401">
        <ele>1298.2</ele>
        <time>2026-05-28T13:11:06.999Z</time>
      </trkpt>
      <trkpt lat="44.02322" lon="3.51401">
        <ele>1298.1</ele>
        <time>2026-05-28T13:11:07.999Z</time>
      </trkpt>
      <trkpt lat="44.02321" lon="3.514">
        <ele>1298</ele>
        <time>2026-05-28T13:11:08.999Z</time>
      </trkpt>
      <trkpt lat="44.02321" lon="3.51399">
        <ele>1298.2</ele>
        <time>2026-05-28T13:11:09.999Z</time>
      </trkpt>
      <trkpt lat="44.02321" lon="3.51399">
        <ele>1298.2</ele>
        <time>2026-05-28T13:11:10.999Z</time>
      </trkpt>
      <trkpt lat="44.02321" lon="3.51398">
        <ele>1298.3</ele>
        <time>2026-05-28T13:11:11.999Z</time>
      </trkpt>
      <trkpt lat="44.02322" lon="3.51394">
        <ele>1298</ele>
        <time>2026-05-28T13:11:12.999Z</time>
      </trkpt>
      <trkpt lat="44.02321" lon="3.5139">
        <ele>1297.9</ele>
        <time>2026-05-28T13:11:13.999Z</time>
      </trkpt>
      <trkpt lat="44.02321" lon="3.51387">
        <ele>1297.9</ele>
        <time>2026-05-28T13:11:14.999Z</time>
      </trkpt>
      <trkpt lat="44.02321" lon="3.51385">
        <ele>1298.3</ele>
        <time>2026-05-28T13:11:15.999Z</time>
      </trkpt>
      <trkpt lat="44.02321" lon="3.51381">
        <ele>1298.2</ele>
        <time>2026-05-28T13:11:16.999Z</time>
      </trkpt>
      <trkpt lat="44.02321" lon="3.51378">
        <ele>1297.8</ele>
        <time>2026-05-28T13:11:17.999Z</time>
      </trkpt>
      <trkpt lat="44.02321" lon="3.51375">
        <ele>1297.5</ele>
        <time>2026-05-28T13:11:18.999Z</time>
      </trkpt>
      <trkpt lat="44.02321" lon="3.51373">
        <ele>1297.7</ele>
        <time>2026-05-28T13:11:19.999Z</time>
      </trkpt>
      <trkpt lat="44.0232" lon="3.51372">
        <ele>1297.5</ele>
        <time>2026-05-28T13:11:20.999Z</time>
      </trkpt>
      <trkpt lat="44.02319" lon="3.5137">
        <ele>1297.3</ele>
        <time>2026-05-28T13:11:21.999Z</time>
      </trkpt>
      <trkpt lat="44.02319" lon="3.51369">
        <ele>1297.6</ele>
        <time>2026-05-28T13:11:22.999Z</time>
      </trkpt>
      <trkpt lat="44.02318" lon="3.51368">
        <ele>1297.7</ele>
        <time>2026-05-28T13:11:23.999Z</time>
      </trkpt>
      <trkpt lat="44.02315" lon="3.51363">
        <ele>1296.8</ele>
        <time>2026-05-28T13:11:25.999Z</time>
      </trkpt>
      <trkpt lat="44.02313" lon="3.51362">
        <ele>1296.7</ele>
        <time>2026-05-28T13:11:26.999Z</time>
      </trkpt>
      <trkpt lat="44.02312" lon="3.5136">
        <ele>1296.3</ele>
        <time>2026-05-28T13:11:27.999Z</time>
      </trkpt>
      <trkpt lat="44.02312" lon="3.51358">
        <ele>1296.4</ele>
        <time>2026-05-28T13:11:28.999Z</time>
      </trkpt>
      <trkpt lat="44.02311" lon="3.51356">
        <ele>1296.7</ele>
        <time>2026-05-28T13:11:29.999Z</time>
      </trkpt>
      <trkpt lat="44.0231" lon="3.51354">
        <ele>1296.9</ele>
        <time>2026-05-28T13:11:30.999Z</time>
      </trkpt>
      <trkpt lat="44.0231" lon="3.51354">
        <ele>1297.8</ele>
        <time>2026-05-28T13:11:31.999Z</time>
      </trkpt>
      <trkpt lat="44.0231" lon="3.51353">
        <ele>1297.9</ele>
        <time>2026-05-28T13:11:32.999Z</time>
      </trkpt>
      <trkpt lat="44.02309" lon="3.51352">
        <ele>1297.8</ele>
        <time>2026-05-28T13:11:33.999Z</time>
      </trkpt>
      <trkpt lat="44.02308" lon="3.5135">
        <ele>1298.3</ele>
        <time>2026-05-28T13:11:34.999Z</time>
      </trkpt>
      <trkpt lat="44.02307" lon="3.51348">
        <ele>1298.9</ele>
        <time>2026-05-28T13:11:35.999Z</time>
      </trkpt>
      <trkpt lat="44.02307" lon="3.51346">
        <ele>1299.4</ele>
        <time>2026-05-28T13:11:36.999Z</time>
      </trkpt>
      <trkpt lat="44.02306" lon="3.51345">
        <ele>1299.5</ele>
        <time>2026-05-28T13:11:37.999Z</time>
      </trkpt>
      <trkpt lat="44.02306" lon="3.51344">
        <ele>1299.5</ele>
        <time>2026-05-28T13:11:38.999Z</time>
      </trkpt>
      <trkpt lat="44.02305" lon="3.51342">
        <ele>1299.3</ele>
        <time>2026-05-28T13:11:39.999Z</time>
      </trkpt>
      <trkpt lat="44.02304" lon="3.5134">
        <ele>1298.7</ele>
        <time>2026-05-28T13:11:40.999Z</time>
      </trkpt>
      <trkpt lat="44.02303" lon="3.51338">
        <ele>1298</ele>
        <time>2026-05-28T13:11:41.999Z</time>
      </trkpt>
      <trkpt lat="44.02302" lon="3.51338">
        <ele>1297.7</ele>
        <time>2026-05-28T13:11:42.999Z</time>
      </trkpt>
      <trkpt lat="44.02301" lon="3.51337">
        <ele>1296.8</ele>
        <time>2026-05-28T13:11:43.999Z</time>
      </trkpt>
      <trkpt lat="44.023" lon="3.51336">
        <ele>1296.4</ele>
        <time>2026-05-28T13:11:44.999Z</time>
      </trkpt>
      <trkpt lat="44.02299" lon="3.51336">
        <ele>1296</ele>
        <time>2026-05-28T13:11:45.999Z</time>
      </trkpt>
      <trkpt lat="44.02298" lon="3.51336">
        <ele>1295.4</ele>
        <time>2026-05-28T13:11:46.999Z</time>
      </trkpt>
      <trkpt lat="44.02297" lon="3.51336">
        <ele>1294.9</ele>
        <time>2026-05-28T13:11:47.999Z</time>
      </trkpt>
      <trkpt lat="44.02296" lon="3.51334">
        <ele>1293.8</ele>
        <time>2026-05-28T13:11:48.999Z</time>
      </trkpt>
      <trkpt lat="44.02296" lon="3.51333">
        <ele>1292.9</ele>
        <time>2026-05-28T13:11:49.999Z</time>
      </trkpt>
      <trkpt lat="44.02295" lon="3.51333">
        <ele>1292.4</ele>
        <time>2026-05-28T13:11:50.999Z</time>
      </trkpt>
      <trkpt lat="44.02294" lon="3.51332">
        <ele>1292.7</ele>
        <time>2026-05-28T13:11:51.999Z</time>
      </trkpt>
      <trkpt lat="44.02294" lon="3.51332">
        <ele>1293.5</ele>
        <time>2026-05-28T13:11:52.999Z</time>
      </trkpt>
      <trkpt lat="44.02294" lon="3.51332">
        <ele>1293.5</ele>
        <time>2026-05-28T13:11:53.999Z</time>
      </trkpt>
      <trkpt lat="44.02294" lon="3.51332">
        <ele>1293.6</ele>
        <time>2026-05-28T13:11:54.999Z</time>
      </trkpt>
      <trkpt lat="44.02294" lon="3.51331">
        <ele>1293.7</ele>
        <time>2026-05-28T13:11:55.999Z</time>
      </trkpt>
      <trkpt lat="44.02294" lon="3.51331">
        <ele>1293.7</ele>
        <time>2026-05-28T13:11:56.999Z</time>
      </trkpt>
      <trkpt lat="44.02294" lon="3.51331">
        <ele>1293.9</ele>
        <time>2026-05-28T13:11:57.999Z</time>
      </trkpt>
      <trkpt lat="44.02293" lon="3.51331">
        <ele>1293.9</ele>
        <time>2026-05-28T13:11:58.999Z</time>
      </trkpt>
      <trkpt lat="44.02293" lon="3.5133">
        <ele>1294.2</ele>
        <time>2026-05-28T13:11:59.999Z</time>
      </trkpt>
      <trkpt lat="44.02292" lon="3.5133">
        <ele>1294.1</ele>
        <time>2026-05-28T13:12:00.999Z</time>
      </trkpt>
      <trkpt lat="44.02292" lon="3.51329">
        <ele>1294</ele>
        <time>2026-05-28T13:12:01.999Z</time>
      </trkpt>
      <trkpt lat="44.02292" lon="3.51328">
        <ele>1294.4</ele>
        <time>2026-05-28T13:12:02.999Z</time>
      </trkpt>
      <trkpt lat="44.02291" lon="3.51328">
        <ele>1294.2</ele>
        <time>2026-05-28T13:12:03.999Z</time>
      </trkpt>
      <trkpt lat="44.02291" lon="3.51327">
        <ele>1294.2</ele>
        <time>2026-05-28T13:12:04.999Z</time>
      </trkpt>
      <trkpt lat="44.02289" lon="3.51324">
        <ele>1294</ele>
        <time>2026-05-28T13:12:05.999Z</time>
      </trkpt>
      <trkpt lat="44.02287" lon="3.51322">
        <ele>1294</ele>
        <time>2026-05-28T13:12:06.999Z</time>
      </trkpt>
      <trkpt lat="44.02285" lon="3.5132">
        <ele>1294</ele>
        <time>2026-05-28T13:12:07.999Z</time>
      </trkpt>
      <trkpt lat="44.02284" lon="3.51318">
        <ele>1293.6</ele>
        <time>2026-05-28T13:12:08.999Z</time>
      </trkpt>
      <trkpt lat="44.02282" lon="3.51316">
        <ele>1293</ele>
        <time>2026-05-28T13:12:09.999Z</time>
      </trkpt>
      <trkpt lat="44.0228" lon="3.51314">
        <ele>1292.6</ele>
        <time>2026-05-28T13:12:10.999Z</time>
      </trkpt>
      <trkpt lat="44.02279" lon="3.51312">
        <ele>1292</ele>
        <time>2026-05-28T13:12:11.999Z</time>
      </trkpt>
      <trkpt lat="44.02277" lon="3.51311">
        <ele>1291.9</ele>
        <time>2026-05-28T13:12:12.999Z</time>
      </trkpt>
      <trkpt lat="44.02276" lon="3.5131">
        <ele>1291.5</ele>
        <time>2026-05-28T13:12:13.999Z</time>
      </trkpt>
      <trkpt lat="44.02275" lon="3.51309">
        <ele>1291.2</ele>
        <time>2026-05-28T13:12:14.999Z</time>
      </trkpt>
      <trkpt lat="44.02275" lon="3.51308">
        <ele>1291</ele>
        <time>2026-05-28T13:12:15.999Z</time>
      </trkpt>
      <trkpt lat="44.02274" lon="3.51308">
        <ele>1291.8</ele>
        <time>2026-05-28T13:12:16.999Z</time>
      </trkpt>
      <trkpt lat="44.02273" lon="3.51308">
        <ele>1291.5</ele>
        <time>2026-05-28T13:12:17.999Z</time>
      </trkpt>
      <trkpt lat="44.02273" lon="3.51308">
        <ele>1291.1</ele>
        <time>2026-05-28T13:12:18.999Z</time>
      </trkpt>
      <trkpt lat="44.02272" lon="3.51308">
        <ele>1290.6</ele>
        <time>2026-05-28T13:12:19.999Z</time>
      </trkpt>
      <trkpt lat="44.02271" lon="3.51306">
        <ele>1289.9</ele>
        <time>2026-05-28T13:12:20.999Z</time>
      </trkpt>
      <trkpt lat="44.02269" lon="3.51304">
        <ele>1289.4</ele>
        <time>2026-05-28T13:12:21.999Z</time>
      </trkpt>
      <trkpt lat="44.02267" lon="3.51302">
        <ele>1289</ele>
        <time>2026-05-28T13:12:22.999Z</time>
      </trkpt>
      <trkpt lat="44.02266" lon="3.51301">
        <ele>1288.9</ele>
        <time>2026-05-28T13:12:23.999Z</time>
      </trkpt>
      <trkpt lat="44.02265" lon="3.513">
        <ele>1288.9</ele>
        <time>2026-05-28T13:12:24.999Z</time>
      </trkpt>
      <trkpt lat="44.02264" lon="3.51299">
        <ele>1288.6</ele>
        <time>2026-05-28T13:12:25.999Z</time>
      </trkpt>
      <trkpt lat="44.02263" lon="3.51299">
        <ele>1288.2</ele>
        <time>2026-05-28T13:12:26.999Z</time>
      </trkpt>
      <trkpt lat="44.02263" lon="3.51298">
        <ele>1287.8</ele>
        <time>2026-05-28T13:12:27.999Z</time>
      </trkpt>
      <trkpt lat="44.02263" lon="3.51297">
        <ele>1288.3</ele>
        <time>2026-05-28T13:12:28.999Z</time>
      </trkpt>
      <trkpt lat="44.02263" lon="3.51296">
        <ele>1287.9</ele>
        <time>2026-05-28T13:12:29.999Z</time>
      </trkpt>
      <trkpt lat="44.02262" lon="3.51295">
        <ele>1287.5</ele>
        <time>2026-05-28T13:12:30.999Z</time>
      </trkpt>
      <trkpt lat="44.02262" lon="3.51293">
        <ele>1287.6</ele>
        <time>2026-05-28T13:12:31.999Z</time>
      </trkpt>
      <trkpt lat="44.02261" lon="3.51292">
        <ele>1287.4</ele>
        <time>2026-05-28T13:12:32.999Z</time>
      </trkpt>
      <trkpt lat="44.0226" lon="3.5129">
        <ele>1287</ele>
        <time>2026-05-28T13:12:33.999Z</time>
      </trkpt>
      <trkpt lat="44.02259" lon="3.51288">
        <ele>1286.6</ele>
        <time>2026-05-28T13:12:34.999Z</time>
      </trkpt>
      <trkpt lat="44.02258" lon="3.51288">
        <ele>1286.6</ele>
        <time>2026-05-28T13:12:35.999Z</time>
      </trkpt>
      <trkpt lat="44.02257" lon="3.51286">
        <ele>1286.8</ele>
        <time>2026-05-28T13:12:36.999Z</time>
      </trkpt>
      <trkpt lat="44.02257" lon="3.51283">
        <ele>1286</ele>
        <time>2026-05-28T13:12:37.999Z</time>
      </trkpt>
      <trkpt lat="44.02257" lon="3.51282">
        <ele>1284.9</ele>
        <time>2026-05-28T13:12:38.999Z</time>
      </trkpt>
      <trkpt lat="44.02256" lon="3.5128">
        <ele>1283.9</ele>
        <time>2026-05-28T13:12:39.999Z</time>
      </trkpt>
      <trkpt lat="44.02255" lon="3.51278">
        <ele>1283.2</ele>
        <time>2026-05-28T13:12:40.999Z</time>
      </trkpt>
      <trkpt lat="44.02254" lon="3.51278">
        <ele>1282.7</ele>
        <time>2026-05-28T13:12:41.999Z</time>
      </trkpt>
      <trkpt lat="44.02253" lon="3.51277">
        <ele>1281.8</ele>
        <time>2026-05-28T13:12:42.999Z</time>
      </trkpt>
      <trkpt lat="44.02253" lon="3.51276">
        <ele>1281</ele>
        <time>2026-05-28T13:12:43.999Z</time>
      </trkpt>
      <trkpt lat="44.02253" lon="3.51275">
        <ele>1280.6</ele>
        <time>2026-05-28T13:12:44.999Z</time>
      </trkpt>
      <trkpt lat="44.02252" lon="3.51274">
        <ele>1280.3</ele>
        <time>2026-05-28T13:12:45.999Z</time>
      </trkpt>
      <trkpt lat="44.02251" lon="3.51274">
        <ele>1279.6</ele>
        <time>2026-05-28T13:12:46.999Z</time>
      </trkpt>
      <trkpt lat="44.02249" lon="3.51274">
        <ele>1280</ele>
        <time>2026-05-28T13:12:47.999Z</time>
      </trkpt>
      <trkpt lat="44.02248" lon="3.51273">
        <ele>1280.2</ele>
        <time>2026-05-28T13:12:48.999Z</time>
      </trkpt>
      <trkpt lat="44.02247" lon="3.51272">
        <ele>1279.5</ele>
        <time>2026-05-28T13:12:49.999Z</time>
      </trkpt>
      <trkpt lat="44.02246" lon="3.51273">
        <ele>1279.4</ele>
        <time>2026-05-28T13:12:50.999Z</time>
      </trkpt>
      <trkpt lat="44.02245" lon="3.51271">
        <ele>1279.1</ele>
        <time>2026-05-28T13:12:51.999Z</time>
      </trkpt>
      <trkpt lat="44.02244" lon="3.5127">
        <ele>1278.4</ele>
        <time>2026-05-28T13:12:52.999Z</time>
      </trkpt>
      <trkpt lat="44.02242" lon="3.51271">
        <ele>1277.7</ele>
        <time>2026-05-28T13:12:53.999Z</time>
      </trkpt>
      <trkpt lat="44.0224" lon="3.51272">
        <ele>1277.7</ele>
        <time>2026-05-28T13:12:54.999Z</time>
      </trkpt>
      <trkpt lat="44.02239" lon="3.51272">
        <ele>1277.1</ele>
        <time>2026-05-28T13:12:55.999Z</time>
      </trkpt>
      <trkpt lat="44.02238" lon="3.51272">
        <ele>1277.2</ele>
        <time>2026-05-28T13:12:56.999Z</time>
      </trkpt>
      <trkpt lat="44.02237" lon="3.51273">
        <ele>1277.7</ele>
        <time>2026-05-28T13:12:57.999Z</time>
      </trkpt>
      <trkpt lat="44.02236" lon="3.51273">
        <ele>1278.5</ele>
        <time>2026-05-28T13:12:58.999Z</time>
      </trkpt>
      <trkpt lat="44.02236" lon="3.51273">
        <ele>1278.7</ele>
        <time>2026-05-28T13:12:59.999Z</time>
      </trkpt>
      <trkpt lat="44.02236" lon="3.51275">
        <ele>1278.6</ele>
        <time>2026-05-28T13:13:00.999Z</time>
      </trkpt>
      <trkpt lat="44.02235" lon="3.51277">
        <ele>1278</ele>
        <time>2026-05-28T13:13:01.999Z</time>
      </trkpt>
      <trkpt lat="44.02235" lon="3.5128">
        <ele>1277.4</ele>
        <time>2026-05-28T13:13:02.999Z</time>
      </trkpt>
      <trkpt lat="44.02235" lon="3.51282">
        <ele>1276.7</ele>
        <time>2026-05-28T13:13:03.999Z</time>
      </trkpt>
      <trkpt lat="44.02235" lon="3.51282">
        <ele>1277.1</ele>
        <time>2026-05-28T13:13:04.999Z</time>
      </trkpt>
      <trkpt lat="44.02235" lon="3.51282">
        <ele>1276.2</ele>
        <time>2026-05-28T13:13:05.999Z</time>
      </trkpt>
      <trkpt lat="44.02236" lon="3.51283">
        <ele>1275.7</ele>
        <time>2026-05-28T13:13:06.999Z</time>
      </trkpt>
      <trkpt lat="44.02236" lon="3.51283">
        <ele>1275.3</ele>
        <time>2026-05-28T13:13:07.999Z</time>
      </trkpt>
      <trkpt lat="44.02236" lon="3.51283">
        <ele>1275.1</ele>
        <time>2026-05-28T13:13:08.999Z</time>
      </trkpt>
      <trkpt lat="44.02236" lon="3.51284">
        <ele>1274.5</ele>
        <time>2026-05-28T13:13:09.999Z</time>
      </trkpt>
      <trkpt lat="44.02236" lon="3.51284">
        <ele>1274.5</ele>
        <time>2026-05-28T13:13:10.999Z</time>
      </trkpt>
      <trkpt lat="44.02236" lon="3.51285">
        <ele>1274.6</ele>
        <time>2026-05-28T13:13:11.999Z</time>
      </trkpt>
      <trkpt lat="44.02236" lon="3.51285">
        <ele>1274.8</ele>
        <time>2026-05-28T13:13:12.999Z</time>
      </trkpt>
      <trkpt lat="44.02236" lon="3.51286">
        <ele>1274.6</ele>
        <time>2026-05-28T13:13:13.999Z</time>
      </trkpt>
      <trkpt lat="44.02236" lon="3.51286">
        <ele>1274.1</ele>
        <time>2026-05-28T13:13:14.999Z</time>
      </trkpt>
      <trkpt lat="44.02236" lon="3.51286">
        <ele>1273.6</ele>
        <time>2026-05-28T13:13:15.999Z</time>
      </trkpt>
      <trkpt lat="44.02236" lon="3.51286">
        <ele>1273.1</ele>
        <time>2026-05-28T13:13:16.999Z</time>
      </trkpt>
      <trkpt lat="44.02236" lon="3.51287">
        <ele>1272.7</ele>
        <time>2026-05-28T13:13:17.999Z</time>
      </trkpt>
      <trkpt lat="44.02237" lon="3.51287">
        <ele>1272.8</ele>
        <time>2026-05-28T13:13:18.999Z</time>
      </trkpt>
      <trkpt lat="44.02236" lon="3.51288">
        <ele>1272.4</ele>
        <time>2026-05-28T13:13:19.999Z</time>
      </trkpt>
      <trkpt lat="44.02237" lon="3.51289">
        <ele>1272.3</ele>
        <time>2026-05-28T13:13:20.999Z</time>
      </trkpt>
      <trkpt lat="44.02237" lon="3.51289">
        <ele>1272.2</ele>
        <time>2026-05-28T13:13:21.999Z</time>
      </trkpt>
      <trkpt lat="44.02237" lon="3.5129">
        <ele>1272</ele>
        <time>2026-05-28T13:13:22.999Z</time>
      </trkpt>
      <trkpt lat="44.02237" lon="3.5129">
        <ele>1271.8</ele>
        <time>2026-05-28T13:13:23.999Z</time>
      </trkpt>
      <trkpt lat="44.02237" lon="3.51291">
        <ele>1271.8</ele>
        <time>2026-05-28T13:13:24.999Z</time>
      </trkpt>
      <trkpt lat="44.02238" lon="3.51292">
        <ele>1272.3</ele>
        <time>2026-05-28T13:13:25.999Z</time>
      </trkpt>
      <trkpt lat="44.02238" lon="3.51293">
        <ele>1272.7</ele>
        <time>2026-05-28T13:13:26.999Z</time>
      </trkpt>
      <trkpt lat="44.02238" lon="3.51293">
        <ele>1272.9</ele>
        <time>2026-05-28T13:13:27.999Z</time>
      </trkpt>
      <trkpt lat="44.02239" lon="3.51297">
        <ele>1273</ele>
        <time>2026-05-28T13:13:28.999Z</time>
      </trkpt>
      <trkpt lat="44.0224" lon="3.51299">
        <ele>1273</ele>
        <time>2026-05-28T13:13:29.999Z</time>
      </trkpt>
      <trkpt lat="44.02241" lon="3.51301">
        <ele>1272.7</ele>
        <time>2026-05-28T13:13:30.999Z</time>
      </trkpt>
      <trkpt lat="44.02241" lon="3.51304">
        <ele>1272.3</ele>
        <time>2026-05-28T13:13:31.999Z</time>
      </trkpt>
      <trkpt lat="44.02242" lon="3.51306">
        <ele>1272.4</ele>
        <time>2026-05-28T13:13:32.999Z</time>
      </trkpt>
      <trkpt lat="44.02242" lon="3.51309">
        <ele>1272.7</ele>
        <time>2026-05-28T13:13:33.999Z</time>
      </trkpt>
      <trkpt lat="44.02242" lon="3.51311">
        <ele>1272.7</ele>
        <time>2026-05-28T13:13:34.999Z</time>
      </trkpt>
      <trkpt lat="44.02243" lon="3.51313">
        <ele>1272.2</ele>
        <time>2026-05-28T13:13:35.999Z</time>
      </trkpt>
      <trkpt lat="44.02244" lon="3.51315">
        <ele>1271.9</ele>
        <time>2026-05-28T13:13:36.999Z</time>
      </trkpt>
      <trkpt lat="44.02244" lon="3.51317">
        <ele>1271.6</ele>
        <time>2026-05-28T13:13:37.999Z</time>
      </trkpt>
      <trkpt lat="44.02244" lon="3.51318">
        <ele>1271.7</ele>
        <time>2026-05-28T13:13:38.999Z</time>
      </trkpt>
      <trkpt lat="44.02245" lon="3.51319">
        <ele>1271.7</ele>
        <time>2026-05-28T13:13:39.999Z</time>
      </trkpt>
      <trkpt lat="44.02245" lon="3.5132">
        <ele>1271.8</ele>
        <time>2026-05-28T13:13:40.999Z</time>
      </trkpt>
      <trkpt lat="44.02246" lon="3.51321">
        <ele>1272</ele>
        <time>2026-05-28T13:13:41.999Z</time>
      </trkpt>
      <trkpt lat="44.02246" lon="3.51323">
        <ele>1272</ele>
        <time>2026-05-28T13:13:42.999Z</time>
      </trkpt>
      <trkpt lat="44.02247" lon="3.51325">
        <ele>1272.1</ele>
        <time>2026-05-28T13:13:43.999Z</time>
      </trkpt>
      <trkpt lat="44.02248" lon="3.51326">
        <ele>1272.5</ele>
        <time>2026-05-28T13:13:44.999Z</time>
      </trkpt>
      <trkpt lat="44.02248" lon="3.51327">
        <ele>1272.4</ele>
        <time>2026-05-28T13:13:45.999Z</time>
      </trkpt>
      <trkpt lat="44.02249" lon="3.51328">
        <ele>1272</ele>
        <time>2026-05-28T13:13:46.999Z</time>
      </trkpt>
      <trkpt lat="44.02249" lon="3.51328">
        <ele>1272.3</ele>
        <time>2026-05-28T13:13:47.999Z</time>
      </trkpt>
      <trkpt lat="44.02249" lon="3.51329">
        <ele>1271.8</ele>
        <time>2026-05-28T13:13:48.999Z</time>
      </trkpt>
      <trkpt lat="44.02249" lon="3.5133">
        <ele>1271.5</ele>
        <time>2026-05-28T13:13:49.999Z</time>
      </trkpt>
      <trkpt lat="44.02249" lon="3.51332">
        <ele>1271.4</ele>
        <time>2026-05-28T13:13:50.999Z</time>
      </trkpt>
      <trkpt lat="44.02249" lon="3.51333">
        <ele>1271.7</ele>
        <time>2026-05-28T13:13:51.999Z</time>
      </trkpt>
      <trkpt lat="44.02249" lon="3.51336">
        <ele>1272.2</ele>
        <time>2026-05-28T13:13:52.999Z</time>
      </trkpt>
      <trkpt lat="44.02249" lon="3.51337">
        <ele>1272.1</ele>
        <time>2026-05-28T13:13:53.999Z</time>
      </trkpt>
      <trkpt lat="44.02249" lon="3.51339">
        <ele>1271.9</ele>
        <time>2026-05-28T13:13:54.999Z</time>
      </trkpt>
      <trkpt lat="44.0225" lon="3.51341">
        <ele>1271.7</ele>
        <time>2026-05-28T13:13:55.999Z</time>
      </trkpt>
      <trkpt lat="44.0225" lon="3.51342">
        <ele>1272.1</ele>
        <time>2026-05-28T13:13:56.999Z</time>
      </trkpt>
      <trkpt lat="44.0225" lon="3.51344">
        <ele>1272.5</ele>
        <time>2026-05-28T13:13:57.999Z</time>
      </trkpt>
      <trkpt lat="44.02251" lon="3.51347">
        <ele>1272.9</ele>
        <time>2026-05-28T13:13:58.999Z</time>
      </trkpt>
      <trkpt lat="44.02252" lon="3.51348">
        <ele>1273.6</ele>
        <time>2026-05-28T13:13:59.999Z</time>
      </trkpt>
      <trkpt lat="44.02252" lon="3.51349">
        <ele>1273.4</ele>
        <time>2026-05-28T13:14:00.999Z</time>
      </trkpt>
      <trkpt lat="44.02253" lon="3.51349">
        <ele>1273.6</ele>
        <time>2026-05-28T13:14:01.999Z</time>
      </trkpt>
      <trkpt lat="44.02254" lon="3.5135">
        <ele>1274.1</ele>
        <time>2026-05-28T13:14:02.999Z</time>
      </trkpt>
      <trkpt lat="44.02255" lon="3.51352">
        <ele>1274.1</ele>
        <time>2026-05-28T13:14:03.999Z</time>
      </trkpt>
      <trkpt lat="44.02255" lon="3.51352">
        <ele>1273.9</ele>
        <time>2026-05-28T13:14:04.999Z</time>
      </trkpt>
      <trkpt lat="44.02255" lon="3.51352">
        <ele>1273.6</ele>
        <time>2026-05-28T13:14:05.999Z</time>
      </trkpt>
      <trkpt lat="44.02255" lon="3.51352">
        <ele>1273.6</ele>
        <time>2026-05-28T13:14:06.999Z</time>
      </trkpt>
      <trkpt lat="44.02255" lon="3.51352">
        <ele>1273.7</ele>
        <time>2026-05-28T13:14:07.999Z</time>
      </trkpt>
      <trkpt lat="44.02255" lon="3.51353">
        <ele>1273.9</ele>
        <time>2026-05-28T13:14:08.999Z</time>
      </trkpt>
      <trkpt lat="44.02254" lon="3.51353">
        <ele>1273.9</ele>
        <time>2026-05-28T13:14:09.999Z</time>
      </trkpt>
      <trkpt lat="44.02254" lon="3.51354">
        <ele>1273.6</ele>
        <time>2026-05-28T13:14:10.999Z</time>
      </trkpt>
      <trkpt lat="44.02254" lon="3.51354">
        <ele>1273</ele>
        <time>2026-05-28T13:14:11.999Z</time>
      </trkpt>
      <trkpt lat="44.02253" lon="3.51355">
        <ele>1272.5</ele>
        <time>2026-05-28T13:14:12.999Z</time>
      </trkpt>
      <trkpt lat="44.02252" lon="3.51358">
        <ele>1272.1</ele>
        <time>2026-05-28T13:14:13.999Z</time>
      </trkpt>
      <trkpt lat="44.02251" lon="3.51362">
        <ele>1271.8</ele>
        <time>2026-05-28T13:14:14.999Z</time>
      </trkpt>
      <trkpt lat="44.02249" lon="3.51366">
        <ele>1272.7</ele>
        <time>2026-05-28T13:14:15.999Z</time>
      </trkpt>
      <trkpt lat="44.02248" lon="3.51369">
        <ele>1273.2</ele>
        <time>2026-05-28T13:14:16.999Z</time>
      </trkpt>
      <trkpt lat="44.02246" lon="3.5137">
        <ele>1273.3</ele>
        <time>2026-05-28T13:14:17.999Z</time>
      </trkpt>
      <trkpt lat="44.02245" lon="3.51372">
        <ele>1273.8</ele>
        <time>2026-05-28T13:14:18.999Z</time>
      </trkpt>
      <trkpt lat="44.02244" lon="3.51374">
        <ele>1273.9</ele>
        <time>2026-05-28T13:14:19.999Z</time>
      </trkpt>
      <trkpt lat="44.02243" lon="3.51375">
        <ele>1274.1</ele>
        <time>2026-05-28T13:14:20.999Z</time>
      </trkpt>
      <trkpt lat="44.02242" lon="3.51377">
        <ele>1274.2</ele>
        <time>2026-05-28T13:14:21.999Z</time>
      </trkpt>
      <trkpt lat="44.02241" lon="3.51378">
        <ele>1274.4</ele>
        <time>2026-05-28T13:14:22.999Z</time>
      </trkpt>
      <trkpt lat="44.02239" lon="3.51378">
        <ele>1274.6</ele>
        <time>2026-05-28T13:14:23.999Z</time>
      </trkpt>
      <trkpt lat="44.02239" lon="3.51378">
        <ele>1275.2</ele>
        <time>2026-05-28T13:14:24.999Z</time>
      </trkpt>
      <trkpt lat="44.02239" lon="3.51378">
        <ele>1275.5</ele>
        <time>2026-05-28T13:14:25.999Z</time>
      </trkpt>
      <trkpt lat="44.02238" lon="3.51378">
        <ele>1275.3</ele>
        <time>2026-05-28T13:14:26.999Z</time>
      </trkpt>
      <trkpt lat="44.02238" lon="3.51379">
        <ele>1275</ele>
        <time>2026-05-28T13:14:27.999Z</time>
      </trkpt>
      <trkpt lat="44.02236" lon="3.51379">
        <ele>1274.8</ele>
        <time>2026-05-28T13:14:28.999Z</time>
      </trkpt>
      <trkpt lat="44.02235" lon="3.51379">
        <ele>1274.9</ele>
        <time>2026-05-28T13:14:29.999Z</time>
      </trkpt>
      <trkpt lat="44.02234" lon="3.51379">
        <ele>1274.9</ele>
        <time>2026-05-28T13:14:30.999Z</time>
      </trkpt>
      <trkpt lat="44.02234" lon="3.51379">
        <ele>1274.6</ele>
        <time>2026-05-28T13:14:31.999Z</time>
      </trkpt>
      <trkpt lat="44.02232" lon="3.5138">
        <ele>1275</ele>
        <time>2026-05-28T13:14:32.999Z</time>
      </trkpt>
      <trkpt lat="44.02231" lon="3.51381">
        <ele>1275.2</ele>
        <time>2026-05-28T13:14:33.999Z</time>
      </trkpt>
      <trkpt lat="44.0223" lon="3.51382">
        <ele>1274.7</ele>
        <time>2026-05-28T13:14:34.999Z</time>
      </trkpt>
      <trkpt lat="44.02229" lon="3.51383">
        <ele>1274.4</ele>
        <time>2026-05-28T13:14:35.999Z</time>
      </trkpt>
      <trkpt lat="44.02227" lon="3.51385">
        <ele>1273.9</ele>
        <time>2026-05-28T13:14:36.999Z</time>
      </trkpt>
      <trkpt lat="44.02226" lon="3.51387">
        <ele>1274</ele>
        <time>2026-05-28T13:14:37.999Z</time>
      </trkpt>
      <trkpt lat="44.02225" lon="3.51388">
        <ele>1274</ele>
        <time>2026-05-28T13:14:38.999Z</time>
      </trkpt>
      <trkpt lat="44.02223" lon="3.51388">
        <ele>1274.4</ele>
        <time>2026-05-28T13:14:39.999Z</time>
      </trkpt>
      <trkpt lat="44.02222" lon="3.51389">
        <ele>1274.2</ele>
        <time>2026-05-28T13:14:40.999Z</time>
      </trkpt>
      <trkpt lat="44.02222" lon="3.51389">
        <ele>1274.4</ele>
        <time>2026-05-28T13:14:41.999Z</time>
      </trkpt>
      <trkpt lat="44.02221" lon="3.51389">
        <ele>1274.4</ele>
        <time>2026-05-28T13:14:42.999Z</time>
      </trkpt>
      <trkpt lat="44.0222" lon="3.5139">
        <ele>1274.3</ele>
        <time>2026-05-28T13:14:43.999Z</time>
      </trkpt>
      <trkpt lat="44.0222" lon="3.51391">
        <ele>1274</ele>
        <time>2026-05-28T13:14:44.999Z</time>
      </trkpt>
      <trkpt lat="44.02219" lon="3.51392">
        <ele>1273.5</ele>
        <time>2026-05-28T13:14:45.999Z</time>
      </trkpt>
      <trkpt lat="44.02218" lon="3.51393">
        <ele>1273.4</ele>
        <time>2026-05-28T13:14:46.999Z</time>
      </trkpt>
      <trkpt lat="44.02218" lon="3.51394">
        <ele>1273.3</ele>
        <time>2026-05-28T13:14:47.999Z</time>
      </trkpt>
      <trkpt lat="44.02217" lon="3.51394">
        <ele>1273.3</ele>
        <time>2026-05-28T13:14:48.999Z</time>
      </trkpt>
      <trkpt lat="44.02217" lon="3.51395">
        <ele>1272.6</ele>
        <time>2026-05-28T13:14:49.999Z</time>
      </trkpt>
      <trkpt lat="44.02216" lon="3.51396">
        <ele>1272.2</ele>
        <time>2026-05-28T13:14:50.999Z</time>
      </trkpt>
      <trkpt lat="44.02215" lon="3.51397">
        <ele>1272.4</ele>
        <time>2026-05-28T13:14:51.999Z</time>
      </trkpt>
      <trkpt lat="44.02214" lon="3.51398">
        <ele>1272.7</ele>
        <time>2026-05-28T13:14:52.999Z</time>
      </trkpt>
      <trkpt lat="44.02213" lon="3.514">
        <ele>1272.6</ele>
        <time>2026-05-28T13:14:53.999Z</time>
      </trkpt>
      <trkpt lat="44.02212" lon="3.51403">
        <ele>1272.3</ele>
        <time>2026-05-28T13:14:54.999Z</time>
      </trkpt>
      <trkpt lat="44.02211" lon="3.51404">
        <ele>1272.1</ele>
        <time>2026-05-28T13:14:55.999Z</time>
      </trkpt>
      <trkpt lat="44.02211" lon="3.51404">
        <ele>1272.1</ele>
        <time>2026-05-28T13:14:56.999Z</time>
      </trkpt>
      <trkpt lat="44.02209" lon="3.51405">
        <ele>1272.4</ele>
        <time>2026-05-28T13:14:57.999Z</time>
      </trkpt>
      <trkpt lat="44.02208" lon="3.51406">
        <ele>1272.3</ele>
        <time>2026-05-28T13:14:58.999Z</time>
      </trkpt>
      <trkpt lat="44.02207" lon="3.51407">
        <ele>1272.7</ele>
        <time>2026-05-28T13:14:59.999Z</time>
      </trkpt>
      <trkpt lat="44.02206" lon="3.51408">
        <ele>1272.3</ele>
        <time>2026-05-28T13:15:00.999Z</time>
      </trkpt>
      <trkpt lat="44.02205" lon="3.51408">
        <ele>1272.5</ele>
        <time>2026-05-28T13:15:01.999Z</time>
      </trkpt>
      <trkpt lat="44.02205" lon="3.51408">
        <ele>1272.1</ele>
        <time>2026-05-28T13:15:02.999Z</time>
      </trkpt>
      <trkpt lat="44.02204" lon="3.51408">
        <ele>1272.4</ele>
        <time>2026-05-28T13:15:03.999Z</time>
      </trkpt>
      <trkpt lat="44.02204" lon="3.51409">
        <ele>1272.4</ele>
        <time>2026-05-28T13:15:04.999Z</time>
      </trkpt>
      <trkpt lat="44.02204" lon="3.51409">
        <ele>1272.2</ele>
        <time>2026-05-28T13:15:05.999Z</time>
      </trkpt>
      <trkpt lat="44.02203" lon="3.51409">
        <ele>1272</ele>
        <time>2026-05-28T13:15:06.999Z</time>
      </trkpt>
      <trkpt lat="44.02202" lon="3.51409">
        <ele>1271.8</ele>
        <time>2026-05-28T13:15:07.999Z</time>
      </trkpt>
      <trkpt lat="44.02201" lon="3.51409">
        <ele>1271.9</ele>
        <time>2026-05-28T13:15:08.999Z</time>
      </trkpt>
      <trkpt lat="44.02201" lon="3.51408">
        <ele>1272</ele>
        <time>2026-05-28T13:15:09.999Z</time>
      </trkpt>
      <trkpt lat="44.02201" lon="3.51408">
        <ele>1272</ele>
        <time>2026-05-28T13:15:10.999Z</time>
      </trkpt>
      <trkpt lat="44.02201" lon="3.51408">
        <ele>1271.6</ele>
        <time>2026-05-28T13:15:11.999Z</time>
      </trkpt>
      <trkpt lat="44.02201" lon="3.51408">
        <ele>1271.7</ele>
        <time>2026-05-28T13:15:12.999Z</time>
      </trkpt>
      <trkpt lat="44.022" lon="3.51408">
        <ele>1271.4</ele>
        <time>2026-05-28T13:15:13.999Z</time>
      </trkpt>
      <trkpt lat="44.022" lon="3.51408">
        <ele>1271.4</ele>
        <time>2026-05-28T13:15:14.999Z</time>
      </trkpt>
      <trkpt lat="44.022" lon="3.51407">
        <ele>1271.5</ele>
        <time>2026-05-28T13:15:15.999Z</time>
      </trkpt>
      <trkpt lat="44.02199" lon="3.51407">
        <ele>1271.7</ele>
        <time>2026-05-28T13:15:16.999Z</time>
      </trkpt>
      <trkpt lat="44.02199" lon="3.51407">
        <ele>1271.5</ele>
        <time>2026-05-28T13:15:17.999Z</time>
      </trkpt>
      <trkpt lat="44.02199" lon="3.51406">
        <ele>1271.5</ele>
        <time>2026-05-28T13:15:18.999Z</time>
      </trkpt>
      <trkpt lat="44.02199" lon="3.51406">
        <ele>1271.5</ele>
        <time>2026-05-28T13:15:19.999Z</time>
      </trkpt>
      <trkpt lat="44.02198" lon="3.51405">
        <ele>1271.6</ele>
        <time>2026-05-28T13:15:20.999Z</time>
      </trkpt>
      <trkpt lat="44.02198" lon="3.51404">
        <ele>1271.5</ele>
        <time>2026-05-28T13:15:21.999Z</time>
      </trkpt>
      <trkpt lat="44.02199" lon="3.51402">
        <ele>1271.2</ele>
        <time>2026-05-28T13:15:22.999Z</time>
      </trkpt>
      <trkpt lat="44.02199" lon="3.51401">
        <ele>1271.2</ele>
        <time>2026-05-28T13:15:23.999Z</time>
      </trkpt>
      <trkpt lat="44.02199" lon="3.51399">
        <ele>1271.3</ele>
        <time>2026-05-28T13:15:24.999Z</time>
      </trkpt>
      <trkpt lat="44.022" lon="3.51398">
        <ele>1271.2</ele>
        <time>2026-05-28T13:15:25.999Z</time>
      </trkpt>
      <trkpt lat="44.022" lon="3.51398">
        <ele>1271.4</ele>
        <time>2026-05-28T13:15:26.999Z</time>
      </trkpt>
      <trkpt lat="44.022" lon="3.51398">
        <ele>1271.4</ele>
        <time>2026-05-28T13:15:27.999Z</time>
      </trkpt>
      <trkpt lat="44.022" lon="3.51397">
        <ele>1271.5</ele>
        <time>2026-05-28T13:15:28.999Z</time>
      </trkpt>
      <trkpt lat="44.02199" lon="3.51396">
        <ele>1271.4</ele>
        <time>2026-05-28T13:15:29.999Z</time>
      </trkpt>
      <trkpt lat="44.022" lon="3.51396">
        <ele>1271.3</ele>
        <time>2026-05-28T13:15:30.999Z</time>
      </trkpt>
      <trkpt lat="44.022" lon="3.51395">
        <ele>1271.2</ele>
        <time>2026-05-28T13:15:31.999Z</time>
      </trkpt>
      <trkpt lat="44.02199" lon="3.51394">
        <ele>1271.1</ele>
        <time>2026-05-28T13:15:32.999Z</time>
      </trkpt>
      <trkpt lat="44.02199" lon="3.51394">
        <ele>1270.6</ele>
        <time>2026-05-28T13:15:33.999Z</time>
      </trkpt>
      <trkpt lat="44.02199" lon="3.51393">
        <ele>1270</ele>
        <time>2026-05-28T13:15:34.999Z</time>
      </trkpt>
      <trkpt lat="44.02199" lon="3.51393">
        <ele>1269.6</ele>
        <time>2026-05-28T13:15:35.999Z</time>
      </trkpt>
      <trkpt lat="44.02199" lon="3.51393">
        <ele>1269.7</ele>
        <time>2026-05-28T13:15:36.999Z</time>
      </trkpt>
      <trkpt lat="44.02199" lon="3.51391">
        <ele>1269.6</ele>
        <time>2026-05-28T13:15:37.999Z</time>
      </trkpt>
      <trkpt lat="44.02199" lon="3.5139">
        <ele>1269.7</ele>
        <time>2026-05-28T13:15:38.999Z</time>
      </trkpt>
      <trkpt lat="44.02198" lon="3.5139">
        <ele>1270.1</ele>
        <time>2026-05-28T13:15:39.999Z</time>
      </trkpt>
      <trkpt lat="44.02198" lon="3.51389">
        <ele>1270.2</ele>
        <time>2026-05-28T13:15:40.999Z</time>
      </trkpt>
      <trkpt lat="44.02198" lon="3.51388">
        <ele>1270.4</ele>
        <time>2026-05-28T13:15:41.999Z</time>
      </trkpt>
      <trkpt lat="44.02198" lon="3.51387">
        <ele>1270.1</ele>
        <time>2026-05-28T13:15:42.999Z</time>
      </trkpt>
      <trkpt lat="44.02198" lon="3.51386">
        <ele>1270.2</ele>
        <time>2026-05-28T13:15:43.999Z</time>
      </trkpt>
      <trkpt lat="44.02198" lon="3.51386">
        <ele>1270</ele>
        <time>2026-05-28T13:15:44.999Z</time>
      </trkpt>
      <trkpt lat="44.02198" lon="3.51385">
        <ele>1270</ele>
        <time>2026-05-28T13:15:45.999Z</time>
      </trkpt>
      <trkpt lat="44.02198" lon="3.51384">
        <ele>1269.7</ele>
        <time>2026-05-28T13:15:46.999Z</time>
      </trkpt>
      <trkpt lat="44.02197" lon="3.51383">
        <ele>1269.5</ele>
        <time>2026-05-28T13:15:47.999Z</time>
      </trkpt>
      <trkpt lat="44.02197" lon="3.51382">
        <ele>1269.2</ele>
        <time>2026-05-28T13:15:48.999Z</time>
      </trkpt>
      <trkpt lat="44.02197" lon="3.51382">
        <ele>1269</ele>
        <time>2026-05-28T13:15:49.999Z</time>
      </trkpt>
      <trkpt lat="44.02197" lon="3.51382">
        <ele>1268.8</ele>
        <time>2026-05-28T13:15:50.999Z</time>
      </trkpt>
      <trkpt lat="44.02197" lon="3.51381">
        <ele>1268.7</ele>
        <time>2026-05-28T13:15:51.999Z</time>
      </trkpt>
      <trkpt lat="44.02197" lon="3.51381">
        <ele>1268.6</ele>
        <time>2026-05-28T13:15:52.999Z</time>
      </trkpt>
      <trkpt lat="44.02197" lon="3.5138">
        <ele>1268.7</ele>
        <time>2026-05-28T13:15:53.999Z</time>
      </trkpt>
      <trkpt lat="44.02197" lon="3.5138">
        <ele>1269.2</ele>
        <time>2026-05-28T13:15:54.999Z</time>
      </trkpt>
      <trkpt lat="44.02197" lon="3.51378">
        <ele>1269.5</ele>
        <time>2026-05-28T13:15:55.999Z</time>
      </trkpt>
      <trkpt lat="44.02196" lon="3.51376">
        <ele>1270.2</ele>
        <time>2026-05-28T13:15:56.999Z</time>
      </trkpt>
      <trkpt lat="44.02196" lon="3.51374">
        <ele>1270.3</ele>
        <time>2026-05-28T13:15:57.999Z</time>
      </trkpt>
      <trkpt lat="44.02195" lon="3.51369">
        <ele>1270.1</ele>
        <time>2026-05-28T13:15:58.999Z</time>
      </trkpt>
      <trkpt lat="44.02193" lon="3.51363">
        <ele>1270</ele>
        <time>2026-05-28T13:15:59.999Z</time>
      </trkpt>
      <trkpt lat="44.02191" lon="3.51358">
        <ele>1269.4</ele>
        <time>2026-05-28T13:16:00.999Z</time>
      </trkpt>
      <trkpt lat="44.02189" lon="3.51354">
        <ele>1269</ele>
        <time>2026-05-28T13:16:01.999Z</time>
      </trkpt>
      <trkpt lat="44.02187" lon="3.5135">
        <ele>1268.4</ele>
        <time>2026-05-28T13:16:02.999Z</time>
      </trkpt>
      <trkpt lat="44.02186" lon="3.51346">
        <ele>1268.3</ele>
        <time>2026-05-28T13:16:03.999Z</time>
      </trkpt>
      <trkpt lat="44.02185" lon="3.51344">
        <ele>1268.1</ele>
        <time>2026-05-28T13:16:04.999Z</time>
      </trkpt>
      <trkpt lat="44.02184" lon="3.51342">
        <ele>1267.8</ele>
        <time>2026-05-28T13:16:05.999Z</time>
      </trkpt>
      <trkpt lat="44.02183" lon="3.51339">
        <ele>1267.6</ele>
        <time>2026-05-28T13:16:06.999Z</time>
      </trkpt>
      <trkpt lat="44.02181" lon="3.51337">
        <ele>1267.6</ele>
        <time>2026-05-28T13:16:07.999Z</time>
      </trkpt>
      <trkpt lat="44.02181" lon="3.51336">
        <ele>1267.2</ele>
        <time>2026-05-28T13:16:08.999Z</time>
      </trkpt>
      <trkpt lat="44.02181" lon="3.51334">
        <ele>1266.9</ele>
        <time>2026-05-28T13:16:09.999Z</time>
      </trkpt>
      <trkpt lat="44.0218" lon="3.51333">
        <ele>1266.6</ele>
        <time>2026-05-28T13:16:10.999Z</time>
      </trkpt>
      <trkpt lat="44.02179" lon="3.51332">
        <ele>1266.3</ele>
        <time>2026-05-28T13:16:11.999Z</time>
      </trkpt>
      <trkpt lat="44.02179" lon="3.51331">
        <ele>1265.6</ele>
        <time>2026-05-28T13:16:12.999Z</time>
      </trkpt>
      <trkpt lat="44.02178" lon="3.51329">
        <ele>1264.9</ele>
        <time>2026-05-28T13:16:13.999Z</time>
      </trkpt>
      <trkpt lat="44.02178" lon="3.51329">
        <ele>1264.2</ele>
        <time>2026-05-28T13:16:14.999Z</time>
      </trkpt>
      <trkpt lat="44.02177" lon="3.51328">
        <ele>1263.7</ele>
        <time>2026-05-28T13:16:15.999Z</time>
      </trkpt>
      <trkpt lat="44.02176" lon="3.51327">
        <ele>1262.9</ele>
        <time>2026-05-28T13:16:16.999Z</time>
      </trkpt>
      <trkpt lat="44.02175" lon="3.51325">
        <ele>1262.4</ele>
        <time>2026-05-28T13:16:17.999Z</time>
      </trkpt>
      <trkpt lat="44.02174" lon="3.51324">
        <ele>1262</ele>
        <time>2026-05-28T13:16:18.999Z</time>
      </trkpt>
      <trkpt lat="44.02173" lon="3.51323">
        <ele>1261.4</ele>
        <time>2026-05-28T13:16:19.999Z</time>
      </trkpt>
      <trkpt lat="44.02171" lon="3.51322">
        <ele>1260.8</ele>
        <time>2026-05-28T13:16:20.999Z</time>
      </trkpt>
      <trkpt lat="44.0217" lon="3.51321">
        <ele>1260.3</ele>
        <time>2026-05-28T13:16:21.999Z</time>
      </trkpt>
      <trkpt lat="44.02169" lon="3.5132">
        <ele>1260.1</ele>
        <time>2026-05-28T13:16:22.999Z</time>
      </trkpt>
      <trkpt lat="44.02169" lon="3.5132">
        <ele>1260</ele>
        <time>2026-05-28T13:16:23.999Z</time>
      </trkpt>
      <trkpt lat="44.02168" lon="3.5132">
        <ele>1259.5</ele>
        <time>2026-05-28T13:16:24.999Z</time>
      </trkpt>
      <trkpt lat="44.02167" lon="3.51319">
        <ele>1259.1</ele>
        <time>2026-05-28T13:16:25.999Z</time>
      </trkpt>
      <trkpt lat="44.02166" lon="3.51318">
        <ele>1258.8</ele>
        <time>2026-05-28T13:16:26.999Z</time>
      </trkpt>
      <trkpt lat="44.02165" lon="3.51317">
        <ele>1260</ele>
        <time>2026-05-28T13:16:27.999Z</time>
      </trkpt>
      <trkpt lat="44.02164" lon="3.51316">
        <ele>1260.1</ele>
        <time>2026-05-28T13:16:28.999Z</time>
      </trkpt>
      <trkpt lat="44.02162" lon="3.51316">
        <ele>1260</ele>
        <time>2026-05-28T13:16:29.999Z</time>
      </trkpt>
      <trkpt lat="44.02162" lon="3.51315">
        <ele>1259.5</ele>
        <time>2026-05-28T13:16:30.999Z</time>
      </trkpt>
      <trkpt lat="44.02161" lon="3.51314">
        <ele>1259.3</ele>
        <time>2026-05-28T13:16:31.999Z</time>
      </trkpt>
      <trkpt lat="44.02161" lon="3.51312">
        <ele>1259</ele>
        <time>2026-05-28T13:16:32.999Z</time>
      </trkpt>
      <trkpt lat="44.0216" lon="3.5131">
        <ele>1258.9</ele>
        <time>2026-05-28T13:16:33.999Z</time>
      </trkpt>
      <trkpt lat="44.02159" lon="3.51308">
        <ele>1259.7</ele>
        <time>2026-05-28T13:16:34.999Z</time>
      </trkpt>
      <trkpt lat="44.02158" lon="3.51306">
        <ele>1259.2</ele>
        <time>2026-05-28T13:16:35.999Z</time>
      </trkpt>
      <trkpt lat="44.02157" lon="3.51305">
        <ele>1259.4</ele>
        <time>2026-05-28T13:16:36.999Z</time>
      </trkpt>
      <trkpt lat="44.02156" lon="3.51304">
        <ele>1259.4</ele>
        <time>2026-05-28T13:16:37.999Z</time>
      </trkpt>
      <trkpt lat="44.02156" lon="3.51303">
        <ele>1259.1</ele>
        <time>2026-05-28T13:16:38.999Z</time>
      </trkpt>
      <trkpt lat="44.02155" lon="3.51302">
        <ele>1259.3</ele>
        <time>2026-05-28T13:16:39.999Z</time>
      </trkpt>
      <trkpt lat="44.02155" lon="3.51301">
        <ele>1259.7</ele>
        <time>2026-05-28T13:16:40.999Z</time>
      </trkpt>
      <trkpt lat="44.02154" lon="3.51299">
        <ele>1259.5</ele>
        <time>2026-05-28T13:16:41.999Z</time>
      </trkpt>
      <trkpt lat="44.02153" lon="3.51298">
        <ele>1259.3</ele>
        <time>2026-05-28T13:16:42.999Z</time>
      </trkpt>
      <trkpt lat="44.02152" lon="3.51296">
        <ele>1259.1</ele>
        <time>2026-05-28T13:16:43.999Z</time>
      </trkpt>
      <trkpt lat="44.02151" lon="3.51294">
        <ele>1258.8</ele>
        <time>2026-05-28T13:16:44.999Z</time>
      </trkpt>
      <trkpt lat="44.0215" lon="3.51293">
        <ele>1259.4</ele>
        <time>2026-05-28T13:16:45.999Z</time>
      </trkpt>
      <trkpt lat="44.02149" lon="3.51292">
        <ele>1259.5</ele>
        <time>2026-05-28T13:16:46.999Z</time>
      </trkpt>
      <trkpt lat="44.02148" lon="3.5129">
        <ele>1260.1</ele>
        <time>2026-05-28T13:16:47.999Z</time>
      </trkpt>
      <trkpt lat="44.02148" lon="3.51289">
        <ele>1260.6</ele>
        <time>2026-05-28T13:16:48.999Z</time>
      </trkpt>
      <trkpt lat="44.02147" lon="3.5129">
        <ele>1261.2</ele>
        <time>2026-05-28T13:16:49.999Z</time>
      </trkpt>
      <trkpt lat="44.02146" lon="3.5129">
        <ele>1261.2</ele>
        <time>2026-05-28T13:16:50.999Z</time>
      </trkpt>
      <trkpt lat="44.02145" lon="3.51292">
        <ele>1261.9</ele>
        <time>2026-05-28T13:16:51.999Z</time>
      </trkpt>
      <trkpt lat="44.02143" lon="3.5129">
        <ele>1261.3</ele>
        <time>2026-05-28T13:16:53.999Z</time>
      </trkpt>
      <trkpt lat="44.02142" lon="3.51289">
        <ele>1260.5</ele>
        <time>2026-05-28T13:16:54.999Z</time>
      </trkpt>
      <trkpt lat="44.02141" lon="3.5129">
        <ele>1260.5</ele>
        <time>2026-05-28T13:16:55.999Z</time>
      </trkpt>
      <trkpt lat="44.02139" lon="3.5129">
        <ele>1260.5</ele>
        <time>2026-05-28T13:16:56.999Z</time>
      </trkpt>
      <trkpt lat="44.02138" lon="3.5129">
        <ele>1260.5</ele>
        <time>2026-05-28T13:16:57.999Z</time>
      </trkpt>
      <trkpt lat="44.02138" lon="3.5129">
        <ele>1260.4</ele>
        <time>2026-05-28T13:16:58.999Z</time>
      </trkpt>
      <trkpt lat="44.02136" lon="3.51288">
        <ele>1260.4</ele>
        <time>2026-05-28T13:16:59.999Z</time>
      </trkpt>
      <trkpt lat="44.02135" lon="3.51287">
        <ele>1260.1</ele>
        <time>2026-05-28T13:17:00.999Z</time>
      </trkpt>
      <trkpt lat="44.02133" lon="3.51286">
        <ele>1259.6</ele>
        <time>2026-05-28T13:17:01.999Z</time>
      </trkpt>
      <trkpt lat="44.02133" lon="3.51286">
        <ele>1259.2</ele>
        <time>2026-05-28T13:17:02.999Z</time>
      </trkpt>
      <trkpt lat="44.02133" lon="3.51286">
        <ele>1259</ele>
        <time>2026-05-28T13:17:03.999Z</time>
      </trkpt>
      <trkpt lat="44.02132" lon="3.51286">
        <ele>1258.6</ele>
        <time>2026-05-28T13:17:04.999Z</time>
      </trkpt>
      <trkpt lat="44.02132" lon="3.51286">
        <ele>1258.1</ele>
        <time>2026-05-28T13:17:05.999Z</time>
      </trkpt>
      <trkpt lat="44.02132" lon="3.51286">
        <ele>1258</ele>
        <time>2026-05-28T13:17:06.999Z</time>
      </trkpt>
      <trkpt lat="44.02132" lon="3.51286">
        <ele>1257.4</ele>
        <time>2026-05-28T13:17:07.999Z</time>
      </trkpt>
      <trkpt lat="44.02132" lon="3.51286">
        <ele>1257</ele>
        <time>2026-05-28T13:17:08.999Z</time>
      </trkpt>
      <trkpt lat="44.02131" lon="3.51286">
        <ele>1257.2</ele>
        <time>2026-05-28T13:17:09.999Z</time>
      </trkpt>
      <trkpt lat="44.02129" lon="3.51285">
        <ele>1257.3</ele>
        <time>2026-05-28T13:17:10.999Z</time>
      </trkpt>
      <trkpt lat="44.02127" lon="3.51285">
        <ele>1257.1</ele>
        <time>2026-05-28T13:17:11.999Z</time>
      </trkpt>
      <trkpt lat="44.02126" lon="3.51285">
        <ele>1256.9</ele>
        <time>2026-05-28T13:17:12.999Z</time>
      </trkpt>
      <trkpt lat="44.02124" lon="3.51285">
        <ele>1256.8</ele>
        <time>2026-05-28T13:17:13.999Z</time>
      </trkpt>
      <trkpt lat="44.02124" lon="3.51285">
        <ele>1257</ele>
        <time>2026-05-28T13:17:14.999Z</time>
      </trkpt>
      <trkpt lat="44.02122" lon="3.51284">
        <ele>1257.2</ele>
        <time>2026-05-28T13:17:15.999Z</time>
      </trkpt>
      <trkpt lat="44.02121" lon="3.51284">
        <ele>1257.4</ele>
        <time>2026-05-28T13:17:16.999Z</time>
      </trkpt>
      <trkpt lat="44.02119" lon="3.51285">
        <ele>1257.4</ele>
        <time>2026-05-28T13:17:17.999Z</time>
      </trkpt>
      <trkpt lat="44.02118" lon="3.51285">
        <ele>1257.9</ele>
        <time>2026-05-28T13:17:18.999Z</time>
      </trkpt>
      <trkpt lat="44.02115" lon="3.51285">
        <ele>1258.1</ele>
        <time>2026-05-28T13:17:19.999Z</time>
      </trkpt>
      <trkpt lat="44.02113" lon="3.51285">
        <ele>1258.1</ele>
        <time>2026-05-28T13:17:20.999Z</time>
      </trkpt>
      <trkpt lat="44.02111" lon="3.51286">
        <ele>1257.8</ele>
        <time>2026-05-28T13:17:21.999Z</time>
      </trkpt>
      <trkpt lat="44.0211" lon="3.51286">
        <ele>1258</ele>
        <time>2026-05-28T13:17:22.999Z</time>
      </trkpt>
      <trkpt lat="44.02109" lon="3.51287">
        <ele>1258</ele>
        <time>2026-05-28T13:17:23.999Z</time>
      </trkpt>
      <trkpt lat="44.02108" lon="3.51287">
        <ele>1258.1</ele>
        <time>2026-05-28T13:17:24.999Z</time>
      </trkpt>
      <trkpt lat="44.02107" lon="3.51287">
        <ele>1258.8</ele>
        <time>2026-05-28T13:17:25.999Z</time>
      </trkpt>
      <trkpt lat="44.02107" lon="3.51287">
        <ele>1259.1</ele>
        <time>2026-05-28T13:17:26.999Z</time>
      </trkpt>
      <trkpt lat="44.02107" lon="3.51288">
        <ele>1259.3</ele>
        <time>2026-05-28T13:17:27.999Z</time>
      </trkpt>
      <trkpt lat="44.02107" lon="3.51288">
        <ele>1259.7</ele>
        <time>2026-05-28T13:17:28.999Z</time>
      </trkpt>
      <trkpt lat="44.02106" lon="3.51287">
        <ele>1259.7</ele>
        <time>2026-05-28T13:17:29.999Z</time>
      </trkpt>
      <trkpt lat="44.02106" lon="3.51287">
        <ele>1259.6</ele>
        <time>2026-05-28T13:17:30.999Z</time>
      </trkpt>
      <trkpt lat="44.02106" lon="3.51287">
        <ele>1259.6</ele>
        <time>2026-05-28T13:17:31.999Z</time>
      </trkpt>
      <trkpt lat="44.02104" lon="3.51287">
        <ele>1259.3</ele>
        <time>2026-05-28T13:17:32.999Z</time>
      </trkpt>
      <trkpt lat="44.02103" lon="3.51286">
        <ele>1259.1</ele>
        <time>2026-05-28T13:17:33.999Z</time>
      </trkpt>
      <trkpt lat="44.02102" lon="3.51285">
        <ele>1259</ele>
        <time>2026-05-28T13:17:34.999Z</time>
      </trkpt>
      <trkpt lat="44.02101" lon="3.51284">
        <ele>1258.8</ele>
        <time>2026-05-28T13:17:35.999Z</time>
      </trkpt>
      <trkpt lat="44.02099" lon="3.51283">
        <ele>1258.6</ele>
        <time>2026-05-28T13:17:36.999Z</time>
      </trkpt>
      <trkpt lat="44.02097" lon="3.51282">
        <ele>1258.5</ele>
        <time>2026-05-28T13:17:37.999Z</time>
      </trkpt>
      <trkpt lat="44.02096" lon="3.51283">
        <ele>1259.1</ele>
        <time>2026-05-28T13:17:38.999Z</time>
      </trkpt>
      <trkpt lat="44.02095" lon="3.51283">
        <ele>1259.8</ele>
        <time>2026-05-28T13:17:39.999Z</time>
      </trkpt>
      <trkpt lat="44.02095" lon="3.51283">
        <ele>1259.9</ele>
        <time>2026-05-28T13:17:40.999Z</time>
      </trkpt>
      <trkpt lat="44.02094" lon="3.51283">
        <ele>1259.7</ele>
        <time>2026-05-28T13:17:41.999Z</time>
      </trkpt>
      <trkpt lat="44.02094" lon="3.51283">
        <ele>1259.7</ele>
        <time>2026-05-28T13:17:42.999Z</time>
      </trkpt>
      <trkpt lat="44.02094" lon="3.51283">
        <ele>1259.8</ele>
        <time>2026-05-28T13:17:43.999Z</time>
      </trkpt>
      <trkpt lat="44.02093" lon="3.51283">
        <ele>1260.1</ele>
        <time>2026-05-28T13:17:44.999Z</time>
      </trkpt>
      <trkpt lat="44.02093" lon="3.51283">
        <ele>1260.1</ele>
        <time>2026-05-28T13:17:45.999Z</time>
      </trkpt>
      <trkpt lat="44.02092" lon="3.51283">
        <ele>1259.7</ele>
        <time>2026-05-28T13:17:46.999Z</time>
      </trkpt>
      <trkpt lat="44.02091" lon="3.51284">
        <ele>1259.7</ele>
        <time>2026-05-28T13:17:47.999Z</time>
      </trkpt>
      <trkpt lat="44.02089" lon="3.51286">
        <ele>1259.4</ele>
        <time>2026-05-28T13:17:48.999Z</time>
      </trkpt>
      <trkpt lat="44.02086" lon="3.51286">
        <ele>1259</ele>
        <time>2026-05-28T13:17:49.999Z</time>
      </trkpt>
      <trkpt lat="44.02084" lon="3.51286">
        <ele>1258.7</ele>
        <time>2026-05-28T13:17:50.999Z</time>
      </trkpt>
      <trkpt lat="44.02081" lon="3.51284">
        <ele>1258.3</ele>
        <time>2026-05-28T13:17:51.999Z</time>
      </trkpt>
      <trkpt lat="44.02079" lon="3.51285">
        <ele>1257.7</ele>
        <time>2026-05-28T13:17:52.999Z</time>
      </trkpt>
      <trkpt lat="44.02077" lon="3.51285">
        <ele>1257.2</ele>
        <time>2026-05-28T13:17:53.999Z</time>
      </trkpt>
      <trkpt lat="44.02076" lon="3.51284">
        <ele>1256.7</ele>
        <time>2026-05-28T13:17:54.999Z</time>
      </trkpt>
      <trkpt lat="44.02074" lon="3.51284">
        <ele>1256.6</ele>
        <time>2026-05-28T13:17:55.999Z</time>
      </trkpt>
      <trkpt lat="44.02072" lon="3.51284">
        <ele>1256.4</ele>
        <time>2026-05-28T13:17:56.999Z</time>
      </trkpt>
      <trkpt lat="44.0207" lon="3.51283">
        <ele>1256.5</ele>
        <time>2026-05-28T13:17:57.999Z</time>
      </trkpt>
      <trkpt lat="44.02069" lon="3.51282">
        <ele>1256.7</ele>
        <time>2026-05-28T13:17:58.999Z</time>
      </trkpt>
      <trkpt lat="44.02068" lon="3.51283">
        <ele>1256.5</ele>
        <time>2026-05-28T13:17:59.999Z</time>
      </trkpt>
      <trkpt lat="44.02067" lon="3.51283">
        <ele>1256.2</ele>
        <time>2026-05-28T13:18:00.999Z</time>
      </trkpt>
      <trkpt lat="44.02066" lon="3.51283">
        <ele>1256.7</ele>
        <time>2026-05-28T13:18:01.999Z</time>
      </trkpt>
      <trkpt lat="44.02066" lon="3.51284">
        <ele>1256.9</ele>
        <time>2026-05-28T13:18:02.999Z</time>
      </trkpt>
      <trkpt lat="44.02066" lon="3.51284">
        <ele>1257.3</ele>
        <time>2026-05-28T13:18:03.999Z</time>
      </trkpt>
      <trkpt lat="44.02065" lon="3.51284">
        <ele>1257.5</ele>
        <time>2026-05-28T13:18:05.000Z</time>
      </trkpt>
      <trkpt lat="44.02065" lon="3.51284">
        <ele>1257.5</ele>
        <time>2026-05-28T13:18:06.000Z</time>
      </trkpt>
      <trkpt lat="44.02063" lon="3.51283">
        <ele>1257.5</ele>
        <time>2026-05-28T13:18:07.000Z</time>
      </trkpt>
      <trkpt lat="44.02062" lon="3.51282">
        <ele>1257.6</ele>
        <time>2026-05-28T13:18:08.000Z</time>
      </trkpt>
      <trkpt lat="44.0206" lon="3.51283">
        <ele>1257.7</ele>
        <time>2026-05-28T13:18:09.000Z</time>
      </trkpt>
      <trkpt lat="44.02059" lon="3.51284">
        <ele>1257.4</ele>
        <time>2026-05-28T13:18:10.000Z</time>
      </trkpt>
      <trkpt lat="44.02058" lon="3.51284">
        <ele>1257.3</ele>
        <time>2026-05-28T13:18:11.000Z</time>
      </trkpt>
      <trkpt lat="44.02058" lon="3.51284">
        <ele>1257.2</ele>
        <time>2026-05-28T13:18:12.000Z</time>
      </trkpt>
      <trkpt lat="44.02058" lon="3.51284">
        <ele>1257.3</ele>
        <time>2026-05-28T13:18:13.000Z</time>
      </trkpt>
      <trkpt lat="44.02056" lon="3.51283">
        <ele>1257.7</ele>
        <time>2026-05-28T13:18:14.000Z</time>
      </trkpt>
      <trkpt lat="44.02054" lon="3.51283">
        <ele>1257.7</ele>
        <time>2026-05-28T13:18:15.000Z</time>
      </trkpt>
      <trkpt lat="44.02052" lon="3.51283">
        <ele>1257.8</ele>
        <time>2026-05-28T13:18:16.000Z</time>
      </trkpt>
      <trkpt lat="44.0205" lon="3.51284">
        <ele>1258.1</ele>
        <time>2026-05-28T13:18:17.000Z</time>
      </trkpt>
      <trkpt lat="44.02048" lon="3.51285">
        <ele>1258.2</ele>
        <time>2026-05-28T13:18:18.000Z</time>
      </trkpt>
      <trkpt lat="44.02046" lon="3.51285">
        <ele>1258.1</ele>
        <time>2026-05-28T13:18:19.000Z</time>
      </trkpt>
      <trkpt lat="44.02045" lon="3.51286">
        <ele>1258</ele>
        <time>2026-05-28T13:18:20.000Z</time>
      </trkpt>
      <trkpt lat="44.02044" lon="3.51286">
        <ele>1257.3</ele>
        <time>2026-05-28T13:18:21.000Z</time>
      </trkpt>
      <trkpt lat="44.02043" lon="3.51286">
        <ele>1257.5</ele>
        <time>2026-05-28T13:18:22.000Z</time>
      </trkpt>
      <trkpt lat="44.02043" lon="3.51286">
        <ele>1257.2</ele>
        <time>2026-05-28T13:18:23.000Z</time>
      </trkpt>
      <trkpt lat="44.02043" lon="3.51287">
        <ele>1257.1</ele>
        <time>2026-05-28T13:18:24.000Z</time>
      </trkpt>
      <trkpt lat="44.02043" lon="3.51287">
        <ele>1257.1</ele>
        <time>2026-05-28T13:18:25.000Z</time>
      </trkpt>
      <trkpt lat="44.02043" lon="3.51287">
        <ele>1256.5</ele>
        <time>2026-05-28T13:18:26.000Z</time>
      </trkpt>
      <trkpt lat="44.02042" lon="3.51288">
        <ele>1255.9</ele>
        <time>2026-05-28T13:18:27.000Z</time>
      </trkpt>
      <trkpt lat="44.0204" lon="3.51289">
        <ele>1255.6</ele>
        <time>2026-05-28T13:18:28.000Z</time>
      </trkpt>
      <trkpt lat="44.02038" lon="3.5129">
        <ele>1255.4</ele>
        <time>2026-05-28T13:18:29.000Z</time>
      </trkpt>
      <trkpt lat="44.02037" lon="3.5129">
        <ele>1255.3</ele>
        <time>2026-05-28T13:18:30.000Z</time>
      </trkpt>
      <trkpt lat="44.02037" lon="3.51291">
        <ele>1254.9</ele>
        <time>2026-05-28T13:18:31.000Z</time>
      </trkpt>
      <trkpt lat="44.02037" lon="3.51291">
        <ele>1254.4</ele>
        <time>2026-05-28T13:18:32.000Z</time>
      </trkpt>
      <trkpt lat="44.02037" lon="3.51291">
        <ele>1254.2</ele>
        <time>2026-05-28T13:18:33.000Z</time>
      </trkpt>
      <trkpt lat="44.02036" lon="3.51291">
        <ele>1253.9</ele>
        <time>2026-05-28T13:18:34.000Z</time>
      </trkpt>
      <trkpt lat="44.02036" lon="3.51291">
        <ele>1253.7</ele>
        <time>2026-05-28T13:18:35.000Z</time>
      </trkpt>
      <trkpt lat="44.02036" lon="3.51291">
        <ele>1253.3</ele>
        <time>2026-05-28T13:18:36.000Z</time>
      </trkpt>
      <trkpt lat="44.02035" lon="3.51292">
        <ele>1253.1</ele>
        <time>2026-05-28T13:18:37.000Z</time>
      </trkpt>
      <trkpt lat="44.02033" lon="3.51292">
        <ele>1252.8</ele>
        <time>2026-05-28T13:18:38.000Z</time>
      </trkpt>
      <trkpt lat="44.02031" lon="3.51292">
        <ele>1252.5</ele>
        <time>2026-05-28T13:18:39.000Z</time>
      </trkpt>
      <trkpt lat="44.0203" lon="3.51292">
        <ele>1252.3</ele>
        <time>2026-05-28T13:18:40.000Z</time>
      </trkpt>
      <trkpt lat="44.02029" lon="3.51292">
        <ele>1252.2</ele>
        <time>2026-05-28T13:18:41.000Z</time>
      </trkpt>
      <trkpt lat="44.02027" lon="3.51293">
        <ele>1252</ele>
        <time>2026-05-28T13:18:42.000Z</time>
      </trkpt>
      <trkpt lat="44.02026" lon="3.51294">
        <ele>1251.6</ele>
        <time>2026-05-28T13:18:43.000Z</time>
      </trkpt>
      <trkpt lat="44.02024" lon="3.51294">
        <ele>1251.2</ele>
        <time>2026-05-28T13:18:44.000Z</time>
      </trkpt>
      <trkpt lat="44.02023" lon="3.51295">
        <ele>1250.7</ele>
        <time>2026-05-28T13:18:45.000Z</time>
      </trkpt>
      <trkpt lat="44.02021" lon="3.51296">
        <ele>1250.8</ele>
        <time>2026-05-28T13:18:46.000Z</time>
      </trkpt>
      <trkpt lat="44.02019" lon="3.51296">
        <ele>1251.1</ele>
        <time>2026-05-28T13:18:47.000Z</time>
      </trkpt>
      <trkpt lat="44.02018" lon="3.51297">
        <ele>1251.2</ele>
        <time>2026-05-28T13:18:48.000Z</time>
      </trkpt>
      <trkpt lat="44.02016" lon="3.51298">
        <ele>1251</ele>
        <time>2026-05-28T13:18:49.000Z</time>
      </trkpt>
      <trkpt lat="44.02015" lon="3.51298">
        <ele>1251.1</ele>
        <time>2026-05-28T13:18:50.000Z</time>
      </trkpt>
      <trkpt lat="44.02013" lon="3.51298">
        <ele>1251</ele>
        <time>2026-05-28T13:18:51.000Z</time>
      </trkpt>
      <trkpt lat="44.02012" lon="3.51298">
        <ele>1252</ele>
        <time>2026-05-28T13:18:52.000Z</time>
      </trkpt>
      <trkpt lat="44.02011" lon="3.51298">
        <ele>1252.3</ele>
        <time>2026-05-28T13:18:53.000Z</time>
      </trkpt>
      <trkpt lat="44.02011" lon="3.51299">
        <ele>1252.6</ele>
        <time>2026-05-28T13:18:54.000Z</time>
      </trkpt>
      <trkpt lat="44.0201" lon="3.51299">
        <ele>1252.8</ele>
        <time>2026-05-28T13:18:55.000Z</time>
      </trkpt>
      <trkpt lat="44.0201" lon="3.51299">
        <ele>1252.8</ele>
        <time>2026-05-28T13:18:56.000Z</time>
      </trkpt>
      <trkpt lat="44.02009" lon="3.51299">
        <ele>1252.6</ele>
        <time>2026-05-28T13:18:57.000Z</time>
      </trkpt>
      <trkpt lat="44.02009" lon="3.51299">
        <ele>1252.4</ele>
        <time>2026-05-28T13:18:58.000Z</time>
      </trkpt>
      <trkpt lat="44.02009" lon="3.513">
        <ele>1252</ele>
        <time>2026-05-28T13:18:59.000Z</time>
      </trkpt>
      <trkpt lat="44.02008" lon="3.513">
        <ele>1251.7</ele>
        <time>2026-05-28T13:19:00.000Z</time>
      </trkpt>
      <trkpt lat="44.02008" lon="3.513">
        <ele>1251.4</ele>
        <time>2026-05-28T13:19:01.000Z</time>
      </trkpt>
      <trkpt lat="44.02008" lon="3.513">
        <ele>1251</ele>
        <time>2026-05-28T13:19:02.000Z</time>
      </trkpt>
      <trkpt lat="44.02007" lon="3.51301">
        <ele>1250.8</ele>
        <time>2026-05-28T13:19:03.000Z</time>
      </trkpt>
      <trkpt lat="44.02007" lon="3.51301">
        <ele>1250.5</ele>
        <time>2026-05-28T13:19:04.000Z</time>
      </trkpt>
      <trkpt lat="44.02006" lon="3.51301">
        <ele>1250.7</ele>
        <time>2026-05-28T13:19:05.000Z</time>
      </trkpt>
      <trkpt lat="44.02005" lon="3.51302">
        <ele>1250.8</ele>
        <time>2026-05-28T13:19:06.000Z</time>
      </trkpt>
      <trkpt lat="44.02005" lon="3.51302">
        <ele>1250.7</ele>
        <time>2026-05-28T13:19:07.000Z</time>
      </trkpt>
      <trkpt lat="44.02005" lon="3.51302">
        <ele>1250.7</ele>
        <time>2026-05-28T13:19:08.000Z</time>
      </trkpt>
      <trkpt lat="44.02004" lon="3.51302">
        <ele>1250.3</ele>
        <time>2026-05-28T13:19:09.000Z</time>
      </trkpt>
      <trkpt lat="44.02003" lon="3.51302">
        <ele>1250</ele>
        <time>2026-05-28T13:19:10.000Z</time>
      </trkpt>
      <trkpt lat="44.02003" lon="3.51303">
        <ele>1249.6</ele>
        <time>2026-05-28T13:19:11.000Z</time>
      </trkpt>
      <trkpt lat="44.02002" lon="3.51303">
        <ele>1249.2</ele>
        <time>2026-05-28T13:19:12.000Z</time>
      </trkpt>
      <trkpt lat="44.02002" lon="3.51303">
        <ele>1248.8</ele>
        <time>2026-05-28T13:19:13.000Z</time>
      </trkpt>
      <trkpt lat="44.02002" lon="3.51303">
        <ele>1248.4</ele>
        <time>2026-05-28T13:19:14.000Z</time>
      </trkpt>
      <trkpt lat="44.02001" lon="3.51304">
        <ele>1248</ele>
        <time>2026-05-28T13:19:15.000Z</time>
      </trkpt>
      <trkpt lat="44.02001" lon="3.51304">
        <ele>1247.9</ele>
        <time>2026-05-28T13:19:16.000Z</time>
      </trkpt>
      <trkpt lat="44.02" lon="3.51304">
        <ele>1247.8</ele>
        <time>2026-05-28T13:19:17.000Z</time>
      </trkpt>
      <trkpt lat="44.01999" lon="3.51305">
        <ele>1247.1</ele>
        <time>2026-05-28T13:19:18.000Z</time>
      </trkpt>
      <trkpt lat="44.01996" lon="3.51307">
        <ele>1246.7</ele>
        <time>2026-05-28T13:19:19.000Z</time>
      </trkpt>
      <trkpt lat="44.01994" lon="3.5131">
        <ele>1246.3</ele>
        <time>2026-05-28T13:19:20.000Z</time>
      </trkpt>
      <trkpt lat="44.0199" lon="3.51311">
        <ele>1246.4</ele>
        <time>2026-05-28T13:19:21.000Z</time>
      </trkpt>
      <trkpt lat="44.01987" lon="3.51311">
        <ele>1246.4</ele>
        <time>2026-05-28T13:19:22.000Z</time>
      </trkpt>
      <trkpt lat="44.01984" lon="3.51311">
        <ele>1246.2</ele>
        <time>2026-05-28T13:19:23.000Z</time>
      </trkpt>
      <trkpt lat="44.01983" lon="3.51311">
        <ele>1246</ele>
        <time>2026-05-28T13:19:24.000Z</time>
      </trkpt>
      <trkpt lat="44.01981" lon="3.51313">
        <ele>1245.9</ele>
        <time>2026-05-28T13:19:25.000Z</time>
      </trkpt>
      <trkpt lat="44.0198" lon="3.51314">
        <ele>1246</ele>
        <time>2026-05-28T13:19:26.000Z</time>
      </trkpt>
      <trkpt lat="44.01978" lon="3.51316">
        <ele>1246.3</ele>
        <time>2026-05-28T13:19:27.000Z</time>
      </trkpt>
      <trkpt lat="44.01976" lon="3.51317">
        <ele>1246.2</ele>
        <time>2026-05-28T13:19:28.000Z</time>
      </trkpt>
      <trkpt lat="44.01975" lon="3.51318">
        <ele>1246</ele>
        <time>2026-05-28T13:19:29.000Z</time>
      </trkpt>
      <trkpt lat="44.01973" lon="3.51318">
        <ele>1246.2</ele>
        <time>2026-05-28T13:19:30.000Z</time>
      </trkpt>
      <trkpt lat="44.0197" lon="3.51318">
        <ele>1245.9</ele>
        <time>2026-05-28T13:19:31.000Z</time>
      </trkpt>
      <trkpt lat="44.01968" lon="3.51319">
        <ele>1246.5</ele>
        <time>2026-05-28T13:19:32.000Z</time>
      </trkpt>
      <trkpt lat="44.01966" lon="3.51319">
        <ele>1247</ele>
        <time>2026-05-28T13:19:33.000Z</time>
      </trkpt>
      <trkpt lat="44.01966" lon="3.51319">
        <ele>1247.1</ele>
        <time>2026-05-28T13:19:34.000Z</time>
      </trkpt>
      <trkpt lat="44.01965" lon="3.51319">
        <ele>1247.4</ele>
        <time>2026-05-28T13:19:35.000Z</time>
      </trkpt>
      <trkpt lat="44.01964" lon="3.51318">
        <ele>1247.1</ele>
        <time>2026-05-28T13:19:36.000Z</time>
      </trkpt>
      <trkpt lat="44.01964" lon="3.51319">
        <ele>1247.2</ele>
        <time>2026-05-28T13:19:37.000Z</time>
      </trkpt>
      <trkpt lat="44.01963" lon="3.51318">
        <ele>1247.3</ele>
        <time>2026-05-28T13:19:38.000Z</time>
      </trkpt>
      <trkpt lat="44.01963" lon="3.51317">
        <ele>1247.2</ele>
        <time>2026-05-28T13:19:39.000Z</time>
      </trkpt>
      <trkpt lat="44.01962" lon="3.51317">
        <ele>1247</ele>
        <time>2026-05-28T13:19:40.000Z</time>
      </trkpt>
      <trkpt lat="44.01961" lon="3.51316">
        <ele>1246.7</ele>
        <time>2026-05-28T13:19:41.000Z</time>
      </trkpt>
      <trkpt lat="44.0196" lon="3.51315">
        <ele>1246.6</ele>
        <time>2026-05-28T13:19:42.000Z</time>
      </trkpt>
      <trkpt lat="44.0196" lon="3.51314">
        <ele>1246.5</ele>
        <time>2026-05-28T13:19:43.000Z</time>
      </trkpt>
      <trkpt lat="44.01959" lon="3.51314">
        <ele>1246.3</ele>
        <time>2026-05-28T13:19:44.000Z</time>
      </trkpt>
      <trkpt lat="44.01958" lon="3.51313">
        <ele>1246.3</ele>
        <time>2026-05-28T13:19:45.000Z</time>
      </trkpt>
      <trkpt lat="44.01957" lon="3.51312">
        <ele>1246</ele>
        <time>2026-05-28T13:19:46.000Z</time>
      </trkpt>
      <trkpt lat="44.01955" lon="3.51311">
        <ele>1245.6</ele>
        <time>2026-05-28T13:19:47.000Z</time>
      </trkpt>
      <trkpt lat="44.01954" lon="3.5131">
        <ele>1245.5</ele>
        <time>2026-05-28T13:19:48.000Z</time>
      </trkpt>
      <trkpt lat="44.01952" lon="3.5131">
        <ele>1245.4</ele>
        <time>2026-05-28T13:19:49.000Z</time>
      </trkpt>
      <trkpt lat="44.01951" lon="3.5131">
        <ele>1244.9</ele>
        <time>2026-05-28T13:19:50.000Z</time>
      </trkpt>
      <trkpt lat="44.0195" lon="3.5131">
        <ele>1244.5</ele>
        <time>2026-05-28T13:19:51.000Z</time>
      </trkpt>
      <trkpt lat="44.01948" lon="3.5131">
        <ele>1244</ele>
        <time>2026-05-28T13:19:52.000Z</time>
      </trkpt>
      <trkpt lat="44.01947" lon="3.51309">
        <ele>1243.6</ele>
        <time>2026-05-28T13:19:53.000Z</time>
      </trkpt>
      <trkpt lat="44.01946" lon="3.51309">
        <ele>1243</ele>
        <time>2026-05-28T13:19:54.000Z</time>
      </trkpt>
      <trkpt lat="44.01945" lon="3.51308">
        <ele>1242.7</ele>
        <time>2026-05-28T13:19:55.000Z</time>
      </trkpt>
      <trkpt lat="44.01944" lon="3.51309">
        <ele>1242.9</ele>
        <time>2026-05-28T13:19:56.000Z</time>
      </trkpt>
      <trkpt lat="44.01944" lon="3.51309">
        <ele>1243.6</ele>
        <time>2026-05-28T13:19:57.000Z</time>
      </trkpt>
      <trkpt lat="44.01943" lon="3.51309">
        <ele>1244</ele>
        <time>2026-05-28T13:19:58.000Z</time>
      </trkpt>
      <trkpt lat="44.01942" lon="3.51309">
        <ele>1244.4</ele>
        <time>2026-05-28T13:19:59.000Z</time>
      </trkpt>
      <trkpt lat="44.01941" lon="3.51308">
        <ele>1244.4</ele>
        <time>2026-05-28T13:20:00.000Z</time>
      </trkpt>
      <trkpt lat="44.0194" lon="3.51306">
        <ele>1244.4</ele>
        <time>2026-05-28T13:20:01.000Z</time>
      </trkpt>
      <trkpt lat="44.01939" lon="3.51304">
        <ele>1244.8</ele>
        <time>2026-05-28T13:20:02.000Z</time>
      </trkpt>
      <trkpt lat="44.01937" lon="3.51303">
        <ele>1245</ele>
        <time>2026-05-28T13:20:03.000Z</time>
      </trkpt>
      <trkpt lat="44.01936" lon="3.51304">
        <ele>1245.1</ele>
        <time>2026-05-28T13:20:04.000Z</time>
      </trkpt>
      <trkpt lat="44.01935" lon="3.51303">
        <ele>1245.3</ele>
        <time>2026-05-28T13:20:05.000Z</time>
      </trkpt>
      <trkpt lat="44.01934" lon="3.51302">
        <ele>1244.8</ele>
        <time>2026-05-28T13:20:06.000Z</time>
      </trkpt>
      <trkpt lat="44.01933" lon="3.51301">
        <ele>1244.5</ele>
        <time>2026-05-28T13:20:07.000Z</time>
      </trkpt>
      <trkpt lat="44.01932" lon="3.513">
        <ele>1244.4</ele>
        <time>2026-05-28T13:20:08.000Z</time>
      </trkpt>
      <trkpt lat="44.01931" lon="3.51299">
        <ele>1244.7</ele>
        <time>2026-05-28T13:20:09.000Z</time>
      </trkpt>
      <trkpt lat="44.0193" lon="3.51299">
        <ele>1245.2</ele>
        <time>2026-05-28T13:20:10.000Z</time>
      </trkpt>
      <trkpt lat="44.01928" lon="3.51299">
        <ele>1245.8</ele>
        <time>2026-05-28T13:20:11.000Z</time>
      </trkpt>
      <trkpt lat="44.01927" lon="3.513">
        <ele>1246.4</ele>
        <time>2026-05-28T13:20:12.000Z</time>
      </trkpt>
      <trkpt lat="44.01926" lon="3.51299">
        <ele>1246.6</ele>
        <time>2026-05-28T13:20:13.000Z</time>
      </trkpt>
      <trkpt lat="44.01925" lon="3.51298">
        <ele>1246.7</ele>
        <time>2026-05-28T13:20:14.000Z</time>
      </trkpt>
      <trkpt lat="44.01924" lon="3.51297">
        <ele>1247.5</ele>
        <time>2026-05-28T13:20:15.000Z</time>
      </trkpt>
      <trkpt lat="44.01923" lon="3.51296">
        <ele>1247.8</ele>
        <time>2026-05-28T13:20:16.000Z</time>
      </trkpt>
      <trkpt lat="44.01923" lon="3.51296">
        <ele>1248.5</ele>
        <time>2026-05-28T13:20:17.000Z</time>
      </trkpt>
      <trkpt lat="44.01921" lon="3.51295">
        <ele>1248.9</ele>
        <time>2026-05-28T13:20:18.000Z</time>
      </trkpt>
      <trkpt lat="44.0192" lon="3.51295">
        <ele>1249.3</ele>
        <time>2026-05-28T13:20:19.000Z</time>
      </trkpt>
      <trkpt lat="44.01919" lon="3.51295">
        <ele>1249.3</ele>
        <time>2026-05-28T13:20:20.000Z</time>
      </trkpt>
      <trkpt lat="44.01918" lon="3.51295">
        <ele>1249.2</ele>
        <time>2026-05-28T13:20:21.000Z</time>
      </trkpt>
      <trkpt lat="44.01917" lon="3.51295">
        <ele>1248.8</ele>
        <time>2026-05-28T13:20:22.000Z</time>
      </trkpt>
      <trkpt lat="44.01916" lon="3.51294">
        <ele>1248.5</ele>
        <time>2026-05-28T13:20:23.000Z</time>
      </trkpt>
      <trkpt lat="44.01915" lon="3.51294">
        <ele>1247.9</ele>
        <time>2026-05-28T13:20:24.000Z</time>
      </trkpt>
      <trkpt lat="44.01915" lon="3.51294">
        <ele>1248.5</ele>
        <time>2026-05-28T13:20:25.000Z</time>
      </trkpt>
      <trkpt lat="44.01915" lon="3.51294">
        <ele>1248.7</ele>
        <time>2026-05-28T13:20:26.000Z</time>
      </trkpt>
      <trkpt lat="44.01914" lon="3.51293">
        <ele>1248.7</ele>
        <time>2026-05-28T13:20:27.000Z</time>
      </trkpt>
      <trkpt lat="44.01914" lon="3.51293">
        <ele>1248.2</ele>
        <time>2026-05-28T13:20:28.000Z</time>
      </trkpt>
      <trkpt lat="44.01914" lon="3.51293">
        <ele>1248.1</ele>
        <time>2026-05-28T13:20:29.000Z</time>
      </trkpt>
      <trkpt lat="44.01914" lon="3.51293">
        <ele>1248.4</ele>
        <time>2026-05-28T13:20:30.000Z</time>
      </trkpt>
      <trkpt lat="44.01914" lon="3.51293">
        <ele>1248.4</ele>
        <time>2026-05-28T13:20:31.000Z</time>
      </trkpt>
      <trkpt lat="44.01914" lon="3.51292">
        <ele>1248.4</ele>
        <time>2026-05-28T13:20:32.000Z</time>
      </trkpt>
      <trkpt lat="44.01914" lon="3.51292">
        <ele>1248.5</ele>
        <time>2026-05-28T13:20:33.000Z</time>
      </trkpt>
      <trkpt lat="44.01913" lon="3.51292">
        <ele>1248.1</ele>
        <time>2026-05-28T13:20:34.000Z</time>
      </trkpt>
      <trkpt lat="44.01913" lon="3.51291">
        <ele>1247.8</ele>
        <time>2026-05-28T13:20:35.000Z</time>
      </trkpt>
      <trkpt lat="44.01912" lon="3.51291">
        <ele>1248.1</ele>
        <time>2026-05-28T13:20:36.000Z</time>
      </trkpt>
      <trkpt lat="44.01912" lon="3.51291">
        <ele>1248.2</ele>
        <time>2026-05-28T13:20:37.000Z</time>
      </trkpt>
      <trkpt lat="44.01912" lon="3.5129">
        <ele>1248.8</ele>
        <time>2026-05-28T13:20:38.000Z</time>
      </trkpt>
      <trkpt lat="44.01911" lon="3.5129">
        <ele>1248.9</ele>
        <time>2026-05-28T13:20:39.000Z</time>
      </trkpt>
      <trkpt lat="44.01911" lon="3.5129">
        <ele>1248.8</ele>
        <time>2026-05-28T13:20:40.000Z</time>
      </trkpt>
      <trkpt lat="44.01911" lon="3.5129">
        <ele>1248.9</ele>
        <time>2026-05-28T13:20:41.000Z</time>
      </trkpt>
      <trkpt lat="44.0191" lon="3.51289">
        <ele>1249.3</ele>
        <time>2026-05-28T13:20:42.000Z</time>
      </trkpt>
      <trkpt lat="44.0191" lon="3.51289">
        <ele>1249.5</ele>
        <time>2026-05-28T13:20:43.000Z</time>
      </trkpt>
      <trkpt lat="44.0191" lon="3.51289">
        <ele>1249.3</ele>
        <time>2026-05-28T13:20:44.000Z</time>
      </trkpt>
      <trkpt lat="44.01909" lon="3.51288">
        <ele>1249.2</ele>
        <time>2026-05-28T13:20:45.000Z</time>
      </trkpt>
      <trkpt lat="44.01909" lon="3.51288">
        <ele>1249.4</ele>
        <time>2026-05-28T13:20:46.000Z</time>
      </trkpt>
      <trkpt lat="44.01908" lon="3.51287">
        <ele>1249.7</ele>
        <time>2026-05-28T13:20:47.000Z</time>
      </trkpt>
      <trkpt lat="44.01906" lon="3.51285">
        <ele>1249.8</ele>
        <time>2026-05-28T13:20:48.000Z</time>
      </trkpt>
      <trkpt lat="44.01904" lon="3.51281">
        <ele>1249.9</ele>
        <time>2026-05-28T13:20:49.000Z</time>
      </trkpt>
      <trkpt lat="44.01902" lon="3.5128">
        <ele>1249.7</ele>
        <time>2026-05-28T13:20:50.000Z</time>
      </trkpt>
      <trkpt lat="44.019" lon="3.51278">
        <ele>1249.4</ele>
        <time>2026-05-28T13:20:51.000Z</time>
      </trkpt>
      <trkpt lat="44.01899" lon="3.51277">
        <ele>1249.9</ele>
        <time>2026-05-28T13:20:52.000Z</time>
      </trkpt>
      <trkpt lat="44.01899" lon="3.51276">
        <ele>1250</ele>
        <time>2026-05-28T13:20:53.000Z</time>
      </trkpt>
      <trkpt lat="44.01898" lon="3.51275">
        <ele>1250.3</ele>
        <time>2026-05-28T13:20:54.000Z</time>
      </trkpt>
      <trkpt lat="44.01898" lon="3.51273">
        <ele>1250.1</ele>
        <time>2026-05-28T13:20:55.000Z</time>
      </trkpt>
      <trkpt lat="44.01896" lon="3.5127">
        <ele>1250</ele>
        <time>2026-05-28T13:20:56.000Z</time>
      </trkpt>
      <trkpt lat="44.01895" lon="3.51268">
        <ele>1249.8</ele>
        <time>2026-05-28T13:20:57.000Z</time>
      </trkpt>
      <trkpt lat="44.01894" lon="3.51266">
        <ele>1249.7</ele>
        <time>2026-05-28T13:20:58.000Z</time>
      </trkpt>
      <trkpt lat="44.01892" lon="3.51266">
        <ele>1249.3</ele>
        <time>2026-05-28T13:20:59.000Z</time>
      </trkpt>
      <trkpt lat="44.0189" lon="3.51264">
        <ele>1249</ele>
        <time>2026-05-28T13:21:00.000Z</time>
      </trkpt>
      <trkpt lat="44.01889" lon="3.51263">
        <ele>1249.4</ele>
        <time>2026-05-28T13:21:01.000Z</time>
      </trkpt>
      <trkpt lat="44.01887" lon="3.51261">
        <ele>1249.1</ele>
        <time>2026-05-28T13:21:02.000Z</time>
      </trkpt>
      <trkpt lat="44.01886" lon="3.51259">
        <ele>1249.1</ele>
        <time>2026-05-28T13:21:03.000Z</time>
      </trkpt>
      <trkpt lat="44.01885" lon="3.51258">
        <ele>1248.9</ele>
        <time>2026-05-28T13:21:04.000Z</time>
      </trkpt>
      <trkpt lat="44.01884" lon="3.51257">
        <ele>1248.6</ele>
        <time>2026-05-28T13:21:05.000Z</time>
      </trkpt>
      <trkpt lat="44.01883" lon="3.51256">
        <ele>1248.7</ele>
        <time>2026-05-28T13:21:06.000Z</time>
      </trkpt>
      <trkpt lat="44.01882" lon="3.51256">
        <ele>1248.5</ele>
        <time>2026-05-28T13:21:07.000Z</time>
      </trkpt>
      <trkpt lat="44.01882" lon="3.51255">
        <ele>1248.5</ele>
        <time>2026-05-28T13:21:08.000Z</time>
      </trkpt>
      <trkpt lat="44.01882" lon="3.51255">
        <ele>1248.6</ele>
        <time>2026-05-28T13:21:09.000Z</time>
      </trkpt>
      <trkpt lat="44.01882" lon="3.51255">
        <ele>1248.4</ele>
        <time>2026-05-28T13:21:10.000Z</time>
      </trkpt>
      <trkpt lat="44.01882" lon="3.51255">
        <ele>1248.5</ele>
        <time>2026-05-28T13:21:11.000Z</time>
      </trkpt>
      <trkpt lat="44.01881" lon="3.51255">
        <ele>1248.8</ele>
        <time>2026-05-28T13:21:12.000Z</time>
      </trkpt>
      <trkpt lat="44.01881" lon="3.51255">
        <ele>1248.7</ele>
        <time>2026-05-28T13:21:13.000Z</time>
      </trkpt>
      <trkpt lat="44.0188" lon="3.51255">
        <ele>1248.5</ele>
        <time>2026-05-28T13:21:14.000Z</time>
      </trkpt>
      <trkpt lat="44.0188" lon="3.51255">
        <ele>1248.4</ele>
        <time>2026-05-28T13:21:15.000Z</time>
      </trkpt>
      <trkpt lat="44.0188" lon="3.51255">
        <ele>1248.2</ele>
        <time>2026-05-28T13:21:16.000Z</time>
      </trkpt>
      <trkpt lat="44.01879" lon="3.51255">
        <ele>1247.8</ele>
        <time>2026-05-28T13:21:17.000Z</time>
      </trkpt>
      <trkpt lat="44.01879" lon="3.51255">
        <ele>1247.6</ele>
        <time>2026-05-28T13:21:18.000Z</time>
      </trkpt>
      <trkpt lat="44.01879" lon="3.51255">
        <ele>1248.1</ele>
        <time>2026-05-28T13:21:19.000Z</time>
      </trkpt>
      <trkpt lat="44.01878" lon="3.51255">
        <ele>1248.4</ele>
        <time>2026-05-28T13:21:20.000Z</time>
      </trkpt>
      <trkpt lat="44.01878" lon="3.51255">
        <ele>1248.7</ele>
        <time>2026-05-28T13:21:21.000Z</time>
      </trkpt>
      <trkpt lat="44.01877" lon="3.51254">
        <ele>1248.8</ele>
        <time>2026-05-28T13:21:22.000Z</time>
      </trkpt>
      <trkpt lat="44.01877" lon="3.51254">
        <ele>1249</ele>
        <time>2026-05-28T13:21:23.000Z</time>
      </trkpt>
      <trkpt lat="44.01876" lon="3.51254">
        <ele>1248.9</ele>
        <time>2026-05-28T13:21:24.000Z</time>
      </trkpt>
      <trkpt lat="44.01875" lon="3.51254">
        <ele>1248.4</ele>
        <time>2026-05-28T13:21:25.000Z</time>
      </trkpt>
      <trkpt lat="44.01875" lon="3.51254">
        <ele>1248.5</ele>
        <time>2026-05-28T13:21:26.000Z</time>
      </trkpt>
      <trkpt lat="44.01875" lon="3.51253">
        <ele>1248.6</ele>
        <time>2026-05-28T13:21:27.000Z</time>
      </trkpt>
      <trkpt lat="44.01874" lon="3.51253">
        <ele>1248.6</ele>
        <time>2026-05-28T13:21:28.000Z</time>
      </trkpt>
      <trkpt lat="44.01873" lon="3.51253">
        <ele>1248.8</ele>
        <time>2026-05-28T13:21:29.000Z</time>
      </trkpt>
      <trkpt lat="44.01873" lon="3.51253">
        <ele>1249.1</ele>
        <time>2026-05-28T13:21:30.000Z</time>
      </trkpt>
      <trkpt lat="44.01872" lon="3.51253">
        <ele>1249.3</ele>
        <time>2026-05-28T13:21:31.000Z</time>
      </trkpt>
      <trkpt lat="44.01872" lon="3.51253">
        <ele>1249.1</ele>
        <time>2026-05-28T13:21:32.000Z</time>
      </trkpt>
      <trkpt lat="44.01871" lon="3.51252">
        <ele>1249.1</ele>
        <time>2026-05-28T13:21:33.000Z</time>
      </trkpt>
      <trkpt lat="44.01871" lon="3.51252">
        <ele>1249.2</ele>
        <time>2026-05-28T13:21:34.000Z</time>
      </trkpt>
      <trkpt lat="44.0187" lon="3.51252">
        <ele>1249.3</ele>
        <time>2026-05-28T13:21:35.000Z</time>
      </trkpt>
      <trkpt lat="44.0187" lon="3.51252">
        <ele>1249.1</ele>
        <time>2026-05-28T13:21:36.000Z</time>
      </trkpt>
      <trkpt lat="44.01869" lon="3.51252">
        <ele>1248.9</ele>
        <time>2026-05-28T13:21:37.000Z</time>
      </trkpt>
      <trkpt lat="44.01868" lon="3.51252">
        <ele>1249.6</ele>
        <time>2026-05-28T13:21:38.000Z</time>
      </trkpt>
      <trkpt lat="44.01868" lon="3.51252">
        <ele>1250.4</ele>
        <time>2026-05-28T13:21:39.000Z</time>
      </trkpt>
      <trkpt lat="44.01867" lon="3.51251">
        <ele>1250.7</ele>
        <time>2026-05-28T13:21:40.000Z</time>
      </trkpt>
      <trkpt lat="44.01866" lon="3.51251">
        <ele>1250.7</ele>
        <time>2026-05-28T13:21:41.000Z</time>
      </trkpt>
      <trkpt lat="44.01865" lon="3.51251">
        <ele>1250.6</ele>
        <time>2026-05-28T13:21:42.000Z</time>
      </trkpt>
      <trkpt lat="44.01865" lon="3.5125">
        <ele>1250.9</ele>
        <time>2026-05-28T13:21:43.000Z</time>
      </trkpt>
      <trkpt lat="44.01864" lon="3.5125">
        <ele>1250.4</ele>
        <time>2026-05-28T13:21:44.000Z</time>
      </trkpt>
      <trkpt lat="44.01864" lon="3.5125">
        <ele>1250.1</ele>
        <time>2026-05-28T13:21:45.000Z</time>
      </trkpt>
      <trkpt lat="44.01863" lon="3.5125">
        <ele>1249.7</ele>
        <time>2026-05-28T13:21:46.000Z</time>
      </trkpt>
      <trkpt lat="44.01862" lon="3.51249">
        <ele>1250.1</ele>
        <time>2026-05-28T13:21:47.000Z</time>
      </trkpt>
      <trkpt lat="44.01862" lon="3.51249">
        <ele>1250</ele>
        <time>2026-05-28T13:21:48.000Z</time>
      </trkpt>
      <trkpt lat="44.01862" lon="3.51249">
        <ele>1249.9</ele>
        <time>2026-05-28T13:21:49.000Z</time>
      </trkpt>
      <trkpt lat="44.01861" lon="3.51249">
        <ele>1249.7</ele>
        <time>2026-05-28T13:21:50.000Z</time>
      </trkpt>
      <trkpt lat="44.0186" lon="3.51248">
        <ele>1249.8</ele>
        <time>2026-05-28T13:21:51.000Z</time>
      </trkpt>
      <trkpt lat="44.01859" lon="3.51247">
        <ele>1249.8</ele>
        <time>2026-05-28T13:21:52.000Z</time>
      </trkpt>
      <trkpt lat="44.01857" lon="3.51246">
        <ele>1249.5</ele>
        <time>2026-05-28T13:21:53.000Z</time>
      </trkpt>
      <trkpt lat="44.01856" lon="3.51245">
        <ele>1249.6</ele>
        <time>2026-05-28T13:21:54.000Z</time>
      </trkpt>
      <trkpt lat="44.01854" lon="3.51244">
        <ele>1249.6</ele>
        <time>2026-05-28T13:21:55.000Z</time>
      </trkpt>
      <trkpt lat="44.01853" lon="3.51244">
        <ele>1249.4</ele>
        <time>2026-05-28T13:21:56.000Z</time>
      </trkpt>
      <trkpt lat="44.01852" lon="3.51243">
        <ele>1249.1</ele>
        <time>2026-05-28T13:21:57.000Z</time>
      </trkpt>
      <trkpt lat="44.0185" lon="3.51242">
        <ele>1248.8</ele>
        <time>2026-05-28T13:21:58.000Z</time>
      </trkpt>
      <trkpt lat="44.01849" lon="3.51241">
        <ele>1248.7</ele>
        <time>2026-05-28T13:21:59.000Z</time>
      </trkpt>
      <trkpt lat="44.01848" lon="3.51241">
        <ele>1248.5</ele>
        <time>2026-05-28T13:22:00.000Z</time>
      </trkpt>
      <trkpt lat="44.01847" lon="3.51241">
        <ele>1248.3</ele>
        <time>2026-05-28T13:22:01.000Z</time>
      </trkpt>
      <trkpt lat="44.01846" lon="3.5124">
        <ele>1248.2</ele>
        <time>2026-05-28T13:22:02.000Z</time>
      </trkpt>
      <trkpt lat="44.01845" lon="3.5124">
        <ele>1248.2</ele>
        <time>2026-05-28T13:22:03.000Z</time>
      </trkpt>
      <trkpt lat="44.01845" lon="3.5124">
        <ele>1247.8</ele>
        <time>2026-05-28T13:22:04.000Z</time>
      </trkpt>
      <trkpt lat="44.01845" lon="3.5124">
        <ele>1247.7</ele>
        <time>2026-05-28T13:22:05.000Z</time>
      </trkpt>
      <trkpt lat="44.01845" lon="3.5124">
        <ele>1247.8</ele>
        <time>2026-05-28T13:22:06.000Z</time>
      </trkpt>
      <trkpt lat="44.01845" lon="3.5124">
        <ele>1247.6</ele>
        <time>2026-05-28T13:22:07.000Z</time>
      </trkpt>
      <trkpt lat="44.01845" lon="3.5124">
        <ele>1247.7</ele>
        <time>2026-05-28T13:22:08.000Z</time>
      </trkpt>
      <trkpt lat="44.01845" lon="3.51241">
        <ele>1247.6</ele>
        <time>2026-05-28T13:22:09.000Z</time>
      </trkpt>
      <trkpt lat="44.01845" lon="3.5124">
        <ele>1247.4</ele>
        <time>2026-05-28T13:22:10.000Z</time>
      </trkpt>
      <trkpt lat="44.01845" lon="3.5124">
        <ele>1247.4</ele>
        <time>2026-05-28T13:22:11.000Z</time>
      </trkpt>
      <trkpt lat="44.01845" lon="3.5124">
        <ele>1247.2</ele>
        <time>2026-05-28T13:22:12.000Z</time>
      </trkpt>
      <trkpt lat="44.01845" lon="3.5124">
        <ele>1247.2</ele>
        <time>2026-05-28T13:22:13.000Z</time>
      </trkpt>
      <trkpt lat="44.01845" lon="3.5124">
        <ele>1247</ele>
        <time>2026-05-28T13:22:14.000Z</time>
      </trkpt>
      <trkpt lat="44.01845" lon="3.5124">
        <ele>1247</ele>
        <time>2026-05-28T13:22:15.000Z</time>
      </trkpt>
      <trkpt lat="44.01845" lon="3.5124">
        <ele>1247</ele>
        <time>2026-05-28T13:22:16.000Z</time>
      </trkpt>
      <trkpt lat="44.01845" lon="3.5124">
        <ele>1247.2</ele>
        <time>2026-05-28T13:22:17.000Z</time>
      </trkpt>
      <trkpt lat="44.01844" lon="3.51238">
        <ele>1246.9</ele>
        <time>2026-05-28T13:22:18.000Z</time>
      </trkpt>
      <trkpt lat="44.01842" lon="3.51235">
        <ele>1246.7</ele>
        <time>2026-05-28T13:22:19.000Z</time>
      </trkpt>
      <trkpt lat="44.01841" lon="3.51234">
        <ele>1246.4</ele>
        <time>2026-05-28T13:22:20.000Z</time>
      </trkpt>
      <trkpt lat="44.0184" lon="3.51233">
        <ele>1245.8</ele>
        <time>2026-05-28T13:22:21.000Z</time>
      </trkpt>
      <trkpt lat="44.01838" lon="3.51231">
        <ele>1245.1</ele>
        <time>2026-05-28T13:22:22.000Z</time>
      </trkpt>
      <trkpt lat="44.01838" lon="3.51231">
        <ele>1244.7</ele>
        <time>2026-05-28T13:22:23.000Z</time>
      </trkpt>
      <trkpt lat="44.01838" lon="3.51231">
        <ele>1244.4</ele>
        <time>2026-05-28T13:22:24.000Z</time>
      </trkpt>
      <trkpt lat="44.01837" lon="3.5123">
        <ele>1244.5</ele>
        <time>2026-05-28T13:22:25.000Z</time>
      </trkpt>
      <trkpt lat="44.01837" lon="3.5123">
        <ele>1244.9</ele>
        <time>2026-05-28T13:22:26.000Z</time>
      </trkpt>
      <trkpt lat="44.01837" lon="3.5123">
        <ele>1245.1</ele>
        <time>2026-05-28T13:22:27.000Z</time>
      </trkpt>
      <trkpt lat="44.01837" lon="3.5123">
        <ele>1245.2</ele>
        <time>2026-05-28T13:22:28.000Z</time>
      </trkpt>
      <trkpt lat="44.01837" lon="3.5123">
        <ele>1245.1</ele>
        <time>2026-05-28T13:22:29.000Z</time>
      </trkpt>
      <trkpt lat="44.01837" lon="3.5123">
        <ele>1245</ele>
        <time>2026-05-28T13:22:30.000Z</time>
      </trkpt>
      <trkpt lat="44.01835" lon="3.51229">
        <ele>1244.7</ele>
        <time>2026-05-28T13:22:31.000Z</time>
      </trkpt>
      <trkpt lat="44.01834" lon="3.51228">
        <ele>1244.4</ele>
        <time>2026-05-28T13:22:32.000Z</time>
      </trkpt>
      <trkpt lat="44.01833" lon="3.51226">
        <ele>1244.2</ele>
        <time>2026-05-28T13:22:33.000Z</time>
      </trkpt>
      <trkpt lat="44.01832" lon="3.51226">
        <ele>1243.9</ele>
        <time>2026-05-28T13:22:34.000Z</time>
      </trkpt>
      <trkpt lat="44.01831" lon="3.51225">
        <ele>1243.9</ele>
        <time>2026-05-28T13:22:35.000Z</time>
      </trkpt>
      <trkpt lat="44.01829" lon="3.51224">
        <ele>1243.4</ele>
        <time>2026-05-28T13:22:36.000Z</time>
      </trkpt>
      <trkpt lat="44.01827" lon="3.51224">
        <ele>1243</ele>
        <time>2026-05-28T13:22:37.000Z</time>
      </trkpt>
      <trkpt lat="44.01825" lon="3.51223">
        <ele>1242.7</ele>
        <time>2026-05-28T13:22:38.000Z</time>
      </trkpt>
      <trkpt lat="44.01823" lon="3.51223">
        <ele>1242.8</ele>
        <time>2026-05-28T13:22:39.000Z</time>
      </trkpt>
      <trkpt lat="44.01821" lon="3.51222">
        <ele>1242.6</ele>
        <time>2026-05-28T13:22:40.000Z</time>
      </trkpt>
      <trkpt lat="44.0182" lon="3.51221">
        <ele>1242.4</ele>
        <time>2026-05-28T13:22:41.000Z</time>
      </trkpt>
      <trkpt lat="44.01818" lon="3.5122">
        <ele>1242.3</ele>
        <time>2026-05-28T13:22:42.000Z</time>
      </trkpt>
      <trkpt lat="44.01817" lon="3.51219">
        <ele>1242.3</ele>
        <time>2026-05-28T13:22:43.000Z</time>
      </trkpt>
      <trkpt lat="44.01816" lon="3.51217">
        <ele>1242.2</ele>
        <time>2026-05-28T13:22:44.000Z</time>
      </trkpt>
      <trkpt lat="44.01816" lon="3.51217">
        <ele>1241.7</ele>
        <time>2026-05-28T13:22:45.000Z</time>
      </trkpt>
      <trkpt lat="44.01815" lon="3.51216">
        <ele>1241.8</ele>
        <time>2026-05-28T13:22:46.000Z</time>
      </trkpt>
      <trkpt lat="44.01814" lon="3.51215">
        <ele>1241.6</ele>
        <time>2026-05-28T13:22:47.000Z</time>
      </trkpt>
      <trkpt lat="44.01812" lon="3.51215">
        <ele>1241.7</ele>
        <time>2026-05-28T13:22:48.000Z</time>
      </trkpt>
      <trkpt lat="44.01812" lon="3.51214">
        <ele>1241.8</ele>
        <time>2026-05-28T13:22:49.000Z</time>
      </trkpt>
      <trkpt lat="44.01811" lon="3.51213">
        <ele>1241.5</ele>
        <time>2026-05-28T13:22:50.000Z</time>
      </trkpt>
      <trkpt lat="44.0181" lon="3.51213">
        <ele>1241.9</ele>
        <time>2026-05-28T13:22:51.000Z</time>
      </trkpt>
      <trkpt lat="44.01809" lon="3.51211">
        <ele>1242.7</ele>
        <time>2026-05-28T13:22:52.000Z</time>
      </trkpt>
      <trkpt lat="44.01808" lon="3.5121">
        <ele>1243.2</ele>
        <time>2026-05-28T13:22:53.000Z</time>
      </trkpt>
      <trkpt lat="44.01808" lon="3.51209">
        <ele>1243.6</ele>
        <time>2026-05-28T13:22:54.000Z</time>
      </trkpt>
      <trkpt lat="44.01808" lon="3.51208">
        <ele>1243.7</ele>
        <time>2026-05-28T13:22:55.000Z</time>
      </trkpt>
      <trkpt lat="44.01807" lon="3.51207">
        <ele>1243.4</ele>
        <time>2026-05-28T13:22:56.000Z</time>
      </trkpt>
      <trkpt lat="44.01806" lon="3.51206">
        <ele>1243.9</ele>
        <time>2026-05-28T13:22:57.000Z</time>
      </trkpt>
      <trkpt lat="44.01806" lon="3.51206">
        <ele>1243.9</ele>
        <time>2026-05-28T13:22:58.000Z</time>
      </trkpt>
      <trkpt lat="44.01805" lon="3.51206">
        <ele>1243.9</ele>
        <time>2026-05-28T13:22:59.000Z</time>
      </trkpt>
      <trkpt lat="44.01804" lon="3.51205">
        <ele>1243.9</ele>
        <time>2026-05-28T13:23:00.000Z</time>
      </trkpt>
      <trkpt lat="44.01803" lon="3.51204">
        <ele>1244.1</ele>
        <time>2026-05-28T13:23:01.000Z</time>
      </trkpt>
      <trkpt lat="44.01802" lon="3.51204">
        <ele>1244.2</ele>
        <time>2026-05-28T13:23:02.000Z</time>
      </trkpt>
      <trkpt lat="44.01801" lon="3.51203">
        <ele>1244.1</ele>
        <time>2026-05-28T13:23:03.000Z</time>
      </trkpt>
      <trkpt lat="44.01801" lon="3.51202">
        <ele>1243.6</ele>
        <time>2026-05-28T13:23:04.000Z</time>
      </trkpt>
      <trkpt lat="44.018" lon="3.512">
        <ele>1243.5</ele>
        <time>2026-05-28T13:23:05.000Z</time>
      </trkpt>
      <trkpt lat="44.01799" lon="3.51199">
        <ele>1243.9</ele>
        <time>2026-05-28T13:23:06.000Z</time>
      </trkpt>
      <trkpt lat="44.01798" lon="3.51198">
        <ele>1243.7</ele>
        <time>2026-05-28T13:23:07.000Z</time>
      </trkpt>
      <trkpt lat="44.01798" lon="3.51197">
        <ele>1243.3</ele>
        <time>2026-05-28T13:23:08.000Z</time>
      </trkpt>
      <trkpt lat="44.01797" lon="3.51196">
        <ele>1243.1</ele>
        <time>2026-05-28T13:23:09.000Z</time>
      </trkpt>
      <trkpt lat="44.01795" lon="3.51195">
        <ele>1243</ele>
        <time>2026-05-28T13:23:10.000Z</time>
      </trkpt>
      <trkpt lat="44.01794" lon="3.51194">
        <ele>1242.7</ele>
        <time>2026-05-28T13:23:11.000Z</time>
      </trkpt>
      <trkpt lat="44.01792" lon="3.51194">
        <ele>1242.1</ele>
        <time>2026-05-28T13:23:12.000Z</time>
      </trkpt>
      <trkpt lat="44.01791" lon="3.51194">
        <ele>1242.1</ele>
        <time>2026-05-28T13:23:13.000Z</time>
      </trkpt>
      <trkpt lat="44.01791" lon="3.51194">
        <ele>1242.1</ele>
        <time>2026-05-28T13:23:14.000Z</time>
      </trkpt>
      <trkpt lat="44.01789" lon="3.51194">
        <ele>1242.1</ele>
        <time>2026-05-28T13:23:15.000Z</time>
      </trkpt>
      <trkpt lat="44.01788" lon="3.51193">
        <ele>1241.9</ele>
        <time>2026-05-28T13:23:16.000Z</time>
      </trkpt>
      <trkpt lat="44.01787" lon="3.51193">
        <ele>1241.8</ele>
        <time>2026-05-28T13:23:17.000Z</time>
      </trkpt>
      <trkpt lat="44.01787" lon="3.51193">
        <ele>1242.1</ele>
        <time>2026-05-28T13:23:18.000Z</time>
      </trkpt>
      <trkpt lat="44.01787" lon="3.51193">
        <ele>1242.2</ele>
        <time>2026-05-28T13:23:19.000Z</time>
      </trkpt>
      <trkpt lat="44.01787" lon="3.51192">
        <ele>1242.4</ele>
        <time>2026-05-28T13:23:20.000Z</time>
      </trkpt>
      <trkpt lat="44.01786" lon="3.51191">
        <ele>1242.4</ele>
        <time>2026-05-28T13:23:21.000Z</time>
      </trkpt>
      <trkpt lat="44.01785" lon="3.5119">
        <ele>1242.6</ele>
        <time>2026-05-28T13:23:22.000Z</time>
      </trkpt>
      <trkpt lat="44.01784" lon="3.51189">
        <ele>1242.8</ele>
        <time>2026-05-28T13:23:23.000Z</time>
      </trkpt>
      <trkpt lat="44.01784" lon="3.51189">
        <ele>1243.1</ele>
        <time>2026-05-28T13:23:24.000Z</time>
      </trkpt>
      <trkpt lat="44.01783" lon="3.51188">
        <ele>1243.3</ele>
        <time>2026-05-28T13:23:25.000Z</time>
      </trkpt>
      <trkpt lat="44.01782" lon="3.51188">
        <ele>1243.7</ele>
        <time>2026-05-28T13:23:26.000Z</time>
      </trkpt>
      <trkpt lat="44.01781" lon="3.51188">
        <ele>1243.5</ele>
        <time>2026-05-28T13:23:27.000Z</time>
      </trkpt>
      <trkpt lat="44.0178" lon="3.51187">
        <ele>1243.6</ele>
        <time>2026-05-28T13:23:28.000Z</time>
      </trkpt>
      <trkpt lat="44.01778" lon="3.51186">
        <ele>1243.8</ele>
        <time>2026-05-28T13:23:29.000Z</time>
      </trkpt>
      <trkpt lat="44.01777" lon="3.51185">
        <ele>1244.5</ele>
        <time>2026-05-28T13:23:30.000Z</time>
      </trkpt>
      <trkpt lat="44.01776" lon="3.51185">
        <ele>1245.1</ele>
        <time>2026-05-28T13:23:31.000Z</time>
      </trkpt>
      <trkpt lat="44.01775" lon="3.51183">
        <ele>1245.5</ele>
        <time>2026-05-28T13:23:32.000Z</time>
      </trkpt>
      <trkpt lat="44.01773" lon="3.51183">
        <ele>1246.3</ele>
        <time>2026-05-28T13:23:33.000Z</time>
      </trkpt>
      <trkpt lat="44.01772" lon="3.51182">
        <ele>1246.8</ele>
        <time>2026-05-28T13:23:34.000Z</time>
      </trkpt>
      <trkpt lat="44.01771" lon="3.51181">
        <ele>1247.4</ele>
        <time>2026-05-28T13:23:35.000Z</time>
      </trkpt>
      <trkpt lat="44.0177" lon="3.5118">
        <ele>1247.8</ele>
        <time>2026-05-28T13:23:36.000Z</time>
      </trkpt>
      <trkpt lat="44.01769" lon="3.5118">
        <ele>1248</ele>
        <time>2026-05-28T13:23:37.000Z</time>
      </trkpt>
      <trkpt lat="44.01767" lon="3.5118">
        <ele>1248.5</ele>
        <time>2026-05-28T13:23:38.000Z</time>
      </trkpt>
      <trkpt lat="44.01766" lon="3.5118">
        <ele>1248.6</ele>
        <time>2026-05-28T13:23:39.000Z</time>
      </trkpt>
      <trkpt lat="44.01765" lon="3.51179">
        <ele>1248.7</ele>
        <time>2026-05-28T13:23:40.000Z</time>
      </trkpt>
      <trkpt lat="44.01763" lon="3.51179">
        <ele>1248.9</ele>
        <time>2026-05-28T13:23:41.000Z</time>
      </trkpt>
      <trkpt lat="44.01762" lon="3.51179">
        <ele>1249.1</ele>
        <time>2026-05-28T13:23:42.000Z</time>
      </trkpt>
      <trkpt lat="44.01762" lon="3.51179">
        <ele>1249.1</ele>
        <time>2026-05-28T13:23:43.000Z</time>
      </trkpt>
      <trkpt lat="44.01761" lon="3.51178">
        <ele>1249.2</ele>
        <time>2026-05-28T13:23:44.000Z</time>
      </trkpt>
      <trkpt lat="44.01759" lon="3.51178">
        <ele>1249.6</ele>
        <time>2026-05-28T13:23:45.000Z</time>
      </trkpt>
      <trkpt lat="44.01759" lon="3.51178">
        <ele>1249.8</ele>
        <time>2026-05-28T13:23:46.000Z</time>
      </trkpt>
      <trkpt lat="44.01758" lon="3.51178">
        <ele>1250.2</ele>
        <time>2026-05-28T13:23:47.000Z</time>
      </trkpt>
      <trkpt lat="44.01757" lon="3.51177">
        <ele>1250.3</ele>
        <time>2026-05-28T13:23:48.000Z</time>
      </trkpt>
      <trkpt lat="44.01756" lon="3.51177">
        <ele>1250.2</ele>
        <time>2026-05-28T13:23:49.000Z</time>
      </trkpt>
      <trkpt lat="44.01755" lon="3.51176">
        <ele>1250.4</ele>
        <time>2026-05-28T13:23:50.000Z</time>
      </trkpt>
      <trkpt lat="44.01754" lon="3.51176">
        <ele>1250.1</ele>
        <time>2026-05-28T13:23:51.000Z</time>
      </trkpt>
      <trkpt lat="44.01752" lon="3.51175">
        <ele>1249.7</ele>
        <time>2026-05-28T13:23:52.000Z</time>
      </trkpt>
      <trkpt lat="44.01751" lon="3.51175">
        <ele>1249.1</ele>
        <time>2026-05-28T13:23:53.000Z</time>
      </trkpt>
      <trkpt lat="44.0175" lon="3.51174">
        <ele>1249.1</ele>
        <time>2026-05-28T13:23:54.000Z</time>
      </trkpt>
      <trkpt lat="44.01749" lon="3.51173">
        <ele>1249</ele>
        <time>2026-05-28T13:23:55.000Z</time>
      </trkpt>
      <trkpt lat="44.01748" lon="3.51172">
        <ele>1248.9</ele>
        <time>2026-05-28T13:23:56.000Z</time>
      </trkpt>
      <trkpt lat="44.01747" lon="3.51171">
        <ele>1248.4</ele>
        <time>2026-05-28T13:23:57.000Z</time>
      </trkpt>
      <trkpt lat="44.01747" lon="3.51171">
        <ele>1248</ele>
        <time>2026-05-28T13:23:58.000Z</time>
      </trkpt>
      <trkpt lat="44.01745" lon="3.5117">
        <ele>1247.7</ele>
        <time>2026-05-28T13:23:59.000Z</time>
      </trkpt>
      <trkpt lat="44.01744" lon="3.5117">
        <ele>1248.2</ele>
        <time>2026-05-28T13:24:00.000Z</time>
      </trkpt>
      <trkpt lat="44.01743" lon="3.51169">
        <ele>1247.7</ele>
        <time>2026-05-28T13:24:01.000Z</time>
      </trkpt>
      <trkpt lat="44.01741" lon="3.51169">
        <ele>1247.2</ele>
        <time>2026-05-28T13:24:02.000Z</time>
      </trkpt>
      <trkpt lat="44.0174" lon="3.51168">
        <ele>1247.5</ele>
        <time>2026-05-28T13:24:03.000Z</time>
      </trkpt>
      <trkpt lat="44.01739" lon="3.51167">
        <ele>1247.3</ele>
        <time>2026-05-28T13:24:04.000Z</time>
      </trkpt>
      <trkpt lat="44.01738" lon="3.51167">
        <ele>1247.2</ele>
        <time>2026-05-28T13:24:05.000Z</time>
      </trkpt>
      <trkpt lat="44.01737" lon="3.51167">
        <ele>1247.2</ele>
        <time>2026-05-28T13:24:06.000Z</time>
      </trkpt>
      <trkpt lat="44.01736" lon="3.51167">
        <ele>1247.1</ele>
        <time>2026-05-28T13:24:07.000Z</time>
      </trkpt>
      <trkpt lat="44.01735" lon="3.51167">
        <ele>1247.4</ele>
        <time>2026-05-28T13:24:08.000Z</time>
      </trkpt>
      <trkpt lat="44.01735" lon="3.51167">
        <ele>1247.5</ele>
        <time>2026-05-28T13:24:09.000Z</time>
      </trkpt>
      <trkpt lat="44.01734" lon="3.51166">
        <ele>1247.4</ele>
        <time>2026-05-28T13:24:10.000Z</time>
      </trkpt>
      <trkpt lat="44.01734" lon="3.51165">
        <ele>1247.1</ele>
        <time>2026-05-28T13:24:11.000Z</time>
      </trkpt>
      <trkpt lat="44.01733" lon="3.51163">
        <ele>1246.5</ele>
        <time>2026-05-28T13:24:12.000Z</time>
      </trkpt>
      <trkpt lat="44.01733" lon="3.51162">
        <ele>1246</ele>
        <time>2026-05-28T13:24:13.000Z</time>
      </trkpt>
      <trkpt lat="44.01732" lon="3.51162">
        <ele>1246</ele>
        <time>2026-05-28T13:24:14.000Z</time>
      </trkpt>
      <trkpt lat="44.01731" lon="3.51162">
        <ele>1245.8</ele>
        <time>2026-05-28T13:24:15.000Z</time>
      </trkpt>
      <trkpt lat="44.01729" lon="3.51161">
        <ele>1246</ele>
        <time>2026-05-28T13:24:16.000Z</time>
      </trkpt>
      <trkpt lat="44.01728" lon="3.51161">
        <ele>1246</ele>
        <time>2026-05-28T13:24:17.000Z</time>
      </trkpt>
      <trkpt lat="44.01727" lon="3.5116">
        <ele>1246.3</ele>
        <time>2026-05-28T13:24:18.000Z</time>
      </trkpt>
      <trkpt lat="44.01725" lon="3.51159">
        <ele>1246.5</ele>
        <time>2026-05-28T13:24:19.000Z</time>
      </trkpt>
      <trkpt lat="44.01724" lon="3.51159">
        <ele>1247.1</ele>
        <time>2026-05-28T13:24:20.000Z</time>
      </trkpt>
      <trkpt lat="44.01723" lon="3.51158">
        <ele>1247.6</ele>
        <time>2026-05-28T13:24:21.000Z</time>
      </trkpt>
      <trkpt lat="44.01722" lon="3.51157">
        <ele>1247.9</ele>
        <time>2026-05-28T13:24:22.000Z</time>
      </trkpt>
      <trkpt lat="44.01721" lon="3.51158">
        <ele>1247.6</ele>
        <time>2026-05-28T13:24:23.000Z</time>
      </trkpt>
      <trkpt lat="44.01719" lon="3.51158">
        <ele>1247.7</ele>
        <time>2026-05-28T13:24:24.000Z</time>
      </trkpt>
      <trkpt lat="44.01718" lon="3.51158">
        <ele>1247.1</ele>
        <time>2026-05-28T13:24:25.000Z</time>
      </trkpt>
      <trkpt lat="44.01717" lon="3.51158">
        <ele>1247.1</ele>
        <time>2026-05-28T13:24:26.000Z</time>
      </trkpt>
      <trkpt lat="44.01716" lon="3.51157">
        <ele>1247.1</ele>
        <time>2026-05-28T13:24:27.000Z</time>
      </trkpt>
      <trkpt lat="44.01715" lon="3.51157">
        <ele>1246.8</ele>
        <time>2026-05-28T13:24:28.000Z</time>
      </trkpt>
      <trkpt lat="44.01714" lon="3.51156">
        <ele>1246.5</ele>
        <time>2026-05-28T13:24:29.000Z</time>
      </trkpt>
      <trkpt lat="44.01714" lon="3.51155">
        <ele>1246.6</ele>
        <time>2026-05-28T13:24:30.000Z</time>
      </trkpt>
      <trkpt lat="44.01713" lon="3.51154">
        <ele>1246.4</ele>
        <time>2026-05-28T13:24:31.000Z</time>
      </trkpt>
      <trkpt lat="44.01712" lon="3.51154">
        <ele>1245.9</ele>
        <time>2026-05-28T13:24:32.000Z</time>
      </trkpt>
      <trkpt lat="44.01712" lon="3.51153">
        <ele>1246.1</ele>
        <time>2026-05-28T13:24:33.000Z</time>
      </trkpt>
      <trkpt lat="44.01711" lon="3.51152">
        <ele>1246</ele>
        <time>2026-05-28T13:24:34.000Z</time>
      </trkpt>
      <trkpt lat="44.0171" lon="3.51151">
        <ele>1246</ele>
        <time>2026-05-28T13:24:35.000Z</time>
      </trkpt>
      <trkpt lat="44.0171" lon="3.51151">
        <ele>1245.8</ele>
        <time>2026-05-28T13:24:36.000Z</time>
      </trkpt>
      <trkpt lat="44.01708" lon="3.5115">
        <ele>1246</ele>
        <time>2026-05-28T13:24:37.000Z</time>
      </trkpt>
      <trkpt lat="44.01707" lon="3.51149">
        <ele>1246.4</ele>
        <time>2026-05-28T13:24:38.000Z</time>
      </trkpt>
      <trkpt lat="44.01706" lon="3.51148">
        <ele>1246.8</ele>
        <time>2026-05-28T13:24:39.000Z</time>
      </trkpt>
      <trkpt lat="44.01705" lon="3.51147">
        <ele>1247.2</ele>
        <time>2026-05-28T13:24:40.000Z</time>
      </trkpt>
      <trkpt lat="44.01705" lon="3.51146">
        <ele>1247.7</ele>
        <time>2026-05-28T13:24:41.000Z</time>
      </trkpt>
      <trkpt lat="44.01704" lon="3.51144">
        <ele>1247.6</ele>
        <time>2026-05-28T13:24:42.000Z</time>
      </trkpt>
      <trkpt lat="44.01703" lon="3.51143">
        <ele>1248</ele>
        <time>2026-05-28T13:24:43.000Z</time>
      </trkpt>
      <trkpt lat="44.01703" lon="3.51142">
        <ele>1247.8</ele>
        <time>2026-05-28T13:24:44.000Z</time>
      </trkpt>
      <trkpt lat="44.01702" lon="3.51142">
        <ele>1248</ele>
        <time>2026-05-28T13:24:45.000Z</time>
      </trkpt>
      <trkpt lat="44.01702" lon="3.51141">
        <ele>1247.8</ele>
        <time>2026-05-28T13:24:46.000Z</time>
      </trkpt>
      <trkpt lat="44.01702" lon="3.5114">
        <ele>1247.5</ele>
        <time>2026-05-28T13:24:47.000Z</time>
      </trkpt>
      <trkpt lat="44.01701" lon="3.5114">
        <ele>1247.4</ele>
        <time>2026-05-28T13:24:48.000Z</time>
      </trkpt>
      <trkpt lat="44.01701" lon="3.51139">
        <ele>1247</ele>
        <time>2026-05-28T13:24:49.000Z</time>
      </trkpt>
      <trkpt lat="44.017" lon="3.51138">
        <ele>1246.9</ele>
        <time>2026-05-28T13:24:50.000Z</time>
      </trkpt>
      <trkpt lat="44.017" lon="3.51138">
        <ele>1247.1</ele>
        <time>2026-05-28T13:24:51.000Z</time>
      </trkpt>
      <trkpt lat="44.01699" lon="3.51137">
        <ele>1246.9</ele>
        <time>2026-05-28T13:24:52.000Z</time>
      </trkpt>
      <trkpt lat="44.01699" lon="3.51136">
        <ele>1246.7</ele>
        <time>2026-05-28T13:24:53.000Z</time>
      </trkpt>
      <trkpt lat="44.01698" lon="3.51135">
        <ele>1246.8</ele>
        <time>2026-05-28T13:24:54.000Z</time>
      </trkpt>
      <trkpt lat="44.01698" lon="3.51135">
        <ele>1247.1</ele>
        <time>2026-05-28T13:24:55.000Z</time>
      </trkpt>
      <trkpt lat="44.01697" lon="3.51134">
        <ele>1247.5</ele>
        <time>2026-05-28T13:24:56.000Z</time>
      </trkpt>
      <trkpt lat="44.01697" lon="3.51133">
        <ele>1247.8</ele>
        <time>2026-05-28T13:24:57.000Z</time>
      </trkpt>
      <trkpt lat="44.01696" lon="3.51133">
        <ele>1247.9</ele>
        <time>2026-05-28T13:24:58.000Z</time>
      </trkpt>
      <trkpt lat="44.01695" lon="3.51132">
        <ele>1248.2</ele>
        <time>2026-05-28T13:24:59.000Z</time>
      </trkpt>
      <trkpt lat="44.01694" lon="3.51131">
        <ele>1248.7</ele>
        <time>2026-05-28T13:25:00.000Z</time>
      </trkpt>
      <trkpt lat="44.01693" lon="3.5113">
        <ele>1248.9</ele>
        <time>2026-05-28T13:25:01.000Z</time>
      </trkpt>
      <trkpt lat="44.01693" lon="3.51129">
        <ele>1249.2</ele>
        <time>2026-05-28T13:25:02.000Z</time>
      </trkpt>
      <trkpt lat="44.01692" lon="3.51129">
        <ele>1249.3</ele>
        <time>2026-05-28T13:25:03.000Z</time>
      </trkpt>
      <trkpt lat="44.01691" lon="3.51129">
        <ele>1249.3</ele>
        <time>2026-05-28T13:25:04.000Z</time>
      </trkpt>
      <trkpt lat="44.0169" lon="3.51128">
        <ele>1249.5</ele>
        <time>2026-05-28T13:25:05.000Z</time>
      </trkpt>
      <trkpt lat="44.0169" lon="3.51127">
        <ele>1249.4</ele>
        <time>2026-05-28T13:25:06.000Z</time>
      </trkpt>
      <trkpt lat="44.01689" lon="3.51126">
        <ele>1249.7</ele>
        <time>2026-05-28T13:25:07.000Z</time>
      </trkpt>
      <trkpt lat="44.01687" lon="3.51126">
        <ele>1249.9</ele>
        <time>2026-05-28T13:25:08.000Z</time>
      </trkpt>
      <trkpt lat="44.01687" lon="3.51125">
        <ele>1250.2</ele>
        <time>2026-05-28T13:25:09.000Z</time>
      </trkpt>
      <trkpt lat="44.01686" lon="3.51125">
        <ele>1250.2</ele>
        <time>2026-05-28T13:25:10.000Z</time>
      </trkpt>
      <trkpt lat="44.01684" lon="3.51124">
        <ele>1250.7</ele>
        <time>2026-05-28T13:25:11.000Z</time>
      </trkpt>
      <trkpt lat="44.01683" lon="3.51123">
        <ele>1250.8</ele>
        <time>2026-05-28T13:25:12.000Z</time>
      </trkpt>
      <trkpt lat="44.01682" lon="3.51122">
        <ele>1251.1</ele>
        <time>2026-05-28T13:25:13.000Z</time>
      </trkpt>
      <trkpt lat="44.01681" lon="3.51121">
        <ele>1251.1</ele>
        <time>2026-05-28T13:25:14.000Z</time>
      </trkpt>
      <trkpt lat="44.0168" lon="3.5112">
        <ele>1251.4</ele>
        <time>2026-05-28T13:25:15.000Z</time>
      </trkpt>
      <trkpt lat="44.01679" lon="3.51119">
        <ele>1251.7</ele>
        <time>2026-05-28T13:25:16.000Z</time>
      </trkpt>
      <trkpt lat="44.01678" lon="3.51119">
        <ele>1251.5</ele>
        <time>2026-05-28T13:25:17.000Z</time>
      </trkpt>
      <trkpt lat="44.01678" lon="3.51118">
        <ele>1250.8</ele>
        <time>2026-05-28T13:25:18.000Z</time>
      </trkpt>
      <trkpt lat="44.01678" lon="3.51118">
        <ele>1250.3</ele>
        <time>2026-05-28T13:25:19.000Z</time>
      </trkpt>
      <trkpt lat="44.01678" lon="3.51118">
        <ele>1249.7</ele>
        <time>2026-05-28T13:25:20.000Z</time>
      </trkpt>
      <trkpt lat="44.01677" lon="3.51118">
        <ele>1249.7</ele>
        <time>2026-05-28T13:25:21.000Z</time>
      </trkpt>
      <trkpt lat="44.01676" lon="3.51117">
        <ele>1249.9</ele>
        <time>2026-05-28T13:25:22.000Z</time>
      </trkpt>
      <trkpt lat="44.01675" lon="3.51116">
        <ele>1250</ele>
        <time>2026-05-28T13:25:23.000Z</time>
      </trkpt>
      <trkpt lat="44.01674" lon="3.51115">
        <ele>1249.6</ele>
        <time>2026-05-28T13:25:24.000Z</time>
      </trkpt>
      <trkpt lat="44.01673" lon="3.51115">
        <ele>1249.4</ele>
        <time>2026-05-28T13:25:25.000Z</time>
      </trkpt>
      <trkpt lat="44.01672" lon="3.51114">
        <ele>1249</ele>
        <time>2026-05-28T13:25:26.000Z</time>
      </trkpt>
      <trkpt lat="44.01672" lon="3.51113">
        <ele>1248.9</ele>
        <time>2026-05-28T13:25:27.000Z</time>
      </trkpt>
      <trkpt lat="44.01671" lon="3.51112">
        <ele>1248.5</ele>
        <time>2026-05-28T13:25:28.000Z</time>
      </trkpt>
      <trkpt lat="44.0167" lon="3.51112">
        <ele>1248.4</ele>
        <time>2026-05-28T13:25:29.000Z</time>
      </trkpt>
      <trkpt lat="44.01669" lon="3.51111">
        <ele>1248.7</ele>
        <time>2026-05-28T13:25:30.000Z</time>
      </trkpt>
      <trkpt lat="44.01669" lon="3.5111">
        <ele>1248.7</ele>
        <time>2026-05-28T13:25:31.000Z</time>
      </trkpt>
      <trkpt lat="44.01668" lon="3.5111">
        <ele>1248.6</ele>
        <time>2026-05-28T13:25:32.000Z</time>
      </trkpt>
      <trkpt lat="44.01667" lon="3.5111">
        <ele>1248.4</ele>
        <time>2026-05-28T13:25:33.000Z</time>
      </trkpt>
      <trkpt lat="44.01666" lon="3.51109">
        <ele>1248.1</ele>
        <time>2026-05-28T13:25:34.000Z</time>
      </trkpt>
      <trkpt lat="44.01665" lon="3.51109">
        <ele>1248</ele>
        <time>2026-05-28T13:25:35.000Z</time>
      </trkpt>
      <trkpt lat="44.01665" lon="3.51108">
        <ele>1248.6</ele>
        <time>2026-05-28T13:25:36.000Z</time>
      </trkpt>
      <trkpt lat="44.01665" lon="3.51108">
        <ele>1249.2</ele>
        <time>2026-05-28T13:25:37.000Z</time>
      </trkpt>
      <trkpt lat="44.01665" lon="3.51108">
        <ele>1249.6</ele>
        <time>2026-05-28T13:25:38.000Z</time>
      </trkpt>
      <trkpt lat="44.01665" lon="3.51108">
        <ele>1249.8</ele>
        <time>2026-05-28T13:25:39.000Z</time>
      </trkpt>
      <trkpt lat="44.01665" lon="3.51108">
        <ele>1250</ele>
        <time>2026-05-28T13:25:40.000Z</time>
      </trkpt>
      <trkpt lat="44.01665" lon="3.51108">
        <ele>1249.8</ele>
        <time>2026-05-28T13:25:41.000Z</time>
      </trkpt>
      <trkpt lat="44.01665" lon="3.51108">
        <ele>1250</ele>
        <time>2026-05-28T13:25:42.000Z</time>
      </trkpt>
      <trkpt lat="44.01665" lon="3.51108">
        <ele>1250</ele>
        <time>2026-05-28T13:25:43.000Z</time>
      </trkpt>
      <trkpt lat="44.01665" lon="3.51108">
        <ele>1250.7</ele>
        <time>2026-05-28T13:25:44.000Z</time>
      </trkpt>
      <trkpt lat="44.01665" lon="3.51108">
        <ele>1251.1</ele>
        <time>2026-05-28T13:25:45.000Z</time>
      </trkpt>
      <trkpt lat="44.01665" lon="3.51108">
        <ele>1250.8</ele>
        <time>2026-05-28T13:25:46.000Z</time>
      </trkpt>
      <trkpt lat="44.01665" lon="3.51108">
        <ele>1250.7</ele>
        <time>2026-05-28T13:25:47.000Z</time>
      </trkpt>
      <trkpt lat="44.01664" lon="3.51108">
        <ele>1250.7</ele>
        <time>2026-05-28T13:25:48.000Z</time>
      </trkpt>
      <trkpt lat="44.01664" lon="3.51107">
        <ele>1250.6</ele>
        <time>2026-05-28T13:25:49.000Z</time>
      </trkpt>
      <trkpt lat="44.01663" lon="3.51107">
        <ele>1250.9</ele>
        <time>2026-05-28T13:25:50.000Z</time>
      </trkpt>
      <trkpt lat="44.01662" lon="3.51106">
        <ele>1251.1</ele>
        <time>2026-05-28T13:25:51.000Z</time>
      </trkpt>
      <trkpt lat="44.01661" lon="3.51105">
        <ele>1251.1</ele>
        <time>2026-05-28T13:25:52.000Z</time>
      </trkpt>
      <trkpt lat="44.01661" lon="3.51105">
        <ele>1251.1</ele>
        <time>2026-05-28T13:25:53.000Z</time>
      </trkpt>
      <trkpt lat="44.0166" lon="3.51104">
        <ele>1251.2</ele>
        <time>2026-05-28T13:25:54.000Z</time>
      </trkpt>
      <trkpt lat="44.01659" lon="3.51103">
        <ele>1251.7</ele>
        <time>2026-05-28T13:25:55.000Z</time>
      </trkpt>
      <trkpt lat="44.01658" lon="3.51102">
        <ele>1251.9</ele>
        <time>2026-05-28T13:25:56.000Z</time>
      </trkpt>
      <trkpt lat="44.01657" lon="3.51103">
        <ele>1252</ele>
        <time>2026-05-28T13:25:57.000Z</time>
      </trkpt>
      <trkpt lat="44.01656" lon="3.51102">
        <ele>1251.5</ele>
        <time>2026-05-28T13:25:58.000Z</time>
      </trkpt>
      <trkpt lat="44.01656" lon="3.51102">
        <ele>1251.3</ele>
        <time>2026-05-28T13:25:59.000Z</time>
      </trkpt>
      <trkpt lat="44.01655" lon="3.51101">
        <ele>1251.4</ele>
        <time>2026-05-28T13:26:00.000Z</time>
      </trkpt>
      <trkpt lat="44.01654" lon="3.511">
        <ele>1251.8</ele>
        <time>2026-05-28T13:26:01.000Z</time>
      </trkpt>
      <trkpt lat="44.01653" lon="3.51098">
        <ele>1251.8</ele>
        <time>2026-05-28T13:26:02.000Z</time>
      </trkpt>
      <trkpt lat="44.01653" lon="3.51098">
        <ele>1251.8</ele>
        <time>2026-05-28T13:26:03.000Z</time>
      </trkpt>
      <trkpt lat="44.01651" lon="3.51097">
        <ele>1255</ele>
        <time>2026-05-28T13:26:04.000Z</time>
      </trkpt>
      <trkpt lat="44.0165" lon="3.51096">
        <ele>1256.5</ele>
        <time>2026-05-28T13:26:05.000Z</time>
      </trkpt>
      <trkpt lat="44.01648" lon="3.51096">
        <ele>1257.5</ele>
        <time>2026-05-28T13:26:06.000Z</time>
      </trkpt>
      <trkpt lat="44.01647" lon="3.51096">
        <ele>1258.3</ele>
        <time>2026-05-28T13:26:07.000Z</time>
      </trkpt>
      <trkpt lat="44.01646" lon="3.51095">
        <ele>1259.1</ele>
        <time>2026-05-28T13:26:08.000Z</time>
      </trkpt>
      <trkpt lat="44.01645" lon="3.51094">
        <ele>1259.4</ele>
        <time>2026-05-28T13:26:09.000Z</time>
      </trkpt>
      <trkpt lat="44.01644" lon="3.51094">
        <ele>1259.3</ele>
        <time>2026-05-28T13:26:10.000Z</time>
      </trkpt>
      <trkpt lat="44.01644" lon="3.51094">
        <ele>1260</ele>
        <time>2026-05-28T13:26:11.000Z</time>
      </trkpt>
      <trkpt lat="44.01643" lon="3.51093">
        <ele>1260.2</ele>
        <time>2026-05-28T13:26:12.000Z</time>
      </trkpt>
      <trkpt lat="44.01642" lon="3.51093">
        <ele>1260.7</ele>
        <time>2026-05-28T13:26:13.000Z</time>
      </trkpt>
      <trkpt lat="44.01642" lon="3.51092">
        <ele>1260.3</ele>
        <time>2026-05-28T13:26:14.000Z</time>
      </trkpt>
      <trkpt lat="44.01642" lon="3.51091">
        <ele>1259.9</ele>
        <time>2026-05-28T13:26:15.000Z</time>
      </trkpt>
      <trkpt lat="44.01642" lon="3.5109">
        <ele>1259.9</ele>
        <time>2026-05-28T13:26:16.000Z</time>
      </trkpt>
      <trkpt lat="44.01642" lon="3.51089">
        <ele>1259.9</ele>
        <time>2026-05-28T13:26:17.000Z</time>
      </trkpt>
      <trkpt lat="44.01641" lon="3.51088">
        <ele>1259.9</ele>
        <time>2026-05-28T13:26:18.000Z</time>
      </trkpt>
      <trkpt lat="44.01641" lon="3.51087">
        <ele>1259.9</ele>
        <time>2026-05-28T13:26:19.000Z</time>
      </trkpt>
      <trkpt lat="44.01641" lon="3.51086">
        <ele>1259.9</ele>
        <time>2026-05-28T13:26:20.000Z</time>
      </trkpt>
      <trkpt lat="44.01641" lon="3.51085">
        <ele>1259.6</ele>
        <time>2026-05-28T13:26:21.000Z</time>
      </trkpt>
      <trkpt lat="44.0164" lon="3.51084">
        <ele>1259.5</ele>
        <time>2026-05-28T13:26:22.000Z</time>
      </trkpt>
      <trkpt lat="44.01641" lon="3.51083">
        <ele>1259.1</ele>
        <time>2026-05-28T13:26:23.000Z</time>
      </trkpt>
      <trkpt lat="44.0164" lon="3.51082">
        <ele>1258.9</ele>
        <time>2026-05-28T13:26:24.000Z</time>
      </trkpt>
      <trkpt lat="44.0164" lon="3.51081">
        <ele>1259.2</ele>
        <time>2026-05-28T13:26:25.000Z</time>
      </trkpt>
      <trkpt lat="44.01639" lon="3.5108">
        <ele>1259</ele>
        <time>2026-05-28T13:26:26.000Z</time>
      </trkpt>
      <trkpt lat="44.01638" lon="3.51078">
        <ele>1259.7</ele>
        <time>2026-05-28T13:26:27.000Z</time>
      </trkpt>
      <trkpt lat="44.01638" lon="3.51077">
        <ele>1260.5</ele>
        <time>2026-05-28T13:26:28.000Z</time>
      </trkpt>
      <trkpt lat="44.01637" lon="3.51075">
        <ele>1261</ele>
        <time>2026-05-28T13:26:29.000Z</time>
      </trkpt>
      <trkpt lat="44.01636" lon="3.51074">
        <ele>1261.6</ele>
        <time>2026-05-28T13:26:30.000Z</time>
      </trkpt>
      <trkpt lat="44.01636" lon="3.51074">
        <ele>1261.8</ele>
        <time>2026-05-28T13:26:31.000Z</time>
      </trkpt>
      <trkpt lat="44.01635" lon="3.51073">
        <ele>1262.2</ele>
        <time>2026-05-28T13:26:32.000Z</time>
      </trkpt>
      <trkpt lat="44.01634" lon="3.51073">
        <ele>1262.5</ele>
        <time>2026-05-28T13:26:33.000Z</time>
      </trkpt>
      <trkpt lat="44.01634" lon="3.51072">
        <ele>1262.6</ele>
        <time>2026-05-28T13:26:34.000Z</time>
      </trkpt>
      <trkpt lat="44.01633" lon="3.51072">
        <ele>1262.7</ele>
        <time>2026-05-28T13:26:35.000Z</time>
      </trkpt>
      <trkpt lat="44.01632" lon="3.51071">
        <ele>1262.6</ele>
        <time>2026-05-28T13:26:36.000Z</time>
      </trkpt>
      <trkpt lat="44.01631" lon="3.5107">
        <ele>1262.6</ele>
        <time>2026-05-28T13:26:37.000Z</time>
      </trkpt>
      <trkpt lat="44.01631" lon="3.51069">
        <ele>1262.6</ele>
        <time>2026-05-28T13:26:38.000Z</time>
      </trkpt>
      <trkpt lat="44.0163" lon="3.51068">
        <ele>1262.4</ele>
        <time>2026-05-28T13:26:39.000Z</time>
      </trkpt>
      <trkpt lat="44.01628" lon="3.51067">
        <ele>1262.2</ele>
        <time>2026-05-28T13:26:40.000Z</time>
      </trkpt>
      <trkpt lat="44.01627" lon="3.51066">
        <ele>1262.3</ele>
        <time>2026-05-28T13:26:41.000Z</time>
      </trkpt>
      <trkpt lat="44.01626" lon="3.51065">
        <ele>1262.2</ele>
        <time>2026-05-28T13:26:42.000Z</time>
      </trkpt>
      <trkpt lat="44.01625" lon="3.51065">
        <ele>1262.3</ele>
        <time>2026-05-28T13:26:43.000Z</time>
      </trkpt>
      <trkpt lat="44.01624" lon="3.51064">
        <ele>1262.1</ele>
        <time>2026-05-28T13:26:44.000Z</time>
      </trkpt>
      <trkpt lat="44.01623" lon="3.51064">
        <ele>1262</ele>
        <time>2026-05-28T13:26:45.000Z</time>
      </trkpt>
      <trkpt lat="44.01621" lon="3.51064">
        <ele>1262.1</ele>
        <time>2026-05-28T13:26:46.000Z</time>
      </trkpt>
      <trkpt lat="44.0162" lon="3.51064">
        <ele>1262.3</ele>
        <time>2026-05-28T13:26:47.000Z</time>
      </trkpt>
      <trkpt lat="44.01619" lon="3.51064">
        <ele>1262.6</ele>
        <time>2026-05-28T13:26:48.000Z</time>
      </trkpt>
      <trkpt lat="44.01618" lon="3.51063">
        <ele>1262.5</ele>
        <time>2026-05-28T13:26:49.000Z</time>
      </trkpt>
      <trkpt lat="44.01617" lon="3.51063">
        <ele>1262.7</ele>
        <time>2026-05-28T13:26:50.000Z</time>
      </trkpt>
      <trkpt lat="44.01616" lon="3.51063">
        <ele>1262.8</ele>
        <time>2026-05-28T13:26:51.000Z</time>
      </trkpt>
      <trkpt lat="44.01616" lon="3.51063">
        <ele>1262.6</ele>
        <time>2026-05-28T13:26:52.000Z</time>
      </trkpt>
      <trkpt lat="44.01615" lon="3.51063">
        <ele>1262.8</ele>
        <time>2026-05-28T13:26:53.000Z</time>
      </trkpt>
      <trkpt lat="44.01614" lon="3.51064">
        <ele>1262.7</ele>
        <time>2026-05-28T13:26:54.000Z</time>
      </trkpt>
      <trkpt lat="44.01613" lon="3.51065">
        <ele>1262.9</ele>
        <time>2026-05-28T13:26:55.000Z</time>
      </trkpt>
      <trkpt lat="44.01612" lon="3.51066">
        <ele>1263</ele>
        <time>2026-05-28T13:26:56.000Z</time>
      </trkpt>
      <trkpt lat="44.01611" lon="3.51067">
        <ele>1262.9</ele>
        <time>2026-05-28T13:26:57.000Z</time>
      </trkpt>
      <trkpt lat="44.0161" lon="3.51068">
        <ele>1262.8</ele>
        <time>2026-05-28T13:26:58.000Z</time>
      </trkpt>
      <trkpt lat="44.01609" lon="3.51068">
        <ele>1263</ele>
        <time>2026-05-28T13:26:59.000Z</time>
      </trkpt>
      <trkpt lat="44.01608" lon="3.51068">
        <ele>1263.3</ele>
        <time>2026-05-28T13:27:00.000Z</time>
      </trkpt>
      <trkpt lat="44.01606" lon="3.51068">
        <ele>1263.7</ele>
        <time>2026-05-28T13:27:01.000Z</time>
      </trkpt>
      <trkpt lat="44.01605" lon="3.51067">
        <ele>1264</ele>
        <time>2026-05-28T13:27:02.000Z</time>
      </trkpt>
      <trkpt lat="44.01604" lon="3.51067">
        <ele>1264.3</ele>
        <time>2026-05-28T13:27:03.000Z</time>
      </trkpt>
      <trkpt lat="44.01603" lon="3.51067">
        <ele>1264.6</ele>
        <time>2026-05-28T13:27:04.000Z</time>
      </trkpt>
      <trkpt lat="44.01602" lon="3.51067">
        <ele>1265.3</ele>
        <time>2026-05-28T13:27:05.000Z</time>
      </trkpt>
      <trkpt lat="44.016" lon="3.51067">
        <ele>1265.5</ele>
        <time>2026-05-28T13:27:06.000Z</time>
      </trkpt>
      <trkpt lat="44.016" lon="3.51067">
        <ele>1265.7</ele>
        <time>2026-05-28T13:27:07.000Z</time>
      </trkpt>
      <trkpt lat="44.01599" lon="3.51067">
        <ele>1265.7</ele>
        <time>2026-05-28T13:27:08.000Z</time>
      </trkpt>
      <trkpt lat="44.01598" lon="3.51068">
        <ele>1265.8</ele>
        <time>2026-05-28T13:27:09.000Z</time>
      </trkpt>
      <trkpt lat="44.01597" lon="3.51068">
        <ele>1266</ele>
        <time>2026-05-28T13:27:10.000Z</time>
      </trkpt>
      <trkpt lat="44.01597" lon="3.51068">
        <ele>1266.3</ele>
        <time>2026-05-28T13:27:11.000Z</time>
      </trkpt>
      <trkpt lat="44.01596" lon="3.51068">
        <ele>1266.4</ele>
        <time>2026-05-28T13:27:12.000Z</time>
      </trkpt>
      <trkpt lat="44.01594" lon="3.51068">
        <ele>1267.1</ele>
        <time>2026-05-28T13:27:13.000Z</time>
      </trkpt>
      <trkpt lat="44.01593" lon="3.51067">
        <ele>1267.4</ele>
        <time>2026-05-28T13:27:14.000Z</time>
      </trkpt>
      <trkpt lat="44.01592" lon="3.51066">
        <ele>1267.5</ele>
        <time>2026-05-28T13:27:15.000Z</time>
      </trkpt>
      <trkpt lat="44.01591" lon="3.51067">
        <ele>1267.8</ele>
        <time>2026-05-28T13:27:16.000Z</time>
      </trkpt>
      <trkpt lat="44.0159" lon="3.51067">
        <ele>1268</ele>
        <time>2026-05-28T13:27:17.000Z</time>
      </trkpt>
      <trkpt lat="44.01589" lon="3.51067">
        <ele>1268.3</ele>
        <time>2026-05-28T13:27:18.000Z</time>
      </trkpt>
      <trkpt lat="44.01588" lon="3.51067">
        <ele>1269</ele>
        <time>2026-05-28T13:27:19.000Z</time>
      </trkpt>
      <trkpt lat="44.01587" lon="3.51067">
        <ele>1269.6</ele>
        <time>2026-05-28T13:27:20.000Z</time>
      </trkpt>
      <trkpt lat="44.01586" lon="3.51068">
        <ele>1269.9</ele>
        <time>2026-05-28T13:27:21.000Z</time>
      </trkpt>
      <trkpt lat="44.01585" lon="3.51069">
        <ele>1270.2</ele>
        <time>2026-05-28T13:27:22.000Z</time>
      </trkpt>
      <trkpt lat="44.01585" lon="3.5107">
        <ele>1270.4</ele>
        <time>2026-05-28T13:27:23.000Z</time>
      </trkpt>
      <trkpt lat="44.01583" lon="3.5107">
        <ele>1270.7</ele>
        <time>2026-05-28T13:27:24.000Z</time>
      </trkpt>
      <trkpt lat="44.01582" lon="3.5107">
        <ele>1270.9</ele>
        <time>2026-05-28T13:27:25.000Z</time>
      </trkpt>
      <trkpt lat="44.01582" lon="3.5107">
        <ele>1271.3</ele>
        <time>2026-05-28T13:27:26.000Z</time>
      </trkpt>
      <trkpt lat="44.01581" lon="3.51071">
        <ele>1271.8</ele>
        <time>2026-05-28T13:27:27.000Z</time>
      </trkpt>
      <trkpt lat="44.0158" lon="3.51071">
        <ele>1272.3</ele>
        <time>2026-05-28T13:27:28.000Z</time>
      </trkpt>
      <trkpt lat="44.01579" lon="3.51072">
        <ele>1272.6</ele>
        <time>2026-05-28T13:27:29.000Z</time>
      </trkpt>
      <trkpt lat="44.01578" lon="3.51072">
        <ele>1272.6</ele>
        <time>2026-05-28T13:27:30.000Z</time>
      </trkpt>
      <trkpt lat="44.01577" lon="3.51072">
        <ele>1272.3</ele>
        <time>2026-05-28T13:27:31.000Z</time>
      </trkpt>
      <trkpt lat="44.01576" lon="3.51073">
        <ele>1272.4</ele>
        <time>2026-05-28T13:27:32.000Z</time>
      </trkpt>
      <trkpt lat="44.01575" lon="3.51073">
        <ele>1272.8</ele>
        <time>2026-05-28T13:27:33.000Z</time>
      </trkpt>
      <trkpt lat="44.01574" lon="3.51073">
        <ele>1272.9</ele>
        <time>2026-05-28T13:27:34.000Z</time>
      </trkpt>
      <trkpt lat="44.01573" lon="3.51073">
        <ele>1273.1</ele>
        <time>2026-05-28T13:27:35.000Z</time>
      </trkpt>
      <trkpt lat="44.01572" lon="3.51073">
        <ele>1273.2</ele>
        <time>2026-05-28T13:27:36.000Z</time>
      </trkpt>
      <trkpt lat="44.01571" lon="3.51073">
        <ele>1273</ele>
        <time>2026-05-28T13:27:37.000Z</time>
      </trkpt>
      <trkpt lat="44.0157" lon="3.51074">
        <ele>1272.9</ele>
        <time>2026-05-28T13:27:38.000Z</time>
      </trkpt>
      <trkpt lat="44.01569" lon="3.51074">
        <ele>1272.8</ele>
        <time>2026-05-28T13:27:39.000Z</time>
      </trkpt>
      <trkpt lat="44.01567" lon="3.51073">
        <ele>1272.8</ele>
        <time>2026-05-28T13:27:40.000Z</time>
      </trkpt>
      <trkpt lat="44.01566" lon="3.51073">
        <ele>1272.7</ele>
        <time>2026-05-28T13:27:41.000Z</time>
      </trkpt>
      <trkpt lat="44.01565" lon="3.51072">
        <ele>1272.8</ele>
        <time>2026-05-28T13:27:42.000Z</time>
      </trkpt>
      <trkpt lat="44.01564" lon="3.51072">
        <ele>1273</ele>
        <time>2026-05-28T13:27:43.000Z</time>
      </trkpt>
      <trkpt lat="44.01564" lon="3.51072">
        <ele>1272.9</ele>
        <time>2026-05-28T13:27:44.000Z</time>
      </trkpt>
      <trkpt lat="44.01563" lon="3.51072">
        <ele>1272.9</ele>
        <time>2026-05-28T13:27:45.000Z</time>
      </trkpt>
      <trkpt lat="44.01562" lon="3.51071">
        <ele>1273.1</ele>
        <time>2026-05-28T13:27:46.000Z</time>
      </trkpt>
      <trkpt lat="44.01561" lon="3.51072">
        <ele>1273</ele>
        <time>2026-05-28T13:27:47.000Z</time>
      </trkpt>
      <trkpt lat="44.0156" lon="3.51071">
        <ele>1272.7</ele>
        <time>2026-05-28T13:27:48.000Z</time>
      </trkpt>
      <trkpt lat="44.0156" lon="3.51071">
        <ele>1272.7</ele>
        <time>2026-05-28T13:27:49.000Z</time>
      </trkpt>
      <trkpt lat="44.01559" lon="3.5107">
        <ele>1272.8</ele>
        <time>2026-05-28T13:27:50.000Z</time>
      </trkpt>
      <trkpt lat="44.01559" lon="3.5107">
        <ele>1273.2</ele>
        <time>2026-05-28T13:27:51.000Z</time>
      </trkpt>
      <trkpt lat="44.01558" lon="3.51069">
        <ele>1273.3</ele>
        <time>2026-05-28T13:27:52.000Z</time>
      </trkpt>
      <trkpt lat="44.01556" lon="3.51069">
        <ele>1273.3</ele>
        <time>2026-05-28T13:27:53.000Z</time>
      </trkpt>
      <trkpt lat="44.01555" lon="3.51068">
        <ele>1273.1</ele>
        <time>2026-05-28T13:27:54.000Z</time>
      </trkpt>
      <trkpt lat="44.01554" lon="3.51069">
        <ele>1273</ele>
        <time>2026-05-28T13:27:55.000Z</time>
      </trkpt>
      <trkpt lat="44.01553" lon="3.51069">
        <ele>1272.8</ele>
        <time>2026-05-28T13:27:56.000Z</time>
      </trkpt>
      <trkpt lat="44.01552" lon="3.51069">
        <ele>1272.8</ele>
        <time>2026-05-28T13:27:57.000Z</time>
      </trkpt>
      <trkpt lat="44.01552" lon="3.5107">
        <ele>1272.8</ele>
        <time>2026-05-28T13:27:58.000Z</time>
      </trkpt>
      <trkpt lat="44.01551" lon="3.5107">
        <ele>1273</ele>
        <time>2026-05-28T13:27:59.000Z</time>
      </trkpt>
      <trkpt lat="44.0155" lon="3.5107">
        <ele>1273.1</ele>
        <time>2026-05-28T13:28:00.000Z</time>
      </trkpt>
      <trkpt lat="44.01548" lon="3.5107">
        <ele>1273.1</ele>
        <time>2026-05-28T13:28:01.000Z</time>
      </trkpt>
      <trkpt lat="44.01547" lon="3.51069">
        <ele>1273.1</ele>
        <time>2026-05-28T13:28:02.000Z</time>
      </trkpt>
      <trkpt lat="44.01546" lon="3.51069">
        <ele>1273.4</ele>
        <time>2026-05-28T13:28:03.000Z</time>
      </trkpt>
      <trkpt lat="44.01545" lon="3.51068">
        <ele>1273.5</ele>
        <time>2026-05-28T13:28:04.000Z</time>
      </trkpt>
      <trkpt lat="44.01545" lon="3.51068">
        <ele>1273.6</ele>
        <time>2026-05-28T13:28:05.000Z</time>
      </trkpt>
      <trkpt lat="44.01544" lon="3.51066">
        <ele>1273.9</ele>
        <time>2026-05-28T13:28:06.000Z</time>
      </trkpt>
      <trkpt lat="44.01543" lon="3.51065">
        <ele>1274.2</ele>
        <time>2026-05-28T13:28:07.000Z</time>
      </trkpt>
      <trkpt lat="44.01542" lon="3.51065">
        <ele>1274.1</ele>
        <time>2026-05-28T13:28:08.000Z</time>
      </trkpt>
      <trkpt lat="44.01541" lon="3.51066">
        <ele>1274.2</ele>
        <time>2026-05-28T13:28:09.000Z</time>
      </trkpt>
      <trkpt lat="44.0154" lon="3.51065">
        <ele>1274.4</ele>
        <time>2026-05-28T13:28:10.000Z</time>
      </trkpt>
      <trkpt lat="44.01538" lon="3.51065">
        <ele>1274.3</ele>
        <time>2026-05-28T13:28:11.000Z</time>
      </trkpt>
      <trkpt lat="44.01537" lon="3.51065">
        <ele>1274.5</ele>
        <time>2026-05-28T13:28:12.000Z</time>
      </trkpt>
      <trkpt lat="44.01536" lon="3.51065">
        <ele>1274.8</ele>
        <time>2026-05-28T13:28:13.000Z</time>
      </trkpt>
      <trkpt lat="44.01534" lon="3.51066">
        <ele>1274.7</ele>
        <time>2026-05-28T13:28:14.000Z</time>
      </trkpt>
      <trkpt lat="44.01533" lon="3.51066">
        <ele>1274.5</ele>
        <time>2026-05-28T13:28:15.000Z</time>
      </trkpt>
      <trkpt lat="44.01532" lon="3.51066">
        <ele>1274.7</ele>
        <time>2026-05-28T13:28:16.000Z</time>
      </trkpt>
      <trkpt lat="44.0153" lon="3.51065">
        <ele>1274.6</ele>
        <time>2026-05-28T13:28:17.000Z</time>
      </trkpt>
      <trkpt lat="44.01529" lon="3.51065">
        <ele>1274.6</ele>
        <time>2026-05-28T13:28:18.000Z</time>
      </trkpt>
      <trkpt lat="44.01528" lon="3.51064">
        <ele>1274.7</ele>
        <time>2026-05-28T13:28:19.000Z</time>
      </trkpt>
      <trkpt lat="44.01528" lon="3.51064">
        <ele>1275</ele>
        <time>2026-05-28T13:28:20.000Z</time>
      </trkpt>
      <trkpt lat="44.01526" lon="3.51063">
        <ele>1275.2</ele>
        <time>2026-05-28T13:28:21.000Z</time>
      </trkpt>
      <trkpt lat="44.01525" lon="3.51063">
        <ele>1275.5</ele>
        <time>2026-05-28T13:28:22.000Z</time>
      </trkpt>
      <trkpt lat="44.01524" lon="3.51063">
        <ele>1275.8</ele>
        <time>2026-05-28T13:28:23.000Z</time>
      </trkpt>
      <trkpt lat="44.01523" lon="3.51062">
        <ele>1275.7</ele>
        <time>2026-05-28T13:28:24.000Z</time>
      </trkpt>
      <trkpt lat="44.01522" lon="3.51062">
        <ele>1275.7</ele>
        <time>2026-05-28T13:28:25.000Z</time>
      </trkpt>
      <trkpt lat="44.01521" lon="3.51062">
        <ele>1275.8</ele>
        <time>2026-05-28T13:28:26.000Z</time>
      </trkpt>
      <trkpt lat="44.0152" lon="3.51063">
        <ele>1275.7</ele>
        <time>2026-05-28T13:28:27.000Z</time>
      </trkpt>
      <trkpt lat="44.01519" lon="3.51063">
        <ele>1275.6</ele>
        <time>2026-05-28T13:28:28.000Z</time>
      </trkpt>
      <trkpt lat="44.01519" lon="3.51063">
        <ele>1275.4</ele>
        <time>2026-05-28T13:28:29.000Z</time>
      </trkpt>
      <trkpt lat="44.01518" lon="3.51063">
        <ele>1275.5</ele>
        <time>2026-05-28T13:28:30.000Z</time>
      </trkpt>
      <trkpt lat="44.01517" lon="3.51062">
        <ele>1275.4</ele>
        <time>2026-05-28T13:28:31.000Z</time>
      </trkpt>
      <trkpt lat="44.01517" lon="3.51061">
        <ele>1275.7</ele>
        <time>2026-05-28T13:28:32.000Z</time>
      </trkpt>
      <trkpt lat="44.01516" lon="3.51061">
        <ele>1275.6</ele>
        <time>2026-05-28T13:28:33.000Z</time>
      </trkpt>
      <trkpt lat="44.01516" lon="3.51061">
        <ele>1275.4</ele>
        <time>2026-05-28T13:28:34.000Z</time>
      </trkpt>
      <trkpt lat="44.01514" lon="3.5106">
        <ele>1275.1</ele>
        <time>2026-05-28T13:28:35.000Z</time>
      </trkpt>
      <trkpt lat="44.01513" lon="3.5106">
        <ele>1275.4</ele>
        <time>2026-05-28T13:28:36.000Z</time>
      </trkpt>
      <trkpt lat="44.01512" lon="3.5106">
        <ele>1275.7</ele>
        <time>2026-05-28T13:28:37.000Z</time>
      </trkpt>
      <trkpt lat="44.01511" lon="3.51061">
        <ele>1275.8</ele>
        <time>2026-05-28T13:28:38.000Z</time>
      </trkpt>
      <trkpt lat="44.01509" lon="3.51061">
        <ele>1275.9</ele>
        <time>2026-05-28T13:28:39.000Z</time>
      </trkpt>
      <trkpt lat="44.01508" lon="3.5106">
        <ele>1275.9</ele>
        <time>2026-05-28T13:28:40.000Z</time>
      </trkpt>
      <trkpt lat="44.01507" lon="3.5106">
        <ele>1275.9</ele>
        <time>2026-05-28T13:28:41.000Z</time>
      </trkpt>
      <trkpt lat="44.01505" lon="3.5106">
        <ele>1275.9</ele>
        <time>2026-05-28T13:28:42.000Z</time>
      </trkpt>
      <trkpt lat="44.01504" lon="3.5106">
        <ele>1275.6</ele>
        <time>2026-05-28T13:28:43.000Z</time>
      </trkpt>
      <trkpt lat="44.01503" lon="3.5106">
        <ele>1275.5</ele>
        <time>2026-05-28T13:28:44.000Z</time>
      </trkpt>
      <trkpt lat="44.01502" lon="3.5106">
        <ele>1275.4</ele>
        <time>2026-05-28T13:28:45.000Z</time>
      </trkpt>
      <trkpt lat="44.01501" lon="3.51059">
        <ele>1275.4</ele>
        <time>2026-05-28T13:28:46.000Z</time>
      </trkpt>
      <trkpt lat="44.015" lon="3.51058">
        <ele>1275.4</ele>
        <time>2026-05-28T13:28:47.000Z</time>
      </trkpt>
      <trkpt lat="44.01499" lon="3.51058">
        <ele>1275.4</ele>
        <time>2026-05-28T13:28:48.000Z</time>
      </trkpt>
      <trkpt lat="44.01498" lon="3.51058">
        <ele>1275.2</ele>
        <time>2026-05-28T13:28:49.000Z</time>
      </trkpt>
      <trkpt lat="44.01497" lon="3.51058">
        <ele>1275.3</ele>
        <time>2026-05-28T13:28:50.000Z</time>
      </trkpt>
      <trkpt lat="44.01496" lon="3.51058">
        <ele>1275.4</ele>
        <time>2026-05-28T13:28:51.000Z</time>
      </trkpt>
      <trkpt lat="44.01494" lon="3.51057">
        <ele>1275.5</ele>
        <time>2026-05-28T13:28:52.000Z</time>
      </trkpt>
      <trkpt lat="44.01493" lon="3.51057">
        <ele>1275.8</ele>
        <time>2026-05-28T13:28:53.000Z</time>
      </trkpt>
      <trkpt lat="44.01491" lon="3.51057">
        <ele>1275.3</ele>
        <time>2026-05-28T13:28:54.000Z</time>
      </trkpt>
      <trkpt lat="44.0149" lon="3.51057">
        <ele>1275.1</ele>
        <time>2026-05-28T13:28:55.000Z</time>
      </trkpt>
      <trkpt lat="44.01489" lon="3.51057">
        <ele>1274.7</ele>
        <time>2026-05-28T13:28:56.000Z</time>
      </trkpt>
      <trkpt lat="44.01488" lon="3.51057">
        <ele>1274.3</ele>
        <time>2026-05-28T13:28:57.000Z</time>
      </trkpt>
      <trkpt lat="44.01487" lon="3.51057">
        <ele>1274</ele>
        <time>2026-05-28T13:28:58.000Z</time>
      </trkpt>
      <trkpt lat="44.01486" lon="3.51057">
        <ele>1274</ele>
        <time>2026-05-28T13:28:59.000Z</time>
      </trkpt>
      <trkpt lat="44.01485" lon="3.51057">
        <ele>1274</ele>
        <time>2026-05-28T13:29:00.000Z</time>
      </trkpt>
      <trkpt lat="44.01484" lon="3.51057">
        <ele>1273.9</ele>
        <time>2026-05-28T13:29:01.000Z</time>
      </trkpt>
      <trkpt lat="44.01483" lon="3.51057">
        <ele>1273.9</ele>
        <time>2026-05-28T13:29:02.000Z</time>
      </trkpt>
      <trkpt lat="44.01482" lon="3.51056">
        <ele>1273.9</ele>
        <time>2026-05-28T13:29:03.000Z</time>
      </trkpt>
      <trkpt lat="44.01481" lon="3.51056">
        <ele>1274</ele>
        <time>2026-05-28T13:29:04.000Z</time>
      </trkpt>
      <trkpt lat="44.0148" lon="3.51056">
        <ele>1274.1</ele>
        <time>2026-05-28T13:29:05.000Z</time>
      </trkpt>
      <trkpt lat="44.01479" lon="3.51056">
        <ele>1274.4</ele>
        <time>2026-05-28T13:29:06.000Z</time>
      </trkpt>
      <trkpt lat="44.01478" lon="3.51056">
        <ele>1274.3</ele>
        <time>2026-05-28T13:29:07.000Z</time>
      </trkpt>
      <trkpt lat="44.01477" lon="3.51056">
        <ele>1274.3</ele>
        <time>2026-05-28T13:29:08.000Z</time>
      </trkpt>
      <trkpt lat="44.01476" lon="3.51056">
        <ele>1274.5</ele>
        <time>2026-05-28T13:29:09.000Z</time>
      </trkpt>
      <trkpt lat="44.01475" lon="3.51056">
        <ele>1274.7</ele>
        <time>2026-05-28T13:29:10.000Z</time>
      </trkpt>
      <trkpt lat="44.01474" lon="3.51056">
        <ele>1275.1</ele>
        <time>2026-05-28T13:29:11.000Z</time>
      </trkpt>
      <trkpt lat="44.01473" lon="3.51056">
        <ele>1274.8</ele>
        <time>2026-05-28T13:29:12.000Z</time>
      </trkpt>
      <trkpt lat="44.01472" lon="3.51056">
        <ele>1274.7</ele>
        <time>2026-05-28T13:29:13.000Z</time>
      </trkpt>
      <trkpt lat="44.01471" lon="3.51057">
        <ele>1274.6</ele>
        <time>2026-05-28T13:29:14.000Z</time>
      </trkpt>
      <trkpt lat="44.0147" lon="3.51057">
        <ele>1274.5</ele>
        <time>2026-05-28T13:29:15.000Z</time>
      </trkpt>
      <trkpt lat="44.01469" lon="3.51057">
        <ele>1274.6</ele>
        <time>2026-05-28T13:29:16.000Z</time>
      </trkpt>
      <trkpt lat="44.01468" lon="3.51057">
        <ele>1274.7</ele>
        <time>2026-05-28T13:29:17.000Z</time>
      </trkpt>
      <trkpt lat="44.01467" lon="3.51057">
        <ele>1274.4</ele>
        <time>2026-05-28T13:29:18.000Z</time>
      </trkpt>
      <trkpt lat="44.01467" lon="3.51057">
        <ele>1274.3</ele>
        <time>2026-05-28T13:29:19.000Z</time>
      </trkpt>
      <trkpt lat="44.01466" lon="3.51056">
        <ele>1274.3</ele>
        <time>2026-05-28T13:29:20.000Z</time>
      </trkpt>
      <trkpt lat="44.01465" lon="3.51056">
        <ele>1274.5</ele>
        <time>2026-05-28T13:29:21.000Z</time>
      </trkpt>
      <trkpt lat="44.01465" lon="3.51055">
        <ele>1274.5</ele>
        <time>2026-05-28T13:29:22.000Z</time>
      </trkpt>
      <trkpt lat="44.01464" lon="3.51056">
        <ele>1274.7</ele>
        <time>2026-05-28T13:29:23.000Z</time>
      </trkpt>
      <trkpt lat="44.01463" lon="3.51056">
        <ele>1274.8</ele>
        <time>2026-05-28T13:29:24.000Z</time>
      </trkpt>
      <trkpt lat="44.01463" lon="3.51056">
        <ele>1274.8</ele>
        <time>2026-05-28T13:29:25.000Z</time>
      </trkpt>
      <trkpt lat="44.01464" lon="3.51056">
        <ele>1274.8</ele>
        <time>2026-05-28T13:29:26.000Z</time>
      </trkpt>
      <trkpt lat="44.01464" lon="3.51056">
        <ele>1274.5</ele>
        <time>2026-05-28T13:29:27.000Z</time>
      </trkpt>
      <trkpt lat="44.01464" lon="3.51056">
        <ele>1274</ele>
        <time>2026-05-28T13:29:28.000Z</time>
      </trkpt>
      <trkpt lat="44.01464" lon="3.51056">
        <ele>1273.8</ele>
        <time>2026-05-28T13:29:29.000Z</time>
      </trkpt>
      <trkpt lat="44.01464" lon="3.51056">
        <ele>1273.9</ele>
        <time>2026-05-28T13:29:30.000Z</time>
      </trkpt>
      <trkpt lat="44.01464" lon="3.51056">
        <ele>1273.9</ele>
        <time>2026-05-28T13:29:31.000Z</time>
      </trkpt>
      <trkpt lat="44.01463" lon="3.51056">
        <ele>1274</ele>
        <time>2026-05-28T13:29:32.000Z</time>
      </trkpt>
      <trkpt lat="44.01462" lon="3.51056">
        <ele>1274</ele>
        <time>2026-05-28T13:29:33.000Z</time>
      </trkpt>
      <trkpt lat="44.0146" lon="3.51056">
        <ele>1274.1</ele>
        <time>2026-05-28T13:29:34.000Z</time>
      </trkpt>
      <trkpt lat="44.01458" lon="3.51056">
        <ele>1273.9</ele>
        <time>2026-05-28T13:29:35.000Z</time>
      </trkpt>
      <trkpt lat="44.01458" lon="3.51057">
        <ele>1273.9</ele>
        <time>2026-05-28T13:29:36.000Z</time>
      </trkpt>
      <trkpt lat="44.01457" lon="3.51056">
        <ele>1273.9</ele>
        <time>2026-05-28T13:29:37.000Z</time>
      </trkpt>
      <trkpt lat="44.01457" lon="3.51057">
        <ele>1273.6</ele>
        <time>2026-05-28T13:29:38.000Z</time>
      </trkpt>
      <trkpt lat="44.01456" lon="3.51057">
        <ele>1273.3</ele>
        <time>2026-05-28T13:29:39.000Z</time>
      </trkpt>
      <trkpt lat="44.01454" lon="3.51057">
        <ele>1273.3</ele>
        <time>2026-05-28T13:29:40.000Z</time>
      </trkpt>
      <trkpt lat="44.01453" lon="3.51057">
        <ele>1273.2</ele>
        <time>2026-05-28T13:29:41.000Z</time>
      </trkpt>
      <trkpt lat="44.01452" lon="3.51056">
        <ele>1273</ele>
        <time>2026-05-28T13:29:42.000Z</time>
      </trkpt>
      <trkpt lat="44.01451" lon="3.51056">
        <ele>1272.5</ele>
        <time>2026-05-28T13:29:43.000Z</time>
      </trkpt>
      <trkpt lat="44.01449" lon="3.51055">
        <ele>1272.3</ele>
        <time>2026-05-28T13:29:44.000Z</time>
      </trkpt>
      <trkpt lat="44.01449" lon="3.51054">
        <ele>1272.4</ele>
        <time>2026-05-28T13:29:45.000Z</time>
      </trkpt>
      <trkpt lat="44.01448" lon="3.51054">
        <ele>1272.9</ele>
        <time>2026-05-28T13:29:46.000Z</time>
      </trkpt>
      <trkpt lat="44.01447" lon="3.51054">
        <ele>1273.2</ele>
        <time>2026-05-28T13:29:47.000Z</time>
      </trkpt>
      <trkpt lat="44.01446" lon="3.51053">
        <ele>1273</ele>
        <time>2026-05-28T13:29:48.000Z</time>
      </trkpt>
      <trkpt lat="44.01444" lon="3.51052">
        <ele>1272.8</ele>
        <time>2026-05-28T13:29:49.999Z</time>
      </trkpt>
      <trkpt lat="44.01445" lon="3.51053">
        <ele>1272.8</ele>
        <time>2026-05-28T13:29:50.999Z</time>
      </trkpt>
      <trkpt lat="44.01445" lon="3.51053">
        <ele>1272.7</ele>
        <time>2026-05-28T13:29:51.999Z</time>
      </trkpt>
      <trkpt lat="44.01445" lon="3.51053">
        <ele>1272.8</ele>
        <time>2026-05-28T13:29:52.999Z</time>
      </trkpt>
      <trkpt lat="44.01446" lon="3.51053">
        <ele>1272.9</ele>
        <time>2026-05-28T13:29:53.999Z</time>
      </trkpt>
      <trkpt lat="44.01446" lon="3.51053">
        <ele>1273.2</ele>
        <time>2026-05-28T13:29:54.999Z</time>
      </trkpt>
      <trkpt lat="44.01446" lon="3.51053">
        <ele>1273.2</ele>
        <time>2026-05-28T13:29:55.999Z</time>
      </trkpt>
      <trkpt lat="44.01445" lon="3.51053">
        <ele>1273.1</ele>
        <time>2026-05-28T13:29:56.999Z</time>
      </trkpt>
      <trkpt lat="44.01445" lon="3.51052">
        <ele>1273</ele>
        <time>2026-05-28T13:29:57.999Z</time>
      </trkpt>
      <trkpt lat="44.01445" lon="3.51051">
        <ele>1272.6</ele>
        <time>2026-05-28T13:29:58.999Z</time>
      </trkpt>
      <trkpt lat="44.01445" lon="3.5105">
        <ele>1272.7</ele>
        <time>2026-05-28T13:29:59.999Z</time>
      </trkpt>
      <trkpt lat="44.01444" lon="3.51049">
        <ele>1272.6</ele>
        <time>2026-05-28T13:30:00.999Z</time>
      </trkpt>
      <trkpt lat="44.01444" lon="3.51048">
        <ele>1272.6</ele>
        <time>2026-05-28T13:30:01.999Z</time>
      </trkpt>
      <trkpt lat="44.01443" lon="3.51046">
        <ele>1272.5</ele>
        <time>2026-05-28T13:30:02.999Z</time>
      </trkpt>
      <trkpt lat="44.01442" lon="3.51046">
        <ele>1272.4</ele>
        <time>2026-05-28T13:30:03.999Z</time>
      </trkpt>
      <trkpt lat="44.01442" lon="3.51045">
        <ele>1272.8</ele>
        <time>2026-05-28T13:30:04.999Z</time>
      </trkpt>
      <trkpt lat="44.01442" lon="3.51045">
        <ele>1272.6</ele>
        <time>2026-05-28T13:30:05.999Z</time>
      </trkpt>
      <trkpt lat="44.01441" lon="3.51046">
        <ele>1272.5</ele>
        <time>2026-05-28T13:30:06.999Z</time>
      </trkpt>
      <trkpt lat="44.01442" lon="3.51047">
        <ele>1272.3</ele>
        <time>2026-05-28T13:30:07.999Z</time>
      </trkpt>
      <trkpt lat="44.01442" lon="3.51046">
        <ele>1272.2</ele>
        <time>2026-05-28T13:30:08.999Z</time>
      </trkpt>
      <trkpt lat="44.01442" lon="3.51046">
        <ele>1272.4</ele>
        <time>2026-05-28T13:30:09.999Z</time>
      </trkpt>
      <trkpt lat="44.01442" lon="3.51046">
        <ele>1272.1</ele>
        <time>2026-05-28T13:30:10.999Z</time>
      </trkpt>
      <trkpt lat="44.01442" lon="3.51046">
        <ele>1272.2</ele>
        <time>2026-05-28T13:30:11.999Z</time>
      </trkpt>
      <trkpt lat="44.01442" lon="3.51046">
        <ele>1272.4</ele>
        <time>2026-05-28T13:30:12.999Z</time>
      </trkpt>
      <trkpt lat="44.01442" lon="3.51046">
        <ele>1272.9</ele>
        <time>2026-05-28T13:30:13.999Z</time>
      </trkpt>
      <trkpt lat="44.01442" lon="3.51046">
        <ele>1273.3</ele>
        <time>2026-05-28T13:30:14.999Z</time>
      </trkpt>
      <trkpt lat="44.01442" lon="3.51046">
        <ele>1273.5</ele>
        <time>2026-05-28T13:30:15.999Z</time>
      </trkpt>
      <trkpt lat="44.01442" lon="3.51046">
        <ele>1273.6</ele>
        <time>2026-05-28T13:30:16.999Z</time>
      </trkpt>
      <trkpt lat="44.01442" lon="3.51046">
        <ele>1274.1</ele>
        <time>2026-05-28T13:30:17.999Z</time>
      </trkpt>
      <trkpt lat="44.01442" lon="3.51046">
        <ele>1274.5</ele>
        <time>2026-05-28T13:30:18.999Z</time>
      </trkpt>
      <trkpt lat="44.01442" lon="3.51046">
        <ele>1274.4</ele>
        <time>2026-05-28T13:30:19.999Z</time>
      </trkpt>
      <trkpt lat="44.01442" lon="3.51046">
        <ele>1274.4</ele>
        <time>2026-05-28T13:30:20.999Z</time>
      </trkpt>
      <trkpt lat="44.01442" lon="3.51046">
        <ele>1274.6</ele>
        <time>2026-05-28T13:30:21.999Z</time>
      </trkpt>
      <trkpt lat="44.01442" lon="3.51046">
        <ele>1274.7</ele>
        <time>2026-05-28T13:30:22.999Z</time>
      </trkpt>
      <trkpt lat="44.01442" lon="3.51046">
        <ele>1274.8</ele>
        <time>2026-05-28T13:30:23.999Z</time>
      </trkpt>
      <trkpt lat="44.01442" lon="3.51046">
        <ele>1275</ele>
        <time>2026-05-28T13:30:24.999Z</time>
      </trkpt>
      <trkpt lat="44.01442" lon="3.51045">
        <ele>1275.2</ele>
        <time>2026-05-28T13:30:25.999Z</time>
      </trkpt>
      <trkpt lat="44.01442" lon="3.51046">
        <ele>1275.2</ele>
        <time>2026-05-28T13:30:26.999Z</time>
      </trkpt>
      <trkpt lat="44.01442" lon="3.51046">
        <ele>1275</ele>
        <time>2026-05-28T13:30:27.999Z</time>
      </trkpt>
      <trkpt lat="44.01442" lon="3.51046">
        <ele>1274.8</ele>
        <time>2026-05-28T13:30:28.999Z</time>
      </trkpt>
      <trkpt lat="44.01442" lon="3.51046">
        <ele>1274.8</ele>
        <time>2026-05-28T13:30:29.999Z</time>
      </trkpt>
      <trkpt lat="44.01442" lon="3.51046">
        <ele>1274.4</ele>
        <time>2026-05-28T13:30:30.999Z</time>
      </trkpt>
      <trkpt lat="44.01442" lon="3.51046">
        <ele>1274.3</ele>
        <time>2026-05-28T13:30:31.999Z</time>
      </trkpt>
      <trkpt lat="44.01442" lon="3.51046">
        <ele>1274.1</ele>
        <time>2026-05-28T13:30:32.999Z</time>
      </trkpt>
      <trkpt lat="44.01442" lon="3.51047">
        <ele>1273.9</ele>
        <time>2026-05-28T13:30:33.999Z</time>
      </trkpt>
      <trkpt lat="44.01443" lon="3.51047">
        <ele>1274</ele>
        <time>2026-05-28T13:30:34.999Z</time>
      </trkpt>
      <trkpt lat="44.01443" lon="3.51048">
        <ele>1273.9</ele>
        <time>2026-05-28T13:30:35.999Z</time>
      </trkpt>
      <trkpt lat="44.01443" lon="3.51048">
        <ele>1273.9</ele>
        <time>2026-05-28T13:30:36.999Z</time>
      </trkpt>
      <trkpt lat="44.01443" lon="3.51049">
        <ele>1274</ele>
        <time>2026-05-28T13:30:37.999Z</time>
      </trkpt>
      <trkpt lat="44.01443" lon="3.51048">
        <ele>1273.7</ele>
        <time>2026-05-28T13:30:38.999Z</time>
      </trkpt>
      <trkpt lat="44.01443" lon="3.51048">
        <ele>1273.4</ele>
        <time>2026-05-28T13:30:39.999Z</time>
      </trkpt>
      <trkpt lat="44.01443" lon="3.51048">
        <ele>1273.3</ele>
        <time>2026-05-28T13:30:40.999Z</time>
      </trkpt>
      <trkpt lat="44.01443" lon="3.51048">
        <ele>1273.3</ele>
        <time>2026-05-28T13:30:41.999Z</time>
      </trkpt>
      <trkpt lat="44.01443" lon="3.51048">
        <ele>1273.2</ele>
        <time>2026-05-28T13:30:42.999Z</time>
      </trkpt>
      <trkpt lat="44.01443" lon="3.51048">
        <ele>1273.2</ele>
        <time>2026-05-28T13:30:43.999Z</time>
      </trkpt>
      <trkpt lat="44.01443" lon="3.51048">
        <ele>1273.2</ele>
        <time>2026-05-28T13:30:44.999Z</time>
      </trkpt>
      <trkpt lat="44.01442" lon="3.51048">
        <ele>1273</ele>
        <time>2026-05-28T13:30:45.999Z</time>
      </trkpt>
      <trkpt lat="44.01443" lon="3.51048">
        <ele>1272.7</ele>
        <time>2026-05-28T13:30:46.999Z</time>
      </trkpt>
      <trkpt lat="44.01443" lon="3.51048">
        <ele>1272.5</ele>
        <time>2026-05-28T13:30:47.999Z</time>
      </trkpt>
      <trkpt lat="44.01443" lon="3.51048">
        <ele>1272.5</ele>
        <time>2026-05-28T13:30:48.999Z</time>
      </trkpt>
      <trkpt lat="44.01443" lon="3.51048">
        <ele>1272.6</ele>
        <time>2026-05-28T13:30:49.999Z</time>
      </trkpt>
      <trkpt lat="44.01443" lon="3.51048">
        <ele>1272.6</ele>
        <time>2026-05-28T13:30:50.999Z</time>
      </trkpt>
      <trkpt lat="44.01444" lon="3.51048">
        <ele>1272.3</ele>
        <time>2026-05-28T13:30:51.999Z</time>
      </trkpt>
      <trkpt lat="44.01444" lon="3.51049">
        <ele>1272.3</ele>
        <time>2026-05-28T13:30:52.999Z</time>
      </trkpt>
      <trkpt lat="44.01444" lon="3.51049">
        <ele>1272.2</ele>
        <time>2026-05-28T13:30:53.999Z</time>
      </trkpt>
      <trkpt lat="44.01445" lon="3.5105">
        <ele>1271.9</ele>
        <time>2026-05-28T13:30:54.999Z</time>
      </trkpt>
      <trkpt lat="44.01446" lon="3.51051">
        <ele>1271.8</ele>
        <time>2026-05-28T13:30:55.999Z</time>
      </trkpt>
      <trkpt lat="44.01446" lon="3.51051">
        <ele>1271.6</ele>
        <time>2026-05-28T13:30:56.999Z</time>
      </trkpt>
      <trkpt lat="44.01446" lon="3.51051">
        <ele>1271.3</ele>
        <time>2026-05-28T13:30:57.999Z</time>
      </trkpt>
      <trkpt lat="44.01446" lon="3.51052">
        <ele>1271.3</ele>
        <time>2026-05-28T13:30:58.999Z</time>
      </trkpt>
      <trkpt lat="44.01446" lon="3.51052">
        <ele>1271.3</ele>
        <time>2026-05-28T13:30:59.999Z</time>
      </trkpt>
      <trkpt lat="44.01445" lon="3.51052">
        <ele>1271.3</ele>
        <time>2026-05-28T13:31:00.999Z</time>
      </trkpt>
      <trkpt lat="44.01445" lon="3.51054">
        <ele>1271.3</ele>
        <time>2026-05-28T13:31:01.999Z</time>
      </trkpt>
      <trkpt lat="44.01444" lon="3.51056">
        <ele>1271.3</ele>
        <time>2026-05-28T13:31:02.999Z</time>
      </trkpt>
      <trkpt lat="44.01444" lon="3.51058">
        <ele>1270.9</ele>
        <time>2026-05-28T13:31:03.999Z</time>
      </trkpt>
      <trkpt lat="44.01443" lon="3.5106">
        <ele>1270.6</ele>
        <time>2026-05-28T13:31:04.999Z</time>
      </trkpt>
      <trkpt lat="44.01443" lon="3.51061">
        <ele>1270.4</ele>
        <time>2026-05-28T13:31:05.999Z</time>
      </trkpt>
      <trkpt lat="44.01443" lon="3.51062">
        <ele>1270.3</ele>
        <time>2026-05-28T13:31:06.999Z</time>
      </trkpt>
      <trkpt lat="44.01443" lon="3.51063">
        <ele>1270.3</ele>
        <time>2026-05-28T13:31:07.999Z</time>
      </trkpt>
      <trkpt lat="44.01443" lon="3.51064">
        <ele>1270.3</ele>
        <time>2026-05-28T13:31:08.999Z</time>
      </trkpt>
      <trkpt lat="44.01443" lon="3.51064">
        <ele>1270.5</ele>
        <time>2026-05-28T13:31:09.999Z</time>
      </trkpt>
      <trkpt lat="44.01442" lon="3.51064">
        <ele>1270.4</ele>
        <time>2026-05-28T13:31:10.999Z</time>
      </trkpt>
      <trkpt lat="44.01441" lon="3.51064">
        <ele>1270.4</ele>
        <time>2026-05-28T13:31:11.999Z</time>
      </trkpt>
      <trkpt lat="44.0144" lon="3.51065">
        <ele>1270.2</ele>
        <time>2026-05-28T13:31:12.999Z</time>
      </trkpt>
      <trkpt lat="44.01439" lon="3.51065">
        <ele>1270.1</ele>
        <time>2026-05-28T13:31:13.999Z</time>
      </trkpt>
      <trkpt lat="44.01438" lon="3.51065">
        <ele>1270</ele>
        <time>2026-05-28T13:31:14.999Z</time>
      </trkpt>
      <trkpt lat="44.01437" lon="3.51066">
        <ele>1269.9</ele>
        <time>2026-05-28T13:31:15.999Z</time>
      </trkpt>
      <trkpt lat="44.01436" lon="3.51066">
        <ele>1270</ele>
        <time>2026-05-28T13:31:16.999Z</time>
      </trkpt>
      <trkpt lat="44.01435" lon="3.51065">
        <ele>1270.1</ele>
        <time>2026-05-28T13:31:17.999Z</time>
      </trkpt>
      <trkpt lat="44.01434" lon="3.51064">
        <ele>1270</ele>
        <time>2026-05-28T13:31:18.999Z</time>
      </trkpt>
      <trkpt lat="44.01433" lon="3.51064">
        <ele>1269.8</ele>
        <time>2026-05-28T13:31:19.999Z</time>
      </trkpt>
      <trkpt lat="44.01432" lon="3.51063">
        <ele>1269.6</ele>
        <time>2026-05-28T13:31:20.999Z</time>
      </trkpt>
      <trkpt lat="44.0143" lon="3.51063">
        <ele>1269.4</ele>
        <time>2026-05-28T13:31:21.999Z</time>
      </trkpt>
      <trkpt lat="44.01428" lon="3.51063">
        <ele>1269.5</ele>
        <time>2026-05-28T13:31:22.999Z</time>
      </trkpt>
      <trkpt lat="44.01427" lon="3.51062">
        <ele>1269.4</ele>
        <time>2026-05-28T13:31:23.999Z</time>
      </trkpt>
      <trkpt lat="44.01425" lon="3.51062">
        <ele>1269.2</ele>
        <time>2026-05-28T13:31:24.999Z</time>
      </trkpt>
      <trkpt lat="44.01424" lon="3.51062">
        <ele>1268.7</ele>
        <time>2026-05-28T13:31:25.999Z</time>
      </trkpt>
      <trkpt lat="44.01424" lon="3.51063">
        <ele>1268.7</ele>
        <time>2026-05-28T13:31:26.999Z</time>
      </trkpt>
      <trkpt lat="44.01423" lon="3.51063">
        <ele>1268.8</ele>
        <time>2026-05-28T13:31:27.999Z</time>
      </trkpt>
      <trkpt lat="44.01422" lon="3.51063">
        <ele>1269</ele>
        <time>2026-05-28T13:31:28.999Z</time>
      </trkpt>
      <trkpt lat="44.01421" lon="3.51065">
        <ele>1269</ele>
        <time>2026-05-28T13:31:29.999Z</time>
      </trkpt>
      <trkpt lat="44.0142" lon="3.51065">
        <ele>1268.9</ele>
        <time>2026-05-28T13:31:30.999Z</time>
      </trkpt>
      <trkpt lat="44.0142" lon="3.51065">
        <ele>1268.7</ele>
        <time>2026-05-28T13:31:31.999Z</time>
      </trkpt>
      <trkpt lat="44.0142" lon="3.51065">
        <ele>1268.4</ele>
        <time>2026-05-28T13:31:32.999Z</time>
      </trkpt>
      <trkpt lat="44.01419" lon="3.51065">
        <ele>1268.5</ele>
        <time>2026-05-28T13:31:33.999Z</time>
      </trkpt>
      <trkpt lat="44.01419" lon="3.51066">
        <ele>1268.3</ele>
        <time>2026-05-28T13:31:34.999Z</time>
      </trkpt>
      <trkpt lat="44.01418" lon="3.51066">
        <ele>1267.9</ele>
        <time>2026-05-28T13:31:35.999Z</time>
      </trkpt>
      <trkpt lat="44.01417" lon="3.51066">
        <ele>1267.6</ele>
        <time>2026-05-28T13:31:36.999Z</time>
      </trkpt>
      <trkpt lat="44.01417" lon="3.51066">
        <ele>1267.6</ele>
        <time>2026-05-28T13:31:37.999Z</time>
      </trkpt>
      <trkpt lat="44.01417" lon="3.51066">
        <ele>1267.4</ele>
        <time>2026-05-28T13:31:38.999Z</time>
      </trkpt>
      <trkpt lat="44.01416" lon="3.51066">
        <ele>1267.1</ele>
        <time>2026-05-28T13:31:39.999Z</time>
      </trkpt>
      <trkpt lat="44.01415" lon="3.51066">
        <ele>1267</ele>
        <time>2026-05-28T13:31:40.999Z</time>
      </trkpt>
      <trkpt lat="44.01413" lon="3.51066">
        <ele>1266.9</ele>
        <time>2026-05-28T13:31:41.999Z</time>
      </trkpt>
      <trkpt lat="44.01412" lon="3.51066">
        <ele>1266.6</ele>
        <time>2026-05-28T13:31:42.999Z</time>
      </trkpt>
      <trkpt lat="44.01411" lon="3.51066">
        <ele>1266.2</ele>
        <time>2026-05-28T13:31:43.999Z</time>
      </trkpt>
      <trkpt lat="44.0141" lon="3.51066">
        <ele>1266</ele>
        <time>2026-05-28T13:31:44.999Z</time>
      </trkpt>
      <trkpt lat="44.01409" lon="3.51067">
        <ele>1265.9</ele>
        <time>2026-05-28T13:31:45.999Z</time>
      </trkpt>
      <trkpt lat="44.01407" lon="3.51068">
        <ele>1265.8</ele>
        <time>2026-05-28T13:31:46.999Z</time>
      </trkpt>
      <trkpt lat="44.01406" lon="3.51069">
        <ele>1266.2</ele>
        <time>2026-05-28T13:31:47.999Z</time>
      </trkpt>
      <trkpt lat="44.01405" lon="3.5107">
        <ele>1266.3</ele>
        <time>2026-05-28T13:31:48.999Z</time>
      </trkpt>
      <trkpt lat="44.01405" lon="3.5107">
        <ele>1266.2</ele>
        <time>2026-05-28T13:31:49.999Z</time>
      </trkpt>
      <trkpt lat="44.01404" lon="3.5107">
        <ele>1265.8</ele>
        <time>2026-05-28T13:31:50.999Z</time>
      </trkpt>
      <trkpt lat="44.01403" lon="3.5107">
        <ele>1265.1</ele>
        <time>2026-05-28T13:31:51.999Z</time>
      </trkpt>
      <trkpt lat="44.01402" lon="3.51069">
        <ele>1264.6</ele>
        <time>2026-05-28T13:31:52.999Z</time>
      </trkpt>
      <trkpt lat="44.014" lon="3.51069">
        <ele>1264.4</ele>
        <time>2026-05-28T13:31:53.999Z</time>
      </trkpt>
      <trkpt lat="44.01399" lon="3.51069">
        <ele>1264.1</ele>
        <time>2026-05-28T13:31:54.999Z</time>
      </trkpt>
      <trkpt lat="44.01398" lon="3.51069">
        <ele>1263.5</ele>
        <time>2026-05-28T13:31:55.999Z</time>
      </trkpt>
      <trkpt lat="44.01397" lon="3.5107">
        <ele>1263</ele>
        <time>2026-05-28T13:31:56.999Z</time>
      </trkpt>
      <trkpt lat="44.01397" lon="3.5107">
        <ele>1263.1</ele>
        <time>2026-05-28T13:31:57.999Z</time>
      </trkpt>
      <trkpt lat="44.01396" lon="3.5107">
        <ele>1263</ele>
        <time>2026-05-28T13:31:58.999Z</time>
      </trkpt>
      <trkpt lat="44.01394" lon="3.5107">
        <ele>1262.7</ele>
        <time>2026-05-28T13:31:59.999Z</time>
      </trkpt>
      <trkpt lat="44.01392" lon="3.5107">
        <ele>1262.5</ele>
        <time>2026-05-28T13:32:00.999Z</time>
      </trkpt>
      <trkpt lat="44.01391" lon="3.5107">
        <ele>1262</ele>
        <time>2026-05-28T13:32:01.999Z</time>
      </trkpt>
      <trkpt lat="44.01391" lon="3.5107">
        <ele>1261.6</ele>
        <time>2026-05-28T13:32:02.999Z</time>
      </trkpt>
      <trkpt lat="44.0139" lon="3.5107">
        <ele>1261.2</ele>
        <time>2026-05-28T13:32:03.999Z</time>
      </trkpt>
      <trkpt lat="44.01389" lon="3.5107">
        <ele>1261.4</ele>
        <time>2026-05-28T13:32:04.999Z</time>
      </trkpt>
      <trkpt lat="44.01388" lon="3.5107">
        <ele>1261.5</ele>
        <time>2026-05-28T13:32:05.999Z</time>
      </trkpt>
      <trkpt lat="44.01386" lon="3.5107">
        <ele>1261.5</ele>
        <time>2026-05-28T13:32:06.999Z</time>
      </trkpt>
      <trkpt lat="44.01385" lon="3.5107">
        <ele>1261.5</ele>
        <time>2026-05-28T13:32:07.999Z</time>
      </trkpt>
      <trkpt lat="44.01384" lon="3.5107">
        <ele>1261.4</ele>
        <time>2026-05-28T13:32:08.999Z</time>
      </trkpt>
      <trkpt lat="44.01382" lon="3.51069">
        <ele>1261.1</ele>
        <time>2026-05-28T13:32:09.999Z</time>
      </trkpt>
      <trkpt lat="44.01381" lon="3.51069">
        <ele>1260.9</ele>
        <time>2026-05-28T13:32:10.999Z</time>
      </trkpt>
      <trkpt lat="44.01379" lon="3.51068">
        <ele>1260.9</ele>
        <time>2026-05-28T13:32:11.999Z</time>
      </trkpt>
      <trkpt lat="44.01378" lon="3.51068">
        <ele>1260.7</ele>
        <time>2026-05-28T13:32:12.999Z</time>
      </trkpt>
      <trkpt lat="44.01377" lon="3.51068">
        <ele>1260.6</ele>
        <time>2026-05-28T13:32:13.999Z</time>
      </trkpt>
      <trkpt lat="44.01376" lon="3.51068">
        <ele>1260.2</ele>
        <time>2026-05-28T13:32:14.999Z</time>
      </trkpt>
      <trkpt lat="44.01375" lon="3.51068">
        <ele>1259.7</ele>
        <time>2026-05-28T13:32:15.999Z</time>
      </trkpt>
      <trkpt lat="44.01375" lon="3.51068">
        <ele>1259</ele>
        <time>2026-05-28T13:32:16.999Z</time>
      </trkpt>
      <trkpt lat="44.01374" lon="3.51069">
        <ele>1258.6</ele>
        <time>2026-05-28T13:32:17.999Z</time>
      </trkpt>
      <trkpt lat="44.01373" lon="3.5107">
        <ele>1258.5</ele>
        <time>2026-05-28T13:32:18.999Z</time>
      </trkpt>
      <trkpt lat="44.01371" lon="3.5107">
        <ele>1258.6</ele>
        <time>2026-05-28T13:32:19.999Z</time>
      </trkpt>
      <trkpt lat="44.0137" lon="3.51071">
        <ele>1258.7</ele>
        <time>2026-05-28T13:32:20.999Z</time>
      </trkpt>
      <trkpt lat="44.01369" lon="3.51071">
        <ele>1258.6</ele>
        <time>2026-05-28T13:32:21.999Z</time>
      </trkpt>
      <trkpt lat="44.01368" lon="3.51071">
        <ele>1258.5</ele>
        <time>2026-05-28T13:32:22.999Z</time>
      </trkpt>
      <trkpt lat="44.01367" lon="3.51071">
        <ele>1258.6</ele>
        <time>2026-05-28T13:32:23.999Z</time>
      </trkpt>
      <trkpt lat="44.01366" lon="3.51071">
        <ele>1258.4</ele>
        <time>2026-05-28T13:32:24.999Z</time>
      </trkpt>
      <trkpt lat="44.01365" lon="3.51072">
        <ele>1258.6</ele>
        <time>2026-05-28T13:32:25.999Z</time>
      </trkpt>
      <trkpt lat="44.01364" lon="3.51073">
        <ele>1258.4</ele>
        <time>2026-05-28T13:32:26.999Z</time>
      </trkpt>
      <trkpt lat="44.01363" lon="3.51072">
        <ele>1258.6</ele>
        <time>2026-05-28T13:32:27.999Z</time>
      </trkpt>
      <trkpt lat="44.01362" lon="3.51071">
        <ele>1258.5</ele>
        <time>2026-05-28T13:32:28.999Z</time>
      </trkpt>
      <trkpt lat="44.01361" lon="3.5107">
        <ele>1258.7</ele>
        <time>2026-05-28T13:32:29.999Z</time>
      </trkpt>
      <trkpt lat="44.0136" lon="3.5107">
        <ele>1258.6</ele>
        <time>2026-05-28T13:32:30.999Z</time>
      </trkpt>
      <trkpt lat="44.01359" lon="3.5107">
        <ele>1258.5</ele>
        <time>2026-05-28T13:32:31.999Z</time>
      </trkpt>
      <trkpt lat="44.01357" lon="3.51069">
        <ele>1258.4</ele>
        <time>2026-05-28T13:32:32.999Z</time>
      </trkpt>
      <trkpt lat="44.01356" lon="3.5107">
        <ele>1258.5</ele>
        <time>2026-05-28T13:32:33.999Z</time>
      </trkpt>
      <trkpt lat="44.01354" lon="3.5107">
        <ele>1258.4</ele>
        <time>2026-05-28T13:32:34.999Z</time>
      </trkpt>
      <trkpt lat="44.01354" lon="3.5107">
        <ele>1258.2</ele>
        <time>2026-05-28T13:32:35.999Z</time>
      </trkpt>
      <trkpt lat="44.01353" lon="3.5107">
        <ele>1258.1</ele>
        <time>2026-05-28T13:32:36.999Z</time>
      </trkpt>
      <trkpt lat="44.01351" lon="3.5107">
        <ele>1258.1</ele>
        <time>2026-05-28T13:32:37.999Z</time>
      </trkpt>
      <trkpt lat="44.0135" lon="3.51071">
        <ele>1258.4</ele>
        <time>2026-05-28T13:32:38.999Z</time>
      </trkpt>
      <trkpt lat="44.01348" lon="3.51072">
        <ele>1258.6</ele>
        <time>2026-05-28T13:32:39.999Z</time>
      </trkpt>
      <trkpt lat="44.01347" lon="3.51072">
        <ele>1258.2</ele>
        <time>2026-05-28T13:32:40.999Z</time>
      </trkpt>
      <trkpt lat="44.01347" lon="3.51072">
        <ele>1257.9</ele>
        <time>2026-05-28T13:32:41.999Z</time>
      </trkpt>
      <trkpt lat="44.01346" lon="3.51073">
        <ele>1257.5</ele>
        <time>2026-05-28T13:32:42.999Z</time>
      </trkpt>
      <trkpt lat="44.01346" lon="3.51074">
        <ele>1256.9</ele>
        <time>2026-05-28T13:32:43.999Z</time>
      </trkpt>
      <trkpt lat="44.01345" lon="3.51074">
        <ele>1257</ele>
        <time>2026-05-28T13:32:44.999Z</time>
      </trkpt>
      <trkpt lat="44.01344" lon="3.51075">
        <ele>1256.8</ele>
        <time>2026-05-28T13:32:45.999Z</time>
      </trkpt>
      <trkpt lat="44.01343" lon="3.51075">
        <ele>1256.9</ele>
        <time>2026-05-28T13:32:46.999Z</time>
      </trkpt>
      <trkpt lat="44.01342" lon="3.51075">
        <ele>1256.7</ele>
        <time>2026-05-28T13:32:47.999Z</time>
      </trkpt>
      <trkpt lat="44.0134" lon="3.51075">
        <ele>1256.6</ele>
        <time>2026-05-28T13:32:48.999Z</time>
      </trkpt>
      <trkpt lat="44.01339" lon="3.51075">
        <ele>1256.5</ele>
        <time>2026-05-28T13:32:49.999Z</time>
      </trkpt>
      <trkpt lat="44.01338" lon="3.51074">
        <ele>1256.4</ele>
        <time>2026-05-28T13:32:50.999Z</time>
      </trkpt>
      <trkpt lat="44.01336" lon="3.51074">
        <ele>1256.3</ele>
        <time>2026-05-28T13:32:51.999Z</time>
      </trkpt>
      <trkpt lat="44.01335" lon="3.51074">
        <ele>1256</ele>
        <time>2026-05-28T13:32:52.999Z</time>
      </trkpt>
      <trkpt lat="44.01333" lon="3.51073">
        <ele>1255.9</ele>
        <time>2026-05-28T13:32:53.999Z</time>
      </trkpt>
      <trkpt lat="44.01332" lon="3.51074">
        <ele>1255.7</ele>
        <time>2026-05-28T13:32:54.999Z</time>
      </trkpt>
      <trkpt lat="44.01332" lon="3.51074">
        <ele>1255.6</ele>
        <time>2026-05-28T13:32:55.999Z</time>
      </trkpt>
      <trkpt lat="44.01332" lon="3.51075">
        <ele>1255.1</ele>
        <time>2026-05-28T13:32:56.999Z</time>
      </trkpt>
      <trkpt lat="44.01331" lon="3.51075">
        <ele>1254.9</ele>
        <time>2026-05-28T13:32:57.999Z</time>
      </trkpt>
      <trkpt lat="44.01331" lon="3.51075">
        <ele>1254.9</ele>
        <time>2026-05-28T13:32:58.999Z</time>
      </trkpt>
      <trkpt lat="44.0133" lon="3.51075">
        <ele>1254.6</ele>
        <time>2026-05-28T13:32:59.999Z</time>
      </trkpt>
      <trkpt lat="44.0133" lon="3.51075">
        <ele>1254.4</ele>
        <time>2026-05-28T13:33:00.999Z</time>
      </trkpt>
      <trkpt lat="44.01329" lon="3.51076">
        <ele>1254.3</ele>
        <time>2026-05-28T13:33:01.999Z</time>
      </trkpt>
      <trkpt lat="44.01329" lon="3.51076">
        <ele>1254.1</ele>
        <time>2026-05-28T13:33:02.999Z</time>
      </trkpt>
      <trkpt lat="44.01329" lon="3.51077">
        <ele>1254.1</ele>
        <time>2026-05-28T13:33:03.999Z</time>
      </trkpt>
      <trkpt lat="44.01329" lon="3.51077">
        <ele>1254</ele>
        <time>2026-05-28T13:33:04.999Z</time>
      </trkpt>
      <trkpt lat="44.01329" lon="3.51076">
        <ele>1254</ele>
        <time>2026-05-28T13:33:05.999Z</time>
      </trkpt>
      <trkpt lat="44.01328" lon="3.51076">
        <ele>1253.9</ele>
        <time>2026-05-28T13:33:06.999Z</time>
      </trkpt>
      <trkpt lat="44.01327" lon="3.51077">
        <ele>1253.8</ele>
        <time>2026-05-28T13:33:07.999Z</time>
      </trkpt>
      <trkpt lat="44.01326" lon="3.51077">
        <ele>1253.6</ele>
        <time>2026-05-28T13:33:08.999Z</time>
      </trkpt>
      <trkpt lat="44.01325" lon="3.51077">
        <ele>1253.6</ele>
        <time>2026-05-28T13:33:09.999Z</time>
      </trkpt>
      <trkpt lat="44.01323" lon="3.51077">
        <ele>1253.6</ele>
        <time>2026-05-28T13:33:10.999Z</time>
      </trkpt>
      <trkpt lat="44.01322" lon="3.51077">
        <ele>1253.4</ele>
        <time>2026-05-28T13:33:11.999Z</time>
      </trkpt>
      <trkpt lat="44.0132" lon="3.51076">
        <ele>1253.2</ele>
        <time>2026-05-28T13:33:12.999Z</time>
      </trkpt>
      <trkpt lat="44.0132" lon="3.51076">
        <ele>1253.1</ele>
        <time>2026-05-28T13:33:13.999Z</time>
      </trkpt>
      <trkpt lat="44.01319" lon="3.51076">
        <ele>1252.9</ele>
        <time>2026-05-28T13:33:14.999Z</time>
      </trkpt>
      <trkpt lat="44.01318" lon="3.51076">
        <ele>1252.7</ele>
        <time>2026-05-28T13:33:15.999Z</time>
      </trkpt>
      <trkpt lat="44.01317" lon="3.51076">
        <ele>1252.8</ele>
        <time>2026-05-28T13:33:16.999Z</time>
      </trkpt>
      <trkpt lat="44.01316" lon="3.51077">
        <ele>1253</ele>
        <time>2026-05-28T13:33:17.999Z</time>
      </trkpt>
      <trkpt lat="44.01314" lon="3.51077">
        <ele>1252.9</ele>
        <time>2026-05-28T13:33:18.999Z</time>
      </trkpt>
      <trkpt lat="44.01313" lon="3.51077">
        <ele>1252.8</ele>
        <time>2026-05-28T13:33:19.999Z</time>
      </trkpt>
      <trkpt lat="44.01312" lon="3.51077">
        <ele>1252.5</ele>
        <time>2026-05-28T13:33:20.999Z</time>
      </trkpt>
      <trkpt lat="44.01312" lon="3.51076">
        <ele>1252.1</ele>
        <time>2026-05-28T13:33:21.999Z</time>
      </trkpt>
      <trkpt lat="44.01311" lon="3.51077">
        <ele>1251.5</ele>
        <time>2026-05-28T13:33:22.999Z</time>
      </trkpt>
      <trkpt lat="44.0131" lon="3.51076">
        <ele>1251.4</ele>
        <time>2026-05-28T13:33:23.999Z</time>
      </trkpt>
      <trkpt lat="44.0131" lon="3.51075">
        <ele>1251.3</ele>
        <time>2026-05-28T13:33:24.999Z</time>
      </trkpt>
      <trkpt lat="44.01309" lon="3.51073">
        <ele>1251.2</ele>
        <time>2026-05-28T13:33:25.999Z</time>
      </trkpt>
      <trkpt lat="44.01308" lon="3.51073">
        <ele>1251.3</ele>
        <time>2026-05-28T13:33:26.999Z</time>
      </trkpt>
      <trkpt lat="44.01307" lon="3.51072">
        <ele>1251.2</ele>
        <time>2026-05-28T13:33:27.999Z</time>
      </trkpt>
      <trkpt lat="44.01306" lon="3.51071">
        <ele>1250.9</ele>
        <time>2026-05-28T13:33:28.999Z</time>
      </trkpt>
      <trkpt lat="44.01305" lon="3.5107">
        <ele>1250.6</ele>
        <time>2026-05-28T13:33:29.999Z</time>
      </trkpt>
      <trkpt lat="44.01304" lon="3.5107">
        <ele>1250.4</ele>
        <time>2026-05-28T13:33:30.999Z</time>
      </trkpt>
      <trkpt lat="44.01303" lon="3.51071">
        <ele>1250.2</ele>
        <time>2026-05-28T13:33:31.999Z</time>
      </trkpt>
      <trkpt lat="44.01301" lon="3.51071">
        <ele>1250.3</ele>
        <time>2026-05-28T13:33:32.999Z</time>
      </trkpt>
      <trkpt lat="44.01301" lon="3.5107">
        <ele>1250.3</ele>
        <time>2026-05-28T13:33:33.999Z</time>
      </trkpt>
      <trkpt lat="44.013" lon="3.51069">
        <ele>1250.5</ele>
        <time>2026-05-28T13:33:34.999Z</time>
      </trkpt>
      <trkpt lat="44.01299" lon="3.51069">
        <ele>1250.6</ele>
        <time>2026-05-28T13:33:35.999Z</time>
      </trkpt>
      <trkpt lat="44.01298" lon="3.51068">
        <ele>1250.9</ele>
        <time>2026-05-28T13:33:36.999Z</time>
      </trkpt>
      <trkpt lat="44.01297" lon="3.51069">
        <ele>1251</ele>
        <time>2026-05-28T13:33:37.999Z</time>
      </trkpt>
      <trkpt lat="44.01296" lon="3.51069">
        <ele>1250.6</ele>
        <time>2026-05-28T13:33:38.999Z</time>
      </trkpt>
      <trkpt lat="44.01295" lon="3.51069">
        <ele>1250.2</ele>
        <time>2026-05-28T13:33:39.999Z</time>
      </trkpt>
      <trkpt lat="44.01295" lon="3.51068">
        <ele>1249.9</ele>
        <time>2026-05-28T13:33:40.999Z</time>
      </trkpt>
      <trkpt lat="44.01294" lon="3.51068">
        <ele>1249.6</ele>
        <time>2026-05-28T13:33:41.999Z</time>
      </trkpt>
      <trkpt lat="44.01293" lon="3.51068">
        <ele>1249.7</ele>
        <time>2026-05-28T13:33:42.999Z</time>
      </trkpt>
      <trkpt lat="44.01292" lon="3.51068">
        <ele>1249.6</ele>
        <time>2026-05-28T13:33:43.999Z</time>
      </trkpt>
      <trkpt lat="44.01291" lon="3.51069">
        <ele>1249.3</ele>
        <time>2026-05-28T13:33:44.999Z</time>
      </trkpt>
      <trkpt lat="44.01291" lon="3.5107">
        <ele>1248.9</ele>
        <time>2026-05-28T13:33:45.999Z</time>
      </trkpt>
      <trkpt lat="44.0129" lon="3.51071">
        <ele>1248.6</ele>
        <time>2026-05-28T13:33:46.999Z</time>
      </trkpt>
      <trkpt lat="44.01289" lon="3.51072">
        <ele>1248.3</ele>
        <time>2026-05-28T13:33:47.999Z</time>
      </trkpt>
      <trkpt lat="44.01289" lon="3.51073">
        <ele>1248.5</ele>
        <time>2026-05-28T13:33:48.999Z</time>
      </trkpt>
      <trkpt lat="44.01288" lon="3.51074">
        <ele>1248.4</ele>
        <time>2026-05-28T13:33:49.999Z</time>
      </trkpt>
      <trkpt lat="44.01288" lon="3.51074">
        <ele>1248.5</ele>
        <time>2026-05-28T13:33:50.999Z</time>
      </trkpt>
      <trkpt lat="44.01288" lon="3.51075">
        <ele>1248.5</ele>
        <time>2026-05-28T13:33:51.999Z</time>
      </trkpt>
      <trkpt lat="44.01289" lon="3.51076">
        <ele>1248.3</ele>
        <time>2026-05-28T13:33:52.999Z</time>
      </trkpt>
      <trkpt lat="44.01289" lon="3.51077">
        <ele>1248.6</ele>
        <time>2026-05-28T13:33:53.999Z</time>
      </trkpt>
      <trkpt lat="44.0129" lon="3.51077">
        <ele>1248.8</ele>
        <time>2026-05-28T13:33:54.999Z</time>
      </trkpt>
      <trkpt lat="44.01291" lon="3.51078">
        <ele>1248.7</ele>
        <time>2026-05-28T13:33:55.999Z</time>
      </trkpt>
      <trkpt lat="44.01291" lon="3.51078">
        <ele>1248.6</ele>
        <time>2026-05-28T13:33:56.999Z</time>
      </trkpt>
      <trkpt lat="44.01291" lon="3.51079">
        <ele>1248.7</ele>
        <time>2026-05-28T13:33:57.999Z</time>
      </trkpt>
      <trkpt lat="44.01291" lon="3.5108">
        <ele>1248.9</ele>
        <time>2026-05-28T13:33:58.999Z</time>
      </trkpt>
      <trkpt lat="44.01292" lon="3.51081">
        <ele>1248.2</ele>
        <time>2026-05-28T13:33:59.999Z</time>
      </trkpt>
      <trkpt lat="44.01292" lon="3.51081">
        <ele>1248.2</ele>
        <time>2026-05-28T13:34:00.999Z</time>
      </trkpt>
      <trkpt lat="44.01292" lon="3.51082">
        <ele>1248.3</ele>
        <time>2026-05-28T13:34:01.999Z</time>
      </trkpt>
      <trkpt lat="44.01292" lon="3.51082">
        <ele>1248.1</ele>
        <time>2026-05-28T13:34:02.999Z</time>
      </trkpt>
      <trkpt lat="44.01292" lon="3.51082">
        <ele>1247.6</ele>
        <time>2026-05-28T13:34:03.999Z</time>
      </trkpt>
      <trkpt lat="44.01292" lon="3.51082">
        <ele>1247.3</ele>
        <time>2026-05-28T13:34:04.999Z</time>
      </trkpt>
      <trkpt lat="44.01292" lon="3.51082">
        <ele>1247.1</ele>
        <time>2026-05-28T13:34:05.999Z</time>
      </trkpt>
      <trkpt lat="44.01292" lon="3.51082">
        <ele>1247.2</ele>
        <time>2026-05-28T13:34:06.999Z</time>
      </trkpt>
      <trkpt lat="44.01292" lon="3.51083">
        <ele>1247.3</ele>
        <time>2026-05-28T13:34:07.999Z</time>
      </trkpt>
      <trkpt lat="44.01292" lon="3.51083">
        <ele>1247.4</ele>
        <time>2026-05-28T13:34:08.999Z</time>
      </trkpt>
      <trkpt lat="44.01292" lon="3.51083">
        <ele>1247.6</ele>
        <time>2026-05-28T13:34:09.999Z</time>
      </trkpt>
      <trkpt lat="44.01292" lon="3.51083">
        <ele>1247.8</ele>
        <time>2026-05-28T13:34:10.999Z</time>
      </trkpt>
      <trkpt lat="44.01292" lon="3.51083">
        <ele>1248</ele>
        <time>2026-05-28T13:34:11.999Z</time>
      </trkpt>
      <trkpt lat="44.01292" lon="3.51083">
        <ele>1247.9</ele>
        <time>2026-05-28T13:34:12.999Z</time>
      </trkpt>
      <trkpt lat="44.01292" lon="3.51083">
        <ele>1248</ele>
        <time>2026-05-28T13:34:13.999Z</time>
      </trkpt>
      <trkpt lat="44.01292" lon="3.51083">
        <ele>1248.2</ele>
        <time>2026-05-28T13:34:14.999Z</time>
      </trkpt>
      <trkpt lat="44.01292" lon="3.51083">
        <ele>1248.3</ele>
        <time>2026-05-28T13:34:15.999Z</time>
      </trkpt>
      <trkpt lat="44.01292" lon="3.51083">
        <ele>1248.3</ele>
        <time>2026-05-28T13:34:16.999Z</time>
      </trkpt>
      <trkpt lat="44.01292" lon="3.51083">
        <ele>1248.3</ele>
        <time>2026-05-28T13:34:17.999Z</time>
      </trkpt>
      <trkpt lat="44.01292" lon="3.51083">
        <ele>1248.4</ele>
        <time>2026-05-28T13:34:18.999Z</time>
      </trkpt>
      <trkpt lat="44.01292" lon="3.51083">
        <ele>1248.3</ele>
        <time>2026-05-28T13:34:19.999Z</time>
      </trkpt>
      <trkpt lat="44.01292" lon="3.51083">
        <ele>1248.5</ele>
        <time>2026-05-28T13:34:20.999Z</time>
      </trkpt>
      <trkpt lat="44.01291" lon="3.51083">
        <ele>1248.5</ele>
        <time>2026-05-28T13:34:21.999Z</time>
      </trkpt>
      <trkpt lat="44.01291" lon="3.51083">
        <ele>1248.5</ele>
        <time>2026-05-28T13:34:22.999Z</time>
      </trkpt>
      <trkpt lat="44.01291" lon="3.51084">
        <ele>1248.5</ele>
        <time>2026-05-28T13:34:23.999Z</time>
      </trkpt>
      <trkpt lat="44.01291" lon="3.51084">
        <ele>1248.5</ele>
        <time>2026-05-28T13:34:24.999Z</time>
      </trkpt>
      <trkpt lat="44.01291" lon="3.51084">
        <ele>1248.7</ele>
        <time>2026-05-28T13:34:25.999Z</time>
      </trkpt>
      <trkpt lat="44.01291" lon="3.51083">
        <ele>1248.8</ele>
        <time>2026-05-28T13:34:26.999Z</time>
      </trkpt>
      <trkpt lat="44.01291" lon="3.51083">
        <ele>1248.7</ele>
        <time>2026-05-28T13:34:27.999Z</time>
      </trkpt>
      <trkpt lat="44.01291" lon="3.51084">
        <ele>1248.9</ele>
        <time>2026-05-28T13:34:28.999Z</time>
      </trkpt>
      <trkpt lat="44.01291" lon="3.51084">
        <ele>1248.9</ele>
        <time>2026-05-28T13:34:29.999Z</time>
      </trkpt>
      <trkpt lat="44.01291" lon="3.51084">
        <ele>1248.7</ele>
        <time>2026-05-28T13:34:30.999Z</time>
      </trkpt>
      <trkpt lat="44.01291" lon="3.51084">
        <ele>1249</ele>
        <time>2026-05-28T13:34:31.999Z</time>
      </trkpt>
      <trkpt lat="44.01291" lon="3.51084">
        <ele>1248.9</ele>
        <time>2026-05-28T13:34:32.999Z</time>
      </trkpt>
      <trkpt lat="44.01291" lon="3.51084">
        <ele>1249</ele>
        <time>2026-05-28T13:34:33.999Z</time>
      </trkpt>
      <trkpt lat="44.01291" lon="3.51084">
        <ele>1249</ele>
        <time>2026-05-28T13:34:34.999Z</time>
      </trkpt>
      <trkpt lat="44.01291" lon="3.51084">
        <ele>1249.1</ele>
        <time>2026-05-28T13:34:35.999Z</time>
      </trkpt>
      <trkpt lat="44.01291" lon="3.51084">
        <ele>1249.3</ele>
        <time>2026-05-28T13:34:36.999Z</time>
      </trkpt>
      <trkpt lat="44.01291" lon="3.51084">
        <ele>1249.5</ele>
        <time>2026-05-28T13:34:37.999Z</time>
      </trkpt>
      <trkpt lat="44.01291" lon="3.51084">
        <ele>1249.7</ele>
        <time>2026-05-28T13:34:38.999Z</time>
      </trkpt>
      <trkpt lat="44.01291" lon="3.51084">
        <ele>1249.8</ele>
        <time>2026-05-28T13:34:39.999Z</time>
      </trkpt>
      <trkpt lat="44.01291" lon="3.51084">
        <ele>1249.8</ele>
        <time>2026-05-28T13:34:40.999Z</time>
      </trkpt>
      <trkpt lat="44.01291" lon="3.51085">
        <ele>1249.8</ele>
        <time>2026-05-28T13:34:41.999Z</time>
      </trkpt>
      <trkpt lat="44.01291" lon="3.51085">
        <ele>1249.7</ele>
        <time>2026-05-28T13:34:42.999Z</time>
      </trkpt>
      <trkpt lat="44.01291" lon="3.51085">
        <ele>1249.5</ele>
        <time>2026-05-28T13:34:43.999Z</time>
      </trkpt>
      <trkpt lat="44.01291" lon="3.51085">
        <ele>1249</ele>
        <time>2026-05-28T13:34:44.999Z</time>
      </trkpt>
      <trkpt lat="44.01291" lon="3.51085">
        <ele>1248.7</ele>
        <time>2026-05-28T13:34:45.999Z</time>
      </trkpt>
      <trkpt lat="44.01291" lon="3.51085">
        <ele>1248.5</ele>
        <time>2026-05-28T13:34:46.999Z</time>
      </trkpt>
      <trkpt lat="44.01291" lon="3.51085">
        <ele>1248.3</ele>
        <time>2026-05-28T13:34:47.999Z</time>
      </trkpt>
      <trkpt lat="44.01291" lon="3.51085">
        <ele>1248.1</ele>
        <time>2026-05-28T13:34:48.999Z</time>
      </trkpt>
      <trkpt lat="44.01291" lon="3.51085">
        <ele>1247.9</ele>
        <time>2026-05-28T13:34:49.999Z</time>
      </trkpt>
      <trkpt lat="44.0129" lon="3.51085">
        <ele>1247.7</ele>
        <time>2026-05-28T13:34:50.999Z</time>
      </trkpt>
      <trkpt lat="44.0129" lon="3.51084">
        <ele>1247.6</ele>
        <time>2026-05-28T13:34:51.999Z</time>
      </trkpt>
      <trkpt lat="44.0129" lon="3.51084">
        <ele>1247.6</ele>
        <time>2026-05-28T13:34:52.999Z</time>
      </trkpt>
      <trkpt lat="44.0129" lon="3.51084">
        <ele>1247.5</ele>
        <time>2026-05-28T13:34:53.999Z</time>
      </trkpt>
      <trkpt lat="44.0129" lon="3.51084">
        <ele>1247.6</ele>
        <time>2026-05-28T13:34:54.999Z</time>
      </trkpt>
      <trkpt lat="44.0129" lon="3.51084">
        <ele>1247.8</ele>
        <time>2026-05-28T13:34:55.999Z</time>
      </trkpt>
      <trkpt lat="44.0129" lon="3.51084">
        <ele>1247.9</ele>
        <time>2026-05-28T13:34:56.999Z</time>
      </trkpt>
      <trkpt lat="44.0129" lon="3.51084">
        <ele>1247.9</ele>
        <time>2026-05-28T13:34:57.999Z</time>
      </trkpt>
      <trkpt lat="44.0129" lon="3.51085">
        <ele>1247.8</ele>
        <time>2026-05-28T13:34:58.999Z</time>
      </trkpt>
      <trkpt lat="44.0129" lon="3.51085">
        <ele>1248</ele>
        <time>2026-05-28T13:34:59.999Z</time>
      </trkpt>
      <trkpt lat="44.0129" lon="3.51085">
        <ele>1248.1</ele>
        <time>2026-05-28T13:35:00.999Z</time>
      </trkpt>
      <trkpt lat="44.0129" lon="3.51085">
        <ele>1248.3</ele>
        <time>2026-05-28T13:35:01.999Z</time>
      </trkpt>
      <trkpt lat="44.0129" lon="3.51085">
        <ele>1248.6</ele>
        <time>2026-05-28T13:35:02.999Z</time>
      </trkpt>
      <trkpt lat="44.0129" lon="3.51084">
        <ele>1248.9</ele>
        <time>2026-05-28T13:35:03.999Z</time>
      </trkpt>
      <trkpt lat="44.0129" lon="3.51084">
        <ele>1249</ele>
        <time>2026-05-28T13:35:04.999Z</time>
      </trkpt>
      <trkpt lat="44.0129" lon="3.51085">
        <ele>1249.4</ele>
        <time>2026-05-28T13:35:05.999Z</time>
      </trkpt>
      <trkpt lat="44.01289" lon="3.51085">
        <ele>1249.5</ele>
        <time>2026-05-28T13:35:06.999Z</time>
      </trkpt>
      <trkpt lat="44.01289" lon="3.51084">
        <ele>1249.4</ele>
        <time>2026-05-28T13:35:07.999Z</time>
      </trkpt>
      <trkpt lat="44.01289" lon="3.51085">
        <ele>1249.4</ele>
        <time>2026-05-28T13:35:08.999Z</time>
      </trkpt>
      <trkpt lat="44.01289" lon="3.51085">
        <ele>1249.2</ele>
        <time>2026-05-28T13:35:09.999Z</time>
      </trkpt>
      <trkpt lat="44.01289" lon="3.51084">
        <ele>1249.1</ele>
        <time>2026-05-28T13:35:10.999Z</time>
      </trkpt>
      <trkpt lat="44.01289" lon="3.51084">
        <ele>1249.2</ele>
        <time>2026-05-28T13:35:11.999Z</time>
      </trkpt>
      <trkpt lat="44.01289" lon="3.51084">
        <ele>1249.1</ele>
        <time>2026-05-28T13:35:12.999Z</time>
      </trkpt>
      <trkpt lat="44.01289" lon="3.51084">
        <ele>1249.1</ele>
        <time>2026-05-28T13:35:13.999Z</time>
      </trkpt>
      <trkpt lat="44.01289" lon="3.51084">
        <ele>1249</ele>
        <time>2026-05-28T13:35:14.999Z</time>
      </trkpt>
      <trkpt lat="44.01289" lon="3.51085">
        <ele>1249</ele>
        <time>2026-05-28T13:35:15.999Z</time>
      </trkpt>
      <trkpt lat="44.01289" lon="3.51085">
        <ele>1249.3</ele>
        <time>2026-05-28T13:35:16.999Z</time>
      </trkpt>
      <trkpt lat="44.01289" lon="3.51085">
        <ele>1249.1</ele>
        <time>2026-05-28T13:35:17.999Z</time>
      </trkpt>
      <trkpt lat="44.01289" lon="3.51085">
        <ele>1248.9</ele>
        <time>2026-05-28T13:35:18.999Z</time>
      </trkpt>
      <trkpt lat="44.0129" lon="3.51085">
        <ele>1248.8</ele>
        <time>2026-05-28T13:35:19.999Z</time>
      </trkpt>
      <trkpt lat="44.01289" lon="3.51085">
        <ele>1248.8</ele>
        <time>2026-05-28T13:35:20.999Z</time>
      </trkpt>
      <trkpt lat="44.01289" lon="3.51084">
        <ele>1248.8</ele>
        <time>2026-05-28T13:35:21.999Z</time>
      </trkpt>
      <trkpt lat="44.01289" lon="3.51084">
        <ele>1248.8</ele>
        <time>2026-05-28T13:35:22.999Z</time>
      </trkpt>
      <trkpt lat="44.01289" lon="3.51084">
        <ele>1248.9</ele>
        <time>2026-05-28T13:35:23.999Z</time>
      </trkpt>
      <trkpt lat="44.01289" lon="3.51084">
        <ele>1249.1</ele>
        <time>2026-05-28T13:35:24.999Z</time>
      </trkpt>
      <trkpt lat="44.01289" lon="3.51084">
        <ele>1249</ele>
        <time>2026-05-28T13:35:25.999Z</time>
      </trkpt>
      <trkpt lat="44.01289" lon="3.51084">
        <ele>1249.2</ele>
        <time>2026-05-28T13:35:26.999Z</time>
      </trkpt>
      <trkpt lat="44.01289" lon="3.51084">
        <ele>1249.2</ele>
        <time>2026-05-28T13:35:27.999Z</time>
      </trkpt>
      <trkpt lat="44.01289" lon="3.51084">
        <ele>1249.2</ele>
        <time>2026-05-28T13:35:28.999Z</time>
      </trkpt>
      <trkpt lat="44.01289" lon="3.51084">
        <ele>1249.2</ele>
        <time>2026-05-28T13:35:29.999Z</time>
      </trkpt>
      <trkpt lat="44.01289" lon="3.51084">
        <ele>1249.3</ele>
        <time>2026-05-28T13:35:30.999Z</time>
      </trkpt>
      <trkpt lat="44.01289" lon="3.51084">
        <ele>1249.3</ele>
        <time>2026-05-28T13:35:31.999Z</time>
      </trkpt>
      <trkpt lat="44.01289" lon="3.51084">
        <ele>1249.5</ele>
        <time>2026-05-28T13:35:32.999Z</time>
      </trkpt>
      <trkpt lat="44.01289" lon="3.51084">
        <ele>1249.6</ele>
        <time>2026-05-28T13:35:33.999Z</time>
      </trkpt>
      <trkpt lat="44.01289" lon="3.51084">
        <ele>1249.7</ele>
        <time>2026-05-28T13:35:34.999Z</time>
      </trkpt>
      <trkpt lat="44.01289" lon="3.51084">
        <ele>1249.8</ele>
        <time>2026-05-28T13:35:35.999Z</time>
      </trkpt>
      <trkpt lat="44.01289" lon="3.51084">
        <ele>1249.8</ele>
        <time>2026-05-28T13:35:36.999Z</time>
      </trkpt>
      <trkpt lat="44.01289" lon="3.51083">
        <ele>1249.8</ele>
        <time>2026-05-28T13:35:37.999Z</time>
      </trkpt>
      <trkpt lat="44.01289" lon="3.51083">
        <ele>1249.9</ele>
        <time>2026-05-28T13:35:38.999Z</time>
      </trkpt>
      <trkpt lat="44.01289" lon="3.51083">
        <ele>1250.1</ele>
        <time>2026-05-28T13:35:39.999Z</time>
      </trkpt>
      <trkpt lat="44.01289" lon="3.51083">
        <ele>1250.2</ele>
        <time>2026-05-28T13:35:40.999Z</time>
      </trkpt>
      <trkpt lat="44.01289" lon="3.51083">
        <ele>1250.1</ele>
        <time>2026-05-28T13:35:41.999Z</time>
      </trkpt>
      <trkpt lat="44.01289" lon="3.51083">
        <ele>1250</ele>
        <time>2026-05-28T13:35:42.999Z</time>
      </trkpt>
      <trkpt lat="44.01289" lon="3.51083">
        <ele>1250</ele>
        <time>2026-05-28T13:35:43.999Z</time>
      </trkpt>
      <trkpt lat="44.0129" lon="3.51083">
        <ele>1250</ele>
        <time>2026-05-28T13:35:44.999Z</time>
      </trkpt>
      <trkpt lat="44.0129" lon="3.51083">
        <ele>1249.9</ele>
        <time>2026-05-28T13:35:45.999Z</time>
      </trkpt>
      <trkpt lat="44.0129" lon="3.51083">
        <ele>1249.6</ele>
        <time>2026-05-28T13:35:46.999Z</time>
      </trkpt>
      <trkpt lat="44.0129" lon="3.51083">
        <ele>1249.5</ele>
        <time>2026-05-28T13:35:47.999Z</time>
      </trkpt>
      <trkpt lat="44.0129" lon="3.51083">
        <ele>1249.2</ele>
        <time>2026-05-28T13:35:48.999Z</time>
      </trkpt>
      <trkpt lat="44.0129" lon="3.51083">
        <ele>1249</ele>
        <time>2026-05-28T13:35:49.999Z</time>
      </trkpt>
      <trkpt lat="44.0129" lon="3.51083">
        <ele>1249.4</ele>
        <time>2026-05-28T13:35:50.999Z</time>
      </trkpt>
      <trkpt lat="44.0129" lon="3.51083">
        <ele>1249.3</ele>
        <time>2026-05-28T13:35:51.999Z</time>
      </trkpt>
      <trkpt lat="44.0129" lon="3.51083">
        <ele>1249.2</ele>
        <time>2026-05-28T13:35:52.999Z</time>
      </trkpt>
      <trkpt lat="44.0129" lon="3.51083">
        <ele>1249.2</ele>
        <time>2026-05-28T13:35:53.999Z</time>
      </trkpt>
      <trkpt lat="44.0129" lon="3.51083">
        <ele>1249.1</ele>
        <time>2026-05-28T13:35:54.999Z</time>
      </trkpt>
      <trkpt lat="44.0129" lon="3.51083">
        <ele>1249</ele>
        <time>2026-05-28T13:35:55.999Z</time>
      </trkpt>
      <trkpt lat="44.0129" lon="3.51083">
        <ele>1248.9</ele>
        <time>2026-05-28T13:35:56.999Z</time>
      </trkpt>
      <trkpt lat="44.0129" lon="3.51083">
        <ele>1248.7</ele>
        <time>2026-05-28T13:35:57.999Z</time>
      </trkpt>
      <trkpt lat="44.0129" lon="3.51083">
        <ele>1248.5</ele>
        <time>2026-05-28T13:35:58.999Z</time>
      </trkpt>
      <trkpt lat="44.0129" lon="3.51083">
        <ele>1248.4</ele>
        <time>2026-05-28T13:35:59.999Z</time>
      </trkpt>
      <trkpt lat="44.0129" lon="3.51083">
        <ele>1248.3</ele>
        <time>2026-05-28T13:36:00.999Z</time>
      </trkpt>
      <trkpt lat="44.0129" lon="3.51083">
        <ele>1248.3</ele>
        <time>2026-05-28T13:36:01.999Z</time>
      </trkpt>
      <trkpt lat="44.0129" lon="3.51083">
        <ele>1248.2</ele>
        <time>2026-05-28T13:36:02.999Z</time>
      </trkpt>
      <trkpt lat="44.0129" lon="3.51083">
        <ele>1248.4</ele>
        <time>2026-05-28T13:36:03.999Z</time>
      </trkpt>
      <trkpt lat="44.0129" lon="3.51083">
        <ele>1248.7</ele>
        <time>2026-05-28T13:36:04.999Z</time>
      </trkpt>
      <trkpt lat="44.0129" lon="3.51084">
        <ele>1248.8</ele>
        <time>2026-05-28T13:36:05.999Z</time>
      </trkpt>
      <trkpt lat="44.0129" lon="3.51084">
        <ele>1248.5</ele>
        <time>2026-05-28T13:36:06.999Z</time>
      </trkpt>
      <trkpt lat="44.0129" lon="3.51084">
        <ele>1248.3</ele>
        <time>2026-05-28T13:36:07.999Z</time>
      </trkpt>
      <trkpt lat="44.0129" lon="3.51084">
        <ele>1248.2</ele>
        <time>2026-05-28T13:36:08.999Z</time>
      </trkpt>
      <trkpt lat="44.0129" lon="3.51084">
        <ele>1248.2</ele>
        <time>2026-05-28T13:36:09.999Z</time>
      </trkpt>
      <trkpt lat="44.0129" lon="3.51084">
        <ele>1248.1</ele>
        <time>2026-05-28T13:36:10.999Z</time>
      </trkpt>
      <trkpt lat="44.0129" lon="3.51084">
        <ele>1248.2</ele>
        <time>2026-05-28T13:36:11.999Z</time>
      </trkpt>
      <trkpt lat="44.0129" lon="3.51084">
        <ele>1248.5</ele>
        <time>2026-05-28T13:36:12.999Z</time>
      </trkpt>
      <trkpt lat="44.0129" lon="3.51084">
        <ele>1248.9</ele>
        <time>2026-05-28T13:36:13.999Z</time>
      </trkpt>
      <trkpt lat="44.0129" lon="3.51083">
        <ele>1249.3</ele>
        <time>2026-05-28T13:36:14.999Z</time>
      </trkpt>
      <trkpt lat="44.0129" lon="3.51083">
        <ele>1249.6</ele>
        <time>2026-05-28T13:36:15.999Z</time>
      </trkpt>
      <trkpt lat="44.0129" lon="3.51083">
        <ele>1249.3</ele>
        <time>2026-05-28T13:36:16.999Z</time>
      </trkpt>
      <trkpt lat="44.0129" lon="3.51083">
        <ele>1249.3</ele>
        <time>2026-05-28T13:36:17.999Z</time>
      </trkpt>
      <trkpt lat="44.0129" lon="3.51083">
        <ele>1249</ele>
        <time>2026-05-28T13:36:18.999Z</time>
      </trkpt>
      <trkpt lat="44.0129" lon="3.51083">
        <ele>1248.8</ele>
        <time>2026-05-28T13:36:19.999Z</time>
      </trkpt>
      <trkpt lat="44.0129" lon="3.51083">
        <ele>1248.8</ele>
        <time>2026-05-28T13:36:20.999Z</time>
      </trkpt>
      <trkpt lat="44.0129" lon="3.51083">
        <ele>1248.7</ele>
        <time>2026-05-28T13:36:21.999Z</time>
      </trkpt>
      <trkpt lat="44.0129" lon="3.51083">
        <ele>1248.7</ele>
        <time>2026-05-28T13:36:22.999Z</time>
      </trkpt>
      <trkpt lat="44.0129" lon="3.51083">
        <ele>1248.7</ele>
        <time>2026-05-28T13:36:23.999Z</time>
      </trkpt>
      <trkpt lat="44.0129" lon="3.51083">
        <ele>1248.6</ele>
        <time>2026-05-28T13:36:24.999Z</time>
      </trkpt>
      <trkpt lat="44.0129" lon="3.51083">
        <ele>1248.8</ele>
        <time>2026-05-28T13:36:25.999Z</time>
      </trkpt>
      <trkpt lat="44.0129" lon="3.51083">
        <ele>1248.8</ele>
        <time>2026-05-28T13:36:26.999Z</time>
      </trkpt>
      <trkpt lat="44.0129" lon="3.51083">
        <ele>1249</ele>
        <time>2026-05-28T13:36:27.999Z</time>
      </trkpt>
      <trkpt lat="44.0129" lon="3.51083">
        <ele>1249.2</ele>
        <time>2026-05-28T13:36:28.999Z</time>
      </trkpt>
      <trkpt lat="44.0129" lon="3.51083">
        <ele>1249.3</ele>
        <time>2026-05-28T13:36:29.999Z</time>
      </trkpt>
      <trkpt lat="44.0129" lon="3.51083">
        <ele>1249.4</ele>
        <time>2026-05-28T13:36:30.999Z</time>
      </trkpt>
      <trkpt lat="44.0129" lon="3.51083">
        <ele>1249.2</ele>
        <time>2026-05-28T13:36:31.999Z</time>
      </trkpt>
      <trkpt lat="44.0129" lon="3.51083">
        <ele>1249.2</ele>
        <time>2026-05-28T13:36:32.999Z</time>
      </trkpt>
      <trkpt lat="44.0129" lon="3.51083">
        <ele>1249.3</ele>
        <time>2026-05-28T13:36:33.999Z</time>
      </trkpt>
      <trkpt lat="44.0129" lon="3.51083">
        <ele>1249.3</ele>
        <time>2026-05-28T13:36:34.999Z</time>
      </trkpt>
      <trkpt lat="44.0129" lon="3.51083">
        <ele>1249.3</ele>
        <time>2026-05-28T13:36:35.999Z</time>
      </trkpt>
      <trkpt lat="44.0129" lon="3.51082">
        <ele>1249.5</ele>
        <time>2026-05-28T13:36:36.999Z</time>
      </trkpt>
      <trkpt lat="44.01289" lon="3.51082">
        <ele>1249.7</ele>
        <time>2026-05-28T13:36:37.999Z</time>
      </trkpt>
      <trkpt lat="44.01289" lon="3.51082">
        <ele>1249.8</ele>
        <time>2026-05-28T13:36:38.999Z</time>
      </trkpt>
      <trkpt lat="44.01289" lon="3.51082">
        <ele>1249.9</ele>
        <time>2026-05-28T13:36:39.999Z</time>
      </trkpt>
      <trkpt lat="44.01289" lon="3.51082">
        <ele>1249.9</ele>
        <time>2026-05-28T13:36:40.999Z</time>
      </trkpt>
      <trkpt lat="44.01289" lon="3.51082">
        <ele>1250.1</ele>
        <time>2026-05-28T13:36:41.999Z</time>
      </trkpt>
      <trkpt lat="44.01289" lon="3.51082">
        <ele>1250.3</ele>
        <time>2026-05-28T13:36:42.999Z</time>
      </trkpt>
      <trkpt lat="44.01289" lon="3.51082">
        <ele>1250.2</ele>
        <time>2026-05-28T13:36:43.999Z</time>
      </trkpt>
      <trkpt lat="44.01289" lon="3.51082">
        <ele>1250</ele>
        <time>2026-05-28T13:36:44.999Z</time>
      </trkpt>
      <trkpt lat="44.01289" lon="3.51082">
        <ele>1249.8</ele>
        <time>2026-05-28T13:36:45.999Z</time>
      </trkpt>
      <trkpt lat="44.01289" lon="3.51082">
        <ele>1249.7</ele>
        <time>2026-05-28T13:36:46.999Z</time>
      </trkpt>
      <trkpt lat="44.01289" lon="3.51082">
        <ele>1249.5</ele>
        <time>2026-05-28T13:36:47.999Z</time>
      </trkpt>
      <trkpt lat="44.01289" lon="3.51082">
        <ele>1249.4</ele>
        <time>2026-05-28T13:36:48.999Z</time>
      </trkpt>
      <trkpt lat="44.01289" lon="3.51081">
        <ele>1249.7</ele>
        <time>2026-05-28T13:36:49.999Z</time>
      </trkpt>
      <trkpt lat="44.01289" lon="3.51081">
        <ele>1249.8</ele>
        <time>2026-05-28T13:36:50.999Z</time>
      </trkpt>
      <trkpt lat="44.01289" lon="3.51081">
        <ele>1250</ele>
        <time>2026-05-28T13:36:51.999Z</time>
      </trkpt>
      <trkpt lat="44.01289" lon="3.51081">
        <ele>1250.4</ele>
        <time>2026-05-28T13:36:52.999Z</time>
      </trkpt>
      <trkpt lat="44.01289" lon="3.51081">
        <ele>1250.7</ele>
        <time>2026-05-28T13:36:53.999Z</time>
      </trkpt>
      <trkpt lat="44.01289" lon="3.51081">
        <ele>1250.8</ele>
        <time>2026-05-28T13:36:54.999Z</time>
      </trkpt>
      <trkpt lat="44.01289" lon="3.51081">
        <ele>1251</ele>
        <time>2026-05-28T13:36:55.999Z</time>
      </trkpt>
      <trkpt lat="44.01289" lon="3.51081">
        <ele>1250.9</ele>
        <time>2026-05-28T13:36:56.999Z</time>
      </trkpt>
      <trkpt lat="44.01289" lon="3.51081">
        <ele>1250.4</ele>
        <time>2026-05-28T13:36:57.999Z</time>
      </trkpt>
      <trkpt lat="44.01289" lon="3.5108">
        <ele>1250.3</ele>
        <time>2026-05-28T13:36:58.999Z</time>
      </trkpt>
      <trkpt lat="44.01289" lon="3.5108">
        <ele>1250.2</ele>
        <time>2026-05-28T13:36:59.999Z</time>
      </trkpt>
      <trkpt lat="44.01288" lon="3.5108">
        <ele>1250.2</ele>
        <time>2026-05-28T13:37:00.999Z</time>
      </trkpt>
      <trkpt lat="44.01288" lon="3.5108">
        <ele>1250.3</ele>
        <time>2026-05-28T13:37:01.999Z</time>
      </trkpt>
      <trkpt lat="44.01288" lon="3.5108">
        <ele>1250.5</ele>
        <time>2026-05-28T13:37:02.999Z</time>
      </trkpt>
      <trkpt lat="44.01288" lon="3.5108">
        <ele>1250.7</ele>
        <time>2026-05-28T13:37:03.999Z</time>
      </trkpt>
      <trkpt lat="44.01288" lon="3.5108">
        <ele>1250.6</ele>
        <time>2026-05-28T13:37:04.999Z</time>
      </trkpt>
      <trkpt lat="44.01288" lon="3.5108">
        <ele>1250.6</ele>
        <time>2026-05-28T13:37:05.999Z</time>
      </trkpt>
      <trkpt lat="44.01288" lon="3.5108">
        <ele>1250.5</ele>
        <time>2026-05-28T13:37:06.999Z</time>
      </trkpt>
      <trkpt lat="44.01288" lon="3.5108">
        <ele>1250.4</ele>
        <time>2026-05-28T13:37:07.999Z</time>
      </trkpt>
      <trkpt lat="44.01288" lon="3.5108">
        <ele>1250.4</ele>
        <time>2026-05-28T13:37:08.999Z</time>
      </trkpt>
      <trkpt lat="44.01288" lon="3.5108">
        <ele>1250.2</ele>
        <time>2026-05-28T13:37:09.999Z</time>
      </trkpt>
      <trkpt lat="44.01288" lon="3.5108">
        <ele>1250.1</ele>
        <time>2026-05-28T13:37:10.999Z</time>
      </trkpt>
      <trkpt lat="44.01288" lon="3.5108">
        <ele>1250.1</ele>
        <time>2026-05-28T13:37:11.999Z</time>
      </trkpt>
      <trkpt lat="44.01288" lon="3.5108">
        <ele>1250.2</ele>
        <time>2026-05-28T13:37:12.999Z</time>
      </trkpt>
      <trkpt lat="44.01288" lon="3.5108">
        <ele>1250</ele>
        <time>2026-05-28T13:37:13.999Z</time>
      </trkpt>
      <trkpt lat="44.01288" lon="3.5108">
        <ele>1249.9</ele>
        <time>2026-05-28T13:37:14.999Z</time>
      </trkpt>
      <trkpt lat="44.01288" lon="3.5108">
        <ele>1249.9</ele>
        <time>2026-05-28T13:37:15.999Z</time>
      </trkpt>
      <trkpt lat="44.01288" lon="3.5108">
        <ele>1249.8</ele>
        <time>2026-05-28T13:37:16.999Z</time>
      </trkpt>
      <trkpt lat="44.01288" lon="3.5108">
        <ele>1249.8</ele>
        <time>2026-05-28T13:37:17.999Z</time>
      </trkpt>
      <trkpt lat="44.01288" lon="3.5108">
        <ele>1249.4</ele>
        <time>2026-05-28T13:37:18.999Z</time>
      </trkpt>
      <trkpt lat="44.01288" lon="3.5108">
        <ele>1249.6</ele>
        <time>2026-05-28T13:37:19.999Z</time>
      </trkpt>
      <trkpt lat="44.01288" lon="3.5108">
        <ele>1249.7</ele>
        <time>2026-05-28T13:37:20.999Z</time>
      </trkpt>
      <trkpt lat="44.01288" lon="3.5108">
        <ele>1249.8</ele>
        <time>2026-05-28T13:37:21.999Z</time>
      </trkpt>
      <trkpt lat="44.01288" lon="3.5108">
        <ele>1249.9</ele>
        <time>2026-05-28T13:37:22.999Z</time>
      </trkpt>
      <trkpt lat="44.01288" lon="3.5108">
        <ele>1249.9</ele>
        <time>2026-05-28T13:37:23.999Z</time>
      </trkpt>
      <trkpt lat="44.01288" lon="3.5108">
        <ele>1249.8</ele>
        <time>2026-05-28T13:37:24.999Z</time>
      </trkpt>
      <trkpt lat="44.01288" lon="3.5108">
        <ele>1249.8</ele>
        <time>2026-05-28T13:37:26.999Z</time>
      </trkpt>
      <trkpt lat="44.01288" lon="3.5108">
        <ele>1249.8</ele>
        <time>2026-05-28T13:37:27.999Z</time>
      </trkpt>
      <trkpt lat="44.01288" lon="3.5108">
        <ele>1249.8</ele>
        <time>2026-05-28T13:37:28.999Z</time>
      </trkpt>
      <trkpt lat="44.01289" lon="3.5108">
        <ele>1249.5</ele>
        <time>2026-05-28T13:37:29.999Z</time>
      </trkpt>
      <trkpt lat="44.01289" lon="3.5108">
        <ele>1249.9</ele>
        <time>2026-05-28T13:37:30.999Z</time>
      </trkpt>
      <trkpt lat="44.01289" lon="3.51081">
        <ele>1250</ele>
        <time>2026-05-28T13:37:31.999Z</time>
      </trkpt>
      <trkpt lat="44.01289" lon="3.51081">
        <ele>1250.1</ele>
        <time>2026-05-28T13:37:32.999Z</time>
      </trkpt>
      <trkpt lat="44.01289" lon="3.51081">
        <ele>1250</ele>
        <time>2026-05-28T13:37:33.999Z</time>
      </trkpt>
      <trkpt lat="44.01289" lon="3.51081">
        <ele>1250.1</ele>
        <time>2026-05-28T13:37:34.999Z</time>
      </trkpt>
      <trkpt lat="44.01289" lon="3.5108">
        <ele>1249.9</ele>
        <time>2026-05-28T13:37:35.999Z</time>
      </trkpt>
      <trkpt lat="44.01289" lon="3.5108">
        <ele>1249.7</ele>
        <time>2026-05-28T13:37:36.999Z</time>
      </trkpt>
      <trkpt lat="44.01289" lon="3.5108">
        <ele>1249.3</ele>
        <time>2026-05-28T13:37:37.999Z</time>
      </trkpt>
      <trkpt lat="44.01289" lon="3.5108">
        <ele>1248.9</ele>
        <time>2026-05-28T13:37:38.999Z</time>
      </trkpt>
      <trkpt lat="44.01289" lon="3.5108">
        <ele>1248.7</ele>
        <time>2026-05-28T13:37:39.999Z</time>
      </trkpt>
      <trkpt lat="44.01289" lon="3.5108">
        <ele>1248.4</ele>
        <time>2026-05-28T13:37:40.999Z</time>
      </trkpt>
      <trkpt lat="44.01289" lon="3.5108">
        <ele>1248.2</ele>
        <time>2026-05-28T13:37:41.999Z</time>
      </trkpt>
      <trkpt lat="44.01289" lon="3.5108">
        <ele>1248.1</ele>
        <time>2026-05-28T13:37:42.999Z</time>
      </trkpt>
      <trkpt lat="44.01289" lon="3.5108">
        <ele>1248.3</ele>
        <time>2026-05-28T13:37:43.999Z</time>
      </trkpt>
      <trkpt lat="44.01289" lon="3.5108">
        <ele>1248.4</ele>
        <time>2026-05-28T13:37:44.999Z</time>
      </trkpt>
      <trkpt lat="44.01289" lon="3.5108">
        <ele>1248.4</ele>
        <time>2026-05-28T13:37:45.999Z</time>
      </trkpt>
      <trkpt lat="44.01289" lon="3.5108">
        <ele>1248.5</ele>
        <time>2026-05-28T13:37:46.999Z</time>
      </trkpt>
      <trkpt lat="44.01289" lon="3.5108">
        <ele>1248.2</ele>
        <time>2026-05-28T13:37:47.999Z</time>
      </trkpt>
      <trkpt lat="44.01289" lon="3.5108">
        <ele>1248</ele>
        <time>2026-05-28T13:37:48.999Z</time>
      </trkpt>
      <trkpt lat="44.01289" lon="3.5108">
        <ele>1247.9</ele>
        <time>2026-05-28T13:37:49.999Z</time>
      </trkpt>
      <trkpt lat="44.01289" lon="3.5108">
        <ele>1247.9</ele>
        <time>2026-05-28T13:37:50.999Z</time>
      </trkpt>
      <trkpt lat="44.01289" lon="3.5108">
        <ele>1247.8</ele>
        <time>2026-05-28T13:37:51.999Z</time>
      </trkpt>
      <trkpt lat="44.01289" lon="3.5108">
        <ele>1247.6</ele>
        <time>2026-05-28T13:37:52.999Z</time>
      </trkpt>
      <trkpt lat="44.01289" lon="3.5108">
        <ele>1247.4</ele>
        <time>2026-05-28T13:37:53.999Z</time>
      </trkpt>
      <trkpt lat="44.01289" lon="3.5108">
        <ele>1247.4</ele>
        <time>2026-05-28T13:37:54.999Z</time>
      </trkpt>
      <trkpt lat="44.01289" lon="3.5108">
        <ele>1247.5</ele>
        <time>2026-05-28T13:37:55.999Z</time>
      </trkpt>
      <trkpt lat="44.01289" lon="3.5108">
        <ele>1247.6</ele>
        <time>2026-05-28T13:37:56.999Z</time>
      </trkpt>
      <trkpt lat="44.01289" lon="3.5108">
        <ele>1247.6</ele>
        <time>2026-05-28T13:37:57.999Z</time>
      </trkpt>
      <trkpt lat="44.01289" lon="3.5108">
        <ele>1247.6</ele>
        <time>2026-05-28T13:37:58.999Z</time>
      </trkpt>
      <trkpt lat="44.01289" lon="3.5108">
        <ele>1247.7</ele>
        <time>2026-05-28T13:37:59.999Z</time>
      </trkpt>
      <trkpt lat="44.01289" lon="3.5108">
        <ele>1247.6</ele>
        <time>2026-05-28T13:38:00.999Z</time>
      </trkpt>
      <trkpt lat="44.01289" lon="3.5108">
        <ele>1247.5</ele>
        <time>2026-05-28T13:38:01.999Z</time>
      </trkpt>
      <trkpt lat="44.01289" lon="3.5108">
        <ele>1247.4</ele>
        <time>2026-05-28T13:38:02.999Z</time>
      </trkpt>
      <trkpt lat="44.0129" lon="3.5108">
        <ele>1247.4</ele>
        <time>2026-05-28T13:38:03.999Z</time>
      </trkpt>
      <trkpt lat="44.0129" lon="3.5108">
        <ele>1247.4</ele>
        <time>2026-05-28T13:38:04.999Z</time>
      </trkpt>
      <trkpt lat="44.0129" lon="3.5108">
        <ele>1247.4</ele>
        <time>2026-05-28T13:38:05.999Z</time>
      </trkpt>
      <trkpt lat="44.0129" lon="3.5108">
        <ele>1247.5</ele>
        <time>2026-05-28T13:38:06.999Z</time>
      </trkpt>
      <trkpt lat="44.0129" lon="3.5108">
        <ele>1247.3</ele>
        <time>2026-05-28T13:38:07.999Z</time>
      </trkpt>
      <trkpt lat="44.0129" lon="3.5108">
        <ele>1247</ele>
        <time>2026-05-28T13:38:08.999Z</time>
      </trkpt>
      <trkpt lat="44.0129" lon="3.5108">
        <ele>1247.2</ele>
        <time>2026-05-28T13:38:09.999Z</time>
      </trkpt>
      <trkpt lat="44.0129" lon="3.5108">
        <ele>1247.1</ele>
        <time>2026-05-28T13:38:10.999Z</time>
      </trkpt>
      <trkpt lat="44.0129" lon="3.5108">
        <ele>1247</ele>
        <time>2026-05-28T13:38:11.999Z</time>
      </trkpt>
      <trkpt lat="44.0129" lon="3.5108">
        <ele>1247.1</ele>
        <time>2026-05-28T13:38:12.999Z</time>
      </trkpt>
      <trkpt lat="44.0129" lon="3.5108">
        <ele>1246.7</ele>
        <time>2026-05-28T13:38:13.999Z</time>
      </trkpt>
      <trkpt lat="44.0129" lon="3.5108">
        <ele>1246.4</ele>
        <time>2026-05-28T13:38:14.999Z</time>
      </trkpt>
      <trkpt lat="44.0129" lon="3.5108">
        <ele>1246.3</ele>
        <time>2026-05-28T13:38:15.999Z</time>
      </trkpt>
      <trkpt lat="44.0129" lon="3.5108">
        <ele>1246.2</ele>
        <time>2026-05-28T13:38:16.999Z</time>
      </trkpt>
      <trkpt lat="44.0129" lon="3.5108">
        <ele>1246.2</ele>
        <time>2026-05-28T13:38:17.999Z</time>
      </trkpt>
      <trkpt lat="44.0129" lon="3.5108">
        <ele>1246.1</ele>
        <time>2026-05-28T13:38:18.999Z</time>
      </trkpt>
      <trkpt lat="44.0129" lon="3.5108">
        <ele>1246.2</ele>
        <time>2026-05-28T13:38:19.999Z</time>
      </trkpt>
      <trkpt lat="44.0129" lon="3.5108">
        <ele>1246.4</ele>
        <time>2026-05-28T13:38:20.999Z</time>
      </trkpt>
      <trkpt lat="44.0129" lon="3.5108">
        <ele>1246.5</ele>
        <time>2026-05-28T13:38:21.999Z</time>
      </trkpt>
      <trkpt lat="44.0129" lon="3.5108">
        <ele>1246.4</ele>
        <time>2026-05-28T13:38:22.999Z</time>
      </trkpt>
      <trkpt lat="44.0129" lon="3.51081">
        <ele>1246.5</ele>
        <time>2026-05-28T13:38:23.999Z</time>
      </trkpt>
      <trkpt lat="44.0129" lon="3.51081">
        <ele>1246.9</ele>
        <time>2026-05-28T13:38:24.999Z</time>
      </trkpt>
      <trkpt lat="44.0129" lon="3.51081">
        <ele>1246.8</ele>
        <time>2026-05-28T13:38:25.999Z</time>
      </trkpt>
      <trkpt lat="44.0129" lon="3.51081">
        <ele>1246.6</ele>
        <time>2026-05-28T13:38:26.999Z</time>
      </trkpt>
      <trkpt lat="44.0129" lon="3.51081">
        <ele>1246.6</ele>
        <time>2026-05-28T13:38:27.999Z</time>
      </trkpt>
      <trkpt lat="44.0129" lon="3.51081">
        <ele>1246.5</ele>
        <time>2026-05-28T13:38:28.999Z</time>
      </trkpt>
      <trkpt lat="44.0129" lon="3.51081">
        <ele>1246.5</ele>
        <time>2026-05-28T13:38:29.999Z</time>
      </trkpt>
      <trkpt lat="44.0129" lon="3.51081">
        <ele>1246.6</ele>
        <time>2026-05-28T13:38:30.999Z</time>
      </trkpt>
      <trkpt lat="44.0129" lon="3.51081">
        <ele>1246.8</ele>
        <time>2026-05-28T13:38:31.999Z</time>
      </trkpt>
      <trkpt lat="44.0129" lon="3.51081">
        <ele>1247</ele>
        <time>2026-05-28T13:38:32.999Z</time>
      </trkpt>
      <trkpt lat="44.0129" lon="3.5108">
        <ele>1246.9</ele>
        <time>2026-05-28T13:38:33.999Z</time>
      </trkpt>
      <trkpt lat="44.0129" lon="3.5108">
        <ele>1246.8</ele>
        <time>2026-05-28T13:38:34.999Z</time>
      </trkpt>
      <trkpt lat="44.0129" lon="3.5108">
        <ele>1246.8</ele>
        <time>2026-05-28T13:38:35.999Z</time>
      </trkpt>
      <trkpt lat="44.0129" lon="3.5108">
        <ele>1246.9</ele>
        <time>2026-05-28T13:38:36.999Z</time>
      </trkpt>
      <trkpt lat="44.01291" lon="3.5108">
        <ele>1246.8</ele>
        <time>2026-05-28T13:38:37.999Z</time>
      </trkpt>
      <trkpt lat="44.01291" lon="3.5108">
        <ele>1246.8</ele>
        <time>2026-05-28T13:38:38.999Z</time>
      </trkpt>
      <trkpt lat="44.01291" lon="3.5108">
        <ele>1246.9</ele>
        <time>2026-05-28T13:38:39.999Z</time>
      </trkpt>
      <trkpt lat="44.01291" lon="3.5108">
        <ele>1246.7</ele>
        <time>2026-05-28T13:38:40.999Z</time>
      </trkpt>
      <trkpt lat="44.01291" lon="3.5108">
        <ele>1246.7</ele>
        <time>2026-05-28T13:38:41.999Z</time>
      </trkpt>
      <trkpt lat="44.01291" lon="3.5108">
        <ele>1246.3</ele>
        <time>2026-05-28T13:38:42.999Z</time>
      </trkpt>
      <trkpt lat="44.01291" lon="3.5108">
        <ele>1246</ele>
        <time>2026-05-28T13:38:43.999Z</time>
      </trkpt>
      <trkpt lat="44.01291" lon="3.5108">
        <ele>1245.8</ele>
        <time>2026-05-28T13:38:44.999Z</time>
      </trkpt>
      <trkpt lat="44.01291" lon="3.5108">
        <ele>1245.6</ele>
        <time>2026-05-28T13:38:45.999Z</time>
      </trkpt>
      <trkpt lat="44.01291" lon="3.5108">
        <ele>1245.6</ele>
        <time>2026-05-28T13:38:46.999Z</time>
      </trkpt>
      <trkpt lat="44.01291" lon="3.5108">
        <ele>1245.7</ele>
        <time>2026-05-28T13:38:47.999Z</time>
      </trkpt>
      <trkpt lat="44.01291" lon="3.5108">
        <ele>1245.6</ele>
        <time>2026-05-28T13:38:48.999Z</time>
      </trkpt>
      <trkpt lat="44.01291" lon="3.5108">
        <ele>1245.7</ele>
        <time>2026-05-28T13:38:49.999Z</time>
      </trkpt>
      <trkpt lat="44.01291" lon="3.5108">
        <ele>1245.8</ele>
        <time>2026-05-28T13:38:50.999Z</time>
      </trkpt>
      <trkpt lat="44.01291" lon="3.5108">
        <ele>1245.8</ele>
        <time>2026-05-28T13:38:51.999Z</time>
      </trkpt>
      <trkpt lat="44.01291" lon="3.5108">
        <ele>1245.7</ele>
        <time>2026-05-28T13:38:52.999Z</time>
      </trkpt>
      <trkpt lat="44.01291" lon="3.5108">
        <ele>1245.6</ele>
        <time>2026-05-28T13:38:53.999Z</time>
      </trkpt>
      <trkpt lat="44.01291" lon="3.5108">
        <ele>1245.6</ele>
        <time>2026-05-28T13:38:54.999Z</time>
      </trkpt>
      <trkpt lat="44.01291" lon="3.5108">
        <ele>1245.5</ele>
        <time>2026-05-28T13:38:55.999Z</time>
      </trkpt>
      <trkpt lat="44.01291" lon="3.5108">
        <ele>1245.5</ele>
        <time>2026-05-28T13:38:56.999Z</time>
      </trkpt>
      <trkpt lat="44.01291" lon="3.5108">
        <ele>1245.5</ele>
        <time>2026-05-28T13:38:57.999Z</time>
      </trkpt>
      <trkpt lat="44.01291" lon="3.5108">
        <ele>1245.6</ele>
        <time>2026-05-28T13:38:58.999Z</time>
      </trkpt>
      <trkpt lat="44.01291" lon="3.5108">
        <ele>1245.6</ele>
        <time>2026-05-28T13:38:59.999Z</time>
      </trkpt>
      <trkpt lat="44.01291" lon="3.5108">
        <ele>1245.4</ele>
        <time>2026-05-28T13:39:00.999Z</time>
      </trkpt>
      <trkpt lat="44.01291" lon="3.5108">
        <ele>1245.2</ele>
        <time>2026-05-28T13:39:01.999Z</time>
      </trkpt>
      <trkpt lat="44.01291" lon="3.5108">
        <ele>1245.1</ele>
        <time>2026-05-28T13:39:02.999Z</time>
      </trkpt>
      <trkpt lat="44.01291" lon="3.5108">
        <ele>1245.2</ele>
        <time>2026-05-28T13:39:03.999Z</time>
      </trkpt>
      <trkpt lat="44.01291" lon="3.5108">
        <ele>1245.2</ele>
        <time>2026-05-28T13:39:04.999Z</time>
      </trkpt>
      <trkpt lat="44.01291" lon="3.5108">
        <ele>1245.2</ele>
        <time>2026-05-28T13:39:05.999Z</time>
      </trkpt>
      <trkpt lat="44.01291" lon="3.5108">
        <ele>1245.3</ele>
        <time>2026-05-28T13:39:06.999Z</time>
      </trkpt>
      <trkpt lat="44.01291" lon="3.5108">
        <ele>1245.4</ele>
        <time>2026-05-28T13:39:07.999Z</time>
      </trkpt>
      <trkpt lat="44.01291" lon="3.5108">
        <ele>1245.3</ele>
        <time>2026-05-28T13:39:08.999Z</time>
      </trkpt>
      <trkpt lat="44.01291" lon="3.5108">
        <ele>1245.3</ele>
        <time>2026-05-28T13:39:09.999Z</time>
      </trkpt>
      <trkpt lat="44.01291" lon="3.5108">
        <ele>1245.4</ele>
        <time>2026-05-28T13:39:10.999Z</time>
      </trkpt>
      <trkpt lat="44.01291" lon="3.5108">
        <ele>1245.3</ele>
        <time>2026-05-28T13:39:11.999Z</time>
      </trkpt>
      <trkpt lat="44.01291" lon="3.5108">
        <ele>1245.2</ele>
        <time>2026-05-28T13:39:12.999Z</time>
      </trkpt>
      <trkpt lat="44.01291" lon="3.5108">
        <ele>1245.2</ele>
        <time>2026-05-28T13:39:13.999Z</time>
      </trkpt>
      <trkpt lat="44.01291" lon="3.5108">
        <ele>1245.5</ele>
        <time>2026-05-28T13:39:14.999Z</time>
      </trkpt>
      <trkpt lat="44.01291" lon="3.5108">
        <ele>1245.6</ele>
        <time>2026-05-28T13:39:15.999Z</time>
      </trkpt>
      <trkpt lat="44.01291" lon="3.51081">
        <ele>1245.7</ele>
        <time>2026-05-28T13:39:16.999Z</time>
      </trkpt>
      <trkpt lat="44.01291" lon="3.51081">
        <ele>1245.7</ele>
        <time>2026-05-28T13:39:17.999Z</time>
      </trkpt>
      <trkpt lat="44.01291" lon="3.5108">
        <ele>1245.5</ele>
        <time>2026-05-28T13:39:18.999Z</time>
      </trkpt>
      <trkpt lat="44.01291" lon="3.5108">
        <ele>1245.3</ele>
        <time>2026-05-28T13:39:19.999Z</time>
      </trkpt>
      <trkpt lat="44.01291" lon="3.5108">
        <ele>1245.3</ele>
        <time>2026-05-28T13:39:20.999Z</time>
      </trkpt>
      <trkpt lat="44.01291" lon="3.5108">
        <ele>1245.2</ele>
        <time>2026-05-28T13:39:21.999Z</time>
      </trkpt>
      <trkpt lat="44.01291" lon="3.5108">
        <ele>1245.1</ele>
        <time>2026-05-28T13:39:22.999Z</time>
      </trkpt>
      <trkpt lat="44.01291" lon="3.5108">
        <ele>1245</ele>
        <time>2026-05-28T13:39:23.999Z</time>
      </trkpt>
      <trkpt lat="44.01291" lon="3.5108">
        <ele>1244.8</ele>
        <time>2026-05-28T13:39:24.999Z</time>
      </trkpt>
      <trkpt lat="44.01291" lon="3.5108">
        <ele>1244.6</ele>
        <time>2026-05-28T13:39:25.999Z</time>
      </trkpt>
      <trkpt lat="44.01291" lon="3.5108">
        <ele>1244.4</ele>
        <time>2026-05-28T13:39:26.999Z</time>
      </trkpt>
      <trkpt lat="44.01291" lon="3.5108">
        <ele>1244.4</ele>
        <time>2026-05-28T13:39:27.999Z</time>
      </trkpt>
      <trkpt lat="44.01291" lon="3.5108">
        <ele>1244.3</ele>
        <time>2026-05-28T13:39:28.999Z</time>
      </trkpt>
      <trkpt lat="44.01291" lon="3.5108">
        <ele>1244.3</ele>
        <time>2026-05-28T13:39:29.999Z</time>
      </trkpt>
      <trkpt lat="44.01291" lon="3.5108">
        <ele>1244.4</ele>
        <time>2026-05-28T13:39:30.999Z</time>
      </trkpt>
      <trkpt lat="44.01291" lon="3.5108">
        <ele>1244.8</ele>
        <time>2026-05-28T13:39:31.999Z</time>
      </trkpt>
      <trkpt lat="44.01291" lon="3.5108">
        <ele>1244.9</ele>
        <time>2026-05-28T13:39:32.999Z</time>
      </trkpt>
      <trkpt lat="44.01291" lon="3.5108">
        <ele>1245.2</ele>
        <time>2026-05-28T13:39:33.999Z</time>
      </trkpt>
      <trkpt lat="44.01291" lon="3.5108">
        <ele>1245.5</ele>
        <time>2026-05-28T13:39:34.999Z</time>
      </trkpt>
      <trkpt lat="44.01291" lon="3.5108">
        <ele>1245.6</ele>
        <time>2026-05-28T13:39:35.999Z</time>
      </trkpt>
      <trkpt lat="44.01291" lon="3.5108">
        <ele>1245.6</ele>
        <time>2026-05-28T13:39:36.999Z</time>
      </trkpt>
      <trkpt lat="44.01291" lon="3.5108">
        <ele>1245.8</ele>
        <time>2026-05-28T13:39:37.999Z</time>
      </trkpt>
      <trkpt lat="44.01291" lon="3.5108">
        <ele>1246.1</ele>
        <time>2026-05-28T13:39:38.999Z</time>
      </trkpt>
      <trkpt lat="44.01291" lon="3.5108">
        <ele>1246.3</ele>
        <time>2026-05-28T13:39:39.999Z</time>
      </trkpt>
      <trkpt lat="44.01291" lon="3.5108">
        <ele>1246.3</ele>
        <time>2026-05-28T13:39:40.999Z</time>
      </trkpt>
      <trkpt lat="44.01291" lon="3.5108">
        <ele>1246.1</ele>
        <time>2026-05-28T13:39:41.999Z</time>
      </trkpt>
      <trkpt lat="44.01292" lon="3.5108">
        <ele>1245.9</ele>
        <time>2026-05-28T13:39:42.999Z</time>
      </trkpt>
      <trkpt lat="44.01292" lon="3.5108">
        <ele>1246.1</ele>
        <time>2026-05-28T13:39:43.999Z</time>
      </trkpt>
      <trkpt lat="44.01292" lon="3.5108">
        <ele>1246.2</ele>
        <time>2026-05-28T13:39:44.999Z</time>
      </trkpt>
      <trkpt lat="44.01292" lon="3.5108">
        <ele>1246.5</ele>
        <time>2026-05-28T13:39:45.999Z</time>
      </trkpt>
      <trkpt lat="44.01292" lon="3.51081">
        <ele>1246.7</ele>
        <time>2026-05-28T13:39:46.999Z</time>
      </trkpt>
      <trkpt lat="44.01292" lon="3.51081">
        <ele>1247</ele>
        <time>2026-05-28T13:39:47.999Z</time>
      </trkpt>
      <trkpt lat="44.01292" lon="3.51081">
        <ele>1247.2</ele>
        <time>2026-05-28T13:39:48.999Z</time>
      </trkpt>
      <trkpt lat="44.01292" lon="3.51081">
        <ele>1247.3</ele>
        <time>2026-05-28T13:39:49.999Z</time>
      </trkpt>
      <trkpt lat="44.01292" lon="3.51081">
        <ele>1247.5</ele>
        <time>2026-05-28T13:39:50.999Z</time>
      </trkpt>
      <trkpt lat="44.01292" lon="3.51081">
        <ele>1247.6</ele>
        <time>2026-05-28T13:39:51.999Z</time>
      </trkpt>
      <trkpt lat="44.01292" lon="3.51081">
        <ele>1247.7</ele>
        <time>2026-05-28T13:39:52.999Z</time>
      </trkpt>
      <trkpt lat="44.01292" lon="3.51081">
        <ele>1247.8</ele>
        <time>2026-05-28T13:39:53.999Z</time>
      </trkpt>
      <trkpt lat="44.01291" lon="3.51081">
        <ele>1247.8</ele>
        <time>2026-05-28T13:39:54.999Z</time>
      </trkpt>
      <trkpt lat="44.01291" lon="3.51081">
        <ele>1247.8</ele>
        <time>2026-05-28T13:39:55.999Z</time>
      </trkpt>
      <trkpt lat="44.01291" lon="3.51081">
        <ele>1247.7</ele>
        <time>2026-05-28T13:39:56.999Z</time>
      </trkpt>
      <trkpt lat="44.01291" lon="3.51081">
        <ele>1247.6</ele>
        <time>2026-05-28T13:39:57.999Z</time>
      </trkpt>
      <trkpt lat="44.01291" lon="3.51081">
        <ele>1247.6</ele>
        <time>2026-05-28T13:39:58.999Z</time>
      </trkpt>
      <trkpt lat="44.01291" lon="3.51081">
        <ele>1247.7</ele>
        <time>2026-05-28T13:39:59.999Z</time>
      </trkpt>
      <trkpt lat="44.01291" lon="3.51081">
        <ele>1247.7</ele>
        <time>2026-05-28T13:40:00.999Z</time>
      </trkpt>
      <trkpt lat="44.01291" lon="3.51081">
        <ele>1247.8</ele>
        <time>2026-05-28T13:40:01.999Z</time>
      </trkpt>
      <trkpt lat="44.01291" lon="3.51081">
        <ele>1248</ele>
        <time>2026-05-28T13:40:02.999Z</time>
      </trkpt>
      <trkpt lat="44.01291" lon="3.51081">
        <ele>1248.2</ele>
        <time>2026-05-28T13:40:03.999Z</time>
      </trkpt>
      <trkpt lat="44.01291" lon="3.51081">
        <ele>1248.2</ele>
        <time>2026-05-28T13:40:04.999Z</time>
      </trkpt>
      <trkpt lat="44.01291" lon="3.51081">
        <ele>1248.3</ele>
        <time>2026-05-28T13:40:05.999Z</time>
      </trkpt>
      <trkpt lat="44.01291" lon="3.51081">
        <ele>1248.4</ele>
        <time>2026-05-28T13:40:06.999Z</time>
      </trkpt>
      <trkpt lat="44.01291" lon="3.51081">
        <ele>1248.4</ele>
        <time>2026-05-28T13:40:07.999Z</time>
      </trkpt>
      <trkpt lat="44.01291" lon="3.51081">
        <ele>1248.5</ele>
        <time>2026-05-28T13:40:08.999Z</time>
      </trkpt>
      <trkpt lat="44.01291" lon="3.51081">
        <ele>1248.7</ele>
        <time>2026-05-28T13:40:09.999Z</time>
      </trkpt>
      <trkpt lat="44.01291" lon="3.51081">
        <ele>1248.7</ele>
        <time>2026-05-28T13:40:10.999Z</time>
      </trkpt>
      <trkpt lat="44.01291" lon="3.51081">
        <ele>1248.7</ele>
        <time>2026-05-28T13:40:11.999Z</time>
      </trkpt>
      <trkpt lat="44.01291" lon="3.51081">
        <ele>1248.8</ele>
        <time>2026-05-28T13:40:12.999Z</time>
      </trkpt>
      <trkpt lat="44.01291" lon="3.51082">
        <ele>1248.7</ele>
        <time>2026-05-28T13:40:13.999Z</time>
      </trkpt>
      <trkpt lat="44.01291" lon="3.51082">
        <ele>1248.8</ele>
        <time>2026-05-28T13:40:14.999Z</time>
      </trkpt>
      <trkpt lat="44.01291" lon="3.51082">
        <ele>1248.7</ele>
        <time>2026-05-28T13:40:15.999Z</time>
      </trkpt>
      <trkpt lat="44.01291" lon="3.51082">
        <ele>1248.8</ele>
        <time>2026-05-28T13:40:16.999Z</time>
      </trkpt>
      <trkpt lat="44.01291" lon="3.51082">
        <ele>1248.9</ele>
        <time>2026-05-28T13:40:17.999Z</time>
      </trkpt>
      <trkpt lat="44.01291" lon="3.51082">
        <ele>1248.9</ele>
        <time>2026-05-28T13:40:19.999Z</time>
      </trkpt>
      <trkpt lat="44.01291" lon="3.51082">
        <ele>1248.9</ele>
        <time>2026-05-28T13:40:20.999Z</time>
      </trkpt>
      <trkpt lat="44.01291" lon="3.51082">
        <ele>1248.7</ele>
        <time>2026-05-28T13:40:21.999Z</time>
      </trkpt>
      <trkpt lat="44.01291" lon="3.51082">
        <ele>1248.7</ele>
        <time>2026-05-28T13:40:22.999Z</time>
      </trkpt>
      <trkpt lat="44.01291" lon="3.51082">
        <ele>1248.7</ele>
        <time>2026-05-28T13:40:23.999Z</time>
      </trkpt>
      <trkpt lat="44.01291" lon="3.51082">
        <ele>1248.7</ele>
        <time>2026-05-28T13:40:24.999Z</time>
      </trkpt>
      <trkpt lat="44.01291" lon="3.51082">
        <ele>1248.5</ele>
        <time>2026-05-28T13:40:25.999Z</time>
      </trkpt>
      <trkpt lat="44.01291" lon="3.51081">
        <ele>1248.3</ele>
        <time>2026-05-28T13:40:26.999Z</time>
      </trkpt>
      <trkpt lat="44.01291" lon="3.51081">
        <ele>1248.2</ele>
        <time>2026-05-28T13:40:27.999Z</time>
      </trkpt>
      <trkpt lat="44.01291" lon="3.51081">
        <ele>1248.1</ele>
        <time>2026-05-28T13:40:28.999Z</time>
      </trkpt>
      <trkpt lat="44.01291" lon="3.51081">
        <ele>1248.1</ele>
        <time>2026-05-28T13:40:29.999Z</time>
      </trkpt>
      <trkpt lat="44.01291" lon="3.51081">
        <ele>1247.9</ele>
        <time>2026-05-28T13:40:30.999Z</time>
      </trkpt>
      <trkpt lat="44.01291" lon="3.51081">
        <ele>1247.8</ele>
        <time>2026-05-28T13:40:31.999Z</time>
      </trkpt>
      <trkpt lat="44.01291" lon="3.51081">
        <ele>1247.8</ele>
        <time>2026-05-28T13:40:32.999Z</time>
      </trkpt>
      <trkpt lat="44.01291" lon="3.51081">
        <ele>1247.7</ele>
        <time>2026-05-28T13:40:33.999Z</time>
      </trkpt>
      <trkpt lat="44.01291" lon="3.51081">
        <ele>1247.6</ele>
        <time>2026-05-28T13:40:34.999Z</time>
      </trkpt>
      <trkpt lat="44.01291" lon="3.5108">
        <ele>1247.5</ele>
        <time>2026-05-28T13:40:35.999Z</time>
      </trkpt>
      <trkpt lat="44.01291" lon="3.5108">
        <ele>1247.3</ele>
        <time>2026-05-28T13:40:37.000Z</time>
      </trkpt>
      <trkpt lat="44.01291" lon="3.5108">
        <ele>1247.2</ele>
        <time>2026-05-28T13:40:38.000Z</time>
      </trkpt>
      <trkpt lat="44.01291" lon="3.5108">
        <ele>1247.1</ele>
        <time>2026-05-28T13:40:39.000Z</time>
      </trkpt>
      <trkpt lat="44.01291" lon="3.5108">
        <ele>1247.1</ele>
        <time>2026-05-28T13:40:40.000Z</time>
      </trkpt>
      <trkpt lat="44.01291" lon="3.5108">
        <ele>1246.8</ele>
        <time>2026-05-28T13:40:41.000Z</time>
      </trkpt>
      <trkpt lat="44.01291" lon="3.5108">
        <ele>1246.6</ele>
        <time>2026-05-28T13:40:42.000Z</time>
      </trkpt>
      <trkpt lat="44.01291" lon="3.5108">
        <ele>1246.4</ele>
        <time>2026-05-28T13:40:43.000Z</time>
      </trkpt>
      <trkpt lat="44.01291" lon="3.5108">
        <ele>1246.2</ele>
        <time>2026-05-28T13:40:44.000Z</time>
      </trkpt>
      <trkpt lat="44.01291" lon="3.5108">
        <ele>1245.9</ele>
        <time>2026-05-28T13:40:45.000Z</time>
      </trkpt>
      <trkpt lat="44.01291" lon="3.51079">
        <ele>1245.8</ele>
        <time>2026-05-28T13:40:46.000Z</time>
      </trkpt>
      <trkpt lat="44.01291" lon="3.51079">
        <ele>1245.8</ele>
        <time>2026-05-28T13:40:47.000Z</time>
      </trkpt>
      <trkpt lat="44.01291" lon="3.51079">
        <ele>1245.7</ele>
        <time>2026-05-28T13:40:48.000Z</time>
      </trkpt>
      <trkpt lat="44.01291" lon="3.51079">
        <ele>1245.6</ele>
        <time>2026-05-28T13:40:49.000Z</time>
      </trkpt>
      <trkpt lat="44.01291" lon="3.51079">
        <ele>1245.4</ele>
        <time>2026-05-28T13:40:50.000Z</time>
      </trkpt>
      <trkpt lat="44.01291" lon="3.51079">
        <ele>1245.3</ele>
        <time>2026-05-28T13:40:51.000Z</time>
      </trkpt>
      <trkpt lat="44.01291" lon="3.51079">
        <ele>1245.3</ele>
        <time>2026-05-28T13:40:52.000Z</time>
      </trkpt>
      <trkpt lat="44.01291" lon="3.51079">
        <ele>1245.6</ele>
        <time>2026-05-28T13:40:53.000Z</time>
      </trkpt>
      <trkpt lat="44.01291" lon="3.51079">
        <ele>1245.6</ele>
        <time>2026-05-28T13:40:54.000Z</time>
      </trkpt>
      <trkpt lat="44.01291" lon="3.51079">
        <ele>1245.7</ele>
        <time>2026-05-28T13:40:55.000Z</time>
      </trkpt>
      <trkpt lat="44.01291" lon="3.51079">
        <ele>1245.9</ele>
        <time>2026-05-28T13:40:56.000Z</time>
      </trkpt>
      <trkpt lat="44.01291" lon="3.51079">
        <ele>1245.9</ele>
        <time>2026-05-28T13:40:57.000Z</time>
      </trkpt>
      <trkpt lat="44.01291" lon="3.51079">
        <ele>1245.9</ele>
        <time>2026-05-28T13:40:58.000Z</time>
      </trkpt>
      <trkpt lat="44.01291" lon="3.51079">
        <ele>1246.3</ele>
        <time>2026-05-28T13:40:59.000Z</time>
      </trkpt>
      <trkpt lat="44.01291" lon="3.51079">
        <ele>1246.5</ele>
        <time>2026-05-28T13:41:00.000Z</time>
      </trkpt>
      <trkpt lat="44.01291" lon="3.51079">
        <ele>1246.5</ele>
        <time>2026-05-28T13:41:01.000Z</time>
      </trkpt>
      <trkpt lat="44.01291" lon="3.51079">
        <ele>1246.5</ele>
        <time>2026-05-28T13:41:02.000Z</time>
      </trkpt>
      <trkpt lat="44.01291" lon="3.51079">
        <ele>1246.5</ele>
        <time>2026-05-28T13:41:03.000Z</time>
      </trkpt>
      <trkpt lat="44.0129" lon="3.51079">
        <ele>1246.7</ele>
        <time>2026-05-28T13:41:04.000Z</time>
      </trkpt>
      <trkpt lat="44.0129" lon="3.51079">
        <ele>1246.7</ele>
        <time>2026-05-28T13:41:05.000Z</time>
      </trkpt>
      <trkpt lat="44.0129" lon="3.51078">
        <ele>1246.6</ele>
        <time>2026-05-28T13:41:06.000Z</time>
      </trkpt>
      <trkpt lat="44.0129" lon="3.51078">
        <ele>1246.8</ele>
        <time>2026-05-28T13:41:07.000Z</time>
      </trkpt>
      <trkpt lat="44.0129" lon="3.51078">
        <ele>1246.9</ele>
        <time>2026-05-28T13:41:08.000Z</time>
      </trkpt>
      <trkpt lat="44.0129" lon="3.51078">
        <ele>1247.1</ele>
        <time>2026-05-28T13:41:09.000Z</time>
      </trkpt>
      <trkpt lat="44.0129" lon="3.51078">
        <ele>1247.1</ele>
        <time>2026-05-28T13:41:10.000Z</time>
      </trkpt>
      <trkpt lat="44.0129" lon="3.51078">
        <ele>1247</ele>
        <time>2026-05-28T13:41:11.000Z</time>
      </trkpt>
      <trkpt lat="44.0129" lon="3.51078">
        <ele>1247.1</ele>
        <time>2026-05-28T13:41:12.000Z</time>
      </trkpt>
      <trkpt lat="44.0129" lon="3.51078">
        <ele>1247.1</ele>
        <time>2026-05-28T13:41:13.000Z</time>
      </trkpt>
      <trkpt lat="44.0129" lon="3.51078">
        <ele>1247.3</ele>
        <time>2026-05-28T13:41:14.000Z</time>
      </trkpt>
      <trkpt lat="44.0129" lon="3.51078">
        <ele>1247.2</ele>
        <time>2026-05-28T13:41:15.000Z</time>
      </trkpt>
      <trkpt lat="44.0129" lon="3.51078">
        <ele>1247.1</ele>
        <time>2026-05-28T13:41:16.000Z</time>
      </trkpt>
      <trkpt lat="44.0129" lon="3.51078">
        <ele>1247</ele>
        <time>2026-05-28T13:41:17.000Z</time>
      </trkpt>
      <trkpt lat="44.0129" lon="3.51078">
        <ele>1246.7</ele>
        <time>2026-05-28T13:41:18.000Z</time>
      </trkpt>
      <trkpt lat="44.0129" lon="3.51078">
        <ele>1246.6</ele>
        <time>2026-05-28T13:41:19.000Z</time>
      </trkpt>
      <trkpt lat="44.0129" lon="3.51078">
        <ele>1246.7</ele>
        <time>2026-05-28T13:41:20.000Z</time>
      </trkpt>
      <trkpt lat="44.0129" lon="3.51078">
        <ele>1246.7</ele>
        <time>2026-05-28T13:41:21.000Z</time>
      </trkpt>
      <trkpt lat="44.0129" lon="3.51078">
        <ele>1247</ele>
        <time>2026-05-28T13:41:22.000Z</time>
      </trkpt>
      <trkpt lat="44.0129" lon="3.51078">
        <ele>1247</ele>
        <time>2026-05-28T13:41:23.000Z</time>
      </trkpt>
      <trkpt lat="44.01291" lon="3.51079">
        <ele>1247.2</ele>
        <time>2026-05-28T13:41:24.000Z</time>
      </trkpt>
      <trkpt lat="44.01291" lon="3.51079">
        <ele>1247.4</ele>
        <time>2026-05-28T13:41:25.000Z</time>
      </trkpt>
      <trkpt lat="44.01291" lon="3.51079">
        <ele>1247.6</ele>
        <time>2026-05-28T13:41:26.000Z</time>
      </trkpt>
      <trkpt lat="44.01291" lon="3.51079">
        <ele>1247.6</ele>
        <time>2026-05-28T13:41:27.000Z</time>
      </trkpt>
      <trkpt lat="44.01291" lon="3.51079">
        <ele>1247.7</ele>
        <time>2026-05-28T13:41:28.000Z</time>
      </trkpt>
      <trkpt lat="44.01291" lon="3.51079">
        <ele>1247.7</ele>
        <time>2026-05-28T13:41:29.000Z</time>
      </trkpt>
      <trkpt lat="44.01291" lon="3.51079">
        <ele>1247.7</ele>
        <time>2026-05-28T13:41:30.000Z</time>
      </trkpt>
      <trkpt lat="44.01291" lon="3.51079">
        <ele>1247.6</ele>
        <time>2026-05-28T13:41:31.000Z</time>
      </trkpt>
      <trkpt lat="44.01291" lon="3.51079">
        <ele>1247.7</ele>
        <time>2026-05-28T13:41:32.000Z</time>
      </trkpt>
      <trkpt lat="44.01291" lon="3.51079">
        <ele>1247.6</ele>
        <time>2026-05-28T13:41:33.000Z</time>
      </trkpt>
      <trkpt lat="44.01291" lon="3.51079">
        <ele>1247.8</ele>
        <time>2026-05-28T13:41:34.000Z</time>
      </trkpt>
      <trkpt lat="44.01291" lon="3.51079">
        <ele>1248.1</ele>
        <time>2026-05-28T13:41:35.000Z</time>
      </trkpt>
      <trkpt lat="44.01291" lon="3.51079">
        <ele>1248.3</ele>
        <time>2026-05-28T13:41:36.000Z</time>
      </trkpt>
      <trkpt lat="44.01291" lon="3.51079">
        <ele>1248.5</ele>
        <time>2026-05-28T13:41:37.000Z</time>
      </trkpt>
      <trkpt lat="44.01291" lon="3.51079">
        <ele>1248.6</ele>
        <time>2026-05-28T13:41:38.000Z</time>
      </trkpt>
      <trkpt lat="44.01291" lon="3.51079">
        <ele>1248.5</ele>
        <time>2026-05-28T13:41:39.000Z</time>
      </trkpt>
      <trkpt lat="44.01291" lon="3.51079">
        <ele>1248.4</ele>
        <time>2026-05-28T13:41:40.000Z</time>
      </trkpt>
      <trkpt lat="44.01291" lon="3.51079">
        <ele>1248.2</ele>
        <time>2026-05-28T13:41:41.000Z</time>
      </trkpt>
      <trkpt lat="44.0129" lon="3.51079">
        <ele>1248.1</ele>
        <time>2026-05-28T13:41:42.000Z</time>
      </trkpt>
      <trkpt lat="44.0129" lon="3.51079">
        <ele>1247.9</ele>
        <time>2026-05-28T13:41:43.000Z</time>
      </trkpt>
      <trkpt lat="44.0129" lon="3.51078">
        <ele>1247.8</ele>
        <time>2026-05-28T13:41:44.000Z</time>
      </trkpt>
      <trkpt lat="44.0129" lon="3.51078">
        <ele>1247.7</ele>
        <time>2026-05-28T13:41:45.000Z</time>
      </trkpt>
      <trkpt lat="44.01291" lon="3.51077">
        <ele>1247.5</ele>
        <time>2026-05-28T13:41:46.000Z</time>
      </trkpt>
      <trkpt lat="44.01291" lon="3.51077">
        <ele>1247.3</ele>
        <time>2026-05-28T13:41:47.000Z</time>
      </trkpt>
      <trkpt lat="44.01292" lon="3.51076">
        <ele>1247.1</ele>
        <time>2026-05-28T13:41:48.000Z</time>
      </trkpt>
      <trkpt lat="44.01292" lon="3.51075">
        <ele>1246.9</ele>
        <time>2026-05-28T13:41:49.000Z</time>
      </trkpt>
      <trkpt lat="44.01293" lon="3.51073">
        <ele>1246.6</ele>
        <time>2026-05-28T13:41:50.000Z</time>
      </trkpt>
      <trkpt lat="44.01293" lon="3.51072">
        <ele>1246.3</ele>
        <time>2026-05-28T13:41:51.000Z</time>
      </trkpt>
      <trkpt lat="44.01293" lon="3.51071">
        <ele>1246</ele>
        <time>2026-05-28T13:41:52.000Z</time>
      </trkpt>
      <trkpt lat="44.01293" lon="3.5107">
        <ele>1246.1</ele>
        <time>2026-05-28T13:41:53.000Z</time>
      </trkpt>
      <trkpt lat="44.01292" lon="3.51069">
        <ele>1245.9</ele>
        <time>2026-05-28T13:41:54.000Z</time>
      </trkpt>
      <trkpt lat="44.01291" lon="3.51068">
        <ele>1245.8</ele>
        <time>2026-05-28T13:41:55.000Z</time>
      </trkpt>
      <trkpt lat="44.0129" lon="3.51068">
        <ele>1245.6</ele>
        <time>2026-05-28T13:41:56.000Z</time>
      </trkpt>
      <trkpt lat="44.01289" lon="3.51067">
        <ele>1245.5</ele>
        <time>2026-05-28T13:41:57.000Z</time>
      </trkpt>
      <trkpt lat="44.01288" lon="3.51066">
        <ele>1245.7</ele>
        <time>2026-05-28T13:41:58.000Z</time>
      </trkpt>
      <trkpt lat="44.01288" lon="3.51066">
        <ele>1246.1</ele>
        <time>2026-05-28T13:41:59.000Z</time>
      </trkpt>
      <trkpt lat="44.01288" lon="3.51066">
        <ele>1246.3</ele>
        <time>2026-05-28T13:42:00.000Z</time>
      </trkpt>
      <trkpt lat="44.01288" lon="3.51066">
        <ele>1246.5</ele>
        <time>2026-05-28T13:42:01.000Z</time>
      </trkpt>
      <trkpt lat="44.01287" lon="3.51066">
        <ele>1246.5</ele>
        <time>2026-05-28T13:42:02.000Z</time>
      </trkpt>
      <trkpt lat="44.01287" lon="3.51066">
        <ele>1246.2</ele>
        <time>2026-05-28T13:42:03.000Z</time>
      </trkpt>
      <trkpt lat="44.01286" lon="3.51065">
        <ele>1245.9</ele>
        <time>2026-05-28T13:42:04.000Z</time>
      </trkpt>
      <trkpt lat="44.01286" lon="3.51065">
        <ele>1245.9</ele>
        <time>2026-05-28T13:42:05.000Z</time>
      </trkpt>
      <trkpt lat="44.01285" lon="3.51065">
        <ele>1245.9</ele>
        <time>2026-05-28T13:42:06.000Z</time>
      </trkpt>
      <trkpt lat="44.01284" lon="3.51065">
        <ele>1246</ele>
        <time>2026-05-28T13:42:07.000Z</time>
      </trkpt>
      <trkpt lat="44.01283" lon="3.51065">
        <ele>1246.1</ele>
        <time>2026-05-28T13:42:08.000Z</time>
      </trkpt>
      <trkpt lat="44.01282" lon="3.51065">
        <ele>1246.2</ele>
        <time>2026-05-28T13:42:09.000Z</time>
      </trkpt>
      <trkpt lat="44.01281" lon="3.51065">
        <ele>1246.5</ele>
        <time>2026-05-28T13:42:10.000Z</time>
      </trkpt>
      <trkpt lat="44.01281" lon="3.51065">
        <ele>1246.8</ele>
        <time>2026-05-28T13:42:11.000Z</time>
      </trkpt>
      <trkpt lat="44.0128" lon="3.51065">
        <ele>1247</ele>
        <time>2026-05-28T13:42:12.000Z</time>
      </trkpt>
      <trkpt lat="44.0128" lon="3.51065">
        <ele>1247.2</ele>
        <time>2026-05-28T13:42:13.000Z</time>
      </trkpt>
      <trkpt lat="44.01279" lon="3.51065">
        <ele>1247.2</ele>
        <time>2026-05-28T13:42:14.000Z</time>
      </trkpt>
      <trkpt lat="44.01279" lon="3.51065">
        <ele>1247.1</ele>
        <time>2026-05-28T13:42:15.000Z</time>
      </trkpt>
      <trkpt lat="44.01278" lon="3.51065">
        <ele>1247.1</ele>
        <time>2026-05-28T13:42:16.000Z</time>
      </trkpt>
      <trkpt lat="44.01278" lon="3.51064">
        <ele>1247.1</ele>
        <time>2026-05-28T13:42:17.000Z</time>
      </trkpt>
      <trkpt lat="44.01278" lon="3.51064">
        <ele>1247.3</ele>
        <time>2026-05-28T13:42:18.000Z</time>
      </trkpt>
      <trkpt lat="44.01278" lon="3.51063">
        <ele>1247.1</ele>
        <time>2026-05-28T13:42:19.000Z</time>
      </trkpt>
      <trkpt lat="44.01278" lon="3.51062">
        <ele>1246.9</ele>
        <time>2026-05-28T13:42:20.000Z</time>
      </trkpt>
      <trkpt lat="44.01278" lon="3.51061">
        <ele>1246.8</ele>
        <time>2026-05-28T13:42:21.000Z</time>
      </trkpt>
      <trkpt lat="44.01278" lon="3.5106">
        <ele>1246.6</ele>
        <time>2026-05-28T13:42:22.000Z</time>
      </trkpt>
      <trkpt lat="44.01278" lon="3.51059">
        <ele>1246.2</ele>
        <time>2026-05-28T13:42:23.000Z</time>
      </trkpt>
      <trkpt lat="44.01278" lon="3.51058">
        <ele>1246</ele>
        <time>2026-05-28T13:42:24.000Z</time>
      </trkpt>
      <trkpt lat="44.01277" lon="3.51057">
        <ele>1246</ele>
        <time>2026-05-28T13:42:25.000Z</time>
      </trkpt>
      <trkpt lat="44.01277" lon="3.51057">
        <ele>1245.7</ele>
        <time>2026-05-28T13:42:26.000Z</time>
      </trkpt>
      <trkpt lat="44.01276" lon="3.51057">
        <ele>1245.2</ele>
        <time>2026-05-28T13:42:27.000Z</time>
      </trkpt>
      <trkpt lat="44.01276" lon="3.51057">
        <ele>1245</ele>
        <time>2026-05-28T13:42:28.000Z</time>
      </trkpt>
      <trkpt lat="44.01275" lon="3.51056">
        <ele>1245.2</ele>
        <time>2026-05-28T13:42:29.000Z</time>
      </trkpt>
      <trkpt lat="44.01275" lon="3.51056">
        <ele>1245.2</ele>
        <time>2026-05-28T13:42:30.000Z</time>
      </trkpt>
      <trkpt lat="44.01274" lon="3.51056">
        <ele>1245.4</ele>
        <time>2026-05-28T13:42:31.000Z</time>
      </trkpt>
      <trkpt lat="44.01274" lon="3.51056">
        <ele>1245.5</ele>
        <time>2026-05-28T13:42:32.000Z</time>
      </trkpt>
      <trkpt lat="44.01273" lon="3.51057">
        <ele>1245.4</ele>
        <time>2026-05-28T13:42:33.000Z</time>
      </trkpt>
      <trkpt lat="44.01272" lon="3.51057">
        <ele>1245.4</ele>
        <time>2026-05-28T13:42:34.000Z</time>
      </trkpt>
      <trkpt lat="44.0127" lon="3.51057">
        <ele>1245.4</ele>
        <time>2026-05-28T13:42:35.000Z</time>
      </trkpt>
      <trkpt lat="44.01269" lon="3.51057">
        <ele>1245.4</ele>
        <time>2026-05-28T13:42:36.000Z</time>
      </trkpt>
      <trkpt lat="44.01268" lon="3.51059">
        <ele>1245.3</ele>
        <time>2026-05-28T13:42:37.000Z</time>
      </trkpt>
      <trkpt lat="44.01267" lon="3.51061">
        <ele>1244.9</ele>
        <time>2026-05-28T13:42:38.000Z</time>
      </trkpt>
      <trkpt lat="44.01267" lon="3.51062">
        <ele>1244.6</ele>
        <time>2026-05-28T13:42:39.000Z</time>
      </trkpt>
      <trkpt lat="44.01267" lon="3.51063">
        <ele>1244.6</ele>
        <time>2026-05-28T13:42:40.000Z</time>
      </trkpt>
      <trkpt lat="44.01266" lon="3.51064">
        <ele>1244.5</ele>
        <time>2026-05-28T13:42:41.000Z</time>
      </trkpt>
      <trkpt lat="44.01265" lon="3.51065">
        <ele>1244.9</ele>
        <time>2026-05-28T13:42:42.000Z</time>
      </trkpt>
      <trkpt lat="44.01265" lon="3.51066">
        <ele>1244.8</ele>
        <time>2026-05-28T13:42:43.000Z</time>
      </trkpt>
      <trkpt lat="44.01264" lon="3.51066">
        <ele>1244.4</ele>
        <time>2026-05-28T13:42:44.000Z</time>
      </trkpt>
      <trkpt lat="44.01263" lon="3.51066">
        <ele>1244.4</ele>
        <time>2026-05-28T13:42:45.000Z</time>
      </trkpt>
      <trkpt lat="44.01262" lon="3.51066">
        <ele>1244.1</ele>
        <time>2026-05-28T13:42:46.000Z</time>
      </trkpt>
      <trkpt lat="44.01261" lon="3.51067">
        <ele>1244</ele>
        <time>2026-05-28T13:42:47.000Z</time>
      </trkpt>
      <trkpt lat="44.0126" lon="3.51067">
        <ele>1243.9</ele>
        <time>2026-05-28T13:42:48.000Z</time>
      </trkpt>
      <trkpt lat="44.01259" lon="3.51068">
        <ele>1243.7</ele>
        <time>2026-05-28T13:42:49.000Z</time>
      </trkpt>
      <trkpt lat="44.01258" lon="3.51068">
        <ele>1243.3</ele>
        <time>2026-05-28T13:42:50.000Z</time>
      </trkpt>
      <trkpt lat="44.01258" lon="3.51069">
        <ele>1242.9</ele>
        <time>2026-05-28T13:42:51.000Z</time>
      </trkpt>
      <trkpt lat="44.01258" lon="3.5107">
        <ele>1242.5</ele>
        <time>2026-05-28T13:42:52.000Z</time>
      </trkpt>
      <trkpt lat="44.01258" lon="3.51072">
        <ele>1242.3</ele>
        <time>2026-05-28T13:42:53.000Z</time>
      </trkpt>
      <trkpt lat="44.01257" lon="3.51073">
        <ele>1242.2</ele>
        <time>2026-05-28T13:42:54.000Z</time>
      </trkpt>
      <trkpt lat="44.01257" lon="3.51073">
        <ele>1242.3</ele>
        <time>2026-05-28T13:42:55.000Z</time>
      </trkpt>
      <trkpt lat="44.01256" lon="3.51074">
        <ele>1241.9</ele>
        <time>2026-05-28T13:42:56.000Z</time>
      </trkpt>
      <trkpt lat="44.01256" lon="3.51075">
        <ele>1241.8</ele>
        <time>2026-05-28T13:42:57.000Z</time>
      </trkpt>
      <trkpt lat="44.01255" lon="3.51076">
        <ele>1241.5</ele>
        <time>2026-05-28T13:42:58.000Z</time>
      </trkpt>
      <trkpt lat="44.01255" lon="3.51076">
        <ele>1241.3</ele>
        <time>2026-05-28T13:42:59.000Z</time>
      </trkpt>
      <trkpt lat="44.01254" lon="3.51077">
        <ele>1241.2</ele>
        <time>2026-05-28T13:43:00.000Z</time>
      </trkpt>
      <trkpt lat="44.01254" lon="3.51078">
        <ele>1241.1</ele>
        <time>2026-05-28T13:43:01.000Z</time>
      </trkpt>
      <trkpt lat="44.01253" lon="3.51079">
        <ele>1240.9</ele>
        <time>2026-05-28T13:43:02.000Z</time>
      </trkpt>
      <trkpt lat="44.01253" lon="3.51079">
        <ele>1240.6</ele>
        <time>2026-05-28T13:43:03.000Z</time>
      </trkpt>
      <trkpt lat="44.01253" lon="3.51079">
        <ele>1240.4</ele>
        <time>2026-05-28T13:43:04.000Z</time>
      </trkpt>
      <trkpt lat="44.01253" lon="3.5108">
        <ele>1240.3</ele>
        <time>2026-05-28T13:43:05.000Z</time>
      </trkpt>
      <trkpt lat="44.01252" lon="3.51081">
        <ele>1240.1</ele>
        <time>2026-05-28T13:43:06.000Z</time>
      </trkpt>
      <trkpt lat="44.01251" lon="3.51081">
        <ele>1240.1</ele>
        <time>2026-05-28T13:43:07.000Z</time>
      </trkpt>
      <trkpt lat="44.01251" lon="3.5108">
        <ele>1240</ele>
        <time>2026-05-28T13:43:08.000Z</time>
      </trkpt>
      <trkpt lat="44.01251" lon="3.5108">
        <ele>1239.9</ele>
        <time>2026-05-28T13:43:09.000Z</time>
      </trkpt>
      <trkpt lat="44.01251" lon="3.51079">
        <ele>1239.6</ele>
        <time>2026-05-28T13:43:10.000Z</time>
      </trkpt>
      <trkpt lat="44.01251" lon="3.51078">
        <ele>1239.6</ele>
        <time>2026-05-28T13:43:11.000Z</time>
      </trkpt>
      <trkpt lat="44.0125" lon="3.51078">
        <ele>1239.4</ele>
        <time>2026-05-28T13:43:12.000Z</time>
      </trkpt>
      <trkpt lat="44.0125" lon="3.51077">
        <ele>1239.3</ele>
        <time>2026-05-28T13:43:13.000Z</time>
      </trkpt>
      <trkpt lat="44.01249" lon="3.51077">
        <ele>1239.2</ele>
        <time>2026-05-28T13:43:14.000Z</time>
      </trkpt>
      <trkpt lat="44.01248" lon="3.51075">
        <ele>1239</ele>
        <time>2026-05-28T13:43:15.000Z</time>
      </trkpt>
      <trkpt lat="44.01247" lon="3.51075">
        <ele>1238.9</ele>
        <time>2026-05-28T13:43:16.000Z</time>
      </trkpt>
      <trkpt lat="44.01246" lon="3.51074">
        <ele>1238.8</ele>
        <time>2026-05-28T13:43:17.000Z</time>
      </trkpt>
      <trkpt lat="44.01245" lon="3.51074">
        <ele>1238.5</ele>
        <time>2026-05-28T13:43:18.000Z</time>
      </trkpt>
      <trkpt lat="44.01244" lon="3.51075">
        <ele>1238.3</ele>
        <time>2026-05-28T13:43:19.000Z</time>
      </trkpt>
      <trkpt lat="44.01243" lon="3.51075">
        <ele>1238.2</ele>
        <time>2026-05-28T13:43:20.000Z</time>
      </trkpt>
      <trkpt lat="44.01242" lon="3.51075">
        <ele>1238.2</ele>
        <time>2026-05-28T13:43:21.000Z</time>
      </trkpt>
      <trkpt lat="44.01241" lon="3.51075">
        <ele>1238.2</ele>
        <time>2026-05-28T13:43:22.000Z</time>
      </trkpt>
      <trkpt lat="44.01241" lon="3.51075">
        <ele>1237.7</ele>
        <time>2026-05-28T13:43:23.000Z</time>
      </trkpt>
      <trkpt lat="44.0124" lon="3.51075">
        <ele>1237.4</ele>
        <time>2026-05-28T13:43:24.000Z</time>
      </trkpt>
      <trkpt lat="44.01239" lon="3.51075">
        <ele>1237.1</ele>
        <time>2026-05-28T13:43:25.000Z</time>
      </trkpt>
      <trkpt lat="44.01239" lon="3.51075">
        <ele>1236.9</ele>
        <time>2026-05-28T13:43:26.000Z</time>
      </trkpt>
      <trkpt lat="44.01238" lon="3.51075">
        <ele>1236.7</ele>
        <time>2026-05-28T13:43:27.000Z</time>
      </trkpt>
      <trkpt lat="44.01238" lon="3.51076">
        <ele>1236.4</ele>
        <time>2026-05-28T13:43:28.000Z</time>
      </trkpt>
      <trkpt lat="44.01237" lon="3.51077">
        <ele>1236.2</ele>
        <time>2026-05-28T13:43:29.000Z</time>
      </trkpt>
      <trkpt lat="44.01236" lon="3.51078">
        <ele>1235.9</ele>
        <time>2026-05-28T13:43:30.000Z</time>
      </trkpt>
      <trkpt lat="44.01236" lon="3.51078">
        <ele>1235.8</ele>
        <time>2026-05-28T13:43:31.000Z</time>
      </trkpt>
      <trkpt lat="44.01235" lon="3.51079">
        <ele>1235.8</ele>
        <time>2026-05-28T13:43:32.000Z</time>
      </trkpt>
      <trkpt lat="44.01234" lon="3.51079">
        <ele>1235.9</ele>
        <time>2026-05-28T13:43:33.000Z</time>
      </trkpt>
      <trkpt lat="44.01233" lon="3.51079">
        <ele>1235.6</ele>
        <time>2026-05-28T13:43:34.000Z</time>
      </trkpt>
      <trkpt lat="44.01232" lon="3.51079">
        <ele>1235.7</ele>
        <time>2026-05-28T13:43:35.000Z</time>
      </trkpt>
      <trkpt lat="44.01232" lon="3.51078">
        <ele>1235.5</ele>
        <time>2026-05-28T13:43:36.000Z</time>
      </trkpt>
      <trkpt lat="44.01231" lon="3.51078">
        <ele>1235.3</ele>
        <time>2026-05-28T13:43:37.000Z</time>
      </trkpt>
      <trkpt lat="44.01231" lon="3.51077">
        <ele>1235</ele>
        <time>2026-05-28T13:43:38.000Z</time>
      </trkpt>
      <trkpt lat="44.0123" lon="3.51077">
        <ele>1234.8</ele>
        <time>2026-05-28T13:43:39.000Z</time>
      </trkpt>
      <trkpt lat="44.0123" lon="3.51077">
        <ele>1234.5</ele>
        <time>2026-05-28T13:43:40.000Z</time>
      </trkpt>
      <trkpt lat="44.0123" lon="3.51076">
        <ele>1234.3</ele>
        <time>2026-05-28T13:43:41.000Z</time>
      </trkpt>
      <trkpt lat="44.0123" lon="3.51075">
        <ele>1234</ele>
        <time>2026-05-28T13:43:42.000Z</time>
      </trkpt>
      <trkpt lat="44.0123" lon="3.51075">
        <ele>1234.1</ele>
        <time>2026-05-28T13:43:43.000Z</time>
      </trkpt>
      <trkpt lat="44.0123" lon="3.51074">
        <ele>1234</ele>
        <time>2026-05-28T13:43:44.000Z</time>
      </trkpt>
      <trkpt lat="44.0123" lon="3.51074">
        <ele>1233.8</ele>
        <time>2026-05-28T13:43:45.000Z</time>
      </trkpt>
      <trkpt lat="44.01229" lon="3.51073">
        <ele>1234.1</ele>
        <time>2026-05-28T13:43:46.000Z</time>
      </trkpt>
      <trkpt lat="44.01229" lon="3.51073">
        <ele>1234.1</ele>
        <time>2026-05-28T13:43:47.000Z</time>
      </trkpt>
      <trkpt lat="44.01229" lon="3.51073">
        <ele>1234.2</ele>
        <time>2026-05-28T13:43:48.000Z</time>
      </trkpt>
      <trkpt lat="44.01229" lon="3.51072">
        <ele>1234</ele>
        <time>2026-05-28T13:43:49.000Z</time>
      </trkpt>
      <trkpt lat="44.01229" lon="3.51072">
        <ele>1233.7</ele>
        <time>2026-05-28T13:43:50.000Z</time>
      </trkpt>
      <trkpt lat="44.01229" lon="3.51071">
        <ele>1233.4</ele>
        <time>2026-05-28T13:43:51.000Z</time>
      </trkpt>
      <trkpt lat="44.01229" lon="3.51069">
        <ele>1233.1</ele>
        <time>2026-05-28T13:43:52.000Z</time>
      </trkpt>
      <trkpt lat="44.01228" lon="3.51069">
        <ele>1232.8</ele>
        <time>2026-05-28T13:43:53.000Z</time>
      </trkpt>
      <trkpt lat="44.01227" lon="3.51068">
        <ele>1232.5</ele>
        <time>2026-05-28T13:43:54.000Z</time>
      </trkpt>
      <trkpt lat="44.01226" lon="3.51066">
        <ele>1232.4</ele>
        <time>2026-05-28T13:43:55.000Z</time>
      </trkpt>
      <trkpt lat="44.01225" lon="3.51065">
        <ele>1232.3</ele>
        <time>2026-05-28T13:43:56.000Z</time>
      </trkpt>
      <trkpt lat="44.01224" lon="3.51064">
        <ele>1232.1</ele>
        <time>2026-05-28T13:43:57.000Z</time>
      </trkpt>
      <trkpt lat="44.01223" lon="3.51064">
        <ele>1232.1</ele>
        <time>2026-05-28T13:43:58.000Z</time>
      </trkpt>
      <trkpt lat="44.01222" lon="3.51064">
        <ele>1231.9</ele>
        <time>2026-05-28T13:43:59.000Z</time>
      </trkpt>
      <trkpt lat="44.01221" lon="3.51065">
        <ele>1231.8</ele>
        <time>2026-05-28T13:44:00.000Z</time>
      </trkpt>
      <trkpt lat="44.01221" lon="3.51065">
        <ele>1231.7</ele>
        <time>2026-05-28T13:44:01.000Z</time>
      </trkpt>
      <trkpt lat="44.0122" lon="3.51066">
        <ele>1231.4</ele>
        <time>2026-05-28T13:44:02.000Z</time>
      </trkpt>
      <trkpt lat="44.01219" lon="3.51065">
        <ele>1231.2</ele>
        <time>2026-05-28T13:44:03.000Z</time>
      </trkpt>
      <trkpt lat="44.01218" lon="3.51065">
        <ele>1230.9</ele>
        <time>2026-05-28T13:44:04.000Z</time>
      </trkpt>
      <trkpt lat="44.01218" lon="3.51066">
        <ele>1230.7</ele>
        <time>2026-05-28T13:44:05.000Z</time>
      </trkpt>
      <trkpt lat="44.01217" lon="3.51066">
        <ele>1230.5</ele>
        <time>2026-05-28T13:44:06.000Z</time>
      </trkpt>
      <trkpt lat="44.01217" lon="3.51066">
        <ele>1230.2</ele>
        <time>2026-05-28T13:44:07.000Z</time>
      </trkpt>
      <trkpt lat="44.01216" lon="3.51066">
        <ele>1230</ele>
        <time>2026-05-28T13:44:08.000Z</time>
      </trkpt>
      <trkpt lat="44.01215" lon="3.51066">
        <ele>1229.8</ele>
        <time>2026-05-28T13:44:09.000Z</time>
      </trkpt>
      <trkpt lat="44.01215" lon="3.51066">
        <ele>1229.7</ele>
        <time>2026-05-28T13:44:10.000Z</time>
      </trkpt>
      <trkpt lat="44.01214" lon="3.51066">
        <ele>1229.4</ele>
        <time>2026-05-28T13:44:11.000Z</time>
      </trkpt>
      <trkpt lat="44.01213" lon="3.51066">
        <ele>1229.3</ele>
        <time>2026-05-28T13:44:12.000Z</time>
      </trkpt>
      <trkpt lat="44.01211" lon="3.51067">
        <ele>1229.3</ele>
        <time>2026-05-28T13:44:13.000Z</time>
      </trkpt>
      <trkpt lat="44.0121" lon="3.51067">
        <ele>1229.2</ele>
        <time>2026-05-28T13:44:14.000Z</time>
      </trkpt>
      <trkpt lat="44.01209" lon="3.51067">
        <ele>1229.2</ele>
        <time>2026-05-28T13:44:15.000Z</time>
      </trkpt>
      <trkpt lat="44.01209" lon="3.51067">
        <ele>1229.3</ele>
        <time>2026-05-28T13:44:16.000Z</time>
      </trkpt>
      <trkpt lat="44.01208" lon="3.51068">
        <ele>1229.3</ele>
        <time>2026-05-28T13:44:17.000Z</time>
      </trkpt>
      <trkpt lat="44.01207" lon="3.51068">
        <ele>1229.3</ele>
        <time>2026-05-28T13:44:18.000Z</time>
      </trkpt>
      <trkpt lat="44.01206" lon="3.51067">
        <ele>1228.7</ele>
        <time>2026-05-28T13:44:19.000Z</time>
      </trkpt>
      <trkpt lat="44.01205" lon="3.51066">
        <ele>1228.1</ele>
        <time>2026-05-28T13:44:20.000Z</time>
      </trkpt>
      <trkpt lat="44.01204" lon="3.51065">
        <ele>1227.7</ele>
        <time>2026-05-28T13:44:21.000Z</time>
      </trkpt>
      <trkpt lat="44.01203" lon="3.51065">
        <ele>1227.4</ele>
        <time>2026-05-28T13:44:22.000Z</time>
      </trkpt>
      <trkpt lat="44.01202" lon="3.51064">
        <ele>1227.2</ele>
        <time>2026-05-28T13:44:23.000Z</time>
      </trkpt>
      <trkpt lat="44.01201" lon="3.51064">
        <ele>1227.3</ele>
        <time>2026-05-28T13:44:24.000Z</time>
      </trkpt>
      <trkpt lat="44.012" lon="3.51064">
        <ele>1227.3</ele>
        <time>2026-05-28T13:44:25.000Z</time>
      </trkpt>
      <trkpt lat="44.01199" lon="3.51063">
        <ele>1227.3</ele>
        <time>2026-05-28T13:44:26.000Z</time>
      </trkpt>
      <trkpt lat="44.01199" lon="3.51064">
        <ele>1227.1</ele>
        <time>2026-05-28T13:44:27.000Z</time>
      </trkpt>
      <trkpt lat="44.01199" lon="3.51064">
        <ele>1226.9</ele>
        <time>2026-05-28T13:44:28.000Z</time>
      </trkpt>
      <trkpt lat="44.01198" lon="3.51064">
        <ele>1226.3</ele>
        <time>2026-05-28T13:44:29.000Z</time>
      </trkpt>
      <trkpt lat="44.01197" lon="3.51064">
        <ele>1226</ele>
        <time>2026-05-28T13:44:30.000Z</time>
      </trkpt>
      <trkpt lat="44.01196" lon="3.51064">
        <ele>1225.8</ele>
        <time>2026-05-28T13:44:31.000Z</time>
      </trkpt>
      <trkpt lat="44.01195" lon="3.51065">
        <ele>1225.5</ele>
        <time>2026-05-28T13:44:32.000Z</time>
      </trkpt>
      <trkpt lat="44.01194" lon="3.51065">
        <ele>1225.3</ele>
        <time>2026-05-28T13:44:33.000Z</time>
      </trkpt>
      <trkpt lat="44.01194" lon="3.51065">
        <ele>1224.9</ele>
        <time>2026-05-28T13:44:34.000Z</time>
      </trkpt>
      <trkpt lat="44.01193" lon="3.51065">
        <ele>1224.7</ele>
        <time>2026-05-28T13:44:35.000Z</time>
      </trkpt>
      <trkpt lat="44.01192" lon="3.51065">
        <ele>1224.5</ele>
        <time>2026-05-28T13:44:36.000Z</time>
      </trkpt>
      <trkpt lat="44.01191" lon="3.51065">
        <ele>1224.3</ele>
        <time>2026-05-28T13:44:37.000Z</time>
      </trkpt>
      <trkpt lat="44.0119" lon="3.51064">
        <ele>1223.9</ele>
        <time>2026-05-28T13:44:38.000Z</time>
      </trkpt>
      <trkpt lat="44.01189" lon="3.51064">
        <ele>1223.5</ele>
        <time>2026-05-28T13:44:39.000Z</time>
      </trkpt>
      <trkpt lat="44.01188" lon="3.51063">
        <ele>1223.3</ele>
        <time>2026-05-28T13:44:40.000Z</time>
      </trkpt>
      <trkpt lat="44.01187" lon="3.51063">
        <ele>1223.1</ele>
        <time>2026-05-28T13:44:41.000Z</time>
      </trkpt>
      <trkpt lat="44.01187" lon="3.51062">
        <ele>1222.8</ele>
        <time>2026-05-28T13:44:42.000Z</time>
      </trkpt>
      <trkpt lat="44.01186" lon="3.51061">
        <ele>1222.6</ele>
        <time>2026-05-28T13:44:43.000Z</time>
      </trkpt>
      <trkpt lat="44.01185" lon="3.5106">
        <ele>1222.3</ele>
        <time>2026-05-28T13:44:44.000Z</time>
      </trkpt>
      <trkpt lat="44.01184" lon="3.5106">
        <ele>1222.2</ele>
        <time>2026-05-28T13:44:45.000Z</time>
      </trkpt>
      <trkpt lat="44.01183" lon="3.51059">
        <ele>1221.9</ele>
        <time>2026-05-28T13:44:46.000Z</time>
      </trkpt>
      <trkpt lat="44.01182" lon="3.51059">
        <ele>1221.8</ele>
        <time>2026-05-28T13:44:47.000Z</time>
      </trkpt>
      <trkpt lat="44.01181" lon="3.51059">
        <ele>1221.8</ele>
        <time>2026-05-28T13:44:48.000Z</time>
      </trkpt>
      <trkpt lat="44.01181" lon="3.51058">
        <ele>1221.8</ele>
        <time>2026-05-28T13:44:49.000Z</time>
      </trkpt>
      <trkpt lat="44.0118" lon="3.51058">
        <ele>1222</ele>
        <time>2026-05-28T13:44:50.000Z</time>
      </trkpt>
      <trkpt lat="44.01179" lon="3.51057">
        <ele>1222</ele>
        <time>2026-05-28T13:44:51.000Z</time>
      </trkpt>
      <trkpt lat="44.01178" lon="3.51057">
        <ele>1221.9</ele>
        <time>2026-05-28T13:44:52.000Z</time>
      </trkpt>
      <trkpt lat="44.01177" lon="3.51056">
        <ele>1221.6</ele>
        <time>2026-05-28T13:44:53.000Z</time>
      </trkpt>
      <trkpt lat="44.01176" lon="3.51056">
        <ele>1221.4</ele>
        <time>2026-05-28T13:44:54.000Z</time>
      </trkpt>
      <trkpt lat="44.01175" lon="3.51056">
        <ele>1221.1</ele>
        <time>2026-05-28T13:44:55.000Z</time>
      </trkpt>
      <trkpt lat="44.01175" lon="3.51056">
        <ele>1220.9</ele>
        <time>2026-05-28T13:44:56.000Z</time>
      </trkpt>
      <trkpt lat="44.01174" lon="3.51056">
        <ele>1220.6</ele>
        <time>2026-05-28T13:44:57.000Z</time>
      </trkpt>
      <trkpt lat="44.01173" lon="3.51056">
        <ele>1220.4</ele>
        <time>2026-05-28T13:44:58.000Z</time>
      </trkpt>
      <trkpt lat="44.01172" lon="3.51054">
        <ele>1220.3</ele>
        <time>2026-05-28T13:44:59.000Z</time>
      </trkpt>
      <trkpt lat="44.01171" lon="3.51054">
        <ele>1220.2</ele>
        <time>2026-05-28T13:45:00.000Z</time>
      </trkpt>
      <trkpt lat="44.0117" lon="3.51053">
        <ele>1220.1</ele>
        <time>2026-05-28T13:45:01.000Z</time>
      </trkpt>
      <trkpt lat="44.01169" lon="3.51053">
        <ele>1219.6</ele>
        <time>2026-05-28T13:45:02.000Z</time>
      </trkpt>
      <trkpt lat="44.01168" lon="3.51052">
        <ele>1219.5</ele>
        <time>2026-05-28T13:45:03.000Z</time>
      </trkpt>
      <trkpt lat="44.01167" lon="3.51052">
        <ele>1219.5</ele>
        <time>2026-05-28T13:45:04.000Z</time>
      </trkpt>
      <trkpt lat="44.01165" lon="3.51052">
        <ele>1219.5</ele>
        <time>2026-05-28T13:45:05.000Z</time>
      </trkpt>
      <trkpt lat="44.01164" lon="3.51052">
        <ele>1219.5</ele>
        <time>2026-05-28T13:45:06.000Z</time>
      </trkpt>
      <trkpt lat="44.01163" lon="3.51052">
        <ele>1219.5</ele>
        <time>2026-05-28T13:45:07.000Z</time>
      </trkpt>
      <trkpt lat="44.01162" lon="3.51052">
        <ele>1219.3</ele>
        <time>2026-05-28T13:45:08.000Z</time>
      </trkpt>
      <trkpt lat="44.01162" lon="3.51052">
        <ele>1219</ele>
        <time>2026-05-28T13:45:09.000Z</time>
      </trkpt>
      <trkpt lat="44.01162" lon="3.51052">
        <ele>1218.7</ele>
        <time>2026-05-28T13:45:10.000Z</time>
      </trkpt>
      <trkpt lat="44.01161" lon="3.51052">
        <ele>1218.1</ele>
        <time>2026-05-28T13:45:11.000Z</time>
      </trkpt>
      <trkpt lat="44.01161" lon="3.51054">
        <ele>1217.7</ele>
        <time>2026-05-28T13:45:12.000Z</time>
      </trkpt>
      <trkpt lat="44.0116" lon="3.51055">
        <ele>1217.4</ele>
        <time>2026-05-28T13:45:13.000Z</time>
      </trkpt>
      <trkpt lat="44.01159" lon="3.51055">
        <ele>1216.9</ele>
        <time>2026-05-28T13:45:14.000Z</time>
      </trkpt>
      <trkpt lat="44.01158" lon="3.51055">
        <ele>1216.4</ele>
        <time>2026-05-28T13:45:15.000Z</time>
      </trkpt>
      <trkpt lat="44.01158" lon="3.51055">
        <ele>1216.2</ele>
        <time>2026-05-28T13:45:16.000Z</time>
      </trkpt>
      <trkpt lat="44.01157" lon="3.51055">
        <ele>1216</ele>
        <time>2026-05-28T13:45:17.000Z</time>
      </trkpt>
      <trkpt lat="44.01157" lon="3.51054">
        <ele>1215.9</ele>
        <time>2026-05-28T13:45:18.000Z</time>
      </trkpt>
      <trkpt lat="44.01156" lon="3.51055">
        <ele>1215.5</ele>
        <time>2026-05-28T13:45:19.000Z</time>
      </trkpt>
      <trkpt lat="44.01155" lon="3.51054">
        <ele>1215.3</ele>
        <time>2026-05-28T13:45:20.000Z</time>
      </trkpt>
      <trkpt lat="44.01155" lon="3.51054">
        <ele>1215</ele>
        <time>2026-05-28T13:45:21.000Z</time>
      </trkpt>
      <trkpt lat="44.01154" lon="3.51054">
        <ele>1214.6</ele>
        <time>2026-05-28T13:45:22.000Z</time>
      </trkpt>
      <trkpt lat="44.01153" lon="3.51054">
        <ele>1214.3</ele>
        <time>2026-05-28T13:45:23.000Z</time>
      </trkpt>
      <trkpt lat="44.01152" lon="3.51054">
        <ele>1213.8</ele>
        <time>2026-05-28T13:45:24.000Z</time>
      </trkpt>
      <trkpt lat="44.01151" lon="3.51054">
        <ele>1213.4</ele>
        <time>2026-05-28T13:45:25.000Z</time>
      </trkpt>
      <trkpt lat="44.01151" lon="3.51054">
        <ele>1213.3</ele>
        <time>2026-05-28T13:45:26.000Z</time>
      </trkpt>
      <trkpt lat="44.01151" lon="3.51054">
        <ele>1213</ele>
        <time>2026-05-28T13:45:27.000Z</time>
      </trkpt>
      <trkpt lat="44.01151" lon="3.51054">
        <ele>1212.8</ele>
        <time>2026-05-28T13:45:28.000Z</time>
      </trkpt>
      <trkpt lat="44.0115" lon="3.51054">
        <ele>1212.8</ele>
        <time>2026-05-28T13:45:29.000Z</time>
      </trkpt>
      <trkpt lat="44.01149" lon="3.51054">
        <ele>1212.8</ele>
        <time>2026-05-28T13:45:30.000Z</time>
      </trkpt>
      <trkpt lat="44.01148" lon="3.51055">
        <ele>1212.8</ele>
        <time>2026-05-28T13:45:31.000Z</time>
      </trkpt>
      <trkpt lat="44.01148" lon="3.51054">
        <ele>1212.6</ele>
        <time>2026-05-28T13:45:32.000Z</time>
      </trkpt>
      <trkpt lat="44.01147" lon="3.51053">
        <ele>1212.7</ele>
        <time>2026-05-28T13:45:33.000Z</time>
      </trkpt>
      <trkpt lat="44.01146" lon="3.51053">
        <ele>1212.8</ele>
        <time>2026-05-28T13:45:34.000Z</time>
      </trkpt>
      <trkpt lat="44.01145" lon="3.51053">
        <ele>1212.4</ele>
        <time>2026-05-28T13:45:35.000Z</time>
      </trkpt>
      <trkpt lat="44.01144" lon="3.51054">
        <ele>1212.1</ele>
        <time>2026-05-28T13:45:36.000Z</time>
      </trkpt>
      <trkpt lat="44.01143" lon="3.51053">
        <ele>1211.6</ele>
        <time>2026-05-28T13:45:37.000Z</time>
      </trkpt>
      <trkpt lat="44.01142" lon="3.51053">
        <ele>1211.3</ele>
        <time>2026-05-28T13:45:38.000Z</time>
      </trkpt>
      <trkpt lat="44.01141" lon="3.51053">
        <ele>1210.9</ele>
        <time>2026-05-28T13:45:39.000Z</time>
      </trkpt>
      <trkpt lat="44.01139" lon="3.51053">
        <ele>1211.2</ele>
        <time>2026-05-28T13:45:40.000Z</time>
      </trkpt>
      <trkpt lat="44.01137" lon="3.51053">
        <ele>1211</ele>
        <time>2026-05-28T13:45:41.000Z</time>
      </trkpt>
      <trkpt lat="44.01136" lon="3.51052">
        <ele>1211.3</ele>
        <time>2026-05-28T13:45:42.000Z</time>
      </trkpt>
      <trkpt lat="44.01135" lon="3.51052">
        <ele>1210.8</ele>
        <time>2026-05-28T13:45:43.000Z</time>
      </trkpt>
      <trkpt lat="44.01134" lon="3.51052">
        <ele>1210.3</ele>
        <time>2026-05-28T13:45:44.000Z</time>
      </trkpt>
      <trkpt lat="44.01134" lon="3.51052">
        <ele>1210</ele>
        <time>2026-05-28T13:45:45.000Z</time>
      </trkpt>
      <trkpt lat="44.01134" lon="3.51051">
        <ele>1209.4</ele>
        <time>2026-05-28T13:45:46.000Z</time>
      </trkpt>
      <trkpt lat="44.01133" lon="3.51051">
        <ele>1209</ele>
        <time>2026-05-28T13:45:47.000Z</time>
      </trkpt>
      <trkpt lat="44.01132" lon="3.51051">
        <ele>1208.8</ele>
        <time>2026-05-28T13:45:48.000Z</time>
      </trkpt>
      <trkpt lat="44.01131" lon="3.5105">
        <ele>1208.5</ele>
        <time>2026-05-28T13:45:49.000Z</time>
      </trkpt>
      <trkpt lat="44.0113" lon="3.5105">
        <ele>1208</ele>
        <time>2026-05-28T13:45:50.000Z</time>
      </trkpt>
      <trkpt lat="44.01129" lon="3.51049">
        <ele>1207.9</ele>
        <time>2026-05-28T13:45:51.000Z</time>
      </trkpt>
      <trkpt lat="44.01128" lon="3.51048">
        <ele>1207.8</ele>
        <time>2026-05-28T13:45:52.000Z</time>
      </trkpt>
      <trkpt lat="44.01127" lon="3.51048">
        <ele>1207.8</ele>
        <time>2026-05-28T13:45:53.000Z</time>
      </trkpt>
      <trkpt lat="44.01126" lon="3.51048">
        <ele>1207.6</ele>
        <time>2026-05-28T13:45:54.000Z</time>
      </trkpt>
      <trkpt lat="44.01125" lon="3.51049">
        <ele>1207.4</ele>
        <time>2026-05-28T13:45:55.000Z</time>
      </trkpt>
      <trkpt lat="44.01125" lon="3.51049">
        <ele>1207.3</ele>
        <time>2026-05-28T13:45:56.000Z</time>
      </trkpt>
      <trkpt lat="44.01124" lon="3.51048">
        <ele>1207.1</ele>
        <time>2026-05-28T13:45:57.000Z</time>
      </trkpt>
      <trkpt lat="44.01123" lon="3.51048">
        <ele>1207</ele>
        <time>2026-05-28T13:45:58.000Z</time>
      </trkpt>
      <trkpt lat="44.01122" lon="3.51047">
        <ele>1207.1</ele>
        <time>2026-05-28T13:45:59.000Z</time>
      </trkpt>
      <trkpt lat="44.01121" lon="3.51047">
        <ele>1206.8</ele>
        <time>2026-05-28T13:46:00.000Z</time>
      </trkpt>
      <trkpt lat="44.0112" lon="3.51046">
        <ele>1206.5</ele>
        <time>2026-05-28T13:46:01.000Z</time>
      </trkpt>
      <trkpt lat="44.01119" lon="3.51045">
        <ele>1206.4</ele>
        <time>2026-05-28T13:46:02.000Z</time>
      </trkpt>
      <trkpt lat="44.01118" lon="3.51045">
        <ele>1206.5</ele>
        <time>2026-05-28T13:46:03.000Z</time>
      </trkpt>
      <trkpt lat="44.01117" lon="3.51045">
        <ele>1206.6</ele>
        <time>2026-05-28T13:46:04.000Z</time>
      </trkpt>
      <trkpt lat="44.01116" lon="3.51044">
        <ele>1206.4</ele>
        <time>2026-05-28T13:46:05.000Z</time>
      </trkpt>
      <trkpt lat="44.01116" lon="3.51044">
        <ele>1206.3</ele>
        <time>2026-05-28T13:46:06.000Z</time>
      </trkpt>
      <trkpt lat="44.01115" lon="3.51044">
        <ele>1206.2</ele>
        <time>2026-05-28T13:46:07.000Z</time>
      </trkpt>
      <trkpt lat="44.01114" lon="3.51043">
        <ele>1206</ele>
        <time>2026-05-28T13:46:08.000Z</time>
      </trkpt>
      <trkpt lat="44.01113" lon="3.51043">
        <ele>1205.9</ele>
        <time>2026-05-28T13:46:09.000Z</time>
      </trkpt>
      <trkpt lat="44.01112" lon="3.51042">
        <ele>1206.1</ele>
        <time>2026-05-28T13:46:10.000Z</time>
      </trkpt>
      <trkpt lat="44.01112" lon="3.51042">
        <ele>1205.6</ele>
        <time>2026-05-28T13:46:11.000Z</time>
      </trkpt>
      <trkpt lat="44.01111" lon="3.51042">
        <ele>1205.3</ele>
        <time>2026-05-28T13:46:12.000Z</time>
      </trkpt>
      <trkpt lat="44.01111" lon="3.51042">
        <ele>1205</ele>
        <time>2026-05-28T13:46:13.000Z</time>
      </trkpt>
      <trkpt lat="44.0111" lon="3.51041">
        <ele>1205</ele>
        <time>2026-05-28T13:46:14.000Z</time>
      </trkpt>
      <trkpt lat="44.0111" lon="3.51042">
        <ele>1204.8</ele>
        <time>2026-05-28T13:46:15.000Z</time>
      </trkpt>
      <trkpt lat="44.0111" lon="3.51042">
        <ele>1204.4</ele>
        <time>2026-05-28T13:46:16.000Z</time>
      </trkpt>
      <trkpt lat="44.0111" lon="3.51042">
        <ele>1204.1</ele>
        <time>2026-05-28T13:46:17.000Z</time>
      </trkpt>
      <trkpt lat="44.01109" lon="3.51041">
        <ele>1203.7</ele>
        <time>2026-05-28T13:46:18.000Z</time>
      </trkpt>
      <trkpt lat="44.01108" lon="3.51041">
        <ele>1203.4</ele>
        <time>2026-05-28T13:46:19.000Z</time>
      </trkpt>
      <trkpt lat="44.01108" lon="3.5104">
        <ele>1203.1</ele>
        <time>2026-05-28T13:46:20.000Z</time>
      </trkpt>
      <trkpt lat="44.01107" lon="3.51041">
        <ele>1202.9</ele>
        <time>2026-05-28T13:46:21.000Z</time>
      </trkpt>
      <trkpt lat="44.01107" lon="3.51041">
        <ele>1202.7</ele>
        <time>2026-05-28T13:46:22.000Z</time>
      </trkpt>
      <trkpt lat="44.01106" lon="3.5104">
        <ele>1202.7</ele>
        <time>2026-05-28T13:46:23.000Z</time>
      </trkpt>
      <trkpt lat="44.01105" lon="3.51039">
        <ele>1202.5</ele>
        <time>2026-05-28T13:46:24.000Z</time>
      </trkpt>
      <trkpt lat="44.01104" lon="3.51038">
        <ele>1202.4</ele>
        <time>2026-05-28T13:46:25.000Z</time>
      </trkpt>
      <trkpt lat="44.01104" lon="3.51038">
        <ele>1202.2</ele>
        <time>2026-05-28T13:46:26.000Z</time>
      </trkpt>
      <trkpt lat="44.01103" lon="3.51038">
        <ele>1201.8</ele>
        <time>2026-05-28T13:46:27.000Z</time>
      </trkpt>
      <trkpt lat="44.01102" lon="3.51038">
        <ele>1201.5</ele>
        <time>2026-05-28T13:46:28.000Z</time>
      </trkpt>
      <trkpt lat="44.01102" lon="3.51038">
        <ele>1201.4</ele>
        <time>2026-05-28T13:46:29.000Z</time>
      </trkpt>
      <trkpt lat="44.011" lon="3.51038">
        <ele>1201.4</ele>
        <time>2026-05-28T13:46:30.000Z</time>
      </trkpt>
      <trkpt lat="44.011" lon="3.51037">
        <ele>1201.4</ele>
        <time>2026-05-28T13:46:31.000Z</time>
      </trkpt>
      <trkpt lat="44.01099" lon="3.51037">
        <ele>1201.4</ele>
        <time>2026-05-28T13:46:32.000Z</time>
      </trkpt>
      <trkpt lat="44.01098" lon="3.51036">
        <ele>1201.3</ele>
        <time>2026-05-28T13:46:33.000Z</time>
      </trkpt>
      <trkpt lat="44.01098" lon="3.51035">
        <ele>1201.1</ele>
        <time>2026-05-28T13:46:34.000Z</time>
      </trkpt>
      <trkpt lat="44.01097" lon="3.51035">
        <ele>1200.7</ele>
        <time>2026-05-28T13:46:35.000Z</time>
      </trkpt>
      <trkpt lat="44.01096" lon="3.51034">
        <ele>1200.5</ele>
        <time>2026-05-28T13:46:36.000Z</time>
      </trkpt>
      <trkpt lat="44.01096" lon="3.51033">
        <ele>1200.5</ele>
        <time>2026-05-28T13:46:37.000Z</time>
      </trkpt>
      <trkpt lat="44.01095" lon="3.51033">
        <ele>1200.2</ele>
        <time>2026-05-28T13:46:38.000Z</time>
      </trkpt>
      <trkpt lat="44.01095" lon="3.51033">
        <ele>1200.2</ele>
        <time>2026-05-28T13:46:39.000Z</time>
      </trkpt>
      <trkpt lat="44.01094" lon="3.51033">
        <ele>1200</ele>
        <time>2026-05-28T13:46:40.000Z</time>
      </trkpt>
      <trkpt lat="44.01093" lon="3.51033">
        <ele>1199.7</ele>
        <time>2026-05-28T13:46:41.000Z</time>
      </trkpt>
      <trkpt lat="44.01092" lon="3.51033">
        <ele>1199.4</ele>
        <time>2026-05-28T13:46:42.000Z</time>
      </trkpt>
      <trkpt lat="44.01092" lon="3.51033">
        <ele>1199.3</ele>
        <time>2026-05-28T13:46:43.000Z</time>
      </trkpt>
      <trkpt lat="44.01091" lon="3.51033">
        <ele>1199.1</ele>
        <time>2026-05-28T13:46:44.000Z</time>
      </trkpt>
      <trkpt lat="44.0109" lon="3.51033">
        <ele>1198.9</ele>
        <time>2026-05-28T13:46:45.000Z</time>
      </trkpt>
      <trkpt lat="44.01089" lon="3.51033">
        <ele>1198.6</ele>
        <time>2026-05-28T13:46:46.000Z</time>
      </trkpt>
      <trkpt lat="44.01089" lon="3.51033">
        <ele>1198.4</ele>
        <time>2026-05-28T13:46:47.000Z</time>
      </trkpt>
      <trkpt lat="44.01088" lon="3.51032">
        <ele>1198.4</ele>
        <time>2026-05-28T13:46:48.000Z</time>
      </trkpt>
      <trkpt lat="44.01088" lon="3.51032">
        <ele>1198.4</ele>
        <time>2026-05-28T13:46:49.000Z</time>
      </trkpt>
      <trkpt lat="44.01087" lon="3.51032">
        <ele>1198.5</ele>
        <time>2026-05-28T13:46:50.000Z</time>
      </trkpt>
      <trkpt lat="44.01086" lon="3.51032">
        <ele>1198.5</ele>
        <time>2026-05-28T13:46:51.000Z</time>
      </trkpt>
      <trkpt lat="44.01085" lon="3.51032">
        <ele>1198.5</ele>
        <time>2026-05-28T13:46:52.000Z</time>
      </trkpt>
      <trkpt lat="44.01084" lon="3.51032">
        <ele>1198.2</ele>
        <time>2026-05-28T13:46:53.000Z</time>
      </trkpt>
      <trkpt lat="44.01083" lon="3.51031">
        <ele>1198</ele>
        <time>2026-05-28T13:46:54.000Z</time>
      </trkpt>
      <trkpt lat="44.01082" lon="3.51031">
        <ele>1197.9</ele>
        <time>2026-05-28T13:46:55.000Z</time>
      </trkpt>
      <trkpt lat="44.01081" lon="3.5103">
        <ele>1197.7</ele>
        <time>2026-05-28T13:46:56.000Z</time>
      </trkpt>
      <trkpt lat="44.0108" lon="3.51029">
        <ele>1197.7</ele>
        <time>2026-05-28T13:46:57.000Z</time>
      </trkpt>
      <trkpt lat="44.01079" lon="3.51028">
        <ele>1197.5</ele>
        <time>2026-05-28T13:46:58.000Z</time>
      </trkpt>
      <trkpt lat="44.01078" lon="3.51028">
        <ele>1197.5</ele>
        <time>2026-05-28T13:46:59.000Z</time>
      </trkpt>
      <trkpt lat="44.01077" lon="3.51027">
        <ele>1197.2</ele>
        <time>2026-05-28T13:47:00.000Z</time>
      </trkpt>
      <trkpt lat="44.01076" lon="3.51027">
        <ele>1197</ele>
        <time>2026-05-28T13:47:01.000Z</time>
      </trkpt>
      <trkpt lat="44.01075" lon="3.51026">
        <ele>1197</ele>
        <time>2026-05-28T13:47:02.000Z</time>
      </trkpt>
      <trkpt lat="44.01074" lon="3.51026">
        <ele>1197</ele>
        <time>2026-05-28T13:47:03.000Z</time>
      </trkpt>
      <trkpt lat="44.01073" lon="3.51025">
        <ele>1197.1</ele>
        <time>2026-05-28T13:47:04.000Z</time>
      </trkpt>
      <trkpt lat="44.01073" lon="3.51025">
        <ele>1197</ele>
        <time>2026-05-28T13:47:05.000Z</time>
      </trkpt>
      <trkpt lat="44.01072" lon="3.51024">
        <ele>1197</ele>
        <time>2026-05-28T13:47:06.000Z</time>
      </trkpt>
      <trkpt lat="44.01071" lon="3.51023">
        <ele>1197</ele>
        <time>2026-05-28T13:47:07.000Z</time>
      </trkpt>
      <trkpt lat="44.0107" lon="3.51023">
        <ele>1196.9</ele>
        <time>2026-05-28T13:47:08.000Z</time>
      </trkpt>
      <trkpt lat="44.01069" lon="3.51022">
        <ele>1196.6</ele>
        <time>2026-05-28T13:47:09.000Z</time>
      </trkpt>
      <trkpt lat="44.01068" lon="3.51021">
        <ele>1196.5</ele>
        <time>2026-05-28T13:47:10.000Z</time>
      </trkpt>
      <trkpt lat="44.01067" lon="3.5102">
        <ele>1196.4</ele>
        <time>2026-05-28T13:47:11.000Z</time>
      </trkpt>
      <trkpt lat="44.01066" lon="3.51019">
        <ele>1196.3</ele>
        <time>2026-05-28T13:47:12.000Z</time>
      </trkpt>
      <trkpt lat="44.01066" lon="3.51018">
        <ele>1196.1</ele>
        <time>2026-05-28T13:47:13.000Z</time>
      </trkpt>
      <trkpt lat="44.01064" lon="3.51017">
        <ele>1196.1</ele>
        <time>2026-05-28T13:47:14.000Z</time>
      </trkpt>
      <trkpt lat="44.01063" lon="3.51016">
        <ele>1195.9</ele>
        <time>2026-05-28T13:47:15.000Z</time>
      </trkpt>
      <trkpt lat="44.01062" lon="3.51015">
        <ele>1195.7</ele>
        <time>2026-05-28T13:47:16.000Z</time>
      </trkpt>
      <trkpt lat="44.0106" lon="3.51016">
        <ele>1195.6</ele>
        <time>2026-05-28T13:47:17.000Z</time>
      </trkpt>
      <trkpt lat="44.01059" lon="3.51015">
        <ele>1195.5</ele>
        <time>2026-05-28T13:47:18.000Z</time>
      </trkpt>
      <trkpt lat="44.01058" lon="3.51015">
        <ele>1195.3</ele>
        <time>2026-05-28T13:47:19.000Z</time>
      </trkpt>
      <trkpt lat="44.01057" lon="3.51015">
        <ele>1195.1</ele>
        <time>2026-05-28T13:47:20.000Z</time>
      </trkpt>
      <trkpt lat="44.01056" lon="3.51016">
        <ele>1195</ele>
        <time>2026-05-28T13:47:21.000Z</time>
      </trkpt>
      <trkpt lat="44.01056" lon="3.51016">
        <ele>1194.9</ele>
        <time>2026-05-28T13:47:22.000Z</time>
      </trkpt>
      <trkpt lat="44.01055" lon="3.51016">
        <ele>1194.9</ele>
        <time>2026-05-28T13:47:23.000Z</time>
      </trkpt>
      <trkpt lat="44.01054" lon="3.51015">
        <ele>1195.1</ele>
        <time>2026-05-28T13:47:24.000Z</time>
      </trkpt>
      <trkpt lat="44.01052" lon="3.51014">
        <ele>1195</ele>
        <time>2026-05-28T13:47:25.000Z</time>
      </trkpt>
      <trkpt lat="44.01051" lon="3.51014">
        <ele>1195.1</ele>
        <time>2026-05-28T13:47:26.000Z</time>
      </trkpt>
      <trkpt lat="44.01051" lon="3.51013">
        <ele>1195</ele>
        <time>2026-05-28T13:47:27.000Z</time>
      </trkpt>
      <trkpt lat="44.0105" lon="3.51014">
        <ele>1195</ele>
        <time>2026-05-28T13:47:28.000Z</time>
      </trkpt>
      <trkpt lat="44.01049" lon="3.51015">
        <ele>1194.8</ele>
        <time>2026-05-28T13:47:29.000Z</time>
      </trkpt>
      <trkpt lat="44.01049" lon="3.51016">
        <ele>1194.5</ele>
        <time>2026-05-28T13:47:30.000Z</time>
      </trkpt>
      <trkpt lat="44.01048" lon="3.51016">
        <ele>1194.5</ele>
        <time>2026-05-28T13:47:31.000Z</time>
      </trkpt>
      <trkpt lat="44.01047" lon="3.51017">
        <ele>1194.5</ele>
        <time>2026-05-28T13:47:32.000Z</time>
      </trkpt>
      <trkpt lat="44.01046" lon="3.51017">
        <ele>1194.4</ele>
        <time>2026-05-28T13:47:33.000Z</time>
      </trkpt>
      <trkpt lat="44.01045" lon="3.51017">
        <ele>1194.2</ele>
        <time>2026-05-28T13:47:34.000Z</time>
      </trkpt>
      <trkpt lat="44.01044" lon="3.51017">
        <ele>1194.1</ele>
        <time>2026-05-28T13:47:35.000Z</time>
      </trkpt>
      <trkpt lat="44.01044" lon="3.51017">
        <ele>1194.1</ele>
        <time>2026-05-28T13:47:36.000Z</time>
      </trkpt>
      <trkpt lat="44.01045" lon="3.51017">
        <ele>1194.1</ele>
        <time>2026-05-28T13:47:37.000Z</time>
      </trkpt>
      <trkpt lat="44.01045" lon="3.51017">
        <ele>1194.1</ele>
        <time>2026-05-28T13:47:38.000Z</time>
      </trkpt>
      <trkpt lat="44.01044" lon="3.51017">
        <ele>1193.9</ele>
        <time>2026-05-28T13:47:39.000Z</time>
      </trkpt>
      <trkpt lat="44.01044" lon="3.51017">
        <ele>1193.6</ele>
        <time>2026-05-28T13:47:40.000Z</time>
      </trkpt>
      <trkpt lat="44.01043" lon="3.51018">
        <ele>1193.4</ele>
        <time>2026-05-28T13:47:41.000Z</time>
      </trkpt>
      <trkpt lat="44.01042" lon="3.51018">
        <ele>1193.2</ele>
        <time>2026-05-28T13:47:42.000Z</time>
      </trkpt>
      <trkpt lat="44.01041" lon="3.51018">
        <ele>1193</ele>
        <time>2026-05-28T13:47:43.000Z</time>
      </trkpt>
      <trkpt lat="44.01039" lon="3.51018">
        <ele>1192.9</ele>
        <time>2026-05-28T13:47:44.000Z</time>
      </trkpt>
      <trkpt lat="44.01039" lon="3.51018">
        <ele>1192.9</ele>
        <time>2026-05-28T13:47:45.000Z</time>
      </trkpt>
      <trkpt lat="44.01038" lon="3.51018">
        <ele>1192.9</ele>
        <time>2026-05-28T13:47:46.000Z</time>
      </trkpt>
      <trkpt lat="44.01038" lon="3.51019">
        <ele>1192.9</ele>
        <time>2026-05-28T13:47:47.000Z</time>
      </trkpt>
      <trkpt lat="44.01038" lon="3.51019">
        <ele>1192.6</ele>
        <time>2026-05-28T13:47:48.000Z</time>
      </trkpt>
      <trkpt lat="44.01038" lon="3.51019">
        <ele>1192.4</ele>
        <time>2026-05-28T13:47:49.000Z</time>
      </trkpt>
      <trkpt lat="44.01038" lon="3.51019">
        <ele>1192.3</ele>
        <time>2026-05-28T13:47:50.000Z</time>
      </trkpt>
      <trkpt lat="44.01038" lon="3.5102">
        <ele>1192.2</ele>
        <time>2026-05-28T13:47:51.000Z</time>
      </trkpt>
      <trkpt lat="44.01038" lon="3.5102">
        <ele>1192.3</ele>
        <time>2026-05-28T13:47:52.000Z</time>
      </trkpt>
      <trkpt lat="44.01038" lon="3.51019">
        <ele>1192.3</ele>
        <time>2026-05-28T13:47:53.000Z</time>
      </trkpt>
      <trkpt lat="44.01038" lon="3.51019">
        <ele>1192.3</ele>
        <time>2026-05-28T13:47:54.000Z</time>
      </trkpt>
      <trkpt lat="44.01037" lon="3.51019">
        <ele>1192.1</ele>
        <time>2026-05-28T13:47:55.000Z</time>
      </trkpt>
      <trkpt lat="44.01037" lon="3.5102">
        <ele>1191.9</ele>
        <time>2026-05-28T13:47:56.000Z</time>
      </trkpt>
      <trkpt lat="44.01036" lon="3.5102">
        <ele>1191.8</ele>
        <time>2026-05-28T13:47:57.000Z</time>
      </trkpt>
      <trkpt lat="44.01035" lon="3.5102">
        <ele>1191.6</ele>
        <time>2026-05-28T13:47:58.000Z</time>
      </trkpt>
      <trkpt lat="44.01034" lon="3.51019">
        <ele>1191.6</ele>
        <time>2026-05-28T13:47:59.000Z</time>
      </trkpt>
      <trkpt lat="44.01032" lon="3.51018">
        <ele>1191.7</ele>
        <time>2026-05-28T13:48:00.000Z</time>
      </trkpt>
      <trkpt lat="44.01031" lon="3.51017">
        <ele>1191.7</ele>
        <time>2026-05-28T13:48:01.000Z</time>
      </trkpt>
      <trkpt lat="44.0103" lon="3.51017">
        <ele>1191.6</ele>
        <time>2026-05-28T13:48:02.000Z</time>
      </trkpt>
      <trkpt lat="44.01029" lon="3.51017">
        <ele>1191.3</ele>
        <time>2026-05-28T13:48:03.000Z</time>
      </trkpt>
      <trkpt lat="44.01028" lon="3.51018">
        <ele>1191.1</ele>
        <time>2026-05-28T13:48:04.000Z</time>
      </trkpt>
      <trkpt lat="44.01027" lon="3.51019">
        <ele>1191</ele>
        <time>2026-05-28T13:48:05.000Z</time>
      </trkpt>
      <trkpt lat="44.01026" lon="3.51019">
        <ele>1190.9</ele>
        <time>2026-05-28T13:48:06.000Z</time>
      </trkpt>
      <trkpt lat="44.01025" lon="3.51019">
        <ele>1190.8</ele>
        <time>2026-05-28T13:48:07.000Z</time>
      </trkpt>
      <trkpt lat="44.01024" lon="3.51019">
        <ele>1190.9</ele>
        <time>2026-05-28T13:48:08.000Z</time>
      </trkpt>
      <trkpt lat="44.01024" lon="3.51019">
        <ele>1190.8</ele>
        <time>2026-05-28T13:48:09.000Z</time>
      </trkpt>
      <trkpt lat="44.01023" lon="3.51019">
        <ele>1190.6</ele>
        <time>2026-05-28T13:48:10.000Z</time>
      </trkpt>
      <trkpt lat="44.01022" lon="3.51019">
        <ele>1190.6</ele>
        <time>2026-05-28T13:48:11.000Z</time>
      </trkpt>
      <trkpt lat="44.01021" lon="3.51019">
        <ele>1190.5</ele>
        <time>2026-05-28T13:48:12.000Z</time>
      </trkpt>
      <trkpt lat="44.0102" lon="3.51018">
        <ele>1190.6</ele>
        <time>2026-05-28T13:48:13.000Z</time>
      </trkpt>
      <trkpt lat="44.01019" lon="3.51018">
        <ele>1190.5</ele>
        <time>2026-05-28T13:48:14.000Z</time>
      </trkpt>
      <trkpt lat="44.01018" lon="3.51017">
        <ele>1190.6</ele>
        <time>2026-05-28T13:48:15.000Z</time>
      </trkpt>
      <trkpt lat="44.01018" lon="3.51016">
        <ele>1190.7</ele>
        <time>2026-05-28T13:48:16.000Z</time>
      </trkpt>
      <trkpt lat="44.01017" lon="3.51015">
        <ele>1190.6</ele>
        <time>2026-05-28T13:48:17.000Z</time>
      </trkpt>
      <trkpt lat="44.01016" lon="3.51014">
        <ele>1190.8</ele>
        <time>2026-05-28T13:48:18.000Z</time>
      </trkpt>
      <trkpt lat="44.01015" lon="3.51014">
        <ele>1190.5</ele>
        <time>2026-05-28T13:48:19.000Z</time>
      </trkpt>
      <trkpt lat="44.01014" lon="3.51014">
        <ele>1190.4</ele>
        <time>2026-05-28T13:48:20.000Z</time>
      </trkpt>
      <trkpt lat="44.01013" lon="3.51015">
        <ele>1190.5</ele>
        <time>2026-05-28T13:48:21.000Z</time>
      </trkpt>
      <trkpt lat="44.01012" lon="3.51015">
        <ele>1190.4</ele>
        <time>2026-05-28T13:48:22.000Z</time>
      </trkpt>
      <trkpt lat="44.01011" lon="3.51015">
        <ele>1190</ele>
        <time>2026-05-28T13:48:23.000Z</time>
      </trkpt>
      <trkpt lat="44.01011" lon="3.51016">
        <ele>1189.6</ele>
        <time>2026-05-28T13:48:24.000Z</time>
      </trkpt>
      <trkpt lat="44.0101" lon="3.51016">
        <ele>1189.1</ele>
        <time>2026-05-28T13:48:25.000Z</time>
      </trkpt>
      <trkpt lat="44.01009" lon="3.51017">
        <ele>1188.9</ele>
        <time>2026-05-28T13:48:26.000Z</time>
      </trkpt>
      <trkpt lat="44.01008" lon="3.51017">
        <ele>1188.8</ele>
        <time>2026-05-28T13:48:27.000Z</time>
      </trkpt>
      <trkpt lat="44.01008" lon="3.51017">
        <ele>1188.4</ele>
        <time>2026-05-28T13:48:28.000Z</time>
      </trkpt>
      <trkpt lat="44.01007" lon="3.51018">
        <ele>1188.2</ele>
        <time>2026-05-28T13:48:29.000Z</time>
      </trkpt>
      <trkpt lat="44.01006" lon="3.51017">
        <ele>1187.8</ele>
        <time>2026-05-28T13:48:30.000Z</time>
      </trkpt>
      <trkpt lat="44.01005" lon="3.51018">
        <ele>1187.5</ele>
        <time>2026-05-28T13:48:31.000Z</time>
      </trkpt>
      <trkpt lat="44.01005" lon="3.51018">
        <ele>1187.3</ele>
        <time>2026-05-28T13:48:32.000Z</time>
      </trkpt>
      <trkpt lat="44.01005" lon="3.51018">
        <ele>1187.2</ele>
        <time>2026-05-28T13:48:33.000Z</time>
      </trkpt>
      <trkpt lat="44.01004" lon="3.51018">
        <ele>1187.4</ele>
        <time>2026-05-28T13:48:34.000Z</time>
      </trkpt>
      <trkpt lat="44.01003" lon="3.51018">
        <ele>1187.4</ele>
        <time>2026-05-28T13:48:35.000Z</time>
      </trkpt>
      <trkpt lat="44.01002" lon="3.51018">
        <ele>1187.5</ele>
        <time>2026-05-28T13:48:36.000Z</time>
      </trkpt>
      <trkpt lat="44.01001" lon="3.51017">
        <ele>1187.5</ele>
        <time>2026-05-28T13:48:37.000Z</time>
      </trkpt>
      <trkpt lat="44.01" lon="3.51017">
        <ele>1187.4</ele>
        <time>2026-05-28T13:48:38.000Z</time>
      </trkpt>
      <trkpt lat="44.00999" lon="3.51017">
        <ele>1187</ele>
        <time>2026-05-28T13:48:39.000Z</time>
      </trkpt>
      <trkpt lat="44.00998" lon="3.51017">
        <ele>1186.7</ele>
        <time>2026-05-28T13:48:40.000Z</time>
      </trkpt>
      <trkpt lat="44.00997" lon="3.51016">
        <ele>1186.6</ele>
        <time>2026-05-28T13:48:41.000Z</time>
      </trkpt>
      <trkpt lat="44.00996" lon="3.51015">
        <ele>1186.4</ele>
        <time>2026-05-28T13:48:42.000Z</time>
      </trkpt>
      <trkpt lat="44.00995" lon="3.51015">
        <ele>1186.2</ele>
        <time>2026-05-28T13:48:43.000Z</time>
      </trkpt>
      <trkpt lat="44.00994" lon="3.51014">
        <ele>1186.1</ele>
        <time>2026-05-28T13:48:44.000Z</time>
      </trkpt>
      <trkpt lat="44.00993" lon="3.51014">
        <ele>1186</ele>
        <time>2026-05-28T13:48:45.000Z</time>
      </trkpt>
      <trkpt lat="44.00992" lon="3.51013">
        <ele>1185.9</ele>
        <time>2026-05-28T13:48:46.000Z</time>
      </trkpt>
      <trkpt lat="44.00992" lon="3.51013">
        <ele>1185.7</ele>
        <time>2026-05-28T13:48:47.000Z</time>
      </trkpt>
      <trkpt lat="44.00991" lon="3.51013">
        <ele>1185.5</ele>
        <time>2026-05-28T13:48:48.000Z</time>
      </trkpt>
      <trkpt lat="44.0099" lon="3.51013">
        <ele>1185.3</ele>
        <time>2026-05-28T13:48:49.000Z</time>
      </trkpt>
      <trkpt lat="44.00989" lon="3.51012">
        <ele>1185.3</ele>
        <time>2026-05-28T13:48:50.000Z</time>
      </trkpt>
      <trkpt lat="44.00989" lon="3.51012">
        <ele>1185.1</ele>
        <time>2026-05-28T13:48:51.000Z</time>
      </trkpt>
      <trkpt lat="44.00989" lon="3.51012">
        <ele>1185.1</ele>
        <time>2026-05-28T13:48:52.000Z</time>
      </trkpt>
      <trkpt lat="44.00988" lon="3.51012">
        <ele>1185</ele>
        <time>2026-05-28T13:48:53.000Z</time>
      </trkpt>
      <trkpt lat="44.00987" lon="3.51011">
        <ele>1185</ele>
        <time>2026-05-28T13:48:54.000Z</time>
      </trkpt>
      <trkpt lat="44.00987" lon="3.51009">
        <ele>1185.2</ele>
        <time>2026-05-28T13:48:55.000Z</time>
      </trkpt>
      <trkpt lat="44.00986" lon="3.51008">
        <ele>1185.1</ele>
        <time>2026-05-28T13:48:56.000Z</time>
      </trkpt>
      <trkpt lat="44.00986" lon="3.51007">
        <ele>1185.1</ele>
        <time>2026-05-28T13:48:57.000Z</time>
      </trkpt>
      <trkpt lat="44.00985" lon="3.51007">
        <ele>1185.1</ele>
        <time>2026-05-28T13:48:58.000Z</time>
      </trkpt>
      <trkpt lat="44.00984" lon="3.51006">
        <ele>1185.1</ele>
        <time>2026-05-28T13:48:59.000Z</time>
      </trkpt>
      <trkpt lat="44.00984" lon="3.51006">
        <ele>1184.9</ele>
        <time>2026-05-28T13:49:00.000Z</time>
      </trkpt>
      <trkpt lat="44.00983" lon="3.51005">
        <ele>1184.7</ele>
        <time>2026-05-28T13:49:01.000Z</time>
      </trkpt>
      <trkpt lat="44.00982" lon="3.51005">
        <ele>1184.7</ele>
        <time>2026-05-28T13:49:02.000Z</time>
      </trkpt>
      <trkpt lat="44.00981" lon="3.51005">
        <ele>1184.6</ele>
        <time>2026-05-28T13:49:03.000Z</time>
      </trkpt>
      <trkpt lat="44.00981" lon="3.51006">
        <ele>1184.4</ele>
        <time>2026-05-28T13:49:04.000Z</time>
      </trkpt>
      <trkpt lat="44.0098" lon="3.51006">
        <ele>1184.2</ele>
        <time>2026-05-28T13:49:05.000Z</time>
      </trkpt>
      <trkpt lat="44.0098" lon="3.51006">
        <ele>1183.9</ele>
        <time>2026-05-28T13:49:06.000Z</time>
      </trkpt>
      <trkpt lat="44.00978" lon="3.51007">
        <ele>1183.7</ele>
        <time>2026-05-28T13:49:07.000Z</time>
      </trkpt>
      <trkpt lat="44.00978" lon="3.51006">
        <ele>1183.3</ele>
        <time>2026-05-28T13:49:08.000Z</time>
      </trkpt>
      <trkpt lat="44.00977" lon="3.51006">
        <ele>1183.4</ele>
        <time>2026-05-28T13:49:09.000Z</time>
      </trkpt>
      <trkpt lat="44.00976" lon="3.51005">
        <ele>1183.5</ele>
        <time>2026-05-28T13:49:10.000Z</time>
      </trkpt>
      <trkpt lat="44.00975" lon="3.51005">
        <ele>1183.4</ele>
        <time>2026-05-28T13:49:11.000Z</time>
      </trkpt>
      <trkpt lat="44.00975" lon="3.51004">
        <ele>1183.2</ele>
        <time>2026-05-28T13:49:12.000Z</time>
      </trkpt>
      <trkpt lat="44.00974" lon="3.51004">
        <ele>1182.7</ele>
        <time>2026-05-28T13:49:13.000Z</time>
      </trkpt>
      <trkpt lat="44.00974" lon="3.51004">
        <ele>1182.6</ele>
        <time>2026-05-28T13:49:14.000Z</time>
      </trkpt>
      <trkpt lat="44.00973" lon="3.51003">
        <ele>1182.4</ele>
        <time>2026-05-28T13:49:15.000Z</time>
      </trkpt>
      <trkpt lat="44.00972" lon="3.51004">
        <ele>1182.2</ele>
        <time>2026-05-28T13:49:16.000Z</time>
      </trkpt>
      <trkpt lat="44.00971" lon="3.51004">
        <ele>1182</ele>
        <time>2026-05-28T13:49:17.000Z</time>
      </trkpt>
      <trkpt lat="44.0097" lon="3.51005">
        <ele>1182</ele>
        <time>2026-05-28T13:49:18.000Z</time>
      </trkpt>
      <trkpt lat="44.00969" lon="3.51005">
        <ele>1182</ele>
        <time>2026-05-28T13:49:19.000Z</time>
      </trkpt>
      <trkpt lat="44.00968" lon="3.51006">
        <ele>1181.9</ele>
        <time>2026-05-28T13:49:20.000Z</time>
      </trkpt>
      <trkpt lat="44.00967" lon="3.51006">
        <ele>1181.5</ele>
        <time>2026-05-28T13:49:21.000Z</time>
      </trkpt>
      <trkpt lat="44.00966" lon="3.51007">
        <ele>1181.3</ele>
        <time>2026-05-28T13:49:22.000Z</time>
      </trkpt>
      <trkpt lat="44.00966" lon="3.51007">
        <ele>1181.1</ele>
        <time>2026-05-28T13:49:23.000Z</time>
      </trkpt>
      <trkpt lat="44.00964" lon="3.51006">
        <ele>1180.8</ele>
        <time>2026-05-28T13:49:24.000Z</time>
      </trkpt>
      <trkpt lat="44.00963" lon="3.51007">
        <ele>1180.7</ele>
        <time>2026-05-28T13:49:25.000Z</time>
      </trkpt>
      <trkpt lat="44.00962" lon="3.51007">
        <ele>1180.6</ele>
        <time>2026-05-28T13:49:26.000Z</time>
      </trkpt>
      <trkpt lat="44.0096" lon="3.51008">
        <ele>1180.5</ele>
        <time>2026-05-28T13:49:27.000Z</time>
      </trkpt>
      <trkpt lat="44.00959" lon="3.51009">
        <ele>1180.2</ele>
        <time>2026-05-28T13:49:28.000Z</time>
      </trkpt>
      <trkpt lat="44.00958" lon="3.51009">
        <ele>1180.1</ele>
        <time>2026-05-28T13:49:29.000Z</time>
      </trkpt>
      <trkpt lat="44.00957" lon="3.51009">
        <ele>1180.2</ele>
        <time>2026-05-28T13:49:30.000Z</time>
      </trkpt>
      <trkpt lat="44.00956" lon="3.51009">
        <ele>1180.3</ele>
        <time>2026-05-28T13:49:31.000Z</time>
      </trkpt>
      <trkpt lat="44.00955" lon="3.51009">
        <ele>1180.4</ele>
        <time>2026-05-28T13:49:32.000Z</time>
      </trkpt>
      <trkpt lat="44.00953" lon="3.51009">
        <ele>1180.3</ele>
        <time>2026-05-28T13:49:33.000Z</time>
      </trkpt>
      <trkpt lat="44.00952" lon="3.51009">
        <ele>1180</ele>
        <time>2026-05-28T13:49:34.000Z</time>
      </trkpt>
      <trkpt lat="44.00951" lon="3.51009">
        <ele>1179.9</ele>
        <time>2026-05-28T13:49:35.000Z</time>
      </trkpt>
      <trkpt lat="44.0095" lon="3.51009">
        <ele>1179.9</ele>
        <time>2026-05-28T13:49:36.000Z</time>
      </trkpt>
      <trkpt lat="44.00949" lon="3.51009">
        <ele>1179.8</ele>
        <time>2026-05-28T13:49:37.000Z</time>
      </trkpt>
      <trkpt lat="44.00949" lon="3.51008">
        <ele>1179.8</ele>
        <time>2026-05-28T13:49:38.000Z</time>
      </trkpt>
      <trkpt lat="44.00948" lon="3.51008">
        <ele>1179.7</ele>
        <time>2026-05-28T13:49:39.000Z</time>
      </trkpt>
      <trkpt lat="44.00947" lon="3.51007">
        <ele>1179.5</ele>
        <time>2026-05-28T13:49:40.000Z</time>
      </trkpt>
      <trkpt lat="44.00946" lon="3.51007">
        <ele>1179.4</ele>
        <time>2026-05-28T13:49:41.000Z</time>
      </trkpt>
      <trkpt lat="44.00945" lon="3.51008">
        <ele>1179.5</ele>
        <time>2026-05-28T13:49:42.000Z</time>
      </trkpt>
      <trkpt lat="44.00944" lon="3.51007">
        <ele>1179.5</ele>
        <time>2026-05-28T13:49:43.000Z</time>
      </trkpt>
      <trkpt lat="44.00944" lon="3.51007">
        <ele>1179.5</ele>
        <time>2026-05-28T13:49:44.000Z</time>
      </trkpt>
      <trkpt lat="44.00943" lon="3.51008">
        <ele>1179.3</ele>
        <time>2026-05-28T13:49:45.000Z</time>
      </trkpt>
      <trkpt lat="44.00943" lon="3.51008">
        <ele>1179.1</ele>
        <time>2026-05-28T13:49:46.000Z</time>
      </trkpt>
      <trkpt lat="44.00942" lon="3.51009">
        <ele>1179</ele>
        <time>2026-05-28T13:49:47.000Z</time>
      </trkpt>
      <trkpt lat="44.00941" lon="3.51009">
        <ele>1178.8</ele>
        <time>2026-05-28T13:49:48.000Z</time>
      </trkpt>
      <trkpt lat="44.00941" lon="3.51009">
        <ele>1178.7</ele>
        <time>2026-05-28T13:49:49.000Z</time>
      </trkpt>
      <trkpt lat="44.0094" lon="3.5101">
        <ele>1178.2</ele>
        <time>2026-05-28T13:49:50.000Z</time>
      </trkpt>
      <trkpt lat="44.00939" lon="3.5101">
        <ele>1177.9</ele>
        <time>2026-05-28T13:49:51.000Z</time>
      </trkpt>
      <trkpt lat="44.00938" lon="3.5101">
        <ele>1177.6</ele>
        <time>2026-05-28T13:49:52.000Z</time>
      </trkpt>
      <trkpt lat="44.00937" lon="3.51011">
        <ele>1177.5</ele>
        <time>2026-05-28T13:49:53.000Z</time>
      </trkpt>
      <trkpt lat="44.00936" lon="3.51011">
        <ele>1177.6</ele>
        <time>2026-05-28T13:49:54.000Z</time>
      </trkpt>
      <trkpt lat="44.00936" lon="3.51011">
        <ele>1177.7</ele>
        <time>2026-05-28T13:49:55.000Z</time>
      </trkpt>
      <trkpt lat="44.00936" lon="3.5101">
        <ele>1177.9</ele>
        <time>2026-05-28T13:49:56.000Z</time>
      </trkpt>
      <trkpt lat="44.00936" lon="3.5101">
        <ele>1177.8</ele>
        <time>2026-05-28T13:49:57.000Z</time>
      </trkpt>
      <trkpt lat="44.00936" lon="3.5101">
        <ele>1177.9</ele>
        <time>2026-05-28T13:49:58.000Z</time>
      </trkpt>
      <trkpt lat="44.00936" lon="3.5101">
        <ele>1178</ele>
        <time>2026-05-28T13:49:59.000Z</time>
      </trkpt>
      <trkpt lat="44.00935" lon="3.51008">
        <ele>1177.9</ele>
        <time>2026-05-28T13:50:00.000Z</time>
      </trkpt>
      <trkpt lat="44.00934" lon="3.51007">
        <ele>1178.1</ele>
        <time>2026-05-28T13:50:01.000Z</time>
      </trkpt>
      <trkpt lat="44.00933" lon="3.51006">
        <ele>1178.1</ele>
        <time>2026-05-28T13:50:02.000Z</time>
      </trkpt>
      <trkpt lat="44.00932" lon="3.51005">
        <ele>1178</ele>
        <time>2026-05-28T13:50:03.000Z</time>
      </trkpt>
      <trkpt lat="44.00932" lon="3.51005">
        <ele>1177.9</ele>
        <time>2026-05-28T13:50:04.000Z</time>
      </trkpt>
      <trkpt lat="44.00931" lon="3.51005">
        <ele>1177.7</ele>
        <time>2026-05-28T13:50:05.000Z</time>
      </trkpt>
      <trkpt lat="44.00931" lon="3.51006">
        <ele>1177.3</ele>
        <time>2026-05-28T13:50:06.000Z</time>
      </trkpt>
      <trkpt lat="44.0093" lon="3.51007">
        <ele>1177.2</ele>
        <time>2026-05-28T13:50:07.000Z</time>
      </trkpt>
      <trkpt lat="44.00929" lon="3.51007">
        <ele>1177</ele>
        <time>2026-05-28T13:50:08.000Z</time>
      </trkpt>
      <trkpt lat="44.00927" lon="3.51008">
        <ele>1177</ele>
        <time>2026-05-28T13:50:09.000Z</time>
      </trkpt>
      <trkpt lat="44.00925" lon="3.51008">
        <ele>1176.9</ele>
        <time>2026-05-28T13:50:10.000Z</time>
      </trkpt>
      <trkpt lat="44.00924" lon="3.51007">
        <ele>1176.8</ele>
        <time>2026-05-28T13:50:11.000Z</time>
      </trkpt>
      <trkpt lat="44.00923" lon="3.51006">
        <ele>1176.6</ele>
        <time>2026-05-28T13:50:12.000Z</time>
      </trkpt>
      <trkpt lat="44.00922" lon="3.51006">
        <ele>1176.5</ele>
        <time>2026-05-28T13:50:13.000Z</time>
      </trkpt>
      <trkpt lat="44.00921" lon="3.51005">
        <ele>1176.4</ele>
        <time>2026-05-28T13:50:14.000Z</time>
      </trkpt>
      <trkpt lat="44.0092" lon="3.51005">
        <ele>1176.3</ele>
        <time>2026-05-28T13:50:15.000Z</time>
      </trkpt>
      <trkpt lat="44.00918" lon="3.51004">
        <ele>1176.4</ele>
        <time>2026-05-28T13:50:16.000Z</time>
      </trkpt>
      <trkpt lat="44.00917" lon="3.51003">
        <ele>1176.5</ele>
        <time>2026-05-28T13:50:17.000Z</time>
      </trkpt>
      <trkpt lat="44.00916" lon="3.51002">
        <ele>1176.2</ele>
        <time>2026-05-28T13:50:18.000Z</time>
      </trkpt>
      <trkpt lat="44.00916" lon="3.51001">
        <ele>1176</ele>
        <time>2026-05-28T13:50:19.000Z</time>
      </trkpt>
      <trkpt lat="44.00915" lon="3.51001">
        <ele>1175.8</ele>
        <time>2026-05-28T13:50:20.000Z</time>
      </trkpt>
      <trkpt lat="44.00914" lon="3.51">
        <ele>1175.6</ele>
        <time>2026-05-28T13:50:21.000Z</time>
      </trkpt>
      <trkpt lat="44.00913" lon="3.51">
        <ele>1175.6</ele>
        <time>2026-05-28T13:50:22.000Z</time>
      </trkpt>
      <trkpt lat="44.00912" lon="3.51">
        <ele>1175.7</ele>
        <time>2026-05-28T13:50:23.000Z</time>
      </trkpt>
      <trkpt lat="44.00912" lon="3.50998">
        <ele>1175.6</ele>
        <time>2026-05-28T13:50:24.000Z</time>
      </trkpt>
      <trkpt lat="44.00911" lon="3.50997">
        <ele>1175.8</ele>
        <time>2026-05-28T13:50:25.000Z</time>
      </trkpt>
      <trkpt lat="44.0091" lon="3.50997">
        <ele>1175.7</ele>
        <time>2026-05-28T13:50:26.000Z</time>
      </trkpt>
      <trkpt lat="44.00909" lon="3.50996">
        <ele>1175.8</ele>
        <time>2026-05-28T13:50:27.000Z</time>
      </trkpt>
      <trkpt lat="44.00908" lon="3.50995">
        <ele>1175.9</ele>
        <time>2026-05-28T13:50:28.000Z</time>
      </trkpt>
      <trkpt lat="44.00907" lon="3.50995">
        <ele>1175.8</ele>
        <time>2026-05-28T13:50:29.000Z</time>
      </trkpt>
      <trkpt lat="44.00906" lon="3.50995">
        <ele>1175.5</ele>
        <time>2026-05-28T13:50:30.000Z</time>
      </trkpt>
      <trkpt lat="44.00905" lon="3.50995">
        <ele>1175.2</ele>
        <time>2026-05-28T13:50:31.000Z</time>
      </trkpt>
      <trkpt lat="44.00904" lon="3.50995">
        <ele>1175</ele>
        <time>2026-05-28T13:50:32.000Z</time>
      </trkpt>
      <trkpt lat="44.00903" lon="3.50995">
        <ele>1175</ele>
        <time>2026-05-28T13:50:33.000Z</time>
      </trkpt>
      <trkpt lat="44.00901" lon="3.50994">
        <ele>1174.6</ele>
        <time>2026-05-28T13:50:34.000Z</time>
      </trkpt>
      <trkpt lat="44.009" lon="3.50994">
        <ele>1174.4</ele>
        <time>2026-05-28T13:50:35.000Z</time>
      </trkpt>
      <trkpt lat="44.00899" lon="3.50994">
        <ele>1174.3</ele>
        <time>2026-05-28T13:50:36.000Z</time>
      </trkpt>
      <trkpt lat="44.00898" lon="3.50994">
        <ele>1174.1</ele>
        <time>2026-05-28T13:50:37.000Z</time>
      </trkpt>
      <trkpt lat="44.00898" lon="3.50994">
        <ele>1174</ele>
        <time>2026-05-28T13:50:38.000Z</time>
      </trkpt>
      <trkpt lat="44.00897" lon="3.50995">
        <ele>1173.9</ele>
        <time>2026-05-28T13:50:39.000Z</time>
      </trkpt>
      <trkpt lat="44.00896" lon="3.50995">
        <ele>1173.8</ele>
        <time>2026-05-28T13:50:40.000Z</time>
      </trkpt>
      <trkpt lat="44.00895" lon="3.50995">
        <ele>1173.7</ele>
        <time>2026-05-28T13:50:41.000Z</time>
      </trkpt>
      <trkpt lat="44.00894" lon="3.50995">
        <ele>1173.6</ele>
        <time>2026-05-28T13:50:42.000Z</time>
      </trkpt>
      <trkpt lat="44.00894" lon="3.50996">
        <ele>1173.5</ele>
        <time>2026-05-28T13:50:43.000Z</time>
      </trkpt>
      <trkpt lat="44.00893" lon="3.50997">
        <ele>1173.4</ele>
        <time>2026-05-28T13:50:44.000Z</time>
      </trkpt>
      <trkpt lat="44.00892" lon="3.50997">
        <ele>1173.2</ele>
        <time>2026-05-28T13:50:45.000Z</time>
      </trkpt>
      <trkpt lat="44.00892" lon="3.50997">
        <ele>1173</ele>
        <time>2026-05-28T13:50:46.000Z</time>
      </trkpt>
      <trkpt lat="44.00891" lon="3.50997">
        <ele>1172.7</ele>
        <time>2026-05-28T13:50:47.000Z</time>
      </trkpt>
      <trkpt lat="44.00889" lon="3.50997">
        <ele>1172.6</ele>
        <time>2026-05-28T13:50:48.000Z</time>
      </trkpt>
      <trkpt lat="44.00888" lon="3.50997">
        <ele>1172.8</ele>
        <time>2026-05-28T13:50:49.000Z</time>
      </trkpt>
      <trkpt lat="44.00887" lon="3.50997">
        <ele>1172.9</ele>
        <time>2026-05-28T13:50:50.000Z</time>
      </trkpt>
      <trkpt lat="44.00886" lon="3.50998">
        <ele>1172.9</ele>
        <time>2026-05-28T13:50:51.000Z</time>
      </trkpt>
      <trkpt lat="44.00885" lon="3.50999">
        <ele>1172.9</ele>
        <time>2026-05-28T13:50:52.000Z</time>
      </trkpt>
      <trkpt lat="44.00885" lon="3.51">
        <ele>1172.8</ele>
        <time>2026-05-28T13:50:53.000Z</time>
      </trkpt>
      <trkpt lat="44.00883" lon="3.51">
        <ele>1172.6</ele>
        <time>2026-05-28T13:50:54.000Z</time>
      </trkpt>
      <trkpt lat="44.00882" lon="3.51">
        <ele>1172.5</ele>
        <time>2026-05-28T13:50:55.000Z</time>
      </trkpt>
      <trkpt lat="44.00881" lon="3.51001">
        <ele>1172</ele>
        <time>2026-05-28T13:50:56.000Z</time>
      </trkpt>
      <trkpt lat="44.0088" lon="3.51002">
        <ele>1171.7</ele>
        <time>2026-05-28T13:50:57.000Z</time>
      </trkpt>
      <trkpt lat="44.0088" lon="3.51003">
        <ele>1171.6</ele>
        <time>2026-05-28T13:50:58.000Z</time>
      </trkpt>
      <trkpt lat="44.00879" lon="3.51004">
        <ele>1171.5</ele>
        <time>2026-05-28T13:50:59.000Z</time>
      </trkpt>
      <trkpt lat="44.00878" lon="3.51005">
        <ele>1171.4</ele>
        <time>2026-05-28T13:51:00.000Z</time>
      </trkpt>
      <trkpt lat="44.00877" lon="3.51005">
        <ele>1171.3</ele>
        <time>2026-05-28T13:51:01.000Z</time>
      </trkpt>
      <trkpt lat="44.00876" lon="3.51006">
        <ele>1171.1</ele>
        <time>2026-05-28T13:51:02.000Z</time>
      </trkpt>
      <trkpt lat="44.00876" lon="3.51006">
        <ele>1170.9</ele>
        <time>2026-05-28T13:51:03.000Z</time>
      </trkpt>
      <trkpt lat="44.00876" lon="3.51005">
        <ele>1170.9</ele>
        <time>2026-05-28T13:51:04.000Z</time>
      </trkpt>
      <trkpt lat="44.00876" lon="3.51005">
        <ele>1171</ele>
        <time>2026-05-28T13:51:05.000Z</time>
      </trkpt>
      <trkpt lat="44.00876" lon="3.51005">
        <ele>1170.9</ele>
        <time>2026-05-28T13:51:06.000Z</time>
      </trkpt>
      <trkpt lat="44.00877" lon="3.51005">
        <ele>1170.8</ele>
        <time>2026-05-28T13:51:07.000Z</time>
      </trkpt>
      <trkpt lat="44.00876" lon="3.51005">
        <ele>1170.8</ele>
        <time>2026-05-28T13:51:08.000Z</time>
      </trkpt>
      <trkpt lat="44.00877" lon="3.51005">
        <ele>1170.8</ele>
        <time>2026-05-28T13:51:09.000Z</time>
      </trkpt>
      <trkpt lat="44.00876" lon="3.51006">
        <ele>1170.8</ele>
        <time>2026-05-28T13:51:10.000Z</time>
      </trkpt>
      <trkpt lat="44.00876" lon="3.51007">
        <ele>1170.7</ele>
        <time>2026-05-28T13:51:11.000Z</time>
      </trkpt>
      <trkpt lat="44.00875" lon="3.51007">
        <ele>1170.8</ele>
        <time>2026-05-28T13:51:12.000Z</time>
      </trkpt>
      <trkpt lat="44.00874" lon="3.51007">
        <ele>1170.8</ele>
        <time>2026-05-28T13:51:13.000Z</time>
      </trkpt>
      <trkpt lat="44.00873" lon="3.51006">
        <ele>1170.9</ele>
        <time>2026-05-28T13:51:14.000Z</time>
      </trkpt>
      <trkpt lat="44.00872" lon="3.51005">
        <ele>1171</ele>
        <time>2026-05-28T13:51:15.000Z</time>
      </trkpt>
      <trkpt lat="44.00872" lon="3.51003">
        <ele>1171</ele>
        <time>2026-05-28T13:51:16.000Z</time>
      </trkpt>
      <trkpt lat="44.00871" lon="3.51002">
        <ele>1171</ele>
        <time>2026-05-28T13:51:17.000Z</time>
      </trkpt>
      <trkpt lat="44.00871" lon="3.51001">
        <ele>1170.9</ele>
        <time>2026-05-28T13:51:18.000Z</time>
      </trkpt>
      <trkpt lat="44.0087" lon="3.51">
        <ele>1170.9</ele>
        <time>2026-05-28T13:51:19.000Z</time>
      </trkpt>
      <trkpt lat="44.0087" lon="3.50999">
        <ele>1170.8</ele>
        <time>2026-05-28T13:51:20.000Z</time>
      </trkpt>
      <trkpt lat="44.00871" lon="3.50999">
        <ele>1170.8</ele>
        <time>2026-05-28T13:51:21.000Z</time>
      </trkpt>
      <trkpt lat="44.00871" lon="3.50997">
        <ele>1170.9</ele>
        <time>2026-05-28T13:51:22.999Z</time>
      </trkpt>
      <trkpt lat="44.00871" lon="3.50996">
        <ele>1170.7</ele>
        <time>2026-05-28T13:51:23.999Z</time>
      </trkpt>
      <trkpt lat="44.0087" lon="3.50996">
        <ele>1170.6</ele>
        <time>2026-05-28T13:51:24.999Z</time>
      </trkpt>
      <trkpt lat="44.00869" lon="3.50995">
        <ele>1170.7</ele>
        <time>2026-05-28T13:51:25.999Z</time>
      </trkpt>
      <trkpt lat="44.00869" lon="3.50994">
        <ele>1170.7</ele>
        <time>2026-05-28T13:51:26.999Z</time>
      </trkpt>
      <trkpt lat="44.00869" lon="3.50994">
        <ele>1170.7</ele>
        <time>2026-05-28T13:51:27.999Z</time>
      </trkpt>
      <trkpt lat="44.00868" lon="3.50993">
        <ele>1170.5</ele>
        <time>2026-05-28T13:51:28.999Z</time>
      </trkpt>
      <trkpt lat="44.00868" lon="3.50992">
        <ele>1170.4</ele>
        <time>2026-05-28T13:51:29.999Z</time>
      </trkpt>
      <trkpt lat="44.00868" lon="3.50991">
        <ele>1170.2</ele>
        <time>2026-05-28T13:51:30.999Z</time>
      </trkpt>
      <trkpt lat="44.00868" lon="3.50991">
        <ele>1170</ele>
        <time>2026-05-28T13:51:31.999Z</time>
      </trkpt>
      <trkpt lat="44.00868" lon="3.5099">
        <ele>1170</ele>
        <time>2026-05-28T13:51:32.999Z</time>
      </trkpt>
      <trkpt lat="44.00867" lon="3.5099">
        <ele>1170</ele>
        <time>2026-05-28T13:51:33.999Z</time>
      </trkpt>
      <trkpt lat="44.00867" lon="3.50989">
        <ele>1170.1</ele>
        <time>2026-05-28T13:51:34.999Z</time>
      </trkpt>
      <trkpt lat="44.00867" lon="3.50989">
        <ele>1170.1</ele>
        <time>2026-05-28T13:51:35.999Z</time>
      </trkpt>
      <trkpt lat="44.00867" lon="3.50988">
        <ele>1170.2</ele>
        <time>2026-05-28T13:51:36.999Z</time>
      </trkpt>
      <trkpt lat="44.00867" lon="3.50987">
        <ele>1170</ele>
        <time>2026-05-28T13:51:37.999Z</time>
      </trkpt>
      <trkpt lat="44.00866" lon="3.50986">
        <ele>1169.9</ele>
        <time>2026-05-28T13:51:38.999Z</time>
      </trkpt>
      <trkpt lat="44.00866" lon="3.50986">
        <ele>1169.8</ele>
        <time>2026-05-28T13:51:39.999Z</time>
      </trkpt>
      <trkpt lat="44.00866" lon="3.50985">
        <ele>1169.8</ele>
        <time>2026-05-28T13:51:40.999Z</time>
      </trkpt>
      <trkpt lat="44.00865" lon="3.50984">
        <ele>1169.7</ele>
        <time>2026-05-28T13:51:41.999Z</time>
      </trkpt>
      <trkpt lat="44.00865" lon="3.50984">
        <ele>1169.4</ele>
        <time>2026-05-28T13:51:42.999Z</time>
      </trkpt>
      <trkpt lat="44.00864" lon="3.50983">
        <ele>1169.5</ele>
        <time>2026-05-28T13:51:43.999Z</time>
      </trkpt>
      <trkpt lat="44.00864" lon="3.50982">
        <ele>1169.4</ele>
        <time>2026-05-28T13:51:44.999Z</time>
      </trkpt>
      <trkpt lat="44.00863" lon="3.50982">
        <ele>1169.2</ele>
        <time>2026-05-28T13:51:45.999Z</time>
      </trkpt>
      <trkpt lat="44.00862" lon="3.50982">
        <ele>1168.9</ele>
        <time>2026-05-28T13:51:46.999Z</time>
      </trkpt>
      <trkpt lat="44.00862" lon="3.50982">
        <ele>1168.6</ele>
        <time>2026-05-28T13:51:47.999Z</time>
      </trkpt>
      <trkpt lat="44.00862" lon="3.50981">
        <ele>1168.3</ele>
        <time>2026-05-28T13:51:48.999Z</time>
      </trkpt>
      <trkpt lat="44.00862" lon="3.5098">
        <ele>1168.3</ele>
        <time>2026-05-28T13:51:49.999Z</time>
      </trkpt>
      <trkpt lat="44.00862" lon="3.50979">
        <ele>1168.1</ele>
        <time>2026-05-28T13:51:50.999Z</time>
      </trkpt>
      <trkpt lat="44.00862" lon="3.50978">
        <ele>1167.9</ele>
        <time>2026-05-28T13:51:51.999Z</time>
      </trkpt>
      <trkpt lat="44.00861" lon="3.50978">
        <ele>1167.6</ele>
        <time>2026-05-28T13:51:52.999Z</time>
      </trkpt>
      <trkpt lat="44.00861" lon="3.50978">
        <ele>1167.3</ele>
        <time>2026-05-28T13:51:53.999Z</time>
      </trkpt>
      <trkpt lat="44.0086" lon="3.50977">
        <ele>1167</ele>
        <time>2026-05-28T13:51:54.999Z</time>
      </trkpt>
      <trkpt lat="44.0086" lon="3.50976">
        <ele>1166.7</ele>
        <time>2026-05-28T13:51:55.999Z</time>
      </trkpt>
      <trkpt lat="44.00861" lon="3.50975">
        <ele>1166.4</ele>
        <time>2026-05-28T13:51:56.999Z</time>
      </trkpt>
      <trkpt lat="44.00861" lon="3.50975">
        <ele>1166.2</ele>
        <time>2026-05-28T13:51:57.999Z</time>
      </trkpt>
      <trkpt lat="44.00861" lon="3.50974">
        <ele>1165.8</ele>
        <time>2026-05-28T13:51:58.999Z</time>
      </trkpt>
      <trkpt lat="44.00861" lon="3.50973">
        <ele>1165.3</ele>
        <time>2026-05-28T13:51:59.999Z</time>
      </trkpt>
      <trkpt lat="44.00861" lon="3.50971">
        <ele>1165</ele>
        <time>2026-05-28T13:52:00.999Z</time>
      </trkpt>
      <trkpt lat="44.00861" lon="3.50969">
        <ele>1164.7</ele>
        <time>2026-05-28T13:52:01.999Z</time>
      </trkpt>
      <trkpt lat="44.0086" lon="3.50968">
        <ele>1164.6</ele>
        <time>2026-05-28T13:52:02.999Z</time>
      </trkpt>
      <trkpt lat="44.00859" lon="3.50967">
        <ele>1164.5</ele>
        <time>2026-05-28T13:52:03.999Z</time>
      </trkpt>
      <trkpt lat="44.00859" lon="3.50966">
        <ele>1164.5</ele>
        <time>2026-05-28T13:52:04.999Z</time>
      </trkpt>
      <trkpt lat="44.00859" lon="3.50965">
        <ele>1164.4</ele>
        <time>2026-05-28T13:52:05.999Z</time>
      </trkpt>
      <trkpt lat="44.00859" lon="3.50965">
        <ele>1164.1</ele>
        <time>2026-05-28T13:52:06.999Z</time>
      </trkpt>
      <trkpt lat="44.00858" lon="3.50964">
        <ele>1163.9</ele>
        <time>2026-05-28T13:52:07.999Z</time>
      </trkpt>
      <trkpt lat="44.00858" lon="3.50963">
        <ele>1163.8</ele>
        <time>2026-05-28T13:52:08.999Z</time>
      </trkpt>
      <trkpt lat="44.00858" lon="3.50962">
        <ele>1163.7</ele>
        <time>2026-05-28T13:52:09.999Z</time>
      </trkpt>
      <trkpt lat="44.00857" lon="3.50962">
        <ele>1163.7</ele>
        <time>2026-05-28T13:52:10.999Z</time>
      </trkpt>
      <trkpt lat="44.00857" lon="3.50961">
        <ele>1163.6</ele>
        <time>2026-05-28T13:52:11.999Z</time>
      </trkpt>
      <trkpt lat="44.00856" lon="3.5096">
        <ele>1163.8</ele>
        <time>2026-05-28T13:52:12.999Z</time>
      </trkpt>
      <trkpt lat="44.00855" lon="3.5096">
        <ele>1163.9</ele>
        <time>2026-05-28T13:52:13.999Z</time>
      </trkpt>
      <trkpt lat="44.00855" lon="3.50959">
        <ele>1163.7</ele>
        <time>2026-05-28T13:52:14.999Z</time>
      </trkpt>
      <trkpt lat="44.00854" lon="3.50958">
        <ele>1163.5</ele>
        <time>2026-05-28T13:52:15.999Z</time>
      </trkpt>
      <trkpt lat="44.00854" lon="3.50957">
        <ele>1163.3</ele>
        <time>2026-05-28T13:52:16.999Z</time>
      </trkpt>
      <trkpt lat="44.00854" lon="3.50957">
        <ele>1162.7</ele>
        <time>2026-05-28T13:52:17.999Z</time>
      </trkpt>
      <trkpt lat="44.00854" lon="3.50956">
        <ele>1162.5</ele>
        <time>2026-05-28T13:52:18.999Z</time>
      </trkpt>
      <trkpt lat="44.00855" lon="3.50954">
        <ele>1162.4</ele>
        <time>2026-05-28T13:52:19.999Z</time>
      </trkpt>
      <trkpt lat="44.00855" lon="3.50953">
        <ele>1162.5</ele>
        <time>2026-05-28T13:52:20.999Z</time>
      </trkpt>
      <trkpt lat="44.00854" lon="3.50951">
        <ele>1162.5</ele>
        <time>2026-05-28T13:52:21.999Z</time>
      </trkpt>
      <trkpt lat="44.00853" lon="3.50951">
        <ele>1162.4</ele>
        <time>2026-05-28T13:52:22.999Z</time>
      </trkpt>
      <trkpt lat="44.00852" lon="3.5095">
        <ele>1162.2</ele>
        <time>2026-05-28T13:52:23.999Z</time>
      </trkpt>
      <trkpt lat="44.00851" lon="3.5095">
        <ele>1162.1</ele>
        <time>2026-05-28T13:52:24.999Z</time>
      </trkpt>
      <trkpt lat="44.0085" lon="3.50949">
        <ele>1162</ele>
        <time>2026-05-28T13:52:25.999Z</time>
      </trkpt>
      <trkpt lat="44.0085" lon="3.50948">
        <ele>1162</ele>
        <time>2026-05-28T13:52:26.999Z</time>
      </trkpt>
      <trkpt lat="44.00849" lon="3.50947">
        <ele>1161.8</ele>
        <time>2026-05-28T13:52:27.999Z</time>
      </trkpt>
      <trkpt lat="44.00848" lon="3.50946">
        <ele>1161.7</ele>
        <time>2026-05-28T13:52:28.999Z</time>
      </trkpt>
      <trkpt lat="44.00847" lon="3.50946">
        <ele>1161.2</ele>
        <time>2026-05-28T13:52:29.999Z</time>
      </trkpt>
      <trkpt lat="44.00846" lon="3.50946">
        <ele>1160.8</ele>
        <time>2026-05-28T13:52:30.999Z</time>
      </trkpt>
      <trkpt lat="44.00845" lon="3.50945">
        <ele>1160.6</ele>
        <time>2026-05-28T13:52:31.999Z</time>
      </trkpt>
      <trkpt lat="44.00845" lon="3.50944">
        <ele>1160.3</ele>
        <time>2026-05-28T13:52:32.999Z</time>
      </trkpt>
      <trkpt lat="44.00844" lon="3.50943">
        <ele>1159.9</ele>
        <time>2026-05-28T13:52:33.999Z</time>
      </trkpt>
      <trkpt lat="44.00843" lon="3.50942">
        <ele>1159.5</ele>
        <time>2026-05-28T13:52:34.999Z</time>
      </trkpt>
      <trkpt lat="44.00842" lon="3.50941">
        <ele>1159.3</ele>
        <time>2026-05-28T13:52:35.999Z</time>
      </trkpt>
      <trkpt lat="44.00842" lon="3.50941">
        <ele>1158.9</ele>
        <time>2026-05-28T13:52:36.999Z</time>
      </trkpt>
      <trkpt lat="44.00841" lon="3.5094">
        <ele>1158.8</ele>
        <time>2026-05-28T13:52:37.999Z</time>
      </trkpt>
      <trkpt lat="44.00841" lon="3.50939">
        <ele>1158.6</ele>
        <time>2026-05-28T13:52:38.999Z</time>
      </trkpt>
      <trkpt lat="44.0084" lon="3.50938">
        <ele>1158.5</ele>
        <time>2026-05-28T13:52:39.999Z</time>
      </trkpt>
      <trkpt lat="44.00841" lon="3.50936">
        <ele>1158.1</ele>
        <time>2026-05-28T13:52:40.999Z</time>
      </trkpt>
      <trkpt lat="44.00842" lon="3.50934">
        <ele>1157.7</ele>
        <time>2026-05-28T13:52:41.999Z</time>
      </trkpt>
      <trkpt lat="44.00842" lon="3.50933">
        <ele>1157.1</ele>
        <time>2026-05-28T13:52:42.999Z</time>
      </trkpt>
      <trkpt lat="44.00843" lon="3.50933">
        <ele>1156.8</ele>
        <time>2026-05-28T13:52:43.999Z</time>
      </trkpt>
      <trkpt lat="44.00843" lon="3.50932">
        <ele>1156.1</ele>
        <time>2026-05-28T13:52:44.999Z</time>
      </trkpt>
      <trkpt lat="44.00844" lon="3.50931">
        <ele>1155.5</ele>
        <time>2026-05-28T13:52:45.999Z</time>
      </trkpt>
      <trkpt lat="44.00845" lon="3.5093">
        <ele>1155.3</ele>
        <time>2026-05-28T13:52:46.999Z</time>
      </trkpt>
      <trkpt lat="44.00845" lon="3.50928">
        <ele>1155.4</ele>
        <time>2026-05-28T13:52:47.999Z</time>
      </trkpt>
      <trkpt lat="44.00845" lon="3.50927">
        <ele>1155.1</ele>
        <time>2026-05-28T13:52:48.999Z</time>
      </trkpt>
      <trkpt lat="44.00844" lon="3.50927">
        <ele>1155</ele>
        <time>2026-05-28T13:52:49.999Z</time>
      </trkpt>
      <trkpt lat="44.00843" lon="3.50925">
        <ele>1154.7</ele>
        <time>2026-05-28T13:52:50.999Z</time>
      </trkpt>
      <trkpt lat="44.00842" lon="3.50924">
        <ele>1154.7</ele>
        <time>2026-05-28T13:52:51.999Z</time>
      </trkpt>
      <trkpt lat="44.00841" lon="3.50923">
        <ele>1154.5</ele>
        <time>2026-05-28T13:52:52.999Z</time>
      </trkpt>
      <trkpt lat="44.0084" lon="3.50922">
        <ele>1154.4</ele>
        <time>2026-05-28T13:52:53.999Z</time>
      </trkpt>
      <trkpt lat="44.00839" lon="3.50921">
        <ele>1154.1</ele>
        <time>2026-05-28T13:52:54.999Z</time>
      </trkpt>
      <trkpt lat="44.00839" lon="3.5092">
        <ele>1154</ele>
        <time>2026-05-28T13:52:55.999Z</time>
      </trkpt>
      <trkpt lat="44.00839" lon="3.50919">
        <ele>1153.7</ele>
        <time>2026-05-28T13:52:56.999Z</time>
      </trkpt>
      <trkpt lat="44.00839" lon="3.50918">
        <ele>1153.3</ele>
        <time>2026-05-28T13:52:57.999Z</time>
      </trkpt>
      <trkpt lat="44.00838" lon="3.50917">
        <ele>1153.1</ele>
        <time>2026-05-28T13:52:58.999Z</time>
      </trkpt>
      <trkpt lat="44.00838" lon="3.50916">
        <ele>1153.1</ele>
        <time>2026-05-28T13:52:59.999Z</time>
      </trkpt>
      <trkpt lat="44.00838" lon="3.50915">
        <ele>1152.9</ele>
        <time>2026-05-28T13:53:00.999Z</time>
      </trkpt>
      <trkpt lat="44.00837" lon="3.50914">
        <ele>1152.6</ele>
        <time>2026-05-28T13:53:01.999Z</time>
      </trkpt>
      <trkpt lat="44.00837" lon="3.50913">
        <ele>1152.3</ele>
        <time>2026-05-28T13:53:02.999Z</time>
      </trkpt>
      <trkpt lat="44.00837" lon="3.50913">
        <ele>1151.9</ele>
        <time>2026-05-28T13:53:03.999Z</time>
      </trkpt>
      <trkpt lat="44.00836" lon="3.50912">
        <ele>1151.6</ele>
        <time>2026-05-28T13:53:04.999Z</time>
      </trkpt>
      <trkpt lat="44.00836" lon="3.5091">
        <ele>1151.5</ele>
        <time>2026-05-28T13:53:05.999Z</time>
      </trkpt>
      <trkpt lat="44.00836" lon="3.50908">
        <ele>1151.3</ele>
        <time>2026-05-28T13:53:06.999Z</time>
      </trkpt>
      <trkpt lat="44.00836" lon="3.50907">
        <ele>1151.4</ele>
        <time>2026-05-28T13:53:07.999Z</time>
      </trkpt>
      <trkpt lat="44.00835" lon="3.50906">
        <ele>1151.3</ele>
        <time>2026-05-28T13:53:08.999Z</time>
      </trkpt>
      <trkpt lat="44.00834" lon="3.50906">
        <ele>1150.8</ele>
        <time>2026-05-28T13:53:09.999Z</time>
      </trkpt>
      <trkpt lat="44.00834" lon="3.50905">
        <ele>1150.9</ele>
        <time>2026-05-28T13:53:10.999Z</time>
      </trkpt>
      <trkpt lat="44.00834" lon="3.50904">
        <ele>1151</ele>
        <time>2026-05-28T13:53:11.999Z</time>
      </trkpt>
      <trkpt lat="44.00833" lon="3.50903">
        <ele>1150.9</ele>
        <time>2026-05-28T13:53:12.999Z</time>
      </trkpt>
      <trkpt lat="44.00833" lon="3.50902">
        <ele>1150.6</ele>
        <time>2026-05-28T13:53:13.999Z</time>
      </trkpt>
      <trkpt lat="44.00833" lon="3.50902">
        <ele>1150.2</ele>
        <time>2026-05-28T13:53:14.999Z</time>
      </trkpt>
      <trkpt lat="44.00834" lon="3.509">
        <ele>1149.9</ele>
        <time>2026-05-28T13:53:15.999Z</time>
      </trkpt>
      <trkpt lat="44.00834" lon="3.50899">
        <ele>1149.8</ele>
        <time>2026-05-28T13:53:16.999Z</time>
      </trkpt>
      <trkpt lat="44.00834" lon="3.50897">
        <ele>1149.5</ele>
        <time>2026-05-28T13:53:17.999Z</time>
      </trkpt>
      <trkpt lat="44.00834" lon="3.50896">
        <ele>1149</ele>
        <time>2026-05-28T13:53:18.999Z</time>
      </trkpt>
      <trkpt lat="44.00834" lon="3.50895">
        <ele>1148.9</ele>
        <time>2026-05-28T13:53:19.999Z</time>
      </trkpt>
      <trkpt lat="44.00835" lon="3.50895">
        <ele>1148.6</ele>
        <time>2026-05-28T13:53:20.999Z</time>
      </trkpt>
      <trkpt lat="44.00835" lon="3.50894">
        <ele>1148.3</ele>
        <time>2026-05-28T13:53:21.999Z</time>
      </trkpt>
      <trkpt lat="44.00836" lon="3.50894">
        <ele>1148.1</ele>
        <time>2026-05-28T13:53:22.999Z</time>
      </trkpt>
      <trkpt lat="44.00837" lon="3.50893">
        <ele>1147.8</ele>
        <time>2026-05-28T13:53:23.999Z</time>
      </trkpt>
      <trkpt lat="44.00837" lon="3.50893">
        <ele>1147.5</ele>
        <time>2026-05-28T13:53:24.999Z</time>
      </trkpt>
      <trkpt lat="44.00837" lon="3.50892">
        <ele>1147.2</ele>
        <time>2026-05-28T13:53:25.999Z</time>
      </trkpt>
      <trkpt lat="44.00837" lon="3.50891">
        <ele>1147.1</ele>
        <time>2026-05-28T13:53:26.999Z</time>
      </trkpt>
      <trkpt lat="44.00837" lon="3.50891">
        <ele>1146.7</ele>
        <time>2026-05-28T13:53:27.999Z</time>
      </trkpt>
      <trkpt lat="44.00837" lon="3.5089">
        <ele>1146.8</ele>
        <time>2026-05-28T13:53:28.999Z</time>
      </trkpt>
      <trkpt lat="44.00837" lon="3.5089">
        <ele>1146.5</ele>
        <time>2026-05-28T13:53:29.999Z</time>
      </trkpt>
      <trkpt lat="44.00837" lon="3.50889">
        <ele>1146.3</ele>
        <time>2026-05-28T13:53:30.999Z</time>
      </trkpt>
      <trkpt lat="44.00836" lon="3.50889">
        <ele>1146.3</ele>
        <time>2026-05-28T13:53:31.999Z</time>
      </trkpt>
      <trkpt lat="44.00836" lon="3.50888">
        <ele>1146.3</ele>
        <time>2026-05-28T13:53:32.999Z</time>
      </trkpt>
      <trkpt lat="44.00836" lon="3.50888">
        <ele>1146.3</ele>
        <time>2026-05-28T13:53:33.999Z</time>
      </trkpt>
      <trkpt lat="44.00835" lon="3.50888">
        <ele>1146.3</ele>
        <time>2026-05-28T13:53:34.999Z</time>
      </trkpt>
      <trkpt lat="44.00835" lon="3.50888">
        <ele>1146.1</ele>
        <time>2026-05-28T13:53:35.999Z</time>
      </trkpt>
      <trkpt lat="44.00834" lon="3.50887">
        <ele>1146</ele>
        <time>2026-05-28T13:53:36.999Z</time>
      </trkpt>
      <trkpt lat="44.00834" lon="3.50887">
        <ele>1145.9</ele>
        <time>2026-05-28T13:53:37.999Z</time>
      </trkpt>
      <trkpt lat="44.00834" lon="3.50887">
        <ele>1145.8</ele>
        <time>2026-05-28T13:53:38.999Z</time>
      </trkpt>
      <trkpt lat="44.00835" lon="3.50886">
        <ele>1145.4</ele>
        <time>2026-05-28T13:53:39.999Z</time>
      </trkpt>
      <trkpt lat="44.00835" lon="3.50885">
        <ele>1145.2</ele>
        <time>2026-05-28T13:53:40.999Z</time>
      </trkpt>
      <trkpt lat="44.00835" lon="3.50884">
        <ele>1144.9</ele>
        <time>2026-05-28T13:53:41.999Z</time>
      </trkpt>
      <trkpt lat="44.00835" lon="3.50882">
        <ele>1145.1</ele>
        <time>2026-05-28T13:53:42.999Z</time>
      </trkpt>
      <trkpt lat="44.00835" lon="3.50881">
        <ele>1144.7</ele>
        <time>2026-05-28T13:53:43.999Z</time>
      </trkpt>
      <trkpt lat="44.00835" lon="3.50879">
        <ele>1144.4</ele>
        <time>2026-05-28T13:53:44.999Z</time>
      </trkpt>
      <trkpt lat="44.00835" lon="3.50877">
        <ele>1144</ele>
        <time>2026-05-28T13:53:45.999Z</time>
      </trkpt>
      <trkpt lat="44.00835" lon="3.50876">
        <ele>1143.7</ele>
        <time>2026-05-28T13:53:46.999Z</time>
      </trkpt>
      <trkpt lat="44.00835" lon="3.50875">
        <ele>1143.4</ele>
        <time>2026-05-28T13:53:47.999Z</time>
      </trkpt>
      <trkpt lat="44.00835" lon="3.50874">
        <ele>1142.8</ele>
        <time>2026-05-28T13:53:48.999Z</time>
      </trkpt>
      <trkpt lat="44.00836" lon="3.50873">
        <ele>1142.9</ele>
        <time>2026-05-28T13:53:49.999Z</time>
      </trkpt>
      <trkpt lat="44.00836" lon="3.50872">
        <ele>1142.8</ele>
        <time>2026-05-28T13:53:50.999Z</time>
      </trkpt>
      <trkpt lat="44.00835" lon="3.50871">
        <ele>1142.7</ele>
        <time>2026-05-28T13:53:51.999Z</time>
      </trkpt>
      <trkpt lat="44.00835" lon="3.5087">
        <ele>1142.6</ele>
        <time>2026-05-28T13:53:52.999Z</time>
      </trkpt>
      <trkpt lat="44.00834" lon="3.50869">
        <ele>1142.6</ele>
        <time>2026-05-28T13:53:53.999Z</time>
      </trkpt>
      <trkpt lat="44.00834" lon="3.50869">
        <ele>1142.6</ele>
        <time>2026-05-28T13:53:54.999Z</time>
      </trkpt>
      <trkpt lat="44.00834" lon="3.50868">
        <ele>1142.3</ele>
        <time>2026-05-28T13:53:55.999Z</time>
      </trkpt>
      <trkpt lat="44.00834" lon="3.50867">
        <ele>1141.9</ele>
        <time>2026-05-28T13:53:56.999Z</time>
      </trkpt>
      <trkpt lat="44.00835" lon="3.50866">
        <ele>1141.8</ele>
        <time>2026-05-28T13:53:57.999Z</time>
      </trkpt>
      <trkpt lat="44.00835" lon="3.50865">
        <ele>1141.7</ele>
        <time>2026-05-28T13:53:58.999Z</time>
      </trkpt>
      <trkpt lat="44.00836" lon="3.50863">
        <ele>1141.7</ele>
        <time>2026-05-28T13:53:59.999Z</time>
      </trkpt>
      <trkpt lat="44.00836" lon="3.50862">
        <ele>1141.5</ele>
        <time>2026-05-28T13:54:00.999Z</time>
      </trkpt>
      <trkpt lat="44.00837" lon="3.50861">
        <ele>1141.4</ele>
        <time>2026-05-28T13:54:01.999Z</time>
      </trkpt>
      <trkpt lat="44.00836" lon="3.50861">
        <ele>1141.1</ele>
        <time>2026-05-28T13:54:02.999Z</time>
      </trkpt>
      <trkpt lat="44.00836" lon="3.50861">
        <ele>1141.1</ele>
        <time>2026-05-28T13:54:03.999Z</time>
      </trkpt>
      <trkpt lat="44.00836" lon="3.50861">
        <ele>1141</ele>
        <time>2026-05-28T13:54:04.999Z</time>
      </trkpt>
      <trkpt lat="44.00836" lon="3.50861">
        <ele>1141.6</ele>
        <time>2026-05-28T13:54:05.999Z</time>
      </trkpt>
      <trkpt lat="44.00836" lon="3.50861">
        <ele>1141.5</ele>
        <time>2026-05-28T13:54:06.999Z</time>
      </trkpt>
      <trkpt lat="44.00836" lon="3.50861">
        <ele>1141.2</ele>
        <time>2026-05-28T13:54:07.999Z</time>
      </trkpt>
      <trkpt lat="44.00837" lon="3.50861">
        <ele>1140.8</ele>
        <time>2026-05-28T13:54:08.999Z</time>
      </trkpt>
      <trkpt lat="44.00837" lon="3.5086">
        <ele>1140.5</ele>
        <time>2026-05-28T13:54:09.999Z</time>
      </trkpt>
      <trkpt lat="44.00836" lon="3.50858">
        <ele>1140.2</ele>
        <time>2026-05-28T13:54:10.999Z</time>
      </trkpt>
      <trkpt lat="44.00836" lon="3.50858">
        <ele>1140</ele>
        <time>2026-05-28T13:54:11.999Z</time>
      </trkpt>
      <trkpt lat="44.00836" lon="3.50857">
        <ele>1139.5</ele>
        <time>2026-05-28T13:54:12.999Z</time>
      </trkpt>
      <trkpt lat="44.00836" lon="3.50856">
        <ele>1139.4</ele>
        <time>2026-05-28T13:54:13.999Z</time>
      </trkpt>
      <trkpt lat="44.00837" lon="3.50855">
        <ele>1139.2</ele>
        <time>2026-05-28T13:54:14.999Z</time>
      </trkpt>
      <trkpt lat="44.00837" lon="3.50854">
        <ele>1139.1</ele>
        <time>2026-05-28T13:54:15.999Z</time>
      </trkpt>
      <trkpt lat="44.00838" lon="3.50853">
        <ele>1139</ele>
        <time>2026-05-28T13:54:16.999Z</time>
      </trkpt>
      <trkpt lat="44.00838" lon="3.50852">
        <ele>1138.9</ele>
        <time>2026-05-28T13:54:17.999Z</time>
      </trkpt>
      <trkpt lat="44.00839" lon="3.50851">
        <ele>1138.8</ele>
        <time>2026-05-28T13:54:18.999Z</time>
      </trkpt>
      <trkpt lat="44.00839" lon="3.5085">
        <ele>1138.4</ele>
        <time>2026-05-28T13:54:19.999Z</time>
      </trkpt>
      <trkpt lat="44.00839" lon="3.50849">
        <ele>1137.9</ele>
        <time>2026-05-28T13:54:20.999Z</time>
      </trkpt>
      <trkpt lat="44.0084" lon="3.50847">
        <ele>1137.4</ele>
        <time>2026-05-28T13:54:21.999Z</time>
      </trkpt>
      <trkpt lat="44.0084" lon="3.50846">
        <ele>1137.3</ele>
        <time>2026-05-28T13:54:22.999Z</time>
      </trkpt>
      <trkpt lat="44.00841" lon="3.50845">
        <ele>1137</ele>
        <time>2026-05-28T13:54:23.999Z</time>
      </trkpt>
      <trkpt lat="44.00841" lon="3.50843">
        <ele>1136.8</ele>
        <time>2026-05-28T13:54:24.999Z</time>
      </trkpt>
      <trkpt lat="44.00841" lon="3.50842">
        <ele>1136.6</ele>
        <time>2026-05-28T13:54:25.999Z</time>
      </trkpt>
      <trkpt lat="44.00841" lon="3.50841">
        <ele>1136.6</ele>
        <time>2026-05-28T13:54:26.999Z</time>
      </trkpt>
      <trkpt lat="44.00841" lon="3.5084">
        <ele>1136.3</ele>
        <time>2026-05-28T13:54:27.999Z</time>
      </trkpt>
      <trkpt lat="44.00842" lon="3.5084">
        <ele>1136.2</ele>
        <time>2026-05-28T13:54:28.999Z</time>
      </trkpt>
      <trkpt lat="44.00843" lon="3.5084">
        <ele>1136</ele>
        <time>2026-05-28T13:54:29.999Z</time>
      </trkpt>
      <trkpt lat="44.00843" lon="3.50839">
        <ele>1135.7</ele>
        <time>2026-05-28T13:54:30.999Z</time>
      </trkpt>
      <trkpt lat="44.00843" lon="3.50837">
        <ele>1135.5</ele>
        <time>2026-05-28T13:54:31.999Z</time>
      </trkpt>
      <trkpt lat="44.00842" lon="3.50836">
        <ele>1135</ele>
        <time>2026-05-28T13:54:32.999Z</time>
      </trkpt>
      <trkpt lat="44.00841" lon="3.50836">
        <ele>1134.6</ele>
        <time>2026-05-28T13:54:33.999Z</time>
      </trkpt>
      <trkpt lat="44.00841" lon="3.50836">
        <ele>1134</ele>
        <time>2026-05-28T13:54:34.999Z</time>
      </trkpt>
      <trkpt lat="44.00841" lon="3.50836">
        <ele>1133.2</ele>
        <time>2026-05-28T13:54:35.999Z</time>
      </trkpt>
      <trkpt lat="44.00841" lon="3.50835">
        <ele>1132.5</ele>
        <time>2026-05-28T13:54:36.999Z</time>
      </trkpt>
      <trkpt lat="44.00841" lon="3.50834">
        <ele>1132.1</ele>
        <time>2026-05-28T13:54:37.999Z</time>
      </trkpt>
      <trkpt lat="44.00842" lon="3.50834">
        <ele>1131.5</ele>
        <time>2026-05-28T13:54:38.999Z</time>
      </trkpt>
      <trkpt lat="44.00843" lon="3.50833">
        <ele>1131</ele>
        <time>2026-05-28T13:54:39.999Z</time>
      </trkpt>
      <trkpt lat="44.00843" lon="3.50833">
        <ele>1130.6</ele>
        <time>2026-05-28T13:54:40.999Z</time>
      </trkpt>
      <trkpt lat="44.00843" lon="3.50832">
        <ele>1130.6</ele>
        <time>2026-05-28T13:54:41.999Z</time>
      </trkpt>
      <trkpt lat="44.00843" lon="3.50831">
        <ele>1130.4</ele>
        <time>2026-05-28T13:54:42.999Z</time>
      </trkpt>
      <trkpt lat="44.00843" lon="3.5083">
        <ele>1130.1</ele>
        <time>2026-05-28T13:54:43.999Z</time>
      </trkpt>
      <trkpt lat="44.00843" lon="3.50829">
        <ele>1129.9</ele>
        <time>2026-05-28T13:54:44.999Z</time>
      </trkpt>
      <trkpt lat="44.00843" lon="3.50828">
        <ele>1129.7</ele>
        <time>2026-05-28T13:54:45.999Z</time>
      </trkpt>
      <trkpt lat="44.00842" lon="3.50827">
        <ele>1129.3</ele>
        <time>2026-05-28T13:54:46.999Z</time>
      </trkpt>
      <trkpt lat="44.00842" lon="3.50826">
        <ele>1129.1</ele>
        <time>2026-05-28T13:54:47.999Z</time>
      </trkpt>
      <trkpt lat="44.00841" lon="3.50826">
        <ele>1129</ele>
        <time>2026-05-28T13:54:48.999Z</time>
      </trkpt>
      <trkpt lat="44.00841" lon="3.50825">
        <ele>1129</ele>
        <time>2026-05-28T13:54:49.999Z</time>
      </trkpt>
      <trkpt lat="44.0084" lon="3.50824">
        <ele>1129</ele>
        <time>2026-05-28T13:54:50.999Z</time>
      </trkpt>
      <trkpt lat="44.00839" lon="3.50824">
        <ele>1129.1</ele>
        <time>2026-05-28T13:54:51.999Z</time>
      </trkpt>
      <trkpt lat="44.00839" lon="3.50824">
        <ele>1128.9</ele>
        <time>2026-05-28T13:54:52.999Z</time>
      </trkpt>
      <trkpt lat="44.00838" lon="3.50823">
        <ele>1128.9</ele>
        <time>2026-05-28T13:54:53.999Z</time>
      </trkpt>
      <trkpt lat="44.00838" lon="3.50822">
        <ele>1129.2</ele>
        <time>2026-05-28T13:54:54.999Z</time>
      </trkpt>
      <trkpt lat="44.00838" lon="3.50822">
        <ele>1129.2</ele>
        <time>2026-05-28T13:54:55.999Z</time>
      </trkpt>
      <trkpt lat="44.00838" lon="3.50821">
        <ele>1129</ele>
        <time>2026-05-28T13:54:56.999Z</time>
      </trkpt>
      <trkpt lat="44.00837" lon="3.5082">
        <ele>1128.9</ele>
        <time>2026-05-28T13:54:57.999Z</time>
      </trkpt>
      <trkpt lat="44.00837" lon="3.50821">
        <ele>1128.7</ele>
        <time>2026-05-28T13:54:58.999Z</time>
      </trkpt>
      <trkpt lat="44.00837" lon="3.50821">
        <ele>1128.5</ele>
        <time>2026-05-28T13:54:59.999Z</time>
      </trkpt>
      <trkpt lat="44.00837" lon="3.50821">
        <ele>1128.3</ele>
        <time>2026-05-28T13:55:00.999Z</time>
      </trkpt>
      <trkpt lat="44.00838" lon="3.50821">
        <ele>1127.9</ele>
        <time>2026-05-28T13:55:01.999Z</time>
      </trkpt>
      <trkpt lat="44.00838" lon="3.5082">
        <ele>1127.5</ele>
        <time>2026-05-28T13:55:02.999Z</time>
      </trkpt>
      <trkpt lat="44.00838" lon="3.50819">
        <ele>1127.2</ele>
        <time>2026-05-28T13:55:03.999Z</time>
      </trkpt>
      <trkpt lat="44.00839" lon="3.50818">
        <ele>1126.8</ele>
        <time>2026-05-28T13:55:04.999Z</time>
      </trkpt>
      <trkpt lat="44.00839" lon="3.50817">
        <ele>1126.4</ele>
        <time>2026-05-28T13:55:05.999Z</time>
      </trkpt>
      <trkpt lat="44.00839" lon="3.50816">
        <ele>1126.1</ele>
        <time>2026-05-28T13:55:06.999Z</time>
      </trkpt>
      <trkpt lat="44.0084" lon="3.50815">
        <ele>1125.9</ele>
        <time>2026-05-28T13:55:07.999Z</time>
      </trkpt>
      <trkpt lat="44.0084" lon="3.50813">
        <ele>1125.6</ele>
        <time>2026-05-28T13:55:08.999Z</time>
      </trkpt>
      <trkpt lat="44.0084" lon="3.50813">
        <ele>1125.5</ele>
        <time>2026-05-28T13:55:09.999Z</time>
      </trkpt>
      <trkpt lat="44.00839" lon="3.50812">
        <ele>1125.3</ele>
        <time>2026-05-28T13:55:10.999Z</time>
      </trkpt>
      <trkpt lat="44.00839" lon="3.5081">
        <ele>1124.9</ele>
        <time>2026-05-28T13:55:11.999Z</time>
      </trkpt>
      <trkpt lat="44.00839" lon="3.50809">
        <ele>1124.6</ele>
        <time>2026-05-28T13:55:12.999Z</time>
      </trkpt>
      <trkpt lat="44.00839" lon="3.50809">
        <ele>1123.9</ele>
        <time>2026-05-28T13:55:13.999Z</time>
      </trkpt>
      <trkpt lat="44.00839" lon="3.50808">
        <ele>1123.7</ele>
        <time>2026-05-28T13:55:14.999Z</time>
      </trkpt>
      <trkpt lat="44.0084" lon="3.50807">
        <ele>1123.6</ele>
        <time>2026-05-28T13:55:15.999Z</time>
      </trkpt>
      <trkpt lat="44.0084" lon="3.50806">
        <ele>1123.7</ele>
        <time>2026-05-28T13:55:16.999Z</time>
      </trkpt>
      <trkpt lat="44.0084" lon="3.50805">
        <ele>1123.9</ele>
        <time>2026-05-28T13:55:17.999Z</time>
      </trkpt>
      <trkpt lat="44.0084" lon="3.50804">
        <ele>1123.9</ele>
        <time>2026-05-28T13:55:18.999Z</time>
      </trkpt>
      <trkpt lat="44.0084" lon="3.50804">
        <ele>1123.4</ele>
        <time>2026-05-28T13:55:19.999Z</time>
      </trkpt>
      <trkpt lat="44.00841" lon="3.50803">
        <ele>1123.3</ele>
        <time>2026-05-28T13:55:20.999Z</time>
      </trkpt>
      <trkpt lat="44.0084" lon="3.50803">
        <ele>1123</ele>
        <time>2026-05-28T13:55:21.999Z</time>
      </trkpt>
      <trkpt lat="44.0084" lon="3.50802">
        <ele>1122.8</ele>
        <time>2026-05-28T13:55:22.999Z</time>
      </trkpt>
      <trkpt lat="44.0084" lon="3.50802">
        <ele>1122.5</ele>
        <time>2026-05-28T13:55:23.999Z</time>
      </trkpt>
      <trkpt lat="44.0084" lon="3.50801">
        <ele>1122.3</ele>
        <time>2026-05-28T13:55:24.999Z</time>
      </trkpt>
      <trkpt lat="44.00839" lon="3.508">
        <ele>1122.2</ele>
        <time>2026-05-28T13:55:25.999Z</time>
      </trkpt>
      <trkpt lat="44.00839" lon="3.50799">
        <ele>1121.8</ele>
        <time>2026-05-28T13:55:26.999Z</time>
      </trkpt>
      <trkpt lat="44.00838" lon="3.50797">
        <ele>1121.3</ele>
        <time>2026-05-28T13:55:27.999Z</time>
      </trkpt>
      <trkpt lat="44.00837" lon="3.50796">
        <ele>1121</ele>
        <time>2026-05-28T13:55:28.999Z</time>
      </trkpt>
      <trkpt lat="44.00837" lon="3.50795">
        <ele>1120.7</ele>
        <time>2026-05-28T13:55:29.999Z</time>
      </trkpt>
      <trkpt lat="44.00837" lon="3.50794">
        <ele>1120.4</ele>
        <time>2026-05-28T13:55:30.999Z</time>
      </trkpt>
      <trkpt lat="44.00837" lon="3.50793">
        <ele>1120</ele>
        <time>2026-05-28T13:55:31.999Z</time>
      </trkpt>
      <trkpt lat="44.00838" lon="3.50792">
        <ele>1119.5</ele>
        <time>2026-05-28T13:55:32.999Z</time>
      </trkpt>
      <trkpt lat="44.00838" lon="3.50792">
        <ele>1119.1</ele>
        <time>2026-05-28T13:55:33.999Z</time>
      </trkpt>
      <trkpt lat="44.00838" lon="3.50791">
        <ele>1119</ele>
        <time>2026-05-28T13:55:34.999Z</time>
      </trkpt>
      <trkpt lat="44.00838" lon="3.50791">
        <ele>1119.1</ele>
        <time>2026-05-28T13:55:35.999Z</time>
      </trkpt>
      <trkpt lat="44.00838" lon="3.5079">
        <ele>1118.8</ele>
        <time>2026-05-28T13:55:36.999Z</time>
      </trkpt>
      <trkpt lat="44.00839" lon="3.50789">
        <ele>1118.7</ele>
        <time>2026-05-28T13:55:37.999Z</time>
      </trkpt>
      <trkpt lat="44.00839" lon="3.50788">
        <ele>1118.5</ele>
        <time>2026-05-28T13:55:38.999Z</time>
      </trkpt>
      <trkpt lat="44.00839" lon="3.50787">
        <ele>1118.3</ele>
        <time>2026-05-28T13:55:39.999Z</time>
      </trkpt>
      <trkpt lat="44.00839" lon="3.50787">
        <ele>1118</ele>
        <time>2026-05-28T13:55:40.999Z</time>
      </trkpt>
      <trkpt lat="44.0084" lon="3.50786">
        <ele>1117.9</ele>
        <time>2026-05-28T13:55:41.999Z</time>
      </trkpt>
      <trkpt lat="44.00841" lon="3.50785">
        <ele>1117.9</ele>
        <time>2026-05-28T13:55:42.999Z</time>
      </trkpt>
      <trkpt lat="44.00841" lon="3.50784">
        <ele>1117.8</ele>
        <time>2026-05-28T13:55:43.999Z</time>
      </trkpt>
      <trkpt lat="44.00842" lon="3.50783">
        <ele>1117.7</ele>
        <time>2026-05-28T13:55:44.999Z</time>
      </trkpt>
      <trkpt lat="44.00843" lon="3.50782">
        <ele>1117.7</ele>
        <time>2026-05-28T13:55:45.999Z</time>
      </trkpt>
      <trkpt lat="44.00842" lon="3.50781">
        <ele>1117.5</ele>
        <time>2026-05-28T13:55:46.999Z</time>
      </trkpt>
      <trkpt lat="44.00842" lon="3.5078">
        <ele>1117.2</ele>
        <time>2026-05-28T13:55:47.999Z</time>
      </trkpt>
      <trkpt lat="44.00842" lon="3.50779">
        <ele>1117.1</ele>
        <time>2026-05-28T13:55:48.999Z</time>
      </trkpt>
      <trkpt lat="44.00842" lon="3.50778">
        <ele>1116.6</ele>
        <time>2026-05-28T13:55:49.999Z</time>
      </trkpt>
      <trkpt lat="44.00842" lon="3.50778">
        <ele>1116.3</ele>
        <time>2026-05-28T13:55:50.999Z</time>
      </trkpt>
      <trkpt lat="44.00842" lon="3.50777">
        <ele>1115.9</ele>
        <time>2026-05-28T13:55:51.999Z</time>
      </trkpt>
      <trkpt lat="44.00842" lon="3.50775">
        <ele>1115.8</ele>
        <time>2026-05-28T13:55:52.999Z</time>
      </trkpt>
      <trkpt lat="44.00842" lon="3.50774">
        <ele>1115.6</ele>
        <time>2026-05-28T13:55:53.999Z</time>
      </trkpt>
      <trkpt lat="44.00842" lon="3.50773">
        <ele>1115.4</ele>
        <time>2026-05-28T13:55:54.999Z</time>
      </trkpt>
      <trkpt lat="44.00842" lon="3.50773">
        <ele>1115</ele>
        <time>2026-05-28T13:55:55.999Z</time>
      </trkpt>
      <trkpt lat="44.00842" lon="3.50772">
        <ele>1114.8</ele>
        <time>2026-05-28T13:55:56.999Z</time>
      </trkpt>
      <trkpt lat="44.00842" lon="3.50771">
        <ele>1114.6</ele>
        <time>2026-05-28T13:55:57.999Z</time>
      </trkpt>
      <trkpt lat="44.00842" lon="3.5077">
        <ele>1114.7</ele>
        <time>2026-05-28T13:55:58.999Z</time>
      </trkpt>
      <trkpt lat="44.00842" lon="3.50768">
        <ele>1114.6</ele>
        <time>2026-05-28T13:55:59.999Z</time>
      </trkpt>
      <trkpt lat="44.00841" lon="3.50768">
        <ele>1114.7</ele>
        <time>2026-05-28T13:56:00.999Z</time>
      </trkpt>
      <trkpt lat="44.0084" lon="3.50767">
        <ele>1114.7</ele>
        <time>2026-05-28T13:56:01.999Z</time>
      </trkpt>
      <trkpt lat="44.00839" lon="3.50767">
        <ele>1114.6</ele>
        <time>2026-05-28T13:56:02.999Z</time>
      </trkpt>
      <trkpt lat="44.00839" lon="3.50767">
        <ele>1114.7</ele>
        <time>2026-05-28T13:56:03.999Z</time>
      </trkpt>
      <trkpt lat="44.00838" lon="3.50766">
        <ele>1114.8</ele>
        <time>2026-05-28T13:56:04.999Z</time>
      </trkpt>
      <trkpt lat="44.00837" lon="3.50766">
        <ele>1114.7</ele>
        <time>2026-05-28T13:56:05.999Z</time>
      </trkpt>
      <trkpt lat="44.00836" lon="3.50766">
        <ele>1114.7</ele>
        <time>2026-05-28T13:56:06.999Z</time>
      </trkpt>
      <trkpt lat="44.00835" lon="3.50766">
        <ele>1114.7</ele>
        <time>2026-05-28T13:56:07.999Z</time>
      </trkpt>
      <trkpt lat="44.00835" lon="3.50767">
        <ele>1114.5</ele>
        <time>2026-05-28T13:56:08.999Z</time>
      </trkpt>
      <trkpt lat="44.00835" lon="3.50768">
        <ele>1114.2</ele>
        <time>2026-05-28T13:56:09.999Z</time>
      </trkpt>
      <trkpt lat="44.00835" lon="3.50768">
        <ele>1114.1</ele>
        <time>2026-05-28T13:56:10.999Z</time>
      </trkpt>
      <trkpt lat="44.00834" lon="3.50767">
        <ele>1114.1</ele>
        <time>2026-05-28T13:56:11.999Z</time>
      </trkpt>
      <trkpt lat="44.00834" lon="3.50767">
        <ele>1114</ele>
        <time>2026-05-28T13:56:12.999Z</time>
      </trkpt>
      <trkpt lat="44.00834" lon="3.50766">
        <ele>1113.8</ele>
        <time>2026-05-28T13:56:13.999Z</time>
      </trkpt>
      <trkpt lat="44.00834" lon="3.50766">
        <ele>1113.4</ele>
        <time>2026-05-28T13:56:14.999Z</time>
      </trkpt>
      <trkpt lat="44.00833" lon="3.50765">
        <ele>1113.1</ele>
        <time>2026-05-28T13:56:15.999Z</time>
      </trkpt>
      <trkpt lat="44.00833" lon="3.50765">
        <ele>1112.8</ele>
        <time>2026-05-28T13:56:16.999Z</time>
      </trkpt>
      <trkpt lat="44.00832" lon="3.50764">
        <ele>1112.6</ele>
        <time>2026-05-28T13:56:17.999Z</time>
      </trkpt>
      <trkpt lat="44.00832" lon="3.50763">
        <ele>1112.4</ele>
        <time>2026-05-28T13:56:18.999Z</time>
      </trkpt>
      <trkpt lat="44.00832" lon="3.50763">
        <ele>1111.9</ele>
        <time>2026-05-28T13:56:19.999Z</time>
      </trkpt>
      <trkpt lat="44.00833" lon="3.50763">
        <ele>1111.7</ele>
        <time>2026-05-28T13:56:20.999Z</time>
      </trkpt>
      <trkpt lat="44.00833" lon="3.50762">
        <ele>1111.6</ele>
        <time>2026-05-28T13:56:21.999Z</time>
      </trkpt>
      <trkpt lat="44.00832" lon="3.50761">
        <ele>1111.4</ele>
        <time>2026-05-28T13:56:22.999Z</time>
      </trkpt>
      <trkpt lat="44.00832" lon="3.50761">
        <ele>1111.3</ele>
        <time>2026-05-28T13:56:23.999Z</time>
      </trkpt>
      <trkpt lat="44.00832" lon="3.5076">
        <ele>1111.4</ele>
        <time>2026-05-28T13:56:24.999Z</time>
      </trkpt>
      <trkpt lat="44.00832" lon="3.50759">
        <ele>1111.2</ele>
        <time>2026-05-28T13:56:25.999Z</time>
      </trkpt>
      <trkpt lat="44.00831" lon="3.50759">
        <ele>1111</ele>
        <time>2026-05-28T13:56:26.999Z</time>
      </trkpt>
      <trkpt lat="44.00831" lon="3.50759">
        <ele>1110.9</ele>
        <time>2026-05-28T13:56:27.999Z</time>
      </trkpt>
      <trkpt lat="44.0083" lon="3.50759">
        <ele>1110.6</ele>
        <time>2026-05-28T13:56:28.999Z</time>
      </trkpt>
      <trkpt lat="44.00829" lon="3.50758">
        <ele>1110.5</ele>
        <time>2026-05-28T13:56:29.999Z</time>
      </trkpt>
      <trkpt lat="44.00828" lon="3.50758">
        <ele>1110.4</ele>
        <time>2026-05-28T13:56:30.999Z</time>
      </trkpt>
      <trkpt lat="44.00828" lon="3.50757">
        <ele>1110.1</ele>
        <time>2026-05-28T13:56:31.999Z</time>
      </trkpt>
      <trkpt lat="44.00827" lon="3.50757">
        <ele>1109.9</ele>
        <time>2026-05-28T13:56:32.999Z</time>
      </trkpt>
      <trkpt lat="44.00827" lon="3.50756">
        <ele>1109.7</ele>
        <time>2026-05-28T13:56:33.999Z</time>
      </trkpt>
      <trkpt lat="44.00827" lon="3.50756">
        <ele>1109.5</ele>
        <time>2026-05-28T13:56:34.999Z</time>
      </trkpt>
      <trkpt lat="44.00827" lon="3.50756">
        <ele>1109.3</ele>
        <time>2026-05-28T13:56:35.999Z</time>
      </trkpt>
      <trkpt lat="44.00827" lon="3.50755">
        <ele>1108.8</ele>
        <time>2026-05-28T13:56:36.999Z</time>
      </trkpt>
      <trkpt lat="44.00828" lon="3.50755">
        <ele>1109</ele>
        <time>2026-05-28T13:56:37.999Z</time>
      </trkpt>
      <trkpt lat="44.00828" lon="3.50754">
        <ele>1108.7</ele>
        <time>2026-05-28T13:56:38.999Z</time>
      </trkpt>
      <trkpt lat="44.00828" lon="3.50754">
        <ele>1108.3</ele>
        <time>2026-05-28T13:56:39.999Z</time>
      </trkpt>
      <trkpt lat="44.00828" lon="3.50754">
        <ele>1108.1</ele>
        <time>2026-05-28T13:56:40.999Z</time>
      </trkpt>
      <trkpt lat="44.00828" lon="3.50753">
        <ele>1107.9</ele>
        <time>2026-05-28T13:56:41.999Z</time>
      </trkpt>
      <trkpt lat="44.00828" lon="3.50752">
        <ele>1107.7</ele>
        <time>2026-05-28T13:56:42.999Z</time>
      </trkpt>
      <trkpt lat="44.00828" lon="3.50752">
        <ele>1107.5</ele>
        <time>2026-05-28T13:56:43.999Z</time>
      </trkpt>
      <trkpt lat="44.00827" lon="3.50751">
        <ele>1107.1</ele>
        <time>2026-05-28T13:56:44.999Z</time>
      </trkpt>
      <trkpt lat="44.00827" lon="3.50751">
        <ele>1106.9</ele>
        <time>2026-05-28T13:56:45.999Z</time>
      </trkpt>
      <trkpt lat="44.00828" lon="3.50751">
        <ele>1106.6</ele>
        <time>2026-05-28T13:56:46.999Z</time>
      </trkpt>
      <trkpt lat="44.00828" lon="3.50751">
        <ele>1106.2</ele>
        <time>2026-05-28T13:56:47.999Z</time>
      </trkpt>
      <trkpt lat="44.00828" lon="3.50751">
        <ele>1106.1</ele>
        <time>2026-05-28T13:56:48.999Z</time>
      </trkpt>
      <trkpt lat="44.00828" lon="3.5075">
        <ele>1105.9</ele>
        <time>2026-05-28T13:56:49.999Z</time>
      </trkpt>
      <trkpt lat="44.00828" lon="3.50749">
        <ele>1105.8</ele>
        <time>2026-05-28T13:56:50.999Z</time>
      </trkpt>
      <trkpt lat="44.00827" lon="3.50749">
        <ele>1105.8</ele>
        <time>2026-05-28T13:56:51.999Z</time>
      </trkpt>
      <trkpt lat="44.00827" lon="3.50747">
        <ele>1105.6</ele>
        <time>2026-05-28T13:56:52.999Z</time>
      </trkpt>
      <trkpt lat="44.00828" lon="3.50746">
        <ele>1105.5</ele>
        <time>2026-05-28T13:56:53.999Z</time>
      </trkpt>
      <trkpt lat="44.00828" lon="3.50745">
        <ele>1105.2</ele>
        <time>2026-05-28T13:56:54.999Z</time>
      </trkpt>
      <trkpt lat="44.00829" lon="3.50743">
        <ele>1105</ele>
        <time>2026-05-28T13:56:55.999Z</time>
      </trkpt>
      <trkpt lat="44.00829" lon="3.50742">
        <ele>1104.9</ele>
        <time>2026-05-28T13:56:56.999Z</time>
      </trkpt>
      <trkpt lat="44.00829" lon="3.50742">
        <ele>1104.7</ele>
        <time>2026-05-28T13:56:57.999Z</time>
      </trkpt>
      <trkpt lat="44.00829" lon="3.50741">
        <ele>1104.6</ele>
        <time>2026-05-28T13:56:58.999Z</time>
      </trkpt>
      <trkpt lat="44.00829" lon="3.50741">
        <ele>1104.6</ele>
        <time>2026-05-28T13:56:59.999Z</time>
      </trkpt>
      <trkpt lat="44.0083" lon="3.50741">
        <ele>1104.3</ele>
        <time>2026-05-28T13:57:00.999Z</time>
      </trkpt>
      <trkpt lat="44.0083" lon="3.50741">
        <ele>1104.3</ele>
        <time>2026-05-28T13:57:01.999Z</time>
      </trkpt>
      <trkpt lat="44.0083" lon="3.5074">
        <ele>1104.2</ele>
        <time>2026-05-28T13:57:02.999Z</time>
      </trkpt>
      <trkpt lat="44.0083" lon="3.5074">
        <ele>1104</ele>
        <time>2026-05-28T13:57:03.999Z</time>
      </trkpt>
      <trkpt lat="44.0083" lon="3.5074">
        <ele>1103.8</ele>
        <time>2026-05-28T13:57:04.999Z</time>
      </trkpt>
      <trkpt lat="44.0083" lon="3.5074">
        <ele>1103.4</ele>
        <time>2026-05-28T13:57:05.999Z</time>
      </trkpt>
      <trkpt lat="44.0083" lon="3.50739">
        <ele>1102.9</ele>
        <time>2026-05-28T13:57:06.999Z</time>
      </trkpt>
      <trkpt lat="44.0083" lon="3.50739">
        <ele>1102.7</ele>
        <time>2026-05-28T13:57:07.999Z</time>
      </trkpt>
      <trkpt lat="44.0083" lon="3.50739">
        <ele>1102.3</ele>
        <time>2026-05-28T13:57:08.999Z</time>
      </trkpt>
      <trkpt lat="44.0083" lon="3.50739">
        <ele>1101.8</ele>
        <time>2026-05-28T13:57:09.999Z</time>
      </trkpt>
      <trkpt lat="44.0083" lon="3.50739">
        <ele>1101.4</ele>
        <time>2026-05-28T13:57:10.999Z</time>
      </trkpt>
      <trkpt lat="44.0083" lon="3.50738">
        <ele>1101.1</ele>
        <time>2026-05-28T13:57:11.999Z</time>
      </trkpt>
      <trkpt lat="44.00831" lon="3.50738">
        <ele>1101</ele>
        <time>2026-05-28T13:57:12.999Z</time>
      </trkpt>
      <trkpt lat="44.00831" lon="3.50738">
        <ele>1100.6</ele>
        <time>2026-05-28T13:57:13.999Z</time>
      </trkpt>
      <trkpt lat="44.00832" lon="3.50737">
        <ele>1100</ele>
        <time>2026-05-28T13:57:14.999Z</time>
      </trkpt>
      <trkpt lat="44.00833" lon="3.50737">
        <ele>1099.9</ele>
        <time>2026-05-28T13:57:15.999Z</time>
      </trkpt>
      <trkpt lat="44.00834" lon="3.50736">
        <ele>1099.7</ele>
        <time>2026-05-28T13:57:16.999Z</time>
      </trkpt>
      <trkpt lat="44.00834" lon="3.50735">
        <ele>1099.6</ele>
        <time>2026-05-28T13:57:17.999Z</time>
      </trkpt>
      <trkpt lat="44.00835" lon="3.50735">
        <ele>1099.5</ele>
        <time>2026-05-28T13:57:18.999Z</time>
      </trkpt>
      <trkpt lat="44.00835" lon="3.50734">
        <ele>1099.3</ele>
        <time>2026-05-28T13:57:19.999Z</time>
      </trkpt>
      <trkpt lat="44.00836" lon="3.50733">
        <ele>1099.3</ele>
        <time>2026-05-28T13:57:20.999Z</time>
      </trkpt>
      <trkpt lat="44.00836" lon="3.50732">
        <ele>1099.1</ele>
        <time>2026-05-28T13:57:21.999Z</time>
      </trkpt>
      <trkpt lat="44.00836" lon="3.50732">
        <ele>1098.9</ele>
        <time>2026-05-28T13:57:22.999Z</time>
      </trkpt>
      <trkpt lat="44.00836" lon="3.50732">
        <ele>1098.9</ele>
        <time>2026-05-28T13:57:23.999Z</time>
      </trkpt>
      <trkpt lat="44.00837" lon="3.50732">
        <ele>1098.7</ele>
        <time>2026-05-28T13:57:24.999Z</time>
      </trkpt>
      <trkpt lat="44.00837" lon="3.50732">
        <ele>1098.5</ele>
        <time>2026-05-28T13:57:25.999Z</time>
      </trkpt>
      <trkpt lat="44.00838" lon="3.5073">
        <ele>1098.3</ele>
        <time>2026-05-28T13:57:26.999Z</time>
      </trkpt>
      <trkpt lat="44.00838" lon="3.50729">
        <ele>1098.1</ele>
        <time>2026-05-28T13:57:27.999Z</time>
      </trkpt>
      <trkpt lat="44.00838" lon="3.50729">
        <ele>1097.7</ele>
        <time>2026-05-28T13:57:28.999Z</time>
      </trkpt>
      <trkpt lat="44.00838" lon="3.50728">
        <ele>1097.5</ele>
        <time>2026-05-28T13:57:29.999Z</time>
      </trkpt>
      <trkpt lat="44.00838" lon="3.50728">
        <ele>1097.6</ele>
        <time>2026-05-28T13:57:30.999Z</time>
      </trkpt>
      <trkpt lat="44.00838" lon="3.50728">
        <ele>1097.3</ele>
        <time>2026-05-28T13:57:31.999Z</time>
      </trkpt>
      <trkpt lat="44.00838" lon="3.50728">
        <ele>1097</ele>
        <time>2026-05-28T13:57:32.999Z</time>
      </trkpt>
      <trkpt lat="44.00838" lon="3.50727">
        <ele>1096.5</ele>
        <time>2026-05-28T13:57:33.999Z</time>
      </trkpt>
      <trkpt lat="44.00838" lon="3.50727">
        <ele>1096.1</ele>
        <time>2026-05-28T13:57:34.999Z</time>
      </trkpt>
      <trkpt lat="44.00838" lon="3.50726">
        <ele>1095.9</ele>
        <time>2026-05-28T13:57:35.999Z</time>
      </trkpt>
      <trkpt lat="44.00838" lon="3.50725">
        <ele>1095.6</ele>
        <time>2026-05-28T13:57:36.999Z</time>
      </trkpt>
      <trkpt lat="44.00838" lon="3.50724">
        <ele>1095.5</ele>
        <time>2026-05-28T13:57:37.999Z</time>
      </trkpt>
      <trkpt lat="44.00837" lon="3.50723">
        <ele>1095.4</ele>
        <time>2026-05-28T13:57:38.999Z</time>
      </trkpt>
      <trkpt lat="44.00838" lon="3.50723">
        <ele>1095.1</ele>
        <time>2026-05-28T13:57:39.999Z</time>
      </trkpt>
      <trkpt lat="44.00838" lon="3.50722">
        <ele>1094.9</ele>
        <time>2026-05-28T13:57:40.999Z</time>
      </trkpt>
      <trkpt lat="44.00838" lon="3.50722">
        <ele>1094.8</ele>
        <time>2026-05-28T13:57:41.999Z</time>
      </trkpt>
      <trkpt lat="44.00838" lon="3.50721">
        <ele>1094.9</ele>
        <time>2026-05-28T13:57:42.999Z</time>
      </trkpt>
      <trkpt lat="44.00838" lon="3.50721">
        <ele>1094.8</ele>
        <time>2026-05-28T13:57:43.999Z</time>
      </trkpt>
      <trkpt lat="44.00839" lon="3.5072">
        <ele>1094.8</ele>
        <time>2026-05-28T13:57:44.999Z</time>
      </trkpt>
      <trkpt lat="44.00839" lon="3.5072">
        <ele>1094.6</ele>
        <time>2026-05-28T13:57:45.999Z</time>
      </trkpt>
      <trkpt lat="44.00839" lon="3.50719">
        <ele>1094.4</ele>
        <time>2026-05-28T13:57:46.999Z</time>
      </trkpt>
      <trkpt lat="44.00839" lon="3.50718">
        <ele>1094.4</ele>
        <time>2026-05-28T13:57:47.999Z</time>
      </trkpt>
      <trkpt lat="44.0084" lon="3.50718">
        <ele>1094.3</ele>
        <time>2026-05-28T13:57:48.999Z</time>
      </trkpt>
      <trkpt lat="44.00841" lon="3.50718">
        <ele>1094</ele>
        <time>2026-05-28T13:57:49.999Z</time>
      </trkpt>
      <trkpt lat="44.00841" lon="3.50717">
        <ele>1093.8</ele>
        <time>2026-05-28T13:57:50.999Z</time>
      </trkpt>
      <trkpt lat="44.00841" lon="3.50717">
        <ele>1093.6</ele>
        <time>2026-05-28T13:57:51.999Z</time>
      </trkpt>
      <trkpt lat="44.00841" lon="3.50716">
        <ele>1093.6</ele>
        <time>2026-05-28T13:57:52.999Z</time>
      </trkpt>
      <trkpt lat="44.00842" lon="3.50716">
        <ele>1093.3</ele>
        <time>2026-05-28T13:57:53.999Z</time>
      </trkpt>
      <trkpt lat="44.00842" lon="3.50716">
        <ele>1093.1</ele>
        <time>2026-05-28T13:57:54.999Z</time>
      </trkpt>
      <trkpt lat="44.00843" lon="3.50716">
        <ele>1092.7</ele>
        <time>2026-05-28T13:57:55.999Z</time>
      </trkpt>
      <trkpt lat="44.00845" lon="3.50716">
        <ele>1092.6</ele>
        <time>2026-05-28T13:57:56.999Z</time>
      </trkpt>
      <trkpt lat="44.00846" lon="3.50716">
        <ele>1092.5</ele>
        <time>2026-05-28T13:57:57.999Z</time>
      </trkpt>
      <trkpt lat="44.00847" lon="3.50716">
        <ele>1092.3</ele>
        <time>2026-05-28T13:57:58.999Z</time>
      </trkpt>
      <trkpt lat="44.00848" lon="3.50716">
        <ele>1092.2</ele>
        <time>2026-05-28T13:57:59.999Z</time>
      </trkpt>
      <trkpt lat="44.00848" lon="3.50716">
        <ele>1092.1</ele>
        <time>2026-05-28T13:58:00.999Z</time>
      </trkpt>
      <trkpt lat="44.00848" lon="3.50716">
        <ele>1091.9</ele>
        <time>2026-05-28T13:58:01.999Z</time>
      </trkpt>
      <trkpt lat="44.00849" lon="3.50716">
        <ele>1091.6</ele>
        <time>2026-05-28T13:58:02.999Z</time>
      </trkpt>
      <trkpt lat="44.00849" lon="3.50715">
        <ele>1091.3</ele>
        <time>2026-05-28T13:58:03.999Z</time>
      </trkpt>
      <trkpt lat="44.0085" lon="3.50714">
        <ele>1091.2</ele>
        <time>2026-05-28T13:58:04.999Z</time>
      </trkpt>
      <trkpt lat="44.0085" lon="3.50712">
        <ele>1091.2</ele>
        <time>2026-05-28T13:58:05.999Z</time>
      </trkpt>
      <trkpt lat="44.0085" lon="3.50712">
        <ele>1091.5</ele>
        <time>2026-05-28T13:58:06.999Z</time>
      </trkpt>
      <trkpt lat="44.00849" lon="3.50711">
        <ele>1091.5</ele>
        <time>2026-05-28T13:58:07.999Z</time>
      </trkpt>
      <trkpt lat="44.00849" lon="3.50711">
        <ele>1091.2</ele>
        <time>2026-05-28T13:58:08.999Z</time>
      </trkpt>
      <trkpt lat="44.00849" lon="3.50711">
        <ele>1090.9</ele>
        <time>2026-05-28T13:58:09.999Z</time>
      </trkpt>
      <trkpt lat="44.00849" lon="3.50711">
        <ele>1090.7</ele>
        <time>2026-05-28T13:58:10.999Z</time>
      </trkpt>
      <trkpt lat="44.00849" lon="3.5071">
        <ele>1090.6</ele>
        <time>2026-05-28T13:58:11.999Z</time>
      </trkpt>
      <trkpt lat="44.00849" lon="3.5071">
        <ele>1090.7</ele>
        <time>2026-05-28T13:58:12.999Z</time>
      </trkpt>
      <trkpt lat="44.00847" lon="3.50709">
        <ele>1090.3</ele>
        <time>2026-05-28T13:58:13.999Z</time>
      </trkpt>
      <trkpt lat="44.00846" lon="3.50709">
        <ele>1089.8</ele>
        <time>2026-05-28T13:58:14.999Z</time>
      </trkpt>
      <trkpt lat="44.00846" lon="3.50708">
        <ele>1089.5</ele>
        <time>2026-05-28T13:58:15.999Z</time>
      </trkpt>
      <trkpt lat="44.00846" lon="3.50707">
        <ele>1089.3</ele>
        <time>2026-05-28T13:58:16.999Z</time>
      </trkpt>
      <trkpt lat="44.00845" lon="3.50706">
        <ele>1089.1</ele>
        <time>2026-05-28T13:58:17.999Z</time>
      </trkpt>
      <trkpt lat="44.00844" lon="3.50706">
        <ele>1089.1</ele>
        <time>2026-05-28T13:58:18.999Z</time>
      </trkpt>
      <trkpt lat="44.00843" lon="3.50705">
        <ele>1089.1</ele>
        <time>2026-05-28T13:58:19.999Z</time>
      </trkpt>
      <trkpt lat="44.00842" lon="3.50705">
        <ele>1089</ele>
        <time>2026-05-28T13:58:20.999Z</time>
      </trkpt>
      <trkpt lat="44.00842" lon="3.50705">
        <ele>1089</ele>
        <time>2026-05-28T13:58:21.999Z</time>
      </trkpt>
      <trkpt lat="44.00841" lon="3.50705">
        <ele>1088.9</ele>
        <time>2026-05-28T13:58:22.999Z</time>
      </trkpt>
      <trkpt lat="44.00842" lon="3.50705">
        <ele>1088.6</ele>
        <time>2026-05-28T13:58:23.999Z</time>
      </trkpt>
      <trkpt lat="44.00841" lon="3.50704">
        <ele>1088.6</ele>
        <time>2026-05-28T13:58:24.999Z</time>
      </trkpt>
      <trkpt lat="44.00841" lon="3.50704">
        <ele>1088.4</ele>
        <time>2026-05-28T13:58:25.999Z</time>
      </trkpt>
      <trkpt lat="44.00841" lon="3.50704">
        <ele>1088.2</ele>
        <time>2026-05-28T13:58:26.999Z</time>
      </trkpt>
      <trkpt lat="44.00841" lon="3.50703">
        <ele>1088.2</ele>
        <time>2026-05-28T13:58:27.999Z</time>
      </trkpt>
      <trkpt lat="44.0084" lon="3.50703">
        <ele>1088.1</ele>
        <time>2026-05-28T13:58:28.999Z</time>
      </trkpt>
      <trkpt lat="44.0084" lon="3.50703">
        <ele>1087.7</ele>
        <time>2026-05-28T13:58:29.999Z</time>
      </trkpt>
      <trkpt lat="44.0084" lon="3.50703">
        <ele>1087.5</ele>
        <time>2026-05-28T13:58:30.999Z</time>
      </trkpt>
      <trkpt lat="44.00839" lon="3.50701">
        <ele>1087.7</ele>
        <time>2026-05-28T13:58:31.999Z</time>
      </trkpt>
      <trkpt lat="44.00838" lon="3.507">
        <ele>1087.9</ele>
        <time>2026-05-28T13:58:32.999Z</time>
      </trkpt>
      <trkpt lat="44.00837" lon="3.50699">
        <ele>1087.6</ele>
        <time>2026-05-28T13:58:33.999Z</time>
      </trkpt>
      <trkpt lat="44.00837" lon="3.50699">
        <ele>1087.4</ele>
        <time>2026-05-28T13:58:34.999Z</time>
      </trkpt>
      <trkpt lat="44.00837" lon="3.50698">
        <ele>1086.9</ele>
        <time>2026-05-28T13:58:35.999Z</time>
      </trkpt>
      <trkpt lat="44.00837" lon="3.50697">
        <ele>1086.9</ele>
        <time>2026-05-28T13:58:36.999Z</time>
      </trkpt>
      <trkpt lat="44.00837" lon="3.50697">
        <ele>1086.9</ele>
        <time>2026-05-28T13:58:37.999Z</time>
      </trkpt>
      <trkpt lat="44.00837" lon="3.50696">
        <ele>1086.9</ele>
        <time>2026-05-28T13:58:38.999Z</time>
      </trkpt>
      <trkpt lat="44.00836" lon="3.50695">
        <ele>1086.7</ele>
        <time>2026-05-28T13:58:39.999Z</time>
      </trkpt>
      <trkpt lat="44.00836" lon="3.50695">
        <ele>1086.4</ele>
        <time>2026-05-28T13:58:40.999Z</time>
      </trkpt>
      <trkpt lat="44.00835" lon="3.50695">
        <ele>1086.4</ele>
        <time>2026-05-28T13:58:41.999Z</time>
      </trkpt>
      <trkpt lat="44.00835" lon="3.50695">
        <ele>1086.2</ele>
        <time>2026-05-28T13:58:42.999Z</time>
      </trkpt>
      <trkpt lat="44.00835" lon="3.50695">
        <ele>1086</ele>
        <time>2026-05-28T13:58:43.999Z</time>
      </trkpt>
      <trkpt lat="44.00835" lon="3.50694">
        <ele>1085.8</ele>
        <time>2026-05-28T13:58:44.999Z</time>
      </trkpt>
      <trkpt lat="44.00834" lon="3.50693">
        <ele>1085.8</ele>
        <time>2026-05-28T13:58:45.999Z</time>
      </trkpt>
      <trkpt lat="44.00834" lon="3.50693">
        <ele>1085.6</ele>
        <time>2026-05-28T13:58:46.999Z</time>
      </trkpt>
      <trkpt lat="44.00833" lon="3.50692">
        <ele>1085.2</ele>
        <time>2026-05-28T13:58:47.999Z</time>
      </trkpt>
      <trkpt lat="44.00833" lon="3.50692">
        <ele>1084.8</ele>
        <time>2026-05-28T13:58:48.999Z</time>
      </trkpt>
      <trkpt lat="44.00832" lon="3.50691">
        <ele>1084.5</ele>
        <time>2026-05-28T13:58:49.999Z</time>
      </trkpt>
      <trkpt lat="44.00832" lon="3.50691">
        <ele>1084.3</ele>
        <time>2026-05-28T13:58:50.999Z</time>
      </trkpt>
      <trkpt lat="44.00831" lon="3.5069">
        <ele>1084.3</ele>
        <time>2026-05-28T13:58:51.999Z</time>
      </trkpt>
      <trkpt lat="44.0083" lon="3.50689">
        <ele>1084.3</ele>
        <time>2026-05-28T13:58:52.999Z</time>
      </trkpt>
      <trkpt lat="44.0083" lon="3.50689">
        <ele>1084.3</ele>
        <time>2026-05-28T13:58:53.999Z</time>
      </trkpt>
      <trkpt lat="44.00829" lon="3.50688">
        <ele>1084.3</ele>
        <time>2026-05-28T13:58:54.999Z</time>
      </trkpt>
      <trkpt lat="44.00829" lon="3.50689">
        <ele>1083.8</ele>
        <time>2026-05-28T13:58:55.999Z</time>
      </trkpt>
      <trkpt lat="44.00829" lon="3.50689">
        <ele>1083.3</ele>
        <time>2026-05-28T13:58:56.999Z</time>
      </trkpt>
      <trkpt lat="44.00829" lon="3.50688">
        <ele>1083.4</ele>
        <time>2026-05-28T13:58:57.999Z</time>
      </trkpt>
      <trkpt lat="44.00829" lon="3.50688">
        <ele>1083.3</ele>
        <time>2026-05-28T13:58:58.999Z</time>
      </trkpt>
      <trkpt lat="44.00828" lon="3.50688">
        <ele>1083.1</ele>
        <time>2026-05-28T13:58:59.999Z</time>
      </trkpt>
      <trkpt lat="44.00828" lon="3.50687">
        <ele>1083.1</ele>
        <time>2026-05-28T13:59:00.999Z</time>
      </trkpt>
      <trkpt lat="44.00827" lon="3.50687">
        <ele>1083.1</ele>
        <time>2026-05-28T13:59:01.999Z</time>
      </trkpt>
      <trkpt lat="44.00826" lon="3.50686">
        <ele>1083</ele>
        <time>2026-05-28T13:59:02.999Z</time>
      </trkpt>
      <trkpt lat="44.00826" lon="3.50686">
        <ele>1082.7</ele>
        <time>2026-05-28T13:59:03.999Z</time>
      </trkpt>
      <trkpt lat="44.00825" lon="3.50686">
        <ele>1082.6</ele>
        <time>2026-05-28T13:59:04.999Z</time>
      </trkpt>
      <trkpt lat="44.00825" lon="3.50685">
        <ele>1082.9</ele>
        <time>2026-05-28T13:59:05.999Z</time>
      </trkpt>
      <trkpt lat="44.00825" lon="3.50685">
        <ele>1082.9</ele>
        <time>2026-05-28T13:59:06.999Z</time>
      </trkpt>
      <trkpt lat="44.00825" lon="3.50685">
        <ele>1082.7</ele>
        <time>2026-05-28T13:59:07.999Z</time>
      </trkpt>
      <trkpt lat="44.00825" lon="3.50684">
        <ele>1082.7</ele>
        <time>2026-05-28T13:59:08.999Z</time>
      </trkpt>
      <trkpt lat="44.00825" lon="3.50684">
        <ele>1082.5</ele>
        <time>2026-05-28T13:59:09.999Z</time>
      </trkpt>
      <trkpt lat="44.00824" lon="3.50684">
        <ele>1082.5</ele>
        <time>2026-05-28T13:59:10.999Z</time>
      </trkpt>
      <trkpt lat="44.00823" lon="3.50683">
        <ele>1082.2</ele>
        <time>2026-05-28T13:59:11.999Z</time>
      </trkpt>
      <trkpt lat="44.00823" lon="3.50683">
        <ele>1082</ele>
        <time>2026-05-28T13:59:12.999Z</time>
      </trkpt>
      <trkpt lat="44.00822" lon="3.50682">
        <ele>1081.7</ele>
        <time>2026-05-28T13:59:13.999Z</time>
      </trkpt>
      <trkpt lat="44.00822" lon="3.50681">
        <ele>1081.3</ele>
        <time>2026-05-28T13:59:14.999Z</time>
      </trkpt>
      <trkpt lat="44.00822" lon="3.50681">
        <ele>1081.1</ele>
        <time>2026-05-28T13:59:15.999Z</time>
      </trkpt>
      <trkpt lat="44.00822" lon="3.5068">
        <ele>1080.8</ele>
        <time>2026-05-28T13:59:16.999Z</time>
      </trkpt>
      <trkpt lat="44.00822" lon="3.5068">
        <ele>1080.6</ele>
        <time>2026-05-28T13:59:17.999Z</time>
      </trkpt>
      <trkpt lat="44.00822" lon="3.5068">
        <ele>1080.3</ele>
        <time>2026-05-28T13:59:18.999Z</time>
      </trkpt>
      <trkpt lat="44.00823" lon="3.50679">
        <ele>1080.5</ele>
        <time>2026-05-28T13:59:19.999Z</time>
      </trkpt>
      <trkpt lat="44.00823" lon="3.50679">
        <ele>1080.3</ele>
        <time>2026-05-28T13:59:20.999Z</time>
      </trkpt>
      <trkpt lat="44.00823" lon="3.50679">
        <ele>1080.1</ele>
        <time>2026-05-28T13:59:21.999Z</time>
      </trkpt>
      <trkpt lat="44.00823" lon="3.50679">
        <ele>1079.9</ele>
        <time>2026-05-28T13:59:22.999Z</time>
      </trkpt>
      <trkpt lat="44.00823" lon="3.50679">
        <ele>1079.6</ele>
        <time>2026-05-28T13:59:23.999Z</time>
      </trkpt>
      <trkpt lat="44.00823" lon="3.50679">
        <ele>1079.2</ele>
        <time>2026-05-28T13:59:24.999Z</time>
      </trkpt>
      <trkpt lat="44.00823" lon="3.50678">
        <ele>1079.1</ele>
        <time>2026-05-28T13:59:25.999Z</time>
      </trkpt>
      <trkpt lat="44.00823" lon="3.50678">
        <ele>1078.9</ele>
        <time>2026-05-28T13:59:26.999Z</time>
      </trkpt>
      <trkpt lat="44.00824" lon="3.50677">
        <ele>1078.9</ele>
        <time>2026-05-28T13:59:27.999Z</time>
      </trkpt>
      <trkpt lat="44.00824" lon="3.50676">
        <ele>1078.8</ele>
        <time>2026-05-28T13:59:28.999Z</time>
      </trkpt>
      <trkpt lat="44.00824" lon="3.50676">
        <ele>1078.5</ele>
        <time>2026-05-28T13:59:29.999Z</time>
      </trkpt>
      <trkpt lat="44.00825" lon="3.50676">
        <ele>1078.2</ele>
        <time>2026-05-28T13:59:30.999Z</time>
      </trkpt>
      <trkpt lat="44.00825" lon="3.50676">
        <ele>1078</ele>
        <time>2026-05-28T13:59:31.999Z</time>
      </trkpt>
      <trkpt lat="44.00825" lon="3.50676">
        <ele>1077.8</ele>
        <time>2026-05-28T13:59:32.999Z</time>
      </trkpt>
      <trkpt lat="44.00825" lon="3.50675">
        <ele>1077.7</ele>
        <time>2026-05-28T13:59:33.999Z</time>
      </trkpt>
      <trkpt lat="44.00825" lon="3.50675">
        <ele>1077.5</ele>
        <time>2026-05-28T13:59:34.999Z</time>
      </trkpt>
      <trkpt lat="44.00825" lon="3.50675">
        <ele>1077.4</ele>
        <time>2026-05-28T13:59:35.999Z</time>
      </trkpt>
      <trkpt lat="44.00825" lon="3.50675">
        <ele>1077.1</ele>
        <time>2026-05-28T13:59:36.999Z</time>
      </trkpt>
      <trkpt lat="44.00825" lon="3.50675">
        <ele>1076.9</ele>
        <time>2026-05-28T13:59:37.999Z</time>
      </trkpt>
      <trkpt lat="44.00825" lon="3.50675">
        <ele>1076.7</ele>
        <time>2026-05-28T13:59:38.999Z</time>
      </trkpt>
      <trkpt lat="44.00825" lon="3.50675">
        <ele>1076.5</ele>
        <time>2026-05-28T13:59:39.999Z</time>
      </trkpt>
      <trkpt lat="44.00824" lon="3.50675">
        <ele>1076.4</ele>
        <time>2026-05-28T13:59:40.999Z</time>
      </trkpt>
      <trkpt lat="44.00824" lon="3.50675">
        <ele>1076.3</ele>
        <time>2026-05-28T13:59:41.999Z</time>
      </trkpt>
      <trkpt lat="44.00824" lon="3.50674">
        <ele>1076.1</ele>
        <time>2026-05-28T13:59:42.999Z</time>
      </trkpt>
      <trkpt lat="44.00824" lon="3.50674">
        <ele>1076</ele>
        <time>2026-05-28T13:59:43.999Z</time>
      </trkpt>
      <trkpt lat="44.00824" lon="3.50674">
        <ele>1075.9</ele>
        <time>2026-05-28T13:59:44.999Z</time>
      </trkpt>
      <trkpt lat="44.00824" lon="3.50674">
        <ele>1075.7</ele>
        <time>2026-05-28T13:59:45.999Z</time>
      </trkpt>
      <trkpt lat="44.00824" lon="3.50674">
        <ele>1075.6</ele>
        <time>2026-05-28T13:59:46.999Z</time>
      </trkpt>
      <trkpt lat="44.00824" lon="3.50674">
        <ele>1075.6</ele>
        <time>2026-05-28T13:59:47.999Z</time>
      </trkpt>
      <trkpt lat="44.00824" lon="3.50674">
        <ele>1075.5</ele>
        <time>2026-05-28T13:59:48.999Z</time>
      </trkpt>
      <trkpt lat="44.00824" lon="3.50674">
        <ele>1075.6</ele>
        <time>2026-05-28T13:59:49.999Z</time>
      </trkpt>
      <trkpt lat="44.00824" lon="3.50674">
        <ele>1075.6</ele>
        <time>2026-05-28T13:59:50.999Z</time>
      </trkpt>
      <trkpt lat="44.00824" lon="3.50674">
        <ele>1075.7</ele>
        <time>2026-05-28T13:59:51.999Z</time>
      </trkpt>
      <trkpt lat="44.00824" lon="3.50674">
        <ele>1075.7</ele>
        <time>2026-05-28T13:59:52.999Z</time>
      </trkpt>
      <trkpt lat="44.00824" lon="3.50673">
        <ele>1075.8</ele>
        <time>2026-05-28T13:59:53.999Z</time>
      </trkpt>
      <trkpt lat="44.00824" lon="3.50673">
        <ele>1075.9</ele>
        <time>2026-05-28T13:59:54.999Z</time>
      </trkpt>
      <trkpt lat="44.00824" lon="3.50672">
        <ele>1076</ele>
        <time>2026-05-28T13:59:55.999Z</time>
      </trkpt>
      <trkpt lat="44.00824" lon="3.50672">
        <ele>1076.1</ele>
        <time>2026-05-28T13:59:56.999Z</time>
      </trkpt>
      <trkpt lat="44.00824" lon="3.50672">
        <ele>1076.1</ele>
        <time>2026-05-28T13:59:57.999Z</time>
      </trkpt>
      <trkpt lat="44.00824" lon="3.50672">
        <ele>1076.2</ele>
        <time>2026-05-28T13:59:58.999Z</time>
      </trkpt>
      <trkpt lat="44.00824" lon="3.50672">
        <ele>1076.2</ele>
        <time>2026-05-28T13:59:59.999Z</time>
      </trkpt>
      <trkpt lat="44.00824" lon="3.50672">
        <ele>1076.2</ele>
        <time>2026-05-28T14:00:00.999Z</time>
      </trkpt>
      <trkpt lat="44.00824" lon="3.5067">
        <ele>1076.1</ele>
        <time>2026-05-28T14:00:01.999Z</time>
      </trkpt>
      <trkpt lat="44.00823" lon="3.50669">
        <ele>1076.1</ele>
        <time>2026-05-28T14:00:02.999Z</time>
      </trkpt>
      <trkpt lat="44.00822" lon="3.50668">
        <ele>1075.9</ele>
        <time>2026-05-28T14:00:03.999Z</time>
      </trkpt>
      <trkpt lat="44.00821" lon="3.50667">
        <ele>1075.7</ele>
        <time>2026-05-28T14:00:04.999Z</time>
      </trkpt>
      <trkpt lat="44.0082" lon="3.50666">
        <ele>1075.4</ele>
        <time>2026-05-28T14:00:05.999Z</time>
      </trkpt>
      <trkpt lat="44.0082" lon="3.50666">
        <ele>1075</ele>
        <time>2026-05-28T14:00:06.999Z</time>
      </trkpt>
      <trkpt lat="44.00819" lon="3.50666">
        <ele>1074.8</ele>
        <time>2026-05-28T14:00:07.999Z</time>
      </trkpt>
      <trkpt lat="44.00819" lon="3.50666">
        <ele>1074.6</ele>
        <time>2026-05-28T14:00:08.999Z</time>
      </trkpt>
      <trkpt lat="44.00819" lon="3.50666">
        <ele>1074.6</ele>
        <time>2026-05-28T14:00:09.999Z</time>
      </trkpt>
      <trkpt lat="44.00818" lon="3.50665">
        <ele>1074.8</ele>
        <time>2026-05-28T14:00:10.999Z</time>
      </trkpt>
      <trkpt lat="44.00817" lon="3.50665">
        <ele>1074.9</ele>
        <time>2026-05-28T14:00:11.999Z</time>
      </trkpt>
      <trkpt lat="44.00816" lon="3.50665">
        <ele>1075</ele>
        <time>2026-05-28T14:00:12.999Z</time>
      </trkpt>
      <trkpt lat="44.00816" lon="3.50665">
        <ele>1074.9</ele>
        <time>2026-05-28T14:00:13.999Z</time>
      </trkpt>
      <trkpt lat="44.00815" lon="3.50665">
        <ele>1074.8</ele>
        <time>2026-05-28T14:00:14.999Z</time>
      </trkpt>
      <trkpt lat="44.00815" lon="3.50665">
        <ele>1075</ele>
        <time>2026-05-28T14:00:15.999Z</time>
      </trkpt>
      <trkpt lat="44.00816" lon="3.50665">
        <ele>1074.9</ele>
        <time>2026-05-28T14:00:16.999Z</time>
      </trkpt>
      <trkpt lat="44.00816" lon="3.50665">
        <ele>1074.7</ele>
        <time>2026-05-28T14:00:17.999Z</time>
      </trkpt>
      <trkpt lat="44.00816" lon="3.50666">
        <ele>1074.5</ele>
        <time>2026-05-28T14:00:18.999Z</time>
      </trkpt>
      <trkpt lat="44.00816" lon="3.50666">
        <ele>1074.4</ele>
        <time>2026-05-28T14:00:19.999Z</time>
      </trkpt>
      <trkpt lat="44.00816" lon="3.50666">
        <ele>1074.5</ele>
        <time>2026-05-28T14:00:20.999Z</time>
      </trkpt>
      <trkpt lat="44.00816" lon="3.50666">
        <ele>1074.3</ele>
        <time>2026-05-28T14:00:21.999Z</time>
      </trkpt>
      <trkpt lat="44.00816" lon="3.50666">
        <ele>1074.3</ele>
        <time>2026-05-28T14:00:22.999Z</time>
      </trkpt>
      <trkpt lat="44.00816" lon="3.50666">
        <ele>1074.2</ele>
        <time>2026-05-28T14:00:23.999Z</time>
      </trkpt>
      <trkpt lat="44.00816" lon="3.50666">
        <ele>1073.8</ele>
        <time>2026-05-28T14:00:24.999Z</time>
      </trkpt>
      <trkpt lat="44.00817" lon="3.50666">
        <ele>1073.6</ele>
        <time>2026-05-28T14:00:25.999Z</time>
      </trkpt>
      <trkpt lat="44.00817" lon="3.50665">
        <ele>1073.5</ele>
        <time>2026-05-28T14:00:26.999Z</time>
      </trkpt>
      <trkpt lat="44.00817" lon="3.50665">
        <ele>1073.4</ele>
        <time>2026-05-28T14:00:27.999Z</time>
      </trkpt>
      <trkpt lat="44.00817" lon="3.50665">
        <ele>1073.3</ele>
        <time>2026-05-28T14:00:28.999Z</time>
      </trkpt>
      <trkpt lat="44.00816" lon="3.50665">
        <ele>1073.4</ele>
        <time>2026-05-28T14:00:29.999Z</time>
      </trkpt>
      <trkpt lat="44.00817" lon="3.50665">
        <ele>1073.3</ele>
        <time>2026-05-28T14:00:30.999Z</time>
      </trkpt>
      <trkpt lat="44.00817" lon="3.50665">
        <ele>1073.2</ele>
        <time>2026-05-28T14:00:31.999Z</time>
      </trkpt>
      <trkpt lat="44.00817" lon="3.50665">
        <ele>1073.2</ele>
        <time>2026-05-28T14:00:32.999Z</time>
      </trkpt>
      <trkpt lat="44.00817" lon="3.50665">
        <ele>1073</ele>
        <time>2026-05-28T14:00:33.999Z</time>
      </trkpt>
      <trkpt lat="44.00817" lon="3.50665">
        <ele>1072.8</ele>
        <time>2026-05-28T14:00:34.999Z</time>
      </trkpt>
      <trkpt lat="44.00816" lon="3.50665">
        <ele>1072.8</ele>
        <time>2026-05-28T14:00:35.999Z</time>
      </trkpt>
      <trkpt lat="44.00816" lon="3.50665">
        <ele>1072.6</ele>
        <time>2026-05-28T14:00:36.999Z</time>
      </trkpt>
      <trkpt lat="44.00816" lon="3.50665">
        <ele>1072.5</ele>
        <time>2026-05-28T14:00:37.999Z</time>
      </trkpt>
      <trkpt lat="44.00816" lon="3.50665">
        <ele>1072.6</ele>
        <time>2026-05-28T14:00:38.999Z</time>
      </trkpt>
      <trkpt lat="44.00816" lon="3.50665">
        <ele>1072.7</ele>
        <time>2026-05-28T14:00:39.999Z</time>
      </trkpt>
      <trkpt lat="44.00816" lon="3.50665">
        <ele>1073</ele>
        <time>2026-05-28T14:00:40.999Z</time>
      </trkpt>
      <trkpt lat="44.00816" lon="3.50665">
        <ele>1073.1</ele>
        <time>2026-05-28T14:00:41.999Z</time>
      </trkpt>
      <trkpt lat="44.00816" lon="3.50665">
        <ele>1073</ele>
        <time>2026-05-28T14:00:42.999Z</time>
      </trkpt>
      <trkpt lat="44.00816" lon="3.50665">
        <ele>1073.1</ele>
        <time>2026-05-28T14:00:43.999Z</time>
      </trkpt>
      <trkpt lat="44.00816" lon="3.50665">
        <ele>1073</ele>
        <time>2026-05-28T14:00:44.999Z</time>
      </trkpt>
      <trkpt lat="44.00817" lon="3.50665">
        <ele>1073</ele>
        <time>2026-05-28T14:00:45.999Z</time>
      </trkpt>
      <trkpt lat="44.00817" lon="3.50665">
        <ele>1073.2</ele>
        <time>2026-05-28T14:00:46.999Z</time>
      </trkpt>
      <trkpt lat="44.00817" lon="3.50665">
        <ele>1073.4</ele>
        <time>2026-05-28T14:00:47.999Z</time>
      </trkpt>
      <trkpt lat="44.00816" lon="3.50665">
        <ele>1073.6</ele>
        <time>2026-05-28T14:00:48.999Z</time>
      </trkpt>
      <trkpt lat="44.00816" lon="3.50665">
        <ele>1073.6</ele>
        <time>2026-05-28T14:00:49.999Z</time>
      </trkpt>
      <trkpt lat="44.00817" lon="3.50665">
        <ele>1073.8</ele>
        <time>2026-05-28T14:00:50.999Z</time>
      </trkpt>
      <trkpt lat="44.00817" lon="3.50665">
        <ele>1073.8</ele>
        <time>2026-05-28T14:00:51.999Z</time>
      </trkpt>
      <trkpt lat="44.00817" lon="3.50665">
        <ele>1074</ele>
        <time>2026-05-28T14:00:52.999Z</time>
      </trkpt>
      <trkpt lat="44.00817" lon="3.50665">
        <ele>1074.2</ele>
        <time>2026-05-28T14:00:53.999Z</time>
      </trkpt>
      <trkpt lat="44.00817" lon="3.50665">
        <ele>1074.3</ele>
        <time>2026-05-28T14:00:54.999Z</time>
      </trkpt>
      <trkpt lat="44.00817" lon="3.50665">
        <ele>1074.5</ele>
        <time>2026-05-28T14:00:55.999Z</time>
      </trkpt>
      <trkpt lat="44.00817" lon="3.50665">
        <ele>1074.6</ele>
        <time>2026-05-28T14:00:56.999Z</time>
      </trkpt>
      <trkpt lat="44.00816" lon="3.50665">
        <ele>1074.7</ele>
        <time>2026-05-28T14:00:57.999Z</time>
      </trkpt>
      <trkpt lat="44.00816" lon="3.50665">
        <ele>1074.8</ele>
        <time>2026-05-28T14:00:58.999Z</time>
      </trkpt>
      <trkpt lat="44.00816" lon="3.50665">
        <ele>1074.8</ele>
        <time>2026-05-28T14:00:59.999Z</time>
      </trkpt>
      <trkpt lat="44.00816" lon="3.50665">
        <ele>1074.9</ele>
        <time>2026-05-28T14:01:00.999Z</time>
      </trkpt>
      <trkpt lat="44.00816" lon="3.50665">
        <ele>1075</ele>
        <time>2026-05-28T14:01:01.999Z</time>
      </trkpt>
      <trkpt lat="44.00816" lon="3.50665">
        <ele>1075</ele>
        <time>2026-05-28T14:01:02.999Z</time>
      </trkpt>
      <trkpt lat="44.00816" lon="3.50665">
        <ele>1074.9</ele>
        <time>2026-05-28T14:01:03.999Z</time>
      </trkpt>
      <trkpt lat="44.00816" lon="3.50665">
        <ele>1075</ele>
        <time>2026-05-28T14:01:04.999Z</time>
      </trkpt>
      <trkpt lat="44.00816" lon="3.50665">
        <ele>1074.9</ele>
        <time>2026-05-28T14:01:05.999Z</time>
      </trkpt>
      <trkpt lat="44.00816" lon="3.50665">
        <ele>1074.9</ele>
        <time>2026-05-28T14:01:06.999Z</time>
      </trkpt>
      <trkpt lat="44.00816" lon="3.50665">
        <ele>1074.8</ele>
        <time>2026-05-28T14:01:07.999Z</time>
      </trkpt>
      <trkpt lat="44.00816" lon="3.50665">
        <ele>1075</ele>
        <time>2026-05-28T14:01:08.999Z</time>
      </trkpt>
      <trkpt lat="44.00816" lon="3.50665">
        <ele>1075</ele>
        <time>2026-05-28T14:01:09.999Z</time>
      </trkpt>
      <trkpt lat="44.00816" lon="3.50665">
        <ele>1074.9</ele>
        <time>2026-05-28T14:01:10.999Z</time>
      </trkpt>
      <trkpt lat="44.00816" lon="3.50664">
        <ele>1074.8</ele>
        <time>2026-05-28T14:01:11.999Z</time>
      </trkpt>
      <trkpt lat="44.00816" lon="3.50664">
        <ele>1074.6</ele>
        <time>2026-05-28T14:01:12.999Z</time>
      </trkpt>
      <trkpt lat="44.00815" lon="3.50663">
        <ele>1074.7</ele>
        <time>2026-05-28T14:01:13.999Z</time>
      </trkpt>
      <trkpt lat="44.00815" lon="3.50662">
        <ele>1074.9</ele>
        <time>2026-05-28T14:01:14.999Z</time>
      </trkpt>
      <trkpt lat="44.00815" lon="3.50662">
        <ele>1075</ele>
        <time>2026-05-28T14:01:15.999Z</time>
      </trkpt>
      <trkpt lat="44.00815" lon="3.50662">
        <ele>1074.9</ele>
        <time>2026-05-28T14:01:16.999Z</time>
      </trkpt>
      <trkpt lat="44.00815" lon="3.50662">
        <ele>1074.9</ele>
        <time>2026-05-28T14:01:18.999Z</time>
      </trkpt>
      <trkpt lat="44.00815" lon="3.50662">
        <ele>1074.7</ele>
        <time>2026-05-28T14:01:19.999Z</time>
      </trkpt>
      <trkpt lat="44.00815" lon="3.50662">
        <ele>1074.7</ele>
        <time>2026-05-28T14:01:20.999Z</time>
      </trkpt>
      <trkpt lat="44.00814" lon="3.50662">
        <ele>1074.5</ele>
        <time>2026-05-28T14:01:21.999Z</time>
      </trkpt>
      <trkpt lat="44.00814" lon="3.50662">
        <ele>1074.5</ele>
        <time>2026-05-28T14:01:22.999Z</time>
      </trkpt>
      <trkpt lat="44.00813" lon="3.50661">
        <ele>1074.3</ele>
        <time>2026-05-28T14:01:23.999Z</time>
      </trkpt>
      <trkpt lat="44.00812" lon="3.50661">
        <ele>1074.2</ele>
        <time>2026-05-28T14:01:24.999Z</time>
      </trkpt>
      <trkpt lat="44.00812" lon="3.50661">
        <ele>1074</ele>
        <time>2026-05-28T14:01:25.999Z</time>
      </trkpt>
      <trkpt lat="44.00812" lon="3.50661">
        <ele>1073.8</ele>
        <time>2026-05-28T14:01:26.999Z</time>
      </trkpt>
      <trkpt lat="44.00812" lon="3.50661">
        <ele>1073.8</ele>
        <time>2026-05-28T14:01:27.999Z</time>
      </trkpt>
      <trkpt lat="44.00812" lon="3.50661">
        <ele>1073.8</ele>
        <time>2026-05-28T14:01:28.999Z</time>
      </trkpt>
      <trkpt lat="44.00811" lon="3.50661">
        <ele>1073.8</ele>
        <time>2026-05-28T14:01:29.999Z</time>
      </trkpt>
      <trkpt lat="44.0081" lon="3.50661">
        <ele>1073.8</ele>
        <time>2026-05-28T14:01:30.999Z</time>
      </trkpt>
      <trkpt lat="44.00809" lon="3.5066">
        <ele>1073.9</ele>
        <time>2026-05-28T14:01:31.999Z</time>
      </trkpt>
      <trkpt lat="44.00808" lon="3.5066">
        <ele>1074</ele>
        <time>2026-05-28T14:01:32.999Z</time>
      </trkpt>
      <trkpt lat="44.00807" lon="3.5066">
        <ele>1074</ele>
        <time>2026-05-28T14:01:33.999Z</time>
      </trkpt>
      <trkpt lat="44.00806" lon="3.5066">
        <ele>1073.9</ele>
        <time>2026-05-28T14:01:34.999Z</time>
      </trkpt>
      <trkpt lat="44.00806" lon="3.50659">
        <ele>1073.9</ele>
        <time>2026-05-28T14:01:35.999Z</time>
      </trkpt>
      <trkpt lat="44.00805" lon="3.50659">
        <ele>1074</ele>
        <time>2026-05-28T14:01:36.999Z</time>
      </trkpt>
      <trkpt lat="44.00805" lon="3.50658">
        <ele>1073.9</ele>
        <time>2026-05-28T14:01:37.999Z</time>
      </trkpt>
      <trkpt lat="44.00805" lon="3.50658">
        <ele>1073.7</ele>
        <time>2026-05-28T14:01:38.999Z</time>
      </trkpt>
      <trkpt lat="44.00805" lon="3.50658">
        <ele>1073.5</ele>
        <time>2026-05-28T14:01:39.999Z</time>
      </trkpt>
      <trkpt lat="44.00805" lon="3.50658">
        <ele>1073.7</ele>
        <time>2026-05-28T14:01:40.999Z</time>
      </trkpt>
      <trkpt lat="44.00805" lon="3.50657">
        <ele>1073.6</ele>
        <time>2026-05-28T14:01:41.999Z</time>
      </trkpt>
      <trkpt lat="44.00805" lon="3.50657">
        <ele>1073.3</ele>
        <time>2026-05-28T14:01:42.999Z</time>
      </trkpt>
      <trkpt lat="44.00805" lon="3.50657">
        <ele>1073.1</ele>
        <time>2026-05-28T14:01:43.999Z</time>
      </trkpt>
      <trkpt lat="44.00805" lon="3.50657">
        <ele>1072.8</ele>
        <time>2026-05-28T14:01:44.999Z</time>
      </trkpt>
      <trkpt lat="44.00805" lon="3.50657">
        <ele>1072.5</ele>
        <time>2026-05-28T14:01:45.999Z</time>
      </trkpt>
      <trkpt lat="44.00805" lon="3.50657">
        <ele>1072.3</ele>
        <time>2026-05-28T14:01:46.999Z</time>
      </trkpt>
      <trkpt lat="44.00804" lon="3.50657">
        <ele>1072</ele>
        <time>2026-05-28T14:01:47.999Z</time>
      </trkpt>
      <trkpt lat="44.00804" lon="3.50657">
        <ele>1071.7</ele>
        <time>2026-05-28T14:01:48.999Z</time>
      </trkpt>
      <trkpt lat="44.00804" lon="3.50657">
        <ele>1071.5</ele>
        <time>2026-05-28T14:01:49.999Z</time>
      </trkpt>
      <trkpt lat="44.00804" lon="3.50656">
        <ele>1071.2</ele>
        <time>2026-05-28T14:01:50.999Z</time>
      </trkpt>
      <trkpt lat="44.00804" lon="3.50656">
        <ele>1070.9</ele>
        <time>2026-05-28T14:01:51.999Z</time>
      </trkpt>
      <trkpt lat="44.00804" lon="3.50656">
        <ele>1070.6</ele>
        <time>2026-05-28T14:01:52.999Z</time>
      </trkpt>
      <trkpt lat="44.00804" lon="3.50656">
        <ele>1070.3</ele>
        <time>2026-05-28T14:01:53.999Z</time>
      </trkpt>
      <trkpt lat="44.00803" lon="3.50656">
        <ele>1070</ele>
        <time>2026-05-28T14:01:54.999Z</time>
      </trkpt>
      <trkpt lat="44.00803" lon="3.50656">
        <ele>1069.9</ele>
        <time>2026-05-28T14:01:55.999Z</time>
      </trkpt>
      <trkpt lat="44.00803" lon="3.50656">
        <ele>1069.6</ele>
        <time>2026-05-28T14:01:56.999Z</time>
      </trkpt>
      <trkpt lat="44.00802" lon="3.50656">
        <ele>1069.5</ele>
        <time>2026-05-28T14:01:57.999Z</time>
      </trkpt>
      <trkpt lat="44.00802" lon="3.50656">
        <ele>1069.5</ele>
        <time>2026-05-28T14:01:58.999Z</time>
      </trkpt>
      <trkpt lat="44.00801" lon="3.50656">
        <ele>1069.4</ele>
        <time>2026-05-28T14:02:00.000Z</time>
      </trkpt>
      <trkpt lat="44.00801" lon="3.50656">
        <ele>1069.1</ele>
        <time>2026-05-28T14:02:01.000Z</time>
      </trkpt>
      <trkpt lat="44.00801" lon="3.50656">
        <ele>1068.9</ele>
        <time>2026-05-28T14:02:02.000Z</time>
      </trkpt>
      <trkpt lat="44.008" lon="3.50655">
        <ele>1068.7</ele>
        <time>2026-05-28T14:02:03.000Z</time>
      </trkpt>
      <trkpt lat="44.00799" lon="3.50655">
        <ele>1068.8</ele>
        <time>2026-05-28T14:02:04.000Z</time>
      </trkpt>
      <trkpt lat="44.00797" lon="3.50654">
        <ele>1068.6</ele>
        <time>2026-05-28T14:02:05.000Z</time>
      </trkpt>
      <trkpt lat="44.00797" lon="3.50654">
        <ele>1068.5</ele>
        <time>2026-05-28T14:02:06.000Z</time>
      </trkpt>
      <trkpt lat="44.00796" lon="3.50653">
        <ele>1068.1</ele>
        <time>2026-05-28T14:02:07.000Z</time>
      </trkpt>
      <trkpt lat="44.00795" lon="3.50652">
        <ele>1067.7</ele>
        <time>2026-05-28T14:02:08.000Z</time>
      </trkpt>
      <trkpt lat="44.00794" lon="3.50651">
        <ele>1067.6</ele>
        <time>2026-05-28T14:02:09.000Z</time>
      </trkpt>
      <trkpt lat="44.00792" lon="3.5065">
        <ele>1067.7</ele>
        <time>2026-05-28T14:02:10.000Z</time>
      </trkpt>
      <trkpt lat="44.00791" lon="3.50649">
        <ele>1067.6</ele>
        <time>2026-05-28T14:02:11.000Z</time>
      </trkpt>
      <trkpt lat="44.0079" lon="3.50648">
        <ele>1067.4</ele>
        <time>2026-05-28T14:02:12.000Z</time>
      </trkpt>
      <trkpt lat="44.00788" lon="3.50648">
        <ele>1067.3</ele>
        <time>2026-05-28T14:02:13.000Z</time>
      </trkpt>
      <trkpt lat="44.00787" lon="3.50648">
        <ele>1067.1</ele>
        <time>2026-05-28T14:02:14.000Z</time>
      </trkpt>
      <trkpt lat="44.00786" lon="3.50648">
        <ele>1066.9</ele>
        <time>2026-05-28T14:02:15.000Z</time>
      </trkpt>
      <trkpt lat="44.00785" lon="3.50647">
        <ele>1066.8</ele>
        <time>2026-05-28T14:02:16.000Z</time>
      </trkpt>
      <trkpt lat="44.00784" lon="3.50647">
        <ele>1067</ele>
        <time>2026-05-28T14:02:17.000Z</time>
      </trkpt>
      <trkpt lat="44.00784" lon="3.50647">
        <ele>1067</ele>
        <time>2026-05-28T14:02:18.000Z</time>
      </trkpt>
      <trkpt lat="44.00783" lon="3.50647">
        <ele>1067.1</ele>
        <time>2026-05-28T14:02:19.000Z</time>
      </trkpt>
      <trkpt lat="44.00783" lon="3.50646">
        <ele>1066.9</ele>
        <time>2026-05-28T14:02:20.000Z</time>
      </trkpt>
      <trkpt lat="44.00783" lon="3.50646">
        <ele>1067.2</ele>
        <time>2026-05-28T14:02:21.000Z</time>
      </trkpt>
      <trkpt lat="44.00783" lon="3.50645">
        <ele>1067</ele>
        <time>2026-05-28T14:02:22.000Z</time>
      </trkpt>
      <trkpt lat="44.00783" lon="3.50645">
        <ele>1066.8</ele>
        <time>2026-05-28T14:02:23.000Z</time>
      </trkpt>
      <trkpt lat="44.00783" lon="3.50645">
        <ele>1066.7</ele>
        <time>2026-05-28T14:02:24.000Z</time>
      </trkpt>
      <trkpt lat="44.00782" lon="3.50645">
        <ele>1066.5</ele>
        <time>2026-05-28T14:02:25.000Z</time>
      </trkpt>
      <trkpt lat="44.00782" lon="3.50644">
        <ele>1066.2</ele>
        <time>2026-05-28T14:02:26.000Z</time>
      </trkpt>
      <trkpt lat="44.0078" lon="3.50644">
        <ele>1066</ele>
        <time>2026-05-28T14:02:27.000Z</time>
      </trkpt>
      <trkpt lat="44.00779" lon="3.50643">
        <ele>1065.8</ele>
        <time>2026-05-28T14:02:28.000Z</time>
      </trkpt>
      <trkpt lat="44.00779" lon="3.50642">
        <ele>1065.7</ele>
        <time>2026-05-28T14:02:29.000Z</time>
      </trkpt>
      <trkpt lat="44.00778" lon="3.50642">
        <ele>1065.4</ele>
        <time>2026-05-28T14:02:30.000Z</time>
      </trkpt>
      <trkpt lat="44.00778" lon="3.50641">
        <ele>1065.1</ele>
        <time>2026-05-28T14:02:31.000Z</time>
      </trkpt>
      <trkpt lat="44.00777" lon="3.50641">
        <ele>1064.7</ele>
        <time>2026-05-28T14:02:32.000Z</time>
      </trkpt>
      <trkpt lat="44.00776" lon="3.5064">
        <ele>1064.7</ele>
        <time>2026-05-28T14:02:33.000Z</time>
      </trkpt>
      <trkpt lat="44.00776" lon="3.5064">
        <ele>1064.5</ele>
        <time>2026-05-28T14:02:34.000Z</time>
      </trkpt>
      <trkpt lat="44.00775" lon="3.5064">
        <ele>1064</ele>
        <time>2026-05-28T14:02:35.000Z</time>
      </trkpt>
      <trkpt lat="44.00774" lon="3.50639">
        <ele>1063.9</ele>
        <time>2026-05-28T14:02:36.000Z</time>
      </trkpt>
      <trkpt lat="44.00774" lon="3.50638">
        <ele>1063.7</ele>
        <time>2026-05-28T14:02:37.000Z</time>
      </trkpt>
      <trkpt lat="44.00773" lon="3.50637">
        <ele>1063.5</ele>
        <time>2026-05-28T14:02:38.000Z</time>
      </trkpt>
      <trkpt lat="44.00772" lon="3.50637">
        <ele>1063.2</ele>
        <time>2026-05-28T14:02:39.000Z</time>
      </trkpt>
      <trkpt lat="44.00772" lon="3.50636">
        <ele>1063.2</ele>
        <time>2026-05-28T14:02:40.000Z</time>
      </trkpt>
      <trkpt lat="44.00771" lon="3.50636">
        <ele>1062.8</ele>
        <time>2026-05-28T14:02:41.000Z</time>
      </trkpt>
      <trkpt lat="44.00771" lon="3.50636">
        <ele>1062.4</ele>
        <time>2026-05-28T14:02:42.000Z</time>
      </trkpt>
      <trkpt lat="44.0077" lon="3.50636">
        <ele>1062.1</ele>
        <time>2026-05-28T14:02:43.000Z</time>
      </trkpt>
      <trkpt lat="44.0077" lon="3.50636">
        <ele>1061.9</ele>
        <time>2026-05-28T14:02:44.000Z</time>
      </trkpt>
      <trkpt lat="44.00769" lon="3.50635">
        <ele>1061.8</ele>
        <time>2026-05-28T14:02:45.000Z</time>
      </trkpt>
      <trkpt lat="44.00768" lon="3.50634">
        <ele>1061.7</ele>
        <time>2026-05-28T14:02:46.000Z</time>
      </trkpt>
      <trkpt lat="44.00768" lon="3.50634">
        <ele>1061.5</ele>
        <time>2026-05-28T14:02:47.000Z</time>
      </trkpt>
      <trkpt lat="44.00768" lon="3.50633">
        <ele>1061.4</ele>
        <time>2026-05-28T14:02:48.000Z</time>
      </trkpt>
      <trkpt lat="44.00767" lon="3.50633">
        <ele>1061.1</ele>
        <time>2026-05-28T14:02:49.000Z</time>
      </trkpt>
      <trkpt lat="44.00767" lon="3.50632">
        <ele>1060.9</ele>
        <time>2026-05-28T14:02:50.000Z</time>
      </trkpt>
      <trkpt lat="44.00766" lon="3.50631">
        <ele>1060.5</ele>
        <time>2026-05-28T14:02:51.000Z</time>
      </trkpt>
      <trkpt lat="44.00766" lon="3.50631">
        <ele>1060.3</ele>
        <time>2026-05-28T14:02:52.000Z</time>
      </trkpt>
      <trkpt lat="44.00765" lon="3.5063">
        <ele>1060.3</ele>
        <time>2026-05-28T14:02:53.000Z</time>
      </trkpt>
      <trkpt lat="44.00765" lon="3.5063">
        <ele>1060.3</ele>
        <time>2026-05-28T14:02:54.000Z</time>
      </trkpt>
      <trkpt lat="44.00765" lon="3.50629">
        <ele>1060.3</ele>
        <time>2026-05-28T14:02:55.000Z</time>
      </trkpt>
      <trkpt lat="44.00764" lon="3.50629">
        <ele>1060.2</ele>
        <time>2026-05-28T14:02:56.000Z</time>
      </trkpt>
      <trkpt lat="44.00764" lon="3.50628">
        <ele>1059.9</ele>
        <time>2026-05-28T14:02:57.000Z</time>
      </trkpt>
      <trkpt lat="44.00764" lon="3.50628">
        <ele>1059.8</ele>
        <time>2026-05-28T14:02:58.000Z</time>
      </trkpt>
      <trkpt lat="44.00764" lon="3.50627">
        <ele>1059.5</ele>
        <time>2026-05-28T14:02:59.000Z</time>
      </trkpt>
      <trkpt lat="44.00763" lon="3.50626">
        <ele>1059.1</ele>
        <time>2026-05-28T14:03:00.000Z</time>
      </trkpt>
      <trkpt lat="44.00762" lon="3.50626">
        <ele>1058.9</ele>
        <time>2026-05-28T14:03:01.000Z</time>
      </trkpt>
      <trkpt lat="44.00762" lon="3.50625">
        <ele>1058.7</ele>
        <time>2026-05-28T14:03:02.000Z</time>
      </trkpt>
      <trkpt lat="44.00762" lon="3.50624">
        <ele>1058.6</ele>
        <time>2026-05-28T14:03:03.000Z</time>
      </trkpt>
      <trkpt lat="44.00762" lon="3.50623">
        <ele>1058.5</ele>
        <time>2026-05-28T14:03:04.000Z</time>
      </trkpt>
      <trkpt lat="44.00761" lon="3.50623">
        <ele>1058.4</ele>
        <time>2026-05-28T14:03:05.000Z</time>
      </trkpt>
      <trkpt lat="44.00761" lon="3.50622">
        <ele>1057.8</ele>
        <time>2026-05-28T14:03:06.000Z</time>
      </trkpt>
      <trkpt lat="44.00761" lon="3.50621">
        <ele>1057.3</ele>
        <time>2026-05-28T14:03:07.000Z</time>
      </trkpt>
      <trkpt lat="44.00761" lon="3.50621">
        <ele>1056.8</ele>
        <time>2026-05-28T14:03:08.000Z</time>
      </trkpt>
      <trkpt lat="44.0076" lon="3.5062">
        <ele>1056.6</ele>
        <time>2026-05-28T14:03:09.000Z</time>
      </trkpt>
      <trkpt lat="44.0076" lon="3.5062">
        <ele>1056.3</ele>
        <time>2026-05-28T14:03:10.000Z</time>
      </trkpt>
      <trkpt lat="44.00759" lon="3.50619">
        <ele>1056.3</ele>
        <time>2026-05-28T14:03:11.000Z</time>
      </trkpt>
      <trkpt lat="44.00759" lon="3.50619">
        <ele>1056.1</ele>
        <time>2026-05-28T14:03:12.000Z</time>
      </trkpt>
      <trkpt lat="44.00759" lon="3.50618">
        <ele>1056.1</ele>
        <time>2026-05-28T14:03:13.000Z</time>
      </trkpt>
      <trkpt lat="44.00758" lon="3.50618">
        <ele>1055.8</ele>
        <time>2026-05-28T14:03:14.000Z</time>
      </trkpt>
      <trkpt lat="44.00758" lon="3.50617">
        <ele>1055.4</ele>
        <time>2026-05-28T14:03:15.000Z</time>
      </trkpt>
      <trkpt lat="44.00757" lon="3.50617">
        <ele>1055</ele>
        <time>2026-05-28T14:03:16.000Z</time>
      </trkpt>
      <trkpt lat="44.00757" lon="3.50617">
        <ele>1054.8</ele>
        <time>2026-05-28T14:03:17.000Z</time>
      </trkpt>
      <trkpt lat="44.00757" lon="3.50616">
        <ele>1054.5</ele>
        <time>2026-05-28T14:03:18.000Z</time>
      </trkpt>
      <trkpt lat="44.00757" lon="3.50616">
        <ele>1054.7</ele>
        <time>2026-05-28T14:03:19.000Z</time>
      </trkpt>
      <trkpt lat="44.00757" lon="3.50616">
        <ele>1054.4</ele>
        <time>2026-05-28T14:03:20.000Z</time>
      </trkpt>
      <trkpt lat="44.00757" lon="3.50615">
        <ele>1053.9</ele>
        <time>2026-05-28T14:03:21.000Z</time>
      </trkpt>
      <trkpt lat="44.00758" lon="3.50614">
        <ele>1053.6</ele>
        <time>2026-05-28T14:03:22.000Z</time>
      </trkpt>
      <trkpt lat="44.00758" lon="3.50614">
        <ele>1053.1</ele>
        <time>2026-05-28T14:03:23.000Z</time>
      </trkpt>
      <trkpt lat="44.00759" lon="3.50614">
        <ele>1052.7</ele>
        <time>2026-05-28T14:03:24.000Z</time>
      </trkpt>
      <trkpt lat="44.00758" lon="3.50613">
        <ele>1052.3</ele>
        <time>2026-05-28T14:03:25.000Z</time>
      </trkpt>
      <trkpt lat="44.00758" lon="3.50613">
        <ele>1052.4</ele>
        <time>2026-05-28T14:03:26.000Z</time>
      </trkpt>
      <trkpt lat="44.00758" lon="3.50613">
        <ele>1052.2</ele>
        <time>2026-05-28T14:03:27.000Z</time>
      </trkpt>
      <trkpt lat="44.00758" lon="3.50613">
        <ele>1052</ele>
        <time>2026-05-28T14:03:28.000Z</time>
      </trkpt>
      <trkpt lat="44.00758" lon="3.50613">
        <ele>1051.9</ele>
        <time>2026-05-28T14:03:29.000Z</time>
      </trkpt>
      <trkpt lat="44.00757" lon="3.50613">
        <ele>1051.8</ele>
        <time>2026-05-28T14:03:30.000Z</time>
      </trkpt>
      <trkpt lat="44.00757" lon="3.50612">
        <ele>1051.6</ele>
        <time>2026-05-28T14:03:31.000Z</time>
      </trkpt>
      <trkpt lat="44.00757" lon="3.50612">
        <ele>1051.4</ele>
        <time>2026-05-28T14:03:32.000Z</time>
      </trkpt>
      <trkpt lat="44.00757" lon="3.50612">
        <ele>1051.3</ele>
        <time>2026-05-28T14:03:33.000Z</time>
      </trkpt>
      <trkpt lat="44.00757" lon="3.50612">
        <ele>1051.4</ele>
        <time>2026-05-28T14:03:34.000Z</time>
      </trkpt>
      <trkpt lat="44.00757" lon="3.50612">
        <ele>1051.4</ele>
        <time>2026-05-28T14:03:35.000Z</time>
      </trkpt>
      <trkpt lat="44.00757" lon="3.50612">
        <ele>1051.3</ele>
        <time>2026-05-28T14:03:36.000Z</time>
      </trkpt>
      <trkpt lat="44.00757" lon="3.50611">
        <ele>1051.3</ele>
        <time>2026-05-28T14:03:37.000Z</time>
      </trkpt>
      <trkpt lat="44.00756" lon="3.5061">
        <ele>1051.4</ele>
        <time>2026-05-28T14:03:38.000Z</time>
      </trkpt>
      <trkpt lat="44.00756" lon="3.50609">
        <ele>1051.1</ele>
        <time>2026-05-28T14:03:39.000Z</time>
      </trkpt>
      <trkpt lat="44.00755" lon="3.50607">
        <ele>1050.8</ele>
        <time>2026-05-28T14:03:40.000Z</time>
      </trkpt>
      <trkpt lat="44.00754" lon="3.50606">
        <ele>1050.6</ele>
        <time>2026-05-28T14:03:41.000Z</time>
      </trkpt>
      <trkpt lat="44.00753" lon="3.50606">
        <ele>1050.7</ele>
        <time>2026-05-28T14:03:42.000Z</time>
      </trkpt>
      <trkpt lat="44.00752" lon="3.50605">
        <ele>1050.6</ele>
        <time>2026-05-28T14:03:43.000Z</time>
      </trkpt>
      <trkpt lat="44.00751" lon="3.50604">
        <ele>1050.5</ele>
        <time>2026-05-28T14:03:44.000Z</time>
      </trkpt>
      <trkpt lat="44.00751" lon="3.50603">
        <ele>1050.5</ele>
        <time>2026-05-28T14:03:45.000Z</time>
      </trkpt>
      <trkpt lat="44.00751" lon="3.50603">
        <ele>1050</ele>
        <time>2026-05-28T14:03:46.000Z</time>
      </trkpt>
      <trkpt lat="44.00751" lon="3.50604">
        <ele>1049.7</ele>
        <time>2026-05-28T14:03:47.000Z</time>
      </trkpt>
      <trkpt lat="44.00751" lon="3.50603">
        <ele>1049.8</ele>
        <time>2026-05-28T14:03:48.000Z</time>
      </trkpt>
      <trkpt lat="44.00751" lon="3.50603">
        <ele>1050</ele>
        <time>2026-05-28T14:03:49.000Z</time>
      </trkpt>
      <trkpt lat="44.00751" lon="3.50603">
        <ele>1050</ele>
        <time>2026-05-28T14:03:50.000Z</time>
      </trkpt>
      <trkpt lat="44.0075" lon="3.50603">
        <ele>1050</ele>
        <time>2026-05-28T14:03:51.000Z</time>
      </trkpt>
      <trkpt lat="44.0075" lon="3.50603">
        <ele>1049.8</ele>
        <time>2026-05-28T14:03:52.000Z</time>
      </trkpt>
      <trkpt lat="44.00749" lon="3.50602">
        <ele>1049.6</ele>
        <time>2026-05-28T14:03:53.000Z</time>
      </trkpt>
      <trkpt lat="44.00748" lon="3.50602">
        <ele>1049.4</ele>
        <time>2026-05-28T14:03:54.000Z</time>
      </trkpt>
      <trkpt lat="44.00748" lon="3.50602">
        <ele>1049.2</ele>
        <time>2026-05-28T14:03:55.000Z</time>
      </trkpt>
      <trkpt lat="44.00747" lon="3.50601">
        <ele>1049.1</ele>
        <time>2026-05-28T14:03:56.000Z</time>
      </trkpt>
      <trkpt lat="44.00746" lon="3.506">
        <ele>1048.9</ele>
        <time>2026-05-28T14:03:57.000Z</time>
      </trkpt>
      <trkpt lat="44.00746" lon="3.506">
        <ele>1048.5</ele>
        <time>2026-05-28T14:03:58.000Z</time>
      </trkpt>
      <trkpt lat="44.00746" lon="3.50599">
        <ele>1048.4</ele>
        <time>2026-05-28T14:03:59.000Z</time>
      </trkpt>
      <trkpt lat="44.00746" lon="3.50599">
        <ele>1048.2</ele>
        <time>2026-05-28T14:04:00.000Z</time>
      </trkpt>
      <trkpt lat="44.00746" lon="3.50599">
        <ele>1047.6</ele>
        <time>2026-05-28T14:04:01.000Z</time>
      </trkpt>
      <trkpt lat="44.00746" lon="3.50599">
        <ele>1047.7</ele>
        <time>2026-05-28T14:04:02.000Z</time>
      </trkpt>
      <trkpt lat="44.00746" lon="3.50599">
        <ele>1047.5</ele>
        <time>2026-05-28T14:04:03.000Z</time>
      </trkpt>
      <trkpt lat="44.00745" lon="3.50598">
        <ele>1047.4</ele>
        <time>2026-05-28T14:04:04.000Z</time>
      </trkpt>
      <trkpt lat="44.00745" lon="3.50598">
        <ele>1047.2</ele>
        <time>2026-05-28T14:04:05.000Z</time>
      </trkpt>
      <trkpt lat="44.00745" lon="3.50598">
        <ele>1047.1</ele>
        <time>2026-05-28T14:04:06.000Z</time>
      </trkpt>
      <trkpt lat="44.00745" lon="3.50598">
        <ele>1047</ele>
        <time>2026-05-28T14:04:07.000Z</time>
      </trkpt>
      <trkpt lat="44.00744" lon="3.50596">
        <ele>1046.9</ele>
        <time>2026-05-28T14:04:08.000Z</time>
      </trkpt>
      <trkpt lat="44.00744" lon="3.50595">
        <ele>1046.6</ele>
        <time>2026-05-28T14:04:09.000Z</time>
      </trkpt>
      <trkpt lat="44.00744" lon="3.50595">
        <ele>1046.5</ele>
        <time>2026-05-28T14:04:10.000Z</time>
      </trkpt>
      <trkpt lat="44.00744" lon="3.50595">
        <ele>1046.3</ele>
        <time>2026-05-28T14:04:11.000Z</time>
      </trkpt>
      <trkpt lat="44.00744" lon="3.50595">
        <ele>1046.1</ele>
        <time>2026-05-28T14:04:12.000Z</time>
      </trkpt>
      <trkpt lat="44.00744" lon="3.50594">
        <ele>1045.9</ele>
        <time>2026-05-28T14:04:13.000Z</time>
      </trkpt>
      <trkpt lat="44.00744" lon="3.50594">
        <ele>1045.8</ele>
        <time>2026-05-28T14:04:14.000Z</time>
      </trkpt>
      <trkpt lat="44.00744" lon="3.50594">
        <ele>1045.4</ele>
        <time>2026-05-28T14:04:15.000Z</time>
      </trkpt>
      <trkpt lat="44.00743" lon="3.50594">
        <ele>1045.3</ele>
        <time>2026-05-28T14:04:16.000Z</time>
      </trkpt>
      <trkpt lat="44.00743" lon="3.50593">
        <ele>1045</ele>
        <time>2026-05-28T14:04:17.000Z</time>
      </trkpt>
      <trkpt lat="44.00743" lon="3.50592">
        <ele>1044.7</ele>
        <time>2026-05-28T14:04:18.000Z</time>
      </trkpt>
      <trkpt lat="44.00743" lon="3.50591">
        <ele>1044.5</ele>
        <time>2026-05-28T14:04:19.000Z</time>
      </trkpt>
      <trkpt lat="44.00743" lon="3.50591">
        <ele>1044.3</ele>
        <time>2026-05-28T14:04:20.000Z</time>
      </trkpt>
      <trkpt lat="44.00743" lon="3.5059">
        <ele>1044.1</ele>
        <time>2026-05-28T14:04:21.000Z</time>
      </trkpt>
      <trkpt lat="44.00744" lon="3.5059">
        <ele>1043.9</ele>
        <time>2026-05-28T14:04:22.000Z</time>
      </trkpt>
      <trkpt lat="44.00744" lon="3.5059">
        <ele>1043.9</ele>
        <time>2026-05-28T14:04:23.000Z</time>
      </trkpt>
      <trkpt lat="44.00744" lon="3.5059">
        <ele>1043.9</ele>
        <time>2026-05-28T14:04:24.000Z</time>
      </trkpt>
      <trkpt lat="44.00744" lon="3.5059">
        <ele>1043.8</ele>
        <time>2026-05-28T14:04:25.000Z</time>
      </trkpt>
      <trkpt lat="44.00744" lon="3.5059">
        <ele>1043.7</ele>
        <time>2026-05-28T14:04:26.000Z</time>
      </trkpt>
      <trkpt lat="44.00744" lon="3.5059">
        <ele>1043.6</ele>
        <time>2026-05-28T14:04:27.000Z</time>
      </trkpt>
      <trkpt lat="44.00743" lon="3.50588">
        <ele>1043.6</ele>
        <time>2026-05-28T14:04:28.000Z</time>
      </trkpt>
      <trkpt lat="44.00743" lon="3.50587">
        <ele>1043.5</ele>
        <time>2026-05-28T14:04:29.000Z</time>
      </trkpt>
      <trkpt lat="44.00743" lon="3.50586">
        <ele>1043.4</ele>
        <time>2026-05-28T14:04:30.000Z</time>
      </trkpt>
      <trkpt lat="44.00742" lon="3.50585">
        <ele>1043.3</ele>
        <time>2026-05-28T14:04:31.000Z</time>
      </trkpt>
      <trkpt lat="44.00742" lon="3.50585">
        <ele>1043.2</ele>
        <time>2026-05-28T14:04:32.000Z</time>
      </trkpt>
      <trkpt lat="44.00742" lon="3.50585">
        <ele>1043.1</ele>
        <time>2026-05-28T14:04:33.000Z</time>
      </trkpt>
      <trkpt lat="44.00742" lon="3.50585">
        <ele>1042.9</ele>
        <time>2026-05-28T14:04:34.000Z</time>
      </trkpt>
      <trkpt lat="44.00742" lon="3.50585">
        <ele>1042.9</ele>
        <time>2026-05-28T14:04:35.000Z</time>
      </trkpt>
      <trkpt lat="44.00742" lon="3.50584">
        <ele>1042.8</ele>
        <time>2026-05-28T14:04:36.000Z</time>
      </trkpt>
      <trkpt lat="44.00742" lon="3.50584">
        <ele>1042.7</ele>
        <time>2026-05-28T14:04:37.000Z</time>
      </trkpt>
      <trkpt lat="44.00742" lon="3.50584">
        <ele>1042.5</ele>
        <time>2026-05-28T14:04:38.000Z</time>
      </trkpt>
      <trkpt lat="44.00742" lon="3.50584">
        <ele>1042.4</ele>
        <time>2026-05-28T14:04:39.000Z</time>
      </trkpt>
      <trkpt lat="44.00742" lon="3.50584">
        <ele>1042.4</ele>
        <time>2026-05-28T14:04:40.000Z</time>
      </trkpt>
      <trkpt lat="44.00742" lon="3.50584">
        <ele>1042.1</ele>
        <time>2026-05-28T14:04:41.000Z</time>
      </trkpt>
      <trkpt lat="44.00741" lon="3.50582">
        <ele>1041.9</ele>
        <time>2026-05-28T14:04:42.000Z</time>
      </trkpt>
      <trkpt lat="44.0074" lon="3.50581">
        <ele>1041.4</ele>
        <time>2026-05-28T14:04:43.000Z</time>
      </trkpt>
      <trkpt lat="44.0074" lon="3.5058">
        <ele>1040.8</ele>
        <time>2026-05-28T14:04:44.000Z</time>
      </trkpt>
      <trkpt lat="44.00739" lon="3.50579">
        <ele>1040.3</ele>
        <time>2026-05-28T14:04:45.000Z</time>
      </trkpt>
      <trkpt lat="44.00738" lon="3.50579">
        <ele>1040.1</ele>
        <time>2026-05-28T14:04:46.000Z</time>
      </trkpt>
      <trkpt lat="44.00738" lon="3.50578">
        <ele>1039.9</ele>
        <time>2026-05-28T14:04:47.000Z</time>
      </trkpt>
      <trkpt lat="44.00738" lon="3.50577">
        <ele>1039.7</ele>
        <time>2026-05-28T14:04:48.000Z</time>
      </trkpt>
      <trkpt lat="44.00738" lon="3.50577">
        <ele>1039.6</ele>
        <time>2026-05-28T14:04:49.000Z</time>
      </trkpt>
      <trkpt lat="44.00737" lon="3.50576">
        <ele>1039.2</ele>
        <time>2026-05-28T14:04:50.000Z</time>
      </trkpt>
      <trkpt lat="44.00737" lon="3.50575">
        <ele>1038.6</ele>
        <time>2026-05-28T14:04:51.000Z</time>
      </trkpt>
      <trkpt lat="44.00736" lon="3.50575">
        <ele>1038.4</ele>
        <time>2026-05-28T14:04:52.000Z</time>
      </trkpt>
      <trkpt lat="44.00736" lon="3.50574">
        <ele>1038.2</ele>
        <time>2026-05-28T14:04:53.000Z</time>
      </trkpt>
      <trkpt lat="44.00736" lon="3.50574">
        <ele>1038.3</ele>
        <time>2026-05-28T14:04:54.000Z</time>
      </trkpt>
      <trkpt lat="44.00735" lon="3.50574">
        <ele>1038.1</ele>
        <time>2026-05-28T14:04:55.000Z</time>
      </trkpt>
      <trkpt lat="44.00735" lon="3.50573">
        <ele>1037.8</ele>
        <time>2026-05-28T14:04:56.000Z</time>
      </trkpt>
      <trkpt lat="44.00735" lon="3.50574">
        <ele>1037.6</ele>
        <time>2026-05-28T14:04:57.000Z</time>
      </trkpt>
      <trkpt lat="44.00734" lon="3.50573">
        <ele>1037.6</ele>
        <time>2026-05-28T14:04:58.000Z</time>
      </trkpt>
      <trkpt lat="44.00735" lon="3.50574">
        <ele>1037.1</ele>
        <time>2026-05-28T14:04:59.000Z</time>
      </trkpt>
      <trkpt lat="44.00735" lon="3.50574">
        <ele>1037.2</ele>
        <time>2026-05-28T14:05:00.000Z</time>
      </trkpt>
      <trkpt lat="44.00735" lon="3.50574">
        <ele>1036.9</ele>
        <time>2026-05-28T14:05:01.000Z</time>
      </trkpt>
      <trkpt lat="44.00735" lon="3.50574">
        <ele>1036.6</ele>
        <time>2026-05-28T14:05:02.000Z</time>
      </trkpt>
      <trkpt lat="44.00735" lon="3.50574">
        <ele>1036.5</ele>
        <time>2026-05-28T14:05:03.000Z</time>
      </trkpt>
      <trkpt lat="44.00734" lon="3.50573">
        <ele>1036.3</ele>
        <time>2026-05-28T14:05:04.000Z</time>
      </trkpt>
      <trkpt lat="44.00734" lon="3.50572">
        <ele>1036</ele>
        <time>2026-05-28T14:05:05.000Z</time>
      </trkpt>
      <trkpt lat="44.00734" lon="3.50571">
        <ele>1036.1</ele>
        <time>2026-05-28T14:05:06.000Z</time>
      </trkpt>
      <trkpt lat="44.00734" lon="3.5057">
        <ele>1035.9</ele>
        <time>2026-05-28T14:05:07.000Z</time>
      </trkpt>
      <trkpt lat="44.00733" lon="3.50569">
        <ele>1036.1</ele>
        <time>2026-05-28T14:05:08.000Z</time>
      </trkpt>
      <trkpt lat="44.00733" lon="3.50569">
        <ele>1035.9</ele>
        <time>2026-05-28T14:05:09.000Z</time>
      </trkpt>
      <trkpt lat="44.00733" lon="3.50569">
        <ele>1035.6</ele>
        <time>2026-05-28T14:05:10.000Z</time>
      </trkpt>
      <trkpt lat="44.00733" lon="3.50569">
        <ele>1035.5</ele>
        <time>2026-05-28T14:05:11.000Z</time>
      </trkpt>
      <trkpt lat="44.00733" lon="3.50569">
        <ele>1035.2</ele>
        <time>2026-05-28T14:05:12.000Z</time>
      </trkpt>
      <trkpt lat="44.00733" lon="3.50569">
        <ele>1034.9</ele>
        <time>2026-05-28T14:05:13.000Z</time>
      </trkpt>
      <trkpt lat="44.00733" lon="3.50569">
        <ele>1034.7</ele>
        <time>2026-05-28T14:05:14.000Z</time>
      </trkpt>
      <trkpt lat="44.00733" lon="3.50568">
        <ele>1034.4</ele>
        <time>2026-05-28T14:05:15.000Z</time>
      </trkpt>
      <trkpt lat="44.00733" lon="3.50568">
        <ele>1033.9</ele>
        <time>2026-05-28T14:05:16.000Z</time>
      </trkpt>
      <trkpt lat="44.00733" lon="3.50568">
        <ele>1033.7</ele>
        <time>2026-05-28T14:05:17.000Z</time>
      </trkpt>
      <trkpt lat="44.00732" lon="3.50568">
        <ele>1033.5</ele>
        <time>2026-05-28T14:05:18.000Z</time>
      </trkpt>
      <trkpt lat="44.00732" lon="3.50567">
        <ele>1033.1</ele>
        <time>2026-05-28T14:05:19.000Z</time>
      </trkpt>
      <trkpt lat="44.00732" lon="3.50567">
        <ele>1032.8</ele>
        <time>2026-05-28T14:05:20.000Z</time>
      </trkpt>
      <trkpt lat="44.00731" lon="3.50567">
        <ele>1032.5</ele>
        <time>2026-05-28T14:05:21.000Z</time>
      </trkpt>
      <trkpt lat="44.00731" lon="3.50567">
        <ele>1032.5</ele>
        <time>2026-05-28T14:05:22.000Z</time>
      </trkpt>
      <trkpt lat="44.00731" lon="3.50566">
        <ele>1032.3</ele>
        <time>2026-05-28T14:05:23.000Z</time>
      </trkpt>
      <trkpt lat="44.0073" lon="3.50566">
        <ele>1032</ele>
        <time>2026-05-28T14:05:24.000Z</time>
      </trkpt>
      <trkpt lat="44.0073" lon="3.50566">
        <ele>1031.9</ele>
        <time>2026-05-28T14:05:25.000Z</time>
      </trkpt>
      <trkpt lat="44.0073" lon="3.50566">
        <ele>1031.5</ele>
        <time>2026-05-28T14:05:26.000Z</time>
      </trkpt>
      <trkpt lat="44.00729" lon="3.50565">
        <ele>1031.1</ele>
        <time>2026-05-28T14:05:27.000Z</time>
      </trkpt>
      <trkpt lat="44.00728" lon="3.50564">
        <ele>1031</ele>
        <time>2026-05-28T14:05:28.000Z</time>
      </trkpt>
      <trkpt lat="44.00727" lon="3.50562">
        <ele>1030.8</ele>
        <time>2026-05-28T14:05:29.000Z</time>
      </trkpt>
      <trkpt lat="44.00726" lon="3.50561">
        <ele>1030.5</ele>
        <time>2026-05-28T14:05:30.000Z</time>
      </trkpt>
      <trkpt lat="44.00726" lon="3.50561">
        <ele>1030.4</ele>
        <time>2026-05-28T14:05:31.000Z</time>
      </trkpt>
      <trkpt lat="44.00726" lon="3.50561">
        <ele>1030.1</ele>
        <time>2026-05-28T14:05:32.000Z</time>
      </trkpt>
      <trkpt lat="44.00726" lon="3.5056">
        <ele>1029.8</ele>
        <time>2026-05-28T14:05:33.000Z</time>
      </trkpt>
      <trkpt lat="44.00726" lon="3.5056">
        <ele>1029.5</ele>
        <time>2026-05-28T14:05:34.000Z</time>
      </trkpt>
      <trkpt lat="44.00726" lon="3.50559">
        <ele>1029.2</ele>
        <time>2026-05-28T14:05:35.000Z</time>
      </trkpt>
      <trkpt lat="44.00725" lon="3.50558">
        <ele>1028.8</ele>
        <time>2026-05-28T14:05:36.000Z</time>
      </trkpt>
      <trkpt lat="44.00725" lon="3.50557">
        <ele>1028.5</ele>
        <time>2026-05-28T14:05:37.000Z</time>
      </trkpt>
      <trkpt lat="44.00724" lon="3.50557">
        <ele>1028</ele>
        <time>2026-05-28T14:05:38.000Z</time>
      </trkpt>
      <trkpt lat="44.00724" lon="3.50557">
        <ele>1027.9</ele>
        <time>2026-05-28T14:05:39.000Z</time>
      </trkpt>
      <trkpt lat="44.00723" lon="3.50557">
        <ele>1027.8</ele>
        <time>2026-05-28T14:05:40.000Z</time>
      </trkpt>
      <trkpt lat="44.00723" lon="3.50556">
        <ele>1027.8</ele>
        <time>2026-05-28T14:05:41.000Z</time>
      </trkpt>
      <trkpt lat="44.00723" lon="3.50556">
        <ele>1027.5</ele>
        <time>2026-05-28T14:05:42.000Z</time>
      </trkpt>
      <trkpt lat="44.00722" lon="3.50556">
        <ele>1027.3</ele>
        <time>2026-05-28T14:05:43.000Z</time>
      </trkpt>
      <trkpt lat="44.00722" lon="3.50555">
        <ele>1027.5</ele>
        <time>2026-05-28T14:05:44.000Z</time>
      </trkpt>
      <trkpt lat="44.00722" lon="3.50555">
        <ele>1027.3</ele>
        <time>2026-05-28T14:05:45.000Z</time>
      </trkpt>
      <trkpt lat="44.00722" lon="3.50555">
        <ele>1026.9</ele>
        <time>2026-05-28T14:05:46.000Z</time>
      </trkpt>
      <trkpt lat="44.00722" lon="3.50554">
        <ele>1026.6</ele>
        <time>2026-05-28T14:05:47.000Z</time>
      </trkpt>
      <trkpt lat="44.00722" lon="3.50554">
        <ele>1026.5</ele>
        <time>2026-05-28T14:05:48.000Z</time>
      </trkpt>
      <trkpt lat="44.00723" lon="3.50554">
        <ele>1026.3</ele>
        <time>2026-05-28T14:05:49.000Z</time>
      </trkpt>
      <trkpt lat="44.00723" lon="3.50553">
        <ele>1026.1</ele>
        <time>2026-05-28T14:05:50.000Z</time>
      </trkpt>
      <trkpt lat="44.00723" lon="3.50552">
        <ele>1025.9</ele>
        <time>2026-05-28T14:05:51.000Z</time>
      </trkpt>
      <trkpt lat="44.00723" lon="3.50551">
        <ele>1025.8</ele>
        <time>2026-05-28T14:05:52.000Z</time>
      </trkpt>
      <trkpt lat="44.00723" lon="3.5055">
        <ele>1025.8</ele>
        <time>2026-05-28T14:05:53.000Z</time>
      </trkpt>
      <trkpt lat="44.00722" lon="3.50549">
        <ele>1025.8</ele>
        <time>2026-05-28T14:05:54.000Z</time>
      </trkpt>
      <trkpt lat="44.00723" lon="3.50548">
        <ele>1025.6</ele>
        <time>2026-05-28T14:05:55.000Z</time>
      </trkpt>
      <trkpt lat="44.00723" lon="3.50548">
        <ele>1025.5</ele>
        <time>2026-05-28T14:05:56.000Z</time>
      </trkpt>
      <trkpt lat="44.00723" lon="3.50547">
        <ele>1025.2</ele>
        <time>2026-05-28T14:05:57.000Z</time>
      </trkpt>
      <trkpt lat="44.00723" lon="3.50547">
        <ele>1024.9</ele>
        <time>2026-05-28T14:05:58.000Z</time>
      </trkpt>
      <trkpt lat="44.00724" lon="3.50547">
        <ele>1025</ele>
        <time>2026-05-28T14:05:59.000Z</time>
      </trkpt>
      <trkpt lat="44.00724" lon="3.50547">
        <ele>1024.9</ele>
        <time>2026-05-28T14:06:00.000Z</time>
      </trkpt>
      <trkpt lat="44.00724" lon="3.50546">
        <ele>1024.5</ele>
        <time>2026-05-28T14:06:01.000Z</time>
      </trkpt>
      <trkpt lat="44.00724" lon="3.50545">
        <ele>1024.3</ele>
        <time>2026-05-28T14:06:02.000Z</time>
      </trkpt>
      <trkpt lat="44.00724" lon="3.50544">
        <ele>1024.2</ele>
        <time>2026-05-28T14:06:03.000Z</time>
      </trkpt>
      <trkpt lat="44.00724" lon="3.50544">
        <ele>1024.1</ele>
        <time>2026-05-28T14:06:04.000Z</time>
      </trkpt>
      <trkpt lat="44.00723" lon="3.50543">
        <ele>1024</ele>
        <time>2026-05-28T14:06:05.000Z</time>
      </trkpt>
      <trkpt lat="44.00723" lon="3.50542">
        <ele>1023.9</ele>
        <time>2026-05-28T14:06:06.000Z</time>
      </trkpt>
      <trkpt lat="44.00723" lon="3.50541">
        <ele>1023.8</ele>
        <time>2026-05-28T14:06:07.000Z</time>
      </trkpt>
      <trkpt lat="44.00723" lon="3.5054">
        <ele>1023.7</ele>
        <time>2026-05-28T14:06:08.000Z</time>
      </trkpt>
      <trkpt lat="44.00723" lon="3.5054">
        <ele>1023.6</ele>
        <time>2026-05-28T14:06:09.000Z</time>
      </trkpt>
      <trkpt lat="44.00723" lon="3.50539">
        <ele>1023.3</ele>
        <time>2026-05-28T14:06:10.000Z</time>
      </trkpt>
      <trkpt lat="44.00723" lon="3.50538">
        <ele>1023.1</ele>
        <time>2026-05-28T14:06:11.000Z</time>
      </trkpt>
      <trkpt lat="44.00722" lon="3.50538">
        <ele>1023.1</ele>
        <time>2026-05-28T14:06:12.000Z</time>
      </trkpt>
      <trkpt lat="44.00722" lon="3.50537">
        <ele>1023.1</ele>
        <time>2026-05-28T14:06:13.000Z</time>
      </trkpt>
      <trkpt lat="44.00721" lon="3.50537">
        <ele>1022.8</ele>
        <time>2026-05-28T14:06:14.000Z</time>
      </trkpt>
      <trkpt lat="44.00721" lon="3.50537">
        <ele>1022.7</ele>
        <time>2026-05-28T14:06:15.000Z</time>
      </trkpt>
      <trkpt lat="44.00721" lon="3.50537">
        <ele>1022.4</ele>
        <time>2026-05-28T14:06:16.000Z</time>
      </trkpt>
      <trkpt lat="44.00721" lon="3.50537">
        <ele>1022.1</ele>
        <time>2026-05-28T14:06:17.000Z</time>
      </trkpt>
      <trkpt lat="44.00721" lon="3.50536">
        <ele>1021.7</ele>
        <time>2026-05-28T14:06:18.000Z</time>
      </trkpt>
      <trkpt lat="44.00722" lon="3.50535">
        <ele>1021.4</ele>
        <time>2026-05-28T14:06:19.000Z</time>
      </trkpt>
      <trkpt lat="44.00722" lon="3.50534">
        <ele>1021</ele>
        <time>2026-05-28T14:06:20.000Z</time>
      </trkpt>
      <trkpt lat="44.00722" lon="3.50533">
        <ele>1020.7</ele>
        <time>2026-05-28T14:06:21.000Z</time>
      </trkpt>
      <trkpt lat="44.00721" lon="3.50532">
        <ele>1020.7</ele>
        <time>2026-05-28T14:06:22.000Z</time>
      </trkpt>
      <trkpt lat="44.0072" lon="3.50532">
        <ele>1020.6</ele>
        <time>2026-05-28T14:06:23.000Z</time>
      </trkpt>
      <trkpt lat="44.00719" lon="3.50531">
        <ele>1020.7</ele>
        <time>2026-05-28T14:06:24.000Z</time>
      </trkpt>
      <trkpt lat="44.00719" lon="3.5053">
        <ele>1020.7</ele>
        <time>2026-05-28T14:06:25.000Z</time>
      </trkpt>
      <trkpt lat="44.00718" lon="3.50529">
        <ele>1020.4</ele>
        <time>2026-05-28T14:06:26.000Z</time>
      </trkpt>
      <trkpt lat="44.00718" lon="3.50529">
        <ele>1020.4</ele>
        <time>2026-05-28T14:06:27.000Z</time>
      </trkpt>
      <trkpt lat="44.00718" lon="3.50528">
        <ele>1020</ele>
        <time>2026-05-28T14:06:28.000Z</time>
      </trkpt>
      <trkpt lat="44.00718" lon="3.50527">
        <ele>1019.7</ele>
        <time>2026-05-28T14:06:29.000Z</time>
      </trkpt>
      <trkpt lat="44.00718" lon="3.50526">
        <ele>1019.8</ele>
        <time>2026-05-28T14:06:30.000Z</time>
      </trkpt>
      <trkpt lat="44.00717" lon="3.50526">
        <ele>1019.6</ele>
        <time>2026-05-28T14:06:31.000Z</time>
      </trkpt>
      <trkpt lat="44.00717" lon="3.50526">
        <ele>1019.3</ele>
        <time>2026-05-28T14:06:32.000Z</time>
      </trkpt>
      <trkpt lat="44.00716" lon="3.50526">
        <ele>1019.3</ele>
        <time>2026-05-28T14:06:33.000Z</time>
      </trkpt>
      <trkpt lat="44.00716" lon="3.50526">
        <ele>1019.4</ele>
        <time>2026-05-28T14:06:34.000Z</time>
      </trkpt>
      <trkpt lat="44.00715" lon="3.50525">
        <ele>1019.5</ele>
        <time>2026-05-28T14:06:35.000Z</time>
      </trkpt>
      <trkpt lat="44.00715" lon="3.50525">
        <ele>1019.3</ele>
        <time>2026-05-28T14:06:36.000Z</time>
      </trkpt>
      <trkpt lat="44.00714" lon="3.50525">
        <ele>1019.1</ele>
        <time>2026-05-28T14:06:37.000Z</time>
      </trkpt>
      <trkpt lat="44.00714" lon="3.50525">
        <ele>1018.8</ele>
        <time>2026-05-28T14:06:38.000Z</time>
      </trkpt>
      <trkpt lat="44.00713" lon="3.50524">
        <ele>1018.6</ele>
        <time>2026-05-28T14:06:39.000Z</time>
      </trkpt>
      <trkpt lat="44.00713" lon="3.50524">
        <ele>1018.4</ele>
        <time>2026-05-28T14:06:40.000Z</time>
      </trkpt>
      <trkpt lat="44.00713" lon="3.50523">
        <ele>1018.4</ele>
        <time>2026-05-28T14:06:41.000Z</time>
      </trkpt>
      <trkpt lat="44.00713" lon="3.50522">
        <ele>1018.3</ele>
        <time>2026-05-28T14:06:42.000Z</time>
      </trkpt>
      <trkpt lat="44.00712" lon="3.50521">
        <ele>1018.1</ele>
        <time>2026-05-28T14:06:43.000Z</time>
      </trkpt>
      <trkpt lat="44.00711" lon="3.5052">
        <ele>1017.8</ele>
        <time>2026-05-28T14:06:44.000Z</time>
      </trkpt>
      <trkpt lat="44.00711" lon="3.5052">
        <ele>1017.6</ele>
        <time>2026-05-28T14:06:45.000Z</time>
      </trkpt>
      <trkpt lat="44.0071" lon="3.5052">
        <ele>1017.3</ele>
        <time>2026-05-28T14:06:46.000Z</time>
      </trkpt>
      <trkpt lat="44.0071" lon="3.5052">
        <ele>1017</ele>
        <time>2026-05-28T14:06:47.000Z</time>
      </trkpt>
      <trkpt lat="44.00709" lon="3.50519">
        <ele>1016.6</ele>
        <time>2026-05-28T14:06:48.000Z</time>
      </trkpt>
      <trkpt lat="44.00709" lon="3.50519">
        <ele>1016.2</ele>
        <time>2026-05-28T14:06:49.000Z</time>
      </trkpt>
      <trkpt lat="44.00709" lon="3.50518">
        <ele>1016.2</ele>
        <time>2026-05-28T14:06:50.000Z</time>
      </trkpt>
      <trkpt lat="44.00709" lon="3.50517">
        <ele>1015.9</ele>
        <time>2026-05-28T14:06:51.000Z</time>
      </trkpt>
      <trkpt lat="44.0071" lon="3.50516">
        <ele>1015.8</ele>
        <time>2026-05-28T14:06:52.000Z</time>
      </trkpt>
      <trkpt lat="44.00709" lon="3.50515">
        <ele>1015.6</ele>
        <time>2026-05-28T14:06:53.000Z</time>
      </trkpt>
      <trkpt lat="44.00709" lon="3.50514">
        <ele>1015.2</ele>
        <time>2026-05-28T14:06:54.000Z</time>
      </trkpt>
      <trkpt lat="44.00709" lon="3.50514">
        <ele>1015</ele>
        <time>2026-05-28T14:06:55.000Z</time>
      </trkpt>
      <trkpt lat="44.00709" lon="3.50513">
        <ele>1014.7</ele>
        <time>2026-05-28T14:06:56.000Z</time>
      </trkpt>
      <trkpt lat="44.00708" lon="3.50513">
        <ele>1014.3</ele>
        <time>2026-05-28T14:06:57.000Z</time>
      </trkpt>
      <trkpt lat="44.00707" lon="3.50512">
        <ele>1013.9</ele>
        <time>2026-05-28T14:06:58.000Z</time>
      </trkpt>
      <trkpt lat="44.00707" lon="3.50512">
        <ele>1013.6</ele>
        <time>2026-05-28T14:06:59.000Z</time>
      </trkpt>
      <trkpt lat="44.00707" lon="3.50512">
        <ele>1013.2</ele>
        <time>2026-05-28T14:07:00.000Z</time>
      </trkpt>
      <trkpt lat="44.00707" lon="3.50511">
        <ele>1013.1</ele>
        <time>2026-05-28T14:07:01.000Z</time>
      </trkpt>
      <trkpt lat="44.00707" lon="3.5051">
        <ele>1013</ele>
        <time>2026-05-28T14:07:02.000Z</time>
      </trkpt>
      <trkpt lat="44.00707" lon="3.50509">
        <ele>1012.8</ele>
        <time>2026-05-28T14:07:03.000Z</time>
      </trkpt>
      <trkpt lat="44.00707" lon="3.50508">
        <ele>1012.2</ele>
        <time>2026-05-28T14:07:04.000Z</time>
      </trkpt>
      <trkpt lat="44.00706" lon="3.50507">
        <ele>1011.8</ele>
        <time>2026-05-28T14:07:05.000Z</time>
      </trkpt>
      <trkpt lat="44.00706" lon="3.50505">
        <ele>1011.4</ele>
        <time>2026-05-28T14:07:06.000Z</time>
      </trkpt>
      <trkpt lat="44.00706" lon="3.50505">
        <ele>1010.8</ele>
        <time>2026-05-28T14:07:07.000Z</time>
      </trkpt>
      <trkpt lat="44.00705" lon="3.50504">
        <ele>1010.4</ele>
        <time>2026-05-28T14:07:08.000Z</time>
      </trkpt>
      <trkpt lat="44.00705" lon="3.50503">
        <ele>1010.3</ele>
        <time>2026-05-28T14:07:09.000Z</time>
      </trkpt>
      <trkpt lat="44.00705" lon="3.50502">
        <ele>1010.2</ele>
        <time>2026-05-28T14:07:10.000Z</time>
      </trkpt>
      <trkpt lat="44.00705" lon="3.50502">
        <ele>1010</ele>
        <time>2026-05-28T14:07:11.000Z</time>
      </trkpt>
      <trkpt lat="44.00704" lon="3.50501">
        <ele>1009.5</ele>
        <time>2026-05-28T14:07:12.000Z</time>
      </trkpt>
      <trkpt lat="44.00704" lon="3.505">
        <ele>1009.2</ele>
        <time>2026-05-28T14:07:13.000Z</time>
      </trkpt>
      <trkpt lat="44.00704" lon="3.50499">
        <ele>1008.9</ele>
        <time>2026-05-28T14:07:14.000Z</time>
      </trkpt>
      <trkpt lat="44.00703" lon="3.50499">
        <ele>1008.6</ele>
        <time>2026-05-28T14:07:15.000Z</time>
      </trkpt>
      <trkpt lat="44.00703" lon="3.50499">
        <ele>1008.2</ele>
        <time>2026-05-28T14:07:16.000Z</time>
      </trkpt>
      <trkpt lat="44.00703" lon="3.50498">
        <ele>1008.1</ele>
        <time>2026-05-28T14:07:17.000Z</time>
      </trkpt>
      <trkpt lat="44.00703" lon="3.50498">
        <ele>1007.7</ele>
        <time>2026-05-28T14:07:18.000Z</time>
      </trkpt>
      <trkpt lat="44.00703" lon="3.50498">
        <ele>1007.3</ele>
        <time>2026-05-28T14:07:19.000Z</time>
      </trkpt>
      <trkpt lat="44.00703" lon="3.50497">
        <ele>1007</ele>
        <time>2026-05-28T14:07:20.000Z</time>
      </trkpt>
      <trkpt lat="44.00702" lon="3.50497">
        <ele>1006.7</ele>
        <time>2026-05-28T14:07:21.000Z</time>
      </trkpt>
      <trkpt lat="44.00702" lon="3.50496">
        <ele>1006.4</ele>
        <time>2026-05-28T14:07:22.000Z</time>
      </trkpt>
      <trkpt lat="44.00702" lon="3.50495">
        <ele>1006.2</ele>
        <time>2026-05-28T14:07:23.000Z</time>
      </trkpt>
      <trkpt lat="44.00702" lon="3.50495">
        <ele>1005.9</ele>
        <time>2026-05-28T14:07:24.000Z</time>
      </trkpt>
      <trkpt lat="44.00701" lon="3.50494">
        <ele>1005.8</ele>
        <time>2026-05-28T14:07:25.000Z</time>
      </trkpt>
      <trkpt lat="44.00701" lon="3.50494">
        <ele>1005.6</ele>
        <time>2026-05-28T14:07:26.000Z</time>
      </trkpt>
      <trkpt lat="44.00701" lon="3.50493">
        <ele>1005.6</ele>
        <time>2026-05-28T14:07:27.000Z</time>
      </trkpt>
      <trkpt lat="44.00701" lon="3.50492">
        <ele>1005.5</ele>
        <time>2026-05-28T14:07:28.000Z</time>
      </trkpt>
      <trkpt lat="44.007" lon="3.50492">
        <ele>1005.4</ele>
        <time>2026-05-28T14:07:29.000Z</time>
      </trkpt>
      <trkpt lat="44.007" lon="3.50491">
        <ele>1005.1</ele>
        <time>2026-05-28T14:07:30.000Z</time>
      </trkpt>
      <trkpt lat="44.00699" lon="3.50491">
        <ele>1005.1</ele>
        <time>2026-05-28T14:07:31.000Z</time>
      </trkpt>
      <trkpt lat="44.00699" lon="3.50491">
        <ele>1005</ele>
        <time>2026-05-28T14:07:32.000Z</time>
      </trkpt>
      <trkpt lat="44.00699" lon="3.50491">
        <ele>1005.1</ele>
        <time>2026-05-28T14:07:33.000Z</time>
      </trkpt>
      <trkpt lat="44.00699" lon="3.50491">
        <ele>1005</ele>
        <time>2026-05-28T14:07:34.000Z</time>
      </trkpt>
      <trkpt lat="44.00699" lon="3.50491">
        <ele>1005.4</ele>
        <time>2026-05-28T14:07:35.000Z</time>
      </trkpt>
      <trkpt lat="44.00699" lon="3.5049">
        <ele>1005.6</ele>
        <time>2026-05-28T14:07:36.000Z</time>
      </trkpt>
      <trkpt lat="44.00699" lon="3.5049">
        <ele>1005.8</ele>
        <time>2026-05-28T14:07:37.000Z</time>
      </trkpt>
      <trkpt lat="44.00699" lon="3.5049">
        <ele>1005.9</ele>
        <time>2026-05-28T14:07:38.000Z</time>
      </trkpt>
      <trkpt lat="44.00699" lon="3.5049">
        <ele>1006</ele>
        <time>2026-05-28T14:07:39.000Z</time>
      </trkpt>
      <trkpt lat="44.00699" lon="3.5049">
        <ele>1005.9</ele>
        <time>2026-05-28T14:07:40.000Z</time>
      </trkpt>
      <trkpt lat="44.00699" lon="3.5049">
        <ele>1005.9</ele>
        <time>2026-05-28T14:07:41.000Z</time>
      </trkpt>
      <trkpt lat="44.00699" lon="3.5049">
        <ele>1005.9</ele>
        <time>2026-05-28T14:07:42.000Z</time>
      </trkpt>
      <trkpt lat="44.00699" lon="3.5049">
        <ele>1005.9</ele>
        <time>2026-05-28T14:07:43.000Z</time>
      </trkpt>
      <trkpt lat="44.007" lon="3.5049">
        <ele>1006</ele>
        <time>2026-05-28T14:07:44.000Z</time>
      </trkpt>
      <trkpt lat="44.007" lon="3.5049">
        <ele>1006</ele>
        <time>2026-05-28T14:07:45.000Z</time>
      </trkpt>
      <trkpt lat="44.007" lon="3.5049">
        <ele>1006.1</ele>
        <time>2026-05-28T14:07:46.000Z</time>
      </trkpt>
      <trkpt lat="44.007" lon="3.5049">
        <ele>1006.2</ele>
        <time>2026-05-28T14:07:47.000Z</time>
      </trkpt>
      <trkpt lat="44.007" lon="3.5049">
        <ele>1006.2</ele>
        <time>2026-05-28T14:07:48.000Z</time>
      </trkpt>
      <trkpt lat="44.007" lon="3.50489">
        <ele>1006.3</ele>
        <time>2026-05-28T14:07:49.000Z</time>
      </trkpt>
      <trkpt lat="44.007" lon="3.50489">
        <ele>1006.3</ele>
        <time>2026-05-28T14:07:50.000Z</time>
      </trkpt>
      <trkpt lat="44.007" lon="3.50489">
        <ele>1006.1</ele>
        <time>2026-05-28T14:07:51.000Z</time>
      </trkpt>
      <trkpt lat="44.007" lon="3.50489">
        <ele>1006</ele>
        <time>2026-05-28T14:07:52.000Z</time>
      </trkpt>
      <trkpt lat="44.007" lon="3.50489">
        <ele>1005.9</ele>
        <time>2026-05-28T14:07:53.000Z</time>
      </trkpt>
      <trkpt lat="44.007" lon="3.50489">
        <ele>1005.8</ele>
        <time>2026-05-28T14:07:54.000Z</time>
      </trkpt>
      <trkpt lat="44.007" lon="3.50489">
        <ele>1005.8</ele>
        <time>2026-05-28T14:07:55.000Z</time>
      </trkpt>
      <trkpt lat="44.007" lon="3.50489">
        <ele>1005.8</ele>
        <time>2026-05-28T14:07:56.000Z</time>
      </trkpt>
      <trkpt lat="44.007" lon="3.50489">
        <ele>1006</ele>
        <time>2026-05-28T14:07:57.000Z</time>
      </trkpt>
      <trkpt lat="44.007" lon="3.50489">
        <ele>1006.1</ele>
        <time>2026-05-28T14:07:58.000Z</time>
      </trkpt>
      <trkpt lat="44.007" lon="3.50489">
        <ele>1006.1</ele>
        <time>2026-05-28T14:07:59.000Z</time>
      </trkpt>
      <trkpt lat="44.007" lon="3.50489">
        <ele>1005.9</ele>
        <time>2026-05-28T14:08:00.000Z</time>
      </trkpt>
      <trkpt lat="44.007" lon="3.50489">
        <ele>1006</ele>
        <time>2026-05-28T14:08:01.000Z</time>
      </trkpt>
      <trkpt lat="44.007" lon="3.50489">
        <ele>1006.3</ele>
        <time>2026-05-28T14:08:02.000Z</time>
      </trkpt>
      <trkpt lat="44.007" lon="3.50489">
        <ele>1006.4</ele>
        <time>2026-05-28T14:08:03.000Z</time>
      </trkpt>
      <trkpt lat="44.007" lon="3.50489">
        <ele>1006.5</ele>
        <time>2026-05-28T14:08:04.000Z</time>
      </trkpt>
      <trkpt lat="44.007" lon="3.50489">
        <ele>1006.4</ele>
        <time>2026-05-28T14:08:05.000Z</time>
      </trkpt>
      <trkpt lat="44.007" lon="3.50489">
        <ele>1006.4</ele>
        <time>2026-05-28T14:08:06.000Z</time>
      </trkpt>
      <trkpt lat="44.007" lon="3.50489">
        <ele>1006.6</ele>
        <time>2026-05-28T14:08:07.000Z</time>
      </trkpt>
      <trkpt lat="44.007" lon="3.50489">
        <ele>1006.8</ele>
        <time>2026-05-28T14:08:08.000Z</time>
      </trkpt>
      <trkpt lat="44.007" lon="3.50489">
        <ele>1006.7</ele>
        <time>2026-05-28T14:08:09.000Z</time>
      </trkpt>
      <trkpt lat="44.007" lon="3.50489">
        <ele>1006.5</ele>
        <time>2026-05-28T14:08:10.000Z</time>
      </trkpt>
      <trkpt lat="44.007" lon="3.50489">
        <ele>1006.4</ele>
        <time>2026-05-28T14:08:11.000Z</time>
      </trkpt>
      <trkpt lat="44.007" lon="3.50489">
        <ele>1006.1</ele>
        <time>2026-05-28T14:08:12.000Z</time>
      </trkpt>
      <trkpt lat="44.007" lon="3.50489">
        <ele>1005.9</ele>
        <time>2026-05-28T14:08:13.000Z</time>
      </trkpt>
      <trkpt lat="44.007" lon="3.50488">
        <ele>1006</ele>
        <time>2026-05-28T14:08:14.000Z</time>
      </trkpt>
      <trkpt lat="44.007" lon="3.50489">
        <ele>1006.1</ele>
        <time>2026-05-28T14:08:15.000Z</time>
      </trkpt>
      <trkpt lat="44.007" lon="3.50489">
        <ele>1005.9</ele>
        <time>2026-05-28T14:08:16.000Z</time>
      </trkpt>
      <trkpt lat="44.007" lon="3.50489">
        <ele>1005.8</ele>
        <time>2026-05-28T14:08:17.000Z</time>
      </trkpt>
      <trkpt lat="44.007" lon="3.50489">
        <ele>1005.8</ele>
        <time>2026-05-28T14:08:18.000Z</time>
      </trkpt>
      <trkpt lat="44.007" lon="3.50489">
        <ele>1005.6</ele>
        <time>2026-05-28T14:08:19.000Z</time>
      </trkpt>
      <trkpt lat="44.00699" lon="3.50489">
        <ele>1005.3</ele>
        <time>2026-05-28T14:08:20.000Z</time>
      </trkpt>
      <trkpt lat="44.00699" lon="3.50489">
        <ele>1005.4</ele>
        <time>2026-05-28T14:08:21.000Z</time>
      </trkpt>
      <trkpt lat="44.00699" lon="3.50488">
        <ele>1005.5</ele>
        <time>2026-05-28T14:08:22.000Z</time>
      </trkpt>
      <trkpt lat="44.00699" lon="3.50489">
        <ele>1005.3</ele>
        <time>2026-05-28T14:08:23.000Z</time>
      </trkpt>
      <trkpt lat="44.00699" lon="3.50489">
        <ele>1005.1</ele>
        <time>2026-05-28T14:08:24.000Z</time>
      </trkpt>
      <trkpt lat="44.00699" lon="3.50489">
        <ele>1005.1</ele>
        <time>2026-05-28T14:08:25.000Z</time>
      </trkpt>
      <trkpt lat="44.00699" lon="3.50489">
        <ele>1005.1</ele>
        <time>2026-05-28T14:08:26.000Z</time>
      </trkpt>
      <trkpt lat="44.00699" lon="3.50489">
        <ele>1005.2</ele>
        <time>2026-05-28T14:08:27.000Z</time>
      </trkpt>
      <trkpt lat="44.00699" lon="3.50489">
        <ele>1005.3</ele>
        <time>2026-05-28T14:08:28.000Z</time>
      </trkpt>
      <trkpt lat="44.00699" lon="3.50489">
        <ele>1005.3</ele>
        <time>2026-05-28T14:08:29.000Z</time>
      </trkpt>
      <trkpt lat="44.00699" lon="3.50489">
        <ele>1005.3</ele>
        <time>2026-05-28T14:08:30.000Z</time>
      </trkpt>
      <trkpt lat="44.00699" lon="3.50489">
        <ele>1005.4</ele>
        <time>2026-05-28T14:08:31.000Z</time>
      </trkpt>
      <trkpt lat="44.00699" lon="3.50489">
        <ele>1005.5</ele>
        <time>2026-05-28T14:08:32.000Z</time>
      </trkpt>
      <trkpt lat="44.00699" lon="3.50489">
        <ele>1005.4</ele>
        <time>2026-05-28T14:08:33.000Z</time>
      </trkpt>
      <trkpt lat="44.00699" lon="3.50489">
        <ele>1005.4</ele>
        <time>2026-05-28T14:08:34.000Z</time>
      </trkpt>
      <trkpt lat="44.00699" lon="3.50489">
        <ele>1005.4</ele>
        <time>2026-05-28T14:08:35.000Z</time>
      </trkpt>
      <trkpt lat="44.00698" lon="3.50489">
        <ele>1005.4</ele>
        <time>2026-05-28T14:08:36.000Z</time>
      </trkpt>
      <trkpt lat="44.00698" lon="3.50489">
        <ele>1005.4</ele>
        <time>2026-05-28T14:08:37.000Z</time>
      </trkpt>
      <trkpt lat="44.00698" lon="3.50489">
        <ele>1005.4</ele>
        <time>2026-05-28T14:08:38.000Z</time>
      </trkpt>
      <trkpt lat="44.00698" lon="3.50489">
        <ele>1005.5</ele>
        <time>2026-05-28T14:08:39.000Z</time>
      </trkpt>
      <trkpt lat="44.00697" lon="3.50489">
        <ele>1005.5</ele>
        <time>2026-05-28T14:08:40.000Z</time>
      </trkpt>
      <trkpt lat="44.00697" lon="3.5049">
        <ele>1005.5</ele>
        <time>2026-05-28T14:08:41.000Z</time>
      </trkpt>
      <trkpt lat="44.00696" lon="3.50491">
        <ele>1005.3</ele>
        <time>2026-05-28T14:08:42.000Z</time>
      </trkpt>
      <trkpt lat="44.00695" lon="3.50491">
        <ele>1005.2</ele>
        <time>2026-05-28T14:08:43.000Z</time>
      </trkpt>
      <trkpt lat="44.00694" lon="3.50492">
        <ele>1005.1</ele>
        <time>2026-05-28T14:08:44.000Z</time>
      </trkpt>
      <trkpt lat="44.00693" lon="3.50493">
        <ele>1005.2</ele>
        <time>2026-05-28T14:08:45.000Z</time>
      </trkpt>
      <trkpt lat="44.00692" lon="3.50494">
        <ele>1005.2</ele>
        <time>2026-05-28T14:08:46.000Z</time>
      </trkpt>
      <trkpt lat="44.00691" lon="3.50496">
        <ele>1005</ele>
        <time>2026-05-28T14:08:47.000Z</time>
      </trkpt>
      <trkpt lat="44.0069" lon="3.50496">
        <ele>1005.1</ele>
        <time>2026-05-28T14:08:48.000Z</time>
      </trkpt>
      <trkpt lat="44.00688" lon="3.50497">
        <ele>1005.2</ele>
        <time>2026-05-28T14:08:49.000Z</time>
      </trkpt>
      <trkpt lat="44.00687" lon="3.50497">
        <ele>1005.1</ele>
        <time>2026-05-28T14:08:50.000Z</time>
      </trkpt>
      <trkpt lat="44.00686" lon="3.50498">
        <ele>1005.2</ele>
        <time>2026-05-28T14:08:51.000Z</time>
      </trkpt>
      <trkpt lat="44.00685" lon="3.50498">
        <ele>1005</ele>
        <time>2026-05-28T14:08:52.000Z</time>
      </trkpt>
      <trkpt lat="44.00682" lon="3.50498">
        <ele>1004.7</ele>
        <time>2026-05-28T14:08:54.000Z</time>
      </trkpt>
      <trkpt lat="44.00681" lon="3.50499">
        <ele>1004.7</ele>
        <time>2026-05-28T14:08:55.000Z</time>
      </trkpt>
      <trkpt lat="44.0068" lon="3.505">
        <ele>1004.5</ele>
        <time>2026-05-28T14:08:56.000Z</time>
      </trkpt>
      <trkpt lat="44.00679" lon="3.505">
        <ele>1004.6</ele>
        <time>2026-05-28T14:08:57.000Z</time>
      </trkpt>
      <trkpt lat="44.00678" lon="3.505">
        <ele>1004.6</ele>
        <time>2026-05-28T14:08:58.000Z</time>
      </trkpt>
      <trkpt lat="44.00677" lon="3.50501">
        <ele>1004.1</ele>
        <time>2026-05-28T14:08:59.000Z</time>
      </trkpt>
      <trkpt lat="44.00676" lon="3.50502">
        <ele>1003.6</ele>
        <time>2026-05-28T14:09:00.000Z</time>
      </trkpt>
      <trkpt lat="44.00676" lon="3.50502">
        <ele>1003.4</ele>
        <time>2026-05-28T14:09:01.000Z</time>
      </trkpt>
      <trkpt lat="44.00676" lon="3.50502">
        <ele>1003.2</ele>
        <time>2026-05-28T14:09:02.000Z</time>
      </trkpt>
      <trkpt lat="44.00675" lon="3.50502">
        <ele>1002.5</ele>
        <time>2026-05-28T14:09:03.000Z</time>
      </trkpt>
      <trkpt lat="44.00675" lon="3.50503">
        <ele>1002.1</ele>
        <time>2026-05-28T14:09:04.000Z</time>
      </trkpt>
      <trkpt lat="44.00675" lon="3.50503">
        <ele>1002.6</ele>
        <time>2026-05-28T14:09:05.000Z</time>
      </trkpt>
      <trkpt lat="44.00675" lon="3.50503">
        <ele>1002.2</ele>
        <time>2026-05-28T14:09:06.000Z</time>
      </trkpt>
      <trkpt lat="44.00675" lon="3.50503">
        <ele>1002</ele>
        <time>2026-05-28T14:09:07.000Z</time>
      </trkpt>
      <trkpt lat="44.00675" lon="3.50503">
        <ele>1002.1</ele>
        <time>2026-05-28T14:09:08.000Z</time>
      </trkpt>
      <trkpt lat="44.00675" lon="3.50503">
        <ele>1002.4</ele>
        <time>2026-05-28T14:09:09.000Z</time>
      </trkpt>
      <trkpt lat="44.00675" lon="3.50503">
        <ele>1002.7</ele>
        <time>2026-05-28T14:09:10.000Z</time>
      </trkpt>
      <trkpt lat="44.00674" lon="3.50503">
        <ele>1002.9</ele>
        <time>2026-05-28T14:09:11.000Z</time>
      </trkpt>
      <trkpt lat="44.00674" lon="3.50504">
        <ele>1003.1</ele>
        <time>2026-05-28T14:09:12.000Z</time>
      </trkpt>
      <trkpt lat="44.00673" lon="3.50505">
        <ele>1003.2</ele>
        <time>2026-05-28T14:09:13.000Z</time>
      </trkpt>
      <trkpt lat="44.00672" lon="3.50506">
        <ele>1003.3</ele>
        <time>2026-05-28T14:09:14.000Z</time>
      </trkpt>
      <trkpt lat="44.00672" lon="3.50507">
        <ele>1003.7</ele>
        <time>2026-05-28T14:09:15.000Z</time>
      </trkpt>
      <trkpt lat="44.00672" lon="3.50508">
        <ele>1004.2</ele>
        <time>2026-05-28T14:09:16.000Z</time>
      </trkpt>
      <trkpt lat="44.00671" lon="3.50508">
        <ele>1004.4</ele>
        <time>2026-05-28T14:09:17.000Z</time>
      </trkpt>
      <trkpt lat="44.0067" lon="3.50509">
        <ele>1004.4</ele>
        <time>2026-05-28T14:09:18.000Z</time>
      </trkpt>
      <trkpt lat="44.00669" lon="3.50509">
        <ele>1004.4</ele>
        <time>2026-05-28T14:09:19.000Z</time>
      </trkpt>
      <trkpt lat="44.00668" lon="3.5051">
        <ele>1004.6</ele>
        <time>2026-05-28T14:09:20.000Z</time>
      </trkpt>
      <trkpt lat="44.00667" lon="3.5051">
        <ele>1004.6</ele>
        <time>2026-05-28T14:09:21.000Z</time>
      </trkpt>
      <trkpt lat="44.00666" lon="3.50511">
        <ele>1004.4</ele>
        <time>2026-05-28T14:09:22.000Z</time>
      </trkpt>
      <trkpt lat="44.00665" lon="3.50512">
        <ele>1004.4</ele>
        <time>2026-05-28T14:09:23.000Z</time>
      </trkpt>
      <trkpt lat="44.00665" lon="3.50512">
        <ele>1004.5</ele>
        <time>2026-05-28T14:09:24.000Z</time>
      </trkpt>
      <trkpt lat="44.00664" lon="3.50513">
        <ele>1004.9</ele>
        <time>2026-05-28T14:09:25.000Z</time>
      </trkpt>
      <trkpt lat="44.00664" lon="3.50513">
        <ele>1005</ele>
        <time>2026-05-28T14:09:26.000Z</time>
      </trkpt>
      <trkpt lat="44.00663" lon="3.50513">
        <ele>1005.4</ele>
        <time>2026-05-28T14:09:27.000Z</time>
      </trkpt>
      <trkpt lat="44.00662" lon="3.50513">
        <ele>1005.4</ele>
        <time>2026-05-28T14:09:28.000Z</time>
      </trkpt>
      <trkpt lat="44.00661" lon="3.50513">
        <ele>1005</ele>
        <time>2026-05-28T14:09:29.000Z</time>
      </trkpt>
      <trkpt lat="44.0066" lon="3.50512">
        <ele>1004.8</ele>
        <time>2026-05-28T14:09:30.000Z</time>
      </trkpt>
      <trkpt lat="44.00659" lon="3.50512">
        <ele>1004.7</ele>
        <time>2026-05-28T14:09:31.000Z</time>
      </trkpt>
      <trkpt lat="44.00658" lon="3.50512">
        <ele>1004.5</ele>
        <time>2026-05-28T14:09:32.000Z</time>
      </trkpt>
      <trkpt lat="44.00656" lon="3.50512">
        <ele>1004.3</ele>
        <time>2026-05-28T14:09:33.000Z</time>
      </trkpt>
      <trkpt lat="44.00655" lon="3.50513">
        <ele>1004.3</ele>
        <time>2026-05-28T14:09:34.000Z</time>
      </trkpt>
      <trkpt lat="44.00654" lon="3.50513">
        <ele>1004.2</ele>
        <time>2026-05-28T14:09:35.000Z</time>
      </trkpt>
      <trkpt lat="44.00652" lon="3.50514">
        <ele>1004.1</ele>
        <time>2026-05-28T14:09:36.000Z</time>
      </trkpt>
      <trkpt lat="44.00652" lon="3.50514">
        <ele>1003.5</ele>
        <time>2026-05-28T14:09:37.000Z</time>
      </trkpt>
      <trkpt lat="44.00651" lon="3.50515">
        <ele>1003.2</ele>
        <time>2026-05-28T14:09:38.000Z</time>
      </trkpt>
      <trkpt lat="44.0065" lon="3.50516">
        <ele>1003</ele>
        <time>2026-05-28T14:09:39.000Z</time>
      </trkpt>
      <trkpt lat="44.00649" lon="3.50516">
        <ele>1002.9</ele>
        <time>2026-05-28T14:09:40.000Z</time>
      </trkpt>
      <trkpt lat="44.00648" lon="3.50517">
        <ele>1002.7</ele>
        <time>2026-05-28T14:09:41.000Z</time>
      </trkpt>
      <trkpt lat="44.00648" lon="3.50518">
        <ele>1002.6</ele>
        <time>2026-05-28T14:09:42.000Z</time>
      </trkpt>
      <trkpt lat="44.00647" lon="3.50519">
        <ele>1002.5</ele>
        <time>2026-05-28T14:09:43.000Z</time>
      </trkpt>
      <trkpt lat="44.00646" lon="3.5052">
        <ele>1002.5</ele>
        <time>2026-05-28T14:09:44.000Z</time>
      </trkpt>
      <trkpt lat="44.00645" lon="3.5052">
        <ele>1002.5</ele>
        <time>2026-05-28T14:09:45.000Z</time>
      </trkpt>
      <trkpt lat="44.00644" lon="3.5052">
        <ele>1002.8</ele>
        <time>2026-05-28T14:09:46.000Z</time>
      </trkpt>
      <trkpt lat="44.00643" lon="3.50521">
        <ele>1003</ele>
        <time>2026-05-28T14:09:47.000Z</time>
      </trkpt>
      <trkpt lat="44.00642" lon="3.50522">
        <ele>1003</ele>
        <time>2026-05-28T14:09:48.000Z</time>
      </trkpt>
      <trkpt lat="44.00641" lon="3.50523">
        <ele>1002.7</ele>
        <time>2026-05-28T14:09:49.000Z</time>
      </trkpt>
      <trkpt lat="44.00641" lon="3.50524">
        <ele>1002.4</ele>
        <time>2026-05-28T14:09:50.000Z</time>
      </trkpt>
      <trkpt lat="44.0064" lon="3.50525">
        <ele>1002.3</ele>
        <time>2026-05-28T14:09:51.000Z</time>
      </trkpt>
      <trkpt lat="44.00639" lon="3.50525">
        <ele>1002</ele>
        <time>2026-05-28T14:09:52.000Z</time>
      </trkpt>
      <trkpt lat="44.00639" lon="3.50526">
        <ele>1001.5</ele>
        <time>2026-05-28T14:09:53.000Z</time>
      </trkpt>
      <trkpt lat="44.00639" lon="3.50527">
        <ele>1001.5</ele>
        <time>2026-05-28T14:09:54.000Z</time>
      </trkpt>
      <trkpt lat="44.00639" lon="3.50528">
        <ele>1001.5</ele>
        <time>2026-05-28T14:09:55.000Z</time>
      </trkpt>
      <trkpt lat="44.0064" lon="3.50528">
        <ele>1001.6</ele>
        <time>2026-05-28T14:09:56.000Z</time>
      </trkpt>
      <trkpt lat="44.0064" lon="3.50528">
        <ele>1001.5</ele>
        <time>2026-05-28T14:09:57.000Z</time>
      </trkpt>
      <trkpt lat="44.0064" lon="3.50528">
        <ele>1001.5</ele>
        <time>2026-05-28T14:09:58.000Z</time>
      </trkpt>
      <trkpt lat="44.0064" lon="3.50528">
        <ele>1001.3</ele>
        <time>2026-05-28T14:09:59.000Z</time>
      </trkpt>
      <trkpt lat="44.0064" lon="3.50528">
        <ele>1001.3</ele>
        <time>2026-05-28T14:10:00.000Z</time>
      </trkpt>
      <trkpt lat="44.0064" lon="3.50528">
        <ele>1001.5</ele>
        <time>2026-05-28T14:10:01.000Z</time>
      </trkpt>
      <trkpt lat="44.0064" lon="3.50528">
        <ele>1001.6</ele>
        <time>2026-05-28T14:10:02.000Z</time>
      </trkpt>
      <trkpt lat="44.0064" lon="3.50528">
        <ele>1001.4</ele>
        <time>2026-05-28T14:10:03.000Z</time>
      </trkpt>
      <trkpt lat="44.0064" lon="3.50528">
        <ele>1001.7</ele>
        <time>2026-05-28T14:10:04.000Z</time>
      </trkpt>
      <trkpt lat="44.0064" lon="3.50528">
        <ele>1001.9</ele>
        <time>2026-05-28T14:10:05.000Z</time>
      </trkpt>
      <trkpt lat="44.0064" lon="3.50528">
        <ele>1002.1</ele>
        <time>2026-05-28T14:10:06.000Z</time>
      </trkpt>
      <trkpt lat="44.0064" lon="3.50528">
        <ele>1002.1</ele>
        <time>2026-05-28T14:10:07.000Z</time>
      </trkpt>
      <trkpt lat="44.0064" lon="3.50527">
        <ele>1002.2</ele>
        <time>2026-05-28T14:10:08.000Z</time>
      </trkpt>
      <trkpt lat="44.0064" lon="3.50527">
        <ele>1002.3</ele>
        <time>2026-05-28T14:10:09.000Z</time>
      </trkpt>
      <trkpt lat="44.0064" lon="3.50527">
        <ele>1002.3</ele>
        <time>2026-05-28T14:10:10.000Z</time>
      </trkpt>
      <trkpt lat="44.0064" lon="3.50527">
        <ele>1002.2</ele>
        <time>2026-05-28T14:10:11.000Z</time>
      </trkpt>
      <trkpt lat="44.0064" lon="3.50527">
        <ele>1002.2</ele>
        <time>2026-05-28T14:10:12.000Z</time>
      </trkpt>
      <trkpt lat="44.0064" lon="3.50527">
        <ele>1002.2</ele>
        <time>2026-05-28T14:10:13.000Z</time>
      </trkpt>
      <trkpt lat="44.0064" lon="3.50527">
        <ele>1002.2</ele>
        <time>2026-05-28T14:10:14.000Z</time>
      </trkpt>
      <trkpt lat="44.0064" lon="3.50527">
        <ele>1002.1</ele>
        <time>2026-05-28T14:10:15.000Z</time>
      </trkpt>
      <trkpt lat="44.0064" lon="3.50527">
        <ele>1002.3</ele>
        <time>2026-05-28T14:10:16.000Z</time>
      </trkpt>
      <trkpt lat="44.0064" lon="3.50527">
        <ele>1002.6</ele>
        <time>2026-05-28T14:10:17.000Z</time>
      </trkpt>
      <trkpt lat="44.0064" lon="3.50527">
        <ele>1002.8</ele>
        <time>2026-05-28T14:10:18.000Z</time>
      </trkpt>
      <trkpt lat="44.0064" lon="3.50527">
        <ele>1002.9</ele>
        <time>2026-05-28T14:10:19.000Z</time>
      </trkpt>
      <trkpt lat="44.0064" lon="3.50527">
        <ele>1003.2</ele>
        <time>2026-05-28T14:10:20.000Z</time>
      </trkpt>
      <trkpt lat="44.00639" lon="3.50527">
        <ele>1003</ele>
        <time>2026-05-28T14:10:21.000Z</time>
      </trkpt>
      <trkpt lat="44.0064" lon="3.50527">
        <ele>1002.9</ele>
        <time>2026-05-28T14:10:22.000Z</time>
      </trkpt>
      <trkpt lat="44.00639" lon="3.50527">
        <ele>1002.9</ele>
        <time>2026-05-28T14:10:24.000Z</time>
      </trkpt>
      <trkpt lat="44.00638" lon="3.50527">
        <ele>1002.9</ele>
        <time>2026-05-28T14:10:25.000Z</time>
      </trkpt>
      <trkpt lat="44.00638" lon="3.50527">
        <ele>1002.9</ele>
        <time>2026-05-28T14:10:26.000Z</time>
      </trkpt>
      <trkpt lat="44.00638" lon="3.50527">
        <ele>1002.1</ele>
        <time>2026-05-28T14:10:27.000Z</time>
      </trkpt>
      <trkpt lat="44.00638" lon="3.50527">
        <ele>1002.3</ele>
        <time>2026-05-28T14:10:28.000Z</time>
      </trkpt>
      <trkpt lat="44.00638" lon="3.50527">
        <ele>1002.1</ele>
        <time>2026-05-28T14:10:29.000Z</time>
      </trkpt>
      <trkpt lat="44.00638" lon="3.50527">
        <ele>1002.3</ele>
        <time>2026-05-28T14:10:30.000Z</time>
      </trkpt>
      <trkpt lat="44.00638" lon="3.50527">
        <ele>1002.4</ele>
        <time>2026-05-28T14:10:31.000Z</time>
      </trkpt>
      <trkpt lat="44.00638" lon="3.50527">
        <ele>1002.6</ele>
        <time>2026-05-28T14:10:32.000Z</time>
      </trkpt>
      <trkpt lat="44.00638" lon="3.50527">
        <ele>1002.9</ele>
        <time>2026-05-28T14:10:33.000Z</time>
      </trkpt>
      <trkpt lat="44.00638" lon="3.50527">
        <ele>1003</ele>
        <time>2026-05-28T14:10:34.000Z</time>
      </trkpt>
      <trkpt lat="44.00638" lon="3.50527">
        <ele>1002.7</ele>
        <time>2026-05-28T14:10:35.000Z</time>
      </trkpt>
      <trkpt lat="44.00638" lon="3.50527">
        <ele>1002.8</ele>
        <time>2026-05-28T14:10:36.000Z</time>
      </trkpt>
      <trkpt lat="44.00638" lon="3.50527">
        <ele>1002.9</ele>
        <time>2026-05-28T14:10:37.000Z</time>
      </trkpt>
      <trkpt lat="44.00638" lon="3.50527">
        <ele>1002.9</ele>
        <time>2026-05-28T14:10:38.000Z</time>
      </trkpt>
      <trkpt lat="44.00638" lon="3.50527">
        <ele>1003.1</ele>
        <time>2026-05-28T14:10:39.000Z</time>
      </trkpt>
      <trkpt lat="44.00638" lon="3.50527">
        <ele>1003.5</ele>
        <time>2026-05-28T14:10:40.000Z</time>
      </trkpt>
      <trkpt lat="44.00638" lon="3.50527">
        <ele>1003.7</ele>
        <time>2026-05-28T14:10:41.000Z</time>
      </trkpt>
      <trkpt lat="44.00638" lon="3.50527">
        <ele>1003.7</ele>
        <time>2026-05-28T14:10:42.000Z</time>
      </trkpt>
      <trkpt lat="44.00638" lon="3.50527">
        <ele>1003.9</ele>
        <time>2026-05-28T14:10:43.000Z</time>
      </trkpt>
      <trkpt lat="44.00638" lon="3.50527">
        <ele>1004</ele>
        <time>2026-05-28T14:10:44.000Z</time>
      </trkpt>
      <trkpt lat="44.00638" lon="3.50527">
        <ele>1004.3</ele>
        <time>2026-05-28T14:10:45.000Z</time>
      </trkpt>
      <trkpt lat="44.00638" lon="3.50527">
        <ele>1004.3</ele>
        <time>2026-05-28T14:10:46.000Z</time>
      </trkpt>
      <trkpt lat="44.00638" lon="3.50527">
        <ele>1004.6</ele>
        <time>2026-05-28T14:10:47.000Z</time>
      </trkpt>
      <trkpt lat="44.00638" lon="3.50527">
        <ele>1004.5</ele>
        <time>2026-05-28T14:10:48.000Z</time>
      </trkpt>
      <trkpt lat="44.00638" lon="3.50527">
        <ele>1004.3</ele>
        <time>2026-05-28T14:10:49.000Z</time>
      </trkpt>
      <trkpt lat="44.00639" lon="3.50527">
        <ele>1004.1</ele>
        <time>2026-05-28T14:10:50.000Z</time>
      </trkpt>
      <trkpt lat="44.00639" lon="3.50527">
        <ele>1003.8</ele>
        <time>2026-05-28T14:10:51.000Z</time>
      </trkpt>
      <trkpt lat="44.00639" lon="3.50527">
        <ele>1003.8</ele>
        <time>2026-05-28T14:10:52.000Z</time>
      </trkpt>
      <trkpt lat="44.00639" lon="3.50527">
        <ele>1003.9</ele>
        <time>2026-05-28T14:10:53.000Z</time>
      </trkpt>
      <trkpt lat="44.00639" lon="3.50527">
        <ele>1003.7</ele>
        <time>2026-05-28T14:10:54.000Z</time>
      </trkpt>
      <trkpt lat="44.00639" lon="3.50527">
        <ele>1003.4</ele>
        <time>2026-05-28T14:10:55.000Z</time>
      </trkpt>
      <trkpt lat="44.00639" lon="3.50527">
        <ele>1003.3</ele>
        <time>2026-05-28T14:10:56.000Z</time>
      </trkpt>
      <trkpt lat="44.00639" lon="3.50527">
        <ele>1003.2</ele>
        <time>2026-05-28T14:10:57.000Z</time>
      </trkpt>
      <trkpt lat="44.00639" lon="3.50527">
        <ele>1002.7</ele>
        <time>2026-05-28T14:10:58.000Z</time>
      </trkpt>
      <trkpt lat="44.00639" lon="3.50527">
        <ele>1002.5</ele>
        <time>2026-05-28T14:10:59.000Z</time>
      </trkpt>
      <trkpt lat="44.00639" lon="3.50527">
        <ele>1002.4</ele>
        <time>2026-05-28T14:11:00.000Z</time>
      </trkpt>
      <trkpt lat="44.00639" lon="3.50527">
        <ele>1002.3</ele>
        <time>2026-05-28T14:11:01.000Z</time>
      </trkpt>
      <trkpt lat="44.00639" lon="3.50527">
        <ele>1002.3</ele>
        <time>2026-05-28T14:11:02.000Z</time>
      </trkpt>
      <trkpt lat="44.00639" lon="3.50527">
        <ele>1002.1</ele>
        <time>2026-05-28T14:11:03.000Z</time>
      </trkpt>
      <trkpt lat="44.00639" lon="3.50527">
        <ele>1002</ele>
        <time>2026-05-28T14:11:04.000Z</time>
      </trkpt>
      <trkpt lat="44.00639" lon="3.50527">
        <ele>1002.1</ele>
        <time>2026-05-28T14:11:05.000Z</time>
      </trkpt>
      <trkpt lat="44.00639" lon="3.50527">
        <ele>1002.2</ele>
        <time>2026-05-28T14:11:06.000Z</time>
      </trkpt>
      <trkpt lat="44.00639" lon="3.50527">
        <ele>1002.4</ele>
        <time>2026-05-28T14:11:07.000Z</time>
      </trkpt>
      <trkpt lat="44.00639" lon="3.50527">
        <ele>1002.6</ele>
        <time>2026-05-28T14:11:08.000Z</time>
      </trkpt>
      <trkpt lat="44.00639" lon="3.50527">
        <ele>1002.7</ele>
        <time>2026-05-28T14:11:09.000Z</time>
      </trkpt>
      <trkpt lat="44.00639" lon="3.50527">
        <ele>1002.7</ele>
        <time>2026-05-28T14:11:10.000Z</time>
      </trkpt>
      <trkpt lat="44.00639" lon="3.50527">
        <ele>1002.9</ele>
        <time>2026-05-28T14:11:11.000Z</time>
      </trkpt>
      <trkpt lat="44.00639" lon="3.50528">
        <ele>1003.1</ele>
        <time>2026-05-28T14:11:12.000Z</time>
      </trkpt>
      <trkpt lat="44.00639" lon="3.50528">
        <ele>1003.4</ele>
        <time>2026-05-28T14:11:13.000Z</time>
      </trkpt>
      <trkpt lat="44.00639" lon="3.50528">
        <ele>1003.6</ele>
        <time>2026-05-28T14:11:14.000Z</time>
      </trkpt>
      <trkpt lat="44.00639" lon="3.50528">
        <ele>1003.7</ele>
        <time>2026-05-28T14:11:15.000Z</time>
      </trkpt>
      <trkpt lat="44.00639" lon="3.50528">
        <ele>1004</ele>
        <time>2026-05-28T14:11:16.000Z</time>
      </trkpt>
      <trkpt lat="44.00639" lon="3.50528">
        <ele>1004</ele>
        <time>2026-05-28T14:11:17.000Z</time>
      </trkpt>
      <trkpt lat="44.00639" lon="3.50528">
        <ele>1004.1</ele>
        <time>2026-05-28T14:11:18.000Z</time>
      </trkpt>
      <trkpt lat="44.00639" lon="3.50528">
        <ele>1004.3</ele>
        <time>2026-05-28T14:11:19.000Z</time>
      </trkpt>
      <trkpt lat="44.00639" lon="3.50528">
        <ele>1004.4</ele>
        <time>2026-05-28T14:11:20.000Z</time>
      </trkpt>
      <trkpt lat="44.00639" lon="3.50528">
        <ele>1004.7</ele>
        <time>2026-05-28T14:11:21.000Z</time>
      </trkpt>
      <trkpt lat="44.00639" lon="3.50528">
        <ele>1004.8</ele>
        <time>2026-05-28T14:11:22.000Z</time>
      </trkpt>
      <trkpt lat="44.00639" lon="3.50528">
        <ele>1004.9</ele>
        <time>2026-05-28T14:11:23.000Z</time>
      </trkpt>
      <trkpt lat="44.00639" lon="3.50528">
        <ele>1005</ele>
        <time>2026-05-28T14:11:24.000Z</time>
      </trkpt>
      <trkpt lat="44.00639" lon="3.50528">
        <ele>1005.2</ele>
        <time>2026-05-28T14:11:25.000Z</time>
      </trkpt>
      <trkpt lat="44.00639" lon="3.50528">
        <ele>1005.2</ele>
        <time>2026-05-28T14:11:26.000Z</time>
      </trkpt>
      <trkpt lat="44.00639" lon="3.50528">
        <ele>1005.3</ele>
        <time>2026-05-28T14:11:27.000Z</time>
      </trkpt>
      <trkpt lat="44.00639" lon="3.50528">
        <ele>1005.5</ele>
        <time>2026-05-28T14:11:28.000Z</time>
      </trkpt>
      <trkpt lat="44.00639" lon="3.50528">
        <ele>1005.4</ele>
        <time>2026-05-28T14:11:29.000Z</time>
      </trkpt>
      <trkpt lat="44.00639" lon="3.50528">
        <ele>1005.6</ele>
        <time>2026-05-28T14:11:30.000Z</time>
      </trkpt>
      <trkpt lat="44.0064" lon="3.50528">
        <ele>1005.7</ele>
        <time>2026-05-28T14:11:31.000Z</time>
      </trkpt>
      <trkpt lat="44.0064" lon="3.50528">
        <ele>1005.8</ele>
        <time>2026-05-28T14:11:32.000Z</time>
      </trkpt>
      <trkpt lat="44.0064" lon="3.50528">
        <ele>1005.8</ele>
        <time>2026-05-28T14:11:33.000Z</time>
      </trkpt>
      <trkpt lat="44.0064" lon="3.50528">
        <ele>1005.7</ele>
        <time>2026-05-28T14:11:34.000Z</time>
      </trkpt>
      <trkpt lat="44.0064" lon="3.50528">
        <ele>1005.7</ele>
        <time>2026-05-28T14:11:35.000Z</time>
      </trkpt>
      <trkpt lat="44.0064" lon="3.50528">
        <ele>1005.7</ele>
        <time>2026-05-28T14:11:36.000Z</time>
      </trkpt>
      <trkpt lat="44.0064" lon="3.50528">
        <ele>1005.8</ele>
        <time>2026-05-28T14:11:37.000Z</time>
      </trkpt>
      <trkpt lat="44.0064" lon="3.50528">
        <ele>1005.8</ele>
        <time>2026-05-28T14:11:38.000Z</time>
      </trkpt>
      <trkpt lat="44.00639" lon="3.50528">
        <ele>1005.9</ele>
        <time>2026-05-28T14:11:39.000Z</time>
      </trkpt>
      <trkpt lat="44.00639" lon="3.50528">
        <ele>1005.8</ele>
        <time>2026-05-28T14:11:40.000Z</time>
      </trkpt>
      <trkpt lat="44.00639" lon="3.50528">
        <ele>1005.9</ele>
        <time>2026-05-28T14:11:41.000Z</time>
      </trkpt>
      <trkpt lat="44.00639" lon="3.50528">
        <ele>1006.3</ele>
        <time>2026-05-28T14:11:42.000Z</time>
      </trkpt>
      <trkpt lat="44.00639" lon="3.50528">
        <ele>1006.3</ele>
        <time>2026-05-28T14:11:43.000Z</time>
      </trkpt>
      <trkpt lat="44.00639" lon="3.50528">
        <ele>1006.6</ele>
        <time>2026-05-28T14:11:44.000Z</time>
      </trkpt>
      <trkpt lat="44.00639" lon="3.50528">
        <ele>1006.6</ele>
        <time>2026-05-28T14:11:45.000Z</time>
      </trkpt>
      <trkpt lat="44.00639" lon="3.50528">
        <ele>1006.7</ele>
        <time>2026-05-28T14:11:46.000Z</time>
      </trkpt>
      <trkpt lat="44.00639" lon="3.50528">
        <ele>1006.8</ele>
        <time>2026-05-28T14:11:47.000Z</time>
      </trkpt>
      <trkpt lat="44.00639" lon="3.50528">
        <ele>1006.8</ele>
        <time>2026-05-28T14:11:48.000Z</time>
      </trkpt>
      <trkpt lat="44.00639" lon="3.50528">
        <ele>1006.4</ele>
        <time>2026-05-28T14:11:49.000Z</time>
      </trkpt>
      <trkpt lat="44.00639" lon="3.50528">
        <ele>1006.2</ele>
        <time>2026-05-28T14:11:50.000Z</time>
      </trkpt>
      <trkpt lat="44.00639" lon="3.50528">
        <ele>1006</ele>
        <time>2026-05-28T14:11:51.000Z</time>
      </trkpt>
      <trkpt lat="44.00639" lon="3.50528">
        <ele>1005.8</ele>
        <time>2026-05-28T14:11:52.000Z</time>
      </trkpt>
      <trkpt lat="44.00639" lon="3.50528">
        <ele>1005.9</ele>
        <time>2026-05-28T14:11:53.000Z</time>
      </trkpt>
      <trkpt lat="44.00639" lon="3.50528">
        <ele>1005.6</ele>
        <time>2026-05-28T14:11:54.000Z</time>
      </trkpt>
      <trkpt lat="44.00639" lon="3.50528">
        <ele>1005.4</ele>
        <time>2026-05-28T14:11:55.000Z</time>
      </trkpt>
      <trkpt lat="44.00639" lon="3.50527">
        <ele>1005</ele>
        <time>2026-05-28T14:11:56.000Z</time>
      </trkpt>
      <trkpt lat="44.00639" lon="3.50527">
        <ele>1004.7</ele>
        <time>2026-05-28T14:11:57.000Z</time>
      </trkpt>
      <trkpt lat="44.00639" lon="3.50527">
        <ele>1004.6</ele>
        <time>2026-05-28T14:11:58.000Z</time>
      </trkpt>
      <trkpt lat="44.00639" lon="3.50527">
        <ele>1004.5</ele>
        <time>2026-05-28T14:11:59.000Z</time>
      </trkpt>
      <trkpt lat="44.00639" lon="3.50527">
        <ele>1004.6</ele>
        <time>2026-05-28T14:12:00.000Z</time>
      </trkpt>
      <trkpt lat="44.00639" lon="3.50527">
        <ele>1004.9</ele>
        <time>2026-05-28T14:12:01.000Z</time>
      </trkpt>
      <trkpt lat="44.00639" lon="3.50527">
        <ele>1005</ele>
        <time>2026-05-28T14:12:02.000Z</time>
      </trkpt>
      <trkpt lat="44.00639" lon="3.50527">
        <ele>1005</ele>
        <time>2026-05-28T14:12:03.000Z</time>
      </trkpt>
      <trkpt lat="44.00639" lon="3.50527">
        <ele>1005.2</ele>
        <time>2026-05-28T14:12:04.000Z</time>
      </trkpt>
      <trkpt lat="44.00639" lon="3.50527">
        <ele>1005.3</ele>
        <time>2026-05-28T14:12:05.000Z</time>
      </trkpt>
      <trkpt lat="44.00639" lon="3.50527">
        <ele>1005.3</ele>
        <time>2026-05-28T14:12:06.000Z</time>
      </trkpt>
      <trkpt lat="44.00639" lon="3.50527">
        <ele>1005.3</ele>
        <time>2026-05-28T14:12:07.000Z</time>
      </trkpt>
      <trkpt lat="44.00639" lon="3.50527">
        <ele>1005.4</ele>
        <time>2026-05-28T14:12:08.000Z</time>
      </trkpt>
      <trkpt lat="44.00639" lon="3.50527">
        <ele>1005.4</ele>
        <time>2026-05-28T14:12:09.000Z</time>
      </trkpt>
      <trkpt lat="44.00639" lon="3.50527">
        <ele>1005.4</ele>
        <time>2026-05-28T14:12:10.000Z</time>
      </trkpt>
      <trkpt lat="44.00639" lon="3.50527">
        <ele>1005.4</ele>
        <time>2026-05-28T14:12:11.000Z</time>
      </trkpt>
      <trkpt lat="44.00639" lon="3.50527">
        <ele>1005.5</ele>
        <time>2026-05-28T14:12:12.000Z</time>
      </trkpt>
      <trkpt lat="44.00639" lon="3.50527">
        <ele>1005.7</ele>
        <time>2026-05-28T14:12:13.000Z</time>
      </trkpt>
      <trkpt lat="44.00639" lon="3.50527">
        <ele>1005.8</ele>
        <time>2026-05-28T14:12:14.000Z</time>
      </trkpt>
      <trkpt lat="44.00639" lon="3.50527">
        <ele>1005.8</ele>
        <time>2026-05-28T14:12:15.000Z</time>
      </trkpt>
      <trkpt lat="44.00639" lon="3.50527">
        <ele>1005.7</ele>
        <time>2026-05-28T14:12:16.000Z</time>
      </trkpt>
      <trkpt lat="44.00639" lon="3.50527">
        <ele>1005.6</ele>
        <time>2026-05-28T14:12:17.000Z</time>
      </trkpt>
      <trkpt lat="44.00639" lon="3.50527">
        <ele>1005.6</ele>
        <time>2026-05-28T14:12:18.000Z</time>
      </trkpt>
      <trkpt lat="44.00639" lon="3.50527">
        <ele>1005.5</ele>
        <time>2026-05-28T14:12:19.000Z</time>
      </trkpt>
      <trkpt lat="44.00639" lon="3.50527">
        <ele>1005.3</ele>
        <time>2026-05-28T14:12:20.000Z</time>
      </trkpt>
      <trkpt lat="44.00639" lon="3.50527">
        <ele>1005.1</ele>
        <time>2026-05-28T14:12:21.000Z</time>
      </trkpt>
      <trkpt lat="44.00639" lon="3.50527">
        <ele>1005.1</ele>
        <time>2026-05-28T14:12:22.000Z</time>
      </trkpt>
      <trkpt lat="44.00639" lon="3.50527">
        <ele>1005.2</ele>
        <time>2026-05-28T14:12:23.000Z</time>
      </trkpt>
      <trkpt lat="44.00639" lon="3.50527">
        <ele>1005.4</ele>
        <time>2026-05-28T14:12:24.000Z</time>
      </trkpt>
      <trkpt lat="44.00639" lon="3.50528">
        <ele>1005.3</ele>
        <time>2026-05-28T14:12:25.000Z</time>
      </trkpt>
      <trkpt lat="44.00639" lon="3.50528">
        <ele>1005.1</ele>
        <time>2026-05-28T14:12:26.000Z</time>
      </trkpt>
      <trkpt lat="44.00639" lon="3.50528">
        <ele>1004.9</ele>
        <time>2026-05-28T14:12:27.000Z</time>
      </trkpt>
      <trkpt lat="44.00639" lon="3.50528">
        <ele>1005</ele>
        <time>2026-05-28T14:12:28.000Z</time>
      </trkpt>
      <trkpt lat="44.00639" lon="3.50528">
        <ele>1004.9</ele>
        <time>2026-05-28T14:12:29.000Z</time>
      </trkpt>
      <trkpt lat="44.00639" lon="3.50528">
        <ele>1005.3</ele>
        <time>2026-05-28T14:12:30.000Z</time>
      </trkpt>
      <trkpt lat="44.00639" lon="3.50528">
        <ele>1005.5</ele>
        <time>2026-05-28T14:12:31.000Z</time>
      </trkpt>
      <trkpt lat="44.00639" lon="3.50528">
        <ele>1005.6</ele>
        <time>2026-05-28T14:12:32.000Z</time>
      </trkpt>
      <trkpt lat="44.00639" lon="3.50528">
        <ele>1005.7</ele>
        <time>2026-05-28T14:12:33.000Z</time>
      </trkpt>
      <trkpt lat="44.00639" lon="3.50528">
        <ele>1005.7</ele>
        <time>2026-05-28T14:12:34.000Z</time>
      </trkpt>
      <trkpt lat="44.00638" lon="3.50528">
        <ele>1005.8</ele>
        <time>2026-05-28T14:12:35.000Z</time>
      </trkpt>
      <trkpt lat="44.00638" lon="3.50528">
        <ele>1005.7</ele>
        <time>2026-05-28T14:12:36.000Z</time>
      </trkpt>
      <trkpt lat="44.00638" lon="3.50528">
        <ele>1005.9</ele>
        <time>2026-05-28T14:12:37.000Z</time>
      </trkpt>
      <trkpt lat="44.00638" lon="3.50528">
        <ele>1005.9</ele>
        <time>2026-05-28T14:12:38.000Z</time>
      </trkpt>
      <trkpt lat="44.00638" lon="3.50528">
        <ele>1005.7</ele>
        <time>2026-05-28T14:12:39.000Z</time>
      </trkpt>
      <trkpt lat="44.00639" lon="3.50528">
        <ele>1005.6</ele>
        <time>2026-05-28T14:12:40.000Z</time>
      </trkpt>
      <trkpt lat="44.00639" lon="3.50528">
        <ele>1005.6</ele>
        <time>2026-05-28T14:12:41.000Z</time>
      </trkpt>
      <trkpt lat="44.00639" lon="3.50528">
        <ele>1005.5</ele>
        <time>2026-05-28T14:12:42.000Z</time>
      </trkpt>
      <trkpt lat="44.00639" lon="3.50528">
        <ele>1005.4</ele>
        <time>2026-05-28T14:12:43.000Z</time>
      </trkpt>
      <trkpt lat="44.00639" lon="3.50528">
        <ele>1005.3</ele>
        <time>2026-05-28T14:12:44.000Z</time>
      </trkpt>
      <trkpt lat="44.00639" lon="3.50528">
        <ele>1005.1</ele>
        <time>2026-05-28T14:12:45.999Z</time>
      </trkpt>
      <trkpt lat="44.00639" lon="3.50528">
        <ele>1005</ele>
        <time>2026-05-28T14:12:46.999Z</time>
      </trkpt>
      <trkpt lat="44.00639" lon="3.50528">
        <ele>1004.9</ele>
        <time>2026-05-28T14:12:47.999Z</time>
      </trkpt>
      <trkpt lat="44.00639" lon="3.50528">
        <ele>1005</ele>
        <time>2026-05-28T14:12:48.999Z</time>
      </trkpt>
      <trkpt lat="44.00639" lon="3.50528">
        <ele>1005</ele>
        <time>2026-05-28T14:12:49.999Z</time>
      </trkpt>
      <trkpt lat="44.00639" lon="3.50528">
        <ele>1005</ele>
        <time>2026-05-28T14:12:50.999Z</time>
      </trkpt>
      <trkpt lat="44.00639" lon="3.50528">
        <ele>1005</ele>
        <time>2026-05-28T14:12:51.999Z</time>
      </trkpt>
      <trkpt lat="44.00639" lon="3.50528">
        <ele>1005.1</ele>
        <time>2026-05-28T14:12:52.999Z</time>
      </trkpt>
      <trkpt lat="44.00639" lon="3.50528">
        <ele>1005</ele>
        <time>2026-05-28T14:12:53.999Z</time>
      </trkpt>
      <trkpt lat="44.00639" lon="3.50528">
        <ele>1005.1</ele>
        <time>2026-05-28T14:12:54.999Z</time>
      </trkpt>
      <trkpt lat="44.00639" lon="3.50528">
        <ele>1004.9</ele>
        <time>2026-05-28T14:12:55.999Z</time>
      </trkpt>
      <trkpt lat="44.00639" lon="3.50528">
        <ele>1004.8</ele>
        <time>2026-05-28T14:12:56.999Z</time>
      </trkpt>
      <trkpt lat="44.00639" lon="3.50528">
        <ele>1004.8</ele>
        <time>2026-05-28T14:12:57.999Z</time>
      </trkpt>
      <trkpt lat="44.00639" lon="3.50528">
        <ele>1004.8</ele>
        <time>2026-05-28T14:12:58.999Z</time>
      </trkpt>
      <trkpt lat="44.00639" lon="3.50528">
        <ele>1004.8</ele>
        <time>2026-05-28T14:12:59.999Z</time>
      </trkpt>
      <trkpt lat="44.00639" lon="3.50528">
        <ele>1004.5</ele>
        <time>2026-05-28T14:13:00.999Z</time>
      </trkpt>
      <trkpt lat="44.00639" lon="3.50528">
        <ele>1004.3</ele>
        <time>2026-05-28T14:13:01.999Z</time>
      </trkpt>
      <trkpt lat="44.00639" lon="3.50528">
        <ele>1004.2</ele>
        <time>2026-05-28T14:13:02.999Z</time>
      </trkpt>
      <trkpt lat="44.00639" lon="3.50528">
        <ele>1003.9</ele>
        <time>2026-05-28T14:13:03.999Z</time>
      </trkpt>
      <trkpt lat="44.00639" lon="3.50528">
        <ele>1004</ele>
        <time>2026-05-28T14:13:04.999Z</time>
      </trkpt>
      <trkpt lat="44.00639" lon="3.50528">
        <ele>1004.1</ele>
        <time>2026-05-28T14:13:05.999Z</time>
      </trkpt>
      <trkpt lat="44.00639" lon="3.50528">
        <ele>1004.2</ele>
        <time>2026-05-28T14:13:06.999Z</time>
      </trkpt>
      <trkpt lat="44.00639" lon="3.50528">
        <ele>1004.5</ele>
        <time>2026-05-28T14:13:07.999Z</time>
      </trkpt>
      <trkpt lat="44.00639" lon="3.50528">
        <ele>1004.8</ele>
        <time>2026-05-28T14:13:08.999Z</time>
      </trkpt>
      <trkpt lat="44.00639" lon="3.50528">
        <ele>1005</ele>
        <time>2026-05-28T14:13:09.999Z</time>
      </trkpt>
      <trkpt lat="44.00639" lon="3.50528">
        <ele>1005.1</ele>
        <time>2026-05-28T14:13:10.999Z</time>
      </trkpt>
      <trkpt lat="44.00639" lon="3.50528">
        <ele>1005.1</ele>
        <time>2026-05-28T14:13:11.999Z</time>
      </trkpt>
      <trkpt lat="44.00639" lon="3.50528">
        <ele>1005</ele>
        <time>2026-05-28T14:13:12.999Z</time>
      </trkpt>
      <trkpt lat="44.00639" lon="3.50528">
        <ele>1004.8</ele>
        <time>2026-05-28T14:13:13.999Z</time>
      </trkpt>
      <trkpt lat="44.00639" lon="3.50528">
        <ele>1004.8</ele>
        <time>2026-05-28T14:13:14.999Z</time>
      </trkpt>
      <trkpt lat="44.00639" lon="3.50528">
        <ele>1004.7</ele>
        <time>2026-05-28T14:13:15.999Z</time>
      </trkpt>
      <trkpt lat="44.00639" lon="3.50528">
        <ele>1004.6</ele>
        <time>2026-05-28T14:13:16.999Z</time>
      </trkpt>
      <trkpt lat="44.00639" lon="3.50528">
        <ele>1004.5</ele>
        <time>2026-05-28T14:13:17.999Z</time>
      </trkpt>
      <trkpt lat="44.00639" lon="3.50528">
        <ele>1004.5</ele>
        <time>2026-05-28T14:13:18.999Z</time>
      </trkpt>
      <trkpt lat="44.00639" lon="3.50528">
        <ele>1004.6</ele>
        <time>2026-05-28T14:13:19.999Z</time>
      </trkpt>
      <trkpt lat="44.00639" lon="3.50528">
        <ele>1004.5</ele>
        <time>2026-05-28T14:13:20.999Z</time>
      </trkpt>
      <trkpt lat="44.00639" lon="3.50528">
        <ele>1004.5</ele>
        <time>2026-05-28T14:13:21.999Z</time>
      </trkpt>
      <trkpt lat="44.00639" lon="3.50528">
        <ele>1004.4</ele>
        <time>2026-05-28T14:13:22.999Z</time>
      </trkpt>
      <trkpt lat="44.00639" lon="3.50528">
        <ele>1004.3</ele>
        <time>2026-05-28T14:13:23.999Z</time>
      </trkpt>
      <trkpt lat="44.00639" lon="3.50528">
        <ele>1004.1</ele>
        <time>2026-05-28T14:13:24.999Z</time>
      </trkpt>
      <trkpt lat="44.00639" lon="3.50529">
        <ele>1003.9</ele>
        <time>2026-05-28T14:13:25.999Z</time>
      </trkpt>
      <trkpt lat="44.00639" lon="3.50529">
        <ele>1003.9</ele>
        <time>2026-05-28T14:13:26.999Z</time>
      </trkpt>
      <trkpt lat="44.00639" lon="3.50529">
        <ele>1004</ele>
        <time>2026-05-28T14:13:27.999Z</time>
      </trkpt>
      <trkpt lat="44.00639" lon="3.50529">
        <ele>1004</ele>
        <time>2026-05-28T14:13:28.999Z</time>
      </trkpt>
      <trkpt lat="44.00639" lon="3.50529">
        <ele>1004</ele>
        <time>2026-05-28T14:13:29.999Z</time>
      </trkpt>
      <trkpt lat="44.00639" lon="3.50529">
        <ele>1003.9</ele>
        <time>2026-05-28T14:13:30.999Z</time>
      </trkpt>
      <trkpt lat="44.00639" lon="3.50529">
        <ele>1003.9</ele>
        <time>2026-05-28T14:13:31.999Z</time>
      </trkpt>
      <trkpt lat="44.00639" lon="3.50529">
        <ele>1004</ele>
        <time>2026-05-28T14:13:32.999Z</time>
      </trkpt>
      <trkpt lat="44.00639" lon="3.50529">
        <ele>1003.9</ele>
        <time>2026-05-28T14:13:33.999Z</time>
      </trkpt>
      <trkpt lat="44.00639" lon="3.50529">
        <ele>1003.6</ele>
        <time>2026-05-28T14:13:34.999Z</time>
      </trkpt>
      <trkpt lat="44.00639" lon="3.50529">
        <ele>1003.5</ele>
        <time>2026-05-28T14:13:35.999Z</time>
      </trkpt>
      <trkpt lat="44.00639" lon="3.50529">
        <ele>1003.4</ele>
        <time>2026-05-28T14:13:36.999Z</time>
      </trkpt>
      <trkpt lat="44.00639" lon="3.50529">
        <ele>1003.3</ele>
        <time>2026-05-28T14:13:37.999Z</time>
      </trkpt>
      <trkpt lat="44.00639" lon="3.50529">
        <ele>1003.3</ele>
        <time>2026-05-28T14:13:38.999Z</time>
      </trkpt>
      <trkpt lat="44.00639" lon="3.50529">
        <ele>1003.2</ele>
        <time>2026-05-28T14:13:39.999Z</time>
      </trkpt>
      <trkpt lat="44.00639" lon="3.50529">
        <ele>1003</ele>
        <time>2026-05-28T14:13:40.999Z</time>
      </trkpt>
      <trkpt lat="44.00639" lon="3.50529">
        <ele>1003.1</ele>
        <time>2026-05-28T14:13:41.999Z</time>
      </trkpt>
      <trkpt lat="44.00639" lon="3.50529">
        <ele>1003.2</ele>
        <time>2026-05-28T14:13:42.999Z</time>
      </trkpt>
      <trkpt lat="44.00639" lon="3.50529">
        <ele>1003.2</ele>
        <time>2026-05-28T14:13:43.999Z</time>
      </trkpt>
      <trkpt lat="44.00639" lon="3.50529">
        <ele>1003.3</ele>
        <time>2026-05-28T14:13:44.999Z</time>
      </trkpt>
      <trkpt lat="44.00639" lon="3.50529">
        <ele>1003.5</ele>
        <time>2026-05-28T14:13:45.999Z</time>
      </trkpt>
      <trkpt lat="44.00639" lon="3.50529">
        <ele>1003.6</ele>
        <time>2026-05-28T14:13:46.999Z</time>
      </trkpt>
      <trkpt lat="44.00639" lon="3.50529">
        <ele>1003.7</ele>
        <time>2026-05-28T14:13:47.999Z</time>
      </trkpt>
      <trkpt lat="44.00639" lon="3.50529">
        <ele>1003.7</ele>
        <time>2026-05-28T14:13:48.999Z</time>
      </trkpt>
      <trkpt lat="44.00639" lon="3.50529">
        <ele>1003.7</ele>
        <time>2026-05-28T14:13:49.999Z</time>
      </trkpt>
      <trkpt lat="44.00639" lon="3.50529">
        <ele>1003.8</ele>
        <time>2026-05-28T14:13:50.999Z</time>
      </trkpt>
      <trkpt lat="44.00639" lon="3.50529">
        <ele>1003.8</ele>
        <time>2026-05-28T14:13:51.999Z</time>
      </trkpt>
      <trkpt lat="44.00639" lon="3.50529">
        <ele>1003.7</ele>
        <time>2026-05-28T14:13:52.999Z</time>
      </trkpt>
      <trkpt lat="44.00639" lon="3.50529">
        <ele>1003.6</ele>
        <time>2026-05-28T14:13:53.999Z</time>
      </trkpt>
      <trkpt lat="44.0064" lon="3.50529">
        <ele>1003.6</ele>
        <time>2026-05-28T14:13:54.999Z</time>
      </trkpt>
      <trkpt lat="44.0064" lon="3.50529">
        <ele>1003.9</ele>
        <time>2026-05-28T14:13:55.999Z</time>
      </trkpt>
      <trkpt lat="44.0064" lon="3.50529">
        <ele>1004.3</ele>
        <time>2026-05-28T14:13:56.999Z</time>
      </trkpt>
      <trkpt lat="44.0064" lon="3.50529">
        <ele>1004.2</ele>
        <time>2026-05-28T14:13:57.999Z</time>
      </trkpt>
      <trkpt lat="44.0064" lon="3.50529">
        <ele>1004.2</ele>
        <time>2026-05-28T14:13:58.999Z</time>
      </trkpt>
      <trkpt lat="44.0064" lon="3.50529">
        <ele>1004.2</ele>
        <time>2026-05-28T14:13:59.999Z</time>
      </trkpt>
      <trkpt lat="44.0064" lon="3.50529">
        <ele>1004.4</ele>
        <time>2026-05-28T14:14:00.999Z</time>
      </trkpt>
      <trkpt lat="44.0064" lon="3.50529">
        <ele>1004.8</ele>
        <time>2026-05-28T14:14:01.999Z</time>
      </trkpt>
      <trkpt lat="44.0064" lon="3.50529">
        <ele>1005.3</ele>
        <time>2026-05-28T14:14:02.999Z</time>
      </trkpt>
      <trkpt lat="44.0064" lon="3.50529">
        <ele>1005.6</ele>
        <time>2026-05-28T14:14:03.999Z</time>
      </trkpt>
      <trkpt lat="44.0064" lon="3.50529">
        <ele>1005.6</ele>
        <time>2026-05-28T14:14:04.999Z</time>
      </trkpt>
      <trkpt lat="44.0064" lon="3.50529">
        <ele>1005.6</ele>
        <time>2026-05-28T14:14:05.999Z</time>
      </trkpt>
      <trkpt lat="44.0064" lon="3.50529">
        <ele>1005.5</ele>
        <time>2026-05-28T14:14:06.999Z</time>
      </trkpt>
      <trkpt lat="44.0064" lon="3.50529">
        <ele>1005.6</ele>
        <time>2026-05-28T14:14:07.999Z</time>
      </trkpt>
      <trkpt lat="44.0064" lon="3.50529">
        <ele>1005.5</ele>
        <time>2026-05-28T14:14:08.999Z</time>
      </trkpt>
      <trkpt lat="44.0064" lon="3.50529">
        <ele>1005.4</ele>
        <time>2026-05-28T14:14:09.999Z</time>
      </trkpt>
      <trkpt lat="44.0064" lon="3.50529">
        <ele>1005.3</ele>
        <time>2026-05-28T14:14:10.999Z</time>
      </trkpt>
      <trkpt lat="44.0064" lon="3.50529">
        <ele>1005.3</ele>
        <time>2026-05-28T14:14:11.999Z</time>
      </trkpt>
      <trkpt lat="44.0064" lon="3.50529">
        <ele>1005.3</ele>
        <time>2026-05-28T14:14:12.999Z</time>
      </trkpt>
      <trkpt lat="44.0064" lon="3.50529">
        <ele>1005.2</ele>
        <time>2026-05-28T14:14:13.999Z</time>
      </trkpt>
      <trkpt lat="44.0064" lon="3.50529">
        <ele>1005.4</ele>
        <time>2026-05-28T14:14:14.999Z</time>
      </trkpt>
      <trkpt lat="44.0064" lon="3.50529">
        <ele>1005.4</ele>
        <time>2026-05-28T14:14:15.999Z</time>
      </trkpt>
      <trkpt lat="44.0064" lon="3.50529">
        <ele>1005.2</ele>
        <time>2026-05-28T14:14:16.999Z</time>
      </trkpt>
      <trkpt lat="44.0064" lon="3.50529">
        <ele>1004.8</ele>
        <time>2026-05-28T14:14:17.999Z</time>
      </trkpt>
      <trkpt lat="44.0064" lon="3.50529">
        <ele>1004.7</ele>
        <time>2026-05-28T14:14:18.999Z</time>
      </trkpt>
      <trkpt lat="44.0064" lon="3.50529">
        <ele>1004.6</ele>
        <time>2026-05-28T14:14:19.999Z</time>
      </trkpt>
      <trkpt lat="44.0064" lon="3.50529">
        <ele>1004.5</ele>
        <time>2026-05-28T14:14:20.999Z</time>
      </trkpt>
      <trkpt lat="44.0064" lon="3.50529">
        <ele>1004.5</ele>
        <time>2026-05-28T14:14:21.999Z</time>
      </trkpt>
      <trkpt lat="44.0064" lon="3.50529">
        <ele>1004.7</ele>
        <time>2026-05-28T14:14:22.999Z</time>
      </trkpt>
      <trkpt lat="44.00639" lon="3.50529">
        <ele>1004.6</ele>
        <time>2026-05-28T14:14:23.999Z</time>
      </trkpt>
      <trkpt lat="44.00639" lon="3.50529">
        <ele>1004.8</ele>
        <time>2026-05-28T14:14:24.999Z</time>
      </trkpt>
      <trkpt lat="44.00639" lon="3.50529">
        <ele>1005</ele>
        <time>2026-05-28T14:14:25.999Z</time>
      </trkpt>
      <trkpt lat="44.00639" lon="3.50529">
        <ele>1005.4</ele>
        <time>2026-05-28T14:14:26.999Z</time>
      </trkpt>
      <trkpt lat="44.00639" lon="3.50529">
        <ele>1005.8</ele>
        <time>2026-05-28T14:14:27.999Z</time>
      </trkpt>
      <trkpt lat="44.00639" lon="3.50529">
        <ele>1006.1</ele>
        <time>2026-05-28T14:14:28.999Z</time>
      </trkpt>
      <trkpt lat="44.00639" lon="3.50529">
        <ele>1006.3</ele>
        <time>2026-05-28T14:14:29.999Z</time>
      </trkpt>
      <trkpt lat="44.00639" lon="3.50529">
        <ele>1006.5</ele>
        <time>2026-05-28T14:14:30.999Z</time>
      </trkpt>
      <trkpt lat="44.00639" lon="3.50529">
        <ele>1006.6</ele>
        <time>2026-05-28T14:14:31.999Z</time>
      </trkpt>
      <trkpt lat="44.00639" lon="3.50529">
        <ele>1006.7</ele>
        <time>2026-05-28T14:14:32.999Z</time>
      </trkpt>
      <trkpt lat="44.00639" lon="3.50529">
        <ele>1006.6</ele>
        <time>2026-05-28T14:14:33.999Z</time>
      </trkpt>
      <trkpt lat="44.00638" lon="3.50529">
        <ele>1006.5</ele>
        <time>2026-05-28T14:14:34.999Z</time>
      </trkpt>
      <trkpt lat="44.00638" lon="3.50529">
        <ele>1006.6</ele>
        <time>2026-05-28T14:14:35.999Z</time>
      </trkpt>
      <trkpt lat="44.00638" lon="3.50529">
        <ele>1006.9</ele>
        <time>2026-05-28T14:14:36.999Z</time>
      </trkpt>
      <trkpt lat="44.00638" lon="3.50529">
        <ele>1007.1</ele>
        <time>2026-05-28T14:14:37.999Z</time>
      </trkpt>
      <trkpt lat="44.00638" lon="3.50529">
        <ele>1006.9</ele>
        <time>2026-05-28T14:14:38.999Z</time>
      </trkpt>
      <trkpt lat="44.00638" lon="3.50529">
        <ele>1007</ele>
        <time>2026-05-28T14:14:39.999Z</time>
      </trkpt>
      <trkpt lat="44.00638" lon="3.50529">
        <ele>1007.1</ele>
        <time>2026-05-28T14:14:40.999Z</time>
      </trkpt>
      <trkpt lat="44.00638" lon="3.50529">
        <ele>1007.1</ele>
        <time>2026-05-28T14:14:41.999Z</time>
      </trkpt>
      <trkpt lat="44.00638" lon="3.50529">
        <ele>1007.2</ele>
        <time>2026-05-28T14:14:42.999Z</time>
      </trkpt>
      <trkpt lat="44.00638" lon="3.50529">
        <ele>1007.2</ele>
        <time>2026-05-28T14:14:43.999Z</time>
      </trkpt>
      <trkpt lat="44.00638" lon="3.50529">
        <ele>1007.2</ele>
        <time>2026-05-28T14:14:44.999Z</time>
      </trkpt>
      <trkpt lat="44.00638" lon="3.50529">
        <ele>1007.4</ele>
        <time>2026-05-28T14:14:45.999Z</time>
      </trkpt>
      <trkpt lat="44.00638" lon="3.50529">
        <ele>1007.5</ele>
        <time>2026-05-28T14:14:46.999Z</time>
      </trkpt>
      <trkpt lat="44.00638" lon="3.50529">
        <ele>1007.5</ele>
        <time>2026-05-28T14:14:47.999Z</time>
      </trkpt>
      <trkpt lat="44.00638" lon="3.50529">
        <ele>1007.6</ele>
        <time>2026-05-28T14:14:48.999Z</time>
      </trkpt>
      <trkpt lat="44.00638" lon="3.50529">
        <ele>1007.4</ele>
        <time>2026-05-28T14:14:49.999Z</time>
      </trkpt>
      <trkpt lat="44.00638" lon="3.50529">
        <ele>1007.1</ele>
        <time>2026-05-28T14:14:50.999Z</time>
      </trkpt>
      <trkpt lat="44.00638" lon="3.50529">
        <ele>1006.9</ele>
        <time>2026-05-28T14:14:51.999Z</time>
      </trkpt>
      <trkpt lat="44.00638" lon="3.50529">
        <ele>1006.8</ele>
        <time>2026-05-28T14:14:52.999Z</time>
      </trkpt>
      <trkpt lat="44.00638" lon="3.50529">
        <ele>1006.8</ele>
        <time>2026-05-28T14:14:53.999Z</time>
      </trkpt>
      <trkpt lat="44.00638" lon="3.50529">
        <ele>1006.6</ele>
        <time>2026-05-28T14:14:54.999Z</time>
      </trkpt>
      <trkpt lat="44.00638" lon="3.50529">
        <ele>1006.4</ele>
        <time>2026-05-28T14:14:55.999Z</time>
      </trkpt>
      <trkpt lat="44.00638" lon="3.50529">
        <ele>1006.4</ele>
        <time>2026-05-28T14:14:56.999Z</time>
      </trkpt>
      <trkpt lat="44.00638" lon="3.50529">
        <ele>1006.3</ele>
        <time>2026-05-28T14:14:57.999Z</time>
      </trkpt>
      <trkpt lat="44.00638" lon="3.50529">
        <ele>1005.9</ele>
        <time>2026-05-28T14:14:58.999Z</time>
      </trkpt>
      <trkpt lat="44.00638" lon="3.50529">
        <ele>1005.8</ele>
        <time>2026-05-28T14:14:59.999Z</time>
      </trkpt>
      <trkpt lat="44.00638" lon="3.50529">
        <ele>1005.6</ele>
        <time>2026-05-28T14:15:00.999Z</time>
      </trkpt>
      <trkpt lat="44.00638" lon="3.50529">
        <ele>1005.6</ele>
        <time>2026-05-28T14:15:01.999Z</time>
      </trkpt>
      <trkpt lat="44.00638" lon="3.50529">
        <ele>1005.8</ele>
        <time>2026-05-28T14:15:02.999Z</time>
      </trkpt>
      <trkpt lat="44.00638" lon="3.50529">
        <ele>1005.8</ele>
        <time>2026-05-28T14:15:03.999Z</time>
      </trkpt>
      <trkpt lat="44.00638" lon="3.50529">
        <ele>1005.8</ele>
        <time>2026-05-28T14:15:04.999Z</time>
      </trkpt>
      <trkpt lat="44.00638" lon="3.50529">
        <ele>1005.6</ele>
        <time>2026-05-28T14:15:05.999Z</time>
      </trkpt>
      <trkpt lat="44.00638" lon="3.50529">
        <ele>1005.7</ele>
        <time>2026-05-28T14:15:06.999Z</time>
      </trkpt>
      <trkpt lat="44.00638" lon="3.50529">
        <ele>1005.6</ele>
        <time>2026-05-28T14:15:07.999Z</time>
      </trkpt>
      <trkpt lat="44.00638" lon="3.50529">
        <ele>1005.7</ele>
        <time>2026-05-28T14:15:08.999Z</time>
      </trkpt>
      <trkpt lat="44.00638" lon="3.50529">
        <ele>1005.8</ele>
        <time>2026-05-28T14:15:09.999Z</time>
      </trkpt>
      <trkpt lat="44.00638" lon="3.50529">
        <ele>1005.8</ele>
        <time>2026-05-28T14:15:10.999Z</time>
      </trkpt>
      <trkpt lat="44.00638" lon="3.50529">
        <ele>1006</ele>
        <time>2026-05-28T14:15:11.999Z</time>
      </trkpt>
      <trkpt lat="44.00638" lon="3.50529">
        <ele>1006.3</ele>
        <time>2026-05-28T14:15:12.999Z</time>
      </trkpt>
      <trkpt lat="44.00638" lon="3.50529">
        <ele>1006.4</ele>
        <time>2026-05-28T14:15:13.999Z</time>
      </trkpt>
      <trkpt lat="44.00638" lon="3.50529">
        <ele>1006.5</ele>
        <time>2026-05-28T14:15:14.999Z</time>
      </trkpt>
      <trkpt lat="44.00638" lon="3.5053">
        <ele>1006.6</ele>
        <time>2026-05-28T14:15:15.999Z</time>
      </trkpt>
      <trkpt lat="44.00638" lon="3.5053">
        <ele>1006.6</ele>
        <time>2026-05-28T14:15:16.999Z</time>
      </trkpt>
      <trkpt lat="44.00638" lon="3.5053">
        <ele>1006.5</ele>
        <time>2026-05-28T14:15:17.999Z</time>
      </trkpt>
      <trkpt lat="44.00638" lon="3.5053">
        <ele>1006.7</ele>
        <time>2026-05-28T14:15:18.999Z</time>
      </trkpt>
      <trkpt lat="44.00638" lon="3.5053">
        <ele>1006.7</ele>
        <time>2026-05-28T14:15:19.999Z</time>
      </trkpt>
      <trkpt lat="44.00638" lon="3.5053">
        <ele>1006.7</ele>
        <time>2026-05-28T14:15:20.999Z</time>
      </trkpt>
      <trkpt lat="44.00638" lon="3.5053">
        <ele>1006.7</ele>
        <time>2026-05-28T14:15:21.999Z</time>
      </trkpt>
      <trkpt lat="44.00638" lon="3.5053">
        <ele>1006.6</ele>
        <time>2026-05-28T14:15:22.999Z</time>
      </trkpt>
      <trkpt lat="44.00638" lon="3.5053">
        <ele>1006.6</ele>
        <time>2026-05-28T14:15:23.999Z</time>
      </trkpt>
      <trkpt lat="44.00638" lon="3.5053">
        <ele>1006.7</ele>
        <time>2026-05-28T14:15:24.999Z</time>
      </trkpt>
      <trkpt lat="44.00638" lon="3.5053">
        <ele>1006.7</ele>
        <time>2026-05-28T14:15:25.999Z</time>
      </trkpt>
      <trkpt lat="44.00638" lon="3.5053">
        <ele>1006.6</ele>
        <time>2026-05-28T14:15:26.999Z</time>
      </trkpt>
      <trkpt lat="44.00638" lon="3.5053">
        <ele>1006.4</ele>
        <time>2026-05-28T14:15:27.999Z</time>
      </trkpt>
      <trkpt lat="44.00638" lon="3.5053">
        <ele>1006.1</ele>
        <time>2026-05-28T14:15:28.999Z</time>
      </trkpt>
      <trkpt lat="44.00638" lon="3.5053">
        <ele>1006</ele>
        <time>2026-05-28T14:15:29.999Z</time>
      </trkpt>
      <trkpt lat="44.00638" lon="3.5053">
        <ele>1005.8</ele>
        <time>2026-05-28T14:15:30.999Z</time>
      </trkpt>
      <trkpt lat="44.00638" lon="3.5053">
        <ele>1005.8</ele>
        <time>2026-05-28T14:15:31.999Z</time>
      </trkpt>
      <trkpt lat="44.00638" lon="3.5053">
        <ele>1005.5</ele>
        <time>2026-05-28T14:15:32.999Z</time>
      </trkpt>
      <trkpt lat="44.00638" lon="3.5053">
        <ele>1005.2</ele>
        <time>2026-05-28T14:15:33.999Z</time>
      </trkpt>
      <trkpt lat="44.00638" lon="3.5053">
        <ele>1004.9</ele>
        <time>2026-05-28T14:15:34.999Z</time>
      </trkpt>
      <trkpt lat="44.00638" lon="3.5053">
        <ele>1004.7</ele>
        <time>2026-05-28T14:15:35.999Z</time>
      </trkpt>
      <trkpt lat="44.00638" lon="3.5053">
        <ele>1004.7</ele>
        <time>2026-05-28T14:15:36.999Z</time>
      </trkpt>
      <trkpt lat="44.00638" lon="3.5053">
        <ele>1004.5</ele>
        <time>2026-05-28T14:15:37.999Z</time>
      </trkpt>
      <trkpt lat="44.00638" lon="3.5053">
        <ele>1004.3</ele>
        <time>2026-05-28T14:15:38.999Z</time>
      </trkpt>
      <trkpt lat="44.00638" lon="3.5053">
        <ele>1003.7</ele>
        <time>2026-05-28T14:15:39.999Z</time>
      </trkpt>
      <trkpt lat="44.00638" lon="3.5053">
        <ele>1003.3</ele>
        <time>2026-05-28T14:15:40.999Z</time>
      </trkpt>
      <trkpt lat="44.00638" lon="3.5053">
        <ele>1003</ele>
        <time>2026-05-28T14:15:41.999Z</time>
      </trkpt>
      <trkpt lat="44.00638" lon="3.5053">
        <ele>1003</ele>
        <time>2026-05-28T14:15:42.999Z</time>
      </trkpt>
      <trkpt lat="44.00638" lon="3.5053">
        <ele>1002.9</ele>
        <time>2026-05-28T14:15:43.999Z</time>
      </trkpt>
      <trkpt lat="44.00638" lon="3.5053">
        <ele>1003.1</ele>
        <time>2026-05-28T14:15:44.999Z</time>
      </trkpt>
      <trkpt lat="44.00638" lon="3.5053">
        <ele>1003.1</ele>
        <time>2026-05-28T14:15:45.999Z</time>
      </trkpt>
      <trkpt lat="44.00638" lon="3.5053">
        <ele>1003.2</ele>
        <time>2026-05-28T14:15:46.999Z</time>
      </trkpt>
      <trkpt lat="44.00638" lon="3.5053">
        <ele>1003.1</ele>
        <time>2026-05-28T14:15:47.999Z</time>
      </trkpt>
      <trkpt lat="44.00638" lon="3.5053">
        <ele>1002.9</ele>
        <time>2026-05-28T14:15:48.999Z</time>
      </trkpt>
      <trkpt lat="44.00638" lon="3.5053">
        <ele>1002.6</ele>
        <time>2026-05-28T14:15:49.999Z</time>
      </trkpt>
      <trkpt lat="44.00638" lon="3.5053">
        <ele>1002.3</ele>
        <time>2026-05-28T14:15:50.999Z</time>
      </trkpt>
      <trkpt lat="44.00638" lon="3.5053">
        <ele>1002.1</ele>
        <time>2026-05-28T14:15:51.999Z</time>
      </trkpt>
      <trkpt lat="44.00638" lon="3.5053">
        <ele>1002</ele>
        <time>2026-05-28T14:15:52.999Z</time>
      </trkpt>
      <trkpt lat="44.00638" lon="3.5053">
        <ele>1001.9</ele>
        <time>2026-05-28T14:15:53.999Z</time>
      </trkpt>
      <trkpt lat="44.00638" lon="3.5053">
        <ele>1001.9</ele>
        <time>2026-05-28T14:15:54.999Z</time>
      </trkpt>
      <trkpt lat="44.00638" lon="3.5053">
        <ele>1001.9</ele>
        <time>2026-05-28T14:15:55.999Z</time>
      </trkpt>
      <trkpt lat="44.00638" lon="3.5053">
        <ele>1002</ele>
        <time>2026-05-28T14:15:56.999Z</time>
      </trkpt>
      <trkpt lat="44.00638" lon="3.5053">
        <ele>1002</ele>
        <time>2026-05-28T14:15:57.999Z</time>
      </trkpt>
      <trkpt lat="44.00638" lon="3.5053">
        <ele>1002.1</ele>
        <time>2026-05-28T14:15:58.999Z</time>
      </trkpt>
      <trkpt lat="44.00638" lon="3.5053">
        <ele>1002.3</ele>
        <time>2026-05-28T14:15:59.999Z</time>
      </trkpt>
      <trkpt lat="44.00638" lon="3.5053">
        <ele>1002.4</ele>
        <time>2026-05-28T14:16:00.999Z</time>
      </trkpt>
      <trkpt lat="44.00638" lon="3.5053">
        <ele>1002.4</ele>
        <time>2026-05-28T14:16:01.999Z</time>
      </trkpt>
      <trkpt lat="44.00638" lon="3.5053">
        <ele>1002.5</ele>
        <time>2026-05-28T14:16:02.999Z</time>
      </trkpt>
      <trkpt lat="44.00638" lon="3.5053">
        <ele>1002.5</ele>
        <time>2026-05-28T14:16:03.999Z</time>
      </trkpt>
      <trkpt lat="44.00638" lon="3.5053">
        <ele>1002.6</ele>
        <time>2026-05-28T14:16:04.999Z</time>
      </trkpt>
      <trkpt lat="44.00637" lon="3.5053">
        <ele>1002.7</ele>
        <time>2026-05-28T14:16:05.999Z</time>
      </trkpt>
      <trkpt lat="44.00637" lon="3.5053">
        <ele>1003.1</ele>
        <time>2026-05-28T14:16:06.999Z</time>
      </trkpt>
      <trkpt lat="44.00637" lon="3.5053">
        <ele>1003.2</ele>
        <time>2026-05-28T14:16:07.999Z</time>
      </trkpt>
      <trkpt lat="44.00637" lon="3.5053">
        <ele>1003.2</ele>
        <time>2026-05-28T14:16:08.999Z</time>
      </trkpt>
      <trkpt lat="44.00637" lon="3.5053">
        <ele>1003.3</ele>
        <time>2026-05-28T14:16:09.999Z</time>
      </trkpt>
      <trkpt lat="44.00637" lon="3.5053">
        <ele>1003.6</ele>
        <time>2026-05-28T14:16:10.999Z</time>
      </trkpt>
      <trkpt lat="44.00637" lon="3.5053">
        <ele>1003.7</ele>
        <time>2026-05-28T14:16:11.999Z</time>
      </trkpt>
      <trkpt lat="44.00637" lon="3.5053">
        <ele>1003.6</ele>
        <time>2026-05-28T14:16:12.999Z</time>
      </trkpt>
      <trkpt lat="44.00637" lon="3.5053">
        <ele>1003.9</ele>
        <time>2026-05-28T14:16:13.999Z</time>
      </trkpt>
      <trkpt lat="44.00637" lon="3.5053">
        <ele>1004</ele>
        <time>2026-05-28T14:16:14.999Z</time>
      </trkpt>
      <trkpt lat="44.00638" lon="3.5053">
        <ele>1004.3</ele>
        <time>2026-05-28T14:16:15.999Z</time>
      </trkpt>
      <trkpt lat="44.00638" lon="3.5053">
        <ele>1004.6</ele>
        <time>2026-05-28T14:16:16.999Z</time>
      </trkpt>
      <trkpt lat="44.00638" lon="3.5053">
        <ele>1004.8</ele>
        <time>2026-05-28T14:16:17.999Z</time>
      </trkpt>
      <trkpt lat="44.00637" lon="3.5053">
        <ele>1004.7</ele>
        <time>2026-05-28T14:16:18.999Z</time>
      </trkpt>
      <trkpt lat="44.00637" lon="3.5053">
        <ele>1004.6</ele>
        <time>2026-05-28T14:16:19.999Z</time>
      </trkpt>
      <trkpt lat="44.00637" lon="3.5053">
        <ele>1004.7</ele>
        <time>2026-05-28T14:16:20.999Z</time>
      </trkpt>
      <trkpt lat="44.00637" lon="3.50529">
        <ele>1004.9</ele>
        <time>2026-05-28T14:16:21.999Z</time>
      </trkpt>
      <trkpt lat="44.00637" lon="3.50529">
        <ele>1005.1</ele>
        <time>2026-05-28T14:16:22.999Z</time>
      </trkpt>
      <trkpt lat="44.00637" lon="3.50529">
        <ele>1005.3</ele>
        <time>2026-05-28T14:16:23.999Z</time>
      </trkpt>
      <trkpt lat="44.00637" lon="3.50529">
        <ele>1005.6</ele>
        <time>2026-05-28T14:16:24.999Z</time>
      </trkpt>
      <trkpt lat="44.00637" lon="3.50529">
        <ele>1005.8</ele>
        <time>2026-05-28T14:16:25.999Z</time>
      </trkpt>
      <trkpt lat="44.00637" lon="3.50529">
        <ele>1006</ele>
        <time>2026-05-28T14:16:26.999Z</time>
      </trkpt>
      <trkpt lat="44.00637" lon="3.50529">
        <ele>1006.3</ele>
        <time>2026-05-28T14:16:27.999Z</time>
      </trkpt>
      <trkpt lat="44.00637" lon="3.50529">
        <ele>1006.3</ele>
        <time>2026-05-28T14:16:28.999Z</time>
      </trkpt>
      <trkpt lat="44.00637" lon="3.50529">
        <ele>1006.5</ele>
        <time>2026-05-28T14:16:29.999Z</time>
      </trkpt>
      <trkpt lat="44.00637" lon="3.50529">
        <ele>1006.7</ele>
        <time>2026-05-28T14:16:30.999Z</time>
      </trkpt>
      <trkpt lat="44.00637" lon="3.50529">
        <ele>1006.9</ele>
        <time>2026-05-28T14:16:31.999Z</time>
      </trkpt>
      <trkpt lat="44.00637" lon="3.50529">
        <ele>1007.1</ele>
        <time>2026-05-28T14:16:32.999Z</time>
      </trkpt>
      <trkpt lat="44.00637" lon="3.50529">
        <ele>1007.1</ele>
        <time>2026-05-28T14:16:33.999Z</time>
      </trkpt>
      <trkpt lat="44.00637" lon="3.50529">
        <ele>1007.1</ele>
        <time>2026-05-28T14:16:34.999Z</time>
      </trkpt>
      <trkpt lat="44.00637" lon="3.50529">
        <ele>1007</ele>
        <time>2026-05-28T14:16:35.999Z</time>
      </trkpt>
      <trkpt lat="44.00637" lon="3.50529">
        <ele>1007.1</ele>
        <time>2026-05-28T14:16:36.999Z</time>
      </trkpt>
      <trkpt lat="44.00637" lon="3.50529">
        <ele>1007.2</ele>
        <time>2026-05-28T14:16:37.999Z</time>
      </trkpt>
      <trkpt lat="44.00637" lon="3.50529">
        <ele>1007.3</ele>
        <time>2026-05-28T14:16:38.999Z</time>
      </trkpt>
      <trkpt lat="44.00637" lon="3.50529">
        <ele>1007.4</ele>
        <time>2026-05-28T14:16:39.999Z</time>
      </trkpt>
      <trkpt lat="44.00637" lon="3.50529">
        <ele>1007.2</ele>
        <time>2026-05-28T14:16:40.999Z</time>
      </trkpt>
      <trkpt lat="44.00637" lon="3.50529">
        <ele>1006.9</ele>
        <time>2026-05-28T14:16:41.999Z</time>
      </trkpt>
      <trkpt lat="44.00637" lon="3.5053">
        <ele>1006.6</ele>
        <time>2026-05-28T14:16:42.999Z</time>
      </trkpt>
      <trkpt lat="44.00637" lon="3.5053">
        <ele>1006.5</ele>
        <time>2026-05-28T14:16:43.999Z</time>
      </trkpt>
      <trkpt lat="44.00637" lon="3.5053">
        <ele>1006.2</ele>
        <time>2026-05-28T14:16:44.999Z</time>
      </trkpt>
      <trkpt lat="44.00637" lon="3.5053">
        <ele>1006.2</ele>
        <time>2026-05-28T14:16:45.999Z</time>
      </trkpt>
      <trkpt lat="44.00638" lon="3.50529">
        <ele>1006.2</ele>
        <time>2026-05-28T14:16:46.999Z</time>
      </trkpt>
      <trkpt lat="44.00638" lon="3.50529">
        <ele>1006</ele>
        <time>2026-05-28T14:16:47.999Z</time>
      </trkpt>
      <trkpt lat="44.00638" lon="3.50529">
        <ele>1006.1</ele>
        <time>2026-05-28T14:16:48.999Z</time>
      </trkpt>
      <trkpt lat="44.00638" lon="3.50529">
        <ele>1006.1</ele>
        <time>2026-05-28T14:16:49.999Z</time>
      </trkpt>
      <trkpt lat="44.00638" lon="3.50529">
        <ele>1006.1</ele>
        <time>2026-05-28T14:16:50.999Z</time>
      </trkpt>
      <trkpt lat="44.00638" lon="3.50529">
        <ele>1006</ele>
        <time>2026-05-28T14:16:51.999Z</time>
      </trkpt>
      <trkpt lat="44.00638" lon="3.50529">
        <ele>1005.9</ele>
        <time>2026-05-28T14:16:52.999Z</time>
      </trkpt>
      <trkpt lat="44.00638" lon="3.50529">
        <ele>1005.9</ele>
        <time>2026-05-28T14:16:53.999Z</time>
      </trkpt>
      <trkpt lat="44.00638" lon="3.50529">
        <ele>1005.8</ele>
        <time>2026-05-28T14:16:54.999Z</time>
      </trkpt>
      <trkpt lat="44.00638" lon="3.50529">
        <ele>1005.9</ele>
        <time>2026-05-28T14:16:55.999Z</time>
      </trkpt>
      <trkpt lat="44.00638" lon="3.50529">
        <ele>1005.9</ele>
        <time>2026-05-28T14:16:56.999Z</time>
      </trkpt>
      <trkpt lat="44.00638" lon="3.50529">
        <ele>1005.9</ele>
        <time>2026-05-28T14:16:57.999Z</time>
      </trkpt>
      <trkpt lat="44.00638" lon="3.50529">
        <ele>1005.8</ele>
        <time>2026-05-28T14:16:58.999Z</time>
      </trkpt>
      <trkpt lat="44.00638" lon="3.50529">
        <ele>1005.6</ele>
        <time>2026-05-28T14:16:59.999Z</time>
      </trkpt>
      <trkpt lat="44.00638" lon="3.50529">
        <ele>1005.3</ele>
        <time>2026-05-28T14:17:00.999Z</time>
      </trkpt>
      <trkpt lat="44.00638" lon="3.50529">
        <ele>1005.3</ele>
        <time>2026-05-28T14:17:01.999Z</time>
      </trkpt>
      <trkpt lat="44.00638" lon="3.50529">
        <ele>1005</ele>
        <time>2026-05-28T14:17:02.999Z</time>
      </trkpt>
      <trkpt lat="44.00638" lon="3.50529">
        <ele>1004.7</ele>
        <time>2026-05-28T14:17:03.999Z</time>
      </trkpt>
      <trkpt lat="44.00638" lon="3.50529">
        <ele>1004.6</ele>
        <time>2026-05-28T14:17:04.999Z</time>
      </trkpt>
      <trkpt lat="44.00638" lon="3.50529">
        <ele>1004.6</ele>
        <time>2026-05-28T14:17:05.999Z</time>
      </trkpt>
      <trkpt lat="44.00638" lon="3.50529">
        <ele>1004.4</ele>
        <time>2026-05-28T14:17:06.999Z</time>
      </trkpt>
      <trkpt lat="44.00638" lon="3.50529">
        <ele>1004.5</ele>
        <time>2026-05-28T14:17:07.999Z</time>
      </trkpt>
      <trkpt lat="44.00638" lon="3.50529">
        <ele>1004.6</ele>
        <time>2026-05-28T14:17:08.999Z</time>
      </trkpt>
      <trkpt lat="44.00638" lon="3.50529">
        <ele>1004.4</ele>
        <time>2026-05-28T14:17:09.999Z</time>
      </trkpt>
      <trkpt lat="44.00638" lon="3.50529">
        <ele>1004.2</ele>
        <time>2026-05-28T14:17:10.999Z</time>
      </trkpt>
      <trkpt lat="44.00638" lon="3.50529">
        <ele>1003.9</ele>
        <time>2026-05-28T14:17:11.999Z</time>
      </trkpt>
      <trkpt lat="44.00638" lon="3.50529">
        <ele>1003.6</ele>
        <time>2026-05-28T14:17:12.999Z</time>
      </trkpt>
      <trkpt lat="44.00638" lon="3.50529">
        <ele>1003.4</ele>
        <time>2026-05-28T14:17:13.999Z</time>
      </trkpt>
      <trkpt lat="44.00638" lon="3.50529">
        <ele>1003.3</ele>
        <time>2026-05-28T14:17:14.999Z</time>
      </trkpt>
      <trkpt lat="44.00638" lon="3.50529">
        <ele>1003.3</ele>
        <time>2026-05-28T14:17:15.999Z</time>
      </trkpt>
      <trkpt lat="44.00638" lon="3.50529">
        <ele>1003.2</ele>
        <time>2026-05-28T14:17:16.999Z</time>
      </trkpt>
      <trkpt lat="44.00638" lon="3.50529">
        <ele>1003.1</ele>
        <time>2026-05-28T14:17:17.999Z</time>
      </trkpt>
      <trkpt lat="44.00638" lon="3.50529">
        <ele>1002.8</ele>
        <time>2026-05-28T14:17:18.999Z</time>
      </trkpt>
      <trkpt lat="44.00638" lon="3.50529">
        <ele>1002.7</ele>
        <time>2026-05-28T14:17:19.999Z</time>
      </trkpt>
      <trkpt lat="44.00638" lon="3.50529">
        <ele>1002.6</ele>
        <time>2026-05-28T14:17:20.999Z</time>
      </trkpt>
      <trkpt lat="44.00638" lon="3.50529">
        <ele>1002.6</ele>
        <time>2026-05-28T14:17:21.999Z</time>
      </trkpt>
      <trkpt lat="44.00638" lon="3.50529">
        <ele>1002.8</ele>
        <time>2026-05-28T14:17:22.999Z</time>
      </trkpt>
      <trkpt lat="44.00638" lon="3.50529">
        <ele>1003</ele>
        <time>2026-05-28T14:17:23.999Z</time>
      </trkpt>
      <trkpt lat="44.00638" lon="3.50529">
        <ele>1003.4</ele>
        <time>2026-05-28T14:17:24.999Z</time>
      </trkpt>
      <trkpt lat="44.00638" lon="3.50529">
        <ele>1003.5</ele>
        <time>2026-05-28T14:17:25.999Z</time>
      </trkpt>
      <trkpt lat="44.00638" lon="3.50529">
        <ele>1003.6</ele>
        <time>2026-05-28T14:17:26.999Z</time>
      </trkpt>
      <trkpt lat="44.00638" lon="3.50529">
        <ele>1003.5</ele>
        <time>2026-05-28T14:17:27.999Z</time>
      </trkpt>
      <trkpt lat="44.00638" lon="3.50529">
        <ele>1003.6</ele>
        <time>2026-05-28T14:17:28.999Z</time>
      </trkpt>
      <trkpt lat="44.00638" lon="3.50529">
        <ele>1003.7</ele>
        <time>2026-05-28T14:17:29.999Z</time>
      </trkpt>
      <trkpt lat="44.00638" lon="3.50529">
        <ele>1003.6</ele>
        <time>2026-05-28T14:17:30.999Z</time>
      </trkpt>
      <trkpt lat="44.00638" lon="3.50529">
        <ele>1003.4</ele>
        <time>2026-05-28T14:17:31.999Z</time>
      </trkpt>
      <trkpt lat="44.00638" lon="3.50529">
        <ele>1003.5</ele>
        <time>2026-05-28T14:17:32.999Z</time>
      </trkpt>
      <trkpt lat="44.00638" lon="3.50529">
        <ele>1003.5</ele>
        <time>2026-05-28T14:17:33.999Z</time>
      </trkpt>
      <trkpt lat="44.00638" lon="3.50529">
        <ele>1003.8</ele>
        <time>2026-05-28T14:17:34.999Z</time>
      </trkpt>
      <trkpt lat="44.00638" lon="3.50529">
        <ele>1003.9</ele>
        <time>2026-05-28T14:17:35.999Z</time>
      </trkpt>
      <trkpt lat="44.00638" lon="3.50529">
        <ele>1004</ele>
        <time>2026-05-28T14:17:36.999Z</time>
      </trkpt>
      <trkpt lat="44.00638" lon="3.50529">
        <ele>1003.9</ele>
        <time>2026-05-28T14:17:37.999Z</time>
      </trkpt>
      <trkpt lat="44.00638" lon="3.50529">
        <ele>1004</ele>
        <time>2026-05-28T14:17:38.999Z</time>
      </trkpt>
      <trkpt lat="44.00638" lon="3.50529">
        <ele>1004.1</ele>
        <time>2026-05-28T14:17:39.999Z</time>
      </trkpt>
      <trkpt lat="44.00638" lon="3.50529">
        <ele>1004.3</ele>
        <time>2026-05-28T14:17:40.999Z</time>
      </trkpt>
      <trkpt lat="44.00638" lon="3.50529">
        <ele>1004.3</ele>
        <time>2026-05-28T14:17:41.999Z</time>
      </trkpt>
      <trkpt lat="44.00638" lon="3.50529">
        <ele>1004.2</ele>
        <time>2026-05-28T14:17:42.999Z</time>
      </trkpt>
      <trkpt lat="44.00638" lon="3.50529">
        <ele>1004.4</ele>
        <time>2026-05-28T14:17:43.999Z</time>
      </trkpt>
      <trkpt lat="44.00638" lon="3.50529">
        <ele>1004.3</ele>
        <time>2026-05-28T14:17:44.999Z</time>
      </trkpt>
      <trkpt lat="44.00638" lon="3.50529">
        <ele>1004.4</ele>
        <time>2026-05-28T14:17:45.999Z</time>
      </trkpt>
      <trkpt lat="44.00638" lon="3.50529">
        <ele>1004.6</ele>
        <time>2026-05-28T14:17:46.999Z</time>
      </trkpt>
      <trkpt lat="44.00638" lon="3.50529">
        <ele>1004.5</ele>
        <time>2026-05-28T14:17:47.999Z</time>
      </trkpt>
      <trkpt lat="44.00638" lon="3.50529">
        <ele>1004.4</ele>
        <time>2026-05-28T14:17:48.999Z</time>
      </trkpt>
      <trkpt lat="44.00638" lon="3.50529">
        <ele>1004.3</ele>
        <time>2026-05-28T14:17:49.999Z</time>
      </trkpt>
      <trkpt lat="44.00638" lon="3.50529">
        <ele>1004.1</ele>
        <time>2026-05-28T14:17:50.999Z</time>
      </trkpt>
      <trkpt lat="44.00638" lon="3.50529">
        <ele>1003.9</ele>
        <time>2026-05-28T14:17:51.999Z</time>
      </trkpt>
      <trkpt lat="44.00638" lon="3.50529">
        <ele>1003.9</ele>
        <time>2026-05-28T14:17:52.999Z</time>
      </trkpt>
      <trkpt lat="44.00638" lon="3.50529">
        <ele>1004.1</ele>
        <time>2026-05-28T14:17:53.999Z</time>
      </trkpt>
      <trkpt lat="44.00639" lon="3.50529">
        <ele>1004.3</ele>
        <time>2026-05-28T14:17:54.999Z</time>
      </trkpt>
      <trkpt lat="44.00638" lon="3.50529">
        <ele>1004.6</ele>
        <time>2026-05-28T14:17:55.999Z</time>
      </trkpt>
      <trkpt lat="44.00638" lon="3.50529">
        <ele>1004.6</ele>
        <time>2026-05-28T14:17:56.999Z</time>
      </trkpt>
      <trkpt lat="44.00638" lon="3.50529">
        <ele>1004.8</ele>
        <time>2026-05-28T14:17:57.999Z</time>
      </trkpt>
      <trkpt lat="44.00638" lon="3.50529">
        <ele>1004.8</ele>
        <time>2026-05-28T14:17:58.999Z</time>
      </trkpt>
      <trkpt lat="44.00638" lon="3.50529">
        <ele>1004.9</ele>
        <time>2026-05-28T14:17:59.999Z</time>
      </trkpt>
      <trkpt lat="44.00638" lon="3.50529">
        <ele>1005</ele>
        <time>2026-05-28T14:18:00.999Z</time>
      </trkpt>
      <trkpt lat="44.00638" lon="3.50529">
        <ele>1005.1</ele>
        <time>2026-05-28T14:18:01.999Z</time>
      </trkpt>
      <trkpt lat="44.00638" lon="3.50529">
        <ele>1005</ele>
        <time>2026-05-28T14:18:02.999Z</time>
      </trkpt>
      <trkpt lat="44.00639" lon="3.50529">
        <ele>1004.8</ele>
        <time>2026-05-28T14:18:03.999Z</time>
      </trkpt>
      <trkpt lat="44.00639" lon="3.50529">
        <ele>1004.7</ele>
        <time>2026-05-28T14:18:04.999Z</time>
      </trkpt>
      <trkpt lat="44.00638" lon="3.50529">
        <ele>1004.6</ele>
        <time>2026-05-28T14:18:05.999Z</time>
      </trkpt>
      <trkpt lat="44.00638" lon="3.50529">
        <ele>1004.6</ele>
        <time>2026-05-28T14:18:06.999Z</time>
      </trkpt>
      <trkpt lat="44.00638" lon="3.50529">
        <ele>1004.7</ele>
        <time>2026-05-28T14:18:07.999Z</time>
      </trkpt>
      <trkpt lat="44.00638" lon="3.50529">
        <ele>1004.8</ele>
        <time>2026-05-28T14:18:08.999Z</time>
      </trkpt>
      <trkpt lat="44.00639" lon="3.50529">
        <ele>1004.6</ele>
        <time>2026-05-28T14:18:09.999Z</time>
      </trkpt>
      <trkpt lat="44.00639" lon="3.50529">
        <ele>1004.2</ele>
        <time>2026-05-28T14:18:10.999Z</time>
      </trkpt>
      <trkpt lat="44.00639" lon="3.50529">
        <ele>1004.2</ele>
        <time>2026-05-28T14:18:11.999Z</time>
      </trkpt>
      <trkpt lat="44.00639" lon="3.50529">
        <ele>1004.1</ele>
        <time>2026-05-28T14:18:12.999Z</time>
      </trkpt>
      <trkpt lat="44.00639" lon="3.50529">
        <ele>1004.4</ele>
        <time>2026-05-28T14:18:13.999Z</time>
      </trkpt>
      <trkpt lat="44.00639" lon="3.50529">
        <ele>1004.6</ele>
        <time>2026-05-28T14:18:14.999Z</time>
      </trkpt>
      <trkpt lat="44.00638" lon="3.50529">
        <ele>1005.1</ele>
        <time>2026-05-28T14:18:15.999Z</time>
      </trkpt>
      <trkpt lat="44.00638" lon="3.50529">
        <ele>1005.3</ele>
        <time>2026-05-28T14:18:16.999Z</time>
      </trkpt>
      <trkpt lat="44.00638" lon="3.50529">
        <ele>1005.3</ele>
        <time>2026-05-28T14:18:17.999Z</time>
      </trkpt>
      <trkpt lat="44.00638" lon="3.50529">
        <ele>1005.4</ele>
        <time>2026-05-28T14:18:18.999Z</time>
      </trkpt>
      <trkpt lat="44.00638" lon="3.50529">
        <ele>1005.5</ele>
        <time>2026-05-28T14:18:19.999Z</time>
      </trkpt>
      <trkpt lat="44.00638" lon="3.50529">
        <ele>1005.5</ele>
        <time>2026-05-28T14:18:20.999Z</time>
      </trkpt>
      <trkpt lat="44.00638" lon="3.50529">
        <ele>1005.5</ele>
        <time>2026-05-28T14:18:21.999Z</time>
      </trkpt>
      <trkpt lat="44.00638" lon="3.50529">
        <ele>1005.5</ele>
        <time>2026-05-28T14:18:22.999Z</time>
      </trkpt>
      <trkpt lat="44.00638" lon="3.50529">
        <ele>1005.4</ele>
        <time>2026-05-28T14:18:23.999Z</time>
      </trkpt>
      <trkpt lat="44.00638" lon="3.50529">
        <ele>1004.9</ele>
        <time>2026-05-28T14:18:24.999Z</time>
      </trkpt>
      <trkpt lat="44.00638" lon="3.50529">
        <ele>1004.9</ele>
        <time>2026-05-28T14:18:25.999Z</time>
      </trkpt>
      <trkpt lat="44.00638" lon="3.50529">
        <ele>1004.7</ele>
        <time>2026-05-28T14:18:26.999Z</time>
      </trkpt>
      <trkpt lat="44.00638" lon="3.50529">
        <ele>1004.9</ele>
        <time>2026-05-28T14:18:27.999Z</time>
      </trkpt>
      <trkpt lat="44.00638" lon="3.50529">
        <ele>1005.1</ele>
        <time>2026-05-28T14:18:28.999Z</time>
      </trkpt>
      <trkpt lat="44.00638" lon="3.50529">
        <ele>1005</ele>
        <time>2026-05-28T14:18:29.999Z</time>
      </trkpt>
      <trkpt lat="44.00638" lon="3.50529">
        <ele>1005</ele>
        <time>2026-05-28T14:18:30.999Z</time>
      </trkpt>
      <trkpt lat="44.00638" lon="3.50529">
        <ele>1004.7</ele>
        <time>2026-05-28T14:18:31.999Z</time>
      </trkpt>
      <trkpt lat="44.00638" lon="3.50529">
        <ele>1004.5</ele>
        <time>2026-05-28T14:18:32.999Z</time>
      </trkpt>
      <trkpt lat="44.00638" lon="3.50529">
        <ele>1004.3</ele>
        <time>2026-05-28T14:18:33.999Z</time>
      </trkpt>
      <trkpt lat="44.00638" lon="3.50529">
        <ele>1004</ele>
        <time>2026-05-28T14:18:34.999Z</time>
      </trkpt>
      <trkpt lat="44.00638" lon="3.50529">
        <ele>1004</ele>
        <time>2026-05-28T14:18:35.999Z</time>
      </trkpt>
      <trkpt lat="44.00638" lon="3.50529">
        <ele>1004</ele>
        <time>2026-05-28T14:18:36.999Z</time>
      </trkpt>
      <trkpt lat="44.00638" lon="3.50529">
        <ele>1004</ele>
        <time>2026-05-28T14:18:37.999Z</time>
      </trkpt>
      <trkpt lat="44.00638" lon="3.50529">
        <ele>1004.1</ele>
        <time>2026-05-28T14:18:38.999Z</time>
      </trkpt>
      <trkpt lat="44.00638" lon="3.50529">
        <ele>1004.2</ele>
        <time>2026-05-28T14:18:39.999Z</time>
      </trkpt>
      <trkpt lat="44.00638" lon="3.50529">
        <ele>1004.3</ele>
        <time>2026-05-28T14:18:40.999Z</time>
      </trkpt>
      <trkpt lat="44.00638" lon="3.50529">
        <ele>1004.3</ele>
        <time>2026-05-28T14:18:41.999Z</time>
      </trkpt>
      <trkpt lat="44.00638" lon="3.50529">
        <ele>1004.2</ele>
        <time>2026-05-28T14:18:42.999Z</time>
      </trkpt>
      <trkpt lat="44.00638" lon="3.50529">
        <ele>1004.1</ele>
        <time>2026-05-28T14:18:43.999Z</time>
      </trkpt>
      <trkpt lat="44.00638" lon="3.50529">
        <ele>1003.8</ele>
        <time>2026-05-28T14:18:44.999Z</time>
      </trkpt>
      <trkpt lat="44.00638" lon="3.50529">
        <ele>1003.7</ele>
        <time>2026-05-28T14:18:45.999Z</time>
      </trkpt>
      <trkpt lat="44.00638" lon="3.50529">
        <ele>1004.1</ele>
        <time>2026-05-28T14:18:46.999Z</time>
      </trkpt>
      <trkpt lat="44.00638" lon="3.50529">
        <ele>1004.2</ele>
        <time>2026-05-28T14:18:47.999Z</time>
      </trkpt>
      <trkpt lat="44.00638" lon="3.50529">
        <ele>1004.3</ele>
        <time>2026-05-28T14:18:48.999Z</time>
      </trkpt>
      <trkpt lat="44.00638" lon="3.50529">
        <ele>1004.2</ele>
        <time>2026-05-28T14:18:49.999Z</time>
      </trkpt>
      <trkpt lat="44.00638" lon="3.50529">
        <ele>1004.4</ele>
        <time>2026-05-28T14:18:50.999Z</time>
      </trkpt>
      <trkpt lat="44.00638" lon="3.50529">
        <ele>1004.4</ele>
        <time>2026-05-28T14:18:51.999Z</time>
      </trkpt>
      <trkpt lat="44.00638" lon="3.50529">
        <ele>1004.4</ele>
        <time>2026-05-28T14:18:52.999Z</time>
      </trkpt>
      <trkpt lat="44.00638" lon="3.50529">
        <ele>1004.2</ele>
        <time>2026-05-28T14:18:53.999Z</time>
      </trkpt>
      <trkpt lat="44.00638" lon="3.50528">
        <ele>1004</ele>
        <time>2026-05-28T14:18:54.999Z</time>
      </trkpt>
      <trkpt lat="44.00638" lon="3.50529">
        <ele>1003.9</ele>
        <time>2026-05-28T14:18:55.999Z</time>
      </trkpt>
      <trkpt lat="44.00638" lon="3.50529">
        <ele>1004.1</ele>
        <time>2026-05-28T14:18:56.999Z</time>
      </trkpt>
      <trkpt lat="44.00638" lon="3.50529">
        <ele>1004.1</ele>
        <time>2026-05-28T14:18:57.999Z</time>
      </trkpt>
      <trkpt lat="44.00638" lon="3.50529">
        <ele>1004.3</ele>
        <time>2026-05-28T14:18:58.999Z</time>
      </trkpt>
      <trkpt lat="44.00638" lon="3.50529">
        <ele>1004.1</ele>
        <time>2026-05-28T14:18:59.999Z</time>
      </trkpt>
      <trkpt lat="44.00637" lon="3.50529">
        <ele>1004.4</ele>
        <time>2026-05-28T14:19:00.999Z</time>
      </trkpt>
      <trkpt lat="44.00637" lon="3.50529">
        <ele>1004.6</ele>
        <time>2026-05-28T14:19:01.999Z</time>
      </trkpt>
      <trkpt lat="44.00637" lon="3.50529">
        <ele>1004.8</ele>
        <time>2026-05-28T14:19:02.999Z</time>
      </trkpt>
      <trkpt lat="44.00637" lon="3.50529">
        <ele>1005</ele>
        <time>2026-05-28T14:19:03.999Z</time>
      </trkpt>
      <trkpt lat="44.00637" lon="3.50529">
        <ele>1005.6</ele>
        <time>2026-05-28T14:19:04.999Z</time>
      </trkpt>
      <trkpt lat="44.00637" lon="3.50529">
        <ele>1006</ele>
        <time>2026-05-28T14:19:05.999Z</time>
      </trkpt>
      <trkpt lat="44.00637" lon="3.50529">
        <ele>1006.5</ele>
        <time>2026-05-28T14:19:06.999Z</time>
      </trkpt>
      <trkpt lat="44.00637" lon="3.50528">
        <ele>1006.7</ele>
        <time>2026-05-28T14:19:07.999Z</time>
      </trkpt>
      <trkpt lat="44.00637" lon="3.50528">
        <ele>1007</ele>
        <time>2026-05-28T14:19:08.999Z</time>
      </trkpt>
      <trkpt lat="44.00637" lon="3.50528">
        <ele>1006.9</ele>
        <time>2026-05-28T14:19:09.999Z</time>
      </trkpt>
      <trkpt lat="44.00637" lon="3.50528">
        <ele>1007.1</ele>
        <time>2026-05-28T14:19:10.999Z</time>
      </trkpt>
      <trkpt lat="44.00637" lon="3.50528">
        <ele>1007.1</ele>
        <time>2026-05-28T14:19:11.999Z</time>
      </trkpt>
      <trkpt lat="44.00637" lon="3.50528">
        <ele>1007</ele>
        <time>2026-05-28T14:19:12.999Z</time>
      </trkpt>
      <trkpt lat="44.00637" lon="3.50528">
        <ele>1007.1</ele>
        <time>2026-05-28T14:19:13.999Z</time>
      </trkpt>
      <trkpt lat="44.00637" lon="3.50528">
        <ele>1007.3</ele>
        <time>2026-05-28T14:19:14.999Z</time>
      </trkpt>
      <trkpt lat="44.00637" lon="3.50528">
        <ele>1007.7</ele>
        <time>2026-05-28T14:19:15.999Z</time>
      </trkpt>
      <trkpt lat="44.00637" lon="3.50528">
        <ele>1007.8</ele>
        <time>2026-05-28T14:19:16.999Z</time>
      </trkpt>
      <trkpt lat="44.00637" lon="3.50528">
        <ele>1007.7</ele>
        <time>2026-05-28T14:19:17.999Z</time>
      </trkpt>
      <trkpt lat="44.00637" lon="3.50528">
        <ele>1007.6</ele>
        <time>2026-05-28T14:19:18.999Z</time>
      </trkpt>
      <trkpt lat="44.00637" lon="3.50528">
        <ele>1007.4</ele>
        <time>2026-05-28T14:19:19.999Z</time>
      </trkpt>
      <trkpt lat="44.00637" lon="3.50528">
        <ele>1007.3</ele>
        <time>2026-05-28T14:19:20.999Z</time>
      </trkpt>
      <trkpt lat="44.00637" lon="3.50528">
        <ele>1007.5</ele>
        <time>2026-05-28T14:19:21.999Z</time>
      </trkpt>
      <trkpt lat="44.00637" lon="3.50528">
        <ele>1007.6</ele>
        <time>2026-05-28T14:19:22.999Z</time>
      </trkpt>
      <trkpt lat="44.00637" lon="3.50528">
        <ele>1007.8</ele>
        <time>2026-05-28T14:19:23.999Z</time>
      </trkpt>
      <trkpt lat="44.00637" lon="3.50528">
        <ele>1008.2</ele>
        <time>2026-05-28T14:19:24.999Z</time>
      </trkpt>
      <trkpt lat="44.00637" lon="3.50528">
        <ele>1008.3</ele>
        <time>2026-05-28T14:19:25.999Z</time>
      </trkpt>
      <trkpt lat="44.00637" lon="3.50528">
        <ele>1008.2</ele>
        <time>2026-05-28T14:19:26.999Z</time>
      </trkpt>
      <trkpt lat="44.00637" lon="3.50528">
        <ele>1007.9</ele>
        <time>2026-05-28T14:19:27.999Z</time>
      </trkpt>
      <trkpt lat="44.00637" lon="3.50528">
        <ele>1007.7</ele>
        <time>2026-05-28T14:19:28.999Z</time>
      </trkpt>
      <trkpt lat="44.00637" lon="3.50528">
        <ele>1008</ele>
        <time>2026-05-28T14:19:29.999Z</time>
      </trkpt>
      <trkpt lat="44.00637" lon="3.50528">
        <ele>1007.7</ele>
        <time>2026-05-28T14:19:30.999Z</time>
      </trkpt>
      <trkpt lat="44.00637" lon="3.50528">
        <ele>1007.6</ele>
        <time>2026-05-28T14:19:31.999Z</time>
      </trkpt>
      <trkpt lat="44.00637" lon="3.50528">
        <ele>1007.6</ele>
        <time>2026-05-28T14:19:32.999Z</time>
      </trkpt>
      <trkpt lat="44.00637" lon="3.50528">
        <ele>1007.7</ele>
        <time>2026-05-28T14:19:33.999Z</time>
      </trkpt>
      <trkpt lat="44.00637" lon="3.50528">
        <ele>1007.6</ele>
        <time>2026-05-28T14:19:34.999Z</time>
      </trkpt>
      <trkpt lat="44.00637" lon="3.50528">
        <ele>1007.5</ele>
        <time>2026-05-28T14:19:35.999Z</time>
      </trkpt>
      <trkpt lat="44.00637" lon="3.50528">
        <ele>1007.3</ele>
        <time>2026-05-28T14:19:36.999Z</time>
      </trkpt>
      <trkpt lat="44.00637" lon="3.50528">
        <ele>1007.1</ele>
        <time>2026-05-28T14:19:37.999Z</time>
      </trkpt>
      <trkpt lat="44.00637" lon="3.50528">
        <ele>1006.7</ele>
        <time>2026-05-28T14:19:38.999Z</time>
      </trkpt>
      <trkpt lat="44.00637" lon="3.50528">
        <ele>1006.7</ele>
        <time>2026-05-28T14:19:39.999Z</time>
      </trkpt>
      <trkpt lat="44.00637" lon="3.50528">
        <ele>1006.4</ele>
        <time>2026-05-28T14:19:40.999Z</time>
      </trkpt>
      <trkpt lat="44.00637" lon="3.50528">
        <ele>1006.5</ele>
        <time>2026-05-28T14:19:41.999Z</time>
      </trkpt>
      <trkpt lat="44.00637" lon="3.50528">
        <ele>1006.8</ele>
        <time>2026-05-28T14:19:42.999Z</time>
      </trkpt>
      <trkpt lat="44.00637" lon="3.50528">
        <ele>1006.9</ele>
        <time>2026-05-28T14:19:43.999Z</time>
      </trkpt>
      <trkpt lat="44.00637" lon="3.50528">
        <ele>1006.8</ele>
        <time>2026-05-28T14:19:44.999Z</time>
      </trkpt>
      <trkpt lat="44.00637" lon="3.50528">
        <ele>1006.7</ele>
        <time>2026-05-28T14:19:45.999Z</time>
      </trkpt>
      <trkpt lat="44.00637" lon="3.50528">
        <ele>1006.8</ele>
        <time>2026-05-28T14:19:46.999Z</time>
      </trkpt>
      <trkpt lat="44.00637" lon="3.50528">
        <ele>1006.8</ele>
        <time>2026-05-28T14:19:47.999Z</time>
      </trkpt>
      <trkpt lat="44.00637" lon="3.50527">
        <ele>1006.6</ele>
        <time>2026-05-28T14:19:48.999Z</time>
      </trkpt>
      <trkpt lat="44.00637" lon="3.50527">
        <ele>1006.7</ele>
        <time>2026-05-28T14:19:49.999Z</time>
      </trkpt>
      <trkpt lat="44.00637" lon="3.50527">
        <ele>1006.7</ele>
        <time>2026-05-28T14:19:50.999Z</time>
      </trkpt>
      <trkpt lat="44.00637" lon="3.50527">
        <ele>1006.6</ele>
        <time>2026-05-28T14:19:51.999Z</time>
      </trkpt>
      <trkpt lat="44.00637" lon="3.50527">
        <ele>1006.6</ele>
        <time>2026-05-28T14:19:52.999Z</time>
      </trkpt>
      <trkpt lat="44.00637" lon="3.50527">
        <ele>1006.8</ele>
        <time>2026-05-28T14:19:53.999Z</time>
      </trkpt>
      <trkpt lat="44.00637" lon="3.50527">
        <ele>1007</ele>
        <time>2026-05-28T14:19:54.999Z</time>
      </trkpt>
      <trkpt lat="44.00637" lon="3.50527">
        <ele>1006.9</ele>
        <time>2026-05-28T14:19:55.999Z</time>
      </trkpt>
      <trkpt lat="44.00637" lon="3.50527">
        <ele>1006.8</ele>
        <time>2026-05-28T14:19:56.999Z</time>
      </trkpt>
      <trkpt lat="44.00638" lon="3.50527">
        <ele>1006.8</ele>
        <time>2026-05-28T14:19:57.999Z</time>
      </trkpt>
      <trkpt lat="44.00638" lon="3.50527">
        <ele>1006.6</ele>
        <time>2026-05-28T14:19:58.999Z</time>
      </trkpt>
      <trkpt lat="44.00637" lon="3.50527">
        <ele>1006.2</ele>
        <time>2026-05-28T14:19:59.999Z</time>
      </trkpt>
      <trkpt lat="44.00637" lon="3.50527">
        <ele>1006</ele>
        <time>2026-05-28T14:20:00.999Z</time>
      </trkpt>
      <trkpt lat="44.00637" lon="3.50527">
        <ele>1005.8</ele>
        <time>2026-05-28T14:20:01.999Z</time>
      </trkpt>
      <trkpt lat="44.00637" lon="3.50528">
        <ele>1005.6</ele>
        <time>2026-05-28T14:20:02.999Z</time>
      </trkpt>
      <trkpt lat="44.00637" lon="3.50528">
        <ele>1005.6</ele>
        <time>2026-05-28T14:20:03.999Z</time>
      </trkpt>
      <trkpt lat="44.00637" lon="3.50528">
        <ele>1006</ele>
        <time>2026-05-28T14:20:04.999Z</time>
      </trkpt>
      <trkpt lat="44.00636" lon="3.5053">
        <ele>1006.2</ele>
        <time>2026-05-28T14:20:05.999Z</time>
      </trkpt>
      <trkpt lat="44.00634" lon="3.50531">
        <ele>1006.3</ele>
        <time>2026-05-28T14:20:06.999Z</time>
      </trkpt>
      <trkpt lat="44.00633" lon="3.50531">
        <ele>1006.6</ele>
        <time>2026-05-28T14:20:07.999Z</time>
      </trkpt>
      <trkpt lat="44.00632" lon="3.50532">
        <ele>1006.7</ele>
        <time>2026-05-28T14:20:08.999Z</time>
      </trkpt>
      <trkpt lat="44.00631" lon="3.50533">
        <ele>1007</ele>
        <time>2026-05-28T14:20:09.999Z</time>
      </trkpt>
      <trkpt lat="44.00631" lon="3.50534">
        <ele>1007.4</ele>
        <time>2026-05-28T14:20:10.999Z</time>
      </trkpt>
      <trkpt lat="44.0063" lon="3.50535">
        <ele>1007.3</ele>
        <time>2026-05-28T14:20:11.999Z</time>
      </trkpt>
      <trkpt lat="44.00629" lon="3.50536">
        <ele>1007.4</ele>
        <time>2026-05-28T14:20:12.999Z</time>
      </trkpt>
      <trkpt lat="44.00629" lon="3.50538">
        <ele>1007.4</ele>
        <time>2026-05-28T14:20:13.999Z</time>
      </trkpt>
      <trkpt lat="44.00628" lon="3.5054">
        <ele>1007</ele>
        <time>2026-05-28T14:20:14.999Z</time>
      </trkpt>
      <trkpt lat="44.00627" lon="3.50542">
        <ele>1006.7</ele>
        <time>2026-05-28T14:20:15.999Z</time>
      </trkpt>
      <trkpt lat="44.00627" lon="3.50543">
        <ele>1006.9</ele>
        <time>2026-05-28T14:20:16.999Z</time>
      </trkpt>
      <trkpt lat="44.00626" lon="3.50544">
        <ele>1006.6</ele>
        <time>2026-05-28T14:20:17.999Z</time>
      </trkpt>
      <trkpt lat="44.00627" lon="3.50545">
        <ele>1006.9</ele>
        <time>2026-05-28T14:20:18.999Z</time>
      </trkpt>
      <trkpt lat="44.00626" lon="3.50546">
        <ele>1006.9</ele>
        <time>2026-05-28T14:20:19.999Z</time>
      </trkpt>
      <trkpt lat="44.00626" lon="3.50548">
        <ele>1006.8</ele>
        <time>2026-05-28T14:20:20.999Z</time>
      </trkpt>
      <trkpt lat="44.00626" lon="3.50549">
        <ele>1006.8</ele>
        <time>2026-05-28T14:20:21.999Z</time>
      </trkpt>
      <trkpt lat="44.00625" lon="3.5055">
        <ele>1006.8</ele>
        <time>2026-05-28T14:20:22.999Z</time>
      </trkpt>
      <trkpt lat="44.00625" lon="3.50551">
        <ele>1006.6</ele>
        <time>2026-05-28T14:20:23.999Z</time>
      </trkpt>
      <trkpt lat="44.00624" lon="3.50551">
        <ele>1006.3</ele>
        <time>2026-05-28T14:20:24.999Z</time>
      </trkpt>
      <trkpt lat="44.00623" lon="3.50552">
        <ele>1006.3</ele>
        <time>2026-05-28T14:20:25.999Z</time>
      </trkpt>
      <trkpt lat="44.00623" lon="3.50554">
        <ele>1006.4</ele>
        <time>2026-05-28T14:20:26.999Z</time>
      </trkpt>
      <trkpt lat="44.00622" lon="3.50554">
        <ele>1006.4</ele>
        <time>2026-05-28T14:20:27.999Z</time>
      </trkpt>
      <trkpt lat="44.00622" lon="3.50556">
        <ele>1006.3</ele>
        <time>2026-05-28T14:20:28.999Z</time>
      </trkpt>
      <trkpt lat="44.00622" lon="3.50557">
        <ele>1006.3</ele>
        <time>2026-05-28T14:20:29.999Z</time>
      </trkpt>
      <trkpt lat="44.00621" lon="3.50558">
        <ele>1006.2</ele>
        <time>2026-05-28T14:20:30.999Z</time>
      </trkpt>
      <trkpt lat="44.00621" lon="3.5056">
        <ele>1006.2</ele>
        <time>2026-05-28T14:20:31.999Z</time>
      </trkpt>
      <trkpt lat="44.00621" lon="3.5056">
        <ele>1006.5</ele>
        <time>2026-05-28T14:20:32.999Z</time>
      </trkpt>
      <trkpt lat="44.00621" lon="3.50561">
        <ele>1006.9</ele>
        <time>2026-05-28T14:20:33.999Z</time>
      </trkpt>
      <trkpt lat="44.0062" lon="3.50562">
        <ele>1007.1</ele>
        <time>2026-05-28T14:20:34.999Z</time>
      </trkpt>
      <trkpt lat="44.0062" lon="3.50563">
        <ele>1007.2</ele>
        <time>2026-05-28T14:20:35.999Z</time>
      </trkpt>
      <trkpt lat="44.0062" lon="3.50564">
        <ele>1007.3</ele>
        <time>2026-05-28T14:20:36.999Z</time>
      </trkpt>
      <trkpt lat="44.00619" lon="3.50565">
        <ele>1007.4</ele>
        <time>2026-05-28T14:20:37.999Z</time>
      </trkpt>
      <trkpt lat="44.00619" lon="3.50566">
        <ele>1007.4</ele>
        <time>2026-05-28T14:20:38.999Z</time>
      </trkpt>
      <trkpt lat="44.00618" lon="3.50566">
        <ele>1007.8</ele>
        <time>2026-05-28T14:20:39.999Z</time>
      </trkpt>
      <trkpt lat="44.00617" lon="3.50567">
        <ele>1008.1</ele>
        <time>2026-05-28T14:20:40.999Z</time>
      </trkpt>
      <trkpt lat="44.00617" lon="3.50567">
        <ele>1008.6</ele>
        <time>2026-05-28T14:20:41.999Z</time>
      </trkpt>
      <trkpt lat="44.00617" lon="3.50567">
        <ele>1008.7</ele>
        <time>2026-05-28T14:20:42.999Z</time>
      </trkpt>
      <trkpt lat="44.00617" lon="3.50568">
        <ele>1008.5</ele>
        <time>2026-05-28T14:20:43.999Z</time>
      </trkpt>
      <trkpt lat="44.00617" lon="3.50568">
        <ele>1008.7</ele>
        <time>2026-05-28T14:20:44.999Z</time>
      </trkpt>
      <trkpt lat="44.00617" lon="3.50568">
        <ele>1008.6</ele>
        <time>2026-05-28T14:20:45.999Z</time>
      </trkpt>
      <trkpt lat="44.00617" lon="3.50568">
        <ele>1008.4</ele>
        <time>2026-05-28T14:20:46.999Z</time>
      </trkpt>
      <trkpt lat="44.00617" lon="3.50568">
        <ele>1008.3</ele>
        <time>2026-05-28T14:20:47.999Z</time>
      </trkpt>
      <trkpt lat="44.00616" lon="3.50568">
        <ele>1008</ele>
        <time>2026-05-28T14:20:48.999Z</time>
      </trkpt>
      <trkpt lat="44.00615" lon="3.50568">
        <ele>1008.1</ele>
        <time>2026-05-28T14:20:49.999Z</time>
      </trkpt>
      <trkpt lat="44.00614" lon="3.50569">
        <ele>1008.1</ele>
        <time>2026-05-28T14:20:50.999Z</time>
      </trkpt>
      <trkpt lat="44.00613" lon="3.5057">
        <ele>1008.2</ele>
        <time>2026-05-28T14:20:51.999Z</time>
      </trkpt>
      <trkpt lat="44.00611" lon="3.50571">
        <ele>1008.2</ele>
        <time>2026-05-28T14:20:52.999Z</time>
      </trkpt>
      <trkpt lat="44.0061" lon="3.50572">
        <ele>1008.1</ele>
        <time>2026-05-28T14:20:53.999Z</time>
      </trkpt>
      <trkpt lat="44.00609" lon="3.50574">
        <ele>1008</ele>
        <time>2026-05-28T14:20:54.999Z</time>
      </trkpt>
      <trkpt lat="44.00608" lon="3.50575">
        <ele>1007.9</ele>
        <time>2026-05-28T14:20:55.999Z</time>
      </trkpt>
      <trkpt lat="44.00608" lon="3.50576">
        <ele>1007.6</ele>
        <time>2026-05-28T14:20:56.999Z</time>
      </trkpt>
      <trkpt lat="44.00608" lon="3.50577">
        <ele>1007.7</ele>
        <time>2026-05-28T14:20:57.999Z</time>
      </trkpt>
      <trkpt lat="44.00607" lon="3.50578">
        <ele>1007.8</ele>
        <time>2026-05-28T14:20:58.999Z</time>
      </trkpt>
      <trkpt lat="44.00606" lon="3.50579">
        <ele>1007.9</ele>
        <time>2026-05-28T14:20:59.999Z</time>
      </trkpt>
      <trkpt lat="44.00606" lon="3.5058">
        <ele>1008</ele>
        <time>2026-05-28T14:21:00.999Z</time>
      </trkpt>
      <trkpt lat="44.00605" lon="3.50581">
        <ele>1008</ele>
        <time>2026-05-28T14:21:01.999Z</time>
      </trkpt>
      <trkpt lat="44.00605" lon="3.50582">
        <ele>1008.1</ele>
        <time>2026-05-28T14:21:02.999Z</time>
      </trkpt>
      <trkpt lat="44.00604" lon="3.50583">
        <ele>1008</ele>
        <time>2026-05-28T14:21:03.999Z</time>
      </trkpt>
      <trkpt lat="44.00603" lon="3.50584">
        <ele>1008.1</ele>
        <time>2026-05-28T14:21:04.999Z</time>
      </trkpt>
      <trkpt lat="44.00603" lon="3.50584">
        <ele>1008.1</ele>
        <time>2026-05-28T14:21:05.999Z</time>
      </trkpt>
      <trkpt lat="44.00602" lon="3.50584">
        <ele>1008.2</ele>
        <time>2026-05-28T14:21:06.999Z</time>
      </trkpt>
      <trkpt lat="44.00601" lon="3.50585">
        <ele>1008.1</ele>
        <time>2026-05-28T14:21:07.999Z</time>
      </trkpt>
      <trkpt lat="44.006" lon="3.50586">
        <ele>1008.4</ele>
        <time>2026-05-28T14:21:08.999Z</time>
      </trkpt>
      <trkpt lat="44.006" lon="3.50587">
        <ele>1008.9</ele>
        <time>2026-05-28T14:21:09.999Z</time>
      </trkpt>
      <trkpt lat="44.006" lon="3.50588">
        <ele>1009.2</ele>
        <time>2026-05-28T14:21:10.999Z</time>
      </trkpt>
      <trkpt lat="44.00599" lon="3.50588">
        <ele>1009.3</ele>
        <time>2026-05-28T14:21:11.999Z</time>
      </trkpt>
      <trkpt lat="44.00599" lon="3.50589">
        <ele>1009.5</ele>
        <time>2026-05-28T14:21:12.999Z</time>
      </trkpt>
      <trkpt lat="44.00598" lon="3.5059">
        <ele>1009.9</ele>
        <time>2026-05-28T14:21:13.999Z</time>
      </trkpt>
      <trkpt lat="44.00598" lon="3.50591">
        <ele>1009.8</ele>
        <time>2026-05-28T14:21:14.999Z</time>
      </trkpt>
      <trkpt lat="44.00598" lon="3.50592">
        <ele>1009.6</ele>
        <time>2026-05-28T14:21:15.999Z</time>
      </trkpt>
      <trkpt lat="44.00597" lon="3.50594">
        <ele>1009.8</ele>
        <time>2026-05-28T14:21:16.999Z</time>
      </trkpt>
      <trkpt lat="44.00597" lon="3.50595">
        <ele>1010</ele>
        <time>2026-05-28T14:21:17.999Z</time>
      </trkpt>
      <trkpt lat="44.00596" lon="3.50596">
        <ele>1010.1</ele>
        <time>2026-05-28T14:21:18.999Z</time>
      </trkpt>
      <trkpt lat="44.00596" lon="3.50596">
        <ele>1010.3</ele>
        <time>2026-05-28T14:21:19.999Z</time>
      </trkpt>
      <trkpt lat="44.00595" lon="3.50597">
        <ele>1010.4</ele>
        <time>2026-05-28T14:21:20.999Z</time>
      </trkpt>
      <trkpt lat="44.00595" lon="3.50598">
        <ele>1010.5</ele>
        <time>2026-05-28T14:21:21.999Z</time>
      </trkpt>
      <trkpt lat="44.00595" lon="3.50599">
        <ele>1010.5</ele>
        <time>2026-05-28T14:21:22.999Z</time>
      </trkpt>
      <trkpt lat="44.00594" lon="3.50599">
        <ele>1010.9</ele>
        <time>2026-05-28T14:21:23.999Z</time>
      </trkpt>
      <trkpt lat="44.00593" lon="3.506">
        <ele>1010.6</ele>
        <time>2026-05-28T14:21:24.999Z</time>
      </trkpt>
      <trkpt lat="44.00593" lon="3.50601">
        <ele>1010.6</ele>
        <time>2026-05-28T14:21:25.999Z</time>
      </trkpt>
      <trkpt lat="44.00592" lon="3.50603">
        <ele>1010.1</ele>
        <time>2026-05-28T14:21:26.999Z</time>
      </trkpt>
      <trkpt lat="44.00591" lon="3.50604">
        <ele>1009.7</ele>
        <time>2026-05-28T14:21:27.999Z</time>
      </trkpt>
      <trkpt lat="44.0059" lon="3.50604">
        <ele>1010</ele>
        <time>2026-05-28T14:21:28.999Z</time>
      </trkpt>
      <trkpt lat="44.00589" lon="3.50605">
        <ele>1010.2</ele>
        <time>2026-05-28T14:21:29.999Z</time>
      </trkpt>
      <trkpt lat="44.00589" lon="3.50606">
        <ele>1010.4</ele>
        <time>2026-05-28T14:21:30.999Z</time>
      </trkpt>
      <trkpt lat="44.00588" lon="3.50606">
        <ele>1010.3</ele>
        <time>2026-05-28T14:21:31.999Z</time>
      </trkpt>
      <trkpt lat="44.00587" lon="3.50607">
        <ele>1010.2</ele>
        <time>2026-05-28T14:21:32.999Z</time>
      </trkpt>
      <trkpt lat="44.00587" lon="3.50608">
        <ele>1009.8</ele>
        <time>2026-05-28T14:21:33.999Z</time>
      </trkpt>
      <trkpt lat="44.00587" lon="3.50609">
        <ele>1009.6</ele>
        <time>2026-05-28T14:21:34.999Z</time>
      </trkpt>
      <trkpt lat="44.00587" lon="3.5061">
        <ele>1009.4</ele>
        <time>2026-05-28T14:21:35.999Z</time>
      </trkpt>
      <trkpt lat="44.00586" lon="3.50611">
        <ele>1009.3</ele>
        <time>2026-05-28T14:21:36.999Z</time>
      </trkpt>
      <trkpt lat="44.00585" lon="3.50611">
        <ele>1008.6</ele>
        <time>2026-05-28T14:21:37.999Z</time>
      </trkpt>
      <trkpt lat="44.00584" lon="3.50612">
        <ele>1008.3</ele>
        <time>2026-05-28T14:21:38.999Z</time>
      </trkpt>
      <trkpt lat="44.00583" lon="3.50612">
        <ele>1008.2</ele>
        <time>2026-05-28T14:21:39.999Z</time>
      </trkpt>
      <trkpt lat="44.00581" lon="3.50613">
        <ele>1007.9</ele>
        <time>2026-05-28T14:21:40.999Z</time>
      </trkpt>
      <trkpt lat="44.0058" lon="3.50613">
        <ele>1007.6</ele>
        <time>2026-05-28T14:21:41.999Z</time>
      </trkpt>
      <trkpt lat="44.00578" lon="3.50614">
        <ele>1008</ele>
        <time>2026-05-28T14:21:43.999Z</time>
      </trkpt>
      <trkpt lat="44.00577" lon="3.50614">
        <ele>1008.6</ele>
        <time>2026-05-28T14:21:44.999Z</time>
      </trkpt>
      <trkpt lat="44.00576" lon="3.50613">
        <ele>1008.2</ele>
        <time>2026-05-28T14:21:45.999Z</time>
      </trkpt>
      <trkpt lat="44.00575" lon="3.50614">
        <ele>1007.5</ele>
        <time>2026-05-28T14:21:46.999Z</time>
      </trkpt>
      <trkpt lat="44.00574" lon="3.50614">
        <ele>1006.6</ele>
        <time>2026-05-28T14:21:47.999Z</time>
      </trkpt>
      <trkpt lat="44.00573" lon="3.50614">
        <ele>1006.4</ele>
        <time>2026-05-28T14:21:48.999Z</time>
      </trkpt>
      <trkpt lat="44.00573" lon="3.50613">
        <ele>1006.4</ele>
        <time>2026-05-28T14:21:49.999Z</time>
      </trkpt>
      <trkpt lat="44.00573" lon="3.50612">
        <ele>1006.6</ele>
        <time>2026-05-28T14:21:50.999Z</time>
      </trkpt>
      <trkpt lat="44.00573" lon="3.50611">
        <ele>1006.7</ele>
        <time>2026-05-28T14:21:51.999Z</time>
      </trkpt>
      <trkpt lat="44.00573" lon="3.5061">
        <ele>1006</ele>
        <time>2026-05-28T14:21:52.999Z</time>
      </trkpt>
      <trkpt lat="44.00573" lon="3.5061">
        <ele>1005.9</ele>
        <time>2026-05-28T14:21:53.999Z</time>
      </trkpt>
      <trkpt lat="44.00573" lon="3.5061">
        <ele>1005.2</ele>
        <time>2026-05-28T14:21:54.999Z</time>
      </trkpt>
      <trkpt lat="44.00572" lon="3.5061">
        <ele>1004.3</ele>
        <time>2026-05-28T14:21:55.999Z</time>
      </trkpt>
      <trkpt lat="44.00572" lon="3.50611">
        <ele>1003.4</ele>
        <time>2026-05-28T14:21:56.999Z</time>
      </trkpt>
      <trkpt lat="44.00571" lon="3.50611">
        <ele>1003</ele>
        <time>2026-05-28T14:21:57.999Z</time>
      </trkpt>
      <trkpt lat="44.0057" lon="3.50611">
        <ele>1003</ele>
        <time>2026-05-28T14:21:58.999Z</time>
      </trkpt>
      <trkpt lat="44.00569" lon="3.5061">
        <ele>1002.9</ele>
        <time>2026-05-28T14:21:59.999Z</time>
      </trkpt>
      <trkpt lat="44.00568" lon="3.50609">
        <ele>1002.5</ele>
        <time>2026-05-28T14:22:00.999Z</time>
      </trkpt>
      <trkpt lat="44.00567" lon="3.50609">
        <ele>1001.9</ele>
        <time>2026-05-28T14:22:01.999Z</time>
      </trkpt>
      <trkpt lat="44.00567" lon="3.5061">
        <ele>1001.8</ele>
        <time>2026-05-28T14:22:02.999Z</time>
      </trkpt>
      <trkpt lat="44.00566" lon="3.5061">
        <ele>1001.7</ele>
        <time>2026-05-28T14:22:03.999Z</time>
      </trkpt>
      <trkpt lat="44.00566" lon="3.50611">
        <ele>1001.2</ele>
        <time>2026-05-28T14:22:04.999Z</time>
      </trkpt>
      <trkpt lat="44.00566" lon="3.50612">
        <ele>1002</ele>
        <time>2026-05-28T14:22:05.999Z</time>
      </trkpt>
      <trkpt lat="44.00566" lon="3.50612">
        <ele>1002.1</ele>
        <time>2026-05-28T14:22:06.999Z</time>
      </trkpt>
      <trkpt lat="44.00566" lon="3.50612">
        <ele>1002.2</ele>
        <time>2026-05-28T14:22:07.999Z</time>
      </trkpt>
      <trkpt lat="44.00566" lon="3.50612">
        <ele>1002</ele>
        <time>2026-05-28T14:22:08.999Z</time>
      </trkpt>
      <trkpt lat="44.00564" lon="3.50614">
        <ele>1001.4</ele>
        <time>2026-05-28T14:22:09.999Z</time>
      </trkpt>
      <trkpt lat="44.00563" lon="3.50614">
        <ele>1001.1</ele>
        <time>2026-05-28T14:22:10.999Z</time>
      </trkpt>
      <trkpt lat="44.00562" lon="3.50614">
        <ele>1001.2</ele>
        <time>2026-05-28T14:22:11.999Z</time>
      </trkpt>
      <trkpt lat="44.00562" lon="3.50615">
        <ele>1000.9</ele>
        <time>2026-05-28T14:22:12.999Z</time>
      </trkpt>
      <trkpt lat="44.00561" lon="3.50615">
        <ele>1000.5</ele>
        <time>2026-05-28T14:22:13.999Z</time>
      </trkpt>
      <trkpt lat="44.00561" lon="3.50616">
        <ele>1000.5</ele>
        <time>2026-05-28T14:22:14.999Z</time>
      </trkpt>
      <trkpt lat="44.0056" lon="3.50616">
        <ele>1000.4</ele>
        <time>2026-05-28T14:22:15.999Z</time>
      </trkpt>
      <trkpt lat="44.00559" lon="3.50615">
        <ele>1000</ele>
        <time>2026-05-28T14:22:16.999Z</time>
      </trkpt>
      <trkpt lat="44.00557" lon="3.50615">
        <ele>999.9</ele>
        <time>2026-05-28T14:22:17.999Z</time>
      </trkpt>
      <trkpt lat="44.00556" lon="3.50614">
        <ele>999.4</ele>
        <time>2026-05-28T14:22:18.999Z</time>
      </trkpt>
      <trkpt lat="44.00555" lon="3.50614">
        <ele>998.9</ele>
        <time>2026-05-28T14:22:19.999Z</time>
      </trkpt>
      <trkpt lat="44.00554" lon="3.50614">
        <ele>998.7</ele>
        <time>2026-05-28T14:22:20.999Z</time>
      </trkpt>
      <trkpt lat="44.00554" lon="3.50614">
        <ele>998.7</ele>
        <time>2026-05-28T14:22:21.999Z</time>
      </trkpt>
      <trkpt lat="44.00554" lon="3.50614">
        <ele>998.5</ele>
        <time>2026-05-28T14:22:22.999Z</time>
      </trkpt>
      <trkpt lat="44.00553" lon="3.50613">
        <ele>998.5</ele>
        <time>2026-05-28T14:22:23.999Z</time>
      </trkpt>
      <trkpt lat="44.00553" lon="3.50613">
        <ele>998.3</ele>
        <time>2026-05-28T14:22:24.999Z</time>
      </trkpt>
      <trkpt lat="44.00553" lon="3.50613">
        <ele>998.6</ele>
        <time>2026-05-28T14:22:25.999Z</time>
      </trkpt>
      <trkpt lat="44.00553" lon="3.50613">
        <ele>998.6</ele>
        <time>2026-05-28T14:22:26.999Z</time>
      </trkpt>
      <trkpt lat="44.00552" lon="3.50613">
        <ele>998.4</ele>
        <time>2026-05-28T14:22:27.999Z</time>
      </trkpt>
      <trkpt lat="44.0055" lon="3.50615">
        <ele>998</ele>
        <time>2026-05-28T14:22:28.999Z</time>
      </trkpt>
      <trkpt lat="44.00549" lon="3.50616">
        <ele>998</ele>
        <time>2026-05-28T14:22:29.999Z</time>
      </trkpt>
      <trkpt lat="44.00548" lon="3.50616">
        <ele>998</ele>
        <time>2026-05-28T14:22:30.999Z</time>
      </trkpt>
      <trkpt lat="44.00547" lon="3.50616">
        <ele>997.8</ele>
        <time>2026-05-28T14:22:31.999Z</time>
      </trkpt>
      <trkpt lat="44.00546" lon="3.50616">
        <ele>998.2</ele>
        <time>2026-05-28T14:22:32.999Z</time>
      </trkpt>
      <trkpt lat="44.00545" lon="3.50616">
        <ele>998.5</ele>
        <time>2026-05-28T14:22:33.999Z</time>
      </trkpt>
      <trkpt lat="44.00545" lon="3.50616">
        <ele>998.7</ele>
        <time>2026-05-28T14:22:34.999Z</time>
      </trkpt>
      <trkpt lat="44.00545" lon="3.50616">
        <ele>999.1</ele>
        <time>2026-05-28T14:22:35.999Z</time>
      </trkpt>
      <trkpt lat="44.00545" lon="3.50616">
        <ele>999.2</ele>
        <time>2026-05-28T14:22:36.999Z</time>
      </trkpt>
      <trkpt lat="44.00544" lon="3.50617">
        <ele>999.1</ele>
        <time>2026-05-28T14:22:37.999Z</time>
      </trkpt>
      <trkpt lat="44.00543" lon="3.50617">
        <ele>998.8</ele>
        <time>2026-05-28T14:22:38.999Z</time>
      </trkpt>
      <trkpt lat="44.00542" lon="3.50617">
        <ele>998.8</ele>
        <time>2026-05-28T14:22:39.999Z</time>
      </trkpt>
      <trkpt lat="44.00541" lon="3.50618">
        <ele>998.9</ele>
        <time>2026-05-28T14:22:40.999Z</time>
      </trkpt>
      <trkpt lat="44.00541" lon="3.50618">
        <ele>998.9</ele>
        <time>2026-05-28T14:22:41.999Z</time>
      </trkpt>
      <trkpt lat="44.00541" lon="3.50618">
        <ele>998.9</ele>
        <time>2026-05-28T14:22:42.999Z</time>
      </trkpt>
      <trkpt lat="44.00541" lon="3.50618">
        <ele>998.9</ele>
        <time>2026-05-28T14:22:43.999Z</time>
      </trkpt>
      <trkpt lat="44.00541" lon="3.50618">
        <ele>998.5</ele>
        <time>2026-05-28T14:22:44.999Z</time>
      </trkpt>
      <trkpt lat="44.0054" lon="3.50618">
        <ele>998.1</ele>
        <time>2026-05-28T14:22:45.999Z</time>
      </trkpt>
      <trkpt lat="44.0054" lon="3.50618">
        <ele>998</ele>
        <time>2026-05-28T14:22:46.999Z</time>
      </trkpt>
      <trkpt lat="44.00539" lon="3.50618">
        <ele>997.8</ele>
        <time>2026-05-28T14:22:47.999Z</time>
      </trkpt>
      <trkpt lat="44.00538" lon="3.50619">
        <ele>997.6</ele>
        <time>2026-05-28T14:22:48.999Z</time>
      </trkpt>
      <trkpt lat="44.00537" lon="3.50619">
        <ele>997.5</ele>
        <time>2026-05-28T14:22:49.999Z</time>
      </trkpt>
      <trkpt lat="44.00536" lon="3.50618">
        <ele>997.4</ele>
        <time>2026-05-28T14:22:50.999Z</time>
      </trkpt>
      <trkpt lat="44.00535" lon="3.50619">
        <ele>997.5</ele>
        <time>2026-05-28T14:22:51.999Z</time>
      </trkpt>
      <trkpt lat="44.00534" lon="3.50619">
        <ele>997.5</ele>
        <time>2026-05-28T14:22:52.999Z</time>
      </trkpt>
      <trkpt lat="44.00533" lon="3.5062">
        <ele>997.3</ele>
        <time>2026-05-28T14:22:53.999Z</time>
      </trkpt>
      <trkpt lat="44.00532" lon="3.50621">
        <ele>997.1</ele>
        <time>2026-05-28T14:22:54.999Z</time>
      </trkpt>
      <trkpt lat="44.00531" lon="3.50621">
        <ele>997</ele>
        <time>2026-05-28T14:22:55.999Z</time>
      </trkpt>
      <trkpt lat="44.0053" lon="3.50621">
        <ele>996.8</ele>
        <time>2026-05-28T14:22:56.999Z</time>
      </trkpt>
      <trkpt lat="44.00528" lon="3.50621">
        <ele>997</ele>
        <time>2026-05-28T14:22:57.999Z</time>
      </trkpt>
      <trkpt lat="44.00526" lon="3.50621">
        <ele>997.5</ele>
        <time>2026-05-28T14:22:58.999Z</time>
      </trkpt>
      <trkpt lat="44.00525" lon="3.50621">
        <ele>997.7</ele>
        <time>2026-05-28T14:22:59.999Z</time>
      </trkpt>
      <trkpt lat="44.00524" lon="3.5062">
        <ele>997.6</ele>
        <time>2026-05-28T14:23:00.999Z</time>
      </trkpt>
      <trkpt lat="44.00523" lon="3.5062">
        <ele>997.9</ele>
        <time>2026-05-28T14:23:01.999Z</time>
      </trkpt>
      <trkpt lat="44.00522" lon="3.50619">
        <ele>998</ele>
        <time>2026-05-28T14:23:02.999Z</time>
      </trkpt>
      <trkpt lat="44.00521" lon="3.50618">
        <ele>998.2</ele>
        <time>2026-05-28T14:23:03.999Z</time>
      </trkpt>
      <trkpt lat="44.0052" lon="3.50617">
        <ele>998.1</ele>
        <time>2026-05-28T14:23:04.999Z</time>
      </trkpt>
      <trkpt lat="44.00519" lon="3.50617">
        <ele>997.8</ele>
        <time>2026-05-28T14:23:05.999Z</time>
      </trkpt>
      <trkpt lat="44.00517" lon="3.50618">
        <ele>997.7</ele>
        <time>2026-05-28T14:23:06.999Z</time>
      </trkpt>
      <trkpt lat="44.00516" lon="3.50619">
        <ele>997.2</ele>
        <time>2026-05-28T14:23:07.999Z</time>
      </trkpt>
      <trkpt lat="44.00515" lon="3.50619">
        <ele>997.1</ele>
        <time>2026-05-28T14:23:08.999Z</time>
      </trkpt>
      <trkpt lat="44.00515" lon="3.50619">
        <ele>997</ele>
        <time>2026-05-28T14:23:09.999Z</time>
      </trkpt>
      <trkpt lat="44.00514" lon="3.5062">
        <ele>996.8</ele>
        <time>2026-05-28T14:23:10.999Z</time>
      </trkpt>
      <trkpt lat="44.00514" lon="3.5062">
        <ele>996.6</ele>
        <time>2026-05-28T14:23:11.999Z</time>
      </trkpt>
      <trkpt lat="44.00512" lon="3.50619">
        <ele>997</ele>
        <time>2026-05-28T14:23:12.999Z</time>
      </trkpt>
      <trkpt lat="44.00511" lon="3.50618">
        <ele>997</ele>
        <time>2026-05-28T14:23:13.999Z</time>
      </trkpt>
      <trkpt lat="44.00511" lon="3.50617">
        <ele>996.6</ele>
        <time>2026-05-28T14:23:14.999Z</time>
      </trkpt>
      <trkpt lat="44.00511" lon="3.50617">
        <ele>996</ele>
        <time>2026-05-28T14:23:15.999Z</time>
      </trkpt>
      <trkpt lat="44.0051" lon="3.50615">
        <ele>995.7</ele>
        <time>2026-05-28T14:23:16.999Z</time>
      </trkpt>
      <trkpt lat="44.00509" lon="3.50615">
        <ele>995.6</ele>
        <time>2026-05-28T14:23:17.999Z</time>
      </trkpt>
      <trkpt lat="44.00508" lon="3.50613">
        <ele>995.9</ele>
        <time>2026-05-28T14:23:18.999Z</time>
      </trkpt>
      <trkpt lat="44.00508" lon="3.50612">
        <ele>995.6</ele>
        <time>2026-05-28T14:23:19.999Z</time>
      </trkpt>
      <trkpt lat="44.00508" lon="3.50611">
        <ele>995.3</ele>
        <time>2026-05-28T14:23:20.999Z</time>
      </trkpt>
      <trkpt lat="44.00507" lon="3.50611">
        <ele>995.1</ele>
        <time>2026-05-28T14:23:21.999Z</time>
      </trkpt>
      <trkpt lat="44.00507" lon="3.5061">
        <ele>995.3</ele>
        <time>2026-05-28T14:23:22.999Z</time>
      </trkpt>
      <trkpt lat="44.00507" lon="3.5061">
        <ele>995</ele>
        <time>2026-05-28T14:23:23.999Z</time>
      </trkpt>
      <trkpt lat="44.00506" lon="3.5061">
        <ele>994.5</ele>
        <time>2026-05-28T14:23:24.999Z</time>
      </trkpt>
      <trkpt lat="44.00505" lon="3.50609">
        <ele>994.2</ele>
        <time>2026-05-28T14:23:25.999Z</time>
      </trkpt>
      <trkpt lat="44.00504" lon="3.50608">
        <ele>994</ele>
        <time>2026-05-28T14:23:26.999Z</time>
      </trkpt>
      <trkpt lat="44.00503" lon="3.50607">
        <ele>993.8</ele>
        <time>2026-05-28T14:23:27.999Z</time>
      </trkpt>
      <trkpt lat="44.00503" lon="3.50606">
        <ele>993.5</ele>
        <time>2026-05-28T14:23:28.999Z</time>
      </trkpt>
      <trkpt lat="44.00502" lon="3.50604">
        <ele>993.4</ele>
        <time>2026-05-28T14:23:29.999Z</time>
      </trkpt>
      <trkpt lat="44.00502" lon="3.50602">
        <ele>993.4</ele>
        <time>2026-05-28T14:23:30.999Z</time>
      </trkpt>
      <trkpt lat="44.00501" lon="3.50601">
        <ele>993.3</ele>
        <time>2026-05-28T14:23:31.999Z</time>
      </trkpt>
      <trkpt lat="44.00501" lon="3.506">
        <ele>993.3</ele>
        <time>2026-05-28T14:23:32.999Z</time>
      </trkpt>
      <trkpt lat="44.005" lon="3.506">
        <ele>993.2</ele>
        <time>2026-05-28T14:23:33.999Z</time>
      </trkpt>
      <trkpt lat="44.005" lon="3.50599">
        <ele>993.2</ele>
        <time>2026-05-28T14:23:34.999Z</time>
      </trkpt>
      <trkpt lat="44.00499" lon="3.50598">
        <ele>993.3</ele>
        <time>2026-05-28T14:23:35.999Z</time>
      </trkpt>
      <trkpt lat="44.00498" lon="3.50598">
        <ele>993.4</ele>
        <time>2026-05-28T14:23:36.999Z</time>
      </trkpt>
      <trkpt lat="44.00496" lon="3.50597">
        <ele>993.3</ele>
        <time>2026-05-28T14:23:37.999Z</time>
      </trkpt>
      <trkpt lat="44.00495" lon="3.50596">
        <ele>993.2</ele>
        <time>2026-05-28T14:23:38.999Z</time>
      </trkpt>
      <trkpt lat="44.00495" lon="3.50596">
        <ele>992.9</ele>
        <time>2026-05-28T14:23:39.999Z</time>
      </trkpt>
      <trkpt lat="44.00494" lon="3.50595">
        <ele>992.8</ele>
        <time>2026-05-28T14:23:40.999Z</time>
      </trkpt>
      <trkpt lat="44.00494" lon="3.50594">
        <ele>992.7</ele>
        <time>2026-05-28T14:23:41.999Z</time>
      </trkpt>
      <trkpt lat="44.00493" lon="3.50593">
        <ele>992.8</ele>
        <time>2026-05-28T14:23:42.999Z</time>
      </trkpt>
      <trkpt lat="44.00492" lon="3.50593">
        <ele>992.4</ele>
        <time>2026-05-28T14:23:43.999Z</time>
      </trkpt>
      <trkpt lat="44.00492" lon="3.50594">
        <ele>992.1</ele>
        <time>2026-05-28T14:23:44.999Z</time>
      </trkpt>
      <trkpt lat="44.00491" lon="3.50594">
        <ele>992</ele>
        <time>2026-05-28T14:23:45.999Z</time>
      </trkpt>
      <trkpt lat="44.0049" lon="3.50594">
        <ele>991.9</ele>
        <time>2026-05-28T14:23:46.999Z</time>
      </trkpt>
      <trkpt lat="44.0049" lon="3.50594">
        <ele>991.8</ele>
        <time>2026-05-28T14:23:47.999Z</time>
      </trkpt>
      <trkpt lat="44.00489" lon="3.50594">
        <ele>991.9</ele>
        <time>2026-05-28T14:23:48.999Z</time>
      </trkpt>
      <trkpt lat="44.00487" lon="3.50594">
        <ele>991.9</ele>
        <time>2026-05-28T14:23:49.999Z</time>
      </trkpt>
      <trkpt lat="44.00486" lon="3.50593">
        <ele>991.6</ele>
        <time>2026-05-28T14:23:50.999Z</time>
      </trkpt>
      <trkpt lat="44.00485" lon="3.50593">
        <ele>991.5</ele>
        <time>2026-05-28T14:23:51.999Z</time>
      </trkpt>
      <trkpt lat="44.00483" lon="3.50592">
        <ele>991.5</ele>
        <time>2026-05-28T14:23:52.999Z</time>
      </trkpt>
      <trkpt lat="44.00482" lon="3.50592">
        <ele>991.6</ele>
        <time>2026-05-28T14:23:53.999Z</time>
      </trkpt>
      <trkpt lat="44.00481" lon="3.50592">
        <ele>991.3</ele>
        <time>2026-05-28T14:23:55.000Z</time>
      </trkpt>
      <trkpt lat="44.00481" lon="3.50592">
        <ele>991.2</ele>
        <time>2026-05-28T14:23:56.000Z</time>
      </trkpt>
      <trkpt lat="44.00479" lon="3.50592">
        <ele>991.3</ele>
        <time>2026-05-28T14:23:57.000Z</time>
      </trkpt>
      <trkpt lat="44.00478" lon="3.50592">
        <ele>991.5</ele>
        <time>2026-05-28T14:23:58.000Z</time>
      </trkpt>
      <trkpt lat="44.00477" lon="3.50592">
        <ele>991.5</ele>
        <time>2026-05-28T14:23:59.000Z</time>
      </trkpt>
      <trkpt lat="44.00475" lon="3.50592">
        <ele>991.5</ele>
        <time>2026-05-28T14:24:00.000Z</time>
      </trkpt>
      <trkpt lat="44.00474" lon="3.50593">
        <ele>991.3</ele>
        <time>2026-05-28T14:24:01.000Z</time>
      </trkpt>
      <trkpt lat="44.00472" lon="3.50593">
        <ele>991.2</ele>
        <time>2026-05-28T14:24:02.000Z</time>
      </trkpt>
      <trkpt lat="44.00471" lon="3.50594">
        <ele>991.1</ele>
        <time>2026-05-28T14:24:03.000Z</time>
      </trkpt>
      <trkpt lat="44.0047" lon="3.50594">
        <ele>990.7</ele>
        <time>2026-05-28T14:24:04.000Z</time>
      </trkpt>
      <trkpt lat="44.0047" lon="3.50594">
        <ele>990.3</ele>
        <time>2026-05-28T14:24:05.000Z</time>
      </trkpt>
      <trkpt lat="44.00469" lon="3.50595">
        <ele>990.3</ele>
        <time>2026-05-28T14:24:06.000Z</time>
      </trkpt>
      <trkpt lat="44.00468" lon="3.50595">
        <ele>990.3</ele>
        <time>2026-05-28T14:24:07.000Z</time>
      </trkpt>
      <trkpt lat="44.00467" lon="3.50595">
        <ele>990</ele>
        <time>2026-05-28T14:24:08.000Z</time>
      </trkpt>
      <trkpt lat="44.00466" lon="3.50595">
        <ele>989.7</ele>
        <time>2026-05-28T14:24:09.000Z</time>
      </trkpt>
      <trkpt lat="44.00466" lon="3.50596">
        <ele>989.6</ele>
        <time>2026-05-28T14:24:10.000Z</time>
      </trkpt>
      <trkpt lat="44.00465" lon="3.50596">
        <ele>989.5</ele>
        <time>2026-05-28T14:24:11.000Z</time>
      </trkpt>
      <trkpt lat="44.00464" lon="3.50596">
        <ele>989</ele>
        <time>2026-05-28T14:24:12.000Z</time>
      </trkpt>
      <trkpt lat="44.00463" lon="3.50596">
        <ele>988.4</ele>
        <time>2026-05-28T14:24:13.000Z</time>
      </trkpt>
      <trkpt lat="44.00462" lon="3.50596">
        <ele>988</ele>
        <time>2026-05-28T14:24:14.000Z</time>
      </trkpt>
      <trkpt lat="44.00461" lon="3.50596">
        <ele>987.6</ele>
        <time>2026-05-28T14:24:15.000Z</time>
      </trkpt>
      <trkpt lat="44.00461" lon="3.50595">
        <ele>987.3</ele>
        <time>2026-05-28T14:24:16.000Z</time>
      </trkpt>
      <trkpt lat="44.0046" lon="3.50595">
        <ele>987.1</ele>
        <time>2026-05-28T14:24:17.000Z</time>
      </trkpt>
      <trkpt lat="44.00459" lon="3.50595">
        <ele>987</ele>
        <time>2026-05-28T14:24:18.000Z</time>
      </trkpt>
      <trkpt lat="44.00458" lon="3.50595">
        <ele>986.9</ele>
        <time>2026-05-28T14:24:19.000Z</time>
      </trkpt>
      <trkpt lat="44.00457" lon="3.50597">
        <ele>986.4</ele>
        <time>2026-05-28T14:24:20.000Z</time>
      </trkpt>
      <trkpt lat="44.00456" lon="3.50598">
        <ele>986.1</ele>
        <time>2026-05-28T14:24:21.000Z</time>
      </trkpt>
      <trkpt lat="44.00454" lon="3.50599">
        <ele>985.8</ele>
        <time>2026-05-28T14:24:22.000Z</time>
      </trkpt>
      <trkpt lat="44.00453" lon="3.50598">
        <ele>985.9</ele>
        <time>2026-05-28T14:24:23.000Z</time>
      </trkpt>
      <trkpt lat="44.00452" lon="3.50599">
        <ele>986.1</ele>
        <time>2026-05-28T14:24:24.000Z</time>
      </trkpt>
      <trkpt lat="44.00451" lon="3.50599">
        <ele>986.4</ele>
        <time>2026-05-28T14:24:25.000Z</time>
      </trkpt>
      <trkpt lat="44.00451" lon="3.50599">
        <ele>986.5</ele>
        <time>2026-05-28T14:24:26.000Z</time>
      </trkpt>
      <trkpt lat="44.00451" lon="3.506">
        <ele>986.7</ele>
        <time>2026-05-28T14:24:27.000Z</time>
      </trkpt>
      <trkpt lat="44.00451" lon="3.506">
        <ele>986.7</ele>
        <time>2026-05-28T14:24:28.000Z</time>
      </trkpt>
      <trkpt lat="44.00451" lon="3.50601">
        <ele>986.3</ele>
        <time>2026-05-28T14:24:29.000Z</time>
      </trkpt>
      <trkpt lat="44.00451" lon="3.50601">
        <ele>986.5</ele>
        <time>2026-05-28T14:24:30.000Z</time>
      </trkpt>
      <trkpt lat="44.0045" lon="3.50599">
        <ele>987</ele>
        <time>2026-05-28T14:24:31.000Z</time>
      </trkpt>
      <trkpt lat="44.0045" lon="3.50598">
        <ele>986.8</ele>
        <time>2026-05-28T14:24:32.000Z</time>
      </trkpt>
      <trkpt lat="44.0045" lon="3.50598">
        <ele>986.6</ele>
        <time>2026-05-28T14:24:33.000Z</time>
      </trkpt>
      <trkpt lat="44.0045" lon="3.50598">
        <ele>987</ele>
        <time>2026-05-28T14:24:34.000Z</time>
      </trkpt>
      <trkpt lat="44.0045" lon="3.50599">
        <ele>987</ele>
        <time>2026-05-28T14:24:35.000Z</time>
      </trkpt>
      <trkpt lat="44.0045" lon="3.50599">
        <ele>987.2</ele>
        <time>2026-05-28T14:24:36.000Z</time>
      </trkpt>
      <trkpt lat="44.00451" lon="3.50601">
        <ele>986.8</ele>
        <time>2026-05-28T14:24:37.000Z</time>
      </trkpt>
      <trkpt lat="44.00451" lon="3.50604">
        <ele>986.6</ele>
        <time>2026-05-28T14:24:38.000Z</time>
      </trkpt>
      <trkpt lat="44.00451" lon="3.50606">
        <ele>986.2</ele>
        <time>2026-05-28T14:24:39.000Z</time>
      </trkpt>
      <trkpt lat="44.00452" lon="3.50607">
        <ele>985.6</ele>
        <time>2026-05-28T14:24:40.000Z</time>
      </trkpt>
      <trkpt lat="44.00452" lon="3.50607">
        <ele>985.2</ele>
        <time>2026-05-28T14:24:41.000Z</time>
      </trkpt>
      <trkpt lat="44.00453" lon="3.50603">
        <ele>984.2</ele>
        <time>2026-05-28T14:24:42.000Z</time>
      </trkpt>
      <trkpt lat="44.00453" lon="3.50602">
        <ele>984.3</ele>
        <time>2026-05-28T14:24:43.000Z</time>
      </trkpt>
      <trkpt lat="44.00453" lon="3.50601">
        <ele>984</ele>
        <time>2026-05-28T14:24:44.000Z</time>
      </trkpt>
      <trkpt lat="44.00452" lon="3.506">
        <ele>983.7</ele>
        <time>2026-05-28T14:24:45.000Z</time>
      </trkpt>
      <trkpt lat="44.00451" lon="3.50599">
        <ele>983.5</ele>
        <time>2026-05-28T14:24:46.000Z</time>
      </trkpt>
      <trkpt lat="44.0045" lon="3.50599">
        <ele>983.4</ele>
        <time>2026-05-28T14:24:47.000Z</time>
      </trkpt>
      <trkpt lat="44.00448" lon="3.50598">
        <ele>982.9</ele>
        <time>2026-05-28T14:24:48.000Z</time>
      </trkpt>
      <trkpt lat="44.00448" lon="3.50598">
        <ele>982.9</ele>
        <time>2026-05-28T14:24:49.000Z</time>
      </trkpt>
      <trkpt lat="44.00447" lon="3.50598">
        <ele>983.2</ele>
        <time>2026-05-28T14:24:50.000Z</time>
      </trkpt>
      <trkpt lat="44.00446" lon="3.50599">
        <ele>983.4</ele>
        <time>2026-05-28T14:24:51.000Z</time>
      </trkpt>
      <trkpt lat="44.00445" lon="3.50599">
        <ele>984.2</ele>
        <time>2026-05-28T14:24:52.000Z</time>
      </trkpt>
      <trkpt lat="44.00444" lon="3.50599">
        <ele>984.6</ele>
        <time>2026-05-28T14:24:53.000Z</time>
      </trkpt>
      <trkpt lat="44.00443" lon="3.506">
        <ele>984.8</ele>
        <time>2026-05-28T14:24:54.000Z</time>
      </trkpt>
      <trkpt lat="44.00442" lon="3.50601">
        <ele>984.9</ele>
        <time>2026-05-28T14:24:55.000Z</time>
      </trkpt>
      <trkpt lat="44.00442" lon="3.50602">
        <ele>984.3</ele>
        <time>2026-05-28T14:24:56.000Z</time>
      </trkpt>
      <trkpt lat="44.00443" lon="3.50603">
        <ele>984.1</ele>
        <time>2026-05-28T14:24:57.000Z</time>
      </trkpt>
      <trkpt lat="44.00442" lon="3.50604">
        <ele>984.4</ele>
        <time>2026-05-28T14:24:58.000Z</time>
      </trkpt>
      <trkpt lat="44.00443" lon="3.50604">
        <ele>984.7</ele>
        <time>2026-05-28T14:24:59.000Z</time>
      </trkpt>
      <trkpt lat="44.00443" lon="3.50604">
        <ele>984.9</ele>
        <time>2026-05-28T14:25:00.000Z</time>
      </trkpt>
      <trkpt lat="44.00443" lon="3.50604">
        <ele>984.7</ele>
        <time>2026-05-28T14:25:01.000Z</time>
      </trkpt>
      <trkpt lat="44.00443" lon="3.50604">
        <ele>984.9</ele>
        <time>2026-05-28T14:25:02.000Z</time>
      </trkpt>
      <trkpt lat="44.00443" lon="3.50604">
        <ele>985</ele>
        <time>2026-05-28T14:25:03.000Z</time>
      </trkpt>
      <trkpt lat="44.00443" lon="3.50604">
        <ele>985.3</ele>
        <time>2026-05-28T14:25:04.000Z</time>
      </trkpt>
      <trkpt lat="44.00443" lon="3.50604">
        <ele>985.2</ele>
        <time>2026-05-28T14:25:05.000Z</time>
      </trkpt>
      <trkpt lat="44.00443" lon="3.50604">
        <ele>985.3</ele>
        <time>2026-05-28T14:25:06.000Z</time>
      </trkpt>
      <trkpt lat="44.00443" lon="3.50604">
        <ele>985.2</ele>
        <time>2026-05-28T14:25:07.000Z</time>
      </trkpt>
      <trkpt lat="44.00443" lon="3.50604">
        <ele>985.4</ele>
        <time>2026-05-28T14:25:08.000Z</time>
      </trkpt>
      <trkpt lat="44.00443" lon="3.50604">
        <ele>985.4</ele>
        <time>2026-05-28T14:25:09.000Z</time>
      </trkpt>
      <trkpt lat="44.00443" lon="3.50604">
        <ele>985.5</ele>
        <time>2026-05-28T14:25:10.000Z</time>
      </trkpt>
      <trkpt lat="44.00443" lon="3.50604">
        <ele>985.4</ele>
        <time>2026-05-28T14:25:11.000Z</time>
      </trkpt>
      <trkpt lat="44.00443" lon="3.50604">
        <ele>985.4</ele>
        <time>2026-05-28T14:25:12.000Z</time>
      </trkpt>
      <trkpt lat="44.00443" lon="3.50604">
        <ele>985.5</ele>
        <time>2026-05-28T14:25:13.000Z</time>
      </trkpt>
      <trkpt lat="44.00443" lon="3.50604">
        <ele>985.6</ele>
        <time>2026-05-28T14:25:14.000Z</time>
      </trkpt>
      <trkpt lat="44.00443" lon="3.50604">
        <ele>985.7</ele>
        <time>2026-05-28T14:25:15.000Z</time>
      </trkpt>
      <trkpt lat="44.00443" lon="3.50604">
        <ele>985.5</ele>
        <time>2026-05-28T14:25:16.000Z</time>
      </trkpt>
      <trkpt lat="44.00443" lon="3.50604">
        <ele>985.5</ele>
        <time>2026-05-28T14:25:17.000Z</time>
      </trkpt>
      <trkpt lat="44.00443" lon="3.50604">
        <ele>985.1</ele>
        <time>2026-05-28T14:25:18.000Z</time>
      </trkpt>
      <trkpt lat="44.00443" lon="3.50604">
        <ele>985</ele>
        <time>2026-05-28T14:25:19.000Z</time>
      </trkpt>
      <trkpt lat="44.00443" lon="3.50604">
        <ele>984.8</ele>
        <time>2026-05-28T14:25:20.000Z</time>
      </trkpt>
      <trkpt lat="44.00443" lon="3.50604">
        <ele>984.5</ele>
        <time>2026-05-28T14:25:21.000Z</time>
      </trkpt>
      <trkpt lat="44.00443" lon="3.50604">
        <ele>984.4</ele>
        <time>2026-05-28T14:25:22.000Z</time>
      </trkpt>
      <trkpt lat="44.00443" lon="3.50604">
        <ele>984.4</ele>
        <time>2026-05-28T14:25:23.000Z</time>
      </trkpt>
      <trkpt lat="44.00443" lon="3.50604">
        <ele>984.2</ele>
        <time>2026-05-28T14:25:24.000Z</time>
      </trkpt>
      <trkpt lat="44.00443" lon="3.50604">
        <ele>983.9</ele>
        <time>2026-05-28T14:25:25.000Z</time>
      </trkpt>
      <trkpt lat="44.00443" lon="3.50604">
        <ele>983.5</ele>
        <time>2026-05-28T14:25:26.000Z</time>
      </trkpt>
      <trkpt lat="44.00443" lon="3.50604">
        <ele>983.4</ele>
        <time>2026-05-28T14:25:27.000Z</time>
      </trkpt>
      <trkpt lat="44.00443" lon="3.50604">
        <ele>983.4</ele>
        <time>2026-05-28T14:25:28.000Z</time>
      </trkpt>
      <trkpt lat="44.00443" lon="3.50604">
        <ele>983.4</ele>
        <time>2026-05-28T14:25:29.000Z</time>
      </trkpt>
      <trkpt lat="44.00443" lon="3.50604">
        <ele>983.3</ele>
        <time>2026-05-28T14:25:30.000Z</time>
      </trkpt>
      <trkpt lat="44.00443" lon="3.50604">
        <ele>983</ele>
        <time>2026-05-28T14:25:31.000Z</time>
      </trkpt>
      <trkpt lat="44.00443" lon="3.50604">
        <ele>982.9</ele>
        <time>2026-05-28T14:25:32.000Z</time>
      </trkpt>
      <trkpt lat="44.00443" lon="3.50604">
        <ele>982.7</ele>
        <time>2026-05-28T14:25:33.000Z</time>
      </trkpt>
      <trkpt lat="44.00443" lon="3.50604">
        <ele>982.5</ele>
        <time>2026-05-28T14:25:34.000Z</time>
      </trkpt>
      <trkpt lat="44.00443" lon="3.50604">
        <ele>982.4</ele>
        <time>2026-05-28T14:25:35.000Z</time>
      </trkpt>
      <trkpt lat="44.00443" lon="3.50603">
        <ele>982.3</ele>
        <time>2026-05-28T14:25:36.000Z</time>
      </trkpt>
      <trkpt lat="44.00443" lon="3.50603">
        <ele>982.3</ele>
        <time>2026-05-28T14:25:37.000Z</time>
      </trkpt>
      <trkpt lat="44.00443" lon="3.50602">
        <ele>982.5</ele>
        <time>2026-05-28T14:25:38.000Z</time>
      </trkpt>
      <trkpt lat="44.00443" lon="3.50601">
        <ele>982.3</ele>
        <time>2026-05-28T14:25:39.000Z</time>
      </trkpt>
      <trkpt lat="44.00443" lon="3.506">
        <ele>982.3</ele>
        <time>2026-05-28T14:25:40.000Z</time>
      </trkpt>
      <trkpt lat="44.00444" lon="3.50599">
        <ele>982.5</ele>
        <time>2026-05-28T14:25:41.000Z</time>
      </trkpt>
      <trkpt lat="44.00444" lon="3.50598">
        <ele>982.5</ele>
        <time>2026-05-28T14:25:42.000Z</time>
      </trkpt>
      <trkpt lat="44.00443" lon="3.50596">
        <ele>982.7</ele>
        <time>2026-05-28T14:25:43.000Z</time>
      </trkpt>
      <trkpt lat="44.00442" lon="3.50595">
        <ele>982.6</ele>
        <time>2026-05-28T14:25:44.000Z</time>
      </trkpt>
      <trkpt lat="44.00442" lon="3.50594">
        <ele>982.6</ele>
        <time>2026-05-28T14:25:45.000Z</time>
      </trkpt>
      <trkpt lat="44.00442" lon="3.50594">
        <ele>982.5</ele>
        <time>2026-05-28T14:25:46.000Z</time>
      </trkpt>
      <trkpt lat="44.00442" lon="3.50594">
        <ele>982.5</ele>
        <time>2026-05-28T14:25:47.000Z</time>
      </trkpt>
      <trkpt lat="44.00442" lon="3.50593">
        <ele>982.8</ele>
        <time>2026-05-28T14:25:48.000Z</time>
      </trkpt>
      <trkpt lat="44.00442" lon="3.50592">
        <ele>982.8</ele>
        <time>2026-05-28T14:25:49.000Z</time>
      </trkpt>
      <trkpt lat="44.00442" lon="3.50591">
        <ele>982.8</ele>
        <time>2026-05-28T14:25:50.000Z</time>
      </trkpt>
      <trkpt lat="44.00443" lon="3.50589">
        <ele>982.8</ele>
        <time>2026-05-28T14:25:51.000Z</time>
      </trkpt>
      <trkpt lat="44.00442" lon="3.50588">
        <ele>982.7</ele>
        <time>2026-05-28T14:25:52.000Z</time>
      </trkpt>
      <trkpt lat="44.00442" lon="3.50587">
        <ele>982.6</ele>
        <time>2026-05-28T14:25:53.000Z</time>
      </trkpt>
      <trkpt lat="44.00441" lon="3.50586">
        <ele>982.7</ele>
        <time>2026-05-28T14:25:54.000Z</time>
      </trkpt>
      <trkpt lat="44.00442" lon="3.50585">
        <ele>982.7</ele>
        <time>2026-05-28T14:25:55.000Z</time>
      </trkpt>
      <trkpt lat="44.00441" lon="3.50584">
        <ele>982.7</ele>
        <time>2026-05-28T14:25:56.000Z</time>
      </trkpt>
      <trkpt lat="44.00441" lon="3.50583">
        <ele>982.6</ele>
        <time>2026-05-28T14:25:57.000Z</time>
      </trkpt>
      <trkpt lat="44.00441" lon="3.50583">
        <ele>982.6</ele>
        <time>2026-05-28T14:25:58.000Z</time>
      </trkpt>
      <trkpt lat="44.0044" lon="3.50583">
        <ele>982.5</ele>
        <time>2026-05-28T14:25:59.000Z</time>
      </trkpt>
      <trkpt lat="44.00439" lon="3.50583">
        <ele>982.6</ele>
        <time>2026-05-28T14:26:00.000Z</time>
      </trkpt>
      <trkpt lat="44.00438" lon="3.50582">
        <ele>982.7</ele>
        <time>2026-05-28T14:26:01.000Z</time>
      </trkpt>
      <trkpt lat="44.00438" lon="3.50582">
        <ele>982.5</ele>
        <time>2026-05-28T14:26:02.000Z</time>
      </trkpt>
      <trkpt lat="44.00437" lon="3.50581">
        <ele>982.3</ele>
        <time>2026-05-28T14:26:03.000Z</time>
      </trkpt>
      <trkpt lat="44.00437" lon="3.5058">
        <ele>982.1</ele>
        <time>2026-05-28T14:26:04.000Z</time>
      </trkpt>
      <trkpt lat="44.00436" lon="3.5058">
        <ele>982</ele>
        <time>2026-05-28T14:26:05.000Z</time>
      </trkpt>
      <trkpt lat="44.00436" lon="3.5058">
        <ele>981.8</ele>
        <time>2026-05-28T14:26:06.000Z</time>
      </trkpt>
      <trkpt lat="44.00436" lon="3.50579">
        <ele>981.8</ele>
        <time>2026-05-28T14:26:07.000Z</time>
      </trkpt>
      <trkpt lat="44.00435" lon="3.50579">
        <ele>981.6</ele>
        <time>2026-05-28T14:26:08.000Z</time>
      </trkpt>
      <trkpt lat="44.00435" lon="3.50578">
        <ele>981.6</ele>
        <time>2026-05-28T14:26:09.000Z</time>
      </trkpt>
      <trkpt lat="44.00434" lon="3.50577">
        <ele>981.9</ele>
        <time>2026-05-28T14:26:10.000Z</time>
      </trkpt>
      <trkpt lat="44.00433" lon="3.50577">
        <ele>982.1</ele>
        <time>2026-05-28T14:26:11.000Z</time>
      </trkpt>
      <trkpt lat="44.00432" lon="3.50577">
        <ele>982</ele>
        <time>2026-05-28T14:26:12.000Z</time>
      </trkpt>
      <trkpt lat="44.00431" lon="3.50577">
        <ele>981.6</ele>
        <time>2026-05-28T14:26:13.000Z</time>
      </trkpt>
      <trkpt lat="44.00431" lon="3.50577">
        <ele>981.3</ele>
        <time>2026-05-28T14:26:14.000Z</time>
      </trkpt>
      <trkpt lat="44.00431" lon="3.50576">
        <ele>980.9</ele>
        <time>2026-05-28T14:26:15.000Z</time>
      </trkpt>
      <trkpt lat="44.0043" lon="3.50575">
        <ele>980.7</ele>
        <time>2026-05-28T14:26:16.000Z</time>
      </trkpt>
      <trkpt lat="44.0043" lon="3.50574">
        <ele>980.5</ele>
        <time>2026-05-28T14:26:17.000Z</time>
      </trkpt>
      <trkpt lat="44.00429" lon="3.50574">
        <ele>980.2</ele>
        <time>2026-05-28T14:26:18.000Z</time>
      </trkpt>
      <trkpt lat="44.00429" lon="3.50574">
        <ele>979.9</ele>
        <time>2026-05-28T14:26:19.000Z</time>
      </trkpt>
      <trkpt lat="44.00428" lon="3.50574">
        <ele>979.6</ele>
        <time>2026-05-28T14:26:20.000Z</time>
      </trkpt>
      <trkpt lat="44.00427" lon="3.50575">
        <ele>979.5</ele>
        <time>2026-05-28T14:26:21.000Z</time>
      </trkpt>
      <trkpt lat="44.00426" lon="3.50574">
        <ele>979.6</ele>
        <time>2026-05-28T14:26:22.000Z</time>
      </trkpt>
      <trkpt lat="44.00425" lon="3.50574">
        <ele>979.4</ele>
        <time>2026-05-28T14:26:23.000Z</time>
      </trkpt>
      <trkpt lat="44.00424" lon="3.50574">
        <ele>979.2</ele>
        <time>2026-05-28T14:26:24.000Z</time>
      </trkpt>
      <trkpt lat="44.00424" lon="3.50575">
        <ele>979</ele>
        <time>2026-05-28T14:26:25.000Z</time>
      </trkpt>
      <trkpt lat="44.00423" lon="3.50575">
        <ele>978.8</ele>
        <time>2026-05-28T14:26:26.000Z</time>
      </trkpt>
      <trkpt lat="44.00422" lon="3.50576">
        <ele>978.5</ele>
        <time>2026-05-28T14:26:27.000Z</time>
      </trkpt>
      <trkpt lat="44.00421" lon="3.50577">
        <ele>978.1</ele>
        <time>2026-05-28T14:26:28.000Z</time>
      </trkpt>
      <trkpt lat="44.0042" lon="3.50578">
        <ele>978.1</ele>
        <time>2026-05-28T14:26:29.000Z</time>
      </trkpt>
      <trkpt lat="44.0042" lon="3.50579">
        <ele>977.5</ele>
        <time>2026-05-28T14:26:30.000Z</time>
      </trkpt>
      <trkpt lat="44.00419" lon="3.50579">
        <ele>977.1</ele>
        <time>2026-05-28T14:26:31.000Z</time>
      </trkpt>
      <trkpt lat="44.00418" lon="3.5058">
        <ele>976.8</ele>
        <time>2026-05-28T14:26:32.000Z</time>
      </trkpt>
      <trkpt lat="44.00417" lon="3.50581">
        <ele>976.4</ele>
        <time>2026-05-28T14:26:33.000Z</time>
      </trkpt>
      <trkpt lat="44.00416" lon="3.50583">
        <ele>976.3</ele>
        <time>2026-05-28T14:26:34.000Z</time>
      </trkpt>
      <trkpt lat="44.00415" lon="3.50584">
        <ele>976.1</ele>
        <time>2026-05-28T14:26:35.000Z</time>
      </trkpt>
      <trkpt lat="44.00414" lon="3.50584">
        <ele>975.6</ele>
        <time>2026-05-28T14:26:36.000Z</time>
      </trkpt>
      <trkpt lat="44.00413" lon="3.50585">
        <ele>975.2</ele>
        <time>2026-05-28T14:26:37.000Z</time>
      </trkpt>
      <trkpt lat="44.00412" lon="3.50586">
        <ele>974.8</ele>
        <time>2026-05-28T14:26:38.000Z</time>
      </trkpt>
      <trkpt lat="44.00411" lon="3.50587">
        <ele>974.3</ele>
        <time>2026-05-28T14:26:39.000Z</time>
      </trkpt>
      <trkpt lat="44.0041" lon="3.50589">
        <ele>973.7</ele>
        <time>2026-05-28T14:26:40.000Z</time>
      </trkpt>
      <trkpt lat="44.00409" lon="3.50591">
        <ele>973.2</ele>
        <time>2026-05-28T14:26:41.000Z</time>
      </trkpt>
      <trkpt lat="44.00409" lon="3.50592">
        <ele>973</ele>
        <time>2026-05-28T14:26:42.000Z</time>
      </trkpt>
      <trkpt lat="44.00408" lon="3.50593">
        <ele>972.7</ele>
        <time>2026-05-28T14:26:43.000Z</time>
      </trkpt>
      <trkpt lat="44.00407" lon="3.50594">
        <ele>972.3</ele>
        <time>2026-05-28T14:26:44.000Z</time>
      </trkpt>
      <trkpt lat="44.00406" lon="3.50595">
        <ele>972.4</ele>
        <time>2026-05-28T14:26:45.000Z</time>
      </trkpt>
      <trkpt lat="44.00406" lon="3.50595">
        <ele>972.4</ele>
        <time>2026-05-28T14:26:46.000Z</time>
      </trkpt>
      <trkpt lat="44.00405" lon="3.50595">
        <ele>972.3</ele>
        <time>2026-05-28T14:26:47.000Z</time>
      </trkpt>
      <trkpt lat="44.00405" lon="3.50595">
        <ele>972.3</ele>
        <time>2026-05-28T14:26:48.000Z</time>
      </trkpt>
      <trkpt lat="44.00405" lon="3.50595">
        <ele>972.2</ele>
        <time>2026-05-28T14:26:49.000Z</time>
      </trkpt>
      <trkpt lat="44.00404" lon="3.50596">
        <ele>971.9</ele>
        <time>2026-05-28T14:26:50.000Z</time>
      </trkpt>
      <trkpt lat="44.00403" lon="3.50596">
        <ele>971.9</ele>
        <time>2026-05-28T14:26:51.000Z</time>
      </trkpt>
      <trkpt lat="44.00402" lon="3.50597">
        <ele>972</ele>
        <time>2026-05-28T14:26:52.000Z</time>
      </trkpt>
      <trkpt lat="44.00401" lon="3.50597">
        <ele>971.9</ele>
        <time>2026-05-28T14:26:53.000Z</time>
      </trkpt>
      <trkpt lat="44.00399" lon="3.50598">
        <ele>972.1</ele>
        <time>2026-05-28T14:26:54.000Z</time>
      </trkpt>
      <trkpt lat="44.00398" lon="3.50598">
        <ele>972</ele>
        <time>2026-05-28T14:26:55.000Z</time>
      </trkpt>
      <trkpt lat="44.00397" lon="3.506">
        <ele>971.9</ele>
        <time>2026-05-28T14:26:56.000Z</time>
      </trkpt>
      <trkpt lat="44.00396" lon="3.506">
        <ele>971.9</ele>
        <time>2026-05-28T14:26:57.000Z</time>
      </trkpt>
      <trkpt lat="44.00396" lon="3.50601">
        <ele>971.7</ele>
        <time>2026-05-28T14:26:58.000Z</time>
      </trkpt>
      <trkpt lat="44.00395" lon="3.50603">
        <ele>971.6</ele>
        <time>2026-05-28T14:26:59.000Z</time>
      </trkpt>
      <trkpt lat="44.00395" lon="3.50604">
        <ele>971.4</ele>
        <time>2026-05-28T14:27:00.000Z</time>
      </trkpt>
      <trkpt lat="44.00395" lon="3.50605">
        <ele>971.3</ele>
        <time>2026-05-28T14:27:01.000Z</time>
      </trkpt>
      <trkpt lat="44.00394" lon="3.50606">
        <ele>971.1</ele>
        <time>2026-05-28T14:27:02.000Z</time>
      </trkpt>
      <trkpt lat="44.00394" lon="3.50607">
        <ele>971</ele>
        <time>2026-05-28T14:27:03.000Z</time>
      </trkpt>
      <trkpt lat="44.00393" lon="3.50608">
        <ele>970.9</ele>
        <time>2026-05-28T14:27:04.000Z</time>
      </trkpt>
      <trkpt lat="44.00393" lon="3.5061">
        <ele>971</ele>
        <time>2026-05-28T14:27:05.000Z</time>
      </trkpt>
      <trkpt lat="44.00393" lon="3.50612">
        <ele>970.8</ele>
        <time>2026-05-28T14:27:06.000Z</time>
      </trkpt>
      <trkpt lat="44.00393" lon="3.50613">
        <ele>970.5</ele>
        <time>2026-05-28T14:27:07.000Z</time>
      </trkpt>
      <trkpt lat="44.00392" lon="3.50614">
        <ele>970.6</ele>
        <time>2026-05-28T14:27:08.000Z</time>
      </trkpt>
      <trkpt lat="44.00391" lon="3.50614">
        <ele>970.5</ele>
        <time>2026-05-28T14:27:09.000Z</time>
      </trkpt>
      <trkpt lat="44.0039" lon="3.50614">
        <ele>970.4</ele>
        <time>2026-05-28T14:27:10.000Z</time>
      </trkpt>
      <trkpt lat="44.00389" lon="3.50615">
        <ele>970.6</ele>
        <time>2026-05-28T14:27:11.000Z</time>
      </trkpt>
      <trkpt lat="44.00388" lon="3.50616">
        <ele>970.7</ele>
        <time>2026-05-28T14:27:12.000Z</time>
      </trkpt>
      <trkpt lat="44.00387" lon="3.50616">
        <ele>970.5</ele>
        <time>2026-05-28T14:27:13.000Z</time>
      </trkpt>
      <trkpt lat="44.00385" lon="3.50616">
        <ele>970.1</ele>
        <time>2026-05-28T14:27:14.000Z</time>
      </trkpt>
      <trkpt lat="44.00384" lon="3.50616">
        <ele>970</ele>
        <time>2026-05-28T14:27:15.000Z</time>
      </trkpt>
      <trkpt lat="44.00383" lon="3.50616">
        <ele>969.7</ele>
        <time>2026-05-28T14:27:16.000Z</time>
      </trkpt>
      <trkpt lat="44.00383" lon="3.50616">
        <ele>969.4</ele>
        <time>2026-05-28T14:27:17.000Z</time>
      </trkpt>
      <trkpt lat="44.00382" lon="3.50617">
        <ele>969</ele>
        <time>2026-05-28T14:27:18.000Z</time>
      </trkpt>
      <trkpt lat="44.00381" lon="3.50618">
        <ele>968.6</ele>
        <time>2026-05-28T14:27:19.000Z</time>
      </trkpt>
      <trkpt lat="44.0038" lon="3.50619">
        <ele>968.2</ele>
        <time>2026-05-28T14:27:20.000Z</time>
      </trkpt>
      <trkpt lat="44.0038" lon="3.50619">
        <ele>967.6</ele>
        <time>2026-05-28T14:27:21.000Z</time>
      </trkpt>
      <trkpt lat="44.0038" lon="3.50619">
        <ele>967.3</ele>
        <time>2026-05-28T14:27:22.000Z</time>
      </trkpt>
      <trkpt lat="44.00378" lon="3.50619">
        <ele>967.1</ele>
        <time>2026-05-28T14:27:23.000Z</time>
      </trkpt>
      <trkpt lat="44.00377" lon="3.5062">
        <ele>967</ele>
        <time>2026-05-28T14:27:24.000Z</time>
      </trkpt>
      <trkpt lat="44.00376" lon="3.5062">
        <ele>967</ele>
        <time>2026-05-28T14:27:25.000Z</time>
      </trkpt>
      <trkpt lat="44.00375" lon="3.50621">
        <ele>966.9</ele>
        <time>2026-05-28T14:27:26.000Z</time>
      </trkpt>
      <trkpt lat="44.00374" lon="3.50622">
        <ele>967.1</ele>
        <time>2026-05-28T14:27:27.000Z</time>
      </trkpt>
      <trkpt lat="44.00373" lon="3.50623">
        <ele>967</ele>
        <time>2026-05-28T14:27:28.000Z</time>
      </trkpt>
      <trkpt lat="44.00371" lon="3.50623">
        <ele>966.7</ele>
        <time>2026-05-28T14:27:29.000Z</time>
      </trkpt>
      <trkpt lat="44.0037" lon="3.50624">
        <ele>966.4</ele>
        <time>2026-05-28T14:27:30.000Z</time>
      </trkpt>
      <trkpt lat="44.00369" lon="3.50624">
        <ele>966.1</ele>
        <time>2026-05-28T14:27:31.000Z</time>
      </trkpt>
      <trkpt lat="44.00368" lon="3.50623">
        <ele>965.8</ele>
        <time>2026-05-28T14:27:32.000Z</time>
      </trkpt>
      <trkpt lat="44.00367" lon="3.50622">
        <ele>965.7</ele>
        <time>2026-05-28T14:27:33.000Z</time>
      </trkpt>
      <trkpt lat="44.00366" lon="3.50621">
        <ele>965.5</ele>
        <time>2026-05-28T14:27:34.000Z</time>
      </trkpt>
      <trkpt lat="44.00365" lon="3.5062">
        <ele>965.3</ele>
        <time>2026-05-28T14:27:35.000Z</time>
      </trkpt>
      <trkpt lat="44.00364" lon="3.5062">
        <ele>965.3</ele>
        <time>2026-05-28T14:27:36.000Z</time>
      </trkpt>
      <trkpt lat="44.00362" lon="3.50619">
        <ele>964.9</ele>
        <time>2026-05-28T14:27:37.000Z</time>
      </trkpt>
      <trkpt lat="44.00361" lon="3.50619">
        <ele>964.6</ele>
        <time>2026-05-28T14:27:38.000Z</time>
      </trkpt>
      <trkpt lat="44.00359" lon="3.50618">
        <ele>964.1</ele>
        <time>2026-05-28T14:27:39.000Z</time>
      </trkpt>
      <trkpt lat="44.00358" lon="3.50618">
        <ele>963.5</ele>
        <time>2026-05-28T14:27:40.000Z</time>
      </trkpt>
      <trkpt lat="44.00358" lon="3.50617">
        <ele>963.1</ele>
        <time>2026-05-28T14:27:41.000Z</time>
      </trkpt>
      <trkpt lat="44.00356" lon="3.50616">
        <ele>962.5</ele>
        <time>2026-05-28T14:27:42.000Z</time>
      </trkpt>
      <trkpt lat="44.00355" lon="3.50617">
        <ele>962.1</ele>
        <time>2026-05-28T14:27:43.000Z</time>
      </trkpt>
      <trkpt lat="44.00354" lon="3.50617">
        <ele>962.3</ele>
        <time>2026-05-28T14:27:44.000Z</time>
      </trkpt>
      <trkpt lat="44.00352" lon="3.50617">
        <ele>962.1</ele>
        <time>2026-05-28T14:27:45.000Z</time>
      </trkpt>
      <trkpt lat="44.00352" lon="3.50616">
        <ele>961.7</ele>
        <time>2026-05-28T14:27:46.000Z</time>
      </trkpt>
      <trkpt lat="44.00351" lon="3.50616">
        <ele>961.5</ele>
        <time>2026-05-28T14:27:47.000Z</time>
      </trkpt>
      <trkpt lat="44.0035" lon="3.50616">
        <ele>961</ele>
        <time>2026-05-28T14:27:48.000Z</time>
      </trkpt>
      <trkpt lat="44.00349" lon="3.50616">
        <ele>961</ele>
        <time>2026-05-28T14:27:49.000Z</time>
      </trkpt>
      <trkpt lat="44.00348" lon="3.50615">
        <ele>960.8</ele>
        <time>2026-05-28T14:27:50.000Z</time>
      </trkpt>
      <trkpt lat="44.00348" lon="3.50615">
        <ele>960.5</ele>
        <time>2026-05-28T14:27:51.000Z</time>
      </trkpt>
      <trkpt lat="44.00347" lon="3.50614">
        <ele>960</ele>
        <time>2026-05-28T14:27:52.000Z</time>
      </trkpt>
      <trkpt lat="44.00347" lon="3.50614">
        <ele>959.6</ele>
        <time>2026-05-28T14:27:53.000Z</time>
      </trkpt>
      <trkpt lat="44.00346" lon="3.50614">
        <ele>959.2</ele>
        <time>2026-05-28T14:27:54.000Z</time>
      </trkpt>
      <trkpt lat="44.00344" lon="3.50613">
        <ele>958.8</ele>
        <time>2026-05-28T14:27:55.000Z</time>
      </trkpt>
      <trkpt lat="44.00343" lon="3.50613">
        <ele>958.2</ele>
        <time>2026-05-28T14:27:56.000Z</time>
      </trkpt>
      <trkpt lat="44.00342" lon="3.50612">
        <ele>957.7</ele>
        <time>2026-05-28T14:27:57.000Z</time>
      </trkpt>
      <trkpt lat="44.00341" lon="3.50611">
        <ele>957.5</ele>
        <time>2026-05-28T14:27:58.000Z</time>
      </trkpt>
      <trkpt lat="44.0034" lon="3.5061">
        <ele>957.1</ele>
        <time>2026-05-28T14:27:59.000Z</time>
      </trkpt>
      <trkpt lat="44.0034" lon="3.5061">
        <ele>956.6</ele>
        <time>2026-05-28T14:28:00.000Z</time>
      </trkpt>
      <trkpt lat="44.00339" lon="3.50609">
        <ele>956.4</ele>
        <time>2026-05-28T14:28:01.000Z</time>
      </trkpt>
      <trkpt lat="44.00338" lon="3.50607">
        <ele>956.6</ele>
        <time>2026-05-28T14:28:02.000Z</time>
      </trkpt>
      <trkpt lat="44.00337" lon="3.50606">
        <ele>956.3</ele>
        <time>2026-05-28T14:28:03.000Z</time>
      </trkpt>
      <trkpt lat="44.00335" lon="3.50606">
        <ele>955.9</ele>
        <time>2026-05-28T14:28:04.000Z</time>
      </trkpt>
      <trkpt lat="44.00334" lon="3.50606">
        <ele>955.5</ele>
        <time>2026-05-28T14:28:05.000Z</time>
      </trkpt>
      <trkpt lat="44.00333" lon="3.50605">
        <ele>955.5</ele>
        <time>2026-05-28T14:28:06.000Z</time>
      </trkpt>
      <trkpt lat="44.00332" lon="3.50605">
        <ele>955</ele>
        <time>2026-05-28T14:28:07.000Z</time>
      </trkpt>
      <trkpt lat="44.00332" lon="3.50604">
        <ele>954.4</ele>
        <time>2026-05-28T14:28:08.000Z</time>
      </trkpt>
      <trkpt lat="44.00331" lon="3.50604">
        <ele>954.3</ele>
        <time>2026-05-28T14:28:09.000Z</time>
      </trkpt>
      <trkpt lat="44.00331" lon="3.50603">
        <ele>953.5</ele>
        <time>2026-05-28T14:28:10.000Z</time>
      </trkpt>
      <trkpt lat="44.0033" lon="3.50603">
        <ele>953</ele>
        <time>2026-05-28T14:28:11.000Z</time>
      </trkpt>
      <trkpt lat="44.0033" lon="3.50603">
        <ele>952.5</ele>
        <time>2026-05-28T14:28:12.000Z</time>
      </trkpt>
      <trkpt lat="44.0033" lon="3.50603">
        <ele>951.9</ele>
        <time>2026-05-28T14:28:13.000Z</time>
      </trkpt>
      <trkpt lat="44.00329" lon="3.50603">
        <ele>951.7</ele>
        <time>2026-05-28T14:28:14.000Z</time>
      </trkpt>
      <trkpt lat="44.00328" lon="3.50603">
        <ele>951.5</ele>
        <time>2026-05-28T14:28:15.000Z</time>
      </trkpt>
      <trkpt lat="44.00327" lon="3.50603">
        <ele>951.3</ele>
        <time>2026-05-28T14:28:16.000Z</time>
      </trkpt>
      <trkpt lat="44.00325" lon="3.50604">
        <ele>951.4</ele>
        <time>2026-05-28T14:28:17.000Z</time>
      </trkpt>
      <trkpt lat="44.00324" lon="3.50604">
        <ele>951.5</ele>
        <time>2026-05-28T14:28:18.000Z</time>
      </trkpt>
      <trkpt lat="44.00323" lon="3.50605">
        <ele>951.4</ele>
        <time>2026-05-28T14:28:19.000Z</time>
      </trkpt>
      <trkpt lat="44.00323" lon="3.50605">
        <ele>951</ele>
        <time>2026-05-28T14:28:20.000Z</time>
      </trkpt>
      <trkpt lat="44.00322" lon="3.50606">
        <ele>950.7</ele>
        <time>2026-05-28T14:28:21.000Z</time>
      </trkpt>
      <trkpt lat="44.00321" lon="3.50607">
        <ele>950.5</ele>
        <time>2026-05-28T14:28:22.000Z</time>
      </trkpt>
      <trkpt lat="44.0032" lon="3.50607">
        <ele>950.2</ele>
        <time>2026-05-28T14:28:23.000Z</time>
      </trkpt>
      <trkpt lat="44.0032" lon="3.50607">
        <ele>950</ele>
        <time>2026-05-28T14:28:24.000Z</time>
      </trkpt>
      <trkpt lat="44.00319" lon="3.50608">
        <ele>949.9</ele>
        <time>2026-05-28T14:28:25.000Z</time>
      </trkpt>
      <trkpt lat="44.00319" lon="3.50609">
        <ele>949.9</ele>
        <time>2026-05-28T14:28:26.000Z</time>
      </trkpt>
      <trkpt lat="44.00318" lon="3.5061">
        <ele>949.9</ele>
        <time>2026-05-28T14:28:27.000Z</time>
      </trkpt>
      <trkpt lat="44.00317" lon="3.50611">
        <ele>949.7</ele>
        <time>2026-05-28T14:28:28.000Z</time>
      </trkpt>
      <trkpt lat="44.00316" lon="3.50612">
        <ele>949.7</ele>
        <time>2026-05-28T14:28:29.000Z</time>
      </trkpt>
      <trkpt lat="44.00315" lon="3.50613">
        <ele>949.6</ele>
        <time>2026-05-28T14:28:30.000Z</time>
      </trkpt>
      <trkpt lat="44.00314" lon="3.50614">
        <ele>949.6</ele>
        <time>2026-05-28T14:28:31.000Z</time>
      </trkpt>
      <trkpt lat="44.00314" lon="3.50614">
        <ele>949.4</ele>
        <time>2026-05-28T14:28:32.000Z</time>
      </trkpt>
      <trkpt lat="44.00313" lon="3.50614">
        <ele>949.5</ele>
        <time>2026-05-28T14:28:33.000Z</time>
      </trkpt>
      <trkpt lat="44.00313" lon="3.50614">
        <ele>949.2</ele>
        <time>2026-05-28T14:28:34.000Z</time>
      </trkpt>
      <trkpt lat="44.00312" lon="3.50614">
        <ele>949</ele>
        <time>2026-05-28T14:28:35.000Z</time>
      </trkpt>
      <trkpt lat="44.00311" lon="3.50614">
        <ele>948.9</ele>
        <time>2026-05-28T14:28:36.000Z</time>
      </trkpt>
      <trkpt lat="44.0031" lon="3.50615">
        <ele>948.7</ele>
        <time>2026-05-28T14:28:37.000Z</time>
      </trkpt>
      <trkpt lat="44.0031" lon="3.50615">
        <ele>948.5</ele>
        <time>2026-05-28T14:28:38.000Z</time>
      </trkpt>
      <trkpt lat="44.00309" lon="3.50616">
        <ele>948.2</ele>
        <time>2026-05-28T14:28:39.000Z</time>
      </trkpt>
      <trkpt lat="44.00308" lon="3.50616">
        <ele>947.9</ele>
        <time>2026-05-28T14:28:40.000Z</time>
      </trkpt>
      <trkpt lat="44.00308" lon="3.50617">
        <ele>948</ele>
        <time>2026-05-28T14:28:41.000Z</time>
      </trkpt>
      <trkpt lat="44.00307" lon="3.50617">
        <ele>948</ele>
        <time>2026-05-28T14:28:42.000Z</time>
      </trkpt>
      <trkpt lat="44.00306" lon="3.50618">
        <ele>947.8</ele>
        <time>2026-05-28T14:28:43.000Z</time>
      </trkpt>
      <trkpt lat="44.00305" lon="3.50618">
        <ele>947.7</ele>
        <time>2026-05-28T14:28:44.000Z</time>
      </trkpt>
      <trkpt lat="44.00304" lon="3.50618">
        <ele>947.4</ele>
        <time>2026-05-28T14:28:45.000Z</time>
      </trkpt>
      <trkpt lat="44.00304" lon="3.50619">
        <ele>946.9</ele>
        <time>2026-05-28T14:28:46.000Z</time>
      </trkpt>
      <trkpt lat="44.00304" lon="3.50619">
        <ele>946.5</ele>
        <time>2026-05-28T14:28:47.000Z</time>
      </trkpt>
      <trkpt lat="44.00303" lon="3.50619">
        <ele>946.3</ele>
        <time>2026-05-28T14:28:48.000Z</time>
      </trkpt>
      <trkpt lat="44.00302" lon="3.50619">
        <ele>946</ele>
        <time>2026-05-28T14:28:49.000Z</time>
      </trkpt>
      <trkpt lat="44.00301" lon="3.5062">
        <ele>945.8</ele>
        <time>2026-05-28T14:28:50.000Z</time>
      </trkpt>
      <trkpt lat="44.003" lon="3.5062">
        <ele>945.6</ele>
        <time>2026-05-28T14:28:51.000Z</time>
      </trkpt>
      <trkpt lat="44.003" lon="3.50621">
        <ele>945.4</ele>
        <time>2026-05-28T14:28:52.000Z</time>
      </trkpt>
      <trkpt lat="44.00299" lon="3.50621">
        <ele>945.1</ele>
        <time>2026-05-28T14:28:53.000Z</time>
      </trkpt>
      <trkpt lat="44.00298" lon="3.50622">
        <ele>944.8</ele>
        <time>2026-05-28T14:28:54.000Z</time>
      </trkpt>
      <trkpt lat="44.00297" lon="3.50623">
        <ele>944.6</ele>
        <time>2026-05-28T14:28:55.000Z</time>
      </trkpt>
      <trkpt lat="44.00296" lon="3.50624">
        <ele>944.4</ele>
        <time>2026-05-28T14:28:56.000Z</time>
      </trkpt>
      <trkpt lat="44.00295" lon="3.50625">
        <ele>944.2</ele>
        <time>2026-05-28T14:28:57.000Z</time>
      </trkpt>
      <trkpt lat="44.00294" lon="3.50627">
        <ele>944.2</ele>
        <time>2026-05-28T14:28:58.000Z</time>
      </trkpt>
      <trkpt lat="44.00294" lon="3.50627">
        <ele>943.6</ele>
        <time>2026-05-28T14:28:59.000Z</time>
      </trkpt>
      <trkpt lat="44.00294" lon="3.50628">
        <ele>943.3</ele>
        <time>2026-05-28T14:29:00.000Z</time>
      </trkpt>
      <trkpt lat="44.00293" lon="3.5063">
        <ele>943</ele>
        <time>2026-05-28T14:29:01.000Z</time>
      </trkpt>
      <trkpt lat="44.00293" lon="3.50631">
        <ele>943</ele>
        <time>2026-05-28T14:29:02.000Z</time>
      </trkpt>
      <trkpt lat="44.00292" lon="3.50631">
        <ele>942.9</ele>
        <time>2026-05-28T14:29:03.000Z</time>
      </trkpt>
      <trkpt lat="44.00291" lon="3.50632">
        <ele>942.6</ele>
        <time>2026-05-28T14:29:04.000Z</time>
      </trkpt>
      <trkpt lat="44.0029" lon="3.50631">
        <ele>942.5</ele>
        <time>2026-05-28T14:29:05.000Z</time>
      </trkpt>
      <trkpt lat="44.00289" lon="3.50631">
        <ele>942.4</ele>
        <time>2026-05-28T14:29:06.000Z</time>
      </trkpt>
      <trkpt lat="44.00289" lon="3.50632">
        <ele>941.9</ele>
        <time>2026-05-28T14:29:07.000Z</time>
      </trkpt>
      <trkpt lat="44.00289" lon="3.50631">
        <ele>941.6</ele>
        <time>2026-05-28T14:29:08.000Z</time>
      </trkpt>
      <trkpt lat="44.00288" lon="3.50629">
        <ele>941.5</ele>
        <time>2026-05-28T14:29:09.000Z</time>
      </trkpt>
      <trkpt lat="44.00288" lon="3.50627">
        <ele>941.4</ele>
        <time>2026-05-28T14:29:10.000Z</time>
      </trkpt>
      <trkpt lat="44.00287" lon="3.50625">
        <ele>940.9</ele>
        <time>2026-05-28T14:29:11.000Z</time>
      </trkpt>
      <trkpt lat="44.00287" lon="3.50624">
        <ele>940.4</ele>
        <time>2026-05-28T14:29:12.000Z</time>
      </trkpt>
      <trkpt lat="44.00287" lon="3.50622">
        <ele>940.4</ele>
        <time>2026-05-28T14:29:13.000Z</time>
      </trkpt>
      <trkpt lat="44.00287" lon="3.50621">
        <ele>940.1</ele>
        <time>2026-05-28T14:29:14.000Z</time>
      </trkpt>
      <trkpt lat="44.00286" lon="3.5062">
        <ele>939.7</ele>
        <time>2026-05-28T14:29:15.000Z</time>
      </trkpt>
      <trkpt lat="44.00286" lon="3.50618">
        <ele>939.3</ele>
        <time>2026-05-28T14:29:16.000Z</time>
      </trkpt>
      <trkpt lat="44.00286" lon="3.50616">
        <ele>939.3</ele>
        <time>2026-05-28T14:29:17.000Z</time>
      </trkpt>
      <trkpt lat="44.00286" lon="3.50615">
        <ele>939</ele>
        <time>2026-05-28T14:29:18.000Z</time>
      </trkpt>
      <trkpt lat="44.00286" lon="3.50614">
        <ele>938.6</ele>
        <time>2026-05-28T14:29:19.000Z</time>
      </trkpt>
      <trkpt lat="44.00286" lon="3.50613">
        <ele>938.1</ele>
        <time>2026-05-28T14:29:20.000Z</time>
      </trkpt>
      <trkpt lat="44.00286" lon="3.50612">
        <ele>937.7</ele>
        <time>2026-05-28T14:29:21.000Z</time>
      </trkpt>
      <trkpt lat="44.00285" lon="3.50611">
        <ele>937.3</ele>
        <time>2026-05-28T14:29:22.000Z</time>
      </trkpt>
      <trkpt lat="44.00286" lon="3.50609">
        <ele>937.1</ele>
        <time>2026-05-28T14:29:23.000Z</time>
      </trkpt>
      <trkpt lat="44.00286" lon="3.50608">
        <ele>936.7</ele>
        <time>2026-05-28T14:29:24.000Z</time>
      </trkpt>
      <trkpt lat="44.00286" lon="3.50607">
        <ele>936.5</ele>
        <time>2026-05-28T14:29:25.000Z</time>
      </trkpt>
      <trkpt lat="44.00286" lon="3.50606">
        <ele>935.7</ele>
        <time>2026-05-28T14:29:26.000Z</time>
      </trkpt>
      <trkpt lat="44.00286" lon="3.50605">
        <ele>935.3</ele>
        <time>2026-05-28T14:29:27.000Z</time>
      </trkpt>
      <trkpt lat="44.00285" lon="3.50604">
        <ele>935</ele>
        <time>2026-05-28T14:29:28.000Z</time>
      </trkpt>
      <trkpt lat="44.00284" lon="3.50603">
        <ele>935.2</ele>
        <time>2026-05-28T14:29:29.000Z</time>
      </trkpt>
      <trkpt lat="44.00284" lon="3.50602">
        <ele>935.2</ele>
        <time>2026-05-28T14:29:30.000Z</time>
      </trkpt>
      <trkpt lat="44.00283" lon="3.506">
        <ele>935.3</ele>
        <time>2026-05-28T14:29:31.000Z</time>
      </trkpt>
      <trkpt lat="44.00283" lon="3.506">
        <ele>935.5</ele>
        <time>2026-05-28T14:29:32.000Z</time>
      </trkpt>
      <trkpt lat="44.00282" lon="3.506">
        <ele>935.6</ele>
        <time>2026-05-28T14:29:33.000Z</time>
      </trkpt>
      <trkpt lat="44.00281" lon="3.506">
        <ele>935.5</ele>
        <time>2026-05-28T14:29:34.000Z</time>
      </trkpt>
      <trkpt lat="44.00281" lon="3.506">
        <ele>935.6</ele>
        <time>2026-05-28T14:29:35.000Z</time>
      </trkpt>
      <trkpt lat="44.0028" lon="3.50599">
        <ele>935.6</ele>
        <time>2026-05-28T14:29:36.000Z</time>
      </trkpt>
      <trkpt lat="44.00279" lon="3.50599">
        <ele>935.4</ele>
        <time>2026-05-28T14:29:37.000Z</time>
      </trkpt>
      <trkpt lat="44.00278" lon="3.506">
        <ele>935.3</ele>
        <time>2026-05-28T14:29:38.000Z</time>
      </trkpt>
      <trkpt lat="44.00277" lon="3.506">
        <ele>935.2</ele>
        <time>2026-05-28T14:29:39.000Z</time>
      </trkpt>
      <trkpt lat="44.00276" lon="3.506">
        <ele>935.3</ele>
        <time>2026-05-28T14:29:40.000Z</time>
      </trkpt>
      <trkpt lat="44.00276" lon="3.50602">
        <ele>935.2</ele>
        <time>2026-05-28T14:29:41.000Z</time>
      </trkpt>
      <trkpt lat="44.00275" lon="3.50602">
        <ele>935.1</ele>
        <time>2026-05-28T14:29:42.000Z</time>
      </trkpt>
      <trkpt lat="44.00274" lon="3.50602">
        <ele>935.4</ele>
        <time>2026-05-28T14:29:43.000Z</time>
      </trkpt>
      <trkpt lat="44.00273" lon="3.50602">
        <ele>935.1</ele>
        <time>2026-05-28T14:29:44.000Z</time>
      </trkpt>
      <trkpt lat="44.00272" lon="3.50601">
        <ele>935</ele>
        <time>2026-05-28T14:29:45.000Z</time>
      </trkpt>
      <trkpt lat="44.00271" lon="3.50601">
        <ele>935</ele>
        <time>2026-05-28T14:29:46.000Z</time>
      </trkpt>
      <trkpt lat="44.00271" lon="3.50601">
        <ele>934.6</ele>
        <time>2026-05-28T14:29:47.000Z</time>
      </trkpt>
      <trkpt lat="44.00272" lon="3.506">
        <ele>934.5</ele>
        <time>2026-05-28T14:29:48.000Z</time>
      </trkpt>
      <trkpt lat="44.00272" lon="3.506">
        <ele>934.4</ele>
        <time>2026-05-28T14:29:49.000Z</time>
      </trkpt>
      <trkpt lat="44.00273" lon="3.506">
        <ele>934.7</ele>
        <time>2026-05-28T14:29:50.000Z</time>
      </trkpt>
      <trkpt lat="44.00273" lon="3.506">
        <ele>934.4</ele>
        <time>2026-05-28T14:29:51.000Z</time>
      </trkpt>
      <trkpt lat="44.00274" lon="3.506">
        <ele>934.1</ele>
        <time>2026-05-28T14:29:52.000Z</time>
      </trkpt>
      <trkpt lat="44.00274" lon="3.506">
        <ele>934</ele>
        <time>2026-05-28T14:29:53.000Z</time>
      </trkpt>
      <trkpt lat="44.00274" lon="3.506">
        <ele>934.2</ele>
        <time>2026-05-28T14:29:54.000Z</time>
      </trkpt>
      <trkpt lat="44.00273" lon="3.506">
        <ele>934</ele>
        <time>2026-05-28T14:29:55.000Z</time>
      </trkpt>
      <trkpt lat="44.00273" lon="3.506">
        <ele>934</ele>
        <time>2026-05-28T14:29:56.000Z</time>
      </trkpt>
      <trkpt lat="44.00273" lon="3.50599">
        <ele>934.1</ele>
        <time>2026-05-28T14:29:57.000Z</time>
      </trkpt>
      <trkpt lat="44.00272" lon="3.50597">
        <ele>934</ele>
        <time>2026-05-28T14:29:58.000Z</time>
      </trkpt>
      <trkpt lat="44.00272" lon="3.50595">
        <ele>933.6</ele>
        <time>2026-05-28T14:29:59.000Z</time>
      </trkpt>
      <trkpt lat="44.00272" lon="3.50592">
        <ele>933.3</ele>
        <time>2026-05-28T14:30:00.000Z</time>
      </trkpt>
      <trkpt lat="44.00271" lon="3.50591">
        <ele>933.1</ele>
        <time>2026-05-28T14:30:01.000Z</time>
      </trkpt>
      <trkpt lat="44.00271" lon="3.5059">
        <ele>933.1</ele>
        <time>2026-05-28T14:30:02.000Z</time>
      </trkpt>
      <trkpt lat="44.0027" lon="3.50589">
        <ele>933</ele>
        <time>2026-05-28T14:30:03.000Z</time>
      </trkpt>
      <trkpt lat="44.0027" lon="3.50588">
        <ele>933</ele>
        <time>2026-05-28T14:30:04.000Z</time>
      </trkpt>
      <trkpt lat="44.0027" lon="3.50587">
        <ele>933</ele>
        <time>2026-05-28T14:30:05.000Z</time>
      </trkpt>
      <trkpt lat="44.0027" lon="3.50585">
        <ele>932.7</ele>
        <time>2026-05-28T14:30:06.000Z</time>
      </trkpt>
      <trkpt lat="44.0027" lon="3.50585">
        <ele>932.2</ele>
        <time>2026-05-28T14:30:07.000Z</time>
      </trkpt>
      <trkpt lat="44.00269" lon="3.50584">
        <ele>931.6</ele>
        <time>2026-05-28T14:30:08.000Z</time>
      </trkpt>
      <trkpt lat="44.00269" lon="3.50584">
        <ele>931.2</ele>
        <time>2026-05-28T14:30:09.000Z</time>
      </trkpt>
      <trkpt lat="44.00268" lon="3.50583">
        <ele>930.9</ele>
        <time>2026-05-28T14:30:10.000Z</time>
      </trkpt>
      <trkpt lat="44.00268" lon="3.50582">
        <ele>931</ele>
        <time>2026-05-28T14:30:11.000Z</time>
      </trkpt>
      <trkpt lat="44.00267" lon="3.50581">
        <ele>930.7</ele>
        <time>2026-05-28T14:30:12.000Z</time>
      </trkpt>
      <trkpt lat="44.00267" lon="3.50581">
        <ele>930.6</ele>
        <time>2026-05-28T14:30:13.000Z</time>
      </trkpt>
      <trkpt lat="44.00266" lon="3.50581">
        <ele>930.3</ele>
        <time>2026-05-28T14:30:14.000Z</time>
      </trkpt>
      <trkpt lat="44.00267" lon="3.5058">
        <ele>930</ele>
        <time>2026-05-28T14:30:15.000Z</time>
      </trkpt>
      <trkpt lat="44.00267" lon="3.5058">
        <ele>929.8</ele>
        <time>2026-05-28T14:30:16.000Z</time>
      </trkpt>
      <trkpt lat="44.00267" lon="3.50579">
        <ele>929.2</ele>
        <time>2026-05-28T14:30:17.000Z</time>
      </trkpt>
      <trkpt lat="44.00267" lon="3.50579">
        <ele>929.3</ele>
        <time>2026-05-28T14:30:18.000Z</time>
      </trkpt>
      <trkpt lat="44.00267" lon="3.50578">
        <ele>929</ele>
        <time>2026-05-28T14:30:19.000Z</time>
      </trkpt>
      <trkpt lat="44.00267" lon="3.50577">
        <ele>928.7</ele>
        <time>2026-05-28T14:30:20.000Z</time>
      </trkpt>
      <trkpt lat="44.00266" lon="3.50576">
        <ele>928.4</ele>
        <time>2026-05-28T14:30:21.000Z</time>
      </trkpt>
      <trkpt lat="44.00266" lon="3.50575">
        <ele>928</ele>
        <time>2026-05-28T14:30:22.000Z</time>
      </trkpt>
      <trkpt lat="44.00266" lon="3.50573">
        <ele>927.6</ele>
        <time>2026-05-28T14:30:23.000Z</time>
      </trkpt>
      <trkpt lat="44.00266" lon="3.50572">
        <ele>927.3</ele>
        <time>2026-05-28T14:30:24.000Z</time>
      </trkpt>
      <trkpt lat="44.00266" lon="3.50572">
        <ele>927</ele>
        <time>2026-05-28T14:30:25.000Z</time>
      </trkpt>
      <trkpt lat="44.00266" lon="3.50571">
        <ele>927.1</ele>
        <time>2026-05-28T14:30:26.000Z</time>
      </trkpt>
      <trkpt lat="44.00266" lon="3.50569">
        <ele>927</ele>
        <time>2026-05-28T14:30:27.000Z</time>
      </trkpt>
      <trkpt lat="44.00266" lon="3.50567">
        <ele>926.8</ele>
        <time>2026-05-28T14:30:28.000Z</time>
      </trkpt>
      <trkpt lat="44.00266" lon="3.50566">
        <ele>926.6</ele>
        <time>2026-05-28T14:30:29.000Z</time>
      </trkpt>
      <trkpt lat="44.00267" lon="3.50565">
        <ele>926.2</ele>
        <time>2026-05-28T14:30:30.000Z</time>
      </trkpt>
      <trkpt lat="44.00267" lon="3.50564">
        <ele>926</ele>
        <time>2026-05-28T14:30:31.000Z</time>
      </trkpt>
      <trkpt lat="44.00267" lon="3.50562">
        <ele>926.2</ele>
        <time>2026-05-28T14:30:32.000Z</time>
      </trkpt>
      <trkpt lat="44.00267" lon="3.50561">
        <ele>926.1</ele>
        <time>2026-05-28T14:30:33.000Z</time>
      </trkpt>
      <trkpt lat="44.00267" lon="3.5056">
        <ele>925.9</ele>
        <time>2026-05-28T14:30:34.000Z</time>
      </trkpt>
      <trkpt lat="44.00267" lon="3.50558">
        <ele>925.4</ele>
        <time>2026-05-28T14:30:35.000Z</time>
      </trkpt>
      <trkpt lat="44.00266" lon="3.50557">
        <ele>925.5</ele>
        <time>2026-05-28T14:30:36.000Z</time>
      </trkpt>
      <trkpt lat="44.00266" lon="3.50555">
        <ele>925.4</ele>
        <time>2026-05-28T14:30:37.000Z</time>
      </trkpt>
      <trkpt lat="44.00266" lon="3.50553">
        <ele>925</ele>
        <time>2026-05-28T14:30:38.000Z</time>
      </trkpt>
      <trkpt lat="44.00266" lon="3.50552">
        <ele>924.8</ele>
        <time>2026-05-28T14:30:39.000Z</time>
      </trkpt>
      <trkpt lat="44.00265" lon="3.50551">
        <ele>924.7</ele>
        <time>2026-05-28T14:30:40.000Z</time>
      </trkpt>
      <trkpt lat="44.00265" lon="3.50549">
        <ele>924.6</ele>
        <time>2026-05-28T14:30:41.000Z</time>
      </trkpt>
      <trkpt lat="44.00264" lon="3.50548">
        <ele>924.5</ele>
        <time>2026-05-28T14:30:42.000Z</time>
      </trkpt>
      <trkpt lat="44.00263" lon="3.50547">
        <ele>924.6</ele>
        <time>2026-05-28T14:30:43.000Z</time>
      </trkpt>
      <trkpt lat="44.00262" lon="3.50546">
        <ele>924.8</ele>
        <time>2026-05-28T14:30:44.000Z</time>
      </trkpt>
      <trkpt lat="44.00261" lon="3.50547">
        <ele>924.8</ele>
        <time>2026-05-28T14:30:45.000Z</time>
      </trkpt>
      <trkpt lat="44.00261" lon="3.50548">
        <ele>924.8</ele>
        <time>2026-05-28T14:30:46.000Z</time>
      </trkpt>
      <trkpt lat="44.0026" lon="3.50549">
        <ele>924.6</ele>
        <time>2026-05-28T14:30:47.000Z</time>
      </trkpt>
      <trkpt lat="44.0026" lon="3.5055">
        <ele>924.4</ele>
        <time>2026-05-28T14:30:48.000Z</time>
      </trkpt>
      <trkpt lat="44.0026" lon="3.5055">
        <ele>924.5</ele>
        <time>2026-05-28T14:30:49.000Z</time>
      </trkpt>
      <trkpt lat="44.0026" lon="3.50549">
        <ele>924.8</ele>
        <time>2026-05-28T14:30:50.000Z</time>
      </trkpt>
      <trkpt lat="44.0026" lon="3.50549">
        <ele>924.7</ele>
        <time>2026-05-28T14:30:51.000Z</time>
      </trkpt>
      <trkpt lat="44.00259" lon="3.50549">
        <ele>924.6</ele>
        <time>2026-05-28T14:30:52.000Z</time>
      </trkpt>
      <trkpt lat="44.00258" lon="3.50548">
        <ele>924.6</ele>
        <time>2026-05-28T14:30:53.000Z</time>
      </trkpt>
      <trkpt lat="44.00258" lon="3.50547">
        <ele>924.4</ele>
        <time>2026-05-28T14:30:54.000Z</time>
      </trkpt>
      <trkpt lat="44.00258" lon="3.50546">
        <ele>924.2</ele>
        <time>2026-05-28T14:30:55.000Z</time>
      </trkpt>
      <trkpt lat="44.00259" lon="3.50544">
        <ele>924.1</ele>
        <time>2026-05-28T14:30:56.000Z</time>
      </trkpt>
      <trkpt lat="44.00259" lon="3.50542">
        <ele>923.8</ele>
        <time>2026-05-28T14:30:57.000Z</time>
      </trkpt>
      <trkpt lat="44.0026" lon="3.50541">
        <ele>923.8</ele>
        <time>2026-05-28T14:30:58.000Z</time>
      </trkpt>
      <trkpt lat="44.0026" lon="3.50539">
        <ele>923.7</ele>
        <time>2026-05-28T14:30:59.000Z</time>
      </trkpt>
      <trkpt lat="44.00261" lon="3.50537">
        <ele>923.4</ele>
        <time>2026-05-28T14:31:00.000Z</time>
      </trkpt>
      <trkpt lat="44.00261" lon="3.50536">
        <ele>923.7</ele>
        <time>2026-05-28T14:31:01.000Z</time>
      </trkpt>
      <trkpt lat="44.00261" lon="3.50535">
        <ele>923.8</ele>
        <time>2026-05-28T14:31:02.000Z</time>
      </trkpt>
      <trkpt lat="44.00261" lon="3.50534">
        <ele>923.6</ele>
        <time>2026-05-28T14:31:03.000Z</time>
      </trkpt>
      <trkpt lat="44.00262" lon="3.50532">
        <ele>923.4</ele>
        <time>2026-05-28T14:31:04.000Z</time>
      </trkpt>
      <trkpt lat="44.00262" lon="3.5053">
        <ele>923.3</ele>
        <time>2026-05-28T14:31:05.000Z</time>
      </trkpt>
      <trkpt lat="44.00262" lon="3.50528">
        <ele>923.3</ele>
        <time>2026-05-28T14:31:06.000Z</time>
      </trkpt>
      <trkpt lat="44.00262" lon="3.50527">
        <ele>923.1</ele>
        <time>2026-05-28T14:31:07.000Z</time>
      </trkpt>
      <trkpt lat="44.00262" lon="3.50525">
        <ele>923.2</ele>
        <time>2026-05-28T14:31:08.000Z</time>
      </trkpt>
      <trkpt lat="44.00262" lon="3.50524">
        <ele>923.4</ele>
        <time>2026-05-28T14:31:09.000Z</time>
      </trkpt>
      <trkpt lat="44.00261" lon="3.50523">
        <ele>923.6</ele>
        <time>2026-05-28T14:31:10.000Z</time>
      </trkpt>
      <trkpt lat="44.00261" lon="3.50522">
        <ele>923.5</ele>
        <time>2026-05-28T14:31:11.000Z</time>
      </trkpt>
      <trkpt lat="44.0026" lon="3.50521">
        <ele>923.3</ele>
        <time>2026-05-28T14:31:12.000Z</time>
      </trkpt>
      <trkpt lat="44.00259" lon="3.5052">
        <ele>923.1</ele>
        <time>2026-05-28T14:31:13.000Z</time>
      </trkpt>
      <trkpt lat="44.00259" lon="3.5052">
        <ele>923.1</ele>
        <time>2026-05-28T14:31:14.000Z</time>
      </trkpt>
      <trkpt lat="44.00259" lon="3.50519">
        <ele>923.2</ele>
        <time>2026-05-28T14:31:15.000Z</time>
      </trkpt>
      <trkpt lat="44.00258" lon="3.50519">
        <ele>923</ele>
        <time>2026-05-28T14:31:16.000Z</time>
      </trkpt>
      <trkpt lat="44.00257" lon="3.50519">
        <ele>923</ele>
        <time>2026-05-28T14:31:17.000Z</time>
      </trkpt>
      <trkpt lat="44.00256" lon="3.50519">
        <ele>923.1</ele>
        <time>2026-05-28T14:31:18.000Z</time>
      </trkpt>
      <trkpt lat="44.00255" lon="3.5052">
        <ele>923</ele>
        <time>2026-05-28T14:31:19.000Z</time>
      </trkpt>
      <trkpt lat="44.00255" lon="3.5052">
        <ele>923.1</ele>
        <time>2026-05-28T14:31:20.000Z</time>
      </trkpt>
      <trkpt lat="44.00254" lon="3.50521">
        <ele>923.1</ele>
        <time>2026-05-28T14:31:21.000Z</time>
      </trkpt>
      <trkpt lat="44.00253" lon="3.50521">
        <ele>922.9</ele>
        <time>2026-05-28T14:31:22.000Z</time>
      </trkpt>
      <trkpt lat="44.00252" lon="3.50521">
        <ele>922.9</ele>
        <time>2026-05-28T14:31:23.000Z</time>
      </trkpt>
      <trkpt lat="44.00251" lon="3.50521">
        <ele>922.7</ele>
        <time>2026-05-28T14:31:24.000Z</time>
      </trkpt>
      <trkpt lat="44.0025" lon="3.5052">
        <ele>922.6</ele>
        <time>2026-05-28T14:31:25.000Z</time>
      </trkpt>
      <trkpt lat="44.0025" lon="3.5052">
        <ele>922.4</ele>
        <time>2026-05-28T14:31:26.000Z</time>
      </trkpt>
      <trkpt lat="44.00249" lon="3.50521">
        <ele>922.2</ele>
        <time>2026-05-28T14:31:27.000Z</time>
      </trkpt>
      <trkpt lat="44.00249" lon="3.50522">
        <ele>922</ele>
        <time>2026-05-28T14:31:28.000Z</time>
      </trkpt>
      <trkpt lat="44.00248" lon="3.50523">
        <ele>921.6</ele>
        <time>2026-05-28T14:31:29.000Z</time>
      </trkpt>
      <trkpt lat="44.00247" lon="3.50524">
        <ele>921.4</ele>
        <time>2026-05-28T14:31:30.000Z</time>
      </trkpt>
      <trkpt lat="44.00247" lon="3.50524">
        <ele>921.2</ele>
        <time>2026-05-28T14:31:31.000Z</time>
      </trkpt>
      <trkpt lat="44.00246" lon="3.50524">
        <ele>921.1</ele>
        <time>2026-05-28T14:31:32.000Z</time>
      </trkpt>
      <trkpt lat="44.00245" lon="3.50525">
        <ele>921.2</ele>
        <time>2026-05-28T14:31:33.000Z</time>
      </trkpt>
      <trkpt lat="44.00245" lon="3.50526">
        <ele>921.1</ele>
        <time>2026-05-28T14:31:34.000Z</time>
      </trkpt>
      <trkpt lat="44.00244" lon="3.50528">
        <ele>920.9</ele>
        <time>2026-05-28T14:31:35.000Z</time>
      </trkpt>
      <trkpt lat="44.00244" lon="3.5053">
        <ele>920.7</ele>
        <time>2026-05-28T14:31:36.000Z</time>
      </trkpt>
      <trkpt lat="44.00244" lon="3.50531">
        <ele>920.4</ele>
        <time>2026-05-28T14:31:37.000Z</time>
      </trkpt>
      <trkpt lat="44.00244" lon="3.50531">
        <ele>920.1</ele>
        <time>2026-05-28T14:31:38.000Z</time>
      </trkpt>
      <trkpt lat="44.00243" lon="3.50531">
        <ele>919.9</ele>
        <time>2026-05-28T14:31:39.000Z</time>
      </trkpt>
      <trkpt lat="44.00243" lon="3.50531">
        <ele>919.7</ele>
        <time>2026-05-28T14:31:40.000Z</time>
      </trkpt>
      <trkpt lat="44.00242" lon="3.50531">
        <ele>919.5</ele>
        <time>2026-05-28T14:31:41.000Z</time>
      </trkpt>
      <trkpt lat="44.00242" lon="3.50531">
        <ele>919.2</ele>
        <time>2026-05-28T14:31:42.000Z</time>
      </trkpt>
      <trkpt lat="44.00241" lon="3.50532">
        <ele>918.8</ele>
        <time>2026-05-28T14:31:43.000Z</time>
      </trkpt>
      <trkpt lat="44.0024" lon="3.50533">
        <ele>918.4</ele>
        <time>2026-05-28T14:31:44.000Z</time>
      </trkpt>
      <trkpt lat="44.00239" lon="3.50535">
        <ele>918.1</ele>
        <time>2026-05-28T14:31:45.000Z</time>
      </trkpt>
      <trkpt lat="44.00238" lon="3.50536">
        <ele>917.7</ele>
        <time>2026-05-28T14:31:46.000Z</time>
      </trkpt>
      <trkpt lat="44.00238" lon="3.50537">
        <ele>917.3</ele>
        <time>2026-05-28T14:31:47.000Z</time>
      </trkpt>
      <trkpt lat="44.00238" lon="3.50539">
        <ele>917.3</ele>
        <time>2026-05-28T14:31:48.000Z</time>
      </trkpt>
      <trkpt lat="44.00238" lon="3.50541">
        <ele>917.1</ele>
        <time>2026-05-28T14:31:49.000Z</time>
      </trkpt>
      <trkpt lat="44.00238" lon="3.50542">
        <ele>917.1</ele>
        <time>2026-05-28T14:31:50.000Z</time>
      </trkpt>
      <trkpt lat="44.00237" lon="3.50544">
        <ele>916.6</ele>
        <time>2026-05-28T14:31:51.000Z</time>
      </trkpt>
      <trkpt lat="44.00237" lon="3.50545">
        <ele>916.2</ele>
        <time>2026-05-28T14:31:52.000Z</time>
      </trkpt>
      <trkpt lat="44.00236" lon="3.50545">
        <ele>915.9</ele>
        <time>2026-05-28T14:31:53.000Z</time>
      </trkpt>
      <trkpt lat="44.00234" lon="3.50546">
        <ele>915.8</ele>
        <time>2026-05-28T14:31:54.000Z</time>
      </trkpt>
      <trkpt lat="44.00233" lon="3.50546">
        <ele>915.9</ele>
        <time>2026-05-28T14:31:55.000Z</time>
      </trkpt>
      <trkpt lat="44.00232" lon="3.50546">
        <ele>916.2</ele>
        <time>2026-05-28T14:31:56.000Z</time>
      </trkpt>
      <trkpt lat="44.00231" lon="3.50546">
        <ele>916.2</ele>
        <time>2026-05-28T14:31:57.000Z</time>
      </trkpt>
      <trkpt lat="44.0023" lon="3.50546">
        <ele>915.8</ele>
        <time>2026-05-28T14:31:58.000Z</time>
      </trkpt>
      <trkpt lat="44.0023" lon="3.50548">
        <ele>915.5</ele>
        <time>2026-05-28T14:31:59.000Z</time>
      </trkpt>
      <trkpt lat="44.00229" lon="3.5055">
        <ele>915.2</ele>
        <time>2026-05-28T14:32:00.000Z</time>
      </trkpt>
      <trkpt lat="44.00229" lon="3.50552">
        <ele>915</ele>
        <time>2026-05-28T14:32:01.000Z</time>
      </trkpt>
      <trkpt lat="44.00228" lon="3.50554">
        <ele>914.9</ele>
        <time>2026-05-28T14:32:02.000Z</time>
      </trkpt>
      <trkpt lat="44.00228" lon="3.50555">
        <ele>915.1</ele>
        <time>2026-05-28T14:32:03.000Z</time>
      </trkpt>
      <trkpt lat="44.00227" lon="3.50556">
        <ele>915</ele>
        <time>2026-05-28T14:32:04.000Z</time>
      </trkpt>
      <trkpt lat="44.00226" lon="3.50556">
        <ele>914.9</ele>
        <time>2026-05-28T14:32:05.000Z</time>
      </trkpt>
      <trkpt lat="44.00226" lon="3.50557">
        <ele>914.7</ele>
        <time>2026-05-28T14:32:06.000Z</time>
      </trkpt>
      <trkpt lat="44.00225" lon="3.50558">
        <ele>914.8</ele>
        <time>2026-05-28T14:32:07.000Z</time>
      </trkpt>
      <trkpt lat="44.00225" lon="3.5056">
        <ele>914.7</ele>
        <time>2026-05-28T14:32:08.000Z</time>
      </trkpt>
      <trkpt lat="44.00225" lon="3.50561">
        <ele>914.5</ele>
        <time>2026-05-28T14:32:09.000Z</time>
      </trkpt>
      <trkpt lat="44.00225" lon="3.50563">
        <ele>914.4</ele>
        <time>2026-05-28T14:32:10.000Z</time>
      </trkpt>
      <trkpt lat="44.00224" lon="3.50564">
        <ele>914.1</ele>
        <time>2026-05-28T14:32:11.000Z</time>
      </trkpt>
      <trkpt lat="44.00224" lon="3.50566">
        <ele>913.9</ele>
        <time>2026-05-28T14:32:12.000Z</time>
      </trkpt>
      <trkpt lat="44.00223" lon="3.50567">
        <ele>913.5</ele>
        <time>2026-05-28T14:32:13.000Z</time>
      </trkpt>
      <trkpt lat="44.00223" lon="3.50568">
        <ele>913.3</ele>
        <time>2026-05-28T14:32:14.000Z</time>
      </trkpt>
      <trkpt lat="44.00222" lon="3.50569">
        <ele>913</ele>
        <time>2026-05-28T14:32:15.000Z</time>
      </trkpt>
      <trkpt lat="44.00221" lon="3.5057">
        <ele>912.9</ele>
        <time>2026-05-28T14:32:16.000Z</time>
      </trkpt>
      <trkpt lat="44.00221" lon="3.50572">
        <ele>913</ele>
        <time>2026-05-28T14:32:17.000Z</time>
      </trkpt>
      <trkpt lat="44.00221" lon="3.50574">
        <ele>912.8</ele>
        <time>2026-05-28T14:32:18.000Z</time>
      </trkpt>
      <trkpt lat="44.00221" lon="3.50575">
        <ele>912.2</ele>
        <time>2026-05-28T14:32:19.000Z</time>
      </trkpt>
      <trkpt lat="44.00221" lon="3.50577">
        <ele>912.1</ele>
        <time>2026-05-28T14:32:20.000Z</time>
      </trkpt>
      <trkpt lat="44.0022" lon="3.50578">
        <ele>911.9</ele>
        <time>2026-05-28T14:32:21.000Z</time>
      </trkpt>
      <trkpt lat="44.0022" lon="3.50579">
        <ele>911.9</ele>
        <time>2026-05-28T14:32:22.000Z</time>
      </trkpt>
      <trkpt lat="44.0022" lon="3.50579">
        <ele>912.1</ele>
        <time>2026-05-28T14:32:23.000Z</time>
      </trkpt>
      <trkpt lat="44.0022" lon="3.50581">
        <ele>911.9</ele>
        <time>2026-05-28T14:32:24.000Z</time>
      </trkpt>
      <trkpt lat="44.00219" lon="3.50583">
        <ele>911.7</ele>
        <time>2026-05-28T14:32:25.000Z</time>
      </trkpt>
      <trkpt lat="44.00219" lon="3.50585">
        <ele>911.9</ele>
        <time>2026-05-28T14:32:26.000Z</time>
      </trkpt>
      <trkpt lat="44.00218" lon="3.50586">
        <ele>912.1</ele>
        <time>2026-05-28T14:32:27.000Z</time>
      </trkpt>
      <trkpt lat="44.00218" lon="3.50588">
        <ele>912.1</ele>
        <time>2026-05-28T14:32:28.000Z</time>
      </trkpt>
      <trkpt lat="44.00218" lon="3.50589">
        <ele>912</ele>
        <time>2026-05-28T14:32:29.000Z</time>
      </trkpt>
      <trkpt lat="44.00218" lon="3.5059">
        <ele>912.2</ele>
        <time>2026-05-28T14:32:30.000Z</time>
      </trkpt>
      <trkpt lat="44.00217" lon="3.50591">
        <ele>912.3</ele>
        <time>2026-05-28T14:32:31.000Z</time>
      </trkpt>
      <trkpt lat="44.00218" lon="3.50591">
        <ele>912.1</ele>
        <time>2026-05-28T14:32:32.000Z</time>
      </trkpt>
      <trkpt lat="44.00217" lon="3.50593">
        <ele>912.1</ele>
        <time>2026-05-28T14:32:33.000Z</time>
      </trkpt>
      <trkpt lat="44.00217" lon="3.50594">
        <ele>911.7</ele>
        <time>2026-05-28T14:32:34.000Z</time>
      </trkpt>
      <trkpt lat="44.00217" lon="3.50595">
        <ele>911.6</ele>
        <time>2026-05-28T14:32:35.000Z</time>
      </trkpt>
      <trkpt lat="44.00218" lon="3.50596">
        <ele>911.4</ele>
        <time>2026-05-28T14:32:36.000Z</time>
      </trkpt>
      <trkpt lat="44.00217" lon="3.50597">
        <ele>911.5</ele>
        <time>2026-05-28T14:32:37.000Z</time>
      </trkpt>
      <trkpt lat="44.00217" lon="3.50598">
        <ele>911.4</ele>
        <time>2026-05-28T14:32:38.000Z</time>
      </trkpt>
      <trkpt lat="44.00216" lon="3.50599">
        <ele>911.4</ele>
        <time>2026-05-28T14:32:39.000Z</time>
      </trkpt>
      <trkpt lat="44.00215" lon="3.506">
        <ele>911.3</ele>
        <time>2026-05-28T14:32:40.000Z</time>
      </trkpt>
      <trkpt lat="44.00215" lon="3.506">
        <ele>910.9</ele>
        <time>2026-05-28T14:32:41.000Z</time>
      </trkpt>
      <trkpt lat="44.00214" lon="3.506">
        <ele>910.6</ele>
        <time>2026-05-28T14:32:42.000Z</time>
      </trkpt>
      <trkpt lat="44.00214" lon="3.50601">
        <ele>910.6</ele>
        <time>2026-05-28T14:32:43.000Z</time>
      </trkpt>
      <trkpt lat="44.00214" lon="3.50602">
        <ele>910.6</ele>
        <time>2026-05-28T14:32:44.000Z</time>
      </trkpt>
      <trkpt lat="44.00213" lon="3.50603">
        <ele>910.3</ele>
        <time>2026-05-28T14:32:45.000Z</time>
      </trkpt>
      <trkpt lat="44.00213" lon="3.50604">
        <ele>910.4</ele>
        <time>2026-05-28T14:32:46.000Z</time>
      </trkpt>
      <trkpt lat="44.00213" lon="3.50604">
        <ele>910.5</ele>
        <time>2026-05-28T14:32:47.000Z</time>
      </trkpt>
      <trkpt lat="44.00212" lon="3.50604">
        <ele>910.6</ele>
        <time>2026-05-28T14:32:48.000Z</time>
      </trkpt>
      <trkpt lat="44.00212" lon="3.50604">
        <ele>910.7</ele>
        <time>2026-05-28T14:32:49.000Z</time>
      </trkpt>
      <trkpt lat="44.00212" lon="3.50604">
        <ele>910.7</ele>
        <time>2026-05-28T14:32:50.000Z</time>
      </trkpt>
      <trkpt lat="44.00212" lon="3.50604">
        <ele>910.6</ele>
        <time>2026-05-28T14:32:51.000Z</time>
      </trkpt>
      <trkpt lat="44.00212" lon="3.50604">
        <ele>910.6</ele>
        <time>2026-05-28T14:32:52.000Z</time>
      </trkpt>
      <trkpt lat="44.00212" lon="3.50604">
        <ele>910.6</ele>
        <time>2026-05-28T14:32:53.000Z</time>
      </trkpt>
      <trkpt lat="44.00212" lon="3.50604">
        <ele>910.5</ele>
        <time>2026-05-28T14:32:54.000Z</time>
      </trkpt>
      <trkpt lat="44.00212" lon="3.50604">
        <ele>910.4</ele>
        <time>2026-05-28T14:32:55.000Z</time>
      </trkpt>
      <trkpt lat="44.00212" lon="3.50604">
        <ele>910.4</ele>
        <time>2026-05-28T14:32:56.000Z</time>
      </trkpt>
      <trkpt lat="44.00212" lon="3.50604">
        <ele>910.2</ele>
        <time>2026-05-28T14:32:57.000Z</time>
      </trkpt>
      <trkpt lat="44.00212" lon="3.50604">
        <ele>910</ele>
        <time>2026-05-28T14:32:58.000Z</time>
      </trkpt>
      <trkpt lat="44.00212" lon="3.50604">
        <ele>909.8</ele>
        <time>2026-05-28T14:32:59.000Z</time>
      </trkpt>
      <trkpt lat="44.00212" lon="3.50604">
        <ele>909.7</ele>
        <time>2026-05-28T14:33:00.000Z</time>
      </trkpt>
      <trkpt lat="44.00212" lon="3.50604">
        <ele>909.6</ele>
        <time>2026-05-28T14:33:01.000Z</time>
      </trkpt>
      <trkpt lat="44.00212" lon="3.50605">
        <ele>909.3</ele>
        <time>2026-05-28T14:33:02.000Z</time>
      </trkpt>
      <trkpt lat="44.00212" lon="3.50605">
        <ele>909</ele>
        <time>2026-05-28T14:33:03.000Z</time>
      </trkpt>
      <trkpt lat="44.00212" lon="3.50605">
        <ele>908.8</ele>
        <time>2026-05-28T14:33:04.000Z</time>
      </trkpt>
      <trkpt lat="44.00212" lon="3.50605">
        <ele>908.6</ele>
        <time>2026-05-28T14:33:05.000Z</time>
      </trkpt>
      <trkpt lat="44.00212" lon="3.50605">
        <ele>908.3</ele>
        <time>2026-05-28T14:33:06.000Z</time>
      </trkpt>
      <trkpt lat="44.00212" lon="3.50605">
        <ele>908.4</ele>
        <time>2026-05-28T14:33:07.000Z</time>
      </trkpt>
      <trkpt lat="44.00212" lon="3.50605">
        <ele>908.2</ele>
        <time>2026-05-28T14:33:08.000Z</time>
      </trkpt>
      <trkpt lat="44.00212" lon="3.50605">
        <ele>908.2</ele>
        <time>2026-05-28T14:33:09.000Z</time>
      </trkpt>
      <trkpt lat="44.00212" lon="3.50605">
        <ele>908.3</ele>
        <time>2026-05-28T14:33:10.000Z</time>
      </trkpt>
      <trkpt lat="44.00212" lon="3.50605">
        <ele>908.3</ele>
        <time>2026-05-28T14:33:11.000Z</time>
      </trkpt>
      <trkpt lat="44.00211" lon="3.50606">
        <ele>908.4</ele>
        <time>2026-05-28T14:33:12.000Z</time>
      </trkpt>
      <trkpt lat="44.00211" lon="3.50607">
        <ele>908.4</ele>
        <time>2026-05-28T14:33:13.000Z</time>
      </trkpt>
      <trkpt lat="44.0021" lon="3.50608">
        <ele>908.6</ele>
        <time>2026-05-28T14:33:14.000Z</time>
      </trkpt>
      <trkpt lat="44.0021" lon="3.50608">
        <ele>908.8</ele>
        <time>2026-05-28T14:33:15.000Z</time>
      </trkpt>
      <trkpt lat="44.00209" lon="3.50608">
        <ele>908.8</ele>
        <time>2026-05-28T14:33:16.000Z</time>
      </trkpt>
      <trkpt lat="44.00209" lon="3.50609">
        <ele>908.8</ele>
        <time>2026-05-28T14:33:17.000Z</time>
      </trkpt>
      <trkpt lat="44.00209" lon="3.50609">
        <ele>908.8</ele>
        <time>2026-05-28T14:33:18.000Z</time>
      </trkpt>
      <trkpt lat="44.00208" lon="3.50608">
        <ele>908.7</ele>
        <time>2026-05-28T14:33:19.000Z</time>
      </trkpt>
      <trkpt lat="44.00209" lon="3.50608">
        <ele>908.8</ele>
        <time>2026-05-28T14:33:20.000Z</time>
      </trkpt>
      <trkpt lat="44.00209" lon="3.50608">
        <ele>909</ele>
        <time>2026-05-28T14:33:21.000Z</time>
      </trkpt>
      <trkpt lat="44.00209" lon="3.50607">
        <ele>909.2</ele>
        <time>2026-05-28T14:33:22.000Z</time>
      </trkpt>
      <trkpt lat="44.00208" lon="3.50606">
        <ele>909.4</ele>
        <time>2026-05-28T14:33:23.000Z</time>
      </trkpt>
      <trkpt lat="44.00208" lon="3.50606">
        <ele>909.4</ele>
        <time>2026-05-28T14:33:24.000Z</time>
      </trkpt>
      <trkpt lat="44.00208" lon="3.50605">
        <ele>909.4</ele>
        <time>2026-05-28T14:33:25.000Z</time>
      </trkpt>
      <trkpt lat="44.00207" lon="3.50604">
        <ele>909.4</ele>
        <time>2026-05-28T14:33:26.000Z</time>
      </trkpt>
      <trkpt lat="44.00207" lon="3.50604">
        <ele>909.4</ele>
        <time>2026-05-28T14:33:27.000Z</time>
      </trkpt>
      <trkpt lat="44.00207" lon="3.50604">
        <ele>909.6</ele>
        <time>2026-05-28T14:33:28.000Z</time>
      </trkpt>
      <trkpt lat="44.00207" lon="3.50603">
        <ele>909.4</ele>
        <time>2026-05-28T14:33:29.000Z</time>
      </trkpt>
      <trkpt lat="44.00206" lon="3.50602">
        <ele>909.3</ele>
        <time>2026-05-28T14:33:30.000Z</time>
      </trkpt>
      <trkpt lat="44.00206" lon="3.50601">
        <ele>909.1</ele>
        <time>2026-05-28T14:33:31.000Z</time>
      </trkpt>
      <trkpt lat="44.00206" lon="3.506">
        <ele>909</ele>
        <time>2026-05-28T14:33:32.000Z</time>
      </trkpt>
      <trkpt lat="44.00206" lon="3.50599">
        <ele>908.9</ele>
        <time>2026-05-28T14:33:33.000Z</time>
      </trkpt>
      <trkpt lat="44.00206" lon="3.50598">
        <ele>908.6</ele>
        <time>2026-05-28T14:33:34.000Z</time>
      </trkpt>
      <trkpt lat="44.00205" lon="3.50597">
        <ele>908.4</ele>
        <time>2026-05-28T14:33:35.000Z</time>
      </trkpt>
      <trkpt lat="44.00204" lon="3.50596">
        <ele>908.2</ele>
        <time>2026-05-28T14:33:36.000Z</time>
      </trkpt>
      <trkpt lat="44.00204" lon="3.50594">
        <ele>908.1</ele>
        <time>2026-05-28T14:33:37.000Z</time>
      </trkpt>
      <trkpt lat="44.00203" lon="3.50593">
        <ele>908</ele>
        <time>2026-05-28T14:33:38.000Z</time>
      </trkpt>
      <trkpt lat="44.00203" lon="3.50591">
        <ele>907.9</ele>
        <time>2026-05-28T14:33:39.000Z</time>
      </trkpt>
      <trkpt lat="44.00203" lon="3.5059">
        <ele>907.6</ele>
        <time>2026-05-28T14:33:40.000Z</time>
      </trkpt>
      <trkpt lat="44.00202" lon="3.50589">
        <ele>907.7</ele>
        <time>2026-05-28T14:33:41.000Z</time>
      </trkpt>
      <trkpt lat="44.00202" lon="3.50589">
        <ele>908</ele>
        <time>2026-05-28T14:33:42.000Z</time>
      </trkpt>
      <trkpt lat="44.00202" lon="3.50588">
        <ele>908</ele>
        <time>2026-05-28T14:33:43.000Z</time>
      </trkpt>
      <trkpt lat="44.00202" lon="3.50589">
        <ele>907.6</ele>
        <time>2026-05-28T14:33:44.000Z</time>
      </trkpt>
      <trkpt lat="44.00201" lon="3.50589">
        <ele>907.7</ele>
        <time>2026-05-28T14:33:45.000Z</time>
      </trkpt>
      <trkpt lat="44.002" lon="3.50588">
        <ele>907.5</ele>
        <time>2026-05-28T14:33:46.000Z</time>
      </trkpt>
      <trkpt lat="44.00199" lon="3.50589">
        <ele>907.5</ele>
        <time>2026-05-28T14:33:47.000Z</time>
      </trkpt>
      <trkpt lat="44.00198" lon="3.50588">
        <ele>907.8</ele>
        <time>2026-05-28T14:33:48.000Z</time>
      </trkpt>
      <trkpt lat="44.00196" lon="3.50587">
        <ele>907.5</ele>
        <time>2026-05-28T14:33:49.000Z</time>
      </trkpt>
      <trkpt lat="44.00195" lon="3.50585">
        <ele>907</ele>
        <time>2026-05-28T14:33:50.000Z</time>
      </trkpt>
      <trkpt lat="44.00194" lon="3.50583">
        <ele>906.9</ele>
        <time>2026-05-28T14:33:51.000Z</time>
      </trkpt>
      <trkpt lat="44.00194" lon="3.50583">
        <ele>906.6</ele>
        <time>2026-05-28T14:33:52.000Z</time>
      </trkpt>
      <trkpt lat="44.00194" lon="3.50583">
        <ele>906.4</ele>
        <time>2026-05-28T14:33:53.000Z</time>
      </trkpt>
      <trkpt lat="44.00194" lon="3.50584">
        <ele>906</ele>
        <time>2026-05-28T14:33:54.000Z</time>
      </trkpt>
      <trkpt lat="44.00194" lon="3.50585">
        <ele>905.7</ele>
        <time>2026-05-28T14:33:55.000Z</time>
      </trkpt>
      <trkpt lat="44.00193" lon="3.50587">
        <ele>905.6</ele>
        <time>2026-05-28T14:33:56.000Z</time>
      </trkpt>
      <trkpt lat="44.00194" lon="3.50589">
        <ele>905.2</ele>
        <time>2026-05-28T14:33:57.000Z</time>
      </trkpt>
      <trkpt lat="44.00194" lon="3.50591">
        <ele>904.8</ele>
        <time>2026-05-28T14:33:58.000Z</time>
      </trkpt>
      <trkpt lat="44.00194" lon="3.50592">
        <ele>904.1</ele>
        <time>2026-05-28T14:33:59.000Z</time>
      </trkpt>
      <trkpt lat="44.00195" lon="3.50594">
        <ele>904.1</ele>
        <time>2026-05-28T14:34:00.000Z</time>
      </trkpt>
      <trkpt lat="44.00195" lon="3.50595">
        <ele>904.1</ele>
        <time>2026-05-28T14:34:01.000Z</time>
      </trkpt>
      <trkpt lat="44.00195" lon="3.50596">
        <ele>903.9</ele>
        <time>2026-05-28T14:34:02.000Z</time>
      </trkpt>
      <trkpt lat="44.00196" lon="3.50597">
        <ele>903.9</ele>
        <time>2026-05-28T14:34:03.000Z</time>
      </trkpt>
      <trkpt lat="44.00196" lon="3.50597">
        <ele>903.9</ele>
        <time>2026-05-28T14:34:04.000Z</time>
      </trkpt>
      <trkpt lat="44.00196" lon="3.50597">
        <ele>904.3</ele>
        <time>2026-05-28T14:34:05.000Z</time>
      </trkpt>
      <trkpt lat="44.00196" lon="3.50597">
        <ele>904.4</ele>
        <time>2026-05-28T14:34:06.000Z</time>
      </trkpt>
      <trkpt lat="44.00196" lon="3.50598">
        <ele>904.7</ele>
        <time>2026-05-28T14:34:07.000Z</time>
      </trkpt>
      <trkpt lat="44.00195" lon="3.50599">
        <ele>905.2</ele>
        <time>2026-05-28T14:34:08.000Z</time>
      </trkpt>
      <trkpt lat="44.00196" lon="3.50601">
        <ele>905.6</ele>
        <time>2026-05-28T14:34:09.000Z</time>
      </trkpt>
      <trkpt lat="44.00196" lon="3.50603">
        <ele>905.6</ele>
        <time>2026-05-28T14:34:10.000Z</time>
      </trkpt>
      <trkpt lat="44.00196" lon="3.50605">
        <ele>905.3</ele>
        <time>2026-05-28T14:34:11.000Z</time>
      </trkpt>
      <trkpt lat="44.00195" lon="3.50606">
        <ele>905.2</ele>
        <time>2026-05-28T14:34:12.000Z</time>
      </trkpt>
      <trkpt lat="44.00194" lon="3.50606">
        <ele>905.2</ele>
        <time>2026-05-28T14:34:13.000Z</time>
      </trkpt>
      <trkpt lat="44.00193" lon="3.50605">
        <ele>905.2</ele>
        <time>2026-05-28T14:34:14.000Z</time>
      </trkpt>
      <trkpt lat="44.00193" lon="3.50603">
        <ele>905.1</ele>
        <time>2026-05-28T14:34:15.000Z</time>
      </trkpt>
      <trkpt lat="44.00192" lon="3.50601">
        <ele>904.7</ele>
        <time>2026-05-28T14:34:16.000Z</time>
      </trkpt>
      <trkpt lat="44.00192" lon="3.50599">
        <ele>904.2</ele>
        <time>2026-05-28T14:34:17.000Z</time>
      </trkpt>
      <trkpt lat="44.00191" lon="3.50597">
        <ele>903.9</ele>
        <time>2026-05-28T14:34:18.000Z</time>
      </trkpt>
      <trkpt lat="44.00191" lon="3.50596">
        <ele>903.7</ele>
        <time>2026-05-28T14:34:19.000Z</time>
      </trkpt>
      <trkpt lat="44.0019" lon="3.50595">
        <ele>903.5</ele>
        <time>2026-05-28T14:34:20.000Z</time>
      </trkpt>
      <trkpt lat="44.0019" lon="3.50593">
        <ele>903.3</ele>
        <time>2026-05-28T14:34:21.000Z</time>
      </trkpt>
      <trkpt lat="44.00189" lon="3.50592">
        <ele>903.3</ele>
        <time>2026-05-28T14:34:22.000Z</time>
      </trkpt>
      <trkpt lat="44.00189" lon="3.50591">
        <ele>903.5</ele>
        <time>2026-05-28T14:34:23.000Z</time>
      </trkpt>
      <trkpt lat="44.00189" lon="3.50591">
        <ele>903.4</ele>
        <time>2026-05-28T14:34:24.000Z</time>
      </trkpt>
      <trkpt lat="44.00188" lon="3.50591">
        <ele>903.3</ele>
        <time>2026-05-28T14:34:25.000Z</time>
      </trkpt>
      <trkpt lat="44.00188" lon="3.50593">
        <ele>902.8</ele>
        <time>2026-05-28T14:34:26.000Z</time>
      </trkpt>
      <trkpt lat="44.00187" lon="3.50594">
        <ele>902.5</ele>
        <time>2026-05-28T14:34:27.000Z</time>
      </trkpt>
      <trkpt lat="44.00187" lon="3.50595">
        <ele>902.5</ele>
        <time>2026-05-28T14:34:28.000Z</time>
      </trkpt>
      <trkpt lat="44.00187" lon="3.50597">
        <ele>902.2</ele>
        <time>2026-05-28T14:34:29.000Z</time>
      </trkpt>
      <trkpt lat="44.00187" lon="3.50598">
        <ele>901.9</ele>
        <time>2026-05-28T14:34:30.000Z</time>
      </trkpt>
      <trkpt lat="44.00187" lon="3.506">
        <ele>901.4</ele>
        <time>2026-05-28T14:34:31.000Z</time>
      </trkpt>
      <trkpt lat="44.00187" lon="3.50602">
        <ele>901.1</ele>
        <time>2026-05-28T14:34:32.000Z</time>
      </trkpt>
      <trkpt lat="44.00187" lon="3.50604">
        <ele>901</ele>
        <time>2026-05-28T14:34:33.000Z</time>
      </trkpt>
      <trkpt lat="44.00188" lon="3.50605">
        <ele>900.9</ele>
        <time>2026-05-28T14:34:34.000Z</time>
      </trkpt>
      <trkpt lat="44.00188" lon="3.50606">
        <ele>900.7</ele>
        <time>2026-05-28T14:34:35.000Z</time>
      </trkpt>
      <trkpt lat="44.00188" lon="3.50607">
        <ele>901</ele>
        <time>2026-05-28T14:34:36.000Z</time>
      </trkpt>
      <trkpt lat="44.00188" lon="3.50607">
        <ele>900.9</ele>
        <time>2026-05-28T14:34:37.000Z</time>
      </trkpt>
      <trkpt lat="44.00188" lon="3.50609">
        <ele>901.2</ele>
        <time>2026-05-28T14:34:38.000Z</time>
      </trkpt>
      <trkpt lat="44.00188" lon="3.5061">
        <ele>901</ele>
        <time>2026-05-28T14:34:39.000Z</time>
      </trkpt>
      <trkpt lat="44.00188" lon="3.5061">
        <ele>900.9</ele>
        <time>2026-05-28T14:34:40.000Z</time>
      </trkpt>
      <trkpt lat="44.00189" lon="3.50611">
        <ele>900.7</ele>
        <time>2026-05-28T14:34:41.000Z</time>
      </trkpt>
      <trkpt lat="44.00189" lon="3.50612">
        <ele>900.7</ele>
        <time>2026-05-28T14:34:42.000Z</time>
      </trkpt>
      <trkpt lat="44.00189" lon="3.50614">
        <ele>900.3</ele>
        <time>2026-05-28T14:34:43.000Z</time>
      </trkpt>
      <trkpt lat="44.00188" lon="3.50616">
        <ele>900</ele>
        <time>2026-05-28T14:34:44.000Z</time>
      </trkpt>
      <trkpt lat="44.00188" lon="3.50617">
        <ele>899.9</ele>
        <time>2026-05-28T14:34:45.000Z</time>
      </trkpt>
      <trkpt lat="44.00188" lon="3.50617">
        <ele>899.6</ele>
        <time>2026-05-28T14:34:46.000Z</time>
      </trkpt>
      <trkpt lat="44.00188" lon="3.50618">
        <ele>899.1</ele>
        <time>2026-05-28T14:34:47.000Z</time>
      </trkpt>
      <trkpt lat="44.00187" lon="3.50619">
        <ele>898.7</ele>
        <time>2026-05-28T14:34:48.000Z</time>
      </trkpt>
      <trkpt lat="44.00187" lon="3.50619">
        <ele>898.4</ele>
        <time>2026-05-28T14:34:49.000Z</time>
      </trkpt>
      <trkpt lat="44.00187" lon="3.50621">
        <ele>897.9</ele>
        <time>2026-05-28T14:34:50.000Z</time>
      </trkpt>
      <trkpt lat="44.00188" lon="3.50623">
        <ele>897.4</ele>
        <time>2026-05-28T14:34:51.000Z</time>
      </trkpt>
      <trkpt lat="44.00188" lon="3.50624">
        <ele>897</ele>
        <time>2026-05-28T14:34:52.000Z</time>
      </trkpt>
      <trkpt lat="44.00188" lon="3.50626">
        <ele>896.7</ele>
        <time>2026-05-28T14:34:53.000Z</time>
      </trkpt>
      <trkpt lat="44.00188" lon="3.50627">
        <ele>896.4</ele>
        <time>2026-05-28T14:34:54.000Z</time>
      </trkpt>
      <trkpt lat="44.00188" lon="3.50629">
        <ele>896.1</ele>
        <time>2026-05-28T14:34:55.000Z</time>
      </trkpt>
      <trkpt lat="44.00189" lon="3.50631">
        <ele>895.9</ele>
        <time>2026-05-28T14:34:56.999Z</time>
      </trkpt>
      <trkpt lat="44.00189" lon="3.50632">
        <ele>896.3</ele>
        <time>2026-05-28T14:34:57.999Z</time>
      </trkpt>
      <trkpt lat="44.00189" lon="3.50633">
        <ele>896.6</ele>
        <time>2026-05-28T14:34:58.999Z</time>
      </trkpt>
      <trkpt lat="44.0019" lon="3.50634">
        <ele>896.3</ele>
        <time>2026-05-28T14:34:59.999Z</time>
      </trkpt>
      <trkpt lat="44.0019" lon="3.50635">
        <ele>896.2</ele>
        <time>2026-05-28T14:35:00.999Z</time>
      </trkpt>
      <trkpt lat="44.0019" lon="3.50636">
        <ele>895.6</ele>
        <time>2026-05-28T14:35:01.999Z</time>
      </trkpt>
      <trkpt lat="44.00189" lon="3.50636">
        <ele>895.1</ele>
        <time>2026-05-28T14:35:02.999Z</time>
      </trkpt>
      <trkpt lat="44.00189" lon="3.50636">
        <ele>895.2</ele>
        <time>2026-05-28T14:35:03.999Z</time>
      </trkpt>
      <trkpt lat="44.00189" lon="3.50637">
        <ele>895</ele>
        <time>2026-05-28T14:35:04.999Z</time>
      </trkpt>
      <trkpt lat="44.0019" lon="3.50638">
        <ele>894.9</ele>
        <time>2026-05-28T14:35:05.999Z</time>
      </trkpt>
      <trkpt lat="44.00189" lon="3.50638">
        <ele>895.1</ele>
        <time>2026-05-28T14:35:06.999Z</time>
      </trkpt>
      <trkpt lat="44.00189" lon="3.50639">
        <ele>894.9</ele>
        <time>2026-05-28T14:35:07.999Z</time>
      </trkpt>
      <trkpt lat="44.00189" lon="3.5064">
        <ele>894.7</ele>
        <time>2026-05-28T14:35:08.999Z</time>
      </trkpt>
      <trkpt lat="44.00189" lon="3.5064">
        <ele>894.5</ele>
        <time>2026-05-28T14:35:09.999Z</time>
      </trkpt>
      <trkpt lat="44.00189" lon="3.5064">
        <ele>894.8</ele>
        <time>2026-05-28T14:35:10.999Z</time>
      </trkpt>
      <trkpt lat="44.00189" lon="3.50641">
        <ele>894.8</ele>
        <time>2026-05-28T14:35:11.999Z</time>
      </trkpt>
      <trkpt lat="44.00189" lon="3.50641">
        <ele>894.8</ele>
        <time>2026-05-28T14:35:12.999Z</time>
      </trkpt>
      <trkpt lat="44.00189" lon="3.50641">
        <ele>894.4</ele>
        <time>2026-05-28T14:35:13.999Z</time>
      </trkpt>
      <trkpt lat="44.00189" lon="3.50641">
        <ele>894.5</ele>
        <time>2026-05-28T14:35:14.999Z</time>
      </trkpt>
      <trkpt lat="44.00188" lon="3.50643">
        <ele>894.3</ele>
        <time>2026-05-28T14:35:16.999Z</time>
      </trkpt>
      <trkpt lat="44.00188" lon="3.50645">
        <ele>894.6</ele>
        <time>2026-05-28T14:35:17.999Z</time>
      </trkpt>
      <trkpt lat="44.00187" lon="3.50647">
        <ele>894.3</ele>
        <time>2026-05-28T14:35:18.999Z</time>
      </trkpt>
      <trkpt lat="44.00187" lon="3.50649">
        <ele>894.3</ele>
        <time>2026-05-28T14:35:19.999Z</time>
      </trkpt>
      <trkpt lat="44.00187" lon="3.5065">
        <ele>894.2</ele>
        <time>2026-05-28T14:35:20.999Z</time>
      </trkpt>
      <trkpt lat="44.00186" lon="3.50652">
        <ele>893.8</ele>
        <time>2026-05-28T14:35:21.999Z</time>
      </trkpt>
      <trkpt lat="44.00186" lon="3.50654">
        <ele>894</ele>
        <time>2026-05-28T14:35:22.999Z</time>
      </trkpt>
      <trkpt lat="44.00186" lon="3.50656">
        <ele>893.8</ele>
        <time>2026-05-28T14:35:23.999Z</time>
      </trkpt>
      <trkpt lat="44.00186" lon="3.50658">
        <ele>893.7</ele>
        <time>2026-05-28T14:35:24.999Z</time>
      </trkpt>
      <trkpt lat="44.00186" lon="3.5066">
        <ele>893.7</ele>
        <time>2026-05-28T14:35:25.999Z</time>
      </trkpt>
      <trkpt lat="44.00186" lon="3.50663">
        <ele>893.6</ele>
        <time>2026-05-28T14:35:26.999Z</time>
      </trkpt>
      <trkpt lat="44.00187" lon="3.50665">
        <ele>893.1</ele>
        <time>2026-05-28T14:35:27.999Z</time>
      </trkpt>
      <trkpt lat="44.00188" lon="3.50666">
        <ele>892.7</ele>
        <time>2026-05-28T14:35:28.999Z</time>
      </trkpt>
      <trkpt lat="44.00188" lon="3.50667">
        <ele>892.2</ele>
        <time>2026-05-28T14:35:29.999Z</time>
      </trkpt>
      <trkpt lat="44.00189" lon="3.50668">
        <ele>892.1</ele>
        <time>2026-05-28T14:35:30.999Z</time>
      </trkpt>
      <trkpt lat="44.00189" lon="3.5067">
        <ele>891.9</ele>
        <time>2026-05-28T14:35:31.999Z</time>
      </trkpt>
      <trkpt lat="44.00189" lon="3.50671">
        <ele>891.6</ele>
        <time>2026-05-28T14:35:32.999Z</time>
      </trkpt>
      <trkpt lat="44.0019" lon="3.50673">
        <ele>891.8</ele>
        <time>2026-05-28T14:35:33.999Z</time>
      </trkpt>
      <trkpt lat="44.0019" lon="3.50675">
        <ele>891.3</ele>
        <time>2026-05-28T14:35:34.999Z</time>
      </trkpt>
      <trkpt lat="44.0019" lon="3.50676">
        <ele>891.1</ele>
        <time>2026-05-28T14:35:35.999Z</time>
      </trkpt>
      <trkpt lat="44.00191" lon="3.50678">
        <ele>890.8</ele>
        <time>2026-05-28T14:35:36.999Z</time>
      </trkpt>
      <trkpt lat="44.00191" lon="3.50679">
        <ele>890.9</ele>
        <time>2026-05-28T14:35:37.999Z</time>
      </trkpt>
      <trkpt lat="44.00191" lon="3.50679">
        <ele>890.9</ele>
        <time>2026-05-28T14:35:38.999Z</time>
      </trkpt>
      <trkpt lat="44.00191" lon="3.50679">
        <ele>891.1</ele>
        <time>2026-05-28T14:35:39.999Z</time>
      </trkpt>
      <trkpt lat="44.00191" lon="3.5068">
        <ele>890.9</ele>
        <time>2026-05-28T14:35:40.999Z</time>
      </trkpt>
      <trkpt lat="44.0019" lon="3.50681">
        <ele>890.5</ele>
        <time>2026-05-28T14:35:41.999Z</time>
      </trkpt>
      <trkpt lat="44.0019" lon="3.50683">
        <ele>890.3</ele>
        <time>2026-05-28T14:35:42.999Z</time>
      </trkpt>
      <trkpt lat="44.0019" lon="3.50684">
        <ele>890.2</ele>
        <time>2026-05-28T14:35:43.999Z</time>
      </trkpt>
      <trkpt lat="44.0019" lon="3.50685">
        <ele>890.3</ele>
        <time>2026-05-28T14:35:44.999Z</time>
      </trkpt>
      <trkpt lat="44.0019" lon="3.50686">
        <ele>890.1</ele>
        <time>2026-05-28T14:35:45.999Z</time>
      </trkpt>
      <trkpt lat="44.00189" lon="3.50687">
        <ele>890</ele>
        <time>2026-05-28T14:35:46.999Z</time>
      </trkpt>
      <trkpt lat="44.00189" lon="3.50688">
        <ele>889.9</ele>
        <time>2026-05-28T14:35:47.999Z</time>
      </trkpt>
      <trkpt lat="44.00188" lon="3.50689">
        <ele>889.7</ele>
        <time>2026-05-28T14:35:48.999Z</time>
      </trkpt>
      <trkpt lat="44.00188" lon="3.50691">
        <ele>889.9</ele>
        <time>2026-05-28T14:35:49.999Z</time>
      </trkpt>
      <trkpt lat="44.00187" lon="3.50693">
        <ele>890.1</ele>
        <time>2026-05-28T14:35:50.999Z</time>
      </trkpt>
      <trkpt lat="44.00187" lon="3.50695">
        <ele>890</ele>
        <time>2026-05-28T14:35:51.999Z</time>
      </trkpt>
      <trkpt lat="44.00186" lon="3.50696">
        <ele>889.9</ele>
        <time>2026-05-28T14:35:52.999Z</time>
      </trkpt>
      <trkpt lat="44.00186" lon="3.50697">
        <ele>889.7</ele>
        <time>2026-05-28T14:35:53.999Z</time>
      </trkpt>
      <trkpt lat="44.00186" lon="3.50699">
        <ele>889.4</ele>
        <time>2026-05-28T14:35:54.999Z</time>
      </trkpt>
      <trkpt lat="44.00187" lon="3.50699">
        <ele>889.2</ele>
        <time>2026-05-28T14:35:55.999Z</time>
      </trkpt>
      <trkpt lat="44.00187" lon="3.50701">
        <ele>889.3</ele>
        <time>2026-05-28T14:35:56.999Z</time>
      </trkpt>
      <trkpt lat="44.00188" lon="3.50701">
        <ele>889.1</ele>
        <time>2026-05-28T14:35:57.999Z</time>
      </trkpt>
      <trkpt lat="44.00187" lon="3.50702">
        <ele>889</ele>
        <time>2026-05-28T14:35:58.999Z</time>
      </trkpt>
      <trkpt lat="44.00187" lon="3.50703">
        <ele>889.3</ele>
        <time>2026-05-28T14:35:59.999Z</time>
      </trkpt>
      <trkpt lat="44.00187" lon="3.50703">
        <ele>889.4</ele>
        <time>2026-05-28T14:36:00.999Z</time>
      </trkpt>
      <trkpt lat="44.00187" lon="3.50703">
        <ele>889.1</ele>
        <time>2026-05-28T14:36:01.999Z</time>
      </trkpt>
      <trkpt lat="44.00187" lon="3.50703">
        <ele>888.7</ele>
        <time>2026-05-28T14:36:02.999Z</time>
      </trkpt>
      <trkpt lat="44.00187" lon="3.50703">
        <ele>888.4</ele>
        <time>2026-05-28T14:36:03.999Z</time>
      </trkpt>
      <trkpt lat="44.00187" lon="3.50703">
        <ele>888.3</ele>
        <time>2026-05-28T14:36:04.999Z</time>
      </trkpt>
      <trkpt lat="44.00187" lon="3.50703">
        <ele>888.2</ele>
        <time>2026-05-28T14:36:05.999Z</time>
      </trkpt>
      <trkpt lat="44.00187" lon="3.50702">
        <ele>888.2</ele>
        <time>2026-05-28T14:36:06.999Z</time>
      </trkpt>
      <trkpt lat="44.00187" lon="3.50702">
        <ele>888.1</ele>
        <time>2026-05-28T14:36:07.999Z</time>
      </trkpt>
      <trkpt lat="44.00187" lon="3.50703">
        <ele>887.6</ele>
        <time>2026-05-28T14:36:08.999Z</time>
      </trkpt>
      <trkpt lat="44.00188" lon="3.50703">
        <ele>887.1</ele>
        <time>2026-05-28T14:36:09.999Z</time>
      </trkpt>
      <trkpt lat="44.00188" lon="3.50703">
        <ele>886.9</ele>
        <time>2026-05-28T14:36:10.999Z</time>
      </trkpt>
      <trkpt lat="44.00188" lon="3.50703">
        <ele>886.7</ele>
        <time>2026-05-28T14:36:11.999Z</time>
      </trkpt>
      <trkpt lat="44.00188" lon="3.50703">
        <ele>886.5</ele>
        <time>2026-05-28T14:36:12.999Z</time>
      </trkpt>
      <trkpt lat="44.00188" lon="3.50703">
        <ele>886.4</ele>
        <time>2026-05-28T14:36:13.999Z</time>
      </trkpt>
      <trkpt lat="44.00188" lon="3.50703">
        <ele>886.2</ele>
        <time>2026-05-28T14:36:14.999Z</time>
      </trkpt>
      <trkpt lat="44.00189" lon="3.50704">
        <ele>885.8</ele>
        <time>2026-05-28T14:36:15.999Z</time>
      </trkpt>
      <trkpt lat="44.0019" lon="3.50705">
        <ele>885.6</ele>
        <time>2026-05-28T14:36:16.999Z</time>
      </trkpt>
      <trkpt lat="44.00191" lon="3.50705">
        <ele>885.4</ele>
        <time>2026-05-28T14:36:17.999Z</time>
      </trkpt>
      <trkpt lat="44.00191" lon="3.50705">
        <ele>885.3</ele>
        <time>2026-05-28T14:36:18.999Z</time>
      </trkpt>
      <trkpt lat="44.00191" lon="3.50706">
        <ele>885.3</ele>
        <time>2026-05-28T14:36:19.999Z</time>
      </trkpt>
      <trkpt lat="44.00192" lon="3.50707">
        <ele>885.5</ele>
        <time>2026-05-28T14:36:20.999Z</time>
      </trkpt>
      <trkpt lat="44.00192" lon="3.50707">
        <ele>885.5</ele>
        <time>2026-05-28T14:36:21.999Z</time>
      </trkpt>
      <trkpt lat="44.00193" lon="3.50708">
        <ele>885.4</ele>
        <time>2026-05-28T14:36:22.999Z</time>
      </trkpt>
      <trkpt lat="44.00194" lon="3.50708">
        <ele>885.5</ele>
        <time>2026-05-28T14:36:23.999Z</time>
      </trkpt>
      <trkpt lat="44.00194" lon="3.50708">
        <ele>885.4</ele>
        <time>2026-05-28T14:36:24.999Z</time>
      </trkpt>
      <trkpt lat="44.00194" lon="3.50708">
        <ele>885.2</ele>
        <time>2026-05-28T14:36:25.999Z</time>
      </trkpt>
      <trkpt lat="44.00194" lon="3.50708">
        <ele>885.2</ele>
        <time>2026-05-28T14:36:26.999Z</time>
      </trkpt>
      <trkpt lat="44.00194" lon="3.50708">
        <ele>885.1</ele>
        <time>2026-05-28T14:36:27.999Z</time>
      </trkpt>
      <trkpt lat="44.00193" lon="3.50708">
        <ele>884.9</ele>
        <time>2026-05-28T14:36:28.999Z</time>
      </trkpt>
      <trkpt lat="44.00193" lon="3.50708">
        <ele>884.9</ele>
        <time>2026-05-28T14:36:29.999Z</time>
      </trkpt>
      <trkpt lat="44.00192" lon="3.50708">
        <ele>884.8</ele>
        <time>2026-05-28T14:36:30.999Z</time>
      </trkpt>
      <trkpt lat="44.00192" lon="3.50709">
        <ele>884.8</ele>
        <time>2026-05-28T14:36:31.999Z</time>
      </trkpt>
      <trkpt lat="44.00191" lon="3.50709">
        <ele>884.9</ele>
        <time>2026-05-28T14:36:32.999Z</time>
      </trkpt>
      <trkpt lat="44.0019" lon="3.5071">
        <ele>884.8</ele>
        <time>2026-05-28T14:36:33.999Z</time>
      </trkpt>
      <trkpt lat="44.00189" lon="3.5071">
        <ele>884.8</ele>
        <time>2026-05-28T14:36:34.999Z</time>
      </trkpt>
      <trkpt lat="44.00188" lon="3.5071">
        <ele>884.7</ele>
        <time>2026-05-28T14:36:35.999Z</time>
      </trkpt>
      <trkpt lat="44.00188" lon="3.50711">
        <ele>884.5</ele>
        <time>2026-05-28T14:36:36.999Z</time>
      </trkpt>
      <trkpt lat="44.00187" lon="3.50711">
        <ele>884.3</ele>
        <time>2026-05-28T14:36:37.999Z</time>
      </trkpt>
      <trkpt lat="44.00186" lon="3.50712">
        <ele>884.2</ele>
        <time>2026-05-28T14:36:38.999Z</time>
      </trkpt>
      <trkpt lat="44.00184" lon="3.50712">
        <ele>884</ele>
        <time>2026-05-28T14:36:39.999Z</time>
      </trkpt>
      <trkpt lat="44.00183" lon="3.50712">
        <ele>883.9</ele>
        <time>2026-05-28T14:36:40.999Z</time>
      </trkpt>
      <trkpt lat="44.00183" lon="3.50713">
        <ele>883.6</ele>
        <time>2026-05-28T14:36:41.999Z</time>
      </trkpt>
      <trkpt lat="44.00183" lon="3.50714">
        <ele>883.3</ele>
        <time>2026-05-28T14:36:42.999Z</time>
      </trkpt>
      <trkpt lat="44.00184" lon="3.50715">
        <ele>883.1</ele>
        <time>2026-05-28T14:36:43.999Z</time>
      </trkpt>
      <trkpt lat="44.00185" lon="3.50717">
        <ele>882.8</ele>
        <time>2026-05-28T14:36:44.999Z</time>
      </trkpt>
      <trkpt lat="44.00186" lon="3.50718">
        <ele>882.6</ele>
        <time>2026-05-28T14:36:45.999Z</time>
      </trkpt>
      <trkpt lat="44.00187" lon="3.50718">
        <ele>882.6</ele>
        <time>2026-05-28T14:36:46.999Z</time>
      </trkpt>
      <trkpt lat="44.00188" lon="3.50719">
        <ele>882.6</ele>
        <time>2026-05-28T14:36:47.999Z</time>
      </trkpt>
      <trkpt lat="44.00188" lon="3.5072">
        <ele>882.7</ele>
        <time>2026-05-28T14:36:48.999Z</time>
      </trkpt>
      <trkpt lat="44.00189" lon="3.50721">
        <ele>882.5</ele>
        <time>2026-05-28T14:36:49.999Z</time>
      </trkpt>
      <trkpt lat="44.0019" lon="3.50723">
        <ele>882.3</ele>
        <time>2026-05-28T14:36:50.999Z</time>
      </trkpt>
      <trkpt lat="44.0019" lon="3.50724">
        <ele>882.2</ele>
        <time>2026-05-28T14:36:51.999Z</time>
      </trkpt>
      <trkpt lat="44.00191" lon="3.50725">
        <ele>882</ele>
        <time>2026-05-28T14:36:52.999Z</time>
      </trkpt>
      <trkpt lat="44.00192" lon="3.50725">
        <ele>881.8</ele>
        <time>2026-05-28T14:36:53.999Z</time>
      </trkpt>
      <trkpt lat="44.00193" lon="3.50725">
        <ele>881.6</ele>
        <time>2026-05-28T14:36:54.999Z</time>
      </trkpt>
      <trkpt lat="44.00194" lon="3.50725">
        <ele>881.3</ele>
        <time>2026-05-28T14:36:55.999Z</time>
      </trkpt>
      <trkpt lat="44.00195" lon="3.50725">
        <ele>881.1</ele>
        <time>2026-05-28T14:36:56.999Z</time>
      </trkpt>
      <trkpt lat="44.00195" lon="3.50725">
        <ele>880.9</ele>
        <time>2026-05-28T14:36:57.999Z</time>
      </trkpt>
      <trkpt lat="44.00197" lon="3.50726">
        <ele>880.7</ele>
        <time>2026-05-28T14:36:58.999Z</time>
      </trkpt>
      <trkpt lat="44.00197" lon="3.50726">
        <ele>880.6</ele>
        <time>2026-05-28T14:36:59.999Z</time>
      </trkpt>
      <trkpt lat="44.00198" lon="3.50727">
        <ele>880.4</ele>
        <time>2026-05-28T14:37:00.999Z</time>
      </trkpt>
      <trkpt lat="44.00199" lon="3.50727">
        <ele>880.1</ele>
        <time>2026-05-28T14:37:01.999Z</time>
      </trkpt>
      <trkpt lat="44.00201" lon="3.50728">
        <ele>879.7</ele>
        <time>2026-05-28T14:37:02.999Z</time>
      </trkpt>
      <trkpt lat="44.00202" lon="3.50728">
        <ele>879.3</ele>
        <time>2026-05-28T14:37:03.999Z</time>
      </trkpt>
      <trkpt lat="44.00203" lon="3.50728">
        <ele>879</ele>
        <time>2026-05-28T14:37:04.999Z</time>
      </trkpt>
      <trkpt lat="44.00204" lon="3.50728">
        <ele>878.7</ele>
        <time>2026-05-28T14:37:05.999Z</time>
      </trkpt>
      <trkpt lat="44.00204" lon="3.50729">
        <ele>878.4</ele>
        <time>2026-05-28T14:37:06.999Z</time>
      </trkpt>
      <trkpt lat="44.00204" lon="3.5073">
        <ele>878.2</ele>
        <time>2026-05-28T14:37:07.999Z</time>
      </trkpt>
      <trkpt lat="44.00204" lon="3.50731">
        <ele>878.1</ele>
        <time>2026-05-28T14:37:08.999Z</time>
      </trkpt>
      <trkpt lat="44.00204" lon="3.50731">
        <ele>878.2</ele>
        <time>2026-05-28T14:37:09.999Z</time>
      </trkpt>
      <trkpt lat="44.00204" lon="3.50733">
        <ele>878.1</ele>
        <time>2026-05-28T14:37:10.999Z</time>
      </trkpt>
      <trkpt lat="44.00204" lon="3.50734">
        <ele>877.8</ele>
        <time>2026-05-28T14:37:11.999Z</time>
      </trkpt>
      <trkpt lat="44.00204" lon="3.50734">
        <ele>877.5</ele>
        <time>2026-05-28T14:37:12.999Z</time>
      </trkpt>
      <trkpt lat="44.00205" lon="3.50735">
        <ele>877.4</ele>
        <time>2026-05-28T14:37:13.999Z</time>
      </trkpt>
      <trkpt lat="44.00205" lon="3.50736">
        <ele>877.3</ele>
        <time>2026-05-28T14:37:14.999Z</time>
      </trkpt>
      <trkpt lat="44.00205" lon="3.50736">
        <ele>877.4</ele>
        <time>2026-05-28T14:37:15.999Z</time>
      </trkpt>
      <trkpt lat="44.00206" lon="3.50737">
        <ele>877.3</ele>
        <time>2026-05-28T14:37:16.999Z</time>
      </trkpt>
      <trkpt lat="44.00207" lon="3.50737">
        <ele>877.3</ele>
        <time>2026-05-28T14:37:17.999Z</time>
      </trkpt>
      <trkpt lat="44.00208" lon="3.50739">
        <ele>877.2</ele>
        <time>2026-05-28T14:37:18.999Z</time>
      </trkpt>
      <trkpt lat="44.00209" lon="3.50739">
        <ele>877.1</ele>
        <time>2026-05-28T14:37:19.999Z</time>
      </trkpt>
      <trkpt lat="44.00209" lon="3.5074">
        <ele>876.9</ele>
        <time>2026-05-28T14:37:20.999Z</time>
      </trkpt>
      <trkpt lat="44.0021" lon="3.50741">
        <ele>876.5</ele>
        <time>2026-05-28T14:37:21.999Z</time>
      </trkpt>
      <trkpt lat="44.00211" lon="3.50741">
        <ele>876.2</ele>
        <time>2026-05-28T14:37:22.999Z</time>
      </trkpt>
      <trkpt lat="44.00212" lon="3.50742">
        <ele>876.1</ele>
        <time>2026-05-28T14:37:23.999Z</time>
      </trkpt>
      <trkpt lat="44.00212" lon="3.50743">
        <ele>875.7</ele>
        <time>2026-05-28T14:37:24.999Z</time>
      </trkpt>
      <trkpt lat="44.00212" lon="3.50743">
        <ele>875.5</ele>
        <time>2026-05-28T14:37:25.999Z</time>
      </trkpt>
      <trkpt lat="44.00213" lon="3.50742">
        <ele>875.2</ele>
        <time>2026-05-28T14:37:26.999Z</time>
      </trkpt>
      <trkpt lat="44.00214" lon="3.50742">
        <ele>875.1</ele>
        <time>2026-05-28T14:37:27.999Z</time>
      </trkpt>
      <trkpt lat="44.00215" lon="3.50743">
        <ele>874.8</ele>
        <time>2026-05-28T14:37:28.999Z</time>
      </trkpt>
      <trkpt lat="44.00215" lon="3.50743">
        <ele>874.7</ele>
        <time>2026-05-28T14:37:29.999Z</time>
      </trkpt>
      <trkpt lat="44.00216" lon="3.50744">
        <ele>874.6</ele>
        <time>2026-05-28T14:37:30.999Z</time>
      </trkpt>
      <trkpt lat="44.00216" lon="3.50745">
        <ele>874.1</ele>
        <time>2026-05-28T14:37:31.999Z</time>
      </trkpt>
      <trkpt lat="44.00217" lon="3.50746">
        <ele>874</ele>
        <time>2026-05-28T14:37:32.999Z</time>
      </trkpt>
      <trkpt lat="44.00218" lon="3.50747">
        <ele>873.8</ele>
        <time>2026-05-28T14:37:33.999Z</time>
      </trkpt>
      <trkpt lat="44.00219" lon="3.50747">
        <ele>873.2</ele>
        <time>2026-05-28T14:37:34.999Z</time>
      </trkpt>
      <trkpt lat="44.00219" lon="3.50748">
        <ele>872.7</ele>
        <time>2026-05-28T14:37:35.999Z</time>
      </trkpt>
      <trkpt lat="44.00219" lon="3.50748">
        <ele>873</ele>
        <time>2026-05-28T14:37:36.999Z</time>
      </trkpt>
      <trkpt lat="44.0022" lon="3.50749">
        <ele>873</ele>
        <time>2026-05-28T14:37:37.999Z</time>
      </trkpt>
      <trkpt lat="44.0022" lon="3.5075">
        <ele>872.7</ele>
        <time>2026-05-28T14:37:38.999Z</time>
      </trkpt>
      <trkpt lat="44.00221" lon="3.50751">
        <ele>872.6</ele>
        <time>2026-05-28T14:37:39.999Z</time>
      </trkpt>
      <trkpt lat="44.00221" lon="3.50752">
        <ele>872.4</ele>
        <time>2026-05-28T14:37:40.999Z</time>
      </trkpt>
      <trkpt lat="44.00222" lon="3.50753">
        <ele>872.3</ele>
        <time>2026-05-28T14:37:41.999Z</time>
      </trkpt>
      <trkpt lat="44.00222" lon="3.50753">
        <ele>872.3</ele>
        <time>2026-05-28T14:37:42.999Z</time>
      </trkpt>
      <trkpt lat="44.00223" lon="3.50753">
        <ele>872.3</ele>
        <time>2026-05-28T14:37:43.999Z</time>
      </trkpt>
      <trkpt lat="44.00223" lon="3.50754">
        <ele>872.1</ele>
        <time>2026-05-28T14:37:44.999Z</time>
      </trkpt>
      <trkpt lat="44.00223" lon="3.50755">
        <ele>871.9</ele>
        <time>2026-05-28T14:37:45.999Z</time>
      </trkpt>
      <trkpt lat="44.00224" lon="3.50757">
        <ele>871.3</ele>
        <time>2026-05-28T14:37:46.999Z</time>
      </trkpt>
      <trkpt lat="44.00225" lon="3.50757">
        <ele>871</ele>
        <time>2026-05-28T14:37:47.999Z</time>
      </trkpt>
      <trkpt lat="44.00226" lon="3.50757">
        <ele>870.8</ele>
        <time>2026-05-28T14:37:48.999Z</time>
      </trkpt>
      <trkpt lat="44.00227" lon="3.50758">
        <ele>870.5</ele>
        <time>2026-05-28T14:37:49.999Z</time>
      </trkpt>
      <trkpt lat="44.00228" lon="3.50758">
        <ele>870.7</ele>
        <time>2026-05-28T14:37:50.999Z</time>
      </trkpt>
      <trkpt lat="44.00229" lon="3.50759">
        <ele>870.4</ele>
        <time>2026-05-28T14:37:51.999Z</time>
      </trkpt>
      <trkpt lat="44.00229" lon="3.5076">
        <ele>870.4</ele>
        <time>2026-05-28T14:37:52.999Z</time>
      </trkpt>
      <trkpt lat="44.0023" lon="3.50761">
        <ele>870.5</ele>
        <time>2026-05-28T14:37:53.999Z</time>
      </trkpt>
      <trkpt lat="44.0023" lon="3.50763">
        <ele>870.6</ele>
        <time>2026-05-28T14:37:54.999Z</time>
      </trkpt>
      <trkpt lat="44.00231" lon="3.50764">
        <ele>870.4</ele>
        <time>2026-05-28T14:37:55.999Z</time>
      </trkpt>
      <trkpt lat="44.00231" lon="3.50764">
        <ele>870.1</ele>
        <time>2026-05-28T14:37:56.999Z</time>
      </trkpt>
      <trkpt lat="44.00231" lon="3.50765">
        <ele>870</ele>
        <time>2026-05-28T14:37:57.999Z</time>
      </trkpt>
      <trkpt lat="44.00231" lon="3.50766">
        <ele>869.8</ele>
        <time>2026-05-28T14:37:58.999Z</time>
      </trkpt>
      <trkpt lat="44.00232" lon="3.50767">
        <ele>869.8</ele>
        <time>2026-05-28T14:37:59.999Z</time>
      </trkpt>
      <trkpt lat="44.00232" lon="3.50769">
        <ele>869.5</ele>
        <time>2026-05-28T14:38:00.999Z</time>
      </trkpt>
      <trkpt lat="44.00232" lon="3.50771">
        <ele>869.7</ele>
        <time>2026-05-28T14:38:01.999Z</time>
      </trkpt>
      <trkpt lat="44.00233" lon="3.50772">
        <ele>869.6</ele>
        <time>2026-05-28T14:38:02.999Z</time>
      </trkpt>
      <trkpt lat="44.00233" lon="3.50773">
        <ele>869.6</ele>
        <time>2026-05-28T14:38:03.999Z</time>
      </trkpt>
      <trkpt lat="44.00233" lon="3.50774">
        <ele>869.5</ele>
        <time>2026-05-28T14:38:04.999Z</time>
      </trkpt>
      <trkpt lat="44.00233" lon="3.50775">
        <ele>869.6</ele>
        <time>2026-05-28T14:38:05.999Z</time>
      </trkpt>
      <trkpt lat="44.00233" lon="3.50776">
        <ele>869.6</ele>
        <time>2026-05-28T14:38:06.999Z</time>
      </trkpt>
      <trkpt lat="44.00233" lon="3.50777">
        <ele>869.4</ele>
        <time>2026-05-28T14:38:07.999Z</time>
      </trkpt>
      <trkpt lat="44.00234" lon="3.50778">
        <ele>868.7</ele>
        <time>2026-05-28T14:38:08.999Z</time>
      </trkpt>
      <trkpt lat="44.00235" lon="3.50779">
        <ele>868.3</ele>
        <time>2026-05-28T14:38:09.999Z</time>
      </trkpt>
      <trkpt lat="44.00236" lon="3.5078">
        <ele>868.1</ele>
        <time>2026-05-28T14:38:10.999Z</time>
      </trkpt>
      <trkpt lat="44.00237" lon="3.50781">
        <ele>868.5</ele>
        <time>2026-05-28T14:38:11.999Z</time>
      </trkpt>
      <trkpt lat="44.00238" lon="3.50783">
        <ele>868.7</ele>
        <time>2026-05-28T14:38:12.999Z</time>
      </trkpt>
      <trkpt lat="44.00239" lon="3.50784">
        <ele>868.8</ele>
        <time>2026-05-28T14:38:13.999Z</time>
      </trkpt>
      <trkpt lat="44.00239" lon="3.50785">
        <ele>868.9</ele>
        <time>2026-05-28T14:38:14.999Z</time>
      </trkpt>
      <trkpt lat="44.0024" lon="3.50786">
        <ele>869.1</ele>
        <time>2026-05-28T14:38:15.999Z</time>
      </trkpt>
      <trkpt lat="44.0024" lon="3.50787">
        <ele>868.8</ele>
        <time>2026-05-28T14:38:16.999Z</time>
      </trkpt>
      <trkpt lat="44.0024" lon="3.50788">
        <ele>868.6</ele>
        <time>2026-05-28T14:38:17.999Z</time>
      </trkpt>
      <trkpt lat="44.00241" lon="3.50789">
        <ele>868.3</ele>
        <time>2026-05-28T14:38:18.999Z</time>
      </trkpt>
      <trkpt lat="44.00241" lon="3.5079">
        <ele>868</ele>
        <time>2026-05-28T14:38:19.999Z</time>
      </trkpt>
      <trkpt lat="44.00242" lon="3.5079">
        <ele>867.9</ele>
        <time>2026-05-28T14:38:20.999Z</time>
      </trkpt>
      <trkpt lat="44.00241" lon="3.50791">
        <ele>867.4</ele>
        <time>2026-05-28T14:38:21.999Z</time>
      </trkpt>
      <trkpt lat="44.00242" lon="3.50792">
        <ele>867.2</ele>
        <time>2026-05-28T14:38:22.999Z</time>
      </trkpt>
      <trkpt lat="44.00242" lon="3.50793">
        <ele>866.6</ele>
        <time>2026-05-28T14:38:23.999Z</time>
      </trkpt>
      <trkpt lat="44.00243" lon="3.50794">
        <ele>866.4</ele>
        <time>2026-05-28T14:38:24.999Z</time>
      </trkpt>
      <trkpt lat="44.00244" lon="3.50795">
        <ele>866.1</ele>
        <time>2026-05-28T14:38:25.999Z</time>
      </trkpt>
      <trkpt lat="44.00244" lon="3.50795">
        <ele>865.6</ele>
        <time>2026-05-28T14:38:26.999Z</time>
      </trkpt>
      <trkpt lat="44.00245" lon="3.50796">
        <ele>865.6</ele>
        <time>2026-05-28T14:38:27.999Z</time>
      </trkpt>
      <trkpt lat="44.00246" lon="3.50796">
        <ele>865.3</ele>
        <time>2026-05-28T14:38:28.999Z</time>
      </trkpt>
      <trkpt lat="44.00246" lon="3.50796">
        <ele>865.2</ele>
        <time>2026-05-28T14:38:29.999Z</time>
      </trkpt>
      <trkpt lat="44.00247" lon="3.50797">
        <ele>864.8</ele>
        <time>2026-05-28T14:38:30.999Z</time>
      </trkpt>
      <trkpt lat="44.00247" lon="3.50798">
        <ele>865.1</ele>
        <time>2026-05-28T14:38:31.999Z</time>
      </trkpt>
      <trkpt lat="44.00247" lon="3.50799">
        <ele>865.4</ele>
        <time>2026-05-28T14:38:32.999Z</time>
      </trkpt>
      <trkpt lat="44.00247" lon="3.508">
        <ele>866</ele>
        <time>2026-05-28T14:38:33.999Z</time>
      </trkpt>
      <trkpt lat="44.00248" lon="3.50802">
        <ele>866.1</ele>
        <time>2026-05-28T14:38:34.999Z</time>
      </trkpt>
      <trkpt lat="44.00248" lon="3.50802">
        <ele>866.2</ele>
        <time>2026-05-28T14:38:35.999Z</time>
      </trkpt>
      <trkpt lat="44.00248" lon="3.50803">
        <ele>866.5</ele>
        <time>2026-05-28T14:38:36.999Z</time>
      </trkpt>
      <trkpt lat="44.00248" lon="3.50803">
        <ele>866.6</ele>
        <time>2026-05-28T14:38:37.999Z</time>
      </trkpt>
      <trkpt lat="44.00248" lon="3.50803">
        <ele>866.6</ele>
        <time>2026-05-28T14:38:38.999Z</time>
      </trkpt>
      <trkpt lat="44.00248" lon="3.50804">
        <ele>866.4</ele>
        <time>2026-05-28T14:38:39.999Z</time>
      </trkpt>
      <trkpt lat="44.00248" lon="3.50804">
        <ele>866.6</ele>
        <time>2026-05-28T14:38:40.999Z</time>
      </trkpt>
      <trkpt lat="44.00248" lon="3.50804">
        <ele>866.3</ele>
        <time>2026-05-28T14:38:41.999Z</time>
      </trkpt>
      <trkpt lat="44.00248" lon="3.50804">
        <ele>866.5</ele>
        <time>2026-05-28T14:38:42.999Z</time>
      </trkpt>
      <trkpt lat="44.00248" lon="3.50804">
        <ele>866.7</ele>
        <time>2026-05-28T14:38:43.999Z</time>
      </trkpt>
      <trkpt lat="44.00248" lon="3.50804">
        <ele>866.5</ele>
        <time>2026-05-28T14:38:44.999Z</time>
      </trkpt>
      <trkpt lat="44.00248" lon="3.50804">
        <ele>866.7</ele>
        <time>2026-05-28T14:38:45.999Z</time>
      </trkpt>
      <trkpt lat="44.00247" lon="3.50804">
        <ele>866.7</ele>
        <time>2026-05-28T14:38:46.999Z</time>
      </trkpt>
      <trkpt lat="44.00247" lon="3.50804">
        <ele>866.6</ele>
        <time>2026-05-28T14:38:47.999Z</time>
      </trkpt>
      <trkpt lat="44.00247" lon="3.50804">
        <ele>866.2</ele>
        <time>2026-05-28T14:38:48.999Z</time>
      </trkpt>
      <trkpt lat="44.00247" lon="3.50805">
        <ele>865.9</ele>
        <time>2026-05-28T14:38:49.999Z</time>
      </trkpt>
      <trkpt lat="44.00247" lon="3.50805">
        <ele>865.7</ele>
        <time>2026-05-28T14:38:50.999Z</time>
      </trkpt>
      <trkpt lat="44.00247" lon="3.50805">
        <ele>865.7</ele>
        <time>2026-05-28T14:38:51.999Z</time>
      </trkpt>
      <trkpt lat="44.00247" lon="3.50805">
        <ele>865.8</ele>
        <time>2026-05-28T14:38:52.999Z</time>
      </trkpt>
      <trkpt lat="44.00247" lon="3.50805">
        <ele>865.9</ele>
        <time>2026-05-28T14:38:53.999Z</time>
      </trkpt>
      <trkpt lat="44.00248" lon="3.50805">
        <ele>865.8</ele>
        <time>2026-05-28T14:38:54.999Z</time>
      </trkpt>
      <trkpt lat="44.00248" lon="3.50805">
        <ele>865.5</ele>
        <time>2026-05-28T14:38:55.999Z</time>
      </trkpt>
      <trkpt lat="44.00248" lon="3.50805">
        <ele>865.5</ele>
        <time>2026-05-28T14:38:56.999Z</time>
      </trkpt>
      <trkpt lat="44.00248" lon="3.50805">
        <ele>865.1</ele>
        <time>2026-05-28T14:38:58.999Z</time>
      </trkpt>
      <trkpt lat="44.00248" lon="3.50805">
        <ele>864.9</ele>
        <time>2026-05-28T14:38:59.999Z</time>
      </trkpt>
      <trkpt lat="44.00248" lon="3.50804">
        <ele>864.7</ele>
        <time>2026-05-28T14:39:00.999Z</time>
      </trkpt>
      <trkpt lat="44.00249" lon="3.50805">
        <ele>864.4</ele>
        <time>2026-05-28T14:39:01.999Z</time>
      </trkpt>
      <trkpt lat="44.00249" lon="3.50804">
        <ele>863.9</ele>
        <time>2026-05-28T14:39:02.999Z</time>
      </trkpt>
      <trkpt lat="44.00249" lon="3.50805">
        <ele>863.9</ele>
        <time>2026-05-28T14:39:03.999Z</time>
      </trkpt>
      <trkpt lat="44.00249" lon="3.50805">
        <ele>863.9</ele>
        <time>2026-05-28T14:39:04.999Z</time>
      </trkpt>
      <trkpt lat="44.00249" lon="3.50805">
        <ele>863.7</ele>
        <time>2026-05-28T14:39:05.999Z</time>
      </trkpt>
      <trkpt lat="44.00249" lon="3.50805">
        <ele>863.5</ele>
        <time>2026-05-28T14:39:06.999Z</time>
      </trkpt>
      <trkpt lat="44.00249" lon="3.50805">
        <ele>863.3</ele>
        <time>2026-05-28T14:39:07.999Z</time>
      </trkpt>
      <trkpt lat="44.00249" lon="3.50804">
        <ele>863.2</ele>
        <time>2026-05-28T14:39:08.999Z</time>
      </trkpt>
      <trkpt lat="44.00249" lon="3.50803">
        <ele>863.1</ele>
        <time>2026-05-28T14:39:09.999Z</time>
      </trkpt>
      <trkpt lat="44.00249" lon="3.50803">
        <ele>863</ele>
        <time>2026-05-28T14:39:10.999Z</time>
      </trkpt>
      <trkpt lat="44.00249" lon="3.50803">
        <ele>863.3</ele>
        <time>2026-05-28T14:39:11.999Z</time>
      </trkpt>
      <trkpt lat="44.00249" lon="3.50802">
        <ele>863.8</ele>
        <time>2026-05-28T14:39:12.999Z</time>
      </trkpt>
      <trkpt lat="44.00249" lon="3.50802">
        <ele>863.8</ele>
        <time>2026-05-28T14:39:13.999Z</time>
      </trkpt>
      <trkpt lat="44.00249" lon="3.50802">
        <ele>863.9</ele>
        <time>2026-05-28T14:39:14.999Z</time>
      </trkpt>
      <trkpt lat="44.0025" lon="3.50803">
        <ele>863.8</ele>
        <time>2026-05-28T14:39:15.999Z</time>
      </trkpt>
      <trkpt lat="44.00251" lon="3.50804">
        <ele>863.5</ele>
        <time>2026-05-28T14:39:16.999Z</time>
      </trkpt>
      <trkpt lat="44.0025" lon="3.50803">
        <ele>863.4</ele>
        <time>2026-05-28T14:39:17.999Z</time>
      </trkpt>
      <trkpt lat="44.0025" lon="3.50804">
        <ele>863.4</ele>
        <time>2026-05-28T14:39:18.999Z</time>
      </trkpt>
      <trkpt lat="44.0025" lon="3.50806">
        <ele>863.4</ele>
        <time>2026-05-28T14:39:19.999Z</time>
      </trkpt>
      <trkpt lat="44.00249" lon="3.50806">
        <ele>863.4</ele>
        <time>2026-05-28T14:39:20.999Z</time>
      </trkpt>
      <trkpt lat="44.00249" lon="3.50807">
        <ele>863.6</ele>
        <time>2026-05-28T14:39:21.999Z</time>
      </trkpt>
      <trkpt lat="44.00249" lon="3.50807">
        <ele>863.7</ele>
        <time>2026-05-28T14:39:22.999Z</time>
      </trkpt>
      <trkpt lat="44.00249" lon="3.50807">
        <ele>864</ele>
        <time>2026-05-28T14:39:23.999Z</time>
      </trkpt>
      <trkpt lat="44.00249" lon="3.50808">
        <ele>864.5</ele>
        <time>2026-05-28T14:39:24.999Z</time>
      </trkpt>
      <trkpt lat="44.00249" lon="3.50808">
        <ele>864.4</ele>
        <time>2026-05-28T14:39:25.999Z</time>
      </trkpt>
      <trkpt lat="44.00249" lon="3.50808">
        <ele>864.3</ele>
        <time>2026-05-28T14:39:26.999Z</time>
      </trkpt>
      <trkpt lat="44.00249" lon="3.50808">
        <ele>863.9</ele>
        <time>2026-05-28T14:39:27.999Z</time>
      </trkpt>
      <trkpt lat="44.0025" lon="3.50807">
        <ele>863.8</ele>
        <time>2026-05-28T14:39:28.999Z</time>
      </trkpt>
      <trkpt lat="44.0025" lon="3.50807">
        <ele>863.6</ele>
        <time>2026-05-28T14:39:29.999Z</time>
      </trkpt>
      <trkpt lat="44.00251" lon="3.50807">
        <ele>863.6</ele>
        <time>2026-05-28T14:39:30.999Z</time>
      </trkpt>
      <trkpt lat="44.00251" lon="3.50807">
        <ele>863.5</ele>
        <time>2026-05-28T14:39:31.999Z</time>
      </trkpt>
      <trkpt lat="44.00251" lon="3.50807">
        <ele>863.4</ele>
        <time>2026-05-28T14:39:32.999Z</time>
      </trkpt>
      <trkpt lat="44.00251" lon="3.50807">
        <ele>863.4</ele>
        <time>2026-05-28T14:39:33.999Z</time>
      </trkpt>
      <trkpt lat="44.00251" lon="3.50807">
        <ele>863.3</ele>
        <time>2026-05-28T14:39:34.999Z</time>
      </trkpt>
      <trkpt lat="44.00251" lon="3.50807">
        <ele>863.6</ele>
        <time>2026-05-28T14:39:35.999Z</time>
      </trkpt>
      <trkpt lat="44.00251" lon="3.50807">
        <ele>863.7</ele>
        <time>2026-05-28T14:39:36.999Z</time>
      </trkpt>
      <trkpt lat="44.00251" lon="3.50807">
        <ele>863.8</ele>
        <time>2026-05-28T14:39:37.999Z</time>
      </trkpt>
      <trkpt lat="44.00251" lon="3.50807">
        <ele>863.8</ele>
        <time>2026-05-28T14:39:38.999Z</time>
      </trkpt>
      <trkpt lat="44.00251" lon="3.50807">
        <ele>863.8</ele>
        <time>2026-05-28T14:39:39.999Z</time>
      </trkpt>
      <trkpt lat="44.00251" lon="3.50807">
        <ele>863.8</ele>
        <time>2026-05-28T14:39:40.999Z</time>
      </trkpt>
      <trkpt lat="44.00251" lon="3.50807">
        <ele>863.7</ele>
        <time>2026-05-28T14:39:41.999Z</time>
      </trkpt>
      <trkpt lat="44.00251" lon="3.50807">
        <ele>863.7</ele>
        <time>2026-05-28T14:39:42.999Z</time>
      </trkpt>
      <trkpt lat="44.00251" lon="3.50807">
        <ele>863.6</ele>
        <time>2026-05-28T14:39:43.999Z</time>
      </trkpt>
      <trkpt lat="44.0025" lon="3.50807">
        <ele>863.5</ele>
        <time>2026-05-28T14:39:44.999Z</time>
      </trkpt>
      <trkpt lat="44.0025" lon="3.50807">
        <ele>863.2</ele>
        <time>2026-05-28T14:39:45.999Z</time>
      </trkpt>
      <trkpt lat="44.0025" lon="3.50807">
        <ele>863.4</ele>
        <time>2026-05-28T14:39:46.999Z</time>
      </trkpt>
      <trkpt lat="44.0025" lon="3.50807">
        <ele>863.7</ele>
        <time>2026-05-28T14:39:47.999Z</time>
      </trkpt>
      <trkpt lat="44.0025" lon="3.50808">
        <ele>863.7</ele>
        <time>2026-05-28T14:39:48.999Z</time>
      </trkpt>
      <trkpt lat="44.0025" lon="3.50808">
        <ele>863.6</ele>
        <time>2026-05-28T14:39:49.999Z</time>
      </trkpt>
      <trkpt lat="44.0025" lon="3.50808">
        <ele>863.6</ele>
        <time>2026-05-28T14:39:50.999Z</time>
      </trkpt>
      <trkpt lat="44.0025" lon="3.50808">
        <ele>863.7</ele>
        <time>2026-05-28T14:39:51.999Z</time>
      </trkpt>
      <trkpt lat="44.0025" lon="3.50809">
        <ele>863.7</ele>
        <time>2026-05-28T14:39:52.999Z</time>
      </trkpt>
      <trkpt lat="44.00249" lon="3.50809">
        <ele>863.6</ele>
        <time>2026-05-28T14:39:53.999Z</time>
      </trkpt>
      <trkpt lat="44.00249" lon="3.5081">
        <ele>863.5</ele>
        <time>2026-05-28T14:39:54.999Z</time>
      </trkpt>
      <trkpt lat="44.00248" lon="3.50811">
        <ele>863.5</ele>
        <time>2026-05-28T14:39:55.999Z</time>
      </trkpt>
      <trkpt lat="44.00248" lon="3.50812">
        <ele>863.3</ele>
        <time>2026-05-28T14:39:56.999Z</time>
      </trkpt>
      <trkpt lat="44.00247" lon="3.50813">
        <ele>863.1</ele>
        <time>2026-05-28T14:39:57.999Z</time>
      </trkpt>
      <trkpt lat="44.00246" lon="3.50814">
        <ele>863.1</ele>
        <time>2026-05-28T14:39:58.999Z</time>
      </trkpt>
      <trkpt lat="44.00245" lon="3.50815">
        <ele>862.7</ele>
        <time>2026-05-28T14:39:59.999Z</time>
      </trkpt>
      <trkpt lat="44.00245" lon="3.50816">
        <ele>862.6</ele>
        <time>2026-05-28T14:40:00.999Z</time>
      </trkpt>
      <trkpt lat="44.00244" lon="3.50818">
        <ele>862.5</ele>
        <time>2026-05-28T14:40:01.999Z</time>
      </trkpt>
      <trkpt lat="44.00243" lon="3.5082">
        <ele>862.3</ele>
        <time>2026-05-28T14:40:02.999Z</time>
      </trkpt>
      <trkpt lat="44.00243" lon="3.50822">
        <ele>862.3</ele>
        <time>2026-05-28T14:40:03.999Z</time>
      </trkpt>
      <trkpt lat="44.00242" lon="3.50824">
        <ele>862</ele>
        <time>2026-05-28T14:40:04.999Z</time>
      </trkpt>
      <trkpt lat="44.00242" lon="3.50825">
        <ele>861.7</ele>
        <time>2026-05-28T14:40:05.999Z</time>
      </trkpt>
      <trkpt lat="44.00241" lon="3.50825">
        <ele>861.9</ele>
        <time>2026-05-28T14:40:06.999Z</time>
      </trkpt>
      <trkpt lat="44.00241" lon="3.50827">
        <ele>861.5</ele>
        <time>2026-05-28T14:40:07.999Z</time>
      </trkpt>
      <trkpt lat="44.0024" lon="3.50828">
        <ele>861.4</ele>
        <time>2026-05-28T14:40:08.999Z</time>
      </trkpt>
      <trkpt lat="44.00239" lon="3.5083">
        <ele>861</ele>
        <time>2026-05-28T14:40:09.999Z</time>
      </trkpt>
      <trkpt lat="44.00239" lon="3.50832">
        <ele>860.9</ele>
        <time>2026-05-28T14:40:10.999Z</time>
      </trkpt>
      <trkpt lat="44.00238" lon="3.50833">
        <ele>860.8</ele>
        <time>2026-05-28T14:40:11.999Z</time>
      </trkpt>
      <trkpt lat="44.00238" lon="3.50834">
        <ele>860.3</ele>
        <time>2026-05-28T14:40:12.999Z</time>
      </trkpt>
      <trkpt lat="44.00238" lon="3.50835">
        <ele>860.2</ele>
        <time>2026-05-28T14:40:13.999Z</time>
      </trkpt>
      <trkpt lat="44.00237" lon="3.50836">
        <ele>860.3</ele>
        <time>2026-05-28T14:40:14.999Z</time>
      </trkpt>
      <trkpt lat="44.00236" lon="3.50837">
        <ele>860.2</ele>
        <time>2026-05-28T14:40:15.999Z</time>
      </trkpt>
      <trkpt lat="44.00235" lon="3.50838">
        <ele>859.4</ele>
        <time>2026-05-28T14:40:16.999Z</time>
      </trkpt>
      <trkpt lat="44.00235" lon="3.50839">
        <ele>858.9</ele>
        <time>2026-05-28T14:40:17.999Z</time>
      </trkpt>
      <trkpt lat="44.00235" lon="3.50839">
        <ele>858.5</ele>
        <time>2026-05-28T14:40:18.999Z</time>
      </trkpt>
      <trkpt lat="44.00235" lon="3.5084">
        <ele>858.1</ele>
        <time>2026-05-28T14:40:19.999Z</time>
      </trkpt>
      <trkpt lat="44.00234" lon="3.5084">
        <ele>858.1</ele>
        <time>2026-05-28T14:40:20.999Z</time>
      </trkpt>
      <trkpt lat="44.00234" lon="3.5084">
        <ele>858</ele>
        <time>2026-05-28T14:40:21.999Z</time>
      </trkpt>
      <trkpt lat="44.00234" lon="3.50841">
        <ele>858.6</ele>
        <time>2026-05-28T14:40:22.999Z</time>
      </trkpt>
      <trkpt lat="44.00234" lon="3.50841">
        <ele>858.9</ele>
        <time>2026-05-28T14:40:23.999Z</time>
      </trkpt>
      <trkpt lat="44.00234" lon="3.50841">
        <ele>858.9</ele>
        <time>2026-05-28T14:40:24.999Z</time>
      </trkpt>
      <trkpt lat="44.00233" lon="3.50841">
        <ele>859</ele>
        <time>2026-05-28T14:40:25.999Z</time>
      </trkpt>
      <trkpt lat="44.00233" lon="3.50843">
        <ele>859.1</ele>
        <time>2026-05-28T14:40:26.999Z</time>
      </trkpt>
      <trkpt lat="44.00231" lon="3.50843">
        <ele>859</ele>
        <time>2026-05-28T14:40:27.999Z</time>
      </trkpt>
      <trkpt lat="44.00231" lon="3.50844">
        <ele>859.1</ele>
        <time>2026-05-28T14:40:28.999Z</time>
      </trkpt>
      <trkpt lat="44.00231" lon="3.50845">
        <ele>858.9</ele>
        <time>2026-05-28T14:40:29.999Z</time>
      </trkpt>
      <trkpt lat="44.0023" lon="3.50846">
        <ele>858.5</ele>
        <time>2026-05-28T14:40:30.999Z</time>
      </trkpt>
      <trkpt lat="44.0023" lon="3.50847">
        <ele>858.2</ele>
        <time>2026-05-28T14:40:31.999Z</time>
      </trkpt>
      <trkpt lat="44.0023" lon="3.50848">
        <ele>858.3</ele>
        <time>2026-05-28T14:40:32.999Z</time>
      </trkpt>
      <trkpt lat="44.0023" lon="3.50849">
        <ele>858.7</ele>
        <time>2026-05-28T14:40:33.999Z</time>
      </trkpt>
      <trkpt lat="44.0023" lon="3.50851">
        <ele>858.8</ele>
        <time>2026-05-28T14:40:34.999Z</time>
      </trkpt>
      <trkpt lat="44.0023" lon="3.50852">
        <ele>859</ele>
        <time>2026-05-28T14:40:35.999Z</time>
      </trkpt>
      <trkpt lat="44.0023" lon="3.50852">
        <ele>858.9</ele>
        <time>2026-05-28T14:40:36.999Z</time>
      </trkpt>
      <trkpt lat="44.0023" lon="3.50853">
        <ele>858.8</ele>
        <time>2026-05-28T14:40:37.999Z</time>
      </trkpt>
      <trkpt lat="44.00229" lon="3.50854">
        <ele>858.7</ele>
        <time>2026-05-28T14:40:38.999Z</time>
      </trkpt>
      <trkpt lat="44.00228" lon="3.50855">
        <ele>858.6</ele>
        <time>2026-05-28T14:40:39.999Z</time>
      </trkpt>
      <trkpt lat="44.00227" lon="3.50856">
        <ele>858.5</ele>
        <time>2026-05-28T14:40:40.999Z</time>
      </trkpt>
      <trkpt lat="44.00227" lon="3.50857">
        <ele>858.3</ele>
        <time>2026-05-28T14:40:41.999Z</time>
      </trkpt>
      <trkpt lat="44.00226" lon="3.50858">
        <ele>857.9</ele>
        <time>2026-05-28T14:40:42.999Z</time>
      </trkpt>
      <trkpt lat="44.00226" lon="3.50858">
        <ele>857.6</ele>
        <time>2026-05-28T14:40:43.999Z</time>
      </trkpt>
      <trkpt lat="44.00225" lon="3.50858">
        <ele>857.4</ele>
        <time>2026-05-28T14:40:44.999Z</time>
      </trkpt>
      <trkpt lat="44.00224" lon="3.50859">
        <ele>857.6</ele>
        <time>2026-05-28T14:40:45.999Z</time>
      </trkpt>
      <trkpt lat="44.00224" lon="3.5086">
        <ele>857.7</ele>
        <time>2026-05-28T14:40:46.999Z</time>
      </trkpt>
      <trkpt lat="44.00223" lon="3.50861">
        <ele>857.8</ele>
        <time>2026-05-28T14:40:47.999Z</time>
      </trkpt>
      <trkpt lat="44.00222" lon="3.50862">
        <ele>857.6</ele>
        <time>2026-05-28T14:40:48.999Z</time>
      </trkpt>
      <trkpt lat="44.00222" lon="3.50862">
        <ele>857.8</ele>
        <time>2026-05-28T14:40:49.999Z</time>
      </trkpt>
      <trkpt lat="44.00222" lon="3.50862">
        <ele>857.8</ele>
        <time>2026-05-28T14:40:50.999Z</time>
      </trkpt>
      <trkpt lat="44.00222" lon="3.50862">
        <ele>857.6</ele>
        <time>2026-05-28T14:40:51.999Z</time>
      </trkpt>
      <trkpt lat="44.00222" lon="3.50862">
        <ele>857.3</ele>
        <time>2026-05-28T14:40:52.999Z</time>
      </trkpt>
      <trkpt lat="44.00222" lon="3.50862">
        <ele>857</ele>
        <time>2026-05-28T14:40:53.999Z</time>
      </trkpt>
      <trkpt lat="44.00222" lon="3.50863">
        <ele>856.7</ele>
        <time>2026-05-28T14:40:54.999Z</time>
      </trkpt>
      <trkpt lat="44.00221" lon="3.50864">
        <ele>856.4</ele>
        <time>2026-05-28T14:40:55.999Z</time>
      </trkpt>
      <trkpt lat="44.0022" lon="3.50865">
        <ele>856.2</ele>
        <time>2026-05-28T14:40:56.999Z</time>
      </trkpt>
      <trkpt lat="44.00218" lon="3.50866">
        <ele>855.9</ele>
        <time>2026-05-28T14:40:57.999Z</time>
      </trkpt>
      <trkpt lat="44.00218" lon="3.50868">
        <ele>855.7</ele>
        <time>2026-05-28T14:40:58.999Z</time>
      </trkpt>
      <trkpt lat="44.00217" lon="3.50869">
        <ele>855.7</ele>
        <time>2026-05-28T14:40:59.999Z</time>
      </trkpt>
      <trkpt lat="44.00217" lon="3.5087">
        <ele>856.1</ele>
        <time>2026-05-28T14:41:00.999Z</time>
      </trkpt>
      <trkpt lat="44.00216" lon="3.50871">
        <ele>856.3</ele>
        <time>2026-05-28T14:41:01.999Z</time>
      </trkpt>
      <trkpt lat="44.00215" lon="3.50872">
        <ele>855.8</ele>
        <time>2026-05-28T14:41:02.999Z</time>
      </trkpt>
      <trkpt lat="44.00213" lon="3.50872">
        <ele>855.5</ele>
        <time>2026-05-28T14:41:03.999Z</time>
      </trkpt>
      <trkpt lat="44.00212" lon="3.50872">
        <ele>855.2</ele>
        <time>2026-05-28T14:41:04.999Z</time>
      </trkpt>
      <trkpt lat="44.00211" lon="3.50872">
        <ele>854.9</ele>
        <time>2026-05-28T14:41:05.999Z</time>
      </trkpt>
      <trkpt lat="44.00209" lon="3.50872">
        <ele>854.9</ele>
        <time>2026-05-28T14:41:06.999Z</time>
      </trkpt>
      <trkpt lat="44.00207" lon="3.50872">
        <ele>854.8</ele>
        <time>2026-05-28T14:41:07.999Z</time>
      </trkpt>
      <trkpt lat="44.00206" lon="3.50871">
        <ele>854.8</ele>
        <time>2026-05-28T14:41:08.999Z</time>
      </trkpt>
      <trkpt lat="44.00204" lon="3.50871">
        <ele>854.6</ele>
        <time>2026-05-28T14:41:09.999Z</time>
      </trkpt>
      <trkpt lat="44.00203" lon="3.50872">
        <ele>854.6</ele>
        <time>2026-05-28T14:41:10.999Z</time>
      </trkpt>
      <trkpt lat="44.00202" lon="3.50873">
        <ele>854.2</ele>
        <time>2026-05-28T14:41:11.999Z</time>
      </trkpt>
      <trkpt lat="44.00202" lon="3.50873">
        <ele>854.5</ele>
        <time>2026-05-28T14:41:12.999Z</time>
      </trkpt>
      <trkpt lat="44.00202" lon="3.50874">
        <ele>853.9</ele>
        <time>2026-05-28T14:41:13.999Z</time>
      </trkpt>
      <trkpt lat="44.00202" lon="3.50875">
        <ele>853.2</ele>
        <time>2026-05-28T14:41:14.999Z</time>
      </trkpt>
      <trkpt lat="44.00202" lon="3.50877">
        <ele>853.1</ele>
        <time>2026-05-28T14:41:15.999Z</time>
      </trkpt>
      <trkpt lat="44.00203" lon="3.50879">
        <ele>852.6</ele>
        <time>2026-05-28T14:41:16.999Z</time>
      </trkpt>
      <trkpt lat="44.00203" lon="3.50881">
        <ele>852.1</ele>
        <time>2026-05-28T14:41:17.999Z</time>
      </trkpt>
      <trkpt lat="44.00203" lon="3.50883">
        <ele>851.4</ele>
        <time>2026-05-28T14:41:18.999Z</time>
      </trkpt>
      <trkpt lat="44.00203" lon="3.50884">
        <ele>851.3</ele>
        <time>2026-05-28T14:41:19.999Z</time>
      </trkpt>
      <trkpt lat="44.00204" lon="3.50886">
        <ele>851.4</ele>
        <time>2026-05-28T14:41:20.999Z</time>
      </trkpt>
      <trkpt lat="44.00204" lon="3.50886">
        <ele>850.9</ele>
        <time>2026-05-28T14:41:21.999Z</time>
      </trkpt>
      <trkpt lat="44.00204" lon="3.50887">
        <ele>850.9</ele>
        <time>2026-05-28T14:41:22.999Z</time>
      </trkpt>
      <trkpt lat="44.00204" lon="3.50889">
        <ele>850.7</ele>
        <time>2026-05-28T14:41:23.999Z</time>
      </trkpt>
      <trkpt lat="44.00204" lon="3.5089">
        <ele>850.8</ele>
        <time>2026-05-28T14:41:24.999Z</time>
      </trkpt>
      <trkpt lat="44.00204" lon="3.50892">
        <ele>850.6</ele>
        <time>2026-05-28T14:41:25.999Z</time>
      </trkpt>
      <trkpt lat="44.00204" lon="3.50894">
        <ele>850.3</ele>
        <time>2026-05-28T14:41:26.999Z</time>
      </trkpt>
      <trkpt lat="44.00204" lon="3.50895">
        <ele>850.4</ele>
        <time>2026-05-28T14:41:27.999Z</time>
      </trkpt>
      <trkpt lat="44.00204" lon="3.50895">
        <ele>850</ele>
        <time>2026-05-28T14:41:28.999Z</time>
      </trkpt>
      <trkpt lat="44.00204" lon="3.50895">
        <ele>849.9</ele>
        <time>2026-05-28T14:41:29.999Z</time>
      </trkpt>
      <trkpt lat="44.00203" lon="3.50896">
        <ele>850</ele>
        <time>2026-05-28T14:41:30.999Z</time>
      </trkpt>
      <trkpt lat="44.00202" lon="3.50896">
        <ele>849.8</ele>
        <time>2026-05-28T14:41:31.999Z</time>
      </trkpt>
      <trkpt lat="44.00203" lon="3.50897">
        <ele>849.7</ele>
        <time>2026-05-28T14:41:32.999Z</time>
      </trkpt>
      <trkpt lat="44.00202" lon="3.50898">
        <ele>849.7</ele>
        <time>2026-05-28T14:41:33.999Z</time>
      </trkpt>
      <trkpt lat="44.00202" lon="3.50898">
        <ele>849.6</ele>
        <time>2026-05-28T14:41:34.999Z</time>
      </trkpt>
      <trkpt lat="44.00201" lon="3.50899">
        <ele>849.4</ele>
        <time>2026-05-28T14:41:35.999Z</time>
      </trkpt>
      <trkpt lat="44.00201" lon="3.50899">
        <ele>848.9</ele>
        <time>2026-05-28T14:41:36.999Z</time>
      </trkpt>
      <trkpt lat="44.002" lon="3.509">
        <ele>848.4</ele>
        <time>2026-05-28T14:41:37.999Z</time>
      </trkpt>
      <trkpt lat="44.002" lon="3.50901">
        <ele>848.2</ele>
        <time>2026-05-28T14:41:38.999Z</time>
      </trkpt>
      <trkpt lat="44.002" lon="3.50903">
        <ele>847.8</ele>
        <time>2026-05-28T14:41:39.999Z</time>
      </trkpt>
      <trkpt lat="44.00199" lon="3.50905">
        <ele>847.6</ele>
        <time>2026-05-28T14:41:40.999Z</time>
      </trkpt>
      <trkpt lat="44.00199" lon="3.50906">
        <ele>847.6</ele>
        <time>2026-05-28T14:41:41.999Z</time>
      </trkpt>
      <trkpt lat="44.00199" lon="3.50907">
        <ele>847.6</ele>
        <time>2026-05-28T14:41:42.999Z</time>
      </trkpt>
      <trkpt lat="44.00199" lon="3.50908">
        <ele>847.2</ele>
        <time>2026-05-28T14:41:43.999Z</time>
      </trkpt>
      <trkpt lat="44.00199" lon="3.50909">
        <ele>846.8</ele>
        <time>2026-05-28T14:41:44.999Z</time>
      </trkpt>
      <trkpt lat="44.00199" lon="3.5091">
        <ele>846.7</ele>
        <time>2026-05-28T14:41:45.999Z</time>
      </trkpt>
      <trkpt lat="44.002" lon="3.50912">
        <ele>846.4</ele>
        <time>2026-05-28T14:41:46.999Z</time>
      </trkpt>
      <trkpt lat="44.00201" lon="3.50914">
        <ele>845.7</ele>
        <time>2026-05-28T14:41:47.999Z</time>
      </trkpt>
      <trkpt lat="44.00201" lon="3.50916">
        <ele>845.6</ele>
        <time>2026-05-28T14:41:48.999Z</time>
      </trkpt>
      <trkpt lat="44.00202" lon="3.50918">
        <ele>845.4</ele>
        <time>2026-05-28T14:41:49.999Z</time>
      </trkpt>
      <trkpt lat="44.00203" lon="3.50919">
        <ele>845</ele>
        <time>2026-05-28T14:41:50.999Z</time>
      </trkpt>
      <trkpt lat="44.00203" lon="3.5092">
        <ele>844.8</ele>
        <time>2026-05-28T14:41:51.999Z</time>
      </trkpt>
      <trkpt lat="44.00204" lon="3.50921">
        <ele>845</ele>
        <time>2026-05-28T14:41:52.999Z</time>
      </trkpt>
      <trkpt lat="44.00205" lon="3.50922">
        <ele>844.9</ele>
        <time>2026-05-28T14:41:53.999Z</time>
      </trkpt>
      <trkpt lat="44.00205" lon="3.50922">
        <ele>844.7</ele>
        <time>2026-05-28T14:41:54.999Z</time>
      </trkpt>
      <trkpt lat="44.00206" lon="3.50923">
        <ele>844.8</ele>
        <time>2026-05-28T14:41:55.999Z</time>
      </trkpt>
      <trkpt lat="44.00206" lon="3.50924">
        <ele>844.8</ele>
        <time>2026-05-28T14:41:56.999Z</time>
      </trkpt>
      <trkpt lat="44.00205" lon="3.50925">
        <ele>844.6</ele>
        <time>2026-05-28T14:41:57.999Z</time>
      </trkpt>
      <trkpt lat="44.00205" lon="3.50926">
        <ele>844.4</ele>
        <time>2026-05-28T14:41:58.999Z</time>
      </trkpt>
      <trkpt lat="44.00204" lon="3.50928">
        <ele>844.3</ele>
        <time>2026-05-28T14:41:59.999Z</time>
      </trkpt>
      <trkpt lat="44.00204" lon="3.50929">
        <ele>844</ele>
        <time>2026-05-28T14:42:00.999Z</time>
      </trkpt>
      <trkpt lat="44.00204" lon="3.5093">
        <ele>843.7</ele>
        <time>2026-05-28T14:42:01.999Z</time>
      </trkpt>
      <trkpt lat="44.00204" lon="3.50931">
        <ele>843.4</ele>
        <time>2026-05-28T14:42:02.999Z</time>
      </trkpt>
      <trkpt lat="44.00204" lon="3.50931">
        <ele>843.2</ele>
        <time>2026-05-28T14:42:03.999Z</time>
      </trkpt>
      <trkpt lat="44.00204" lon="3.50934">
        <ele>842.9</ele>
        <time>2026-05-28T14:42:04.999Z</time>
      </trkpt>
      <trkpt lat="44.00204" lon="3.50935">
        <ele>842.3</ele>
        <time>2026-05-28T14:42:05.999Z</time>
      </trkpt>
      <trkpt lat="44.00204" lon="3.50937">
        <ele>842.2</ele>
        <time>2026-05-28T14:42:06.999Z</time>
      </trkpt>
      <trkpt lat="44.00205" lon="3.50938">
        <ele>842</ele>
        <time>2026-05-28T14:42:07.999Z</time>
      </trkpt>
      <trkpt lat="44.00205" lon="3.50939">
        <ele>842.4</ele>
        <time>2026-05-28T14:42:08.999Z</time>
      </trkpt>
      <trkpt lat="44.00206" lon="3.5094">
        <ele>842.5</ele>
        <time>2026-05-28T14:42:09.999Z</time>
      </trkpt>
      <trkpt lat="44.00206" lon="3.50941">
        <ele>842.3</ele>
        <time>2026-05-28T14:42:10.999Z</time>
      </trkpt>
      <trkpt lat="44.00205" lon="3.50942">
        <ele>841.9</ele>
        <time>2026-05-28T14:42:11.999Z</time>
      </trkpt>
      <trkpt lat="44.00205" lon="3.50943">
        <ele>842</ele>
        <time>2026-05-28T14:42:12.999Z</time>
      </trkpt>
      <trkpt lat="44.00205" lon="3.50944">
        <ele>841.7</ele>
        <time>2026-05-28T14:42:13.999Z</time>
      </trkpt>
      <trkpt lat="44.00205" lon="3.50945">
        <ele>841.1</ele>
        <time>2026-05-28T14:42:14.999Z</time>
      </trkpt>
      <trkpt lat="44.00206" lon="3.50945">
        <ele>840.8</ele>
        <time>2026-05-28T14:42:15.999Z</time>
      </trkpt>
      <trkpt lat="44.00206" lon="3.50946">
        <ele>840.6</ele>
        <time>2026-05-28T14:42:16.999Z</time>
      </trkpt>
      <trkpt lat="44.00206" lon="3.50947">
        <ele>840.4</ele>
        <time>2026-05-28T14:42:17.999Z</time>
      </trkpt>
      <trkpt lat="44.00207" lon="3.50949">
        <ele>840.6</ele>
        <time>2026-05-28T14:42:18.999Z</time>
      </trkpt>
      <trkpt lat="44.00207" lon="3.50951">
        <ele>840.6</ele>
        <time>2026-05-28T14:42:19.999Z</time>
      </trkpt>
      <trkpt lat="44.00206" lon="3.50952">
        <ele>840.6</ele>
        <time>2026-05-28T14:42:20.999Z</time>
      </trkpt>
      <trkpt lat="44.00207" lon="3.50953">
        <ele>840.7</ele>
        <time>2026-05-28T14:42:21.999Z</time>
      </trkpt>
      <trkpt lat="44.00207" lon="3.50953">
        <ele>840.3</ele>
        <time>2026-05-28T14:42:22.999Z</time>
      </trkpt>
      <trkpt lat="44.00207" lon="3.50954">
        <ele>839.9</ele>
        <time>2026-05-28T14:42:23.999Z</time>
      </trkpt>
      <trkpt lat="44.00207" lon="3.50955">
        <ele>839.8</ele>
        <time>2026-05-28T14:42:24.999Z</time>
      </trkpt>
      <trkpt lat="44.00208" lon="3.50956">
        <ele>839.7</ele>
        <time>2026-05-28T14:42:25.999Z</time>
      </trkpt>
      <trkpt lat="44.00208" lon="3.50958">
        <ele>839.5</ele>
        <time>2026-05-28T14:42:26.999Z</time>
      </trkpt>
      <trkpt lat="44.00207" lon="3.50959">
        <ele>839.4</ele>
        <time>2026-05-28T14:42:27.999Z</time>
      </trkpt>
      <trkpt lat="44.00206" lon="3.5096">
        <ele>839.4</ele>
        <time>2026-05-28T14:42:28.999Z</time>
      </trkpt>
      <trkpt lat="44.00206" lon="3.50961">
        <ele>839.1</ele>
        <time>2026-05-28T14:42:29.999Z</time>
      </trkpt>
      <trkpt lat="44.00205" lon="3.50962">
        <ele>839</ele>
        <time>2026-05-28T14:42:30.999Z</time>
      </trkpt>
      <trkpt lat="44.00205" lon="3.50963">
        <ele>839.1</ele>
        <time>2026-05-28T14:42:31.999Z</time>
      </trkpt>
      <trkpt lat="44.00205" lon="3.50965">
        <ele>839.3</ele>
        <time>2026-05-28T14:42:32.999Z</time>
      </trkpt>
      <trkpt lat="44.00204" lon="3.50966">
        <ele>839.2</ele>
        <time>2026-05-28T14:42:33.999Z</time>
      </trkpt>
      <trkpt lat="44.00204" lon="3.50967">
        <ele>839.4</ele>
        <time>2026-05-28T14:42:34.999Z</time>
      </trkpt>
      <trkpt lat="44.00204" lon="3.50969">
        <ele>839.5</ele>
        <time>2026-05-28T14:42:35.999Z</time>
      </trkpt>
      <trkpt lat="44.00204" lon="3.5097">
        <ele>839.6</ele>
        <time>2026-05-28T14:42:36.999Z</time>
      </trkpt>
      <trkpt lat="44.00204" lon="3.50971">
        <ele>839.3</ele>
        <time>2026-05-28T14:42:37.999Z</time>
      </trkpt>
      <trkpt lat="44.00204" lon="3.50972">
        <ele>838.8</ele>
        <time>2026-05-28T14:42:38.999Z</time>
      </trkpt>
      <trkpt lat="44.00205" lon="3.50972">
        <ele>838.5</ele>
        <time>2026-05-28T14:42:39.999Z</time>
      </trkpt>
      <trkpt lat="44.00205" lon="3.50973">
        <ele>838.3</ele>
        <time>2026-05-28T14:42:40.999Z</time>
      </trkpt>
      <trkpt lat="44.00205" lon="3.50974">
        <ele>838</ele>
        <time>2026-05-28T14:42:41.999Z</time>
      </trkpt>
      <trkpt lat="44.00205" lon="3.50974">
        <ele>837.6</ele>
        <time>2026-05-28T14:42:42.999Z</time>
      </trkpt>
      <trkpt lat="44.00205" lon="3.50973">
        <ele>837.1</ele>
        <time>2026-05-28T14:42:43.999Z</time>
      </trkpt>
      <trkpt lat="44.00205" lon="3.50973">
        <ele>837.6</ele>
        <time>2026-05-28T14:42:44.999Z</time>
      </trkpt>
      <trkpt lat="44.00204" lon="3.50972">
        <ele>837.3</ele>
        <time>2026-05-28T14:42:45.999Z</time>
      </trkpt>
      <trkpt lat="44.00203" lon="3.50971">
        <ele>837</ele>
        <time>2026-05-28T14:42:46.999Z</time>
      </trkpt>
      <trkpt lat="44.00203" lon="3.5097">
        <ele>836.7</ele>
        <time>2026-05-28T14:42:47.999Z</time>
      </trkpt>
      <trkpt lat="44.00202" lon="3.50969">
        <ele>836.4</ele>
        <time>2026-05-28T14:42:48.999Z</time>
      </trkpt>
      <trkpt lat="44.00201" lon="3.50968">
        <ele>836.3</ele>
        <time>2026-05-28T14:42:49.999Z</time>
      </trkpt>
      <trkpt lat="44.002" lon="3.50967">
        <ele>836.2</ele>
        <time>2026-05-28T14:42:50.999Z</time>
      </trkpt>
      <trkpt lat="44.002" lon="3.50966">
        <ele>836.4</ele>
        <time>2026-05-28T14:42:51.999Z</time>
      </trkpt>
      <trkpt lat="44.002" lon="3.50964">
        <ele>836.4</ele>
        <time>2026-05-28T14:42:52.999Z</time>
      </trkpt>
      <trkpt lat="44.00199" lon="3.50963">
        <ele>836.5</ele>
        <time>2026-05-28T14:42:53.999Z</time>
      </trkpt>
      <trkpt lat="44.00199" lon="3.50961">
        <ele>836.7</ele>
        <time>2026-05-28T14:42:54.999Z</time>
      </trkpt>
      <trkpt lat="44.00198" lon="3.50959">
        <ele>836.9</ele>
        <time>2026-05-28T14:42:55.999Z</time>
      </trkpt>
      <trkpt lat="44.00198" lon="3.50958">
        <ele>836.9</ele>
        <time>2026-05-28T14:42:56.999Z</time>
      </trkpt>
      <trkpt lat="44.00197" lon="3.50957">
        <ele>836.9</ele>
        <time>2026-05-28T14:42:57.999Z</time>
      </trkpt>
      <trkpt lat="44.00196" lon="3.50956">
        <ele>836.6</ele>
        <time>2026-05-28T14:42:58.999Z</time>
      </trkpt>
      <trkpt lat="44.00195" lon="3.50955">
        <ele>836.1</ele>
        <time>2026-05-28T14:42:59.999Z</time>
      </trkpt>
      <trkpt lat="44.00195" lon="3.50954">
        <ele>835.6</ele>
        <time>2026-05-28T14:43:00.999Z</time>
      </trkpt>
      <trkpt lat="44.00194" lon="3.50954">
        <ele>835.3</ele>
        <time>2026-05-28T14:43:01.999Z</time>
      </trkpt>
      <trkpt lat="44.00193" lon="3.50953">
        <ele>835.2</ele>
        <time>2026-05-28T14:43:02.999Z</time>
      </trkpt>
      <trkpt lat="44.00193" lon="3.50953">
        <ele>834.8</ele>
        <time>2026-05-28T14:43:03.999Z</time>
      </trkpt>
      <trkpt lat="44.00193" lon="3.50953">
        <ele>834.9</ele>
        <time>2026-05-28T14:43:04.999Z</time>
      </trkpt>
      <trkpt lat="44.00193" lon="3.50953">
        <ele>834.9</ele>
        <time>2026-05-28T14:43:05.999Z</time>
      </trkpt>
      <trkpt lat="44.00192" lon="3.50953">
        <ele>834.8</ele>
        <time>2026-05-28T14:43:06.999Z</time>
      </trkpt>
      <trkpt lat="44.00191" lon="3.50953">
        <ele>834.5</ele>
        <time>2026-05-28T14:43:07.999Z</time>
      </trkpt>
      <trkpt lat="44.0019" lon="3.50955">
        <ele>833.9</ele>
        <time>2026-05-28T14:43:08.999Z</time>
      </trkpt>
      <trkpt lat="44.00189" lon="3.50956">
        <ele>833.9</ele>
        <time>2026-05-28T14:43:09.999Z</time>
      </trkpt>
      <trkpt lat="44.00189" lon="3.50957">
        <ele>833.9</ele>
        <time>2026-05-28T14:43:10.999Z</time>
      </trkpt>
      <trkpt lat="44.00189" lon="3.50959">
        <ele>833.7</ele>
        <time>2026-05-28T14:43:11.999Z</time>
      </trkpt>
      <trkpt lat="44.00189" lon="3.5096">
        <ele>833.7</ele>
        <time>2026-05-28T14:43:12.999Z</time>
      </trkpt>
      <trkpt lat="44.00189" lon="3.5096">
        <ele>833.1</ele>
        <time>2026-05-28T14:43:13.999Z</time>
      </trkpt>
      <trkpt lat="44.00189" lon="3.50961">
        <ele>832.8</ele>
        <time>2026-05-28T14:43:14.999Z</time>
      </trkpt>
      <trkpt lat="44.00189" lon="3.50963">
        <ele>832.8</ele>
        <time>2026-05-28T14:43:15.999Z</time>
      </trkpt>
      <trkpt lat="44.00189" lon="3.50965">
        <ele>832.4</ele>
        <time>2026-05-28T14:43:16.999Z</time>
      </trkpt>
      <trkpt lat="44.0019" lon="3.50968">
        <ele>832.2</ele>
        <time>2026-05-28T14:43:17.999Z</time>
      </trkpt>
      <trkpt lat="44.0019" lon="3.5097">
        <ele>832</ele>
        <time>2026-05-28T14:43:18.999Z</time>
      </trkpt>
      <trkpt lat="44.0019" lon="3.50971">
        <ele>831.7</ele>
        <time>2026-05-28T14:43:19.999Z</time>
      </trkpt>
      <trkpt lat="44.0019" lon="3.50972">
        <ele>831.6</ele>
        <time>2026-05-28T14:43:20.999Z</time>
      </trkpt>
      <trkpt lat="44.0019" lon="3.50974">
        <ele>831.3</ele>
        <time>2026-05-28T14:43:21.999Z</time>
      </trkpt>
      <trkpt lat="44.00191" lon="3.50975">
        <ele>831</ele>
        <time>2026-05-28T14:43:22.999Z</time>
      </trkpt>
      <trkpt lat="44.00191" lon="3.50976">
        <ele>830.6</ele>
        <time>2026-05-28T14:43:23.999Z</time>
      </trkpt>
      <trkpt lat="44.00191" lon="3.50977">
        <ele>830.1</ele>
        <time>2026-05-28T14:43:24.999Z</time>
      </trkpt>
      <trkpt lat="44.00191" lon="3.50978">
        <ele>829.8</ele>
        <time>2026-05-28T14:43:25.999Z</time>
      </trkpt>
      <trkpt lat="44.00191" lon="3.50978">
        <ele>829.5</ele>
        <time>2026-05-28T14:43:26.999Z</time>
      </trkpt>
      <trkpt lat="44.00191" lon="3.50979">
        <ele>829.4</ele>
        <time>2026-05-28T14:43:27.999Z</time>
      </trkpt>
      <trkpt lat="44.00191" lon="3.5098">
        <ele>829.1</ele>
        <time>2026-05-28T14:43:28.999Z</time>
      </trkpt>
      <trkpt lat="44.00191" lon="3.50982">
        <ele>828.8</ele>
        <time>2026-05-28T14:43:29.999Z</time>
      </trkpt>
      <trkpt lat="44.00191" lon="3.50984">
        <ele>828.5</ele>
        <time>2026-05-28T14:43:30.999Z</time>
      </trkpt>
      <trkpt lat="44.00191" lon="3.50985">
        <ele>828.1</ele>
        <time>2026-05-28T14:43:31.999Z</time>
      </trkpt>
      <trkpt lat="44.00191" lon="3.50986">
        <ele>827.4</ele>
        <time>2026-05-28T14:43:32.999Z</time>
      </trkpt>
      <trkpt lat="44.00192" lon="3.50987">
        <ele>827.4</ele>
        <time>2026-05-28T14:43:33.999Z</time>
      </trkpt>
      <trkpt lat="44.00192" lon="3.50989">
        <ele>827.2</ele>
        <time>2026-05-28T14:43:34.999Z</time>
      </trkpt>
      <trkpt lat="44.00192" lon="3.5099">
        <ele>827.2</ele>
        <time>2026-05-28T14:43:35.999Z</time>
      </trkpt>
      <trkpt lat="44.00192" lon="3.50992">
        <ele>827.3</ele>
        <time>2026-05-28T14:43:36.999Z</time>
      </trkpt>
      <trkpt lat="44.00192" lon="3.50993">
        <ele>827.6</ele>
        <time>2026-05-28T14:43:37.999Z</time>
      </trkpt>
      <trkpt lat="44.00192" lon="3.50995">
        <ele>827.6</ele>
        <time>2026-05-28T14:43:38.999Z</time>
      </trkpt>
      <trkpt lat="44.00192" lon="3.50996">
        <ele>827.6</ele>
        <time>2026-05-28T14:43:39.999Z</time>
      </trkpt>
      <trkpt lat="44.00192" lon="3.50997">
        <ele>827.6</ele>
        <time>2026-05-28T14:43:40.999Z</time>
      </trkpt>
      <trkpt lat="44.00192" lon="3.50999">
        <ele>827.7</ele>
        <time>2026-05-28T14:43:41.999Z</time>
      </trkpt>
      <trkpt lat="44.00192" lon="3.51001">
        <ele>827.6</ele>
        <time>2026-05-28T14:43:42.999Z</time>
      </trkpt>
      <trkpt lat="44.00192" lon="3.51002">
        <ele>827.5</ele>
        <time>2026-05-28T14:43:43.999Z</time>
      </trkpt>
      <trkpt lat="44.00193" lon="3.51004">
        <ele>827.6</ele>
        <time>2026-05-28T14:43:44.999Z</time>
      </trkpt>
      <trkpt lat="44.00194" lon="3.51005">
        <ele>827.7</ele>
        <time>2026-05-28T14:43:45.999Z</time>
      </trkpt>
      <trkpt lat="44.00194" lon="3.51007">
        <ele>827.4</ele>
        <time>2026-05-28T14:43:46.999Z</time>
      </trkpt>
      <trkpt lat="44.00194" lon="3.51008">
        <ele>827.2</ele>
        <time>2026-05-28T14:43:47.999Z</time>
      </trkpt>
      <trkpt lat="44.00194" lon="3.5101">
        <ele>827.3</ele>
        <time>2026-05-28T14:43:48.999Z</time>
      </trkpt>
      <trkpt lat="44.00194" lon="3.5101">
        <ele>827.1</ele>
        <time>2026-05-28T14:43:49.999Z</time>
      </trkpt>
      <trkpt lat="44.00194" lon="3.51011">
        <ele>826.9</ele>
        <time>2026-05-28T14:43:50.999Z</time>
      </trkpt>
      <trkpt lat="44.00195" lon="3.51013">
        <ele>827</ele>
        <time>2026-05-28T14:43:51.999Z</time>
      </trkpt>
      <trkpt lat="44.00195" lon="3.51014">
        <ele>826.9</ele>
        <time>2026-05-28T14:43:52.999Z</time>
      </trkpt>
      <trkpt lat="44.00195" lon="3.51015">
        <ele>826.8</ele>
        <time>2026-05-28T14:43:53.999Z</time>
      </trkpt>
      <trkpt lat="44.00195" lon="3.51015">
        <ele>826.7</ele>
        <time>2026-05-28T14:43:54.999Z</time>
      </trkpt>
      <trkpt lat="44.00195" lon="3.51016">
        <ele>826.4</ele>
        <time>2026-05-28T14:43:55.999Z</time>
      </trkpt>
      <trkpt lat="44.00195" lon="3.51018">
        <ele>826.5</ele>
        <time>2026-05-28T14:43:56.999Z</time>
      </trkpt>
      <trkpt lat="44.00195" lon="3.5102">
        <ele>826.5</ele>
        <time>2026-05-28T14:43:57.999Z</time>
      </trkpt>
      <trkpt lat="44.00195" lon="3.51021">
        <ele>826.6</ele>
        <time>2026-05-28T14:43:58.999Z</time>
      </trkpt>
      <trkpt lat="44.00195" lon="3.51023">
        <ele>826.5</ele>
        <time>2026-05-28T14:43:59.999Z</time>
      </trkpt>
      <trkpt lat="44.00196" lon="3.51024">
        <ele>826.2</ele>
        <time>2026-05-28T14:44:00.999Z</time>
      </trkpt>
      <trkpt lat="44.00196" lon="3.51025">
        <ele>826.3</ele>
        <time>2026-05-28T14:44:01.999Z</time>
      </trkpt>
      <trkpt lat="44.00197" lon="3.51026">
        <ele>826.2</ele>
        <time>2026-05-28T14:44:02.999Z</time>
      </trkpt>
      <trkpt lat="44.00197" lon="3.51026">
        <ele>825.8</ele>
        <time>2026-05-28T14:44:03.999Z</time>
      </trkpt>
      <trkpt lat="44.00197" lon="3.51027">
        <ele>825.6</ele>
        <time>2026-05-28T14:44:04.999Z</time>
      </trkpt>
      <trkpt lat="44.00197" lon="3.51029">
        <ele>825.3</ele>
        <time>2026-05-28T14:44:05.999Z</time>
      </trkpt>
      <trkpt lat="44.00197" lon="3.5103">
        <ele>825.1</ele>
        <time>2026-05-28T14:44:06.999Z</time>
      </trkpt>
      <trkpt lat="44.00197" lon="3.51031">
        <ele>825</ele>
        <time>2026-05-28T14:44:07.999Z</time>
      </trkpt>
      <trkpt lat="44.00197" lon="3.51032">
        <ele>825</ele>
        <time>2026-05-28T14:44:08.999Z</time>
      </trkpt>
      <trkpt lat="44.00197" lon="3.51033">
        <ele>824.8</ele>
        <time>2026-05-28T14:44:09.999Z</time>
      </trkpt>
      <trkpt lat="44.00197" lon="3.51034">
        <ele>824.6</ele>
        <time>2026-05-28T14:44:10.999Z</time>
      </trkpt>
      <trkpt lat="44.00197" lon="3.51035">
        <ele>824</ele>
        <time>2026-05-28T14:44:11.999Z</time>
      </trkpt>
      <trkpt lat="44.00197" lon="3.51036">
        <ele>823.3</ele>
        <time>2026-05-28T14:44:12.999Z</time>
      </trkpt>
      <trkpt lat="44.00197" lon="3.51037">
        <ele>822.9</ele>
        <time>2026-05-28T14:44:13.999Z</time>
      </trkpt>
      <trkpt lat="44.00197" lon="3.51039">
        <ele>822.4</ele>
        <time>2026-05-28T14:44:14.999Z</time>
      </trkpt>
      <trkpt lat="44.00197" lon="3.51039">
        <ele>821.5</ele>
        <time>2026-05-28T14:44:15.999Z</time>
      </trkpt>
      <trkpt lat="44.00197" lon="3.5104">
        <ele>820.9</ele>
        <time>2026-05-28T14:44:16.999Z</time>
      </trkpt>
      <trkpt lat="44.00197" lon="3.5104">
        <ele>820.4</ele>
        <time>2026-05-28T14:44:17.999Z</time>
      </trkpt>
      <trkpt lat="44.00197" lon="3.5104">
        <ele>820</ele>
        <time>2026-05-28T14:44:18.999Z</time>
      </trkpt>
      <trkpt lat="44.00197" lon="3.51041">
        <ele>819.9</ele>
        <time>2026-05-28T14:44:19.999Z</time>
      </trkpt>
      <trkpt lat="44.00197" lon="3.51041">
        <ele>820</ele>
        <time>2026-05-28T14:44:20.999Z</time>
      </trkpt>
      <trkpt lat="44.00197" lon="3.51042">
        <ele>820.1</ele>
        <time>2026-05-28T14:44:21.999Z</time>
      </trkpt>
      <trkpt lat="44.00196" lon="3.51042">
        <ele>820.1</ele>
        <time>2026-05-28T14:44:22.999Z</time>
      </trkpt>
      <trkpt lat="44.00196" lon="3.51044">
        <ele>820</ele>
        <time>2026-05-28T14:44:23.999Z</time>
      </trkpt>
      <trkpt lat="44.00196" lon="3.51045">
        <ele>819.9</ele>
        <time>2026-05-28T14:44:24.999Z</time>
      </trkpt>
      <trkpt lat="44.00196" lon="3.51046">
        <ele>819.8</ele>
        <time>2026-05-28T14:44:25.999Z</time>
      </trkpt>
      <trkpt lat="44.00195" lon="3.51047">
        <ele>820.1</ele>
        <time>2026-05-28T14:44:26.999Z</time>
      </trkpt>
      <trkpt lat="44.00194" lon="3.51049">
        <ele>820.5</ele>
        <time>2026-05-28T14:44:27.999Z</time>
      </trkpt>
      <trkpt lat="44.00194" lon="3.5105">
        <ele>820.6</ele>
        <time>2026-05-28T14:44:28.999Z</time>
      </trkpt>
      <trkpt lat="44.00194" lon="3.51052">
        <ele>820.4</ele>
        <time>2026-05-28T14:44:29.999Z</time>
      </trkpt>
      <trkpt lat="44.00193" lon="3.51053">
        <ele>820.3</ele>
        <time>2026-05-28T14:44:30.999Z</time>
      </trkpt>
      <trkpt lat="44.00193" lon="3.51054">
        <ele>820.1</ele>
        <time>2026-05-28T14:44:31.999Z</time>
      </trkpt>
      <trkpt lat="44.00193" lon="3.51054">
        <ele>820.1</ele>
        <time>2026-05-28T14:44:32.999Z</time>
      </trkpt>
      <trkpt lat="44.00193" lon="3.51055">
        <ele>820.1</ele>
        <time>2026-05-28T14:44:33.999Z</time>
      </trkpt>
      <trkpt lat="44.00193" lon="3.51056">
        <ele>819.9</ele>
        <time>2026-05-28T14:44:34.999Z</time>
      </trkpt>
      <trkpt lat="44.00193" lon="3.51057">
        <ele>819.9</ele>
        <time>2026-05-28T14:44:35.999Z</time>
      </trkpt>
      <trkpt lat="44.00193" lon="3.51057">
        <ele>819.8</ele>
        <time>2026-05-28T14:44:36.999Z</time>
      </trkpt>
      <trkpt lat="44.00193" lon="3.51059">
        <ele>819.8</ele>
        <time>2026-05-28T14:44:37.999Z</time>
      </trkpt>
      <trkpt lat="44.00192" lon="3.5106">
        <ele>819.8</ele>
        <time>2026-05-28T14:44:38.999Z</time>
      </trkpt>
      <trkpt lat="44.00192" lon="3.51061">
        <ele>819.5</ele>
        <time>2026-05-28T14:44:39.999Z</time>
      </trkpt>
      <trkpt lat="44.00193" lon="3.51062">
        <ele>819.3</ele>
        <time>2026-05-28T14:44:40.999Z</time>
      </trkpt>
      <trkpt lat="44.00193" lon="3.51062">
        <ele>819.4</ele>
        <time>2026-05-28T14:44:41.999Z</time>
      </trkpt>
      <trkpt lat="44.00194" lon="3.51063">
        <ele>819.4</ele>
        <time>2026-05-28T14:44:42.999Z</time>
      </trkpt>
      <trkpt lat="44.00195" lon="3.51064">
        <ele>819.1</ele>
        <time>2026-05-28T14:44:43.999Z</time>
      </trkpt>
      <trkpt lat="44.00195" lon="3.51065">
        <ele>818.9</ele>
        <time>2026-05-28T14:44:44.999Z</time>
      </trkpt>
      <trkpt lat="44.00196" lon="3.51065">
        <ele>818.5</ele>
        <time>2026-05-28T14:44:45.999Z</time>
      </trkpt>
      <trkpt lat="44.00196" lon="3.51066">
        <ele>818.3</ele>
        <time>2026-05-28T14:44:46.999Z</time>
      </trkpt>
      <trkpt lat="44.00197" lon="3.51068">
        <ele>818.1</ele>
        <time>2026-05-28T14:44:47.999Z</time>
      </trkpt>
      <trkpt lat="44.00197" lon="3.51069">
        <ele>817.8</ele>
        <time>2026-05-28T14:44:48.999Z</time>
      </trkpt>
      <trkpt lat="44.00198" lon="3.5107">
        <ele>817.5</ele>
        <time>2026-05-28T14:44:49.999Z</time>
      </trkpt>
      <trkpt lat="44.00198" lon="3.51071">
        <ele>817.4</ele>
        <time>2026-05-28T14:44:50.999Z</time>
      </trkpt>
      <trkpt lat="44.00199" lon="3.51072">
        <ele>817.1</ele>
        <time>2026-05-28T14:44:51.999Z</time>
      </trkpt>
      <trkpt lat="44.00199" lon="3.51074">
        <ele>816.9</ele>
        <time>2026-05-28T14:44:52.999Z</time>
      </trkpt>
      <trkpt lat="44.00199" lon="3.51075">
        <ele>816.5</ele>
        <time>2026-05-28T14:44:53.999Z</time>
      </trkpt>
      <trkpt lat="44.00199" lon="3.51076">
        <ele>816.1</ele>
        <time>2026-05-28T14:44:54.999Z</time>
      </trkpt>
      <trkpt lat="44.00199" lon="3.51076">
        <ele>815.9</ele>
        <time>2026-05-28T14:44:55.999Z</time>
      </trkpt>
      <trkpt lat="44.002" lon="3.51077">
        <ele>815.5</ele>
        <time>2026-05-28T14:44:56.999Z</time>
      </trkpt>
      <trkpt lat="44.002" lon="3.51078">
        <ele>815.2</ele>
        <time>2026-05-28T14:44:57.999Z</time>
      </trkpt>
      <trkpt lat="44.002" lon="3.51079">
        <ele>815</ele>
        <time>2026-05-28T14:44:58.999Z</time>
      </trkpt>
      <trkpt lat="44.002" lon="3.51079">
        <ele>814.8</ele>
        <time>2026-05-28T14:44:59.999Z</time>
      </trkpt>
      <trkpt lat="44.00201" lon="3.51079">
        <ele>814.6</ele>
        <time>2026-05-28T14:45:00.999Z</time>
      </trkpt>
      <trkpt lat="44.00201" lon="3.5108">
        <ele>814.4</ele>
        <time>2026-05-28T14:45:01.999Z</time>
      </trkpt>
      <trkpt lat="44.00202" lon="3.51081">
        <ele>814.2</ele>
        <time>2026-05-28T14:45:02.999Z</time>
      </trkpt>
      <trkpt lat="44.00202" lon="3.51082">
        <ele>814</ele>
        <time>2026-05-28T14:45:03.999Z</time>
      </trkpt>
      <trkpt lat="44.00202" lon="3.51082">
        <ele>813.8</ele>
        <time>2026-05-28T14:45:04.999Z</time>
      </trkpt>
      <trkpt lat="44.00202" lon="3.51083">
        <ele>813.7</ele>
        <time>2026-05-28T14:45:05.999Z</time>
      </trkpt>
      <trkpt lat="44.00201" lon="3.51083">
        <ele>813.5</ele>
        <time>2026-05-28T14:45:06.999Z</time>
      </trkpt>
      <trkpt lat="44.00201" lon="3.51082">
        <ele>813.2</ele>
        <time>2026-05-28T14:45:07.999Z</time>
      </trkpt>
      <trkpt lat="44.002" lon="3.51082">
        <ele>813.1</ele>
        <time>2026-05-28T14:45:08.999Z</time>
      </trkpt>
      <trkpt lat="44.002" lon="3.51082">
        <ele>813.3</ele>
        <time>2026-05-28T14:45:09.999Z</time>
      </trkpt>
      <trkpt lat="44.002" lon="3.51082">
        <ele>813.1</ele>
        <time>2026-05-28T14:45:10.999Z</time>
      </trkpt>
      <trkpt lat="44.00199" lon="3.51082">
        <ele>812.7</ele>
        <time>2026-05-28T14:45:11.999Z</time>
      </trkpt>
      <trkpt lat="44.00199" lon="3.51082">
        <ele>812.7</ele>
        <time>2026-05-28T14:45:12.999Z</time>
      </trkpt>
      <trkpt lat="44.00199" lon="3.51083">
        <ele>812.7</ele>
        <time>2026-05-28T14:45:13.999Z</time>
      </trkpt>
      <trkpt lat="44.002" lon="3.51084">
        <ele>812.5</ele>
        <time>2026-05-28T14:45:14.999Z</time>
      </trkpt>
      <trkpt lat="44.002" lon="3.51086">
        <ele>812.4</ele>
        <time>2026-05-28T14:45:15.999Z</time>
      </trkpt>
      <trkpt lat="44.002" lon="3.51087">
        <ele>812.3</ele>
        <time>2026-05-28T14:45:16.999Z</time>
      </trkpt>
      <trkpt lat="44.00199" lon="3.51089">
        <ele>812.2</ele>
        <time>2026-05-28T14:45:17.999Z</time>
      </trkpt>
      <trkpt lat="44.00199" lon="3.5109">
        <ele>811.9</ele>
        <time>2026-05-28T14:45:18.999Z</time>
      </trkpt>
      <trkpt lat="44.00199" lon="3.51092">
        <ele>812.1</ele>
        <time>2026-05-28T14:45:19.999Z</time>
      </trkpt>
      <trkpt lat="44.00199" lon="3.51093">
        <ele>812.1</ele>
        <time>2026-05-28T14:45:20.999Z</time>
      </trkpt>
      <trkpt lat="44.00199" lon="3.51093">
        <ele>811.8</ele>
        <time>2026-05-28T14:45:21.999Z</time>
      </trkpt>
      <trkpt lat="44.002" lon="3.51094">
        <ele>811.5</ele>
        <time>2026-05-28T14:45:22.999Z</time>
      </trkpt>
      <trkpt lat="44.00201" lon="3.51096">
        <ele>811</ele>
        <time>2026-05-28T14:45:23.999Z</time>
      </trkpt>
      <trkpt lat="44.00201" lon="3.51097">
        <ele>811</ele>
        <time>2026-05-28T14:45:24.999Z</time>
      </trkpt>
      <trkpt lat="44.00201" lon="3.51098">
        <ele>810.5</ele>
        <time>2026-05-28T14:45:25.999Z</time>
      </trkpt>
      <trkpt lat="44.00202" lon="3.51099">
        <ele>810.2</ele>
        <time>2026-05-28T14:45:26.999Z</time>
      </trkpt>
      <trkpt lat="44.00202" lon="3.51099">
        <ele>810.2</ele>
        <time>2026-05-28T14:45:27.999Z</time>
      </trkpt>
      <trkpt lat="44.00203" lon="3.511">
        <ele>810</ele>
        <time>2026-05-28T14:45:28.999Z</time>
      </trkpt>
      <trkpt lat="44.00204" lon="3.51101">
        <ele>809.7</ele>
        <time>2026-05-28T14:45:29.999Z</time>
      </trkpt>
      <trkpt lat="44.00204" lon="3.51101">
        <ele>809.6</ele>
        <time>2026-05-28T14:45:30.999Z</time>
      </trkpt>
      <trkpt lat="44.00205" lon="3.51102">
        <ele>809.2</ele>
        <time>2026-05-28T14:45:31.999Z</time>
      </trkpt>
      <trkpt lat="44.00205" lon="3.51103">
        <ele>809</ele>
        <time>2026-05-28T14:45:32.999Z</time>
      </trkpt>
      <trkpt lat="44.00206" lon="3.51104">
        <ele>808.8</ele>
        <time>2026-05-28T14:45:33.999Z</time>
      </trkpt>
      <trkpt lat="44.00207" lon="3.51105">
        <ele>808.8</ele>
        <time>2026-05-28T14:45:34.999Z</time>
      </trkpt>
      <trkpt lat="44.00208" lon="3.51105">
        <ele>808.9</ele>
        <time>2026-05-28T14:45:35.999Z</time>
      </trkpt>
      <trkpt lat="44.00208" lon="3.51106">
        <ele>808.6</ele>
        <time>2026-05-28T14:45:36.999Z</time>
      </trkpt>
      <trkpt lat="44.00208" lon="3.51107">
        <ele>808.4</ele>
        <time>2026-05-28T14:45:37.999Z</time>
      </trkpt>
      <trkpt lat="44.00209" lon="3.51108">
        <ele>808.1</ele>
        <time>2026-05-28T14:45:38.999Z</time>
      </trkpt>
      <trkpt lat="44.0021" lon="3.51108">
        <ele>807.9</ele>
        <time>2026-05-28T14:45:39.999Z</time>
      </trkpt>
      <trkpt lat="44.0021" lon="3.51109">
        <ele>808</ele>
        <time>2026-05-28T14:45:40.999Z</time>
      </trkpt>
      <trkpt lat="44.00211" lon="3.5111">
        <ele>808</ele>
        <time>2026-05-28T14:45:41.999Z</time>
      </trkpt>
      <trkpt lat="44.00211" lon="3.51111">
        <ele>808</ele>
        <time>2026-05-28T14:45:42.999Z</time>
      </trkpt>
      <trkpt lat="44.00211" lon="3.51112">
        <ele>808</ele>
        <time>2026-05-28T14:45:43.999Z</time>
      </trkpt>
      <trkpt lat="44.00211" lon="3.51113">
        <ele>808</ele>
        <time>2026-05-28T14:45:44.999Z</time>
      </trkpt>
      <trkpt lat="44.00211" lon="3.51114">
        <ele>807.9</ele>
        <time>2026-05-28T14:45:45.999Z</time>
      </trkpt>
      <trkpt lat="44.0021" lon="3.51115">
        <ele>807.6</ele>
        <time>2026-05-28T14:45:46.999Z</time>
      </trkpt>
      <trkpt lat="44.0021" lon="3.51117">
        <ele>807.3</ele>
        <time>2026-05-28T14:45:47.999Z</time>
      </trkpt>
      <trkpt lat="44.00209" lon="3.51118">
        <ele>807.3</ele>
        <time>2026-05-28T14:45:48.999Z</time>
      </trkpt>
      <trkpt lat="44.00209" lon="3.51119">
        <ele>807.3</ele>
        <time>2026-05-28T14:45:49.999Z</time>
      </trkpt>
      <trkpt lat="44.00208" lon="3.51119">
        <ele>806.9</ele>
        <time>2026-05-28T14:45:50.999Z</time>
      </trkpt>
      <trkpt lat="44.00208" lon="3.51121">
        <ele>806.8</ele>
        <time>2026-05-28T14:45:51.999Z</time>
      </trkpt>
      <trkpt lat="44.00208" lon="3.51122">
        <ele>807.1</ele>
        <time>2026-05-28T14:45:52.999Z</time>
      </trkpt>
      <trkpt lat="44.00208" lon="3.51123">
        <ele>807.3</ele>
        <time>2026-05-28T14:45:53.999Z</time>
      </trkpt>
      <trkpt lat="44.00208" lon="3.51125">
        <ele>807.2</ele>
        <time>2026-05-28T14:45:54.999Z</time>
      </trkpt>
      <trkpt lat="44.00208" lon="3.51126">
        <ele>806.9</ele>
        <time>2026-05-28T14:45:55.999Z</time>
      </trkpt>
      <trkpt lat="44.00209" lon="3.51127">
        <ele>806.5</ele>
        <time>2026-05-28T14:45:56.999Z</time>
      </trkpt>
      <trkpt lat="44.00209" lon="3.51128">
        <ele>806.3</ele>
        <time>2026-05-28T14:45:57.999Z</time>
      </trkpt>
      <trkpt lat="44.00209" lon="3.51129">
        <ele>805.8</ele>
        <time>2026-05-28T14:45:58.999Z</time>
      </trkpt>
      <trkpt lat="44.00209" lon="3.5113">
        <ele>805.6</ele>
        <time>2026-05-28T14:45:59.999Z</time>
      </trkpt>
      <trkpt lat="44.00208" lon="3.51131">
        <ele>805.5</ele>
        <time>2026-05-28T14:46:00.999Z</time>
      </trkpt>
      <trkpt lat="44.00208" lon="3.51132">
        <ele>805.4</ele>
        <time>2026-05-28T14:46:01.999Z</time>
      </trkpt>
      <trkpt lat="44.00208" lon="3.51133">
        <ele>805</ele>
        <time>2026-05-28T14:46:02.999Z</time>
      </trkpt>
      <trkpt lat="44.00208" lon="3.51134">
        <ele>804.9</ele>
        <time>2026-05-28T14:46:03.999Z</time>
      </trkpt>
      <trkpt lat="44.00207" lon="3.51135">
        <ele>804.8</ele>
        <time>2026-05-28T14:46:04.999Z</time>
      </trkpt>
      <trkpt lat="44.00207" lon="3.51135">
        <ele>805</ele>
        <time>2026-05-28T14:46:05.999Z</time>
      </trkpt>
      <trkpt lat="44.00207" lon="3.51135">
        <ele>804.9</ele>
        <time>2026-05-28T14:46:06.999Z</time>
      </trkpt>
      <trkpt lat="44.00207" lon="3.51136">
        <ele>805.1</ele>
        <time>2026-05-28T14:46:07.999Z</time>
      </trkpt>
      <trkpt lat="44.00207" lon="3.51136">
        <ele>805.3</ele>
        <time>2026-05-28T14:46:08.999Z</time>
      </trkpt>
      <trkpt lat="44.00206" lon="3.51136">
        <ele>805.6</ele>
        <time>2026-05-28T14:46:09.999Z</time>
      </trkpt>
      <trkpt lat="44.00206" lon="3.51136">
        <ele>805.6</ele>
        <time>2026-05-28T14:46:11.000Z</time>
      </trkpt>
      <trkpt lat="44.00206" lon="3.51136">
        <ele>805.5</ele>
        <time>2026-05-28T14:46:12.000Z</time>
      </trkpt>
      <trkpt lat="44.00206" lon="3.51136">
        <ele>805.4</ele>
        <time>2026-05-28T14:46:13.000Z</time>
      </trkpt>
      <trkpt lat="44.00205" lon="3.51137">
        <ele>805.1</ele>
        <time>2026-05-28T14:46:14.000Z</time>
      </trkpt>
      <trkpt lat="44.00205" lon="3.51138">
        <ele>804.8</ele>
        <time>2026-05-28T14:46:15.000Z</time>
      </trkpt>
      <trkpt lat="44.00204" lon="3.51139">
        <ele>804.6</ele>
        <time>2026-05-28T14:46:16.000Z</time>
      </trkpt>
      <trkpt lat="44.00204" lon="3.5114">
        <ele>804.4</ele>
        <time>2026-05-28T14:46:17.000Z</time>
      </trkpt>
      <trkpt lat="44.00204" lon="3.51141">
        <ele>804.2</ele>
        <time>2026-05-28T14:46:18.000Z</time>
      </trkpt>
      <trkpt lat="44.00204" lon="3.51142">
        <ele>803.9</ele>
        <time>2026-05-28T14:46:19.000Z</time>
      </trkpt>
      <trkpt lat="44.00204" lon="3.51144">
        <ele>803.6</ele>
        <time>2026-05-28T14:46:20.000Z</time>
      </trkpt>
      <trkpt lat="44.00205" lon="3.51145">
        <ele>803.4</ele>
        <time>2026-05-28T14:46:21.000Z</time>
      </trkpt>
      <trkpt lat="44.00205" lon="3.51146">
        <ele>803.2</ele>
        <time>2026-05-28T14:46:22.000Z</time>
      </trkpt>
      <trkpt lat="44.00205" lon="3.51147">
        <ele>803</ele>
        <time>2026-05-28T14:46:23.000Z</time>
      </trkpt>
      <trkpt lat="44.00206" lon="3.51148">
        <ele>802.8</ele>
        <time>2026-05-28T14:46:24.000Z</time>
      </trkpt>
      <trkpt lat="44.00206" lon="3.51148">
        <ele>802.5</ele>
        <time>2026-05-28T14:46:25.000Z</time>
      </trkpt>
      <trkpt lat="44.00206" lon="3.51147">
        <ele>802.2</ele>
        <time>2026-05-28T14:46:26.000Z</time>
      </trkpt>
      <trkpt lat="44.00206" lon="3.51147">
        <ele>802.3</ele>
        <time>2026-05-28T14:46:27.000Z</time>
      </trkpt>
      <trkpt lat="44.00206" lon="3.51146">
        <ele>801.9</ele>
        <time>2026-05-28T14:46:28.000Z</time>
      </trkpt>
      <trkpt lat="44.00205" lon="3.51147">
        <ele>801.8</ele>
        <time>2026-05-28T14:46:29.000Z</time>
      </trkpt>
      <trkpt lat="44.00205" lon="3.51147">
        <ele>801.7</ele>
        <time>2026-05-28T14:46:30.000Z</time>
      </trkpt>
      <trkpt lat="44.00204" lon="3.51148">
        <ele>801.7</ele>
        <time>2026-05-28T14:46:31.000Z</time>
      </trkpt>
      <trkpt lat="44.00204" lon="3.51148">
        <ele>801.5</ele>
        <time>2026-05-28T14:46:32.000Z</time>
      </trkpt>
      <trkpt lat="44.00203" lon="3.51148">
        <ele>801.4</ele>
        <time>2026-05-28T14:46:33.000Z</time>
      </trkpt>
      <trkpt lat="44.00202" lon="3.51149">
        <ele>801.2</ele>
        <time>2026-05-28T14:46:34.000Z</time>
      </trkpt>
      <trkpt lat="44.00202" lon="3.5115">
        <ele>800.7</ele>
        <time>2026-05-28T14:46:35.000Z</time>
      </trkpt>
      <trkpt lat="44.00201" lon="3.51151">
        <ele>800.4</ele>
        <time>2026-05-28T14:46:36.000Z</time>
      </trkpt>
      <trkpt lat="44.002" lon="3.51151">
        <ele>799.9</ele>
        <time>2026-05-28T14:46:37.000Z</time>
      </trkpt>
      <trkpt lat="44.00199" lon="3.51151">
        <ele>799.7</ele>
        <time>2026-05-28T14:46:38.000Z</time>
      </trkpt>
      <trkpt lat="44.00199" lon="3.5115">
        <ele>799.5</ele>
        <time>2026-05-28T14:46:39.000Z</time>
      </trkpt>
      <trkpt lat="44.00198" lon="3.5115">
        <ele>799.3</ele>
        <time>2026-05-28T14:46:40.000Z</time>
      </trkpt>
      <trkpt lat="44.00198" lon="3.5115">
        <ele>799.4</ele>
        <time>2026-05-28T14:46:41.000Z</time>
      </trkpt>
      <trkpt lat="44.00198" lon="3.51151">
        <ele>799.3</ele>
        <time>2026-05-28T14:46:42.000Z</time>
      </trkpt>
      <trkpt lat="44.00198" lon="3.51152">
        <ele>799.6</ele>
        <time>2026-05-28T14:46:43.000Z</time>
      </trkpt>
      <trkpt lat="44.00198" lon="3.51153">
        <ele>799.5</ele>
        <time>2026-05-28T14:46:44.000Z</time>
      </trkpt>
      <trkpt lat="44.00198" lon="3.51154">
        <ele>799.3</ele>
        <time>2026-05-28T14:46:45.000Z</time>
      </trkpt>
      <trkpt lat="44.00198" lon="3.51154">
        <ele>799</ele>
        <time>2026-05-28T14:46:46.000Z</time>
      </trkpt>
      <trkpt lat="44.00198" lon="3.51156">
        <ele>798.7</ele>
        <time>2026-05-28T14:46:47.000Z</time>
      </trkpt>
      <trkpt lat="44.00198" lon="3.51157">
        <ele>798.5</ele>
        <time>2026-05-28T14:46:48.000Z</time>
      </trkpt>
      <trkpt lat="44.00198" lon="3.51157">
        <ele>798</ele>
        <time>2026-05-28T14:46:49.000Z</time>
      </trkpt>
      <trkpt lat="44.00198" lon="3.51159">
        <ele>797.5</ele>
        <time>2026-05-28T14:46:50.000Z</time>
      </trkpt>
      <trkpt lat="44.00198" lon="3.5116">
        <ele>797.3</ele>
        <time>2026-05-28T14:46:51.000Z</time>
      </trkpt>
      <trkpt lat="44.00198" lon="3.51161">
        <ele>797.2</ele>
        <time>2026-05-28T14:46:52.000Z</time>
      </trkpt>
      <trkpt lat="44.00199" lon="3.51163">
        <ele>797.4</ele>
        <time>2026-05-28T14:46:53.000Z</time>
      </trkpt>
      <trkpt lat="44.00199" lon="3.51163">
        <ele>797.4</ele>
        <time>2026-05-28T14:46:54.000Z</time>
      </trkpt>
      <trkpt lat="44.00199" lon="3.51162">
        <ele>797</ele>
        <time>2026-05-28T14:46:55.000Z</time>
      </trkpt>
      <trkpt lat="44.00199" lon="3.51162">
        <ele>797</ele>
        <time>2026-05-28T14:46:56.000Z</time>
      </trkpt>
      <trkpt lat="44.00199" lon="3.51162">
        <ele>797.1</ele>
        <time>2026-05-28T14:46:57.000Z</time>
      </trkpt>
      <trkpt lat="44.00199" lon="3.51162">
        <ele>797</ele>
        <time>2026-05-28T14:46:58.000Z</time>
      </trkpt>
      <trkpt lat="44.00198" lon="3.51162">
        <ele>797</ele>
        <time>2026-05-28T14:46:59.000Z</time>
      </trkpt>
      <trkpt lat="44.00198" lon="3.51162">
        <ele>797</ele>
        <time>2026-05-28T14:47:00.000Z</time>
      </trkpt>
      <trkpt lat="44.00197" lon="3.51163">
        <ele>796.9</ele>
        <time>2026-05-28T14:47:01.000Z</time>
      </trkpt>
      <trkpt lat="44.00197" lon="3.51162">
        <ele>796.8</ele>
        <time>2026-05-28T14:47:02.000Z</time>
      </trkpt>
      <trkpt lat="44.00196" lon="3.51163">
        <ele>796.6</ele>
        <time>2026-05-28T14:47:03.000Z</time>
      </trkpt>
      <trkpt lat="44.00195" lon="3.51163">
        <ele>796.7</ele>
        <time>2026-05-28T14:47:04.000Z</time>
      </trkpt>
      <trkpt lat="44.00194" lon="3.51164">
        <ele>796.4</ele>
        <time>2026-05-28T14:47:05.000Z</time>
      </trkpt>
      <trkpt lat="44.00193" lon="3.51165">
        <ele>796.5</ele>
        <time>2026-05-28T14:47:06.000Z</time>
      </trkpt>
      <trkpt lat="44.00194" lon="3.51166">
        <ele>796.4</ele>
        <time>2026-05-28T14:47:07.000Z</time>
      </trkpt>
      <trkpt lat="44.00194" lon="3.51167">
        <ele>796.4</ele>
        <time>2026-05-28T14:47:08.000Z</time>
      </trkpt>
      <trkpt lat="44.00194" lon="3.51169">
        <ele>796.2</ele>
        <time>2026-05-28T14:47:09.000Z</time>
      </trkpt>
      <trkpt lat="44.00195" lon="3.5117">
        <ele>796.1</ele>
        <time>2026-05-28T14:47:10.000Z</time>
      </trkpt>
      <trkpt lat="44.00196" lon="3.51172">
        <ele>795.9</ele>
        <time>2026-05-28T14:47:11.000Z</time>
      </trkpt>
      <trkpt lat="44.00196" lon="3.51173">
        <ele>795.7</ele>
        <time>2026-05-28T14:47:12.000Z</time>
      </trkpt>
      <trkpt lat="44.00197" lon="3.51174">
        <ele>795.6</ele>
        <time>2026-05-28T14:47:13.000Z</time>
      </trkpt>
      <trkpt lat="44.00197" lon="3.51175">
        <ele>795.4</ele>
        <time>2026-05-28T14:47:14.000Z</time>
      </trkpt>
      <trkpt lat="44.00197" lon="3.51175">
        <ele>795.2</ele>
        <time>2026-05-28T14:47:15.000Z</time>
      </trkpt>
      <trkpt lat="44.00198" lon="3.51176">
        <ele>795</ele>
        <time>2026-05-28T14:47:16.000Z</time>
      </trkpt>
      <trkpt lat="44.00198" lon="3.51176">
        <ele>794.9</ele>
        <time>2026-05-28T14:47:17.000Z</time>
      </trkpt>
      <trkpt lat="44.00198" lon="3.51177">
        <ele>794.8</ele>
        <time>2026-05-28T14:47:18.000Z</time>
      </trkpt>
      <trkpt lat="44.00199" lon="3.51177">
        <ele>794.7</ele>
        <time>2026-05-28T14:47:19.000Z</time>
      </trkpt>
      <trkpt lat="44.00199" lon="3.51178">
        <ele>794.8</ele>
        <time>2026-05-28T14:47:20.000Z</time>
      </trkpt>
      <trkpt lat="44.00199" lon="3.51178">
        <ele>794.4</ele>
        <time>2026-05-28T14:47:21.000Z</time>
      </trkpt>
      <trkpt lat="44.00199" lon="3.51179">
        <ele>794.4</ele>
        <time>2026-05-28T14:47:22.000Z</time>
      </trkpt>
      <trkpt lat="44.00199" lon="3.51179">
        <ele>794.3</ele>
        <time>2026-05-28T14:47:23.000Z</time>
      </trkpt>
      <trkpt lat="44.00199" lon="3.51179">
        <ele>794.4</ele>
        <time>2026-05-28T14:47:24.000Z</time>
      </trkpt>
      <trkpt lat="44.00199" lon="3.51179">
        <ele>794.4</ele>
        <time>2026-05-28T14:47:25.000Z</time>
      </trkpt>
      <trkpt lat="44.00199" lon="3.51178">
        <ele>794.2</ele>
        <time>2026-05-28T14:47:26.000Z</time>
      </trkpt>
      <trkpt lat="44.00199" lon="3.51178">
        <ele>794</ele>
        <time>2026-05-28T14:47:27.000Z</time>
      </trkpt>
      <trkpt lat="44.00198" lon="3.51177">
        <ele>793.8</ele>
        <time>2026-05-28T14:47:28.000Z</time>
      </trkpt>
      <trkpt lat="44.00197" lon="3.51178">
        <ele>793.5</ele>
        <time>2026-05-28T14:47:29.000Z</time>
      </trkpt>
      <trkpt lat="44.00196" lon="3.51178">
        <ele>793.1</ele>
        <time>2026-05-28T14:47:30.000Z</time>
      </trkpt>
      <trkpt lat="44.00195" lon="3.51179">
        <ele>792.7</ele>
        <time>2026-05-28T14:47:31.000Z</time>
      </trkpt>
      <trkpt lat="44.00195" lon="3.5118">
        <ele>792.3</ele>
        <time>2026-05-28T14:47:32.000Z</time>
      </trkpt>
      <trkpt lat="44.00195" lon="3.51181">
        <ele>792.2</ele>
        <time>2026-05-28T14:47:33.000Z</time>
      </trkpt>
      <trkpt lat="44.00195" lon="3.51182">
        <ele>791.8</ele>
        <time>2026-05-28T14:47:34.000Z</time>
      </trkpt>
      <trkpt lat="44.00195" lon="3.51183">
        <ele>791.4</ele>
        <time>2026-05-28T14:47:35.000Z</time>
      </trkpt>
      <trkpt lat="44.00195" lon="3.51184">
        <ele>791</ele>
        <time>2026-05-28T14:47:36.000Z</time>
      </trkpt>
      <trkpt lat="44.00196" lon="3.51185">
        <ele>791</ele>
        <time>2026-05-28T14:47:37.000Z</time>
      </trkpt>
      <trkpt lat="44.00196" lon="3.51186">
        <ele>790.6</ele>
        <time>2026-05-28T14:47:38.000Z</time>
      </trkpt>
      <trkpt lat="44.00196" lon="3.51187">
        <ele>790.4</ele>
        <time>2026-05-28T14:47:39.000Z</time>
      </trkpt>
      <trkpt lat="44.00196" lon="3.51188">
        <ele>790.1</ele>
        <time>2026-05-28T14:47:40.000Z</time>
      </trkpt>
      <trkpt lat="44.00196" lon="3.51189">
        <ele>789.6</ele>
        <time>2026-05-28T14:47:41.000Z</time>
      </trkpt>
      <trkpt lat="44.00196" lon="3.5119">
        <ele>789.2</ele>
        <time>2026-05-28T14:47:42.000Z</time>
      </trkpt>
      <trkpt lat="44.00196" lon="3.51189">
        <ele>788.8</ele>
        <time>2026-05-28T14:47:43.000Z</time>
      </trkpt>
      <trkpt lat="44.00195" lon="3.5119">
        <ele>788.4</ele>
        <time>2026-05-28T14:47:44.000Z</time>
      </trkpt>
      <trkpt lat="44.00195" lon="3.5119">
        <ele>788.8</ele>
        <time>2026-05-28T14:47:45.000Z</time>
      </trkpt>
      <trkpt lat="44.00195" lon="3.5119">
        <ele>788.5</ele>
        <time>2026-05-28T14:47:46.000Z</time>
      </trkpt>
      <trkpt lat="44.00194" lon="3.51189">
        <ele>788.4</ele>
        <time>2026-05-28T14:47:47.000Z</time>
      </trkpt>
      <trkpt lat="44.00194" lon="3.51188">
        <ele>788.1</ele>
        <time>2026-05-28T14:47:48.000Z</time>
      </trkpt>
      <trkpt lat="44.00193" lon="3.51187">
        <ele>788</ele>
        <time>2026-05-28T14:47:49.000Z</time>
      </trkpt>
      <trkpt lat="44.00193" lon="3.51187">
        <ele>788.1</ele>
        <time>2026-05-28T14:47:50.000Z</time>
      </trkpt>
      <trkpt lat="44.00193" lon="3.51187">
        <ele>788</ele>
        <time>2026-05-28T14:47:51.000Z</time>
      </trkpt>
      <trkpt lat="44.00193" lon="3.51187">
        <ele>788.1</ele>
        <time>2026-05-28T14:47:52.000Z</time>
      </trkpt>
      <trkpt lat="44.00193" lon="3.51187">
        <ele>788.4</ele>
        <time>2026-05-28T14:47:53.000Z</time>
      </trkpt>
      <trkpt lat="44.00193" lon="3.51187">
        <ele>788.4</ele>
        <time>2026-05-28T14:47:54.000Z</time>
      </trkpt>
      <trkpt lat="44.00193" lon="3.51187">
        <ele>788.5</ele>
        <time>2026-05-28T14:47:55.000Z</time>
      </trkpt>
      <trkpt lat="44.00193" lon="3.51187">
        <ele>788.4</ele>
        <time>2026-05-28T14:47:56.000Z</time>
      </trkpt>
      <trkpt lat="44.00193" lon="3.51187">
        <ele>788.4</ele>
        <time>2026-05-28T14:47:57.000Z</time>
      </trkpt>
      <trkpt lat="44.00192" lon="3.51188">
        <ele>788.1</ele>
        <time>2026-05-28T14:47:58.000Z</time>
      </trkpt>
      <trkpt lat="44.00192" lon="3.51188">
        <ele>788.1</ele>
        <time>2026-05-28T14:47:59.000Z</time>
      </trkpt>
      <trkpt lat="44.00192" lon="3.51188">
        <ele>788.2</ele>
        <time>2026-05-28T14:48:00.000Z</time>
      </trkpt>
      <trkpt lat="44.00192" lon="3.51188">
        <ele>788.5</ele>
        <time>2026-05-28T14:48:01.000Z</time>
      </trkpt>
      <trkpt lat="44.0019" lon="3.51189">
        <ele>788.3</ele>
        <time>2026-05-28T14:48:02.000Z</time>
      </trkpt>
      <trkpt lat="44.00189" lon="3.5119">
        <ele>788.3</ele>
        <time>2026-05-28T14:48:03.000Z</time>
      </trkpt>
      <trkpt lat="44.00188" lon="3.5119">
        <ele>788.4</ele>
        <time>2026-05-28T14:48:04.000Z</time>
      </trkpt>
      <trkpt lat="44.00186" lon="3.5119">
        <ele>788.5</ele>
        <time>2026-05-28T14:48:05.000Z</time>
      </trkpt>
      <trkpt lat="44.00185" lon="3.51191">
        <ele>788.4</ele>
        <time>2026-05-28T14:48:06.000Z</time>
      </trkpt>
      <trkpt lat="44.00184" lon="3.51192">
        <ele>788.1</ele>
        <time>2026-05-28T14:48:07.000Z</time>
      </trkpt>
      <trkpt lat="44.00183" lon="3.51192">
        <ele>788.1</ele>
        <time>2026-05-28T14:48:08.000Z</time>
      </trkpt>
      <trkpt lat="44.00184" lon="3.51194">
        <ele>787.4</ele>
        <time>2026-05-28T14:48:09.000Z</time>
      </trkpt>
      <trkpt lat="44.00184" lon="3.51195">
        <ele>787.3</ele>
        <time>2026-05-28T14:48:10.000Z</time>
      </trkpt>
      <trkpt lat="44.00184" lon="3.51195">
        <ele>787.1</ele>
        <time>2026-05-28T14:48:11.000Z</time>
      </trkpt>
      <trkpt lat="44.00184" lon="3.51196">
        <ele>786.6</ele>
        <time>2026-05-28T14:48:12.000Z</time>
      </trkpt>
      <trkpt lat="44.00184" lon="3.51196">
        <ele>786.4</ele>
        <time>2026-05-28T14:48:13.000Z</time>
      </trkpt>
      <trkpt lat="44.00184" lon="3.51196">
        <ele>786.1</ele>
        <time>2026-05-28T14:48:14.000Z</time>
      </trkpt>
      <trkpt lat="44.00184" lon="3.51196">
        <ele>785.9</ele>
        <time>2026-05-28T14:48:15.000Z</time>
      </trkpt>
      <trkpt lat="44.00184" lon="3.51197">
        <ele>785.6</ele>
        <time>2026-05-28T14:48:16.000Z</time>
      </trkpt>
      <trkpt lat="44.00184" lon="3.51197">
        <ele>785.4</ele>
        <time>2026-05-28T14:48:17.000Z</time>
      </trkpt>
      <trkpt lat="44.00183" lon="3.51198">
        <ele>785.2</ele>
        <time>2026-05-28T14:48:18.000Z</time>
      </trkpt>
      <trkpt lat="44.00183" lon="3.51199">
        <ele>785.1</ele>
        <time>2026-05-28T14:48:19.000Z</time>
      </trkpt>
      <trkpt lat="44.00183" lon="3.512">
        <ele>784.8</ele>
        <time>2026-05-28T14:48:20.000Z</time>
      </trkpt>
      <trkpt lat="44.00183" lon="3.51201">
        <ele>784.6</ele>
        <time>2026-05-28T14:48:21.000Z</time>
      </trkpt>
      <trkpt lat="44.00183" lon="3.51202">
        <ele>784.5</ele>
        <time>2026-05-28T14:48:22.000Z</time>
      </trkpt>
      <trkpt lat="44.00183" lon="3.51203">
        <ele>784.5</ele>
        <time>2026-05-28T14:48:23.000Z</time>
      </trkpt>
      <trkpt lat="44.00183" lon="3.51203">
        <ele>784.1</ele>
        <time>2026-05-28T14:48:24.000Z</time>
      </trkpt>
      <trkpt lat="44.00183" lon="3.51203">
        <ele>783.6</ele>
        <time>2026-05-28T14:48:25.000Z</time>
      </trkpt>
      <trkpt lat="44.00183" lon="3.51203">
        <ele>783.6</ele>
        <time>2026-05-28T14:48:26.000Z</time>
      </trkpt>
      <trkpt lat="44.00183" lon="3.51203">
        <ele>783.4</ele>
        <time>2026-05-28T14:48:27.000Z</time>
      </trkpt>
      <trkpt lat="44.00183" lon="3.51204">
        <ele>783.2</ele>
        <time>2026-05-28T14:48:28.000Z</time>
      </trkpt>
      <trkpt lat="44.00182" lon="3.51204">
        <ele>783</ele>
        <time>2026-05-28T14:48:29.000Z</time>
      </trkpt>
      <trkpt lat="44.00182" lon="3.51204">
        <ele>782.9</ele>
        <time>2026-05-28T14:48:30.000Z</time>
      </trkpt>
      <trkpt lat="44.00182" lon="3.51205">
        <ele>782.5</ele>
        <time>2026-05-28T14:48:31.000Z</time>
      </trkpt>
      <trkpt lat="44.00182" lon="3.51205">
        <ele>782.2</ele>
        <time>2026-05-28T14:48:32.000Z</time>
      </trkpt>
      <trkpt lat="44.00182" lon="3.51205">
        <ele>781.8</ele>
        <time>2026-05-28T14:48:33.000Z</time>
      </trkpt>
      <trkpt lat="44.00182" lon="3.51206">
        <ele>781.4</ele>
        <time>2026-05-28T14:48:34.000Z</time>
      </trkpt>
      <trkpt lat="44.00182" lon="3.51208">
        <ele>781.2</ele>
        <time>2026-05-28T14:48:35.000Z</time>
      </trkpt>
      <trkpt lat="44.00181" lon="3.51209">
        <ele>780.8</ele>
        <time>2026-05-28T14:48:36.000Z</time>
      </trkpt>
      <trkpt lat="44.00182" lon="3.51211">
        <ele>780.9</ele>
        <time>2026-05-28T14:48:37.000Z</time>
      </trkpt>
      <trkpt lat="44.00181" lon="3.51213">
        <ele>781.2</ele>
        <time>2026-05-28T14:48:38.000Z</time>
      </trkpt>
      <trkpt lat="44.00181" lon="3.51214">
        <ele>781.3</ele>
        <time>2026-05-28T14:48:39.000Z</time>
      </trkpt>
      <trkpt lat="44.00181" lon="3.51215">
        <ele>781.2</ele>
        <time>2026-05-28T14:48:40.000Z</time>
      </trkpt>
      <trkpt lat="44.0018" lon="3.51216">
        <ele>781.2</ele>
        <time>2026-05-28T14:48:41.000Z</time>
      </trkpt>
      <trkpt lat="44.0018" lon="3.51216">
        <ele>781.1</ele>
        <time>2026-05-28T14:48:42.000Z</time>
      </trkpt>
      <trkpt lat="44.0018" lon="3.51217">
        <ele>781.2</ele>
        <time>2026-05-28T14:48:43.000Z</time>
      </trkpt>
      <trkpt lat="44.00179" lon="3.51218">
        <ele>781.2</ele>
        <time>2026-05-28T14:48:44.000Z</time>
      </trkpt>
      <trkpt lat="44.00179" lon="3.51219">
        <ele>780.9</ele>
        <time>2026-05-28T14:48:45.000Z</time>
      </trkpt>
      <trkpt lat="44.00179" lon="3.51219">
        <ele>780.7</ele>
        <time>2026-05-28T14:48:46.000Z</time>
      </trkpt>
      <trkpt lat="44.00179" lon="3.51219">
        <ele>780.5</ele>
        <time>2026-05-28T14:48:47.000Z</time>
      </trkpt>
      <trkpt lat="44.00179" lon="3.51219">
        <ele>780.4</ele>
        <time>2026-05-28T14:48:48.000Z</time>
      </trkpt>
      <trkpt lat="44.00179" lon="3.51219">
        <ele>780.3</ele>
        <time>2026-05-28T14:48:49.000Z</time>
      </trkpt>
      <trkpt lat="44.00179" lon="3.51219">
        <ele>780.2</ele>
        <time>2026-05-28T14:48:50.000Z</time>
      </trkpt>
      <trkpt lat="44.00179" lon="3.5122">
        <ele>780</ele>
        <time>2026-05-28T14:48:51.000Z</time>
      </trkpt>
      <trkpt lat="44.00179" lon="3.5122">
        <ele>779.9</ele>
        <time>2026-05-28T14:48:52.000Z</time>
      </trkpt>
      <trkpt lat="44.00178" lon="3.5122">
        <ele>780.1</ele>
        <time>2026-05-28T14:48:53.000Z</time>
      </trkpt>
      <trkpt lat="44.00178" lon="3.51221">
        <ele>780.3</ele>
        <time>2026-05-28T14:48:54.000Z</time>
      </trkpt>
      <trkpt lat="44.00177" lon="3.51222">
        <ele>780.3</ele>
        <time>2026-05-28T14:48:55.000Z</time>
      </trkpt>
      <trkpt lat="44.00176" lon="3.51223">
        <ele>780</ele>
        <time>2026-05-28T14:48:56.000Z</time>
      </trkpt>
      <trkpt lat="44.00176" lon="3.51224">
        <ele>779.9</ele>
        <time>2026-05-28T14:48:57.000Z</time>
      </trkpt>
      <trkpt lat="44.00175" lon="3.51225">
        <ele>779.8</ele>
        <time>2026-05-28T14:48:58.000Z</time>
      </trkpt>
      <trkpt lat="44.00174" lon="3.51227">
        <ele>779.4</ele>
        <time>2026-05-28T14:48:59.000Z</time>
      </trkpt>
      <trkpt lat="44.00174" lon="3.51228">
        <ele>779</ele>
        <time>2026-05-28T14:49:00.000Z</time>
      </trkpt>
      <trkpt lat="44.00173" lon="3.51229">
        <ele>778.6</ele>
        <time>2026-05-28T14:49:01.000Z</time>
      </trkpt>
      <trkpt lat="44.00173" lon="3.51229">
        <ele>778.1</ele>
        <time>2026-05-28T14:49:02.000Z</time>
      </trkpt>
      <trkpt lat="44.00173" lon="3.51229">
        <ele>777.7</ele>
        <time>2026-05-28T14:49:03.000Z</time>
      </trkpt>
      <trkpt lat="44.00173" lon="3.5123">
        <ele>777.4</ele>
        <time>2026-05-28T14:49:04.000Z</time>
      </trkpt>
      <trkpt lat="44.00173" lon="3.51231">
        <ele>777</ele>
        <time>2026-05-28T14:49:05.000Z</time>
      </trkpt>
      <trkpt lat="44.00173" lon="3.51233">
        <ele>776.7</ele>
        <time>2026-05-28T14:49:06.000Z</time>
      </trkpt>
      <trkpt lat="44.00173" lon="3.51234">
        <ele>776.5</ele>
        <time>2026-05-28T14:49:07.000Z</time>
      </trkpt>
      <trkpt lat="44.00173" lon="3.51235">
        <ele>776.6</ele>
        <time>2026-05-28T14:49:08.000Z</time>
      </trkpt>
      <trkpt lat="44.00173" lon="3.51235">
        <ele>776.6</ele>
        <time>2026-05-28T14:49:09.000Z</time>
      </trkpt>
      <trkpt lat="44.00172" lon="3.51237">
        <ele>776.6</ele>
        <time>2026-05-28T14:49:10.000Z</time>
      </trkpt>
      <trkpt lat="44.00172" lon="3.51237">
        <ele>776.5</ele>
        <time>2026-05-28T14:49:11.000Z</time>
      </trkpt>
      <trkpt lat="44.00171" lon="3.51237">
        <ele>776.4</ele>
        <time>2026-05-28T14:49:12.000Z</time>
      </trkpt>
      <trkpt lat="44.0017" lon="3.51238">
        <ele>776.3</ele>
        <time>2026-05-28T14:49:13.000Z</time>
      </trkpt>
      <trkpt lat="44.00169" lon="3.5124">
        <ele>776.1</ele>
        <time>2026-05-28T14:49:14.000Z</time>
      </trkpt>
      <trkpt lat="44.00169" lon="3.5124">
        <ele>775.8</ele>
        <time>2026-05-28T14:49:15.000Z</time>
      </trkpt>
      <trkpt lat="44.00169" lon="3.51241">
        <ele>775.7</ele>
        <time>2026-05-28T14:49:16.000Z</time>
      </trkpt>
      <trkpt lat="44.00168" lon="3.51241">
        <ele>775.6</ele>
        <time>2026-05-28T14:49:17.000Z</time>
      </trkpt>
      <trkpt lat="44.00168" lon="3.51241">
        <ele>775.7</ele>
        <time>2026-05-28T14:49:18.000Z</time>
      </trkpt>
      <trkpt lat="44.00167" lon="3.51242">
        <ele>775.7</ele>
        <time>2026-05-28T14:49:19.000Z</time>
      </trkpt>
      <trkpt lat="44.00167" lon="3.51243">
        <ele>775.6</ele>
        <time>2026-05-28T14:49:20.000Z</time>
      </trkpt>
      <trkpt lat="44.00166" lon="3.51245">
        <ele>775.4</ele>
        <time>2026-05-28T14:49:21.000Z</time>
      </trkpt>
      <trkpt lat="44.00165" lon="3.51246">
        <ele>775.2</ele>
        <time>2026-05-28T14:49:22.000Z</time>
      </trkpt>
      <trkpt lat="44.00164" lon="3.51247">
        <ele>775.1</ele>
        <time>2026-05-28T14:49:23.000Z</time>
      </trkpt>
      <trkpt lat="44.00163" lon="3.51248">
        <ele>775.1</ele>
        <time>2026-05-28T14:49:24.000Z</time>
      </trkpt>
      <trkpt lat="44.00162" lon="3.51249">
        <ele>774.9</ele>
        <time>2026-05-28T14:49:25.000Z</time>
      </trkpt>
      <trkpt lat="44.00162" lon="3.5125">
        <ele>774.9</ele>
        <time>2026-05-28T14:49:26.000Z</time>
      </trkpt>
      <trkpt lat="44.00162" lon="3.51251">
        <ele>775</ele>
        <time>2026-05-28T14:49:27.000Z</time>
      </trkpt>
      <trkpt lat="44.00162" lon="3.51251">
        <ele>774.7</ele>
        <time>2026-05-28T14:49:28.000Z</time>
      </trkpt>
      <trkpt lat="44.00162" lon="3.51251">
        <ele>774.8</ele>
        <time>2026-05-28T14:49:29.000Z</time>
      </trkpt>
      <trkpt lat="44.00162" lon="3.51251">
        <ele>774.8</ele>
        <time>2026-05-28T14:49:30.000Z</time>
      </trkpt>
      <trkpt lat="44.00162" lon="3.51251">
        <ele>774.8</ele>
        <time>2026-05-28T14:49:31.000Z</time>
      </trkpt>
      <trkpt lat="44.00161" lon="3.51252">
        <ele>774.6</ele>
        <time>2026-05-28T14:49:32.000Z</time>
      </trkpt>
      <trkpt lat="44.00161" lon="3.51253">
        <ele>774.6</ele>
        <time>2026-05-28T14:49:33.000Z</time>
      </trkpt>
      <trkpt lat="44.0016" lon="3.51253">
        <ele>774.6</ele>
        <time>2026-05-28T14:49:34.000Z</time>
      </trkpt>
      <trkpt lat="44.00159" lon="3.51254">
        <ele>774.4</ele>
        <time>2026-05-28T14:49:35.000Z</time>
      </trkpt>
      <trkpt lat="44.00159" lon="3.51255">
        <ele>774.4</ele>
        <time>2026-05-28T14:49:36.000Z</time>
      </trkpt>
      <trkpt lat="44.00159" lon="3.51256">
        <ele>774.3</ele>
        <time>2026-05-28T14:49:37.000Z</time>
      </trkpt>
      <trkpt lat="44.00158" lon="3.51256">
        <ele>774.1</ele>
        <time>2026-05-28T14:49:38.000Z</time>
      </trkpt>
      <trkpt lat="44.00158" lon="3.51257">
        <ele>774</ele>
        <time>2026-05-28T14:49:39.000Z</time>
      </trkpt>
      <trkpt lat="44.00158" lon="3.51257">
        <ele>774.1</ele>
        <time>2026-05-28T14:49:40.000Z</time>
      </trkpt>
      <trkpt lat="44.00158" lon="3.51257">
        <ele>774.3</ele>
        <time>2026-05-28T14:49:41.000Z</time>
      </trkpt>
      <trkpt lat="44.00158" lon="3.51257">
        <ele>774.3</ele>
        <time>2026-05-28T14:49:42.000Z</time>
      </trkpt>
      <trkpt lat="44.00158" lon="3.51258">
        <ele>774.4</ele>
        <time>2026-05-28T14:49:43.000Z</time>
      </trkpt>
      <trkpt lat="44.00158" lon="3.51261">
        <ele>774.2</ele>
        <time>2026-05-28T14:49:44.000Z</time>
      </trkpt>
      <trkpt lat="44.00158" lon="3.51262">
        <ele>774</ele>
        <time>2026-05-28T14:49:45.000Z</time>
      </trkpt>
      <trkpt lat="44.00157" lon="3.51264">
        <ele>774</ele>
        <time>2026-05-28T14:49:46.000Z</time>
      </trkpt>
      <trkpt lat="44.00157" lon="3.51265">
        <ele>774.1</ele>
        <time>2026-05-28T14:49:47.000Z</time>
      </trkpt>
      <trkpt lat="44.00157" lon="3.51266">
        <ele>773.8</ele>
        <time>2026-05-28T14:49:48.000Z</time>
      </trkpt>
      <trkpt lat="44.00156" lon="3.51267">
        <ele>773.8</ele>
        <time>2026-05-28T14:49:49.000Z</time>
      </trkpt>
      <trkpt lat="44.00156" lon="3.51268">
        <ele>773.8</ele>
        <time>2026-05-28T14:49:50.000Z</time>
      </trkpt>
      <trkpt lat="44.00156" lon="3.51269">
        <ele>773.8</ele>
        <time>2026-05-28T14:49:51.000Z</time>
      </trkpt>
      <trkpt lat="44.00156" lon="3.51269">
        <ele>773.8</ele>
        <time>2026-05-28T14:49:52.000Z</time>
      </trkpt>
      <trkpt lat="44.00156" lon="3.5127">
        <ele>773.7</ele>
        <time>2026-05-28T14:49:53.000Z</time>
      </trkpt>
      <trkpt lat="44.00156" lon="3.5127">
        <ele>773.8</ele>
        <time>2026-05-28T14:49:54.000Z</time>
      </trkpt>
      <trkpt lat="44.00156" lon="3.51271">
        <ele>773.6</ele>
        <time>2026-05-28T14:49:55.000Z</time>
      </trkpt>
      <trkpt lat="44.00155" lon="3.51272">
        <ele>773.5</ele>
        <time>2026-05-28T14:49:56.000Z</time>
      </trkpt>
      <trkpt lat="44.00155" lon="3.51275">
        <ele>773.4</ele>
        <time>2026-05-28T14:49:57.000Z</time>
      </trkpt>
      <trkpt lat="44.00155" lon="3.51276">
        <ele>773.3</ele>
        <time>2026-05-28T14:49:58.000Z</time>
      </trkpt>
      <trkpt lat="44.00155" lon="3.51278">
        <ele>773.1</ele>
        <time>2026-05-28T14:49:59.000Z</time>
      </trkpt>
      <trkpt lat="44.00155" lon="3.51279">
        <ele>773.1</ele>
        <time>2026-05-28T14:50:00.000Z</time>
      </trkpt>
      <trkpt lat="44.00155" lon="3.51281">
        <ele>773</ele>
        <time>2026-05-28T14:50:01.000Z</time>
      </trkpt>
      <trkpt lat="44.00155" lon="3.51283">
        <ele>772.7</ele>
        <time>2026-05-28T14:50:02.000Z</time>
      </trkpt>
      <trkpt lat="44.00155" lon="3.51284">
        <ele>772.6</ele>
        <time>2026-05-28T14:50:03.000Z</time>
      </trkpt>
      <trkpt lat="44.00155" lon="3.51286">
        <ele>772.6</ele>
        <time>2026-05-28T14:50:04.000Z</time>
      </trkpt>
      <trkpt lat="44.00155" lon="3.51288">
        <ele>772.7</ele>
        <time>2026-05-28T14:50:05.000Z</time>
      </trkpt>
      <trkpt lat="44.00155" lon="3.51289">
        <ele>772.7</ele>
        <time>2026-05-28T14:50:06.000Z</time>
      </trkpt>
      <trkpt lat="44.00155" lon="3.51291">
        <ele>772.4</ele>
        <time>2026-05-28T14:50:07.000Z</time>
      </trkpt>
      <trkpt lat="44.00155" lon="3.51292">
        <ele>772.4</ele>
        <time>2026-05-28T14:50:08.000Z</time>
      </trkpt>
      <trkpt lat="44.00155" lon="3.51293">
        <ele>772.2</ele>
        <time>2026-05-28T14:50:09.000Z</time>
      </trkpt>
      <trkpt lat="44.00155" lon="3.51294">
        <ele>772.1</ele>
        <time>2026-05-28T14:50:10.000Z</time>
      </trkpt>
      <trkpt lat="44.00155" lon="3.51295">
        <ele>772</ele>
        <time>2026-05-28T14:50:11.000Z</time>
      </trkpt>
      <trkpt lat="44.00155" lon="3.51297">
        <ele>771.7</ele>
        <time>2026-05-28T14:50:12.000Z</time>
      </trkpt>
      <trkpt lat="44.00155" lon="3.51298">
        <ele>771.3</ele>
        <time>2026-05-28T14:50:13.000Z</time>
      </trkpt>
      <trkpt lat="44.00155" lon="3.51299">
        <ele>771.4</ele>
        <time>2026-05-28T14:50:14.000Z</time>
      </trkpt>
      <trkpt lat="44.00155" lon="3.513">
        <ele>771.2</ele>
        <time>2026-05-28T14:50:15.000Z</time>
      </trkpt>
      <trkpt lat="44.00155" lon="3.51301">
        <ele>771</ele>
        <time>2026-05-28T14:50:16.000Z</time>
      </trkpt>
      <trkpt lat="44.00156" lon="3.51303">
        <ele>770.8</ele>
        <time>2026-05-28T14:50:17.000Z</time>
      </trkpt>
      <trkpt lat="44.00156" lon="3.51304">
        <ele>770.6</ele>
        <time>2026-05-28T14:50:19.000Z</time>
      </trkpt>
      <trkpt lat="44.00157" lon="3.51305">
        <ele>770.4</ele>
        <time>2026-05-28T14:50:20.000Z</time>
      </trkpt>
      <trkpt lat="44.00157" lon="3.51306">
        <ele>770.2</ele>
        <time>2026-05-28T14:50:21.000Z</time>
      </trkpt>
      <trkpt lat="44.00157" lon="3.51307">
        <ele>770.7</ele>
        <time>2026-05-28T14:50:22.000Z</time>
      </trkpt>
      <trkpt lat="44.00157" lon="3.51307">
        <ele>770.3</ele>
        <time>2026-05-28T14:50:23.000Z</time>
      </trkpt>
      <trkpt lat="44.00157" lon="3.51307">
        <ele>770.1</ele>
        <time>2026-05-28T14:50:24.000Z</time>
      </trkpt>
      <trkpt lat="44.00157" lon="3.51307">
        <ele>769.2</ele>
        <time>2026-05-28T14:50:25.000Z</time>
      </trkpt>
      <trkpt lat="44.00158" lon="3.5131">
        <ele>768.6</ele>
        <time>2026-05-28T14:50:26.000Z</time>
      </trkpt>
      <trkpt lat="44.00158" lon="3.51312">
        <ele>768.4</ele>
        <time>2026-05-28T14:50:27.000Z</time>
      </trkpt>
      <trkpt lat="44.00159" lon="3.51313">
        <ele>768.4</ele>
        <time>2026-05-28T14:50:28.000Z</time>
      </trkpt>
      <trkpt lat="44.00159" lon="3.51315">
        <ele>768.4</ele>
        <time>2026-05-28T14:50:29.000Z</time>
      </trkpt>
      <trkpt lat="44.0016" lon="3.51317">
        <ele>768.1</ele>
        <time>2026-05-28T14:50:30.000Z</time>
      </trkpt>
      <trkpt lat="44.0016" lon="3.51319">
        <ele>768</ele>
        <time>2026-05-28T14:50:31.000Z</time>
      </trkpt>
      <trkpt lat="44.00161" lon="3.5132">
        <ele>767.6</ele>
        <time>2026-05-28T14:50:32.000Z</time>
      </trkpt>
      <trkpt lat="44.00161" lon="3.51321">
        <ele>767.2</ele>
        <time>2026-05-28T14:50:33.000Z</time>
      </trkpt>
      <trkpt lat="44.0016" lon="3.51319">
        <ele>765.6</ele>
        <time>2026-05-28T14:50:34.000Z</time>
      </trkpt>
      <trkpt lat="44.00159" lon="3.51319">
        <ele>765.1</ele>
        <time>2026-05-28T14:50:35.000Z</time>
      </trkpt>
      <trkpt lat="44.00159" lon="3.51319">
        <ele>764.9</ele>
        <time>2026-05-28T14:50:36.000Z</time>
      </trkpt>
      <trkpt lat="44.00159" lon="3.51318">
        <ele>764.8</ele>
        <time>2026-05-28T14:50:37.000Z</time>
      </trkpt>
      <trkpt lat="44.00159" lon="3.51318">
        <ele>764.5</ele>
        <time>2026-05-28T14:50:38.000Z</time>
      </trkpt>
      <trkpt lat="44.00159" lon="3.51318">
        <ele>764.3</ele>
        <time>2026-05-28T14:50:39.000Z</time>
      </trkpt>
      <trkpt lat="44.00159" lon="3.51318">
        <ele>764.1</ele>
        <time>2026-05-28T14:50:40.000Z</time>
      </trkpt>
      <trkpt lat="44.00159" lon="3.51318">
        <ele>764</ele>
        <time>2026-05-28T14:50:41.000Z</time>
      </trkpt>
      <trkpt lat="44.00159" lon="3.51318">
        <ele>764</ele>
        <time>2026-05-28T14:50:42.000Z</time>
      </trkpt>
      <trkpt lat="44.00159" lon="3.51318">
        <ele>763.9</ele>
        <time>2026-05-28T14:50:43.000Z</time>
      </trkpt>
      <trkpt lat="44.00159" lon="3.51318">
        <ele>763.8</ele>
        <time>2026-05-28T14:50:44.000Z</time>
      </trkpt>
      <trkpt lat="44.00159" lon="3.51317">
        <ele>763.3</ele>
        <time>2026-05-28T14:50:45.000Z</time>
      </trkpt>
      <trkpt lat="44.00159" lon="3.51317">
        <ele>763.1</ele>
        <time>2026-05-28T14:50:46.000Z</time>
      </trkpt>
      <trkpt lat="44.00159" lon="3.51317">
        <ele>763</ele>
        <time>2026-05-28T14:50:47.000Z</time>
      </trkpt>
      <trkpt lat="44.00159" lon="3.51317">
        <ele>762.8</ele>
        <time>2026-05-28T14:50:48.000Z</time>
      </trkpt>
      <trkpt lat="44.00159" lon="3.51317">
        <ele>762.7</ele>
        <time>2026-05-28T14:50:49.000Z</time>
      </trkpt>
      <trkpt lat="44.00159" lon="3.51317">
        <ele>762.6</ele>
        <time>2026-05-28T14:50:50.000Z</time>
      </trkpt>
      <trkpt lat="44.00159" lon="3.51317">
        <ele>762.5</ele>
        <time>2026-05-28T14:50:51.000Z</time>
      </trkpt>
      <trkpt lat="44.00159" lon="3.51317">
        <ele>762.5</ele>
        <time>2026-05-28T14:50:52.000Z</time>
      </trkpt>
      <trkpt lat="44.00159" lon="3.51316">
        <ele>762.5</ele>
        <time>2026-05-28T14:50:53.000Z</time>
      </trkpt>
      <trkpt lat="44.00159" lon="3.51316">
        <ele>762.7</ele>
        <time>2026-05-28T14:50:54.000Z</time>
      </trkpt>
      <trkpt lat="44.00159" lon="3.51316">
        <ele>763</ele>
        <time>2026-05-28T14:50:55.000Z</time>
      </trkpt>
      <trkpt lat="44.00159" lon="3.51316">
        <ele>763.1</ele>
        <time>2026-05-28T14:50:56.000Z</time>
      </trkpt>
      <trkpt lat="44.00159" lon="3.51316">
        <ele>763.3</ele>
        <time>2026-05-28T14:50:57.000Z</time>
      </trkpt>
      <trkpt lat="44.00159" lon="3.51316">
        <ele>763.2</ele>
        <time>2026-05-28T14:50:58.000Z</time>
      </trkpt>
      <trkpt lat="44.00159" lon="3.51316">
        <ele>763.3</ele>
        <time>2026-05-28T14:50:59.000Z</time>
      </trkpt>
      <trkpt lat="44.00159" lon="3.51316">
        <ele>763.3</ele>
        <time>2026-05-28T14:51:00.000Z</time>
      </trkpt>
      <trkpt lat="44.00159" lon="3.51316">
        <ele>763.2</ele>
        <time>2026-05-28T14:51:01.000Z</time>
      </trkpt>
      <trkpt lat="44.00159" lon="3.51316">
        <ele>763.2</ele>
        <time>2026-05-28T14:51:02.000Z</time>
      </trkpt>
      <trkpt lat="44.00159" lon="3.51316">
        <ele>763.2</ele>
        <time>2026-05-28T14:51:03.000Z</time>
      </trkpt>
      <trkpt lat="44.00159" lon="3.51316">
        <ele>763.2</ele>
        <time>2026-05-28T14:51:04.000Z</time>
      </trkpt>
      <trkpt lat="44.00159" lon="3.51316">
        <ele>763.1</ele>
        <time>2026-05-28T14:51:06.000Z</time>
      </trkpt>
      <trkpt lat="44.00158" lon="3.51316">
        <ele>763.1</ele>
        <time>2026-05-28T14:51:07.000Z</time>
      </trkpt>
      <trkpt lat="44.00158" lon="3.51315">
        <ele>763.2</ele>
        <time>2026-05-28T14:51:08.000Z</time>
      </trkpt>
      <trkpt lat="44.00158" lon="3.51315">
        <ele>763.2</ele>
        <time>2026-05-28T14:51:09.000Z</time>
      </trkpt>
      <trkpt lat="44.00158" lon="3.51314">
        <ele>763.1</ele>
        <time>2026-05-28T14:51:10.000Z</time>
      </trkpt>
      <trkpt lat="44.00158" lon="3.51314">
        <ele>763</ele>
        <time>2026-05-28T14:51:11.000Z</time>
      </trkpt>
      <trkpt lat="44.00157" lon="3.51314">
        <ele>762.8</ele>
        <time>2026-05-28T14:51:12.000Z</time>
      </trkpt>
      <trkpt lat="44.00157" lon="3.51314">
        <ele>762.9</ele>
        <time>2026-05-28T14:51:13.000Z</time>
      </trkpt>
      <trkpt lat="44.00157" lon="3.51313">
        <ele>762.6</ele>
        <time>2026-05-28T14:51:14.000Z</time>
      </trkpt>
      <trkpt lat="44.00157" lon="3.51313">
        <ele>761.9</ele>
        <time>2026-05-28T14:51:15.000Z</time>
      </trkpt>
      <trkpt lat="44.00157" lon="3.51313">
        <ele>761.7</ele>
        <time>2026-05-28T14:51:16.000Z</time>
      </trkpt>
      <trkpt lat="44.00157" lon="3.51313">
        <ele>762.1</ele>
        <time>2026-05-28T14:51:17.000Z</time>
      </trkpt>
      <trkpt lat="44.00157" lon="3.51313">
        <ele>762.4</ele>
        <time>2026-05-28T14:51:18.000Z</time>
      </trkpt>
      <trkpt lat="44.00157" lon="3.51313">
        <ele>762.4</ele>
        <time>2026-05-28T14:51:19.000Z</time>
      </trkpt>
      <trkpt lat="44.00157" lon="3.51313">
        <ele>762.6</ele>
        <time>2026-05-28T14:51:20.000Z</time>
      </trkpt>
      <trkpt lat="44.00157" lon="3.51313">
        <ele>762.4</ele>
        <time>2026-05-28T14:51:21.000Z</time>
      </trkpt>
      <trkpt lat="44.00157" lon="3.51313">
        <ele>762.2</ele>
        <time>2026-05-28T14:51:22.000Z</time>
      </trkpt>
      <trkpt lat="44.00158" lon="3.51313">
        <ele>762.2</ele>
        <time>2026-05-28T14:51:23.000Z</time>
      </trkpt>
      <trkpt lat="44.00158" lon="3.51313">
        <ele>762</ele>
        <time>2026-05-28T14:51:24.000Z</time>
      </trkpt>
      <trkpt lat="44.00158" lon="3.51313">
        <ele>761.8</ele>
        <time>2026-05-28T14:51:25.000Z</time>
      </trkpt>
      <trkpt lat="44.00158" lon="3.51313">
        <ele>761.5</ele>
        <time>2026-05-28T14:51:26.000Z</time>
      </trkpt>
      <trkpt lat="44.00158" lon="3.51313">
        <ele>761.3</ele>
        <time>2026-05-28T14:51:27.000Z</time>
      </trkpt>
      <trkpt lat="44.00159" lon="3.51313">
        <ele>760.5</ele>
        <time>2026-05-28T14:51:29.000Z</time>
      </trkpt>
      <trkpt lat="44.0016" lon="3.51313">
        <ele>760.3</ele>
        <time>2026-05-28T14:51:30.000Z</time>
      </trkpt>
      <trkpt lat="44.00161" lon="3.51314">
        <ele>760.2</ele>
        <time>2026-05-28T14:51:31.000Z</time>
      </trkpt>
      <trkpt lat="44.00161" lon="3.51314">
        <ele>760</ele>
        <time>2026-05-28T14:51:32.000Z</time>
      </trkpt>
      <trkpt lat="44.00161" lon="3.51313">
        <ele>759.5</ele>
        <time>2026-05-28T14:51:33.000Z</time>
      </trkpt>
      <trkpt lat="44.00161" lon="3.51314">
        <ele>759</ele>
        <time>2026-05-28T14:51:34.000Z</time>
      </trkpt>
      <trkpt lat="44.0016" lon="3.51315">
        <ele>759.2</ele>
        <time>2026-05-28T14:51:35.000Z</time>
      </trkpt>
      <trkpt lat="44.0016" lon="3.51315">
        <ele>759.3</ele>
        <time>2026-05-28T14:51:36.000Z</time>
      </trkpt>
      <trkpt lat="44.0016" lon="3.51315">
        <ele>759.7</ele>
        <time>2026-05-28T14:51:37.000Z</time>
      </trkpt>
      <trkpt lat="44.0016" lon="3.51315">
        <ele>759.8</ele>
        <time>2026-05-28T14:51:38.000Z</time>
      </trkpt>
      <trkpt lat="44.00159" lon="3.51314">
        <ele>760.3</ele>
        <time>2026-05-28T14:51:39.000Z</time>
      </trkpt>
      <trkpt lat="44.00158" lon="3.51313">
        <ele>760.7</ele>
        <time>2026-05-28T14:51:40.000Z</time>
      </trkpt>
      <trkpt lat="44.00158" lon="3.51313">
        <ele>762</ele>
        <time>2026-05-28T14:51:41.000Z</time>
      </trkpt>
      <trkpt lat="44.00158" lon="3.51313">
        <ele>762.3</ele>
        <time>2026-05-28T14:51:42.000Z</time>
      </trkpt>
      <trkpt lat="44.00158" lon="3.51313">
        <ele>762.4</ele>
        <time>2026-05-28T14:51:43.000Z</time>
      </trkpt>
      <trkpt lat="44.00159" lon="3.51313">
        <ele>762.6</ele>
        <time>2026-05-28T14:51:44.000Z</time>
      </trkpt>
      <trkpt lat="44.00159" lon="3.51312">
        <ele>762.9</ele>
        <time>2026-05-28T14:51:45.000Z</time>
      </trkpt>
      <trkpt lat="44.00159" lon="3.51312">
        <ele>762.7</ele>
        <time>2026-05-28T14:51:46.000Z</time>
      </trkpt>
      <trkpt lat="44.00159" lon="3.51312">
        <ele>762.5</ele>
        <time>2026-05-28T14:51:47.000Z</time>
      </trkpt>
      <trkpt lat="44.00159" lon="3.51312">
        <ele>762.5</ele>
        <time>2026-05-28T14:51:48.000Z</time>
      </trkpt>
      <trkpt lat="44.00159" lon="3.51312">
        <ele>762.6</ele>
        <time>2026-05-28T14:51:49.000Z</time>
      </trkpt>
      <trkpt lat="44.00159" lon="3.51312">
        <ele>762.5</ele>
        <time>2026-05-28T14:51:50.000Z</time>
      </trkpt>
      <trkpt lat="44.00159" lon="3.51312">
        <ele>762.3</ele>
        <time>2026-05-28T14:51:51.000Z</time>
      </trkpt>
      <trkpt lat="44.00159" lon="3.51311">
        <ele>762.2</ele>
        <time>2026-05-28T14:51:52.000Z</time>
      </trkpt>
      <trkpt lat="44.00159" lon="3.51311">
        <ele>761.8</ele>
        <time>2026-05-28T14:51:53.000Z</time>
      </trkpt>
      <trkpt lat="44.00159" lon="3.51311">
        <ele>761.5</ele>
        <time>2026-05-28T14:51:54.000Z</time>
      </trkpt>
      <trkpt lat="44.00159" lon="3.51311">
        <ele>761.2</ele>
        <time>2026-05-28T14:51:55.000Z</time>
      </trkpt>
      <trkpt lat="44.00159" lon="3.51311">
        <ele>761</ele>
        <time>2026-05-28T14:51:56.000Z</time>
      </trkpt>
      <trkpt lat="44.00159" lon="3.51311">
        <ele>760.8</ele>
        <time>2026-05-28T14:51:57.000Z</time>
      </trkpt>
      <trkpt lat="44.00159" lon="3.51311">
        <ele>760.6</ele>
        <time>2026-05-28T14:51:58.000Z</time>
      </trkpt>
      <trkpt lat="44.00159" lon="3.51311">
        <ele>760.4</ele>
        <time>2026-05-28T14:51:59.000Z</time>
      </trkpt>
      <trkpt lat="44.00159" lon="3.51311">
        <ele>760.3</ele>
        <time>2026-05-28T14:52:00.000Z</time>
      </trkpt>
      <trkpt lat="44.0016" lon="3.51311">
        <ele>760.1</ele>
        <time>2026-05-28T14:52:01.000Z</time>
      </trkpt>
      <trkpt lat="44.0016" lon="3.51311">
        <ele>760</ele>
        <time>2026-05-28T14:52:02.000Z</time>
      </trkpt>
      <trkpt lat="44.0016" lon="3.51311">
        <ele>759.7</ele>
        <time>2026-05-28T14:52:03.000Z</time>
      </trkpt>
      <trkpt lat="44.0016" lon="3.51311">
        <ele>759.4</ele>
        <time>2026-05-28T14:52:04.000Z</time>
      </trkpt>
      <trkpt lat="44.0016" lon="3.51311">
        <ele>759.6</ele>
        <time>2026-05-28T14:52:06.000Z</time>
      </trkpt>
      <trkpt lat="44.0016" lon="3.51311">
        <ele>759.6</ele>
        <time>2026-05-28T14:52:07.000Z</time>
      </trkpt>
      <trkpt lat="44.0016" lon="3.51311">
        <ele>759.7</ele>
        <time>2026-05-28T14:52:08.000Z</time>
      </trkpt>
      <trkpt lat="44.0016" lon="3.51311">
        <ele>759.7</ele>
        <time>2026-05-28T14:52:09.000Z</time>
      </trkpt>
      <trkpt lat="44.0016" lon="3.51312">
        <ele>759.3</ele>
        <time>2026-05-28T14:52:10.000Z</time>
      </trkpt>
      <trkpt lat="44.0016" lon="3.51312">
        <ele>759</ele>
        <time>2026-05-28T14:52:11.000Z</time>
      </trkpt>
      <trkpt lat="44.0016" lon="3.51312">
        <ele>758.8</ele>
        <time>2026-05-28T14:52:12.000Z</time>
      </trkpt>
      <trkpt lat="44.0016" lon="3.51312">
        <ele>758.7</ele>
        <time>2026-05-28T14:52:13.000Z</time>
      </trkpt>
      <trkpt lat="44.0016" lon="3.51312">
        <ele>758.6</ele>
        <time>2026-05-28T14:52:14.000Z</time>
      </trkpt>
      <trkpt lat="44.00159" lon="3.51312">
        <ele>758.4</ele>
        <time>2026-05-28T14:52:15.000Z</time>
      </trkpt>
      <trkpt lat="44.00159" lon="3.51312">
        <ele>758.3</ele>
        <time>2026-05-28T14:52:16.000Z</time>
      </trkpt>
      <trkpt lat="44.00159" lon="3.51312">
        <ele>758.3</ele>
        <time>2026-05-28T14:52:17.000Z</time>
      </trkpt>
      <trkpt lat="44.0016" lon="3.51311">
        <ele>758.4</ele>
        <time>2026-05-28T14:52:18.000Z</time>
      </trkpt>
      <trkpt lat="44.0016" lon="3.51311">
        <ele>758.5</ele>
        <time>2026-05-28T14:52:19.000Z</time>
      </trkpt>
      <trkpt lat="44.0016" lon="3.51312">
        <ele>758.4</ele>
        <time>2026-05-28T14:52:20.000Z</time>
      </trkpt>
      <trkpt lat="44.0016" lon="3.51312">
        <ele>758.1</ele>
        <time>2026-05-28T14:52:21.000Z</time>
      </trkpt>
      <trkpt lat="44.0016" lon="3.51312">
        <ele>757.8</ele>
        <time>2026-05-28T14:52:22.000Z</time>
      </trkpt>
      <trkpt lat="44.0016" lon="3.51312">
        <ele>757.6</ele>
        <time>2026-05-28T14:52:23.000Z</time>
      </trkpt>
      <trkpt lat="44.00161" lon="3.51312">
        <ele>757.5</ele>
        <time>2026-05-28T14:52:24.000Z</time>
      </trkpt>
      <trkpt lat="44.00161" lon="3.51313">
        <ele>757.8</ele>
        <time>2026-05-28T14:52:25.000Z</time>
      </trkpt>
      <trkpt lat="44.00161" lon="3.51313">
        <ele>757.7</ele>
        <time>2026-05-28T14:52:26.000Z</time>
      </trkpt>
      <trkpt lat="44.00161" lon="3.51313">
        <ele>757.5</ele>
        <time>2026-05-28T14:52:27.000Z</time>
      </trkpt>
      <trkpt lat="44.00161" lon="3.51313">
        <ele>757.3</ele>
        <time>2026-05-28T14:52:28.000Z</time>
      </trkpt>
      <trkpt lat="44.00161" lon="3.51313">
        <ele>757.4</ele>
        <time>2026-05-28T14:52:29.000Z</time>
      </trkpt>
      <trkpt lat="44.00161" lon="3.51313">
        <ele>757.4</ele>
        <time>2026-05-28T14:52:30.000Z</time>
      </trkpt>
      <trkpt lat="44.00161" lon="3.51313">
        <ele>757.1</ele>
        <time>2026-05-28T14:52:31.000Z</time>
      </trkpt>
      <trkpt lat="44.00161" lon="3.51313">
        <ele>757.3</ele>
        <time>2026-05-28T14:52:32.000Z</time>
      </trkpt>
      <trkpt lat="44.00161" lon="3.51312">
        <ele>757.6</ele>
        <time>2026-05-28T14:52:33.000Z</time>
      </trkpt>
      <trkpt lat="44.00161" lon="3.51312">
        <ele>758</ele>
        <time>2026-05-28T14:52:34.000Z</time>
      </trkpt>
      <trkpt lat="44.00161" lon="3.51312">
        <ele>758.6</ele>
        <time>2026-05-28T14:52:35.000Z</time>
      </trkpt>
      <trkpt lat="44.00161" lon="3.51312">
        <ele>758.8</ele>
        <time>2026-05-28T14:52:36.000Z</time>
      </trkpt>
      <trkpt lat="44.00161" lon="3.51312">
        <ele>758.7</ele>
        <time>2026-05-28T14:52:37.000Z</time>
      </trkpt>
      <trkpt lat="44.00161" lon="3.51312">
        <ele>759</ele>
        <time>2026-05-28T14:52:38.000Z</time>
      </trkpt>
      <trkpt lat="44.00161" lon="3.51312">
        <ele>758.9</ele>
        <time>2026-05-28T14:52:39.000Z</time>
      </trkpt>
      <trkpt lat="44.00161" lon="3.51312">
        <ele>759.1</ele>
        <time>2026-05-28T14:52:40.000Z</time>
      </trkpt>
      <trkpt lat="44.00161" lon="3.51312">
        <ele>759.4</ele>
        <time>2026-05-28T14:52:41.000Z</time>
      </trkpt>
      <trkpt lat="44.00161" lon="3.51312">
        <ele>759.6</ele>
        <time>2026-05-28T14:52:42.000Z</time>
      </trkpt>
      <trkpt lat="44.00161" lon="3.51312">
        <ele>759.6</ele>
        <time>2026-05-28T14:52:43.000Z</time>
      </trkpt>
      <trkpt lat="44.00161" lon="3.51312">
        <ele>759.7</ele>
        <time>2026-05-28T14:52:44.000Z</time>
      </trkpt>
      <trkpt lat="44.00161" lon="3.51312">
        <ele>759.6</ele>
        <time>2026-05-28T14:52:45.000Z</time>
      </trkpt>
      <trkpt lat="44.00161" lon="3.51312">
        <ele>759.7</ele>
        <time>2026-05-28T14:52:46.000Z</time>
      </trkpt>
      <trkpt lat="44.00161" lon="3.51312">
        <ele>759.6</ele>
        <time>2026-05-28T14:52:47.000Z</time>
      </trkpt>
      <trkpt lat="44.00161" lon="3.51311">
        <ele>759.6</ele>
        <time>2026-05-28T14:52:48.000Z</time>
      </trkpt>
      <trkpt lat="44.00161" lon="3.51312">
        <ele>759.4</ele>
        <time>2026-05-28T14:52:49.000Z</time>
      </trkpt>
      <trkpt lat="44.00161" lon="3.51312">
        <ele>759.5</ele>
        <time>2026-05-28T14:52:50.000Z</time>
      </trkpt>
      <trkpt lat="44.00161" lon="3.51312">
        <ele>759.6</ele>
        <time>2026-05-28T14:52:51.000Z</time>
      </trkpt>
      <trkpt lat="44.00161" lon="3.51312">
        <ele>759.6</ele>
        <time>2026-05-28T14:52:52.000Z</time>
      </trkpt>
      <trkpt lat="44.00161" lon="3.51311">
        <ele>759.7</ele>
        <time>2026-05-28T14:52:53.000Z</time>
      </trkpt>
      <trkpt lat="44.00161" lon="3.51311">
        <ele>759.9</ele>
        <time>2026-05-28T14:52:54.000Z</time>
      </trkpt>
      <trkpt lat="44.00161" lon="3.51311">
        <ele>760</ele>
        <time>2026-05-28T14:52:55.000Z</time>
      </trkpt>
      <trkpt lat="44.00161" lon="3.5131">
        <ele>760.1</ele>
        <time>2026-05-28T14:52:56.000Z</time>
      </trkpt>
      <trkpt lat="44.00161" lon="3.51309">
        <ele>760.1</ele>
        <time>2026-05-28T14:52:57.000Z</time>
      </trkpt>
      <trkpt lat="44.00161" lon="3.51309">
        <ele>760.2</ele>
        <time>2026-05-28T14:52:58.000Z</time>
      </trkpt>
      <trkpt lat="44.00161" lon="3.51309">
        <ele>760.4</ele>
        <time>2026-05-28T14:52:59.000Z</time>
      </trkpt>
      <trkpt lat="44.00161" lon="3.51309">
        <ele>760.5</ele>
        <time>2026-05-28T14:53:00.000Z</time>
      </trkpt>
      <trkpt lat="44.00161" lon="3.51309">
        <ele>760.8</ele>
        <time>2026-05-28T14:53:01.000Z</time>
      </trkpt>
      <trkpt lat="44.00162" lon="3.51309">
        <ele>761</ele>
        <time>2026-05-28T14:53:02.000Z</time>
      </trkpt>
      <trkpt lat="44.00162" lon="3.51309">
        <ele>761.2</ele>
        <time>2026-05-28T14:53:03.000Z</time>
      </trkpt>
      <trkpt lat="44.00162" lon="3.51309">
        <ele>761.3</ele>
        <time>2026-05-28T14:53:04.000Z</time>
      </trkpt>
      <trkpt lat="44.00162" lon="3.5131">
        <ele>761.3</ele>
        <time>2026-05-28T14:53:05.000Z</time>
      </trkpt>
      <trkpt lat="44.00163" lon="3.51309">
        <ele>761.3</ele>
        <time>2026-05-28T14:53:07.000Z</time>
      </trkpt>
      <trkpt lat="44.00164" lon="3.51309">
        <ele>761</ele>
        <time>2026-05-28T14:53:08.000Z</time>
      </trkpt>
      <trkpt lat="44.00164" lon="3.5131">
        <ele>760.8</ele>
        <time>2026-05-28T14:53:09.000Z</time>
      </trkpt>
      <trkpt lat="44.00164" lon="3.5131">
        <ele>760.6</ele>
        <time>2026-05-28T14:53:10.000Z</time>
      </trkpt>
      <trkpt lat="44.00164" lon="3.5131">
        <ele>760.2</ele>
        <time>2026-05-28T14:53:11.000Z</time>
      </trkpt>
      <trkpt lat="44.00164" lon="3.5131">
        <ele>760</ele>
        <time>2026-05-28T14:53:12.000Z</time>
      </trkpt>
      <trkpt lat="44.00164" lon="3.5131">
        <ele>759.9</ele>
        <time>2026-05-28T14:53:13.000Z</time>
      </trkpt>
      <trkpt lat="44.00164" lon="3.5131">
        <ele>759.8</ele>
        <time>2026-05-28T14:53:14.000Z</time>
      </trkpt>
      <trkpt lat="44.00164" lon="3.5131">
        <ele>760</ele>
        <time>2026-05-28T14:53:15.000Z</time>
      </trkpt>
      <trkpt lat="44.00164" lon="3.5131">
        <ele>760.4</ele>
        <time>2026-05-28T14:53:16.000Z</time>
      </trkpt>
      <trkpt lat="44.00164" lon="3.5131">
        <ele>760.6</ele>
        <time>2026-05-28T14:53:17.000Z</time>
      </trkpt>
      <trkpt lat="44.00164" lon="3.5131">
        <ele>760.5</ele>
        <time>2026-05-28T14:53:18.000Z</time>
      </trkpt>
      <trkpt lat="44.00164" lon="3.5131">
        <ele>760.6</ele>
        <time>2026-05-28T14:53:19.000Z</time>
      </trkpt>
      <trkpt lat="44.00164" lon="3.5131">
        <ele>760.5</ele>
        <time>2026-05-28T14:53:21.000Z</time>
      </trkpt>
      <trkpt lat="44.00164" lon="3.51311">
        <ele>760.9</ele>
        <time>2026-05-28T14:53:22.000Z</time>
      </trkpt>
      <trkpt lat="44.00164" lon="3.51311">
        <ele>761</ele>
        <time>2026-05-28T14:53:23.000Z</time>
      </trkpt>
      <trkpt lat="44.00164" lon="3.51311">
        <ele>761.1</ele>
        <time>2026-05-28T14:53:24.000Z</time>
      </trkpt>
      <trkpt lat="44.00164" lon="3.51311">
        <ele>761.5</ele>
        <time>2026-05-28T14:53:25.000Z</time>
      </trkpt>
      <trkpt lat="44.00164" lon="3.51311">
        <ele>761.7</ele>
        <time>2026-05-28T14:53:26.000Z</time>
      </trkpt>
      <trkpt lat="44.00164" lon="3.51311">
        <ele>761.6</ele>
        <time>2026-05-28T14:53:27.000Z</time>
      </trkpt>
      <trkpt lat="44.00164" lon="3.51311">
        <ele>761.8</ele>
        <time>2026-05-28T14:53:28.000Z</time>
      </trkpt>
      <trkpt lat="44.00164" lon="3.51311">
        <ele>761.8</ele>
        <time>2026-05-28T14:53:29.000Z</time>
      </trkpt>
      <trkpt lat="44.00164" lon="3.51311">
        <ele>762</ele>
        <time>2026-05-28T14:53:30.000Z</time>
      </trkpt>
      <trkpt lat="44.00164" lon="3.51311">
        <ele>762.1</ele>
        <time>2026-05-28T14:53:31.000Z</time>
      </trkpt>
      <trkpt lat="44.00164" lon="3.51311">
        <ele>762.2</ele>
        <time>2026-05-28T14:53:32.000Z</time>
      </trkpt>
      <trkpt lat="44.00165" lon="3.51311">
        <ele>762.2</ele>
        <time>2026-05-28T14:53:33.000Z</time>
      </trkpt>
      <trkpt lat="44.00165" lon="3.51311">
        <ele>762.2</ele>
        <time>2026-05-28T14:53:34.000Z</time>
      </trkpt>
      <trkpt lat="44.00165" lon="3.51311">
        <ele>762.2</ele>
        <time>2026-05-28T14:53:35.000Z</time>
      </trkpt>
      <trkpt lat="44.00165" lon="3.51311">
        <ele>762.4</ele>
        <time>2026-05-28T14:53:36.000Z</time>
      </trkpt>
      <trkpt lat="44.00165" lon="3.51311">
        <ele>762.7</ele>
        <time>2026-05-28T14:53:37.000Z</time>
      </trkpt>
      <trkpt lat="44.00165" lon="3.51311">
        <ele>762.6</ele>
        <time>2026-05-28T14:53:38.000Z</time>
      </trkpt>
      <trkpt lat="44.00165" lon="3.51312">
        <ele>762.5</ele>
        <time>2026-05-28T14:53:39.000Z</time>
      </trkpt>
      <trkpt lat="44.00165" lon="3.51312">
        <ele>762.7</ele>
        <time>2026-05-28T14:53:40.000Z</time>
      </trkpt>
      <trkpt lat="44.00165" lon="3.51312">
        <ele>762.9</ele>
        <time>2026-05-28T14:53:41.000Z</time>
      </trkpt>
      <trkpt lat="44.00165" lon="3.51312">
        <ele>763</ele>
        <time>2026-05-28T14:53:42.000Z</time>
      </trkpt>
      <trkpt lat="44.00165" lon="3.51312">
        <ele>762.8</ele>
        <time>2026-05-28T14:53:43.000Z</time>
      </trkpt>
      <trkpt lat="44.00165" lon="3.51312">
        <ele>762.2</ele>
        <time>2026-05-28T14:53:44.000Z</time>
      </trkpt>
      <trkpt lat="44.00165" lon="3.51312">
        <ele>761.7</ele>
        <time>2026-05-28T14:53:45.000Z</time>
      </trkpt>
      <trkpt lat="44.00165" lon="3.51312">
        <ele>761.5</ele>
        <time>2026-05-28T14:53:46.000Z</time>
      </trkpt>
      <trkpt lat="44.00165" lon="3.51312">
        <ele>761.3</ele>
        <time>2026-05-28T14:53:47.000Z</time>
      </trkpt>
      <trkpt lat="44.00165" lon="3.51312">
        <ele>761.1</ele>
        <time>2026-05-28T14:53:48.000Z</time>
      </trkpt>
      <trkpt lat="44.00165" lon="3.51312">
        <ele>760.9</ele>
        <time>2026-05-28T14:53:49.000Z</time>
      </trkpt>
      <trkpt lat="44.00165" lon="3.51312">
        <ele>760.7</ele>
        <time>2026-05-28T14:53:50.000Z</time>
      </trkpt>
      <trkpt lat="44.00165" lon="3.51312">
        <ele>760.4</ele>
        <time>2026-05-28T14:53:51.000Z</time>
      </trkpt>
      <trkpt lat="44.00165" lon="3.51312">
        <ele>760.3</ele>
        <time>2026-05-28T14:53:52.000Z</time>
      </trkpt>
      <trkpt lat="44.00165" lon="3.51312">
        <ele>760.2</ele>
        <time>2026-05-28T14:53:53.000Z</time>
      </trkpt>
      <trkpt lat="44.00165" lon="3.51312">
        <ele>760</ele>
        <time>2026-05-28T14:53:54.000Z</time>
      </trkpt>
      <trkpt lat="44.00165" lon="3.51312">
        <ele>759.7</ele>
        <time>2026-05-28T14:53:55.000Z</time>
      </trkpt>
      <trkpt lat="44.00165" lon="3.51312">
        <ele>759.4</ele>
        <time>2026-05-28T14:53:56.000Z</time>
      </trkpt>
      <trkpt lat="44.00165" lon="3.51312">
        <ele>759.3</ele>
        <time>2026-05-28T14:53:57.000Z</time>
      </trkpt>
      <trkpt lat="44.00165" lon="3.51313">
        <ele>759.4</ele>
        <time>2026-05-28T14:53:58.000Z</time>
      </trkpt>
      <trkpt lat="44.00165" lon="3.51313">
        <ele>759.1</ele>
        <time>2026-05-28T14:53:59.000Z</time>
      </trkpt>
      <trkpt lat="44.00165" lon="3.51313">
        <ele>759</ele>
        <time>2026-05-28T14:54:00.000Z</time>
      </trkpt>
      <trkpt lat="44.00165" lon="3.51313">
        <ele>758.9</ele>
        <time>2026-05-28T14:54:01.000Z</time>
      </trkpt>
      <trkpt lat="44.00164" lon="3.51312">
        <ele>758.6</ele>
        <time>2026-05-28T14:54:02.000Z</time>
      </trkpt>
      <trkpt lat="44.00164" lon="3.51312">
        <ele>758.4</ele>
        <time>2026-05-28T14:54:03.000Z</time>
      </trkpt>
      <trkpt lat="44.00164" lon="3.51312">
        <ele>758.7</ele>
        <time>2026-05-28T14:54:04.000Z</time>
      </trkpt>
      <trkpt lat="44.00164" lon="3.51313">
        <ele>758.8</ele>
        <time>2026-05-28T14:54:05.000Z</time>
      </trkpt>
      <trkpt lat="44.00164" lon="3.51313">
        <ele>758.9</ele>
        <time>2026-05-28T14:54:06.000Z</time>
      </trkpt>
      <trkpt lat="44.00164" lon="3.51313">
        <ele>759.1</ele>
        <time>2026-05-28T14:54:07.000Z</time>
      </trkpt>
      <trkpt lat="44.00164" lon="3.51313">
        <ele>759.1</ele>
        <time>2026-05-28T14:54:08.000Z</time>
      </trkpt>
      <trkpt lat="44.00164" lon="3.51313">
        <ele>759.2</ele>
        <time>2026-05-28T14:54:09.000Z</time>
      </trkpt>
      <trkpt lat="44.00164" lon="3.51313">
        <ele>759.3</ele>
        <time>2026-05-28T14:54:10.000Z</time>
      </trkpt>
      <trkpt lat="44.00164" lon="3.51313">
        <ele>759.4</ele>
        <time>2026-05-28T14:54:11.000Z</time>
      </trkpt>
      <trkpt lat="44.00164" lon="3.51313">
        <ele>759.7</ele>
        <time>2026-05-28T14:54:12.000Z</time>
      </trkpt>
      <trkpt lat="44.00164" lon="3.51313">
        <ele>760.1</ele>
        <time>2026-05-28T14:54:13.000Z</time>
      </trkpt>
      <trkpt lat="44.00164" lon="3.51313">
        <ele>760.4</ele>
        <time>2026-05-28T14:54:14.000Z</time>
      </trkpt>
      <trkpt lat="44.00164" lon="3.51313">
        <ele>760.3</ele>
        <time>2026-05-28T14:54:15.000Z</time>
      </trkpt>
      <trkpt lat="44.00164" lon="3.51313">
        <ele>759.7</ele>
        <time>2026-05-28T14:54:16.000Z</time>
      </trkpt>
      <trkpt lat="44.00164" lon="3.51313">
        <ele>759.6</ele>
        <time>2026-05-28T14:54:17.000Z</time>
      </trkpt>
      <trkpt lat="44.00164" lon="3.51313">
        <ele>759.5</ele>
        <time>2026-05-28T14:54:18.000Z</time>
      </trkpt>
      <trkpt lat="44.00164" lon="3.51313">
        <ele>759.7</ele>
        <time>2026-05-28T14:54:19.000Z</time>
      </trkpt>
      <trkpt lat="44.00164" lon="3.51312">
        <ele>759.7</ele>
        <time>2026-05-28T14:54:20.000Z</time>
      </trkpt>
      <trkpt lat="44.00164" lon="3.51312">
        <ele>759.9</ele>
        <time>2026-05-28T14:54:21.000Z</time>
      </trkpt>
      <trkpt lat="44.00164" lon="3.51312">
        <ele>759.9</ele>
        <time>2026-05-28T14:54:22.000Z</time>
      </trkpt>
      <trkpt lat="44.00164" lon="3.51312">
        <ele>760</ele>
        <time>2026-05-28T14:54:23.000Z</time>
      </trkpt>
      <trkpt lat="44.00164" lon="3.51312">
        <ele>760.1</ele>
        <time>2026-05-28T14:54:24.000Z</time>
      </trkpt>
      <trkpt lat="44.00164" lon="3.51312">
        <ele>760.2</ele>
        <time>2026-05-28T14:54:25.000Z</time>
      </trkpt>
      <trkpt lat="44.00164" lon="3.51312">
        <ele>760.2</ele>
        <time>2026-05-28T14:54:26.000Z</time>
      </trkpt>
      <trkpt lat="44.00164" lon="3.51312">
        <ele>760.1</ele>
        <time>2026-05-28T14:54:27.000Z</time>
      </trkpt>
      <trkpt lat="44.00164" lon="3.51312">
        <ele>759.6</ele>
        <time>2026-05-28T14:54:28.000Z</time>
      </trkpt>
      <trkpt lat="44.00164" lon="3.51312">
        <ele>759.2</ele>
        <time>2026-05-28T14:54:29.000Z</time>
      </trkpt>
      <trkpt lat="44.00164" lon="3.51312">
        <ele>759.1</ele>
        <time>2026-05-28T14:54:30.000Z</time>
      </trkpt>
      <trkpt lat="44.00164" lon="3.51312">
        <ele>758.9</ele>
        <time>2026-05-28T14:54:31.000Z</time>
      </trkpt>
      <trkpt lat="44.00164" lon="3.51312">
        <ele>759</ele>
        <time>2026-05-28T14:54:32.000Z</time>
      </trkpt>
      <trkpt lat="44.00164" lon="3.51312">
        <ele>759</ele>
        <time>2026-05-28T14:54:33.000Z</time>
      </trkpt>
      <trkpt lat="44.00163" lon="3.51312">
        <ele>758.8</ele>
        <time>2026-05-28T14:54:34.000Z</time>
      </trkpt>
      <trkpt lat="44.00163" lon="3.51312">
        <ele>758.6</ele>
        <time>2026-05-28T14:54:35.000Z</time>
      </trkpt>
      <trkpt lat="44.00163" lon="3.51311">
        <ele>758.6</ele>
        <time>2026-05-28T14:54:36.000Z</time>
      </trkpt>
      <trkpt lat="44.00163" lon="3.51311">
        <ele>758.6</ele>
        <time>2026-05-28T14:54:37.000Z</time>
      </trkpt>
      <trkpt lat="44.00162" lon="3.51311">
        <ele>758.4</ele>
        <time>2026-05-28T14:54:38.000Z</time>
      </trkpt>
      <trkpt lat="44.00162" lon="3.5131">
        <ele>758.3</ele>
        <time>2026-05-28T14:54:39.000Z</time>
      </trkpt>
      <trkpt lat="44.00161" lon="3.51309">
        <ele>758.1</ele>
        <time>2026-05-28T14:54:40.000Z</time>
      </trkpt>
      <trkpt lat="44.0016" lon="3.51308">
        <ele>757.9</ele>
        <time>2026-05-28T14:54:41.000Z</time>
      </trkpt>
      <trkpt lat="44.0016" lon="3.51308">
        <ele>758.3</ele>
        <time>2026-05-28T14:54:42.000Z</time>
      </trkpt>
      <trkpt lat="44.00159" lon="3.51307">
        <ele>758.9</ele>
        <time>2026-05-28T14:54:43.000Z</time>
      </trkpt>
      <trkpt lat="44.00158" lon="3.51307">
        <ele>759.1</ele>
        <time>2026-05-28T14:54:44.000Z</time>
      </trkpt>
      <trkpt lat="44.00158" lon="3.51306">
        <ele>759</ele>
        <time>2026-05-28T14:54:45.000Z</time>
      </trkpt>
      <trkpt lat="44.00157" lon="3.51304">
        <ele>758.9</ele>
        <time>2026-05-28T14:54:46.000Z</time>
      </trkpt>
      <trkpt lat="44.00156" lon="3.51303">
        <ele>758.8</ele>
        <time>2026-05-28T14:54:47.000Z</time>
      </trkpt>
      <trkpt lat="44.00156" lon="3.51303">
        <ele>758.7</ele>
        <time>2026-05-28T14:54:48.000Z</time>
      </trkpt>
      <trkpt lat="44.00155" lon="3.51302">
        <ele>758.5</ele>
        <time>2026-05-28T14:54:49.000Z</time>
      </trkpt>
      <trkpt lat="44.00154" lon="3.51302">
        <ele>758.5</ele>
        <time>2026-05-28T14:54:50.000Z</time>
      </trkpt>
      <trkpt lat="44.00153" lon="3.513">
        <ele>758.3</ele>
        <time>2026-05-28T14:54:51.000Z</time>
      </trkpt>
      <trkpt lat="44.00152" lon="3.51299">
        <ele>758.1</ele>
        <time>2026-05-28T14:54:52.000Z</time>
      </trkpt>
      <trkpt lat="44.00152" lon="3.51297">
        <ele>757.7</ele>
        <time>2026-05-28T14:54:53.000Z</time>
      </trkpt>
      <trkpt lat="44.00151" lon="3.51294">
        <ele>757.4</ele>
        <time>2026-05-28T14:54:55.000Z</time>
      </trkpt>
      <trkpt lat="44.0015" lon="3.51293">
        <ele>757.3</ele>
        <time>2026-05-28T14:54:56.000Z</time>
      </trkpt>
      <trkpt lat="44.0015" lon="3.51292">
        <ele>756.9</ele>
        <time>2026-05-28T14:54:57.000Z</time>
      </trkpt>
      <trkpt lat="44.0015" lon="3.5129">
        <ele>756.7</ele>
        <time>2026-05-28T14:54:58.000Z</time>
      </trkpt>
      <trkpt lat="44.00149" lon="3.51289">
        <ele>756.6</ele>
        <time>2026-05-28T14:54:59.000Z</time>
      </trkpt>
      <trkpt lat="44.00148" lon="3.51287">
        <ele>756.5</ele>
        <time>2026-05-28T14:55:00.000Z</time>
      </trkpt>
      <trkpt lat="44.00148" lon="3.51286">
        <ele>756.2</ele>
        <time>2026-05-28T14:55:01.000Z</time>
      </trkpt>
      <trkpt lat="44.00147" lon="3.51285">
        <ele>756.1</ele>
        <time>2026-05-28T14:55:02.000Z</time>
      </trkpt>
      <trkpt lat="44.00146" lon="3.51284">
        <ele>756.2</ele>
        <time>2026-05-28T14:55:03.000Z</time>
      </trkpt>
      <trkpt lat="44.00147" lon="3.51282">
        <ele>755.7</ele>
        <time>2026-05-28T14:55:04.000Z</time>
      </trkpt>
      <trkpt lat="44.00147" lon="3.51281">
        <ele>755.5</ele>
        <time>2026-05-28T14:55:05.000Z</time>
      </trkpt>
      <trkpt lat="44.00146" lon="3.5128">
        <ele>755.6</ele>
        <time>2026-05-28T14:55:06.000Z</time>
      </trkpt>
      <trkpt lat="44.00146" lon="3.5128">
        <ele>755.5</ele>
        <time>2026-05-28T14:55:07.000Z</time>
      </trkpt>
      <trkpt lat="44.00146" lon="3.51279">
        <ele>755.2</ele>
        <time>2026-05-28T14:55:08.000Z</time>
      </trkpt>
      <trkpt lat="44.00146" lon="3.51279">
        <ele>754.8</ele>
        <time>2026-05-28T14:55:09.000Z</time>
      </trkpt>
      <trkpt lat="44.00146" lon="3.51279">
        <ele>754.6</ele>
        <time>2026-05-28T14:55:10.000Z</time>
      </trkpt>
      <trkpt lat="44.00146" lon="3.51279">
        <ele>754.9</ele>
        <time>2026-05-28T14:55:11.000Z</time>
      </trkpt>
      <trkpt lat="44.00146" lon="3.51279">
        <ele>754.8</ele>
        <time>2026-05-28T14:55:12.000Z</time>
      </trkpt>
      <trkpt lat="44.00146" lon="3.51278">
        <ele>754.5</ele>
        <time>2026-05-28T14:55:13.000Z</time>
      </trkpt>
      <trkpt lat="44.00146" lon="3.51278">
        <ele>754.4</ele>
        <time>2026-05-28T14:55:14.000Z</time>
      </trkpt>
      <trkpt lat="44.00145" lon="3.51277">
        <ele>754.2</ele>
        <time>2026-05-28T14:55:15.000Z</time>
      </trkpt>
      <trkpt lat="44.00145" lon="3.51277">
        <ele>754.3</ele>
        <time>2026-05-28T14:55:16.000Z</time>
      </trkpt>
      <trkpt lat="44.00145" lon="3.51277">
        <ele>754.1</ele>
        <time>2026-05-28T14:55:17.000Z</time>
      </trkpt>
      <trkpt lat="44.00145" lon="3.51277">
        <ele>753.9</ele>
        <time>2026-05-28T14:55:18.000Z</time>
      </trkpt>
      <trkpt lat="44.00145" lon="3.51276">
        <ele>753.6</ele>
        <time>2026-05-28T14:55:19.000Z</time>
      </trkpt>
      <trkpt lat="44.00144" lon="3.51274">
        <ele>753.7</ele>
        <time>2026-05-28T14:55:20.000Z</time>
      </trkpt>
      <trkpt lat="44.00142" lon="3.51272">
        <ele>753.4</ele>
        <time>2026-05-28T14:55:21.000Z</time>
      </trkpt>
      <trkpt lat="44.00141" lon="3.5127">
        <ele>753.6</ele>
        <time>2026-05-28T14:55:22.000Z</time>
      </trkpt>
      <trkpt lat="44.00141" lon="3.51269">
        <ele>753.6</ele>
        <time>2026-05-28T14:55:23.000Z</time>
      </trkpt>
      <trkpt lat="44.0014" lon="3.51268">
        <ele>753.7</ele>
        <time>2026-05-28T14:55:24.000Z</time>
      </trkpt>
      <trkpt lat="44.00139" lon="3.51267">
        <ele>753.6</ele>
        <time>2026-05-28T14:55:25.000Z</time>
      </trkpt>
      <trkpt lat="44.00138" lon="3.51266">
        <ele>753.5</ele>
        <time>2026-05-28T14:55:26.000Z</time>
      </trkpt>
      <trkpt lat="44.00137" lon="3.51264">
        <ele>753.4</ele>
        <time>2026-05-28T14:55:27.000Z</time>
      </trkpt>
      <trkpt lat="44.00136" lon="3.51263">
        <ele>753.2</ele>
        <time>2026-05-28T14:55:28.000Z</time>
      </trkpt>
      <trkpt lat="44.00135" lon="3.51262">
        <ele>753</ele>
        <time>2026-05-28T14:55:29.000Z</time>
      </trkpt>
      <trkpt lat="44.00134" lon="3.51261">
        <ele>752.8</ele>
        <time>2026-05-28T14:55:30.000Z</time>
      </trkpt>
      <trkpt lat="44.00134" lon="3.5126">
        <ele>752.6</ele>
        <time>2026-05-28T14:55:31.000Z</time>
      </trkpt>
      <trkpt lat="44.00133" lon="3.51259">
        <ele>752.2</ele>
        <time>2026-05-28T14:55:32.000Z</time>
      </trkpt>
      <trkpt lat="44.00132" lon="3.51258">
        <ele>752.2</ele>
        <time>2026-05-28T14:55:33.000Z</time>
      </trkpt>
      <trkpt lat="44.00131" lon="3.51258">
        <ele>752.2</ele>
        <time>2026-05-28T14:55:34.000Z</time>
      </trkpt>
      <trkpt lat="44.0013" lon="3.51256">
        <ele>752.8</ele>
        <time>2026-05-28T14:55:35.000Z</time>
      </trkpt>
      <trkpt lat="44.00129" lon="3.51255">
        <ele>752.9</ele>
        <time>2026-05-28T14:55:36.000Z</time>
      </trkpt>
      <trkpt lat="44.00128" lon="3.51254">
        <ele>752.8</ele>
        <time>2026-05-28T14:55:37.000Z</time>
      </trkpt>
      <trkpt lat="44.00127" lon="3.51252">
        <ele>753.2</ele>
        <time>2026-05-28T14:55:38.000Z</time>
      </trkpt>
      <trkpt lat="44.00126" lon="3.51251">
        <ele>753.5</ele>
        <time>2026-05-28T14:55:39.000Z</time>
      </trkpt>
      <trkpt lat="44.00126" lon="3.51249">
        <ele>753.5</ele>
        <time>2026-05-28T14:55:40.000Z</time>
      </trkpt>
      <trkpt lat="44.00126" lon="3.51247">
        <ele>753.5</ele>
        <time>2026-05-28T14:55:41.000Z</time>
      </trkpt>
      <trkpt lat="44.00126" lon="3.51246">
        <ele>753.4</ele>
        <time>2026-05-28T14:55:42.000Z</time>
      </trkpt>
      <trkpt lat="44.00125" lon="3.51243">
        <ele>753.1</ele>
        <time>2026-05-28T14:55:43.000Z</time>
      </trkpt>
      <trkpt lat="44.00125" lon="3.5124">
        <ele>753.2</ele>
        <time>2026-05-28T14:55:44.000Z</time>
      </trkpt>
      <trkpt lat="44.00124" lon="3.51239">
        <ele>753.2</ele>
        <time>2026-05-28T14:55:45.000Z</time>
      </trkpt>
      <trkpt lat="44.00123" lon="3.51237">
        <ele>753.1</ele>
        <time>2026-05-28T14:55:46.000Z</time>
      </trkpt>
      <trkpt lat="44.00122" lon="3.51237">
        <ele>753.1</ele>
        <time>2026-05-28T14:55:47.000Z</time>
      </trkpt>
      <trkpt lat="44.00122" lon="3.51236">
        <ele>753.1</ele>
        <time>2026-05-28T14:55:48.000Z</time>
      </trkpt>
      <trkpt lat="44.00122" lon="3.51235">
        <ele>752.9</ele>
        <time>2026-05-28T14:55:49.000Z</time>
      </trkpt>
      <trkpt lat="44.00122" lon="3.51233">
        <ele>752.9</ele>
        <time>2026-05-28T14:55:50.000Z</time>
      </trkpt>
      <trkpt lat="44.00121" lon="3.51231">
        <ele>752.8</ele>
        <time>2026-05-28T14:55:51.000Z</time>
      </trkpt>
      <trkpt lat="44.0012" lon="3.5123">
        <ele>753.1</ele>
        <time>2026-05-28T14:55:52.000Z</time>
      </trkpt>
      <trkpt lat="44.00119" lon="3.51229">
        <ele>753</ele>
        <time>2026-05-28T14:55:53.000Z</time>
      </trkpt>
      <trkpt lat="44.00119" lon="3.51228">
        <ele>752.6</ele>
        <time>2026-05-28T14:55:54.000Z</time>
      </trkpt>
      <trkpt lat="44.00118" lon="3.51227">
        <ele>752.3</ele>
        <time>2026-05-28T14:55:55.000Z</time>
      </trkpt>
      <trkpt lat="44.00117" lon="3.51226">
        <ele>752.1</ele>
        <time>2026-05-28T14:55:56.000Z</time>
      </trkpt>
      <trkpt lat="44.00117" lon="3.51224">
        <ele>752</ele>
        <time>2026-05-28T14:55:57.000Z</time>
      </trkpt>
      <trkpt lat="44.00116" lon="3.51223">
        <ele>752</ele>
        <time>2026-05-28T14:55:58.000Z</time>
      </trkpt>
      <trkpt lat="44.00116" lon="3.51222">
        <ele>751.4</ele>
        <time>2026-05-28T14:55:59.000Z</time>
      </trkpt>
      <trkpt lat="44.00116" lon="3.51221">
        <ele>751.6</ele>
        <time>2026-05-28T14:56:00.000Z</time>
      </trkpt>
      <trkpt lat="44.00115" lon="3.5122">
        <ele>751.9</ele>
        <time>2026-05-28T14:56:01.000Z</time>
      </trkpt>
      <trkpt lat="44.00114" lon="3.51219">
        <ele>751.9</ele>
        <time>2026-05-28T14:56:02.000Z</time>
      </trkpt>
      <trkpt lat="44.00114" lon="3.51217">
        <ele>752.1</ele>
        <time>2026-05-28T14:56:03.000Z</time>
      </trkpt>
      <trkpt lat="44.00113" lon="3.51217">
        <ele>752.5</ele>
        <time>2026-05-28T14:56:04.000Z</time>
      </trkpt>
      <trkpt lat="44.00113" lon="3.51215">
        <ele>751.9</ele>
        <time>2026-05-28T14:56:05.000Z</time>
      </trkpt>
      <trkpt lat="44.00112" lon="3.51215">
        <ele>751.7</ele>
        <time>2026-05-28T14:56:06.000Z</time>
      </trkpt>
      <trkpt lat="44.00111" lon="3.51214">
        <ele>751.9</ele>
        <time>2026-05-28T14:56:07.000Z</time>
      </trkpt>
      <trkpt lat="44.0011" lon="3.51214">
        <ele>751.9</ele>
        <time>2026-05-28T14:56:08.000Z</time>
      </trkpt>
      <trkpt lat="44.0011" lon="3.51213">
        <ele>752</ele>
        <time>2026-05-28T14:56:09.000Z</time>
      </trkpt>
      <trkpt lat="44.00109" lon="3.51212">
        <ele>752.1</ele>
        <time>2026-05-28T14:56:10.000Z</time>
      </trkpt>
      <trkpt lat="44.00108" lon="3.5121">
        <ele>751.6</ele>
        <time>2026-05-28T14:56:11.000Z</time>
      </trkpt>
      <trkpt lat="44.00107" lon="3.51209">
        <ele>751.8</ele>
        <time>2026-05-28T14:56:12.000Z</time>
      </trkpt>
      <trkpt lat="44.00106" lon="3.51207">
        <ele>751.4</ele>
        <time>2026-05-28T14:56:13.000Z</time>
      </trkpt>
      <trkpt lat="44.00106" lon="3.51206">
        <ele>751.2</ele>
        <time>2026-05-28T14:56:14.000Z</time>
      </trkpt>
      <trkpt lat="44.00106" lon="3.51205">
        <ele>751.3</ele>
        <time>2026-05-28T14:56:15.000Z</time>
      </trkpt>
      <trkpt lat="44.00106" lon="3.51204">
        <ele>751.1</ele>
        <time>2026-05-28T14:56:16.000Z</time>
      </trkpt>
      <trkpt lat="44.00105" lon="3.51203">
        <ele>751.1</ele>
        <time>2026-05-28T14:56:17.000Z</time>
      </trkpt>
      <trkpt lat="44.00104" lon="3.51202">
        <ele>751.4</ele>
        <time>2026-05-28T14:56:18.000Z</time>
      </trkpt>
      <trkpt lat="44.00103" lon="3.51201">
        <ele>751.4</ele>
        <time>2026-05-28T14:56:19.000Z</time>
      </trkpt>
      <trkpt lat="44.00103" lon="3.512">
        <ele>751.1</ele>
        <time>2026-05-28T14:56:20.000Z</time>
      </trkpt>
      <trkpt lat="44.00103" lon="3.512">
        <ele>750.6</ele>
        <time>2026-05-28T14:56:21.000Z</time>
      </trkpt>
      <trkpt lat="44.00102" lon="3.51199">
        <ele>750.7</ele>
        <time>2026-05-28T14:56:22.000Z</time>
      </trkpt>
      <trkpt lat="44.00102" lon="3.51198">
        <ele>750.5</ele>
        <time>2026-05-28T14:56:23.000Z</time>
      </trkpt>
      <trkpt lat="44.00101" lon="3.51197">
        <ele>750.1</ele>
        <time>2026-05-28T14:56:24.000Z</time>
      </trkpt>
      <trkpt lat="44.00101" lon="3.51196">
        <ele>749.8</ele>
        <time>2026-05-28T14:56:25.000Z</time>
      </trkpt>
      <trkpt lat="44.001" lon="3.51195">
        <ele>749.8</ele>
        <time>2026-05-28T14:56:26.000Z</time>
      </trkpt>
      <trkpt lat="44.00099" lon="3.51193">
        <ele>749.7</ele>
        <time>2026-05-28T14:56:27.000Z</time>
      </trkpt>
      <trkpt lat="44.00098" lon="3.51192">
        <ele>749.4</ele>
        <time>2026-05-28T14:56:28.000Z</time>
      </trkpt>
      <trkpt lat="44.00098" lon="3.51191">
        <ele>749</ele>
        <time>2026-05-28T14:56:29.000Z</time>
      </trkpt>
      <trkpt lat="44.00097" lon="3.5119">
        <ele>748.9</ele>
        <time>2026-05-28T14:56:30.000Z</time>
      </trkpt>
      <trkpt lat="44.00096" lon="3.51189">
        <ele>748.9</ele>
        <time>2026-05-28T14:56:31.000Z</time>
      </trkpt>
      <trkpt lat="44.00095" lon="3.51188">
        <ele>748.7</ele>
        <time>2026-05-28T14:56:32.000Z</time>
      </trkpt>
      <trkpt lat="44.00094" lon="3.51187">
        <ele>748.4</ele>
        <time>2026-05-28T14:56:33.000Z</time>
      </trkpt>
      <trkpt lat="44.00093" lon="3.51187">
        <ele>748.3</ele>
        <time>2026-05-28T14:56:34.000Z</time>
      </trkpt>
      <trkpt lat="44.00093" lon="3.51186">
        <ele>748.3</ele>
        <time>2026-05-28T14:56:35.000Z</time>
      </trkpt>
      <trkpt lat="44.00092" lon="3.51185">
        <ele>748.3</ele>
        <time>2026-05-28T14:56:36.000Z</time>
      </trkpt>
      <trkpt lat="44.00091" lon="3.51185">
        <ele>748.4</ele>
        <time>2026-05-28T14:56:37.000Z</time>
      </trkpt>
      <trkpt lat="44.0009" lon="3.51184">
        <ele>748.3</ele>
        <time>2026-05-28T14:56:38.000Z</time>
      </trkpt>
      <trkpt lat="44.00089" lon="3.51184">
        <ele>748.3</ele>
        <time>2026-05-28T14:56:39.000Z</time>
      </trkpt>
      <trkpt lat="44.00088" lon="3.51184">
        <ele>748.3</ele>
        <time>2026-05-28T14:56:40.000Z</time>
      </trkpt>
      <trkpt lat="44.00087" lon="3.51184">
        <ele>748.3</ele>
        <time>2026-05-28T14:56:41.000Z</time>
      </trkpt>
      <trkpt lat="44.00086" lon="3.51184">
        <ele>748.3</ele>
        <time>2026-05-28T14:56:42.000Z</time>
      </trkpt>
      <trkpt lat="44.00085" lon="3.51184">
        <ele>748.2</ele>
        <time>2026-05-28T14:56:43.000Z</time>
      </trkpt>
      <trkpt lat="44.00084" lon="3.51184">
        <ele>748</ele>
        <time>2026-05-28T14:56:44.000Z</time>
      </trkpt>
      <trkpt lat="44.00083" lon="3.51183">
        <ele>748.1</ele>
        <time>2026-05-28T14:56:45.000Z</time>
      </trkpt>
      <trkpt lat="44.00082" lon="3.51183">
        <ele>748.2</ele>
        <time>2026-05-28T14:56:46.000Z</time>
      </trkpt>
      <trkpt lat="44.00081" lon="3.51183">
        <ele>748.1</ele>
        <time>2026-05-28T14:56:47.000Z</time>
      </trkpt>
      <trkpt lat="44.0008" lon="3.51183">
        <ele>747.5</ele>
        <time>2026-05-28T14:56:48.000Z</time>
      </trkpt>
      <trkpt lat="44.00079" lon="3.51183">
        <ele>747</ele>
        <time>2026-05-28T14:56:49.000Z</time>
      </trkpt>
      <trkpt lat="44.00078" lon="3.51183">
        <ele>747.2</ele>
        <time>2026-05-28T14:56:50.000Z</time>
      </trkpt>
      <trkpt lat="44.00076" lon="3.51183">
        <ele>747.2</ele>
        <time>2026-05-28T14:56:51.000Z</time>
      </trkpt>
      <trkpt lat="44.00075" lon="3.51183">
        <ele>747.3</ele>
        <time>2026-05-28T14:56:52.000Z</time>
      </trkpt>
      <trkpt lat="44.00075" lon="3.51183">
        <ele>747</ele>
        <time>2026-05-28T14:56:53.000Z</time>
      </trkpt>
      <trkpt lat="44.00074" lon="3.51183">
        <ele>746.9</ele>
        <time>2026-05-28T14:56:54.000Z</time>
      </trkpt>
      <trkpt lat="44.00073" lon="3.51182">
        <ele>746.4</ele>
        <time>2026-05-28T14:56:55.000Z</time>
      </trkpt>
      <trkpt lat="44.00071" lon="3.51182">
        <ele>745.8</ele>
        <time>2026-05-28T14:56:56.000Z</time>
      </trkpt>
      <trkpt lat="44.0007" lon="3.51182">
        <ele>745.9</ele>
        <time>2026-05-28T14:56:57.000Z</time>
      </trkpt>
      <trkpt lat="44.00069" lon="3.51182">
        <ele>745.4</ele>
        <time>2026-05-28T14:56:58.000Z</time>
      </trkpt>
      <trkpt lat="44.00068" lon="3.51183">
        <ele>745.2</ele>
        <time>2026-05-28T14:56:59.000Z</time>
      </trkpt>
      <trkpt lat="44.00068" lon="3.51183">
        <ele>744.7</ele>
        <time>2026-05-28T14:57:00.000Z</time>
      </trkpt>
      <trkpt lat="44.00067" lon="3.51183">
        <ele>744.4</ele>
        <time>2026-05-28T14:57:01.000Z</time>
      </trkpt>
      <trkpt lat="44.00066" lon="3.51183">
        <ele>744.4</ele>
        <time>2026-05-28T14:57:02.000Z</time>
      </trkpt>
      <trkpt lat="44.00065" lon="3.51183">
        <ele>744.5</ele>
        <time>2026-05-28T14:57:03.000Z</time>
      </trkpt>
      <trkpt lat="44.00064" lon="3.51182">
        <ele>744.4</ele>
        <time>2026-05-28T14:57:04.000Z</time>
      </trkpt>
      <trkpt lat="44.00063" lon="3.51183">
        <ele>744.2</ele>
        <time>2026-05-28T14:57:05.000Z</time>
      </trkpt>
      <trkpt lat="44.00063" lon="3.51183">
        <ele>744</ele>
        <time>2026-05-28T14:57:06.000Z</time>
      </trkpt>
      <trkpt lat="44.00062" lon="3.51183">
        <ele>743.8</ele>
        <time>2026-05-28T14:57:07.000Z</time>
      </trkpt>
      <trkpt lat="44.00062" lon="3.51183">
        <ele>745.4</ele>
        <time>2026-05-28T14:57:08.000Z</time>
      </trkpt>
      <trkpt lat="44.00061" lon="3.51182">
        <ele>745.3</ele>
        <time>2026-05-28T14:57:09.000Z</time>
      </trkpt>
      <trkpt lat="44.0006" lon="3.51182">
        <ele>745.1</ele>
        <time>2026-05-28T14:57:10.000Z</time>
      </trkpt>
      <trkpt lat="44.00058" lon="3.51181">
        <ele>745</ele>
        <time>2026-05-28T14:57:11.000Z</time>
      </trkpt>
      <trkpt lat="44.00057" lon="3.51181">
        <ele>745</ele>
        <time>2026-05-28T14:57:12.000Z</time>
      </trkpt>
      <trkpt lat="44.00055" lon="3.51179">
        <ele>744.7</ele>
        <time>2026-05-28T14:57:13.000Z</time>
      </trkpt>
      <trkpt lat="44.00054" lon="3.51179">
        <ele>744.7</ele>
        <time>2026-05-28T14:57:14.000Z</time>
      </trkpt>
      <trkpt lat="44.00053" lon="3.51178">
        <ele>744.6</ele>
        <time>2026-05-28T14:57:15.000Z</time>
      </trkpt>
      <trkpt lat="44.00052" lon="3.51177">
        <ele>744.1</ele>
        <time>2026-05-28T14:57:16.000Z</time>
      </trkpt>
      <trkpt lat="44.0005" lon="3.51177">
        <ele>743.7</ele>
        <time>2026-05-28T14:57:17.000Z</time>
      </trkpt>
      <trkpt lat="44.00049" lon="3.51176">
        <ele>743.4</ele>
        <time>2026-05-28T14:57:18.000Z</time>
      </trkpt>
      <trkpt lat="44.00048" lon="3.51175">
        <ele>743.2</ele>
        <time>2026-05-28T14:57:19.000Z</time>
      </trkpt>
      <trkpt lat="44.00046" lon="3.51174">
        <ele>743.1</ele>
        <time>2026-05-28T14:57:20.000Z</time>
      </trkpt>
      <trkpt lat="44.00045" lon="3.51173">
        <ele>743.2</ele>
        <time>2026-05-28T14:57:21.000Z</time>
      </trkpt>
      <trkpt lat="44.00045" lon="3.51173">
        <ele>743</ele>
        <time>2026-05-28T14:57:22.000Z</time>
      </trkpt>
      <trkpt lat="44.00044" lon="3.51172">
        <ele>743</ele>
        <time>2026-05-28T14:57:23.000Z</time>
      </trkpt>
      <trkpt lat="44.00043" lon="3.51172">
        <ele>742.8</ele>
        <time>2026-05-28T14:57:24.000Z</time>
      </trkpt>
      <trkpt lat="44.00042" lon="3.51171">
        <ele>742.6</ele>
        <time>2026-05-28T14:57:25.000Z</time>
      </trkpt>
      <trkpt lat="44.0004" lon="3.5117">
        <ele>742.4</ele>
        <time>2026-05-28T14:57:26.000Z</time>
      </trkpt>
      <trkpt lat="44.00039" lon="3.5117">
        <ele>742.4</ele>
        <time>2026-05-28T14:57:27.000Z</time>
      </trkpt>
      <trkpt lat="44.00039" lon="3.51169">
        <ele>742.1</ele>
        <time>2026-05-28T14:57:28.000Z</time>
      </trkpt>
      <trkpt lat="44.00037" lon="3.51169">
        <ele>742.7</ele>
        <time>2026-05-28T14:57:29.000Z</time>
      </trkpt>
      <trkpt lat="44.00036" lon="3.51168">
        <ele>743</ele>
        <time>2026-05-28T14:57:30.000Z</time>
      </trkpt>
      <trkpt lat="44.00035" lon="3.51168">
        <ele>742.9</ele>
        <time>2026-05-28T14:57:31.000Z</time>
      </trkpt>
      <trkpt lat="44.00034" lon="3.51168">
        <ele>742.7</ele>
        <time>2026-05-28T14:57:32.000Z</time>
      </trkpt>
      <trkpt lat="44.00032" lon="3.51168">
        <ele>742.4</ele>
        <time>2026-05-28T14:57:33.000Z</time>
      </trkpt>
      <trkpt lat="44.00031" lon="3.51168">
        <ele>742.2</ele>
        <time>2026-05-28T14:57:34.000Z</time>
      </trkpt>
      <trkpt lat="44.0003" lon="3.51168">
        <ele>742.3</ele>
        <time>2026-05-28T14:57:35.000Z</time>
      </trkpt>
      <trkpt lat="44.00028" lon="3.51168">
        <ele>742.8</ele>
        <time>2026-05-28T14:57:36.000Z</time>
      </trkpt>
      <trkpt lat="44.00027" lon="3.51167">
        <ele>742.9</ele>
        <time>2026-05-28T14:57:37.000Z</time>
      </trkpt>
      <trkpt lat="44.00026" lon="3.51166">
        <ele>743</ele>
        <time>2026-05-28T14:57:38.000Z</time>
      </trkpt>
      <trkpt lat="44.00025" lon="3.51165">
        <ele>742.8</ele>
        <time>2026-05-28T14:57:39.000Z</time>
      </trkpt>
      <trkpt lat="44.00024" lon="3.51164">
        <ele>742.8</ele>
        <time>2026-05-28T14:57:40.000Z</time>
      </trkpt>
      <trkpt lat="44.00023" lon="3.51163">
        <ele>742.6</ele>
        <time>2026-05-28T14:57:41.000Z</time>
      </trkpt>
      <trkpt lat="44.00022" lon="3.51163">
        <ele>742.3</ele>
        <time>2026-05-28T14:57:42.000Z</time>
      </trkpt>
      <trkpt lat="44.0002" lon="3.51163">
        <ele>742.2</ele>
        <time>2026-05-28T14:57:43.000Z</time>
      </trkpt>
      <trkpt lat="44.00019" lon="3.51162">
        <ele>742.3</ele>
        <time>2026-05-28T14:57:44.000Z</time>
      </trkpt>
      <trkpt lat="44.00017" lon="3.51162">
        <ele>742.8</ele>
        <time>2026-05-28T14:57:45.000Z</time>
      </trkpt>
      <trkpt lat="44.00017" lon="3.51161">
        <ele>742.8</ele>
        <time>2026-05-28T14:57:46.000Z</time>
      </trkpt>
      <trkpt lat="44.00016" lon="3.5116">
        <ele>742.7</ele>
        <time>2026-05-28T14:57:47.000Z</time>
      </trkpt>
      <trkpt lat="44.00015" lon="3.51159">
        <ele>742.3</ele>
        <time>2026-05-28T14:57:48.000Z</time>
      </trkpt>
      <trkpt lat="44.00014" lon="3.51158">
        <ele>742.1</ele>
        <time>2026-05-28T14:57:49.000Z</time>
      </trkpt>
      <trkpt lat="44.00013" lon="3.51158">
        <ele>741.9</ele>
        <time>2026-05-28T14:57:50.000Z</time>
      </trkpt>
      <trkpt lat="44.00012" lon="3.51157">
        <ele>741.9</ele>
        <time>2026-05-28T14:57:51.000Z</time>
      </trkpt>
      <trkpt lat="44.00011" lon="3.51157">
        <ele>741.9</ele>
        <time>2026-05-28T14:57:52.000Z</time>
      </trkpt>
      <trkpt lat="44.0001" lon="3.51156">
        <ele>742</ele>
        <time>2026-05-28T14:57:53.000Z</time>
      </trkpt>
      <trkpt lat="44.00009" lon="3.51156">
        <ele>742</ele>
        <time>2026-05-28T14:57:54.000Z</time>
      </trkpt>
      <trkpt lat="44.00009" lon="3.51156">
        <ele>741.7</ele>
        <time>2026-05-28T14:57:55.000Z</time>
      </trkpt>
      <trkpt lat="44.00008" lon="3.51156">
        <ele>741.2</ele>
        <time>2026-05-28T14:57:56.000Z</time>
      </trkpt>
      <trkpt lat="44.00006" lon="3.51154">
        <ele>740.4</ele>
        <time>2026-05-28T14:57:57.999Z</time>
      </trkpt>
      <trkpt lat="44.00005" lon="3.51153">
        <ele>740.2</ele>
        <time>2026-05-28T14:57:58.999Z</time>
      </trkpt>
      <trkpt lat="44.00004" lon="3.51152">
        <ele>739.8</ele>
        <time>2026-05-28T14:57:59.999Z</time>
      </trkpt>
      <trkpt lat="44.00003" lon="3.51151">
        <ele>739.5</ele>
        <time>2026-05-28T14:58:00.999Z</time>
      </trkpt>
      <trkpt lat="44.00001" lon="3.51151">
        <ele>739.7</ele>
        <time>2026-05-28T14:58:01.999Z</time>
      </trkpt>
      <trkpt lat="44" lon="3.51151">
        <ele>740</ele>
        <time>2026-05-28T14:58:02.999Z</time>
      </trkpt>
      <trkpt lat="43.99999" lon="3.5115">
        <ele>740.2</ele>
        <time>2026-05-28T14:58:03.999Z</time>
      </trkpt>
      <trkpt lat="43.99997" lon="3.5115">
        <ele>740.3</ele>
        <time>2026-05-28T14:58:04.999Z</time>
      </trkpt>
      <trkpt lat="43.99996" lon="3.51149">
        <ele>740.4</ele>
        <time>2026-05-28T14:58:05.999Z</time>
      </trkpt>
      <trkpt lat="43.99994" lon="3.51149">
        <ele>740.5</ele>
        <time>2026-05-28T14:58:06.999Z</time>
      </trkpt>
      <trkpt lat="43.99993" lon="3.51149">
        <ele>740.4</ele>
        <time>2026-05-28T14:58:07.999Z</time>
      </trkpt>
      <trkpt lat="43.99992" lon="3.51148">
        <ele>740.7</ele>
        <time>2026-05-28T14:58:08.999Z</time>
      </trkpt>
      <trkpt lat="43.99991" lon="3.51148">
        <ele>740.8</ele>
        <time>2026-05-28T14:58:09.999Z</time>
      </trkpt>
      <trkpt lat="43.9999" lon="3.51148">
        <ele>740.8</ele>
        <time>2026-05-28T14:58:10.999Z</time>
      </trkpt>
      <trkpt lat="43.99989" lon="3.51147">
        <ele>740.8</ele>
        <time>2026-05-28T14:58:11.999Z</time>
      </trkpt>
      <trkpt lat="43.99988" lon="3.51145">
        <ele>741.1</ele>
        <time>2026-05-28T14:58:12.999Z</time>
      </trkpt>
      <trkpt lat="43.99987" lon="3.51144">
        <ele>741.2</ele>
        <time>2026-05-28T14:58:13.999Z</time>
      </trkpt>
      <trkpt lat="43.99985" lon="3.51144">
        <ele>741</ele>
        <time>2026-05-28T14:58:14.999Z</time>
      </trkpt>
      <trkpt lat="43.99984" lon="3.51143">
        <ele>741</ele>
        <time>2026-05-28T14:58:15.999Z</time>
      </trkpt>
      <trkpt lat="43.99983" lon="3.51142">
        <ele>740.9</ele>
        <time>2026-05-28T14:58:16.999Z</time>
      </trkpt>
      <trkpt lat="43.99982" lon="3.51141">
        <ele>740.9</ele>
        <time>2026-05-28T14:58:17.999Z</time>
      </trkpt>
      <trkpt lat="43.99981" lon="3.51139">
        <ele>740.9</ele>
        <time>2026-05-28T14:58:18.999Z</time>
      </trkpt>
      <trkpt lat="43.99979" lon="3.51139">
        <ele>741.1</ele>
        <time>2026-05-28T14:58:19.999Z</time>
      </trkpt>
      <trkpt lat="43.99978" lon="3.51138">
        <ele>741.1</ele>
        <time>2026-05-28T14:58:20.999Z</time>
      </trkpt>
      <trkpt lat="43.99977" lon="3.51137">
        <ele>740.8</ele>
        <time>2026-05-28T14:58:21.999Z</time>
      </trkpt>
      <trkpt lat="43.99976" lon="3.51137">
        <ele>741</ele>
        <time>2026-05-28T14:58:22.999Z</time>
      </trkpt>
      <trkpt lat="43.99975" lon="3.51136">
        <ele>740.9</ele>
        <time>2026-05-28T14:58:23.999Z</time>
      </trkpt>
      <trkpt lat="43.99974" lon="3.51135">
        <ele>740.8</ele>
        <time>2026-05-28T14:58:24.999Z</time>
      </trkpt>
      <trkpt lat="43.99973" lon="3.51134">
        <ele>741.5</ele>
        <time>2026-05-28T14:58:25.999Z</time>
      </trkpt>
      <trkpt lat="43.99972" lon="3.51133">
        <ele>742</ele>
        <time>2026-05-28T14:58:26.999Z</time>
      </trkpt>
      <trkpt lat="43.99971" lon="3.51133">
        <ele>742.2</ele>
        <time>2026-05-28T14:58:27.999Z</time>
      </trkpt>
      <trkpt lat="43.99969" lon="3.51133">
        <ele>742.4</ele>
        <time>2026-05-28T14:58:28.999Z</time>
      </trkpt>
      <trkpt lat="43.99968" lon="3.51132">
        <ele>742.3</ele>
        <time>2026-05-28T14:58:29.999Z</time>
      </trkpt>
      <trkpt lat="43.99967" lon="3.51132">
        <ele>742.2</ele>
        <time>2026-05-28T14:58:30.999Z</time>
      </trkpt>
      <trkpt lat="43.99967" lon="3.51131">
        <ele>741.5</ele>
        <time>2026-05-28T14:58:31.999Z</time>
      </trkpt>
      <trkpt lat="43.99966" lon="3.51132">
        <ele>741.4</ele>
        <time>2026-05-28T14:58:32.999Z</time>
      </trkpt>
      <trkpt lat="43.99966" lon="3.51132">
        <ele>741.2</ele>
        <time>2026-05-28T14:58:33.999Z</time>
      </trkpt>
      <trkpt lat="43.99965" lon="3.51131">
        <ele>741</ele>
        <time>2026-05-28T14:58:34.999Z</time>
      </trkpt>
      <trkpt lat="43.99964" lon="3.51131">
        <ele>740.7</ele>
        <time>2026-05-28T14:58:35.999Z</time>
      </trkpt>
      <trkpt lat="43.99962" lon="3.5113">
        <ele>740.5</ele>
        <time>2026-05-28T14:58:36.999Z</time>
      </trkpt>
      <trkpt lat="43.99961" lon="3.5113">
        <ele>740.3</ele>
        <time>2026-05-28T14:58:37.999Z</time>
      </trkpt>
      <trkpt lat="43.99961" lon="3.5113">
        <ele>740.3</ele>
        <time>2026-05-28T14:58:38.999Z</time>
      </trkpt>
      <trkpt lat="43.9996" lon="3.51129">
        <ele>740.1</ele>
        <time>2026-05-28T14:58:39.999Z</time>
      </trkpt>
      <trkpt lat="43.99959" lon="3.51129">
        <ele>739.7</ele>
        <time>2026-05-28T14:58:40.999Z</time>
      </trkpt>
      <trkpt lat="43.99958" lon="3.51128">
        <ele>739.6</ele>
        <time>2026-05-28T14:58:41.999Z</time>
      </trkpt>
      <trkpt lat="43.99958" lon="3.51126">
        <ele>739.3</ele>
        <time>2026-05-28T14:58:42.999Z</time>
      </trkpt>
      <trkpt lat="43.99957" lon="3.51125">
        <ele>739.1</ele>
        <time>2026-05-28T14:58:43.999Z</time>
      </trkpt>
      <trkpt lat="43.99956" lon="3.51125">
        <ele>739</ele>
        <time>2026-05-28T14:58:44.999Z</time>
      </trkpt>
      <trkpt lat="43.99954" lon="3.51124">
        <ele>739.4</ele>
        <time>2026-05-28T14:58:45.999Z</time>
      </trkpt>
      <trkpt lat="43.99953" lon="3.51124">
        <ele>739.4</ele>
        <time>2026-05-28T14:58:46.999Z</time>
      </trkpt>
      <trkpt lat="43.99952" lon="3.51124">
        <ele>739.4</ele>
        <time>2026-05-28T14:58:47.999Z</time>
      </trkpt>
      <trkpt lat="43.99951" lon="3.51124">
        <ele>739.4</ele>
        <time>2026-05-28T14:58:48.999Z</time>
      </trkpt>
      <trkpt lat="43.9995" lon="3.51123">
        <ele>739.5</ele>
        <time>2026-05-28T14:58:49.999Z</time>
      </trkpt>
      <trkpt lat="43.99949" lon="3.51122">
        <ele>739.3</ele>
        <time>2026-05-28T14:58:50.999Z</time>
      </trkpt>
      <trkpt lat="43.99947" lon="3.51121">
        <ele>739.1</ele>
        <time>2026-05-28T14:58:51.999Z</time>
      </trkpt>
      <trkpt lat="43.99946" lon="3.51121">
        <ele>739.3</ele>
        <time>2026-05-28T14:58:52.999Z</time>
      </trkpt>
      <trkpt lat="43.99946" lon="3.5112">
        <ele>739.2</ele>
        <time>2026-05-28T14:58:53.999Z</time>
      </trkpt>
      <trkpt lat="43.99945" lon="3.51119">
        <ele>739.2</ele>
        <time>2026-05-28T14:58:54.999Z</time>
      </trkpt>
      <trkpt lat="43.99944" lon="3.51119">
        <ele>739.3</ele>
        <time>2026-05-28T14:58:55.999Z</time>
      </trkpt>
      <trkpt lat="43.99943" lon="3.51117">
        <ele>739.3</ele>
        <time>2026-05-28T14:58:56.999Z</time>
      </trkpt>
      <trkpt lat="43.99941" lon="3.51116">
        <ele>739.4</ele>
        <time>2026-05-28T14:58:57.999Z</time>
      </trkpt>
      <trkpt lat="43.9994" lon="3.51115">
        <ele>739.3</ele>
        <time>2026-05-28T14:58:58.999Z</time>
      </trkpt>
      <trkpt lat="43.99939" lon="3.51115">
        <ele>739.4</ele>
        <time>2026-05-28T14:58:59.999Z</time>
      </trkpt>
      <trkpt lat="43.99938" lon="3.51114">
        <ele>739.6</ele>
        <time>2026-05-28T14:59:00.999Z</time>
      </trkpt>
      <trkpt lat="43.99937" lon="3.51114">
        <ele>739.4</ele>
        <time>2026-05-28T14:59:01.999Z</time>
      </trkpt>
      <trkpt lat="43.99936" lon="3.51113">
        <ele>739.7</ele>
        <time>2026-05-28T14:59:02.999Z</time>
      </trkpt>
      <trkpt lat="43.99935" lon="3.51113">
        <ele>739.6</ele>
        <time>2026-05-28T14:59:03.999Z</time>
      </trkpt>
      <trkpt lat="43.99934" lon="3.51113">
        <ele>739.7</ele>
        <time>2026-05-28T14:59:04.999Z</time>
      </trkpt>
      <trkpt lat="43.99933" lon="3.51112">
        <ele>739.7</ele>
        <time>2026-05-28T14:59:05.999Z</time>
      </trkpt>
      <trkpt lat="43.99931" lon="3.51111">
        <ele>739.4</ele>
        <time>2026-05-28T14:59:06.999Z</time>
      </trkpt>
      <trkpt lat="43.9993" lon="3.5111">
        <ele>739.3</ele>
        <time>2026-05-28T14:59:07.999Z</time>
      </trkpt>
      <trkpt lat="43.99929" lon="3.51109">
        <ele>739.4</ele>
        <time>2026-05-28T14:59:08.999Z</time>
      </trkpt>
      <trkpt lat="43.99928" lon="3.51108">
        <ele>739.5</ele>
        <time>2026-05-28T14:59:09.999Z</time>
      </trkpt>
      <trkpt lat="43.99927" lon="3.51107">
        <ele>739.4</ele>
        <time>2026-05-28T14:59:10.999Z</time>
      </trkpt>
      <trkpt lat="43.99927" lon="3.51106">
        <ele>739.3</ele>
        <time>2026-05-28T14:59:11.999Z</time>
      </trkpt>
      <trkpt lat="43.99925" lon="3.51106">
        <ele>739.5</ele>
        <time>2026-05-28T14:59:12.999Z</time>
      </trkpt>
      <trkpt lat="43.99924" lon="3.51106">
        <ele>739.4</ele>
        <time>2026-05-28T14:59:13.999Z</time>
      </trkpt>
      <trkpt lat="43.99924" lon="3.51106">
        <ele>739</ele>
        <time>2026-05-28T14:59:14.999Z</time>
      </trkpt>
      <trkpt lat="43.99922" lon="3.51105">
        <ele>739.4</ele>
        <time>2026-05-28T14:59:15.999Z</time>
      </trkpt>
      <trkpt lat="43.99921" lon="3.51105">
        <ele>739.5</ele>
        <time>2026-05-28T14:59:16.999Z</time>
      </trkpt>
      <trkpt lat="43.99919" lon="3.51105">
        <ele>739.3</ele>
        <time>2026-05-28T14:59:17.999Z</time>
      </trkpt>
      <trkpt lat="43.99917" lon="3.51105">
        <ele>739.3</ele>
        <time>2026-05-28T14:59:18.999Z</time>
      </trkpt>
      <trkpt lat="43.99916" lon="3.51105">
        <ele>739.5</ele>
        <time>2026-05-28T14:59:19.999Z</time>
      </trkpt>
      <trkpt lat="43.99915" lon="3.51105">
        <ele>739.7</ele>
        <time>2026-05-28T14:59:20.999Z</time>
      </trkpt>
      <trkpt lat="43.99914" lon="3.51105">
        <ele>739.7</ele>
        <time>2026-05-28T14:59:21.999Z</time>
      </trkpt>
      <trkpt lat="43.99913" lon="3.51105">
        <ele>739.7</ele>
        <time>2026-05-28T14:59:22.999Z</time>
      </trkpt>
      <trkpt lat="43.99912" lon="3.51106">
        <ele>739.9</ele>
        <time>2026-05-28T14:59:23.999Z</time>
      </trkpt>
      <trkpt lat="43.99912" lon="3.51106">
        <ele>739.7</ele>
        <time>2026-05-28T14:59:24.999Z</time>
      </trkpt>
      <trkpt lat="43.99912" lon="3.51106">
        <ele>739.6</ele>
        <time>2026-05-28T14:59:25.999Z</time>
      </trkpt>
      <trkpt lat="43.99912" lon="3.51106">
        <ele>739.5</ele>
        <time>2026-05-28T14:59:26.999Z</time>
      </trkpt>
      <trkpt lat="43.99912" lon="3.51106">
        <ele>738.6</ele>
        <time>2026-05-28T14:59:27.999Z</time>
      </trkpt>
      <trkpt lat="43.99912" lon="3.51106">
        <ele>739.1</ele>
        <time>2026-05-28T14:59:28.999Z</time>
      </trkpt>
      <trkpt lat="43.99913" lon="3.51105">
        <ele>739.2</ele>
        <time>2026-05-28T14:59:29.999Z</time>
      </trkpt>
      <trkpt lat="43.99914" lon="3.51104">
        <ele>739.7</ele>
        <time>2026-05-28T14:59:30.999Z</time>
      </trkpt>
      <trkpt lat="43.99915" lon="3.51104">
        <ele>740.2</ele>
        <time>2026-05-28T14:59:31.999Z</time>
      </trkpt>
      <trkpt lat="43.99916" lon="3.51103">
        <ele>740.5</ele>
        <time>2026-05-28T14:59:32.999Z</time>
      </trkpt>
      <trkpt lat="43.99918" lon="3.51103">
        <ele>740.8</ele>
        <time>2026-05-28T14:59:33.999Z</time>
      </trkpt>
      <trkpt lat="43.99919" lon="3.51103">
        <ele>741.2</ele>
        <time>2026-05-28T14:59:34.999Z</time>
      </trkpt>
      <trkpt lat="43.99921" lon="3.51103">
        <ele>741.4</ele>
        <time>2026-05-28T14:59:35.999Z</time>
      </trkpt>
      <trkpt lat="43.99922" lon="3.51103">
        <ele>741.3</ele>
        <time>2026-05-28T14:59:36.999Z</time>
      </trkpt>
      <trkpt lat="43.99924" lon="3.51102">
        <ele>741.2</ele>
        <time>2026-05-28T14:59:37.999Z</time>
      </trkpt>
      <trkpt lat="43.99925" lon="3.51103">
        <ele>740.8</ele>
        <time>2026-05-28T14:59:38.999Z</time>
      </trkpt>
      <trkpt lat="43.99926" lon="3.51104">
        <ele>740.6</ele>
        <time>2026-05-28T14:59:39.999Z</time>
      </trkpt>
      <trkpt lat="43.99927" lon="3.51104">
        <ele>740.5</ele>
        <time>2026-05-28T14:59:40.999Z</time>
      </trkpt>
      <trkpt lat="43.99928" lon="3.51105">
        <ele>740.6</ele>
        <time>2026-05-28T14:59:41.999Z</time>
      </trkpt>
      <trkpt lat="43.99929" lon="3.51105">
        <ele>740.6</ele>
        <time>2026-05-28T14:59:42.999Z</time>
      </trkpt>
      <trkpt lat="43.9993" lon="3.51106">
        <ele>740.5</ele>
        <time>2026-05-28T14:59:43.999Z</time>
      </trkpt>
      <trkpt lat="43.99931" lon="3.51106">
        <ele>740.2</ele>
        <time>2026-05-28T14:59:44.999Z</time>
      </trkpt>
      <trkpt lat="43.99933" lon="3.51105">
        <ele>740.8</ele>
        <time>2026-05-28T14:59:45.999Z</time>
      </trkpt>
      <trkpt lat="43.99935" lon="3.51106">
        <ele>741.4</ele>
        <time>2026-05-28T14:59:46.999Z</time>
      </trkpt>
      <trkpt lat="43.99936" lon="3.51106">
        <ele>742</ele>
        <time>2026-05-28T14:59:47.999Z</time>
      </trkpt>
      <trkpt lat="43.99937" lon="3.51107">
        <ele>742.8</ele>
        <time>2026-05-28T14:59:48.999Z</time>
      </trkpt>
      <trkpt lat="43.99939" lon="3.51107">
        <ele>742.8</ele>
        <time>2026-05-28T14:59:49.999Z</time>
      </trkpt>
      <trkpt lat="43.9994" lon="3.51108">
        <ele>742.9</ele>
        <time>2026-05-28T14:59:50.999Z</time>
      </trkpt>
      <trkpt lat="43.99942" lon="3.51109">
        <ele>743.2</ele>
        <time>2026-05-28T14:59:51.999Z</time>
      </trkpt>
      <trkpt lat="43.99943" lon="3.5111">
        <ele>742.9</ele>
        <time>2026-05-28T14:59:52.999Z</time>
      </trkpt>
      <trkpt lat="43.99944" lon="3.51111">
        <ele>742.6</ele>
        <time>2026-05-28T14:59:53.999Z</time>
      </trkpt>
      <trkpt lat="43.99945" lon="3.51111">
        <ele>742.4</ele>
        <time>2026-05-28T14:59:54.999Z</time>
      </trkpt>
      <trkpt lat="43.99946" lon="3.51112">
        <ele>742.5</ele>
        <time>2026-05-28T14:59:55.999Z</time>
      </trkpt>
      <trkpt lat="43.99947" lon="3.51113">
        <ele>743.1</ele>
        <time>2026-05-28T14:59:56.999Z</time>
      </trkpt>
      <trkpt lat="43.99949" lon="3.51114">
        <ele>743.4</ele>
        <time>2026-05-28T14:59:57.999Z</time>
      </trkpt>
      <trkpt lat="43.9995" lon="3.51114">
        <ele>743.5</ele>
        <time>2026-05-28T14:59:58.999Z</time>
      </trkpt>
      <trkpt lat="43.9995" lon="3.51115">
        <ele>743.9</ele>
        <time>2026-05-28T14:59:59.999Z</time>
      </trkpt>
      <trkpt lat="43.99951" lon="3.51115">
        <ele>743.9</ele>
        <time>2026-05-28T15:00:00.999Z</time>
      </trkpt>
      <trkpt lat="43.99951" lon="3.51115">
        <ele>743.7</ele>
        <time>2026-05-28T15:00:01.999Z</time>
      </trkpt>
      <trkpt lat="43.99953" lon="3.51116">
        <ele>743.3</ele>
        <time>2026-05-28T15:00:03.999Z</time>
      </trkpt>
      <trkpt lat="43.99954" lon="3.51117">
        <ele>743.6</ele>
        <time>2026-05-28T15:00:04.999Z</time>
      </trkpt>
      <trkpt lat="43.99955" lon="3.51118">
        <ele>743.4</ele>
        <time>2026-05-28T15:00:05.999Z</time>
      </trkpt>
      <trkpt lat="43.99956" lon="3.51119">
        <ele>743.2</ele>
        <time>2026-05-28T15:00:06.999Z</time>
      </trkpt>
      <trkpt lat="43.99957" lon="3.51119">
        <ele>743.4</ele>
        <time>2026-05-28T15:00:07.999Z</time>
      </trkpt>
      <trkpt lat="43.99958" lon="3.51121">
        <ele>743.8</ele>
        <time>2026-05-28T15:00:08.999Z</time>
      </trkpt>
      <trkpt lat="43.99959" lon="3.51123">
        <ele>743.1</ele>
        <time>2026-05-28T15:00:09.999Z</time>
      </trkpt>
      <trkpt lat="43.99961" lon="3.51124">
        <ele>743.2</ele>
        <time>2026-05-28T15:00:10.999Z</time>
      </trkpt>
      <trkpt lat="43.99962" lon="3.51126">
        <ele>743.1</ele>
        <time>2026-05-28T15:00:11.999Z</time>
      </trkpt>
      <trkpt lat="43.99963" lon="3.51128">
        <ele>743.1</ele>
        <time>2026-05-28T15:00:12.999Z</time>
      </trkpt>
      <trkpt lat="43.99964" lon="3.5113">
        <ele>743.3</ele>
        <time>2026-05-28T15:00:13.999Z</time>
      </trkpt>
      <trkpt lat="43.99965" lon="3.51131">
        <ele>743.5</ele>
        <time>2026-05-28T15:00:14.999Z</time>
      </trkpt>
      <trkpt lat="43.99966" lon="3.51131">
        <ele>743.6</ele>
        <time>2026-05-28T15:00:15.999Z</time>
      </trkpt>
      <trkpt lat="43.99967" lon="3.51131">
        <ele>743.5</ele>
        <time>2026-05-28T15:00:16.999Z</time>
      </trkpt>
      <trkpt lat="43.99969" lon="3.5113">
        <ele>743.3</ele>
        <time>2026-05-28T15:00:17.999Z</time>
      </trkpt>
      <trkpt lat="43.9997" lon="3.5113">
        <ele>743.1</ele>
        <time>2026-05-28T15:00:18.999Z</time>
      </trkpt>
      <trkpt lat="43.9997" lon="3.5113">
        <ele>743</ele>
        <time>2026-05-28T15:00:19.999Z</time>
      </trkpt>
      <trkpt lat="43.99971" lon="3.51129">
        <ele>742.8</ele>
        <time>2026-05-28T15:00:20.999Z</time>
      </trkpt>
      <trkpt lat="43.99971" lon="3.51127">
        <ele>742.2</ele>
        <time>2026-05-28T15:00:21.999Z</time>
      </trkpt>
      <trkpt lat="43.99972" lon="3.51128">
        <ele>742</ele>
        <time>2026-05-28T15:00:22.999Z</time>
      </trkpt>
      <trkpt lat="43.99971" lon="3.51128">
        <ele>741.8</ele>
        <time>2026-05-28T15:00:23.999Z</time>
      </trkpt>
      <trkpt lat="43.99971" lon="3.51128">
        <ele>741.7</ele>
        <time>2026-05-28T15:00:24.999Z</time>
      </trkpt>
      <trkpt lat="43.99971" lon="3.51128">
        <ele>741.7</ele>
        <time>2026-05-28T15:00:25.999Z</time>
      </trkpt>
      <trkpt lat="43.99971" lon="3.51128">
        <ele>741.6</ele>
        <time>2026-05-28T15:00:26.999Z</time>
      </trkpt>
      <trkpt lat="43.9997" lon="3.51128">
        <ele>741.1</ele>
        <time>2026-05-28T15:00:27.999Z</time>
      </trkpt>
      <trkpt lat="43.99969" lon="3.51127">
        <ele>740.2</ele>
        <time>2026-05-28T15:00:28.999Z</time>
      </trkpt>
      <trkpt lat="43.99968" lon="3.51126">
        <ele>739.7</ele>
        <time>2026-05-28T15:00:29.999Z</time>
      </trkpt>
      <trkpt lat="43.99968" lon="3.51126">
        <ele>739.6</ele>
        <time>2026-05-28T15:00:30.999Z</time>
      </trkpt>
      <trkpt lat="43.99967" lon="3.51126">
        <ele>739.4</ele>
        <time>2026-05-28T15:00:31.999Z</time>
      </trkpt>
      <trkpt lat="43.99967" lon="3.51126">
        <ele>739.2</ele>
        <time>2026-05-28T15:00:32.999Z</time>
      </trkpt>
      <trkpt lat="43.99967" lon="3.51125">
        <ele>739.2</ele>
        <time>2026-05-28T15:00:33.999Z</time>
      </trkpt>
      <trkpt lat="43.99966" lon="3.51124">
        <ele>739</ele>
        <time>2026-05-28T15:00:34.999Z</time>
      </trkpt>
      <trkpt lat="43.99966" lon="3.51124">
        <ele>739.1</ele>
        <time>2026-05-28T15:00:35.999Z</time>
      </trkpt>
      <trkpt lat="43.99964" lon="3.51123">
        <ele>739</ele>
        <time>2026-05-28T15:00:36.999Z</time>
      </trkpt>
      <trkpt lat="43.99964" lon="3.51122">
        <ele>739.1</ele>
        <time>2026-05-28T15:00:37.999Z</time>
      </trkpt>
      <trkpt lat="43.99963" lon="3.5112">
        <ele>739.2</ele>
        <time>2026-05-28T15:00:38.999Z</time>
      </trkpt>
      <trkpt lat="43.99962" lon="3.5112">
        <ele>739</ele>
        <time>2026-05-28T15:00:39.999Z</time>
      </trkpt>
      <trkpt lat="43.99961" lon="3.51119">
        <ele>738.6</ele>
        <time>2026-05-28T15:00:40.999Z</time>
      </trkpt>
      <trkpt lat="43.9996" lon="3.51118">
        <ele>738.8</ele>
        <time>2026-05-28T15:00:41.999Z</time>
      </trkpt>
      <trkpt lat="43.99958" lon="3.51116">
        <ele>738.9</ele>
        <time>2026-05-28T15:00:42.999Z</time>
      </trkpt>
      <trkpt lat="43.99958" lon="3.51114">
        <ele>738.4</ele>
        <time>2026-05-28T15:00:43.999Z</time>
      </trkpt>
      <trkpt lat="43.99958" lon="3.51114">
        <ele>738.1</ele>
        <time>2026-05-28T15:00:44.999Z</time>
      </trkpt>
      <trkpt lat="43.99958" lon="3.51114">
        <ele>738</ele>
        <time>2026-05-28T15:00:45.999Z</time>
      </trkpt>
      <trkpt lat="43.99957" lon="3.51113">
        <ele>738</ele>
        <time>2026-05-28T15:00:46.999Z</time>
      </trkpt>
      <trkpt lat="43.99956" lon="3.51112">
        <ele>737.8</ele>
        <time>2026-05-28T15:00:47.999Z</time>
      </trkpt>
      <trkpt lat="43.99956" lon="3.51112">
        <ele>737.9</ele>
        <time>2026-05-28T15:00:48.999Z</time>
      </trkpt>
      <trkpt lat="43.99955" lon="3.51111">
        <ele>738.2</ele>
        <time>2026-05-28T15:00:49.999Z</time>
      </trkpt>
      <trkpt lat="43.99954" lon="3.51111">
        <ele>738.3</ele>
        <time>2026-05-28T15:00:50.999Z</time>
      </trkpt>
      <trkpt lat="43.99953" lon="3.51111">
        <ele>738</ele>
        <time>2026-05-28T15:00:51.999Z</time>
      </trkpt>
      <trkpt lat="43.99953" lon="3.51111">
        <ele>737.7</ele>
        <time>2026-05-28T15:00:52.999Z</time>
      </trkpt>
      <trkpt lat="43.99953" lon="3.51111">
        <ele>737.6</ele>
        <time>2026-05-28T15:00:53.999Z</time>
      </trkpt>
      <trkpt lat="43.99952" lon="3.51111">
        <ele>737.8</ele>
        <time>2026-05-28T15:00:54.999Z</time>
      </trkpt>
      <trkpt lat="43.99951" lon="3.51109">
        <ele>737.8</ele>
        <time>2026-05-28T15:00:55.999Z</time>
      </trkpt>
      <trkpt lat="43.99951" lon="3.51108">
        <ele>737.9</ele>
        <time>2026-05-28T15:00:56.999Z</time>
      </trkpt>
      <trkpt lat="43.9995" lon="3.51107">
        <ele>738.2</ele>
        <time>2026-05-28T15:00:57.999Z</time>
      </trkpt>
      <trkpt lat="43.99949" lon="3.51106">
        <ele>738</ele>
        <time>2026-05-28T15:00:58.999Z</time>
      </trkpt>
      <trkpt lat="43.99949" lon="3.51106">
        <ele>737.6</ele>
        <time>2026-05-28T15:00:59.999Z</time>
      </trkpt>
      <trkpt lat="43.99948" lon="3.51105">
        <ele>737.4</ele>
        <time>2026-05-28T15:01:00.999Z</time>
      </trkpt>
      <trkpt lat="43.99947" lon="3.51104">
        <ele>737.4</ele>
        <time>2026-05-28T15:01:01.999Z</time>
      </trkpt>
      <trkpt lat="43.99946" lon="3.51103">
        <ele>737.2</ele>
        <time>2026-05-28T15:01:02.999Z</time>
      </trkpt>
      <trkpt lat="43.99946" lon="3.51102">
        <ele>737</ele>
        <time>2026-05-28T15:01:03.999Z</time>
      </trkpt>
      <trkpt lat="43.99945" lon="3.51102">
        <ele>736.8</ele>
        <time>2026-05-28T15:01:04.999Z</time>
      </trkpt>
      <trkpt lat="43.99944" lon="3.51102">
        <ele>736.9</ele>
        <time>2026-05-28T15:01:05.999Z</time>
      </trkpt>
      <trkpt lat="43.99943" lon="3.51101">
        <ele>736.8</ele>
        <time>2026-05-28T15:01:06.999Z</time>
      </trkpt>
      <trkpt lat="43.99942" lon="3.51101">
        <ele>736.8</ele>
        <time>2026-05-28T15:01:07.999Z</time>
      </trkpt>
      <trkpt lat="43.99941" lon="3.51099">
        <ele>736.7</ele>
        <time>2026-05-28T15:01:08.999Z</time>
      </trkpt>
      <trkpt lat="43.99941" lon="3.51098">
        <ele>736.6</ele>
        <time>2026-05-28T15:01:09.999Z</time>
      </trkpt>
      <trkpt lat="43.99941" lon="3.51097">
        <ele>736.5</ele>
        <time>2026-05-28T15:01:10.999Z</time>
      </trkpt>
      <trkpt lat="43.99941" lon="3.51097">
        <ele>736.4</ele>
        <time>2026-05-28T15:01:11.999Z</time>
      </trkpt>
      <trkpt lat="43.9994" lon="3.51096">
        <ele>736.3</ele>
        <time>2026-05-28T15:01:12.999Z</time>
      </trkpt>
      <trkpt lat="43.9994" lon="3.51096">
        <ele>736.7</ele>
        <time>2026-05-28T15:01:13.999Z</time>
      </trkpt>
      <trkpt lat="43.9994" lon="3.51096">
        <ele>736.6</ele>
        <time>2026-05-28T15:01:14.999Z</time>
      </trkpt>
      <trkpt lat="43.9994" lon="3.51096">
        <ele>736.4</ele>
        <time>2026-05-28T15:01:15.999Z</time>
      </trkpt>
      <trkpt lat="43.9994" lon="3.51096">
        <ele>736.3</ele>
        <time>2026-05-28T15:01:16.999Z</time>
      </trkpt>
      <trkpt lat="43.9994" lon="3.51096">
        <ele>736.4</ele>
        <time>2026-05-28T15:01:17.999Z</time>
      </trkpt>
      <trkpt lat="43.9994" lon="3.51096">
        <ele>736.3</ele>
        <time>2026-05-28T15:01:18.999Z</time>
      </trkpt>
      <trkpt lat="43.9994" lon="3.51095">
        <ele>736.2</ele>
        <time>2026-05-28T15:01:19.999Z</time>
      </trkpt>
      <trkpt lat="43.99939" lon="3.51095">
        <ele>736.1</ele>
        <time>2026-05-28T15:01:20.999Z</time>
      </trkpt>
      <trkpt lat="43.99938" lon="3.51094">
        <ele>735.9</ele>
        <time>2026-05-28T15:01:21.999Z</time>
      </trkpt>
      <trkpt lat="43.99937" lon="3.51094">
        <ele>735.5</ele>
        <time>2026-05-28T15:01:22.999Z</time>
      </trkpt>
      <trkpt lat="43.99936" lon="3.51093">
        <ele>735.2</ele>
        <time>2026-05-28T15:01:23.999Z</time>
      </trkpt>
      <trkpt lat="43.99936" lon="3.51092">
        <ele>735</ele>
        <time>2026-05-28T15:01:24.999Z</time>
      </trkpt>
      <trkpt lat="43.99935" lon="3.51092">
        <ele>734.9</ele>
        <time>2026-05-28T15:01:25.999Z</time>
      </trkpt>
      <trkpt lat="43.99935" lon="3.51092">
        <ele>734.7</ele>
        <time>2026-05-28T15:01:26.999Z</time>
      </trkpt>
      <trkpt lat="43.99935" lon="3.51092">
        <ele>734.4</ele>
        <time>2026-05-28T15:01:27.999Z</time>
      </trkpt>
      <trkpt lat="43.99934" lon="3.51091">
        <ele>734</ele>
        <time>2026-05-28T15:01:28.999Z</time>
      </trkpt>
      <trkpt lat="43.99932" lon="3.5109">
        <ele>733.6</ele>
        <time>2026-05-28T15:01:29.999Z</time>
      </trkpt>
      <trkpt lat="43.99931" lon="3.51089">
        <ele>733.4</ele>
        <time>2026-05-28T15:01:30.999Z</time>
      </trkpt>
      <trkpt lat="43.9993" lon="3.51088">
        <ele>733.1</ele>
        <time>2026-05-28T15:01:31.999Z</time>
      </trkpt>
      <trkpt lat="43.99929" lon="3.51086">
        <ele>732.6</ele>
        <time>2026-05-28T15:01:32.999Z</time>
      </trkpt>
      <trkpt lat="43.99928" lon="3.51085">
        <ele>732.1</ele>
        <time>2026-05-28T15:01:33.999Z</time>
      </trkpt>
      <trkpt lat="43.99928" lon="3.51085">
        <ele>731.9</ele>
        <time>2026-05-28T15:01:34.999Z</time>
      </trkpt>
      <trkpt lat="43.99927" lon="3.51084">
        <ele>731.5</ele>
        <time>2026-05-28T15:01:35.999Z</time>
      </trkpt>
      <trkpt lat="43.99927" lon="3.51083">
        <ele>731.3</ele>
        <time>2026-05-28T15:01:36.999Z</time>
      </trkpt>
      <trkpt lat="43.99927" lon="3.51083">
        <ele>731.3</ele>
        <time>2026-05-28T15:01:37.999Z</time>
      </trkpt>
      <trkpt lat="43.99927" lon="3.51083">
        <ele>731.3</ele>
        <time>2026-05-28T15:01:38.999Z</time>
      </trkpt>
      <trkpt lat="43.99926" lon="3.51083">
        <ele>730.9</ele>
        <time>2026-05-28T15:01:39.999Z</time>
      </trkpt>
      <trkpt lat="43.99926" lon="3.51082">
        <ele>730.4</ele>
        <time>2026-05-28T15:01:40.999Z</time>
      </trkpt>
      <trkpt lat="43.99925" lon="3.51082">
        <ele>730.1</ele>
        <time>2026-05-28T15:01:41.999Z</time>
      </trkpt>
      <trkpt lat="43.99925" lon="3.51081">
        <ele>729.9</ele>
        <time>2026-05-28T15:01:42.999Z</time>
      </trkpt>
      <trkpt lat="43.99924" lon="3.5108">
        <ele>729.8</ele>
        <time>2026-05-28T15:01:43.999Z</time>
      </trkpt>
      <trkpt lat="43.99923" lon="3.5108">
        <ele>729.5</ele>
        <time>2026-05-28T15:01:44.999Z</time>
      </trkpt>
      <trkpt lat="43.99923" lon="3.5108">
        <ele>729.2</ele>
        <time>2026-05-28T15:01:45.999Z</time>
      </trkpt>
      <trkpt lat="43.99922" lon="3.51079">
        <ele>729</ele>
        <time>2026-05-28T15:01:46.999Z</time>
      </trkpt>
      <trkpt lat="43.99922" lon="3.51078">
        <ele>728.7</ele>
        <time>2026-05-28T15:01:47.999Z</time>
      </trkpt>
      <trkpt lat="43.99921" lon="3.51076">
        <ele>728.6</ele>
        <time>2026-05-28T15:01:48.999Z</time>
      </trkpt>
      <trkpt lat="43.9992" lon="3.51075">
        <ele>728.6</ele>
        <time>2026-05-28T15:01:49.999Z</time>
      </trkpt>
      <trkpt lat="43.9992" lon="3.51074">
        <ele>728.4</ele>
        <time>2026-05-28T15:01:50.999Z</time>
      </trkpt>
      <trkpt lat="43.99919" lon="3.51072">
        <ele>728.3</ele>
        <time>2026-05-28T15:01:51.999Z</time>
      </trkpt>
      <trkpt lat="43.99918" lon="3.51071">
        <ele>728.2</ele>
        <time>2026-05-28T15:01:52.999Z</time>
      </trkpt>
      <trkpt lat="43.99917" lon="3.51071">
        <ele>728.1</ele>
        <time>2026-05-28T15:01:53.999Z</time>
      </trkpt>
      <trkpt lat="43.99916" lon="3.5107">
        <ele>727.9</ele>
        <time>2026-05-28T15:01:54.999Z</time>
      </trkpt>
      <trkpt lat="43.99916" lon="3.51069">
        <ele>727.6</ele>
        <time>2026-05-28T15:01:55.999Z</time>
      </trkpt>
      <trkpt lat="43.99915" lon="3.51069">
        <ele>727.7</ele>
        <time>2026-05-28T15:01:56.999Z</time>
      </trkpt>
      <trkpt lat="43.99915" lon="3.51069">
        <ele>727.7</ele>
        <time>2026-05-28T15:01:57.999Z</time>
      </trkpt>
      <trkpt lat="43.99914" lon="3.51068">
        <ele>727.6</ele>
        <time>2026-05-28T15:01:58.999Z</time>
      </trkpt>
      <trkpt lat="43.99914" lon="3.51068">
        <ele>727.5</ele>
        <time>2026-05-28T15:01:59.999Z</time>
      </trkpt>
      <trkpt lat="43.99913" lon="3.51067">
        <ele>727.7</ele>
        <time>2026-05-28T15:02:00.999Z</time>
      </trkpt>
      <trkpt lat="43.99912" lon="3.51067">
        <ele>727.5</ele>
        <time>2026-05-28T15:02:01.999Z</time>
      </trkpt>
      <trkpt lat="43.99911" lon="3.51066">
        <ele>727.2</ele>
        <time>2026-05-28T15:02:02.999Z</time>
      </trkpt>
      <trkpt lat="43.9991" lon="3.51066">
        <ele>727.1</ele>
        <time>2026-05-28T15:02:03.999Z</time>
      </trkpt>
      <trkpt lat="43.9991" lon="3.51065">
        <ele>727</ele>
        <time>2026-05-28T15:02:04.999Z</time>
      </trkpt>
      <trkpt lat="43.99909" lon="3.51065">
        <ele>726.9</ele>
        <time>2026-05-28T15:02:05.999Z</time>
      </trkpt>
      <trkpt lat="43.99909" lon="3.51065">
        <ele>726.6</ele>
        <time>2026-05-28T15:02:06.999Z</time>
      </trkpt>
      <trkpt lat="43.99909" lon="3.51066">
        <ele>726.7</ele>
        <time>2026-05-28T15:02:07.999Z</time>
      </trkpt>
      <trkpt lat="43.99908" lon="3.51066">
        <ele>726.7</ele>
        <time>2026-05-28T15:02:08.999Z</time>
      </trkpt>
      <trkpt lat="43.99908" lon="3.51066">
        <ele>726.6</ele>
        <time>2026-05-28T15:02:09.999Z</time>
      </trkpt>
      <trkpt lat="43.99909" lon="3.51066">
        <ele>726.4</ele>
        <time>2026-05-28T15:02:10.999Z</time>
      </trkpt>
      <trkpt lat="43.99909" lon="3.51066">
        <ele>726.4</ele>
        <time>2026-05-28T15:02:11.999Z</time>
      </trkpt>
      <trkpt lat="43.99909" lon="3.51066">
        <ele>726.4</ele>
        <time>2026-05-28T15:02:12.999Z</time>
      </trkpt>
      <trkpt lat="43.99908" lon="3.51066">
        <ele>726.6</ele>
        <time>2026-05-28T15:02:13.999Z</time>
      </trkpt>
      <trkpt lat="43.99908" lon="3.51065">
        <ele>726.5</ele>
        <time>2026-05-28T15:02:14.999Z</time>
      </trkpt>
      <trkpt lat="43.99907" lon="3.51064">
        <ele>726.4</ele>
        <time>2026-05-28T15:02:15.999Z</time>
      </trkpt>
      <trkpt lat="43.99906" lon="3.51064">
        <ele>726.2</ele>
        <time>2026-05-28T15:02:16.999Z</time>
      </trkpt>
      <trkpt lat="43.99905" lon="3.51063">
        <ele>726.2</ele>
        <time>2026-05-28T15:02:17.999Z</time>
      </trkpt>
      <trkpt lat="43.99905" lon="3.51062">
        <ele>726</ele>
        <time>2026-05-28T15:02:18.999Z</time>
      </trkpt>
      <trkpt lat="43.99904" lon="3.51061">
        <ele>725.8</ele>
        <time>2026-05-28T15:02:19.999Z</time>
      </trkpt>
      <trkpt lat="43.99903" lon="3.5106">
        <ele>725.5</ele>
        <time>2026-05-28T15:02:20.999Z</time>
      </trkpt>
      <trkpt lat="43.99902" lon="3.51059">
        <ele>725.3</ele>
        <time>2026-05-28T15:02:21.999Z</time>
      </trkpt>
      <trkpt lat="43.99901" lon="3.51058">
        <ele>725.2</ele>
        <time>2026-05-28T15:02:22.999Z</time>
      </trkpt>
      <trkpt lat="43.99901" lon="3.51058">
        <ele>725.2</ele>
        <time>2026-05-28T15:02:23.999Z</time>
      </trkpt>
      <trkpt lat="43.999" lon="3.51059">
        <ele>725</ele>
        <time>2026-05-28T15:02:24.999Z</time>
      </trkpt>
      <trkpt lat="43.99899" lon="3.51058">
        <ele>725</ele>
        <time>2026-05-28T15:02:25.999Z</time>
      </trkpt>
      <trkpt lat="43.99899" lon="3.51058">
        <ele>725.1</ele>
        <time>2026-05-28T15:02:26.999Z</time>
      </trkpt>
      <trkpt lat="43.99899" lon="3.51058">
        <ele>725.4</ele>
        <time>2026-05-28T15:02:27.999Z</time>
      </trkpt>
      <trkpt lat="43.99899" lon="3.51057">
        <ele>725.4</ele>
        <time>2026-05-28T15:02:28.999Z</time>
      </trkpt>
      <trkpt lat="43.99898" lon="3.51057">
        <ele>725.2</ele>
        <time>2026-05-28T15:02:29.999Z</time>
      </trkpt>
      <trkpt lat="43.99898" lon="3.51057">
        <ele>724.8</ele>
        <time>2026-05-28T15:02:30.999Z</time>
      </trkpt>
      <trkpt lat="43.99898" lon="3.51057">
        <ele>724.6</ele>
        <time>2026-05-28T15:02:31.999Z</time>
      </trkpt>
      <trkpt lat="43.99898" lon="3.51057">
        <ele>724.8</ele>
        <time>2026-05-28T15:02:32.999Z</time>
      </trkpt>
      <trkpt lat="43.99898" lon="3.51056">
        <ele>724.7</ele>
        <time>2026-05-28T15:02:33.999Z</time>
      </trkpt>
      <trkpt lat="43.99898" lon="3.51056">
        <ele>724.8</ele>
        <time>2026-05-28T15:02:34.999Z</time>
      </trkpt>
      <trkpt lat="43.99897" lon="3.51055">
        <ele>724.9</ele>
        <time>2026-05-28T15:02:35.999Z</time>
      </trkpt>
      <trkpt lat="43.99897" lon="3.51054">
        <ele>724.8</ele>
        <time>2026-05-28T15:02:36.999Z</time>
      </trkpt>
      <trkpt lat="43.99895" lon="3.51052">
        <ele>724.7</ele>
        <time>2026-05-28T15:02:37.999Z</time>
      </trkpt>
      <trkpt lat="43.99894" lon="3.51051">
        <ele>724.6</ele>
        <time>2026-05-28T15:02:38.999Z</time>
      </trkpt>
      <trkpt lat="43.99893" lon="3.51049">
        <ele>724.3</ele>
        <time>2026-05-28T15:02:39.999Z</time>
      </trkpt>
      <trkpt lat="43.99892" lon="3.51047">
        <ele>724.2</ele>
        <time>2026-05-28T15:02:40.999Z</time>
      </trkpt>
      <trkpt lat="43.99891" lon="3.51047">
        <ele>724</ele>
        <time>2026-05-28T15:02:41.999Z</time>
      </trkpt>
      <trkpt lat="43.9989" lon="3.51045">
        <ele>723.6</ele>
        <time>2026-05-28T15:02:42.999Z</time>
      </trkpt>
      <trkpt lat="43.99889" lon="3.51044">
        <ele>723.5</ele>
        <time>2026-05-28T15:02:43.999Z</time>
      </trkpt>
      <trkpt lat="43.99888" lon="3.51043">
        <ele>723.6</ele>
        <time>2026-05-28T15:02:44.999Z</time>
      </trkpt>
      <trkpt lat="43.99887" lon="3.51042">
        <ele>723.8</ele>
        <time>2026-05-28T15:02:45.999Z</time>
      </trkpt>
      <trkpt lat="43.99887" lon="3.51041">
        <ele>723.9</ele>
        <time>2026-05-28T15:02:46.999Z</time>
      </trkpt>
      <trkpt lat="43.99886" lon="3.5104">
        <ele>723.9</ele>
        <time>2026-05-28T15:02:47.999Z</time>
      </trkpt>
      <trkpt lat="43.99885" lon="3.5104">
        <ele>724</ele>
        <time>2026-05-28T15:02:48.999Z</time>
      </trkpt>
      <trkpt lat="43.99884" lon="3.51039">
        <ele>724</ele>
        <time>2026-05-28T15:02:49.999Z</time>
      </trkpt>
      <trkpt lat="43.99884" lon="3.51039">
        <ele>723.4</ele>
        <time>2026-05-28T15:02:50.999Z</time>
      </trkpt>
      <trkpt lat="43.99884" lon="3.51039">
        <ele>723.1</ele>
        <time>2026-05-28T15:02:51.999Z</time>
      </trkpt>
      <trkpt lat="43.99885" lon="3.51039">
        <ele>723.3</ele>
        <time>2026-05-28T15:02:52.999Z</time>
      </trkpt>
      <trkpt lat="43.99885" lon="3.51039">
        <ele>723.1</ele>
        <time>2026-05-28T15:02:53.999Z</time>
      </trkpt>
      <trkpt lat="43.99883" lon="3.51037">
        <ele>723.2</ele>
        <time>2026-05-28T15:02:54.999Z</time>
      </trkpt>
      <trkpt lat="43.99882" lon="3.51035">
        <ele>723</ele>
        <time>2026-05-28T15:02:55.999Z</time>
      </trkpt>
      <trkpt lat="43.99881" lon="3.51034">
        <ele>722.7</ele>
        <time>2026-05-28T15:02:56.999Z</time>
      </trkpt>
      <trkpt lat="43.9988" lon="3.51033">
        <ele>722.5</ele>
        <time>2026-05-28T15:02:57.999Z</time>
      </trkpt>
      <trkpt lat="43.9988" lon="3.51033">
        <ele>722.4</ele>
        <time>2026-05-28T15:02:58.999Z</time>
      </trkpt>
      <trkpt lat="43.99879" lon="3.51032">
        <ele>722</ele>
        <time>2026-05-28T15:02:59.999Z</time>
      </trkpt>
      <trkpt lat="43.99879" lon="3.51032">
        <ele>722.1</ele>
        <time>2026-05-28T15:03:00.999Z</time>
      </trkpt>
      <trkpt lat="43.99879" lon="3.51032">
        <ele>722.4</ele>
        <time>2026-05-28T15:03:01.999Z</time>
      </trkpt>
      <trkpt lat="43.99879" lon="3.51032">
        <ele>722.5</ele>
        <time>2026-05-28T15:03:02.999Z</time>
      </trkpt>
      <trkpt lat="43.99879" lon="3.51031">
        <ele>722.4</ele>
        <time>2026-05-28T15:03:03.999Z</time>
      </trkpt>
      <trkpt lat="43.99879" lon="3.51031">
        <ele>722.1</ele>
        <time>2026-05-28T15:03:04.999Z</time>
      </trkpt>
      <trkpt lat="43.99878" lon="3.51031">
        <ele>721.8</ele>
        <time>2026-05-28T15:03:05.999Z</time>
      </trkpt>
      <trkpt lat="43.99878" lon="3.51031">
        <ele>721.5</ele>
        <time>2026-05-28T15:03:06.999Z</time>
      </trkpt>
      <trkpt lat="43.99878" lon="3.51031">
        <ele>721.1</ele>
        <time>2026-05-28T15:03:07.999Z</time>
      </trkpt>
      <trkpt lat="43.99878" lon="3.5103">
        <ele>720.8</ele>
        <time>2026-05-28T15:03:08.999Z</time>
      </trkpt>
      <trkpt lat="43.99878" lon="3.5103">
        <ele>720.6</ele>
        <time>2026-05-28T15:03:09.999Z</time>
      </trkpt>
      <trkpt lat="43.99877" lon="3.5103">
        <ele>721</ele>
        <time>2026-05-28T15:03:10.999Z</time>
      </trkpt>
      <trkpt lat="43.99877" lon="3.5103">
        <ele>720.7</ele>
        <time>2026-05-28T15:03:11.999Z</time>
      </trkpt>
      <trkpt lat="43.99877" lon="3.5103">
        <ele>720.6</ele>
        <time>2026-05-28T15:03:12.999Z</time>
      </trkpt>
      <trkpt lat="43.99877" lon="3.51029">
        <ele>720.6</ele>
        <time>2026-05-28T15:03:13.999Z</time>
      </trkpt>
      <trkpt lat="43.99877" lon="3.51029">
        <ele>720.5</ele>
        <time>2026-05-28T15:03:14.999Z</time>
      </trkpt>
      <trkpt lat="43.99877" lon="3.51028">
        <ele>720.3</ele>
        <time>2026-05-28T15:03:15.999Z</time>
      </trkpt>
      <trkpt lat="43.99876" lon="3.51028">
        <ele>720.1</ele>
        <time>2026-05-28T15:03:16.999Z</time>
      </trkpt>
      <trkpt lat="43.99876" lon="3.51027">
        <ele>719.9</ele>
        <time>2026-05-28T15:03:17.999Z</time>
      </trkpt>
      <trkpt lat="43.99876" lon="3.51027">
        <ele>719.3</ele>
        <time>2026-05-28T15:03:18.999Z</time>
      </trkpt>
      <trkpt lat="43.99874" lon="3.51023">
        <ele>719.1</ele>
        <time>2026-05-28T15:03:19.999Z</time>
      </trkpt>
      <trkpt lat="43.99873" lon="3.51021">
        <ele>718.7</ele>
        <time>2026-05-28T15:03:20.999Z</time>
      </trkpt>
      <trkpt lat="43.99871" lon="3.51019">
        <ele>718.4</ele>
        <time>2026-05-28T15:03:21.999Z</time>
      </trkpt>
      <trkpt lat="43.99871" lon="3.51019">
        <ele>718.2</ele>
        <time>2026-05-28T15:03:22.999Z</time>
      </trkpt>
      <trkpt lat="43.9987" lon="3.51017">
        <ele>718</ele>
        <time>2026-05-28T15:03:23.999Z</time>
      </trkpt>
      <trkpt lat="43.99869" lon="3.51015">
        <ele>717.7</ele>
        <time>2026-05-28T15:03:24.999Z</time>
      </trkpt>
      <trkpt lat="43.99868" lon="3.51013">
        <ele>717.2</ele>
        <time>2026-05-28T15:03:25.999Z</time>
      </trkpt>
      <trkpt lat="43.99867" lon="3.51012">
        <ele>717</ele>
        <time>2026-05-28T15:03:26.999Z</time>
      </trkpt>
      <trkpt lat="43.99867" lon="3.51012">
        <ele>716.9</ele>
        <time>2026-05-28T15:03:27.999Z</time>
      </trkpt>
      <trkpt lat="43.99867" lon="3.51011">
        <ele>716.8</ele>
        <time>2026-05-28T15:03:28.999Z</time>
      </trkpt>
      <trkpt lat="43.99867" lon="3.51011">
        <ele>716.9</ele>
        <time>2026-05-28T15:03:29.999Z</time>
      </trkpt>
      <trkpt lat="43.99866" lon="3.51008">
        <ele>716.8</ele>
        <time>2026-05-28T15:03:30.999Z</time>
      </trkpt>
      <trkpt lat="43.99865" lon="3.51005">
        <ele>716.6</ele>
        <time>2026-05-28T15:03:31.999Z</time>
      </trkpt>
      <trkpt lat="43.99864" lon="3.51002">
        <ele>716.5</ele>
        <time>2026-05-28T15:03:32.999Z</time>
      </trkpt>
      <trkpt lat="43.99863" lon="3.51">
        <ele>716.4</ele>
        <time>2026-05-28T15:03:33.999Z</time>
      </trkpt>
      <trkpt lat="43.99863" lon="3.50998">
        <ele>716.4</ele>
        <time>2026-05-28T15:03:34.999Z</time>
      </trkpt>
      <trkpt lat="43.99862" lon="3.50997">
        <ele>716.3</ele>
        <time>2026-05-28T15:03:35.999Z</time>
      </trkpt>
      <trkpt lat="43.99862" lon="3.50996">
        <ele>716.5</ele>
        <time>2026-05-28T15:03:36.999Z</time>
      </trkpt>
      <trkpt lat="43.99862" lon="3.50996">
        <ele>716.5</ele>
        <time>2026-05-28T15:03:37.999Z</time>
      </trkpt>
      <trkpt lat="43.99862" lon="3.50996">
        <ele>716.2</ele>
        <time>2026-05-28T15:03:38.999Z</time>
      </trkpt>
      <trkpt lat="43.99861" lon="3.50995">
        <ele>716</ele>
        <time>2026-05-28T15:03:39.999Z</time>
      </trkpt>
      <trkpt lat="43.99861" lon="3.50995">
        <ele>716</ele>
        <time>2026-05-28T15:03:40.999Z</time>
      </trkpt>
      <trkpt lat="43.99861" lon="3.50995">
        <ele>715.9</ele>
        <time>2026-05-28T15:03:41.999Z</time>
      </trkpt>
      <trkpt lat="43.99861" lon="3.50995">
        <ele>715.7</ele>
        <time>2026-05-28T15:03:42.999Z</time>
      </trkpt>
      <trkpt lat="43.99861" lon="3.50994">
        <ele>715.5</ele>
        <time>2026-05-28T15:03:43.999Z</time>
      </trkpt>
      <trkpt lat="43.99861" lon="3.50994">
        <ele>715.4</ele>
        <time>2026-05-28T15:03:44.999Z</time>
      </trkpt>
      <trkpt lat="43.99861" lon="3.50994">
        <ele>715.2</ele>
        <time>2026-05-28T15:03:45.999Z</time>
      </trkpt>
      <trkpt lat="43.99861" lon="3.50994">
        <ele>715.2</ele>
        <time>2026-05-28T15:03:46.999Z</time>
      </trkpt>
      <trkpt lat="43.99861" lon="3.50994">
        <ele>714.9</ele>
        <time>2026-05-28T15:03:47.999Z</time>
      </trkpt>
      <trkpt lat="43.99861" lon="3.50993">
        <ele>714.4</ele>
        <time>2026-05-28T15:03:48.999Z</time>
      </trkpt>
      <trkpt lat="43.9986" lon="3.50989">
        <ele>713.8</ele>
        <time>2026-05-28T15:03:49.999Z</time>
      </trkpt>
      <trkpt lat="43.99859" lon="3.50985">
        <ele>713.6</ele>
        <time>2026-05-28T15:03:50.999Z</time>
      </trkpt>
      <trkpt lat="43.99858" lon="3.50982">
        <ele>713.8</ele>
        <time>2026-05-28T15:03:51.999Z</time>
      </trkpt>
      <trkpt lat="43.99856" lon="3.50979">
        <ele>713.8</ele>
        <time>2026-05-28T15:03:52.999Z</time>
      </trkpt>
      <trkpt lat="43.99855" lon="3.50976">
        <ele>713.8</ele>
        <time>2026-05-28T15:03:53.999Z</time>
      </trkpt>
      <trkpt lat="43.99854" lon="3.50974">
        <ele>713.7</ele>
        <time>2026-05-28T15:03:54.999Z</time>
      </trkpt>
      <trkpt lat="43.99853" lon="3.50972">
        <ele>713.5</ele>
        <time>2026-05-28T15:03:55.999Z</time>
      </trkpt>
      <trkpt lat="43.99853" lon="3.50971">
        <ele>713.5</ele>
        <time>2026-05-28T15:03:56.999Z</time>
      </trkpt>
      <trkpt lat="43.99852" lon="3.5097">
        <ele>713.4</ele>
        <time>2026-05-28T15:03:57.999Z</time>
      </trkpt>
      <trkpt lat="43.99851" lon="3.50969">
        <ele>713.3</ele>
        <time>2026-05-28T15:03:58.999Z</time>
      </trkpt>
      <trkpt lat="43.9985" lon="3.50968">
        <ele>713.4</ele>
        <time>2026-05-28T15:03:59.999Z</time>
      </trkpt>
      <trkpt lat="43.9985" lon="3.50968">
        <ele>713.6</ele>
        <time>2026-05-28T15:04:00.999Z</time>
      </trkpt>
      <trkpt lat="43.99849" lon="3.50966">
        <ele>713.5</ele>
        <time>2026-05-28T15:04:01.999Z</time>
      </trkpt>
      <trkpt lat="43.99848" lon="3.50966">
        <ele>713.2</ele>
        <time>2026-05-28T15:04:02.999Z</time>
      </trkpt>
      <trkpt lat="43.99847" lon="3.50965">
        <ele>712.9</ele>
        <time>2026-05-28T15:04:03.999Z</time>
      </trkpt>
      <trkpt lat="43.99847" lon="3.50964">
        <ele>712.6</ele>
        <time>2026-05-28T15:04:04.999Z</time>
      </trkpt>
      <trkpt lat="43.99846" lon="3.50963">
        <ele>712.5</ele>
        <time>2026-05-28T15:04:05.999Z</time>
      </trkpt>
      <trkpt lat="43.99844" lon="3.50963">
        <ele>712.2</ele>
        <time>2026-05-28T15:04:06.999Z</time>
      </trkpt>
      <trkpt lat="43.99844" lon="3.50962">
        <ele>712</ele>
        <time>2026-05-28T15:04:07.999Z</time>
      </trkpt>
      <trkpt lat="43.99843" lon="3.50962">
        <ele>711.8</ele>
        <time>2026-05-28T15:04:08.999Z</time>
      </trkpt>
      <trkpt lat="43.99843" lon="3.50962">
        <ele>711.5</ele>
        <time>2026-05-28T15:04:09.999Z</time>
      </trkpt>
      <trkpt lat="43.99842" lon="3.50962">
        <ele>711.6</ele>
        <time>2026-05-28T15:04:10.999Z</time>
      </trkpt>
      <trkpt lat="43.99841" lon="3.50961">
        <ele>712</ele>
        <time>2026-05-28T15:04:11.999Z</time>
      </trkpt>
      <trkpt lat="43.9984" lon="3.5096">
        <ele>712.2</ele>
        <time>2026-05-28T15:04:12.999Z</time>
      </trkpt>
      <trkpt lat="43.99839" lon="3.50959">
        <ele>712.4</ele>
        <time>2026-05-28T15:04:13.999Z</time>
      </trkpt>
      <trkpt lat="43.99839" lon="3.50958">
        <ele>712.3</ele>
        <time>2026-05-28T15:04:14.999Z</time>
      </trkpt>
      <trkpt lat="43.99838" lon="3.50956">
        <ele>712.3</ele>
        <time>2026-05-28T15:04:15.999Z</time>
      </trkpt>
      <trkpt lat="43.99837" lon="3.50956">
        <ele>712.2</ele>
        <time>2026-05-28T15:04:16.999Z</time>
      </trkpt>
      <trkpt lat="43.99835" lon="3.50955">
        <ele>712.2</ele>
        <time>2026-05-28T15:04:17.999Z</time>
      </trkpt>
      <trkpt lat="43.99835" lon="3.50954">
        <ele>711.6</ele>
        <time>2026-05-28T15:04:18.999Z</time>
      </trkpt>
      <trkpt lat="43.99834" lon="3.50953">
        <ele>711.3</ele>
        <time>2026-05-28T15:04:19.999Z</time>
      </trkpt>
      <trkpt lat="43.99833" lon="3.50953">
        <ele>711.1</ele>
        <time>2026-05-28T15:04:20.999Z</time>
      </trkpt>
      <trkpt lat="43.99832" lon="3.50952">
        <ele>711</ele>
        <time>2026-05-28T15:04:21.999Z</time>
      </trkpt>
      <trkpt lat="43.99831" lon="3.50952">
        <ele>710.8</ele>
        <time>2026-05-28T15:04:22.999Z</time>
      </trkpt>
      <trkpt lat="43.9983" lon="3.50952">
        <ele>710.7</ele>
        <time>2026-05-28T15:04:23.999Z</time>
      </trkpt>
      <trkpt lat="43.99829" lon="3.50952">
        <ele>710.6</ele>
        <time>2026-05-28T15:04:24.999Z</time>
      </trkpt>
      <trkpt lat="43.99828" lon="3.50952">
        <ele>710.3</ele>
        <time>2026-05-28T15:04:25.999Z</time>
      </trkpt>
      <trkpt lat="43.99827" lon="3.50952">
        <ele>710.2</ele>
        <time>2026-05-28T15:04:26.999Z</time>
      </trkpt>
      <trkpt lat="43.99826" lon="3.50952">
        <ele>710</ele>
        <time>2026-05-28T15:04:27.999Z</time>
      </trkpt>
      <trkpt lat="43.99825" lon="3.50952">
        <ele>709.9</ele>
        <time>2026-05-28T15:04:28.999Z</time>
      </trkpt>
      <trkpt lat="43.99824" lon="3.50953">
        <ele>709.9</ele>
        <time>2026-05-28T15:04:29.999Z</time>
      </trkpt>
      <trkpt lat="43.99824" lon="3.50953">
        <ele>709.7</ele>
        <time>2026-05-28T15:04:30.999Z</time>
      </trkpt>
      <trkpt lat="43.99823" lon="3.50953">
        <ele>709.4</ele>
        <time>2026-05-28T15:04:31.999Z</time>
      </trkpt>
      <trkpt lat="43.99823" lon="3.50954">
        <ele>709.1</ele>
        <time>2026-05-28T15:04:32.999Z</time>
      </trkpt>
      <trkpt lat="43.99822" lon="3.50953">
        <ele>709.2</ele>
        <time>2026-05-28T15:04:33.999Z</time>
      </trkpt>
      <trkpt lat="43.99822" lon="3.50953">
        <ele>709.1</ele>
        <time>2026-05-28T15:04:34.999Z</time>
      </trkpt>
      <trkpt lat="43.99821" lon="3.50952">
        <ele>708.9</ele>
        <time>2026-05-28T15:04:35.999Z</time>
      </trkpt>
      <trkpt lat="43.99821" lon="3.50951">
        <ele>708.8</ele>
        <time>2026-05-28T15:04:36.999Z</time>
      </trkpt>
      <trkpt lat="43.99821" lon="3.5095">
        <ele>708.5</ele>
        <time>2026-05-28T15:04:37.999Z</time>
      </trkpt>
      <trkpt lat="43.9982" lon="3.50949">
        <ele>708.4</ele>
        <time>2026-05-28T15:04:38.999Z</time>
      </trkpt>
      <trkpt lat="43.9982" lon="3.50948">
        <ele>708.5</ele>
        <time>2026-05-28T15:04:39.999Z</time>
      </trkpt>
      <trkpt lat="43.9982" lon="3.50947">
        <ele>708.4</ele>
        <time>2026-05-28T15:04:40.999Z</time>
      </trkpt>
      <trkpt lat="43.99821" lon="3.50946">
        <ele>708.3</ele>
        <time>2026-05-28T15:04:41.999Z</time>
      </trkpt>
      <trkpt lat="43.99821" lon="3.50945">
        <ele>708.1</ele>
        <time>2026-05-28T15:04:42.999Z</time>
      </trkpt>
      <trkpt lat="43.99821" lon="3.50945">
        <ele>708.1</ele>
        <time>2026-05-28T15:04:43.999Z</time>
      </trkpt>
      <trkpt lat="43.99821" lon="3.50943">
        <ele>707.6</ele>
        <time>2026-05-28T15:04:44.999Z</time>
      </trkpt>
      <trkpt lat="43.99822" lon="3.50942">
        <ele>707.7</ele>
        <time>2026-05-28T15:04:45.999Z</time>
      </trkpt>
      <trkpt lat="43.99822" lon="3.50941">
        <ele>708.1</ele>
        <time>2026-05-28T15:04:46.999Z</time>
      </trkpt>
      <trkpt lat="43.99822" lon="3.5094">
        <ele>708.1</ele>
        <time>2026-05-28T15:04:47.999Z</time>
      </trkpt>
      <trkpt lat="43.99822" lon="3.50939">
        <ele>707.8</ele>
        <time>2026-05-28T15:04:48.999Z</time>
      </trkpt>
      <trkpt lat="43.99822" lon="3.50938">
        <ele>707.3</ele>
        <time>2026-05-28T15:04:49.999Z</time>
      </trkpt>
      <trkpt lat="43.99822" lon="3.50938">
        <ele>707.3</ele>
        <time>2026-05-28T15:04:50.999Z</time>
      </trkpt>
      <trkpt lat="43.99822" lon="3.50936">
        <ele>707.2</ele>
        <time>2026-05-28T15:04:51.999Z</time>
      </trkpt>
      <trkpt lat="43.99823" lon="3.50935">
        <ele>707.1</ele>
        <time>2026-05-28T15:04:52.999Z</time>
      </trkpt>
      <trkpt lat="43.99824" lon="3.50934">
        <ele>707</ele>
        <time>2026-05-28T15:04:53.999Z</time>
      </trkpt>
      <trkpt lat="43.99824" lon="3.50932">
        <ele>706.6</ele>
        <time>2026-05-28T15:04:54.999Z</time>
      </trkpt>
      <trkpt lat="43.99825" lon="3.50932">
        <ele>706.5</ele>
        <time>2026-05-28T15:04:55.999Z</time>
      </trkpt>
      <trkpt lat="43.99825" lon="3.50932">
        <ele>706.5</ele>
        <time>2026-05-28T15:04:56.999Z</time>
      </trkpt>
      <trkpt lat="43.99826" lon="3.50931">
        <ele>706.5</ele>
        <time>2026-05-28T15:04:57.999Z</time>
      </trkpt>
      <trkpt lat="43.99827" lon="3.5093">
        <ele>706.8</ele>
        <time>2026-05-28T15:04:58.999Z</time>
      </trkpt>
      <trkpt lat="43.99828" lon="3.5093">
        <ele>706.7</ele>
        <time>2026-05-28T15:04:59.999Z</time>
      </trkpt>
      <trkpt lat="43.99829" lon="3.50929">
        <ele>706.7</ele>
        <time>2026-05-28T15:05:00.999Z</time>
      </trkpt>
      <trkpt lat="43.9983" lon="3.50929">
        <ele>706.6</ele>
        <time>2026-05-28T15:05:01.999Z</time>
      </trkpt>
      <trkpt lat="43.99831" lon="3.50928">
        <ele>706.5</ele>
        <time>2026-05-28T15:05:02.999Z</time>
      </trkpt>
      <trkpt lat="43.99832" lon="3.50927">
        <ele>706.4</ele>
        <time>2026-05-28T15:05:03.999Z</time>
      </trkpt>
      <trkpt lat="43.99833" lon="3.50926">
        <ele>706.3</ele>
        <time>2026-05-28T15:05:04.999Z</time>
      </trkpt>
      <trkpt lat="43.99834" lon="3.50925">
        <ele>706.3</ele>
        <time>2026-05-28T15:05:05.999Z</time>
      </trkpt>
      <trkpt lat="43.99835" lon="3.50924">
        <ele>706</ele>
        <time>2026-05-28T15:05:06.999Z</time>
      </trkpt>
      <trkpt lat="43.99835" lon="3.50923">
        <ele>706</ele>
        <time>2026-05-28T15:05:07.999Z</time>
      </trkpt>
      <trkpt lat="43.99836" lon="3.50923">
        <ele>705.9</ele>
        <time>2026-05-28T15:05:08.999Z</time>
      </trkpt>
      <trkpt lat="43.99837" lon="3.50923">
        <ele>705.8</ele>
        <time>2026-05-28T15:05:09.999Z</time>
      </trkpt>
      <trkpt lat="43.99837" lon="3.50923">
        <ele>705.6</ele>
        <time>2026-05-28T15:05:10.999Z</time>
      </trkpt>
      <trkpt lat="43.99838" lon="3.50923">
        <ele>705.8</ele>
        <time>2026-05-28T15:05:11.999Z</time>
      </trkpt>
      <trkpt lat="43.99839" lon="3.50923">
        <ele>705.9</ele>
        <time>2026-05-28T15:05:12.999Z</time>
      </trkpt>
      <trkpt lat="43.99839" lon="3.50923">
        <ele>705.8</ele>
        <time>2026-05-28T15:05:13.999Z</time>
      </trkpt>
      <trkpt lat="43.99841" lon="3.50922">
        <ele>705.8</ele>
        <time>2026-05-28T15:05:14.999Z</time>
      </trkpt>
      <trkpt lat="43.99841" lon="3.50922">
        <ele>706</ele>
        <time>2026-05-28T15:05:15.999Z</time>
      </trkpt>
      <trkpt lat="43.99842" lon="3.50921">
        <ele>705.7</ele>
        <time>2026-05-28T15:05:16.999Z</time>
      </trkpt>
      <trkpt lat="43.99843" lon="3.50921">
        <ele>705.5</ele>
        <time>2026-05-28T15:05:17.999Z</time>
      </trkpt>
      <trkpt lat="43.99843" lon="3.5092">
        <ele>705.4</ele>
        <time>2026-05-28T15:05:18.999Z</time>
      </trkpt>
      <trkpt lat="43.99844" lon="3.50919">
        <ele>705.2</ele>
        <time>2026-05-28T15:05:19.999Z</time>
      </trkpt>
      <trkpt lat="43.99845" lon="3.5092">
        <ele>705</ele>
        <time>2026-05-28T15:05:20.999Z</time>
      </trkpt>
      <trkpt lat="43.99846" lon="3.5092">
        <ele>704.8</ele>
        <time>2026-05-28T15:05:21.999Z</time>
      </trkpt>
      <trkpt lat="43.99847" lon="3.5092">
        <ele>704.4</ele>
        <time>2026-05-28T15:05:22.999Z</time>
      </trkpt>
      <trkpt lat="43.99848" lon="3.50919">
        <ele>704.2</ele>
        <time>2026-05-28T15:05:23.999Z</time>
      </trkpt>
      <trkpt lat="43.99848" lon="3.50919">
        <ele>703.8</ele>
        <time>2026-05-28T15:05:24.999Z</time>
      </trkpt>
      <trkpt lat="43.99849" lon="3.50919">
        <ele>703.6</ele>
        <time>2026-05-28T15:05:25.999Z</time>
      </trkpt>
      <trkpt lat="43.9985" lon="3.50918">
        <ele>703.5</ele>
        <time>2026-05-28T15:05:26.999Z</time>
      </trkpt>
      <trkpt lat="43.99851" lon="3.50918">
        <ele>703.7</ele>
        <time>2026-05-28T15:05:27.999Z</time>
      </trkpt>
      <trkpt lat="43.99852" lon="3.50918">
        <ele>703.5</ele>
        <time>2026-05-28T15:05:28.999Z</time>
      </trkpt>
      <trkpt lat="43.99853" lon="3.50918">
        <ele>703.4</ele>
        <time>2026-05-28T15:05:29.999Z</time>
      </trkpt>
      <trkpt lat="43.99854" lon="3.50918">
        <ele>703.2</ele>
        <time>2026-05-28T15:05:30.999Z</time>
      </trkpt>
      <trkpt lat="43.99854" lon="3.50918">
        <ele>702.8</ele>
        <time>2026-05-28T15:05:31.999Z</time>
      </trkpt>
      <trkpt lat="43.99855" lon="3.50917">
        <ele>702.9</ele>
        <time>2026-05-28T15:05:32.999Z</time>
      </trkpt>
      <trkpt lat="43.99856" lon="3.50917">
        <ele>702.4</ele>
        <time>2026-05-28T15:05:33.999Z</time>
      </trkpt>
      <trkpt lat="43.99857" lon="3.50916">
        <ele>702.1</ele>
        <time>2026-05-28T15:05:34.999Z</time>
      </trkpt>
      <trkpt lat="43.99858" lon="3.50915">
        <ele>701.9</ele>
        <time>2026-05-28T15:05:35.999Z</time>
      </trkpt>
      <trkpt lat="43.99858" lon="3.50914">
        <ele>702</ele>
        <time>2026-05-28T15:05:36.999Z</time>
      </trkpt>
      <trkpt lat="43.99858" lon="3.50913">
        <ele>702.4</ele>
        <time>2026-05-28T15:05:37.999Z</time>
      </trkpt>
      <trkpt lat="43.99858" lon="3.50912">
        <ele>702.7</ele>
        <time>2026-05-28T15:05:38.999Z</time>
      </trkpt>
      <trkpt lat="43.99858" lon="3.50912">
        <ele>702.9</ele>
        <time>2026-05-28T15:05:39.999Z</time>
      </trkpt>
      <trkpt lat="43.99857" lon="3.50912">
        <ele>702.7</ele>
        <time>2026-05-28T15:05:40.999Z</time>
      </trkpt>
      <trkpt lat="43.99857" lon="3.50911">
        <ele>702.6</ele>
        <time>2026-05-28T15:05:41.999Z</time>
      </trkpt>
      <trkpt lat="43.99857" lon="3.5091">
        <ele>702.6</ele>
        <time>2026-05-28T15:05:42.999Z</time>
      </trkpt>
      <trkpt lat="43.99856" lon="3.5091">
        <ele>702.3</ele>
        <time>2026-05-28T15:05:43.999Z</time>
      </trkpt>
      <trkpt lat="43.99855" lon="3.50909">
        <ele>702.5</ele>
        <time>2026-05-28T15:05:44.999Z</time>
      </trkpt>
      <trkpt lat="43.99855" lon="3.50908">
        <ele>702.5</ele>
        <time>2026-05-28T15:05:45.999Z</time>
      </trkpt>
      <trkpt lat="43.99854" lon="3.50908">
        <ele>702.6</ele>
        <time>2026-05-28T15:05:46.999Z</time>
      </trkpt>
      <trkpt lat="43.99853" lon="3.50908">
        <ele>702.7</ele>
        <time>2026-05-28T15:05:47.999Z</time>
      </trkpt>
      <trkpt lat="43.99852" lon="3.50907">
        <ele>702.5</ele>
        <time>2026-05-28T15:05:48.999Z</time>
      </trkpt>
      <trkpt lat="43.99851" lon="3.50905">
        <ele>702.5</ele>
        <time>2026-05-28T15:05:49.999Z</time>
      </trkpt>
      <trkpt lat="43.99851" lon="3.50905">
        <ele>702.4</ele>
        <time>2026-05-28T15:05:50.999Z</time>
      </trkpt>
      <trkpt lat="43.9985" lon="3.50905">
        <ele>702.7</ele>
        <time>2026-05-28T15:05:51.999Z</time>
      </trkpt>
      <trkpt lat="43.9985" lon="3.50905">
        <ele>702.5</ele>
        <time>2026-05-28T15:05:52.999Z</time>
      </trkpt>
      <trkpt lat="43.99849" lon="3.50905">
        <ele>702.5</ele>
        <time>2026-05-28T15:05:53.999Z</time>
      </trkpt>
      <trkpt lat="43.99848" lon="3.50905">
        <ele>702.4</ele>
        <time>2026-05-28T15:05:54.999Z</time>
      </trkpt>
      <trkpt lat="43.99848" lon="3.50904">
        <ele>702.5</ele>
        <time>2026-05-28T15:05:55.999Z</time>
      </trkpt>
      <trkpt lat="43.99847" lon="3.50903">
        <ele>702.3</ele>
        <time>2026-05-28T15:05:56.999Z</time>
      </trkpt>
      <trkpt lat="43.99846" lon="3.50902">
        <ele>702.1</ele>
        <time>2026-05-28T15:05:57.999Z</time>
      </trkpt>
      <trkpt lat="43.99845" lon="3.50901">
        <ele>701.6</ele>
        <time>2026-05-28T15:05:58.999Z</time>
      </trkpt>
      <trkpt lat="43.99846" lon="3.50901">
        <ele>701.4</ele>
        <time>2026-05-28T15:05:59.999Z</time>
      </trkpt>
      <trkpt lat="43.99845" lon="3.509">
        <ele>701</ele>
        <time>2026-05-28T15:06:00.999Z</time>
      </trkpt>
      <trkpt lat="43.99845" lon="3.50899">
        <ele>700.9</ele>
        <time>2026-05-28T15:06:01.999Z</time>
      </trkpt>
      <trkpt lat="43.99844" lon="3.50898">
        <ele>700.8</ele>
        <time>2026-05-28T15:06:02.999Z</time>
      </trkpt>
      <trkpt lat="43.99843" lon="3.50898">
        <ele>700.8</ele>
        <time>2026-05-28T15:06:03.999Z</time>
      </trkpt>
      <trkpt lat="43.99842" lon="3.50897">
        <ele>700.8</ele>
        <time>2026-05-28T15:06:04.999Z</time>
      </trkpt>
      <trkpt lat="43.99842" lon="3.50896">
        <ele>700.7</ele>
        <time>2026-05-28T15:06:05.999Z</time>
      </trkpt>
      <trkpt lat="43.99841" lon="3.50895">
        <ele>700.4</ele>
        <time>2026-05-28T15:06:06.999Z</time>
      </trkpt>
      <trkpt lat="43.9984" lon="3.50895">
        <ele>699.9</ele>
        <time>2026-05-28T15:06:07.999Z</time>
      </trkpt>
      <trkpt lat="43.99839" lon="3.50894">
        <ele>699.6</ele>
        <time>2026-05-28T15:06:08.999Z</time>
      </trkpt>
      <trkpt lat="43.99838" lon="3.50894">
        <ele>699</ele>
        <time>2026-05-28T15:06:09.999Z</time>
      </trkpt>
      <trkpt lat="43.99838" lon="3.50893">
        <ele>698.6</ele>
        <time>2026-05-28T15:06:10.999Z</time>
      </trkpt>
      <trkpt lat="43.99838" lon="3.50893">
        <ele>698.2</ele>
        <time>2026-05-28T15:06:11.999Z</time>
      </trkpt>
      <trkpt lat="43.99838" lon="3.50893">
        <ele>697.9</ele>
        <time>2026-05-28T15:06:12.999Z</time>
      </trkpt>
      <trkpt lat="43.99837" lon="3.50893">
        <ele>697.7</ele>
        <time>2026-05-28T15:06:13.999Z</time>
      </trkpt>
      <trkpt lat="43.99836" lon="3.50893">
        <ele>697.4</ele>
        <time>2026-05-28T15:06:14.999Z</time>
      </trkpt>
      <trkpt lat="43.99836" lon="3.50893">
        <ele>697.5</ele>
        <time>2026-05-28T15:06:15.999Z</time>
      </trkpt>
      <trkpt lat="43.99835" lon="3.50893">
        <ele>697.5</ele>
        <time>2026-05-28T15:06:16.999Z</time>
      </trkpt>
      <trkpt lat="43.99835" lon="3.50891">
        <ele>697.2</ele>
        <time>2026-05-28T15:06:17.999Z</time>
      </trkpt>
      <trkpt lat="43.99835" lon="3.5089">
        <ele>696.9</ele>
        <time>2026-05-28T15:06:18.999Z</time>
      </trkpt>
      <trkpt lat="43.99833" lon="3.50889">
        <ele>696.5</ele>
        <time>2026-05-28T15:06:19.999Z</time>
      </trkpt>
      <trkpt lat="43.99833" lon="3.5089">
        <ele>696</ele>
        <time>2026-05-28T15:06:20.999Z</time>
      </trkpt>
      <trkpt lat="43.99831" lon="3.5089">
        <ele>695.7</ele>
        <time>2026-05-28T15:06:21.999Z</time>
      </trkpt>
      <trkpt lat="43.9983" lon="3.50889">
        <ele>695.8</ele>
        <time>2026-05-28T15:06:22.999Z</time>
      </trkpt>
      <trkpt lat="43.99828" lon="3.50889">
        <ele>695.8</ele>
        <time>2026-05-28T15:06:23.999Z</time>
      </trkpt>
      <trkpt lat="43.99826" lon="3.50888">
        <ele>695.7</ele>
        <time>2026-05-28T15:06:24.999Z</time>
      </trkpt>
      <trkpt lat="43.99825" lon="3.50888">
        <ele>695.7</ele>
        <time>2026-05-28T15:06:25.999Z</time>
      </trkpt>
      <trkpt lat="43.99824" lon="3.50888">
        <ele>695</ele>
        <time>2026-05-28T15:06:26.999Z</time>
      </trkpt>
      <trkpt lat="43.99824" lon="3.50887">
        <ele>694.4</ele>
        <time>2026-05-28T15:06:27.999Z</time>
      </trkpt>
      <trkpt lat="43.99823" lon="3.50887">
        <ele>694.3</ele>
        <time>2026-05-28T15:06:28.999Z</time>
      </trkpt>
      <trkpt lat="43.99822" lon="3.50886">
        <ele>693.9</ele>
        <time>2026-05-28T15:06:29.999Z</time>
      </trkpt>
      <trkpt lat="43.99821" lon="3.50885">
        <ele>693.9</ele>
        <time>2026-05-28T15:06:30.999Z</time>
      </trkpt>
      <trkpt lat="43.9982" lon="3.50884">
        <ele>693.5</ele>
        <time>2026-05-28T15:06:31.999Z</time>
      </trkpt>
      <trkpt lat="43.99819" lon="3.50884">
        <ele>693.4</ele>
        <time>2026-05-28T15:06:32.999Z</time>
      </trkpt>
      <trkpt lat="43.99818" lon="3.50884">
        <ele>693.3</ele>
        <time>2026-05-28T15:06:33.999Z</time>
      </trkpt>
      <trkpt lat="43.99817" lon="3.50884">
        <ele>693.1</ele>
        <time>2026-05-28T15:06:34.999Z</time>
      </trkpt>
      <trkpt lat="43.99816" lon="3.50883">
        <ele>693</ele>
        <time>2026-05-28T15:06:35.999Z</time>
      </trkpt>
      <trkpt lat="43.99815" lon="3.50883">
        <ele>692.9</ele>
        <time>2026-05-28T15:06:36.999Z</time>
      </trkpt>
      <trkpt lat="43.99815" lon="3.50883">
        <ele>692.5</ele>
        <time>2026-05-28T15:06:37.999Z</time>
      </trkpt>
      <trkpt lat="43.99814" lon="3.50883">
        <ele>692.2</ele>
        <time>2026-05-28T15:06:38.999Z</time>
      </trkpt>
      <trkpt lat="43.99813" lon="3.50883">
        <ele>692.1</ele>
        <time>2026-05-28T15:06:39.999Z</time>
      </trkpt>
      <trkpt lat="43.99812" lon="3.50883">
        <ele>692</ele>
        <time>2026-05-28T15:06:40.999Z</time>
      </trkpt>
      <trkpt lat="43.99811" lon="3.50883">
        <ele>691.5</ele>
        <time>2026-05-28T15:06:41.999Z</time>
      </trkpt>
      <trkpt lat="43.9981" lon="3.50882">
        <ele>690.9</ele>
        <time>2026-05-28T15:06:42.999Z</time>
      </trkpt>
      <trkpt lat="43.99809" lon="3.50882">
        <ele>690.7</ele>
        <time>2026-05-28T15:06:43.999Z</time>
      </trkpt>
      <trkpt lat="43.99808" lon="3.50882">
        <ele>690.6</ele>
        <time>2026-05-28T15:06:44.999Z</time>
      </trkpt>
      <trkpt lat="43.99807" lon="3.50883">
        <ele>690.7</ele>
        <time>2026-05-28T15:06:45.999Z</time>
      </trkpt>
      <trkpt lat="43.99806" lon="3.50883">
        <ele>690.6</ele>
        <time>2026-05-28T15:06:46.999Z</time>
      </trkpt>
      <trkpt lat="43.99805" lon="3.50884">
        <ele>690.4</ele>
        <time>2026-05-28T15:06:47.999Z</time>
      </trkpt>
      <trkpt lat="43.99804" lon="3.50884">
        <ele>690.5</ele>
        <time>2026-05-28T15:06:48.999Z</time>
      </trkpt>
      <trkpt lat="43.99804" lon="3.50885">
        <ele>690.3</ele>
        <time>2026-05-28T15:06:49.999Z</time>
      </trkpt>
      <trkpt lat="43.99803" lon="3.50885">
        <ele>690</ele>
        <time>2026-05-28T15:06:50.999Z</time>
      </trkpt>
      <trkpt lat="43.99802" lon="3.50885">
        <ele>689.7</ele>
        <time>2026-05-28T15:06:51.999Z</time>
      </trkpt>
      <trkpt lat="43.998" lon="3.50886">
        <ele>689.7</ele>
        <time>2026-05-28T15:06:52.999Z</time>
      </trkpt>
      <trkpt lat="43.998" lon="3.50886">
        <ele>690</ele>
        <time>2026-05-28T15:06:53.999Z</time>
      </trkpt>
      <trkpt lat="43.99799" lon="3.50885">
        <ele>690.1</ele>
        <time>2026-05-28T15:06:54.999Z</time>
      </trkpt>
      <trkpt lat="43.99798" lon="3.50885">
        <ele>689.8</ele>
        <time>2026-05-28T15:06:55.999Z</time>
      </trkpt>
      <trkpt lat="43.99798" lon="3.50885">
        <ele>689.7</ele>
        <time>2026-05-28T15:06:56.999Z</time>
      </trkpt>
      <trkpt lat="43.99797" lon="3.50884">
        <ele>689.6</ele>
        <time>2026-05-28T15:06:57.999Z</time>
      </trkpt>
      <trkpt lat="43.99795" lon="3.50884">
        <ele>689.3</ele>
        <time>2026-05-28T15:06:58.999Z</time>
      </trkpt>
      <trkpt lat="43.99795" lon="3.50885">
        <ele>689</ele>
        <time>2026-05-28T15:06:59.999Z</time>
      </trkpt>
      <trkpt lat="43.99794" lon="3.50885">
        <ele>688.7</ele>
        <time>2026-05-28T15:07:00.999Z</time>
      </trkpt>
      <trkpt lat="43.99793" lon="3.50886">
        <ele>688.2</ele>
        <time>2026-05-28T15:07:01.999Z</time>
      </trkpt>
      <trkpt lat="43.99792" lon="3.50887">
        <ele>688.3</ele>
        <time>2026-05-28T15:07:02.999Z</time>
      </trkpt>
      <trkpt lat="43.99792" lon="3.50887">
        <ele>688.2</ele>
        <time>2026-05-28T15:07:03.999Z</time>
      </trkpt>
      <trkpt lat="43.99792" lon="3.50888">
        <ele>688.5</ele>
        <time>2026-05-28T15:07:04.999Z</time>
      </trkpt>
      <trkpt lat="43.99792" lon="3.50888">
        <ele>688.3</ele>
        <time>2026-05-28T15:07:05.999Z</time>
      </trkpt>
      <trkpt lat="43.99792" lon="3.50888">
        <ele>688.4</ele>
        <time>2026-05-28T15:07:06.999Z</time>
      </trkpt>
      <trkpt lat="43.99791" lon="3.50888">
        <ele>688.2</ele>
        <time>2026-05-28T15:07:07.999Z</time>
      </trkpt>
      <trkpt lat="43.99791" lon="3.50888">
        <ele>688</ele>
        <time>2026-05-28T15:07:08.999Z</time>
      </trkpt>
      <trkpt lat="43.99791" lon="3.50888">
        <ele>687.8</ele>
        <time>2026-05-28T15:07:09.999Z</time>
      </trkpt>
      <trkpt lat="43.9979" lon="3.50889">
        <ele>687.7</ele>
        <time>2026-05-28T15:07:10.999Z</time>
      </trkpt>
      <trkpt lat="43.9979" lon="3.50889">
        <ele>687.7</ele>
        <time>2026-05-28T15:07:11.999Z</time>
      </trkpt>
      <trkpt lat="43.99789" lon="3.50889">
        <ele>687.7</ele>
        <time>2026-05-28T15:07:12.999Z</time>
      </trkpt>
      <trkpt lat="43.99789" lon="3.50889">
        <ele>687.6</ele>
        <time>2026-05-28T15:07:13.999Z</time>
      </trkpt>
      <trkpt lat="43.99789" lon="3.50889">
        <ele>687.6</ele>
        <time>2026-05-28T15:07:14.999Z</time>
      </trkpt>
      <trkpt lat="43.99789" lon="3.50889">
        <ele>687.5</ele>
        <time>2026-05-28T15:07:15.999Z</time>
      </trkpt>
      <trkpt lat="43.99788" lon="3.50889">
        <ele>687.5</ele>
        <time>2026-05-28T15:07:16.999Z</time>
      </trkpt>
      <trkpt lat="43.99788" lon="3.50891">
        <ele>687.5</ele>
        <time>2026-05-28T15:07:17.999Z</time>
      </trkpt>
      <trkpt lat="43.99787" lon="3.50892">
        <ele>687.5</ele>
        <time>2026-05-28T15:07:18.999Z</time>
      </trkpt>
      <trkpt lat="43.99786" lon="3.50893">
        <ele>687.4</ele>
        <time>2026-05-28T15:07:19.999Z</time>
      </trkpt>
      <trkpt lat="43.99785" lon="3.50893">
        <ele>687.2</ele>
        <time>2026-05-28T15:07:20.999Z</time>
      </trkpt>
      <trkpt lat="43.99783" lon="3.50893">
        <ele>687</ele>
        <time>2026-05-28T15:07:21.999Z</time>
      </trkpt>
      <trkpt lat="43.99782" lon="3.50893">
        <ele>686.8</ele>
        <time>2026-05-28T15:07:22.999Z</time>
      </trkpt>
      <trkpt lat="43.99781" lon="3.50893">
        <ele>686.5</ele>
        <time>2026-05-28T15:07:23.999Z</time>
      </trkpt>
      <trkpt lat="43.9978" lon="3.50893">
        <ele>686.3</ele>
        <time>2026-05-28T15:07:24.999Z</time>
      </trkpt>
      <trkpt lat="43.99779" lon="3.50894">
        <ele>686.2</ele>
        <time>2026-05-28T15:07:25.999Z</time>
      </trkpt>
      <trkpt lat="43.99779" lon="3.50894">
        <ele>685.8</ele>
        <time>2026-05-28T15:07:26.999Z</time>
      </trkpt>
      <trkpt lat="43.99778" lon="3.50895">
        <ele>685.6</ele>
        <time>2026-05-28T15:07:27.999Z</time>
      </trkpt>
      <trkpt lat="43.99777" lon="3.50895">
        <ele>685.4</ele>
        <time>2026-05-28T15:07:28.999Z</time>
      </trkpt>
      <trkpt lat="43.99776" lon="3.50896">
        <ele>685</ele>
        <time>2026-05-28T15:07:29.999Z</time>
      </trkpt>
      <trkpt lat="43.99775" lon="3.50896">
        <ele>684.4</ele>
        <time>2026-05-28T15:07:30.999Z</time>
      </trkpt>
      <trkpt lat="43.99774" lon="3.50896">
        <ele>683.9</ele>
        <time>2026-05-28T15:07:31.999Z</time>
      </trkpt>
      <trkpt lat="43.99774" lon="3.50896">
        <ele>683.6</ele>
        <time>2026-05-28T15:07:32.999Z</time>
      </trkpt>
      <trkpt lat="43.99773" lon="3.50897">
        <ele>683.9</ele>
        <time>2026-05-28T15:07:33.999Z</time>
      </trkpt>
      <trkpt lat="43.99772" lon="3.50897">
        <ele>683.8</ele>
        <time>2026-05-28T15:07:34.999Z</time>
      </trkpt>
      <trkpt lat="43.99771" lon="3.50898">
        <ele>683.6</ele>
        <time>2026-05-28T15:07:35.999Z</time>
      </trkpt>
      <trkpt lat="43.9977" lon="3.50898">
        <ele>683.4</ele>
        <time>2026-05-28T15:07:36.999Z</time>
      </trkpt>
      <trkpt lat="43.99769" lon="3.50899">
        <ele>683.5</ele>
        <time>2026-05-28T15:07:37.999Z</time>
      </trkpt>
      <trkpt lat="43.99767" lon="3.509">
        <ele>683.5</ele>
        <time>2026-05-28T15:07:38.999Z</time>
      </trkpt>
      <trkpt lat="43.99766" lon="3.50901">
        <ele>683.3</ele>
        <time>2026-05-28T15:07:39.999Z</time>
      </trkpt>
      <trkpt lat="43.99766" lon="3.50902">
        <ele>683</ele>
        <time>2026-05-28T15:07:40.999Z</time>
      </trkpt>
      <trkpt lat="43.99765" lon="3.50902">
        <ele>682.8</ele>
        <time>2026-05-28T15:07:41.999Z</time>
      </trkpt>
      <trkpt lat="43.99764" lon="3.50902">
        <ele>682.4</ele>
        <time>2026-05-28T15:07:42.999Z</time>
      </trkpt>
      <trkpt lat="43.99763" lon="3.50903">
        <ele>682.2</ele>
        <time>2026-05-28T15:07:43.999Z</time>
      </trkpt>
      <trkpt lat="43.99763" lon="3.50904">
        <ele>681.7</ele>
        <time>2026-05-28T15:07:44.999Z</time>
      </trkpt>
      <trkpt lat="43.99762" lon="3.50905">
        <ele>681.3</ele>
        <time>2026-05-28T15:07:45.999Z</time>
      </trkpt>
      <trkpt lat="43.99762" lon="3.50905">
        <ele>681.1</ele>
        <time>2026-05-28T15:07:46.999Z</time>
      </trkpt>
      <trkpt lat="43.99761" lon="3.50906">
        <ele>681</ele>
        <time>2026-05-28T15:07:47.999Z</time>
      </trkpt>
      <trkpt lat="43.9976" lon="3.50906">
        <ele>680.8</ele>
        <time>2026-05-28T15:07:48.999Z</time>
      </trkpt>
      <trkpt lat="43.99759" lon="3.50907">
        <ele>680.8</ele>
        <time>2026-05-28T15:07:49.999Z</time>
      </trkpt>
      <trkpt lat="43.99758" lon="3.50908">
        <ele>680.8</ele>
        <time>2026-05-28T15:07:50.999Z</time>
      </trkpt>
      <trkpt lat="43.99757" lon="3.50908">
        <ele>680.5</ele>
        <time>2026-05-28T15:07:51.999Z</time>
      </trkpt>
      <trkpt lat="43.99757" lon="3.50909">
        <ele>680.4</ele>
        <time>2026-05-28T15:07:52.999Z</time>
      </trkpt>
      <trkpt lat="43.99756" lon="3.5091">
        <ele>679.8</ele>
        <time>2026-05-28T15:07:53.999Z</time>
      </trkpt>
      <trkpt lat="43.99755" lon="3.5091">
        <ele>679.5</ele>
        <time>2026-05-28T15:07:54.999Z</time>
      </trkpt>
      <trkpt lat="43.99754" lon="3.5091">
        <ele>679.2</ele>
        <time>2026-05-28T15:07:55.999Z</time>
      </trkpt>
      <trkpt lat="43.99754" lon="3.5091">
        <ele>679.3</ele>
        <time>2026-05-28T15:07:56.999Z</time>
      </trkpt>
      <trkpt lat="43.99753" lon="3.5091">
        <ele>679.5</ele>
        <time>2026-05-28T15:07:57.999Z</time>
      </trkpt>
      <trkpt lat="43.99752" lon="3.5091">
        <ele>679.4</ele>
        <time>2026-05-28T15:07:58.999Z</time>
      </trkpt>
      <trkpt lat="43.99751" lon="3.5091">
        <ele>678.9</ele>
        <time>2026-05-28T15:07:59.999Z</time>
      </trkpt>
      <trkpt lat="43.9975" lon="3.5091">
        <ele>678.6</ele>
        <time>2026-05-28T15:08:00.999Z</time>
      </trkpt>
      <trkpt lat="43.99748" lon="3.5091">
        <ele>678.3</ele>
        <time>2026-05-28T15:08:01.999Z</time>
      </trkpt>
      <trkpt lat="43.99747" lon="3.50911">
        <ele>677.9</ele>
        <time>2026-05-28T15:08:02.999Z</time>
      </trkpt>
      <trkpt lat="43.99746" lon="3.50911">
        <ele>677.7</ele>
        <time>2026-05-28T15:08:03.999Z</time>
      </trkpt>
      <trkpt lat="43.99745" lon="3.50911">
        <ele>677.4</ele>
        <time>2026-05-28T15:08:04.999Z</time>
      </trkpt>
      <trkpt lat="43.99745" lon="3.50911">
        <ele>677</ele>
        <time>2026-05-28T15:08:05.999Z</time>
      </trkpt>
      <trkpt lat="43.99744" lon="3.50911">
        <ele>676.5</ele>
        <time>2026-05-28T15:08:06.999Z</time>
      </trkpt>
      <trkpt lat="43.99743" lon="3.50911">
        <ele>676.4</ele>
        <time>2026-05-28T15:08:07.999Z</time>
      </trkpt>
      <trkpt lat="43.99742" lon="3.50912">
        <ele>676.3</ele>
        <time>2026-05-28T15:08:08.999Z</time>
      </trkpt>
      <trkpt lat="43.99742" lon="3.50912">
        <ele>675.9</ele>
        <time>2026-05-28T15:08:09.999Z</time>
      </trkpt>
      <trkpt lat="43.99741" lon="3.50913">
        <ele>675.9</ele>
        <time>2026-05-28T15:08:10.999Z</time>
      </trkpt>
      <trkpt lat="43.9974" lon="3.50913">
        <ele>676</ele>
        <time>2026-05-28T15:08:11.999Z</time>
      </trkpt>
      <trkpt lat="43.99739" lon="3.50913">
        <ele>675.9</ele>
        <time>2026-05-28T15:08:12.999Z</time>
      </trkpt>
      <trkpt lat="43.99737" lon="3.50913">
        <ele>676</ele>
        <time>2026-05-28T15:08:13.999Z</time>
      </trkpt>
      <trkpt lat="43.99737" lon="3.50913">
        <ele>675.8</ele>
        <time>2026-05-28T15:08:14.999Z</time>
      </trkpt>
      <trkpt lat="43.99736" lon="3.50912">
        <ele>675.6</ele>
        <time>2026-05-28T15:08:15.999Z</time>
      </trkpt>
      <trkpt lat="43.99735" lon="3.50912">
        <ele>675.8</ele>
        <time>2026-05-28T15:08:16.999Z</time>
      </trkpt>
      <trkpt lat="43.99735" lon="3.50912">
        <ele>675.7</ele>
        <time>2026-05-28T15:08:17.999Z</time>
      </trkpt>
      <trkpt lat="43.99734" lon="3.50912">
        <ele>675.5</ele>
        <time>2026-05-28T15:08:18.999Z</time>
      </trkpt>
      <trkpt lat="43.99732" lon="3.50912">
        <ele>675.5</ele>
        <time>2026-05-28T15:08:19.999Z</time>
      </trkpt>
      <trkpt lat="43.99731" lon="3.50912">
        <ele>675.4</ele>
        <time>2026-05-28T15:08:20.999Z</time>
      </trkpt>
      <trkpt lat="43.9973" lon="3.50911">
        <ele>675</ele>
        <time>2026-05-28T15:08:21.999Z</time>
      </trkpt>
      <trkpt lat="43.99729" lon="3.50911">
        <ele>675</ele>
        <time>2026-05-28T15:08:22.999Z</time>
      </trkpt>
      <trkpt lat="43.99728" lon="3.50911">
        <ele>674.7</ele>
        <time>2026-05-28T15:08:23.999Z</time>
      </trkpt>
      <trkpt lat="43.99727" lon="3.50911">
        <ele>674.1</ele>
        <time>2026-05-28T15:08:24.999Z</time>
      </trkpt>
      <trkpt lat="43.99726" lon="3.50911">
        <ele>673.9</ele>
        <time>2026-05-28T15:08:25.999Z</time>
      </trkpt>
      <trkpt lat="43.99726" lon="3.50911">
        <ele>673.7</ele>
        <time>2026-05-28T15:08:26.999Z</time>
      </trkpt>
      <trkpt lat="43.99725" lon="3.50911">
        <ele>673.4</ele>
        <time>2026-05-28T15:08:27.999Z</time>
      </trkpt>
      <trkpt lat="43.99724" lon="3.5091">
        <ele>672.9</ele>
        <time>2026-05-28T15:08:28.999Z</time>
      </trkpt>
      <trkpt lat="43.99723" lon="3.50911">
        <ele>672.6</ele>
        <time>2026-05-28T15:08:29.999Z</time>
      </trkpt>
      <trkpt lat="43.99722" lon="3.50911">
        <ele>672.4</ele>
        <time>2026-05-28T15:08:30.999Z</time>
      </trkpt>
      <trkpt lat="43.99722" lon="3.50911">
        <ele>672.1</ele>
        <time>2026-05-28T15:08:31.999Z</time>
      </trkpt>
      <trkpt lat="43.99721" lon="3.5091">
        <ele>671.9</ele>
        <time>2026-05-28T15:08:32.999Z</time>
      </trkpt>
      <trkpt lat="43.9972" lon="3.50909">
        <ele>671.7</ele>
        <time>2026-05-28T15:08:33.999Z</time>
      </trkpt>
      <trkpt lat="43.99719" lon="3.50908">
        <ele>671.5</ele>
        <time>2026-05-28T15:08:34.999Z</time>
      </trkpt>
      <trkpt lat="43.99718" lon="3.50908">
        <ele>671.4</ele>
        <time>2026-05-28T15:08:35.999Z</time>
      </trkpt>
      <trkpt lat="43.99717" lon="3.50907">
        <ele>671.4</ele>
        <time>2026-05-28T15:08:36.999Z</time>
      </trkpt>
      <trkpt lat="43.99716" lon="3.50906">
        <ele>671.5</ele>
        <time>2026-05-28T15:08:37.999Z</time>
      </trkpt>
      <trkpt lat="43.99715" lon="3.50905">
        <ele>671.5</ele>
        <time>2026-05-28T15:08:38.999Z</time>
      </trkpt>
      <trkpt lat="43.99714" lon="3.50905">
        <ele>671.6</ele>
        <time>2026-05-28T15:08:39.999Z</time>
      </trkpt>
      <trkpt lat="43.99713" lon="3.50905">
        <ele>671.7</ele>
        <time>2026-05-28T15:08:40.999Z</time>
      </trkpt>
      <trkpt lat="43.99712" lon="3.50905">
        <ele>671.7</ele>
        <time>2026-05-28T15:08:41.999Z</time>
      </trkpt>
      <trkpt lat="43.99711" lon="3.50906">
        <ele>671.6</ele>
        <time>2026-05-28T15:08:42.999Z</time>
      </trkpt>
      <trkpt lat="43.9971" lon="3.50906">
        <ele>671.6</ele>
        <time>2026-05-28T15:08:43.999Z</time>
      </trkpt>
      <trkpt lat="43.99708" lon="3.50906">
        <ele>671.3</ele>
        <time>2026-05-28T15:08:44.999Z</time>
      </trkpt>
      <trkpt lat="43.99708" lon="3.50905">
        <ele>671.1</ele>
        <time>2026-05-28T15:08:45.999Z</time>
      </trkpt>
      <trkpt lat="43.99707" lon="3.50905">
        <ele>670.9</ele>
        <time>2026-05-28T15:08:46.999Z</time>
      </trkpt>
      <trkpt lat="43.99707" lon="3.50904">
        <ele>670.5</ele>
        <time>2026-05-28T15:08:47.999Z</time>
      </trkpt>
      <trkpt lat="43.99706" lon="3.50903">
        <ele>670.4</ele>
        <time>2026-05-28T15:08:48.999Z</time>
      </trkpt>
      <trkpt lat="43.99706" lon="3.50902">
        <ele>670.7</ele>
        <time>2026-05-28T15:08:49.999Z</time>
      </trkpt>
      <trkpt lat="43.99705" lon="3.50901">
        <ele>670.7</ele>
        <time>2026-05-28T15:08:50.999Z</time>
      </trkpt>
      <trkpt lat="43.99704" lon="3.50899">
        <ele>671</ele>
        <time>2026-05-28T15:08:51.999Z</time>
      </trkpt>
      <trkpt lat="43.99703" lon="3.50898">
        <ele>671.3</ele>
        <time>2026-05-28T15:08:52.999Z</time>
      </trkpt>
      <trkpt lat="43.99702" lon="3.50897">
        <ele>671.2</ele>
        <time>2026-05-28T15:08:53.999Z</time>
      </trkpt>
      <trkpt lat="43.99701" lon="3.50897">
        <ele>671.2</ele>
        <time>2026-05-28T15:08:54.999Z</time>
      </trkpt>
      <trkpt lat="43.997" lon="3.50897">
        <ele>671</ele>
        <time>2026-05-28T15:08:55.999Z</time>
      </trkpt>
      <trkpt lat="43.997" lon="3.50897">
        <ele>671.1</ele>
        <time>2026-05-28T15:08:56.999Z</time>
      </trkpt>
      <trkpt lat="43.99699" lon="3.50896">
        <ele>671</ele>
        <time>2026-05-28T15:08:57.999Z</time>
      </trkpt>
      <trkpt lat="43.99697" lon="3.50894">
        <ele>670.7</ele>
        <time>2026-05-28T15:08:58.999Z</time>
      </trkpt>
      <trkpt lat="43.99697" lon="3.50893">
        <ele>670</ele>
        <time>2026-05-28T15:08:59.999Z</time>
      </trkpt>
      <trkpt lat="43.99696" lon="3.50892">
        <ele>669.7</ele>
        <time>2026-05-28T15:09:00.999Z</time>
      </trkpt>
      <trkpt lat="43.99695" lon="3.50891">
        <ele>669.7</ele>
        <time>2026-05-28T15:09:01.999Z</time>
      </trkpt>
      <trkpt lat="43.99695" lon="3.50889">
        <ele>670</ele>
        <time>2026-05-28T15:09:02.999Z</time>
      </trkpt>
      <trkpt lat="43.99694" lon="3.50888">
        <ele>669.9</ele>
        <time>2026-05-28T15:09:03.999Z</time>
      </trkpt>
      <trkpt lat="43.99693" lon="3.50887">
        <ele>669.8</ele>
        <time>2026-05-28T15:09:04.999Z</time>
      </trkpt>
      <trkpt lat="43.99693" lon="3.50887">
        <ele>669.9</ele>
        <time>2026-05-28T15:09:05.999Z</time>
      </trkpt>
      <trkpt lat="43.99693" lon="3.50888">
        <ele>670</ele>
        <time>2026-05-28T15:09:06.999Z</time>
      </trkpt>
      <trkpt lat="43.99693" lon="3.50889">
        <ele>670.1</ele>
        <time>2026-05-28T15:09:07.999Z</time>
      </trkpt>
      <trkpt lat="43.99693" lon="3.50889">
        <ele>670.2</ele>
        <time>2026-05-28T15:09:08.999Z</time>
      </trkpt>
      <trkpt lat="43.99693" lon="3.50889">
        <ele>670.5</ele>
        <time>2026-05-28T15:09:09.999Z</time>
      </trkpt>
      <trkpt lat="43.99693" lon="3.5089">
        <ele>670.5</ele>
        <time>2026-05-28T15:09:10.999Z</time>
      </trkpt>
      <trkpt lat="43.99693" lon="3.5089">
        <ele>670.5</ele>
        <time>2026-05-28T15:09:11.999Z</time>
      </trkpt>
      <trkpt lat="43.99693" lon="3.5089">
        <ele>670.4</ele>
        <time>2026-05-28T15:09:12.999Z</time>
      </trkpt>
      <trkpt lat="43.99693" lon="3.5089">
        <ele>670</ele>
        <time>2026-05-28T15:09:13.999Z</time>
      </trkpt>
      <trkpt lat="43.99693" lon="3.5089">
        <ele>669.9</ele>
        <time>2026-05-28T15:09:14.999Z</time>
      </trkpt>
      <trkpt lat="43.99693" lon="3.5089">
        <ele>670</ele>
        <time>2026-05-28T15:09:15.999Z</time>
      </trkpt>
      <trkpt lat="43.99693" lon="3.5089">
        <ele>669.6</ele>
        <time>2026-05-28T15:09:16.999Z</time>
      </trkpt>
      <trkpt lat="43.99693" lon="3.5089">
        <ele>669.3</ele>
        <time>2026-05-28T15:09:17.999Z</time>
      </trkpt>
      <trkpt lat="43.99693" lon="3.5089">
        <ele>669.2</ele>
        <time>2026-05-28T15:09:18.999Z</time>
      </trkpt>
      <trkpt lat="43.99693" lon="3.5089">
        <ele>669.1</ele>
        <time>2026-05-28T15:09:19.999Z</time>
      </trkpt>
      <trkpt lat="43.99693" lon="3.5089">
        <ele>669.2</ele>
        <time>2026-05-28T15:09:20.999Z</time>
      </trkpt>
      <trkpt lat="43.99693" lon="3.50891">
        <ele>669</ele>
        <time>2026-05-28T15:09:21.999Z</time>
      </trkpt>
      <trkpt lat="43.99693" lon="3.50891">
        <ele>669.5</ele>
        <time>2026-05-28T15:09:22.999Z</time>
      </trkpt>
      <trkpt lat="43.99693" lon="3.50891">
        <ele>669.8</ele>
        <time>2026-05-28T15:09:23.999Z</time>
      </trkpt>
      <trkpt lat="43.99693" lon="3.5089">
        <ele>669.8</ele>
        <time>2026-05-28T15:09:24.999Z</time>
      </trkpt>
      <trkpt lat="43.99693" lon="3.5089">
        <ele>669.8</ele>
        <time>2026-05-28T15:09:25.999Z</time>
      </trkpt>
      <trkpt lat="43.99693" lon="3.50889">
        <ele>669.7</ele>
        <time>2026-05-28T15:09:26.999Z</time>
      </trkpt>
      <trkpt lat="43.99693" lon="3.50889">
        <ele>669.4</ele>
        <time>2026-05-28T15:09:27.999Z</time>
      </trkpt>
      <trkpt lat="43.99693" lon="3.50889">
        <ele>669.1</ele>
        <time>2026-05-28T15:09:29.000Z</time>
      </trkpt>
      <trkpt lat="43.99693" lon="3.50888">
        <ele>668.7</ele>
        <time>2026-05-28T15:09:30.000Z</time>
      </trkpt>
      <trkpt lat="43.99693" lon="3.50888">
        <ele>668.5</ele>
        <time>2026-05-28T15:09:31.000Z</time>
      </trkpt>
      <trkpt lat="43.99693" lon="3.50887">
        <ele>668.3</ele>
        <time>2026-05-28T15:09:32.000Z</time>
      </trkpt>
      <trkpt lat="43.99693" lon="3.50886">
        <ele>668.3</ele>
        <time>2026-05-28T15:09:33.000Z</time>
      </trkpt>
      <trkpt lat="43.99693" lon="3.50884">
        <ele>668.1</ele>
        <time>2026-05-28T15:09:34.000Z</time>
      </trkpt>
      <trkpt lat="43.99693" lon="3.50881">
        <ele>667.8</ele>
        <time>2026-05-28T15:09:35.000Z</time>
      </trkpt>
      <trkpt lat="43.99693" lon="3.50879">
        <ele>667.7</ele>
        <time>2026-05-28T15:09:36.000Z</time>
      </trkpt>
      <trkpt lat="43.99692" lon="3.50877">
        <ele>667.6</ele>
        <time>2026-05-28T15:09:37.000Z</time>
      </trkpt>
      <trkpt lat="43.99692" lon="3.50875">
        <ele>667.5</ele>
        <time>2026-05-28T15:09:38.000Z</time>
      </trkpt>
      <trkpt lat="43.99691" lon="3.50873">
        <ele>667.5</ele>
        <time>2026-05-28T15:09:39.000Z</time>
      </trkpt>
      <trkpt lat="43.9969" lon="3.50871">
        <ele>667.3</ele>
        <time>2026-05-28T15:09:40.000Z</time>
      </trkpt>
      <trkpt lat="43.9969" lon="3.50869">
        <ele>667.5</ele>
        <time>2026-05-28T15:09:41.000Z</time>
      </trkpt>
      <trkpt lat="43.99689" lon="3.50868">
        <ele>667.5</ele>
        <time>2026-05-28T15:09:42.000Z</time>
      </trkpt>
      <trkpt lat="43.99688" lon="3.50867">
        <ele>667.5</ele>
        <time>2026-05-28T15:09:43.000Z</time>
      </trkpt>
      <trkpt lat="43.99688" lon="3.50866">
        <ele>667.4</ele>
        <time>2026-05-28T15:09:44.000Z</time>
      </trkpt>
      <trkpt lat="43.99687" lon="3.50865">
        <ele>667.3</ele>
        <time>2026-05-28T15:09:45.000Z</time>
      </trkpt>
      <trkpt lat="43.99686" lon="3.50863">
        <ele>667.2</ele>
        <time>2026-05-28T15:09:46.000Z</time>
      </trkpt>
      <trkpt lat="43.99686" lon="3.50861">
        <ele>667.2</ele>
        <time>2026-05-28T15:09:47.000Z</time>
      </trkpt>
      <trkpt lat="43.99685" lon="3.5086">
        <ele>667</ele>
        <time>2026-05-28T15:09:48.000Z</time>
      </trkpt>
      <trkpt lat="43.99685" lon="3.50858">
        <ele>666.8</ele>
        <time>2026-05-28T15:09:49.000Z</time>
      </trkpt>
      <trkpt lat="43.99684" lon="3.50857">
        <ele>666.7</ele>
        <time>2026-05-28T15:09:50.000Z</time>
      </trkpt>
      <trkpt lat="43.99684" lon="3.50856">
        <ele>666.6</ele>
        <time>2026-05-28T15:09:51.000Z</time>
      </trkpt>
      <trkpt lat="43.99684" lon="3.50855">
        <ele>666.5</ele>
        <time>2026-05-28T15:09:52.000Z</time>
      </trkpt>
      <trkpt lat="43.99683" lon="3.50853">
        <ele>666.7</ele>
        <time>2026-05-28T15:09:53.000Z</time>
      </trkpt>
      <trkpt lat="43.99683" lon="3.50851">
        <ele>666.7</ele>
        <time>2026-05-28T15:09:54.000Z</time>
      </trkpt>
      <trkpt lat="43.99682" lon="3.5085">
        <ele>666.6</ele>
        <time>2026-05-28T15:09:55.000Z</time>
      </trkpt>
      <trkpt lat="43.99682" lon="3.50849">
        <ele>666.2</ele>
        <time>2026-05-28T15:09:56.000Z</time>
      </trkpt>
      <trkpt lat="43.99681" lon="3.50847">
        <ele>666.1</ele>
        <time>2026-05-28T15:09:57.000Z</time>
      </trkpt>
      <trkpt lat="43.9968" lon="3.50845">
        <ele>666.3</ele>
        <time>2026-05-28T15:09:58.000Z</time>
      </trkpt>
      <trkpt lat="43.9968" lon="3.50843">
        <ele>666.3</ele>
        <time>2026-05-28T15:09:59.000Z</time>
      </trkpt>
      <trkpt lat="43.99679" lon="3.50842">
        <ele>665.7</ele>
        <time>2026-05-28T15:10:00.000Z</time>
      </trkpt>
      <trkpt lat="43.99679" lon="3.50842">
        <ele>665.4</ele>
        <time>2026-05-28T15:10:01.000Z</time>
      </trkpt>
      <trkpt lat="43.99679" lon="3.5084">
        <ele>665.3</ele>
        <time>2026-05-28T15:10:02.000Z</time>
      </trkpt>
      <trkpt lat="43.99678" lon="3.5084">
        <ele>665.2</ele>
        <time>2026-05-28T15:10:03.000Z</time>
      </trkpt>
      <trkpt lat="43.99678" lon="3.5084">
        <ele>664.6</ele>
        <time>2026-05-28T15:10:04.000Z</time>
      </trkpt>
      <trkpt lat="43.99677" lon="3.50838">
        <ele>664.3</ele>
        <time>2026-05-28T15:10:05.000Z</time>
      </trkpt>
      <trkpt lat="43.99677" lon="3.50837">
        <ele>664.1</ele>
        <time>2026-05-28T15:10:06.000Z</time>
      </trkpt>
      <trkpt lat="43.99676" lon="3.50835">
        <ele>663.9</ele>
        <time>2026-05-28T15:10:07.000Z</time>
      </trkpt>
      <trkpt lat="43.99676" lon="3.50834">
        <ele>663.8</ele>
        <time>2026-05-28T15:10:08.000Z</time>
      </trkpt>
      <trkpt lat="43.99675" lon="3.50833">
        <ele>664.1</ele>
        <time>2026-05-28T15:10:09.000Z</time>
      </trkpt>
      <trkpt lat="43.99674" lon="3.50832">
        <ele>664.4</ele>
        <time>2026-05-28T15:10:10.000Z</time>
      </trkpt>
      <trkpt lat="43.99674" lon="3.50831">
        <ele>664.5</ele>
        <time>2026-05-28T15:10:11.000Z</time>
      </trkpt>
      <trkpt lat="43.99673" lon="3.50829">
        <ele>664.5</ele>
        <time>2026-05-28T15:10:12.000Z</time>
      </trkpt>
      <trkpt lat="43.99673" lon="3.50828">
        <ele>664.8</ele>
        <time>2026-05-28T15:10:13.000Z</time>
      </trkpt>
      <trkpt lat="43.99673" lon="3.50826">
        <ele>664.8</ele>
        <time>2026-05-28T15:10:14.000Z</time>
      </trkpt>
      <trkpt lat="43.99673" lon="3.50825">
        <ele>665.2</ele>
        <time>2026-05-28T15:10:15.000Z</time>
      </trkpt>
      <trkpt lat="43.99672" lon="3.50823">
        <ele>665.5</ele>
        <time>2026-05-28T15:10:16.000Z</time>
      </trkpt>
      <trkpt lat="43.99671" lon="3.50821">
        <ele>665.6</ele>
        <time>2026-05-28T15:10:17.000Z</time>
      </trkpt>
      <trkpt lat="43.99671" lon="3.50819">
        <ele>665.7</ele>
        <time>2026-05-28T15:10:18.000Z</time>
      </trkpt>
      <trkpt lat="43.9967" lon="3.50817">
        <ele>665.5</ele>
        <time>2026-05-28T15:10:19.000Z</time>
      </trkpt>
      <trkpt lat="43.9967" lon="3.50816">
        <ele>665.5</ele>
        <time>2026-05-28T15:10:20.000Z</time>
      </trkpt>
      <trkpt lat="43.9967" lon="3.50814">
        <ele>665.5</ele>
        <time>2026-05-28T15:10:21.000Z</time>
      </trkpt>
      <trkpt lat="43.99669" lon="3.50813">
        <ele>665.4</ele>
        <time>2026-05-28T15:10:22.000Z</time>
      </trkpt>
      <trkpt lat="43.99669" lon="3.50812">
        <ele>665.1</ele>
        <time>2026-05-28T15:10:23.000Z</time>
      </trkpt>
      <trkpt lat="43.99668" lon="3.5081">
        <ele>665.1</ele>
        <time>2026-05-28T15:10:24.000Z</time>
      </trkpt>
      <trkpt lat="43.99667" lon="3.50809">
        <ele>664.9</ele>
        <time>2026-05-28T15:10:25.000Z</time>
      </trkpt>
      <trkpt lat="43.99666" lon="3.50807">
        <ele>664.9</ele>
        <time>2026-05-28T15:10:26.000Z</time>
      </trkpt>
      <trkpt lat="43.99665" lon="3.50807">
        <ele>664.7</ele>
        <time>2026-05-28T15:10:27.000Z</time>
      </trkpt>
      <trkpt lat="43.99664" lon="3.50806">
        <ele>664.6</ele>
        <time>2026-05-28T15:10:28.000Z</time>
      </trkpt>
      <trkpt lat="43.99663" lon="3.50806">
        <ele>664.3</ele>
        <time>2026-05-28T15:10:29.000Z</time>
      </trkpt>
      <trkpt lat="43.99663" lon="3.50805">
        <ele>664.2</ele>
        <time>2026-05-28T15:10:30.000Z</time>
      </trkpt>
      <trkpt lat="43.99662" lon="3.50804">
        <ele>663.8</ele>
        <time>2026-05-28T15:10:31.000Z</time>
      </trkpt>
      <trkpt lat="43.99661" lon="3.50802">
        <ele>663.1</ele>
        <time>2026-05-28T15:10:32.000Z</time>
      </trkpt>
      <trkpt lat="43.99661" lon="3.50802">
        <ele>662.7</ele>
        <time>2026-05-28T15:10:33.000Z</time>
      </trkpt>
      <trkpt lat="43.9966" lon="3.508">
        <ele>662.5</ele>
        <time>2026-05-28T15:10:34.000Z</time>
      </trkpt>
      <trkpt lat="43.9966" lon="3.508">
        <ele>662.2</ele>
        <time>2026-05-28T15:10:35.000Z</time>
      </trkpt>
      <trkpt lat="43.99659" lon="3.50799">
        <ele>661.5</ele>
        <time>2026-05-28T15:10:36.000Z</time>
      </trkpt>
      <trkpt lat="43.99659" lon="3.50798">
        <ele>661.4</ele>
        <time>2026-05-28T15:10:37.000Z</time>
      </trkpt>
      <trkpt lat="43.99658" lon="3.50797">
        <ele>661.3</ele>
        <time>2026-05-28T15:10:38.000Z</time>
      </trkpt>
      <trkpt lat="43.99657" lon="3.50796">
        <ele>661.3</ele>
        <time>2026-05-28T15:10:39.000Z</time>
      </trkpt>
      <trkpt lat="43.99656" lon="3.50794">
        <ele>661.1</ele>
        <time>2026-05-28T15:10:40.000Z</time>
      </trkpt>
      <trkpt lat="43.99655" lon="3.50793">
        <ele>661</ele>
        <time>2026-05-28T15:10:41.000Z</time>
      </trkpt>
      <trkpt lat="43.99655" lon="3.50792">
        <ele>661</ele>
        <time>2026-05-28T15:10:42.000Z</time>
      </trkpt>
      <trkpt lat="43.99654" lon="3.50791">
        <ele>660.7</ele>
        <time>2026-05-28T15:10:43.000Z</time>
      </trkpt>
      <trkpt lat="43.99654" lon="3.5079">
        <ele>660.9</ele>
        <time>2026-05-28T15:10:44.000Z</time>
      </trkpt>
      <trkpt lat="43.99653" lon="3.50788">
        <ele>661.1</ele>
        <time>2026-05-28T15:10:45.000Z</time>
      </trkpt>
      <trkpt lat="43.99652" lon="3.50788">
        <ele>660.9</ele>
        <time>2026-05-28T15:10:46.000Z</time>
      </trkpt>
      <trkpt lat="43.99651" lon="3.50787">
        <ele>660.3</ele>
        <time>2026-05-28T15:10:47.000Z</time>
      </trkpt>
      <trkpt lat="43.9965" lon="3.50787">
        <ele>659.9</ele>
        <time>2026-05-28T15:10:48.000Z</time>
      </trkpt>
      <trkpt lat="43.9965" lon="3.50786">
        <ele>659.5</ele>
        <time>2026-05-28T15:10:49.000Z</time>
      </trkpt>
      <trkpt lat="43.99649" lon="3.50785">
        <ele>659.6</ele>
        <time>2026-05-28T15:10:50.000Z</time>
      </trkpt>
      <trkpt lat="43.99649" lon="3.50785">
        <ele>659.4</ele>
        <time>2026-05-28T15:10:51.000Z</time>
      </trkpt>
      <trkpt lat="43.99649" lon="3.50783">
        <ele>659.2</ele>
        <time>2026-05-28T15:10:52.000Z</time>
      </trkpt>
      <trkpt lat="43.99648" lon="3.50782">
        <ele>659.1</ele>
        <time>2026-05-28T15:10:53.000Z</time>
      </trkpt>
      <trkpt lat="43.99647" lon="3.50781">
        <ele>659.2</ele>
        <time>2026-05-28T15:10:54.000Z</time>
      </trkpt>
      <trkpt lat="43.99646" lon="3.50781">
        <ele>659.1</ele>
        <time>2026-05-28T15:10:55.000Z</time>
      </trkpt>
      <trkpt lat="43.99645" lon="3.5078">
        <ele>659</ele>
        <time>2026-05-28T15:10:56.000Z</time>
      </trkpt>
      <trkpt lat="43.99644" lon="3.50778">
        <ele>658.6</ele>
        <time>2026-05-28T15:10:57.000Z</time>
      </trkpt>
      <trkpt lat="43.99643" lon="3.50777">
        <ele>658</ele>
        <time>2026-05-28T15:10:58.000Z</time>
      </trkpt>
      <trkpt lat="43.99642" lon="3.50776">
        <ele>657.6</ele>
        <time>2026-05-28T15:10:59.000Z</time>
      </trkpt>
      <trkpt lat="43.99641" lon="3.50774">
        <ele>657.5</ele>
        <time>2026-05-28T15:11:00.000Z</time>
      </trkpt>
      <trkpt lat="43.9964" lon="3.50773">
        <ele>657</ele>
        <time>2026-05-28T15:11:01.000Z</time>
      </trkpt>
      <trkpt lat="43.99639" lon="3.50772">
        <ele>656.6</ele>
        <time>2026-05-28T15:11:02.000Z</time>
      </trkpt>
      <trkpt lat="43.99638" lon="3.50772">
        <ele>656.2</ele>
        <time>2026-05-28T15:11:03.000Z</time>
      </trkpt>
      <trkpt lat="43.99638" lon="3.50771">
        <ele>656</ele>
        <time>2026-05-28T15:11:04.000Z</time>
      </trkpt>
      <trkpt lat="43.99637" lon="3.5077">
        <ele>655.7</ele>
        <time>2026-05-28T15:11:05.000Z</time>
      </trkpt>
      <trkpt lat="43.99637" lon="3.50768">
        <ele>655.4</ele>
        <time>2026-05-28T15:11:06.000Z</time>
      </trkpt>
      <trkpt lat="43.99636" lon="3.50767">
        <ele>655.2</ele>
        <time>2026-05-28T15:11:07.000Z</time>
      </trkpt>
      <trkpt lat="43.99636" lon="3.50766">
        <ele>654.8</ele>
        <time>2026-05-28T15:11:08.000Z</time>
      </trkpt>
      <trkpt lat="43.99635" lon="3.50765">
        <ele>654.3</ele>
        <time>2026-05-28T15:11:09.000Z</time>
      </trkpt>
      <trkpt lat="43.99635" lon="3.50764">
        <ele>654.3</ele>
        <time>2026-05-28T15:11:10.000Z</time>
      </trkpt>
      <trkpt lat="43.99634" lon="3.50763">
        <ele>654</ele>
        <time>2026-05-28T15:11:11.000Z</time>
      </trkpt>
      <trkpt lat="43.99633" lon="3.50762">
        <ele>653.7</ele>
        <time>2026-05-28T15:11:12.000Z</time>
      </trkpt>
      <trkpt lat="43.99633" lon="3.50761">
        <ele>653.6</ele>
        <time>2026-05-28T15:11:13.000Z</time>
      </trkpt>
      <trkpt lat="43.99632" lon="3.5076">
        <ele>653.6</ele>
        <time>2026-05-28T15:11:14.000Z</time>
      </trkpt>
      <trkpt lat="43.99632" lon="3.50759">
        <ele>653.7</ele>
        <time>2026-05-28T15:11:15.000Z</time>
      </trkpt>
      <trkpt lat="43.99632" lon="3.50758">
        <ele>653.4</ele>
        <time>2026-05-28T15:11:16.000Z</time>
      </trkpt>
      <trkpt lat="43.99631" lon="3.50758">
        <ele>653.2</ele>
        <time>2026-05-28T15:11:17.000Z</time>
      </trkpt>
      <trkpt lat="43.99631" lon="3.50756">
        <ele>653.1</ele>
        <time>2026-05-28T15:11:18.000Z</time>
      </trkpt>
      <trkpt lat="43.9963" lon="3.50755">
        <ele>652.7</ele>
        <time>2026-05-28T15:11:19.000Z</time>
      </trkpt>
      <trkpt lat="43.99629" lon="3.50754">
        <ele>652.6</ele>
        <time>2026-05-28T15:11:20.000Z</time>
      </trkpt>
      <trkpt lat="43.99628" lon="3.50753">
        <ele>652.7</ele>
        <time>2026-05-28T15:11:21.000Z</time>
      </trkpt>
      <trkpt lat="43.99628" lon="3.50753">
        <ele>652.6</ele>
        <time>2026-05-28T15:11:22.000Z</time>
      </trkpt>
      <trkpt lat="43.99627" lon="3.50752">
        <ele>652.1</ele>
        <time>2026-05-28T15:11:23.000Z</time>
      </trkpt>
      <trkpt lat="43.99627" lon="3.50751">
        <ele>651.9</ele>
        <time>2026-05-28T15:11:24.000Z</time>
      </trkpt>
      <trkpt lat="43.99627" lon="3.50749">
        <ele>651.9</ele>
        <time>2026-05-28T15:11:25.000Z</time>
      </trkpt>
      <trkpt lat="43.99626" lon="3.50749">
        <ele>651.7</ele>
        <time>2026-05-28T15:11:26.000Z</time>
      </trkpt>
      <trkpt lat="43.99626" lon="3.50749">
        <ele>651.8</ele>
        <time>2026-05-28T15:11:27.000Z</time>
      </trkpt>
      <trkpt lat="43.99625" lon="3.50748">
        <ele>651.5</ele>
        <time>2026-05-28T15:11:28.000Z</time>
      </trkpt>
      <trkpt lat="43.99625" lon="3.50748">
        <ele>651.4</ele>
        <time>2026-05-28T15:11:29.000Z</time>
      </trkpt>
      <trkpt lat="43.99625" lon="3.50748">
        <ele>651.2</ele>
        <time>2026-05-28T15:11:30.000Z</time>
      </trkpt>
      <trkpt lat="43.99625" lon="3.50748">
        <ele>651.2</ele>
        <time>2026-05-28T15:11:31.000Z</time>
      </trkpt>
      <trkpt lat="43.99625" lon="3.50748">
        <ele>651</ele>
        <time>2026-05-28T15:11:32.000Z</time>
      </trkpt>
      <trkpt lat="43.99625" lon="3.50748">
        <ele>651</ele>
        <time>2026-05-28T15:11:33.000Z</time>
      </trkpt>
      <trkpt lat="43.99625" lon="3.50748">
        <ele>651</ele>
        <time>2026-05-28T15:11:34.000Z</time>
      </trkpt>
      <trkpt lat="43.99625" lon="3.50748">
        <ele>650.9</ele>
        <time>2026-05-28T15:11:35.000Z</time>
      </trkpt>
      <trkpt lat="43.99626" lon="3.50746">
        <ele>650.6</ele>
        <time>2026-05-28T15:11:36.000Z</time>
      </trkpt>
      <trkpt lat="43.99626" lon="3.50746">
        <ele>650.4</ele>
        <time>2026-05-28T15:11:37.000Z</time>
      </trkpt>
      <trkpt lat="43.99626" lon="3.50745">
        <ele>650.4</ele>
        <time>2026-05-28T15:11:38.000Z</time>
      </trkpt>
      <trkpt lat="43.99625" lon="3.50745">
        <ele>650.5</ele>
        <time>2026-05-28T15:11:39.000Z</time>
      </trkpt>
      <trkpt lat="43.99625" lon="3.50745">
        <ele>650.5</ele>
        <time>2026-05-28T15:11:40.000Z</time>
      </trkpt>
      <trkpt lat="43.99625" lon="3.50745">
        <ele>650.4</ele>
        <time>2026-05-28T15:11:41.000Z</time>
      </trkpt>
      <trkpt lat="43.99625" lon="3.50745">
        <ele>650.4</ele>
        <time>2026-05-28T15:11:42.000Z</time>
      </trkpt>
      <trkpt lat="43.99625" lon="3.50745">
        <ele>650.2</ele>
        <time>2026-05-28T15:11:43.000Z</time>
      </trkpt>
      <trkpt lat="43.99625" lon="3.50745">
        <ele>650.1</ele>
        <time>2026-05-28T15:11:44.000Z</time>
      </trkpt>
      <trkpt lat="43.99625" lon="3.50744">
        <ele>650</ele>
        <time>2026-05-28T15:11:45.000Z</time>
      </trkpt>
      <trkpt lat="43.99625" lon="3.50744">
        <ele>649.9</ele>
        <time>2026-05-28T15:11:46.000Z</time>
      </trkpt>
      <trkpt lat="43.99625" lon="3.50743">
        <ele>650</ele>
        <time>2026-05-28T15:11:47.000Z</time>
      </trkpt>
      <trkpt lat="43.99624" lon="3.50743">
        <ele>650</ele>
        <time>2026-05-28T15:11:48.000Z</time>
      </trkpt>
      <trkpt lat="43.99623" lon="3.50742">
        <ele>649.9</ele>
        <time>2026-05-28T15:11:49.000Z</time>
      </trkpt>
      <trkpt lat="43.99623" lon="3.50742">
        <ele>649.5</ele>
        <time>2026-05-28T15:11:50.000Z</time>
      </trkpt>
      <trkpt lat="43.99622" lon="3.50742">
        <ele>649.7</ele>
        <time>2026-05-28T15:11:51.000Z</time>
      </trkpt>
      <trkpt lat="43.99622" lon="3.50741">
        <ele>649.7</ele>
        <time>2026-05-28T15:11:52.000Z</time>
      </trkpt>
      <trkpt lat="43.99622" lon="3.5074">
        <ele>649.5</ele>
        <time>2026-05-28T15:11:53.000Z</time>
      </trkpt>
      <trkpt lat="43.99621" lon="3.50739">
        <ele>649.5</ele>
        <time>2026-05-28T15:11:54.000Z</time>
      </trkpt>
      <trkpt lat="43.9962" lon="3.50737">
        <ele>649.3</ele>
        <time>2026-05-28T15:11:55.000Z</time>
      </trkpt>
      <trkpt lat="43.9962" lon="3.50735">
        <ele>649.6</ele>
        <time>2026-05-28T15:11:56.000Z</time>
      </trkpt>
      <trkpt lat="43.99619" lon="3.50733">
        <ele>649.8</ele>
        <time>2026-05-28T15:11:57.000Z</time>
      </trkpt>
      <trkpt lat="43.99619" lon="3.50733">
        <ele>650</ele>
        <time>2026-05-28T15:11:58.000Z</time>
      </trkpt>
      <trkpt lat="43.99618" lon="3.50732">
        <ele>650</ele>
        <time>2026-05-28T15:11:59.000Z</time>
      </trkpt>
      <trkpt lat="43.99617" lon="3.5073">
        <ele>649.8</ele>
        <time>2026-05-28T15:12:00.000Z</time>
      </trkpt>
      <trkpt lat="43.99616" lon="3.50729">
        <ele>649.8</ele>
        <time>2026-05-28T15:12:01.000Z</time>
      </trkpt>
      <trkpt lat="43.99615" lon="3.50728">
        <ele>649.9</ele>
        <time>2026-05-28T15:12:02.000Z</time>
      </trkpt>
      <trkpt lat="43.99614" lon="3.50726">
        <ele>650.1</ele>
        <time>2026-05-28T15:12:03.000Z</time>
      </trkpt>
      <trkpt lat="43.99613" lon="3.50726">
        <ele>650.1</ele>
        <time>2026-05-28T15:12:04.000Z</time>
      </trkpt>
      <trkpt lat="43.99612" lon="3.50725">
        <ele>650.3</ele>
        <time>2026-05-28T15:12:05.000Z</time>
      </trkpt>
      <trkpt lat="43.99612" lon="3.50724">
        <ele>649.9</ele>
        <time>2026-05-28T15:12:06.000Z</time>
      </trkpt>
      <trkpt lat="43.99611" lon="3.50723">
        <ele>649.7</ele>
        <time>2026-05-28T15:12:07.000Z</time>
      </trkpt>
      <trkpt lat="43.99611" lon="3.50722">
        <ele>649.4</ele>
        <time>2026-05-28T15:12:08.000Z</time>
      </trkpt>
      <trkpt lat="43.99611" lon="3.50722">
        <ele>649.1</ele>
        <time>2026-05-28T15:12:09.000Z</time>
      </trkpt>
      <trkpt lat="43.9961" lon="3.50721">
        <ele>649.1</ele>
        <time>2026-05-28T15:12:10.000Z</time>
      </trkpt>
      <trkpt lat="43.9961" lon="3.50721">
        <ele>648.8</ele>
        <time>2026-05-28T15:12:11.000Z</time>
      </trkpt>
      <trkpt lat="43.9961" lon="3.50721">
        <ele>648.3</ele>
        <time>2026-05-28T15:12:12.000Z</time>
      </trkpt>
      <trkpt lat="43.9961" lon="3.50721">
        <ele>648.2</ele>
        <time>2026-05-28T15:12:13.000Z</time>
      </trkpt>
      <trkpt lat="43.9961" lon="3.5072">
        <ele>648.2</ele>
        <time>2026-05-28T15:12:14.000Z</time>
      </trkpt>
      <trkpt lat="43.9961" lon="3.5072">
        <ele>648.2</ele>
        <time>2026-05-28T15:12:15.000Z</time>
      </trkpt>
      <trkpt lat="43.99609" lon="3.5072">
        <ele>648.1</ele>
        <time>2026-05-28T15:12:16.000Z</time>
      </trkpt>
      <trkpt lat="43.99609" lon="3.5072">
        <ele>647.8</ele>
        <time>2026-05-28T15:12:17.000Z</time>
      </trkpt>
      <trkpt lat="43.99609" lon="3.50718">
        <ele>647.4</ele>
        <time>2026-05-28T15:12:18.000Z</time>
      </trkpt>
      <trkpt lat="43.99608" lon="3.50716">
        <ele>647</ele>
        <time>2026-05-28T15:12:19.000Z</time>
      </trkpt>
      <trkpt lat="43.99607" lon="3.50715">
        <ele>646.9</ele>
        <time>2026-05-28T15:12:20.000Z</time>
      </trkpt>
      <trkpt lat="43.99607" lon="3.50715">
        <ele>646.8</ele>
        <time>2026-05-28T15:12:21.000Z</time>
      </trkpt>
      <trkpt lat="43.99606" lon="3.50715">
        <ele>646.6</ele>
        <time>2026-05-28T15:12:22.000Z</time>
      </trkpt>
      <trkpt lat="43.99606" lon="3.50714">
        <ele>646.6</ele>
        <time>2026-05-28T15:12:23.000Z</time>
      </trkpt>
      <trkpt lat="43.99606" lon="3.50714">
        <ele>646.4</ele>
        <time>2026-05-28T15:12:24.000Z</time>
      </trkpt>
      <trkpt lat="43.99606" lon="3.50714">
        <ele>646</ele>
        <time>2026-05-28T15:12:25.000Z</time>
      </trkpt>
      <trkpt lat="43.99606" lon="3.50713">
        <ele>645.6</ele>
        <time>2026-05-28T15:12:26.000Z</time>
      </trkpt>
      <trkpt lat="43.99606" lon="3.50713">
        <ele>645.7</ele>
        <time>2026-05-28T15:12:27.000Z</time>
      </trkpt>
      <trkpt lat="43.99606" lon="3.50713">
        <ele>645.5</ele>
        <time>2026-05-28T15:12:28.000Z</time>
      </trkpt>
      <trkpt lat="43.99605" lon="3.50712">
        <ele>645.4</ele>
        <time>2026-05-28T15:12:29.000Z</time>
      </trkpt>
      <trkpt lat="43.99604" lon="3.5071">
        <ele>645</ele>
        <time>2026-05-28T15:12:30.000Z</time>
      </trkpt>
      <trkpt lat="43.99603" lon="3.50709">
        <ele>644.5</ele>
        <time>2026-05-28T15:12:31.000Z</time>
      </trkpt>
      <trkpt lat="43.99602" lon="3.50707">
        <ele>644</ele>
        <time>2026-05-28T15:12:32.000Z</time>
      </trkpt>
      <trkpt lat="43.99602" lon="3.50705">
        <ele>643.6</ele>
        <time>2026-05-28T15:12:33.000Z</time>
      </trkpt>
      <trkpt lat="43.996" lon="3.50703">
        <ele>643.6</ele>
        <time>2026-05-28T15:12:34.000Z</time>
      </trkpt>
      <trkpt lat="43.99599" lon="3.507">
        <ele>643.6</ele>
        <time>2026-05-28T15:12:35.000Z</time>
      </trkpt>
      <trkpt lat="43.99598" lon="3.50699">
        <ele>643.5</ele>
        <time>2026-05-28T15:12:36.000Z</time>
      </trkpt>
      <trkpt lat="43.99598" lon="3.50697">
        <ele>643.6</ele>
        <time>2026-05-28T15:12:37.000Z</time>
      </trkpt>
      <trkpt lat="43.99597" lon="3.50695">
        <ele>643.5</ele>
        <time>2026-05-28T15:12:38.000Z</time>
      </trkpt>
      <trkpt lat="43.99596" lon="3.50694">
        <ele>643.5</ele>
        <time>2026-05-28T15:12:39.000Z</time>
      </trkpt>
      <trkpt lat="43.99596" lon="3.50693">
        <ele>643.5</ele>
        <time>2026-05-28T15:12:40.000Z</time>
      </trkpt>
      <trkpt lat="43.99595" lon="3.50692">
        <ele>643.3</ele>
        <time>2026-05-28T15:12:41.000Z</time>
      </trkpt>
      <trkpt lat="43.99594" lon="3.50689">
        <ele>643.3</ele>
        <time>2026-05-28T15:12:42.000Z</time>
      </trkpt>
      <trkpt lat="43.99593" lon="3.50687">
        <ele>643.3</ele>
        <time>2026-05-28T15:12:43.000Z</time>
      </trkpt>
      <trkpt lat="43.99593" lon="3.50685">
        <ele>643.3</ele>
        <time>2026-05-28T15:12:44.000Z</time>
      </trkpt>
      <trkpt lat="43.99592" lon="3.50684">
        <ele>643.2</ele>
        <time>2026-05-28T15:12:45.000Z</time>
      </trkpt>
      <trkpt lat="43.99591" lon="3.50682">
        <ele>643</ele>
        <time>2026-05-28T15:12:46.000Z</time>
      </trkpt>
      <trkpt lat="43.9959" lon="3.50681">
        <ele>643.7</ele>
        <time>2026-05-28T15:12:47.000Z</time>
      </trkpt>
      <trkpt lat="43.9959" lon="3.5068">
        <ele>643.4</ele>
        <time>2026-05-28T15:12:48.000Z</time>
      </trkpt>
      <trkpt lat="43.99589" lon="3.50679">
        <ele>643.5</ele>
        <time>2026-05-28T15:12:49.000Z</time>
      </trkpt>
      <trkpt lat="43.99588" lon="3.50678">
        <ele>643.3</ele>
        <time>2026-05-28T15:12:50.000Z</time>
      </trkpt>
      <trkpt lat="43.99587" lon="3.50676">
        <ele>643.1</ele>
        <time>2026-05-28T15:12:51.000Z</time>
      </trkpt>
      <trkpt lat="43.99587" lon="3.50675">
        <ele>642.8</ele>
        <time>2026-05-28T15:12:52.000Z</time>
      </trkpt>
      <trkpt lat="43.99586" lon="3.50674">
        <ele>642.2</ele>
        <time>2026-05-28T15:12:53.000Z</time>
      </trkpt>
      <trkpt lat="43.99586" lon="3.50673">
        <ele>641.6</ele>
        <time>2026-05-28T15:12:54.000Z</time>
      </trkpt>
      <trkpt lat="43.99585" lon="3.50672">
        <ele>641.2</ele>
        <time>2026-05-28T15:12:55.000Z</time>
      </trkpt>
      <trkpt lat="43.99584" lon="3.5067">
        <ele>640.9</ele>
        <time>2026-05-28T15:12:56.000Z</time>
      </trkpt>
      <trkpt lat="43.99583" lon="3.50668">
        <ele>640.9</ele>
        <time>2026-05-28T15:12:57.000Z</time>
      </trkpt>
      <trkpt lat="43.99581" lon="3.50667">
        <ele>640.6</ele>
        <time>2026-05-28T15:12:58.000Z</time>
      </trkpt>
      <trkpt lat="43.99581" lon="3.50666">
        <ele>640.2</ele>
        <time>2026-05-28T15:12:59.000Z</time>
      </trkpt>
      <trkpt lat="43.9958" lon="3.50665">
        <ele>640.3</ele>
        <time>2026-05-28T15:13:00.000Z</time>
      </trkpt>
      <trkpt lat="43.9958" lon="3.50664">
        <ele>640.1</ele>
        <time>2026-05-28T15:13:01.000Z</time>
      </trkpt>
      <trkpt lat="43.99579" lon="3.50663">
        <ele>639.7</ele>
        <time>2026-05-28T15:13:02.000Z</time>
      </trkpt>
      <trkpt lat="43.99579" lon="3.50662">
        <ele>639.5</ele>
        <time>2026-05-28T15:13:03.000Z</time>
      </trkpt>
      <trkpt lat="43.99578" lon="3.5066">
        <ele>639.2</ele>
        <time>2026-05-28T15:13:04.000Z</time>
      </trkpt>
      <trkpt lat="43.99578" lon="3.50659">
        <ele>639</ele>
        <time>2026-05-28T15:13:05.000Z</time>
      </trkpt>
      <trkpt lat="43.99578" lon="3.50658">
        <ele>638.6</ele>
        <time>2026-05-28T15:13:06.000Z</time>
      </trkpt>
      <trkpt lat="43.99578" lon="3.50658">
        <ele>638.1</ele>
        <time>2026-05-28T15:13:07.000Z</time>
      </trkpt>
      <trkpt lat="43.99577" lon="3.50657">
        <ele>637.2</ele>
        <time>2026-05-28T15:13:08.000Z</time>
      </trkpt>
      <trkpt lat="43.99576" lon="3.50656">
        <ele>636.7</ele>
        <time>2026-05-28T15:13:09.000Z</time>
      </trkpt>
      <trkpt lat="43.99576" lon="3.50654">
        <ele>637</ele>
        <time>2026-05-28T15:13:10.000Z</time>
      </trkpt>
      <trkpt lat="43.99575" lon="3.50653">
        <ele>636.9</ele>
        <time>2026-05-28T15:13:11.000Z</time>
      </trkpt>
      <trkpt lat="43.99574" lon="3.50651">
        <ele>636.8</ele>
        <time>2026-05-28T15:13:12.000Z</time>
      </trkpt>
      <trkpt lat="43.99573" lon="3.50651">
        <ele>636.6</ele>
        <time>2026-05-28T15:13:13.000Z</time>
      </trkpt>
      <trkpt lat="43.99572" lon="3.5065">
        <ele>636.2</ele>
        <time>2026-05-28T15:13:14.000Z</time>
      </trkpt>
      <trkpt lat="43.99571" lon="3.5065">
        <ele>635.9</ele>
        <time>2026-05-28T15:13:15.000Z</time>
      </trkpt>
      <trkpt lat="43.9957" lon="3.50649">
        <ele>635.7</ele>
        <time>2026-05-28T15:13:16.000Z</time>
      </trkpt>
      <trkpt lat="43.9957" lon="3.50647">
        <ele>635.8</ele>
        <time>2026-05-28T15:13:17.000Z</time>
      </trkpt>
      <trkpt lat="43.99569" lon="3.50646">
        <ele>635.9</ele>
        <time>2026-05-28T15:13:18.000Z</time>
      </trkpt>
      <trkpt lat="43.99568" lon="3.50645">
        <ele>636</ele>
        <time>2026-05-28T15:13:19.000Z</time>
      </trkpt>
      <trkpt lat="43.99568" lon="3.50643">
        <ele>636</ele>
        <time>2026-05-28T15:13:20.000Z</time>
      </trkpt>
      <trkpt lat="43.99568" lon="3.50643">
        <ele>636.3</ele>
        <time>2026-05-28T15:13:21.000Z</time>
      </trkpt>
      <trkpt lat="43.99568" lon="3.50641">
        <ele>636.1</ele>
        <time>2026-05-28T15:13:22.000Z</time>
      </trkpt>
      <trkpt lat="43.99567" lon="3.5064">
        <ele>636.1</ele>
        <time>2026-05-28T15:13:23.000Z</time>
      </trkpt>
      <trkpt lat="43.99566" lon="3.50639">
        <ele>635.9</ele>
        <time>2026-05-28T15:13:24.000Z</time>
      </trkpt>
      <trkpt lat="43.99566" lon="3.50638">
        <ele>636.2</ele>
        <time>2026-05-28T15:13:25.000Z</time>
      </trkpt>
      <trkpt lat="43.99566" lon="3.50637">
        <ele>636.5</ele>
        <time>2026-05-28T15:13:26.000Z</time>
      </trkpt>
      <trkpt lat="43.99566" lon="3.50636">
        <ele>636.9</ele>
        <time>2026-05-28T15:13:27.000Z</time>
      </trkpt>
      <trkpt lat="43.99565" lon="3.50635">
        <ele>637</ele>
        <time>2026-05-28T15:13:28.000Z</time>
      </trkpt>
      <trkpt lat="43.99564" lon="3.50634">
        <ele>636.7</ele>
        <time>2026-05-28T15:13:29.000Z</time>
      </trkpt>
      <trkpt lat="43.99564" lon="3.50634">
        <ele>636.4</ele>
        <time>2026-05-28T15:13:30.000Z</time>
      </trkpt>
      <trkpt lat="43.99563" lon="3.50633">
        <ele>635.9</ele>
        <time>2026-05-28T15:13:31.000Z</time>
      </trkpt>
      <trkpt lat="43.99562" lon="3.50632">
        <ele>635.6</ele>
        <time>2026-05-28T15:13:32.000Z</time>
      </trkpt>
      <trkpt lat="43.99562" lon="3.50632">
        <ele>635.3</ele>
        <time>2026-05-28T15:13:33.000Z</time>
      </trkpt>
      <trkpt lat="43.99561" lon="3.50632">
        <ele>635</ele>
        <time>2026-05-28T15:13:34.000Z</time>
      </trkpt>
      <trkpt lat="43.99561" lon="3.50631">
        <ele>634.9</ele>
        <time>2026-05-28T15:13:35.000Z</time>
      </trkpt>
      <trkpt lat="43.9956" lon="3.5063">
        <ele>634.9</ele>
        <time>2026-05-28T15:13:36.000Z</time>
      </trkpt>
      <trkpt lat="43.9956" lon="3.5063">
        <ele>635.3</ele>
        <time>2026-05-28T15:13:37.000Z</time>
      </trkpt>
      <trkpt lat="43.99559" lon="3.5063">
        <ele>635.4</ele>
        <time>2026-05-28T15:13:38.000Z</time>
      </trkpt>
      <trkpt lat="43.99559" lon="3.50629">
        <ele>635.3</ele>
        <time>2026-05-28T15:13:39.000Z</time>
      </trkpt>
      <trkpt lat="43.99558" lon="3.50628">
        <ele>635.1</ele>
        <time>2026-05-28T15:13:40.000Z</time>
      </trkpt>
      <trkpt lat="43.99558" lon="3.50626">
        <ele>634.7</ele>
        <time>2026-05-28T15:13:41.000Z</time>
      </trkpt>
      <trkpt lat="43.99557" lon="3.50625">
        <ele>634.6</ele>
        <time>2026-05-28T15:13:42.000Z</time>
      </trkpt>
      <trkpt lat="43.99557" lon="3.50624">
        <ele>634.4</ele>
        <time>2026-05-28T15:13:43.000Z</time>
      </trkpt>
      <trkpt lat="43.99557" lon="3.50624">
        <ele>634.4</ele>
        <time>2026-05-28T15:13:44.000Z</time>
      </trkpt>
      <trkpt lat="43.99557" lon="3.50624">
        <ele>634.3</ele>
        <time>2026-05-28T15:13:45.000Z</time>
      </trkpt>
      <trkpt lat="43.99557" lon="3.50623">
        <ele>634.6</ele>
        <time>2026-05-28T15:13:46.000Z</time>
      </trkpt>
      <trkpt lat="43.99556" lon="3.50623">
        <ele>634.4</ele>
        <time>2026-05-28T15:13:47.000Z</time>
      </trkpt>
      <trkpt lat="43.99556" lon="3.50623">
        <ele>634.5</ele>
        <time>2026-05-28T15:13:48.000Z</time>
      </trkpt>
      <trkpt lat="43.99556" lon="3.50622">
        <ele>634.7</ele>
        <time>2026-05-28T15:13:49.000Z</time>
      </trkpt>
      <trkpt lat="43.99556" lon="3.50622">
        <ele>634.5</ele>
        <time>2026-05-28T15:13:50.000Z</time>
      </trkpt>
      <trkpt lat="43.99556" lon="3.50622">
        <ele>634.4</ele>
        <time>2026-05-28T15:13:51.000Z</time>
      </trkpt>
      <trkpt lat="43.99555" lon="3.50621">
        <ele>634.1</ele>
        <time>2026-05-28T15:13:52.000Z</time>
      </trkpt>
      <trkpt lat="43.99554" lon="3.5062">
        <ele>633.9</ele>
        <time>2026-05-28T15:13:53.000Z</time>
      </trkpt>
      <trkpt lat="43.99554" lon="3.50618">
        <ele>633.7</ele>
        <time>2026-05-28T15:13:54.000Z</time>
      </trkpt>
      <trkpt lat="43.99553" lon="3.50618">
        <ele>633.6</ele>
        <time>2026-05-28T15:13:55.000Z</time>
      </trkpt>
      <trkpt lat="43.99553" lon="3.50618">
        <ele>633.3</ele>
        <time>2026-05-28T15:13:56.000Z</time>
      </trkpt>
      <trkpt lat="43.99553" lon="3.50618">
        <ele>633.1</ele>
        <time>2026-05-28T15:13:57.000Z</time>
      </trkpt>
      <trkpt lat="43.99553" lon="3.50617">
        <ele>632.7</ele>
        <time>2026-05-28T15:13:58.000Z</time>
      </trkpt>
      <trkpt lat="43.99553" lon="3.50617">
        <ele>632.6</ele>
        <time>2026-05-28T15:13:59.000Z</time>
      </trkpt>
      <trkpt lat="43.99553" lon="3.50617">
        <ele>632.5</ele>
        <time>2026-05-28T15:14:00.000Z</time>
      </trkpt>
      <trkpt lat="43.99553" lon="3.50617">
        <ele>632.2</ele>
        <time>2026-05-28T15:14:01.000Z</time>
      </trkpt>
      <trkpt lat="43.99552" lon="3.50616">
        <ele>632.1</ele>
        <time>2026-05-28T15:14:02.000Z</time>
      </trkpt>
      <trkpt lat="43.99552" lon="3.50616">
        <ele>632.1</ele>
        <time>2026-05-28T15:14:03.000Z</time>
      </trkpt>
      <trkpt lat="43.99552" lon="3.50615">
        <ele>632.2</ele>
        <time>2026-05-28T15:14:04.000Z</time>
      </trkpt>
      <trkpt lat="43.99551" lon="3.50615">
        <ele>632</ele>
        <time>2026-05-28T15:14:05.000Z</time>
      </trkpt>
      <trkpt lat="43.99551" lon="3.50615">
        <ele>631.9</ele>
        <time>2026-05-28T15:14:06.000Z</time>
      </trkpt>
      <trkpt lat="43.99551" lon="3.50614">
        <ele>631.5</ele>
        <time>2026-05-28T15:14:07.000Z</time>
      </trkpt>
      <trkpt lat="43.99551" lon="3.50614">
        <ele>631.2</ele>
        <time>2026-05-28T15:14:08.000Z</time>
      </trkpt>
      <trkpt lat="43.99551" lon="3.50613">
        <ele>631</ele>
        <time>2026-05-28T15:14:09.000Z</time>
      </trkpt>
      <trkpt lat="43.9955" lon="3.50613">
        <ele>630.9</ele>
        <time>2026-05-28T15:14:10.000Z</time>
      </trkpt>
      <trkpt lat="43.9955" lon="3.50613">
        <ele>630.9</ele>
        <time>2026-05-28T15:14:11.000Z</time>
      </trkpt>
      <trkpt lat="43.9955" lon="3.50612">
        <ele>630.7</ele>
        <time>2026-05-28T15:14:12.000Z</time>
      </trkpt>
      <trkpt lat="43.9955" lon="3.50612">
        <ele>630.6</ele>
        <time>2026-05-28T15:14:13.000Z</time>
      </trkpt>
      <trkpt lat="43.9955" lon="3.50612">
        <ele>630.6</ele>
        <time>2026-05-28T15:14:14.000Z</time>
      </trkpt>
      <trkpt lat="43.9955" lon="3.50611">
        <ele>630.5</ele>
        <time>2026-05-28T15:14:15.000Z</time>
      </trkpt>
      <trkpt lat="43.99549" lon="3.50609">
        <ele>630.4</ele>
        <time>2026-05-28T15:14:16.000Z</time>
      </trkpt>
      <trkpt lat="43.99548" lon="3.50607">
        <ele>630.2</ele>
        <time>2026-05-28T15:14:17.000Z</time>
      </trkpt>
      <trkpt lat="43.99547" lon="3.50604">
        <ele>629.7</ele>
        <time>2026-05-28T15:14:18.000Z</time>
      </trkpt>
      <trkpt lat="43.99546" lon="3.50602">
        <ele>629.2</ele>
        <time>2026-05-28T15:14:19.000Z</time>
      </trkpt>
      <trkpt lat="43.99546" lon="3.50602">
        <ele>629</ele>
        <time>2026-05-28T15:14:20.000Z</time>
      </trkpt>
      <trkpt lat="43.99546" lon="3.50602">
        <ele>628.9</ele>
        <time>2026-05-28T15:14:21.000Z</time>
      </trkpt>
      <trkpt lat="43.99546" lon="3.50601">
        <ele>628.6</ele>
        <time>2026-05-28T15:14:22.000Z</time>
      </trkpt>
      <trkpt lat="43.99545" lon="3.50601">
        <ele>628.3</ele>
        <time>2026-05-28T15:14:23.000Z</time>
      </trkpt>
      <trkpt lat="43.99544" lon="3.50599">
        <ele>628.2</ele>
        <time>2026-05-28T15:14:24.000Z</time>
      </trkpt>
      <trkpt lat="43.99543" lon="3.50598">
        <ele>628.2</ele>
        <time>2026-05-28T15:14:25.000Z</time>
      </trkpt>
      <trkpt lat="43.99542" lon="3.50596">
        <ele>628</ele>
        <time>2026-05-28T15:14:26.000Z</time>
      </trkpt>
      <trkpt lat="43.99541" lon="3.50594">
        <ele>627.9</ele>
        <time>2026-05-28T15:14:27.000Z</time>
      </trkpt>
      <trkpt lat="43.9954" lon="3.50592">
        <ele>627.8</ele>
        <time>2026-05-28T15:14:28.000Z</time>
      </trkpt>
      <trkpt lat="43.99539" lon="3.5059">
        <ele>627.6</ele>
        <time>2026-05-28T15:14:29.000Z</time>
      </trkpt>
      <trkpt lat="43.99539" lon="3.50589">
        <ele>627.5</ele>
        <time>2026-05-28T15:14:30.000Z</time>
      </trkpt>
      <trkpt lat="43.99538" lon="3.50588">
        <ele>627.4</ele>
        <time>2026-05-28T15:14:31.000Z</time>
      </trkpt>
      <trkpt lat="43.99538" lon="3.50587">
        <ele>627.2</ele>
        <time>2026-05-28T15:14:32.000Z</time>
      </trkpt>
      <trkpt lat="43.99537" lon="3.50586">
        <ele>626.8</ele>
        <time>2026-05-28T15:14:33.000Z</time>
      </trkpt>
      <trkpt lat="43.99536" lon="3.50584">
        <ele>626.3</ele>
        <time>2026-05-28T15:14:34.000Z</time>
      </trkpt>
      <trkpt lat="43.99536" lon="3.50583">
        <ele>625.9</ele>
        <time>2026-05-28T15:14:35.000Z</time>
      </trkpt>
      <trkpt lat="43.99535" lon="3.50582">
        <ele>625.9</ele>
        <time>2026-05-28T15:14:36.000Z</time>
      </trkpt>
      <trkpt lat="43.99535" lon="3.50581">
        <ele>625.9</ele>
        <time>2026-05-28T15:14:37.000Z</time>
      </trkpt>
      <trkpt lat="43.99534" lon="3.50579">
        <ele>625.6</ele>
        <time>2026-05-28T15:14:38.000Z</time>
      </trkpt>
      <trkpt lat="43.99533" lon="3.50578">
        <ele>625.5</ele>
        <time>2026-05-28T15:14:39.000Z</time>
      </trkpt>
      <trkpt lat="43.99533" lon="3.50577">
        <ele>625.6</ele>
        <time>2026-05-28T15:14:40.000Z</time>
      </trkpt>
      <trkpt lat="43.99532" lon="3.50576">
        <ele>625.8</ele>
        <time>2026-05-28T15:14:41.000Z</time>
      </trkpt>
      <trkpt lat="43.99532" lon="3.50575">
        <ele>625.8</ele>
        <time>2026-05-28T15:14:42.000Z</time>
      </trkpt>
      <trkpt lat="43.99531" lon="3.50575">
        <ele>625.6</ele>
        <time>2026-05-28T15:14:43.000Z</time>
      </trkpt>
      <trkpt lat="43.99531" lon="3.50574">
        <ele>625.8</ele>
        <time>2026-05-28T15:14:44.000Z</time>
      </trkpt>
      <trkpt lat="43.9953" lon="3.50573">
        <ele>625.6</ele>
        <time>2026-05-28T15:14:45.000Z</time>
      </trkpt>
      <trkpt lat="43.9953" lon="3.50572">
        <ele>625.7</ele>
        <time>2026-05-28T15:14:46.000Z</time>
      </trkpt>
      <trkpt lat="43.99529" lon="3.50571">
        <ele>625.9</ele>
        <time>2026-05-28T15:14:47.000Z</time>
      </trkpt>
      <trkpt lat="43.99529" lon="3.50571">
        <ele>626.1</ele>
        <time>2026-05-28T15:14:48.000Z</time>
      </trkpt>
      <trkpt lat="43.99528" lon="3.5057">
        <ele>626.1</ele>
        <time>2026-05-28T15:14:49.000Z</time>
      </trkpt>
      <trkpt lat="43.99527" lon="3.50569">
        <ele>626</ele>
        <time>2026-05-28T15:14:50.000Z</time>
      </trkpt>
      <trkpt lat="43.99527" lon="3.50568">
        <ele>625.8</ele>
        <time>2026-05-28T15:14:51.000Z</time>
      </trkpt>
      <trkpt lat="43.99526" lon="3.50567">
        <ele>625.8</ele>
        <time>2026-05-28T15:14:52.000Z</time>
      </trkpt>
      <trkpt lat="43.99526" lon="3.50565">
        <ele>625.6</ele>
        <time>2026-05-28T15:14:53.000Z</time>
      </trkpt>
      <trkpt lat="43.99526" lon="3.50565">
        <ele>625.5</ele>
        <time>2026-05-28T15:14:54.000Z</time>
      </trkpt>
      <trkpt lat="43.99525" lon="3.50563">
        <ele>625.6</ele>
        <time>2026-05-28T15:14:55.000Z</time>
      </trkpt>
      <trkpt lat="43.99524" lon="3.50562">
        <ele>625.6</ele>
        <time>2026-05-28T15:14:56.000Z</time>
      </trkpt>
      <trkpt lat="43.99524" lon="3.50562">
        <ele>625.7</ele>
        <time>2026-05-28T15:14:57.000Z</time>
      </trkpt>
      <trkpt lat="43.99523" lon="3.50561">
        <ele>625.9</ele>
        <time>2026-05-28T15:14:58.000Z</time>
      </trkpt>
      <trkpt lat="43.99522" lon="3.5056">
        <ele>625.7</ele>
        <time>2026-05-28T15:14:59.000Z</time>
      </trkpt>
      <trkpt lat="43.99521" lon="3.50559">
        <ele>625.7</ele>
        <time>2026-05-28T15:15:00.000Z</time>
      </trkpt>
      <trkpt lat="43.99521" lon="3.50559">
        <ele>625.5</ele>
        <time>2026-05-28T15:15:01.000Z</time>
      </trkpt>
      <trkpt lat="43.9952" lon="3.50559">
        <ele>625.2</ele>
        <time>2026-05-28T15:15:02.000Z</time>
      </trkpt>
      <trkpt lat="43.9952" lon="3.50558">
        <ele>625.1</ele>
        <time>2026-05-28T15:15:03.000Z</time>
      </trkpt>
      <trkpt lat="43.99519" lon="3.50558">
        <ele>624.7</ele>
        <time>2026-05-28T15:15:04.000Z</time>
      </trkpt>
      <trkpt lat="43.99519" lon="3.50558">
        <ele>624.6</ele>
        <time>2026-05-28T15:15:05.000Z</time>
      </trkpt>
      <trkpt lat="43.99518" lon="3.50558">
        <ele>624.3</ele>
        <time>2026-05-28T15:15:06.000Z</time>
      </trkpt>
      <trkpt lat="43.99518" lon="3.50558">
        <ele>623.9</ele>
        <time>2026-05-28T15:15:07.000Z</time>
      </trkpt>
      <trkpt lat="43.99518" lon="3.50558">
        <ele>623.5</ele>
        <time>2026-05-28T15:15:08.000Z</time>
      </trkpt>
      <trkpt lat="43.99517" lon="3.50557">
        <ele>623.3</ele>
        <time>2026-05-28T15:15:09.000Z</time>
      </trkpt>
      <trkpt lat="43.99517" lon="3.50556">
        <ele>623.3</ele>
        <time>2026-05-28T15:15:10.000Z</time>
      </trkpt>
      <trkpt lat="43.99517" lon="3.50555">
        <ele>623.1</ele>
        <time>2026-05-28T15:15:11.000Z</time>
      </trkpt>
      <trkpt lat="43.99517" lon="3.50554">
        <ele>622.8</ele>
        <time>2026-05-28T15:15:12.000Z</time>
      </trkpt>
      <trkpt lat="43.99516" lon="3.50554">
        <ele>622.3</ele>
        <time>2026-05-28T15:15:13.000Z</time>
      </trkpt>
      <trkpt lat="43.99516" lon="3.50554">
        <ele>622</ele>
        <time>2026-05-28T15:15:14.000Z</time>
      </trkpt>
      <trkpt lat="43.99515" lon="3.50553">
        <ele>621.8</ele>
        <time>2026-05-28T15:15:15.000Z</time>
      </trkpt>
      <trkpt lat="43.99514" lon="3.50553">
        <ele>621</ele>
        <time>2026-05-28T15:15:16.000Z</time>
      </trkpt>
      <trkpt lat="43.99514" lon="3.50552">
        <ele>620.5</ele>
        <time>2026-05-28T15:15:17.000Z</time>
      </trkpt>
      <trkpt lat="43.99514" lon="3.50551">
        <ele>620</ele>
        <time>2026-05-28T15:15:18.000Z</time>
      </trkpt>
      <trkpt lat="43.99514" lon="3.5055">
        <ele>619.8</ele>
        <time>2026-05-28T15:15:19.000Z</time>
      </trkpt>
      <trkpt lat="43.99514" lon="3.50548">
        <ele>619.2</ele>
        <time>2026-05-28T15:15:20.000Z</time>
      </trkpt>
      <trkpt lat="43.99514" lon="3.50547">
        <ele>619</ele>
        <time>2026-05-28T15:15:21.000Z</time>
      </trkpt>
      <trkpt lat="43.99513" lon="3.50546">
        <ele>619.2</ele>
        <time>2026-05-28T15:15:22.000Z</time>
      </trkpt>
      <trkpt lat="43.99513" lon="3.50545">
        <ele>618.8</ele>
        <time>2026-05-28T15:15:23.000Z</time>
      </trkpt>
      <trkpt lat="43.99512" lon="3.50543">
        <ele>618.6</ele>
        <time>2026-05-28T15:15:24.000Z</time>
      </trkpt>
      <trkpt lat="43.99512" lon="3.50542">
        <ele>618.3</ele>
        <time>2026-05-28T15:15:25.000Z</time>
      </trkpt>
      <trkpt lat="43.99511" lon="3.50542">
        <ele>618.2</ele>
        <time>2026-05-28T15:15:26.000Z</time>
      </trkpt>
      <trkpt lat="43.9951" lon="3.50541">
        <ele>618.1</ele>
        <time>2026-05-28T15:15:27.000Z</time>
      </trkpt>
      <trkpt lat="43.99509" lon="3.50541">
        <ele>617.7</ele>
        <time>2026-05-28T15:15:28.000Z</time>
      </trkpt>
      <trkpt lat="43.99509" lon="3.5054">
        <ele>617.3</ele>
        <time>2026-05-28T15:15:29.000Z</time>
      </trkpt>
      <trkpt lat="43.99508" lon="3.50539">
        <ele>616.9</ele>
        <time>2026-05-28T15:15:30.000Z</time>
      </trkpt>
      <trkpt lat="43.99508" lon="3.50538">
        <ele>616.5</ele>
        <time>2026-05-28T15:15:31.000Z</time>
      </trkpt>
      <trkpt lat="43.99507" lon="3.50537">
        <ele>616.3</ele>
        <time>2026-05-28T15:15:32.000Z</time>
      </trkpt>
      <trkpt lat="43.99506" lon="3.50537">
        <ele>616</ele>
        <time>2026-05-28T15:15:33.000Z</time>
      </trkpt>
      <trkpt lat="43.99505" lon="3.50536">
        <ele>616.3</ele>
        <time>2026-05-28T15:15:34.000Z</time>
      </trkpt>
      <trkpt lat="43.99504" lon="3.50536">
        <ele>616.4</ele>
        <time>2026-05-28T15:15:35.000Z</time>
      </trkpt>
      <trkpt lat="43.99503" lon="3.50536">
        <ele>616.5</ele>
        <time>2026-05-28T15:15:36.000Z</time>
      </trkpt>
      <trkpt lat="43.99503" lon="3.50535">
        <ele>616.4</ele>
        <time>2026-05-28T15:15:37.000Z</time>
      </trkpt>
      <trkpt lat="43.99502" lon="3.50535">
        <ele>616.4</ele>
        <time>2026-05-28T15:15:38.000Z</time>
      </trkpt>
      <trkpt lat="43.99502" lon="3.50534">
        <ele>616.5</ele>
        <time>2026-05-28T15:15:39.000Z</time>
      </trkpt>
      <trkpt lat="43.99501" lon="3.50534">
        <ele>616.3</ele>
        <time>2026-05-28T15:15:40.000Z</time>
      </trkpt>
      <trkpt lat="43.99501" lon="3.50533">
        <ele>616.4</ele>
        <time>2026-05-28T15:15:41.000Z</time>
      </trkpt>
      <trkpt lat="43.995" lon="3.50533">
        <ele>616.4</ele>
        <time>2026-05-28T15:15:42.000Z</time>
      </trkpt>
      <trkpt lat="43.99499" lon="3.50533">
        <ele>616.2</ele>
        <time>2026-05-28T15:15:43.000Z</time>
      </trkpt>
      <trkpt lat="43.99498" lon="3.50533">
        <ele>615.8</ele>
        <time>2026-05-28T15:15:44.000Z</time>
      </trkpt>
      <trkpt lat="43.99498" lon="3.50532">
        <ele>615.7</ele>
        <time>2026-05-28T15:15:45.000Z</time>
      </trkpt>
      <trkpt lat="43.99497" lon="3.50531">
        <ele>615.4</ele>
        <time>2026-05-28T15:15:46.000Z</time>
      </trkpt>
      <trkpt lat="43.99496" lon="3.50531">
        <ele>614.9</ele>
        <time>2026-05-28T15:15:47.000Z</time>
      </trkpt>
      <trkpt lat="43.99496" lon="3.50531">
        <ele>614.4</ele>
        <time>2026-05-28T15:15:48.000Z</time>
      </trkpt>
      <trkpt lat="43.99495" lon="3.5053">
        <ele>614.1</ele>
        <time>2026-05-28T15:15:49.000Z</time>
      </trkpt>
      <trkpt lat="43.99494" lon="3.5053">
        <ele>613.9</ele>
        <time>2026-05-28T15:15:50.000Z</time>
      </trkpt>
      <trkpt lat="43.99494" lon="3.5053">
        <ele>613.8</ele>
        <time>2026-05-28T15:15:51.000Z</time>
      </trkpt>
      <trkpt lat="43.99494" lon="3.50529">
        <ele>613.7</ele>
        <time>2026-05-28T15:15:52.000Z</time>
      </trkpt>
      <trkpt lat="43.99493" lon="3.50529">
        <ele>613.4</ele>
        <time>2026-05-28T15:15:53.000Z</time>
      </trkpt>
      <trkpt lat="43.99493" lon="3.50527">
        <ele>613.6</ele>
        <time>2026-05-28T15:15:54.000Z</time>
      </trkpt>
      <trkpt lat="43.99493" lon="3.50527">
        <ele>613.4</ele>
        <time>2026-05-28T15:15:55.000Z</time>
      </trkpt>
      <trkpt lat="43.99493" lon="3.50526">
        <ele>613.4</ele>
        <time>2026-05-28T15:15:56.000Z</time>
      </trkpt>
      <trkpt lat="43.99492" lon="3.50525">
        <ele>613.4</ele>
        <time>2026-05-28T15:15:57.000Z</time>
      </trkpt>
      <trkpt lat="43.99492" lon="3.50525">
        <ele>613.2</ele>
        <time>2026-05-28T15:15:58.000Z</time>
      </trkpt>
      <trkpt lat="43.99491" lon="3.50524">
        <ele>613</ele>
        <time>2026-05-28T15:15:59.000Z</time>
      </trkpt>
      <trkpt lat="43.99491" lon="3.50523">
        <ele>612.9</ele>
        <time>2026-05-28T15:16:00.000Z</time>
      </trkpt>
      <trkpt lat="43.9949" lon="3.50523">
        <ele>612.8</ele>
        <time>2026-05-28T15:16:01.000Z</time>
      </trkpt>
      <trkpt lat="43.9949" lon="3.50522">
        <ele>612.6</ele>
        <time>2026-05-28T15:16:02.000Z</time>
      </trkpt>
      <trkpt lat="43.99489" lon="3.5052">
        <ele>612.5</ele>
        <time>2026-05-28T15:16:03.000Z</time>
      </trkpt>
      <trkpt lat="43.99487" lon="3.50519">
        <ele>612.3</ele>
        <time>2026-05-28T15:16:04.000Z</time>
      </trkpt>
      <trkpt lat="43.99486" lon="3.50518">
        <ele>612.1</ele>
        <time>2026-05-28T15:16:05.000Z</time>
      </trkpt>
      <trkpt lat="43.99485" lon="3.50518">
        <ele>612</ele>
        <time>2026-05-28T15:16:06.000Z</time>
      </trkpt>
      <trkpt lat="43.99485" lon="3.50518">
        <ele>611.6</ele>
        <time>2026-05-28T15:16:07.000Z</time>
      </trkpt>
      <trkpt lat="43.99484" lon="3.50517">
        <ele>611.2</ele>
        <time>2026-05-28T15:16:08.000Z</time>
      </trkpt>
      <trkpt lat="43.99483" lon="3.50516">
        <ele>611.1</ele>
        <time>2026-05-28T15:16:09.000Z</time>
      </trkpt>
      <trkpt lat="43.99482" lon="3.50516">
        <ele>610.9</ele>
        <time>2026-05-28T15:16:10.000Z</time>
      </trkpt>
      <trkpt lat="43.99481" lon="3.50515">
        <ele>610.8</ele>
        <time>2026-05-28T15:16:11.000Z</time>
      </trkpt>
      <trkpt lat="43.99481" lon="3.50515">
        <ele>610.6</ele>
        <time>2026-05-28T15:16:12.000Z</time>
      </trkpt>
      <trkpt lat="43.9948" lon="3.50515">
        <ele>610.4</ele>
        <time>2026-05-28T15:16:13.000Z</time>
      </trkpt>
      <trkpt lat="43.99479" lon="3.50515">
        <ele>610.1</ele>
        <time>2026-05-28T15:16:14.000Z</time>
      </trkpt>
      <trkpt lat="43.99477" lon="3.50515">
        <ele>609.8</ele>
        <time>2026-05-28T15:16:15.000Z</time>
      </trkpt>
      <trkpt lat="43.99476" lon="3.50514">
        <ele>609.8</ele>
        <time>2026-05-28T15:16:16.000Z</time>
      </trkpt>
      <trkpt lat="43.99475" lon="3.50514">
        <ele>609.8</ele>
        <time>2026-05-28T15:16:17.000Z</time>
      </trkpt>
      <trkpt lat="43.99474" lon="3.50513">
        <ele>609.6</ele>
        <time>2026-05-28T15:16:18.000Z</time>
      </trkpt>
      <trkpt lat="43.99474" lon="3.50513">
        <ele>609.6</ele>
        <time>2026-05-28T15:16:19.000Z</time>
      </trkpt>
      <trkpt lat="43.99474" lon="3.50512">
        <ele>609.3</ele>
        <time>2026-05-28T15:16:20.000Z</time>
      </trkpt>
      <trkpt lat="43.99472" lon="3.50513">
        <ele>608.8</ele>
        <time>2026-05-28T15:16:21.000Z</time>
      </trkpt>
      <trkpt lat="43.99471" lon="3.50513">
        <ele>608.4</ele>
        <time>2026-05-28T15:16:22.000Z</time>
      </trkpt>
      <trkpt lat="43.9947" lon="3.50513">
        <ele>608.2</ele>
        <time>2026-05-28T15:16:23.000Z</time>
      </trkpt>
      <trkpt lat="43.99469" lon="3.50513">
        <ele>608.1</ele>
        <time>2026-05-28T15:16:24.000Z</time>
      </trkpt>
      <trkpt lat="43.99468" lon="3.50514">
        <ele>607.7</ele>
        <time>2026-05-28T15:16:25.000Z</time>
      </trkpt>
      <trkpt lat="43.99467" lon="3.50513">
        <ele>607.5</ele>
        <time>2026-05-28T15:16:26.000Z</time>
      </trkpt>
      <trkpt lat="43.99467" lon="3.50514">
        <ele>607.4</ele>
        <time>2026-05-28T15:16:27.000Z</time>
      </trkpt>
      <trkpt lat="43.99465" lon="3.50514">
        <ele>607.1</ele>
        <time>2026-05-28T15:16:28.000Z</time>
      </trkpt>
      <trkpt lat="43.99464" lon="3.50513">
        <ele>606.7</ele>
        <time>2026-05-28T15:16:29.000Z</time>
      </trkpt>
      <trkpt lat="43.99462" lon="3.50513">
        <ele>606.5</ele>
        <time>2026-05-28T15:16:30.000Z</time>
      </trkpt>
      <trkpt lat="43.99461" lon="3.50513">
        <ele>606</ele>
        <time>2026-05-28T15:16:31.000Z</time>
      </trkpt>
      <trkpt lat="43.9946" lon="3.50513">
        <ele>605.7</ele>
        <time>2026-05-28T15:16:32.000Z</time>
      </trkpt>
      <trkpt lat="43.99458" lon="3.50513">
        <ele>605.6</ele>
        <time>2026-05-28T15:16:33.000Z</time>
      </trkpt>
      <trkpt lat="43.99458" lon="3.50514">
        <ele>605.5</ele>
        <time>2026-05-28T15:16:34.000Z</time>
      </trkpt>
      <trkpt lat="43.99457" lon="3.50514">
        <ele>605.5</ele>
        <time>2026-05-28T15:16:35.000Z</time>
      </trkpt>
      <trkpt lat="43.99456" lon="3.50514">
        <ele>605.5</ele>
        <time>2026-05-28T15:16:36.000Z</time>
      </trkpt>
      <trkpt lat="43.99455" lon="3.50515">
        <ele>605.1</ele>
        <time>2026-05-28T15:16:37.000Z</time>
      </trkpt>
      <trkpt lat="43.99454" lon="3.50515">
        <ele>604.8</ele>
        <time>2026-05-28T15:16:38.000Z</time>
      </trkpt>
      <trkpt lat="43.99453" lon="3.50514">
        <ele>604.7</ele>
        <time>2026-05-28T15:16:39.000Z</time>
      </trkpt>
      <trkpt lat="43.99452" lon="3.50514">
        <ele>604.3</ele>
        <time>2026-05-28T15:16:40.000Z</time>
      </trkpt>
      <trkpt lat="43.99451" lon="3.50514">
        <ele>603.8</ele>
        <time>2026-05-28T15:16:41.000Z</time>
      </trkpt>
      <trkpt lat="43.99451" lon="3.50515">
        <ele>603.3</ele>
        <time>2026-05-28T15:16:42.000Z</time>
      </trkpt>
      <trkpt lat="43.9945" lon="3.50515">
        <ele>603.2</ele>
        <time>2026-05-28T15:16:43.000Z</time>
      </trkpt>
      <trkpt lat="43.9945" lon="3.50514">
        <ele>603.1</ele>
        <time>2026-05-28T15:16:44.000Z</time>
      </trkpt>
      <trkpt lat="43.99449" lon="3.50514">
        <ele>602.9</ele>
        <time>2026-05-28T15:16:45.000Z</time>
      </trkpt>
      <trkpt lat="43.99448" lon="3.50514">
        <ele>602.5</ele>
        <time>2026-05-28T15:16:46.000Z</time>
      </trkpt>
      <trkpt lat="43.99447" lon="3.50513">
        <ele>602.4</ele>
        <time>2026-05-28T15:16:47.000Z</time>
      </trkpt>
      <trkpt lat="43.99446" lon="3.50512">
        <ele>602.3</ele>
        <time>2026-05-28T15:16:48.000Z</time>
      </trkpt>
      <trkpt lat="43.99446" lon="3.50512">
        <ele>602.4</ele>
        <time>2026-05-28T15:16:49.000Z</time>
      </trkpt>
      <trkpt lat="43.99445" lon="3.50512">
        <ele>602.5</ele>
        <time>2026-05-28T15:16:50.000Z</time>
      </trkpt>
      <trkpt lat="43.99443" lon="3.50512">
        <ele>602.2</ele>
        <time>2026-05-28T15:16:51.000Z</time>
      </trkpt>
      <trkpt lat="43.99442" lon="3.50512">
        <ele>602.1</ele>
        <time>2026-05-28T15:16:52.000Z</time>
      </trkpt>
      <trkpt lat="43.99441" lon="3.50512">
        <ele>601.8</ele>
        <time>2026-05-28T15:16:53.000Z</time>
      </trkpt>
      <trkpt lat="43.99439" lon="3.50511">
        <ele>601.9</ele>
        <time>2026-05-28T15:16:54.000Z</time>
      </trkpt>
      <trkpt lat="43.99439" lon="3.50511">
        <ele>601.7</ele>
        <time>2026-05-28T15:16:55.000Z</time>
      </trkpt>
      <trkpt lat="43.99438" lon="3.50511">
        <ele>601.5</ele>
        <time>2026-05-28T15:16:56.000Z</time>
      </trkpt>
      <trkpt lat="43.99437" lon="3.50511">
        <ele>601.2</ele>
        <time>2026-05-28T15:16:57.000Z</time>
      </trkpt>
      <trkpt lat="43.99437" lon="3.50511">
        <ele>600.9</ele>
        <time>2026-05-28T15:16:58.000Z</time>
      </trkpt>
      <trkpt lat="43.99435" lon="3.50511">
        <ele>600.5</ele>
        <time>2026-05-28T15:16:59.000Z</time>
      </trkpt>
      <trkpt lat="43.99434" lon="3.5051">
        <ele>600.3</ele>
        <time>2026-05-28T15:17:00.000Z</time>
      </trkpt>
      <trkpt lat="43.99433" lon="3.5051">
        <ele>600.1</ele>
        <time>2026-05-28T15:17:01.000Z</time>
      </trkpt>
      <trkpt lat="43.99433" lon="3.5051">
        <ele>599.7</ele>
        <time>2026-05-28T15:17:02.000Z</time>
      </trkpt>
      <trkpt lat="43.99433" lon="3.5051">
        <ele>599.6</ele>
        <time>2026-05-28T15:17:03.000Z</time>
      </trkpt>
      <trkpt lat="43.99433" lon="3.5051">
        <ele>598.9</ele>
        <time>2026-05-28T15:17:04.000Z</time>
      </trkpt>
      <trkpt lat="43.99432" lon="3.50511">
        <ele>598.5</ele>
        <time>2026-05-28T15:17:05.000Z</time>
      </trkpt>
      <trkpt lat="43.99431" lon="3.50511">
        <ele>598.3</ele>
        <time>2026-05-28T15:17:06.000Z</time>
      </trkpt>
      <trkpt lat="43.99431" lon="3.50511">
        <ele>598</ele>
        <time>2026-05-28T15:17:07.000Z</time>
      </trkpt>
      <trkpt lat="43.9943" lon="3.50511">
        <ele>597.7</ele>
        <time>2026-05-28T15:17:08.000Z</time>
      </trkpt>
      <trkpt lat="43.99429" lon="3.5051">
        <ele>597.4</ele>
        <time>2026-05-28T15:17:09.000Z</time>
      </trkpt>
      <trkpt lat="43.99428" lon="3.5051">
        <ele>597</ele>
        <time>2026-05-28T15:17:10.000Z</time>
      </trkpt>
      <trkpt lat="43.99427" lon="3.5051">
        <ele>596.6</ele>
        <time>2026-05-28T15:17:11.000Z</time>
      </trkpt>
      <trkpt lat="43.99426" lon="3.5051">
        <ele>596.3</ele>
        <time>2026-05-28T15:17:12.000Z</time>
      </trkpt>
      <trkpt lat="43.99426" lon="3.50511">
        <ele>596.2</ele>
        <time>2026-05-28T15:17:13.000Z</time>
      </trkpt>
      <trkpt lat="43.99426" lon="3.5051">
        <ele>596</ele>
        <time>2026-05-28T15:17:14.000Z</time>
      </trkpt>
      <trkpt lat="43.99426" lon="3.5051">
        <ele>596.6</ele>
        <time>2026-05-28T15:17:15.000Z</time>
      </trkpt>
      <trkpt lat="43.99426" lon="3.5051">
        <ele>596.4</ele>
        <time>2026-05-28T15:17:16.000Z</time>
      </trkpt>
      <trkpt lat="43.99426" lon="3.5051">
        <ele>596.3</ele>
        <time>2026-05-28T15:17:17.000Z</time>
      </trkpt>
      <trkpt lat="43.99425" lon="3.5051">
        <ele>596.2</ele>
        <time>2026-05-28T15:17:18.000Z</time>
      </trkpt>
      <trkpt lat="43.99424" lon="3.50509">
        <ele>596.1</ele>
        <time>2026-05-28T15:17:19.000Z</time>
      </trkpt>
      <trkpt lat="43.99423" lon="3.50509">
        <ele>596.2</ele>
        <time>2026-05-28T15:17:20.000Z</time>
      </trkpt>
      <trkpt lat="43.99422" lon="3.50508">
        <ele>596.3</ele>
        <time>2026-05-28T15:17:21.000Z</time>
      </trkpt>
      <trkpt lat="43.99422" lon="3.50507">
        <ele>596.3</ele>
        <time>2026-05-28T15:17:22.000Z</time>
      </trkpt>
      <trkpt lat="43.99421" lon="3.50507">
        <ele>596.2</ele>
        <time>2026-05-28T15:17:23.000Z</time>
      </trkpt>
      <trkpt lat="43.99421" lon="3.50507">
        <ele>596</ele>
        <time>2026-05-28T15:17:24.000Z</time>
      </trkpt>
      <trkpt lat="43.9942" lon="3.50507">
        <ele>596</ele>
        <time>2026-05-28T15:17:25.000Z</time>
      </trkpt>
      <trkpt lat="43.9942" lon="3.50507">
        <ele>596.1</ele>
        <time>2026-05-28T15:17:26.000Z</time>
      </trkpt>
      <trkpt lat="43.99419" lon="3.50507">
        <ele>596.1</ele>
        <time>2026-05-28T15:17:27.000Z</time>
      </trkpt>
      <trkpt lat="43.99418" lon="3.50508">
        <ele>595.9</ele>
        <time>2026-05-28T15:17:28.000Z</time>
      </trkpt>
      <trkpt lat="43.99418" lon="3.50508">
        <ele>596</ele>
        <time>2026-05-28T15:17:29.000Z</time>
      </trkpt>
      <trkpt lat="43.99418" lon="3.50508">
        <ele>596.1</ele>
        <time>2026-05-28T15:17:30.000Z</time>
      </trkpt>
      <trkpt lat="43.99417" lon="3.50508">
        <ele>595.8</ele>
        <time>2026-05-28T15:17:31.000Z</time>
      </trkpt>
      <trkpt lat="43.99417" lon="3.50507">
        <ele>595.6</ele>
        <time>2026-05-28T15:17:32.000Z</time>
      </trkpt>
      <trkpt lat="43.99417" lon="3.50507">
        <ele>595.6</ele>
        <time>2026-05-28T15:17:33.000Z</time>
      </trkpt>
      <trkpt lat="43.99416" lon="3.50508">
        <ele>595.4</ele>
        <time>2026-05-28T15:17:34.000Z</time>
      </trkpt>
      <trkpt lat="43.99416" lon="3.50508">
        <ele>595.4</ele>
        <time>2026-05-28T15:17:35.000Z</time>
      </trkpt>
      <trkpt lat="43.99415" lon="3.50508">
        <ele>595.3</ele>
        <time>2026-05-28T15:17:36.000Z</time>
      </trkpt>
      <trkpt lat="43.99415" lon="3.50508">
        <ele>595.1</ele>
        <time>2026-05-28T15:17:37.000Z</time>
      </trkpt>
      <trkpt lat="43.99415" lon="3.50508">
        <ele>595</ele>
        <time>2026-05-28T15:17:38.000Z</time>
      </trkpt>
      <trkpt lat="43.99414" lon="3.50509">
        <ele>594.9</ele>
        <time>2026-05-28T15:17:39.000Z</time>
      </trkpt>
      <trkpt lat="43.99413" lon="3.50509">
        <ele>594.6</ele>
        <time>2026-05-28T15:17:40.000Z</time>
      </trkpt>
      <trkpt lat="43.99412" lon="3.5051">
        <ele>594.4</ele>
        <time>2026-05-28T15:17:41.000Z</time>
      </trkpt>
      <trkpt lat="43.99411" lon="3.5051">
        <ele>594.1</ele>
        <time>2026-05-28T15:17:42.000Z</time>
      </trkpt>
      <trkpt lat="43.9941" lon="3.5051">
        <ele>593.8</ele>
        <time>2026-05-28T15:17:43.000Z</time>
      </trkpt>
      <trkpt lat="43.99409" lon="3.5051">
        <ele>593.8</ele>
        <time>2026-05-28T15:17:44.000Z</time>
      </trkpt>
      <trkpt lat="43.99408" lon="3.5051">
        <ele>593.8</ele>
        <time>2026-05-28T15:17:45.000Z</time>
      </trkpt>
      <trkpt lat="43.99407" lon="3.5051">
        <ele>593.7</ele>
        <time>2026-05-28T15:17:46.000Z</time>
      </trkpt>
      <trkpt lat="43.99406" lon="3.5051">
        <ele>593.5</ele>
        <time>2026-05-28T15:17:47.000Z</time>
      </trkpt>
      <trkpt lat="43.99405" lon="3.5051">
        <ele>593.4</ele>
        <time>2026-05-28T15:17:48.000Z</time>
      </trkpt>
      <trkpt lat="43.99404" lon="3.5051">
        <ele>593.2</ele>
        <time>2026-05-28T15:17:49.000Z</time>
      </trkpt>
      <trkpt lat="43.99403" lon="3.50509">
        <ele>592.9</ele>
        <time>2026-05-28T15:17:50.000Z</time>
      </trkpt>
      <trkpt lat="43.99402" lon="3.50509">
        <ele>593.1</ele>
        <time>2026-05-28T15:17:51.000Z</time>
      </trkpt>
      <trkpt lat="43.99401" lon="3.50509">
        <ele>593.2</ele>
        <time>2026-05-28T15:17:52.000Z</time>
      </trkpt>
      <trkpt lat="43.994" lon="3.50509">
        <ele>593</ele>
        <time>2026-05-28T15:17:53.000Z</time>
      </trkpt>
      <trkpt lat="43.99399" lon="3.50509">
        <ele>593.3</ele>
        <time>2026-05-28T15:17:54.000Z</time>
      </trkpt>
      <trkpt lat="43.99399" lon="3.50509">
        <ele>593.5</ele>
        <time>2026-05-28T15:17:55.000Z</time>
      </trkpt>
      <trkpt lat="43.99398" lon="3.50508">
        <ele>593.5</ele>
        <time>2026-05-28T15:17:56.000Z</time>
      </trkpt>
      <trkpt lat="43.99397" lon="3.50508">
        <ele>593.3</ele>
        <time>2026-05-28T15:17:57.000Z</time>
      </trkpt>
      <trkpt lat="43.99397" lon="3.50508">
        <ele>593.2</ele>
        <time>2026-05-28T15:17:58.000Z</time>
      </trkpt>
      <trkpt lat="43.99396" lon="3.50508">
        <ele>593.1</ele>
        <time>2026-05-28T15:17:59.000Z</time>
      </trkpt>
      <trkpt lat="43.99395" lon="3.50507">
        <ele>592.9</ele>
        <time>2026-05-28T15:18:00.000Z</time>
      </trkpt>
      <trkpt lat="43.99395" lon="3.50507">
        <ele>592.8</ele>
        <time>2026-05-28T15:18:01.000Z</time>
      </trkpt>
      <trkpt lat="43.99394" lon="3.50507">
        <ele>592.6</ele>
        <time>2026-05-28T15:18:02.000Z</time>
      </trkpt>
      <trkpt lat="43.99393" lon="3.50507">
        <ele>592.4</ele>
        <time>2026-05-28T15:18:03.000Z</time>
      </trkpt>
      <trkpt lat="43.99392" lon="3.50507">
        <ele>592.2</ele>
        <time>2026-05-28T15:18:04.000Z</time>
      </trkpt>
      <trkpt lat="43.99392" lon="3.50507">
        <ele>592.1</ele>
        <time>2026-05-28T15:18:05.000Z</time>
      </trkpt>
      <trkpt lat="43.99391" lon="3.50508">
        <ele>591.5</ele>
        <time>2026-05-28T15:18:06.000Z</time>
      </trkpt>
      <trkpt lat="43.9939" lon="3.50508">
        <ele>591.4</ele>
        <time>2026-05-28T15:18:07.000Z</time>
      </trkpt>
      <trkpt lat="43.99389" lon="3.50508">
        <ele>591.2</ele>
        <time>2026-05-28T15:18:08.000Z</time>
      </trkpt>
      <trkpt lat="43.99388" lon="3.50508">
        <ele>590.8</ele>
        <time>2026-05-28T15:18:09.000Z</time>
      </trkpt>
      <trkpt lat="43.99387" lon="3.50508">
        <ele>590.3</ele>
        <time>2026-05-28T15:18:10.000Z</time>
      </trkpt>
      <trkpt lat="43.99387" lon="3.50508">
        <ele>590.5</ele>
        <time>2026-05-28T15:18:11.000Z</time>
      </trkpt>
      <trkpt lat="43.99386" lon="3.50508">
        <ele>590.9</ele>
        <time>2026-05-28T15:18:12.000Z</time>
      </trkpt>
      <trkpt lat="43.99385" lon="3.50507">
        <ele>590.6</ele>
        <time>2026-05-28T15:18:13.000Z</time>
      </trkpt>
      <trkpt lat="43.99384" lon="3.50507">
        <ele>590.6</ele>
        <time>2026-05-28T15:18:14.000Z</time>
      </trkpt>
      <trkpt lat="43.99383" lon="3.50507">
        <ele>590.9</ele>
        <time>2026-05-28T15:18:15.000Z</time>
      </trkpt>
      <trkpt lat="43.99383" lon="3.50508">
        <ele>591.4</ele>
        <time>2026-05-28T15:18:16.000Z</time>
      </trkpt>
      <trkpt lat="43.99382" lon="3.50507">
        <ele>591.3</ele>
        <time>2026-05-28T15:18:17.000Z</time>
      </trkpt>
      <trkpt lat="43.99382" lon="3.50507">
        <ele>591.4</ele>
        <time>2026-05-28T15:18:18.000Z</time>
      </trkpt>
      <trkpt lat="43.99381" lon="3.50506">
        <ele>591.6</ele>
        <time>2026-05-28T15:18:19.000Z</time>
      </trkpt>
      <trkpt lat="43.99381" lon="3.50506">
        <ele>590.9</ele>
        <time>2026-05-28T15:18:20.000Z</time>
      </trkpt>
      <trkpt lat="43.9938" lon="3.50506">
        <ele>590.4</ele>
        <time>2026-05-28T15:18:21.000Z</time>
      </trkpt>
      <trkpt lat="43.99379" lon="3.50507">
        <ele>590.4</ele>
        <time>2026-05-28T15:18:22.000Z</time>
      </trkpt>
      <trkpt lat="43.99379" lon="3.50507">
        <ele>590</ele>
        <time>2026-05-28T15:18:23.000Z</time>
      </trkpt>
      <trkpt lat="43.99379" lon="3.50508">
        <ele>589.6</ele>
        <time>2026-05-28T15:18:24.000Z</time>
      </trkpt>
      <trkpt lat="43.99378" lon="3.50507">
        <ele>589.5</ele>
        <time>2026-05-28T15:18:25.000Z</time>
      </trkpt>
      <trkpt lat="43.99378" lon="3.50508">
        <ele>589.4</ele>
        <time>2026-05-28T15:18:26.000Z</time>
      </trkpt>
      <trkpt lat="43.99377" lon="3.50507">
        <ele>589.3</ele>
        <time>2026-05-28T15:18:27.000Z</time>
      </trkpt>
      <trkpt lat="43.99377" lon="3.50507">
        <ele>589.2</ele>
        <time>2026-05-28T15:18:28.000Z</time>
      </trkpt>
      <trkpt lat="43.99376" lon="3.50507">
        <ele>589.2</ele>
        <time>2026-05-28T15:18:29.000Z</time>
      </trkpt>
      <trkpt lat="43.99375" lon="3.50506">
        <ele>589.2</ele>
        <time>2026-05-28T15:18:30.000Z</time>
      </trkpt>
      <trkpt lat="43.99374" lon="3.50506">
        <ele>588.9</ele>
        <time>2026-05-28T15:18:31.000Z</time>
      </trkpt>
      <trkpt lat="43.99373" lon="3.50506">
        <ele>588.5</ele>
        <time>2026-05-28T15:18:32.000Z</time>
      </trkpt>
      <trkpt lat="43.99373" lon="3.50506">
        <ele>588.1</ele>
        <time>2026-05-28T15:18:33.000Z</time>
      </trkpt>
      <trkpt lat="43.99372" lon="3.50506">
        <ele>588.1</ele>
        <time>2026-05-28T15:18:34.000Z</time>
      </trkpt>
      <trkpt lat="43.99372" lon="3.50506">
        <ele>587.8</ele>
        <time>2026-05-28T15:18:35.000Z</time>
      </trkpt>
      <trkpt lat="43.99371" lon="3.50507">
        <ele>587.2</ele>
        <time>2026-05-28T15:18:36.000Z</time>
      </trkpt>
      <trkpt lat="43.9937" lon="3.50507">
        <ele>586.8</ele>
        <time>2026-05-28T15:18:37.000Z</time>
      </trkpt>
      <trkpt lat="43.99369" lon="3.50508">
        <ele>586.2</ele>
        <time>2026-05-28T15:18:38.000Z</time>
      </trkpt>
      <trkpt lat="43.99368" lon="3.50509">
        <ele>585.4</ele>
        <time>2026-05-28T15:18:39.000Z</time>
      </trkpt>
      <trkpt lat="43.99368" lon="3.5051">
        <ele>585</ele>
        <time>2026-05-28T15:18:40.000Z</time>
      </trkpt>
      <trkpt lat="43.99367" lon="3.50509">
        <ele>584.5</ele>
        <time>2026-05-28T15:18:41.000Z</time>
      </trkpt>
      <trkpt lat="43.99366" lon="3.50508">
        <ele>584</ele>
        <time>2026-05-28T15:18:42.000Z</time>
      </trkpt>
      <trkpt lat="43.99365" lon="3.50508">
        <ele>583.5</ele>
        <time>2026-05-28T15:18:43.000Z</time>
      </trkpt>
      <trkpt lat="43.99364" lon="3.50508">
        <ele>583.4</ele>
        <time>2026-05-28T15:18:44.000Z</time>
      </trkpt>
      <trkpt lat="43.99363" lon="3.50508">
        <ele>583.2</ele>
        <time>2026-05-28T15:18:45.000Z</time>
      </trkpt>
      <trkpt lat="43.99361" lon="3.50508">
        <ele>582.6</ele>
        <time>2026-05-28T15:18:46.000Z</time>
      </trkpt>
      <trkpt lat="43.99359" lon="3.50508">
        <ele>582.6</ele>
        <time>2026-05-28T15:18:47.000Z</time>
      </trkpt>
      <trkpt lat="43.99358" lon="3.50509">
        <ele>582.8</ele>
        <time>2026-05-28T15:18:48.000Z</time>
      </trkpt>
      <trkpt lat="43.99357" lon="3.50509">
        <ele>583</ele>
        <time>2026-05-28T15:18:49.000Z</time>
      </trkpt>
      <trkpt lat="43.99356" lon="3.50509">
        <ele>583</ele>
        <time>2026-05-28T15:18:50.000Z</time>
      </trkpt>
      <trkpt lat="43.99355" lon="3.50509">
        <ele>582.6</ele>
        <time>2026-05-28T15:18:51.000Z</time>
      </trkpt>
      <trkpt lat="43.99354" lon="3.50509">
        <ele>582.3</ele>
        <time>2026-05-28T15:18:52.000Z</time>
      </trkpt>
      <trkpt lat="43.99354" lon="3.5051">
        <ele>581.8</ele>
        <time>2026-05-28T15:18:53.000Z</time>
      </trkpt>
      <trkpt lat="43.99353" lon="3.50509">
        <ele>581.6</ele>
        <time>2026-05-28T15:18:54.000Z</time>
      </trkpt>
      <trkpt lat="43.99353" lon="3.5051">
        <ele>581.3</ele>
        <time>2026-05-28T15:18:55.000Z</time>
      </trkpt>
      <trkpt lat="43.99352" lon="3.5051">
        <ele>581.2</ele>
        <time>2026-05-28T15:18:56.000Z</time>
      </trkpt>
      <trkpt lat="43.99352" lon="3.5051">
        <ele>581.4</ele>
        <time>2026-05-28T15:18:57.000Z</time>
      </trkpt>
      <trkpt lat="43.9935" lon="3.5051">
        <ele>581.4</ele>
        <time>2026-05-28T15:18:58.000Z</time>
      </trkpt>
      <trkpt lat="43.9935" lon="3.5051">
        <ele>581.3</ele>
        <time>2026-05-28T15:18:59.000Z</time>
      </trkpt>
      <trkpt lat="43.99349" lon="3.5051">
        <ele>580.9</ele>
        <time>2026-05-28T15:19:00.000Z</time>
      </trkpt>
      <trkpt lat="43.99348" lon="3.5051">
        <ele>580.8</ele>
        <time>2026-05-28T15:19:01.000Z</time>
      </trkpt>
      <trkpt lat="43.99347" lon="3.5051">
        <ele>581</ele>
        <time>2026-05-28T15:19:02.000Z</time>
      </trkpt>
      <trkpt lat="43.99346" lon="3.5051">
        <ele>580.5</ele>
        <time>2026-05-28T15:19:03.000Z</time>
      </trkpt>
      <trkpt lat="43.99345" lon="3.5051">
        <ele>580.4</ele>
        <time>2026-05-28T15:19:04.000Z</time>
      </trkpt>
      <trkpt lat="43.99344" lon="3.5051">
        <ele>580.3</ele>
        <time>2026-05-28T15:19:05.000Z</time>
      </trkpt>
      <trkpt lat="43.99343" lon="3.5051">
        <ele>580.5</ele>
        <time>2026-05-28T15:19:06.000Z</time>
      </trkpt>
      <trkpt lat="43.99342" lon="3.5051">
        <ele>580.5</ele>
        <time>2026-05-28T15:19:07.000Z</time>
      </trkpt>
      <trkpt lat="43.99341" lon="3.50511">
        <ele>580.2</ele>
        <time>2026-05-28T15:19:08.000Z</time>
      </trkpt>
      <trkpt lat="43.9934" lon="3.50511">
        <ele>579.5</ele>
        <time>2026-05-28T15:19:09.000Z</time>
      </trkpt>
      <trkpt lat="43.99339" lon="3.5051">
        <ele>579.8</ele>
        <time>2026-05-28T15:19:10.000Z</time>
      </trkpt>
      <trkpt lat="43.99338" lon="3.5051">
        <ele>579.5</ele>
        <time>2026-05-28T15:19:11.000Z</time>
      </trkpt>
      <trkpt lat="43.99338" lon="3.50511">
        <ele>579.4</ele>
        <time>2026-05-28T15:19:12.000Z</time>
      </trkpt>
      <trkpt lat="43.99337" lon="3.50511">
        <ele>579.2</ele>
        <time>2026-05-28T15:19:13.000Z</time>
      </trkpt>
      <trkpt lat="43.99336" lon="3.50511">
        <ele>578.9</ele>
        <time>2026-05-28T15:19:14.000Z</time>
      </trkpt>
      <trkpt lat="43.99336" lon="3.50512">
        <ele>578.2</ele>
        <time>2026-05-28T15:19:15.000Z</time>
      </trkpt>
      <trkpt lat="43.99335" lon="3.50511">
        <ele>577.7</ele>
        <time>2026-05-28T15:19:16.000Z</time>
      </trkpt>
      <trkpt lat="43.99334" lon="3.50511">
        <ele>577.2</ele>
        <time>2026-05-28T15:19:17.000Z</time>
      </trkpt>
      <trkpt lat="43.99333" lon="3.50511">
        <ele>576.9</ele>
        <time>2026-05-28T15:19:18.000Z</time>
      </trkpt>
      <trkpt lat="43.99332" lon="3.5051">
        <ele>577.4</ele>
        <time>2026-05-28T15:19:19.000Z</time>
      </trkpt>
      <trkpt lat="43.99331" lon="3.5051">
        <ele>577.9</ele>
        <time>2026-05-28T15:19:20.000Z</time>
      </trkpt>
      <trkpt lat="43.9933" lon="3.5051">
        <ele>577.9</ele>
        <time>2026-05-28T15:19:21.000Z</time>
      </trkpt>
      <trkpt lat="43.9933" lon="3.5051">
        <ele>577.8</ele>
        <time>2026-05-28T15:19:22.000Z</time>
      </trkpt>
      <trkpt lat="43.9933" lon="3.50511">
        <ele>577.6</ele>
        <time>2026-05-28T15:19:23.000Z</time>
      </trkpt>
      <trkpt lat="43.99329" lon="3.50511">
        <ele>577.5</ele>
        <time>2026-05-28T15:19:24.000Z</time>
      </trkpt>
      <trkpt lat="43.99329" lon="3.50512">
        <ele>577.2</ele>
        <time>2026-05-28T15:19:25.000Z</time>
      </trkpt>
      <trkpt lat="43.99328" lon="3.50512">
        <ele>577.4</ele>
        <time>2026-05-28T15:19:26.000Z</time>
      </trkpt>
      <trkpt lat="43.99328" lon="3.50513">
        <ele>577.5</ele>
        <time>2026-05-28T15:19:27.000Z</time>
      </trkpt>
      <trkpt lat="43.99328" lon="3.50513">
        <ele>577.6</ele>
        <time>2026-05-28T15:19:28.000Z</time>
      </trkpt>
      <trkpt lat="43.99328" lon="3.50513">
        <ele>577.7</ele>
        <time>2026-05-28T15:19:29.000Z</time>
      </trkpt>
      <trkpt lat="43.99328" lon="3.50513">
        <ele>577.8</ele>
        <time>2026-05-28T15:19:30.000Z</time>
      </trkpt>
      <trkpt lat="43.99327" lon="3.50513">
        <ele>578.1</ele>
        <time>2026-05-28T15:19:31.000Z</time>
      </trkpt>
      <trkpt lat="43.99326" lon="3.50513">
        <ele>578.1</ele>
        <time>2026-05-28T15:19:32.000Z</time>
      </trkpt>
      <trkpt lat="43.99325" lon="3.50512">
        <ele>578</ele>
        <time>2026-05-28T15:19:33.000Z</time>
      </trkpt>
      <trkpt lat="43.99324" lon="3.50512">
        <ele>578</ele>
        <time>2026-05-28T15:19:34.000Z</time>
      </trkpt>
      <trkpt lat="43.99323" lon="3.50512">
        <ele>578</ele>
        <time>2026-05-28T15:19:35.000Z</time>
      </trkpt>
      <trkpt lat="43.99321" lon="3.50511">
        <ele>577.9</ele>
        <time>2026-05-28T15:19:37.000Z</time>
      </trkpt>
      <trkpt lat="43.99319" lon="3.50511">
        <ele>577.6</ele>
        <time>2026-05-28T15:19:38.000Z</time>
      </trkpt>
      <trkpt lat="43.99318" lon="3.50511">
        <ele>577.4</ele>
        <time>2026-05-28T15:19:39.000Z</time>
      </trkpt>
      <trkpt lat="43.99317" lon="3.50511">
        <ele>577.5</ele>
        <time>2026-05-28T15:19:40.000Z</time>
      </trkpt>
      <trkpt lat="43.99316" lon="3.50511">
        <ele>577.6</ele>
        <time>2026-05-28T15:19:41.000Z</time>
      </trkpt>
      <trkpt lat="43.99315" lon="3.50512">
        <ele>577.9</ele>
        <time>2026-05-28T15:19:42.000Z</time>
      </trkpt>
      <trkpt lat="43.99313" lon="3.50513">
        <ele>578.1</ele>
        <time>2026-05-28T15:19:43.000Z</time>
      </trkpt>
      <trkpt lat="43.99312" lon="3.50513">
        <ele>578.3</ele>
        <time>2026-05-28T15:19:44.000Z</time>
      </trkpt>
      <trkpt lat="43.99311" lon="3.50513">
        <ele>578.5</ele>
        <time>2026-05-28T15:19:45.000Z</time>
      </trkpt>
      <trkpt lat="43.9931" lon="3.50513">
        <ele>578.6</ele>
        <time>2026-05-28T15:19:46.000Z</time>
      </trkpt>
      <trkpt lat="43.99309" lon="3.50513">
        <ele>578.7</ele>
        <time>2026-05-28T15:19:47.000Z</time>
      </trkpt>
      <trkpt lat="43.99308" lon="3.50513">
        <ele>578.7</ele>
        <time>2026-05-28T15:19:48.000Z</time>
      </trkpt>
      <trkpt lat="43.99307" lon="3.50513">
        <ele>578.6</ele>
        <time>2026-05-28T15:19:49.000Z</time>
      </trkpt>
      <trkpt lat="43.99306" lon="3.50514">
        <ele>578.3</ele>
        <time>2026-05-28T15:19:50.000Z</time>
      </trkpt>
      <trkpt lat="43.99305" lon="3.50513">
        <ele>578.2</ele>
        <time>2026-05-28T15:19:51.000Z</time>
      </trkpt>
      <trkpt lat="43.99304" lon="3.50513">
        <ele>578</ele>
        <time>2026-05-28T15:19:52.000Z</time>
      </trkpt>
      <trkpt lat="43.99303" lon="3.50512">
        <ele>577.8</ele>
        <time>2026-05-28T15:19:53.000Z</time>
      </trkpt>
      <trkpt lat="43.99302" lon="3.50511">
        <ele>577.8</ele>
        <time>2026-05-28T15:19:54.000Z</time>
      </trkpt>
      <trkpt lat="43.99301" lon="3.50511">
        <ele>578.2</ele>
        <time>2026-05-28T15:19:55.000Z</time>
      </trkpt>
      <trkpt lat="43.993" lon="3.50511">
        <ele>578.2</ele>
        <time>2026-05-28T15:19:56.000Z</time>
      </trkpt>
      <trkpt lat="43.99299" lon="3.50511">
        <ele>578.4</ele>
        <time>2026-05-28T15:19:57.000Z</time>
      </trkpt>
      <trkpt lat="43.99299" lon="3.50512">
        <ele>578.3</ele>
        <time>2026-05-28T15:19:58.000Z</time>
      </trkpt>
      <trkpt lat="43.99298" lon="3.50512">
        <ele>578.2</ele>
        <time>2026-05-28T15:19:59.000Z</time>
      </trkpt>
      <trkpt lat="43.99297" lon="3.50512">
        <ele>578</ele>
        <time>2026-05-28T15:20:00.000Z</time>
      </trkpt>
      <trkpt lat="43.99296" lon="3.50513">
        <ele>577.6</ele>
        <time>2026-05-28T15:20:01.000Z</time>
      </trkpt>
      <trkpt lat="43.99295" lon="3.50513">
        <ele>577.3</ele>
        <time>2026-05-28T15:20:02.000Z</time>
      </trkpt>
      <trkpt lat="43.99294" lon="3.50513">
        <ele>577.2</ele>
        <time>2026-05-28T15:20:03.000Z</time>
      </trkpt>
      <trkpt lat="43.99293" lon="3.50513">
        <ele>577</ele>
        <time>2026-05-28T15:20:04.000Z</time>
      </trkpt>
      <trkpt lat="43.99292" lon="3.50513">
        <ele>576.5</ele>
        <time>2026-05-28T15:20:05.000Z</time>
      </trkpt>
      <trkpt lat="43.99291" lon="3.50514">
        <ele>575.5</ele>
        <time>2026-05-28T15:20:06.000Z</time>
      </trkpt>
      <trkpt lat="43.99289" lon="3.50515">
        <ele>575.3</ele>
        <time>2026-05-28T15:20:07.000Z</time>
      </trkpt>
      <trkpt lat="43.99289" lon="3.50516">
        <ele>575.2</ele>
        <time>2026-05-28T15:20:08.000Z</time>
      </trkpt>
      <trkpt lat="43.99288" lon="3.50516">
        <ele>574.9</ele>
        <time>2026-05-28T15:20:09.000Z</time>
      </trkpt>
      <trkpt lat="43.99288" lon="3.50517">
        <ele>574.8</ele>
        <time>2026-05-28T15:20:10.000Z</time>
      </trkpt>
      <trkpt lat="43.99287" lon="3.50518">
        <ele>575.2</ele>
        <time>2026-05-28T15:20:11.000Z</time>
      </trkpt>
      <trkpt lat="43.99286" lon="3.50519">
        <ele>575.1</ele>
        <time>2026-05-28T15:20:12.000Z</time>
      </trkpt>
      <trkpt lat="43.99285" lon="3.5052">
        <ele>574.9</ele>
        <time>2026-05-28T15:20:13.000Z</time>
      </trkpt>
      <trkpt lat="43.99284" lon="3.50521">
        <ele>574.6</ele>
        <time>2026-05-28T15:20:14.000Z</time>
      </trkpt>
      <trkpt lat="43.99284" lon="3.50521">
        <ele>574.2</ele>
        <time>2026-05-28T15:20:15.000Z</time>
      </trkpt>
      <trkpt lat="43.99284" lon="3.50522">
        <ele>573.7</ele>
        <time>2026-05-28T15:20:16.000Z</time>
      </trkpt>
      <trkpt lat="43.99283" lon="3.50523">
        <ele>573.8</ele>
        <time>2026-05-28T15:20:17.000Z</time>
      </trkpt>
      <trkpt lat="43.99283" lon="3.50524">
        <ele>573.9</ele>
        <time>2026-05-28T15:20:18.000Z</time>
      </trkpt>
      <trkpt lat="43.99281" lon="3.50525">
        <ele>573.6</ele>
        <time>2026-05-28T15:20:19.000Z</time>
      </trkpt>
      <trkpt lat="43.9928" lon="3.50526">
        <ele>573.9</ele>
        <time>2026-05-28T15:20:20.000Z</time>
      </trkpt>
      <trkpt lat="43.99279" lon="3.50528">
        <ele>574.2</ele>
        <time>2026-05-28T15:20:21.000Z</time>
      </trkpt>
      <trkpt lat="43.99278" lon="3.50528">
        <ele>574.5</ele>
        <time>2026-05-28T15:20:22.000Z</time>
      </trkpt>
      <trkpt lat="43.99276" lon="3.50529">
        <ele>574.7</ele>
        <time>2026-05-28T15:20:23.000Z</time>
      </trkpt>
      <trkpt lat="43.99276" lon="3.50529">
        <ele>574.9</ele>
        <time>2026-05-28T15:20:24.000Z</time>
      </trkpt>
      <trkpt lat="43.99275" lon="3.50529">
        <ele>574.9</ele>
        <time>2026-05-28T15:20:25.000Z</time>
      </trkpt>
      <trkpt lat="43.99274" lon="3.5053">
        <ele>574.7</ele>
        <time>2026-05-28T15:20:26.000Z</time>
      </trkpt>
      <trkpt lat="43.99273" lon="3.50531">
        <ele>574.6</ele>
        <time>2026-05-28T15:20:27.000Z</time>
      </trkpt>
      <trkpt lat="43.99272" lon="3.50532">
        <ele>574.3</ele>
        <time>2026-05-28T15:20:28.000Z</time>
      </trkpt>
      <trkpt lat="43.99271" lon="3.50533">
        <ele>574.3</ele>
        <time>2026-05-28T15:20:29.000Z</time>
      </trkpt>
      <trkpt lat="43.9927" lon="3.50533">
        <ele>574.1</ele>
        <time>2026-05-28T15:20:30.000Z</time>
      </trkpt>
      <trkpt lat="43.9927" lon="3.50533">
        <ele>573.9</ele>
        <time>2026-05-28T15:20:31.000Z</time>
      </trkpt>
      <trkpt lat="43.99269" lon="3.50535">
        <ele>573.5</ele>
        <time>2026-05-28T15:20:32.000Z</time>
      </trkpt>
      <trkpt lat="43.99269" lon="3.50536">
        <ele>573.7</ele>
        <time>2026-05-28T15:20:33.000Z</time>
      </trkpt>
      <trkpt lat="43.99268" lon="3.50538">
        <ele>573.6</ele>
        <time>2026-05-28T15:20:34.000Z</time>
      </trkpt>
      <trkpt lat="43.99267" lon="3.50539">
        <ele>573.4</ele>
        <time>2026-05-28T15:20:35.000Z</time>
      </trkpt>
      <trkpt lat="43.99267" lon="3.50541">
        <ele>573.3</ele>
        <time>2026-05-28T15:20:36.000Z</time>
      </trkpt>
      <trkpt lat="43.99266" lon="3.50543">
        <ele>573.3</ele>
        <time>2026-05-28T15:20:37.000Z</time>
      </trkpt>
      <trkpt lat="43.99266" lon="3.50545">
        <ele>573.5</ele>
        <time>2026-05-28T15:20:38.000Z</time>
      </trkpt>
      <trkpt lat="43.99266" lon="3.50546">
        <ele>573.6</ele>
        <time>2026-05-28T15:20:39.000Z</time>
      </trkpt>
      <trkpt lat="43.99266" lon="3.50548">
        <ele>573.7</ele>
        <time>2026-05-28T15:20:40.000Z</time>
      </trkpt>
      <trkpt lat="43.99266" lon="3.50549">
        <ele>573.6</ele>
        <time>2026-05-28T15:20:41.000Z</time>
      </trkpt>
      <trkpt lat="43.99266" lon="3.5055">
        <ele>573.8</ele>
        <time>2026-05-28T15:20:42.000Z</time>
      </trkpt>
      <trkpt lat="43.99266" lon="3.50551">
        <ele>573.6</ele>
        <time>2026-05-28T15:20:43.000Z</time>
      </trkpt>
      <trkpt lat="43.99265" lon="3.50552">
        <ele>573.6</ele>
        <time>2026-05-28T15:20:44.000Z</time>
      </trkpt>
      <trkpt lat="43.99265" lon="3.50553">
        <ele>574</ele>
        <time>2026-05-28T15:20:45.000Z</time>
      </trkpt>
      <trkpt lat="43.99264" lon="3.50554">
        <ele>574.1</ele>
        <time>2026-05-28T15:20:46.000Z</time>
      </trkpt>
      <trkpt lat="43.99264" lon="3.50556">
        <ele>574.6</ele>
        <time>2026-05-28T15:20:47.000Z</time>
      </trkpt>
      <trkpt lat="43.99265" lon="3.50557">
        <ele>575</ele>
        <time>2026-05-28T15:20:48.000Z</time>
      </trkpt>
      <trkpt lat="43.99265" lon="3.50558">
        <ele>575</ele>
        <time>2026-05-28T15:20:49.000Z</time>
      </trkpt>
      <trkpt lat="43.99265" lon="3.50559">
        <ele>574.5</ele>
        <time>2026-05-28T15:20:50.000Z</time>
      </trkpt>
      <trkpt lat="43.99265" lon="3.50561">
        <ele>573.9</ele>
        <time>2026-05-28T15:20:51.000Z</time>
      </trkpt>
      <trkpt lat="43.99264" lon="3.50562">
        <ele>573.5</ele>
        <time>2026-05-28T15:20:52.000Z</time>
      </trkpt>
      <trkpt lat="43.99263" lon="3.50564">
        <ele>573.5</ele>
        <time>2026-05-28T15:20:53.000Z</time>
      </trkpt>
      <trkpt lat="43.99263" lon="3.50566">
        <ele>573.9</ele>
        <time>2026-05-28T15:20:54.000Z</time>
      </trkpt>
      <trkpt lat="43.99263" lon="3.50568">
        <ele>573.7</ele>
        <time>2026-05-28T15:20:55.000Z</time>
      </trkpt>
      <trkpt lat="43.99263" lon="3.5057">
        <ele>573.8</ele>
        <time>2026-05-28T15:20:56.000Z</time>
      </trkpt>
      <trkpt lat="43.99262" lon="3.50572">
        <ele>574.2</ele>
        <time>2026-05-28T15:20:57.000Z</time>
      </trkpt>
      <trkpt lat="43.99262" lon="3.50573">
        <ele>574.5</ele>
        <time>2026-05-28T15:20:58.000Z</time>
      </trkpt>
      <trkpt lat="43.99261" lon="3.50575">
        <ele>574.6</ele>
        <time>2026-05-28T15:20:59.000Z</time>
      </trkpt>
      <trkpt lat="43.9926" lon="3.50576">
        <ele>574.9</ele>
        <time>2026-05-28T15:21:00.000Z</time>
      </trkpt>
      <trkpt lat="43.99261" lon="3.50579">
        <ele>574.2</ele>
        <time>2026-05-28T15:21:01.999Z</time>
      </trkpt>
      <trkpt lat="43.99261" lon="3.5058">
        <ele>574</ele>
        <time>2026-05-28T15:21:02.999Z</time>
      </trkpt>
      <trkpt lat="43.99261" lon="3.50581">
        <ele>573.6</ele>
        <time>2026-05-28T15:21:03.999Z</time>
      </trkpt>
      <trkpt lat="43.99261" lon="3.50583">
        <ele>573.8</ele>
        <time>2026-05-28T15:21:04.999Z</time>
      </trkpt>
      <trkpt lat="43.99261" lon="3.50584">
        <ele>574</ele>
        <time>2026-05-28T15:21:05.999Z</time>
      </trkpt>
      <trkpt lat="43.99261" lon="3.50586">
        <ele>573.8</ele>
        <time>2026-05-28T15:21:06.999Z</time>
      </trkpt>
      <trkpt lat="43.99261" lon="3.50588">
        <ele>573.9</ele>
        <time>2026-05-28T15:21:07.999Z</time>
      </trkpt>
      <trkpt lat="43.99261" lon="3.50589">
        <ele>574</ele>
        <time>2026-05-28T15:21:08.999Z</time>
      </trkpt>
      <trkpt lat="43.9926" lon="3.5059">
        <ele>573.6</ele>
        <time>2026-05-28T15:21:09.999Z</time>
      </trkpt>
      <trkpt lat="43.9926" lon="3.50591">
        <ele>573.4</ele>
        <time>2026-05-28T15:21:10.999Z</time>
      </trkpt>
      <trkpt lat="43.99259" lon="3.50592">
        <ele>573.3</ele>
        <time>2026-05-28T15:21:11.999Z</time>
      </trkpt>
      <trkpt lat="43.99259" lon="3.50593">
        <ele>573.1</ele>
        <time>2026-05-28T15:21:12.999Z</time>
      </trkpt>
      <trkpt lat="43.99259" lon="3.50595">
        <ele>572.8</ele>
        <time>2026-05-28T15:21:13.999Z</time>
      </trkpt>
      <trkpt lat="43.99258" lon="3.50596">
        <ele>572.6</ele>
        <time>2026-05-28T15:21:14.999Z</time>
      </trkpt>
      <trkpt lat="43.99258" lon="3.50597">
        <ele>572.6</ele>
        <time>2026-05-28T15:21:15.999Z</time>
      </trkpt>
      <trkpt lat="43.99258" lon="3.50598">
        <ele>572.9</ele>
        <time>2026-05-28T15:21:16.999Z</time>
      </trkpt>
      <trkpt lat="43.99258" lon="3.50599">
        <ele>572.9</ele>
        <time>2026-05-28T15:21:17.999Z</time>
      </trkpt>
      <trkpt lat="43.99258" lon="3.50599">
        <ele>572.9</ele>
        <time>2026-05-28T15:21:18.999Z</time>
      </trkpt>
      <trkpt lat="43.99258" lon="3.506">
        <ele>572.8</ele>
        <time>2026-05-28T15:21:19.999Z</time>
      </trkpt>
      <trkpt lat="43.99257" lon="3.50601">
        <ele>572.4</ele>
        <time>2026-05-28T15:21:20.999Z</time>
      </trkpt>
      <trkpt lat="43.99256" lon="3.50602">
        <ele>572.1</ele>
        <time>2026-05-28T15:21:21.999Z</time>
      </trkpt>
      <trkpt lat="43.99256" lon="3.50603">
        <ele>571.8</ele>
        <time>2026-05-28T15:21:22.999Z</time>
      </trkpt>
      <trkpt lat="43.99256" lon="3.50603">
        <ele>571.9</ele>
        <time>2026-05-28T15:21:23.999Z</time>
      </trkpt>
      <trkpt lat="43.99256" lon="3.50604">
        <ele>571.9</ele>
        <time>2026-05-28T15:21:24.999Z</time>
      </trkpt>
      <trkpt lat="43.99255" lon="3.50606">
        <ele>571.9</ele>
        <time>2026-05-28T15:21:25.999Z</time>
      </trkpt>
      <trkpt lat="43.99255" lon="3.50607">
        <ele>571.5</ele>
        <time>2026-05-28T15:21:26.999Z</time>
      </trkpt>
      <trkpt lat="43.99255" lon="3.50608">
        <ele>571.4</ele>
        <time>2026-05-28T15:21:27.999Z</time>
      </trkpt>
      <trkpt lat="43.99254" lon="3.50609">
        <ele>571.2</ele>
        <time>2026-05-28T15:21:28.999Z</time>
      </trkpt>
      <trkpt lat="43.99254" lon="3.50609">
        <ele>571</ele>
        <time>2026-05-28T15:21:29.999Z</time>
      </trkpt>
      <trkpt lat="43.99253" lon="3.5061">
        <ele>570.7</ele>
        <time>2026-05-28T15:21:30.999Z</time>
      </trkpt>
      <trkpt lat="43.99252" lon="3.5061">
        <ele>570.3</ele>
        <time>2026-05-28T15:21:31.999Z</time>
      </trkpt>
      <trkpt lat="43.99252" lon="3.50611">
        <ele>570</ele>
        <time>2026-05-28T15:21:32.999Z</time>
      </trkpt>
      <trkpt lat="43.99251" lon="3.50611">
        <ele>570</ele>
        <time>2026-05-28T15:21:33.999Z</time>
      </trkpt>
      <trkpt lat="43.99251" lon="3.50612">
        <ele>569.7</ele>
        <time>2026-05-28T15:21:34.999Z</time>
      </trkpt>
      <trkpt lat="43.9925" lon="3.50613">
        <ele>569.6</ele>
        <time>2026-05-28T15:21:35.999Z</time>
      </trkpt>
      <trkpt lat="43.99249" lon="3.50613">
        <ele>569.4</ele>
        <time>2026-05-28T15:21:36.999Z</time>
      </trkpt>
      <trkpt lat="43.99248" lon="3.50614">
        <ele>569.3</ele>
        <time>2026-05-28T15:21:37.999Z</time>
      </trkpt>
      <trkpt lat="43.99247" lon="3.50614">
        <ele>569.2</ele>
        <time>2026-05-28T15:21:38.999Z</time>
      </trkpt>
      <trkpt lat="43.99246" lon="3.50615">
        <ele>569.1</ele>
        <time>2026-05-28T15:21:39.999Z</time>
      </trkpt>
      <trkpt lat="43.99246" lon="3.50615">
        <ele>569.1</ele>
        <time>2026-05-28T15:21:40.999Z</time>
      </trkpt>
      <trkpt lat="43.99246" lon="3.50615">
        <ele>569.3</ele>
        <time>2026-05-28T15:21:41.999Z</time>
      </trkpt>
      <trkpt lat="43.99245" lon="3.50616">
        <ele>569.3</ele>
        <time>2026-05-28T15:21:42.999Z</time>
      </trkpt>
      <trkpt lat="43.99244" lon="3.50616">
        <ele>569.6</ele>
        <time>2026-05-28T15:21:43.999Z</time>
      </trkpt>
      <trkpt lat="43.99243" lon="3.50616">
        <ele>569.8</ele>
        <time>2026-05-28T15:21:44.999Z</time>
      </trkpt>
      <trkpt lat="43.99243" lon="3.50617">
        <ele>569.6</ele>
        <time>2026-05-28T15:21:45.999Z</time>
      </trkpt>
      <trkpt lat="43.99242" lon="3.50618">
        <ele>569.8</ele>
        <time>2026-05-28T15:21:46.999Z</time>
      </trkpt>
      <trkpt lat="43.99241" lon="3.50618">
        <ele>569.7</ele>
        <time>2026-05-28T15:21:47.999Z</time>
      </trkpt>
      <trkpt lat="43.9924" lon="3.50619">
        <ele>569.7</ele>
        <time>2026-05-28T15:21:48.999Z</time>
      </trkpt>
      <trkpt lat="43.99239" lon="3.5062">
        <ele>569.5</ele>
        <time>2026-05-28T15:21:49.999Z</time>
      </trkpt>
      <trkpt lat="43.99239" lon="3.50621">
        <ele>569.4</ele>
        <time>2026-05-28T15:21:50.999Z</time>
      </trkpt>
      <trkpt lat="43.99238" lon="3.50621">
        <ele>569.3</ele>
        <time>2026-05-28T15:21:51.999Z</time>
      </trkpt>
      <trkpt lat="43.99238" lon="3.50622">
        <ele>569.1</ele>
        <time>2026-05-28T15:21:52.999Z</time>
      </trkpt>
      <trkpt lat="43.99237" lon="3.50622">
        <ele>568.9</ele>
        <time>2026-05-28T15:21:53.999Z</time>
      </trkpt>
      <trkpt lat="43.99236" lon="3.50622">
        <ele>568.6</ele>
        <time>2026-05-28T15:21:54.999Z</time>
      </trkpt>
      <trkpt lat="43.99235" lon="3.50623">
        <ele>568.2</ele>
        <time>2026-05-28T15:21:55.999Z</time>
      </trkpt>
      <trkpt lat="43.99235" lon="3.50623">
        <ele>568.4</ele>
        <time>2026-05-28T15:21:56.999Z</time>
      </trkpt>
      <trkpt lat="43.99234" lon="3.50624">
        <ele>568.6</ele>
        <time>2026-05-28T15:21:57.999Z</time>
      </trkpt>
      <trkpt lat="43.99234" lon="3.50625">
        <ele>568.8</ele>
        <time>2026-05-28T15:21:58.999Z</time>
      </trkpt>
      <trkpt lat="43.99233" lon="3.50626">
        <ele>568.9</ele>
        <time>2026-05-28T15:21:59.999Z</time>
      </trkpt>
      <trkpt lat="43.99233" lon="3.50627">
        <ele>569.1</ele>
        <time>2026-05-28T15:22:00.999Z</time>
      </trkpt>
      <trkpt lat="43.99232" lon="3.50629">
        <ele>569.1</ele>
        <time>2026-05-28T15:22:01.999Z</time>
      </trkpt>
      <trkpt lat="43.99231" lon="3.50629">
        <ele>569</ele>
        <time>2026-05-28T15:22:02.999Z</time>
      </trkpt>
      <trkpt lat="43.9923" lon="3.5063">
        <ele>568.8</ele>
        <time>2026-05-28T15:22:03.999Z</time>
      </trkpt>
      <trkpt lat="43.9923" lon="3.5063">
        <ele>568.4</ele>
        <time>2026-05-28T15:22:04.999Z</time>
      </trkpt>
      <trkpt lat="43.9923" lon="3.50631">
        <ele>568</ele>
        <time>2026-05-28T15:22:05.999Z</time>
      </trkpt>
      <trkpt lat="43.99229" lon="3.50631">
        <ele>568</ele>
        <time>2026-05-28T15:22:06.999Z</time>
      </trkpt>
      <trkpt lat="43.99228" lon="3.50632">
        <ele>568</ele>
        <time>2026-05-28T15:22:07.999Z</time>
      </trkpt>
      <trkpt lat="43.99228" lon="3.50633">
        <ele>567.7</ele>
        <time>2026-05-28T15:22:08.999Z</time>
      </trkpt>
      <trkpt lat="43.99227" lon="3.50634">
        <ele>567.4</ele>
        <time>2026-05-28T15:22:09.999Z</time>
      </trkpt>
      <trkpt lat="43.99227" lon="3.50634">
        <ele>567.2</ele>
        <time>2026-05-28T15:22:10.999Z</time>
      </trkpt>
      <trkpt lat="43.99227" lon="3.50635">
        <ele>567.2</ele>
        <time>2026-05-28T15:22:11.999Z</time>
      </trkpt>
      <trkpt lat="43.99226" lon="3.50636">
        <ele>567.1</ele>
        <time>2026-05-28T15:22:12.999Z</time>
      </trkpt>
      <trkpt lat="43.99225" lon="3.50636">
        <ele>566.9</ele>
        <time>2026-05-28T15:22:13.999Z</time>
      </trkpt>
      <trkpt lat="43.99225" lon="3.50637">
        <ele>566.7</ele>
        <time>2026-05-28T15:22:14.999Z</time>
      </trkpt>
      <trkpt lat="43.99224" lon="3.50637">
        <ele>566.6</ele>
        <time>2026-05-28T15:22:15.999Z</time>
      </trkpt>
      <trkpt lat="43.99223" lon="3.50638">
        <ele>566.3</ele>
        <time>2026-05-28T15:22:16.999Z</time>
      </trkpt>
      <trkpt lat="43.99222" lon="3.50638">
        <ele>566.2</ele>
        <time>2026-05-28T15:22:17.999Z</time>
      </trkpt>
      <trkpt lat="43.99221" lon="3.50637">
        <ele>566.1</ele>
        <time>2026-05-28T15:22:18.999Z</time>
      </trkpt>
      <trkpt lat="43.9922" lon="3.50636">
        <ele>565.7</ele>
        <time>2026-05-28T15:22:19.999Z</time>
      </trkpt>
      <trkpt lat="43.99219" lon="3.50636">
        <ele>565.6</ele>
        <time>2026-05-28T15:22:20.999Z</time>
      </trkpt>
      <trkpt lat="43.99218" lon="3.50635">
        <ele>565.4</ele>
        <time>2026-05-28T15:22:21.999Z</time>
      </trkpt>
      <trkpt lat="43.99217" lon="3.50635">
        <ele>565.3</ele>
        <time>2026-05-28T15:22:22.999Z</time>
      </trkpt>
      <trkpt lat="43.99217" lon="3.50635">
        <ele>565.3</ele>
        <time>2026-05-28T15:22:23.999Z</time>
      </trkpt>
      <trkpt lat="43.99216" lon="3.50635">
        <ele>565.3</ele>
        <time>2026-05-28T15:22:24.999Z</time>
      </trkpt>
      <trkpt lat="43.99215" lon="3.50635">
        <ele>565.6</ele>
        <time>2026-05-28T15:22:25.999Z</time>
      </trkpt>
      <trkpt lat="43.99215" lon="3.50636">
        <ele>565.6</ele>
        <time>2026-05-28T15:22:26.999Z</time>
      </trkpt>
      <trkpt lat="43.99215" lon="3.50635">
        <ele>565.6</ele>
        <time>2026-05-28T15:22:27.999Z</time>
      </trkpt>
      <trkpt lat="43.99215" lon="3.50635">
        <ele>565.4</ele>
        <time>2026-05-28T15:22:28.999Z</time>
      </trkpt>
      <trkpt lat="43.99215" lon="3.50635">
        <ele>565.2</ele>
        <time>2026-05-28T15:22:29.999Z</time>
      </trkpt>
      <trkpt lat="43.99215" lon="3.50635">
        <ele>565.2</ele>
        <time>2026-05-28T15:22:30.999Z</time>
      </trkpt>
      <trkpt lat="43.99215" lon="3.50635">
        <ele>565.1</ele>
        <time>2026-05-28T15:22:31.999Z</time>
      </trkpt>
      <trkpt lat="43.99215" lon="3.50635">
        <ele>565</ele>
        <time>2026-05-28T15:22:32.999Z</time>
      </trkpt>
      <trkpt lat="43.99215" lon="3.50635">
        <ele>564.8</ele>
        <time>2026-05-28T15:22:33.999Z</time>
      </trkpt>
      <trkpt lat="43.99215" lon="3.50635">
        <ele>564.7</ele>
        <time>2026-05-28T15:22:34.999Z</time>
      </trkpt>
      <trkpt lat="43.99215" lon="3.50635">
        <ele>564.7</ele>
        <time>2026-05-28T15:22:35.999Z</time>
      </trkpt>
      <trkpt lat="43.99215" lon="3.50635">
        <ele>564.6</ele>
        <time>2026-05-28T15:22:36.999Z</time>
      </trkpt>
      <trkpt lat="43.99215" lon="3.50635">
        <ele>564.4</ele>
        <time>2026-05-28T15:22:37.999Z</time>
      </trkpt>
      <trkpt lat="43.99216" lon="3.50635">
        <ele>564.3</ele>
        <time>2026-05-28T15:22:38.999Z</time>
      </trkpt>
      <trkpt lat="43.99216" lon="3.50635">
        <ele>564.2</ele>
        <time>2026-05-28T15:22:39.999Z</time>
      </trkpt>
      <trkpt lat="43.99216" lon="3.50635">
        <ele>564</ele>
        <time>2026-05-28T15:22:40.999Z</time>
      </trkpt>
      <trkpt lat="43.99216" lon="3.50635">
        <ele>563.9</ele>
        <time>2026-05-28T15:22:41.999Z</time>
      </trkpt>
      <trkpt lat="43.99216" lon="3.50635">
        <ele>563.9</ele>
        <time>2026-05-28T15:22:42.999Z</time>
      </trkpt>
      <trkpt lat="43.99216" lon="3.50635">
        <ele>563.8</ele>
        <time>2026-05-28T15:22:43.999Z</time>
      </trkpt>
      <trkpt lat="43.99216" lon="3.50635">
        <ele>563.9</ele>
        <time>2026-05-28T15:22:44.999Z</time>
      </trkpt>
      <trkpt lat="43.99216" lon="3.50635">
        <ele>564</ele>
        <time>2026-05-28T15:22:45.999Z</time>
      </trkpt>
      <trkpt lat="43.99216" lon="3.50635">
        <ele>564.1</ele>
        <time>2026-05-28T15:22:46.999Z</time>
      </trkpt>
      <trkpt lat="43.99216" lon="3.50635">
        <ele>564.2</ele>
        <time>2026-05-28T15:22:47.999Z</time>
      </trkpt>
      <trkpt lat="43.99216" lon="3.50635">
        <ele>564.4</ele>
        <time>2026-05-28T15:22:48.999Z</time>
      </trkpt>
      <trkpt lat="43.99216" lon="3.50635">
        <ele>564.4</ele>
        <time>2026-05-28T15:22:49.999Z</time>
      </trkpt>
      <trkpt lat="43.99215" lon="3.50634">
        <ele>564.2</ele>
        <time>2026-05-28T15:22:50.999Z</time>
      </trkpt>
      <trkpt lat="43.99214" lon="3.50634">
        <ele>564.2</ele>
        <time>2026-05-28T15:22:51.999Z</time>
      </trkpt>
      <trkpt lat="43.99213" lon="3.50634">
        <ele>564</ele>
        <time>2026-05-28T15:22:52.999Z</time>
      </trkpt>
      <trkpt lat="43.99212" lon="3.50634">
        <ele>564.1</ele>
        <time>2026-05-28T15:22:53.999Z</time>
      </trkpt>
      <trkpt lat="43.99211" lon="3.50634">
        <ele>564.1</ele>
        <time>2026-05-28T15:22:54.999Z</time>
      </trkpt>
      <trkpt lat="43.99211" lon="3.50633">
        <ele>564</ele>
        <time>2026-05-28T15:22:55.999Z</time>
      </trkpt>
      <trkpt lat="43.9921" lon="3.50633">
        <ele>564</ele>
        <time>2026-05-28T15:22:56.999Z</time>
      </trkpt>
      <trkpt lat="43.99209" lon="3.50633">
        <ele>564.2</ele>
        <time>2026-05-28T15:22:57.999Z</time>
      </trkpt>
      <trkpt lat="43.99209" lon="3.50633">
        <ele>564.2</ele>
        <time>2026-05-28T15:22:58.999Z</time>
      </trkpt>
      <trkpt lat="43.99208" lon="3.50633">
        <ele>564.1</ele>
        <time>2026-05-28T15:22:59.999Z</time>
      </trkpt>
      <trkpt lat="43.99208" lon="3.50633">
        <ele>564.1</ele>
        <time>2026-05-28T15:23:00.999Z</time>
      </trkpt>
      <trkpt lat="43.99207" lon="3.50633">
        <ele>563.7</ele>
        <time>2026-05-28T15:23:01.999Z</time>
      </trkpt>
      <trkpt lat="43.99206" lon="3.50632">
        <ele>563.3</ele>
        <time>2026-05-28T15:23:02.999Z</time>
      </trkpt>
      <trkpt lat="43.99205" lon="3.50631">
        <ele>563</ele>
        <time>2026-05-28T15:23:03.999Z</time>
      </trkpt>
      <trkpt lat="43.99204" lon="3.5063">
        <ele>563</ele>
        <time>2026-05-28T15:23:04.999Z</time>
      </trkpt>
      <trkpt lat="43.99204" lon="3.50629">
        <ele>562.9</ele>
        <time>2026-05-28T15:23:05.999Z</time>
      </trkpt>
      <trkpt lat="43.99203" lon="3.50629">
        <ele>562.9</ele>
        <time>2026-05-28T15:23:06.999Z</time>
      </trkpt>
      <trkpt lat="43.99202" lon="3.50628">
        <ele>562.6</ele>
        <time>2026-05-28T15:23:07.999Z</time>
      </trkpt>
      <trkpt lat="43.99201" lon="3.50628">
        <ele>562.6</ele>
        <time>2026-05-28T15:23:08.999Z</time>
      </trkpt>
      <trkpt lat="43.992" lon="3.50628">
        <ele>562.6</ele>
        <time>2026-05-28T15:23:09.999Z</time>
      </trkpt>
      <trkpt lat="43.99199" lon="3.50628">
        <ele>562.7</ele>
        <time>2026-05-28T15:23:10.999Z</time>
      </trkpt>
      <trkpt lat="43.99198" lon="3.50628">
        <ele>562.7</ele>
        <time>2026-05-28T15:23:11.999Z</time>
      </trkpt>
      <trkpt lat="43.99197" lon="3.50628">
        <ele>562.5</ele>
        <time>2026-05-28T15:23:12.999Z</time>
      </trkpt>
      <trkpt lat="43.99196" lon="3.50628">
        <ele>562.2</ele>
        <time>2026-05-28T15:23:13.999Z</time>
      </trkpt>
      <trkpt lat="43.99195" lon="3.50628">
        <ele>562</ele>
        <time>2026-05-28T15:23:14.999Z</time>
      </trkpt>
      <trkpt lat="43.99195" lon="3.50627">
        <ele>561.7</ele>
        <time>2026-05-28T15:23:15.999Z</time>
      </trkpt>
      <trkpt lat="43.99194" lon="3.50627">
        <ele>561.3</ele>
        <time>2026-05-28T15:23:16.999Z</time>
      </trkpt>
      <trkpt lat="43.99193" lon="3.50626">
        <ele>560.7</ele>
        <time>2026-05-28T15:23:17.999Z</time>
      </trkpt>
      <trkpt lat="43.99193" lon="3.50625">
        <ele>560.4</ele>
        <time>2026-05-28T15:23:18.999Z</time>
      </trkpt>
      <trkpt lat="43.99192" lon="3.50625">
        <ele>560</ele>
        <time>2026-05-28T15:23:19.999Z</time>
      </trkpt>
      <trkpt lat="43.99192" lon="3.50625">
        <ele>559.7</ele>
        <time>2026-05-28T15:23:20.999Z</time>
      </trkpt>
      <trkpt lat="43.99191" lon="3.50625">
        <ele>559.4</ele>
        <time>2026-05-28T15:23:21.999Z</time>
      </trkpt>
      <trkpt lat="43.9919" lon="3.50625">
        <ele>559.2</ele>
        <time>2026-05-28T15:23:22.999Z</time>
      </trkpt>
      <trkpt lat="43.99189" lon="3.50625">
        <ele>558.8</ele>
        <time>2026-05-28T15:23:23.999Z</time>
      </trkpt>
      <trkpt lat="43.99188" lon="3.50625">
        <ele>558.7</ele>
        <time>2026-05-28T15:23:24.999Z</time>
      </trkpt>
      <trkpt lat="43.99187" lon="3.50625">
        <ele>558.7</ele>
        <time>2026-05-28T15:23:25.999Z</time>
      </trkpt>
      <trkpt lat="43.99186" lon="3.50625">
        <ele>558.7</ele>
        <time>2026-05-28T15:23:26.999Z</time>
      </trkpt>
      <trkpt lat="43.99185" lon="3.50625">
        <ele>558.2</ele>
        <time>2026-05-28T15:23:27.999Z</time>
      </trkpt>
      <trkpt lat="43.99184" lon="3.50625">
        <ele>558</ele>
        <time>2026-05-28T15:23:28.999Z</time>
      </trkpt>
      <trkpt lat="43.99183" lon="3.50626">
        <ele>558.1</ele>
        <time>2026-05-28T15:23:29.999Z</time>
      </trkpt>
      <trkpt lat="43.99181" lon="3.50627">
        <ele>557.6</ele>
        <time>2026-05-28T15:23:30.999Z</time>
      </trkpt>
      <trkpt lat="43.9918" lon="3.50626">
        <ele>556.9</ele>
        <time>2026-05-28T15:23:31.999Z</time>
      </trkpt>
      <trkpt lat="43.9918" lon="3.50626">
        <ele>556.5</ele>
        <time>2026-05-28T15:23:32.999Z</time>
      </trkpt>
      <trkpt lat="43.99181" lon="3.50627">
        <ele>556.6</ele>
        <time>2026-05-28T15:23:33.999Z</time>
      </trkpt>
      <trkpt lat="43.9918" lon="3.50627">
        <ele>556.9</ele>
        <time>2026-05-28T15:23:34.999Z</time>
      </trkpt>
      <trkpt lat="43.9918" lon="3.50627">
        <ele>556.8</ele>
        <time>2026-05-28T15:23:35.999Z</time>
      </trkpt>
      <trkpt lat="43.99179" lon="3.50627">
        <ele>556.7</ele>
        <time>2026-05-28T15:23:36.999Z</time>
      </trkpt>
      <trkpt lat="43.99178" lon="3.50627">
        <ele>556.5</ele>
        <time>2026-05-28T15:23:37.999Z</time>
      </trkpt>
      <trkpt lat="43.99177" lon="3.50627">
        <ele>556.3</ele>
        <time>2026-05-28T15:23:38.999Z</time>
      </trkpt>
      <trkpt lat="43.99177" lon="3.50627">
        <ele>556.1</ele>
        <time>2026-05-28T15:23:39.999Z</time>
      </trkpt>
      <trkpt lat="43.99176" lon="3.50626">
        <ele>556.1</ele>
        <time>2026-05-28T15:23:40.999Z</time>
      </trkpt>
      <trkpt lat="43.99175" lon="3.50626">
        <ele>556.1</ele>
        <time>2026-05-28T15:23:41.999Z</time>
      </trkpt>
      <trkpt lat="43.99174" lon="3.50625">
        <ele>556.1</ele>
        <time>2026-05-28T15:23:42.999Z</time>
      </trkpt>
      <trkpt lat="43.99173" lon="3.50625">
        <ele>555.8</ele>
        <time>2026-05-28T15:23:43.999Z</time>
      </trkpt>
      <trkpt lat="43.99172" lon="3.50625">
        <ele>555.7</ele>
        <time>2026-05-28T15:23:44.999Z</time>
      </trkpt>
      <trkpt lat="43.99171" lon="3.50624">
        <ele>555.6</ele>
        <time>2026-05-28T15:23:45.999Z</time>
      </trkpt>
      <trkpt lat="43.9917" lon="3.50624">
        <ele>555.8</ele>
        <time>2026-05-28T15:23:46.999Z</time>
      </trkpt>
      <trkpt lat="43.99169" lon="3.50624">
        <ele>555.9</ele>
        <time>2026-05-28T15:23:47.999Z</time>
      </trkpt>
      <trkpt lat="43.99169" lon="3.50623">
        <ele>555.9</ele>
        <time>2026-05-28T15:23:48.999Z</time>
      </trkpt>
      <trkpt lat="43.99168" lon="3.50623">
        <ele>555.6</ele>
        <time>2026-05-28T15:23:49.999Z</time>
      </trkpt>
      <trkpt lat="43.99166" lon="3.50623">
        <ele>555.3</ele>
        <time>2026-05-28T15:23:50.999Z</time>
      </trkpt>
      <trkpt lat="43.99165" lon="3.50623">
        <ele>555.1</ele>
        <time>2026-05-28T15:23:51.999Z</time>
      </trkpt>
      <trkpt lat="43.99163" lon="3.50623">
        <ele>555.1</ele>
        <time>2026-05-28T15:23:52.999Z</time>
      </trkpt>
      <trkpt lat="43.99162" lon="3.50623">
        <ele>555</ele>
        <time>2026-05-28T15:23:53.999Z</time>
      </trkpt>
      <trkpt lat="43.99161" lon="3.50623">
        <ele>554.7</ele>
        <time>2026-05-28T15:23:54.999Z</time>
      </trkpt>
      <trkpt lat="43.9916" lon="3.50623">
        <ele>554.4</ele>
        <time>2026-05-28T15:23:55.999Z</time>
      </trkpt>
      <trkpt lat="43.9916" lon="3.50623">
        <ele>554.2</ele>
        <time>2026-05-28T15:23:56.999Z</time>
      </trkpt>
      <trkpt lat="43.99159" lon="3.50623">
        <ele>553.8</ele>
        <time>2026-05-28T15:23:57.999Z</time>
      </trkpt>
      <trkpt lat="43.99158" lon="3.50624">
        <ele>553.2</ele>
        <time>2026-05-28T15:23:58.999Z</time>
      </trkpt>
      <trkpt lat="43.99157" lon="3.50624">
        <ele>552.9</ele>
        <time>2026-05-28T15:23:59.999Z</time>
      </trkpt>
      <trkpt lat="43.99157" lon="3.50624">
        <ele>552.7</ele>
        <time>2026-05-28T15:24:00.999Z</time>
      </trkpt>
      <trkpt lat="43.99156" lon="3.50624">
        <ele>552.3</ele>
        <time>2026-05-28T15:24:01.999Z</time>
      </trkpt>
      <trkpt lat="43.99155" lon="3.50624">
        <ele>552.1</ele>
        <time>2026-05-28T15:24:02.999Z</time>
      </trkpt>
      <trkpt lat="43.99154" lon="3.50623">
        <ele>552</ele>
        <time>2026-05-28T15:24:03.999Z</time>
      </trkpt>
      <trkpt lat="43.99153" lon="3.50623">
        <ele>551.6</ele>
        <time>2026-05-28T15:24:04.999Z</time>
      </trkpt>
      <trkpt lat="43.99153" lon="3.50623">
        <ele>551.3</ele>
        <time>2026-05-28T15:24:05.999Z</time>
      </trkpt>
      <trkpt lat="43.99152" lon="3.50622">
        <ele>551.1</ele>
        <time>2026-05-28T15:24:06.999Z</time>
      </trkpt>
      <trkpt lat="43.99152" lon="3.50622">
        <ele>550.9</ele>
        <time>2026-05-28T15:24:07.999Z</time>
      </trkpt>
      <trkpt lat="43.99151" lon="3.50622">
        <ele>550.8</ele>
        <time>2026-05-28T15:24:08.999Z</time>
      </trkpt>
      <trkpt lat="43.9915" lon="3.50621">
        <ele>550.2</ele>
        <time>2026-05-28T15:24:09.999Z</time>
      </trkpt>
      <trkpt lat="43.99149" lon="3.50621">
        <ele>549.7</ele>
        <time>2026-05-28T15:24:10.999Z</time>
      </trkpt>
      <trkpt lat="43.99148" lon="3.50621">
        <ele>549.8</ele>
        <time>2026-05-28T15:24:11.999Z</time>
      </trkpt>
      <trkpt lat="43.99148" lon="3.50621">
        <ele>549.8</ele>
        <time>2026-05-28T15:24:12.999Z</time>
      </trkpt>
      <trkpt lat="43.99147" lon="3.50621">
        <ele>549.8</ele>
        <time>2026-05-28T15:24:13.999Z</time>
      </trkpt>
      <trkpt lat="43.99147" lon="3.50621">
        <ele>550</ele>
        <time>2026-05-28T15:24:14.999Z</time>
      </trkpt>
      <trkpt lat="43.99146" lon="3.5062">
        <ele>550.1</ele>
        <time>2026-05-28T15:24:15.999Z</time>
      </trkpt>
      <trkpt lat="43.99145" lon="3.50619">
        <ele>550.4</ele>
        <time>2026-05-28T15:24:16.999Z</time>
      </trkpt>
      <trkpt lat="43.99144" lon="3.50619">
        <ele>550.7</ele>
        <time>2026-05-28T15:24:17.999Z</time>
      </trkpt>
      <trkpt lat="43.99143" lon="3.50619">
        <ele>550.8</ele>
        <time>2026-05-28T15:24:18.999Z</time>
      </trkpt>
      <trkpt lat="43.99142" lon="3.50618">
        <ele>550.9</ele>
        <time>2026-05-28T15:24:19.999Z</time>
      </trkpt>
      <trkpt lat="43.9914" lon="3.50617">
        <ele>551</ele>
        <time>2026-05-28T15:24:20.999Z</time>
      </trkpt>
      <trkpt lat="43.99138" lon="3.50616">
        <ele>550.9</ele>
        <time>2026-05-28T15:24:21.999Z</time>
      </trkpt>
      <trkpt lat="43.99136" lon="3.50616">
        <ele>550.8</ele>
        <time>2026-05-28T15:24:22.999Z</time>
      </trkpt>
      <trkpt lat="43.99135" lon="3.50616">
        <ele>550.5</ele>
        <time>2026-05-28T15:24:23.999Z</time>
      </trkpt>
      <trkpt lat="43.99134" lon="3.50616">
        <ele>550.6</ele>
        <time>2026-05-28T15:24:24.999Z</time>
      </trkpt>
      <trkpt lat="43.99133" lon="3.50616">
        <ele>550.5</ele>
        <time>2026-05-28T15:24:25.999Z</time>
      </trkpt>
      <trkpt lat="43.99132" lon="3.50617">
        <ele>550.5</ele>
        <time>2026-05-28T15:24:26.999Z</time>
      </trkpt>
      <trkpt lat="43.99132" lon="3.50617">
        <ele>550.1</ele>
        <time>2026-05-28T15:24:27.999Z</time>
      </trkpt>
      <trkpt lat="43.99131" lon="3.50617">
        <ele>549.8</ele>
        <time>2026-05-28T15:24:28.999Z</time>
      </trkpt>
      <trkpt lat="43.99129" lon="3.50617">
        <ele>549.9</ele>
        <time>2026-05-28T15:24:29.999Z</time>
      </trkpt>
      <trkpt lat="43.99128" lon="3.50617">
        <ele>549.8</ele>
        <time>2026-05-28T15:24:30.999Z</time>
      </trkpt>
      <trkpt lat="43.99127" lon="3.50618">
        <ele>549.9</ele>
        <time>2026-05-28T15:24:31.999Z</time>
      </trkpt>
      <trkpt lat="43.99126" lon="3.50618">
        <ele>549.8</ele>
        <time>2026-05-28T15:24:32.999Z</time>
      </trkpt>
      <trkpt lat="43.99125" lon="3.50618">
        <ele>549.4</ele>
        <time>2026-05-28T15:24:33.999Z</time>
      </trkpt>
      <trkpt lat="43.99124" lon="3.50618">
        <ele>548.9</ele>
        <time>2026-05-28T15:24:34.999Z</time>
      </trkpt>
      <trkpt lat="43.99123" lon="3.50619">
        <ele>548.8</ele>
        <time>2026-05-28T15:24:35.999Z</time>
      </trkpt>
      <trkpt lat="43.99122" lon="3.5062">
        <ele>549</ele>
        <time>2026-05-28T15:24:36.999Z</time>
      </trkpt>
      <trkpt lat="43.99121" lon="3.5062">
        <ele>549.1</ele>
        <time>2026-05-28T15:24:37.999Z</time>
      </trkpt>
      <trkpt lat="43.9912" lon="3.50619">
        <ele>549</ele>
        <time>2026-05-28T15:24:38.999Z</time>
      </trkpt>
      <trkpt lat="43.9912" lon="3.50619">
        <ele>548.9</ele>
        <time>2026-05-28T15:24:39.999Z</time>
      </trkpt>
      <trkpt lat="43.99119" lon="3.50618">
        <ele>548.4</ele>
        <time>2026-05-28T15:24:40.999Z</time>
      </trkpt>
      <trkpt lat="43.99119" lon="3.50617">
        <ele>548</ele>
        <time>2026-05-28T15:24:41.999Z</time>
      </trkpt>
      <trkpt lat="43.99119" lon="3.50615">
        <ele>547.9</ele>
        <time>2026-05-28T15:24:42.999Z</time>
      </trkpt>
      <trkpt lat="43.99119" lon="3.50613">
        <ele>547.9</ele>
        <time>2026-05-28T15:24:43.999Z</time>
      </trkpt>
      <trkpt lat="43.99119" lon="3.50612">
        <ele>547.9</ele>
        <time>2026-05-28T15:24:44.999Z</time>
      </trkpt>
      <trkpt lat="43.99119" lon="3.50611">
        <ele>547.9</ele>
        <time>2026-05-28T15:24:45.999Z</time>
      </trkpt>
      <trkpt lat="43.99118" lon="3.5061">
        <ele>548.1</ele>
        <time>2026-05-28T15:24:46.999Z</time>
      </trkpt>
      <trkpt lat="43.99118" lon="3.50608">
        <ele>548.1</ele>
        <time>2026-05-28T15:24:47.999Z</time>
      </trkpt>
      <trkpt lat="43.99118" lon="3.50607">
        <ele>548.1</ele>
        <time>2026-05-28T15:24:48.999Z</time>
      </trkpt>
      <trkpt lat="43.99119" lon="3.50606">
        <ele>547.9</ele>
        <time>2026-05-28T15:24:49.999Z</time>
      </trkpt>
      <trkpt lat="43.99119" lon="3.50604">
        <ele>547.6</ele>
        <time>2026-05-28T15:24:50.999Z</time>
      </trkpt>
      <trkpt lat="43.99119" lon="3.50602">
        <ele>547.5</ele>
        <time>2026-05-28T15:24:51.999Z</time>
      </trkpt>
      <trkpt lat="43.9912" lon="3.50601">
        <ele>547.3</ele>
        <time>2026-05-28T15:24:52.999Z</time>
      </trkpt>
      <trkpt lat="43.9912" lon="3.506">
        <ele>547.3</ele>
        <time>2026-05-28T15:24:53.999Z</time>
      </trkpt>
      <trkpt lat="43.99121" lon="3.50598">
        <ele>547.4</ele>
        <time>2026-05-28T15:24:54.999Z</time>
      </trkpt>
      <trkpt lat="43.99122" lon="3.50597">
        <ele>547.4</ele>
        <time>2026-05-28T15:24:55.999Z</time>
      </trkpt>
      <trkpt lat="43.99122" lon="3.50595">
        <ele>547.4</ele>
        <time>2026-05-28T15:24:56.999Z</time>
      </trkpt>
      <trkpt lat="43.99123" lon="3.50594">
        <ele>547.3</ele>
        <time>2026-05-28T15:24:57.999Z</time>
      </trkpt>
      <trkpt lat="43.99123" lon="3.50593">
        <ele>547.2</ele>
        <time>2026-05-28T15:24:58.999Z</time>
      </trkpt>
      <trkpt lat="43.99123" lon="3.50592">
        <ele>547.2</ele>
        <time>2026-05-28T15:24:59.999Z</time>
      </trkpt>
      <trkpt lat="43.99123" lon="3.50591">
        <ele>547.1</ele>
        <time>2026-05-28T15:25:00.999Z</time>
      </trkpt>
      <trkpt lat="43.99123" lon="3.5059">
        <ele>546.9</ele>
        <time>2026-05-28T15:25:01.999Z</time>
      </trkpt>
      <trkpt lat="43.99123" lon="3.5059">
        <ele>546.8</ele>
        <time>2026-05-28T15:25:02.999Z</time>
      </trkpt>
      <trkpt lat="43.99123" lon="3.50588">
        <ele>546.6</ele>
        <time>2026-05-28T15:25:03.999Z</time>
      </trkpt>
      <trkpt lat="43.99124" lon="3.50586">
        <ele>546.3</ele>
        <time>2026-05-28T15:25:04.999Z</time>
      </trkpt>
      <trkpt lat="43.99125" lon="3.50583">
        <ele>546</ele>
        <time>2026-05-28T15:25:05.999Z</time>
      </trkpt>
      <trkpt lat="43.99125" lon="3.50581">
        <ele>545.7</ele>
        <time>2026-05-28T15:25:06.999Z</time>
      </trkpt>
      <trkpt lat="43.99126" lon="3.5058">
        <ele>545.5</ele>
        <time>2026-05-28T15:25:07.999Z</time>
      </trkpt>
      <trkpt lat="43.99126" lon="3.50578">
        <ele>545.5</ele>
        <time>2026-05-28T15:25:08.999Z</time>
      </trkpt>
      <trkpt lat="43.99126" lon="3.50577">
        <ele>545.5</ele>
        <time>2026-05-28T15:25:09.999Z</time>
      </trkpt>
      <trkpt lat="43.99126" lon="3.50576">
        <ele>545.7</ele>
        <time>2026-05-28T15:25:10.999Z</time>
      </trkpt>
      <trkpt lat="43.99127" lon="3.50574">
        <ele>545.5</ele>
        <time>2026-05-28T15:25:11.999Z</time>
      </trkpt>
      <trkpt lat="43.99128" lon="3.50573">
        <ele>545.4</ele>
        <time>2026-05-28T15:25:12.999Z</time>
      </trkpt>
      <trkpt lat="43.99128" lon="3.50571">
        <ele>545.6</ele>
        <time>2026-05-28T15:25:13.999Z</time>
      </trkpt>
      <trkpt lat="43.99129" lon="3.5057">
        <ele>545.6</ele>
        <time>2026-05-28T15:25:14.999Z</time>
      </trkpt>
      <trkpt lat="43.99129" lon="3.50569">
        <ele>545.6</ele>
        <time>2026-05-28T15:25:15.999Z</time>
      </trkpt>
      <trkpt lat="43.99129" lon="3.50567">
        <ele>545.7</ele>
        <time>2026-05-28T15:25:16.999Z</time>
      </trkpt>
      <trkpt lat="43.99129" lon="3.50566">
        <ele>545.7</ele>
        <time>2026-05-28T15:25:17.999Z</time>
      </trkpt>
      <trkpt lat="43.99129" lon="3.50564">
        <ele>545.6</ele>
        <time>2026-05-28T15:25:18.999Z</time>
      </trkpt>
      <trkpt lat="43.99129" lon="3.50563">
        <ele>545.8</ele>
        <time>2026-05-28T15:25:19.999Z</time>
      </trkpt>
      <trkpt lat="43.99129" lon="3.50561">
        <ele>545.7</ele>
        <time>2026-05-28T15:25:20.999Z</time>
      </trkpt>
      <trkpt lat="43.99129" lon="3.50559">
        <ele>545.5</ele>
        <time>2026-05-28T15:25:21.999Z</time>
      </trkpt>
      <trkpt lat="43.9913" lon="3.50557">
        <ele>545.5</ele>
        <time>2026-05-28T15:25:22.999Z</time>
      </trkpt>
      <trkpt lat="43.99131" lon="3.50556">
        <ele>545.4</ele>
        <time>2026-05-28T15:25:23.999Z</time>
      </trkpt>
      <trkpt lat="43.99131" lon="3.50556">
        <ele>545.4</ele>
        <time>2026-05-28T15:25:24.999Z</time>
      </trkpt>
      <trkpt lat="43.99131" lon="3.50554">
        <ele>545.5</ele>
        <time>2026-05-28T15:25:25.999Z</time>
      </trkpt>
      <trkpt lat="43.99132" lon="3.50553">
        <ele>545.2</ele>
        <time>2026-05-28T15:25:26.999Z</time>
      </trkpt>
      <trkpt lat="43.99133" lon="3.50551">
        <ele>545.1</ele>
        <time>2026-05-28T15:25:27.999Z</time>
      </trkpt>
      <trkpt lat="43.99133" lon="3.50549">
        <ele>545.1</ele>
        <time>2026-05-28T15:25:28.999Z</time>
      </trkpt>
      <trkpt lat="43.99133" lon="3.50547">
        <ele>545.1</ele>
        <time>2026-05-28T15:25:29.999Z</time>
      </trkpt>
      <trkpt lat="43.99132" lon="3.50546">
        <ele>545.1</ele>
        <time>2026-05-28T15:25:30.999Z</time>
      </trkpt>
      <trkpt lat="43.99133" lon="3.50545">
        <ele>545</ele>
        <time>2026-05-28T15:25:31.999Z</time>
      </trkpt>
      <trkpt lat="43.99133" lon="3.50544">
        <ele>544.9</ele>
        <time>2026-05-28T15:25:32.999Z</time>
      </trkpt>
      <trkpt lat="43.99133" lon="3.50542">
        <ele>544.6</ele>
        <time>2026-05-28T15:25:33.999Z</time>
      </trkpt>
      <trkpt lat="43.99133" lon="3.5054">
        <ele>544.2</ele>
        <time>2026-05-28T15:25:34.999Z</time>
      </trkpt>
      <trkpt lat="43.99133" lon="3.50538">
        <ele>544.3</ele>
        <time>2026-05-28T15:25:35.999Z</time>
      </trkpt>
      <trkpt lat="43.99134" lon="3.50536">
        <ele>544.2</ele>
        <time>2026-05-28T15:25:36.999Z</time>
      </trkpt>
      <trkpt lat="43.99134" lon="3.50535">
        <ele>544</ele>
        <time>2026-05-28T15:25:37.999Z</time>
      </trkpt>
      <trkpt lat="43.99134" lon="3.50534">
        <ele>544</ele>
        <time>2026-05-28T15:25:38.999Z</time>
      </trkpt>
      <trkpt lat="43.99134" lon="3.50533">
        <ele>543.6</ele>
        <time>2026-05-28T15:25:39.999Z</time>
      </trkpt>
      <trkpt lat="43.99134" lon="3.50533">
        <ele>543.4</ele>
        <time>2026-05-28T15:25:40.999Z</time>
      </trkpt>
      <trkpt lat="43.99134" lon="3.50531">
        <ele>543</ele>
        <time>2026-05-28T15:25:41.999Z</time>
      </trkpt>
      <trkpt lat="43.99135" lon="3.5053">
        <ele>542.8</ele>
        <time>2026-05-28T15:25:42.999Z</time>
      </trkpt>
      <trkpt lat="43.99135" lon="3.50528">
        <ele>542.4</ele>
        <time>2026-05-28T15:25:43.999Z</time>
      </trkpt>
      <trkpt lat="43.99135" lon="3.50526">
        <ele>542.5</ele>
        <time>2026-05-28T15:25:44.999Z</time>
      </trkpt>
      <trkpt lat="43.99135" lon="3.50525">
        <ele>542.6</ele>
        <time>2026-05-28T15:25:45.999Z</time>
      </trkpt>
      <trkpt lat="43.99135" lon="3.50524">
        <ele>542.6</ele>
        <time>2026-05-28T15:25:46.999Z</time>
      </trkpt>
      <trkpt lat="43.99136" lon="3.50524">
        <ele>542</ele>
        <time>2026-05-28T15:25:47.999Z</time>
      </trkpt>
      <trkpt lat="43.99136" lon="3.50523">
        <ele>541.5</ele>
        <time>2026-05-28T15:25:48.999Z</time>
      </trkpt>
      <trkpt lat="43.99136" lon="3.50521">
        <ele>541.4</ele>
        <time>2026-05-28T15:25:49.999Z</time>
      </trkpt>
      <trkpt lat="43.99136" lon="3.50519">
        <ele>541.7</ele>
        <time>2026-05-28T15:25:50.999Z</time>
      </trkpt>
      <trkpt lat="43.99136" lon="3.50517">
        <ele>541.9</ele>
        <time>2026-05-28T15:25:51.999Z</time>
      </trkpt>
      <trkpt lat="43.99135" lon="3.50515">
        <ele>542.1</ele>
        <time>2026-05-28T15:25:52.999Z</time>
      </trkpt>
      <trkpt lat="43.99134" lon="3.50514">
        <ele>542.4</ele>
        <time>2026-05-28T15:25:53.999Z</time>
      </trkpt>
      <trkpt lat="43.99132" lon="3.50512">
        <ele>542.1</ele>
        <time>2026-05-28T15:25:54.999Z</time>
      </trkpt>
      <trkpt lat="43.99131" lon="3.50511">
        <ele>541.9</ele>
        <time>2026-05-28T15:25:55.999Z</time>
      </trkpt>
      <trkpt lat="43.9913" lon="3.50509">
        <ele>542.1</ele>
        <time>2026-05-28T15:25:56.999Z</time>
      </trkpt>
      <trkpt lat="43.99129" lon="3.50507">
        <ele>542.2</ele>
        <time>2026-05-28T15:25:57.999Z</time>
      </trkpt>
      <trkpt lat="43.99128" lon="3.50506">
        <ele>542.5</ele>
        <time>2026-05-28T15:25:58.999Z</time>
      </trkpt>
      <trkpt lat="43.99128" lon="3.50505">
        <ele>542.5</ele>
        <time>2026-05-28T15:25:59.999Z</time>
      </trkpt>
      <trkpt lat="43.99127" lon="3.50505">
        <ele>542.9</ele>
        <time>2026-05-28T15:26:00.999Z</time>
      </trkpt>
      <trkpt lat="43.99126" lon="3.50504">
        <ele>542.6</ele>
        <time>2026-05-28T15:26:01.999Z</time>
      </trkpt>
      <trkpt lat="43.99126" lon="3.50503">
        <ele>542.4</ele>
        <time>2026-05-28T15:26:02.999Z</time>
      </trkpt>
      <trkpt lat="43.99125" lon="3.50502">
        <ele>542.2</ele>
        <time>2026-05-28T15:26:03.999Z</time>
      </trkpt>
      <trkpt lat="43.99124" lon="3.50502">
        <ele>542.2</ele>
        <time>2026-05-28T15:26:04.999Z</time>
      </trkpt>
      <trkpt lat="43.99123" lon="3.50501">
        <ele>542.4</ele>
        <time>2026-05-28T15:26:05.999Z</time>
      </trkpt>
      <trkpt lat="43.99122" lon="3.50501">
        <ele>542.2</ele>
        <time>2026-05-28T15:26:06.999Z</time>
      </trkpt>
      <trkpt lat="43.99121" lon="3.50501">
        <ele>541.8</ele>
        <time>2026-05-28T15:26:07.999Z</time>
      </trkpt>
      <trkpt lat="43.99119" lon="3.50501">
        <ele>541.5</ele>
        <time>2026-05-28T15:26:08.999Z</time>
      </trkpt>
      <trkpt lat="43.99117" lon="3.505">
        <ele>541.3</ele>
        <time>2026-05-28T15:26:09.999Z</time>
      </trkpt>
      <trkpt lat="43.99115" lon="3.50499">
        <ele>540.9</ele>
        <time>2026-05-28T15:26:10.999Z</time>
      </trkpt>
      <trkpt lat="43.99114" lon="3.50499">
        <ele>540.6</ele>
        <time>2026-05-28T15:26:11.999Z</time>
      </trkpt>
      <trkpt lat="43.99113" lon="3.50499">
        <ele>540.4</ele>
        <time>2026-05-28T15:26:12.999Z</time>
      </trkpt>
      <trkpt lat="43.99112" lon="3.505">
        <ele>540.3</ele>
        <time>2026-05-28T15:26:13.999Z</time>
      </trkpt>
      <trkpt lat="43.99112" lon="3.50499">
        <ele>540.1</ele>
        <time>2026-05-28T15:26:14.999Z</time>
      </trkpt>
      <trkpt lat="43.99112" lon="3.50499">
        <ele>539.6</ele>
        <time>2026-05-28T15:26:15.999Z</time>
      </trkpt>
      <trkpt lat="43.99112" lon="3.50499">
        <ele>539.2</ele>
        <time>2026-05-28T15:26:16.999Z</time>
      </trkpt>
      <trkpt lat="43.99112" lon="3.50499">
        <ele>539.1</ele>
        <time>2026-05-28T15:26:17.999Z</time>
      </trkpt>
      <trkpt lat="43.99112" lon="3.50499">
        <ele>538.9</ele>
        <time>2026-05-28T15:26:18.999Z</time>
      </trkpt>
      <trkpt lat="43.99112" lon="3.50499">
        <ele>538.5</ele>
        <time>2026-05-28T15:26:19.999Z</time>
      </trkpt>
      <trkpt lat="43.99112" lon="3.50499">
        <ele>538.3</ele>
        <time>2026-05-28T15:26:20.999Z</time>
      </trkpt>
      <trkpt lat="43.99112" lon="3.505">
        <ele>538.3</ele>
        <time>2026-05-28T15:26:21.999Z</time>
      </trkpt>
      <trkpt lat="43.99112" lon="3.505">
        <ele>538.2</ele>
        <time>2026-05-28T15:26:22.999Z</time>
      </trkpt>
      <trkpt lat="43.99111" lon="3.505">
        <ele>538.3</ele>
        <time>2026-05-28T15:26:23.999Z</time>
      </trkpt>
      <trkpt lat="43.9911" lon="3.50499">
        <ele>538.4</ele>
        <time>2026-05-28T15:26:24.999Z</time>
      </trkpt>
      <trkpt lat="43.9911" lon="3.50499">
        <ele>538.4</ele>
        <time>2026-05-28T15:26:25.999Z</time>
      </trkpt>
      <trkpt lat="43.99109" lon="3.505">
        <ele>538.7</ele>
        <time>2026-05-28T15:26:26.999Z</time>
      </trkpt>
      <trkpt lat="43.99109" lon="3.505">
        <ele>538.9</ele>
        <time>2026-05-28T15:26:27.999Z</time>
      </trkpt>
      <trkpt lat="43.99107" lon="3.50501">
        <ele>538.7</ele>
        <time>2026-05-28T15:26:28.999Z</time>
      </trkpt>
      <trkpt lat="43.99106" lon="3.50502">
        <ele>538.5</ele>
        <time>2026-05-28T15:26:29.999Z</time>
      </trkpt>
      <trkpt lat="43.99105" lon="3.50502">
        <ele>538.3</ele>
        <time>2026-05-28T15:26:30.999Z</time>
      </trkpt>
      <trkpt lat="43.99105" lon="3.50503">
        <ele>538.2</ele>
        <time>2026-05-28T15:26:31.999Z</time>
      </trkpt>
      <trkpt lat="43.99104" lon="3.50503">
        <ele>538</ele>
        <time>2026-05-28T15:26:32.999Z</time>
      </trkpt>
      <trkpt lat="43.99103" lon="3.50504">
        <ele>537.8</ele>
        <time>2026-05-28T15:26:33.999Z</time>
      </trkpt>
      <trkpt lat="43.99101" lon="3.50505">
        <ele>537.7</ele>
        <time>2026-05-28T15:26:34.999Z</time>
      </trkpt>
      <trkpt lat="43.991" lon="3.50506">
        <ele>537.2</ele>
        <time>2026-05-28T15:26:35.999Z</time>
      </trkpt>
      <trkpt lat="43.99099" lon="3.50506">
        <ele>536.9</ele>
        <time>2026-05-28T15:26:36.999Z</time>
      </trkpt>
      <trkpt lat="43.99099" lon="3.50507">
        <ele>536.8</ele>
        <time>2026-05-28T15:26:37.999Z</time>
      </trkpt>
      <trkpt lat="43.99098" lon="3.50508">
        <ele>536.4</ele>
        <time>2026-05-28T15:26:38.999Z</time>
      </trkpt>
      <trkpt lat="43.99097" lon="3.50509">
        <ele>536.7</ele>
        <time>2026-05-28T15:26:39.999Z</time>
      </trkpt>
      <trkpt lat="43.99097" lon="3.50509">
        <ele>536.8</ele>
        <time>2026-05-28T15:26:40.999Z</time>
      </trkpt>
      <trkpt lat="43.99096" lon="3.5051">
        <ele>536.5</ele>
        <time>2026-05-28T15:26:41.999Z</time>
      </trkpt>
      <trkpt lat="43.99095" lon="3.50511">
        <ele>536.5</ele>
        <time>2026-05-28T15:26:42.999Z</time>
      </trkpt>
      <trkpt lat="43.99095" lon="3.50512">
        <ele>536.5</ele>
        <time>2026-05-28T15:26:43.999Z</time>
      </trkpt>
      <trkpt lat="43.99094" lon="3.50512">
        <ele>536.7</ele>
        <time>2026-05-28T15:26:44.999Z</time>
      </trkpt>
      <trkpt lat="43.99093" lon="3.50512">
        <ele>536.7</ele>
        <time>2026-05-28T15:26:45.999Z</time>
      </trkpt>
      <trkpt lat="43.99092" lon="3.50512">
        <ele>536.4</ele>
        <time>2026-05-28T15:26:46.999Z</time>
      </trkpt>
      <trkpt lat="43.99091" lon="3.50514">
        <ele>535.9</ele>
        <time>2026-05-28T15:26:47.999Z</time>
      </trkpt>
      <trkpt lat="43.99091" lon="3.50514">
        <ele>535.7</ele>
        <time>2026-05-28T15:26:48.999Z</time>
      </trkpt>
      <trkpt lat="43.9909" lon="3.50515">
        <ele>535.1</ele>
        <time>2026-05-28T15:26:49.999Z</time>
      </trkpt>
      <trkpt lat="43.99089" lon="3.50515">
        <ele>535</ele>
        <time>2026-05-28T15:26:50.999Z</time>
      </trkpt>
      <trkpt lat="43.99088" lon="3.50516">
        <ele>534.4</ele>
        <time>2026-05-28T15:26:51.999Z</time>
      </trkpt>
      <trkpt lat="43.99087" lon="3.50516">
        <ele>534.2</ele>
        <time>2026-05-28T15:26:52.999Z</time>
      </trkpt>
      <trkpt lat="43.99086" lon="3.50517">
        <ele>534</ele>
        <time>2026-05-28T15:26:53.999Z</time>
      </trkpt>
      <trkpt lat="43.99085" lon="3.50518">
        <ele>533.8</ele>
        <time>2026-05-28T15:26:54.999Z</time>
      </trkpt>
      <trkpt lat="43.99085" lon="3.50518">
        <ele>533.4</ele>
        <time>2026-05-28T15:26:55.999Z</time>
      </trkpt>
      <trkpt lat="43.99084" lon="3.50519">
        <ele>533.8</ele>
        <time>2026-05-28T15:26:56.999Z</time>
      </trkpt>
      <trkpt lat="43.99084" lon="3.5052">
        <ele>533.8</ele>
        <time>2026-05-28T15:26:57.999Z</time>
      </trkpt>
      <trkpt lat="43.99083" lon="3.50521">
        <ele>533.9</ele>
        <time>2026-05-28T15:26:58.999Z</time>
      </trkpt>
      <trkpt lat="43.99082" lon="3.50523">
        <ele>533.6</ele>
        <time>2026-05-28T15:26:59.999Z</time>
      </trkpt>
      <trkpt lat="43.99082" lon="3.50523">
        <ele>533.5</ele>
        <time>2026-05-28T15:27:00.999Z</time>
      </trkpt>
      <trkpt lat="43.99081" lon="3.50524">
        <ele>533.6</ele>
        <time>2026-05-28T15:27:01.999Z</time>
      </trkpt>
      <trkpt lat="43.9908" lon="3.50525">
        <ele>533.3</ele>
        <time>2026-05-28T15:27:02.999Z</time>
      </trkpt>
      <trkpt lat="43.9908" lon="3.50525">
        <ele>533.3</ele>
        <time>2026-05-28T15:27:03.999Z</time>
      </trkpt>
      <trkpt lat="43.99079" lon="3.50526">
        <ele>533.3</ele>
        <time>2026-05-28T15:27:04.999Z</time>
      </trkpt>
      <trkpt lat="43.99078" lon="3.50526">
        <ele>533.3</ele>
        <time>2026-05-28T15:27:05.999Z</time>
      </trkpt>
      <trkpt lat="43.99077" lon="3.50526">
        <ele>533.4</ele>
        <time>2026-05-28T15:27:06.999Z</time>
      </trkpt>
      <trkpt lat="43.99075" lon="3.50525">
        <ele>533.3</ele>
        <time>2026-05-28T15:27:08.999Z</time>
      </trkpt>
      <trkpt lat="43.99073" lon="3.50525">
        <ele>533.1</ele>
        <time>2026-05-28T15:27:09.999Z</time>
      </trkpt>
      <trkpt lat="43.99072" lon="3.50525">
        <ele>533.2</ele>
        <time>2026-05-28T15:27:10.999Z</time>
      </trkpt>
      <trkpt lat="43.99071" lon="3.50524">
        <ele>533.2</ele>
        <time>2026-05-28T15:27:11.999Z</time>
      </trkpt>
      <trkpt lat="43.9907" lon="3.50523">
        <ele>533.1</ele>
        <time>2026-05-28T15:27:12.999Z</time>
      </trkpt>
      <trkpt lat="43.99069" lon="3.50523">
        <ele>532.6</ele>
        <time>2026-05-28T15:27:13.999Z</time>
      </trkpt>
      <trkpt lat="43.99068" lon="3.50523">
        <ele>532.4</ele>
        <time>2026-05-28T15:27:14.999Z</time>
      </trkpt>
      <trkpt lat="43.99069" lon="3.50525">
        <ele>531.7</ele>
        <time>2026-05-28T15:27:15.999Z</time>
      </trkpt>
      <trkpt lat="43.9907" lon="3.50527">
        <ele>529.2</ele>
        <time>2026-05-28T15:27:16.999Z</time>
      </trkpt>
      <trkpt lat="43.99069" lon="3.50525">
        <ele>528.8</ele>
        <time>2026-05-28T15:27:17.999Z</time>
      </trkpt>
      <trkpt lat="43.99068" lon="3.50524">
        <ele>529.3</ele>
        <time>2026-05-28T15:27:18.999Z</time>
      </trkpt>
      <trkpt lat="43.99068" lon="3.50524">
        <ele>529.6</ele>
        <time>2026-05-28T15:27:19.999Z</time>
      </trkpt>
      <trkpt lat="43.99068" lon="3.50523">
        <ele>531.2</ele>
        <time>2026-05-28T15:27:20.999Z</time>
      </trkpt>
      <trkpt lat="43.99068" lon="3.50524">
        <ele>531.2</ele>
        <time>2026-05-28T15:27:21.999Z</time>
      </trkpt>
      <trkpt lat="43.99068" lon="3.50524">
        <ele>531.8</ele>
        <time>2026-05-28T15:27:22.999Z</time>
      </trkpt>
      <trkpt lat="43.99068" lon="3.50524">
        <ele>531.8</ele>
        <time>2026-05-28T15:27:23.999Z</time>
      </trkpt>
      <trkpt lat="43.99068" lon="3.50525">
        <ele>532.1</ele>
        <time>2026-05-28T15:27:24.999Z</time>
      </trkpt>
      <trkpt lat="43.99067" lon="3.50525">
        <ele>532.2</ele>
        <time>2026-05-28T15:27:25.999Z</time>
      </trkpt>
      <trkpt lat="43.99066" lon="3.50526">
        <ele>532.1</ele>
        <time>2026-05-28T15:27:26.999Z</time>
      </trkpt>
      <trkpt lat="43.99066" lon="3.50525">
        <ele>532.1</ele>
        <time>2026-05-28T15:27:27.999Z</time>
      </trkpt>
      <trkpt lat="43.99068" lon="3.50523">
        <ele>531.6</ele>
        <time>2026-05-28T15:27:28.999Z</time>
      </trkpt>
      <trkpt lat="43.9907" lon="3.50523">
        <ele>531.6</ele>
        <time>2026-05-28T15:27:29.999Z</time>
      </trkpt>
      <trkpt lat="43.99069" lon="3.50522">
        <ele>531.3</ele>
        <time>2026-05-28T15:27:30.999Z</time>
      </trkpt>
      <trkpt lat="43.99069" lon="3.50523">
        <ele>531</ele>
        <time>2026-05-28T15:27:31.999Z</time>
      </trkpt>
      <trkpt lat="43.99068" lon="3.50523">
        <ele>530.5</ele>
        <time>2026-05-28T15:27:32.999Z</time>
      </trkpt>
      <trkpt lat="43.99066" lon="3.50522">
        <ele>530.4</ele>
        <time>2026-05-28T15:27:33.999Z</time>
      </trkpt>
      <trkpt lat="43.99065" lon="3.50522">
        <ele>530.4</ele>
        <time>2026-05-28T15:27:34.999Z</time>
      </trkpt>
      <trkpt lat="43.99065" lon="3.50523">
        <ele>529.7</ele>
        <time>2026-05-28T15:27:35.999Z</time>
      </trkpt>
      <trkpt lat="43.99064" lon="3.50524">
        <ele>529.6</ele>
        <time>2026-05-28T15:27:36.999Z</time>
      </trkpt>
      <trkpt lat="43.99065" lon="3.50525">
        <ele>528.6</ele>
        <time>2026-05-28T15:27:37.999Z</time>
      </trkpt>
      <trkpt lat="43.99065" lon="3.50526">
        <ele>528.7</ele>
        <time>2026-05-28T15:27:38.999Z</time>
      </trkpt>
      <trkpt lat="43.99065" lon="3.50527">
        <ele>528.8</ele>
        <time>2026-05-28T15:27:39.999Z</time>
      </trkpt>
      <trkpt lat="43.99065" lon="3.50527">
        <ele>527.9</ele>
        <time>2026-05-28T15:27:40.999Z</time>
      </trkpt>
      <trkpt lat="43.99065" lon="3.50529">
        <ele>527.7</ele>
        <time>2026-05-28T15:27:42.999Z</time>
      </trkpt>
      <trkpt lat="43.99065" lon="3.5053">
        <ele>527.7</ele>
        <time>2026-05-28T15:27:43.999Z</time>
      </trkpt>
      <trkpt lat="43.99065" lon="3.5053">
        <ele>527.8</ele>
        <time>2026-05-28T15:27:44.999Z</time>
      </trkpt>
      <trkpt lat="43.99064" lon="3.50531">
        <ele>527.9</ele>
        <time>2026-05-28T15:27:45.999Z</time>
      </trkpt>
      <trkpt lat="43.99064" lon="3.50532">
        <ele>528.4</ele>
        <time>2026-05-28T15:27:46.999Z</time>
      </trkpt>
      <trkpt lat="43.99063" lon="3.50531">
        <ele>528.8</ele>
        <time>2026-05-28T15:27:47.999Z</time>
      </trkpt>
      <trkpt lat="43.99063" lon="3.50531">
        <ele>529.3</ele>
        <time>2026-05-28T15:27:48.999Z</time>
      </trkpt>
      <trkpt lat="43.99063" lon="3.50531">
        <ele>529.5</ele>
        <time>2026-05-28T15:27:49.999Z</time>
      </trkpt>
      <trkpt lat="43.99064" lon="3.50531">
        <ele>529.9</ele>
        <time>2026-05-28T15:27:50.999Z</time>
      </trkpt>
      <trkpt lat="43.99065" lon="3.50532">
        <ele>530.5</ele>
        <time>2026-05-28T15:27:51.999Z</time>
      </trkpt>
      <trkpt lat="43.99065" lon="3.50532">
        <ele>527.5</ele>
        <time>2026-05-28T15:27:52.999Z</time>
      </trkpt>
      <trkpt lat="43.99065" lon="3.50532">
        <ele>527.7</ele>
        <time>2026-05-28T15:27:53.999Z</time>
      </trkpt>
      <trkpt lat="43.99066" lon="3.50531">
        <ele>527.9</ele>
        <time>2026-05-28T15:27:54.999Z</time>
      </trkpt>
      <trkpt lat="43.99067" lon="3.50531">
        <ele>528</ele>
        <time>2026-05-28T15:27:55.999Z</time>
      </trkpt>
      <trkpt lat="43.99067" lon="3.50532">
        <ele>527.9</ele>
        <time>2026-05-28T15:27:56.999Z</time>
      </trkpt>
      <trkpt lat="43.99068" lon="3.50533">
        <ele>527.7</ele>
        <time>2026-05-28T15:27:57.999Z</time>
      </trkpt>
      <trkpt lat="43.99069" lon="3.50534">
        <ele>527.8</ele>
        <time>2026-05-28T15:27:58.999Z</time>
      </trkpt>
      <trkpt lat="43.99069" lon="3.50534">
        <ele>528.1</ele>
        <time>2026-05-28T15:27:59.999Z</time>
      </trkpt>
      <trkpt lat="43.99069" lon="3.50534">
        <ele>528.2</ele>
        <time>2026-05-28T15:28:00.999Z</time>
      </trkpt>
      <trkpt lat="43.99069" lon="3.50535">
        <ele>528</ele>
        <time>2026-05-28T15:28:01.999Z</time>
      </trkpt>
      <trkpt lat="43.99069" lon="3.50534">
        <ele>528.1</ele>
        <time>2026-05-28T15:28:03.999Z</time>
      </trkpt>
      <trkpt lat="43.99069" lon="3.50534">
        <ele>528.1</ele>
        <time>2026-05-28T15:28:04.999Z</time>
      </trkpt>
      <trkpt lat="43.99068" lon="3.50533">
        <ele>528.1</ele>
        <time>2026-05-28T15:28:05.999Z</time>
      </trkpt>
      <trkpt lat="43.99068" lon="3.50533">
        <ele>528.1</ele>
        <time>2026-05-28T15:28:06.999Z</time>
      </trkpt>
      <trkpt lat="43.99067" lon="3.50533">
        <ele>528.3</ele>
        <time>2026-05-28T15:28:07.999Z</time>
      </trkpt>
      <trkpt lat="43.99066" lon="3.50533">
        <ele>528.5</ele>
        <time>2026-05-28T15:28:08.999Z</time>
      </trkpt>
      <trkpt lat="43.99066" lon="3.50533">
        <ele>528.6</ele>
        <time>2026-05-28T15:28:09.999Z</time>
      </trkpt>
      <trkpt lat="43.99066" lon="3.50533">
        <ele>529.1</ele>
        <time>2026-05-28T15:28:10.999Z</time>
      </trkpt>
      <trkpt lat="43.99065" lon="3.50533">
        <ele>529.1</ele>
        <time>2026-05-28T15:28:11.999Z</time>
      </trkpt>
      <trkpt lat="43.99065" lon="3.50534">
        <ele>529.2</ele>
        <time>2026-05-28T15:28:12.999Z</time>
      </trkpt>
      <trkpt lat="43.99064" lon="3.50534">
        <ele>529.4</ele>
        <time>2026-05-28T15:28:13.999Z</time>
      </trkpt>
      <trkpt lat="43.99064" lon="3.50535">
        <ele>529.6</ele>
        <time>2026-05-28T15:28:14.999Z</time>
      </trkpt>
      <trkpt lat="43.99063" lon="3.50535">
        <ele>530</ele>
        <time>2026-05-28T15:28:15.999Z</time>
      </trkpt>
      <trkpt lat="43.99063" lon="3.50535">
        <ele>530.1</ele>
        <time>2026-05-28T15:28:16.999Z</time>
      </trkpt>
      <trkpt lat="43.99062" lon="3.50535">
        <ele>530.2</ele>
        <time>2026-05-28T15:28:17.999Z</time>
      </trkpt>
      <trkpt lat="43.99061" lon="3.50535">
        <ele>530.4</ele>
        <time>2026-05-28T15:28:18.999Z</time>
      </trkpt>
      <trkpt lat="43.99061" lon="3.50535">
        <ele>530.8</ele>
        <time>2026-05-28T15:28:19.999Z</time>
      </trkpt>
      <trkpt lat="43.99061" lon="3.50537">
        <ele>531.1</ele>
        <time>2026-05-28T15:28:20.999Z</time>
      </trkpt>
      <trkpt lat="43.99062" lon="3.50539">
        <ele>531.4</ele>
        <time>2026-05-28T15:28:21.999Z</time>
      </trkpt>
      <trkpt lat="43.99062" lon="3.5054">
        <ele>531.9</ele>
        <time>2026-05-28T15:28:22.999Z</time>
      </trkpt>
      <trkpt lat="43.99062" lon="3.50541">
        <ele>532.2</ele>
        <time>2026-05-28T15:28:23.999Z</time>
      </trkpt>
      <trkpt lat="43.99063" lon="3.5054">
        <ele>537</ele>
        <time>2026-05-28T15:28:24.999Z</time>
      </trkpt>
      <trkpt lat="43.99063" lon="3.5054">
        <ele>536.1</ele>
        <time>2026-05-28T15:28:25.999Z</time>
      </trkpt>
      <trkpt lat="43.99063" lon="3.5054">
        <ele>535.4</ele>
        <time>2026-05-28T15:28:26.999Z</time>
      </trkpt>
      <trkpt lat="43.99063" lon="3.5054">
        <ele>535.1</ele>
        <time>2026-05-28T15:28:27.999Z</time>
      </trkpt>
      <trkpt lat="43.99064" lon="3.50539">
        <ele>534.6</ele>
        <time>2026-05-28T15:28:28.999Z</time>
      </trkpt>
      <trkpt lat="43.99065" lon="3.50539">
        <ele>534.3</ele>
        <time>2026-05-28T15:28:29.999Z</time>
      </trkpt>
      <trkpt lat="43.99065" lon="3.50538">
        <ele>533.8</ele>
        <time>2026-05-28T15:28:30.999Z</time>
      </trkpt>
      <trkpt lat="43.99065" lon="3.50538">
        <ele>533.7</ele>
        <time>2026-05-28T15:28:31.999Z</time>
      </trkpt>
      <trkpt lat="43.99066" lon="3.50538">
        <ele>533.7</ele>
        <time>2026-05-28T15:28:32.999Z</time>
      </trkpt>
      <trkpt lat="43.99066" lon="3.50538">
        <ele>533.4</ele>
        <time>2026-05-28T15:28:33.999Z</time>
      </trkpt>
      <trkpt lat="43.99066" lon="3.50538">
        <ele>533.2</ele>
        <time>2026-05-28T15:28:34.999Z</time>
      </trkpt>
      <trkpt lat="43.99066" lon="3.50538">
        <ele>533</ele>
        <time>2026-05-28T15:28:35.999Z</time>
      </trkpt>
      <trkpt lat="43.99066" lon="3.50539">
        <ele>533.1</ele>
        <time>2026-05-28T15:28:36.999Z</time>
      </trkpt>
      <trkpt lat="43.99066" lon="3.50539">
        <ele>533.1</ele>
        <time>2026-05-28T15:28:38.999Z</time>
      </trkpt>
      <trkpt lat="43.99067" lon="3.50539">
        <ele>532.9</ele>
        <time>2026-05-28T15:28:39.999Z</time>
      </trkpt>
      <trkpt lat="43.99067" lon="3.50538">
        <ele>532.7</ele>
        <time>2026-05-28T15:28:40.999Z</time>
      </trkpt>
      <trkpt lat="43.99067" lon="3.50538">
        <ele>532.7</ele>
        <time>2026-05-28T15:28:41.999Z</time>
      </trkpt>
      <trkpt lat="43.99067" lon="3.50539">
        <ele>532.7</ele>
        <time>2026-05-28T15:28:42.999Z</time>
      </trkpt>
      <trkpt lat="43.99067" lon="3.50539">
        <ele>532.7</ele>
        <time>2026-05-28T15:28:43.999Z</time>
      </trkpt>
      <trkpt lat="43.99066" lon="3.50538">
        <ele>533.2</ele>
        <time>2026-05-28T15:28:44.999Z</time>
      </trkpt>
      <trkpt lat="43.99066" lon="3.50538">
        <ele>533.1</ele>
        <time>2026-05-28T15:28:45.999Z</time>
      </trkpt>
      <trkpt lat="43.99066" lon="3.50538">
        <ele>532.7</ele>
        <time>2026-05-28T15:28:46.999Z</time>
      </trkpt>
      <trkpt lat="43.99066" lon="3.50538">
        <ele>532.5</ele>
        <time>2026-05-28T15:28:47.999Z</time>
      </trkpt>
      <trkpt lat="43.99066" lon="3.50538">
        <ele>532.3</ele>
        <time>2026-05-28T15:28:48.999Z</time>
      </trkpt>
      <trkpt lat="43.99066" lon="3.50538">
        <ele>532.1</ele>
        <time>2026-05-28T15:28:49.999Z</time>
      </trkpt>
      <trkpt lat="43.99066" lon="3.50538">
        <ele>532.1</ele>
        <time>2026-05-28T15:28:50.999Z</time>
      </trkpt>
      <trkpt lat="43.99066" lon="3.50538">
        <ele>532.1</ele>
        <time>2026-05-28T15:28:51.999Z</time>
      </trkpt>
      <trkpt lat="43.99066" lon="3.50538">
        <ele>532.2</ele>
        <time>2026-05-28T15:28:52.999Z</time>
      </trkpt>
      <trkpt lat="43.99066" lon="3.50538">
        <ele>532.5</ele>
        <time>2026-05-28T15:28:53.999Z</time>
      </trkpt>
      <trkpt lat="43.99066" lon="3.50538">
        <ele>532.6</ele>
        <time>2026-05-28T15:28:54.999Z</time>
      </trkpt>
      <trkpt lat="43.99066" lon="3.50539">
        <ele>532.5</ele>
        <time>2026-05-28T15:28:55.999Z</time>
      </trkpt>
      <trkpt lat="43.99066" lon="3.50539">
        <ele>532.4</ele>
        <time>2026-05-28T15:28:56.999Z</time>
      </trkpt>
      <trkpt lat="43.99065" lon="3.50539">
        <ele>532.4</ele>
        <time>2026-05-28T15:28:57.999Z</time>
      </trkpt>
      <trkpt lat="43.99065" lon="3.50539">
        <ele>532.2</ele>
        <time>2026-05-28T15:28:58.999Z</time>
      </trkpt>
      <trkpt lat="43.99065" lon="3.50539">
        <ele>532.2</ele>
        <time>2026-05-28T15:28:59.999Z</time>
      </trkpt>
      <trkpt lat="43.99065" lon="3.50539">
        <ele>532.2</ele>
        <time>2026-05-28T15:29:00.999Z</time>
      </trkpt>
      <trkpt lat="43.99065" lon="3.50539">
        <ele>532.1</ele>
        <time>2026-05-28T15:29:01.999Z</time>
      </trkpt>
      <trkpt lat="43.99065" lon="3.50539">
        <ele>532.2</ele>
        <time>2026-05-28T15:29:02.999Z</time>
      </trkpt>
      <trkpt lat="43.99065" lon="3.50539">
        <ele>532.3</ele>
        <time>2026-05-28T15:29:03.999Z</time>
      </trkpt>
      <trkpt lat="43.99065" lon="3.50539">
        <ele>532.2</ele>
        <time>2026-05-28T15:29:04.999Z</time>
      </trkpt>
      <trkpt lat="43.99065" lon="3.5054">
        <ele>532.1</ele>
        <time>2026-05-28T15:29:05.999Z</time>
      </trkpt>
      <trkpt lat="43.99065" lon="3.5054">
        <ele>532</ele>
        <time>2026-05-28T15:29:06.999Z</time>
      </trkpt>
      <trkpt lat="43.99065" lon="3.5054">
        <ele>532.1</ele>
        <time>2026-05-28T15:29:07.999Z</time>
      </trkpt>
      <trkpt lat="43.99065" lon="3.5054">
        <ele>532</ele>
        <time>2026-05-28T15:29:08.999Z</time>
      </trkpt>
      <trkpt lat="43.99065" lon="3.5054">
        <ele>531.8</ele>
        <time>2026-05-28T15:29:09.999Z</time>
      </trkpt>
      <trkpt lat="43.99065" lon="3.5054">
        <ele>531.6</ele>
        <time>2026-05-28T15:29:10.999Z</time>
      </trkpt>
      <trkpt lat="43.99065" lon="3.5054">
        <ele>531.6</ele>
        <time>2026-05-28T15:29:11.999Z</time>
      </trkpt>
      <trkpt lat="43.99065" lon="3.5054">
        <ele>531.6</ele>
        <time>2026-05-28T15:29:12.999Z</time>
      </trkpt>
      <trkpt lat="43.99065" lon="3.5054">
        <ele>531.4</ele>
        <time>2026-05-28T15:29:13.999Z</time>
      </trkpt>
      <trkpt lat="43.99065" lon="3.5054">
        <ele>531.4</ele>
        <time>2026-05-28T15:29:14.999Z</time>
      </trkpt>
      <trkpt lat="43.99065" lon="3.5054">
        <ele>531.2</ele>
        <time>2026-05-28T15:29:15.999Z</time>
      </trkpt>
      <trkpt lat="43.99065" lon="3.5054">
        <ele>531</ele>
        <time>2026-05-28T15:29:16.999Z</time>
      </trkpt>
      <trkpt lat="43.99065" lon="3.5054">
        <ele>530.9</ele>
        <time>2026-05-28T15:29:17.999Z</time>
      </trkpt>
      <trkpt lat="43.99065" lon="3.5054">
        <ele>530.8</ele>
        <time>2026-05-28T15:29:18.999Z</time>
      </trkpt>
      <trkpt lat="43.99065" lon="3.5054">
        <ele>530.7</ele>
        <time>2026-05-28T15:29:19.999Z</time>
      </trkpt>
      <trkpt lat="43.99065" lon="3.5054">
        <ele>530.7</ele>
        <time>2026-05-28T15:29:20.999Z</time>
      </trkpt>
      <trkpt lat="43.99065" lon="3.5054">
        <ele>530.6</ele>
        <time>2026-05-28T15:29:21.999Z</time>
      </trkpt>
      <trkpt lat="43.99065" lon="3.5054">
        <ele>530.5</ele>
        <time>2026-05-28T15:29:22.999Z</time>
      </trkpt>
      <trkpt lat="43.99065" lon="3.5054">
        <ele>530.4</ele>
        <time>2026-05-28T15:29:23.999Z</time>
      </trkpt>
      <trkpt lat="43.99065" lon="3.5054">
        <ele>530.2</ele>
        <time>2026-05-28T15:29:24.999Z</time>
      </trkpt>
      <trkpt lat="43.99065" lon="3.5054">
        <ele>530.1</ele>
        <time>2026-05-28T15:29:25.999Z</time>
      </trkpt>
      <trkpt lat="43.99065" lon="3.5054">
        <ele>530</ele>
        <time>2026-05-28T15:29:26.999Z</time>
      </trkpt>
      <trkpt lat="43.99065" lon="3.5054">
        <ele>529.9</ele>
        <time>2026-05-28T15:29:27.999Z</time>
      </trkpt>
      <trkpt lat="43.99065" lon="3.5054">
        <ele>530</ele>
        <time>2026-05-28T15:29:28.999Z</time>
      </trkpt>
      <trkpt lat="43.99065" lon="3.5054">
        <ele>529.9</ele>
        <time>2026-05-28T15:29:29.999Z</time>
      </trkpt>
      <trkpt lat="43.99065" lon="3.5054">
        <ele>529.9</ele>
        <time>2026-05-28T15:29:30.999Z</time>
      </trkpt>
      <trkpt lat="43.99065" lon="3.5054">
        <ele>529.9</ele>
        <time>2026-05-28T15:29:31.999Z</time>
      </trkpt>
      <trkpt lat="43.99065" lon="3.5054">
        <ele>530</ele>
        <time>2026-05-28T15:29:32.999Z</time>
      </trkpt>
      <trkpt lat="43.99065" lon="3.5054">
        <ele>530.1</ele>
        <time>2026-05-28T15:29:33.999Z</time>
      </trkpt>
      <trkpt lat="43.99065" lon="3.5054">
        <ele>530.2</ele>
        <time>2026-05-28T15:29:34.999Z</time>
      </trkpt>
      <trkpt lat="43.99065" lon="3.5054">
        <ele>530.1</ele>
        <time>2026-05-28T15:29:35.999Z</time>
      </trkpt>
      <trkpt lat="43.99065" lon="3.5054">
        <ele>530.1</ele>
        <time>2026-05-28T15:29:36.999Z</time>
      </trkpt>
      <trkpt lat="43.99065" lon="3.5054">
        <ele>530.2</ele>
        <time>2026-05-28T15:29:37.999Z</time>
      </trkpt>
      <trkpt lat="43.99065" lon="3.5054">
        <ele>530.2</ele>
        <time>2026-05-28T15:29:38.999Z</time>
      </trkpt>
      <trkpt lat="43.99065" lon="3.50541">
        <ele>530.2</ele>
        <time>2026-05-28T15:29:39.999Z</time>
      </trkpt>
      <trkpt lat="43.99065" lon="3.50541">
        <ele>530.2</ele>
        <time>2026-05-28T15:29:40.999Z</time>
      </trkpt>
      <trkpt lat="43.99064" lon="3.50541">
        <ele>530.1</ele>
        <time>2026-05-28T15:29:41.999Z</time>
      </trkpt>
      <trkpt lat="43.99064" lon="3.50541">
        <ele>530</ele>
        <time>2026-05-28T15:29:42.999Z</time>
      </trkpt>
      <trkpt lat="43.99064" lon="3.50541">
        <ele>530.2</ele>
        <time>2026-05-28T15:29:43.999Z</time>
      </trkpt>
      <trkpt lat="43.99064" lon="3.50541">
        <ele>530.2</ele>
        <time>2026-05-28T15:29:44.999Z</time>
      </trkpt>
      <trkpt lat="43.99064" lon="3.50541">
        <ele>530.2</ele>
        <time>2026-05-28T15:29:45.999Z</time>
      </trkpt>
      <trkpt lat="43.99063" lon="3.50541">
        <ele>530.2</ele>
        <time>2026-05-28T15:29:46.999Z</time>
      </trkpt>
      <trkpt lat="43.99063" lon="3.50541">
        <ele>530.2</ele>
        <time>2026-05-28T15:29:47.999Z</time>
      </trkpt>
      <trkpt lat="43.99063" lon="3.50541">
        <ele>530.2</ele>
        <time>2026-05-28T15:29:48.999Z</time>
      </trkpt>
      <trkpt lat="43.99063" lon="3.50541">
        <ele>530.1</ele>
        <time>2026-05-28T15:29:49.999Z</time>
      </trkpt>
      <trkpt lat="43.99063" lon="3.50541">
        <ele>530</ele>
        <time>2026-05-28T15:29:50.999Z</time>
      </trkpt>
      <trkpt lat="43.99063" lon="3.50541">
        <ele>529.8</ele>
        <time>2026-05-28T15:29:51.999Z</time>
      </trkpt>
      <trkpt lat="43.99063" lon="3.50541">
        <ele>529.8</ele>
        <time>2026-05-28T15:29:52.999Z</time>
      </trkpt>
      <trkpt lat="43.99063" lon="3.50541">
        <ele>529.8</ele>
        <time>2026-05-28T15:29:53.999Z</time>
      </trkpt>
      <trkpt lat="43.99063" lon="3.50541">
        <ele>529.9</ele>
        <time>2026-05-28T15:29:54.999Z</time>
      </trkpt>
      <trkpt lat="43.99064" lon="3.50541">
        <ele>530.1</ele>
        <time>2026-05-28T15:29:55.999Z</time>
      </trkpt>
      <trkpt lat="43.99064" lon="3.50541">
        <ele>529.9</ele>
        <time>2026-05-28T15:29:57.999Z</time>
      </trkpt>
      <trkpt lat="43.99064" lon="3.50541">
        <ele>529.9</ele>
        <time>2026-05-28T15:29:58.999Z</time>
      </trkpt>
      <trkpt lat="43.99064" lon="3.50541">
        <ele>530</ele>
        <time>2026-05-28T15:29:59.999Z</time>
      </trkpt>
      <trkpt lat="43.99064" lon="3.5054">
        <ele>530</ele>
        <time>2026-05-28T15:30:00.999Z</time>
      </trkpt>
      <trkpt lat="43.99064" lon="3.5054">
        <ele>530.1</ele>
        <time>2026-05-28T15:30:01.999Z</time>
      </trkpt>
      <trkpt lat="43.99064" lon="3.5054">
        <ele>530</ele>
        <time>2026-05-28T15:30:02.999Z</time>
      </trkpt>
      <trkpt lat="43.99064" lon="3.5054">
        <ele>530.1</ele>
        <time>2026-05-28T15:30:03.999Z</time>
      </trkpt>
      <trkpt lat="43.99064" lon="3.50541">
        <ele>530.1</ele>
        <time>2026-05-28T15:30:04.999Z</time>
      </trkpt>
      <trkpt lat="43.99065" lon="3.50541">
        <ele>530.2</ele>
        <time>2026-05-28T15:30:05.999Z</time>
      </trkpt>
      <trkpt lat="43.99065" lon="3.5054">
        <ele>530.3</ele>
        <time>2026-05-28T15:30:06.999Z</time>
      </trkpt>
      <trkpt lat="43.99065" lon="3.5054">
        <ele>530.3</ele>
        <time>2026-05-28T15:30:07.999Z</time>
      </trkpt>
      <trkpt lat="43.99064" lon="3.5054">
        <ele>530.3</ele>
        <time>2026-05-28T15:30:08.999Z</time>
      </trkpt>
      <trkpt lat="43.99064" lon="3.5054">
        <ele>530.4</ele>
        <time>2026-05-28T15:30:09.999Z</time>
      </trkpt>
      <trkpt lat="43.99065" lon="3.5054">
        <ele>530.8</ele>
        <time>2026-05-28T15:30:10.999Z</time>
      </trkpt>
      <trkpt lat="43.99065" lon="3.5054">
        <ele>530.9</ele>
        <time>2026-05-28T15:30:11.999Z</time>
      </trkpt>
      <trkpt lat="43.99065" lon="3.5054">
        <ele>530.8</ele>
        <time>2026-05-28T15:30:12.999Z</time>
      </trkpt>
      <trkpt lat="43.99065" lon="3.5054">
        <ele>530.9</ele>
        <time>2026-05-28T15:30:13.999Z</time>
      </trkpt>
      <trkpt lat="43.99065" lon="3.50541">
        <ele>531.2</ele>
        <time>2026-05-28T15:30:14.999Z</time>
      </trkpt>
      <trkpt lat="43.99064" lon="3.50541">
        <ele>531.4</ele>
        <time>2026-05-28T15:30:15.999Z</time>
      </trkpt>
      <trkpt lat="43.99064" lon="3.5054">
        <ele>531.6</ele>
        <time>2026-05-28T15:30:16.999Z</time>
      </trkpt>
      <trkpt lat="43.99064" lon="3.50541">
        <ele>531.6</ele>
        <time>2026-05-28T15:30:17.999Z</time>
      </trkpt>
      <trkpt lat="43.99063" lon="3.50543">
        <ele>531.5</ele>
        <time>2026-05-28T15:30:18.999Z</time>
      </trkpt>
      <trkpt lat="43.99063" lon="3.50543">
        <ele>531.9</ele>
        <time>2026-05-28T15:30:19.999Z</time>
      </trkpt>
      <trkpt lat="43.99063" lon="3.50543">
        <ele>531.8</ele>
        <time>2026-05-28T15:30:20.999Z</time>
      </trkpt>
      <trkpt lat="43.99063" lon="3.50543">
        <ele>531.8</ele>
        <time>2026-05-28T15:30:21.999Z</time>
      </trkpt>
      <trkpt lat="43.99063" lon="3.50543">
        <ele>531.6</ele>
        <time>2026-05-28T15:30:22.999Z</time>
      </trkpt>
      <trkpt lat="43.99063" lon="3.50543">
        <ele>531.7</ele>
        <time>2026-05-28T15:30:23.999Z</time>
      </trkpt>
      <trkpt lat="43.99063" lon="3.50542">
        <ele>532.1</ele>
        <time>2026-05-28T15:30:24.999Z</time>
      </trkpt>
      <trkpt lat="43.99064" lon="3.50542">
        <ele>532.2</ele>
        <time>2026-05-28T15:30:25.999Z</time>
      </trkpt>
      <trkpt lat="43.99063" lon="3.50542">
        <ele>532.4</ele>
        <time>2026-05-28T15:30:26.999Z</time>
      </trkpt>
      <trkpt lat="43.99063" lon="3.50543">
        <ele>532.2</ele>
        <time>2026-05-28T15:30:27.999Z</time>
      </trkpt>
      <trkpt lat="43.99063" lon="3.50544">
        <ele>532.4</ele>
        <time>2026-05-28T15:30:28.999Z</time>
      </trkpt>
      <trkpt lat="43.99063" lon="3.50545">
        <ele>532.7</ele>
        <time>2026-05-28T15:30:29.999Z</time>
      </trkpt>
      <trkpt lat="43.99063" lon="3.50545">
        <ele>533.2</ele>
        <time>2026-05-28T15:30:30.999Z</time>
      </trkpt>
      <trkpt lat="43.99062" lon="3.50544">
        <ele>534.1</ele>
        <time>2026-05-28T15:30:31.999Z</time>
      </trkpt>
      <trkpt lat="43.99062" lon="3.50544">
        <ele>533.6</ele>
        <time>2026-05-28T15:30:32.999Z</time>
      </trkpt>
      <trkpt lat="43.99062" lon="3.50544">
        <ele>534.1</ele>
        <time>2026-05-28T15:30:33.999Z</time>
      </trkpt>
      <trkpt lat="43.99061" lon="3.50544">
        <ele>534.7</ele>
        <time>2026-05-28T15:30:34.999Z</time>
      </trkpt>
      <trkpt lat="43.99061" lon="3.50543">
        <ele>535.2</ele>
        <time>2026-05-28T15:30:35.999Z</time>
      </trkpt>
      <trkpt lat="43.99061" lon="3.50543">
        <ele>535.2</ele>
        <time>2026-05-28T15:30:36.999Z</time>
      </trkpt>
      <trkpt lat="43.99061" lon="3.50543">
        <ele>535.6</ele>
        <time>2026-05-28T15:30:37.999Z</time>
      </trkpt>
      <trkpt lat="43.99062" lon="3.50542">
        <ele>536.1</ele>
        <time>2026-05-28T15:30:38.999Z</time>
      </trkpt>
      <trkpt lat="43.99062" lon="3.50541">
        <ele>536.5</ele>
        <time>2026-05-28T15:30:39.999Z</time>
      </trkpt>
      <trkpt lat="43.99063" lon="3.5054">
        <ele>536.9</ele>
        <time>2026-05-28T15:30:40.999Z</time>
      </trkpt>
      <trkpt lat="43.99063" lon="3.50539">
        <ele>536.9</ele>
        <time>2026-05-28T15:30:41.999Z</time>
      </trkpt>
      <trkpt lat="43.99064" lon="3.50537">
        <ele>536.9</ele>
        <time>2026-05-28T15:30:42.999Z</time>
      </trkpt>
      <trkpt lat="43.99064" lon="3.50537">
        <ele>536.7</ele>
        <time>2026-05-28T15:30:43.999Z</time>
      </trkpt>
      <trkpt lat="43.99065" lon="3.50536">
        <ele>536.4</ele>
        <time>2026-05-28T15:30:44.999Z</time>
      </trkpt>
      <trkpt lat="43.99065" lon="3.50535">
        <ele>536.2</ele>
        <time>2026-05-28T15:30:45.999Z</time>
      </trkpt>
      <trkpt lat="43.99065" lon="3.50534">
        <ele>536.3</ele>
        <time>2026-05-28T15:30:46.999Z</time>
      </trkpt>
      <trkpt lat="43.99065" lon="3.50535">
        <ele>535.8</ele>
        <time>2026-05-28T15:30:47.999Z</time>
      </trkpt>
      <trkpt lat="43.99065" lon="3.50535">
        <ele>534.9</ele>
        <time>2026-05-28T15:30:48.999Z</time>
      </trkpt>
      <trkpt lat="43.99065" lon="3.50535">
        <ele>534.1</ele>
        <time>2026-05-28T15:30:49.999Z</time>
      </trkpt>
      <trkpt lat="43.99066" lon="3.50536">
        <ele>534.1</ele>
        <time>2026-05-28T15:30:50.999Z</time>
      </trkpt>
      <trkpt lat="43.99066" lon="3.50536">
        <ele>534.1</ele>
        <time>2026-05-28T15:30:51.999Z</time>
      </trkpt>
      <trkpt lat="43.99066" lon="3.50536">
        <ele>534.1</ele>
        <time>2026-05-28T15:30:52.999Z</time>
      </trkpt>
      <trkpt lat="43.99066" lon="3.50536">
        <ele>534.3</ele>
        <time>2026-05-28T15:30:53.999Z</time>
      </trkpt>
      <trkpt lat="43.99066" lon="3.50536">
        <ele>534.4</ele>
        <time>2026-05-28T15:30:54.999Z</time>
      </trkpt>
      <trkpt lat="43.99066" lon="3.50536">
        <ele>534.5</ele>
        <time>2026-05-28T15:30:55.999Z</time>
      </trkpt>
      <trkpt lat="43.99067" lon="3.50535">
        <ele>534.7</ele>
        <time>2026-05-28T15:30:56.999Z</time>
      </trkpt>
      <trkpt lat="43.99067" lon="3.50535">
        <ele>534.8</ele>
        <time>2026-05-28T15:30:57.999Z</time>
      </trkpt>
      <trkpt lat="43.99067" lon="3.50535">
        <ele>534.8</ele>
        <time>2026-05-28T15:30:58.999Z</time>
      </trkpt>
      <trkpt lat="43.99067" lon="3.50535">
        <ele>534.7</ele>
        <time>2026-05-28T15:30:59.999Z</time>
      </trkpt>
      <trkpt lat="43.99068" lon="3.50536">
        <ele>534.6</ele>
        <time>2026-05-28T15:31:00.999Z</time>
      </trkpt>
      <trkpt lat="43.99068" lon="3.50536">
        <ele>534.6</ele>
        <time>2026-05-28T15:31:01.999Z</time>
      </trkpt>
      <trkpt lat="43.99068" lon="3.50536">
        <ele>534.4</ele>
        <time>2026-05-28T15:31:02.999Z</time>
      </trkpt>
      <trkpt lat="43.99069" lon="3.50536">
        <ele>534.3</ele>
        <time>2026-05-28T15:31:03.999Z</time>
      </trkpt>
      <trkpt lat="43.99069" lon="3.50536">
        <ele>534.1</ele>
        <time>2026-05-28T15:31:04.999Z</time>
      </trkpt>
      <trkpt lat="43.99069" lon="3.50536">
        <ele>534</ele>
        <time>2026-05-28T15:31:05.999Z</time>
      </trkpt>
      <trkpt lat="43.99069" lon="3.50536">
        <ele>533.8</ele>
        <time>2026-05-28T15:31:06.999Z</time>
      </trkpt>
      <trkpt lat="43.99069" lon="3.50536">
        <ele>533.8</ele>
        <time>2026-05-28T15:31:07.999Z</time>
      </trkpt>
      <trkpt lat="43.99069" lon="3.50537">
        <ele>533.8</ele>
        <time>2026-05-28T15:31:08.999Z</time>
      </trkpt>
      <trkpt lat="43.9907" lon="3.50538">
        <ele>533.6</ele>
        <time>2026-05-28T15:31:09.999Z</time>
      </trkpt>
      <trkpt lat="43.9907" lon="3.50538">
        <ele>533.3</ele>
        <time>2026-05-28T15:31:10.999Z</time>
      </trkpt>
      <trkpt lat="43.9907" lon="3.50538">
        <ele>533.3</ele>
        <time>2026-05-28T15:31:11.999Z</time>
      </trkpt>
      <trkpt lat="43.9907" lon="3.50538">
        <ele>533.3</ele>
        <time>2026-05-28T15:31:12.999Z</time>
      </trkpt>
      <trkpt lat="43.9907" lon="3.50538">
        <ele>533.2</ele>
        <time>2026-05-28T15:31:13.999Z</time>
      </trkpt>
      <trkpt lat="43.9907" lon="3.50537">
        <ele>533.1</ele>
        <time>2026-05-28T15:31:14.999Z</time>
      </trkpt>
      <trkpt lat="43.99068" lon="3.50537">
        <ele>533.4</ele>
        <time>2026-05-28T15:31:16.999Z</time>
      </trkpt>
      <trkpt lat="43.99066" lon="3.50537">
        <ele>533.4</ele>
        <time>2026-05-28T15:31:17.999Z</time>
      </trkpt>
      <trkpt lat="43.99066" lon="3.50537">
        <ele>533.4</ele>
        <time>2026-05-28T15:31:18.999Z</time>
      </trkpt>
      <trkpt lat="43.99066" lon="3.50536">
        <ele>533.5</ele>
        <time>2026-05-28T15:31:19.999Z</time>
      </trkpt>
      <trkpt lat="43.99066" lon="3.50534">
        <ele>533.6</ele>
        <time>2026-05-28T15:31:20.999Z</time>
      </trkpt>
      <trkpt lat="43.99065" lon="3.50533">
        <ele>533.9</ele>
        <time>2026-05-28T15:31:21.999Z</time>
      </trkpt>
      <trkpt lat="43.99064" lon="3.50532">
        <ele>534.2</ele>
        <time>2026-05-28T15:31:22.999Z</time>
      </trkpt>
      <trkpt lat="43.99062" lon="3.50531">
        <ele>534.5</ele>
        <time>2026-05-28T15:31:23.999Z</time>
      </trkpt>
      <trkpt lat="43.99061" lon="3.5053">
        <ele>534.8</ele>
        <time>2026-05-28T15:31:24.999Z</time>
      </trkpt>
      <trkpt lat="43.99061" lon="3.5053">
        <ele>535.4</ele>
        <time>2026-05-28T15:31:25.999Z</time>
      </trkpt>
      <trkpt lat="43.99061" lon="3.50529">
        <ele>535.5</ele>
        <time>2026-05-28T15:31:26.999Z</time>
      </trkpt>
      <trkpt lat="43.9906" lon="3.50529">
        <ele>535.6</ele>
        <time>2026-05-28T15:31:27.999Z</time>
      </trkpt>
      <trkpt lat="43.9906" lon="3.50529">
        <ele>535.7</ele>
        <time>2026-05-28T15:31:28.999Z</time>
      </trkpt>
      <trkpt lat="43.9906" lon="3.50529">
        <ele>536.1</ele>
        <time>2026-05-28T15:31:29.999Z</time>
      </trkpt>
      <trkpt lat="43.99059" lon="3.50528">
        <ele>537.1</ele>
        <time>2026-05-28T15:31:30.999Z</time>
      </trkpt>
      <trkpt lat="43.99059" lon="3.50528">
        <ele>537.5</ele>
        <time>2026-05-28T15:31:31.999Z</time>
      </trkpt>
      <trkpt lat="43.99058" lon="3.50528">
        <ele>538.1</ele>
        <time>2026-05-28T15:31:32.999Z</time>
      </trkpt>
      <trkpt lat="43.99057" lon="3.50528">
        <ele>538.6</ele>
        <time>2026-05-28T15:31:33.999Z</time>
      </trkpt>
      <trkpt lat="43.99057" lon="3.50528">
        <ele>538.5</ele>
        <time>2026-05-28T15:31:34.999Z</time>
      </trkpt>
      <trkpt lat="43.99056" lon="3.50528">
        <ele>538.3</ele>
        <time>2026-05-28T15:31:35.999Z</time>
      </trkpt>
      <trkpt lat="43.99055" lon="3.50528">
        <ele>538.1</ele>
        <time>2026-05-28T15:31:36.999Z</time>
      </trkpt>
      <trkpt lat="43.99052" lon="3.50527">
        <ele>538.3</ele>
        <time>2026-05-28T15:31:38.999Z</time>
      </trkpt>
      <trkpt lat="43.99051" lon="3.50527">
        <ele>538.2</ele>
        <time>2026-05-28T15:31:39.999Z</time>
      </trkpt>
      <trkpt lat="43.99049" lon="3.50527">
        <ele>538.2</ele>
        <time>2026-05-28T15:31:40.999Z</time>
      </trkpt>
      <trkpt lat="43.99048" lon="3.50526">
        <ele>538.1</ele>
        <time>2026-05-28T15:31:41.999Z</time>
      </trkpt>
      <trkpt lat="43.99046" lon="3.50526">
        <ele>538.1</ele>
        <time>2026-05-28T15:31:42.999Z</time>
      </trkpt>
      <trkpt lat="43.99045" lon="3.50526">
        <ele>538</ele>
        <time>2026-05-28T15:31:43.999Z</time>
      </trkpt>
      <trkpt lat="43.99044" lon="3.50525">
        <ele>537.9</ele>
        <time>2026-05-28T15:31:44.999Z</time>
      </trkpt>
      <trkpt lat="43.99042" lon="3.5053">
        <ele>537.8</ele>
        <time>2026-05-28T15:31:47.999Z</time>
      </trkpt>
      <trkpt lat="43.99043" lon="3.5053">
        <ele>537</ele>
        <time>2026-05-28T15:31:48.999Z</time>
      </trkpt>
      <trkpt lat="43.99043" lon="3.50532">
        <ele>537.2</ele>
        <time>2026-05-28T15:31:49.999Z</time>
      </trkpt>
      <trkpt lat="43.99044" lon="3.50533">
        <ele>538</ele>
        <time>2026-05-28T15:31:50.999Z</time>
      </trkpt>
      <trkpt lat="43.99047" lon="3.50533">
        <ele>537.5</ele>
        <time>2026-05-28T15:31:51.999Z</time>
      </trkpt>
      <trkpt lat="43.99047" lon="3.50532">
        <ele>536.7</ele>
        <time>2026-05-28T15:31:52.999Z</time>
      </trkpt>
      <trkpt lat="43.99048" lon="3.50531">
        <ele>536</ele>
        <time>2026-05-28T15:31:53.999Z</time>
      </trkpt>
      <trkpt lat="43.99049" lon="3.50531">
        <ele>535</ele>
        <time>2026-05-28T15:31:54.999Z</time>
      </trkpt>
      <trkpt lat="43.99049" lon="3.50531">
        <ele>535</ele>
        <time>2026-05-28T15:31:55.999Z</time>
      </trkpt>
      <trkpt lat="43.99051" lon="3.50532">
        <ele>536.1</ele>
        <time>2026-05-28T15:31:56.999Z</time>
      </trkpt>
      <trkpt lat="43.99052" lon="3.50533">
        <ele>536.5</ele>
        <time>2026-05-28T15:31:57.999Z</time>
      </trkpt>
      <trkpt lat="43.99052" lon="3.50533">
        <ele>537.3</ele>
        <time>2026-05-28T15:31:58.999Z</time>
      </trkpt>
      <trkpt lat="43.99054" lon="3.50532">
        <ele>537.8</ele>
        <time>2026-05-28T15:31:59.999Z</time>
      </trkpt>
      <trkpt lat="43.99055" lon="3.50533">
        <ele>538.3</ele>
        <time>2026-05-28T15:32:00.999Z</time>
      </trkpt>
      <trkpt lat="43.99056" lon="3.50533">
        <ele>538.5</ele>
        <time>2026-05-28T15:32:01.999Z</time>
      </trkpt>
      <trkpt lat="43.99057" lon="3.50533">
        <ele>539</ele>
        <time>2026-05-28T15:32:02.999Z</time>
      </trkpt>
      <trkpt lat="43.99057" lon="3.50534">
        <ele>539.2</ele>
        <time>2026-05-28T15:32:03.999Z</time>
      </trkpt>
      <trkpt lat="43.99058" lon="3.50534">
        <ele>539.3</ele>
        <time>2026-05-28T15:32:04.999Z</time>
      </trkpt>
      <trkpt lat="43.99059" lon="3.50533">
        <ele>539.5</ele>
        <time>2026-05-28T15:32:06.000Z</time>
      </trkpt>
      <trkpt lat="43.99059" lon="3.50533">
        <ele>539.7</ele>
        <time>2026-05-28T15:32:07.000Z</time>
      </trkpt>
      <trkpt lat="43.99059" lon="3.50533">
        <ele>539.8</ele>
        <time>2026-05-28T15:32:08.000Z</time>
      </trkpt>
      <trkpt lat="43.99059" lon="3.50532">
        <ele>540.1</ele>
        <time>2026-05-28T15:32:09.000Z</time>
      </trkpt>
      <trkpt lat="43.99058" lon="3.50532">
        <ele>539.9</ele>
        <time>2026-05-28T15:32:10.000Z</time>
      </trkpt>
      <trkpt lat="43.99058" lon="3.50532">
        <ele>539.6</ele>
        <time>2026-05-28T15:32:11.000Z</time>
      </trkpt>
      <trkpt lat="43.99058" lon="3.50533">
        <ele>539.4</ele>
        <time>2026-05-28T15:32:12.000Z</time>
      </trkpt>
      <trkpt lat="43.99058" lon="3.50533">
        <ele>539.2</ele>
        <time>2026-05-28T15:32:13.000Z</time>
      </trkpt>
      <trkpt lat="43.99058" lon="3.50534">
        <ele>539.1</ele>
        <time>2026-05-28T15:32:14.000Z</time>
      </trkpt>
      <trkpt lat="43.99058" lon="3.50534">
        <ele>538.9</ele>
        <time>2026-05-28T15:32:15.000Z</time>
      </trkpt>
      <trkpt lat="43.99057" lon="3.50534">
        <ele>538.6</ele>
        <time>2026-05-28T15:32:16.000Z</time>
      </trkpt>
      <trkpt lat="43.99057" lon="3.50534">
        <ele>538.3</ele>
        <time>2026-05-28T15:32:17.000Z</time>
      </trkpt>
      <trkpt lat="43.99057" lon="3.50533">
        <ele>538</ele>
        <time>2026-05-28T15:32:18.000Z</time>
      </trkpt>
      <trkpt lat="43.99057" lon="3.50533">
        <ele>537.9</ele>
        <time>2026-05-28T15:32:19.000Z</time>
      </trkpt>
      <trkpt lat="43.99057" lon="3.50532">
        <ele>538</ele>
        <time>2026-05-28T15:32:20.000Z</time>
      </trkpt>
      <trkpt lat="43.99056" lon="3.50531">
        <ele>538.1</ele>
        <time>2026-05-28T15:32:21.000Z</time>
      </trkpt>
      <trkpt lat="43.99056" lon="3.50531">
        <ele>538.1</ele>
        <time>2026-05-28T15:32:22.000Z</time>
      </trkpt>
      <trkpt lat="43.99056" lon="3.50531">
        <ele>538.1</ele>
        <time>2026-05-28T15:32:23.000Z</time>
      </trkpt>
      <trkpt lat="43.99056" lon="3.50531">
        <ele>538.1</ele>
        <time>2026-05-28T15:32:24.000Z</time>
      </trkpt>
      <trkpt lat="43.99057" lon="3.50531">
        <ele>538.2</ele>
        <time>2026-05-28T15:32:26.000Z</time>
      </trkpt>
      <trkpt lat="43.99057" lon="3.5053">
        <ele>538.1</ele>
        <time>2026-05-28T15:32:27.000Z</time>
      </trkpt>
      <trkpt lat="43.99057" lon="3.5053">
        <ele>538</ele>
        <time>2026-05-28T15:32:28.000Z</time>
      </trkpt>
      <trkpt lat="43.99057" lon="3.5053">
        <ele>538.1</ele>
        <time>2026-05-28T15:32:29.000Z</time>
      </trkpt>
      <trkpt lat="43.99058" lon="3.5053">
        <ele>538</ele>
        <time>2026-05-28T15:32:30.000Z</time>
      </trkpt>
      <trkpt lat="43.99058" lon="3.5053">
        <ele>538</ele>
        <time>2026-05-28T15:32:31.000Z</time>
      </trkpt>
      <trkpt lat="43.99059" lon="3.50531">
        <ele>538</ele>
        <time>2026-05-28T15:32:32.000Z</time>
      </trkpt>
      <trkpt lat="43.99059" lon="3.50531">
        <ele>538</ele>
        <time>2026-05-28T15:32:33.000Z</time>
      </trkpt>
      <trkpt lat="43.99059" lon="3.50531">
        <ele>538.1</ele>
        <time>2026-05-28T15:32:34.000Z</time>
      </trkpt>
      <trkpt lat="43.9906" lon="3.50531">
        <ele>538.2</ele>
        <time>2026-05-28T15:32:35.000Z</time>
      </trkpt>
      <trkpt lat="43.9906" lon="3.5053">
        <ele>538.1</ele>
        <time>2026-05-28T15:32:36.000Z</time>
      </trkpt>
      <trkpt lat="43.9906" lon="3.50529">
        <ele>537.9</ele>
        <time>2026-05-28T15:32:37.000Z</time>
      </trkpt>
      <trkpt lat="43.9906" lon="3.50527">
        <ele>537.9</ele>
        <time>2026-05-28T15:32:38.000Z</time>
      </trkpt>
      <trkpt lat="43.9906" lon="3.50526">
        <ele>537.9</ele>
        <time>2026-05-28T15:32:39.000Z</time>
      </trkpt>
      <trkpt lat="43.99059" lon="3.50525">
        <ele>537.8</ele>
        <time>2026-05-28T15:32:40.000Z</time>
      </trkpt>
      <trkpt lat="43.99059" lon="3.50523">
        <ele>537.7</ele>
        <time>2026-05-28T15:32:41.000Z</time>
      </trkpt>
      <trkpt lat="43.99059" lon="3.50522">
        <ele>537.7</ele>
        <time>2026-05-28T15:32:42.000Z</time>
      </trkpt>
      <trkpt lat="43.99059" lon="3.50522">
        <ele>537.5</ele>
        <time>2026-05-28T15:32:43.000Z</time>
      </trkpt>
      <trkpt lat="43.9906" lon="3.50521">
        <ele>537.3</ele>
        <time>2026-05-28T15:32:44.000Z</time>
      </trkpt>
      <trkpt lat="43.9906" lon="3.50521">
        <ele>537.3</ele>
        <time>2026-05-28T15:32:45.000Z</time>
      </trkpt>
      <trkpt lat="43.9906" lon="3.5052">
        <ele>537.4</ele>
        <time>2026-05-28T15:32:46.000Z</time>
      </trkpt>
      <trkpt lat="43.9906" lon="3.5052">
        <ele>537.4</ele>
        <time>2026-05-28T15:32:47.000Z</time>
      </trkpt>
      <trkpt lat="43.9906" lon="3.50519">
        <ele>537.1</ele>
        <time>2026-05-28T15:32:48.000Z</time>
      </trkpt>
      <trkpt lat="43.9906" lon="3.50519">
        <ele>536.6</ele>
        <time>2026-05-28T15:32:49.000Z</time>
      </trkpt>
      <trkpt lat="43.9906" lon="3.50519">
        <ele>536.2</ele>
        <time>2026-05-28T15:32:50.000Z</time>
      </trkpt>
      <trkpt lat="43.9906" lon="3.50518">
        <ele>536.2</ele>
        <time>2026-05-28T15:32:51.000Z</time>
      </trkpt>
      <trkpt lat="43.9906" lon="3.50518">
        <ele>536</ele>
        <time>2026-05-28T15:32:52.000Z</time>
      </trkpt>
      <trkpt lat="43.9906" lon="3.50519">
        <ele>535.6</ele>
        <time>2026-05-28T15:32:53.000Z</time>
      </trkpt>
      <trkpt lat="43.9906" lon="3.5052">
        <ele>535.1</ele>
        <time>2026-05-28T15:32:54.000Z</time>
      </trkpt>
      <trkpt lat="43.9906" lon="3.5052">
        <ele>534.9</ele>
        <time>2026-05-28T15:32:55.000Z</time>
      </trkpt>
      <trkpt lat="43.99061" lon="3.5052">
        <ele>534.5</ele>
        <time>2026-05-28T15:32:56.000Z</time>
      </trkpt>
      <trkpt lat="43.9906" lon="3.5052">
        <ele>534.8</ele>
        <time>2026-05-28T15:32:57.000Z</time>
      </trkpt>
      <trkpt lat="43.99059" lon="3.50519">
        <ele>534.4</ele>
        <time>2026-05-28T15:32:58.000Z</time>
      </trkpt>
      <trkpt lat="43.99058" lon="3.50517">
        <ele>534</ele>
        <time>2026-05-28T15:32:59.000Z</time>
      </trkpt>
      <trkpt lat="43.99058" lon="3.50517">
        <ele>534</ele>
        <time>2026-05-28T15:33:00.000Z</time>
      </trkpt>
      <trkpt lat="43.99058" lon="3.50516">
        <ele>533.9</ele>
        <time>2026-05-28T15:33:01.000Z</time>
      </trkpt>
      <trkpt lat="43.99058" lon="3.50515">
        <ele>534</ele>
        <time>2026-05-28T15:33:02.000Z</time>
      </trkpt>
      <trkpt lat="43.99058" lon="3.50514">
        <ele>534.1</ele>
        <time>2026-05-28T15:33:03.000Z</time>
      </trkpt>
      <trkpt lat="43.99058" lon="3.50514">
        <ele>536.3</ele>
        <time>2026-05-28T15:33:04.000Z</time>
      </trkpt>
      <trkpt lat="43.99058" lon="3.50514">
        <ele>536.3</ele>
        <time>2026-05-28T15:33:05.000Z</time>
      </trkpt>
      <trkpt lat="43.99057" lon="3.50514">
        <ele>536</ele>
        <time>2026-05-28T15:33:06.000Z</time>
      </trkpt>
      <trkpt lat="43.99057" lon="3.50514">
        <ele>535.5</ele>
        <time>2026-05-28T15:33:07.000Z</time>
      </trkpt>
      <trkpt lat="43.99057" lon="3.50514">
        <ele>535.1</ele>
        <time>2026-05-28T15:33:08.000Z</time>
      </trkpt>
      <trkpt lat="43.99056" lon="3.50514">
        <ele>534.8</ele>
        <time>2026-05-28T15:33:09.000Z</time>
      </trkpt>
      <trkpt lat="43.99055" lon="3.50514">
        <ele>534.3</ele>
        <time>2026-05-28T15:33:10.000Z</time>
      </trkpt>
      <trkpt lat="43.99054" lon="3.50513">
        <ele>533.7</ele>
        <time>2026-05-28T15:33:11.000Z</time>
      </trkpt>
      <trkpt lat="43.99052" lon="3.50513">
        <ele>533.3</ele>
        <time>2026-05-28T15:33:12.000Z</time>
      </trkpt>
      <trkpt lat="43.99051" lon="3.50514">
        <ele>532.7</ele>
        <time>2026-05-28T15:33:13.000Z</time>
      </trkpt>
      <trkpt lat="43.9905" lon="3.50513">
        <ele>532.2</ele>
        <time>2026-05-28T15:33:14.000Z</time>
      </trkpt>
      <trkpt lat="43.9905" lon="3.50512">
        <ele>531.8</ele>
        <time>2026-05-28T15:33:15.000Z</time>
      </trkpt>
      <trkpt lat="43.99049" lon="3.50512">
        <ele>531.6</ele>
        <time>2026-05-28T15:33:16.000Z</time>
      </trkpt>
      <trkpt lat="43.99048" lon="3.50511">
        <ele>531.5</ele>
        <time>2026-05-28T15:33:17.000Z</time>
      </trkpt>
      <trkpt lat="43.99046" lon="3.50513">
        <ele>529.6</ele>
        <time>2026-05-28T15:33:18.000Z</time>
      </trkpt>
      <trkpt lat="43.99046" lon="3.50514">
        <ele>528.8</ele>
        <time>2026-05-28T15:33:19.000Z</time>
      </trkpt>
      <trkpt lat="43.99046" lon="3.50514">
        <ele>528.4</ele>
        <time>2026-05-28T15:33:20.000Z</time>
      </trkpt>
      <trkpt lat="43.99046" lon="3.50513">
        <ele>528.5</ele>
        <time>2026-05-28T15:33:21.000Z</time>
      </trkpt>
      <trkpt lat="43.99047" lon="3.50513">
        <ele>528.3</ele>
        <time>2026-05-28T15:33:22.000Z</time>
      </trkpt>
      <trkpt lat="43.99046" lon="3.50513">
        <ele>528</ele>
        <time>2026-05-28T15:33:23.000Z</time>
      </trkpt>
      <trkpt lat="43.99046" lon="3.50513">
        <ele>529.4</ele>
        <time>2026-05-28T15:33:24.000Z</time>
      </trkpt>
      <trkpt lat="43.99046" lon="3.50512">
        <ele>529.3</ele>
        <time>2026-05-28T15:33:25.000Z</time>
      </trkpt>
      <trkpt lat="43.99046" lon="3.50512">
        <ele>529.2</ele>
        <time>2026-05-28T15:33:26.000Z</time>
      </trkpt>
      <trkpt lat="43.99046" lon="3.50512">
        <ele>529.3</ele>
        <time>2026-05-28T15:33:27.000Z</time>
      </trkpt>
      <trkpt lat="43.99046" lon="3.50512">
        <ele>529.5</ele>
        <time>2026-05-28T15:33:28.000Z</time>
      </trkpt>
      <trkpt lat="43.99046" lon="3.50512">
        <ele>529.4</ele>
        <time>2026-05-28T15:33:29.000Z</time>
      </trkpt>
      <trkpt lat="43.99046" lon="3.50512">
        <ele>529.6</ele>
        <time>2026-05-28T15:33:30.000Z</time>
      </trkpt>
      <trkpt lat="43.99046" lon="3.50513">
        <ele>529.5</ele>
        <time>2026-05-28T15:33:31.000Z</time>
      </trkpt>
      <trkpt lat="43.99046" lon="3.50513">
        <ele>529.6</ele>
        <time>2026-05-28T15:33:32.000Z</time>
      </trkpt>
      <trkpt lat="43.99047" lon="3.50514">
        <ele>529.6</ele>
        <time>2026-05-28T15:33:33.000Z</time>
      </trkpt>
      <trkpt lat="43.99046" lon="3.50514">
        <ele>529.6</ele>
        <time>2026-05-28T15:33:34.000Z</time>
      </trkpt>
      <trkpt lat="43.99045" lon="3.50516">
        <ele>529.7</ele>
        <time>2026-05-28T15:33:36.000Z</time>
      </trkpt>
      <trkpt lat="43.99044" lon="3.50517">
        <ele>529.7</ele>
        <time>2026-05-28T15:33:37.000Z</time>
      </trkpt>
      <trkpt lat="43.99043" lon="3.50514">
        <ele>529.8</ele>
        <time>2026-05-28T15:33:38.000Z</time>
      </trkpt>
      <trkpt lat="43.99046" lon="3.50508">
        <ele>529.1</ele>
        <time>2026-05-28T15:33:39.000Z</time>
      </trkpt>
      <trkpt lat="43.99048" lon="3.50501">
        <ele>529.1</ele>
        <time>2026-05-28T15:33:40.000Z</time>
      </trkpt>
      <trkpt lat="43.99048" lon="3.50497">
        <ele>530.1</ele>
        <time>2026-05-28T15:33:41.000Z</time>
      </trkpt>
      <trkpt lat="43.99048" lon="3.50494">
        <ele>530.4</ele>
        <time>2026-05-28T15:33:42.000Z</time>
      </trkpt>
      <trkpt lat="43.99049" lon="3.50493">
        <ele>530.5</ele>
        <time>2026-05-28T15:33:43.000Z</time>
      </trkpt>
      <trkpt lat="43.99049" lon="3.5049">
        <ele>530.5</ele>
        <time>2026-05-28T15:33:44.000Z</time>
      </trkpt>
      <trkpt lat="43.99049" lon="3.50487">
        <ele>530.3</ele>
        <time>2026-05-28T15:33:45.000Z</time>
      </trkpt>
      <trkpt lat="43.99049" lon="3.50485">
        <ele>530</ele>
        <time>2026-05-28T15:33:46.000Z</time>
      </trkpt>
      <trkpt lat="43.99049" lon="3.50483">
        <ele>529.9</ele>
        <time>2026-05-28T15:33:47.000Z</time>
      </trkpt>
      <trkpt lat="43.99049" lon="3.50481">
        <ele>529.8</ele>
        <time>2026-05-28T15:33:48.000Z</time>
      </trkpt>
      <trkpt lat="43.99049" lon="3.50479">
        <ele>529.7</ele>
        <time>2026-05-28T15:33:49.000Z</time>
      </trkpt>
      <trkpt lat="43.9905" lon="3.50477">
        <ele>529.8</ele>
        <time>2026-05-28T15:33:50.000Z</time>
      </trkpt>
      <trkpt lat="43.9905" lon="3.50475">
        <ele>530</ele>
        <time>2026-05-28T15:33:51.000Z</time>
      </trkpt>
      <trkpt lat="43.9905" lon="3.50474">
        <ele>530.3</ele>
        <time>2026-05-28T15:33:52.000Z</time>
      </trkpt>
      <trkpt lat="43.99051" lon="3.50472">
        <ele>530.3</ele>
        <time>2026-05-28T15:33:53.000Z</time>
      </trkpt>
      <trkpt lat="43.99052" lon="3.50471">
        <ele>530</ele>
        <time>2026-05-28T15:33:54.000Z</time>
      </trkpt>
      <trkpt lat="43.99053" lon="3.5047">
        <ele>529.8</ele>
        <time>2026-05-28T15:33:55.000Z</time>
      </trkpt>
      <trkpt lat="43.99055" lon="3.50469">
        <ele>529.4</ele>
        <time>2026-05-28T15:33:56.000Z</time>
      </trkpt>
      <trkpt lat="43.99056" lon="3.50468">
        <ele>529.7</ele>
        <time>2026-05-28T15:33:57.000Z</time>
      </trkpt>
      <trkpt lat="43.99056" lon="3.50468">
        <ele>529.6</ele>
        <time>2026-05-28T15:33:58.000Z</time>
      </trkpt>
      <trkpt lat="43.99057" lon="3.50468">
        <ele>528.7</ele>
        <time>2026-05-28T15:33:59.000Z</time>
      </trkpt>
      <trkpt lat="43.99058" lon="3.50468">
        <ele>528.7</ele>
        <time>2026-05-28T15:34:00.000Z</time>
      </trkpt>
      <trkpt lat="43.99059" lon="3.50467">
        <ele>529.2</ele>
        <time>2026-05-28T15:34:01.000Z</time>
      </trkpt>
      <trkpt lat="43.9906" lon="3.50467">
        <ele>528.7</ele>
        <time>2026-05-28T15:34:02.000Z</time>
      </trkpt>
      <trkpt lat="43.9906" lon="3.50467">
        <ele>528.3</ele>
        <time>2026-05-28T15:34:03.000Z</time>
      </trkpt>
      <trkpt lat="43.99061" lon="3.50467">
        <ele>528.5</ele>
        <time>2026-05-28T15:34:04.000Z</time>
      </trkpt>
      <trkpt lat="43.99061" lon="3.50467">
        <ele>528.5</ele>
        <time>2026-05-28T15:34:05.000Z</time>
      </trkpt>
      <trkpt lat="43.99061" lon="3.50467">
        <ele>527.9</ele>
        <time>2026-05-28T15:34:06.000Z</time>
      </trkpt>
      <trkpt lat="43.99061" lon="3.50467">
        <ele>527</ele>
        <time>2026-05-28T15:34:07.000Z</time>
      </trkpt>
      <trkpt lat="43.99061" lon="3.50467">
        <ele>526.5</ele>
        <time>2026-05-28T15:34:08.000Z</time>
      </trkpt>
      <trkpt lat="43.99061" lon="3.50467">
        <ele>526.2</ele>
        <time>2026-05-28T15:34:09.000Z</time>
      </trkpt>
      <trkpt lat="43.99061" lon="3.50467">
        <ele>526.2</ele>
        <time>2026-05-28T15:34:10.000Z</time>
      </trkpt>
      <trkpt lat="43.9906" lon="3.50467">
        <ele>526.1</ele>
        <time>2026-05-28T15:34:11.000Z</time>
      </trkpt>
      <trkpt lat="43.99061" lon="3.50467">
        <ele>526.1</ele>
        <time>2026-05-28T15:34:12.000Z</time>
      </trkpt>
      <trkpt lat="43.99061" lon="3.50466">
        <ele>526.1</ele>
        <time>2026-05-28T15:34:13.000Z</time>
      </trkpt>
      <trkpt lat="43.99061" lon="3.50467">
        <ele>525.9</ele>
        <time>2026-05-28T15:34:14.000Z</time>
      </trkpt>
      <trkpt lat="43.99062" lon="3.50467">
        <ele>525.8</ele>
        <time>2026-05-28T15:34:15.000Z</time>
      </trkpt>
      <trkpt lat="43.99062" lon="3.50467">
        <ele>525.9</ele>
        <time>2026-05-28T15:34:16.000Z</time>
      </trkpt>
      <trkpt lat="43.99063" lon="3.50466">
        <ele>525.8</ele>
        <time>2026-05-28T15:34:17.000Z</time>
      </trkpt>
      <trkpt lat="43.99062" lon="3.50467">
        <ele>525.4</ele>
        <time>2026-05-28T15:34:18.000Z</time>
      </trkpt>
      <trkpt lat="43.99062" lon="3.50467">
        <ele>524.8</ele>
        <time>2026-05-28T15:34:19.000Z</time>
      </trkpt>
      <trkpt lat="43.99062" lon="3.50467">
        <ele>524.5</ele>
        <time>2026-05-28T15:34:20.000Z</time>
      </trkpt>
      <trkpt lat="43.99063" lon="3.50467">
        <ele>524.5</ele>
        <time>2026-05-28T15:34:21.000Z</time>
      </trkpt>
      <trkpt lat="43.99063" lon="3.50467">
        <ele>524.6</ele>
        <time>2026-05-28T15:34:22.000Z</time>
      </trkpt>
      <trkpt lat="43.99064" lon="3.50468">
        <ele>524.5</ele>
        <time>2026-05-28T15:34:23.000Z</time>
      </trkpt>
      <trkpt lat="43.99065" lon="3.50468">
        <ele>524.5</ele>
        <time>2026-05-28T15:34:24.000Z</time>
      </trkpt>
      <trkpt lat="43.99066" lon="3.50468">
        <ele>524.7</ele>
        <time>2026-05-28T15:34:25.000Z</time>
      </trkpt>
      <trkpt lat="43.99067" lon="3.50468">
        <ele>524.8</ele>
        <time>2026-05-28T15:34:26.000Z</time>
      </trkpt>
      <trkpt lat="43.99068" lon="3.50467">
        <ele>525</ele>
        <time>2026-05-28T15:34:27.000Z</time>
      </trkpt>
      <trkpt lat="43.99069" lon="3.50466">
        <ele>525.2</ele>
        <time>2026-05-28T15:34:28.000Z</time>
      </trkpt>
      <trkpt lat="43.99069" lon="3.50466">
        <ele>525.5</ele>
        <time>2026-05-28T15:34:29.000Z</time>
      </trkpt>
      <trkpt lat="43.99069" lon="3.50466">
        <ele>525.2</ele>
        <time>2026-05-28T15:34:30.000Z</time>
      </trkpt>
      <trkpt lat="43.99069" lon="3.50466">
        <ele>524.6</ele>
        <time>2026-05-28T15:34:31.000Z</time>
      </trkpt>
      <trkpt lat="43.99068" lon="3.50466">
        <ele>524.5</ele>
        <time>2026-05-28T15:34:32.000Z</time>
      </trkpt>
      <trkpt lat="43.99069" lon="3.50467">
        <ele>524.5</ele>
        <time>2026-05-28T15:34:33.000Z</time>
      </trkpt>
      <trkpt lat="43.99069" lon="3.50467">
        <ele>525</ele>
        <time>2026-05-28T15:34:34.000Z</time>
      </trkpt>
      <trkpt lat="43.99069" lon="3.50466">
        <ele>525.1</ele>
        <time>2026-05-28T15:34:35.000Z</time>
      </trkpt>
      <trkpt lat="43.99069" lon="3.50466">
        <ele>525.3</ele>
        <time>2026-05-28T15:34:36.000Z</time>
      </trkpt>
      <trkpt lat="43.9907" lon="3.50466">
        <ele>524.9</ele>
        <time>2026-05-28T15:34:37.000Z</time>
      </trkpt>
      <trkpt lat="43.9907" lon="3.50466">
        <ele>524.8</ele>
        <time>2026-05-28T15:34:38.000Z</time>
      </trkpt>
      <trkpt lat="43.9907" lon="3.50466">
        <ele>524.8</ele>
        <time>2026-05-28T15:34:39.000Z</time>
      </trkpt>
      <trkpt lat="43.9907" lon="3.50466">
        <ele>524.9</ele>
        <time>2026-05-28T15:34:40.000Z</time>
      </trkpt>
      <trkpt lat="43.9907" lon="3.50466">
        <ele>524.8</ele>
        <time>2026-05-28T15:34:41.000Z</time>
      </trkpt>
      <trkpt lat="43.9907" lon="3.50466">
        <ele>524.7</ele>
        <time>2026-05-28T15:34:42.000Z</time>
      </trkpt>
      <trkpt lat="43.9907" lon="3.50466">
        <ele>524.6</ele>
        <time>2026-05-28T15:34:43.000Z</time>
      </trkpt>
      <trkpt lat="43.99071" lon="3.50466">
        <ele>524.7</ele>
        <time>2026-05-28T15:34:44.000Z</time>
      </trkpt>
      <trkpt lat="43.99072" lon="3.50465">
        <ele>524.8</ele>
        <time>2026-05-28T15:34:46.000Z</time>
      </trkpt>
      <trkpt lat="43.99073" lon="3.50465">
        <ele>524.8</ele>
        <time>2026-05-28T15:34:47.000Z</time>
      </trkpt>
      <trkpt lat="43.99074" lon="3.50464">
        <ele>524.7</ele>
        <time>2026-05-28T15:34:48.000Z</time>
      </trkpt>
      <trkpt lat="43.99075" lon="3.50464">
        <ele>524.6</ele>
        <time>2026-05-28T15:34:49.000Z</time>
      </trkpt>
      <trkpt lat="43.99076" lon="3.50464">
        <ele>524.7</ele>
        <time>2026-05-28T15:34:50.000Z</time>
      </trkpt>
      <trkpt lat="43.99077" lon="3.50464">
        <ele>524.5</ele>
        <time>2026-05-28T15:34:51.000Z</time>
      </trkpt>
      <trkpt lat="43.99078" lon="3.50463">
        <ele>524.5</ele>
        <time>2026-05-28T15:34:52.000Z</time>
      </trkpt>
      <trkpt lat="43.99079" lon="3.50463">
        <ele>524.6</ele>
        <time>2026-05-28T15:34:53.000Z</time>
      </trkpt>
      <trkpt lat="43.9908" lon="3.50462">
        <ele>524.5</ele>
        <time>2026-05-28T15:34:54.000Z</time>
      </trkpt>
      <trkpt lat="43.99081" lon="3.50461">
        <ele>524.3</ele>
        <time>2026-05-28T15:34:55.000Z</time>
      </trkpt>
      <trkpt lat="43.99082" lon="3.5046">
        <ele>524.4</ele>
        <time>2026-05-28T15:34:56.000Z</time>
      </trkpt>
      <trkpt lat="43.99083" lon="3.5046">
        <ele>524.1</ele>
        <time>2026-05-28T15:34:57.000Z</time>
      </trkpt>
      <trkpt lat="43.99084" lon="3.50459">
        <ele>524.2</ele>
        <time>2026-05-28T15:34:58.000Z</time>
      </trkpt>
      <trkpt lat="43.99084" lon="3.50458">
        <ele>524</ele>
        <time>2026-05-28T15:34:59.000Z</time>
      </trkpt>
      <trkpt lat="43.99084" lon="3.50457">
        <ele>523.7</ele>
        <time>2026-05-28T15:35:00.000Z</time>
      </trkpt>
      <trkpt lat="43.99084" lon="3.50457">
        <ele>523.8</ele>
        <time>2026-05-28T15:35:01.000Z</time>
      </trkpt>
      <trkpt lat="43.99084" lon="3.50456">
        <ele>524.1</ele>
        <time>2026-05-28T15:35:03.000Z</time>
      </trkpt>
      <trkpt lat="43.99084" lon="3.50455">
        <ele>524</ele>
        <time>2026-05-28T15:35:04.000Z</time>
      </trkpt>
      <trkpt lat="43.99085" lon="3.50455">
        <ele>524</ele>
        <time>2026-05-28T15:35:05.000Z</time>
      </trkpt>
      <trkpt lat="43.99085" lon="3.50454">
        <ele>523.9</ele>
        <time>2026-05-28T15:35:06.000Z</time>
      </trkpt>
      <trkpt lat="43.99086" lon="3.50453">
        <ele>523.6</ele>
        <time>2026-05-28T15:35:07.000Z</time>
      </trkpt>
      <trkpt lat="43.99086" lon="3.50453">
        <ele>523.7</ele>
        <time>2026-05-28T15:35:08.000Z</time>
      </trkpt>
      <trkpt lat="43.99087" lon="3.50454">
        <ele>523</ele>
        <time>2026-05-28T15:35:09.000Z</time>
      </trkpt>
      <trkpt lat="43.99087" lon="3.50454">
        <ele>522.6</ele>
        <time>2026-05-28T15:35:10.000Z</time>
      </trkpt>
      <trkpt lat="43.99087" lon="3.50455">
        <ele>522.7</ele>
        <time>2026-05-28T15:35:11.000Z</time>
      </trkpt>
      <trkpt lat="43.99087" lon="3.50455">
        <ele>522.7</ele>
        <time>2026-05-28T15:35:12.000Z</time>
      </trkpt>
      <trkpt lat="43.99088" lon="3.50454">
        <ele>522.4</ele>
        <time>2026-05-28T15:35:13.000Z</time>
      </trkpt>
      <trkpt lat="43.99088" lon="3.50454">
        <ele>521.6</ele>
        <time>2026-05-28T15:35:14.000Z</time>
      </trkpt>
      <trkpt lat="43.99088" lon="3.50455">
        <ele>521.6</ele>
        <time>2026-05-28T15:35:15.000Z</time>
      </trkpt>
      <trkpt lat="43.99088" lon="3.50455">
        <ele>521.8</ele>
        <time>2026-05-28T15:35:16.000Z</time>
      </trkpt>
      <trkpt lat="43.99088" lon="3.50455">
        <ele>522</ele>
        <time>2026-05-28T15:35:17.000Z</time>
      </trkpt>
      <trkpt lat="43.99088" lon="3.50455">
        <ele>522</ele>
        <time>2026-05-28T15:35:18.000Z</time>
      </trkpt>
      <trkpt lat="43.99088" lon="3.50455">
        <ele>522</ele>
        <time>2026-05-28T15:35:19.000Z</time>
      </trkpt>
      <trkpt lat="43.99088" lon="3.50455">
        <ele>522.2</ele>
        <time>2026-05-28T15:35:20.000Z</time>
      </trkpt>
      <trkpt lat="43.99088" lon="3.50455">
        <ele>522.3</ele>
        <time>2026-05-28T15:35:21.000Z</time>
      </trkpt>
      <trkpt lat="43.99088" lon="3.50455">
        <ele>522.4</ele>
        <time>2026-05-28T15:35:22.000Z</time>
      </trkpt>
      <trkpt lat="43.99088" lon="3.50454">
        <ele>522.4</ele>
        <time>2026-05-28T15:35:23.000Z</time>
      </trkpt>
      <trkpt lat="43.99088" lon="3.50454">
        <ele>522.2</ele>
        <time>2026-05-28T15:35:24.000Z</time>
      </trkpt>
      <trkpt lat="43.99088" lon="3.50454">
        <ele>522.3</ele>
        <time>2026-05-28T15:35:25.000Z</time>
      </trkpt>
      <trkpt lat="43.99088" lon="3.50454">
        <ele>522.4</ele>
        <time>2026-05-28T15:35:27.000Z</time>
      </trkpt>
      <trkpt lat="43.99088" lon="3.50454">
        <ele>522.3</ele>
        <time>2026-05-28T15:35:28.000Z</time>
      </trkpt>
      <trkpt lat="43.99088" lon="3.50454">
        <ele>522.4</ele>
        <time>2026-05-28T15:35:29.000Z</time>
      </trkpt>
      <trkpt lat="43.99088" lon="3.50454">
        <ele>522.3</ele>
        <time>2026-05-28T15:35:30.000Z</time>
      </trkpt>
      <trkpt lat="43.99088" lon="3.50454">
        <ele>522.4</ele>
        <time>2026-05-28T15:35:31.000Z</time>
      </trkpt>
      <trkpt lat="43.99088" lon="3.50454">
        <ele>522.3</ele>
        <time>2026-05-28T15:35:32.000Z</time>
      </trkpt>
      <trkpt lat="43.99088" lon="3.50454">
        <ele>522.1</ele>
        <time>2026-05-28T15:35:33.000Z</time>
      </trkpt>
      <trkpt lat="43.99088" lon="3.50454">
        <ele>521.9</ele>
        <time>2026-05-28T15:35:34.000Z</time>
      </trkpt>
      <trkpt lat="43.99088" lon="3.50454">
        <ele>521.7</ele>
        <time>2026-05-28T15:35:35.000Z</time>
      </trkpt>
      <trkpt lat="43.99088" lon="3.50455">
        <ele>521.6</ele>
        <time>2026-05-28T15:35:36.000Z</time>
      </trkpt>
      <trkpt lat="43.99088" lon="3.50455">
        <ele>521.5</ele>
        <time>2026-05-28T15:35:37.000Z</time>
      </trkpt>
      <trkpt lat="43.99088" lon="3.50455">
        <ele>521.5</ele>
        <time>2026-05-28T15:35:38.000Z</time>
      </trkpt>
      <trkpt lat="43.99088" lon="3.50455">
        <ele>521.6</ele>
        <time>2026-05-28T15:35:39.000Z</time>
      </trkpt>
      <trkpt lat="43.99088" lon="3.50455">
        <ele>521.8</ele>
        <time>2026-05-28T15:35:40.000Z</time>
      </trkpt>
      <trkpt lat="43.99089" lon="3.50454">
        <ele>521.9</ele>
        <time>2026-05-28T15:35:41.000Z</time>
      </trkpt>
      <trkpt lat="43.99088" lon="3.50454">
        <ele>521.9</ele>
        <time>2026-05-28T15:35:42.000Z</time>
      </trkpt>
      <trkpt lat="43.99088" lon="3.50454">
        <ele>522</ele>
        <time>2026-05-28T15:35:43.000Z</time>
      </trkpt>
      <trkpt lat="43.99088" lon="3.50454">
        <ele>522.3</ele>
        <time>2026-05-28T15:35:44.000Z</time>
      </trkpt>
      <trkpt lat="43.99088" lon="3.50454">
        <ele>522.4</ele>
        <time>2026-05-28T15:35:45.000Z</time>
      </trkpt>
      <trkpt lat="43.99087" lon="3.50454">
        <ele>522.3</ele>
        <time>2026-05-28T15:35:46.000Z</time>
      </trkpt>
      <trkpt lat="43.99087" lon="3.50454">
        <ele>522.2</ele>
        <time>2026-05-28T15:35:47.000Z</time>
      </trkpt>
      <trkpt lat="43.99087" lon="3.50453">
        <ele>522.1</ele>
        <time>2026-05-28T15:35:48.000Z</time>
      </trkpt>
      <trkpt lat="43.99088" lon="3.50453">
        <ele>522</ele>
        <time>2026-05-28T15:35:49.000Z</time>
      </trkpt>
      <trkpt lat="43.99088" lon="3.50453">
        <ele>521.7</ele>
        <time>2026-05-28T15:35:50.000Z</time>
      </trkpt>
      <trkpt lat="43.99088" lon="3.50453">
        <ele>521.7</ele>
        <time>2026-05-28T15:35:51.000Z</time>
      </trkpt>
      <trkpt lat="43.99087" lon="3.50453">
        <ele>520.1</ele>
        <time>2026-05-28T15:35:53.000Z</time>
      </trkpt>
      <trkpt lat="43.99087" lon="3.50453">
        <ele>519.7</ele>
        <time>2026-05-28T15:35:54.000Z</time>
      </trkpt>
      <trkpt lat="43.99086" lon="3.50453">
        <ele>519.5</ele>
        <time>2026-05-28T15:35:55.000Z</time>
      </trkpt>
      <trkpt lat="43.99086" lon="3.50453">
        <ele>519</ele>
        <time>2026-05-28T15:35:56.000Z</time>
      </trkpt>
      <trkpt lat="43.99086" lon="3.50454">
        <ele>518.7</ele>
        <time>2026-05-28T15:35:57.000Z</time>
      </trkpt>
      <trkpt lat="43.99086" lon="3.50453">
        <ele>518.6</ele>
        <time>2026-05-28T15:35:58.000Z</time>
      </trkpt>
      <trkpt lat="43.99086" lon="3.50453">
        <ele>518.6</ele>
        <time>2026-05-28T15:35:59.000Z</time>
      </trkpt>
      <trkpt lat="43.99086" lon="3.50452">
        <ele>519.5</ele>
        <time>2026-05-28T15:36:00.000Z</time>
      </trkpt>
      <trkpt lat="43.99086" lon="3.50452">
        <ele>519.9</ele>
        <time>2026-05-28T15:36:01.000Z</time>
      </trkpt>
      <trkpt lat="43.99087" lon="3.50451">
        <ele>520.3</ele>
        <time>2026-05-28T15:36:02.000Z</time>
      </trkpt>
      <trkpt lat="43.99088" lon="3.50451">
        <ele>519.8</ele>
        <time>2026-05-28T15:36:03.000Z</time>
      </trkpt>
      <trkpt lat="43.99088" lon="3.5045">
        <ele>520</ele>
        <time>2026-05-28T15:36:04.000Z</time>
      </trkpt>
      <trkpt lat="43.99089" lon="3.5045">
        <ele>520.1</ele>
        <time>2026-05-28T15:36:05.000Z</time>
      </trkpt>
      <trkpt lat="43.9909" lon="3.5045">
        <ele>519.5</ele>
        <time>2026-05-28T15:36:06.000Z</time>
      </trkpt>
      <trkpt lat="43.9909" lon="3.5045">
        <ele>520.4</ele>
        <time>2026-05-28T15:36:07.000Z</time>
      </trkpt>
      <trkpt lat="43.99091" lon="3.50449">
        <ele>520.7</ele>
        <time>2026-05-28T15:36:08.000Z</time>
      </trkpt>
      <trkpt lat="43.99091" lon="3.50451">
        <ele>521</ele>
        <time>2026-05-28T15:36:09.000Z</time>
      </trkpt>
      <trkpt lat="43.99091" lon="3.50452">
        <ele>521.2</ele>
        <time>2026-05-28T15:36:10.000Z</time>
      </trkpt>
      <trkpt lat="43.99089" lon="3.50453">
        <ele>520.7</ele>
        <time>2026-05-28T15:36:11.000Z</time>
      </trkpt>
      <trkpt lat="43.99089" lon="3.50454">
        <ele>520.4</ele>
        <time>2026-05-28T15:36:12.000Z</time>
      </trkpt>
      <trkpt lat="43.99088" lon="3.50453">
        <ele>520.2</ele>
        <time>2026-05-28T15:36:13.000Z</time>
      </trkpt>
      <trkpt lat="43.99087" lon="3.50454">
        <ele>520.1</ele>
        <time>2026-05-28T15:36:14.000Z</time>
      </trkpt>
      <trkpt lat="43.99086" lon="3.50454">
        <ele>520.2</ele>
        <time>2026-05-28T15:36:15.000Z</time>
      </trkpt>
      <trkpt lat="43.99086" lon="3.50455">
        <ele>520.4</ele>
        <time>2026-05-28T15:36:16.000Z</time>
      </trkpt>
      <trkpt lat="43.99086" lon="3.50456">
        <ele>520.4</ele>
        <time>2026-05-28T15:36:17.000Z</time>
      </trkpt>
      <trkpt lat="43.99086" lon="3.50456">
        <ele>520.4</ele>
        <time>2026-05-28T15:36:18.000Z</time>
      </trkpt>
      <trkpt lat="43.99085" lon="3.50456">
        <ele>520.4</ele>
        <time>2026-05-28T15:36:19.000Z</time>
      </trkpt>
      <trkpt lat="43.99085" lon="3.50456">
        <ele>520.2</ele>
        <time>2026-05-28T15:36:20.000Z</time>
      </trkpt>
      <trkpt lat="43.99085" lon="3.50456">
        <ele>520.3</ele>
        <time>2026-05-28T15:36:21.000Z</time>
      </trkpt>
      <trkpt lat="43.99085" lon="3.50454">
        <ele>520.8</ele>
        <time>2026-05-28T15:36:22.000Z</time>
      </trkpt>
      <trkpt lat="43.99085" lon="3.50453">
        <ele>521</ele>
        <time>2026-05-28T15:36:23.000Z</time>
      </trkpt>
      <trkpt lat="43.99085" lon="3.50452">
        <ele>520.8</ele>
        <time>2026-05-28T15:36:24.000Z</time>
      </trkpt>
      <trkpt lat="43.99086" lon="3.50451">
        <ele>520.9</ele>
        <time>2026-05-28T15:36:25.000Z</time>
      </trkpt>
      <trkpt lat="43.99086" lon="3.50451">
        <ele>521.3</ele>
        <time>2026-05-28T15:36:26.000Z</time>
      </trkpt>
      <trkpt lat="43.99086" lon="3.50451">
        <ele>521.2</ele>
        <time>2026-05-28T15:36:27.000Z</time>
      </trkpt>
      <trkpt lat="43.99087" lon="3.50451">
        <ele>521.1</ele>
        <time>2026-05-28T15:36:28.000Z</time>
      </trkpt>
      <trkpt lat="43.99087" lon="3.5045">
        <ele>520.9</ele>
        <time>2026-05-28T15:36:29.000Z</time>
      </trkpt>
      <trkpt lat="43.99087" lon="3.5045">
        <ele>521.2</ele>
        <time>2026-05-28T15:36:30.000Z</time>
      </trkpt>
      <trkpt lat="43.99087" lon="3.50449">
        <ele>521.2</ele>
        <time>2026-05-28T15:36:31.000Z</time>
      </trkpt>
      <trkpt lat="43.99087" lon="3.50449">
        <ele>521</ele>
        <time>2026-05-28T15:36:32.000Z</time>
      </trkpt>
      <trkpt lat="43.99087" lon="3.50448">
        <ele>520.7</ele>
        <time>2026-05-28T15:36:33.000Z</time>
      </trkpt>
      <trkpt lat="43.99088" lon="3.50448">
        <ele>520.7</ele>
        <time>2026-05-28T15:36:34.000Z</time>
      </trkpt>
      <trkpt lat="43.99088" lon="3.50447">
        <ele>520.7</ele>
        <time>2026-05-28T15:36:35.000Z</time>
      </trkpt>
      <trkpt lat="43.99088" lon="3.50447">
        <ele>520.7</ele>
        <time>2026-05-28T15:36:36.000Z</time>
      </trkpt>
      <trkpt lat="43.99088" lon="3.50447">
        <ele>520.5</ele>
        <time>2026-05-28T15:36:37.000Z</time>
      </trkpt>
      <trkpt lat="43.99088" lon="3.50447">
        <ele>520.8</ele>
        <time>2026-05-28T15:36:38.000Z</time>
      </trkpt>
      <trkpt lat="43.99088" lon="3.50447">
        <ele>520.8</ele>
        <time>2026-05-28T15:36:39.000Z</time>
      </trkpt>
      <trkpt lat="43.99087" lon="3.50446">
        <ele>520.9</ele>
        <time>2026-05-28T15:36:40.000Z</time>
      </trkpt>
      <trkpt lat="43.99088" lon="3.50446">
        <ele>520.8</ele>
        <time>2026-05-28T15:36:41.000Z</time>
      </trkpt>
      <trkpt lat="43.99088" lon="3.50446">
        <ele>521</ele>
        <time>2026-05-28T15:36:42.000Z</time>
      </trkpt>
      <trkpt lat="43.99088" lon="3.50444">
        <ele>521.6</ele>
        <time>2026-05-28T15:36:43.000Z</time>
      </trkpt>
      <trkpt lat="43.99088" lon="3.50444">
        <ele>522</ele>
        <time>2026-05-28T15:36:44.000Z</time>
      </trkpt>
      <trkpt lat="43.99087" lon="3.50444">
        <ele>521.9</ele>
        <time>2026-05-28T15:36:45.000Z</time>
      </trkpt>
      <trkpt lat="43.99087" lon="3.50442">
        <ele>521.5</ele>
        <time>2026-05-28T15:36:46.000Z</time>
      </trkpt>
      <trkpt lat="43.99086" lon="3.50441">
        <ele>521.2</ele>
        <time>2026-05-28T15:36:47.000Z</time>
      </trkpt>
      <trkpt lat="43.99086" lon="3.50439">
        <ele>520.9</ele>
        <time>2026-05-28T15:36:48.000Z</time>
      </trkpt>
      <trkpt lat="43.99086" lon="3.50439">
        <ele>520.9</ele>
        <time>2026-05-28T15:36:49.000Z</time>
      </trkpt>
      <trkpt lat="43.99086" lon="3.50439">
        <ele>521</ele>
        <time>2026-05-28T15:36:50.000Z</time>
      </trkpt>
      <trkpt lat="43.99086" lon="3.50438">
        <ele>520.9</ele>
        <time>2026-05-28T15:36:51.000Z</time>
      </trkpt>
      <trkpt lat="43.99086" lon="3.50438">
        <ele>521.1</ele>
        <time>2026-05-28T15:36:52.000Z</time>
      </trkpt>
      <trkpt lat="43.99086" lon="3.50438">
        <ele>521</ele>
        <time>2026-05-28T15:36:53.000Z</time>
      </trkpt>
      <trkpt lat="43.99086" lon="3.50438">
        <ele>520.8</ele>
        <time>2026-05-28T15:36:54.000Z</time>
      </trkpt>
      <trkpt lat="43.99086" lon="3.50438">
        <ele>520.5</ele>
        <time>2026-05-28T15:36:55.000Z</time>
      </trkpt>
      <trkpt lat="43.99086" lon="3.50437">
        <ele>520.4</ele>
        <time>2026-05-28T15:36:56.000Z</time>
      </trkpt>
      <trkpt lat="43.99086" lon="3.50436">
        <ele>520.3</ele>
        <time>2026-05-28T15:36:57.000Z</time>
      </trkpt>
      <trkpt lat="43.99086" lon="3.50434">
        <ele>520.4</ele>
        <time>2026-05-28T15:36:58.000Z</time>
      </trkpt>
      <trkpt lat="43.99086" lon="3.50433">
        <ele>520.4</ele>
        <time>2026-05-28T15:36:59.000Z</time>
      </trkpt>
      <trkpt lat="43.99086" lon="3.50431">
        <ele>520.3</ele>
        <time>2026-05-28T15:37:00.000Z</time>
      </trkpt>
      <trkpt lat="43.99087" lon="3.5043">
        <ele>520.3</ele>
        <time>2026-05-28T15:37:01.000Z</time>
      </trkpt>
      <trkpt lat="43.99088" lon="3.50429">
        <ele>520.1</ele>
        <time>2026-05-28T15:37:02.000Z</time>
      </trkpt>
      <trkpt lat="43.99088" lon="3.50429">
        <ele>520</ele>
        <time>2026-05-28T15:37:03.000Z</time>
      </trkpt>
      <trkpt lat="43.99088" lon="3.50428">
        <ele>520</ele>
        <time>2026-05-28T15:37:04.000Z</time>
      </trkpt>
      <trkpt lat="43.99088" lon="3.50428">
        <ele>520</ele>
        <time>2026-05-28T15:37:05.000Z</time>
      </trkpt>
      <trkpt lat="43.99089" lon="3.50428">
        <ele>520.2</ele>
        <time>2026-05-28T15:37:06.000Z</time>
      </trkpt>
      <trkpt lat="43.9909" lon="3.50427">
        <ele>520.6</ele>
        <time>2026-05-28T15:37:07.000Z</time>
      </trkpt>
      <trkpt lat="43.9909" lon="3.50427">
        <ele>520.6</ele>
        <time>2026-05-28T15:37:08.000Z</time>
      </trkpt>
      <trkpt lat="43.9909" lon="3.50426">
        <ele>520.6</ele>
        <time>2026-05-28T15:37:09.000Z</time>
      </trkpt>
      <trkpt lat="43.9909" lon="3.50426">
        <ele>520.5</ele>
        <time>2026-05-28T15:37:10.000Z</time>
      </trkpt>
      <trkpt lat="43.99092" lon="3.50424">
        <ele>520.2</ele>
        <time>2026-05-28T15:37:12.000Z</time>
      </trkpt>
      <trkpt lat="43.99093" lon="3.50424">
        <ele>519.8</ele>
        <time>2026-05-28T15:37:13.000Z</time>
      </trkpt>
      <trkpt lat="43.99093" lon="3.50423">
        <ele>520</ele>
        <time>2026-05-28T15:37:14.000Z</time>
      </trkpt>
      <trkpt lat="43.99093" lon="3.50422">
        <ele>519.7</ele>
        <time>2026-05-28T15:37:15.000Z</time>
      </trkpt>
      <trkpt lat="43.99092" lon="3.50421">
        <ele>519.4</ele>
        <time>2026-05-28T15:37:16.000Z</time>
      </trkpt>
      <trkpt lat="43.99091" lon="3.50421">
        <ele>519</ele>
        <time>2026-05-28T15:37:17.000Z</time>
      </trkpt>
      <trkpt lat="43.99091" lon="3.5042">
        <ele>518.3</ele>
        <time>2026-05-28T15:37:18.000Z</time>
      </trkpt>
      <trkpt lat="43.99091" lon="3.50419">
        <ele>517.8</ele>
        <time>2026-05-28T15:37:19.000Z</time>
      </trkpt>
      <trkpt lat="43.99091" lon="3.50418">
        <ele>517.4</ele>
        <time>2026-05-28T15:37:20.000Z</time>
      </trkpt>
      <trkpt lat="43.9909" lon="3.50417">
        <ele>516.6</ele>
        <time>2026-05-28T15:37:21.000Z</time>
      </trkpt>
      <trkpt lat="43.9909" lon="3.50417">
        <ele>516</ele>
        <time>2026-05-28T15:37:22.000Z</time>
      </trkpt>
      <trkpt lat="43.99089" lon="3.50417">
        <ele>515.3</ele>
        <time>2026-05-28T15:37:23.000Z</time>
      </trkpt>
      <trkpt lat="43.99088" lon="3.50417">
        <ele>514.6</ele>
        <time>2026-05-28T15:37:24.000Z</time>
      </trkpt>
      <trkpt lat="43.99086" lon="3.50418">
        <ele>513.7</ele>
        <time>2026-05-28T15:37:25.000Z</time>
      </trkpt>
      <trkpt lat="43.99085" lon="3.50418">
        <ele>512.9</ele>
        <time>2026-05-28T15:37:26.000Z</time>
      </trkpt>
      <trkpt lat="43.99084" lon="3.50418">
        <ele>512.3</ele>
        <time>2026-05-28T15:37:27.000Z</time>
      </trkpt>
      <trkpt lat="43.99082" lon="3.50418">
        <ele>512.3</ele>
        <time>2026-05-28T15:37:28.000Z</time>
      </trkpt>
      <trkpt lat="43.99081" lon="3.50419">
        <ele>512.2</ele>
        <time>2026-05-28T15:37:29.000Z</time>
      </trkpt>
      <trkpt lat="43.9908" lon="3.50419">
        <ele>511.9</ele>
        <time>2026-05-28T15:37:30.000Z</time>
      </trkpt>
      <trkpt lat="43.99079" lon="3.5042">
        <ele>511.7</ele>
        <time>2026-05-28T15:37:31.000Z</time>
      </trkpt>
      <trkpt lat="43.99078" lon="3.5042">
        <ele>511.4</ele>
        <time>2026-05-28T15:37:32.000Z</time>
      </trkpt>
      <trkpt lat="43.99078" lon="3.5042">
        <ele>511.4</ele>
        <time>2026-05-28T15:37:33.000Z</time>
      </trkpt>
      <trkpt lat="43.99077" lon="3.5042">
        <ele>511.1</ele>
        <time>2026-05-28T15:37:34.000Z</time>
      </trkpt>
      <trkpt lat="43.99077" lon="3.5042">
        <ele>510.5</ele>
        <time>2026-05-28T15:37:35.000Z</time>
      </trkpt>
      <trkpt lat="43.99077" lon="3.5042">
        <ele>510.2</ele>
        <time>2026-05-28T15:37:36.000Z</time>
      </trkpt>
      <trkpt lat="43.99077" lon="3.5042">
        <ele>509.9</ele>
        <time>2026-05-28T15:37:37.000Z</time>
      </trkpt>
      <trkpt lat="43.99077" lon="3.5042">
        <ele>509.7</ele>
        <time>2026-05-28T15:37:38.000Z</time>
      </trkpt>
      <trkpt lat="43.99077" lon="3.5042">
        <ele>509.7</ele>
        <time>2026-05-28T15:37:39.000Z</time>
      </trkpt>
      <trkpt lat="43.99077" lon="3.5042">
        <ele>509.4</ele>
        <time>2026-05-28T15:37:40.000Z</time>
      </trkpt>
      <trkpt lat="43.99077" lon="3.5042">
        <ele>509.4</ele>
        <time>2026-05-28T15:37:41.000Z</time>
      </trkpt>
      <trkpt lat="43.99077" lon="3.5042">
        <ele>509.1</ele>
        <time>2026-05-28T15:37:42.000Z</time>
      </trkpt>
      <trkpt lat="43.99077" lon="3.5042">
        <ele>509.1</ele>
        <time>2026-05-28T15:37:43.000Z</time>
      </trkpt>
      <trkpt lat="43.99077" lon="3.5042">
        <ele>508.9</ele>
        <time>2026-05-28T15:37:44.000Z</time>
      </trkpt>
      <trkpt lat="43.99077" lon="3.5042">
        <ele>508.6</ele>
        <time>2026-05-28T15:37:45.000Z</time>
      </trkpt>
      <trkpt lat="43.99077" lon="3.5042">
        <ele>508.5</ele>
        <time>2026-05-28T15:37:46.000Z</time>
      </trkpt>
      <trkpt lat="43.99077" lon="3.5042">
        <ele>508.5</ele>
        <time>2026-05-28T15:37:47.000Z</time>
      </trkpt>
      <trkpt lat="43.99077" lon="3.5042">
        <ele>508.4</ele>
        <time>2026-05-28T15:37:48.000Z</time>
      </trkpt>
      <trkpt lat="43.99077" lon="3.5042">
        <ele>508.2</ele>
        <time>2026-05-28T15:37:49.000Z</time>
      </trkpt>
      <trkpt lat="43.99077" lon="3.5042">
        <ele>508.1</ele>
        <time>2026-05-28T15:37:50.000Z</time>
      </trkpt>
      <trkpt lat="43.99076" lon="3.5042">
        <ele>508.2</ele>
        <time>2026-05-28T15:37:51.000Z</time>
      </trkpt>
      <trkpt lat="43.99076" lon="3.5042">
        <ele>508</ele>
        <time>2026-05-28T15:37:52.000Z</time>
      </trkpt>
      <trkpt lat="43.99076" lon="3.5042">
        <ele>508</ele>
        <time>2026-05-28T15:37:53.000Z</time>
      </trkpt>
      <trkpt lat="43.99076" lon="3.5042">
        <ele>508</ele>
        <time>2026-05-28T15:37:54.000Z</time>
      </trkpt>
      <trkpt lat="43.99076" lon="3.5042">
        <ele>508.2</ele>
        <time>2026-05-28T15:37:55.000Z</time>
      </trkpt>
      <trkpt lat="43.99076" lon="3.5042">
        <ele>508.3</ele>
        <time>2026-05-28T15:37:56.000Z</time>
      </trkpt>
      <trkpt lat="43.99076" lon="3.5042">
        <ele>508.2</ele>
        <time>2026-05-28T15:37:57.000Z</time>
      </trkpt>
      <trkpt lat="43.99077" lon="3.5042">
        <ele>508.1</ele>
        <time>2026-05-28T15:37:58.000Z</time>
      </trkpt>
      <trkpt lat="43.99077" lon="3.5042">
        <ele>508</ele>
        <time>2026-05-28T15:37:59.000Z</time>
      </trkpt>
      <trkpt lat="43.99079" lon="3.50419">
        <ele>508</ele>
        <time>2026-05-28T15:38:01.000Z</time>
      </trkpt>
      <trkpt lat="43.99079" lon="3.50419">
        <ele>508</ele>
        <time>2026-05-28T15:38:02.000Z</time>
      </trkpt>
      <trkpt lat="43.99079" lon="3.50419">
        <ele>507.9</ele>
        <time>2026-05-28T15:38:03.000Z</time>
      </trkpt>
      <trkpt lat="43.99079" lon="3.5042">
        <ele>507.8</ele>
        <time>2026-05-28T15:38:04.000Z</time>
      </trkpt>
      <trkpt lat="43.99079" lon="3.5042">
        <ele>507.8</ele>
        <time>2026-05-28T15:38:05.000Z</time>
      </trkpt>
      <trkpt lat="43.99079" lon="3.50419">
        <ele>507.8</ele>
        <time>2026-05-28T15:38:06.000Z</time>
      </trkpt>
      <trkpt lat="43.99079" lon="3.50419">
        <ele>507.8</ele>
        <time>2026-05-28T15:38:07.000Z</time>
      </trkpt>
      <trkpt lat="43.99079" lon="3.50419">
        <ele>507.8</ele>
        <time>2026-05-28T15:38:08.000Z</time>
      </trkpt>
      <trkpt lat="43.99079" lon="3.50419">
        <ele>508.1</ele>
        <time>2026-05-28T15:38:09.000Z</time>
      </trkpt>
      <trkpt lat="43.99079" lon="3.50419">
        <ele>508.3</ele>
        <time>2026-05-28T15:38:10.000Z</time>
      </trkpt>
      <trkpt lat="43.99079" lon="3.50419">
        <ele>508.3</ele>
        <time>2026-05-28T15:38:11.000Z</time>
      </trkpt>
      <trkpt lat="43.99079" lon="3.50419">
        <ele>508.4</ele>
        <time>2026-05-28T15:38:12.000Z</time>
      </trkpt>
      <trkpt lat="43.99079" lon="3.50419">
        <ele>508.5</ele>
        <time>2026-05-28T15:38:13.000Z</time>
      </trkpt>
      <trkpt lat="43.9908" lon="3.50418">
        <ele>509.1</ele>
        <time>2026-05-28T15:38:15.000Z</time>
      </trkpt>
      <trkpt lat="43.9908" lon="3.50418">
        <ele>509.3</ele>
        <time>2026-05-28T15:38:16.000Z</time>
      </trkpt>
      <trkpt lat="43.99081" lon="3.50417">
        <ele>509.5</ele>
        <time>2026-05-28T15:38:17.000Z</time>
      </trkpt>
      <trkpt lat="43.99081" lon="3.50417">
        <ele>509.5</ele>
        <time>2026-05-28T15:38:18.000Z</time>
      </trkpt>
      <trkpt lat="43.99081" lon="3.50416">
        <ele>509.6</ele>
        <time>2026-05-28T15:38:19.000Z</time>
      </trkpt>
      <trkpt lat="43.99081" lon="3.50416">
        <ele>509.6</ele>
        <time>2026-05-28T15:38:20.000Z</time>
      </trkpt>
      <trkpt lat="43.99081" lon="3.50416">
        <ele>509.5</ele>
        <time>2026-05-28T15:38:21.000Z</time>
      </trkpt>
      <trkpt lat="43.99081" lon="3.50416">
        <ele>509.4</ele>
        <time>2026-05-28T15:38:22.000Z</time>
      </trkpt>
      <trkpt lat="43.99081" lon="3.50416">
        <ele>509.3</ele>
        <time>2026-05-28T15:38:23.000Z</time>
      </trkpt>
      <trkpt lat="43.99081" lon="3.50416">
        <ele>509.2</ele>
        <time>2026-05-28T15:38:24.000Z</time>
      </trkpt>
      <trkpt lat="43.99081" lon="3.50416">
        <ele>509.1</ele>
        <time>2026-05-28T15:38:25.000Z</time>
      </trkpt>
      <trkpt lat="43.99081" lon="3.50416">
        <ele>509</ele>
        <time>2026-05-28T15:38:26.000Z</time>
      </trkpt>
      <trkpt lat="43.99081" lon="3.50416">
        <ele>508.7</ele>
        <time>2026-05-28T15:38:27.000Z</time>
      </trkpt>
      <trkpt lat="43.99082" lon="3.50416">
        <ele>508.6</ele>
        <time>2026-05-28T15:38:28.000Z</time>
      </trkpt>
      <trkpt lat="43.99082" lon="3.50416">
        <ele>508.7</ele>
        <time>2026-05-28T15:38:29.000Z</time>
      </trkpt>
      <trkpt lat="43.99081" lon="3.50415">
        <ele>508.6</ele>
        <time>2026-05-28T15:38:30.000Z</time>
      </trkpt>
      <trkpt lat="43.99081" lon="3.50415">
        <ele>508.1</ele>
        <time>2026-05-28T15:38:31.000Z</time>
      </trkpt>
      <trkpt lat="43.99081" lon="3.50416">
        <ele>507.8</ele>
        <time>2026-05-28T15:38:32.000Z</time>
      </trkpt>
      <trkpt lat="43.99081" lon="3.50416">
        <ele>507.7</ele>
        <time>2026-05-28T15:38:33.000Z</time>
      </trkpt>
      <trkpt lat="43.99081" lon="3.50416">
        <ele>507.7</ele>
        <time>2026-05-28T15:38:34.000Z</time>
      </trkpt>
      <trkpt lat="43.9908" lon="3.50416">
        <ele>507.6</ele>
        <time>2026-05-28T15:38:35.000Z</time>
      </trkpt>
      <trkpt lat="43.99079" lon="3.50416">
        <ele>507.6</ele>
        <time>2026-05-28T15:38:36.000Z</time>
      </trkpt>
      <trkpt lat="43.99079" lon="3.50416">
        <ele>507.6</ele>
        <time>2026-05-28T15:38:37.000Z</time>
      </trkpt>
      <trkpt lat="43.99078" lon="3.50416">
        <ele>507.5</ele>
        <time>2026-05-28T15:38:38.000Z</time>
      </trkpt>
      <trkpt lat="43.99077" lon="3.50417">
        <ele>507.3</ele>
        <time>2026-05-28T15:38:39.000Z</time>
      </trkpt>
      <trkpt lat="43.99076" lon="3.50418">
        <ele>507.3</ele>
        <time>2026-05-28T15:38:40.000Z</time>
      </trkpt>
      <trkpt lat="43.99075" lon="3.50419">
        <ele>507.2</ele>
        <time>2026-05-28T15:38:41.000Z</time>
      </trkpt>
      <trkpt lat="43.99074" lon="3.5042">
        <ele>507.4</ele>
        <time>2026-05-28T15:38:42.000Z</time>
      </trkpt>
      <trkpt lat="43.99074" lon="3.50421">
        <ele>507.6</ele>
        <time>2026-05-28T15:38:43.000Z</time>
      </trkpt>
      <trkpt lat="43.99073" lon="3.5042">
        <ele>507.8</ele>
        <time>2026-05-28T15:38:44.000Z</time>
      </trkpt>
      <trkpt lat="43.99073" lon="3.5042">
        <ele>507.8</ele>
        <time>2026-05-28T15:38:45.000Z</time>
      </trkpt>
      <trkpt lat="43.99073" lon="3.5042">
        <ele>507.8</ele>
        <time>2026-05-28T15:38:46.000Z</time>
      </trkpt>
      <trkpt lat="43.99073" lon="3.5042">
        <ele>507.7</ele>
        <time>2026-05-28T15:38:47.000Z</time>
      </trkpt>
      <trkpt lat="43.99073" lon="3.5042">
        <ele>508</ele>
        <time>2026-05-28T15:38:48.000Z</time>
      </trkpt>
      <trkpt lat="43.99073" lon="3.5042">
        <ele>508</ele>
        <time>2026-05-28T15:38:49.000Z</time>
      </trkpt>
      <trkpt lat="43.99073" lon="3.5042">
        <ele>508</ele>
        <time>2026-05-28T15:38:50.000Z</time>
      </trkpt>
      <trkpt lat="43.99073" lon="3.5042">
        <ele>507.9</ele>
        <time>2026-05-28T15:38:51.000Z</time>
      </trkpt>
      <trkpt lat="43.99073" lon="3.50419">
        <ele>508</ele>
        <time>2026-05-28T15:38:52.000Z</time>
      </trkpt>
      <trkpt lat="43.99073" lon="3.50418">
        <ele>508</ele>
        <time>2026-05-28T15:38:53.000Z</time>
      </trkpt>
      <trkpt lat="43.99074" lon="3.50417">
        <ele>507.8</ele>
        <time>2026-05-28T15:38:54.000Z</time>
      </trkpt>
      <trkpt lat="43.99074" lon="3.50418">
        <ele>507.7</ele>
        <time>2026-05-28T15:38:55.000Z</time>
      </trkpt>
      <trkpt lat="43.99074" lon="3.50418">
        <ele>507.8</ele>
        <time>2026-05-28T15:38:56.000Z</time>
      </trkpt>
      <trkpt lat="43.99073" lon="3.50419">
        <ele>508</ele>
        <time>2026-05-28T15:38:57.000Z</time>
      </trkpt>
      <trkpt lat="43.99073" lon="3.50418">
        <ele>508</ele>
        <time>2026-05-28T15:38:58.000Z</time>
      </trkpt>
      <trkpt lat="43.99073" lon="3.50418">
        <ele>507.7</ele>
        <time>2026-05-28T15:38:59.000Z</time>
      </trkpt>
      <trkpt lat="43.99073" lon="3.50418">
        <ele>507.6</ele>
        <time>2026-05-28T15:39:00.000Z</time>
      </trkpt>
      <trkpt lat="43.99073" lon="3.50417">
        <ele>507.5</ele>
        <time>2026-05-28T15:39:01.000Z</time>
      </trkpt>
      <trkpt lat="43.99073" lon="3.50417">
        <ele>507.3</ele>
        <time>2026-05-28T15:39:02.000Z</time>
      </trkpt>
      <trkpt lat="43.99073" lon="3.50417">
        <ele>507.2</ele>
        <time>2026-05-28T15:39:03.000Z</time>
      </trkpt>
      <trkpt lat="43.99073" lon="3.50417">
        <ele>507.4</ele>
        <time>2026-05-28T15:39:04.000Z</time>
      </trkpt>
      <trkpt lat="43.99073" lon="3.50417">
        <ele>507.7</ele>
        <time>2026-05-28T15:39:05.000Z</time>
      </trkpt>
      <trkpt lat="43.99073" lon="3.50417">
        <ele>508</ele>
        <time>2026-05-28T15:39:06.000Z</time>
      </trkpt>
      <trkpt lat="43.99073" lon="3.50417">
        <ele>508.3</ele>
        <time>2026-05-28T15:39:07.000Z</time>
      </trkpt>
      <trkpt lat="43.99073" lon="3.50417">
        <ele>508.3</ele>
        <time>2026-05-28T15:39:08.000Z</time>
      </trkpt>
      <trkpt lat="43.99073" lon="3.50417">
        <ele>508.6</ele>
        <time>2026-05-28T15:39:09.000Z</time>
      </trkpt>
      <trkpt lat="43.99073" lon="3.50418">
        <ele>508.8</ele>
        <time>2026-05-28T15:39:10.000Z</time>
      </trkpt>
      <trkpt lat="43.99073" lon="3.50418">
        <ele>508.8</ele>
        <time>2026-05-28T15:39:11.000Z</time>
      </trkpt>
      <trkpt lat="43.99073" lon="3.50418">
        <ele>508.8</ele>
        <time>2026-05-28T15:39:12.000Z</time>
      </trkpt>
      <trkpt lat="43.99073" lon="3.50418">
        <ele>508.9</ele>
        <time>2026-05-28T15:39:13.000Z</time>
      </trkpt>
      <trkpt lat="43.99073" lon="3.50418">
        <ele>509.1</ele>
        <time>2026-05-28T15:39:14.000Z</time>
      </trkpt>
      <trkpt lat="43.99073" lon="3.50418">
        <ele>509.2</ele>
        <time>2026-05-28T15:39:15.000Z</time>
      </trkpt>
      <trkpt lat="43.99073" lon="3.50419">
        <ele>509.2</ele>
        <time>2026-05-28T15:39:16.000Z</time>
      </trkpt>
      <trkpt lat="43.99073" lon="3.50419">
        <ele>509.3</ele>
        <time>2026-05-28T15:39:17.000Z</time>
      </trkpt>
      <trkpt lat="43.99073" lon="3.50419">
        <ele>509.1</ele>
        <time>2026-05-28T15:39:18.000Z</time>
      </trkpt>
      <trkpt lat="43.99073" lon="3.50419">
        <ele>509</ele>
        <time>2026-05-28T15:39:19.000Z</time>
      </trkpt>
      <trkpt lat="43.99073" lon="3.50419">
        <ele>509</ele>
        <time>2026-05-28T15:39:20.000Z</time>
      </trkpt>
      <trkpt lat="43.99072" lon="3.50419">
        <ele>508.9</ele>
        <time>2026-05-28T15:39:21.000Z</time>
      </trkpt>
      <trkpt lat="43.99072" lon="3.50419">
        <ele>508.8</ele>
        <time>2026-05-28T15:39:22.000Z</time>
      </trkpt>
      <trkpt lat="43.99072" lon="3.50418">
        <ele>508.8</ele>
        <time>2026-05-28T15:39:23.000Z</time>
      </trkpt>
      <trkpt lat="43.99072" lon="3.50418">
        <ele>508.7</ele>
        <time>2026-05-28T15:39:24.000Z</time>
      </trkpt>
      <trkpt lat="43.99072" lon="3.50418">
        <ele>508.6</ele>
        <time>2026-05-28T15:39:26.000Z</time>
      </trkpt>
      <trkpt lat="43.99071" lon="3.50418">
        <ele>508.5</ele>
        <time>2026-05-28T15:39:27.000Z</time>
      </trkpt>
      <trkpt lat="43.9907" lon="3.50419">
        <ele>508.4</ele>
        <time>2026-05-28T15:39:28.000Z</time>
      </trkpt>
      <trkpt lat="43.9907" lon="3.50419">
        <ele>508.4</ele>
        <time>2026-05-28T15:39:29.000Z</time>
      </trkpt>
      <trkpt lat="43.99069" lon="3.50419">
        <ele>508.3</ele>
        <time>2026-05-28T15:39:30.000Z</time>
      </trkpt>
      <trkpt lat="43.99069" lon="3.5042">
        <ele>508.1</ele>
        <time>2026-05-28T15:39:31.000Z</time>
      </trkpt>
      <trkpt lat="43.99069" lon="3.5042">
        <ele>507.9</ele>
        <time>2026-05-28T15:39:32.000Z</time>
      </trkpt>
      <trkpt lat="43.9907" lon="3.50421">
        <ele>508</ele>
        <time>2026-05-28T15:39:33.000Z</time>
      </trkpt>
      <trkpt lat="43.9907" lon="3.50421">
        <ele>507.9</ele>
        <time>2026-05-28T15:39:34.000Z</time>
      </trkpt>
      <trkpt lat="43.9907" lon="3.50421">
        <ele>507.6</ele>
        <time>2026-05-28T15:39:35.000Z</time>
      </trkpt>
      <trkpt lat="43.9907" lon="3.5042">
        <ele>507.3</ele>
        <time>2026-05-28T15:39:36.000Z</time>
      </trkpt>
      <trkpt lat="43.99071" lon="3.5042">
        <ele>507.3</ele>
        <time>2026-05-28T15:39:37.000Z</time>
      </trkpt>
      <trkpt lat="43.99072" lon="3.50419">
        <ele>507.5</ele>
        <time>2026-05-28T15:39:38.000Z</time>
      </trkpt>
      <trkpt lat="43.99074" lon="3.50419">
        <ele>507.8</ele>
        <time>2026-05-28T15:39:40.000Z</time>
      </trkpt>
      <trkpt lat="43.99074" lon="3.50418">
        <ele>507.8</ele>
        <time>2026-05-28T15:39:41.000Z</time>
      </trkpt>
      <trkpt lat="43.99074" lon="3.50418">
        <ele>507.8</ele>
        <time>2026-05-28T15:39:42.000Z</time>
      </trkpt>
      <trkpt lat="43.99074" lon="3.50418">
        <ele>507.9</ele>
        <time>2026-05-28T15:39:43.000Z</time>
      </trkpt>
      <trkpt lat="43.99074" lon="3.50418">
        <ele>507.8</ele>
        <time>2026-05-28T15:39:44.000Z</time>
      </trkpt>
      <trkpt lat="43.99074" lon="3.50418">
        <ele>507.9</ele>
        <time>2026-05-28T15:39:45.000Z</time>
      </trkpt>
      <trkpt lat="43.99074" lon="3.50418">
        <ele>507.9</ele>
        <time>2026-05-28T15:39:46.000Z</time>
      </trkpt>
      <trkpt lat="43.99074" lon="3.50417">
        <ele>508.1</ele>
        <time>2026-05-28T15:39:47.000Z</time>
      </trkpt>
      <trkpt lat="43.99075" lon="3.50417">
        <ele>508.3</ele>
        <time>2026-05-28T15:39:48.000Z</time>
      </trkpt>
      <trkpt lat="43.99075" lon="3.50417">
        <ele>508</ele>
        <time>2026-05-28T15:39:49.000Z</time>
      </trkpt>
      <trkpt lat="43.99075" lon="3.50417">
        <ele>507.5</ele>
        <time>2026-05-28T15:39:50.000Z</time>
      </trkpt>
      <trkpt lat="43.99075" lon="3.50417">
        <ele>507.4</ele>
        <time>2026-05-28T15:39:51.000Z</time>
      </trkpt>
      <trkpt lat="43.99075" lon="3.50417">
        <ele>506.8</ele>
        <time>2026-05-28T15:39:53.000Z</time>
      </trkpt>
      <trkpt lat="43.99075" lon="3.50417">
        <ele>506.8</ele>
        <time>2026-05-28T15:39:54.000Z</time>
      </trkpt>
      <trkpt lat="43.99076" lon="3.50417">
        <ele>506.6</ele>
        <time>2026-05-28T15:39:55.000Z</time>
      </trkpt>
      <trkpt lat="43.99076" lon="3.50416">
        <ele>506.6</ele>
        <time>2026-05-28T15:39:56.000Z</time>
      </trkpt>
      <trkpt lat="43.99077" lon="3.50415">
        <ele>506.7</ele>
        <time>2026-05-28T15:39:57.000Z</time>
      </trkpt>
      <trkpt lat="43.99077" lon="3.50415">
        <ele>506.6</ele>
        <time>2026-05-28T15:39:58.000Z</time>
      </trkpt>
      <trkpt lat="43.99077" lon="3.50414">
        <ele>506.7</ele>
        <time>2026-05-28T15:39:59.000Z</time>
      </trkpt>
      <trkpt lat="43.99077" lon="3.50414">
        <ele>506.7</ele>
        <time>2026-05-28T15:40:00.000Z</time>
      </trkpt>
      <trkpt lat="43.99077" lon="3.50413">
        <ele>506.7</ele>
        <time>2026-05-28T15:40:01.000Z</time>
      </trkpt>
      <trkpt lat="43.99078" lon="3.50412">
        <ele>506.8</ele>
        <time>2026-05-28T15:40:02.000Z</time>
      </trkpt>
      <trkpt lat="43.99078" lon="3.50412">
        <ele>506.9</ele>
        <time>2026-05-28T15:40:03.000Z</time>
      </trkpt>
      <trkpt lat="43.99079" lon="3.50411">
        <ele>506.8</ele>
        <time>2026-05-28T15:40:04.000Z</time>
      </trkpt>
      <trkpt lat="43.99079" lon="3.50411">
        <ele>506.9</ele>
        <time>2026-05-28T15:40:05.000Z</time>
      </trkpt>
      <trkpt lat="43.99079" lon="3.50411">
        <ele>506.8</ele>
        <time>2026-05-28T15:40:06.000Z</time>
      </trkpt>
      <trkpt lat="43.99079" lon="3.50411">
        <ele>506.8</ele>
        <time>2026-05-28T15:40:07.000Z</time>
      </trkpt>
      <trkpt lat="43.99079" lon="3.50411">
        <ele>506.8</ele>
        <time>2026-05-28T15:40:08.000Z</time>
      </trkpt>
      <trkpt lat="43.99079" lon="3.50411">
        <ele>506.9</ele>
        <time>2026-05-28T15:40:09.000Z</time>
      </trkpt>
      <trkpt lat="43.99078" lon="3.5041">
        <ele>506.7</ele>
        <time>2026-05-28T15:40:10.000Z</time>
      </trkpt>
      <trkpt lat="43.99078" lon="3.5041">
        <ele>506.6</ele>
        <time>2026-05-28T15:40:11.000Z</time>
      </trkpt>
      <trkpt lat="43.99078" lon="3.50409">
        <ele>506.6</ele>
        <time>2026-05-28T15:40:12.000Z</time>
      </trkpt>
      <trkpt lat="43.99077" lon="3.50409">
        <ele>506.6</ele>
        <time>2026-05-28T15:40:13.000Z</time>
      </trkpt>
      <trkpt lat="43.99077" lon="3.50409">
        <ele>506.4</ele>
        <time>2026-05-28T15:40:14.000Z</time>
      </trkpt>
      <trkpt lat="43.99077" lon="3.50409">
        <ele>506.4</ele>
        <time>2026-05-28T15:40:15.000Z</time>
      </trkpt>
      <trkpt lat="43.99077" lon="3.50409">
        <ele>506.5</ele>
        <time>2026-05-28T15:40:16.000Z</time>
      </trkpt>
      <trkpt lat="43.99078" lon="3.50409">
        <ele>506.5</ele>
        <time>2026-05-28T15:40:17.000Z</time>
      </trkpt>
      <trkpt lat="43.99078" lon="3.50408">
        <ele>506.6</ele>
        <time>2026-05-28T15:40:18.000Z</time>
      </trkpt>
      <trkpt lat="43.9908" lon="3.50409">
        <ele>506.9</ele>
        <time>2026-05-28T15:40:19.000Z</time>
      </trkpt>
      <trkpt lat="43.9908" lon="3.5041">
        <ele>507.2</ele>
        <time>2026-05-28T15:40:20.000Z</time>
      </trkpt>
      <trkpt lat="43.9908" lon="3.5041">
        <ele>507.4</ele>
        <time>2026-05-28T15:40:21.000Z</time>
      </trkpt>
      <trkpt lat="43.9908" lon="3.5041">
        <ele>507.5</ele>
        <time>2026-05-28T15:40:22.000Z</time>
      </trkpt>
      <trkpt lat="43.99079" lon="3.50408">
        <ele>507.6</ele>
        <time>2026-05-28T15:40:23.000Z</time>
      </trkpt>
      <trkpt lat="43.99079" lon="3.50407">
        <ele>507.7</ele>
        <time>2026-05-28T15:40:24.000Z</time>
      </trkpt>
      <trkpt lat="43.99078" lon="3.50406">
        <ele>507.7</ele>
        <time>2026-05-28T15:40:25.000Z</time>
      </trkpt>
      <trkpt lat="43.99078" lon="3.50406">
        <ele>507.7</ele>
        <time>2026-05-28T15:40:26.000Z</time>
      </trkpt>
      <trkpt lat="43.99079" lon="3.50406">
        <ele>507.8</ele>
        <time>2026-05-28T15:40:27.000Z</time>
      </trkpt>
      <trkpt lat="43.99079" lon="3.50406">
        <ele>507.8</ele>
        <time>2026-05-28T15:40:28.000Z</time>
      </trkpt>
      <trkpt lat="43.99079" lon="3.50406">
        <ele>507.9</ele>
        <time>2026-05-28T15:40:29.000Z</time>
      </trkpt>
      <trkpt lat="43.99079" lon="3.50406">
        <ele>507.9</ele>
        <time>2026-05-28T15:40:30.000Z</time>
      </trkpt>
      <trkpt lat="43.9908" lon="3.50406">
        <ele>507.9</ele>
        <time>2026-05-28T15:40:31.000Z</time>
      </trkpt>
      <trkpt lat="43.9908" lon="3.50407">
        <ele>508</ele>
        <time>2026-05-28T15:40:32.000Z</time>
      </trkpt>
      <trkpt lat="43.9908" lon="3.50407">
        <ele>508</ele>
        <time>2026-05-28T15:40:33.000Z</time>
      </trkpt>
      <trkpt lat="43.9908" lon="3.50407">
        <ele>508</ele>
        <time>2026-05-28T15:40:34.000Z</time>
      </trkpt>
      <trkpt lat="43.99079" lon="3.50407">
        <ele>508.1</ele>
        <time>2026-05-28T15:40:35.000Z</time>
      </trkpt>
      <trkpt lat="43.9908" lon="3.50407">
        <ele>508.1</ele>
        <time>2026-05-28T15:40:36.000Z</time>
      </trkpt>
      <trkpt lat="43.9908" lon="3.50407">
        <ele>508.1</ele>
        <time>2026-05-28T15:40:37.000Z</time>
      </trkpt>
      <trkpt lat="43.9908" lon="3.50408">
        <ele>508.1</ele>
        <time>2026-05-28T15:40:38.000Z</time>
      </trkpt>
      <trkpt lat="43.99079" lon="3.50408">
        <ele>508.1</ele>
        <time>2026-05-28T15:40:39.000Z</time>
      </trkpt>
      <trkpt lat="43.99079" lon="3.50408">
        <ele>508.1</ele>
        <time>2026-05-28T15:40:40.000Z</time>
      </trkpt>
      <trkpt lat="43.9908" lon="3.50407">
        <ele>507.8</ele>
        <time>2026-05-28T15:40:41.000Z</time>
      </trkpt>
      <trkpt lat="43.9908" lon="3.50407">
        <ele>507.9</ele>
        <time>2026-05-28T15:40:42.000Z</time>
      </trkpt>
      <trkpt lat="43.9908" lon="3.50407">
        <ele>508</ele>
        <time>2026-05-28T15:40:43.000Z</time>
      </trkpt>
      <trkpt lat="43.9908" lon="3.50409">
        <ele>508</ele>
        <time>2026-05-28T15:40:44.000Z</time>
      </trkpt>
      <trkpt lat="43.9908" lon="3.50409">
        <ele>508</ele>
        <time>2026-05-28T15:40:45.000Z</time>
      </trkpt>
      <trkpt lat="43.9908" lon="3.5041">
        <ele>508.2</ele>
        <time>2026-05-28T15:40:46.000Z</time>
      </trkpt>
      <trkpt lat="43.9908" lon="3.5041">
        <ele>508.4</ele>
        <time>2026-05-28T15:40:47.000Z</time>
      </trkpt>
      <trkpt lat="43.9908" lon="3.5041">
        <ele>508.5</ele>
        <time>2026-05-28T15:40:48.000Z</time>
      </trkpt>
      <trkpt lat="43.9908" lon="3.5041">
        <ele>508.7</ele>
        <time>2026-05-28T15:40:49.000Z</time>
      </trkpt>
      <trkpt lat="43.9908" lon="3.5041">
        <ele>508.8</ele>
        <time>2026-05-28T15:40:50.000Z</time>
      </trkpt>
      <trkpt lat="43.9908" lon="3.5041">
        <ele>508.8</ele>
        <time>2026-05-28T15:40:51.000Z</time>
      </trkpt>
      <trkpt lat="43.9908" lon="3.5041">
        <ele>508.7</ele>
        <time>2026-05-28T15:40:52.000Z</time>
      </trkpt>
      <trkpt lat="43.9908" lon="3.5041">
        <ele>508.8</ele>
        <time>2026-05-28T15:40:53.000Z</time>
      </trkpt>
      <trkpt lat="43.9908" lon="3.5041">
        <ele>508.8</ele>
        <time>2026-05-28T15:40:54.000Z</time>
      </trkpt>
      <trkpt lat="43.9908" lon="3.5041">
        <ele>508.8</ele>
        <time>2026-05-28T15:40:55.000Z</time>
      </trkpt>
      <trkpt lat="43.9908" lon="3.5041">
        <ele>508.7</ele>
        <time>2026-05-28T15:40:56.000Z</time>
      </trkpt>
      <trkpt lat="43.99079" lon="3.5041">
        <ele>508.8</ele>
        <time>2026-05-28T15:40:57.000Z</time>
      </trkpt>
      <trkpt lat="43.9908" lon="3.50411">
        <ele>508.8</ele>
        <time>2026-05-28T15:40:58.000Z</time>
      </trkpt>
      <trkpt lat="43.9908" lon="3.50412">
        <ele>508.9</ele>
        <time>2026-05-28T15:40:59.000Z</time>
      </trkpt>
      <trkpt lat="43.99081" lon="3.50413">
        <ele>509.3</ele>
        <time>2026-05-28T15:41:00.000Z</time>
      </trkpt>
      <trkpt lat="43.99081" lon="3.50413">
        <ele>509.4</ele>
        <time>2026-05-28T15:41:01.000Z</time>
      </trkpt>
      <trkpt lat="43.99081" lon="3.50413">
        <ele>509.4</ele>
        <time>2026-05-28T15:41:02.000Z</time>
      </trkpt>
      <trkpt lat="43.99081" lon="3.50413">
        <ele>509.4</ele>
        <time>2026-05-28T15:41:03.000Z</time>
      </trkpt>
      <trkpt lat="43.99081" lon="3.50413">
        <ele>509.4</ele>
        <time>2026-05-28T15:41:04.000Z</time>
      </trkpt>
      <trkpt lat="43.9908" lon="3.50413">
        <ele>509.3</ele>
        <time>2026-05-28T15:41:05.000Z</time>
      </trkpt>
      <trkpt lat="43.9908" lon="3.50413">
        <ele>509.2</ele>
        <time>2026-05-28T15:41:06.000Z</time>
      </trkpt>
      <trkpt lat="43.9908" lon="3.50414">
        <ele>509.1</ele>
        <time>2026-05-28T15:41:07.000Z</time>
      </trkpt>
      <trkpt lat="43.9908" lon="3.50414">
        <ele>509.1</ele>
        <time>2026-05-28T15:41:08.000Z</time>
      </trkpt>
      <trkpt lat="43.9908" lon="3.50413">
        <ele>509.1</ele>
        <time>2026-05-28T15:41:09.000Z</time>
      </trkpt>
      <trkpt lat="43.9908" lon="3.50414">
        <ele>509.1</ele>
        <time>2026-05-28T15:41:10.000Z</time>
      </trkpt>
      <trkpt lat="43.9908" lon="3.50414">
        <ele>509</ele>
        <time>2026-05-28T15:41:11.000Z</time>
      </trkpt>
      <trkpt lat="43.9908" lon="3.50414">
        <ele>509.1</ele>
        <time>2026-05-28T15:41:12.000Z</time>
      </trkpt>
      <trkpt lat="43.9908" lon="3.50414">
        <ele>508.9</ele>
        <time>2026-05-28T15:41:13.000Z</time>
      </trkpt>
      <trkpt lat="43.9908" lon="3.50414">
        <ele>508.8</ele>
        <time>2026-05-28T15:41:14.000Z</time>
      </trkpt>
      <trkpt lat="43.9908" lon="3.50414">
        <ele>508.8</ele>
        <time>2026-05-28T15:41:15.000Z</time>
      </trkpt>
      <trkpt lat="43.9908" lon="3.50414">
        <ele>508.7</ele>
        <time>2026-05-28T15:41:16.000Z</time>
      </trkpt>
      <trkpt lat="43.9908" lon="3.50414">
        <ele>508.7</ele>
        <time>2026-05-28T15:41:17.000Z</time>
      </trkpt>
      <trkpt lat="43.9908" lon="3.50414">
        <ele>508.6</ele>
        <time>2026-05-28T15:41:18.000Z</time>
      </trkpt>
      <trkpt lat="43.9908" lon="3.50414">
        <ele>508.7</ele>
        <time>2026-05-28T15:41:19.000Z</time>
      </trkpt>
      <trkpt lat="43.9908" lon="3.50415">
        <ele>508.9</ele>
        <time>2026-05-28T15:41:20.000Z</time>
      </trkpt>
      <trkpt lat="43.9908" lon="3.50415">
        <ele>508.7</ele>
        <time>2026-05-28T15:41:21.000Z</time>
      </trkpt>
      <trkpt lat="43.99081" lon="3.50415">
        <ele>508.6</ele>
        <time>2026-05-28T15:41:22.000Z</time>
      </trkpt>
      <trkpt lat="43.99081" lon="3.50416">
        <ele>508.5</ele>
        <time>2026-05-28T15:41:23.000Z</time>
      </trkpt>
      <trkpt lat="43.99081" lon="3.50416">
        <ele>508.4</ele>
        <time>2026-05-28T15:41:24.000Z</time>
      </trkpt>
      <trkpt lat="43.9908" lon="3.50415">
        <ele>508.1</ele>
        <time>2026-05-28T15:41:25.000Z</time>
      </trkpt>
      <trkpt lat="43.9908" lon="3.50415">
        <ele>508.3</ele>
        <time>2026-05-28T15:41:26.000Z</time>
      </trkpt>
      <trkpt lat="43.9908" lon="3.50415">
        <ele>508.5</ele>
        <time>2026-05-28T15:41:27.000Z</time>
      </trkpt>
      <trkpt lat="43.9908" lon="3.50415">
        <ele>508.7</ele>
        <time>2026-05-28T15:41:28.000Z</time>
      </trkpt>
      <trkpt lat="43.9908" lon="3.50415">
        <ele>508.8</ele>
        <time>2026-05-28T15:41:29.000Z</time>
      </trkpt>
      <trkpt lat="43.9908" lon="3.50415">
        <ele>508.6</ele>
        <time>2026-05-28T15:41:30.000Z</time>
      </trkpt>
      <trkpt lat="43.9908" lon="3.50415">
        <ele>508.4</ele>
        <time>2026-05-28T15:41:31.000Z</time>
      </trkpt>
      <trkpt lat="43.9908" lon="3.50415">
        <ele>508.4</ele>
        <time>2026-05-28T15:41:32.000Z</time>
      </trkpt>
      <trkpt lat="43.9908" lon="3.50414">
        <ele>508.4</ele>
        <time>2026-05-28T15:41:33.000Z</time>
      </trkpt>
      <trkpt lat="43.99079" lon="3.50414">
        <ele>508.2</ele>
        <time>2026-05-28T15:41:35.000Z</time>
      </trkpt>
      <trkpt lat="43.99079" lon="3.50414">
        <ele>507.9</ele>
        <time>2026-05-28T15:41:36.000Z</time>
      </trkpt>
      <trkpt lat="43.99079" lon="3.50414">
        <ele>507.6</ele>
        <time>2026-05-28T15:41:37.000Z</time>
      </trkpt>
      <trkpt lat="43.99079" lon="3.50414">
        <ele>507.3</ele>
        <time>2026-05-28T15:41:38.000Z</time>
      </trkpt>
      <trkpt lat="43.99079" lon="3.50414">
        <ele>507.1</ele>
        <time>2026-05-28T15:41:39.000Z</time>
      </trkpt>
      <trkpt lat="43.99079" lon="3.50414">
        <ele>507</ele>
        <time>2026-05-28T15:41:40.000Z</time>
      </trkpt>
      <trkpt lat="43.99079" lon="3.50414">
        <ele>506.8</ele>
        <time>2026-05-28T15:41:41.000Z</time>
      </trkpt>
      <trkpt lat="43.99079" lon="3.50414">
        <ele>506.5</ele>
        <time>2026-05-28T15:41:42.000Z</time>
      </trkpt>
      <trkpt lat="43.99079" lon="3.50414">
        <ele>506.4</ele>
        <time>2026-05-28T15:41:43.000Z</time>
      </trkpt>
      <trkpt lat="43.99079" lon="3.50414">
        <ele>506.4</ele>
        <time>2026-05-28T15:41:44.000Z</time>
      </trkpt>
      <trkpt lat="43.99079" lon="3.50414">
        <ele>506.5</ele>
        <time>2026-05-28T15:41:45.000Z</time>
      </trkpt>
    </trkseg>
  </trk>
</gpx>